<?xml version="1.0" encoding="UTF-8" standalone="no" ?>
<gpx xmlns="http://www.topografix.com/GPX/1/1" xmlns:xsi="http://www.w3.org/2001/XMLSchema-instance" xsi:schemaLocation="http://www.topografix.com/GPX/1/1 http://www.topografix.com/GPX/1/1/gpx.xsd" version="1.1" creator="VisuGPX - https://www.visugpx.com">
  <metadata>
    <name>Grotte des Peyrourets</name>
  </metadata>
  <trk>
    <name><![CDATA[Grotte des Peyrourets_1]]></name>
    <trkseg>
      <trkpt lat="44.14957" lon="5.87717">
        <ele>555</ele>
        <time>2021-06-01T06:22:00.000Z</time>
      </trkpt>
      <trkpt lat="44.14957" lon="5.87717">
        <ele>555</ele>
        <time>2021-06-01T06:22:01.000Z</time>
      </trkpt>
      <trkpt lat="44.14957" lon="5.87717">
        <ele>555</ele>
        <time>2021-06-01T06:22:02.000Z</time>
      </trkpt>
      <trkpt lat="44.14956" lon="5.87717">
        <ele>555</ele>
        <time>2021-06-01T06:22:03.000Z</time>
      </trkpt>
      <trkpt lat="44.14956" lon="5.87717">
        <ele>555</ele>
        <time>2021-06-01T06:22:04.000Z</time>
      </trkpt>
      <trkpt lat="44.14956" lon="5.87718">
        <ele>554</ele>
        <time>2021-06-01T06:22:05.000Z</time>
      </trkpt>
      <trkpt lat="44.14956" lon="5.87718">
        <ele>554</ele>
        <time>2021-06-01T06:22:06.000Z</time>
      </trkpt>
      <trkpt lat="44.14956" lon="5.87718">
        <ele>554</ele>
        <time>2021-06-01T06:22:07.000Z</time>
      </trkpt>
      <trkpt lat="44.14955" lon="5.87718">
        <ele>554</ele>
        <time>2021-06-01T06:22:08.000Z</time>
      </trkpt>
      <trkpt lat="44.14955" lon="5.87718">
        <ele>554</ele>
        <time>2021-06-01T06:22:09.000Z</time>
      </trkpt>
      <trkpt lat="44.14955" lon="5.87718">
        <ele>553</ele>
        <time>2021-06-01T06:22:10.000Z</time>
      </trkpt>
      <trkpt lat="44.14955" lon="5.87718">
        <ele>553</ele>
        <time>2021-06-01T06:22:11.000Z</time>
      </trkpt>
      <trkpt lat="44.14955" lon="5.87718">
        <ele>553</ele>
        <time>2021-06-01T06:22:12.000Z</time>
      </trkpt>
      <trkpt lat="44.14954" lon="5.87718">
        <ele>553</ele>
        <time>2021-06-01T06:22:13.000Z</time>
      </trkpt>
      <trkpt lat="44.14954" lon="5.87718">
        <ele>552</ele>
        <time>2021-06-01T06:22:14.000Z</time>
      </trkpt>
      <trkpt lat="44.14954" lon="5.87718">
        <ele>552</ele>
        <time>2021-06-01T06:22:15.000Z</time>
      </trkpt>
      <trkpt lat="44.14954" lon="5.87718">
        <ele>552</ele>
        <time>2021-06-01T06:22:16.000Z</time>
      </trkpt>
      <trkpt lat="44.14954" lon="5.87718">
        <ele>552</ele>
        <time>2021-06-01T06:22:17.000Z</time>
      </trkpt>
      <trkpt lat="44.14954" lon="5.87718">
        <ele>552</ele>
        <time>2021-06-01T06:22:18.000Z</time>
      </trkpt>
      <trkpt lat="44.14954" lon="5.87718">
        <ele>552</ele>
        <time>2021-06-01T06:22:19.000Z</time>
      </trkpt>
      <trkpt lat="44.14954" lon="5.87718">
        <ele>552</ele>
        <time>2021-06-01T06:22:20.000Z</time>
      </trkpt>
      <trkpt lat="44.14953" lon="5.87718">
        <ele>552</ele>
        <time>2021-06-01T06:22:21.000Z</time>
      </trkpt>
      <trkpt lat="44.14953" lon="5.87718">
        <ele>552</ele>
        <time>2021-06-01T06:22:22.000Z</time>
      </trkpt>
      <trkpt lat="44.14953" lon="5.87718">
        <ele>552</ele>
        <time>2021-06-01T06:22:23.000Z</time>
      </trkpt>
      <trkpt lat="44.14954" lon="5.87719">
        <ele>552</ele>
        <time>2021-06-01T06:22:24.000Z</time>
      </trkpt>
      <trkpt lat="44.14954" lon="5.87719">
        <ele>552</ele>
        <time>2021-06-01T06:22:25.000Z</time>
      </trkpt>
      <trkpt lat="44.14954" lon="5.8772">
        <ele>552</ele>
        <time>2021-06-01T06:22:26.000Z</time>
      </trkpt>
      <trkpt lat="44.14954" lon="5.8772">
        <ele>552</ele>
        <time>2021-06-01T06:22:27.000Z</time>
      </trkpt>
      <trkpt lat="44.14954" lon="5.8772">
        <ele>552</ele>
        <time>2021-06-01T06:22:28.000Z</time>
      </trkpt>
      <trkpt lat="44.14954" lon="5.8772">
        <ele>552</ele>
        <time>2021-06-01T06:22:29.000Z</time>
      </trkpt>
      <trkpt lat="44.14954" lon="5.8772">
        <ele>552</ele>
        <time>2021-06-01T06:22:30.000Z</time>
      </trkpt>
      <trkpt lat="44.14953" lon="5.8772">
        <ele>552</ele>
        <time>2021-06-01T06:22:31.000Z</time>
      </trkpt>
      <trkpt lat="44.14953" lon="5.8772">
        <ele>552</ele>
        <time>2021-06-01T06:22:32.000Z</time>
      </trkpt>
      <trkpt lat="44.14953" lon="5.8772">
        <ele>552</ele>
        <time>2021-06-01T06:22:33.000Z</time>
      </trkpt>
      <trkpt lat="44.14953" lon="5.8772">
        <ele>552</ele>
        <time>2021-06-01T06:22:34.000Z</time>
      </trkpt>
      <trkpt lat="44.14952" lon="5.8772">
        <ele>552</ele>
        <time>2021-06-01T06:22:35.000Z</time>
      </trkpt>
      <trkpt lat="44.14952" lon="5.87719">
        <ele>552</ele>
        <time>2021-06-01T06:22:36.000Z</time>
      </trkpt>
      <trkpt lat="44.14952" lon="5.87718">
        <ele>552</ele>
        <time>2021-06-01T06:22:37.000Z</time>
      </trkpt>
      <trkpt lat="44.14952" lon="5.87717">
        <ele>552</ele>
        <time>2021-06-01T06:22:38.000Z</time>
      </trkpt>
      <trkpt lat="44.14951" lon="5.87716">
        <ele>552</ele>
        <time>2021-06-01T06:22:39.000Z</time>
      </trkpt>
      <trkpt lat="44.14951" lon="5.87715">
        <ele>552</ele>
        <time>2021-06-01T06:22:40.000Z</time>
      </trkpt>
      <trkpt lat="44.14951" lon="5.87713">
        <ele>552</ele>
        <time>2021-06-01T06:22:41.000Z</time>
      </trkpt>
      <trkpt lat="44.14951" lon="5.87712">
        <ele>552</ele>
        <time>2021-06-01T06:22:42.000Z</time>
      </trkpt>
      <trkpt lat="44.14951" lon="5.8771">
        <ele>551</ele>
        <time>2021-06-01T06:22:43.000Z</time>
      </trkpt>
      <trkpt lat="44.1495" lon="5.87709">
        <ele>551</ele>
        <time>2021-06-01T06:22:44.000Z</time>
      </trkpt>
      <trkpt lat="44.1495" lon="5.87707">
        <ele>551</ele>
        <time>2021-06-01T06:22:45.000Z</time>
      </trkpt>
      <trkpt lat="44.1495" lon="5.87706">
        <ele>551</ele>
        <time>2021-06-01T06:22:46.000Z</time>
      </trkpt>
      <trkpt lat="44.14949" lon="5.87705">
        <ele>551</ele>
        <time>2021-06-01T06:22:47.000Z</time>
      </trkpt>
      <trkpt lat="44.14949" lon="5.87704">
        <ele>551</ele>
        <time>2021-06-01T06:22:48.000Z</time>
      </trkpt>
      <trkpt lat="44.14949" lon="5.87704">
        <ele>551</ele>
        <time>2021-06-01T06:22:49.000Z</time>
      </trkpt>
      <trkpt lat="44.14949" lon="5.87704">
        <ele>551</ele>
        <time>2021-06-01T06:22:50.000Z</time>
      </trkpt>
      <trkpt lat="44.14949" lon="5.87705">
        <ele>551</ele>
        <time>2021-06-01T06:22:51.000Z</time>
      </trkpt>
      <trkpt lat="44.14949" lon="5.87705">
        <ele>551</ele>
        <time>2021-06-01T06:22:52.000Z</time>
      </trkpt>
      <trkpt lat="44.14949" lon="5.87705">
        <ele>551</ele>
        <time>2021-06-01T06:22:53.000Z</time>
      </trkpt>
      <trkpt lat="44.14949" lon="5.87704">
        <ele>551</ele>
        <time>2021-06-01T06:22:54.000Z</time>
      </trkpt>
      <trkpt lat="44.14949" lon="5.87704">
        <ele>551</ele>
        <time>2021-06-01T06:22:55.000Z</time>
      </trkpt>
      <trkpt lat="44.14949" lon="5.87704">
        <ele>551</ele>
        <time>2021-06-01T06:22:56.000Z</time>
      </trkpt>
      <trkpt lat="44.14949" lon="5.87704">
        <ele>551</ele>
        <time>2021-06-01T06:22:57.000Z</time>
      </trkpt>
      <trkpt lat="44.14949" lon="5.87704">
        <ele>551</ele>
        <time>2021-06-01T06:22:58.000Z</time>
      </trkpt>
      <trkpt lat="44.14949" lon="5.87704">
        <ele>551</ele>
        <time>2021-06-01T06:22:59.000Z</time>
      </trkpt>
      <trkpt lat="44.14949" lon="5.87704">
        <ele>551</ele>
        <time>2021-06-01T06:23:00.000Z</time>
      </trkpt>
      <trkpt lat="44.14949" lon="5.87704">
        <ele>551</ele>
        <time>2021-06-01T06:23:01.000Z</time>
      </trkpt>
      <trkpt lat="44.14949" lon="5.87704">
        <ele>551</ele>
        <time>2021-06-01T06:23:02.000Z</time>
      </trkpt>
      <trkpt lat="44.14949" lon="5.87704">
        <ele>551</ele>
        <time>2021-06-01T06:23:03.000Z</time>
      </trkpt>
      <trkpt lat="44.14949" lon="5.87704">
        <ele>551</ele>
        <time>2021-06-01T06:23:04.000Z</time>
      </trkpt>
      <trkpt lat="44.14949" lon="5.87704">
        <ele>550</ele>
        <time>2021-06-01T06:23:05.000Z</time>
      </trkpt>
      <trkpt lat="44.14949" lon="5.87704">
        <ele>550</ele>
        <time>2021-06-01T06:23:06.000Z</time>
      </trkpt>
      <trkpt lat="44.14949" lon="5.87704">
        <ele>550</ele>
        <time>2021-06-01T06:23:07.000Z</time>
      </trkpt>
      <trkpt lat="44.14949" lon="5.87704">
        <ele>550</ele>
        <time>2021-06-01T06:23:08.000Z</time>
      </trkpt>
      <trkpt lat="44.14949" lon="5.87704">
        <ele>550</ele>
        <time>2021-06-01T06:23:09.000Z</time>
      </trkpt>
      <trkpt lat="44.14949" lon="5.87704">
        <ele>550</ele>
        <time>2021-06-01T06:23:10.000Z</time>
      </trkpt>
      <trkpt lat="44.14948" lon="5.87704">
        <ele>550</ele>
        <time>2021-06-01T06:23:11.000Z</time>
      </trkpt>
      <trkpt lat="44.14948" lon="5.87704">
        <ele>550</ele>
        <time>2021-06-01T06:23:12.000Z</time>
      </trkpt>
      <trkpt lat="44.14948" lon="5.87704">
        <ele>550</ele>
        <time>2021-06-01T06:23:13.000Z</time>
      </trkpt>
      <trkpt lat="44.14949" lon="5.87703">
        <ele>550</ele>
        <time>2021-06-01T06:23:14.000Z</time>
      </trkpt>
      <trkpt lat="44.14949" lon="5.87703">
        <ele>550</ele>
        <time>2021-06-01T06:23:15.000Z</time>
      </trkpt>
      <trkpt lat="44.14949" lon="5.87703">
        <ele>550</ele>
        <time>2021-06-01T06:23:16.000Z</time>
      </trkpt>
      <trkpt lat="44.14949" lon="5.87703">
        <ele>550</ele>
        <time>2021-06-01T06:23:17.000Z</time>
      </trkpt>
      <trkpt lat="44.14949" lon="5.87703">
        <ele>550</ele>
        <time>2021-06-01T06:23:18.000Z</time>
      </trkpt>
      <trkpt lat="44.14949" lon="5.87703">
        <ele>550</ele>
        <time>2021-06-01T06:23:19.000Z</time>
      </trkpt>
      <trkpt lat="44.14949" lon="5.87703">
        <ele>550</ele>
        <time>2021-06-01T06:23:20.000Z</time>
      </trkpt>
      <trkpt lat="44.14949" lon="5.87703">
        <ele>550</ele>
        <time>2021-06-01T06:23:21.000Z</time>
      </trkpt>
      <trkpt lat="44.14949" lon="5.87703">
        <ele>550</ele>
        <time>2021-06-01T06:23:22.000Z</time>
      </trkpt>
      <trkpt lat="44.1495" lon="5.87703">
        <ele>550</ele>
        <time>2021-06-01T06:23:23.000Z</time>
      </trkpt>
      <trkpt lat="44.1495" lon="5.87703">
        <ele>550</ele>
        <time>2021-06-01T06:23:24.000Z</time>
      </trkpt>
      <trkpt lat="44.1495" lon="5.87703">
        <ele>550</ele>
        <time>2021-06-01T06:23:25.000Z</time>
      </trkpt>
      <trkpt lat="44.1495" lon="5.87704">
        <ele>550</ele>
        <time>2021-06-01T06:23:26.000Z</time>
      </trkpt>
      <trkpt lat="44.1495" lon="5.87704">
        <ele>550</ele>
        <time>2021-06-01T06:23:27.000Z</time>
      </trkpt>
      <trkpt lat="44.1495" lon="5.87704">
        <ele>550</ele>
        <time>2021-06-01T06:23:28.000Z</time>
      </trkpt>
      <trkpt lat="44.1495" lon="5.87704">
        <ele>550</ele>
        <time>2021-06-01T06:23:29.000Z</time>
      </trkpt>
      <trkpt lat="44.1495" lon="5.87704">
        <ele>550</ele>
        <time>2021-06-01T06:23:30.000Z</time>
      </trkpt>
      <trkpt lat="44.14951" lon="5.87704">
        <ele>550</ele>
        <time>2021-06-01T06:23:31.000Z</time>
      </trkpt>
      <trkpt lat="44.14951" lon="5.87704">
        <ele>550</ele>
        <time>2021-06-01T06:23:32.000Z</time>
      </trkpt>
      <trkpt lat="44.14951" lon="5.87704">
        <ele>550</ele>
        <time>2021-06-01T06:23:33.000Z</time>
      </trkpt>
      <trkpt lat="44.14951" lon="5.87703">
        <ele>550</ele>
        <time>2021-06-01T06:23:34.000Z</time>
      </trkpt>
      <trkpt lat="44.1495" lon="5.87703">
        <ele>550</ele>
        <time>2021-06-01T06:23:35.000Z</time>
      </trkpt>
      <trkpt lat="44.1495" lon="5.87703">
        <ele>550</ele>
        <time>2021-06-01T06:23:36.000Z</time>
      </trkpt>
      <trkpt lat="44.1495" lon="5.87703">
        <ele>550</ele>
        <time>2021-06-01T06:23:37.000Z</time>
      </trkpt>
      <trkpt lat="44.1495" lon="5.87703">
        <ele>550</ele>
        <time>2021-06-01T06:23:38.000Z</time>
      </trkpt>
      <trkpt lat="44.1495" lon="5.87703">
        <ele>550</ele>
        <time>2021-06-01T06:23:39.000Z</time>
      </trkpt>
      <trkpt lat="44.1495" lon="5.87703">
        <ele>550</ele>
        <time>2021-06-01T06:23:40.000Z</time>
      </trkpt>
      <trkpt lat="44.1495" lon="5.87703">
        <ele>549</ele>
        <time>2021-06-01T06:23:41.000Z</time>
      </trkpt>
      <trkpt lat="44.1495" lon="5.87703">
        <ele>549</ele>
        <time>2021-06-01T06:23:42.000Z</time>
      </trkpt>
      <trkpt lat="44.1495" lon="5.87703">
        <ele>549</ele>
        <time>2021-06-01T06:23:43.000Z</time>
      </trkpt>
      <trkpt lat="44.14951" lon="5.87703">
        <ele>549</ele>
        <time>2021-06-01T06:23:44.000Z</time>
      </trkpt>
      <trkpt lat="44.14951" lon="5.87703">
        <ele>549</ele>
        <time>2021-06-01T06:23:45.000Z</time>
      </trkpt>
      <trkpt lat="44.14951" lon="5.87703">
        <ele>549</ele>
        <time>2021-06-01T06:23:46.000Z</time>
      </trkpt>
      <trkpt lat="44.14951" lon="5.87703">
        <ele>549</ele>
        <time>2021-06-01T06:23:47.000Z</time>
      </trkpt>
      <trkpt lat="44.1495" lon="5.87703">
        <ele>549</ele>
        <time>2021-06-01T06:23:48.000Z</time>
      </trkpt>
      <trkpt lat="44.14951" lon="5.87703">
        <ele>549</ele>
        <time>2021-06-01T06:23:49.000Z</time>
      </trkpt>
      <trkpt lat="44.14951" lon="5.87703">
        <ele>549</ele>
        <time>2021-06-01T06:23:50.000Z</time>
      </trkpt>
      <trkpt lat="44.1495" lon="5.87703">
        <ele>549</ele>
        <time>2021-06-01T06:23:51.000Z</time>
      </trkpt>
      <trkpt lat="44.1495" lon="5.87703">
        <ele>549</ele>
        <time>2021-06-01T06:23:52.000Z</time>
      </trkpt>
      <trkpt lat="44.1495" lon="5.87703">
        <ele>549</ele>
        <time>2021-06-01T06:23:53.000Z</time>
      </trkpt>
      <trkpt lat="44.1495" lon="5.87703">
        <ele>549</ele>
        <time>2021-06-01T06:23:54.000Z</time>
      </trkpt>
      <trkpt lat="44.1495" lon="5.87703">
        <ele>549</ele>
        <time>2021-06-01T06:23:55.000Z</time>
      </trkpt>
      <trkpt lat="44.1495" lon="5.87703">
        <ele>549</ele>
        <time>2021-06-01T06:23:56.000Z</time>
      </trkpt>
      <trkpt lat="44.1495" lon="5.87703">
        <ele>549</ele>
        <time>2021-06-01T06:23:57.000Z</time>
      </trkpt>
      <trkpt lat="44.1495" lon="5.87702">
        <ele>549</ele>
        <time>2021-06-01T06:23:58.000Z</time>
      </trkpt>
      <trkpt lat="44.1495" lon="5.87703">
        <ele>549</ele>
        <time>2021-06-01T06:23:59.000Z</time>
      </trkpt>
      <trkpt lat="44.1495" lon="5.87703">
        <ele>549</ele>
        <time>2021-06-01T06:24:00.000Z</time>
      </trkpt>
      <trkpt lat="44.1495" lon="5.87703">
        <ele>549</ele>
        <time>2021-06-01T06:24:01.000Z</time>
      </trkpt>
      <trkpt lat="44.14951" lon="5.87703">
        <ele>549</ele>
        <time>2021-06-01T06:24:02.000Z</time>
      </trkpt>
      <trkpt lat="44.14951" lon="5.87703">
        <ele>549</ele>
        <time>2021-06-01T06:24:03.000Z</time>
      </trkpt>
      <trkpt lat="44.14951" lon="5.87703">
        <ele>549</ele>
        <time>2021-06-01T06:24:04.000Z</time>
      </trkpt>
      <trkpt lat="44.14952" lon="5.87705">
        <ele>550</ele>
        <time>2021-06-01T06:24:05.000Z</time>
      </trkpt>
      <trkpt lat="44.14952" lon="5.87706">
        <ele>550</ele>
        <time>2021-06-01T06:24:06.000Z</time>
      </trkpt>
      <trkpt lat="44.14952" lon="5.87708">
        <ele>550</ele>
        <time>2021-06-01T06:24:07.000Z</time>
      </trkpt>
      <trkpt lat="44.14952" lon="5.8771">
        <ele>550</ele>
        <time>2021-06-01T06:24:08.000Z</time>
      </trkpt>
      <trkpt lat="44.14952" lon="5.87712">
        <ele>550</ele>
        <time>2021-06-01T06:24:09.000Z</time>
      </trkpt>
      <trkpt lat="44.14953" lon="5.87714">
        <ele>550</ele>
        <time>2021-06-01T06:24:10.000Z</time>
      </trkpt>
      <trkpt lat="44.14953" lon="5.87716">
        <ele>550</ele>
        <time>2021-06-01T06:24:11.000Z</time>
      </trkpt>
      <trkpt lat="44.14953" lon="5.87716">
        <ele>550</ele>
        <time>2021-06-01T06:24:12.000Z</time>
      </trkpt>
      <trkpt lat="44.14953" lon="5.87717">
        <ele>550</ele>
        <time>2021-06-01T06:24:13.000Z</time>
      </trkpt>
      <trkpt lat="44.14953" lon="5.87717">
        <ele>550</ele>
        <time>2021-06-01T06:24:14.000Z</time>
      </trkpt>
      <trkpt lat="44.14953" lon="5.87717">
        <ele>550</ele>
        <time>2021-06-01T06:24:15.000Z</time>
      </trkpt>
      <trkpt lat="44.14953" lon="5.87718">
        <ele>550</ele>
        <time>2021-06-01T06:24:16.000Z</time>
      </trkpt>
      <trkpt lat="44.14953" lon="5.87718">
        <ele>550</ele>
        <time>2021-06-01T06:24:17.000Z</time>
      </trkpt>
      <trkpt lat="44.14954" lon="5.87718">
        <ele>550</ele>
        <time>2021-06-01T06:24:18.000Z</time>
      </trkpt>
      <trkpt lat="44.14954" lon="5.87718">
        <ele>550</ele>
        <time>2021-06-01T06:24:19.000Z</time>
      </trkpt>
      <trkpt lat="44.14954" lon="5.87718">
        <ele>550</ele>
        <time>2021-06-01T06:24:20.000Z</time>
      </trkpt>
      <trkpt lat="44.14954" lon="5.87718">
        <ele>550</ele>
        <time>2021-06-01T06:24:21.000Z</time>
      </trkpt>
      <trkpt lat="44.14954" lon="5.87718">
        <ele>550</ele>
        <time>2021-06-01T06:24:22.000Z</time>
      </trkpt>
      <trkpt lat="44.14953" lon="5.87718">
        <ele>550</ele>
        <time>2021-06-01T06:24:23.000Z</time>
      </trkpt>
      <trkpt lat="44.14953" lon="5.87719">
        <ele>550</ele>
        <time>2021-06-01T06:24:24.000Z</time>
      </trkpt>
      <trkpt lat="44.14954" lon="5.8772">
        <ele>550</ele>
        <time>2021-06-01T06:24:25.000Z</time>
      </trkpt>
      <trkpt lat="44.14955" lon="5.87721">
        <ele>550</ele>
        <time>2021-06-01T06:24:26.000Z</time>
      </trkpt>
      <trkpt lat="44.14955" lon="5.87721">
        <ele>550</ele>
        <time>2021-06-01T06:24:27.000Z</time>
      </trkpt>
      <trkpt lat="44.14955" lon="5.87722">
        <ele>550</ele>
        <time>2021-06-01T06:24:28.000Z</time>
      </trkpt>
      <trkpt lat="44.14955" lon="5.87722">
        <ele>550</ele>
        <time>2021-06-01T06:24:29.000Z</time>
      </trkpt>
      <trkpt lat="44.14955" lon="5.87722">
        <ele>550</ele>
        <time>2021-06-01T06:24:30.000Z</time>
      </trkpt>
      <trkpt lat="44.14955" lon="5.87722">
        <ele>550</ele>
        <time>2021-06-01T06:24:31.000Z</time>
      </trkpt>
      <trkpt lat="44.14955" lon="5.87721">
        <ele>550</ele>
        <time>2021-06-01T06:24:32.000Z</time>
      </trkpt>
      <trkpt lat="44.14955" lon="5.8772">
        <ele>550</ele>
        <time>2021-06-01T06:24:33.000Z</time>
      </trkpt>
      <trkpt lat="44.14955" lon="5.87718">
        <ele>550</ele>
        <time>2021-06-01T06:24:34.000Z</time>
      </trkpt>
      <trkpt lat="44.14954" lon="5.87716">
        <ele>550</ele>
        <time>2021-06-01T06:24:35.000Z</time>
      </trkpt>
      <trkpt lat="44.14954" lon="5.87715">
        <ele>550</ele>
        <time>2021-06-01T06:24:36.000Z</time>
      </trkpt>
      <trkpt lat="44.14954" lon="5.87713">
        <ele>550</ele>
        <time>2021-06-01T06:24:37.000Z</time>
      </trkpt>
      <trkpt lat="44.14954" lon="5.87711">
        <ele>550</ele>
        <time>2021-06-01T06:24:38.000Z</time>
      </trkpt>
      <trkpt lat="44.14953" lon="5.8771">
        <ele>550</ele>
        <time>2021-06-01T06:24:39.000Z</time>
      </trkpt>
      <trkpt lat="44.14953" lon="5.87709">
        <ele>550</ele>
        <time>2021-06-01T06:24:40.000Z</time>
      </trkpt>
      <trkpt lat="44.14953" lon="5.87708">
        <ele>550</ele>
        <time>2021-06-01T06:24:41.000Z</time>
      </trkpt>
      <trkpt lat="44.14952" lon="5.87707">
        <ele>551</ele>
        <time>2021-06-01T06:24:42.000Z</time>
      </trkpt>
      <trkpt lat="44.14952" lon="5.87707">
        <ele>551</ele>
        <time>2021-06-01T06:24:43.000Z</time>
      </trkpt>
      <trkpt lat="44.14952" lon="5.87707">
        <ele>551</ele>
        <time>2021-06-01T06:24:44.000Z</time>
      </trkpt>
      <trkpt lat="44.14951" lon="5.87707">
        <ele>551</ele>
        <time>2021-06-01T06:24:45.000Z</time>
      </trkpt>
      <trkpt lat="44.14951" lon="5.87707">
        <ele>551</ele>
        <time>2021-06-01T06:24:46.000Z</time>
      </trkpt>
      <trkpt lat="44.14951" lon="5.87706">
        <ele>551</ele>
        <time>2021-06-01T06:24:47.000Z</time>
      </trkpt>
      <trkpt lat="44.14951" lon="5.87706">
        <ele>551</ele>
        <time>2021-06-01T06:24:48.000Z</time>
      </trkpt>
      <trkpt lat="44.14951" lon="5.87706">
        <ele>551</ele>
        <time>2021-06-01T06:24:49.000Z</time>
      </trkpt>
      <trkpt lat="44.14951" lon="5.87706">
        <ele>551</ele>
        <time>2021-06-01T06:24:50.000Z</time>
      </trkpt>
      <trkpt lat="44.14951" lon="5.87706">
        <ele>551</ele>
        <time>2021-06-01T06:24:51.000Z</time>
      </trkpt>
      <trkpt lat="44.14951" lon="5.87706">
        <ele>551</ele>
        <time>2021-06-01T06:24:52.000Z</time>
      </trkpt>
      <trkpt lat="44.1495" lon="5.87706">
        <ele>551</ele>
        <time>2021-06-01T06:24:53.000Z</time>
      </trkpt>
      <trkpt lat="44.1495" lon="5.87706">
        <ele>551</ele>
        <time>2021-06-01T06:24:54.000Z</time>
      </trkpt>
      <trkpt lat="44.1495" lon="5.87706">
        <ele>551</ele>
        <time>2021-06-01T06:24:55.000Z</time>
      </trkpt>
      <trkpt lat="44.1495" lon="5.87706">
        <ele>551</ele>
        <time>2021-06-01T06:24:56.000Z</time>
      </trkpt>
      <trkpt lat="44.1495" lon="5.87706">
        <ele>551</ele>
        <time>2021-06-01T06:24:57.000Z</time>
      </trkpt>
      <trkpt lat="44.1495" lon="5.87706">
        <ele>551</ele>
        <time>2021-06-01T06:24:58.000Z</time>
      </trkpt>
      <trkpt lat="44.1495" lon="5.87706">
        <ele>551</ele>
        <time>2021-06-01T06:24:59.000Z</time>
      </trkpt>
      <trkpt lat="44.1495" lon="5.87706">
        <ele>551</ele>
        <time>2021-06-01T06:25:00.000Z</time>
      </trkpt>
      <trkpt lat="44.1495" lon="5.87707">
        <ele>551</ele>
        <time>2021-06-01T06:25:01.000Z</time>
      </trkpt>
      <trkpt lat="44.1495" lon="5.87707">
        <ele>551</ele>
        <time>2021-06-01T06:25:02.000Z</time>
      </trkpt>
      <trkpt lat="44.1495" lon="5.87707">
        <ele>551</ele>
        <time>2021-06-01T06:25:03.000Z</time>
      </trkpt>
      <trkpt lat="44.1495" lon="5.87707">
        <ele>551</ele>
        <time>2021-06-01T06:25:04.000Z</time>
      </trkpt>
      <trkpt lat="44.1495" lon="5.87707">
        <ele>551</ele>
        <time>2021-06-01T06:25:05.000Z</time>
      </trkpt>
      <trkpt lat="44.1495" lon="5.87707">
        <ele>551</ele>
        <time>2021-06-01T06:25:06.000Z</time>
      </trkpt>
      <trkpt lat="44.1495" lon="5.87707">
        <ele>551</ele>
        <time>2021-06-01T06:25:07.000Z</time>
      </trkpt>
      <trkpt lat="44.1495" lon="5.87707">
        <ele>551</ele>
        <time>2021-06-01T06:25:08.000Z</time>
      </trkpt>
      <trkpt lat="44.14949" lon="5.87707">
        <ele>551</ele>
        <time>2021-06-01T06:25:09.000Z</time>
      </trkpt>
      <trkpt lat="44.14949" lon="5.87707">
        <ele>551</ele>
        <time>2021-06-01T06:25:10.000Z</time>
      </trkpt>
      <trkpt lat="44.14949" lon="5.87707">
        <ele>551</ele>
        <time>2021-06-01T06:25:11.000Z</time>
      </trkpt>
      <trkpt lat="44.14949" lon="5.87707">
        <ele>551</ele>
        <time>2021-06-01T06:25:12.000Z</time>
      </trkpt>
      <trkpt lat="44.14949" lon="5.87707">
        <ele>551</ele>
        <time>2021-06-01T06:25:13.000Z</time>
      </trkpt>
      <trkpt lat="44.14949" lon="5.87707">
        <ele>551</ele>
        <time>2021-06-01T06:25:14.000Z</time>
      </trkpt>
      <trkpt lat="44.14949" lon="5.87706">
        <ele>551</ele>
        <time>2021-06-01T06:25:15.000Z</time>
      </trkpt>
      <trkpt lat="44.14949" lon="5.87706">
        <ele>550</ele>
        <time>2021-06-01T06:25:16.000Z</time>
      </trkpt>
      <trkpt lat="44.14949" lon="5.87706">
        <ele>550</ele>
        <time>2021-06-01T06:25:17.000Z</time>
      </trkpt>
      <trkpt lat="44.14949" lon="5.87706">
        <ele>550</ele>
        <time>2021-06-01T06:25:18.000Z</time>
      </trkpt>
      <trkpt lat="44.14949" lon="5.87706">
        <ele>550</ele>
        <time>2021-06-01T06:25:19.000Z</time>
      </trkpt>
      <trkpt lat="44.14949" lon="5.87706">
        <ele>550</ele>
        <time>2021-06-01T06:25:20.000Z</time>
      </trkpt>
      <trkpt lat="44.14949" lon="5.87706">
        <ele>550</ele>
        <time>2021-06-01T06:25:21.000Z</time>
      </trkpt>
      <trkpt lat="44.14949" lon="5.87706">
        <ele>550</ele>
        <time>2021-06-01T06:25:22.000Z</time>
      </trkpt>
      <trkpt lat="44.14949" lon="5.87706">
        <ele>550</ele>
        <time>2021-06-01T06:25:23.000Z</time>
      </trkpt>
      <trkpt lat="44.14949" lon="5.87706">
        <ele>550</ele>
        <time>2021-06-01T06:25:24.000Z</time>
      </trkpt>
      <trkpt lat="44.14949" lon="5.87706">
        <ele>550</ele>
        <time>2021-06-01T06:25:25.000Z</time>
      </trkpt>
      <trkpt lat="44.14949" lon="5.87706">
        <ele>550</ele>
        <time>2021-06-01T06:25:26.000Z</time>
      </trkpt>
      <trkpt lat="44.14949" lon="5.87706">
        <ele>550</ele>
        <time>2021-06-01T06:25:27.000Z</time>
      </trkpt>
      <trkpt lat="44.14949" lon="5.87706">
        <ele>550</ele>
        <time>2021-06-01T06:25:28.000Z</time>
      </trkpt>
      <trkpt lat="44.14949" lon="5.87706">
        <ele>550</ele>
        <time>2021-06-01T06:25:29.000Z</time>
      </trkpt>
      <trkpt lat="44.14949" lon="5.87706">
        <ele>550</ele>
        <time>2021-06-01T06:25:30.000Z</time>
      </trkpt>
      <trkpt lat="44.14949" lon="5.87706">
        <ele>550</ele>
        <time>2021-06-01T06:25:31.000Z</time>
      </trkpt>
      <trkpt lat="44.14949" lon="5.87706">
        <ele>550</ele>
        <time>2021-06-01T06:25:32.000Z</time>
      </trkpt>
      <trkpt lat="44.14949" lon="5.87706">
        <ele>550</ele>
        <time>2021-06-01T06:25:33.000Z</time>
      </trkpt>
      <trkpt lat="44.14949" lon="5.87706">
        <ele>550</ele>
        <time>2021-06-01T06:25:34.000Z</time>
      </trkpt>
      <trkpt lat="44.14949" lon="5.87706">
        <ele>550</ele>
        <time>2021-06-01T06:25:35.000Z</time>
      </trkpt>
      <trkpt lat="44.14949" lon="5.87706">
        <ele>550</ele>
        <time>2021-06-01T06:25:36.000Z</time>
      </trkpt>
      <trkpt lat="44.14949" lon="5.87706">
        <ele>550</ele>
        <time>2021-06-01T06:25:37.000Z</time>
      </trkpt>
      <trkpt lat="44.14949" lon="5.87706">
        <ele>550</ele>
        <time>2021-06-01T06:25:38.000Z</time>
      </trkpt>
      <trkpt lat="44.14949" lon="5.87706">
        <ele>550</ele>
        <time>2021-06-01T06:25:39.000Z</time>
      </trkpt>
      <trkpt lat="44.14949" lon="5.87706">
        <ele>550</ele>
        <time>2021-06-01T06:25:40.000Z</time>
      </trkpt>
      <trkpt lat="44.14949" lon="5.87706">
        <ele>550</ele>
        <time>2021-06-01T06:25:41.000Z</time>
      </trkpt>
      <trkpt lat="44.14949" lon="5.87706">
        <ele>550</ele>
        <time>2021-06-01T06:25:42.000Z</time>
      </trkpt>
      <trkpt lat="44.14948" lon="5.87706">
        <ele>550</ele>
        <time>2021-06-01T06:25:43.000Z</time>
      </trkpt>
      <trkpt lat="44.14948" lon="5.87706">
        <ele>550</ele>
        <time>2021-06-01T06:25:44.000Z</time>
      </trkpt>
      <trkpt lat="44.14948" lon="5.87706">
        <ele>550</ele>
        <time>2021-06-01T06:25:45.000Z</time>
      </trkpt>
      <trkpt lat="44.14948" lon="5.87706">
        <ele>550</ele>
        <time>2021-06-01T06:25:46.000Z</time>
      </trkpt>
      <trkpt lat="44.14948" lon="5.87705">
        <ele>550</ele>
        <time>2021-06-01T06:25:47.000Z</time>
      </trkpt>
      <trkpt lat="44.14949" lon="5.87705">
        <ele>550</ele>
        <time>2021-06-01T06:25:48.000Z</time>
      </trkpt>
      <trkpt lat="44.14949" lon="5.87705">
        <ele>550</ele>
        <time>2021-06-01T06:25:49.000Z</time>
      </trkpt>
      <trkpt lat="44.14949" lon="5.87705">
        <ele>551</ele>
        <time>2021-06-01T06:25:50.000Z</time>
      </trkpt>
      <trkpt lat="44.14949" lon="5.87704">
        <ele>551</ele>
        <time>2021-06-01T06:25:51.000Z</time>
      </trkpt>
      <trkpt lat="44.14949" lon="5.87704">
        <ele>551</ele>
        <time>2021-06-01T06:25:52.000Z</time>
      </trkpt>
      <trkpt lat="44.14949" lon="5.87703">
        <ele>551</ele>
        <time>2021-06-01T06:25:53.000Z</time>
      </trkpt>
      <trkpt lat="44.14949" lon="5.87703">
        <ele>551</ele>
        <time>2021-06-01T06:25:54.000Z</time>
      </trkpt>
      <trkpt lat="44.14949" lon="5.87703">
        <ele>551</ele>
        <time>2021-06-01T06:25:55.000Z</time>
      </trkpt>
      <trkpt lat="44.14949" lon="5.87703">
        <ele>551</ele>
        <time>2021-06-01T06:25:56.000Z</time>
      </trkpt>
      <trkpt lat="44.14949" lon="5.87703">
        <ele>551</ele>
        <time>2021-06-01T06:25:57.000Z</time>
      </trkpt>
      <trkpt lat="44.14949" lon="5.87703">
        <ele>551</ele>
        <time>2021-06-01T06:25:58.000Z</time>
      </trkpt>
      <trkpt lat="44.14949" lon="5.87703">
        <ele>551</ele>
        <time>2021-06-01T06:25:59.000Z</time>
      </trkpt>
      <trkpt lat="44.14949" lon="5.87703">
        <ele>551</ele>
        <time>2021-06-01T06:26:00.000Z</time>
      </trkpt>
      <trkpt lat="44.14949" lon="5.87703">
        <ele>551</ele>
        <time>2021-06-01T06:26:01.000Z</time>
      </trkpt>
      <trkpt lat="44.14949" lon="5.87703">
        <ele>551</ele>
        <time>2021-06-01T06:26:02.000Z</time>
      </trkpt>
      <trkpt lat="44.14949" lon="5.87703">
        <ele>551</ele>
        <time>2021-06-01T06:26:03.000Z</time>
      </trkpt>
      <trkpt lat="44.14949" lon="5.87703">
        <ele>551</ele>
        <time>2021-06-01T06:26:04.000Z</time>
      </trkpt>
      <trkpt lat="44.14949" lon="5.87703">
        <ele>551</ele>
        <time>2021-06-01T06:26:05.000Z</time>
      </trkpt>
      <trkpt lat="44.14949" lon="5.87703">
        <ele>551</ele>
        <time>2021-06-01T06:26:06.000Z</time>
      </trkpt>
      <trkpt lat="44.14949" lon="5.87703">
        <ele>551</ele>
        <time>2021-06-01T06:26:07.000Z</time>
      </trkpt>
      <trkpt lat="44.14949" lon="5.87703">
        <ele>551</ele>
        <time>2021-06-01T06:26:08.000Z</time>
      </trkpt>
      <trkpt lat="44.14949" lon="5.87703">
        <ele>551</ele>
        <time>2021-06-01T06:26:09.000Z</time>
      </trkpt>
      <trkpt lat="44.14949" lon="5.87703">
        <ele>551</ele>
        <time>2021-06-01T06:26:10.000Z</time>
      </trkpt>
      <trkpt lat="44.14949" lon="5.87703">
        <ele>551</ele>
        <time>2021-06-01T06:26:11.000Z</time>
      </trkpt>
      <trkpt lat="44.14949" lon="5.87703">
        <ele>551</ele>
        <time>2021-06-01T06:26:12.000Z</time>
      </trkpt>
      <trkpt lat="44.14949" lon="5.87703">
        <ele>551</ele>
        <time>2021-06-01T06:26:13.000Z</time>
      </trkpt>
      <trkpt lat="44.14949" lon="5.87703">
        <ele>551</ele>
        <time>2021-06-01T06:26:14.000Z</time>
      </trkpt>
      <trkpt lat="44.14949" lon="5.87703">
        <ele>551</ele>
        <time>2021-06-01T06:26:15.000Z</time>
      </trkpt>
      <trkpt lat="44.14949" lon="5.87703">
        <ele>551</ele>
        <time>2021-06-01T06:26:16.000Z</time>
      </trkpt>
      <trkpt lat="44.14949" lon="5.87703">
        <ele>551</ele>
        <time>2021-06-01T06:26:17.000Z</time>
      </trkpt>
      <trkpt lat="44.14949" lon="5.87703">
        <ele>551</ele>
        <time>2021-06-01T06:26:18.000Z</time>
      </trkpt>
      <trkpt lat="44.14949" lon="5.87703">
        <ele>551</ele>
        <time>2021-06-01T06:26:19.000Z</time>
      </trkpt>
      <trkpt lat="44.14949" lon="5.87703">
        <ele>551</ele>
        <time>2021-06-01T06:26:20.000Z</time>
      </trkpt>
      <trkpt lat="44.14949" lon="5.87703">
        <ele>551</ele>
        <time>2021-06-01T06:26:21.000Z</time>
      </trkpt>
      <trkpt lat="44.14949" lon="5.87703">
        <ele>551</ele>
        <time>2021-06-01T06:26:22.000Z</time>
      </trkpt>
      <trkpt lat="44.14949" lon="5.87703">
        <ele>551</ele>
        <time>2021-06-01T06:26:23.000Z</time>
      </trkpt>
      <trkpt lat="44.14949" lon="5.87703">
        <ele>551</ele>
        <time>2021-06-01T06:26:24.000Z</time>
      </trkpt>
      <trkpt lat="44.14949" lon="5.87703">
        <ele>551</ele>
        <time>2021-06-01T06:26:25.000Z</time>
      </trkpt>
      <trkpt lat="44.14949" lon="5.87703">
        <ele>551</ele>
        <time>2021-06-01T06:26:26.000Z</time>
      </trkpt>
      <trkpt lat="44.14949" lon="5.87703">
        <ele>551</ele>
        <time>2021-06-01T06:26:27.000Z</time>
      </trkpt>
      <trkpt lat="44.14949" lon="5.87703">
        <ele>551</ele>
        <time>2021-06-01T06:26:28.000Z</time>
      </trkpt>
      <trkpt lat="44.14948" lon="5.87703">
        <ele>551</ele>
        <time>2021-06-01T06:26:29.000Z</time>
      </trkpt>
      <trkpt lat="44.14948" lon="5.87703">
        <ele>551</ele>
        <time>2021-06-01T06:26:30.000Z</time>
      </trkpt>
      <trkpt lat="44.14948" lon="5.87703">
        <ele>551</ele>
        <time>2021-06-01T06:26:31.000Z</time>
      </trkpt>
      <trkpt lat="44.14948" lon="5.87703">
        <ele>551</ele>
        <time>2021-06-01T06:26:32.000Z</time>
      </trkpt>
      <trkpt lat="44.14948" lon="5.87702">
        <ele>551</ele>
        <time>2021-06-01T06:26:33.000Z</time>
      </trkpt>
      <trkpt lat="44.14949" lon="5.87702">
        <ele>551</ele>
        <time>2021-06-01T06:26:34.000Z</time>
      </trkpt>
      <trkpt lat="44.14949" lon="5.87701">
        <ele>551</ele>
        <time>2021-06-01T06:26:35.000Z</time>
      </trkpt>
      <trkpt lat="44.14949" lon="5.87701">
        <ele>551</ele>
        <time>2021-06-01T06:26:36.000Z</time>
      </trkpt>
      <trkpt lat="44.14949" lon="5.877">
        <ele>551</ele>
        <time>2021-06-01T06:26:37.000Z</time>
      </trkpt>
      <trkpt lat="44.14949" lon="5.877">
        <ele>551</ele>
        <time>2021-06-01T06:26:38.000Z</time>
      </trkpt>
      <trkpt lat="44.14949" lon="5.877">
        <ele>551</ele>
        <time>2021-06-01T06:26:39.000Z</time>
      </trkpt>
      <trkpt lat="44.14949" lon="5.877">
        <ele>551</ele>
        <time>2021-06-01T06:26:40.000Z</time>
      </trkpt>
      <trkpt lat="44.14949" lon="5.877">
        <ele>551</ele>
        <time>2021-06-01T06:26:41.000Z</time>
      </trkpt>
      <trkpt lat="44.1495" lon="5.877">
        <ele>552</ele>
        <time>2021-06-01T06:26:42.000Z</time>
      </trkpt>
      <trkpt lat="44.1495" lon="5.877">
        <ele>552</ele>
        <time>2021-06-01T06:26:43.000Z</time>
      </trkpt>
      <trkpt lat="44.1495" lon="5.877">
        <ele>552</ele>
        <time>2021-06-01T06:26:44.000Z</time>
      </trkpt>
      <trkpt lat="44.14949" lon="5.877">
        <ele>552</ele>
        <time>2021-06-01T06:26:45.000Z</time>
      </trkpt>
      <trkpt lat="44.14949" lon="5.877">
        <ele>552</ele>
        <time>2021-06-01T06:26:46.000Z</time>
      </trkpt>
      <trkpt lat="44.14949" lon="5.877">
        <ele>552</ele>
        <time>2021-06-01T06:26:47.000Z</time>
      </trkpt>
      <trkpt lat="44.14949" lon="5.877">
        <ele>552</ele>
        <time>2021-06-01T06:26:48.000Z</time>
      </trkpt>
      <trkpt lat="44.14949" lon="5.877">
        <ele>552</ele>
        <time>2021-06-01T06:26:49.000Z</time>
      </trkpt>
      <trkpt lat="44.14949" lon="5.877">
        <ele>552</ele>
        <time>2021-06-01T06:26:50.000Z</time>
      </trkpt>
      <trkpt lat="44.14949" lon="5.877">
        <ele>552</ele>
        <time>2021-06-01T06:26:51.000Z</time>
      </trkpt>
      <trkpt lat="44.14949" lon="5.877">
        <ele>552</ele>
        <time>2021-06-01T06:26:52.000Z</time>
      </trkpt>
      <trkpt lat="44.14949" lon="5.877">
        <ele>552</ele>
        <time>2021-06-01T06:26:53.000Z</time>
      </trkpt>
      <trkpt lat="44.14949" lon="5.877">
        <ele>552</ele>
        <time>2021-06-01T06:26:54.000Z</time>
      </trkpt>
      <trkpt lat="44.14949" lon="5.877">
        <ele>552</ele>
        <time>2021-06-01T06:26:55.000Z</time>
      </trkpt>
      <trkpt lat="44.14949" lon="5.877">
        <ele>552</ele>
        <time>2021-06-01T06:26:56.000Z</time>
      </trkpt>
      <trkpt lat="44.14949" lon="5.877">
        <ele>552</ele>
        <time>2021-06-01T06:26:57.000Z</time>
      </trkpt>
      <trkpt lat="44.14949" lon="5.877">
        <ele>552</ele>
        <time>2021-06-01T06:26:58.000Z</time>
      </trkpt>
      <trkpt lat="44.14949" lon="5.877">
        <ele>552</ele>
        <time>2021-06-01T06:26:59.000Z</time>
      </trkpt>
      <trkpt lat="44.14949" lon="5.877">
        <ele>552</ele>
        <time>2021-06-01T06:27:00.000Z</time>
      </trkpt>
      <trkpt lat="44.14949" lon="5.877">
        <ele>552</ele>
        <time>2021-06-01T06:27:01.000Z</time>
      </trkpt>
      <trkpt lat="44.14949" lon="5.877">
        <ele>552</ele>
        <time>2021-06-01T06:27:02.000Z</time>
      </trkpt>
      <trkpt lat="44.14949" lon="5.877">
        <ele>552</ele>
        <time>2021-06-01T06:27:03.000Z</time>
      </trkpt>
      <trkpt lat="44.14949" lon="5.877">
        <ele>552</ele>
        <time>2021-06-01T06:27:04.000Z</time>
      </trkpt>
      <trkpt lat="44.14949" lon="5.87701">
        <ele>552</ele>
        <time>2021-06-01T06:27:05.000Z</time>
      </trkpt>
      <trkpt lat="44.14949" lon="5.87701">
        <ele>552</ele>
        <time>2021-06-01T06:27:06.000Z</time>
      </trkpt>
      <trkpt lat="44.14949" lon="5.87701">
        <ele>552</ele>
        <time>2021-06-01T06:27:07.000Z</time>
      </trkpt>
      <trkpt lat="44.14949" lon="5.87701">
        <ele>552</ele>
        <time>2021-06-01T06:27:08.000Z</time>
      </trkpt>
      <trkpt lat="44.14949" lon="5.87702">
        <ele>552</ele>
        <time>2021-06-01T06:27:09.000Z</time>
      </trkpt>
      <trkpt lat="44.14949" lon="5.87702">
        <ele>552</ele>
        <time>2021-06-01T06:27:10.000Z</time>
      </trkpt>
      <trkpt lat="44.14949" lon="5.87702">
        <ele>552</ele>
        <time>2021-06-01T06:27:11.000Z</time>
      </trkpt>
      <trkpt lat="44.14949" lon="5.87702">
        <ele>552</ele>
        <time>2021-06-01T06:27:12.000Z</time>
      </trkpt>
      <trkpt lat="44.14949" lon="5.87703">
        <ele>552</ele>
        <time>2021-06-01T06:27:13.000Z</time>
      </trkpt>
      <trkpt lat="44.14949" lon="5.87703">
        <ele>553</ele>
        <time>2021-06-01T06:27:14.000Z</time>
      </trkpt>
      <trkpt lat="44.14949" lon="5.87703">
        <ele>553</ele>
        <time>2021-06-01T06:27:15.000Z</time>
      </trkpt>
      <trkpt lat="44.14949" lon="5.87703">
        <ele>553</ele>
        <time>2021-06-01T06:27:16.000Z</time>
      </trkpt>
      <trkpt lat="44.14949" lon="5.87703">
        <ele>553</ele>
        <time>2021-06-01T06:27:17.000Z</time>
      </trkpt>
      <trkpt lat="44.14949" lon="5.87703">
        <ele>553</ele>
        <time>2021-06-01T06:27:18.000Z</time>
      </trkpt>
      <trkpt lat="44.14949" lon="5.87703">
        <ele>553</ele>
        <time>2021-06-01T06:27:19.000Z</time>
      </trkpt>
      <trkpt lat="44.14949" lon="5.87703">
        <ele>553</ele>
        <time>2021-06-01T06:27:20.000Z</time>
      </trkpt>
      <trkpt lat="44.14949" lon="5.87703">
        <ele>553</ele>
        <time>2021-06-01T06:27:21.000Z</time>
      </trkpt>
      <trkpt lat="44.14949" lon="5.87704">
        <ele>553</ele>
        <time>2021-06-01T06:27:22.000Z</time>
      </trkpt>
      <trkpt lat="44.14949" lon="5.87703">
        <ele>553</ele>
        <time>2021-06-01T06:27:23.000Z</time>
      </trkpt>
      <trkpt lat="44.14949" lon="5.87703">
        <ele>553</ele>
        <time>2021-06-01T06:27:24.000Z</time>
      </trkpt>
      <trkpt lat="44.14949" lon="5.87703">
        <ele>552</ele>
        <time>2021-06-01T06:27:25.000Z</time>
      </trkpt>
      <trkpt lat="44.14949" lon="5.87703">
        <ele>552</ele>
        <time>2021-06-01T06:27:26.000Z</time>
      </trkpt>
      <trkpt lat="44.14949" lon="5.87703">
        <ele>552</ele>
        <time>2021-06-01T06:27:27.000Z</time>
      </trkpt>
      <trkpt lat="44.14949" lon="5.87703">
        <ele>552</ele>
        <time>2021-06-01T06:27:28.000Z</time>
      </trkpt>
      <trkpt lat="44.14949" lon="5.87703">
        <ele>552</ele>
        <time>2021-06-01T06:27:29.000Z</time>
      </trkpt>
      <trkpt lat="44.14948" lon="5.87703">
        <ele>552</ele>
        <time>2021-06-01T06:27:30.000Z</time>
      </trkpt>
      <trkpt lat="44.14948" lon="5.87703">
        <ele>552</ele>
        <time>2021-06-01T06:27:31.000Z</time>
      </trkpt>
      <trkpt lat="44.14948" lon="5.87703">
        <ele>552</ele>
        <time>2021-06-01T06:27:32.000Z</time>
      </trkpt>
      <trkpt lat="44.14948" lon="5.87703">
        <ele>552</ele>
        <time>2021-06-01T06:27:33.000Z</time>
      </trkpt>
      <trkpt lat="44.14948" lon="5.87703">
        <ele>552</ele>
        <time>2021-06-01T06:27:34.000Z</time>
      </trkpt>
      <trkpt lat="44.14948" lon="5.87703">
        <ele>552</ele>
        <time>2021-06-01T06:27:35.000Z</time>
      </trkpt>
      <trkpt lat="44.14948" lon="5.87703">
        <ele>552</ele>
        <time>2021-06-01T06:27:36.000Z</time>
      </trkpt>
      <trkpt lat="44.14948" lon="5.87702">
        <ele>552</ele>
        <time>2021-06-01T06:27:37.000Z</time>
      </trkpt>
      <trkpt lat="44.14948" lon="5.87702">
        <ele>552</ele>
        <time>2021-06-01T06:27:38.000Z</time>
      </trkpt>
      <trkpt lat="44.14948" lon="5.87702">
        <ele>552</ele>
        <time>2021-06-01T06:27:39.000Z</time>
      </trkpt>
      <trkpt lat="44.14948" lon="5.87702">
        <ele>552</ele>
        <time>2021-06-01T06:27:40.000Z</time>
      </trkpt>
      <trkpt lat="44.14948" lon="5.87702">
        <ele>552</ele>
        <time>2021-06-01T06:27:41.000Z</time>
      </trkpt>
      <trkpt lat="44.14948" lon="5.87702">
        <ele>552</ele>
        <time>2021-06-01T06:27:42.000Z</time>
      </trkpt>
      <trkpt lat="44.14949" lon="5.87701">
        <ele>552</ele>
        <time>2021-06-01T06:27:43.000Z</time>
      </trkpt>
      <trkpt lat="44.14949" lon="5.87701">
        <ele>551</ele>
        <time>2021-06-01T06:27:44.000Z</time>
      </trkpt>
      <trkpt lat="44.14949" lon="5.87701">
        <ele>551</ele>
        <time>2021-06-01T06:27:45.000Z</time>
      </trkpt>
      <trkpt lat="44.14949" lon="5.87701">
        <ele>551</ele>
        <time>2021-06-01T06:27:46.000Z</time>
      </trkpt>
      <trkpt lat="44.14949" lon="5.87701">
        <ele>551</ele>
        <time>2021-06-01T06:27:47.000Z</time>
      </trkpt>
      <trkpt lat="44.14949" lon="5.87701">
        <ele>551</ele>
        <time>2021-06-01T06:27:48.000Z</time>
      </trkpt>
      <trkpt lat="44.14949" lon="5.87701">
        <ele>551</ele>
        <time>2021-06-01T06:27:49.000Z</time>
      </trkpt>
      <trkpt lat="44.14949" lon="5.87701">
        <ele>551</ele>
        <time>2021-06-01T06:27:50.000Z</time>
      </trkpt>
      <trkpt lat="44.14949" lon="5.877">
        <ele>551</ele>
        <time>2021-06-01T06:27:51.000Z</time>
      </trkpt>
      <trkpt lat="44.14949" lon="5.877">
        <ele>551</ele>
        <time>2021-06-01T06:27:52.000Z</time>
      </trkpt>
      <trkpt lat="44.14949" lon="5.877">
        <ele>551</ele>
        <time>2021-06-01T06:27:53.000Z</time>
      </trkpt>
      <trkpt lat="44.14949" lon="5.877">
        <ele>551</ele>
        <time>2021-06-01T06:27:54.000Z</time>
      </trkpt>
      <trkpt lat="44.14949" lon="5.877">
        <ele>551</ele>
        <time>2021-06-01T06:27:55.000Z</time>
      </trkpt>
      <trkpt lat="44.14948" lon="5.877">
        <ele>551</ele>
        <time>2021-06-01T06:27:56.000Z</time>
      </trkpt>
      <trkpt lat="44.14948" lon="5.877">
        <ele>551</ele>
        <time>2021-06-01T06:27:57.000Z</time>
      </trkpt>
      <trkpt lat="44.14948" lon="5.877">
        <ele>551</ele>
        <time>2021-06-01T06:27:58.000Z</time>
      </trkpt>
      <trkpt lat="44.14948" lon="5.877">
        <ele>551</ele>
        <time>2021-06-01T06:27:59.000Z</time>
      </trkpt>
      <trkpt lat="44.14948" lon="5.877">
        <ele>551</ele>
        <time>2021-06-01T06:28:00.000Z</time>
      </trkpt>
      <trkpt lat="44.14948" lon="5.877">
        <ele>550</ele>
        <time>2021-06-01T06:28:01.000Z</time>
      </trkpt>
      <trkpt lat="44.14948" lon="5.877">
        <ele>550</ele>
        <time>2021-06-01T06:28:02.000Z</time>
      </trkpt>
      <trkpt lat="44.14948" lon="5.87701">
        <ele>550</ele>
        <time>2021-06-01T06:28:03.000Z</time>
      </trkpt>
      <trkpt lat="44.14948" lon="5.87701">
        <ele>550</ele>
        <time>2021-06-01T06:28:04.000Z</time>
      </trkpt>
      <trkpt lat="44.14948" lon="5.87701">
        <ele>550</ele>
        <time>2021-06-01T06:28:05.000Z</time>
      </trkpt>
      <trkpt lat="44.14947" lon="5.87701">
        <ele>550</ele>
        <time>2021-06-01T06:28:06.000Z</time>
      </trkpt>
      <trkpt lat="44.14947" lon="5.87701">
        <ele>550</ele>
        <time>2021-06-01T06:28:07.000Z</time>
      </trkpt>
      <trkpt lat="44.14947" lon="5.87701">
        <ele>550</ele>
        <time>2021-06-01T06:28:08.000Z</time>
      </trkpt>
      <trkpt lat="44.14947" lon="5.87701">
        <ele>550</ele>
        <time>2021-06-01T06:28:09.000Z</time>
      </trkpt>
      <trkpt lat="44.14947" lon="5.87701">
        <ele>550</ele>
        <time>2021-06-01T06:28:10.000Z</time>
      </trkpt>
      <trkpt lat="44.14947" lon="5.87701">
        <ele>550</ele>
        <time>2021-06-01T06:28:11.000Z</time>
      </trkpt>
      <trkpt lat="44.14947" lon="5.87701">
        <ele>550</ele>
        <time>2021-06-01T06:28:12.000Z</time>
      </trkpt>
      <trkpt lat="44.14947" lon="5.87701">
        <ele>550</ele>
        <time>2021-06-01T06:28:13.000Z</time>
      </trkpt>
      <trkpt lat="44.14947" lon="5.87701">
        <ele>550</ele>
        <time>2021-06-01T06:28:14.000Z</time>
      </trkpt>
      <trkpt lat="44.14947" lon="5.87701">
        <ele>550</ele>
        <time>2021-06-01T06:28:15.000Z</time>
      </trkpt>
      <trkpt lat="44.14947" lon="5.87701">
        <ele>550</ele>
        <time>2021-06-01T06:28:16.000Z</time>
      </trkpt>
      <trkpt lat="44.14947" lon="5.87701">
        <ele>550</ele>
        <time>2021-06-01T06:28:17.000Z</time>
      </trkpt>
      <trkpt lat="44.14947" lon="5.87701">
        <ele>550</ele>
        <time>2021-06-01T06:28:18.000Z</time>
      </trkpt>
      <trkpt lat="44.14947" lon="5.87701">
        <ele>550</ele>
        <time>2021-06-01T06:28:19.000Z</time>
      </trkpt>
      <trkpt lat="44.14947" lon="5.87701">
        <ele>550</ele>
        <time>2021-06-01T06:28:20.000Z</time>
      </trkpt>
      <trkpt lat="44.14947" lon="5.87701">
        <ele>550</ele>
        <time>2021-06-01T06:28:21.000Z</time>
      </trkpt>
      <trkpt lat="44.14947" lon="5.87701">
        <ele>550</ele>
        <time>2021-06-01T06:28:22.000Z</time>
      </trkpt>
      <trkpt lat="44.14947" lon="5.87701">
        <ele>550</ele>
        <time>2021-06-01T06:28:23.000Z</time>
      </trkpt>
      <trkpt lat="44.14947" lon="5.87701">
        <ele>550</ele>
        <time>2021-06-01T06:28:24.000Z</time>
      </trkpt>
      <trkpt lat="44.14947" lon="5.87701">
        <ele>550</ele>
        <time>2021-06-01T06:28:25.000Z</time>
      </trkpt>
      <trkpt lat="44.14947" lon="5.87701">
        <ele>550</ele>
        <time>2021-06-01T06:28:26.000Z</time>
      </trkpt>
      <trkpt lat="44.14947" lon="5.87701">
        <ele>550</ele>
        <time>2021-06-01T06:28:27.000Z</time>
      </trkpt>
      <trkpt lat="44.14947" lon="5.87701">
        <ele>550</ele>
        <time>2021-06-01T06:28:28.000Z</time>
      </trkpt>
      <trkpt lat="44.14947" lon="5.87701">
        <ele>550</ele>
        <time>2021-06-01T06:28:29.000Z</time>
      </trkpt>
      <trkpt lat="44.14947" lon="5.87701">
        <ele>550</ele>
        <time>2021-06-01T06:28:30.000Z</time>
      </trkpt>
      <trkpt lat="44.14947" lon="5.87701">
        <ele>550</ele>
        <time>2021-06-01T06:28:31.000Z</time>
      </trkpt>
      <trkpt lat="44.14947" lon="5.87701">
        <ele>550</ele>
        <time>2021-06-01T06:28:32.000Z</time>
      </trkpt>
      <trkpt lat="44.14947" lon="5.87701">
        <ele>550</ele>
        <time>2021-06-01T06:28:33.000Z</time>
      </trkpt>
      <trkpt lat="44.14947" lon="5.87701">
        <ele>550</ele>
        <time>2021-06-01T06:28:34.000Z</time>
      </trkpt>
      <trkpt lat="44.14946" lon="5.87701">
        <ele>550</ele>
        <time>2021-06-01T06:28:35.000Z</time>
      </trkpt>
      <trkpt lat="44.14947" lon="5.87701">
        <ele>550</ele>
        <time>2021-06-01T06:28:36.000Z</time>
      </trkpt>
      <trkpt lat="44.14947" lon="5.87701">
        <ele>550</ele>
        <time>2021-06-01T06:28:37.000Z</time>
      </trkpt>
      <trkpt lat="44.14947" lon="5.87702">
        <ele>550</ele>
        <time>2021-06-01T06:28:38.000Z</time>
      </trkpt>
      <trkpt lat="44.14948" lon="5.87702">
        <ele>550</ele>
        <time>2021-06-01T06:28:39.000Z</time>
      </trkpt>
      <trkpt lat="44.14948" lon="5.87703">
        <ele>550</ele>
        <time>2021-06-01T06:28:40.000Z</time>
      </trkpt>
      <trkpt lat="44.14948" lon="5.87704">
        <ele>550</ele>
        <time>2021-06-01T06:28:41.000Z</time>
      </trkpt>
      <trkpt lat="44.14949" lon="5.87705">
        <ele>550</ele>
        <time>2021-06-01T06:28:42.000Z</time>
      </trkpt>
      <trkpt lat="44.14949" lon="5.87705">
        <ele>550</ele>
        <time>2021-06-01T06:28:43.000Z</time>
      </trkpt>
      <trkpt lat="44.14948" lon="5.87706">
        <ele>550</ele>
        <time>2021-06-01T06:28:44.000Z</time>
      </trkpt>
      <trkpt lat="44.14948" lon="5.87706">
        <ele>550</ele>
        <time>2021-06-01T06:28:45.000Z</time>
      </trkpt>
      <trkpt lat="44.14948" lon="5.87706">
        <ele>550</ele>
        <time>2021-06-01T06:28:46.000Z</time>
      </trkpt>
      <trkpt lat="44.14948" lon="5.87706">
        <ele>550</ele>
        <time>2021-06-01T06:28:47.000Z</time>
      </trkpt>
      <trkpt lat="44.14948" lon="5.87706">
        <ele>550</ele>
        <time>2021-06-01T06:28:48.000Z</time>
      </trkpt>
      <trkpt lat="44.14948" lon="5.87706">
        <ele>550</ele>
        <time>2021-06-01T06:28:49.000Z</time>
      </trkpt>
      <trkpt lat="44.14949" lon="5.87705">
        <ele>550</ele>
        <time>2021-06-01T06:28:50.000Z</time>
      </trkpt>
      <trkpt lat="44.14949" lon="5.87705">
        <ele>550</ele>
        <time>2021-06-01T06:28:51.000Z</time>
      </trkpt>
      <trkpt lat="44.14949" lon="5.87705">
        <ele>550</ele>
        <time>2021-06-01T06:28:52.000Z</time>
      </trkpt>
      <trkpt lat="44.14949" lon="5.87705">
        <ele>550</ele>
        <time>2021-06-01T06:28:53.000Z</time>
      </trkpt>
      <trkpt lat="44.14949" lon="5.87705">
        <ele>549</ele>
        <time>2021-06-01T06:28:54.000Z</time>
      </trkpt>
      <trkpt lat="44.14949" lon="5.87705">
        <ele>549</ele>
        <time>2021-06-01T06:28:55.000Z</time>
      </trkpt>
      <trkpt lat="44.14949" lon="5.87705">
        <ele>549</ele>
        <time>2021-06-01T06:28:56.000Z</time>
      </trkpt>
      <trkpt lat="44.14948" lon="5.87705">
        <ele>550</ele>
        <time>2021-06-01T06:28:57.000Z</time>
      </trkpt>
      <trkpt lat="44.14948" lon="5.87704">
        <ele>549</ele>
        <time>2021-06-01T06:28:58.000Z</time>
      </trkpt>
      <trkpt lat="44.14948" lon="5.87704">
        <ele>549</ele>
        <time>2021-06-01T06:28:59.000Z</time>
      </trkpt>
      <trkpt lat="44.14948" lon="5.87704">
        <ele>549</ele>
        <time>2021-06-01T06:29:00.000Z</time>
      </trkpt>
      <trkpt lat="44.14948" lon="5.87705">
        <ele>549</ele>
        <time>2021-06-01T06:29:01.000Z</time>
      </trkpt>
      <trkpt lat="44.14948" lon="5.87706">
        <ele>549</ele>
        <time>2021-06-01T06:29:02.000Z</time>
      </trkpt>
      <trkpt lat="44.14948" lon="5.87707">
        <ele>549</ele>
        <time>2021-06-01T06:29:03.000Z</time>
      </trkpt>
      <trkpt lat="44.14948" lon="5.87708">
        <ele>549</ele>
        <time>2021-06-01T06:29:04.000Z</time>
      </trkpt>
      <trkpt lat="44.14948" lon="5.87708">
        <ele>549</ele>
        <time>2021-06-01T06:29:05.000Z</time>
      </trkpt>
      <trkpt lat="44.14948" lon="5.87707">
        <ele>549</ele>
        <time>2021-06-01T06:29:06.000Z</time>
      </trkpt>
      <trkpt lat="44.14948" lon="5.87707">
        <ele>549</ele>
        <time>2021-06-01T06:29:07.000Z</time>
      </trkpt>
      <trkpt lat="44.14948" lon="5.87707">
        <ele>549</ele>
        <time>2021-06-01T06:29:08.000Z</time>
      </trkpt>
      <trkpt lat="44.14948" lon="5.87706">
        <ele>549</ele>
        <time>2021-06-01T06:29:09.000Z</time>
      </trkpt>
      <trkpt lat="44.14948" lon="5.87707">
        <ele>549</ele>
        <time>2021-06-01T06:29:10.000Z</time>
      </trkpt>
      <trkpt lat="44.14948" lon="5.87707">
        <ele>548</ele>
        <time>2021-06-01T06:29:11.000Z</time>
      </trkpt>
      <trkpt lat="44.14949" lon="5.87708">
        <ele>548</ele>
        <time>2021-06-01T06:29:12.000Z</time>
      </trkpt>
      <trkpt lat="44.14949" lon="5.87709">
        <ele>548</ele>
        <time>2021-06-01T06:29:13.000Z</time>
      </trkpt>
      <trkpt lat="44.1495" lon="5.87711">
        <ele>548</ele>
        <time>2021-06-01T06:29:14.000Z</time>
      </trkpt>
      <trkpt lat="44.1495" lon="5.87712">
        <ele>548</ele>
        <time>2021-06-01T06:29:15.000Z</time>
      </trkpt>
      <trkpt lat="44.14951" lon="5.87714">
        <ele>548</ele>
        <time>2021-06-01T06:29:16.000Z</time>
      </trkpt>
      <trkpt lat="44.14951" lon="5.87715">
        <ele>548</ele>
        <time>2021-06-01T06:29:17.000Z</time>
      </trkpt>
      <trkpt lat="44.14952" lon="5.87716">
        <ele>548</ele>
        <time>2021-06-01T06:29:18.000Z</time>
      </trkpt>
      <trkpt lat="44.14952" lon="5.87717">
        <ele>548</ele>
        <time>2021-06-01T06:29:19.000Z</time>
      </trkpt>
      <trkpt lat="44.14952" lon="5.87719">
        <ele>548</ele>
        <time>2021-06-01T06:29:20.000Z</time>
      </trkpt>
      <trkpt lat="44.14952" lon="5.87719">
        <ele>549</ele>
        <time>2021-06-01T06:29:21.000Z</time>
      </trkpt>
      <trkpt lat="44.14951" lon="5.8772">
        <ele>549</ele>
        <time>2021-06-01T06:29:22.000Z</time>
      </trkpt>
      <trkpt lat="44.14952" lon="5.87721">
        <ele>549</ele>
        <time>2021-06-01T06:29:23.000Z</time>
      </trkpt>
      <trkpt lat="44.14952" lon="5.87721">
        <ele>549</ele>
        <time>2021-06-01T06:29:24.000Z</time>
      </trkpt>
      <trkpt lat="44.14952" lon="5.8772">
        <ele>549</ele>
        <time>2021-06-01T06:29:25.000Z</time>
      </trkpt>
      <trkpt lat="44.14951" lon="5.8772">
        <ele>549</ele>
        <time>2021-06-01T06:29:26.000Z</time>
      </trkpt>
      <trkpt lat="44.14951" lon="5.87719">
        <ele>549</ele>
        <time>2021-06-01T06:29:27.000Z</time>
      </trkpt>
      <trkpt lat="44.14951" lon="5.87718">
        <ele>549</ele>
        <time>2021-06-01T06:29:28.000Z</time>
      </trkpt>
      <trkpt lat="44.1495" lon="5.87717">
        <ele>549</ele>
        <time>2021-06-01T06:29:29.000Z</time>
      </trkpt>
      <trkpt lat="44.1495" lon="5.87716">
        <ele>549</ele>
        <time>2021-06-01T06:29:30.000Z</time>
      </trkpt>
      <trkpt lat="44.1495" lon="5.87715">
        <ele>549</ele>
        <time>2021-06-01T06:29:31.000Z</time>
      </trkpt>
      <trkpt lat="44.14949" lon="5.87714">
        <ele>549</ele>
        <time>2021-06-01T06:29:32.000Z</time>
      </trkpt>
      <trkpt lat="44.14949" lon="5.87713">
        <ele>549</ele>
        <time>2021-06-01T06:29:33.000Z</time>
      </trkpt>
      <trkpt lat="44.14949" lon="5.87712">
        <ele>549</ele>
        <time>2021-06-01T06:29:34.000Z</time>
      </trkpt>
      <trkpt lat="44.14949" lon="5.87711">
        <ele>549</ele>
        <time>2021-06-01T06:29:35.000Z</time>
      </trkpt>
      <trkpt lat="44.14949" lon="5.8771">
        <ele>549</ele>
        <time>2021-06-01T06:29:36.000Z</time>
      </trkpt>
      <trkpt lat="44.14948" lon="5.87709">
        <ele>550</ele>
        <time>2021-06-01T06:29:37.000Z</time>
      </trkpt>
      <trkpt lat="44.14948" lon="5.87708">
        <ele>550</ele>
        <time>2021-06-01T06:29:38.000Z</time>
      </trkpt>
      <trkpt lat="44.14948" lon="5.87708">
        <ele>550</ele>
        <time>2021-06-01T06:29:39.000Z</time>
      </trkpt>
      <trkpt lat="44.14948" lon="5.87707">
        <ele>550</ele>
        <time>2021-06-01T06:29:40.000Z</time>
      </trkpt>
      <trkpt lat="44.14948" lon="5.87707">
        <ele>550</ele>
        <time>2021-06-01T06:29:41.000Z</time>
      </trkpt>
      <trkpt lat="44.14947" lon="5.87707">
        <ele>550</ele>
        <time>2021-06-01T06:29:42.000Z</time>
      </trkpt>
      <trkpt lat="44.14947" lon="5.87707">
        <ele>550</ele>
        <time>2021-06-01T06:29:43.000Z</time>
      </trkpt>
      <trkpt lat="44.14947" lon="5.87707">
        <ele>550</ele>
        <time>2021-06-01T06:29:44.000Z</time>
      </trkpt>
      <trkpt lat="44.14947" lon="5.87707">
        <ele>550</ele>
        <time>2021-06-01T06:29:45.000Z</time>
      </trkpt>
      <trkpt lat="44.14947" lon="5.87706">
        <ele>550</ele>
        <time>2021-06-01T06:29:46.000Z</time>
      </trkpt>
      <trkpt lat="44.14947" lon="5.87706">
        <ele>551</ele>
        <time>2021-06-01T06:29:47.000Z</time>
      </trkpt>
      <trkpt lat="44.14947" lon="5.87706">
        <ele>551</ele>
        <time>2021-06-01T06:29:48.000Z</time>
      </trkpt>
      <trkpt lat="44.14947" lon="5.87706">
        <ele>551</ele>
        <time>2021-06-01T06:29:49.000Z</time>
      </trkpt>
      <trkpt lat="44.14948" lon="5.87706">
        <ele>551</ele>
        <time>2021-06-01T06:29:50.000Z</time>
      </trkpt>
      <trkpt lat="44.14948" lon="5.87706">
        <ele>551</ele>
        <time>2021-06-01T06:29:51.000Z</time>
      </trkpt>
      <trkpt lat="44.14948" lon="5.87707">
        <ele>551</ele>
        <time>2021-06-01T06:29:52.000Z</time>
      </trkpt>
      <trkpt lat="44.14949" lon="5.87707">
        <ele>551</ele>
        <time>2021-06-01T06:29:53.000Z</time>
      </trkpt>
      <trkpt lat="44.14949" lon="5.87707">
        <ele>550</ele>
        <time>2021-06-01T06:29:54.000Z</time>
      </trkpt>
      <trkpt lat="44.1495" lon="5.87708">
        <ele>550</ele>
        <time>2021-06-01T06:29:55.000Z</time>
      </trkpt>
      <trkpt lat="44.1495" lon="5.87708">
        <ele>550</ele>
        <time>2021-06-01T06:29:56.000Z</time>
      </trkpt>
      <trkpt lat="44.1495" lon="5.87708">
        <ele>550</ele>
        <time>2021-06-01T06:29:57.000Z</time>
      </trkpt>
      <trkpt lat="44.1495" lon="5.87708">
        <ele>550</ele>
        <time>2021-06-01T06:29:58.000Z</time>
      </trkpt>
      <trkpt lat="44.1495" lon="5.87708">
        <ele>550</ele>
        <time>2021-06-01T06:29:59.000Z</time>
      </trkpt>
      <trkpt lat="44.1495" lon="5.87708">
        <ele>550</ele>
        <time>2021-06-01T06:30:00.000Z</time>
      </trkpt>
      <trkpt lat="44.14951" lon="5.87708">
        <ele>550</ele>
        <time>2021-06-01T06:30:01.000Z</time>
      </trkpt>
      <trkpt lat="44.14951" lon="5.87708">
        <ele>550</ele>
        <time>2021-06-01T06:30:02.000Z</time>
      </trkpt>
      <trkpt lat="44.14951" lon="5.87708">
        <ele>550</ele>
        <time>2021-06-01T06:30:03.000Z</time>
      </trkpt>
      <trkpt lat="44.14951" lon="5.87708">
        <ele>550</ele>
        <time>2021-06-01T06:30:04.000Z</time>
      </trkpt>
      <trkpt lat="44.1495" lon="5.87708">
        <ele>550</ele>
        <time>2021-06-01T06:30:05.000Z</time>
      </trkpt>
      <trkpt lat="44.1495" lon="5.87708">
        <ele>550</ele>
        <time>2021-06-01T06:30:06.000Z</time>
      </trkpt>
      <trkpt lat="44.14949" lon="5.87708">
        <ele>550</ele>
        <time>2021-06-01T06:30:07.000Z</time>
      </trkpt>
      <trkpt lat="44.14949" lon="5.87707">
        <ele>550</ele>
        <time>2021-06-01T06:30:08.000Z</time>
      </trkpt>
      <trkpt lat="44.14948" lon="5.87706">
        <ele>550</ele>
        <time>2021-06-01T06:30:09.000Z</time>
      </trkpt>
      <trkpt lat="44.14948" lon="5.87706">
        <ele>550</ele>
        <time>2021-06-01T06:30:10.000Z</time>
      </trkpt>
      <trkpt lat="44.14947" lon="5.87705">
        <ele>550</ele>
        <time>2021-06-01T06:30:11.000Z</time>
      </trkpt>
      <trkpt lat="44.14947" lon="5.87703">
        <ele>550</ele>
        <time>2021-06-01T06:30:12.000Z</time>
      </trkpt>
      <trkpt lat="44.14947" lon="5.87702">
        <ele>550</ele>
        <time>2021-06-01T06:30:13.000Z</time>
      </trkpt>
      <trkpt lat="44.14947" lon="5.877">
        <ele>550</ele>
        <time>2021-06-01T06:30:14.000Z</time>
      </trkpt>
      <trkpt lat="44.14946" lon="5.877">
        <ele>550</ele>
        <time>2021-06-01T06:30:15.000Z</time>
      </trkpt>
      <trkpt lat="44.14946" lon="5.87698">
        <ele>550</ele>
        <time>2021-06-01T06:30:16.000Z</time>
      </trkpt>
      <trkpt lat="44.14946" lon="5.87698">
        <ele>550</ele>
        <time>2021-06-01T06:30:17.000Z</time>
      </trkpt>
      <trkpt lat="44.14945" lon="5.87697">
        <ele>550</ele>
        <time>2021-06-01T06:30:18.000Z</time>
      </trkpt>
      <trkpt lat="44.14945" lon="5.87696">
        <ele>550</ele>
        <time>2021-06-01T06:30:19.000Z</time>
      </trkpt>
      <trkpt lat="44.14945" lon="5.87696">
        <ele>550</ele>
        <time>2021-06-01T06:30:20.000Z</time>
      </trkpt>
      <trkpt lat="44.14945" lon="5.87696">
        <ele>550</ele>
        <time>2021-06-01T06:30:21.000Z</time>
      </trkpt>
      <trkpt lat="44.14945" lon="5.87696">
        <ele>550</ele>
        <time>2021-06-01T06:30:22.000Z</time>
      </trkpt>
      <trkpt lat="44.14945" lon="5.87696">
        <ele>550</ele>
        <time>2021-06-01T06:30:23.000Z</time>
      </trkpt>
      <trkpt lat="44.14945" lon="5.87696">
        <ele>550</ele>
        <time>2021-06-01T06:30:24.000Z</time>
      </trkpt>
      <trkpt lat="44.14945" lon="5.87696">
        <ele>550</ele>
        <time>2021-06-01T06:30:25.000Z</time>
      </trkpt>
      <trkpt lat="44.14945" lon="5.87696">
        <ele>549</ele>
        <time>2021-06-01T06:30:26.000Z</time>
      </trkpt>
      <trkpt lat="44.14945" lon="5.87696">
        <ele>549</ele>
        <time>2021-06-01T06:30:27.000Z</time>
      </trkpt>
      <trkpt lat="44.14945" lon="5.87696">
        <ele>549</ele>
        <time>2021-06-01T06:30:28.000Z</time>
      </trkpt>
      <trkpt lat="44.14945" lon="5.87696">
        <ele>549</ele>
        <time>2021-06-01T06:30:29.000Z</time>
      </trkpt>
      <trkpt lat="44.14945" lon="5.87696">
        <ele>549</ele>
        <time>2021-06-01T06:30:30.000Z</time>
      </trkpt>
      <trkpt lat="44.14945" lon="5.87696">
        <ele>549</ele>
        <time>2021-06-01T06:30:31.000Z</time>
      </trkpt>
      <trkpt lat="44.14945" lon="5.87696">
        <ele>549</ele>
        <time>2021-06-01T06:30:32.000Z</time>
      </trkpt>
      <trkpt lat="44.14945" lon="5.87697">
        <ele>549</ele>
        <time>2021-06-01T06:30:33.000Z</time>
      </trkpt>
      <trkpt lat="44.14946" lon="5.87697">
        <ele>549</ele>
        <time>2021-06-01T06:30:34.000Z</time>
      </trkpt>
      <trkpt lat="44.14946" lon="5.87698">
        <ele>549</ele>
        <time>2021-06-01T06:30:35.000Z</time>
      </trkpt>
      <trkpt lat="44.14947" lon="5.87699">
        <ele>549</ele>
        <time>2021-06-01T06:30:36.000Z</time>
      </trkpt>
      <trkpt lat="44.14947" lon="5.877">
        <ele>549</ele>
        <time>2021-06-01T06:30:37.000Z</time>
      </trkpt>
      <trkpt lat="44.14947" lon="5.87701">
        <ele>549</ele>
        <time>2021-06-01T06:30:38.000Z</time>
      </trkpt>
      <trkpt lat="44.14948" lon="5.87702">
        <ele>549</ele>
        <time>2021-06-01T06:30:39.000Z</time>
      </trkpt>
      <trkpt lat="44.14948" lon="5.87703">
        <ele>549</ele>
        <time>2021-06-01T06:30:40.000Z</time>
      </trkpt>
      <trkpt lat="44.14948" lon="5.87704">
        <ele>549</ele>
        <time>2021-06-01T06:30:41.000Z</time>
      </trkpt>
      <trkpt lat="44.14948" lon="5.87705">
        <ele>549</ele>
        <time>2021-06-01T06:30:42.000Z</time>
      </trkpt>
      <trkpt lat="44.14948" lon="5.87706">
        <ele>549</ele>
        <time>2021-06-01T06:30:43.000Z</time>
      </trkpt>
      <trkpt lat="44.14947" lon="5.87706">
        <ele>549</ele>
        <time>2021-06-01T06:30:44.000Z</time>
      </trkpt>
      <trkpt lat="44.14947" lon="5.87706">
        <ele>549</ele>
        <time>2021-06-01T06:30:45.000Z</time>
      </trkpt>
      <trkpt lat="44.14947" lon="5.87706">
        <ele>549</ele>
        <time>2021-06-01T06:30:46.000Z</time>
      </trkpt>
      <trkpt lat="44.14947" lon="5.87706">
        <ele>549</ele>
        <time>2021-06-01T06:30:47.000Z</time>
      </trkpt>
      <trkpt lat="44.14947" lon="5.87706">
        <ele>549</ele>
        <time>2021-06-01T06:30:48.000Z</time>
      </trkpt>
      <trkpt lat="44.14947" lon="5.87706">
        <ele>549</ele>
        <time>2021-06-01T06:30:49.000Z</time>
      </trkpt>
      <trkpt lat="44.14947" lon="5.87706">
        <ele>549</ele>
        <time>2021-06-01T06:30:50.000Z</time>
      </trkpt>
      <trkpt lat="44.14947" lon="5.87706">
        <ele>549</ele>
        <time>2021-06-01T06:30:51.000Z</time>
      </trkpt>
      <trkpt lat="44.14947" lon="5.87706">
        <ele>549</ele>
        <time>2021-06-01T06:30:52.000Z</time>
      </trkpt>
      <trkpt lat="44.14947" lon="5.87706">
        <ele>549</ele>
        <time>2021-06-01T06:30:53.000Z</time>
      </trkpt>
      <trkpt lat="44.14947" lon="5.87706">
        <ele>549</ele>
        <time>2021-06-01T06:30:54.000Z</time>
      </trkpt>
      <trkpt lat="44.14947" lon="5.87706">
        <ele>549</ele>
        <time>2021-06-01T06:30:55.000Z</time>
      </trkpt>
      <trkpt lat="44.14947" lon="5.87706">
        <ele>549</ele>
        <time>2021-06-01T06:30:56.000Z</time>
      </trkpt>
      <trkpt lat="44.14947" lon="5.87706">
        <ele>549</ele>
        <time>2021-06-01T06:30:57.000Z</time>
      </trkpt>
      <trkpt lat="44.14947" lon="5.87706">
        <ele>549</ele>
        <time>2021-06-01T06:30:58.000Z</time>
      </trkpt>
      <trkpt lat="44.14947" lon="5.87706">
        <ele>549</ele>
        <time>2021-06-01T06:30:59.000Z</time>
      </trkpt>
      <trkpt lat="44.14947" lon="5.87707">
        <ele>550</ele>
        <time>2021-06-01T06:31:00.000Z</time>
      </trkpt>
      <trkpt lat="44.14947" lon="5.87707">
        <ele>550</ele>
        <time>2021-06-01T06:31:01.000Z</time>
      </trkpt>
      <trkpt lat="44.14947" lon="5.87707">
        <ele>550</ele>
        <time>2021-06-01T06:31:02.000Z</time>
      </trkpt>
      <trkpt lat="44.14947" lon="5.87707">
        <ele>550</ele>
        <time>2021-06-01T06:31:03.000Z</time>
      </trkpt>
      <trkpt lat="44.14947" lon="5.87707">
        <ele>550</ele>
        <time>2021-06-01T06:31:04.000Z</time>
      </trkpt>
      <trkpt lat="44.14947" lon="5.87707">
        <ele>550</ele>
        <time>2021-06-01T06:31:05.000Z</time>
      </trkpt>
      <trkpt lat="44.14947" lon="5.87707">
        <ele>550</ele>
        <time>2021-06-01T06:31:06.000Z</time>
      </trkpt>
      <trkpt lat="44.14947" lon="5.87708">
        <ele>550</ele>
        <time>2021-06-01T06:31:07.000Z</time>
      </trkpt>
      <trkpt lat="44.14947" lon="5.87707">
        <ele>550</ele>
        <time>2021-06-01T06:31:08.000Z</time>
      </trkpt>
      <trkpt lat="44.14947" lon="5.87707">
        <ele>550</ele>
        <time>2021-06-01T06:31:09.000Z</time>
      </trkpt>
      <trkpt lat="44.14947" lon="5.87707">
        <ele>550</ele>
        <time>2021-06-01T06:31:10.000Z</time>
      </trkpt>
      <trkpt lat="44.14947" lon="5.87707">
        <ele>550</ele>
        <time>2021-06-01T06:31:11.000Z</time>
      </trkpt>
      <trkpt lat="44.14947" lon="5.87708">
        <ele>550</ele>
        <time>2021-06-01T06:31:12.000Z</time>
      </trkpt>
      <trkpt lat="44.14947" lon="5.87708">
        <ele>550</ele>
        <time>2021-06-01T06:31:13.000Z</time>
      </trkpt>
      <trkpt lat="44.14948" lon="5.87708">
        <ele>550</ele>
        <time>2021-06-01T06:31:14.000Z</time>
      </trkpt>
      <trkpt lat="44.14948" lon="5.87709">
        <ele>550</ele>
        <time>2021-06-01T06:31:15.000Z</time>
      </trkpt>
      <trkpt lat="44.14948" lon="5.87709">
        <ele>550</ele>
        <time>2021-06-01T06:31:16.000Z</time>
      </trkpt>
      <trkpt lat="44.14948" lon="5.8771">
        <ele>550</ele>
        <time>2021-06-01T06:31:17.000Z</time>
      </trkpt>
      <trkpt lat="44.14949" lon="5.87711">
        <ele>550</ele>
        <time>2021-06-01T06:31:18.000Z</time>
      </trkpt>
      <trkpt lat="44.14949" lon="5.87711">
        <ele>550</ele>
        <time>2021-06-01T06:31:19.000Z</time>
      </trkpt>
      <trkpt lat="44.14949" lon="5.87712">
        <ele>550</ele>
        <time>2021-06-01T06:31:20.000Z</time>
      </trkpt>
      <trkpt lat="44.14949" lon="5.87712">
        <ele>550</ele>
        <time>2021-06-01T06:31:21.000Z</time>
      </trkpt>
      <trkpt lat="44.14949" lon="5.87713">
        <ele>550</ele>
        <time>2021-06-01T06:31:22.000Z</time>
      </trkpt>
      <trkpt lat="44.14949" lon="5.87714">
        <ele>550</ele>
        <time>2021-06-01T06:31:23.000Z</time>
      </trkpt>
      <trkpt lat="44.14949" lon="5.87714">
        <ele>550</ele>
        <time>2021-06-01T06:31:24.000Z</time>
      </trkpt>
      <trkpt lat="44.14949" lon="5.87715">
        <ele>550</ele>
        <time>2021-06-01T06:31:25.000Z</time>
      </trkpt>
      <trkpt lat="44.14949" lon="5.87715">
        <ele>550</ele>
        <time>2021-06-01T06:31:26.000Z</time>
      </trkpt>
      <trkpt lat="44.14949" lon="5.87715">
        <ele>550</ele>
        <time>2021-06-01T06:31:27.000Z</time>
      </trkpt>
      <trkpt lat="44.14949" lon="5.87715">
        <ele>550</ele>
        <time>2021-06-01T06:31:28.000Z</time>
      </trkpt>
      <trkpt lat="44.1495" lon="5.87715">
        <ele>550</ele>
        <time>2021-06-01T06:31:29.000Z</time>
      </trkpt>
      <trkpt lat="44.1495" lon="5.87715">
        <ele>550</ele>
        <time>2021-06-01T06:31:30.000Z</time>
      </trkpt>
      <trkpt lat="44.1495" lon="5.87715">
        <ele>550</ele>
        <time>2021-06-01T06:31:31.000Z</time>
      </trkpt>
      <trkpt lat="44.1495" lon="5.87715">
        <ele>550</ele>
        <time>2021-06-01T06:31:32.000Z</time>
      </trkpt>
      <trkpt lat="44.1495" lon="5.87715">
        <ele>550</ele>
        <time>2021-06-01T06:31:33.000Z</time>
      </trkpt>
      <trkpt lat="44.1495" lon="5.87715">
        <ele>550</ele>
        <time>2021-06-01T06:31:34.000Z</time>
      </trkpt>
      <trkpt lat="44.1495" lon="5.87715">
        <ele>550</ele>
        <time>2021-06-01T06:31:35.000Z</time>
      </trkpt>
      <trkpt lat="44.1495" lon="5.87715">
        <ele>550</ele>
        <time>2021-06-01T06:31:36.000Z</time>
      </trkpt>
      <trkpt lat="44.1495" lon="5.87715">
        <ele>550</ele>
        <time>2021-06-01T06:31:37.000Z</time>
      </trkpt>
      <trkpt lat="44.1495" lon="5.87715">
        <ele>550</ele>
        <time>2021-06-01T06:31:38.000Z</time>
      </trkpt>
      <trkpt lat="44.14949" lon="5.87715">
        <ele>550</ele>
        <time>2021-06-01T06:31:39.000Z</time>
      </trkpt>
      <trkpt lat="44.14949" lon="5.87715">
        <ele>550</ele>
        <time>2021-06-01T06:31:40.000Z</time>
      </trkpt>
      <trkpt lat="44.1495" lon="5.87715">
        <ele>550</ele>
        <time>2021-06-01T06:31:41.000Z</time>
      </trkpt>
      <trkpt lat="44.14949" lon="5.87715">
        <ele>550</ele>
        <time>2021-06-01T06:31:42.000Z</time>
      </trkpt>
      <trkpt lat="44.14949" lon="5.87715">
        <ele>550</ele>
        <time>2021-06-01T06:31:43.000Z</time>
      </trkpt>
      <trkpt lat="44.14949" lon="5.87715">
        <ele>550</ele>
        <time>2021-06-01T06:31:44.000Z</time>
      </trkpt>
      <trkpt lat="44.1495" lon="5.87715">
        <ele>550</ele>
        <time>2021-06-01T06:31:45.000Z</time>
      </trkpt>
      <trkpt lat="44.14949" lon="5.87715">
        <ele>550</ele>
        <time>2021-06-01T06:31:46.000Z</time>
      </trkpt>
      <trkpt lat="44.14949" lon="5.87715">
        <ele>550</ele>
        <time>2021-06-01T06:31:47.000Z</time>
      </trkpt>
      <trkpt lat="44.14949" lon="5.87715">
        <ele>550</ele>
        <time>2021-06-01T06:31:48.000Z</time>
      </trkpt>
      <trkpt lat="44.14949" lon="5.87715">
        <ele>550</ele>
        <time>2021-06-01T06:31:49.000Z</time>
      </trkpt>
      <trkpt lat="44.14949" lon="5.87715">
        <ele>550</ele>
        <time>2021-06-01T06:31:50.000Z</time>
      </trkpt>
      <trkpt lat="44.14949" lon="5.87715">
        <ele>550</ele>
        <time>2021-06-01T06:31:51.000Z</time>
      </trkpt>
      <trkpt lat="44.14949" lon="5.87715">
        <ele>550</ele>
        <time>2021-06-01T06:31:52.000Z</time>
      </trkpt>
      <trkpt lat="44.14949" lon="5.87715">
        <ele>550</ele>
        <time>2021-06-01T06:31:53.000Z</time>
      </trkpt>
      <trkpt lat="44.14949" lon="5.87715">
        <ele>550</ele>
        <time>2021-06-01T06:31:54.000Z</time>
      </trkpt>
      <trkpt lat="44.14949" lon="5.87715">
        <ele>550</ele>
        <time>2021-06-01T06:31:55.000Z</time>
      </trkpt>
      <trkpt lat="44.14949" lon="5.87715">
        <ele>550</ele>
        <time>2021-06-01T06:31:56.000Z</time>
      </trkpt>
      <trkpt lat="44.14949" lon="5.87714">
        <ele>550</ele>
        <time>2021-06-01T06:31:57.000Z</time>
      </trkpt>
      <trkpt lat="44.14949" lon="5.87714">
        <ele>550</ele>
        <time>2021-06-01T06:31:58.000Z</time>
      </trkpt>
      <trkpt lat="44.14949" lon="5.87714">
        <ele>549</ele>
        <time>2021-06-01T06:31:59.000Z</time>
      </trkpt>
      <trkpt lat="44.14949" lon="5.87714">
        <ele>549</ele>
        <time>2021-06-01T06:32:00.000Z</time>
      </trkpt>
      <trkpt lat="44.14949" lon="5.87714">
        <ele>549</ele>
        <time>2021-06-01T06:32:01.000Z</time>
      </trkpt>
      <trkpt lat="44.14949" lon="5.87714">
        <ele>549</ele>
        <time>2021-06-01T06:32:02.000Z</time>
      </trkpt>
      <trkpt lat="44.14949" lon="5.87714">
        <ele>549</ele>
        <time>2021-06-01T06:32:03.000Z</time>
      </trkpt>
      <trkpt lat="44.14949" lon="5.87714">
        <ele>549</ele>
        <time>2021-06-01T06:32:04.000Z</time>
      </trkpt>
      <trkpt lat="44.14949" lon="5.87714">
        <ele>549</ele>
        <time>2021-06-01T06:32:05.000Z</time>
      </trkpt>
      <trkpt lat="44.14949" lon="5.87714">
        <ele>549</ele>
        <time>2021-06-01T06:32:06.000Z</time>
      </trkpt>
      <trkpt lat="44.14949" lon="5.87714">
        <ele>549</ele>
        <time>2021-06-01T06:32:07.000Z</time>
      </trkpt>
      <trkpt lat="44.14949" lon="5.87714">
        <ele>549</ele>
        <time>2021-06-01T06:32:08.000Z</time>
      </trkpt>
      <trkpt lat="44.14949" lon="5.87714">
        <ele>549</ele>
        <time>2021-06-01T06:32:09.000Z</time>
      </trkpt>
      <trkpt lat="44.14949" lon="5.87714">
        <ele>549</ele>
        <time>2021-06-01T06:32:10.000Z</time>
      </trkpt>
      <trkpt lat="44.14949" lon="5.87714">
        <ele>549</ele>
        <time>2021-06-01T06:32:11.000Z</time>
      </trkpt>
      <trkpt lat="44.14949" lon="5.87713">
        <ele>549</ele>
        <time>2021-06-01T06:32:12.000Z</time>
      </trkpt>
      <trkpt lat="44.14949" lon="5.87713">
        <ele>549</ele>
        <time>2021-06-01T06:32:13.000Z</time>
      </trkpt>
      <trkpt lat="44.14948" lon="5.87713">
        <ele>549</ele>
        <time>2021-06-01T06:32:14.000Z</time>
      </trkpt>
      <trkpt lat="44.14948" lon="5.87713">
        <ele>549</ele>
        <time>2021-06-01T06:32:15.000Z</time>
      </trkpt>
      <trkpt lat="44.14948" lon="5.87713">
        <ele>549</ele>
        <time>2021-06-01T06:32:16.000Z</time>
      </trkpt>
      <trkpt lat="44.14948" lon="5.87713">
        <ele>549</ele>
        <time>2021-06-01T06:32:17.000Z</time>
      </trkpt>
      <trkpt lat="44.14948" lon="5.87713">
        <ele>549</ele>
        <time>2021-06-01T06:32:18.000Z</time>
      </trkpt>
      <trkpt lat="44.14948" lon="5.87713">
        <ele>549</ele>
        <time>2021-06-01T06:32:19.000Z</time>
      </trkpt>
      <trkpt lat="44.14948" lon="5.87713">
        <ele>549</ele>
        <time>2021-06-01T06:32:20.000Z</time>
      </trkpt>
      <trkpt lat="44.14948" lon="5.87713">
        <ele>549</ele>
        <time>2021-06-01T06:32:21.000Z</time>
      </trkpt>
      <trkpt lat="44.14948" lon="5.87713">
        <ele>549</ele>
        <time>2021-06-01T06:32:22.000Z</time>
      </trkpt>
      <trkpt lat="44.14948" lon="5.87713">
        <ele>549</ele>
        <time>2021-06-01T06:32:23.000Z</time>
      </trkpt>
      <trkpt lat="44.14948" lon="5.87713">
        <ele>549</ele>
        <time>2021-06-01T06:32:24.000Z</time>
      </trkpt>
      <trkpt lat="44.14948" lon="5.87713">
        <ele>549</ele>
        <time>2021-06-01T06:32:25.000Z</time>
      </trkpt>
      <trkpt lat="44.14948" lon="5.87713">
        <ele>549</ele>
        <time>2021-06-01T06:32:26.000Z</time>
      </trkpt>
      <trkpt lat="44.14948" lon="5.87713">
        <ele>549</ele>
        <time>2021-06-01T06:32:27.000Z</time>
      </trkpt>
      <trkpt lat="44.14948" lon="5.87713">
        <ele>549</ele>
        <time>2021-06-01T06:32:28.000Z</time>
      </trkpt>
      <trkpt lat="44.14948" lon="5.87713">
        <ele>549</ele>
        <time>2021-06-01T06:32:29.000Z</time>
      </trkpt>
      <trkpt lat="44.14948" lon="5.87713">
        <ele>549</ele>
        <time>2021-06-01T06:32:30.000Z</time>
      </trkpt>
      <trkpt lat="44.14948" lon="5.87713">
        <ele>549</ele>
        <time>2021-06-01T06:32:31.000Z</time>
      </trkpt>
      <trkpt lat="44.14948" lon="5.87713">
        <ele>549</ele>
        <time>2021-06-01T06:32:32.000Z</time>
      </trkpt>
      <trkpt lat="44.14949" lon="5.87713">
        <ele>549</ele>
        <time>2021-06-01T06:32:33.000Z</time>
      </trkpt>
      <trkpt lat="44.14949" lon="5.87713">
        <ele>549</ele>
        <time>2021-06-01T06:32:34.000Z</time>
      </trkpt>
      <trkpt lat="44.14949" lon="5.87713">
        <ele>549</ele>
        <time>2021-06-01T06:32:35.000Z</time>
      </trkpt>
      <trkpt lat="44.14949" lon="5.87713">
        <ele>549</ele>
        <time>2021-06-01T06:32:36.000Z</time>
      </trkpt>
      <trkpt lat="44.14949" lon="5.87713">
        <ele>549</ele>
        <time>2021-06-01T06:32:37.000Z</time>
      </trkpt>
      <trkpt lat="44.14949" lon="5.87713">
        <ele>549</ele>
        <time>2021-06-01T06:32:38.000Z</time>
      </trkpt>
      <trkpt lat="44.14949" lon="5.87712">
        <ele>549</ele>
        <time>2021-06-01T06:32:39.000Z</time>
      </trkpt>
      <trkpt lat="44.14949" lon="5.87712">
        <ele>549</ele>
        <time>2021-06-01T06:32:40.000Z</time>
      </trkpt>
      <trkpt lat="44.14949" lon="5.87712">
        <ele>549</ele>
        <time>2021-06-01T06:32:41.000Z</time>
      </trkpt>
      <trkpt lat="44.14949" lon="5.87712">
        <ele>549</ele>
        <time>2021-06-01T06:32:42.000Z</time>
      </trkpt>
      <trkpt lat="44.14949" lon="5.87713">
        <ele>549</ele>
        <time>2021-06-01T06:32:43.000Z</time>
      </trkpt>
      <trkpt lat="44.14949" lon="5.87713">
        <ele>549</ele>
        <time>2021-06-01T06:32:44.000Z</time>
      </trkpt>
      <trkpt lat="44.14948" lon="5.87713">
        <ele>549</ele>
        <time>2021-06-01T06:32:45.000Z</time>
      </trkpt>
      <trkpt lat="44.14948" lon="5.87712">
        <ele>549</ele>
        <time>2021-06-01T06:32:46.000Z</time>
      </trkpt>
      <trkpt lat="44.14948" lon="5.87713">
        <ele>549</ele>
        <time>2021-06-01T06:32:47.000Z</time>
      </trkpt>
      <trkpt lat="44.14948" lon="5.87712">
        <ele>549</ele>
        <time>2021-06-01T06:32:48.000Z</time>
      </trkpt>
      <trkpt lat="44.14948" lon="5.87712">
        <ele>549</ele>
        <time>2021-06-01T06:32:49.000Z</time>
      </trkpt>
      <trkpt lat="44.14948" lon="5.87712">
        <ele>549</ele>
        <time>2021-06-01T06:32:50.000Z</time>
      </trkpt>
      <trkpt lat="44.14948" lon="5.87712">
        <ele>549</ele>
        <time>2021-06-01T06:32:51.000Z</time>
      </trkpt>
      <trkpt lat="44.14948" lon="5.87712">
        <ele>549</ele>
        <time>2021-06-01T06:32:52.000Z</time>
      </trkpt>
      <trkpt lat="44.14948" lon="5.87712">
        <ele>549</ele>
        <time>2021-06-01T06:32:53.000Z</time>
      </trkpt>
      <trkpt lat="44.14948" lon="5.87712">
        <ele>549</ele>
        <time>2021-06-01T06:32:54.000Z</time>
      </trkpt>
      <trkpt lat="44.14948" lon="5.87712">
        <ele>549</ele>
        <time>2021-06-01T06:32:55.000Z</time>
      </trkpt>
      <trkpt lat="44.14948" lon="5.87712">
        <ele>549</ele>
        <time>2021-06-01T06:32:56.000Z</time>
      </trkpt>
      <trkpt lat="44.14948" lon="5.87712">
        <ele>549</ele>
        <time>2021-06-01T06:32:57.000Z</time>
      </trkpt>
      <trkpt lat="44.14948" lon="5.87712">
        <ele>549</ele>
        <time>2021-06-01T06:32:58.000Z</time>
      </trkpt>
      <trkpt lat="44.14948" lon="5.87712">
        <ele>549</ele>
        <time>2021-06-01T06:32:59.000Z</time>
      </trkpt>
      <trkpt lat="44.14948" lon="5.87712">
        <ele>549</ele>
        <time>2021-06-01T06:33:00.000Z</time>
      </trkpt>
      <trkpt lat="44.14948" lon="5.87712">
        <ele>549</ele>
        <time>2021-06-01T06:33:01.000Z</time>
      </trkpt>
      <trkpt lat="44.14948" lon="5.87712">
        <ele>549</ele>
        <time>2021-06-01T06:33:02.000Z</time>
      </trkpt>
      <trkpt lat="44.14947" lon="5.87712">
        <ele>549</ele>
        <time>2021-06-01T06:33:03.000Z</time>
      </trkpt>
      <trkpt lat="44.14947" lon="5.87712">
        <ele>549</ele>
        <time>2021-06-01T06:33:04.000Z</time>
      </trkpt>
      <trkpt lat="44.14947" lon="5.87712">
        <ele>549</ele>
        <time>2021-06-01T06:33:05.000Z</time>
      </trkpt>
      <trkpt lat="44.14947" lon="5.87712">
        <ele>549</ele>
        <time>2021-06-01T06:33:06.000Z</time>
      </trkpt>
      <trkpt lat="44.14947" lon="5.87712">
        <ele>549</ele>
        <time>2021-06-01T06:33:07.000Z</time>
      </trkpt>
      <trkpt lat="44.14948" lon="5.87711">
        <ele>549</ele>
        <time>2021-06-01T06:33:08.000Z</time>
      </trkpt>
      <trkpt lat="44.14947" lon="5.87711">
        <ele>549</ele>
        <time>2021-06-01T06:33:09.000Z</time>
      </trkpt>
      <trkpt lat="44.14947" lon="5.87711">
        <ele>549</ele>
        <time>2021-06-01T06:33:10.000Z</time>
      </trkpt>
      <trkpt lat="44.14947" lon="5.87711">
        <ele>549</ele>
        <time>2021-06-01T06:33:11.000Z</time>
      </trkpt>
      <trkpt lat="44.14947" lon="5.87711">
        <ele>549</ele>
        <time>2021-06-01T06:33:12.000Z</time>
      </trkpt>
      <trkpt lat="44.14947" lon="5.87711">
        <ele>549</ele>
        <time>2021-06-01T06:33:13.000Z</time>
      </trkpt>
      <trkpt lat="44.14947" lon="5.87711">
        <ele>549</ele>
        <time>2021-06-01T06:33:14.000Z</time>
      </trkpt>
      <trkpt lat="44.14947" lon="5.87711">
        <ele>549</ele>
        <time>2021-06-01T06:33:15.000Z</time>
      </trkpt>
      <trkpt lat="44.14947" lon="5.87711">
        <ele>549</ele>
        <time>2021-06-01T06:33:16.000Z</time>
      </trkpt>
      <trkpt lat="44.14947" lon="5.87711">
        <ele>549</ele>
        <time>2021-06-01T06:33:17.000Z</time>
      </trkpt>
      <trkpt lat="44.14947" lon="5.87712">
        <ele>549</ele>
        <time>2021-06-01T06:33:18.000Z</time>
      </trkpt>
      <trkpt lat="44.14947" lon="5.87712">
        <ele>549</ele>
        <time>2021-06-01T06:33:19.000Z</time>
      </trkpt>
      <trkpt lat="44.14947" lon="5.87711">
        <ele>549</ele>
        <time>2021-06-01T06:33:20.000Z</time>
      </trkpt>
      <trkpt lat="44.14947" lon="5.87711">
        <ele>549</ele>
        <time>2021-06-01T06:33:21.000Z</time>
      </trkpt>
      <trkpt lat="44.14947" lon="5.87711">
        <ele>549</ele>
        <time>2021-06-01T06:33:22.000Z</time>
      </trkpt>
      <trkpt lat="44.14946" lon="5.87711">
        <ele>549</ele>
        <time>2021-06-01T06:33:23.000Z</time>
      </trkpt>
      <trkpt lat="44.14946" lon="5.87711">
        <ele>549</ele>
        <time>2021-06-01T06:33:24.000Z</time>
      </trkpt>
      <trkpt lat="44.14947" lon="5.87711">
        <ele>549</ele>
        <time>2021-06-01T06:33:25.000Z</time>
      </trkpt>
      <trkpt lat="44.14947" lon="5.87711">
        <ele>549</ele>
        <time>2021-06-01T06:33:26.000Z</time>
      </trkpt>
      <trkpt lat="44.14947" lon="5.87711">
        <ele>549</ele>
        <time>2021-06-01T06:33:27.000Z</time>
      </trkpt>
      <trkpt lat="44.14947" lon="5.87711">
        <ele>549</ele>
        <time>2021-06-01T06:33:28.000Z</time>
      </trkpt>
      <trkpt lat="44.14947" lon="5.87711">
        <ele>549</ele>
        <time>2021-06-01T06:33:29.000Z</time>
      </trkpt>
      <trkpt lat="44.14947" lon="5.87711">
        <ele>549</ele>
        <time>2021-06-01T06:33:30.000Z</time>
      </trkpt>
      <trkpt lat="44.14947" lon="5.87711">
        <ele>549</ele>
        <time>2021-06-01T06:33:31.000Z</time>
      </trkpt>
      <trkpt lat="44.14946" lon="5.8771">
        <ele>549</ele>
        <time>2021-06-01T06:33:32.000Z</time>
      </trkpt>
      <trkpt lat="44.14946" lon="5.8771">
        <ele>549</ele>
        <time>2021-06-01T06:33:33.000Z</time>
      </trkpt>
      <trkpt lat="44.14946" lon="5.8771">
        <ele>549</ele>
        <time>2021-06-01T06:33:34.000Z</time>
      </trkpt>
      <trkpt lat="44.14946" lon="5.8771">
        <ele>549</ele>
        <time>2021-06-01T06:33:35.000Z</time>
      </trkpt>
      <trkpt lat="44.14946" lon="5.8771">
        <ele>549</ele>
        <time>2021-06-01T06:33:36.000Z</time>
      </trkpt>
      <trkpt lat="44.14946" lon="5.8771">
        <ele>549</ele>
        <time>2021-06-01T06:33:37.000Z</time>
      </trkpt>
      <trkpt lat="44.14946" lon="5.8771">
        <ele>549</ele>
        <time>2021-06-01T06:33:38.000Z</time>
      </trkpt>
      <trkpt lat="44.14946" lon="5.8771">
        <ele>549</ele>
        <time>2021-06-01T06:33:39.000Z</time>
      </trkpt>
      <trkpt lat="44.14946" lon="5.87709">
        <ele>549</ele>
        <time>2021-06-01T06:33:40.000Z</time>
      </trkpt>
      <trkpt lat="44.14946" lon="5.87709">
        <ele>549</ele>
        <time>2021-06-01T06:33:41.000Z</time>
      </trkpt>
      <trkpt lat="44.14945" lon="5.87709">
        <ele>549</ele>
        <time>2021-06-01T06:33:42.000Z</time>
      </trkpt>
      <trkpt lat="44.14945" lon="5.87709">
        <ele>550</ele>
        <time>2021-06-01T06:33:43.000Z</time>
      </trkpt>
      <trkpt lat="44.14945" lon="5.87709">
        <ele>550</ele>
        <time>2021-06-01T06:33:44.000Z</time>
      </trkpt>
      <trkpt lat="44.14945" lon="5.87709">
        <ele>550</ele>
        <time>2021-06-01T06:33:45.000Z</time>
      </trkpt>
      <trkpt lat="44.14945" lon="5.87709">
        <ele>550</ele>
        <time>2021-06-01T06:33:46.000Z</time>
      </trkpt>
      <trkpt lat="44.14945" lon="5.87709">
        <ele>550</ele>
        <time>2021-06-01T06:33:47.000Z</time>
      </trkpt>
      <trkpt lat="44.14945" lon="5.87709">
        <ele>550</ele>
        <time>2021-06-01T06:33:48.000Z</time>
      </trkpt>
      <trkpt lat="44.14945" lon="5.8771">
        <ele>550</ele>
        <time>2021-06-01T06:33:49.000Z</time>
      </trkpt>
      <trkpt lat="44.14945" lon="5.87711">
        <ele>550</ele>
        <time>2021-06-01T06:33:50.000Z</time>
      </trkpt>
      <trkpt lat="44.14945" lon="5.87711">
        <ele>550</ele>
        <time>2021-06-01T06:33:51.000Z</time>
      </trkpt>
      <trkpt lat="44.14945" lon="5.87712">
        <ele>551</ele>
        <time>2021-06-01T06:33:52.000Z</time>
      </trkpt>
      <trkpt lat="44.14945" lon="5.87712">
        <ele>551</ele>
        <time>2021-06-01T06:33:53.000Z</time>
      </trkpt>
      <trkpt lat="44.14945" lon="5.87713">
        <ele>551</ele>
        <time>2021-06-01T06:33:54.000Z</time>
      </trkpt>
      <trkpt lat="44.14946" lon="5.87713">
        <ele>551</ele>
        <time>2021-06-01T06:33:55.000Z</time>
      </trkpt>
      <trkpt lat="44.14946" lon="5.87714">
        <ele>551</ele>
        <time>2021-06-01T06:33:56.000Z</time>
      </trkpt>
      <trkpt lat="44.14946" lon="5.87714">
        <ele>551</ele>
        <time>2021-06-01T06:33:57.000Z</time>
      </trkpt>
      <trkpt lat="44.14946" lon="5.87714">
        <ele>551</ele>
        <time>2021-06-01T06:33:58.000Z</time>
      </trkpt>
      <trkpt lat="44.14945" lon="5.87715">
        <ele>551</ele>
        <time>2021-06-01T06:33:59.000Z</time>
      </trkpt>
      <trkpt lat="44.14945" lon="5.87715">
        <ele>551</ele>
        <time>2021-06-01T06:34:00.000Z</time>
      </trkpt>
      <trkpt lat="44.14946" lon="5.87715">
        <ele>551</ele>
        <time>2021-06-01T06:34:01.000Z</time>
      </trkpt>
      <trkpt lat="44.14946" lon="5.87715">
        <ele>551</ele>
        <time>2021-06-01T06:34:02.000Z</time>
      </trkpt>
      <trkpt lat="44.14946" lon="5.87715">
        <ele>551</ele>
        <time>2021-06-01T06:34:03.000Z</time>
      </trkpt>
      <trkpt lat="44.14946" lon="5.87715">
        <ele>551</ele>
        <time>2021-06-01T06:34:04.000Z</time>
      </trkpt>
      <trkpt lat="44.14946" lon="5.87715">
        <ele>551</ele>
        <time>2021-06-01T06:34:05.000Z</time>
      </trkpt>
      <trkpt lat="44.14946" lon="5.87715">
        <ele>551</ele>
        <time>2021-06-01T06:34:06.000Z</time>
      </trkpt>
      <trkpt lat="44.14946" lon="5.87715">
        <ele>551</ele>
        <time>2021-06-01T06:34:07.000Z</time>
      </trkpt>
      <trkpt lat="44.14946" lon="5.87715">
        <ele>551</ele>
        <time>2021-06-01T06:34:08.000Z</time>
      </trkpt>
      <trkpt lat="44.14946" lon="5.87716">
        <ele>551</ele>
        <time>2021-06-01T06:34:09.000Z</time>
      </trkpt>
      <trkpt lat="44.14946" lon="5.87716">
        <ele>551</ele>
        <time>2021-06-01T06:34:10.000Z</time>
      </trkpt>
      <trkpt lat="44.14946" lon="5.87716">
        <ele>551</ele>
        <time>2021-06-01T06:34:11.000Z</time>
      </trkpt>
      <trkpt lat="44.14946" lon="5.87717">
        <ele>551</ele>
        <time>2021-06-01T06:34:12.000Z</time>
      </trkpt>
      <trkpt lat="44.14946" lon="5.87717">
        <ele>551</ele>
        <time>2021-06-01T06:34:13.000Z</time>
      </trkpt>
      <trkpt lat="44.14946" lon="5.87717">
        <ele>551</ele>
        <time>2021-06-01T06:34:14.000Z</time>
      </trkpt>
      <trkpt lat="44.14946" lon="5.87717">
        <ele>551</ele>
        <time>2021-06-01T06:34:15.000Z</time>
      </trkpt>
      <trkpt lat="44.14946" lon="5.87718">
        <ele>551</ele>
        <time>2021-06-01T06:34:16.000Z</time>
      </trkpt>
      <trkpt lat="44.14946" lon="5.87718">
        <ele>551</ele>
        <time>2021-06-01T06:34:17.000Z</time>
      </trkpt>
      <trkpt lat="44.14946" lon="5.87718">
        <ele>551</ele>
        <time>2021-06-01T06:34:18.000Z</time>
      </trkpt>
      <trkpt lat="44.14946" lon="5.87718">
        <ele>551</ele>
        <time>2021-06-01T06:34:19.000Z</time>
      </trkpt>
      <trkpt lat="44.14946" lon="5.87718">
        <ele>551</ele>
        <time>2021-06-01T06:34:20.000Z</time>
      </trkpt>
      <trkpt lat="44.14947" lon="5.87718">
        <ele>551</ele>
        <time>2021-06-01T06:34:21.000Z</time>
      </trkpt>
      <trkpt lat="44.14947" lon="5.87717">
        <ele>551</ele>
        <time>2021-06-01T06:34:22.000Z</time>
      </trkpt>
      <trkpt lat="44.14947" lon="5.87717">
        <ele>551</ele>
        <time>2021-06-01T06:34:23.000Z</time>
      </trkpt>
      <trkpt lat="44.14947" lon="5.87718">
        <ele>551</ele>
        <time>2021-06-01T06:34:24.000Z</time>
      </trkpt>
      <trkpt lat="44.14947" lon="5.87718">
        <ele>551</ele>
        <time>2021-06-01T06:34:25.000Z</time>
      </trkpt>
      <trkpt lat="44.14947" lon="5.87718">
        <ele>551</ele>
        <time>2021-06-01T06:34:26.000Z</time>
      </trkpt>
      <trkpt lat="44.14946" lon="5.87718">
        <ele>551</ele>
        <time>2021-06-01T06:34:27.000Z</time>
      </trkpt>
      <trkpt lat="44.14946" lon="5.87718">
        <ele>551</ele>
        <time>2021-06-01T06:34:28.000Z</time>
      </trkpt>
      <trkpt lat="44.14946" lon="5.87718">
        <ele>551</ele>
        <time>2021-06-01T06:34:29.000Z</time>
      </trkpt>
      <trkpt lat="44.14946" lon="5.87718">
        <ele>551</ele>
        <time>2021-06-01T06:34:30.000Z</time>
      </trkpt>
      <trkpt lat="44.14946" lon="5.87718">
        <ele>551</ele>
        <time>2021-06-01T06:34:31.000Z</time>
      </trkpt>
      <trkpt lat="44.14946" lon="5.87718">
        <ele>551</ele>
        <time>2021-06-01T06:34:32.000Z</time>
      </trkpt>
      <trkpt lat="44.14946" lon="5.87718">
        <ele>551</ele>
        <time>2021-06-01T06:34:33.000Z</time>
      </trkpt>
      <trkpt lat="44.14946" lon="5.87719">
        <ele>551</ele>
        <time>2021-06-01T06:34:34.000Z</time>
      </trkpt>
      <trkpt lat="44.14946" lon="5.87719">
        <ele>551</ele>
        <time>2021-06-01T06:34:35.000Z</time>
      </trkpt>
      <trkpt lat="44.14946" lon="5.87719">
        <ele>551</ele>
        <time>2021-06-01T06:34:36.000Z</time>
      </trkpt>
      <trkpt lat="44.14946" lon="5.87719">
        <ele>551</ele>
        <time>2021-06-01T06:34:37.000Z</time>
      </trkpt>
      <trkpt lat="44.14945" lon="5.87719">
        <ele>551</ele>
        <time>2021-06-01T06:34:38.000Z</time>
      </trkpt>
      <trkpt lat="44.14945" lon="5.87719">
        <ele>551</ele>
        <time>2021-06-01T06:34:39.000Z</time>
      </trkpt>
      <trkpt lat="44.14944" lon="5.87719">
        <ele>551</ele>
        <time>2021-06-01T06:34:40.000Z</time>
      </trkpt>
      <trkpt lat="44.14944" lon="5.87718">
        <ele>551</ele>
        <time>2021-06-01T06:34:41.000Z</time>
      </trkpt>
      <trkpt lat="44.14944" lon="5.87717">
        <ele>551</ele>
        <time>2021-06-01T06:34:42.000Z</time>
      </trkpt>
      <trkpt lat="44.14945" lon="5.87716">
        <ele>551</ele>
        <time>2021-06-01T06:34:43.000Z</time>
      </trkpt>
      <trkpt lat="44.14945" lon="5.87715">
        <ele>551</ele>
        <time>2021-06-01T06:34:44.000Z</time>
      </trkpt>
      <trkpt lat="44.14945" lon="5.87714">
        <ele>551</ele>
        <time>2021-06-01T06:34:45.000Z</time>
      </trkpt>
      <trkpt lat="44.14946" lon="5.87713">
        <ele>551</ele>
        <time>2021-06-01T06:34:46.000Z</time>
      </trkpt>
      <trkpt lat="44.14946" lon="5.87712">
        <ele>550</ele>
        <time>2021-06-01T06:34:47.000Z</time>
      </trkpt>
      <trkpt lat="44.14946" lon="5.87712">
        <ele>550</ele>
        <time>2021-06-01T06:34:48.000Z</time>
      </trkpt>
      <trkpt lat="44.14947" lon="5.87712">
        <ele>550</ele>
        <time>2021-06-01T06:34:49.000Z</time>
      </trkpt>
      <trkpt lat="44.14947" lon="5.87712">
        <ele>550</ele>
        <time>2021-06-01T06:34:50.000Z</time>
      </trkpt>
      <trkpt lat="44.14947" lon="5.87713">
        <ele>550</ele>
        <time>2021-06-01T06:34:51.000Z</time>
      </trkpt>
      <trkpt lat="44.14948" lon="5.87713">
        <ele>550</ele>
        <time>2021-06-01T06:34:52.000Z</time>
      </trkpt>
      <trkpt lat="44.14949" lon="5.87714">
        <ele>550</ele>
        <time>2021-06-01T06:34:53.000Z</time>
      </trkpt>
      <trkpt lat="44.14949" lon="5.87714">
        <ele>550</ele>
        <time>2021-06-01T06:34:54.000Z</time>
      </trkpt>
      <trkpt lat="44.14949" lon="5.87715">
        <ele>550</ele>
        <time>2021-06-01T06:34:55.000Z</time>
      </trkpt>
      <trkpt lat="44.14949" lon="5.87715">
        <ele>550</ele>
        <time>2021-06-01T06:34:56.000Z</time>
      </trkpt>
      <trkpt lat="44.14949" lon="5.87715">
        <ele>550</ele>
        <time>2021-06-01T06:34:57.000Z</time>
      </trkpt>
      <trkpt lat="44.14948" lon="5.87716">
        <ele>550</ele>
        <time>2021-06-01T06:34:58.000Z</time>
      </trkpt>
      <trkpt lat="44.14948" lon="5.87716">
        <ele>550</ele>
        <time>2021-06-01T06:34:59.000Z</time>
      </trkpt>
      <trkpt lat="44.14948" lon="5.87716">
        <ele>550</ele>
        <time>2021-06-01T06:35:00.000Z</time>
      </trkpt>
      <trkpt lat="44.14948" lon="5.87716">
        <ele>550</ele>
        <time>2021-06-01T06:35:01.000Z</time>
      </trkpt>
      <trkpt lat="44.14948" lon="5.87716">
        <ele>550</ele>
        <time>2021-06-01T06:35:02.000Z</time>
      </trkpt>
      <trkpt lat="44.14948" lon="5.87716">
        <ele>550</ele>
        <time>2021-06-01T06:35:03.000Z</time>
      </trkpt>
      <trkpt lat="44.14948" lon="5.87716">
        <ele>550</ele>
        <time>2021-06-01T06:35:04.000Z</time>
      </trkpt>
      <trkpt lat="44.14948" lon="5.87717">
        <ele>549</ele>
        <time>2021-06-01T06:35:05.000Z</time>
      </trkpt>
      <trkpt lat="44.14948" lon="5.87717">
        <ele>549</ele>
        <time>2021-06-01T06:35:06.000Z</time>
      </trkpt>
      <trkpt lat="44.14948" lon="5.87717">
        <ele>549</ele>
        <time>2021-06-01T06:35:07.000Z</time>
      </trkpt>
      <trkpt lat="44.14948" lon="5.87716">
        <ele>549</ele>
        <time>2021-06-01T06:35:08.000Z</time>
      </trkpt>
      <trkpt lat="44.14948" lon="5.87715">
        <ele>549</ele>
        <time>2021-06-01T06:35:09.000Z</time>
      </trkpt>
      <trkpt lat="44.14948" lon="5.87714">
        <ele>549</ele>
        <time>2021-06-01T06:35:10.000Z</time>
      </trkpt>
      <trkpt lat="44.14948" lon="5.87713">
        <ele>549</ele>
        <time>2021-06-01T06:35:11.000Z</time>
      </trkpt>
      <trkpt lat="44.14947" lon="5.87712">
        <ele>549</ele>
        <time>2021-06-01T06:35:12.000Z</time>
      </trkpt>
      <trkpt lat="44.14947" lon="5.87711">
        <ele>549</ele>
        <time>2021-06-01T06:35:13.000Z</time>
      </trkpt>
      <trkpt lat="44.14947" lon="5.87709">
        <ele>549</ele>
        <time>2021-06-01T06:35:14.000Z</time>
      </trkpt>
      <trkpt lat="44.14947" lon="5.87707">
        <ele>548</ele>
        <time>2021-06-01T06:35:15.000Z</time>
      </trkpt>
      <trkpt lat="44.14946" lon="5.87706">
        <ele>548</ele>
        <time>2021-06-01T06:35:16.000Z</time>
      </trkpt>
      <trkpt lat="44.14946" lon="5.87706">
        <ele>548</ele>
        <time>2021-06-01T06:35:17.000Z</time>
      </trkpt>
      <trkpt lat="44.14946" lon="5.87706">
        <ele>548</ele>
        <time>2021-06-01T06:35:18.000Z</time>
      </trkpt>
      <trkpt lat="44.14945" lon="5.87706">
        <ele>548</ele>
        <time>2021-06-01T06:35:19.000Z</time>
      </trkpt>
      <trkpt lat="44.14945" lon="5.87706">
        <ele>548</ele>
        <time>2021-06-01T06:35:20.000Z</time>
      </trkpt>
      <trkpt lat="44.14945" lon="5.87705">
        <ele>548</ele>
        <time>2021-06-01T06:35:21.000Z</time>
      </trkpt>
      <trkpt lat="44.14945" lon="5.87705">
        <ele>548</ele>
        <time>2021-06-01T06:35:22.000Z</time>
      </trkpt>
      <trkpt lat="44.14945" lon="5.87705">
        <ele>548</ele>
        <time>2021-06-01T06:35:23.000Z</time>
      </trkpt>
      <trkpt lat="44.14945" lon="5.87705">
        <ele>548</ele>
        <time>2021-06-01T06:35:24.000Z</time>
      </trkpt>
      <trkpt lat="44.14946" lon="5.87705">
        <ele>548</ele>
        <time>2021-06-01T06:35:25.000Z</time>
      </trkpt>
      <trkpt lat="44.14946" lon="5.87705">
        <ele>548</ele>
        <time>2021-06-01T06:35:26.000Z</time>
      </trkpt>
      <trkpt lat="44.14946" lon="5.87705">
        <ele>548</ele>
        <time>2021-06-01T06:35:27.000Z</time>
      </trkpt>
      <trkpt lat="44.14946" lon="5.87705">
        <ele>548</ele>
        <time>2021-06-01T06:35:28.000Z</time>
      </trkpt>
      <trkpt lat="44.14946" lon="5.87705">
        <ele>548</ele>
        <time>2021-06-01T06:35:29.000Z</time>
      </trkpt>
      <trkpt lat="44.14946" lon="5.87705">
        <ele>548</ele>
        <time>2021-06-01T06:35:30.000Z</time>
      </trkpt>
      <trkpt lat="44.14946" lon="5.87705">
        <ele>548</ele>
        <time>2021-06-01T06:35:31.000Z</time>
      </trkpt>
      <trkpt lat="44.14946" lon="5.87705">
        <ele>548</ele>
        <time>2021-06-01T06:35:32.000Z</time>
      </trkpt>
      <trkpt lat="44.14946" lon="5.87705">
        <ele>548</ele>
        <time>2021-06-01T06:35:33.000Z</time>
      </trkpt>
      <trkpt lat="44.14946" lon="5.87705">
        <ele>548</ele>
        <time>2021-06-01T06:35:34.000Z</time>
      </trkpt>
      <trkpt lat="44.14946" lon="5.87706">
        <ele>548</ele>
        <time>2021-06-01T06:35:35.000Z</time>
      </trkpt>
      <trkpt lat="44.14946" lon="5.87706">
        <ele>548</ele>
        <time>2021-06-01T06:35:36.000Z</time>
      </trkpt>
      <trkpt lat="44.14946" lon="5.87706">
        <ele>548</ele>
        <time>2021-06-01T06:35:37.000Z</time>
      </trkpt>
      <trkpt lat="44.14946" lon="5.87706">
        <ele>548</ele>
        <time>2021-06-01T06:35:38.000Z</time>
      </trkpt>
      <trkpt lat="44.14946" lon="5.87706">
        <ele>548</ele>
        <time>2021-06-01T06:35:39.000Z</time>
      </trkpt>
      <trkpt lat="44.14946" lon="5.87706">
        <ele>548</ele>
        <time>2021-06-01T06:35:40.000Z</time>
      </trkpt>
      <trkpt lat="44.14946" lon="5.87706">
        <ele>548</ele>
        <time>2021-06-01T06:35:41.000Z</time>
      </trkpt>
      <trkpt lat="44.14946" lon="5.87705">
        <ele>548</ele>
        <time>2021-06-01T06:35:42.000Z</time>
      </trkpt>
      <trkpt lat="44.14946" lon="5.87705">
        <ele>548</ele>
        <time>2021-06-01T06:35:43.000Z</time>
      </trkpt>
      <trkpt lat="44.14946" lon="5.87704">
        <ele>548</ele>
        <time>2021-06-01T06:35:44.000Z</time>
      </trkpt>
      <trkpt lat="44.14947" lon="5.87704">
        <ele>548</ele>
        <time>2021-06-01T06:35:45.000Z</time>
      </trkpt>
      <trkpt lat="44.14947" lon="5.87703">
        <ele>548</ele>
        <time>2021-06-01T06:35:46.000Z</time>
      </trkpt>
      <trkpt lat="44.14948" lon="5.87704">
        <ele>548</ele>
        <time>2021-06-01T06:35:47.000Z</time>
      </trkpt>
      <trkpt lat="44.14948" lon="5.87704">
        <ele>548</ele>
        <time>2021-06-01T06:35:48.000Z</time>
      </trkpt>
      <trkpt lat="44.14948" lon="5.87705">
        <ele>548</ele>
        <time>2021-06-01T06:35:49.000Z</time>
      </trkpt>
      <trkpt lat="44.14948" lon="5.87705">
        <ele>548</ele>
        <time>2021-06-01T06:35:50.000Z</time>
      </trkpt>
      <trkpt lat="44.14948" lon="5.87705">
        <ele>548</ele>
        <time>2021-06-01T06:35:51.000Z</time>
      </trkpt>
      <trkpt lat="44.14947" lon="5.87705">
        <ele>548</ele>
        <time>2021-06-01T06:35:52.000Z</time>
      </trkpt>
      <trkpt lat="44.14947" lon="5.87705">
        <ele>548</ele>
        <time>2021-06-01T06:35:53.000Z</time>
      </trkpt>
      <trkpt lat="44.14947" lon="5.87705">
        <ele>548</ele>
        <time>2021-06-01T06:35:54.000Z</time>
      </trkpt>
      <trkpt lat="44.14947" lon="5.87705">
        <ele>548</ele>
        <time>2021-06-01T06:35:55.000Z</time>
      </trkpt>
      <trkpt lat="44.14947" lon="5.87705">
        <ele>548</ele>
        <time>2021-06-01T06:35:56.000Z</time>
      </trkpt>
      <trkpt lat="44.14947" lon="5.87705">
        <ele>548</ele>
        <time>2021-06-01T06:35:57.000Z</time>
      </trkpt>
      <trkpt lat="44.14947" lon="5.87705">
        <ele>548</ele>
        <time>2021-06-01T06:35:58.000Z</time>
      </trkpt>
      <trkpt lat="44.14947" lon="5.87705">
        <ele>548</ele>
        <time>2021-06-01T06:35:59.000Z</time>
      </trkpt>
      <trkpt lat="44.14947" lon="5.87705">
        <ele>548</ele>
        <time>2021-06-01T06:36:00.000Z</time>
      </trkpt>
      <trkpt lat="44.14947" lon="5.87705">
        <ele>548</ele>
        <time>2021-06-01T06:36:01.000Z</time>
      </trkpt>
      <trkpt lat="44.14947" lon="5.87706">
        <ele>548</ele>
        <time>2021-06-01T06:36:02.000Z</time>
      </trkpt>
      <trkpt lat="44.14947" lon="5.87706">
        <ele>548</ele>
        <time>2021-06-01T06:36:03.000Z</time>
      </trkpt>
      <trkpt lat="44.14947" lon="5.87706">
        <ele>548</ele>
        <time>2021-06-01T06:36:04.000Z</time>
      </trkpt>
      <trkpt lat="44.14947" lon="5.87705">
        <ele>548</ele>
        <time>2021-06-01T06:36:05.000Z</time>
      </trkpt>
      <trkpt lat="44.14947" lon="5.87705">
        <ele>548</ele>
        <time>2021-06-01T06:36:06.000Z</time>
      </trkpt>
      <trkpt lat="44.14947" lon="5.87706">
        <ele>548</ele>
        <time>2021-06-01T06:36:07.000Z</time>
      </trkpt>
      <trkpt lat="44.14947" lon="5.87705">
        <ele>548</ele>
        <time>2021-06-01T06:36:08.000Z</time>
      </trkpt>
      <trkpt lat="44.14947" lon="5.87705">
        <ele>548</ele>
        <time>2021-06-01T06:36:09.000Z</time>
      </trkpt>
      <trkpt lat="44.14947" lon="5.87705">
        <ele>548</ele>
        <time>2021-06-01T06:36:10.000Z</time>
      </trkpt>
      <trkpt lat="44.14947" lon="5.87705">
        <ele>548</ele>
        <time>2021-06-01T06:36:11.000Z</time>
      </trkpt>
      <trkpt lat="44.14947" lon="5.87705">
        <ele>548</ele>
        <time>2021-06-01T06:36:12.000Z</time>
      </trkpt>
      <trkpt lat="44.14947" lon="5.87705">
        <ele>548</ele>
        <time>2021-06-01T06:36:13.000Z</time>
      </trkpt>
      <trkpt lat="44.14947" lon="5.87705">
        <ele>549</ele>
        <time>2021-06-01T06:36:14.000Z</time>
      </trkpt>
      <trkpt lat="44.14947" lon="5.87705">
        <ele>549</ele>
        <time>2021-06-01T06:36:15.000Z</time>
      </trkpt>
      <trkpt lat="44.14947" lon="5.87706">
        <ele>548</ele>
        <time>2021-06-01T06:36:16.000Z</time>
      </trkpt>
      <trkpt lat="44.14947" lon="5.87706">
        <ele>548</ele>
        <time>2021-06-01T06:36:17.000Z</time>
      </trkpt>
      <trkpt lat="44.14947" lon="5.87706">
        <ele>549</ele>
        <time>2021-06-01T06:36:18.000Z</time>
      </trkpt>
      <trkpt lat="44.14947" lon="5.87706">
        <ele>549</ele>
        <time>2021-06-01T06:36:19.000Z</time>
      </trkpt>
      <trkpt lat="44.14947" lon="5.87706">
        <ele>549</ele>
        <time>2021-06-01T06:36:20.000Z</time>
      </trkpt>
      <trkpt lat="44.14947" lon="5.87706">
        <ele>549</ele>
        <time>2021-06-01T06:36:21.000Z</time>
      </trkpt>
      <trkpt lat="44.14947" lon="5.87706">
        <ele>549</ele>
        <time>2021-06-01T06:36:22.000Z</time>
      </trkpt>
      <trkpt lat="44.14947" lon="5.87706">
        <ele>549</ele>
        <time>2021-06-01T06:36:23.000Z</time>
      </trkpt>
      <trkpt lat="44.14947" lon="5.87706">
        <ele>549</ele>
        <time>2021-06-01T06:36:24.000Z</time>
      </trkpt>
      <trkpt lat="44.14947" lon="5.87706">
        <ele>549</ele>
        <time>2021-06-01T06:36:25.000Z</time>
      </trkpt>
      <trkpt lat="44.14948" lon="5.87707">
        <ele>549</ele>
        <time>2021-06-01T06:36:26.000Z</time>
      </trkpt>
      <trkpt lat="44.14948" lon="5.87707">
        <ele>549</ele>
        <time>2021-06-01T06:36:27.000Z</time>
      </trkpt>
      <trkpt lat="44.14948" lon="5.87707">
        <ele>549</ele>
        <time>2021-06-01T06:36:28.000Z</time>
      </trkpt>
      <trkpt lat="44.14949" lon="5.87708">
        <ele>549</ele>
        <time>2021-06-01T06:36:29.000Z</time>
      </trkpt>
      <trkpt lat="44.14949" lon="5.87708">
        <ele>549</ele>
        <time>2021-06-01T06:36:30.000Z</time>
      </trkpt>
      <trkpt lat="44.14949" lon="5.87708">
        <ele>549</ele>
        <time>2021-06-01T06:36:31.000Z</time>
      </trkpt>
      <trkpt lat="44.14949" lon="5.87708">
        <ele>549</ele>
        <time>2021-06-01T06:36:32.000Z</time>
      </trkpt>
      <trkpt lat="44.14949" lon="5.87708">
        <ele>549</ele>
        <time>2021-06-01T06:36:33.000Z</time>
      </trkpt>
      <trkpt lat="44.14949" lon="5.87708">
        <ele>549</ele>
        <time>2021-06-01T06:36:34.000Z</time>
      </trkpt>
      <trkpt lat="44.14949" lon="5.87708">
        <ele>549</ele>
        <time>2021-06-01T06:36:35.000Z</time>
      </trkpt>
      <trkpt lat="44.14949" lon="5.87708">
        <ele>549</ele>
        <time>2021-06-01T06:36:36.000Z</time>
      </trkpt>
      <trkpt lat="44.14949" lon="5.87708">
        <ele>549</ele>
        <time>2021-06-01T06:36:37.000Z</time>
      </trkpt>
      <trkpt lat="44.14949" lon="5.87708">
        <ele>549</ele>
        <time>2021-06-01T06:36:38.000Z</time>
      </trkpt>
      <trkpt lat="44.14949" lon="5.87708">
        <ele>549</ele>
        <time>2021-06-01T06:36:39.000Z</time>
      </trkpt>
      <trkpt lat="44.14949" lon="5.87708">
        <ele>550</ele>
        <time>2021-06-01T06:36:40.000Z</time>
      </trkpt>
      <trkpt lat="44.14949" lon="5.87708">
        <ele>550</ele>
        <time>2021-06-01T06:36:41.000Z</time>
      </trkpt>
      <trkpt lat="44.14949" lon="5.87708">
        <ele>550</ele>
        <time>2021-06-01T06:36:42.000Z</time>
      </trkpt>
      <trkpt lat="44.14949" lon="5.87709">
        <ele>550</ele>
        <time>2021-06-01T06:36:43.000Z</time>
      </trkpt>
      <trkpt lat="44.14949" lon="5.87709">
        <ele>550</ele>
        <time>2021-06-01T06:36:44.000Z</time>
      </trkpt>
      <trkpt lat="44.14949" lon="5.87709">
        <ele>550</ele>
        <time>2021-06-01T06:36:45.000Z</time>
      </trkpt>
      <trkpt lat="44.14949" lon="5.8771">
        <ele>550</ele>
        <time>2021-06-01T06:36:46.000Z</time>
      </trkpt>
      <trkpt lat="44.14949" lon="5.8771">
        <ele>550</ele>
        <time>2021-06-01T06:36:47.000Z</time>
      </trkpt>
      <trkpt lat="44.14949" lon="5.8771">
        <ele>550</ele>
        <time>2021-06-01T06:36:48.000Z</time>
      </trkpt>
      <trkpt lat="44.14949" lon="5.8771">
        <ele>550</ele>
        <time>2021-06-01T06:36:49.000Z</time>
      </trkpt>
      <trkpt lat="44.14949" lon="5.8771">
        <ele>550</ele>
        <time>2021-06-01T06:36:50.000Z</time>
      </trkpt>
      <trkpt lat="44.14949" lon="5.8771">
        <ele>549</ele>
        <time>2021-06-01T06:36:51.000Z</time>
      </trkpt>
      <trkpt lat="44.14949" lon="5.87709">
        <ele>549</ele>
        <time>2021-06-01T06:36:52.000Z</time>
      </trkpt>
      <trkpt lat="44.14948" lon="5.87709">
        <ele>550</ele>
        <time>2021-06-01T06:36:53.000Z</time>
      </trkpt>
      <trkpt lat="44.14948" lon="5.87709">
        <ele>550</ele>
        <time>2021-06-01T06:36:54.000Z</time>
      </trkpt>
      <trkpt lat="44.14948" lon="5.87709">
        <ele>550</ele>
        <time>2021-06-01T06:36:55.000Z</time>
      </trkpt>
      <trkpt lat="44.14948" lon="5.87709">
        <ele>550</ele>
        <time>2021-06-01T06:36:56.000Z</time>
      </trkpt>
      <trkpt lat="44.14949" lon="5.8771">
        <ele>550</ele>
        <time>2021-06-01T06:36:57.000Z</time>
      </trkpt>
      <trkpt lat="44.14949" lon="5.8771">
        <ele>550</ele>
        <time>2021-06-01T06:36:58.000Z</time>
      </trkpt>
      <trkpt lat="44.14949" lon="5.8771">
        <ele>550</ele>
        <time>2021-06-01T06:36:59.000Z</time>
      </trkpt>
      <trkpt lat="44.14948" lon="5.8771">
        <ele>550</ele>
        <time>2021-06-01T06:37:00.000Z</time>
      </trkpt>
      <trkpt lat="44.14948" lon="5.8771">
        <ele>550</ele>
        <time>2021-06-01T06:37:01.000Z</time>
      </trkpt>
      <trkpt lat="44.14948" lon="5.8771">
        <ele>550</ele>
        <time>2021-06-01T06:37:02.000Z</time>
      </trkpt>
      <trkpt lat="44.14948" lon="5.8771">
        <ele>550</ele>
        <time>2021-06-01T06:37:03.000Z</time>
      </trkpt>
      <trkpt lat="44.14948" lon="5.8771">
        <ele>550</ele>
        <time>2021-06-01T06:37:04.000Z</time>
      </trkpt>
      <trkpt lat="44.14948" lon="5.8771">
        <ele>551</ele>
        <time>2021-06-01T06:37:05.000Z</time>
      </trkpt>
      <trkpt lat="44.14948" lon="5.8771">
        <ele>551</ele>
        <time>2021-06-01T06:37:06.000Z</time>
      </trkpt>
      <trkpt lat="44.14948" lon="5.87711">
        <ele>551</ele>
        <time>2021-06-01T06:37:07.000Z</time>
      </trkpt>
      <trkpt lat="44.14948" lon="5.87711">
        <ele>551</ele>
        <time>2021-06-01T06:37:08.000Z</time>
      </trkpt>
      <trkpt lat="44.14948" lon="5.87711">
        <ele>551</ele>
        <time>2021-06-01T06:37:09.000Z</time>
      </trkpt>
      <trkpt lat="44.14948" lon="5.87712">
        <ele>551</ele>
        <time>2021-06-01T06:37:10.000Z</time>
      </trkpt>
      <trkpt lat="44.14948" lon="5.87712">
        <ele>551</ele>
        <time>2021-06-01T06:37:11.000Z</time>
      </trkpt>
      <trkpt lat="44.14948" lon="5.87712">
        <ele>551</ele>
        <time>2021-06-01T06:37:12.000Z</time>
      </trkpt>
      <trkpt lat="44.14948" lon="5.87712">
        <ele>551</ele>
        <time>2021-06-01T06:37:13.000Z</time>
      </trkpt>
      <trkpt lat="44.14948" lon="5.87712">
        <ele>551</ele>
        <time>2021-06-01T06:37:14.000Z</time>
      </trkpt>
      <trkpt lat="44.14948" lon="5.87712">
        <ele>552</ele>
        <time>2021-06-01T06:37:15.000Z</time>
      </trkpt>
      <trkpt lat="44.14948" lon="5.87712">
        <ele>552</ele>
        <time>2021-06-01T06:37:16.000Z</time>
      </trkpt>
      <trkpt lat="44.14948" lon="5.87712">
        <ele>552</ele>
        <time>2021-06-01T06:37:17.000Z</time>
      </trkpt>
      <trkpt lat="44.14948" lon="5.87712">
        <ele>552</ele>
        <time>2021-06-01T06:37:18.000Z</time>
      </trkpt>
      <trkpt lat="44.14948" lon="5.87712">
        <ele>552</ele>
        <time>2021-06-01T06:37:19.000Z</time>
      </trkpt>
      <trkpt lat="44.14948" lon="5.87712">
        <ele>552</ele>
        <time>2021-06-01T06:37:20.000Z</time>
      </trkpt>
      <trkpt lat="44.14948" lon="5.87712">
        <ele>552</ele>
        <time>2021-06-01T06:37:21.000Z</time>
      </trkpt>
      <trkpt lat="44.14948" lon="5.87712">
        <ele>552</ele>
        <time>2021-06-01T06:37:22.000Z</time>
      </trkpt>
      <trkpt lat="44.14948" lon="5.87712">
        <ele>552</ele>
        <time>2021-06-01T06:37:23.000Z</time>
      </trkpt>
      <trkpt lat="44.14948" lon="5.87712">
        <ele>552</ele>
        <time>2021-06-01T06:37:24.000Z</time>
      </trkpt>
      <trkpt lat="44.14948" lon="5.87712">
        <ele>552</ele>
        <time>2021-06-01T06:37:25.000Z</time>
      </trkpt>
      <trkpt lat="44.14948" lon="5.87712">
        <ele>552</ele>
        <time>2021-06-01T06:37:26.000Z</time>
      </trkpt>
      <trkpt lat="44.14948" lon="5.87712">
        <ele>552</ele>
        <time>2021-06-01T06:37:27.000Z</time>
      </trkpt>
      <trkpt lat="44.14948" lon="5.87712">
        <ele>552</ele>
        <time>2021-06-01T06:37:28.000Z</time>
      </trkpt>
      <trkpt lat="44.14948" lon="5.87712">
        <ele>552</ele>
        <time>2021-06-01T06:37:29.000Z</time>
      </trkpt>
      <trkpt lat="44.14948" lon="5.87712">
        <ele>552</ele>
        <time>2021-06-01T06:37:30.000Z</time>
      </trkpt>
      <trkpt lat="44.14948" lon="5.87712">
        <ele>552</ele>
        <time>2021-06-01T06:37:31.000Z</time>
      </trkpt>
      <trkpt lat="44.14948" lon="5.87712">
        <ele>552</ele>
        <time>2021-06-01T06:37:32.000Z</time>
      </trkpt>
      <trkpt lat="44.14948" lon="5.87711">
        <ele>552</ele>
        <time>2021-06-01T06:37:33.000Z</time>
      </trkpt>
      <trkpt lat="44.14948" lon="5.87711">
        <ele>552</ele>
        <time>2021-06-01T06:37:34.000Z</time>
      </trkpt>
      <trkpt lat="44.14948" lon="5.87711">
        <ele>552</ele>
        <time>2021-06-01T06:37:35.000Z</time>
      </trkpt>
      <trkpt lat="44.14948" lon="5.87711">
        <ele>552</ele>
        <time>2021-06-01T06:37:36.000Z</time>
      </trkpt>
      <trkpt lat="44.14948" lon="5.87711">
        <ele>552</ele>
        <time>2021-06-01T06:37:37.000Z</time>
      </trkpt>
      <trkpt lat="44.14948" lon="5.87711">
        <ele>552</ele>
        <time>2021-06-01T06:37:38.000Z</time>
      </trkpt>
      <trkpt lat="44.14947" lon="5.87711">
        <ele>552</ele>
        <time>2021-06-01T06:37:39.000Z</time>
      </trkpt>
      <trkpt lat="44.14947" lon="5.87711">
        <ele>552</ele>
        <time>2021-06-01T06:37:40.000Z</time>
      </trkpt>
      <trkpt lat="44.14947" lon="5.87711">
        <ele>552</ele>
        <time>2021-06-01T06:37:41.000Z</time>
      </trkpt>
      <trkpt lat="44.14947" lon="5.87711">
        <ele>552</ele>
        <time>2021-06-01T06:37:42.000Z</time>
      </trkpt>
      <trkpt lat="44.14947" lon="5.87711">
        <ele>552</ele>
        <time>2021-06-01T06:37:43.000Z</time>
      </trkpt>
      <trkpt lat="44.14947" lon="5.87711">
        <ele>552</ele>
        <time>2021-06-01T06:37:44.000Z</time>
      </trkpt>
      <trkpt lat="44.14947" lon="5.87711">
        <ele>552</ele>
        <time>2021-06-01T06:37:45.000Z</time>
      </trkpt>
      <trkpt lat="44.14947" lon="5.87711">
        <ele>552</ele>
        <time>2021-06-01T06:37:46.000Z</time>
      </trkpt>
      <trkpt lat="44.14947" lon="5.87711">
        <ele>552</ele>
        <time>2021-06-01T06:37:47.000Z</time>
      </trkpt>
      <trkpt lat="44.14947" lon="5.8771">
        <ele>552</ele>
        <time>2021-06-01T06:37:48.000Z</time>
      </trkpt>
      <trkpt lat="44.14947" lon="5.8771">
        <ele>552</ele>
        <time>2021-06-01T06:37:49.000Z</time>
      </trkpt>
      <trkpt lat="44.14947" lon="5.8771">
        <ele>552</ele>
        <time>2021-06-01T06:37:50.000Z</time>
      </trkpt>
      <trkpt lat="44.14947" lon="5.87709">
        <ele>552</ele>
        <time>2021-06-01T06:37:51.000Z</time>
      </trkpt>
      <trkpt lat="44.14946" lon="5.87709">
        <ele>552</ele>
        <time>2021-06-01T06:37:52.000Z</time>
      </trkpt>
      <trkpt lat="44.14946" lon="5.87708">
        <ele>551</ele>
        <time>2021-06-01T06:37:53.000Z</time>
      </trkpt>
      <trkpt lat="44.14946" lon="5.87708">
        <ele>551</ele>
        <time>2021-06-01T06:37:54.000Z</time>
      </trkpt>
      <trkpt lat="44.14945" lon="5.87707">
        <ele>551</ele>
        <time>2021-06-01T06:37:55.000Z</time>
      </trkpt>
      <trkpt lat="44.14945" lon="5.87707">
        <ele>551</ele>
        <time>2021-06-01T06:37:56.000Z</time>
      </trkpt>
      <trkpt lat="44.14945" lon="5.87707">
        <ele>551</ele>
        <time>2021-06-01T06:37:57.000Z</time>
      </trkpt>
      <trkpt lat="44.14945" lon="5.87707">
        <ele>551</ele>
        <time>2021-06-01T06:37:58.000Z</time>
      </trkpt>
      <trkpt lat="44.14945" lon="5.87707">
        <ele>551</ele>
        <time>2021-06-01T06:37:59.000Z</time>
      </trkpt>
      <trkpt lat="44.14945" lon="5.87707">
        <ele>551</ele>
        <time>2021-06-01T06:38:00.000Z</time>
      </trkpt>
      <trkpt lat="44.14945" lon="5.87707">
        <ele>551</ele>
        <time>2021-06-01T06:38:01.000Z</time>
      </trkpt>
      <trkpt lat="44.14945" lon="5.87707">
        <ele>551</ele>
        <time>2021-06-01T06:38:02.000Z</time>
      </trkpt>
      <trkpt lat="44.14945" lon="5.87707">
        <ele>551</ele>
        <time>2021-06-01T06:38:03.000Z</time>
      </trkpt>
      <trkpt lat="44.14945" lon="5.87707">
        <ele>551</ele>
        <time>2021-06-01T06:38:04.000Z</time>
      </trkpt>
      <trkpt lat="44.14945" lon="5.87707">
        <ele>551</ele>
        <time>2021-06-01T06:38:05.000Z</time>
      </trkpt>
      <trkpt lat="44.14945" lon="5.87707">
        <ele>551</ele>
        <time>2021-06-01T06:38:06.000Z</time>
      </trkpt>
      <trkpt lat="44.14945" lon="5.87707">
        <ele>551</ele>
        <time>2021-06-01T06:38:07.000Z</time>
      </trkpt>
      <trkpt lat="44.14945" lon="5.87707">
        <ele>551</ele>
        <time>2021-06-01T06:38:08.000Z</time>
      </trkpt>
      <trkpt lat="44.14945" lon="5.87707">
        <ele>551</ele>
        <time>2021-06-01T06:38:09.000Z</time>
      </trkpt>
      <trkpt lat="44.14945" lon="5.87707">
        <ele>551</ele>
        <time>2021-06-01T06:38:10.000Z</time>
      </trkpt>
      <trkpt lat="44.14945" lon="5.87707">
        <ele>551</ele>
        <time>2021-06-01T06:38:11.000Z</time>
      </trkpt>
      <trkpt lat="44.14945" lon="5.87707">
        <ele>551</ele>
        <time>2021-06-01T06:38:12.000Z</time>
      </trkpt>
      <trkpt lat="44.14945" lon="5.87707">
        <ele>550</ele>
        <time>2021-06-01T06:38:13.000Z</time>
      </trkpt>
      <trkpt lat="44.14945" lon="5.87707">
        <ele>550</ele>
        <time>2021-06-01T06:38:14.000Z</time>
      </trkpt>
      <trkpt lat="44.14945" lon="5.87707">
        <ele>550</ele>
        <time>2021-06-01T06:38:15.000Z</time>
      </trkpt>
      <trkpt lat="44.14945" lon="5.87707">
        <ele>550</ele>
        <time>2021-06-01T06:38:16.000Z</time>
      </trkpt>
      <trkpt lat="44.14945" lon="5.87707">
        <ele>550</ele>
        <time>2021-06-01T06:38:17.000Z</time>
      </trkpt>
      <trkpt lat="44.14945" lon="5.87707">
        <ele>550</ele>
        <time>2021-06-01T06:38:18.000Z</time>
      </trkpt>
      <trkpt lat="44.14945" lon="5.87707">
        <ele>550</ele>
        <time>2021-06-01T06:38:19.000Z</time>
      </trkpt>
      <trkpt lat="44.14945" lon="5.87706">
        <ele>550</ele>
        <time>2021-06-01T06:38:20.000Z</time>
      </trkpt>
      <trkpt lat="44.14945" lon="5.87706">
        <ele>550</ele>
        <time>2021-06-01T06:38:21.000Z</time>
      </trkpt>
      <trkpt lat="44.14945" lon="5.87706">
        <ele>550</ele>
        <time>2021-06-01T06:38:22.000Z</time>
      </trkpt>
      <trkpt lat="44.14945" lon="5.87706">
        <ele>550</ele>
        <time>2021-06-01T06:38:23.000Z</time>
      </trkpt>
      <trkpt lat="44.14945" lon="5.87706">
        <ele>550</ele>
        <time>2021-06-01T06:38:24.000Z</time>
      </trkpt>
      <trkpt lat="44.14945" lon="5.87707">
        <ele>550</ele>
        <time>2021-06-01T06:38:25.000Z</time>
      </trkpt>
      <trkpt lat="44.14945" lon="5.87707">
        <ele>550</ele>
        <time>2021-06-01T06:38:26.000Z</time>
      </trkpt>
      <trkpt lat="44.14945" lon="5.87707">
        <ele>550</ele>
        <time>2021-06-01T06:38:27.000Z</time>
      </trkpt>
      <trkpt lat="44.14946" lon="5.87707">
        <ele>550</ele>
        <time>2021-06-01T06:38:28.000Z</time>
      </trkpt>
      <trkpt lat="44.14946" lon="5.87707">
        <ele>550</ele>
        <time>2021-06-01T06:38:29.000Z</time>
      </trkpt>
      <trkpt lat="44.14946" lon="5.87707">
        <ele>550</ele>
        <time>2021-06-01T06:38:30.000Z</time>
      </trkpt>
      <trkpt lat="44.14946" lon="5.87707">
        <ele>550</ele>
        <time>2021-06-01T06:38:31.000Z</time>
      </trkpt>
      <trkpt lat="44.14946" lon="5.87706">
        <ele>550</ele>
        <time>2021-06-01T06:38:32.000Z</time>
      </trkpt>
      <trkpt lat="44.14946" lon="5.87707">
        <ele>550</ele>
        <time>2021-06-01T06:38:33.000Z</time>
      </trkpt>
      <trkpt lat="44.14946" lon="5.87707">
        <ele>550</ele>
        <time>2021-06-01T06:38:34.000Z</time>
      </trkpt>
      <trkpt lat="44.14947" lon="5.87707">
        <ele>550</ele>
        <time>2021-06-01T06:38:35.000Z</time>
      </trkpt>
      <trkpt lat="44.14947" lon="5.87707">
        <ele>550</ele>
        <time>2021-06-01T06:38:36.000Z</time>
      </trkpt>
      <trkpt lat="44.14947" lon="5.87707">
        <ele>550</ele>
        <time>2021-06-01T06:38:37.000Z</time>
      </trkpt>
      <trkpt lat="44.14948" lon="5.87707">
        <ele>549</ele>
        <time>2021-06-01T06:38:38.000Z</time>
      </trkpt>
      <trkpt lat="44.14948" lon="5.87708">
        <ele>549</ele>
        <time>2021-06-01T06:38:39.000Z</time>
      </trkpt>
      <trkpt lat="44.14948" lon="5.87708">
        <ele>549</ele>
        <time>2021-06-01T06:38:40.000Z</time>
      </trkpt>
      <trkpt lat="44.14949" lon="5.87707">
        <ele>549</ele>
        <time>2021-06-01T06:38:41.000Z</time>
      </trkpt>
      <trkpt lat="44.14949" lon="5.87707">
        <ele>549</ele>
        <time>2021-06-01T06:38:42.000Z</time>
      </trkpt>
      <trkpt lat="44.14949" lon="5.87707">
        <ele>549</ele>
        <time>2021-06-01T06:38:43.000Z</time>
      </trkpt>
      <trkpt lat="44.1495" lon="5.87708">
        <ele>549</ele>
        <time>2021-06-01T06:38:44.000Z</time>
      </trkpt>
      <trkpt lat="44.1495" lon="5.87708">
        <ele>549</ele>
        <time>2021-06-01T06:38:45.000Z</time>
      </trkpt>
      <trkpt lat="44.1495" lon="5.87707">
        <ele>549</ele>
        <time>2021-06-01T06:38:46.000Z</time>
      </trkpt>
      <trkpt lat="44.1495" lon="5.87707">
        <ele>549</ele>
        <time>2021-06-01T06:38:47.000Z</time>
      </trkpt>
      <trkpt lat="44.1495" lon="5.87707">
        <ele>549</ele>
        <time>2021-06-01T06:38:48.000Z</time>
      </trkpt>
      <trkpt lat="44.1495" lon="5.87707">
        <ele>549</ele>
        <time>2021-06-01T06:38:49.000Z</time>
      </trkpt>
      <trkpt lat="44.1495" lon="5.87707">
        <ele>549</ele>
        <time>2021-06-01T06:38:50.000Z</time>
      </trkpt>
      <trkpt lat="44.1495" lon="5.87707">
        <ele>549</ele>
        <time>2021-06-01T06:38:51.000Z</time>
      </trkpt>
      <trkpt lat="44.1495" lon="5.87707">
        <ele>549</ele>
        <time>2021-06-01T06:38:52.000Z</time>
      </trkpt>
      <trkpt lat="44.1495" lon="5.87707">
        <ele>549</ele>
        <time>2021-06-01T06:38:53.000Z</time>
      </trkpt>
      <trkpt lat="44.1495" lon="5.87707">
        <ele>549</ele>
        <time>2021-06-01T06:38:54.000Z</time>
      </trkpt>
      <trkpt lat="44.1495" lon="5.87707">
        <ele>549</ele>
        <time>2021-06-01T06:38:55.000Z</time>
      </trkpt>
      <trkpt lat="44.14951" lon="5.87706">
        <ele>549</ele>
        <time>2021-06-01T06:38:56.000Z</time>
      </trkpt>
      <trkpt lat="44.14951" lon="5.87706">
        <ele>549</ele>
        <time>2021-06-01T06:38:57.000Z</time>
      </trkpt>
      <trkpt lat="44.14951" lon="5.87706">
        <ele>549</ele>
        <time>2021-06-01T06:38:58.000Z</time>
      </trkpt>
      <trkpt lat="44.14951" lon="5.87706">
        <ele>549</ele>
        <time>2021-06-01T06:38:59.000Z</time>
      </trkpt>
      <trkpt lat="44.14951" lon="5.87706">
        <ele>549</ele>
        <time>2021-06-01T06:39:00.000Z</time>
      </trkpt>
      <trkpt lat="44.1495" lon="5.87706">
        <ele>549</ele>
        <time>2021-06-01T06:39:01.000Z</time>
      </trkpt>
      <trkpt lat="44.1495" lon="5.87706">
        <ele>549</ele>
        <time>2021-06-01T06:39:02.000Z</time>
      </trkpt>
      <trkpt lat="44.1495" lon="5.87706">
        <ele>549</ele>
        <time>2021-06-01T06:39:03.000Z</time>
      </trkpt>
      <trkpt lat="44.1495" lon="5.87706">
        <ele>549</ele>
        <time>2021-06-01T06:39:04.000Z</time>
      </trkpt>
      <trkpt lat="44.1495" lon="5.87706">
        <ele>549</ele>
        <time>2021-06-01T06:39:05.000Z</time>
      </trkpt>
      <trkpt lat="44.1495" lon="5.87706">
        <ele>549</ele>
        <time>2021-06-01T06:39:06.000Z</time>
      </trkpt>
      <trkpt lat="44.1495" lon="5.87706">
        <ele>549</ele>
        <time>2021-06-01T06:39:07.000Z</time>
      </trkpt>
      <trkpt lat="44.1495" lon="5.87706">
        <ele>549</ele>
        <time>2021-06-01T06:39:08.000Z</time>
      </trkpt>
      <trkpt lat="44.1495" lon="5.87706">
        <ele>549</ele>
        <time>2021-06-01T06:39:09.000Z</time>
      </trkpt>
      <trkpt lat="44.1495" lon="5.87706">
        <ele>549</ele>
        <time>2021-06-01T06:39:10.000Z</time>
      </trkpt>
      <trkpt lat="44.1495" lon="5.87706">
        <ele>549</ele>
        <time>2021-06-01T06:39:11.000Z</time>
      </trkpt>
      <trkpt lat="44.1495" lon="5.87706">
        <ele>549</ele>
        <time>2021-06-01T06:39:12.000Z</time>
      </trkpt>
      <trkpt lat="44.1495" lon="5.87706">
        <ele>549</ele>
        <time>2021-06-01T06:39:13.000Z</time>
      </trkpt>
      <trkpt lat="44.1495" lon="5.87706">
        <ele>549</ele>
        <time>2021-06-01T06:39:14.000Z</time>
      </trkpt>
      <trkpt lat="44.1495" lon="5.87706">
        <ele>549</ele>
        <time>2021-06-01T06:39:15.000Z</time>
      </trkpt>
      <trkpt lat="44.1495" lon="5.87706">
        <ele>549</ele>
        <time>2021-06-01T06:39:16.000Z</time>
      </trkpt>
      <trkpt lat="44.14951" lon="5.87706">
        <ele>549</ele>
        <time>2021-06-01T06:39:17.000Z</time>
      </trkpt>
      <trkpt lat="44.14951" lon="5.87706">
        <ele>549</ele>
        <time>2021-06-01T06:39:18.000Z</time>
      </trkpt>
      <trkpt lat="44.14951" lon="5.87707">
        <ele>549</ele>
        <time>2021-06-01T06:39:19.000Z</time>
      </trkpt>
      <trkpt lat="44.14951" lon="5.87707">
        <ele>549</ele>
        <time>2021-06-01T06:39:20.000Z</time>
      </trkpt>
      <trkpt lat="44.14952" lon="5.87707">
        <ele>549</ele>
        <time>2021-06-01T06:39:21.000Z</time>
      </trkpt>
      <trkpt lat="44.14952" lon="5.87707">
        <ele>549</ele>
        <time>2021-06-01T06:39:22.000Z</time>
      </trkpt>
      <trkpt lat="44.14953" lon="5.87707">
        <ele>549</ele>
        <time>2021-06-01T06:39:23.000Z</time>
      </trkpt>
      <trkpt lat="44.14954" lon="5.87707">
        <ele>549</ele>
        <time>2021-06-01T06:39:24.000Z</time>
      </trkpt>
      <trkpt lat="44.14955" lon="5.87708">
        <ele>549</ele>
        <time>2021-06-01T06:39:25.000Z</time>
      </trkpt>
      <trkpt lat="44.14956" lon="5.87708">
        <ele>549</ele>
        <time>2021-06-01T06:39:26.000Z</time>
      </trkpt>
      <trkpt lat="44.14957" lon="5.87709">
        <ele>549</ele>
        <time>2021-06-01T06:39:27.000Z</time>
      </trkpt>
      <trkpt lat="44.14958" lon="5.87709">
        <ele>549</ele>
        <time>2021-06-01T06:39:28.000Z</time>
      </trkpt>
      <trkpt lat="44.14959" lon="5.8771">
        <ele>549</ele>
        <time>2021-06-01T06:39:29.000Z</time>
      </trkpt>
      <trkpt lat="44.1496" lon="5.87711">
        <ele>549</ele>
        <time>2021-06-01T06:39:30.000Z</time>
      </trkpt>
      <trkpt lat="44.14961" lon="5.87713">
        <ele>549</ele>
        <time>2021-06-01T06:39:31.000Z</time>
      </trkpt>
      <trkpt lat="44.14962" lon="5.87714">
        <ele>549</ele>
        <time>2021-06-01T06:39:32.000Z</time>
      </trkpt>
      <trkpt lat="44.14962" lon="5.87715">
        <ele>549</ele>
        <time>2021-06-01T06:39:33.000Z</time>
      </trkpt>
      <trkpt lat="44.14961" lon="5.87717">
        <ele>549</ele>
        <time>2021-06-01T06:39:34.000Z</time>
      </trkpt>
      <trkpt lat="44.14961" lon="5.87718">
        <ele>549</ele>
        <time>2021-06-01T06:39:35.000Z</time>
      </trkpt>
      <trkpt lat="44.14961" lon="5.87719">
        <ele>549</ele>
        <time>2021-06-01T06:39:36.000Z</time>
      </trkpt>
      <trkpt lat="44.1496" lon="5.8772">
        <ele>550</ele>
        <time>2021-06-01T06:39:37.000Z</time>
      </trkpt>
      <trkpt lat="44.14959" lon="5.87721">
        <ele>550</ele>
        <time>2021-06-01T06:39:38.000Z</time>
      </trkpt>
      <trkpt lat="44.14958" lon="5.87722">
        <ele>550</ele>
        <time>2021-06-01T06:39:39.000Z</time>
      </trkpt>
      <trkpt lat="44.14957" lon="5.87724">
        <ele>550</ele>
        <time>2021-06-01T06:39:40.000Z</time>
      </trkpt>
      <trkpt lat="44.14957" lon="5.87725">
        <ele>550</ele>
        <time>2021-06-01T06:39:41.000Z</time>
      </trkpt>
      <trkpt lat="44.14956" lon="5.87726">
        <ele>550</ele>
        <time>2021-06-01T06:39:42.000Z</time>
      </trkpt>
      <trkpt lat="44.14955" lon="5.87727">
        <ele>550</ele>
        <time>2021-06-01T06:39:43.000Z</time>
      </trkpt>
      <trkpt lat="44.14955" lon="5.87728">
        <ele>550</ele>
        <time>2021-06-01T06:39:44.000Z</time>
      </trkpt>
      <trkpt lat="44.14954" lon="5.87729">
        <ele>550</ele>
        <time>2021-06-01T06:39:45.000Z</time>
      </trkpt>
      <trkpt lat="44.14953" lon="5.87729">
        <ele>550</ele>
        <time>2021-06-01T06:39:46.000Z</time>
      </trkpt>
      <trkpt lat="44.14953" lon="5.87731">
        <ele>550</ele>
        <time>2021-06-01T06:39:47.000Z</time>
      </trkpt>
      <trkpt lat="44.14952" lon="5.87732">
        <ele>550</ele>
        <time>2021-06-01T06:39:48.000Z</time>
      </trkpt>
      <trkpt lat="44.14951" lon="5.87733">
        <ele>550</ele>
        <time>2021-06-01T06:39:49.000Z</time>
      </trkpt>
      <trkpt lat="44.1495" lon="5.87733">
        <ele>550</ele>
        <time>2021-06-01T06:39:50.000Z</time>
      </trkpt>
      <trkpt lat="44.1495" lon="5.87734">
        <ele>550</ele>
        <time>2021-06-01T06:39:51.000Z</time>
      </trkpt>
      <trkpt lat="44.14949" lon="5.87735">
        <ele>550</ele>
        <time>2021-06-01T06:39:52.000Z</time>
      </trkpt>
      <trkpt lat="44.14948" lon="5.87736">
        <ele>550</ele>
        <time>2021-06-01T06:39:53.000Z</time>
      </trkpt>
      <trkpt lat="44.14948" lon="5.87738">
        <ele>550</ele>
        <time>2021-06-01T06:39:54.000Z</time>
      </trkpt>
      <trkpt lat="44.14947" lon="5.87739">
        <ele>550</ele>
        <time>2021-06-01T06:39:55.000Z</time>
      </trkpt>
      <trkpt lat="44.14946" lon="5.8774">
        <ele>550</ele>
        <time>2021-06-01T06:39:56.000Z</time>
      </trkpt>
      <trkpt lat="44.14946" lon="5.87741">
        <ele>550</ele>
        <time>2021-06-01T06:39:57.000Z</time>
      </trkpt>
      <trkpt lat="44.14945" lon="5.87742">
        <ele>551</ele>
        <time>2021-06-01T06:39:58.000Z</time>
      </trkpt>
      <trkpt lat="44.14945" lon="5.87743">
        <ele>551</ele>
        <time>2021-06-01T06:39:59.000Z</time>
      </trkpt>
      <trkpt lat="44.14944" lon="5.87744">
        <ele>551</ele>
        <time>2021-06-01T06:40:00.000Z</time>
      </trkpt>
      <trkpt lat="44.14943" lon="5.87745">
        <ele>551</ele>
        <time>2021-06-01T06:40:01.000Z</time>
      </trkpt>
      <trkpt lat="44.14943" lon="5.87747">
        <ele>551</ele>
        <time>2021-06-01T06:40:02.000Z</time>
      </trkpt>
      <trkpt lat="44.14942" lon="5.87748">
        <ele>551</ele>
        <time>2021-06-01T06:40:03.000Z</time>
      </trkpt>
      <trkpt lat="44.14941" lon="5.87749">
        <ele>551</ele>
        <time>2021-06-01T06:40:04.000Z</time>
      </trkpt>
      <trkpt lat="44.14941" lon="5.8775">
        <ele>551</ele>
        <time>2021-06-01T06:40:05.000Z</time>
      </trkpt>
      <trkpt lat="44.1494" lon="5.87751">
        <ele>551</ele>
        <time>2021-06-01T06:40:06.000Z</time>
      </trkpt>
      <trkpt lat="44.14939" lon="5.87752">
        <ele>551</ele>
        <time>2021-06-01T06:40:07.000Z</time>
      </trkpt>
      <trkpt lat="44.14938" lon="5.87754">
        <ele>551</ele>
        <time>2021-06-01T06:40:08.000Z</time>
      </trkpt>
      <trkpt lat="44.14938" lon="5.87755">
        <ele>552</ele>
        <time>2021-06-01T06:40:09.000Z</time>
      </trkpt>
      <trkpt lat="44.14937" lon="5.87756">
        <ele>552</ele>
        <time>2021-06-01T06:40:10.000Z</time>
      </trkpt>
      <trkpt lat="44.14936" lon="5.87757">
        <ele>552</ele>
        <time>2021-06-01T06:40:11.000Z</time>
      </trkpt>
      <trkpt lat="44.14936" lon="5.87758">
        <ele>552</ele>
        <time>2021-06-01T06:40:12.000Z</time>
      </trkpt>
      <trkpt lat="44.14935" lon="5.8776">
        <ele>552</ele>
        <time>2021-06-01T06:40:13.000Z</time>
      </trkpt>
      <trkpt lat="44.14934" lon="5.87761">
        <ele>552</ele>
        <time>2021-06-01T06:40:14.000Z</time>
      </trkpt>
      <trkpt lat="44.14933" lon="5.87762">
        <ele>552</ele>
        <time>2021-06-01T06:40:15.000Z</time>
      </trkpt>
      <trkpt lat="44.14933" lon="5.87763">
        <ele>552</ele>
        <time>2021-06-01T06:40:16.000Z</time>
      </trkpt>
      <trkpt lat="44.14932" lon="5.87764">
        <ele>552</ele>
        <time>2021-06-01T06:40:17.000Z</time>
      </trkpt>
      <trkpt lat="44.14931" lon="5.87765">
        <ele>552</ele>
        <time>2021-06-01T06:40:18.000Z</time>
      </trkpt>
      <trkpt lat="44.14931" lon="5.87767">
        <ele>552</ele>
        <time>2021-06-01T06:40:19.000Z</time>
      </trkpt>
      <trkpt lat="44.1493" lon="5.87768">
        <ele>552</ele>
        <time>2021-06-01T06:40:20.000Z</time>
      </trkpt>
      <trkpt lat="44.14929" lon="5.87769">
        <ele>553</ele>
        <time>2021-06-01T06:40:21.000Z</time>
      </trkpt>
      <trkpt lat="44.14929" lon="5.8777">
        <ele>553</ele>
        <time>2021-06-01T06:40:22.000Z</time>
      </trkpt>
      <trkpt lat="44.14928" lon="5.87771">
        <ele>553</ele>
        <time>2021-06-01T06:40:23.000Z</time>
      </trkpt>
      <trkpt lat="44.14927" lon="5.87773">
        <ele>553</ele>
        <time>2021-06-01T06:40:24.000Z</time>
      </trkpt>
      <trkpt lat="44.14927" lon="5.87774">
        <ele>553</ele>
        <time>2021-06-01T06:40:25.000Z</time>
      </trkpt>
      <trkpt lat="44.14926" lon="5.87775">
        <ele>553</ele>
        <time>2021-06-01T06:40:26.000Z</time>
      </trkpt>
      <trkpt lat="44.14925" lon="5.87776">
        <ele>553</ele>
        <time>2021-06-01T06:40:27.000Z</time>
      </trkpt>
      <trkpt lat="44.14925" lon="5.87777">
        <ele>553</ele>
        <time>2021-06-01T06:40:28.000Z</time>
      </trkpt>
      <trkpt lat="44.14924" lon="5.87778">
        <ele>553</ele>
        <time>2021-06-01T06:40:29.000Z</time>
      </trkpt>
      <trkpt lat="44.14924" lon="5.87779">
        <ele>553</ele>
        <time>2021-06-01T06:40:30.000Z</time>
      </trkpt>
      <trkpt lat="44.14923" lon="5.87779">
        <ele>553</ele>
        <time>2021-06-01T06:40:31.000Z</time>
      </trkpt>
      <trkpt lat="44.14923" lon="5.87779">
        <ele>553</ele>
        <time>2021-06-01T06:40:32.000Z</time>
      </trkpt>
      <trkpt lat="44.14923" lon="5.8778">
        <ele>553</ele>
        <time>2021-06-01T06:40:33.000Z</time>
      </trkpt>
      <trkpt lat="44.14923" lon="5.8778">
        <ele>553</ele>
        <time>2021-06-01T06:40:34.000Z</time>
      </trkpt>
      <trkpt lat="44.14923" lon="5.8778">
        <ele>553</ele>
        <time>2021-06-01T06:40:35.000Z</time>
      </trkpt>
      <trkpt lat="44.14923" lon="5.8778">
        <ele>553</ele>
        <time>2021-06-01T06:40:36.000Z</time>
      </trkpt>
      <trkpt lat="44.14923" lon="5.8778">
        <ele>553</ele>
        <time>2021-06-01T06:40:37.000Z</time>
      </trkpt>
      <trkpt lat="44.14923" lon="5.8778">
        <ele>553</ele>
        <time>2021-06-01T06:40:38.000Z</time>
      </trkpt>
      <trkpt lat="44.14923" lon="5.8778">
        <ele>553</ele>
        <time>2021-06-01T06:40:39.000Z</time>
      </trkpt>
      <trkpt lat="44.14923" lon="5.8778">
        <ele>553</ele>
        <time>2021-06-01T06:40:40.000Z</time>
      </trkpt>
      <trkpt lat="44.14923" lon="5.8778">
        <ele>553</ele>
        <time>2021-06-01T06:40:41.000Z</time>
      </trkpt>
      <trkpt lat="44.14923" lon="5.8778">
        <ele>553</ele>
        <time>2021-06-01T06:40:42.000Z</time>
      </trkpt>
      <trkpt lat="44.14923" lon="5.87781">
        <ele>553</ele>
        <time>2021-06-01T06:40:43.000Z</time>
      </trkpt>
      <trkpt lat="44.14923" lon="5.87781">
        <ele>553</ele>
        <time>2021-06-01T06:40:44.000Z</time>
      </trkpt>
      <trkpt lat="44.14923" lon="5.87781">
        <ele>553</ele>
        <time>2021-06-01T06:40:45.000Z</time>
      </trkpt>
      <trkpt lat="44.14923" lon="5.87781">
        <ele>553</ele>
        <time>2021-06-01T06:40:46.000Z</time>
      </trkpt>
      <trkpt lat="44.14923" lon="5.87781">
        <ele>553</ele>
        <time>2021-06-01T06:40:47.000Z</time>
      </trkpt>
      <trkpt lat="44.14923" lon="5.87781">
        <ele>553</ele>
        <time>2021-06-01T06:40:48.000Z</time>
      </trkpt>
      <trkpt lat="44.14922" lon="5.87782">
        <ele>553</ele>
        <time>2021-06-01T06:40:49.000Z</time>
      </trkpt>
      <trkpt lat="44.14922" lon="5.87782">
        <ele>553</ele>
        <time>2021-06-01T06:40:50.000Z</time>
      </trkpt>
      <trkpt lat="44.14921" lon="5.87783">
        <ele>553</ele>
        <time>2021-06-01T06:40:51.000Z</time>
      </trkpt>
      <trkpt lat="44.1492" lon="5.87784">
        <ele>554</ele>
        <time>2021-06-01T06:40:52.000Z</time>
      </trkpt>
      <trkpt lat="44.1492" lon="5.87785">
        <ele>554</ele>
        <time>2021-06-01T06:40:53.000Z</time>
      </trkpt>
      <trkpt lat="44.14919" lon="5.87786">
        <ele>554</ele>
        <time>2021-06-01T06:40:54.000Z</time>
      </trkpt>
      <trkpt lat="44.14918" lon="5.87788">
        <ele>554</ele>
        <time>2021-06-01T06:40:55.000Z</time>
      </trkpt>
      <trkpt lat="44.14918" lon="5.87789">
        <ele>554</ele>
        <time>2021-06-01T06:40:56.000Z</time>
      </trkpt>
      <trkpt lat="44.14917" lon="5.8779">
        <ele>554</ele>
        <time>2021-06-01T06:40:57.000Z</time>
      </trkpt>
      <trkpt lat="44.14916" lon="5.87791">
        <ele>554</ele>
        <time>2021-06-01T06:40:58.000Z</time>
      </trkpt>
      <trkpt lat="44.14916" lon="5.87792">
        <ele>554</ele>
        <time>2021-06-01T06:40:59.000Z</time>
      </trkpt>
      <trkpt lat="44.14915" lon="5.87793">
        <ele>554</ele>
        <time>2021-06-01T06:41:00.000Z</time>
      </trkpt>
      <trkpt lat="44.14914" lon="5.87794">
        <ele>554</ele>
        <time>2021-06-01T06:41:01.000Z</time>
      </trkpt>
      <trkpt lat="44.14914" lon="5.87795">
        <ele>555</ele>
        <time>2021-06-01T06:41:02.000Z</time>
      </trkpt>
      <trkpt lat="44.14913" lon="5.87796">
        <ele>555</ele>
        <time>2021-06-01T06:41:03.000Z</time>
      </trkpt>
      <trkpt lat="44.14912" lon="5.87797">
        <ele>555</ele>
        <time>2021-06-01T06:41:04.000Z</time>
      </trkpt>
      <trkpt lat="44.14912" lon="5.87798">
        <ele>555</ele>
        <time>2021-06-01T06:41:05.000Z</time>
      </trkpt>
      <trkpt lat="44.14911" lon="5.87799">
        <ele>555</ele>
        <time>2021-06-01T06:41:06.000Z</time>
      </trkpt>
      <trkpt lat="44.1491" lon="5.878">
        <ele>555</ele>
        <time>2021-06-01T06:41:07.000Z</time>
      </trkpt>
      <trkpt lat="44.1491" lon="5.87802">
        <ele>555</ele>
        <time>2021-06-01T06:41:08.000Z</time>
      </trkpt>
      <trkpt lat="44.14909" lon="5.87803">
        <ele>555</ele>
        <time>2021-06-01T06:41:09.000Z</time>
      </trkpt>
      <trkpt lat="44.14908" lon="5.87804">
        <ele>555</ele>
        <time>2021-06-01T06:41:10.000Z</time>
      </trkpt>
      <trkpt lat="44.14907" lon="5.87805">
        <ele>556</ele>
        <time>2021-06-01T06:41:11.000Z</time>
      </trkpt>
      <trkpt lat="44.14907" lon="5.87806">
        <ele>556</ele>
        <time>2021-06-01T06:41:12.000Z</time>
      </trkpt>
      <trkpt lat="44.14906" lon="5.87807">
        <ele>556</ele>
        <time>2021-06-01T06:41:13.000Z</time>
      </trkpt>
      <trkpt lat="44.14905" lon="5.87808">
        <ele>556</ele>
        <time>2021-06-01T06:41:14.000Z</time>
      </trkpt>
      <trkpt lat="44.14905" lon="5.87809">
        <ele>556</ele>
        <time>2021-06-01T06:41:15.000Z</time>
      </trkpt>
      <trkpt lat="44.14904" lon="5.8781">
        <ele>556</ele>
        <time>2021-06-01T06:41:16.000Z</time>
      </trkpt>
      <trkpt lat="44.14903" lon="5.87811">
        <ele>556</ele>
        <time>2021-06-01T06:41:17.000Z</time>
      </trkpt>
      <trkpt lat="44.14903" lon="5.87812">
        <ele>556</ele>
        <time>2021-06-01T06:41:18.000Z</time>
      </trkpt>
      <trkpt lat="44.14902" lon="5.87813">
        <ele>556</ele>
        <time>2021-06-01T06:41:19.000Z</time>
      </trkpt>
      <trkpt lat="44.14901" lon="5.87814">
        <ele>556</ele>
        <time>2021-06-01T06:41:20.000Z</time>
      </trkpt>
      <trkpt lat="44.14901" lon="5.87815">
        <ele>556</ele>
        <time>2021-06-01T06:41:21.000Z</time>
      </trkpt>
      <trkpt lat="44.149" lon="5.87816">
        <ele>556</ele>
        <time>2021-06-01T06:41:22.000Z</time>
      </trkpt>
      <trkpt lat="44.14899" lon="5.87817">
        <ele>556</ele>
        <time>2021-06-01T06:41:23.000Z</time>
      </trkpt>
      <trkpt lat="44.14899" lon="5.87818">
        <ele>556</ele>
        <time>2021-06-01T06:41:24.000Z</time>
      </trkpt>
      <trkpt lat="44.14898" lon="5.87819">
        <ele>556</ele>
        <time>2021-06-01T06:41:25.000Z</time>
      </trkpt>
      <trkpt lat="44.14897" lon="5.8782">
        <ele>556</ele>
        <time>2021-06-01T06:41:26.000Z</time>
      </trkpt>
      <trkpt lat="44.14896" lon="5.87821">
        <ele>556</ele>
        <time>2021-06-01T06:41:27.000Z</time>
      </trkpt>
      <trkpt lat="44.14896" lon="5.87823">
        <ele>556</ele>
        <time>2021-06-01T06:41:28.000Z</time>
      </trkpt>
      <trkpt lat="44.14895" lon="5.87824">
        <ele>556</ele>
        <time>2021-06-01T06:41:29.000Z</time>
      </trkpt>
      <trkpt lat="44.14894" lon="5.87825">
        <ele>556</ele>
        <time>2021-06-01T06:41:30.000Z</time>
      </trkpt>
      <trkpt lat="44.14894" lon="5.87826">
        <ele>556</ele>
        <time>2021-06-01T06:41:31.000Z</time>
      </trkpt>
      <trkpt lat="44.14893" lon="5.87827">
        <ele>556</ele>
        <time>2021-06-01T06:41:32.000Z</time>
      </trkpt>
      <trkpt lat="44.14892" lon="5.87828">
        <ele>557</ele>
        <time>2021-06-01T06:41:33.000Z</time>
      </trkpt>
      <trkpt lat="44.14891" lon="5.87829">
        <ele>557</ele>
        <time>2021-06-01T06:41:34.000Z</time>
      </trkpt>
      <trkpt lat="44.14891" lon="5.87831">
        <ele>557</ele>
        <time>2021-06-01T06:41:35.000Z</time>
      </trkpt>
      <trkpt lat="44.1489" lon="5.87832">
        <ele>557</ele>
        <time>2021-06-01T06:41:36.000Z</time>
      </trkpt>
      <trkpt lat="44.14889" lon="5.87833">
        <ele>557</ele>
        <time>2021-06-01T06:41:37.000Z</time>
      </trkpt>
      <trkpt lat="44.14889" lon="5.87834">
        <ele>557</ele>
        <time>2021-06-01T06:41:38.000Z</time>
      </trkpt>
      <trkpt lat="44.14888" lon="5.87835">
        <ele>557</ele>
        <time>2021-06-01T06:41:39.000Z</time>
      </trkpt>
      <trkpt lat="44.14887" lon="5.87836">
        <ele>557</ele>
        <time>2021-06-01T06:41:40.000Z</time>
      </trkpt>
      <trkpt lat="44.14886" lon="5.87837">
        <ele>557</ele>
        <time>2021-06-01T06:41:41.000Z</time>
      </trkpt>
      <trkpt lat="44.14886" lon="5.87839">
        <ele>557</ele>
        <time>2021-06-01T06:41:42.000Z</time>
      </trkpt>
      <trkpt lat="44.14885" lon="5.8784">
        <ele>557</ele>
        <time>2021-06-01T06:41:43.000Z</time>
      </trkpt>
      <trkpt lat="44.14884" lon="5.87841">
        <ele>557</ele>
        <time>2021-06-01T06:41:44.000Z</time>
      </trkpt>
      <trkpt lat="44.14884" lon="5.87842">
        <ele>557</ele>
        <time>2021-06-01T06:41:45.000Z</time>
      </trkpt>
      <trkpt lat="44.14883" lon="5.87843">
        <ele>557</ele>
        <time>2021-06-01T06:41:46.000Z</time>
      </trkpt>
      <trkpt lat="44.14882" lon="5.87844">
        <ele>557</ele>
        <time>2021-06-01T06:41:47.000Z</time>
      </trkpt>
      <trkpt lat="44.14882" lon="5.87845">
        <ele>557</ele>
        <time>2021-06-01T06:41:48.000Z</time>
      </trkpt>
      <trkpt lat="44.14881" lon="5.87847">
        <ele>557</ele>
        <time>2021-06-01T06:41:49.000Z</time>
      </trkpt>
      <trkpt lat="44.1488" lon="5.87848">
        <ele>557</ele>
        <time>2021-06-01T06:41:50.000Z</time>
      </trkpt>
      <trkpt lat="44.1488" lon="5.87849">
        <ele>557</ele>
        <time>2021-06-01T06:41:51.000Z</time>
      </trkpt>
      <trkpt lat="44.14879" lon="5.8785">
        <ele>557</ele>
        <time>2021-06-01T06:41:52.000Z</time>
      </trkpt>
      <trkpt lat="44.14878" lon="5.87851">
        <ele>557</ele>
        <time>2021-06-01T06:41:53.000Z</time>
      </trkpt>
      <trkpt lat="44.14878" lon="5.87852">
        <ele>557</ele>
        <time>2021-06-01T06:41:54.000Z</time>
      </trkpt>
      <trkpt lat="44.14877" lon="5.87853">
        <ele>558</ele>
        <time>2021-06-01T06:41:55.000Z</time>
      </trkpt>
      <trkpt lat="44.14877" lon="5.87854">
        <ele>558</ele>
        <time>2021-06-01T06:41:56.000Z</time>
      </trkpt>
      <trkpt lat="44.14876" lon="5.87855">
        <ele>558</ele>
        <time>2021-06-01T06:41:57.000Z</time>
      </trkpt>
      <trkpt lat="44.14876" lon="5.87857">
        <ele>558</ele>
        <time>2021-06-01T06:41:58.000Z</time>
      </trkpt>
      <trkpt lat="44.14875" lon="5.87857">
        <ele>558</ele>
        <time>2021-06-01T06:41:59.000Z</time>
      </trkpt>
      <trkpt lat="44.14875" lon="5.87858">
        <ele>558</ele>
        <time>2021-06-01T06:42:00.000Z</time>
      </trkpt>
      <trkpt lat="44.14874" lon="5.8786">
        <ele>558</ele>
        <time>2021-06-01T06:42:01.000Z</time>
      </trkpt>
      <trkpt lat="44.14874" lon="5.87861">
        <ele>558</ele>
        <time>2021-06-01T06:42:02.000Z</time>
      </trkpt>
      <trkpt lat="44.14873" lon="5.87862">
        <ele>558</ele>
        <time>2021-06-01T06:42:03.000Z</time>
      </trkpt>
      <trkpt lat="44.14872" lon="5.87863">
        <ele>558</ele>
        <time>2021-06-01T06:42:04.000Z</time>
      </trkpt>
      <trkpt lat="44.14872" lon="5.87864">
        <ele>558</ele>
        <time>2021-06-01T06:42:05.000Z</time>
      </trkpt>
      <trkpt lat="44.14871" lon="5.87865">
        <ele>558</ele>
        <time>2021-06-01T06:42:06.000Z</time>
      </trkpt>
      <trkpt lat="44.14871" lon="5.87866">
        <ele>558</ele>
        <time>2021-06-01T06:42:07.000Z</time>
      </trkpt>
      <trkpt lat="44.1487" lon="5.87867">
        <ele>558</ele>
        <time>2021-06-01T06:42:08.000Z</time>
      </trkpt>
      <trkpt lat="44.14869" lon="5.87868">
        <ele>558</ele>
        <time>2021-06-01T06:42:09.000Z</time>
      </trkpt>
      <trkpt lat="44.14869" lon="5.87869">
        <ele>558</ele>
        <time>2021-06-01T06:42:10.000Z</time>
      </trkpt>
      <trkpt lat="44.14868" lon="5.8787">
        <ele>558</ele>
        <time>2021-06-01T06:42:11.000Z</time>
      </trkpt>
      <trkpt lat="44.14868" lon="5.87871">
        <ele>558</ele>
        <time>2021-06-01T06:42:12.000Z</time>
      </trkpt>
      <trkpt lat="44.14867" lon="5.87872">
        <ele>558</ele>
        <time>2021-06-01T06:42:13.000Z</time>
      </trkpt>
      <trkpt lat="44.14866" lon="5.87873">
        <ele>558</ele>
        <time>2021-06-01T06:42:14.000Z</time>
      </trkpt>
      <trkpt lat="44.14866" lon="5.87875">
        <ele>558</ele>
        <time>2021-06-01T06:42:15.000Z</time>
      </trkpt>
      <trkpt lat="44.14865" lon="5.87876">
        <ele>558</ele>
        <time>2021-06-01T06:42:16.000Z</time>
      </trkpt>
      <trkpt lat="44.14865" lon="5.87877">
        <ele>558</ele>
        <time>2021-06-01T06:42:17.000Z</time>
      </trkpt>
      <trkpt lat="44.14864" lon="5.87878">
        <ele>558</ele>
        <time>2021-06-01T06:42:18.000Z</time>
      </trkpt>
      <trkpt lat="44.14864" lon="5.87879">
        <ele>558</ele>
        <time>2021-06-01T06:42:19.000Z</time>
      </trkpt>
      <trkpt lat="44.14863" lon="5.87881">
        <ele>558</ele>
        <time>2021-06-01T06:42:20.000Z</time>
      </trkpt>
      <trkpt lat="44.14862" lon="5.87882">
        <ele>558</ele>
        <time>2021-06-01T06:42:21.000Z</time>
      </trkpt>
      <trkpt lat="44.14862" lon="5.87883">
        <ele>558</ele>
        <time>2021-06-01T06:42:22.000Z</time>
      </trkpt>
      <trkpt lat="44.14861" lon="5.87884">
        <ele>558</ele>
        <time>2021-06-01T06:42:23.000Z</time>
      </trkpt>
      <trkpt lat="44.14861" lon="5.87886">
        <ele>558</ele>
        <time>2021-06-01T06:42:24.000Z</time>
      </trkpt>
      <trkpt lat="44.1486" lon="5.87887">
        <ele>559</ele>
        <time>2021-06-01T06:42:25.000Z</time>
      </trkpt>
      <trkpt lat="44.1486" lon="5.87888">
        <ele>559</ele>
        <time>2021-06-01T06:42:26.000Z</time>
      </trkpt>
      <trkpt lat="44.14859" lon="5.87889">
        <ele>559</ele>
        <time>2021-06-01T06:42:27.000Z</time>
      </trkpt>
      <trkpt lat="44.14859" lon="5.87891">
        <ele>559</ele>
        <time>2021-06-01T06:42:28.000Z</time>
      </trkpt>
      <trkpt lat="44.14858" lon="5.87891">
        <ele>559</ele>
        <time>2021-06-01T06:42:29.000Z</time>
      </trkpt>
      <trkpt lat="44.14858" lon="5.87892">
        <ele>559</ele>
        <time>2021-06-01T06:42:30.000Z</time>
      </trkpt>
      <trkpt lat="44.14858" lon="5.87892">
        <ele>559</ele>
        <time>2021-06-01T06:42:31.000Z</time>
      </trkpt>
      <trkpt lat="44.14858" lon="5.87892">
        <ele>559</ele>
        <time>2021-06-01T06:42:32.000Z</time>
      </trkpt>
      <trkpt lat="44.14858" lon="5.87892">
        <ele>559</ele>
        <time>2021-06-01T06:42:33.000Z</time>
      </trkpt>
      <trkpt lat="44.14858" lon="5.87892">
        <ele>559</ele>
        <time>2021-06-01T06:42:34.000Z</time>
      </trkpt>
      <trkpt lat="44.14858" lon="5.87892">
        <ele>558</ele>
        <time>2021-06-01T06:42:35.000Z</time>
      </trkpt>
      <trkpt lat="44.14858" lon="5.87892">
        <ele>558</ele>
        <time>2021-06-01T06:42:36.000Z</time>
      </trkpt>
      <trkpt lat="44.14858" lon="5.87893">
        <ele>558</ele>
        <time>2021-06-01T06:42:37.000Z</time>
      </trkpt>
      <trkpt lat="44.14857" lon="5.87895">
        <ele>558</ele>
        <time>2021-06-01T06:42:38.000Z</time>
      </trkpt>
      <trkpt lat="44.14857" lon="5.87896">
        <ele>558</ele>
        <time>2021-06-01T06:42:39.000Z</time>
      </trkpt>
      <trkpt lat="44.14856" lon="5.87897">
        <ele>558</ele>
        <time>2021-06-01T06:42:40.000Z</time>
      </trkpt>
      <trkpt lat="44.14856" lon="5.87898">
        <ele>558</ele>
        <time>2021-06-01T06:42:41.000Z</time>
      </trkpt>
      <trkpt lat="44.14855" lon="5.879">
        <ele>558</ele>
        <time>2021-06-01T06:42:42.000Z</time>
      </trkpt>
      <trkpt lat="44.14855" lon="5.87901">
        <ele>558</ele>
        <time>2021-06-01T06:42:43.000Z</time>
      </trkpt>
      <trkpt lat="44.14854" lon="5.87902">
        <ele>558</ele>
        <time>2021-06-01T06:42:44.000Z</time>
      </trkpt>
      <trkpt lat="44.14854" lon="5.87903">
        <ele>558</ele>
        <time>2021-06-01T06:42:45.000Z</time>
      </trkpt>
      <trkpt lat="44.14853" lon="5.87904">
        <ele>558</ele>
        <time>2021-06-01T06:42:46.000Z</time>
      </trkpt>
      <trkpt lat="44.14852" lon="5.87905">
        <ele>558</ele>
        <time>2021-06-01T06:42:47.000Z</time>
      </trkpt>
      <trkpt lat="44.14852" lon="5.87907">
        <ele>558</ele>
        <time>2021-06-01T06:42:48.000Z</time>
      </trkpt>
      <trkpt lat="44.14851" lon="5.87908">
        <ele>558</ele>
        <time>2021-06-01T06:42:49.000Z</time>
      </trkpt>
      <trkpt lat="44.1485" lon="5.87909">
        <ele>558</ele>
        <time>2021-06-01T06:42:50.000Z</time>
      </trkpt>
      <trkpt lat="44.1485" lon="5.8791">
        <ele>558</ele>
        <time>2021-06-01T06:42:51.000Z</time>
      </trkpt>
      <trkpt lat="44.14849" lon="5.87911">
        <ele>558</ele>
        <time>2021-06-01T06:42:52.000Z</time>
      </trkpt>
      <trkpt lat="44.14849" lon="5.87912">
        <ele>558</ele>
        <time>2021-06-01T06:42:53.000Z</time>
      </trkpt>
      <trkpt lat="44.14848" lon="5.87913">
        <ele>558</ele>
        <time>2021-06-01T06:42:54.000Z</time>
      </trkpt>
      <trkpt lat="44.14848" lon="5.87914">
        <ele>558</ele>
        <time>2021-06-01T06:42:55.000Z</time>
      </trkpt>
      <trkpt lat="44.14847" lon="5.87915">
        <ele>558</ele>
        <time>2021-06-01T06:42:56.000Z</time>
      </trkpt>
      <trkpt lat="44.14846" lon="5.87917">
        <ele>558</ele>
        <time>2021-06-01T06:42:57.000Z</time>
      </trkpt>
      <trkpt lat="44.14846" lon="5.87918">
        <ele>559</ele>
        <time>2021-06-01T06:42:58.000Z</time>
      </trkpt>
      <trkpt lat="44.14845" lon="5.87919">
        <ele>559</ele>
        <time>2021-06-01T06:42:59.000Z</time>
      </trkpt>
      <trkpt lat="44.14845" lon="5.8792">
        <ele>559</ele>
        <time>2021-06-01T06:43:00.000Z</time>
      </trkpt>
      <trkpt lat="44.14844" lon="5.87921">
        <ele>559</ele>
        <time>2021-06-01T06:43:01.000Z</time>
      </trkpt>
      <trkpt lat="44.14843" lon="5.87922">
        <ele>559</ele>
        <time>2021-06-01T06:43:02.000Z</time>
      </trkpt>
      <trkpt lat="44.14843" lon="5.87923">
        <ele>559</ele>
        <time>2021-06-01T06:43:03.000Z</time>
      </trkpt>
      <trkpt lat="44.14842" lon="5.87924">
        <ele>559</ele>
        <time>2021-06-01T06:43:04.000Z</time>
      </trkpt>
      <trkpt lat="44.14841" lon="5.87925">
        <ele>559</ele>
        <time>2021-06-01T06:43:05.000Z</time>
      </trkpt>
      <trkpt lat="44.14841" lon="5.87926">
        <ele>559</ele>
        <time>2021-06-01T06:43:06.000Z</time>
      </trkpt>
      <trkpt lat="44.1484" lon="5.87927">
        <ele>559</ele>
        <time>2021-06-01T06:43:07.000Z</time>
      </trkpt>
      <trkpt lat="44.1484" lon="5.87929">
        <ele>559</ele>
        <time>2021-06-01T06:43:08.000Z</time>
      </trkpt>
      <trkpt lat="44.14839" lon="5.8793">
        <ele>560</ele>
        <time>2021-06-01T06:43:09.000Z</time>
      </trkpt>
      <trkpt lat="44.14839" lon="5.87931">
        <ele>560</ele>
        <time>2021-06-01T06:43:10.000Z</time>
      </trkpt>
      <trkpt lat="44.14838" lon="5.87932">
        <ele>560</ele>
        <time>2021-06-01T06:43:11.000Z</time>
      </trkpt>
      <trkpt lat="44.14838" lon="5.87933">
        <ele>560</ele>
        <time>2021-06-01T06:43:12.000Z</time>
      </trkpt>
      <trkpt lat="44.14837" lon="5.87934">
        <ele>560</ele>
        <time>2021-06-01T06:43:13.000Z</time>
      </trkpt>
      <trkpt lat="44.14837" lon="5.87935">
        <ele>560</ele>
        <time>2021-06-01T06:43:14.000Z</time>
      </trkpt>
      <trkpt lat="44.14836" lon="5.87936">
        <ele>560</ele>
        <time>2021-06-01T06:43:15.000Z</time>
      </trkpt>
      <trkpt lat="44.14835" lon="5.87937">
        <ele>560</ele>
        <time>2021-06-01T06:43:16.000Z</time>
      </trkpt>
      <trkpt lat="44.14835" lon="5.87938">
        <ele>560</ele>
        <time>2021-06-01T06:43:17.000Z</time>
      </trkpt>
      <trkpt lat="44.14834" lon="5.87939">
        <ele>560</ele>
        <time>2021-06-01T06:43:18.000Z</time>
      </trkpt>
      <trkpt lat="44.14834" lon="5.87941">
        <ele>560</ele>
        <time>2021-06-01T06:43:19.000Z</time>
      </trkpt>
      <trkpt lat="44.14833" lon="5.87942">
        <ele>560</ele>
        <time>2021-06-01T06:43:20.000Z</time>
      </trkpt>
      <trkpt lat="44.14832" lon="5.87943">
        <ele>560</ele>
        <time>2021-06-01T06:43:21.000Z</time>
      </trkpt>
      <trkpt lat="44.14832" lon="5.87944">
        <ele>560</ele>
        <time>2021-06-01T06:43:22.000Z</time>
      </trkpt>
      <trkpt lat="44.14832" lon="5.87945">
        <ele>560</ele>
        <time>2021-06-01T06:43:23.000Z</time>
      </trkpt>
      <trkpt lat="44.14831" lon="5.87946">
        <ele>560</ele>
        <time>2021-06-01T06:43:24.000Z</time>
      </trkpt>
      <trkpt lat="44.14831" lon="5.87948">
        <ele>561</ele>
        <time>2021-06-01T06:43:25.000Z</time>
      </trkpt>
      <trkpt lat="44.1483" lon="5.87949">
        <ele>561</ele>
        <time>2021-06-01T06:43:26.000Z</time>
      </trkpt>
      <trkpt lat="44.14829" lon="5.8795">
        <ele>561</ele>
        <time>2021-06-01T06:43:27.000Z</time>
      </trkpt>
      <trkpt lat="44.14829" lon="5.87951">
        <ele>561</ele>
        <time>2021-06-01T06:43:28.000Z</time>
      </trkpt>
      <trkpt lat="44.14828" lon="5.87953">
        <ele>561</ele>
        <time>2021-06-01T06:43:29.000Z</time>
      </trkpt>
      <trkpt lat="44.14828" lon="5.87954">
        <ele>561</ele>
        <time>2021-06-01T06:43:30.000Z</time>
      </trkpt>
      <trkpt lat="44.14827" lon="5.87955">
        <ele>561</ele>
        <time>2021-06-01T06:43:31.000Z</time>
      </trkpt>
      <trkpt lat="44.14827" lon="5.87956">
        <ele>561</ele>
        <time>2021-06-01T06:43:32.000Z</time>
      </trkpt>
      <trkpt lat="44.14826" lon="5.87958">
        <ele>562</ele>
        <time>2021-06-01T06:43:33.000Z</time>
      </trkpt>
      <trkpt lat="44.14825" lon="5.87959">
        <ele>562</ele>
        <time>2021-06-01T06:43:34.000Z</time>
      </trkpt>
      <trkpt lat="44.14825" lon="5.8796">
        <ele>562</ele>
        <time>2021-06-01T06:43:35.000Z</time>
      </trkpt>
      <trkpt lat="44.14824" lon="5.87962">
        <ele>562</ele>
        <time>2021-06-01T06:43:36.000Z</time>
      </trkpt>
      <trkpt lat="44.14824" lon="5.87963">
        <ele>562</ele>
        <time>2021-06-01T06:43:37.000Z</time>
      </trkpt>
      <trkpt lat="44.14823" lon="5.87964">
        <ele>562</ele>
        <time>2021-06-01T06:43:38.000Z</time>
      </trkpt>
      <trkpt lat="44.14823" lon="5.87966">
        <ele>562</ele>
        <time>2021-06-01T06:43:39.000Z</time>
      </trkpt>
      <trkpt lat="44.14822" lon="5.87967">
        <ele>562</ele>
        <time>2021-06-01T06:43:40.000Z</time>
      </trkpt>
      <trkpt lat="44.14822" lon="5.87968">
        <ele>563</ele>
        <time>2021-06-01T06:43:41.000Z</time>
      </trkpt>
      <trkpt lat="44.14821" lon="5.87969">
        <ele>563</ele>
        <time>2021-06-01T06:43:42.000Z</time>
      </trkpt>
      <trkpt lat="44.14821" lon="5.87971">
        <ele>563</ele>
        <time>2021-06-01T06:43:43.000Z</time>
      </trkpt>
      <trkpt lat="44.1482" lon="5.87972">
        <ele>563</ele>
        <time>2021-06-01T06:43:44.000Z</time>
      </trkpt>
      <trkpt lat="44.1482" lon="5.87973">
        <ele>563</ele>
        <time>2021-06-01T06:43:45.000Z</time>
      </trkpt>
      <trkpt lat="44.14819" lon="5.87975">
        <ele>563</ele>
        <time>2021-06-01T06:43:46.000Z</time>
      </trkpt>
      <trkpt lat="44.14818" lon="5.87976">
        <ele>563</ele>
        <time>2021-06-01T06:43:47.000Z</time>
      </trkpt>
      <trkpt lat="44.14818" lon="5.87977">
        <ele>563</ele>
        <time>2021-06-01T06:43:48.000Z</time>
      </trkpt>
      <trkpt lat="44.14817" lon="5.87979">
        <ele>563</ele>
        <time>2021-06-01T06:43:49.000Z</time>
      </trkpt>
      <trkpt lat="44.14816" lon="5.8798">
        <ele>563</ele>
        <time>2021-06-01T06:43:50.000Z</time>
      </trkpt>
      <trkpt lat="44.14816" lon="5.87981">
        <ele>563</ele>
        <time>2021-06-01T06:43:51.000Z</time>
      </trkpt>
      <trkpt lat="44.14815" lon="5.87983">
        <ele>564</ele>
        <time>2021-06-01T06:43:52.000Z</time>
      </trkpt>
      <trkpt lat="44.14815" lon="5.87984">
        <ele>564</ele>
        <time>2021-06-01T06:43:53.000Z</time>
      </trkpt>
      <trkpt lat="44.14814" lon="5.87986">
        <ele>564</ele>
        <time>2021-06-01T06:43:54.000Z</time>
      </trkpt>
      <trkpt lat="44.14814" lon="5.87987">
        <ele>564</ele>
        <time>2021-06-01T06:43:55.000Z</time>
      </trkpt>
      <trkpt lat="44.14813" lon="5.87988">
        <ele>564</ele>
        <time>2021-06-01T06:43:56.000Z</time>
      </trkpt>
      <trkpt lat="44.14813" lon="5.87989">
        <ele>564</ele>
        <time>2021-06-01T06:43:57.000Z</time>
      </trkpt>
      <trkpt lat="44.14812" lon="5.87991">
        <ele>564</ele>
        <time>2021-06-01T06:43:58.000Z</time>
      </trkpt>
      <trkpt lat="44.14811" lon="5.87992">
        <ele>565</ele>
        <time>2021-06-01T06:43:59.000Z</time>
      </trkpt>
      <trkpt lat="44.14811" lon="5.87993">
        <ele>565</ele>
        <time>2021-06-01T06:44:00.000Z</time>
      </trkpt>
      <trkpt lat="44.1481" lon="5.87994">
        <ele>565</ele>
        <time>2021-06-01T06:44:01.000Z</time>
      </trkpt>
      <trkpt lat="44.14809" lon="5.87995">
        <ele>565</ele>
        <time>2021-06-01T06:44:02.000Z</time>
      </trkpt>
      <trkpt lat="44.14809" lon="5.87997">
        <ele>565</ele>
        <time>2021-06-01T06:44:03.000Z</time>
      </trkpt>
      <trkpt lat="44.14808" lon="5.87998">
        <ele>565</ele>
        <time>2021-06-01T06:44:04.000Z</time>
      </trkpt>
      <trkpt lat="44.14808" lon="5.87999">
        <ele>565</ele>
        <time>2021-06-01T06:44:05.000Z</time>
      </trkpt>
      <trkpt lat="44.14807" lon="5.87999">
        <ele>565</ele>
        <time>2021-06-01T06:44:06.000Z</time>
      </trkpt>
      <trkpt lat="44.14806" lon="5.88">
        <ele>565</ele>
        <time>2021-06-01T06:44:07.000Z</time>
      </trkpt>
      <trkpt lat="44.14805" lon="5.88001">
        <ele>565</ele>
        <time>2021-06-01T06:44:08.000Z</time>
      </trkpt>
      <trkpt lat="44.14804" lon="5.88003">
        <ele>565</ele>
        <time>2021-06-01T06:44:09.000Z</time>
      </trkpt>
      <trkpt lat="44.14803" lon="5.88004">
        <ele>565</ele>
        <time>2021-06-01T06:44:10.000Z</time>
      </trkpt>
      <trkpt lat="44.14803" lon="5.88005">
        <ele>566</ele>
        <time>2021-06-01T06:44:11.000Z</time>
      </trkpt>
      <trkpt lat="44.14802" lon="5.88007">
        <ele>566</ele>
        <time>2021-06-01T06:44:12.000Z</time>
      </trkpt>
      <trkpt lat="44.14801" lon="5.88008">
        <ele>566</ele>
        <time>2021-06-01T06:44:13.000Z</time>
      </trkpt>
      <trkpt lat="44.14801" lon="5.88009">
        <ele>566</ele>
        <time>2021-06-01T06:44:14.000Z</time>
      </trkpt>
      <trkpt lat="44.148" lon="5.8801">
        <ele>566</ele>
        <time>2021-06-01T06:44:15.000Z</time>
      </trkpt>
      <trkpt lat="44.148" lon="5.88011">
        <ele>566</ele>
        <time>2021-06-01T06:44:16.000Z</time>
      </trkpt>
      <trkpt lat="44.14799" lon="5.88013">
        <ele>566</ele>
        <time>2021-06-01T06:44:17.000Z</time>
      </trkpt>
      <trkpt lat="44.14799" lon="5.88014">
        <ele>566</ele>
        <time>2021-06-01T06:44:18.000Z</time>
      </trkpt>
      <trkpt lat="44.14798" lon="5.88015">
        <ele>566</ele>
        <time>2021-06-01T06:44:19.000Z</time>
      </trkpt>
      <trkpt lat="44.14798" lon="5.88016">
        <ele>567</ele>
        <time>2021-06-01T06:44:20.000Z</time>
      </trkpt>
      <trkpt lat="44.14797" lon="5.88018">
        <ele>567</ele>
        <time>2021-06-01T06:44:21.000Z</time>
      </trkpt>
      <trkpt lat="44.14797" lon="5.88019">
        <ele>567</ele>
        <time>2021-06-01T06:44:22.000Z</time>
      </trkpt>
      <trkpt lat="44.14796" lon="5.88021">
        <ele>567</ele>
        <time>2021-06-01T06:44:23.000Z</time>
      </trkpt>
      <trkpt lat="44.14796" lon="5.88022">
        <ele>567</ele>
        <time>2021-06-01T06:44:24.000Z</time>
      </trkpt>
      <trkpt lat="44.14795" lon="5.88023">
        <ele>567</ele>
        <time>2021-06-01T06:44:25.000Z</time>
      </trkpt>
      <trkpt lat="44.14795" lon="5.88025">
        <ele>567</ele>
        <time>2021-06-01T06:44:26.000Z</time>
      </trkpt>
      <trkpt lat="44.14794" lon="5.88026">
        <ele>567</ele>
        <time>2021-06-01T06:44:27.000Z</time>
      </trkpt>
      <trkpt lat="44.14794" lon="5.88028">
        <ele>567</ele>
        <time>2021-06-01T06:44:28.000Z</time>
      </trkpt>
      <trkpt lat="44.14794" lon="5.88029">
        <ele>567</ele>
        <time>2021-06-01T06:44:29.000Z</time>
      </trkpt>
      <trkpt lat="44.14793" lon="5.8803">
        <ele>567</ele>
        <time>2021-06-01T06:44:30.000Z</time>
      </trkpt>
      <trkpt lat="44.14793" lon="5.88032">
        <ele>567</ele>
        <time>2021-06-01T06:44:31.000Z</time>
      </trkpt>
      <trkpt lat="44.14792" lon="5.88033">
        <ele>567</ele>
        <time>2021-06-01T06:44:32.000Z</time>
      </trkpt>
      <trkpt lat="44.14792" lon="5.88035">
        <ele>567</ele>
        <time>2021-06-01T06:44:33.000Z</time>
      </trkpt>
      <trkpt lat="44.14792" lon="5.88036">
        <ele>567</ele>
        <time>2021-06-01T06:44:34.000Z</time>
      </trkpt>
      <trkpt lat="44.14791" lon="5.88037">
        <ele>567</ele>
        <time>2021-06-01T06:44:35.000Z</time>
      </trkpt>
      <trkpt lat="44.14791" lon="5.88039">
        <ele>567</ele>
        <time>2021-06-01T06:44:36.000Z</time>
      </trkpt>
      <trkpt lat="44.1479" lon="5.8804">
        <ele>567</ele>
        <time>2021-06-01T06:44:37.000Z</time>
      </trkpt>
      <trkpt lat="44.1479" lon="5.88041">
        <ele>567</ele>
        <time>2021-06-01T06:44:38.000Z</time>
      </trkpt>
      <trkpt lat="44.1479" lon="5.88043">
        <ele>567</ele>
        <time>2021-06-01T06:44:39.000Z</time>
      </trkpt>
      <trkpt lat="44.14789" lon="5.88044">
        <ele>567</ele>
        <time>2021-06-01T06:44:40.000Z</time>
      </trkpt>
      <trkpt lat="44.14789" lon="5.88046">
        <ele>567</ele>
        <time>2021-06-01T06:44:41.000Z</time>
      </trkpt>
      <trkpt lat="44.14789" lon="5.88047">
        <ele>567</ele>
        <time>2021-06-01T06:44:42.000Z</time>
      </trkpt>
      <trkpt lat="44.14789" lon="5.88049">
        <ele>567</ele>
        <time>2021-06-01T06:44:43.000Z</time>
      </trkpt>
      <trkpt lat="44.14789" lon="5.8805">
        <ele>567</ele>
        <time>2021-06-01T06:44:44.000Z</time>
      </trkpt>
      <trkpt lat="44.14788" lon="5.88052">
        <ele>567</ele>
        <time>2021-06-01T06:44:45.000Z</time>
      </trkpt>
      <trkpt lat="44.14788" lon="5.88053">
        <ele>567</ele>
        <time>2021-06-01T06:44:46.000Z</time>
      </trkpt>
      <trkpt lat="44.14788" lon="5.88055">
        <ele>567</ele>
        <time>2021-06-01T06:44:47.000Z</time>
      </trkpt>
      <trkpt lat="44.14788" lon="5.88056">
        <ele>567</ele>
        <time>2021-06-01T06:44:48.000Z</time>
      </trkpt>
      <trkpt lat="44.14788" lon="5.88057">
        <ele>567</ele>
        <time>2021-06-01T06:44:49.000Z</time>
      </trkpt>
      <trkpt lat="44.14788" lon="5.88059">
        <ele>567</ele>
        <time>2021-06-01T06:44:50.000Z</time>
      </trkpt>
      <trkpt lat="44.14787" lon="5.8806">
        <ele>567</ele>
        <time>2021-06-01T06:44:51.000Z</time>
      </trkpt>
      <trkpt lat="44.14787" lon="5.88062">
        <ele>567</ele>
        <time>2021-06-01T06:44:52.000Z</time>
      </trkpt>
      <trkpt lat="44.14787" lon="5.88063">
        <ele>567</ele>
        <time>2021-06-01T06:44:53.000Z</time>
      </trkpt>
      <trkpt lat="44.14787" lon="5.88064">
        <ele>567</ele>
        <time>2021-06-01T06:44:54.000Z</time>
      </trkpt>
      <trkpt lat="44.14786" lon="5.88065">
        <ele>567</ele>
        <time>2021-06-01T06:44:55.000Z</time>
      </trkpt>
      <trkpt lat="44.14786" lon="5.88067">
        <ele>567</ele>
        <time>2021-06-01T06:44:56.000Z</time>
      </trkpt>
      <trkpt lat="44.14786" lon="5.88068">
        <ele>567</ele>
        <time>2021-06-01T06:44:57.000Z</time>
      </trkpt>
      <trkpt lat="44.14786" lon="5.8807">
        <ele>567</ele>
        <time>2021-06-01T06:44:58.000Z</time>
      </trkpt>
      <trkpt lat="44.14786" lon="5.88072">
        <ele>567</ele>
        <time>2021-06-01T06:44:59.000Z</time>
      </trkpt>
      <trkpt lat="44.14786" lon="5.88073">
        <ele>567</ele>
        <time>2021-06-01T06:45:00.000Z</time>
      </trkpt>
      <trkpt lat="44.14786" lon="5.88075">
        <ele>567</ele>
        <time>2021-06-01T06:45:01.000Z</time>
      </trkpt>
      <trkpt lat="44.14785" lon="5.88076">
        <ele>567</ele>
        <time>2021-06-01T06:45:02.000Z</time>
      </trkpt>
      <trkpt lat="44.14785" lon="5.88077">
        <ele>567</ele>
        <time>2021-06-01T06:45:03.000Z</time>
      </trkpt>
      <trkpt lat="44.14785" lon="5.88079">
        <ele>567</ele>
        <time>2021-06-01T06:45:04.000Z</time>
      </trkpt>
      <trkpt lat="44.14785" lon="5.8808">
        <ele>567</ele>
        <time>2021-06-01T06:45:05.000Z</time>
      </trkpt>
      <trkpt lat="44.14785" lon="5.88081">
        <ele>567</ele>
        <time>2021-06-01T06:45:06.000Z</time>
      </trkpt>
      <trkpt lat="44.14785" lon="5.88083">
        <ele>567</ele>
        <time>2021-06-01T06:45:07.000Z</time>
      </trkpt>
      <trkpt lat="44.14784" lon="5.88084">
        <ele>567</ele>
        <time>2021-06-01T06:45:08.000Z</time>
      </trkpt>
      <trkpt lat="44.14784" lon="5.88085">
        <ele>567</ele>
        <time>2021-06-01T06:45:09.000Z</time>
      </trkpt>
      <trkpt lat="44.14784" lon="5.88087">
        <ele>567</ele>
        <time>2021-06-01T06:45:10.000Z</time>
      </trkpt>
      <trkpt lat="44.14784" lon="5.88088">
        <ele>567</ele>
        <time>2021-06-01T06:45:11.000Z</time>
      </trkpt>
      <trkpt lat="44.14784" lon="5.88089">
        <ele>567</ele>
        <time>2021-06-01T06:45:12.000Z</time>
      </trkpt>
      <trkpt lat="44.14784" lon="5.8809">
        <ele>567</ele>
        <time>2021-06-01T06:45:13.000Z</time>
      </trkpt>
      <trkpt lat="44.14784" lon="5.88091">
        <ele>567</ele>
        <time>2021-06-01T06:45:14.000Z</time>
      </trkpt>
      <trkpt lat="44.14784" lon="5.88092">
        <ele>567</ele>
        <time>2021-06-01T06:45:15.000Z</time>
      </trkpt>
      <trkpt lat="44.14784" lon="5.88093">
        <ele>566</ele>
        <time>2021-06-01T06:45:16.000Z</time>
      </trkpt>
      <trkpt lat="44.14784" lon="5.88095">
        <ele>566</ele>
        <time>2021-06-01T06:45:17.000Z</time>
      </trkpt>
      <trkpt lat="44.14784" lon="5.88096">
        <ele>566</ele>
        <time>2021-06-01T06:45:18.000Z</time>
      </trkpt>
      <trkpt lat="44.14784" lon="5.88098">
        <ele>566</ele>
        <time>2021-06-01T06:45:19.000Z</time>
      </trkpt>
      <trkpt lat="44.14783" lon="5.88099">
        <ele>566</ele>
        <time>2021-06-01T06:45:20.000Z</time>
      </trkpt>
      <trkpt lat="44.14783" lon="5.88101">
        <ele>566</ele>
        <time>2021-06-01T06:45:21.000Z</time>
      </trkpt>
      <trkpt lat="44.14783" lon="5.88102">
        <ele>566</ele>
        <time>2021-06-01T06:45:22.000Z</time>
      </trkpt>
      <trkpt lat="44.14783" lon="5.88104">
        <ele>566</ele>
        <time>2021-06-01T06:45:23.000Z</time>
      </trkpt>
      <trkpt lat="44.14783" lon="5.88105">
        <ele>566</ele>
        <time>2021-06-01T06:45:24.000Z</time>
      </trkpt>
      <trkpt lat="44.14783" lon="5.88106">
        <ele>566</ele>
        <time>2021-06-01T06:45:25.000Z</time>
      </trkpt>
      <trkpt lat="44.14783" lon="5.88108">
        <ele>566</ele>
        <time>2021-06-01T06:45:26.000Z</time>
      </trkpt>
      <trkpt lat="44.14783" lon="5.88109">
        <ele>566</ele>
        <time>2021-06-01T06:45:27.000Z</time>
      </trkpt>
      <trkpt lat="44.14783" lon="5.88111">
        <ele>566</ele>
        <time>2021-06-01T06:45:28.000Z</time>
      </trkpt>
      <trkpt lat="44.14783" lon="5.88112">
        <ele>566</ele>
        <time>2021-06-01T06:45:29.000Z</time>
      </trkpt>
      <trkpt lat="44.14783" lon="5.88114">
        <ele>566</ele>
        <time>2021-06-01T06:45:30.000Z</time>
      </trkpt>
      <trkpt lat="44.14782" lon="5.88115">
        <ele>566</ele>
        <time>2021-06-01T06:45:31.000Z</time>
      </trkpt>
      <trkpt lat="44.14782" lon="5.88117">
        <ele>566</ele>
        <time>2021-06-01T06:45:32.000Z</time>
      </trkpt>
      <trkpt lat="44.14782" lon="5.88118">
        <ele>566</ele>
        <time>2021-06-01T06:45:33.000Z</time>
      </trkpt>
      <trkpt lat="44.14782" lon="5.8812">
        <ele>566</ele>
        <time>2021-06-01T06:45:34.000Z</time>
      </trkpt>
      <trkpt lat="44.14782" lon="5.88121">
        <ele>566</ele>
        <time>2021-06-01T06:45:35.000Z</time>
      </trkpt>
      <trkpt lat="44.14782" lon="5.88123">
        <ele>566</ele>
        <time>2021-06-01T06:45:36.000Z</time>
      </trkpt>
      <trkpt lat="44.14782" lon="5.88125">
        <ele>566</ele>
        <time>2021-06-01T06:45:37.000Z</time>
      </trkpt>
      <trkpt lat="44.14782" lon="5.88126">
        <ele>566</ele>
        <time>2021-06-01T06:45:38.000Z</time>
      </trkpt>
      <trkpt lat="44.14782" lon="5.88128">
        <ele>566</ele>
        <time>2021-06-01T06:45:39.000Z</time>
      </trkpt>
      <trkpt lat="44.14781" lon="5.88129">
        <ele>566</ele>
        <time>2021-06-01T06:45:40.000Z</time>
      </trkpt>
      <trkpt lat="44.14781" lon="5.8813">
        <ele>566</ele>
        <time>2021-06-01T06:45:41.000Z</time>
      </trkpt>
      <trkpt lat="44.14781" lon="5.88132">
        <ele>566</ele>
        <time>2021-06-01T06:45:42.000Z</time>
      </trkpt>
      <trkpt lat="44.14781" lon="5.88133">
        <ele>566</ele>
        <time>2021-06-01T06:45:43.000Z</time>
      </trkpt>
      <trkpt lat="44.14781" lon="5.88135">
        <ele>566</ele>
        <time>2021-06-01T06:45:44.000Z</time>
      </trkpt>
      <trkpt lat="44.14781" lon="5.88136">
        <ele>566</ele>
        <time>2021-06-01T06:45:45.000Z</time>
      </trkpt>
      <trkpt lat="44.1478" lon="5.88138">
        <ele>566</ele>
        <time>2021-06-01T06:45:46.000Z</time>
      </trkpt>
      <trkpt lat="44.1478" lon="5.8814">
        <ele>566</ele>
        <time>2021-06-01T06:45:47.000Z</time>
      </trkpt>
      <trkpt lat="44.1478" lon="5.88141">
        <ele>566</ele>
        <time>2021-06-01T06:45:48.000Z</time>
      </trkpt>
      <trkpt lat="44.1478" lon="5.88143">
        <ele>566</ele>
        <time>2021-06-01T06:45:49.000Z</time>
      </trkpt>
      <trkpt lat="44.1478" lon="5.88145">
        <ele>566</ele>
        <time>2021-06-01T06:45:50.000Z</time>
      </trkpt>
      <trkpt lat="44.1478" lon="5.88146">
        <ele>566</ele>
        <time>2021-06-01T06:45:51.000Z</time>
      </trkpt>
      <trkpt lat="44.1478" lon="5.88148">
        <ele>566</ele>
        <time>2021-06-01T06:45:52.000Z</time>
      </trkpt>
      <trkpt lat="44.1478" lon="5.88149">
        <ele>566</ele>
        <time>2021-06-01T06:45:53.000Z</time>
      </trkpt>
      <trkpt lat="44.1478" lon="5.88151">
        <ele>566</ele>
        <time>2021-06-01T06:45:54.000Z</time>
      </trkpt>
      <trkpt lat="44.1478" lon="5.88152">
        <ele>566</ele>
        <time>2021-06-01T06:45:55.000Z</time>
      </trkpt>
      <trkpt lat="44.1478" lon="5.88154">
        <ele>566</ele>
        <time>2021-06-01T06:45:56.000Z</time>
      </trkpt>
      <trkpt lat="44.1478" lon="5.88155">
        <ele>566</ele>
        <time>2021-06-01T06:45:57.000Z</time>
      </trkpt>
      <trkpt lat="44.1478" lon="5.88156">
        <ele>566</ele>
        <time>2021-06-01T06:45:58.000Z</time>
      </trkpt>
      <trkpt lat="44.1478" lon="5.88158">
        <ele>566</ele>
        <time>2021-06-01T06:45:59.000Z</time>
      </trkpt>
      <trkpt lat="44.14779" lon="5.88159">
        <ele>566</ele>
        <time>2021-06-01T06:46:00.000Z</time>
      </trkpt>
      <trkpt lat="44.14779" lon="5.88161">
        <ele>566</ele>
        <time>2021-06-01T06:46:01.000Z</time>
      </trkpt>
      <trkpt lat="44.14779" lon="5.88162">
        <ele>566</ele>
        <time>2021-06-01T06:46:02.000Z</time>
      </trkpt>
      <trkpt lat="44.14779" lon="5.88164">
        <ele>566</ele>
        <time>2021-06-01T06:46:03.000Z</time>
      </trkpt>
      <trkpt lat="44.14779" lon="5.88165">
        <ele>566</ele>
        <time>2021-06-01T06:46:04.000Z</time>
      </trkpt>
      <trkpt lat="44.14779" lon="5.88167">
        <ele>566</ele>
        <time>2021-06-01T06:46:05.000Z</time>
      </trkpt>
      <trkpt lat="44.14778" lon="5.88168">
        <ele>566</ele>
        <time>2021-06-01T06:46:06.000Z</time>
      </trkpt>
      <trkpt lat="44.14778" lon="5.8817">
        <ele>566</ele>
        <time>2021-06-01T06:46:07.000Z</time>
      </trkpt>
      <trkpt lat="44.14778" lon="5.88171">
        <ele>566</ele>
        <time>2021-06-01T06:46:08.000Z</time>
      </trkpt>
      <trkpt lat="44.14777" lon="5.88173">
        <ele>566</ele>
        <time>2021-06-01T06:46:09.000Z</time>
      </trkpt>
      <trkpt lat="44.14777" lon="5.88174">
        <ele>566</ele>
        <time>2021-06-01T06:46:10.000Z</time>
      </trkpt>
      <trkpt lat="44.14777" lon="5.88176">
        <ele>566</ele>
        <time>2021-06-01T06:46:11.000Z</time>
      </trkpt>
      <trkpt lat="44.14777" lon="5.88177">
        <ele>567</ele>
        <time>2021-06-01T06:46:12.000Z</time>
      </trkpt>
      <trkpt lat="44.14777" lon="5.88178">
        <ele>567</ele>
        <time>2021-06-01T06:46:13.000Z</time>
      </trkpt>
      <trkpt lat="44.14776" lon="5.8818">
        <ele>567</ele>
        <time>2021-06-01T06:46:14.000Z</time>
      </trkpt>
      <trkpt lat="44.14776" lon="5.88181">
        <ele>567</ele>
        <time>2021-06-01T06:46:15.000Z</time>
      </trkpt>
      <trkpt lat="44.14776" lon="5.88182">
        <ele>567</ele>
        <time>2021-06-01T06:46:16.000Z</time>
      </trkpt>
      <trkpt lat="44.14776" lon="5.88184">
        <ele>567</ele>
        <time>2021-06-01T06:46:17.000Z</time>
      </trkpt>
      <trkpt lat="44.14775" lon="5.88185">
        <ele>567</ele>
        <time>2021-06-01T06:46:18.000Z</time>
      </trkpt>
      <trkpt lat="44.14775" lon="5.88187">
        <ele>567</ele>
        <time>2021-06-01T06:46:19.000Z</time>
      </trkpt>
      <trkpt lat="44.14775" lon="5.88188">
        <ele>567</ele>
        <time>2021-06-01T06:46:20.000Z</time>
      </trkpt>
      <trkpt lat="44.14774" lon="5.88189">
        <ele>567</ele>
        <time>2021-06-01T06:46:21.000Z</time>
      </trkpt>
      <trkpt lat="44.14774" lon="5.8819">
        <ele>567</ele>
        <time>2021-06-01T06:46:22.000Z</time>
      </trkpt>
      <trkpt lat="44.14773" lon="5.88191">
        <ele>567</ele>
        <time>2021-06-01T06:46:23.000Z</time>
      </trkpt>
      <trkpt lat="44.14773" lon="5.88193">
        <ele>567</ele>
        <time>2021-06-01T06:46:24.000Z</time>
      </trkpt>
      <trkpt lat="44.14772" lon="5.88194">
        <ele>567</ele>
        <time>2021-06-01T06:46:25.000Z</time>
      </trkpt>
      <trkpt lat="44.14771" lon="5.88194">
        <ele>567</ele>
        <time>2021-06-01T06:46:26.000Z</time>
      </trkpt>
      <trkpt lat="44.14771" lon="5.88195">
        <ele>567</ele>
        <time>2021-06-01T06:46:27.000Z</time>
      </trkpt>
      <trkpt lat="44.1477" lon="5.88195">
        <ele>567</ele>
        <time>2021-06-01T06:46:28.000Z</time>
      </trkpt>
      <trkpt lat="44.14769" lon="5.88196">
        <ele>567</ele>
        <time>2021-06-01T06:46:29.000Z</time>
      </trkpt>
      <trkpt lat="44.14769" lon="5.88197">
        <ele>568</ele>
        <time>2021-06-01T06:46:30.000Z</time>
      </trkpt>
      <trkpt lat="44.14768" lon="5.88197">
        <ele>568</ele>
        <time>2021-06-01T06:46:31.000Z</time>
      </trkpt>
      <trkpt lat="44.14767" lon="5.88198">
        <ele>568</ele>
        <time>2021-06-01T06:46:32.000Z</time>
      </trkpt>
      <trkpt lat="44.14767" lon="5.88199">
        <ele>568</ele>
        <time>2021-06-01T06:46:33.000Z</time>
      </trkpt>
      <trkpt lat="44.14766" lon="5.88199">
        <ele>568</ele>
        <time>2021-06-01T06:46:34.000Z</time>
      </trkpt>
      <trkpt lat="44.14766" lon="5.882">
        <ele>568</ele>
        <time>2021-06-01T06:46:35.000Z</time>
      </trkpt>
      <trkpt lat="44.14765" lon="5.882">
        <ele>568</ele>
        <time>2021-06-01T06:46:36.000Z</time>
      </trkpt>
      <trkpt lat="44.14765" lon="5.882">
        <ele>568</ele>
        <time>2021-06-01T06:46:37.000Z</time>
      </trkpt>
      <trkpt lat="44.14764" lon="5.882">
        <ele>568</ele>
        <time>2021-06-01T06:46:38.000Z</time>
      </trkpt>
      <trkpt lat="44.14763" lon="5.88201">
        <ele>568</ele>
        <time>2021-06-01T06:46:39.000Z</time>
      </trkpt>
      <trkpt lat="44.14763" lon="5.88201">
        <ele>568</ele>
        <time>2021-06-01T06:46:40.000Z</time>
      </trkpt>
      <trkpt lat="44.14762" lon="5.88202">
        <ele>568</ele>
        <time>2021-06-01T06:46:41.000Z</time>
      </trkpt>
      <trkpt lat="44.14761" lon="5.88202">
        <ele>568</ele>
        <time>2021-06-01T06:46:42.000Z</time>
      </trkpt>
      <trkpt lat="44.14761" lon="5.88202">
        <ele>568</ele>
        <time>2021-06-01T06:46:43.000Z</time>
      </trkpt>
      <trkpt lat="44.1476" lon="5.88203">
        <ele>568</ele>
        <time>2021-06-01T06:46:44.000Z</time>
      </trkpt>
      <trkpt lat="44.14759" lon="5.88203">
        <ele>568</ele>
        <time>2021-06-01T06:46:45.000Z</time>
      </trkpt>
      <trkpt lat="44.14759" lon="5.88204">
        <ele>568</ele>
        <time>2021-06-01T06:46:46.000Z</time>
      </trkpt>
      <trkpt lat="44.14758" lon="5.88204">
        <ele>569</ele>
        <time>2021-06-01T06:46:47.000Z</time>
      </trkpt>
      <trkpt lat="44.14757" lon="5.88205">
        <ele>569</ele>
        <time>2021-06-01T06:46:48.000Z</time>
      </trkpt>
      <trkpt lat="44.14756" lon="5.88205">
        <ele>569</ele>
        <time>2021-06-01T06:46:49.000Z</time>
      </trkpt>
      <trkpt lat="44.14756" lon="5.88206">
        <ele>569</ele>
        <time>2021-06-01T06:46:50.000Z</time>
      </trkpt>
      <trkpt lat="44.14755" lon="5.88208">
        <ele>569</ele>
        <time>2021-06-01T06:46:51.000Z</time>
      </trkpt>
      <trkpt lat="44.14755" lon="5.88209">
        <ele>569</ele>
        <time>2021-06-01T06:46:52.000Z</time>
      </trkpt>
      <trkpt lat="44.14755" lon="5.8821">
        <ele>569</ele>
        <time>2021-06-01T06:46:53.000Z</time>
      </trkpt>
      <trkpt lat="44.14755" lon="5.88211">
        <ele>569</ele>
        <time>2021-06-01T06:46:54.000Z</time>
      </trkpt>
      <trkpt lat="44.14755" lon="5.88212">
        <ele>569</ele>
        <time>2021-06-01T06:46:55.000Z</time>
      </trkpt>
      <trkpt lat="44.14756" lon="5.88213">
        <ele>570</ele>
        <time>2021-06-01T06:46:56.000Z</time>
      </trkpt>
      <trkpt lat="44.14756" lon="5.88214">
        <ele>570</ele>
        <time>2021-06-01T06:46:57.000Z</time>
      </trkpt>
      <trkpt lat="44.14756" lon="5.88215">
        <ele>570</ele>
        <time>2021-06-01T06:46:58.000Z</time>
      </trkpt>
      <trkpt lat="44.14757" lon="5.88216">
        <ele>570</ele>
        <time>2021-06-01T06:46:59.000Z</time>
      </trkpt>
      <trkpt lat="44.14757" lon="5.88217">
        <ele>570</ele>
        <time>2021-06-01T06:47:00.000Z</time>
      </trkpt>
      <trkpt lat="44.14758" lon="5.88217">
        <ele>570</ele>
        <time>2021-06-01T06:47:01.000Z</time>
      </trkpt>
      <trkpt lat="44.14758" lon="5.88219">
        <ele>570</ele>
        <time>2021-06-01T06:47:02.000Z</time>
      </trkpt>
      <trkpt lat="44.14758" lon="5.88219">
        <ele>570</ele>
        <time>2021-06-01T06:47:03.000Z</time>
      </trkpt>
      <trkpt lat="44.14759" lon="5.8822">
        <ele>570</ele>
        <time>2021-06-01T06:47:04.000Z</time>
      </trkpt>
      <trkpt lat="44.14759" lon="5.88221">
        <ele>570</ele>
        <time>2021-06-01T06:47:05.000Z</time>
      </trkpt>
      <trkpt lat="44.14759" lon="5.88222">
        <ele>570</ele>
        <time>2021-06-01T06:47:06.000Z</time>
      </trkpt>
      <trkpt lat="44.14759" lon="5.88223">
        <ele>570</ele>
        <time>2021-06-01T06:47:07.000Z</time>
      </trkpt>
      <trkpt lat="44.1476" lon="5.88224">
        <ele>570</ele>
        <time>2021-06-01T06:47:08.000Z</time>
      </trkpt>
      <trkpt lat="44.1476" lon="5.88225">
        <ele>570</ele>
        <time>2021-06-01T06:47:09.000Z</time>
      </trkpt>
      <trkpt lat="44.1476" lon="5.88226">
        <ele>570</ele>
        <time>2021-06-01T06:47:10.000Z</time>
      </trkpt>
      <trkpt lat="44.1476" lon="5.88227">
        <ele>570</ele>
        <time>2021-06-01T06:47:11.000Z</time>
      </trkpt>
      <trkpt lat="44.1476" lon="5.88228">
        <ele>571</ele>
        <time>2021-06-01T06:47:12.000Z</time>
      </trkpt>
      <trkpt lat="44.14761" lon="5.88229">
        <ele>571</ele>
        <time>2021-06-01T06:47:13.000Z</time>
      </trkpt>
      <trkpt lat="44.14761" lon="5.8823">
        <ele>571</ele>
        <time>2021-06-01T06:47:14.000Z</time>
      </trkpt>
      <trkpt lat="44.14761" lon="5.88231">
        <ele>571</ele>
        <time>2021-06-01T06:47:15.000Z</time>
      </trkpt>
      <trkpt lat="44.14761" lon="5.88233">
        <ele>571</ele>
        <time>2021-06-01T06:47:16.000Z</time>
      </trkpt>
      <trkpt lat="44.1476" lon="5.88234">
        <ele>571</ele>
        <time>2021-06-01T06:47:17.000Z</time>
      </trkpt>
      <trkpt lat="44.1476" lon="5.88235">
        <ele>571</ele>
        <time>2021-06-01T06:47:18.000Z</time>
      </trkpt>
      <trkpt lat="44.1476" lon="5.88236">
        <ele>572</ele>
        <time>2021-06-01T06:47:19.000Z</time>
      </trkpt>
      <trkpt lat="44.14759" lon="5.88237">
        <ele>572</ele>
        <time>2021-06-01T06:47:20.000Z</time>
      </trkpt>
      <trkpt lat="44.14759" lon="5.88238">
        <ele>572</ele>
        <time>2021-06-01T06:47:21.000Z</time>
      </trkpt>
      <trkpt lat="44.14758" lon="5.8824">
        <ele>572</ele>
        <time>2021-06-01T06:47:22.000Z</time>
      </trkpt>
      <trkpt lat="44.14758" lon="5.88241">
        <ele>573</ele>
        <time>2021-06-01T06:47:23.000Z</time>
      </trkpt>
      <trkpt lat="44.14757" lon="5.88242">
        <ele>573</ele>
        <time>2021-06-01T06:47:24.000Z</time>
      </trkpt>
      <trkpt lat="44.14756" lon="5.88243">
        <ele>573</ele>
        <time>2021-06-01T06:47:25.000Z</time>
      </trkpt>
      <trkpt lat="44.14756" lon="5.88244">
        <ele>573</ele>
        <time>2021-06-01T06:47:26.000Z</time>
      </trkpt>
      <trkpt lat="44.14755" lon="5.88245">
        <ele>573</ele>
        <time>2021-06-01T06:47:27.000Z</time>
      </trkpt>
      <trkpt lat="44.14755" lon="5.88246">
        <ele>574</ele>
        <time>2021-06-01T06:47:28.000Z</time>
      </trkpt>
      <trkpt lat="44.14754" lon="5.88247">
        <ele>574</ele>
        <time>2021-06-01T06:47:29.000Z</time>
      </trkpt>
      <trkpt lat="44.14754" lon="5.88248">
        <ele>574</ele>
        <time>2021-06-01T06:47:30.000Z</time>
      </trkpt>
      <trkpt lat="44.14754" lon="5.8825">
        <ele>574</ele>
        <time>2021-06-01T06:47:31.000Z</time>
      </trkpt>
      <trkpt lat="44.14754" lon="5.8825">
        <ele>574</ele>
        <time>2021-06-01T06:47:32.000Z</time>
      </trkpt>
      <trkpt lat="44.14754" lon="5.8825">
        <ele>574</ele>
        <time>2021-06-01T06:47:33.000Z</time>
      </trkpt>
      <trkpt lat="44.14754" lon="5.8825">
        <ele>574</ele>
        <time>2021-06-01T06:47:34.000Z</time>
      </trkpt>
      <trkpt lat="44.14753" lon="5.8825">
        <ele>574</ele>
        <time>2021-06-01T06:47:35.000Z</time>
      </trkpt>
      <trkpt lat="44.14753" lon="5.8825">
        <ele>575</ele>
        <time>2021-06-01T06:47:36.000Z</time>
      </trkpt>
      <trkpt lat="44.14753" lon="5.8825">
        <ele>575</ele>
        <time>2021-06-01T06:47:37.000Z</time>
      </trkpt>
      <trkpt lat="44.14753" lon="5.8825">
        <ele>575</ele>
        <time>2021-06-01T06:47:38.000Z</time>
      </trkpt>
      <trkpt lat="44.14753" lon="5.88251">
        <ele>575</ele>
        <time>2021-06-01T06:47:39.000Z</time>
      </trkpt>
      <trkpt lat="44.14753" lon="5.88252">
        <ele>575</ele>
        <time>2021-06-01T06:47:40.000Z</time>
      </trkpt>
      <trkpt lat="44.14753" lon="5.88253">
        <ele>575</ele>
        <time>2021-06-01T06:47:41.000Z</time>
      </trkpt>
      <trkpt lat="44.14753" lon="5.88254">
        <ele>575</ele>
        <time>2021-06-01T06:47:42.000Z</time>
      </trkpt>
      <trkpt lat="44.14752" lon="5.88254">
        <ele>575</ele>
        <time>2021-06-01T06:47:43.000Z</time>
      </trkpt>
      <trkpt lat="44.14752" lon="5.88256">
        <ele>575</ele>
        <time>2021-06-01T06:47:44.000Z</time>
      </trkpt>
      <trkpt lat="44.14752" lon="5.88257">
        <ele>575</ele>
        <time>2021-06-01T06:47:45.000Z</time>
      </trkpt>
      <trkpt lat="44.14751" lon="5.88258">
        <ele>576</ele>
        <time>2021-06-01T06:47:46.000Z</time>
      </trkpt>
      <trkpt lat="44.14751" lon="5.88259">
        <ele>576</ele>
        <time>2021-06-01T06:47:47.000Z</time>
      </trkpt>
      <trkpt lat="44.1475" lon="5.8826">
        <ele>576</ele>
        <time>2021-06-01T06:47:48.000Z</time>
      </trkpt>
      <trkpt lat="44.1475" lon="5.88261">
        <ele>576</ele>
        <time>2021-06-01T06:47:49.000Z</time>
      </trkpt>
      <trkpt lat="44.1475" lon="5.88262">
        <ele>576</ele>
        <time>2021-06-01T06:47:50.000Z</time>
      </trkpt>
      <trkpt lat="44.14749" lon="5.88263">
        <ele>576</ele>
        <time>2021-06-01T06:47:51.000Z</time>
      </trkpt>
      <trkpt lat="44.14749" lon="5.88264">
        <ele>576</ele>
        <time>2021-06-01T06:47:52.000Z</time>
      </trkpt>
      <trkpt lat="44.14748" lon="5.88265">
        <ele>576</ele>
        <time>2021-06-01T06:47:53.000Z</time>
      </trkpt>
      <trkpt lat="44.14748" lon="5.88266">
        <ele>576</ele>
        <time>2021-06-01T06:47:54.000Z</time>
      </trkpt>
      <trkpt lat="44.14748" lon="5.88268">
        <ele>577</ele>
        <time>2021-06-01T06:47:55.000Z</time>
      </trkpt>
      <trkpt lat="44.14747" lon="5.88269">
        <ele>577</ele>
        <time>2021-06-01T06:47:56.000Z</time>
      </trkpt>
      <trkpt lat="44.14747" lon="5.8827">
        <ele>577</ele>
        <time>2021-06-01T06:47:57.000Z</time>
      </trkpt>
      <trkpt lat="44.14747" lon="5.88271">
        <ele>577</ele>
        <time>2021-06-01T06:47:58.000Z</time>
      </trkpt>
      <trkpt lat="44.14747" lon="5.88273">
        <ele>577</ele>
        <time>2021-06-01T06:47:59.000Z</time>
      </trkpt>
      <trkpt lat="44.14746" lon="5.88274">
        <ele>577</ele>
        <time>2021-06-01T06:48:00.000Z</time>
      </trkpt>
      <trkpt lat="44.14746" lon="5.88276">
        <ele>577</ele>
        <time>2021-06-01T06:48:01.000Z</time>
      </trkpt>
      <trkpt lat="44.14746" lon="5.88277">
        <ele>577</ele>
        <time>2021-06-01T06:48:02.000Z</time>
      </trkpt>
      <trkpt lat="44.14746" lon="5.88278">
        <ele>577</ele>
        <time>2021-06-01T06:48:03.000Z</time>
      </trkpt>
      <trkpt lat="44.14746" lon="5.8828">
        <ele>577</ele>
        <time>2021-06-01T06:48:04.000Z</time>
      </trkpt>
      <trkpt lat="44.14745" lon="5.88281">
        <ele>577</ele>
        <time>2021-06-01T06:48:05.000Z</time>
      </trkpt>
      <trkpt lat="44.14745" lon="5.88283">
        <ele>577</ele>
        <time>2021-06-01T06:48:06.000Z</time>
      </trkpt>
      <trkpt lat="44.14745" lon="5.88284">
        <ele>577</ele>
        <time>2021-06-01T06:48:07.000Z</time>
      </trkpt>
      <trkpt lat="44.14745" lon="5.88286">
        <ele>577</ele>
        <time>2021-06-01T06:48:08.000Z</time>
      </trkpt>
      <trkpt lat="44.14745" lon="5.88287">
        <ele>578</ele>
        <time>2021-06-01T06:48:09.000Z</time>
      </trkpt>
      <trkpt lat="44.14745" lon="5.88289">
        <ele>578</ele>
        <time>2021-06-01T06:48:10.000Z</time>
      </trkpt>
      <trkpt lat="44.14745" lon="5.8829">
        <ele>578</ele>
        <time>2021-06-01T06:48:11.000Z</time>
      </trkpt>
      <trkpt lat="44.14745" lon="5.88291">
        <ele>578</ele>
        <time>2021-06-01T06:48:12.000Z</time>
      </trkpt>
      <trkpt lat="44.14745" lon="5.88293">
        <ele>578</ele>
        <time>2021-06-01T06:48:13.000Z</time>
      </trkpt>
      <trkpt lat="44.14745" lon="5.88294">
        <ele>578</ele>
        <time>2021-06-01T06:48:14.000Z</time>
      </trkpt>
      <trkpt lat="44.14745" lon="5.88296">
        <ele>578</ele>
        <time>2021-06-01T06:48:15.000Z</time>
      </trkpt>
      <trkpt lat="44.14745" lon="5.88297">
        <ele>578</ele>
        <time>2021-06-01T06:48:16.000Z</time>
      </trkpt>
      <trkpt lat="44.14744" lon="5.88298">
        <ele>578</ele>
        <time>2021-06-01T06:48:17.000Z</time>
      </trkpt>
      <trkpt lat="44.14744" lon="5.883">
        <ele>578</ele>
        <time>2021-06-01T06:48:18.000Z</time>
      </trkpt>
      <trkpt lat="44.14744" lon="5.88301">
        <ele>578</ele>
        <time>2021-06-01T06:48:19.000Z</time>
      </trkpt>
      <trkpt lat="44.14744" lon="5.88303">
        <ele>578</ele>
        <time>2021-06-01T06:48:20.000Z</time>
      </trkpt>
      <trkpt lat="44.14744" lon="5.88304">
        <ele>578</ele>
        <time>2021-06-01T06:48:21.000Z</time>
      </trkpt>
      <trkpt lat="44.14744" lon="5.88305">
        <ele>577</ele>
        <time>2021-06-01T06:48:22.000Z</time>
      </trkpt>
      <trkpt lat="44.14744" lon="5.88307">
        <ele>577</ele>
        <time>2021-06-01T06:48:23.000Z</time>
      </trkpt>
      <trkpt lat="44.14744" lon="5.88308">
        <ele>578</ele>
        <time>2021-06-01T06:48:24.000Z</time>
      </trkpt>
      <trkpt lat="44.14744" lon="5.88309">
        <ele>578</ele>
        <time>2021-06-01T06:48:25.000Z</time>
      </trkpt>
      <trkpt lat="44.14744" lon="5.88311">
        <ele>578</ele>
        <time>2021-06-01T06:48:26.000Z</time>
      </trkpt>
      <trkpt lat="44.14743" lon="5.88312">
        <ele>578</ele>
        <time>2021-06-01T06:48:27.000Z</time>
      </trkpt>
      <trkpt lat="44.14743" lon="5.88313">
        <ele>578</ele>
        <time>2021-06-01T06:48:28.000Z</time>
      </trkpt>
      <trkpt lat="44.14743" lon="5.88315">
        <ele>578</ele>
        <time>2021-06-01T06:48:29.000Z</time>
      </trkpt>
      <trkpt lat="44.14742" lon="5.88316">
        <ele>578</ele>
        <time>2021-06-01T06:48:30.000Z</time>
      </trkpt>
      <trkpt lat="44.14742" lon="5.88317">
        <ele>578</ele>
        <time>2021-06-01T06:48:31.000Z</time>
      </trkpt>
      <trkpt lat="44.14742" lon="5.88319">
        <ele>578</ele>
        <time>2021-06-01T06:48:32.000Z</time>
      </trkpt>
      <trkpt lat="44.14741" lon="5.8832">
        <ele>578</ele>
        <time>2021-06-01T06:48:33.000Z</time>
      </trkpt>
      <trkpt lat="44.14741" lon="5.88321">
        <ele>578</ele>
        <time>2021-06-01T06:48:34.000Z</time>
      </trkpt>
      <trkpt lat="44.14741" lon="5.88323">
        <ele>578</ele>
        <time>2021-06-01T06:48:35.000Z</time>
      </trkpt>
      <trkpt lat="44.1474" lon="5.88324">
        <ele>578</ele>
        <time>2021-06-01T06:48:36.000Z</time>
      </trkpt>
      <trkpt lat="44.1474" lon="5.88325">
        <ele>578</ele>
        <time>2021-06-01T06:48:37.000Z</time>
      </trkpt>
      <trkpt lat="44.14739" lon="5.88326">
        <ele>578</ele>
        <time>2021-06-01T06:48:38.000Z</time>
      </trkpt>
      <trkpt lat="44.14739" lon="5.88327">
        <ele>578</ele>
        <time>2021-06-01T06:48:39.000Z</time>
      </trkpt>
      <trkpt lat="44.14738" lon="5.88329">
        <ele>578</ele>
        <time>2021-06-01T06:48:40.000Z</time>
      </trkpt>
      <trkpt lat="44.14738" lon="5.8833">
        <ele>578</ele>
        <time>2021-06-01T06:48:41.000Z</time>
      </trkpt>
      <trkpt lat="44.14737" lon="5.88331">
        <ele>578</ele>
        <time>2021-06-01T06:48:42.000Z</time>
      </trkpt>
      <trkpt lat="44.14737" lon="5.88332">
        <ele>578</ele>
        <time>2021-06-01T06:48:43.000Z</time>
      </trkpt>
      <trkpt lat="44.14736" lon="5.88334">
        <ele>578</ele>
        <time>2021-06-01T06:48:44.000Z</time>
      </trkpt>
      <trkpt lat="44.14736" lon="5.88335">
        <ele>578</ele>
        <time>2021-06-01T06:48:45.000Z</time>
      </trkpt>
      <trkpt lat="44.14736" lon="5.88336">
        <ele>578</ele>
        <time>2021-06-01T06:48:46.000Z</time>
      </trkpt>
      <trkpt lat="44.14735" lon="5.88338">
        <ele>579</ele>
        <time>2021-06-01T06:48:47.000Z</time>
      </trkpt>
      <trkpt lat="44.14735" lon="5.88339">
        <ele>579</ele>
        <time>2021-06-01T06:48:48.000Z</time>
      </trkpt>
      <trkpt lat="44.14734" lon="5.8834">
        <ele>579</ele>
        <time>2021-06-01T06:48:49.000Z</time>
      </trkpt>
      <trkpt lat="44.14734" lon="5.88341">
        <ele>579</ele>
        <time>2021-06-01T06:48:50.000Z</time>
      </trkpt>
      <trkpt lat="44.14733" lon="5.88343">
        <ele>579</ele>
        <time>2021-06-01T06:48:51.000Z</time>
      </trkpt>
      <trkpt lat="44.14733" lon="5.88344">
        <ele>579</ele>
        <time>2021-06-01T06:48:52.000Z</time>
      </trkpt>
      <trkpt lat="44.14733" lon="5.88345">
        <ele>579</ele>
        <time>2021-06-01T06:48:53.000Z</time>
      </trkpt>
      <trkpt lat="44.14732" lon="5.88347">
        <ele>579</ele>
        <time>2021-06-01T06:48:54.000Z</time>
      </trkpt>
      <trkpt lat="44.14732" lon="5.88348">
        <ele>580</ele>
        <time>2021-06-01T06:48:55.000Z</time>
      </trkpt>
      <trkpt lat="44.14731" lon="5.88349">
        <ele>580</ele>
        <time>2021-06-01T06:48:56.000Z</time>
      </trkpt>
      <trkpt lat="44.14731" lon="5.8835">
        <ele>580</ele>
        <time>2021-06-01T06:48:57.000Z</time>
      </trkpt>
      <trkpt lat="44.1473" lon="5.88352">
        <ele>580</ele>
        <time>2021-06-01T06:48:58.000Z</time>
      </trkpt>
      <trkpt lat="44.1473" lon="5.88353">
        <ele>580</ele>
        <time>2021-06-01T06:48:59.000Z</time>
      </trkpt>
      <trkpt lat="44.1473" lon="5.88354">
        <ele>580</ele>
        <time>2021-06-01T06:49:00.000Z</time>
      </trkpt>
      <trkpt lat="44.14729" lon="5.88355">
        <ele>580</ele>
        <time>2021-06-01T06:49:01.000Z</time>
      </trkpt>
      <trkpt lat="44.14729" lon="5.88357">
        <ele>580</ele>
        <time>2021-06-01T06:49:02.000Z</time>
      </trkpt>
      <trkpt lat="44.14729" lon="5.88358">
        <ele>580</ele>
        <time>2021-06-01T06:49:03.000Z</time>
      </trkpt>
      <trkpt lat="44.14728" lon="5.88359">
        <ele>580</ele>
        <time>2021-06-01T06:49:04.000Z</time>
      </trkpt>
      <trkpt lat="44.14728" lon="5.8836">
        <ele>580</ele>
        <time>2021-06-01T06:49:05.000Z</time>
      </trkpt>
      <trkpt lat="44.14727" lon="5.88362">
        <ele>580</ele>
        <time>2021-06-01T06:49:06.000Z</time>
      </trkpt>
      <trkpt lat="44.14727" lon="5.88363">
        <ele>580</ele>
        <time>2021-06-01T06:49:07.000Z</time>
      </trkpt>
      <trkpt lat="44.14726" lon="5.88364">
        <ele>580</ele>
        <time>2021-06-01T06:49:08.000Z</time>
      </trkpt>
      <trkpt lat="44.14726" lon="5.88365">
        <ele>580</ele>
        <time>2021-06-01T06:49:09.000Z</time>
      </trkpt>
      <trkpt lat="44.14725" lon="5.88367">
        <ele>580</ele>
        <time>2021-06-01T06:49:10.000Z</time>
      </trkpt>
      <trkpt lat="44.14725" lon="5.88368">
        <ele>580</ele>
        <time>2021-06-01T06:49:11.000Z</time>
      </trkpt>
      <trkpt lat="44.14725" lon="5.88369">
        <ele>580</ele>
        <time>2021-06-01T06:49:12.000Z</time>
      </trkpt>
      <trkpt lat="44.14724" lon="5.88371">
        <ele>580</ele>
        <time>2021-06-01T06:49:13.000Z</time>
      </trkpt>
      <trkpt lat="44.14724" lon="5.88372">
        <ele>580</ele>
        <time>2021-06-01T06:49:14.000Z</time>
      </trkpt>
      <trkpt lat="44.14723" lon="5.88373">
        <ele>581</ele>
        <time>2021-06-01T06:49:15.000Z</time>
      </trkpt>
      <trkpt lat="44.14723" lon="5.88375">
        <ele>581</ele>
        <time>2021-06-01T06:49:16.000Z</time>
      </trkpt>
      <trkpt lat="44.14722" lon="5.88376">
        <ele>581</ele>
        <time>2021-06-01T06:49:17.000Z</time>
      </trkpt>
      <trkpt lat="44.14722" lon="5.88377">
        <ele>581</ele>
        <time>2021-06-01T06:49:18.000Z</time>
      </trkpt>
      <trkpt lat="44.14721" lon="5.88378">
        <ele>581</ele>
        <time>2021-06-01T06:49:19.000Z</time>
      </trkpt>
      <trkpt lat="44.14721" lon="5.8838">
        <ele>581</ele>
        <time>2021-06-01T06:49:20.000Z</time>
      </trkpt>
      <trkpt lat="44.1472" lon="5.88381">
        <ele>581</ele>
        <time>2021-06-01T06:49:21.000Z</time>
      </trkpt>
      <trkpt lat="44.14719" lon="5.88382">
        <ele>581</ele>
        <time>2021-06-01T06:49:22.000Z</time>
      </trkpt>
      <trkpt lat="44.14719" lon="5.88383">
        <ele>581</ele>
        <time>2021-06-01T06:49:23.000Z</time>
      </trkpt>
      <trkpt lat="44.14718" lon="5.88384">
        <ele>581</ele>
        <time>2021-06-01T06:49:24.000Z</time>
      </trkpt>
      <trkpt lat="44.14717" lon="5.88385">
        <ele>581</ele>
        <time>2021-06-01T06:49:25.000Z</time>
      </trkpt>
      <trkpt lat="44.14717" lon="5.88386">
        <ele>581</ele>
        <time>2021-06-01T06:49:26.000Z</time>
      </trkpt>
      <trkpt lat="44.14716" lon="5.88387">
        <ele>581</ele>
        <time>2021-06-01T06:49:27.000Z</time>
      </trkpt>
      <trkpt lat="44.14715" lon="5.88388">
        <ele>581</ele>
        <time>2021-06-01T06:49:28.000Z</time>
      </trkpt>
      <trkpt lat="44.14715" lon="5.8839">
        <ele>581</ele>
        <time>2021-06-01T06:49:29.000Z</time>
      </trkpt>
      <trkpt lat="44.14714" lon="5.88391">
        <ele>581</ele>
        <time>2021-06-01T06:49:30.000Z</time>
      </trkpt>
      <trkpt lat="44.14714" lon="5.88392">
        <ele>581</ele>
        <time>2021-06-01T06:49:31.000Z</time>
      </trkpt>
      <trkpt lat="44.14713" lon="5.88393">
        <ele>581</ele>
        <time>2021-06-01T06:49:32.000Z</time>
      </trkpt>
      <trkpt lat="44.14712" lon="5.88394">
        <ele>582</ele>
        <time>2021-06-01T06:49:33.000Z</time>
      </trkpt>
      <trkpt lat="44.14712" lon="5.88395">
        <ele>582</ele>
        <time>2021-06-01T06:49:34.000Z</time>
      </trkpt>
      <trkpt lat="44.14711" lon="5.88396">
        <ele>582</ele>
        <time>2021-06-01T06:49:35.000Z</time>
      </trkpt>
      <trkpt lat="44.1471" lon="5.88398">
        <ele>582</ele>
        <time>2021-06-01T06:49:36.000Z</time>
      </trkpt>
      <trkpt lat="44.1471" lon="5.88399">
        <ele>582</ele>
        <time>2021-06-01T06:49:37.000Z</time>
      </trkpt>
      <trkpt lat="44.14709" lon="5.884">
        <ele>582</ele>
        <time>2021-06-01T06:49:38.000Z</time>
      </trkpt>
      <trkpt lat="44.14708" lon="5.88402">
        <ele>582</ele>
        <time>2021-06-01T06:49:39.000Z</time>
      </trkpt>
      <trkpt lat="44.14708" lon="5.88403">
        <ele>582</ele>
        <time>2021-06-01T06:49:40.000Z</time>
      </trkpt>
      <trkpt lat="44.14707" lon="5.88404">
        <ele>582</ele>
        <time>2021-06-01T06:49:41.000Z</time>
      </trkpt>
      <trkpt lat="44.14706" lon="5.88405">
        <ele>582</ele>
        <time>2021-06-01T06:49:42.000Z</time>
      </trkpt>
      <trkpt lat="44.14705" lon="5.88407">
        <ele>582</ele>
        <time>2021-06-01T06:49:43.000Z</time>
      </trkpt>
      <trkpt lat="44.14705" lon="5.88408">
        <ele>582</ele>
        <time>2021-06-01T06:49:44.000Z</time>
      </trkpt>
      <trkpt lat="44.14704" lon="5.88409">
        <ele>583</ele>
        <time>2021-06-01T06:49:45.000Z</time>
      </trkpt>
      <trkpt lat="44.14703" lon="5.8841">
        <ele>583</ele>
        <time>2021-06-01T06:49:46.000Z</time>
      </trkpt>
      <trkpt lat="44.14703" lon="5.88411">
        <ele>583</ele>
        <time>2021-06-01T06:49:47.000Z</time>
      </trkpt>
      <trkpt lat="44.14702" lon="5.88413">
        <ele>583</ele>
        <time>2021-06-01T06:49:48.000Z</time>
      </trkpt>
      <trkpt lat="44.14701" lon="5.88414">
        <ele>583</ele>
        <time>2021-06-01T06:49:49.000Z</time>
      </trkpt>
      <trkpt lat="44.14701" lon="5.88415">
        <ele>583</ele>
        <time>2021-06-01T06:49:50.000Z</time>
      </trkpt>
      <trkpt lat="44.147" lon="5.88416">
        <ele>583</ele>
        <time>2021-06-01T06:49:51.000Z</time>
      </trkpt>
      <trkpt lat="44.14699" lon="5.88417">
        <ele>583</ele>
        <time>2021-06-01T06:49:52.000Z</time>
      </trkpt>
      <trkpt lat="44.14698" lon="5.88419">
        <ele>583</ele>
        <time>2021-06-01T06:49:53.000Z</time>
      </trkpt>
      <trkpt lat="44.14697" lon="5.8842">
        <ele>583</ele>
        <time>2021-06-01T06:49:54.000Z</time>
      </trkpt>
      <trkpt lat="44.14697" lon="5.88421">
        <ele>583</ele>
        <time>2021-06-01T06:49:55.000Z</time>
      </trkpt>
      <trkpt lat="44.14696" lon="5.88423">
        <ele>583</ele>
        <time>2021-06-01T06:49:56.000Z</time>
      </trkpt>
      <trkpt lat="44.14695" lon="5.88424">
        <ele>583</ele>
        <time>2021-06-01T06:49:57.000Z</time>
      </trkpt>
      <trkpt lat="44.14695" lon="5.88425">
        <ele>583</ele>
        <time>2021-06-01T06:49:58.000Z</time>
      </trkpt>
      <trkpt lat="44.14694" lon="5.88426">
        <ele>583</ele>
        <time>2021-06-01T06:49:59.000Z</time>
      </trkpt>
      <trkpt lat="44.14693" lon="5.88428">
        <ele>583</ele>
        <time>2021-06-01T06:50:00.000Z</time>
      </trkpt>
      <trkpt lat="44.14693" lon="5.88429">
        <ele>583</ele>
        <time>2021-06-01T06:50:01.000Z</time>
      </trkpt>
      <trkpt lat="44.14692" lon="5.88431">
        <ele>583</ele>
        <time>2021-06-01T06:50:02.000Z</time>
      </trkpt>
      <trkpt lat="44.14691" lon="5.88432">
        <ele>584</ele>
        <time>2021-06-01T06:50:03.000Z</time>
      </trkpt>
      <trkpt lat="44.14691" lon="5.88434">
        <ele>584</ele>
        <time>2021-06-01T06:50:04.000Z</time>
      </trkpt>
      <trkpt lat="44.1469" lon="5.88435">
        <ele>584</ele>
        <time>2021-06-01T06:50:05.000Z</time>
      </trkpt>
      <trkpt lat="44.1469" lon="5.88437">
        <ele>584</ele>
        <time>2021-06-01T06:50:06.000Z</time>
      </trkpt>
      <trkpt lat="44.14689" lon="5.88438">
        <ele>584</ele>
        <time>2021-06-01T06:50:07.000Z</time>
      </trkpt>
      <trkpt lat="44.14688" lon="5.88439">
        <ele>584</ele>
        <time>2021-06-01T06:50:08.000Z</time>
      </trkpt>
      <trkpt lat="44.14688" lon="5.88441">
        <ele>584</ele>
        <time>2021-06-01T06:50:09.000Z</time>
      </trkpt>
      <trkpt lat="44.14688" lon="5.88442">
        <ele>584</ele>
        <time>2021-06-01T06:50:10.000Z</time>
      </trkpt>
      <trkpt lat="44.14687" lon="5.88443">
        <ele>584</ele>
        <time>2021-06-01T06:50:11.000Z</time>
      </trkpt>
      <trkpt lat="44.14687" lon="5.88445">
        <ele>584</ele>
        <time>2021-06-01T06:50:12.000Z</time>
      </trkpt>
      <trkpt lat="44.14686" lon="5.88446">
        <ele>584</ele>
        <time>2021-06-01T06:50:13.000Z</time>
      </trkpt>
      <trkpt lat="44.14685" lon="5.88447">
        <ele>584</ele>
        <time>2021-06-01T06:50:14.000Z</time>
      </trkpt>
      <trkpt lat="44.14685" lon="5.88449">
        <ele>584</ele>
        <time>2021-06-01T06:50:15.000Z</time>
      </trkpt>
      <trkpt lat="44.14684" lon="5.8845">
        <ele>584</ele>
        <time>2021-06-01T06:50:16.000Z</time>
      </trkpt>
      <trkpt lat="44.14684" lon="5.88451">
        <ele>584</ele>
        <time>2021-06-01T06:50:17.000Z</time>
      </trkpt>
      <trkpt lat="44.14684" lon="5.88453">
        <ele>584</ele>
        <time>2021-06-01T06:50:18.000Z</time>
      </trkpt>
      <trkpt lat="44.14683" lon="5.88454">
        <ele>584</ele>
        <time>2021-06-01T06:50:19.000Z</time>
      </trkpt>
      <trkpt lat="44.14683" lon="5.88455">
        <ele>584</ele>
        <time>2021-06-01T06:50:20.000Z</time>
      </trkpt>
      <trkpt lat="44.14682" lon="5.88457">
        <ele>584</ele>
        <time>2021-06-01T06:50:21.000Z</time>
      </trkpt>
      <trkpt lat="44.14682" lon="5.88458">
        <ele>585</ele>
        <time>2021-06-01T06:50:22.000Z</time>
      </trkpt>
      <trkpt lat="44.14681" lon="5.88459">
        <ele>585</ele>
        <time>2021-06-01T06:50:23.000Z</time>
      </trkpt>
      <trkpt lat="44.14681" lon="5.88461">
        <ele>585</ele>
        <time>2021-06-01T06:50:24.000Z</time>
      </trkpt>
      <trkpt lat="44.14681" lon="5.88462">
        <ele>585</ele>
        <time>2021-06-01T06:50:25.000Z</time>
      </trkpt>
      <trkpt lat="44.1468" lon="5.88463">
        <ele>585</ele>
        <time>2021-06-01T06:50:26.000Z</time>
      </trkpt>
      <trkpt lat="44.1468" lon="5.88465">
        <ele>585</ele>
        <time>2021-06-01T06:50:27.000Z</time>
      </trkpt>
      <trkpt lat="44.14679" lon="5.88466">
        <ele>585</ele>
        <time>2021-06-01T06:50:28.000Z</time>
      </trkpt>
      <trkpt lat="44.14679" lon="5.88467">
        <ele>585</ele>
        <time>2021-06-01T06:50:29.000Z</time>
      </trkpt>
      <trkpt lat="44.14679" lon="5.88469">
        <ele>585</ele>
        <time>2021-06-01T06:50:30.000Z</time>
      </trkpt>
      <trkpt lat="44.14679" lon="5.8847">
        <ele>585</ele>
        <time>2021-06-01T06:50:31.000Z</time>
      </trkpt>
      <trkpt lat="44.14678" lon="5.88471">
        <ele>585</ele>
        <time>2021-06-01T06:50:32.000Z</time>
      </trkpt>
      <trkpt lat="44.14678" lon="5.88473">
        <ele>585</ele>
        <time>2021-06-01T06:50:33.000Z</time>
      </trkpt>
      <trkpt lat="44.14678" lon="5.88474">
        <ele>585</ele>
        <time>2021-06-01T06:50:34.000Z</time>
      </trkpt>
      <trkpt lat="44.14678" lon="5.88476">
        <ele>585</ele>
        <time>2021-06-01T06:50:35.000Z</time>
      </trkpt>
      <trkpt lat="44.14677" lon="5.88477">
        <ele>585</ele>
        <time>2021-06-01T06:50:36.000Z</time>
      </trkpt>
      <trkpt lat="44.14677" lon="5.88479">
        <ele>585</ele>
        <time>2021-06-01T06:50:37.000Z</time>
      </trkpt>
      <trkpt lat="44.14677" lon="5.8848">
        <ele>585</ele>
        <time>2021-06-01T06:50:38.000Z</time>
      </trkpt>
      <trkpt lat="44.14677" lon="5.88481">
        <ele>585</ele>
        <time>2021-06-01T06:50:39.000Z</time>
      </trkpt>
      <trkpt lat="44.14676" lon="5.88483">
        <ele>585</ele>
        <time>2021-06-01T06:50:40.000Z</time>
      </trkpt>
      <trkpt lat="44.14676" lon="5.88484">
        <ele>585</ele>
        <time>2021-06-01T06:50:41.000Z</time>
      </trkpt>
      <trkpt lat="44.14676" lon="5.88486">
        <ele>585</ele>
        <time>2021-06-01T06:50:42.000Z</time>
      </trkpt>
      <trkpt lat="44.14676" lon="5.88487">
        <ele>585</ele>
        <time>2021-06-01T06:50:43.000Z</time>
      </trkpt>
      <trkpt lat="44.14675" lon="5.88489">
        <ele>585</ele>
        <time>2021-06-01T06:50:44.000Z</time>
      </trkpt>
      <trkpt lat="44.14675" lon="5.8849">
        <ele>585</ele>
        <time>2021-06-01T06:50:45.000Z</time>
      </trkpt>
      <trkpt lat="44.14675" lon="5.88492">
        <ele>585</ele>
        <time>2021-06-01T06:50:46.000Z</time>
      </trkpt>
      <trkpt lat="44.14675" lon="5.88493">
        <ele>585</ele>
        <time>2021-06-01T06:50:47.000Z</time>
      </trkpt>
      <trkpt lat="44.14675" lon="5.88495">
        <ele>585</ele>
        <time>2021-06-01T06:50:48.000Z</time>
      </trkpt>
      <trkpt lat="44.14674" lon="5.88496">
        <ele>585</ele>
        <time>2021-06-01T06:50:49.000Z</time>
      </trkpt>
      <trkpt lat="44.14674" lon="5.88498">
        <ele>585</ele>
        <time>2021-06-01T06:50:50.000Z</time>
      </trkpt>
      <trkpt lat="44.14674" lon="5.88499">
        <ele>585</ele>
        <time>2021-06-01T06:50:51.000Z</time>
      </trkpt>
      <trkpt lat="44.14673" lon="5.88501">
        <ele>585</ele>
        <time>2021-06-01T06:50:52.000Z</time>
      </trkpt>
      <trkpt lat="44.14673" lon="5.88502">
        <ele>585</ele>
        <time>2021-06-01T06:50:53.000Z</time>
      </trkpt>
      <trkpt lat="44.14673" lon="5.88504">
        <ele>585</ele>
        <time>2021-06-01T06:50:54.000Z</time>
      </trkpt>
      <trkpt lat="44.14672" lon="5.88505">
        <ele>585</ele>
        <time>2021-06-01T06:50:55.000Z</time>
      </trkpt>
      <trkpt lat="44.14672" lon="5.88507">
        <ele>585</ele>
        <time>2021-06-01T06:50:56.000Z</time>
      </trkpt>
      <trkpt lat="44.14672" lon="5.88509">
        <ele>585</ele>
        <time>2021-06-01T06:50:57.000Z</time>
      </trkpt>
      <trkpt lat="44.14672" lon="5.8851">
        <ele>585</ele>
        <time>2021-06-01T06:50:58.000Z</time>
      </trkpt>
      <trkpt lat="44.14671" lon="5.88512">
        <ele>585</ele>
        <time>2021-06-01T06:50:59.000Z</time>
      </trkpt>
      <trkpt lat="44.14671" lon="5.88513">
        <ele>585</ele>
        <time>2021-06-01T06:51:00.000Z</time>
      </trkpt>
      <trkpt lat="44.1467" lon="5.88514">
        <ele>585</ele>
        <time>2021-06-01T06:51:01.000Z</time>
      </trkpt>
      <trkpt lat="44.1467" lon="5.88516">
        <ele>585</ele>
        <time>2021-06-01T06:51:02.000Z</time>
      </trkpt>
      <trkpt lat="44.14669" lon="5.88517">
        <ele>585</ele>
        <time>2021-06-01T06:51:03.000Z</time>
      </trkpt>
      <trkpt lat="44.14669" lon="5.88519">
        <ele>585</ele>
        <time>2021-06-01T06:51:04.000Z</time>
      </trkpt>
      <trkpt lat="44.14668" lon="5.8852">
        <ele>585</ele>
        <time>2021-06-01T06:51:05.000Z</time>
      </trkpt>
      <trkpt lat="44.14668" lon="5.88522">
        <ele>585</ele>
        <time>2021-06-01T06:51:06.000Z</time>
      </trkpt>
      <trkpt lat="44.14668" lon="5.88523">
        <ele>585</ele>
        <time>2021-06-01T06:51:07.000Z</time>
      </trkpt>
      <trkpt lat="44.14667" lon="5.88525">
        <ele>585</ele>
        <time>2021-06-01T06:51:08.000Z</time>
      </trkpt>
      <trkpt lat="44.14666" lon="5.88526">
        <ele>585</ele>
        <time>2021-06-01T06:51:09.000Z</time>
      </trkpt>
      <trkpt lat="44.14666" lon="5.88528">
        <ele>585</ele>
        <time>2021-06-01T06:51:10.000Z</time>
      </trkpt>
      <trkpt lat="44.14665" lon="5.88529">
        <ele>585</ele>
        <time>2021-06-01T06:51:11.000Z</time>
      </trkpt>
      <trkpt lat="44.14665" lon="5.8853">
        <ele>585</ele>
        <time>2021-06-01T06:51:12.000Z</time>
      </trkpt>
      <trkpt lat="44.14664" lon="5.88531">
        <ele>585</ele>
        <time>2021-06-01T06:51:13.000Z</time>
      </trkpt>
      <trkpt lat="44.14664" lon="5.88533">
        <ele>585</ele>
        <time>2021-06-01T06:51:14.000Z</time>
      </trkpt>
      <trkpt lat="44.14663" lon="5.88534">
        <ele>585</ele>
        <time>2021-06-01T06:51:15.000Z</time>
      </trkpt>
      <trkpt lat="44.14663" lon="5.88535">
        <ele>585</ele>
        <time>2021-06-01T06:51:16.000Z</time>
      </trkpt>
      <trkpt lat="44.14662" lon="5.88537">
        <ele>584</ele>
        <time>2021-06-01T06:51:17.000Z</time>
      </trkpt>
      <trkpt lat="44.14662" lon="5.88538">
        <ele>584</ele>
        <time>2021-06-01T06:51:18.000Z</time>
      </trkpt>
      <trkpt lat="44.14661" lon="5.88539">
        <ele>584</ele>
        <time>2021-06-01T06:51:19.000Z</time>
      </trkpt>
      <trkpt lat="44.14661" lon="5.88541">
        <ele>584</ele>
        <time>2021-06-01T06:51:20.000Z</time>
      </trkpt>
      <trkpt lat="44.14661" lon="5.88542">
        <ele>584</ele>
        <time>2021-06-01T06:51:21.000Z</time>
      </trkpt>
      <trkpt lat="44.14661" lon="5.88543">
        <ele>584</ele>
        <time>2021-06-01T06:51:22.000Z</time>
      </trkpt>
      <trkpt lat="44.14661" lon="5.88544">
        <ele>584</ele>
        <time>2021-06-01T06:51:23.000Z</time>
      </trkpt>
      <trkpt lat="44.14661" lon="5.88545">
        <ele>584</ele>
        <time>2021-06-01T06:51:24.000Z</time>
      </trkpt>
      <trkpt lat="44.14661" lon="5.88547">
        <ele>584</ele>
        <time>2021-06-01T06:51:25.000Z</time>
      </trkpt>
      <trkpt lat="44.1466" lon="5.88549">
        <ele>584</ele>
        <time>2021-06-01T06:51:26.000Z</time>
      </trkpt>
      <trkpt lat="44.1466" lon="5.8855">
        <ele>584</ele>
        <time>2021-06-01T06:51:27.000Z</time>
      </trkpt>
      <trkpt lat="44.14659" lon="5.88551">
        <ele>584</ele>
        <time>2021-06-01T06:51:28.000Z</time>
      </trkpt>
      <trkpt lat="44.14659" lon="5.88553">
        <ele>584</ele>
        <time>2021-06-01T06:51:29.000Z</time>
      </trkpt>
      <trkpt lat="44.14658" lon="5.88554">
        <ele>584</ele>
        <time>2021-06-01T06:51:30.000Z</time>
      </trkpt>
      <trkpt lat="44.14658" lon="5.88555">
        <ele>584</ele>
        <time>2021-06-01T06:51:31.000Z</time>
      </trkpt>
      <trkpt lat="44.14657" lon="5.88557">
        <ele>584</ele>
        <time>2021-06-01T06:51:32.000Z</time>
      </trkpt>
      <trkpt lat="44.14656" lon="5.88558">
        <ele>584</ele>
        <time>2021-06-01T06:51:33.000Z</time>
      </trkpt>
      <trkpt lat="44.14656" lon="5.88559">
        <ele>584</ele>
        <time>2021-06-01T06:51:34.000Z</time>
      </trkpt>
      <trkpt lat="44.14655" lon="5.8856">
        <ele>584</ele>
        <time>2021-06-01T06:51:35.000Z</time>
      </trkpt>
      <trkpt lat="44.14655" lon="5.88562">
        <ele>584</ele>
        <time>2021-06-01T06:51:36.000Z</time>
      </trkpt>
      <trkpt lat="44.14654" lon="5.88563">
        <ele>584</ele>
        <time>2021-06-01T06:51:37.000Z</time>
      </trkpt>
      <trkpt lat="44.14653" lon="5.88564">
        <ele>584</ele>
        <time>2021-06-01T06:51:38.000Z</time>
      </trkpt>
      <trkpt lat="44.14653" lon="5.88565">
        <ele>584</ele>
        <time>2021-06-01T06:51:39.000Z</time>
      </trkpt>
      <trkpt lat="44.14652" lon="5.88567">
        <ele>584</ele>
        <time>2021-06-01T06:51:40.000Z</time>
      </trkpt>
      <trkpt lat="44.14651" lon="5.88568">
        <ele>584</ele>
        <time>2021-06-01T06:51:41.000Z</time>
      </trkpt>
      <trkpt lat="44.14651" lon="5.88569">
        <ele>584</ele>
        <time>2021-06-01T06:51:42.000Z</time>
      </trkpt>
      <trkpt lat="44.1465" lon="5.8857">
        <ele>584</ele>
        <time>2021-06-01T06:51:43.000Z</time>
      </trkpt>
      <trkpt lat="44.14649" lon="5.88571">
        <ele>584</ele>
        <time>2021-06-01T06:51:44.000Z</time>
      </trkpt>
      <trkpt lat="44.14648" lon="5.88573">
        <ele>584</ele>
        <time>2021-06-01T06:51:45.000Z</time>
      </trkpt>
      <trkpt lat="44.14648" lon="5.88574">
        <ele>584</ele>
        <time>2021-06-01T06:51:46.000Z</time>
      </trkpt>
      <trkpt lat="44.14647" lon="5.88575">
        <ele>584</ele>
        <time>2021-06-01T06:51:47.000Z</time>
      </trkpt>
      <trkpt lat="44.14646" lon="5.88576">
        <ele>584</ele>
        <time>2021-06-01T06:51:48.000Z</time>
      </trkpt>
      <trkpt lat="44.14645" lon="5.88577">
        <ele>584</ele>
        <time>2021-06-01T06:51:49.000Z</time>
      </trkpt>
      <trkpt lat="44.14645" lon="5.88578">
        <ele>584</ele>
        <time>2021-06-01T06:51:50.000Z</time>
      </trkpt>
      <trkpt lat="44.14644" lon="5.8858">
        <ele>584</ele>
        <time>2021-06-01T06:51:51.000Z</time>
      </trkpt>
      <trkpt lat="44.14643" lon="5.88581">
        <ele>584</ele>
        <time>2021-06-01T06:51:52.000Z</time>
      </trkpt>
      <trkpt lat="44.14642" lon="5.88582">
        <ele>584</ele>
        <time>2021-06-01T06:51:53.000Z</time>
      </trkpt>
      <trkpt lat="44.14641" lon="5.88583">
        <ele>584</ele>
        <time>2021-06-01T06:51:54.000Z</time>
      </trkpt>
      <trkpt lat="44.14641" lon="5.88584">
        <ele>584</ele>
        <time>2021-06-01T06:51:55.000Z</time>
      </trkpt>
      <trkpt lat="44.1464" lon="5.88585">
        <ele>584</ele>
        <time>2021-06-01T06:51:56.000Z</time>
      </trkpt>
      <trkpt lat="44.14639" lon="5.88586">
        <ele>584</ele>
        <time>2021-06-01T06:51:57.000Z</time>
      </trkpt>
      <trkpt lat="44.14638" lon="5.88587">
        <ele>584</ele>
        <time>2021-06-01T06:51:58.000Z</time>
      </trkpt>
      <trkpt lat="44.14638" lon="5.88589">
        <ele>584</ele>
        <time>2021-06-01T06:51:59.000Z</time>
      </trkpt>
      <trkpt lat="44.14637" lon="5.8859">
        <ele>584</ele>
        <time>2021-06-01T06:52:00.000Z</time>
      </trkpt>
      <trkpt lat="44.14636" lon="5.8859">
        <ele>584</ele>
        <time>2021-06-01T06:52:01.000Z</time>
      </trkpt>
      <trkpt lat="44.14635" lon="5.88591">
        <ele>584</ele>
        <time>2021-06-01T06:52:02.000Z</time>
      </trkpt>
      <trkpt lat="44.14634" lon="5.88592">
        <ele>584</ele>
        <time>2021-06-01T06:52:03.000Z</time>
      </trkpt>
      <trkpt lat="44.14634" lon="5.88593">
        <ele>584</ele>
        <time>2021-06-01T06:52:04.000Z</time>
      </trkpt>
      <trkpt lat="44.14633" lon="5.88595">
        <ele>584</ele>
        <time>2021-06-01T06:52:05.000Z</time>
      </trkpt>
      <trkpt lat="44.14632" lon="5.88596">
        <ele>585</ele>
        <time>2021-06-01T06:52:06.000Z</time>
      </trkpt>
      <trkpt lat="44.14631" lon="5.88597">
        <ele>585</ele>
        <time>2021-06-01T06:52:07.000Z</time>
      </trkpt>
      <trkpt lat="44.14631" lon="5.88597">
        <ele>585</ele>
        <time>2021-06-01T06:52:08.000Z</time>
      </trkpt>
      <trkpt lat="44.1463" lon="5.88599">
        <ele>585</ele>
        <time>2021-06-01T06:52:09.000Z</time>
      </trkpt>
      <trkpt lat="44.14629" lon="5.886">
        <ele>585</ele>
        <time>2021-06-01T06:52:10.000Z</time>
      </trkpt>
      <trkpt lat="44.14628" lon="5.88601">
        <ele>585</ele>
        <time>2021-06-01T06:52:11.000Z</time>
      </trkpt>
      <trkpt lat="44.14628" lon="5.88602">
        <ele>585</ele>
        <time>2021-06-01T06:52:12.000Z</time>
      </trkpt>
      <trkpt lat="44.14627" lon="5.88603">
        <ele>586</ele>
        <time>2021-06-01T06:52:13.000Z</time>
      </trkpt>
      <trkpt lat="44.14626" lon="5.88604">
        <ele>586</ele>
        <time>2021-06-01T06:52:14.000Z</time>
      </trkpt>
      <trkpt lat="44.14625" lon="5.88605">
        <ele>586</ele>
        <time>2021-06-01T06:52:15.000Z</time>
      </trkpt>
      <trkpt lat="44.14624" lon="5.88606">
        <ele>586</ele>
        <time>2021-06-01T06:52:16.000Z</time>
      </trkpt>
      <trkpt lat="44.14624" lon="5.88607">
        <ele>586</ele>
        <time>2021-06-01T06:52:17.000Z</time>
      </trkpt>
      <trkpt lat="44.14623" lon="5.88608">
        <ele>586</ele>
        <time>2021-06-01T06:52:18.000Z</time>
      </trkpt>
      <trkpt lat="44.14622" lon="5.88609">
        <ele>587</ele>
        <time>2021-06-01T06:52:19.000Z</time>
      </trkpt>
      <trkpt lat="44.14621" lon="5.88609">
        <ele>587</ele>
        <time>2021-06-01T06:52:20.000Z</time>
      </trkpt>
      <trkpt lat="44.1462" lon="5.8861">
        <ele>587</ele>
        <time>2021-06-01T06:52:21.000Z</time>
      </trkpt>
      <trkpt lat="44.14619" lon="5.88611">
        <ele>587</ele>
        <time>2021-06-01T06:52:22.000Z</time>
      </trkpt>
      <trkpt lat="44.14618" lon="5.88611">
        <ele>587</ele>
        <time>2021-06-01T06:52:23.000Z</time>
      </trkpt>
      <trkpt lat="44.14618" lon="5.88612">
        <ele>587</ele>
        <time>2021-06-01T06:52:24.000Z</time>
      </trkpt>
      <trkpt lat="44.14617" lon="5.88613">
        <ele>587</ele>
        <time>2021-06-01T06:52:25.000Z</time>
      </trkpt>
      <trkpt lat="44.14616" lon="5.88613">
        <ele>587</ele>
        <time>2021-06-01T06:52:26.000Z</time>
      </trkpt>
      <trkpt lat="44.14615" lon="5.88614">
        <ele>587</ele>
        <time>2021-06-01T06:52:27.000Z</time>
      </trkpt>
      <trkpt lat="44.14615" lon="5.88614">
        <ele>588</ele>
        <time>2021-06-01T06:52:28.000Z</time>
      </trkpt>
      <trkpt lat="44.14614" lon="5.88615">
        <ele>588</ele>
        <time>2021-06-01T06:52:29.000Z</time>
      </trkpt>
      <trkpt lat="44.14613" lon="5.88615">
        <ele>588</ele>
        <time>2021-06-01T06:52:30.000Z</time>
      </trkpt>
      <trkpt lat="44.14612" lon="5.88616">
        <ele>588</ele>
        <time>2021-06-01T06:52:31.000Z</time>
      </trkpt>
      <trkpt lat="44.14611" lon="5.88616">
        <ele>588</ele>
        <time>2021-06-01T06:52:32.000Z</time>
      </trkpt>
      <trkpt lat="44.1461" lon="5.88617">
        <ele>588</ele>
        <time>2021-06-01T06:52:33.000Z</time>
      </trkpt>
      <trkpt lat="44.14609" lon="5.88618">
        <ele>588</ele>
        <time>2021-06-01T06:52:34.000Z</time>
      </trkpt>
      <trkpt lat="44.14608" lon="5.88618">
        <ele>588</ele>
        <time>2021-06-01T06:52:35.000Z</time>
      </trkpt>
      <trkpt lat="44.14607" lon="5.88619">
        <ele>588</ele>
        <time>2021-06-01T06:52:36.000Z</time>
      </trkpt>
      <trkpt lat="44.14606" lon="5.8862">
        <ele>589</ele>
        <time>2021-06-01T06:52:37.000Z</time>
      </trkpt>
      <trkpt lat="44.14605" lon="5.8862">
        <ele>589</ele>
        <time>2021-06-01T06:52:38.000Z</time>
      </trkpt>
      <trkpt lat="44.14604" lon="5.88621">
        <ele>588</ele>
        <time>2021-06-01T06:52:39.000Z</time>
      </trkpt>
      <trkpt lat="44.14604" lon="5.88621">
        <ele>588</ele>
        <time>2021-06-01T06:52:40.000Z</time>
      </trkpt>
      <trkpt lat="44.14603" lon="5.88622">
        <ele>588</ele>
        <time>2021-06-01T06:52:41.000Z</time>
      </trkpt>
      <trkpt lat="44.14602" lon="5.88623">
        <ele>588</ele>
        <time>2021-06-01T06:52:42.000Z</time>
      </trkpt>
      <trkpt lat="44.14601" lon="5.88624">
        <ele>588</ele>
        <time>2021-06-01T06:52:43.000Z</time>
      </trkpt>
      <trkpt lat="44.146" lon="5.88625">
        <ele>588</ele>
        <time>2021-06-01T06:52:44.000Z</time>
      </trkpt>
      <trkpt lat="44.146" lon="5.88626">
        <ele>588</ele>
        <time>2021-06-01T06:52:45.000Z</time>
      </trkpt>
      <trkpt lat="44.14599" lon="5.88626">
        <ele>588</ele>
        <time>2021-06-01T06:52:46.000Z</time>
      </trkpt>
      <trkpt lat="44.14598" lon="5.88627">
        <ele>588</ele>
        <time>2021-06-01T06:52:47.000Z</time>
      </trkpt>
      <trkpt lat="44.14597" lon="5.88627">
        <ele>589</ele>
        <time>2021-06-01T06:52:48.000Z</time>
      </trkpt>
      <trkpt lat="44.14597" lon="5.88628">
        <ele>589</ele>
        <time>2021-06-01T06:52:49.000Z</time>
      </trkpt>
      <trkpt lat="44.14596" lon="5.88629">
        <ele>589</ele>
        <time>2021-06-01T06:52:50.000Z</time>
      </trkpt>
      <trkpt lat="44.14595" lon="5.8863">
        <ele>589</ele>
        <time>2021-06-01T06:52:51.000Z</time>
      </trkpt>
      <trkpt lat="44.14594" lon="5.8863">
        <ele>589</ele>
        <time>2021-06-01T06:52:52.000Z</time>
      </trkpt>
      <trkpt lat="44.14594" lon="5.88631">
        <ele>589</ele>
        <time>2021-06-01T06:52:53.000Z</time>
      </trkpt>
      <trkpt lat="44.14593" lon="5.88632">
        <ele>589</ele>
        <time>2021-06-01T06:52:54.000Z</time>
      </trkpt>
      <trkpt lat="44.14592" lon="5.88632">
        <ele>589</ele>
        <time>2021-06-01T06:52:55.000Z</time>
      </trkpt>
      <trkpt lat="44.14591" lon="5.88633">
        <ele>589</ele>
        <time>2021-06-01T06:52:56.000Z</time>
      </trkpt>
      <trkpt lat="44.14591" lon="5.88634">
        <ele>589</ele>
        <time>2021-06-01T06:52:57.000Z</time>
      </trkpt>
      <trkpt lat="44.1459" lon="5.88634">
        <ele>589</ele>
        <time>2021-06-01T06:52:58.000Z</time>
      </trkpt>
      <trkpt lat="44.14589" lon="5.88635">
        <ele>589</ele>
        <time>2021-06-01T06:52:59.000Z</time>
      </trkpt>
      <trkpt lat="44.14588" lon="5.88636">
        <ele>589</ele>
        <time>2021-06-01T06:53:00.000Z</time>
      </trkpt>
      <trkpt lat="44.14588" lon="5.88636">
        <ele>589</ele>
        <time>2021-06-01T06:53:01.000Z</time>
      </trkpt>
      <trkpt lat="44.14587" lon="5.88637">
        <ele>589</ele>
        <time>2021-06-01T06:53:02.000Z</time>
      </trkpt>
      <trkpt lat="44.14586" lon="5.88638">
        <ele>589</ele>
        <time>2021-06-01T06:53:03.000Z</time>
      </trkpt>
      <trkpt lat="44.14585" lon="5.88639">
        <ele>589</ele>
        <time>2021-06-01T06:53:04.000Z</time>
      </trkpt>
      <trkpt lat="44.14584" lon="5.88639">
        <ele>589</ele>
        <time>2021-06-01T06:53:05.000Z</time>
      </trkpt>
      <trkpt lat="44.14583" lon="5.8864">
        <ele>589</ele>
        <time>2021-06-01T06:53:06.000Z</time>
      </trkpt>
      <trkpt lat="44.14583" lon="5.88641">
        <ele>589</ele>
        <time>2021-06-01T06:53:07.000Z</time>
      </trkpt>
      <trkpt lat="44.14582" lon="5.88641">
        <ele>589</ele>
        <time>2021-06-01T06:53:08.000Z</time>
      </trkpt>
      <trkpt lat="44.14581" lon="5.88642">
        <ele>589</ele>
        <time>2021-06-01T06:53:09.000Z</time>
      </trkpt>
      <trkpt lat="44.14581" lon="5.88643">
        <ele>589</ele>
        <time>2021-06-01T06:53:10.000Z</time>
      </trkpt>
      <trkpt lat="44.1458" lon="5.88644">
        <ele>589</ele>
        <time>2021-06-01T06:53:11.000Z</time>
      </trkpt>
      <trkpt lat="44.14579" lon="5.88644">
        <ele>589</ele>
        <time>2021-06-01T06:53:12.000Z</time>
      </trkpt>
      <trkpt lat="44.14578" lon="5.88645">
        <ele>589</ele>
        <time>2021-06-01T06:53:13.000Z</time>
      </trkpt>
      <trkpt lat="44.14578" lon="5.88646">
        <ele>589</ele>
        <time>2021-06-01T06:53:14.000Z</time>
      </trkpt>
      <trkpt lat="44.14577" lon="5.88647">
        <ele>589</ele>
        <time>2021-06-01T06:53:15.000Z</time>
      </trkpt>
      <trkpt lat="44.14577" lon="5.88648">
        <ele>589</ele>
        <time>2021-06-01T06:53:16.000Z</time>
      </trkpt>
      <trkpt lat="44.14576" lon="5.88649">
        <ele>589</ele>
        <time>2021-06-01T06:53:17.000Z</time>
      </trkpt>
      <trkpt lat="44.14575" lon="5.8865">
        <ele>589</ele>
        <time>2021-06-01T06:53:18.000Z</time>
      </trkpt>
      <trkpt lat="44.14575" lon="5.88651">
        <ele>590</ele>
        <time>2021-06-01T06:53:19.000Z</time>
      </trkpt>
      <trkpt lat="44.14574" lon="5.88652">
        <ele>590</ele>
        <time>2021-06-01T06:53:20.000Z</time>
      </trkpt>
      <trkpt lat="44.14574" lon="5.88653">
        <ele>590</ele>
        <time>2021-06-01T06:53:21.000Z</time>
      </trkpt>
      <trkpt lat="44.14573" lon="5.88654">
        <ele>590</ele>
        <time>2021-06-01T06:53:22.000Z</time>
      </trkpt>
      <trkpt lat="44.14572" lon="5.88655">
        <ele>590</ele>
        <time>2021-06-01T06:53:23.000Z</time>
      </trkpt>
      <trkpt lat="44.14572" lon="5.88655">
        <ele>590</ele>
        <time>2021-06-01T06:53:24.000Z</time>
      </trkpt>
      <trkpt lat="44.14571" lon="5.88656">
        <ele>590</ele>
        <time>2021-06-01T06:53:25.000Z</time>
      </trkpt>
      <trkpt lat="44.14571" lon="5.88657">
        <ele>590</ele>
        <time>2021-06-01T06:53:26.000Z</time>
      </trkpt>
      <trkpt lat="44.1457" lon="5.88658">
        <ele>590</ele>
        <time>2021-06-01T06:53:27.000Z</time>
      </trkpt>
      <trkpt lat="44.14569" lon="5.88659">
        <ele>590</ele>
        <time>2021-06-01T06:53:28.000Z</time>
      </trkpt>
      <trkpt lat="44.14568" lon="5.8866">
        <ele>590</ele>
        <time>2021-06-01T06:53:29.000Z</time>
      </trkpt>
      <trkpt lat="44.14568" lon="5.88661">
        <ele>591</ele>
        <time>2021-06-01T06:53:30.000Z</time>
      </trkpt>
      <trkpt lat="44.14567" lon="5.88661">
        <ele>591</ele>
        <time>2021-06-01T06:53:31.000Z</time>
      </trkpt>
      <trkpt lat="44.14566" lon="5.88662">
        <ele>591</ele>
        <time>2021-06-01T06:53:32.000Z</time>
      </trkpt>
      <trkpt lat="44.14565" lon="5.88662">
        <ele>591</ele>
        <time>2021-06-01T06:53:33.000Z</time>
      </trkpt>
      <trkpt lat="44.14565" lon="5.88663">
        <ele>591</ele>
        <time>2021-06-01T06:53:34.000Z</time>
      </trkpt>
      <trkpt lat="44.14564" lon="5.88664">
        <ele>591</ele>
        <time>2021-06-01T06:53:35.000Z</time>
      </trkpt>
      <trkpt lat="44.14563" lon="5.88664">
        <ele>591</ele>
        <time>2021-06-01T06:53:36.000Z</time>
      </trkpt>
      <trkpt lat="44.14563" lon="5.88665">
        <ele>592</ele>
        <time>2021-06-01T06:53:37.000Z</time>
      </trkpt>
      <trkpt lat="44.14562" lon="5.88666">
        <ele>592</ele>
        <time>2021-06-01T06:53:38.000Z</time>
      </trkpt>
      <trkpt lat="44.14561" lon="5.88667">
        <ele>592</ele>
        <time>2021-06-01T06:53:39.000Z</time>
      </trkpt>
      <trkpt lat="44.14561" lon="5.88668">
        <ele>592</ele>
        <time>2021-06-01T06:53:40.000Z</time>
      </trkpt>
      <trkpt lat="44.1456" lon="5.88668">
        <ele>592</ele>
        <time>2021-06-01T06:53:41.000Z</time>
      </trkpt>
      <trkpt lat="44.1456" lon="5.88669">
        <ele>592</ele>
        <time>2021-06-01T06:53:42.000Z</time>
      </trkpt>
      <trkpt lat="44.14559" lon="5.8867">
        <ele>593</ele>
        <time>2021-06-01T06:53:43.000Z</time>
      </trkpt>
      <trkpt lat="44.14559" lon="5.8867">
        <ele>593</ele>
        <time>2021-06-01T06:53:44.000Z</time>
      </trkpt>
      <trkpt lat="44.14558" lon="5.88671">
        <ele>593</ele>
        <time>2021-06-01T06:53:45.000Z</time>
      </trkpt>
      <trkpt lat="44.14558" lon="5.88672">
        <ele>593</ele>
        <time>2021-06-01T06:53:46.000Z</time>
      </trkpt>
      <trkpt lat="44.14558" lon="5.88673">
        <ele>594</ele>
        <time>2021-06-01T06:53:47.000Z</time>
      </trkpt>
      <trkpt lat="44.14557" lon="5.88674">
        <ele>594</ele>
        <time>2021-06-01T06:53:48.000Z</time>
      </trkpt>
      <trkpt lat="44.14557" lon="5.88675">
        <ele>594</ele>
        <time>2021-06-01T06:53:49.000Z</time>
      </trkpt>
      <trkpt lat="44.14556" lon="5.88676">
        <ele>594</ele>
        <time>2021-06-01T06:53:50.000Z</time>
      </trkpt>
      <trkpt lat="44.14556" lon="5.88677">
        <ele>595</ele>
        <time>2021-06-01T06:53:51.000Z</time>
      </trkpt>
      <trkpt lat="44.14555" lon="5.88678">
        <ele>595</ele>
        <time>2021-06-01T06:53:52.000Z</time>
      </trkpt>
      <trkpt lat="44.14555" lon="5.88679">
        <ele>595</ele>
        <time>2021-06-01T06:53:53.000Z</time>
      </trkpt>
      <trkpt lat="44.14554" lon="5.8868">
        <ele>595</ele>
        <time>2021-06-01T06:53:54.000Z</time>
      </trkpt>
      <trkpt lat="44.14553" lon="5.8868">
        <ele>596</ele>
        <time>2021-06-01T06:53:55.000Z</time>
      </trkpt>
      <trkpt lat="44.14553" lon="5.88681">
        <ele>596</ele>
        <time>2021-06-01T06:53:56.000Z</time>
      </trkpt>
      <trkpt lat="44.14552" lon="5.88682">
        <ele>596</ele>
        <time>2021-06-01T06:53:57.000Z</time>
      </trkpt>
      <trkpt lat="44.14551" lon="5.88682">
        <ele>596</ele>
        <time>2021-06-01T06:53:58.000Z</time>
      </trkpt>
      <trkpt lat="44.14551" lon="5.88683">
        <ele>597</ele>
        <time>2021-06-01T06:53:59.000Z</time>
      </trkpt>
      <trkpt lat="44.1455" lon="5.88684">
        <ele>597</ele>
        <time>2021-06-01T06:54:00.000Z</time>
      </trkpt>
      <trkpt lat="44.1455" lon="5.88684">
        <ele>597</ele>
        <time>2021-06-01T06:54:01.000Z</time>
      </trkpt>
      <trkpt lat="44.14549" lon="5.88685">
        <ele>597</ele>
        <time>2021-06-01T06:54:02.000Z</time>
      </trkpt>
      <trkpt lat="44.14548" lon="5.88686">
        <ele>597</ele>
        <time>2021-06-01T06:54:03.000Z</time>
      </trkpt>
      <trkpt lat="44.14548" lon="5.88687">
        <ele>597</ele>
        <time>2021-06-01T06:54:04.000Z</time>
      </trkpt>
      <trkpt lat="44.14547" lon="5.88687">
        <ele>597</ele>
        <time>2021-06-01T06:54:05.000Z</time>
      </trkpt>
      <trkpt lat="44.14546" lon="5.88687">
        <ele>598</ele>
        <time>2021-06-01T06:54:06.000Z</time>
      </trkpt>
      <trkpt lat="44.14545" lon="5.88688">
        <ele>598</ele>
        <time>2021-06-01T06:54:07.000Z</time>
      </trkpt>
      <trkpt lat="44.14545" lon="5.88689">
        <ele>598</ele>
        <time>2021-06-01T06:54:08.000Z</time>
      </trkpt>
      <trkpt lat="44.14544" lon="5.88689">
        <ele>598</ele>
        <time>2021-06-01T06:54:09.000Z</time>
      </trkpt>
      <trkpt lat="44.14543" lon="5.8869">
        <ele>598</ele>
        <time>2021-06-01T06:54:10.000Z</time>
      </trkpt>
      <trkpt lat="44.14542" lon="5.8869">
        <ele>599</ele>
        <time>2021-06-01T06:54:11.000Z</time>
      </trkpt>
      <trkpt lat="44.14541" lon="5.8869">
        <ele>599</ele>
        <time>2021-06-01T06:54:12.000Z</time>
      </trkpt>
      <trkpt lat="44.14541" lon="5.88689">
        <ele>599</ele>
        <time>2021-06-01T06:54:13.000Z</time>
      </trkpt>
      <trkpt lat="44.1454" lon="5.88689">
        <ele>599</ele>
        <time>2021-06-01T06:54:14.000Z</time>
      </trkpt>
      <trkpt lat="44.14539" lon="5.88689">
        <ele>599</ele>
        <time>2021-06-01T06:54:15.000Z</time>
      </trkpt>
      <trkpt lat="44.14539" lon="5.88689">
        <ele>599</ele>
        <time>2021-06-01T06:54:16.000Z</time>
      </trkpt>
      <trkpt lat="44.14538" lon="5.8869">
        <ele>600</ele>
        <time>2021-06-01T06:54:17.000Z</time>
      </trkpt>
      <trkpt lat="44.14537" lon="5.8869">
        <ele>600</ele>
        <time>2021-06-01T06:54:18.000Z</time>
      </trkpt>
      <trkpt lat="44.14536" lon="5.8869">
        <ele>600</ele>
        <time>2021-06-01T06:54:19.000Z</time>
      </trkpt>
      <trkpt lat="44.14535" lon="5.8869">
        <ele>600</ele>
        <time>2021-06-01T06:54:20.000Z</time>
      </trkpt>
      <trkpt lat="44.14535" lon="5.88691">
        <ele>600</ele>
        <time>2021-06-01T06:54:21.000Z</time>
      </trkpt>
      <trkpt lat="44.14534" lon="5.88691">
        <ele>600</ele>
        <time>2021-06-01T06:54:22.000Z</time>
      </trkpt>
      <trkpt lat="44.14533" lon="5.88691">
        <ele>600</ele>
        <time>2021-06-01T06:54:23.000Z</time>
      </trkpt>
      <trkpt lat="44.14532" lon="5.88692">
        <ele>600</ele>
        <time>2021-06-01T06:54:24.000Z</time>
      </trkpt>
      <trkpt lat="44.14531" lon="5.88692">
        <ele>600</ele>
        <time>2021-06-01T06:54:25.000Z</time>
      </trkpt>
      <trkpt lat="44.14531" lon="5.88693">
        <ele>600</ele>
        <time>2021-06-01T06:54:26.000Z</time>
      </trkpt>
      <trkpt lat="44.1453" lon="5.88693">
        <ele>600</ele>
        <time>2021-06-01T06:54:27.000Z</time>
      </trkpt>
      <trkpt lat="44.14529" lon="5.88693">
        <ele>600</ele>
        <time>2021-06-01T06:54:28.000Z</time>
      </trkpt>
      <trkpt lat="44.14528" lon="5.88693">
        <ele>600</ele>
        <time>2021-06-01T06:54:29.000Z</time>
      </trkpt>
      <trkpt lat="44.14527" lon="5.88694">
        <ele>600</ele>
        <time>2021-06-01T06:54:30.000Z</time>
      </trkpt>
      <trkpt lat="44.14527" lon="5.88695">
        <ele>600</ele>
        <time>2021-06-01T06:54:31.000Z</time>
      </trkpt>
      <trkpt lat="44.14526" lon="5.88695">
        <ele>600</ele>
        <time>2021-06-01T06:54:32.000Z</time>
      </trkpt>
      <trkpt lat="44.14525" lon="5.88696">
        <ele>600</ele>
        <time>2021-06-01T06:54:33.000Z</time>
      </trkpt>
      <trkpt lat="44.14524" lon="5.88696">
        <ele>601</ele>
        <time>2021-06-01T06:54:34.000Z</time>
      </trkpt>
      <trkpt lat="44.14524" lon="5.88697">
        <ele>601</ele>
        <time>2021-06-01T06:54:35.000Z</time>
      </trkpt>
      <trkpt lat="44.14523" lon="5.88697">
        <ele>601</ele>
        <time>2021-06-01T06:54:36.000Z</time>
      </trkpt>
      <trkpt lat="44.14522" lon="5.88697">
        <ele>601</ele>
        <time>2021-06-01T06:54:37.000Z</time>
      </trkpt>
      <trkpt lat="44.14521" lon="5.88697">
        <ele>601</ele>
        <time>2021-06-01T06:54:38.000Z</time>
      </trkpt>
      <trkpt lat="44.1452" lon="5.88696">
        <ele>602</ele>
        <time>2021-06-01T06:54:39.000Z</time>
      </trkpt>
      <trkpt lat="44.1452" lon="5.88696">
        <ele>602</ele>
        <time>2021-06-01T06:54:40.000Z</time>
      </trkpt>
      <trkpt lat="44.14519" lon="5.88696">
        <ele>602</ele>
        <time>2021-06-01T06:54:41.000Z</time>
      </trkpt>
      <trkpt lat="44.14518" lon="5.88695">
        <ele>602</ele>
        <time>2021-06-01T06:54:42.000Z</time>
      </trkpt>
      <trkpt lat="44.14517" lon="5.88695">
        <ele>602</ele>
        <time>2021-06-01T06:54:43.000Z</time>
      </trkpt>
      <trkpt lat="44.14517" lon="5.88694">
        <ele>602</ele>
        <time>2021-06-01T06:54:44.000Z</time>
      </trkpt>
      <trkpt lat="44.14516" lon="5.88694">
        <ele>603</ele>
        <time>2021-06-01T06:54:45.000Z</time>
      </trkpt>
      <trkpt lat="44.14515" lon="5.88693">
        <ele>603</ele>
        <time>2021-06-01T06:54:46.000Z</time>
      </trkpt>
      <trkpt lat="44.14515" lon="5.88692">
        <ele>603</ele>
        <time>2021-06-01T06:54:47.000Z</time>
      </trkpt>
      <trkpt lat="44.14514" lon="5.88691">
        <ele>603</ele>
        <time>2021-06-01T06:54:48.000Z</time>
      </trkpt>
      <trkpt lat="44.14514" lon="5.88691">
        <ele>603</ele>
        <time>2021-06-01T06:54:49.000Z</time>
      </trkpt>
      <trkpt lat="44.14513" lon="5.8869">
        <ele>603</ele>
        <time>2021-06-01T06:54:50.000Z</time>
      </trkpt>
      <trkpt lat="44.14513" lon="5.88689">
        <ele>603</ele>
        <time>2021-06-01T06:54:51.000Z</time>
      </trkpt>
      <trkpt lat="44.14512" lon="5.88688">
        <ele>603</ele>
        <time>2021-06-01T06:54:52.000Z</time>
      </trkpt>
      <trkpt lat="44.14511" lon="5.88687">
        <ele>603</ele>
        <time>2021-06-01T06:54:53.000Z</time>
      </trkpt>
      <trkpt lat="44.14511" lon="5.88686">
        <ele>603</ele>
        <time>2021-06-01T06:54:54.000Z</time>
      </trkpt>
      <trkpt lat="44.1451" lon="5.88686">
        <ele>603</ele>
        <time>2021-06-01T06:54:55.000Z</time>
      </trkpt>
      <trkpt lat="44.1451" lon="5.88685">
        <ele>603</ele>
        <time>2021-06-01T06:54:56.000Z</time>
      </trkpt>
      <trkpt lat="44.14509" lon="5.88684">
        <ele>603</ele>
        <time>2021-06-01T06:54:57.000Z</time>
      </trkpt>
      <trkpt lat="44.14509" lon="5.88684">
        <ele>603</ele>
        <time>2021-06-01T06:54:58.000Z</time>
      </trkpt>
      <trkpt lat="44.14508" lon="5.88683">
        <ele>603</ele>
        <time>2021-06-01T06:54:59.000Z</time>
      </trkpt>
      <trkpt lat="44.14507" lon="5.88682">
        <ele>602</ele>
        <time>2021-06-01T06:55:00.000Z</time>
      </trkpt>
      <trkpt lat="44.14506" lon="5.88682">
        <ele>602</ele>
        <time>2021-06-01T06:55:01.000Z</time>
      </trkpt>
      <trkpt lat="44.14505" lon="5.88681">
        <ele>602</ele>
        <time>2021-06-01T06:55:02.000Z</time>
      </trkpt>
      <trkpt lat="44.14505" lon="5.88681">
        <ele>602</ele>
        <time>2021-06-01T06:55:03.000Z</time>
      </trkpt>
      <trkpt lat="44.14504" lon="5.8868">
        <ele>603</ele>
        <time>2021-06-01T06:55:04.000Z</time>
      </trkpt>
      <trkpt lat="44.14503" lon="5.88679">
        <ele>603</ele>
        <time>2021-06-01T06:55:05.000Z</time>
      </trkpt>
      <trkpt lat="44.14502" lon="5.88679">
        <ele>603</ele>
        <time>2021-06-01T06:55:06.000Z</time>
      </trkpt>
      <trkpt lat="44.14502" lon="5.88678">
        <ele>603</ele>
        <time>2021-06-01T06:55:07.000Z</time>
      </trkpt>
      <trkpt lat="44.14501" lon="5.88677">
        <ele>603</ele>
        <time>2021-06-01T06:55:08.000Z</time>
      </trkpt>
      <trkpt lat="44.145" lon="5.88677">
        <ele>603</ele>
        <time>2021-06-01T06:55:09.000Z</time>
      </trkpt>
      <trkpt lat="44.14499" lon="5.88676">
        <ele>603</ele>
        <time>2021-06-01T06:55:10.000Z</time>
      </trkpt>
      <trkpt lat="44.14498" lon="5.88675">
        <ele>603</ele>
        <time>2021-06-01T06:55:11.000Z</time>
      </trkpt>
      <trkpt lat="44.14498" lon="5.88675">
        <ele>603</ele>
        <time>2021-06-01T06:55:12.000Z</time>
      </trkpt>
      <trkpt lat="44.14497" lon="5.88674">
        <ele>604</ele>
        <time>2021-06-01T06:55:13.000Z</time>
      </trkpt>
      <trkpt lat="44.14496" lon="5.88673">
        <ele>604</ele>
        <time>2021-06-01T06:55:14.000Z</time>
      </trkpt>
      <trkpt lat="44.14495" lon="5.88673">
        <ele>604</ele>
        <time>2021-06-01T06:55:15.000Z</time>
      </trkpt>
      <trkpt lat="44.14494" lon="5.88672">
        <ele>604</ele>
        <time>2021-06-01T06:55:16.000Z</time>
      </trkpt>
      <trkpt lat="44.14493" lon="5.88671">
        <ele>604</ele>
        <time>2021-06-01T06:55:17.000Z</time>
      </trkpt>
      <trkpt lat="44.14493" lon="5.88671">
        <ele>604</ele>
        <time>2021-06-01T06:55:18.000Z</time>
      </trkpt>
      <trkpt lat="44.14492" lon="5.8867">
        <ele>604</ele>
        <time>2021-06-01T06:55:19.000Z</time>
      </trkpt>
      <trkpt lat="44.14491" lon="5.88669">
        <ele>605</ele>
        <time>2021-06-01T06:55:20.000Z</time>
      </trkpt>
      <trkpt lat="44.14491" lon="5.88668">
        <ele>605</ele>
        <time>2021-06-01T06:55:21.000Z</time>
      </trkpt>
      <trkpt lat="44.1449" lon="5.88668">
        <ele>605</ele>
        <time>2021-06-01T06:55:22.000Z</time>
      </trkpt>
      <trkpt lat="44.14489" lon="5.88667">
        <ele>605</ele>
        <time>2021-06-01T06:55:23.000Z</time>
      </trkpt>
      <trkpt lat="44.14489" lon="5.88666">
        <ele>605</ele>
        <time>2021-06-01T06:55:24.000Z</time>
      </trkpt>
      <trkpt lat="44.14488" lon="5.88665">
        <ele>605</ele>
        <time>2021-06-01T06:55:25.000Z</time>
      </trkpt>
      <trkpt lat="44.14488" lon="5.88664">
        <ele>605</ele>
        <time>2021-06-01T06:55:26.000Z</time>
      </trkpt>
      <trkpt lat="44.14487" lon="5.88663">
        <ele>605</ele>
        <time>2021-06-01T06:55:27.000Z</time>
      </trkpt>
      <trkpt lat="44.14486" lon="5.88663">
        <ele>605</ele>
        <time>2021-06-01T06:55:28.000Z</time>
      </trkpt>
      <trkpt lat="44.14486" lon="5.88662">
        <ele>605</ele>
        <time>2021-06-01T06:55:29.000Z</time>
      </trkpt>
      <trkpt lat="44.14485" lon="5.88661">
        <ele>605</ele>
        <time>2021-06-01T06:55:30.000Z</time>
      </trkpt>
      <trkpt lat="44.14485" lon="5.8866">
        <ele>605</ele>
        <time>2021-06-01T06:55:31.000Z</time>
      </trkpt>
      <trkpt lat="44.14484" lon="5.88659">
        <ele>605</ele>
        <time>2021-06-01T06:55:32.000Z</time>
      </trkpt>
      <trkpt lat="44.14483" lon="5.88658">
        <ele>605</ele>
        <time>2021-06-01T06:55:33.000Z</time>
      </trkpt>
      <trkpt lat="44.14483" lon="5.88657">
        <ele>606</ele>
        <time>2021-06-01T06:55:34.000Z</time>
      </trkpt>
      <trkpt lat="44.14482" lon="5.88656">
        <ele>606</ele>
        <time>2021-06-01T06:55:35.000Z</time>
      </trkpt>
      <trkpt lat="44.14481" lon="5.88655">
        <ele>606</ele>
        <time>2021-06-01T06:55:36.000Z</time>
      </trkpt>
      <trkpt lat="44.1448" lon="5.88655">
        <ele>606</ele>
        <time>2021-06-01T06:55:37.000Z</time>
      </trkpt>
      <trkpt lat="44.14479" lon="5.88654">
        <ele>606</ele>
        <time>2021-06-01T06:55:38.000Z</time>
      </trkpt>
      <trkpt lat="44.14479" lon="5.88654">
        <ele>606</ele>
        <time>2021-06-01T06:55:39.000Z</time>
      </trkpt>
      <trkpt lat="44.14478" lon="5.88654">
        <ele>606</ele>
        <time>2021-06-01T06:55:40.000Z</time>
      </trkpt>
      <trkpt lat="44.14477" lon="5.88653">
        <ele>607</ele>
        <time>2021-06-01T06:55:41.000Z</time>
      </trkpt>
      <trkpt lat="44.14476" lon="5.88653">
        <ele>607</ele>
        <time>2021-06-01T06:55:42.000Z</time>
      </trkpt>
      <trkpt lat="44.14475" lon="5.88653">
        <ele>607</ele>
        <time>2021-06-01T06:55:43.000Z</time>
      </trkpt>
      <trkpt lat="44.14474" lon="5.88653">
        <ele>607</ele>
        <time>2021-06-01T06:55:44.000Z</time>
      </trkpt>
      <trkpt lat="44.14473" lon="5.88654">
        <ele>607</ele>
        <time>2021-06-01T06:55:45.000Z</time>
      </trkpt>
      <trkpt lat="44.14472" lon="5.88654">
        <ele>607</ele>
        <time>2021-06-01T06:55:46.000Z</time>
      </trkpt>
      <trkpt lat="44.14471" lon="5.88654">
        <ele>607</ele>
        <time>2021-06-01T06:55:47.000Z</time>
      </trkpt>
      <trkpt lat="44.1447" lon="5.88654">
        <ele>607</ele>
        <time>2021-06-01T06:55:48.000Z</time>
      </trkpt>
      <trkpt lat="44.14469" lon="5.88655">
        <ele>607</ele>
        <time>2021-06-01T06:55:49.000Z</time>
      </trkpt>
      <trkpt lat="44.14469" lon="5.88655">
        <ele>607</ele>
        <time>2021-06-01T06:55:50.000Z</time>
      </trkpt>
      <trkpt lat="44.14468" lon="5.88656">
        <ele>607</ele>
        <time>2021-06-01T06:55:51.000Z</time>
      </trkpt>
      <trkpt lat="44.14467" lon="5.88656">
        <ele>607</ele>
        <time>2021-06-01T06:55:52.000Z</time>
      </trkpt>
      <trkpt lat="44.14466" lon="5.88657">
        <ele>607</ele>
        <time>2021-06-01T06:55:53.000Z</time>
      </trkpt>
      <trkpt lat="44.14466" lon="5.88658">
        <ele>607</ele>
        <time>2021-06-01T06:55:54.000Z</time>
      </trkpt>
      <trkpt lat="44.14465" lon="5.88659">
        <ele>608</ele>
        <time>2021-06-01T06:55:55.000Z</time>
      </trkpt>
      <trkpt lat="44.14464" lon="5.88659">
        <ele>608</ele>
        <time>2021-06-01T06:55:56.000Z</time>
      </trkpt>
      <trkpt lat="44.14464" lon="5.8866">
        <ele>608</ele>
        <time>2021-06-01T06:55:57.000Z</time>
      </trkpt>
      <trkpt lat="44.14463" lon="5.88661">
        <ele>608</ele>
        <time>2021-06-01T06:55:58.000Z</time>
      </trkpt>
      <trkpt lat="44.14462" lon="5.88662">
        <ele>608</ele>
        <time>2021-06-01T06:55:59.000Z</time>
      </trkpt>
      <trkpt lat="44.14462" lon="5.88662">
        <ele>609</ele>
        <time>2021-06-01T06:56:00.000Z</time>
      </trkpt>
      <trkpt lat="44.14462" lon="5.88663">
        <ele>609</ele>
        <time>2021-06-01T06:56:01.000Z</time>
      </trkpt>
      <trkpt lat="44.14461" lon="5.88664">
        <ele>609</ele>
        <time>2021-06-01T06:56:02.000Z</time>
      </trkpt>
      <trkpt lat="44.14461" lon="5.88665">
        <ele>609</ele>
        <time>2021-06-01T06:56:03.000Z</time>
      </trkpt>
      <trkpt lat="44.1446" lon="5.88666">
        <ele>609</ele>
        <time>2021-06-01T06:56:04.000Z</time>
      </trkpt>
      <trkpt lat="44.14459" lon="5.88666">
        <ele>609</ele>
        <time>2021-06-01T06:56:05.000Z</time>
      </trkpt>
      <trkpt lat="44.14459" lon="5.88667">
        <ele>609</ele>
        <time>2021-06-01T06:56:06.000Z</time>
      </trkpt>
      <trkpt lat="44.14458" lon="5.88668">
        <ele>610</ele>
        <time>2021-06-01T06:56:07.000Z</time>
      </trkpt>
      <trkpt lat="44.14457" lon="5.88669">
        <ele>610</ele>
        <time>2021-06-01T06:56:08.000Z</time>
      </trkpt>
      <trkpt lat="44.14457" lon="5.8867">
        <ele>610</ele>
        <time>2021-06-01T06:56:09.000Z</time>
      </trkpt>
      <trkpt lat="44.14456" lon="5.8867">
        <ele>610</ele>
        <time>2021-06-01T06:56:10.000Z</time>
      </trkpt>
      <trkpt lat="44.14456" lon="5.88671">
        <ele>610</ele>
        <time>2021-06-01T06:56:11.000Z</time>
      </trkpt>
      <trkpt lat="44.14455" lon="5.88671">
        <ele>610</ele>
        <time>2021-06-01T06:56:12.000Z</time>
      </trkpt>
      <trkpt lat="44.14454" lon="5.88672">
        <ele>610</ele>
        <time>2021-06-01T06:56:13.000Z</time>
      </trkpt>
      <trkpt lat="44.14454" lon="5.88673">
        <ele>610</ele>
        <time>2021-06-01T06:56:14.000Z</time>
      </trkpt>
      <trkpt lat="44.14453" lon="5.88673">
        <ele>610</ele>
        <time>2021-06-01T06:56:15.000Z</time>
      </trkpt>
      <trkpt lat="44.14453" lon="5.88674">
        <ele>610</ele>
        <time>2021-06-01T06:56:16.000Z</time>
      </trkpt>
      <trkpt lat="44.14453" lon="5.88675">
        <ele>610</ele>
        <time>2021-06-01T06:56:17.000Z</time>
      </trkpt>
      <trkpt lat="44.14452" lon="5.88676">
        <ele>610</ele>
        <time>2021-06-01T06:56:18.000Z</time>
      </trkpt>
      <trkpt lat="44.14452" lon="5.88677">
        <ele>610</ele>
        <time>2021-06-01T06:56:19.000Z</time>
      </trkpt>
      <trkpt lat="44.14451" lon="5.88678">
        <ele>610</ele>
        <time>2021-06-01T06:56:20.000Z</time>
      </trkpt>
      <trkpt lat="44.14451" lon="5.8868">
        <ele>610</ele>
        <time>2021-06-01T06:56:21.000Z</time>
      </trkpt>
      <trkpt lat="44.14451" lon="5.8868">
        <ele>611</ele>
        <time>2021-06-01T06:56:22.000Z</time>
      </trkpt>
      <trkpt lat="44.1445" lon="5.88682">
        <ele>611</ele>
        <time>2021-06-01T06:56:23.000Z</time>
      </trkpt>
      <trkpt lat="44.1445" lon="5.88682">
        <ele>611</ele>
        <time>2021-06-01T06:56:24.000Z</time>
      </trkpt>
      <trkpt lat="44.1445" lon="5.88684">
        <ele>611</ele>
        <time>2021-06-01T06:56:25.000Z</time>
      </trkpt>
      <trkpt lat="44.14449" lon="5.88685">
        <ele>611</ele>
        <time>2021-06-01T06:56:26.000Z</time>
      </trkpt>
      <trkpt lat="44.14448" lon="5.88686">
        <ele>612</ele>
        <time>2021-06-01T06:56:27.000Z</time>
      </trkpt>
      <trkpt lat="44.14448" lon="5.88687">
        <ele>612</ele>
        <time>2021-06-01T06:56:28.000Z</time>
      </trkpt>
      <trkpt lat="44.14447" lon="5.88688">
        <ele>612</ele>
        <time>2021-06-01T06:56:29.000Z</time>
      </trkpt>
      <trkpt lat="44.14447" lon="5.88689">
        <ele>612</ele>
        <time>2021-06-01T06:56:30.000Z</time>
      </trkpt>
      <trkpt lat="44.14446" lon="5.8869">
        <ele>612</ele>
        <time>2021-06-01T06:56:31.000Z</time>
      </trkpt>
      <trkpt lat="44.14446" lon="5.88691">
        <ele>612</ele>
        <time>2021-06-01T06:56:32.000Z</time>
      </trkpt>
      <trkpt lat="44.14445" lon="5.88692">
        <ele>612</ele>
        <time>2021-06-01T06:56:33.000Z</time>
      </trkpt>
      <trkpt lat="44.14445" lon="5.88694">
        <ele>612</ele>
        <time>2021-06-01T06:56:34.000Z</time>
      </trkpt>
      <trkpt lat="44.14444" lon="5.88695">
        <ele>613</ele>
        <time>2021-06-01T06:56:35.000Z</time>
      </trkpt>
      <trkpt lat="44.14444" lon="5.88695">
        <ele>613</ele>
        <time>2021-06-01T06:56:36.000Z</time>
      </trkpt>
      <trkpt lat="44.14443" lon="5.88696">
        <ele>613</ele>
        <time>2021-06-01T06:56:37.000Z</time>
      </trkpt>
      <trkpt lat="44.14442" lon="5.88697">
        <ele>613</ele>
        <time>2021-06-01T06:56:38.000Z</time>
      </trkpt>
      <trkpt lat="44.14442" lon="5.88698">
        <ele>613</ele>
        <time>2021-06-01T06:56:39.000Z</time>
      </trkpt>
      <trkpt lat="44.14442" lon="5.88699">
        <ele>613</ele>
        <time>2021-06-01T06:56:40.000Z</time>
      </trkpt>
      <trkpt lat="44.14441" lon="5.887">
        <ele>613</ele>
        <time>2021-06-01T06:56:41.000Z</time>
      </trkpt>
      <trkpt lat="44.14441" lon="5.88702">
        <ele>613</ele>
        <time>2021-06-01T06:56:42.000Z</time>
      </trkpt>
      <trkpt lat="44.14441" lon="5.88703">
        <ele>613</ele>
        <time>2021-06-01T06:56:43.000Z</time>
      </trkpt>
      <trkpt lat="44.1444" lon="5.88704">
        <ele>613</ele>
        <time>2021-06-01T06:56:44.000Z</time>
      </trkpt>
      <trkpt lat="44.1444" lon="5.88705">
        <ele>613</ele>
        <time>2021-06-01T06:56:45.000Z</time>
      </trkpt>
      <trkpt lat="44.14439" lon="5.88706">
        <ele>613</ele>
        <time>2021-06-01T06:56:46.000Z</time>
      </trkpt>
      <trkpt lat="44.14439" lon="5.88707">
        <ele>613</ele>
        <time>2021-06-01T06:56:47.000Z</time>
      </trkpt>
      <trkpt lat="44.14438" lon="5.88708">
        <ele>613</ele>
        <time>2021-06-01T06:56:48.000Z</time>
      </trkpt>
      <trkpt lat="44.14438" lon="5.88709">
        <ele>613</ele>
        <time>2021-06-01T06:56:49.000Z</time>
      </trkpt>
      <trkpt lat="44.14438" lon="5.8871">
        <ele>613</ele>
        <time>2021-06-01T06:56:50.000Z</time>
      </trkpt>
      <trkpt lat="44.14437" lon="5.88711">
        <ele>614</ele>
        <time>2021-06-01T06:56:51.000Z</time>
      </trkpt>
      <trkpt lat="44.14436" lon="5.88712">
        <ele>614</ele>
        <time>2021-06-01T06:56:52.000Z</time>
      </trkpt>
      <trkpt lat="44.14436" lon="5.88713">
        <ele>614</ele>
        <time>2021-06-01T06:56:53.000Z</time>
      </trkpt>
      <trkpt lat="44.14435" lon="5.88714">
        <ele>614</ele>
        <time>2021-06-01T06:56:54.000Z</time>
      </trkpt>
      <trkpt lat="44.14435" lon="5.88714">
        <ele>614</ele>
        <time>2021-06-01T06:56:55.000Z</time>
      </trkpt>
      <trkpt lat="44.14434" lon="5.88716">
        <ele>614</ele>
        <time>2021-06-01T06:56:56.000Z</time>
      </trkpt>
      <trkpt lat="44.14434" lon="5.88717">
        <ele>614</ele>
        <time>2021-06-01T06:56:57.000Z</time>
      </trkpt>
      <trkpt lat="44.14433" lon="5.88718">
        <ele>614</ele>
        <time>2021-06-01T06:56:58.000Z</time>
      </trkpt>
      <trkpt lat="44.14433" lon="5.88719">
        <ele>614</ele>
        <time>2021-06-01T06:56:59.000Z</time>
      </trkpt>
      <trkpt lat="44.14433" lon="5.88719">
        <ele>614</ele>
        <time>2021-06-01T06:57:00.000Z</time>
      </trkpt>
      <trkpt lat="44.14432" lon="5.8872">
        <ele>615</ele>
        <time>2021-06-01T06:57:01.000Z</time>
      </trkpt>
      <trkpt lat="44.14432" lon="5.88721">
        <ele>615</ele>
        <time>2021-06-01T06:57:02.000Z</time>
      </trkpt>
      <trkpt lat="44.14432" lon="5.88721">
        <ele>615</ele>
        <time>2021-06-01T06:57:03.000Z</time>
      </trkpt>
      <trkpt lat="44.14431" lon="5.88723">
        <ele>615</ele>
        <time>2021-06-01T06:57:04.000Z</time>
      </trkpt>
      <trkpt lat="44.14431" lon="5.88724">
        <ele>615</ele>
        <time>2021-06-01T06:57:05.000Z</time>
      </trkpt>
      <trkpt lat="44.14431" lon="5.88725">
        <ele>615</ele>
        <time>2021-06-01T06:57:06.000Z</time>
      </trkpt>
      <trkpt lat="44.1443" lon="5.88726">
        <ele>615</ele>
        <time>2021-06-01T06:57:07.000Z</time>
      </trkpt>
      <trkpt lat="44.1443" lon="5.88728">
        <ele>615</ele>
        <time>2021-06-01T06:57:08.000Z</time>
      </trkpt>
      <trkpt lat="44.1443" lon="5.88729">
        <ele>616</ele>
        <time>2021-06-01T06:57:09.000Z</time>
      </trkpt>
      <trkpt lat="44.1443" lon="5.88731">
        <ele>616</ele>
        <time>2021-06-01T06:57:10.000Z</time>
      </trkpt>
      <trkpt lat="44.1443" lon="5.88732">
        <ele>616</ele>
        <time>2021-06-01T06:57:11.000Z</time>
      </trkpt>
      <trkpt lat="44.1443" lon="5.88733">
        <ele>616</ele>
        <time>2021-06-01T06:57:12.000Z</time>
      </trkpt>
      <trkpt lat="44.1443" lon="5.88735">
        <ele>616</ele>
        <time>2021-06-01T06:57:13.000Z</time>
      </trkpt>
      <trkpt lat="44.1443" lon="5.88736">
        <ele>616</ele>
        <time>2021-06-01T06:57:14.000Z</time>
      </trkpt>
      <trkpt lat="44.1443" lon="5.88737">
        <ele>616</ele>
        <time>2021-06-01T06:57:15.000Z</time>
      </trkpt>
      <trkpt lat="44.1443" lon="5.88738">
        <ele>616</ele>
        <time>2021-06-01T06:57:16.000Z</time>
      </trkpt>
      <trkpt lat="44.1443" lon="5.8874">
        <ele>617</ele>
        <time>2021-06-01T06:57:17.000Z</time>
      </trkpt>
      <trkpt lat="44.1443" lon="5.88741">
        <ele>617</ele>
        <time>2021-06-01T06:57:18.000Z</time>
      </trkpt>
      <trkpt lat="44.1443" lon="5.88742">
        <ele>617</ele>
        <time>2021-06-01T06:57:19.000Z</time>
      </trkpt>
      <trkpt lat="44.1443" lon="5.88743">
        <ele>617</ele>
        <time>2021-06-01T06:57:20.000Z</time>
      </trkpt>
      <trkpt lat="44.14431" lon="5.88745">
        <ele>617</ele>
        <time>2021-06-01T06:57:21.000Z</time>
      </trkpt>
      <trkpt lat="44.14431" lon="5.88746">
        <ele>617</ele>
        <time>2021-06-01T06:57:22.000Z</time>
      </trkpt>
      <trkpt lat="44.1443" lon="5.88747">
        <ele>617</ele>
        <time>2021-06-01T06:57:23.000Z</time>
      </trkpt>
      <trkpt lat="44.1443" lon="5.88748">
        <ele>617</ele>
        <time>2021-06-01T06:57:24.000Z</time>
      </trkpt>
      <trkpt lat="44.14429" lon="5.88749">
        <ele>617</ele>
        <time>2021-06-01T06:57:25.000Z</time>
      </trkpt>
      <trkpt lat="44.14429" lon="5.8875">
        <ele>617</ele>
        <time>2021-06-01T06:57:26.000Z</time>
      </trkpt>
      <trkpt lat="44.14428" lon="5.8875">
        <ele>617</ele>
        <time>2021-06-01T06:57:27.000Z</time>
      </trkpt>
      <trkpt lat="44.14428" lon="5.88751">
        <ele>617</ele>
        <time>2021-06-01T06:57:28.000Z</time>
      </trkpt>
      <trkpt lat="44.14427" lon="5.88752">
        <ele>617</ele>
        <time>2021-06-01T06:57:29.000Z</time>
      </trkpt>
      <trkpt lat="44.14427" lon="5.88753">
        <ele>617</ele>
        <time>2021-06-01T06:57:30.000Z</time>
      </trkpt>
      <trkpt lat="44.14426" lon="5.88754">
        <ele>617</ele>
        <time>2021-06-01T06:57:31.000Z</time>
      </trkpt>
      <trkpt lat="44.14425" lon="5.88755">
        <ele>618</ele>
        <time>2021-06-01T06:57:32.000Z</time>
      </trkpt>
      <trkpt lat="44.14425" lon="5.88756">
        <ele>618</ele>
        <time>2021-06-01T06:57:33.000Z</time>
      </trkpt>
      <trkpt lat="44.14424" lon="5.88756">
        <ele>618</ele>
        <time>2021-06-01T06:57:34.000Z</time>
      </trkpt>
      <trkpt lat="44.14423" lon="5.88757">
        <ele>618</ele>
        <time>2021-06-01T06:57:35.000Z</time>
      </trkpt>
      <trkpt lat="44.14423" lon="5.88758">
        <ele>618</ele>
        <time>2021-06-01T06:57:36.000Z</time>
      </trkpt>
      <trkpt lat="44.14422" lon="5.88759">
        <ele>618</ele>
        <time>2021-06-01T06:57:37.000Z</time>
      </trkpt>
      <trkpt lat="44.14421" lon="5.8876">
        <ele>618</ele>
        <time>2021-06-01T06:57:38.000Z</time>
      </trkpt>
      <trkpt lat="44.14421" lon="5.88761">
        <ele>618</ele>
        <time>2021-06-01T06:57:39.000Z</time>
      </trkpt>
      <trkpt lat="44.1442" lon="5.88762">
        <ele>619</ele>
        <time>2021-06-01T06:57:40.000Z</time>
      </trkpt>
      <trkpt lat="44.14419" lon="5.88763">
        <ele>619</ele>
        <time>2021-06-01T06:57:41.000Z</time>
      </trkpt>
      <trkpt lat="44.14418" lon="5.88764">
        <ele>619</ele>
        <time>2021-06-01T06:57:42.000Z</time>
      </trkpt>
      <trkpt lat="44.14417" lon="5.88764">
        <ele>619</ele>
        <time>2021-06-01T06:57:43.000Z</time>
      </trkpt>
      <trkpt lat="44.14416" lon="5.88764">
        <ele>619</ele>
        <time>2021-06-01T06:57:44.000Z</time>
      </trkpt>
      <trkpt lat="44.14416" lon="5.88765">
        <ele>619</ele>
        <time>2021-06-01T06:57:45.000Z</time>
      </trkpt>
      <trkpt lat="44.14415" lon="5.88766">
        <ele>619</ele>
        <time>2021-06-01T06:57:46.000Z</time>
      </trkpt>
      <trkpt lat="44.14414" lon="5.88766">
        <ele>619</ele>
        <time>2021-06-01T06:57:47.000Z</time>
      </trkpt>
      <trkpt lat="44.14414" lon="5.88767">
        <ele>619</ele>
        <time>2021-06-01T06:57:48.000Z</time>
      </trkpt>
      <trkpt lat="44.14413" lon="5.88767">
        <ele>620</ele>
        <time>2021-06-01T06:57:49.000Z</time>
      </trkpt>
      <trkpt lat="44.14412" lon="5.88768">
        <ele>620</ele>
        <time>2021-06-01T06:57:50.000Z</time>
      </trkpt>
      <trkpt lat="44.14411" lon="5.88769">
        <ele>620</ele>
        <time>2021-06-01T06:57:51.000Z</time>
      </trkpt>
      <trkpt lat="44.1441" lon="5.8877">
        <ele>620</ele>
        <time>2021-06-01T06:57:52.000Z</time>
      </trkpt>
      <trkpt lat="44.1441" lon="5.88771">
        <ele>620</ele>
        <time>2021-06-01T06:57:53.000Z</time>
      </trkpt>
      <trkpt lat="44.14409" lon="5.88772">
        <ele>621</ele>
        <time>2021-06-01T06:57:54.000Z</time>
      </trkpt>
      <trkpt lat="44.14408" lon="5.88772">
        <ele>621</ele>
        <time>2021-06-01T06:57:55.000Z</time>
      </trkpt>
      <trkpt lat="44.14407" lon="5.88773">
        <ele>621</ele>
        <time>2021-06-01T06:57:56.000Z</time>
      </trkpt>
      <trkpt lat="44.14407" lon="5.88774">
        <ele>621</ele>
        <time>2021-06-01T06:57:57.000Z</time>
      </trkpt>
      <trkpt lat="44.14406" lon="5.88774">
        <ele>621</ele>
        <time>2021-06-01T06:57:58.000Z</time>
      </trkpt>
      <trkpt lat="44.14405" lon="5.88775">
        <ele>621</ele>
        <time>2021-06-01T06:57:59.000Z</time>
      </trkpt>
      <trkpt lat="44.14405" lon="5.88776">
        <ele>621</ele>
        <time>2021-06-01T06:58:00.000Z</time>
      </trkpt>
      <trkpt lat="44.14404" lon="5.88776">
        <ele>622</ele>
        <time>2021-06-01T06:58:01.000Z</time>
      </trkpt>
      <trkpt lat="44.14404" lon="5.88776">
        <ele>622</ele>
        <time>2021-06-01T06:58:02.000Z</time>
      </trkpt>
      <trkpt lat="44.14403" lon="5.88777">
        <ele>622</ele>
        <time>2021-06-01T06:58:03.000Z</time>
      </trkpt>
      <trkpt lat="44.14402" lon="5.88777">
        <ele>622</ele>
        <time>2021-06-01T06:58:04.000Z</time>
      </trkpt>
      <trkpt lat="44.14401" lon="5.88778">
        <ele>622</ele>
        <time>2021-06-01T06:58:05.000Z</time>
      </trkpt>
      <trkpt lat="44.14401" lon="5.88778">
        <ele>622</ele>
        <time>2021-06-01T06:58:06.000Z</time>
      </trkpt>
      <trkpt lat="44.144" lon="5.88779">
        <ele>622</ele>
        <time>2021-06-01T06:58:07.000Z</time>
      </trkpt>
      <trkpt lat="44.14399" lon="5.88779">
        <ele>622</ele>
        <time>2021-06-01T06:58:08.000Z</time>
      </trkpt>
      <trkpt lat="44.14398" lon="5.8878">
        <ele>622</ele>
        <time>2021-06-01T06:58:09.000Z</time>
      </trkpt>
      <trkpt lat="44.14397" lon="5.8878">
        <ele>622</ele>
        <time>2021-06-01T06:58:10.000Z</time>
      </trkpt>
      <trkpt lat="44.14396" lon="5.8878">
        <ele>622</ele>
        <time>2021-06-01T06:58:11.000Z</time>
      </trkpt>
      <trkpt lat="44.14396" lon="5.8878">
        <ele>622</ele>
        <time>2021-06-01T06:58:12.000Z</time>
      </trkpt>
      <trkpt lat="44.14395" lon="5.88781">
        <ele>622</ele>
        <time>2021-06-01T06:58:13.000Z</time>
      </trkpt>
      <trkpt lat="44.14394" lon="5.88782">
        <ele>622</ele>
        <time>2021-06-01T06:58:14.000Z</time>
      </trkpt>
      <trkpt lat="44.14393" lon="5.88782">
        <ele>623</ele>
        <time>2021-06-01T06:58:15.000Z</time>
      </trkpt>
      <trkpt lat="44.14392" lon="5.88783">
        <ele>623</ele>
        <time>2021-06-01T06:58:16.000Z</time>
      </trkpt>
      <trkpt lat="44.14392" lon="5.88783">
        <ele>623</ele>
        <time>2021-06-01T06:58:17.000Z</time>
      </trkpt>
      <trkpt lat="44.14391" lon="5.88784">
        <ele>623</ele>
        <time>2021-06-01T06:58:18.000Z</time>
      </trkpt>
      <trkpt lat="44.1439" lon="5.88784">
        <ele>623</ele>
        <time>2021-06-01T06:58:19.000Z</time>
      </trkpt>
      <trkpt lat="44.1439" lon="5.88785">
        <ele>623</ele>
        <time>2021-06-01T06:58:20.000Z</time>
      </trkpt>
      <trkpt lat="44.14389" lon="5.88785">
        <ele>624</ele>
        <time>2021-06-01T06:58:21.000Z</time>
      </trkpt>
      <trkpt lat="44.14388" lon="5.88785">
        <ele>624</ele>
        <time>2021-06-01T06:58:22.000Z</time>
      </trkpt>
      <trkpt lat="44.14387" lon="5.88785">
        <ele>624</ele>
        <time>2021-06-01T06:58:23.000Z</time>
      </trkpt>
      <trkpt lat="44.14387" lon="5.88784">
        <ele>624</ele>
        <time>2021-06-01T06:58:24.000Z</time>
      </trkpt>
      <trkpt lat="44.14386" lon="5.88783">
        <ele>623</ele>
        <time>2021-06-01T06:58:25.000Z</time>
      </trkpt>
      <trkpt lat="44.14386" lon="5.88783">
        <ele>623</ele>
        <time>2021-06-01T06:58:26.000Z</time>
      </trkpt>
      <trkpt lat="44.14387" lon="5.88782">
        <ele>623</ele>
        <time>2021-06-01T06:58:27.000Z</time>
      </trkpt>
      <trkpt lat="44.14387" lon="5.88781">
        <ele>623</ele>
        <time>2021-06-01T06:58:28.000Z</time>
      </trkpt>
      <trkpt lat="44.14387" lon="5.8878">
        <ele>623</ele>
        <time>2021-06-01T06:58:29.000Z</time>
      </trkpt>
      <trkpt lat="44.14388" lon="5.88779">
        <ele>623</ele>
        <time>2021-06-01T06:58:30.000Z</time>
      </trkpt>
      <trkpt lat="44.14388" lon="5.88778">
        <ele>623</ele>
        <time>2021-06-01T06:58:31.000Z</time>
      </trkpt>
      <trkpt lat="44.14389" lon="5.88777">
        <ele>623</ele>
        <time>2021-06-01T06:58:32.000Z</time>
      </trkpt>
      <trkpt lat="44.14389" lon="5.88777">
        <ele>623</ele>
        <time>2021-06-01T06:58:33.000Z</time>
      </trkpt>
      <trkpt lat="44.14389" lon="5.88776">
        <ele>623</ele>
        <time>2021-06-01T06:58:34.000Z</time>
      </trkpt>
      <trkpt lat="44.1439" lon="5.88775">
        <ele>623</ele>
        <time>2021-06-01T06:58:35.000Z</time>
      </trkpt>
      <trkpt lat="44.1439" lon="5.88775">
        <ele>623</ele>
        <time>2021-06-01T06:58:36.000Z</time>
      </trkpt>
      <trkpt lat="44.1439" lon="5.88774">
        <ele>623</ele>
        <time>2021-06-01T06:58:37.000Z</time>
      </trkpt>
      <trkpt lat="44.14391" lon="5.88773">
        <ele>623</ele>
        <time>2021-06-01T06:58:38.000Z</time>
      </trkpt>
      <trkpt lat="44.14392" lon="5.88772">
        <ele>623</ele>
        <time>2021-06-01T06:58:39.000Z</time>
      </trkpt>
      <trkpt lat="44.14392" lon="5.88771">
        <ele>623</ele>
        <time>2021-06-01T06:58:40.000Z</time>
      </trkpt>
      <trkpt lat="44.14393" lon="5.8877">
        <ele>623</ele>
        <time>2021-06-01T06:58:41.000Z</time>
      </trkpt>
      <trkpt lat="44.14393" lon="5.88769">
        <ele>623</ele>
        <time>2021-06-01T06:58:42.000Z</time>
      </trkpt>
      <trkpt lat="44.14393" lon="5.88768">
        <ele>623</ele>
        <time>2021-06-01T06:58:43.000Z</time>
      </trkpt>
      <trkpt lat="44.14394" lon="5.88767">
        <ele>623</ele>
        <time>2021-06-01T06:58:44.000Z</time>
      </trkpt>
      <trkpt lat="44.14394" lon="5.88766">
        <ele>623</ele>
        <time>2021-06-01T06:58:45.000Z</time>
      </trkpt>
      <trkpt lat="44.14395" lon="5.88765">
        <ele>623</ele>
        <time>2021-06-01T06:58:46.000Z</time>
      </trkpt>
      <trkpt lat="44.14395" lon="5.88764">
        <ele>623</ele>
        <time>2021-06-01T06:58:47.000Z</time>
      </trkpt>
      <trkpt lat="44.14396" lon="5.88763">
        <ele>623</ele>
        <time>2021-06-01T06:58:48.000Z</time>
      </trkpt>
      <trkpt lat="44.14396" lon="5.88762">
        <ele>623</ele>
        <time>2021-06-01T06:58:49.000Z</time>
      </trkpt>
      <trkpt lat="44.14396" lon="5.8876">
        <ele>623</ele>
        <time>2021-06-01T06:58:50.000Z</time>
      </trkpt>
      <trkpt lat="44.14397" lon="5.88759">
        <ele>623</ele>
        <time>2021-06-01T06:58:51.000Z</time>
      </trkpt>
      <trkpt lat="44.14397" lon="5.88758">
        <ele>623</ele>
        <time>2021-06-01T06:58:52.000Z</time>
      </trkpt>
      <trkpt lat="44.14398" lon="5.88757">
        <ele>623</ele>
        <time>2021-06-01T06:58:53.000Z</time>
      </trkpt>
      <trkpt lat="44.14398" lon="5.88756">
        <ele>623</ele>
        <time>2021-06-01T06:58:54.000Z</time>
      </trkpt>
      <trkpt lat="44.14399" lon="5.88755">
        <ele>623</ele>
        <time>2021-06-01T06:58:55.000Z</time>
      </trkpt>
      <trkpt lat="44.14399" lon="5.88754">
        <ele>623</ele>
        <time>2021-06-01T06:58:56.000Z</time>
      </trkpt>
      <trkpt lat="44.144" lon="5.88753">
        <ele>623</ele>
        <time>2021-06-01T06:58:57.000Z</time>
      </trkpt>
      <trkpt lat="44.144" lon="5.88751">
        <ele>623</ele>
        <time>2021-06-01T06:58:58.000Z</time>
      </trkpt>
      <trkpt lat="44.144" lon="5.8875">
        <ele>623</ele>
        <time>2021-06-01T06:58:59.000Z</time>
      </trkpt>
      <trkpt lat="44.144" lon="5.88749">
        <ele>623</ele>
        <time>2021-06-01T06:59:00.000Z</time>
      </trkpt>
      <trkpt lat="44.14401" lon="5.88747">
        <ele>623</ele>
        <time>2021-06-01T06:59:01.000Z</time>
      </trkpt>
      <trkpt lat="44.14401" lon="5.88746">
        <ele>623</ele>
        <time>2021-06-01T06:59:02.000Z</time>
      </trkpt>
      <trkpt lat="44.14401" lon="5.88745">
        <ele>623</ele>
        <time>2021-06-01T06:59:03.000Z</time>
      </trkpt>
      <trkpt lat="44.144" lon="5.88744">
        <ele>623</ele>
        <time>2021-06-01T06:59:04.000Z</time>
      </trkpt>
      <trkpt lat="44.144" lon="5.88742">
        <ele>623</ele>
        <time>2021-06-01T06:59:05.000Z</time>
      </trkpt>
      <trkpt lat="44.144" lon="5.88741">
        <ele>623</ele>
        <time>2021-06-01T06:59:06.000Z</time>
      </trkpt>
      <trkpt lat="44.144" lon="5.8874">
        <ele>623</ele>
        <time>2021-06-01T06:59:07.000Z</time>
      </trkpt>
      <trkpt lat="44.14399" lon="5.88739">
        <ele>623</ele>
        <time>2021-06-01T06:59:08.000Z</time>
      </trkpt>
      <trkpt lat="44.14399" lon="5.88737">
        <ele>623</ele>
        <time>2021-06-01T06:59:09.000Z</time>
      </trkpt>
      <trkpt lat="44.14399" lon="5.88736">
        <ele>623</ele>
        <time>2021-06-01T06:59:10.000Z</time>
      </trkpt>
      <trkpt lat="44.14398" lon="5.88735">
        <ele>623</ele>
        <time>2021-06-01T06:59:11.000Z</time>
      </trkpt>
      <trkpt lat="44.14398" lon="5.88734">
        <ele>624</ele>
        <time>2021-06-01T06:59:12.000Z</time>
      </trkpt>
      <trkpt lat="44.14397" lon="5.88733">
        <ele>624</ele>
        <time>2021-06-01T06:59:13.000Z</time>
      </trkpt>
      <trkpt lat="44.14396" lon="5.88732">
        <ele>624</ele>
        <time>2021-06-01T06:59:14.000Z</time>
      </trkpt>
      <trkpt lat="44.14395" lon="5.88731">
        <ele>624</ele>
        <time>2021-06-01T06:59:15.000Z</time>
      </trkpt>
      <trkpt lat="44.14395" lon="5.8873">
        <ele>624</ele>
        <time>2021-06-01T06:59:16.000Z</time>
      </trkpt>
      <trkpt lat="44.14394" lon="5.88729">
        <ele>625</ele>
        <time>2021-06-01T06:59:17.000Z</time>
      </trkpt>
      <trkpt lat="44.14394" lon="5.88728">
        <ele>625</ele>
        <time>2021-06-01T06:59:18.000Z</time>
      </trkpt>
      <trkpt lat="44.14393" lon="5.88727">
        <ele>625</ele>
        <time>2021-06-01T06:59:19.000Z</time>
      </trkpt>
      <trkpt lat="44.14393" lon="5.88726">
        <ele>625</ele>
        <time>2021-06-01T06:59:20.000Z</time>
      </trkpt>
      <trkpt lat="44.14392" lon="5.88725">
        <ele>625</ele>
        <time>2021-06-01T06:59:21.000Z</time>
      </trkpt>
      <trkpt lat="44.14392" lon="5.88724">
        <ele>626</ele>
        <time>2021-06-01T06:59:22.000Z</time>
      </trkpt>
      <trkpt lat="44.14392" lon="5.88723">
        <ele>626</ele>
        <time>2021-06-01T06:59:23.000Z</time>
      </trkpt>
      <trkpt lat="44.14392" lon="5.88723">
        <ele>626</ele>
        <time>2021-06-01T06:59:24.000Z</time>
      </trkpt>
      <trkpt lat="44.14392" lon="5.88723">
        <ele>626</ele>
        <time>2021-06-01T06:59:25.000Z</time>
      </trkpt>
      <trkpt lat="44.14392" lon="5.88723">
        <ele>626</ele>
        <time>2021-06-01T06:59:26.000Z</time>
      </trkpt>
      <trkpt lat="44.14392" lon="5.88722">
        <ele>626</ele>
        <time>2021-06-01T06:59:27.000Z</time>
      </trkpt>
      <trkpt lat="44.14393" lon="5.88722">
        <ele>626</ele>
        <time>2021-06-01T06:59:28.000Z</time>
      </trkpt>
      <trkpt lat="44.14393" lon="5.88722">
        <ele>626</ele>
        <time>2021-06-01T06:59:29.000Z</time>
      </trkpt>
      <trkpt lat="44.14393" lon="5.88722">
        <ele>626</ele>
        <time>2021-06-01T06:59:30.000Z</time>
      </trkpt>
      <trkpt lat="44.14393" lon="5.88722">
        <ele>626</ele>
        <time>2021-06-01T06:59:31.000Z</time>
      </trkpt>
      <trkpt lat="44.14393" lon="5.88722">
        <ele>626</ele>
        <time>2021-06-01T06:59:32.000Z</time>
      </trkpt>
      <trkpt lat="44.14392" lon="5.88722">
        <ele>626</ele>
        <time>2021-06-01T06:59:33.000Z</time>
      </trkpt>
      <trkpt lat="44.14392" lon="5.88721">
        <ele>626</ele>
        <time>2021-06-01T06:59:34.000Z</time>
      </trkpt>
      <trkpt lat="44.14391" lon="5.8872">
        <ele>626</ele>
        <time>2021-06-01T06:59:35.000Z</time>
      </trkpt>
      <trkpt lat="44.14391" lon="5.88719">
        <ele>626</ele>
        <time>2021-06-01T06:59:36.000Z</time>
      </trkpt>
      <trkpt lat="44.1439" lon="5.88718">
        <ele>626</ele>
        <time>2021-06-01T06:59:37.000Z</time>
      </trkpt>
      <trkpt lat="44.14389" lon="5.88717">
        <ele>627</ele>
        <time>2021-06-01T06:59:38.000Z</time>
      </trkpt>
      <trkpt lat="44.14389" lon="5.88716">
        <ele>627</ele>
        <time>2021-06-01T06:59:39.000Z</time>
      </trkpt>
      <trkpt lat="44.14388" lon="5.88716">
        <ele>627</ele>
        <time>2021-06-01T06:59:40.000Z</time>
      </trkpt>
      <trkpt lat="44.14387" lon="5.88715">
        <ele>627</ele>
        <time>2021-06-01T06:59:41.000Z</time>
      </trkpt>
      <trkpt lat="44.14387" lon="5.88714">
        <ele>627</ele>
        <time>2021-06-01T06:59:42.000Z</time>
      </trkpt>
      <trkpt lat="44.14386" lon="5.88714">
        <ele>627</ele>
        <time>2021-06-01T06:59:43.000Z</time>
      </trkpt>
      <trkpt lat="44.14386" lon="5.88713">
        <ele>627</ele>
        <time>2021-06-01T06:59:44.000Z</time>
      </trkpt>
      <trkpt lat="44.14385" lon="5.88713">
        <ele>627</ele>
        <time>2021-06-01T06:59:45.000Z</time>
      </trkpt>
      <trkpt lat="44.14385" lon="5.88713">
        <ele>627</ele>
        <time>2021-06-01T06:59:46.000Z</time>
      </trkpt>
      <trkpt lat="44.14385" lon="5.88713">
        <ele>627</ele>
        <time>2021-06-01T06:59:47.000Z</time>
      </trkpt>
      <trkpt lat="44.14385" lon="5.88713">
        <ele>627</ele>
        <time>2021-06-01T06:59:48.000Z</time>
      </trkpt>
      <trkpt lat="44.14385" lon="5.88712">
        <ele>627</ele>
        <time>2021-06-01T06:59:49.000Z</time>
      </trkpt>
      <trkpt lat="44.14385" lon="5.88712">
        <ele>627</ele>
        <time>2021-06-01T06:59:50.000Z</time>
      </trkpt>
      <trkpt lat="44.14385" lon="5.88712">
        <ele>627</ele>
        <time>2021-06-01T06:59:51.000Z</time>
      </trkpt>
      <trkpt lat="44.14385" lon="5.88712">
        <ele>627</ele>
        <time>2021-06-01T06:59:52.000Z</time>
      </trkpt>
      <trkpt lat="44.14385" lon="5.88712">
        <ele>627</ele>
        <time>2021-06-01T06:59:53.000Z</time>
      </trkpt>
      <trkpt lat="44.14385" lon="5.88712">
        <ele>627</ele>
        <time>2021-06-01T06:59:54.000Z</time>
      </trkpt>
      <trkpt lat="44.14385" lon="5.88712">
        <ele>627</ele>
        <time>2021-06-01T06:59:55.000Z</time>
      </trkpt>
      <trkpt lat="44.14385" lon="5.88712">
        <ele>627</ele>
        <time>2021-06-01T06:59:56.000Z</time>
      </trkpt>
      <trkpt lat="44.14384" lon="5.88712">
        <ele>627</ele>
        <time>2021-06-01T06:59:57.000Z</time>
      </trkpt>
      <trkpt lat="44.14383" lon="5.88711">
        <ele>628</ele>
        <time>2021-06-01T06:59:58.000Z</time>
      </trkpt>
      <trkpt lat="44.14383" lon="5.88711">
        <ele>628</ele>
        <time>2021-06-01T06:59:59.000Z</time>
      </trkpt>
      <trkpt lat="44.14382" lon="5.88711">
        <ele>628</ele>
        <time>2021-06-01T07:00:00.000Z</time>
      </trkpt>
      <trkpt lat="44.14381" lon="5.88711">
        <ele>628</ele>
        <time>2021-06-01T07:00:01.000Z</time>
      </trkpt>
      <trkpt lat="44.1438" lon="5.88711">
        <ele>628</ele>
        <time>2021-06-01T07:00:02.000Z</time>
      </trkpt>
      <trkpt lat="44.14379" lon="5.88711">
        <ele>628</ele>
        <time>2021-06-01T07:00:03.000Z</time>
      </trkpt>
      <trkpt lat="44.14378" lon="5.88711">
        <ele>628</ele>
        <time>2021-06-01T07:00:04.000Z</time>
      </trkpt>
      <trkpt lat="44.14378" lon="5.88712">
        <ele>628</ele>
        <time>2021-06-01T07:00:05.000Z</time>
      </trkpt>
      <trkpt lat="44.14377" lon="5.88712">
        <ele>628</ele>
        <time>2021-06-01T07:00:06.000Z</time>
      </trkpt>
      <trkpt lat="44.14376" lon="5.88712">
        <ele>628</ele>
        <time>2021-06-01T07:00:07.000Z</time>
      </trkpt>
      <trkpt lat="44.14375" lon="5.88712">
        <ele>628</ele>
        <time>2021-06-01T07:00:08.000Z</time>
      </trkpt>
      <trkpt lat="44.14375" lon="5.88712">
        <ele>628</ele>
        <time>2021-06-01T07:00:09.000Z</time>
      </trkpt>
      <trkpt lat="44.14374" lon="5.88712">
        <ele>629</ele>
        <time>2021-06-01T07:00:10.000Z</time>
      </trkpt>
      <trkpt lat="44.14373" lon="5.88712">
        <ele>629</ele>
        <time>2021-06-01T07:00:11.000Z</time>
      </trkpt>
      <trkpt lat="44.14372" lon="5.88712">
        <ele>629</ele>
        <time>2021-06-01T07:00:12.000Z</time>
      </trkpt>
      <trkpt lat="44.14372" lon="5.88713">
        <ele>629</ele>
        <time>2021-06-01T07:00:13.000Z</time>
      </trkpt>
      <trkpt lat="44.14371" lon="5.88713">
        <ele>629</ele>
        <time>2021-06-01T07:00:14.000Z</time>
      </trkpt>
      <trkpt lat="44.1437" lon="5.88713">
        <ele>629</ele>
        <time>2021-06-01T07:00:15.000Z</time>
      </trkpt>
      <trkpt lat="44.14369" lon="5.88713">
        <ele>629</ele>
        <time>2021-06-01T07:00:16.000Z</time>
      </trkpt>
      <trkpt lat="44.14368" lon="5.88714">
        <ele>629</ele>
        <time>2021-06-01T07:00:17.000Z</time>
      </trkpt>
      <trkpt lat="44.14367" lon="5.88714">
        <ele>629</ele>
        <time>2021-06-01T07:00:18.000Z</time>
      </trkpt>
      <trkpt lat="44.14366" lon="5.88714">
        <ele>629</ele>
        <time>2021-06-01T07:00:19.000Z</time>
      </trkpt>
      <trkpt lat="44.14365" lon="5.88714">
        <ele>629</ele>
        <time>2021-06-01T07:00:20.000Z</time>
      </trkpt>
      <trkpt lat="44.14364" lon="5.88714">
        <ele>629</ele>
        <time>2021-06-01T07:00:21.000Z</time>
      </trkpt>
      <trkpt lat="44.14364" lon="5.88715">
        <ele>629</ele>
        <time>2021-06-01T07:00:22.000Z</time>
      </trkpt>
      <trkpt lat="44.14363" lon="5.88715">
        <ele>630</ele>
        <time>2021-06-01T07:00:23.000Z</time>
      </trkpt>
      <trkpt lat="44.14363" lon="5.88715">
        <ele>630</ele>
        <time>2021-06-01T07:00:24.000Z</time>
      </trkpt>
      <trkpt lat="44.14362" lon="5.88715">
        <ele>630</ele>
        <time>2021-06-01T07:00:25.000Z</time>
      </trkpt>
      <trkpt lat="44.14361" lon="5.88716">
        <ele>630</ele>
        <time>2021-06-01T07:00:26.000Z</time>
      </trkpt>
      <trkpt lat="44.1436" lon="5.88716">
        <ele>630</ele>
        <time>2021-06-01T07:00:27.000Z</time>
      </trkpt>
      <trkpt lat="44.14359" lon="5.88716">
        <ele>630</ele>
        <time>2021-06-01T07:00:28.000Z</time>
      </trkpt>
      <trkpt lat="44.14359" lon="5.88717">
        <ele>630</ele>
        <time>2021-06-01T07:00:29.000Z</time>
      </trkpt>
      <trkpt lat="44.14358" lon="5.88718">
        <ele>630</ele>
        <time>2021-06-01T07:00:30.000Z</time>
      </trkpt>
      <trkpt lat="44.14357" lon="5.88719">
        <ele>630</ele>
        <time>2021-06-01T07:00:31.000Z</time>
      </trkpt>
      <trkpt lat="44.14357" lon="5.8872">
        <ele>630</ele>
        <time>2021-06-01T07:00:32.000Z</time>
      </trkpt>
      <trkpt lat="44.14356" lon="5.8872">
        <ele>630</ele>
        <time>2021-06-01T07:00:33.000Z</time>
      </trkpt>
      <trkpt lat="44.14355" lon="5.88721">
        <ele>630</ele>
        <time>2021-06-01T07:00:34.000Z</time>
      </trkpt>
      <trkpt lat="44.14354" lon="5.88721">
        <ele>630</ele>
        <time>2021-06-01T07:00:35.000Z</time>
      </trkpt>
      <trkpt lat="44.14354" lon="5.88722">
        <ele>630</ele>
        <time>2021-06-01T07:00:36.000Z</time>
      </trkpt>
      <trkpt lat="44.14353" lon="5.88723">
        <ele>630</ele>
        <time>2021-06-01T07:00:37.000Z</time>
      </trkpt>
      <trkpt lat="44.14352" lon="5.88723">
        <ele>630</ele>
        <time>2021-06-01T07:00:38.000Z</time>
      </trkpt>
      <trkpt lat="44.14351" lon="5.88724">
        <ele>630</ele>
        <time>2021-06-01T07:00:39.000Z</time>
      </trkpt>
      <trkpt lat="44.14351" lon="5.88725">
        <ele>631</ele>
        <time>2021-06-01T07:00:40.000Z</time>
      </trkpt>
      <trkpt lat="44.1435" lon="5.88726">
        <ele>631</ele>
        <time>2021-06-01T07:00:41.000Z</time>
      </trkpt>
      <trkpt lat="44.14349" lon="5.88726">
        <ele>631</ele>
        <time>2021-06-01T07:00:42.000Z</time>
      </trkpt>
      <trkpt lat="44.14349" lon="5.88726">
        <ele>631</ele>
        <time>2021-06-01T07:00:43.000Z</time>
      </trkpt>
      <trkpt lat="44.14349" lon="5.88726">
        <ele>631</ele>
        <time>2021-06-01T07:00:44.000Z</time>
      </trkpt>
      <trkpt lat="44.14349" lon="5.88726">
        <ele>631</ele>
        <time>2021-06-01T07:00:45.000Z</time>
      </trkpt>
      <trkpt lat="44.14349" lon="5.88726">
        <ele>631</ele>
        <time>2021-06-01T07:00:46.000Z</time>
      </trkpt>
      <trkpt lat="44.14349" lon="5.88726">
        <ele>631</ele>
        <time>2021-06-01T07:00:47.000Z</time>
      </trkpt>
      <trkpt lat="44.14349" lon="5.88726">
        <ele>632</ele>
        <time>2021-06-01T07:00:48.000Z</time>
      </trkpt>
      <trkpt lat="44.14349" lon="5.88726">
        <ele>632</ele>
        <time>2021-06-01T07:00:49.000Z</time>
      </trkpt>
      <trkpt lat="44.14349" lon="5.88726">
        <ele>632</ele>
        <time>2021-06-01T07:00:50.000Z</time>
      </trkpt>
      <trkpt lat="44.14349" lon="5.88726">
        <ele>632</ele>
        <time>2021-06-01T07:00:51.000Z</time>
      </trkpt>
      <trkpt lat="44.14349" lon="5.88726">
        <ele>632</ele>
        <time>2021-06-01T07:00:52.000Z</time>
      </trkpt>
      <trkpt lat="44.14348" lon="5.88726">
        <ele>632</ele>
        <time>2021-06-01T07:00:53.000Z</time>
      </trkpt>
      <trkpt lat="44.14348" lon="5.88726">
        <ele>632</ele>
        <time>2021-06-01T07:00:54.000Z</time>
      </trkpt>
      <trkpt lat="44.14348" lon="5.88726">
        <ele>632</ele>
        <time>2021-06-01T07:00:55.000Z</time>
      </trkpt>
      <trkpt lat="44.14348" lon="5.88726">
        <ele>632</ele>
        <time>2021-06-01T07:00:56.000Z</time>
      </trkpt>
      <trkpt lat="44.14348" lon="5.88726">
        <ele>632</ele>
        <time>2021-06-01T07:00:57.000Z</time>
      </trkpt>
      <trkpt lat="44.14348" lon="5.88726">
        <ele>632</ele>
        <time>2021-06-01T07:00:58.000Z</time>
      </trkpt>
      <trkpt lat="44.14348" lon="5.88726">
        <ele>632</ele>
        <time>2021-06-01T07:00:59.000Z</time>
      </trkpt>
      <trkpt lat="44.14348" lon="5.88726">
        <ele>632</ele>
        <time>2021-06-01T07:01:00.000Z</time>
      </trkpt>
      <trkpt lat="44.14348" lon="5.88726">
        <ele>633</ele>
        <time>2021-06-01T07:01:01.000Z</time>
      </trkpt>
      <trkpt lat="44.14348" lon="5.88726">
        <ele>633</ele>
        <time>2021-06-01T07:01:02.000Z</time>
      </trkpt>
      <trkpt lat="44.14348" lon="5.88726">
        <ele>633</ele>
        <time>2021-06-01T07:01:03.000Z</time>
      </trkpt>
      <trkpt lat="44.14348" lon="5.88726">
        <ele>633</ele>
        <time>2021-06-01T07:01:04.000Z</time>
      </trkpt>
      <trkpt lat="44.14348" lon="5.88726">
        <ele>633</ele>
        <time>2021-06-01T07:01:05.000Z</time>
      </trkpt>
      <trkpt lat="44.14348" lon="5.88726">
        <ele>633</ele>
        <time>2021-06-01T07:01:06.000Z</time>
      </trkpt>
      <trkpt lat="44.14348" lon="5.88726">
        <ele>633</ele>
        <time>2021-06-01T07:01:07.000Z</time>
      </trkpt>
      <trkpt lat="44.14348" lon="5.88726">
        <ele>633</ele>
        <time>2021-06-01T07:01:08.000Z</time>
      </trkpt>
      <trkpt lat="44.14348" lon="5.88726">
        <ele>633</ele>
        <time>2021-06-01T07:01:09.000Z</time>
      </trkpt>
      <trkpt lat="44.14348" lon="5.88726">
        <ele>633</ele>
        <time>2021-06-01T07:01:10.000Z</time>
      </trkpt>
      <trkpt lat="44.14348" lon="5.88726">
        <ele>633</ele>
        <time>2021-06-01T07:01:11.000Z</time>
      </trkpt>
      <trkpt lat="44.14348" lon="5.88726">
        <ele>633</ele>
        <time>2021-06-01T07:01:12.000Z</time>
      </trkpt>
      <trkpt lat="44.14348" lon="5.88726">
        <ele>633</ele>
        <time>2021-06-01T07:01:13.000Z</time>
      </trkpt>
      <trkpt lat="44.14348" lon="5.88726">
        <ele>633</ele>
        <time>2021-06-01T07:01:14.000Z</time>
      </trkpt>
      <trkpt lat="44.14348" lon="5.88726">
        <ele>633</ele>
        <time>2021-06-01T07:01:15.000Z</time>
      </trkpt>
      <trkpt lat="44.14347" lon="5.88727">
        <ele>634</ele>
        <time>2021-06-01T07:01:16.000Z</time>
      </trkpt>
      <trkpt lat="44.14347" lon="5.88727">
        <ele>634</ele>
        <time>2021-06-01T07:01:17.000Z</time>
      </trkpt>
      <trkpt lat="44.14346" lon="5.88727">
        <ele>634</ele>
        <time>2021-06-01T07:01:18.000Z</time>
      </trkpt>
      <trkpt lat="44.14345" lon="5.88728">
        <ele>634</ele>
        <time>2021-06-01T07:01:19.000Z</time>
      </trkpt>
      <trkpt lat="44.14344" lon="5.88729">
        <ele>634</ele>
        <time>2021-06-01T07:01:20.000Z</time>
      </trkpt>
      <trkpt lat="44.14344" lon="5.88729">
        <ele>634</ele>
        <time>2021-06-01T07:01:21.000Z</time>
      </trkpt>
      <trkpt lat="44.14343" lon="5.8873">
        <ele>634</ele>
        <time>2021-06-01T07:01:22.000Z</time>
      </trkpt>
      <trkpt lat="44.14342" lon="5.88731">
        <ele>634</ele>
        <time>2021-06-01T07:01:23.000Z</time>
      </trkpt>
      <trkpt lat="44.14341" lon="5.88731">
        <ele>634</ele>
        <time>2021-06-01T07:01:24.000Z</time>
      </trkpt>
      <trkpt lat="44.14341" lon="5.88732">
        <ele>634</ele>
        <time>2021-06-01T07:01:25.000Z</time>
      </trkpt>
      <trkpt lat="44.1434" lon="5.88733">
        <ele>635</ele>
        <time>2021-06-01T07:01:26.000Z</time>
      </trkpt>
      <trkpt lat="44.14339" lon="5.88734">
        <ele>635</ele>
        <time>2021-06-01T07:01:27.000Z</time>
      </trkpt>
      <trkpt lat="44.14339" lon="5.88734">
        <ele>635</ele>
        <time>2021-06-01T07:01:28.000Z</time>
      </trkpt>
      <trkpt lat="44.14338" lon="5.88735">
        <ele>635</ele>
        <time>2021-06-01T07:01:29.000Z</time>
      </trkpt>
      <trkpt lat="44.14337" lon="5.88736">
        <ele>635</ele>
        <time>2021-06-01T07:01:30.000Z</time>
      </trkpt>
      <trkpt lat="44.14337" lon="5.88737">
        <ele>635</ele>
        <time>2021-06-01T07:01:31.000Z</time>
      </trkpt>
      <trkpt lat="44.14336" lon="5.88738">
        <ele>635</ele>
        <time>2021-06-01T07:01:32.000Z</time>
      </trkpt>
      <trkpt lat="44.14336" lon="5.88739">
        <ele>635</ele>
        <time>2021-06-01T07:01:33.000Z</time>
      </trkpt>
      <trkpt lat="44.14335" lon="5.8874">
        <ele>636</ele>
        <time>2021-06-01T07:01:34.000Z</time>
      </trkpt>
      <trkpt lat="44.14335" lon="5.88741">
        <ele>636</ele>
        <time>2021-06-01T07:01:35.000Z</time>
      </trkpt>
      <trkpt lat="44.14334" lon="5.88741">
        <ele>636</ele>
        <time>2021-06-01T07:01:36.000Z</time>
      </trkpt>
      <trkpt lat="44.14333" lon="5.88742">
        <ele>636</ele>
        <time>2021-06-01T07:01:37.000Z</time>
      </trkpt>
      <trkpt lat="44.14333" lon="5.88743">
        <ele>636</ele>
        <time>2021-06-01T07:01:38.000Z</time>
      </trkpt>
      <trkpt lat="44.14332" lon="5.88744">
        <ele>636</ele>
        <time>2021-06-01T07:01:39.000Z</time>
      </trkpt>
      <trkpt lat="44.14331" lon="5.88745">
        <ele>636</ele>
        <time>2021-06-01T07:01:40.000Z</time>
      </trkpt>
      <trkpt lat="44.14331" lon="5.88745">
        <ele>636</ele>
        <time>2021-06-01T07:01:41.000Z</time>
      </trkpt>
      <trkpt lat="44.14331" lon="5.88746">
        <ele>636</ele>
        <time>2021-06-01T07:01:42.000Z</time>
      </trkpt>
      <trkpt lat="44.1433" lon="5.88747">
        <ele>636</ele>
        <time>2021-06-01T07:01:43.000Z</time>
      </trkpt>
      <trkpt lat="44.1433" lon="5.88748">
        <ele>636</ele>
        <time>2021-06-01T07:01:44.000Z</time>
      </trkpt>
      <trkpt lat="44.14329" lon="5.88749">
        <ele>636</ele>
        <time>2021-06-01T07:01:45.000Z</time>
      </trkpt>
      <trkpt lat="44.14329" lon="5.8875">
        <ele>636</ele>
        <time>2021-06-01T07:01:46.000Z</time>
      </trkpt>
      <trkpt lat="44.14328" lon="5.88751">
        <ele>636</ele>
        <time>2021-06-01T07:01:47.000Z</time>
      </trkpt>
      <trkpt lat="44.14328" lon="5.88752">
        <ele>636</ele>
        <time>2021-06-01T07:01:48.000Z</time>
      </trkpt>
      <trkpt lat="44.14327" lon="5.88753">
        <ele>637</ele>
        <time>2021-06-01T07:01:49.000Z</time>
      </trkpt>
      <trkpt lat="44.14327" lon="5.88754">
        <ele>637</ele>
        <time>2021-06-01T07:01:50.000Z</time>
      </trkpt>
      <trkpt lat="44.14326" lon="5.88755">
        <ele>637</ele>
        <time>2021-06-01T07:01:51.000Z</time>
      </trkpt>
      <trkpt lat="44.14325" lon="5.88755">
        <ele>637</ele>
        <time>2021-06-01T07:01:52.000Z</time>
      </trkpt>
      <trkpt lat="44.14325" lon="5.88756">
        <ele>637</ele>
        <time>2021-06-01T07:01:53.000Z</time>
      </trkpt>
      <trkpt lat="44.14324" lon="5.88757">
        <ele>637</ele>
        <time>2021-06-01T07:01:54.000Z</time>
      </trkpt>
      <trkpt lat="44.14324" lon="5.88758">
        <ele>637</ele>
        <time>2021-06-01T07:01:55.000Z</time>
      </trkpt>
      <trkpt lat="44.14323" lon="5.88758">
        <ele>638</ele>
        <time>2021-06-01T07:01:56.000Z</time>
      </trkpt>
      <trkpt lat="44.14323" lon="5.88759">
        <ele>638</ele>
        <time>2021-06-01T07:01:57.000Z</time>
      </trkpt>
      <trkpt lat="44.14322" lon="5.8876">
        <ele>638</ele>
        <time>2021-06-01T07:01:58.000Z</time>
      </trkpt>
      <trkpt lat="44.14322" lon="5.88761">
        <ele>638</ele>
        <time>2021-06-01T07:01:59.000Z</time>
      </trkpt>
      <trkpt lat="44.14321" lon="5.88762">
        <ele>638</ele>
        <time>2021-06-01T07:02:00.000Z</time>
      </trkpt>
      <trkpt lat="44.14321" lon="5.88763">
        <ele>638</ele>
        <time>2021-06-01T07:02:01.000Z</time>
      </trkpt>
      <trkpt lat="44.1432" lon="5.88764">
        <ele>639</ele>
        <time>2021-06-01T07:02:02.000Z</time>
      </trkpt>
      <trkpt lat="44.1432" lon="5.88765">
        <ele>639</ele>
        <time>2021-06-01T07:02:03.000Z</time>
      </trkpt>
      <trkpt lat="44.1432" lon="5.88766">
        <ele>639</ele>
        <time>2021-06-01T07:02:04.000Z</time>
      </trkpt>
      <trkpt lat="44.14319" lon="5.88767">
        <ele>639</ele>
        <time>2021-06-01T07:02:05.000Z</time>
      </trkpt>
      <trkpt lat="44.14319" lon="5.88768">
        <ele>639</ele>
        <time>2021-06-01T07:02:06.000Z</time>
      </trkpt>
      <trkpt lat="44.14318" lon="5.88769">
        <ele>639</ele>
        <time>2021-06-01T07:02:07.000Z</time>
      </trkpt>
      <trkpt lat="44.14318" lon="5.88769">
        <ele>639</ele>
        <time>2021-06-01T07:02:08.000Z</time>
      </trkpt>
      <trkpt lat="44.14317" lon="5.8877">
        <ele>640</ele>
        <time>2021-06-01T07:02:09.000Z</time>
      </trkpt>
      <trkpt lat="44.14317" lon="5.88771">
        <ele>640</ele>
        <time>2021-06-01T07:02:10.000Z</time>
      </trkpt>
      <trkpt lat="44.14316" lon="5.88772">
        <ele>640</ele>
        <time>2021-06-01T07:02:11.000Z</time>
      </trkpt>
      <trkpt lat="44.14315" lon="5.88773">
        <ele>640</ele>
        <time>2021-06-01T07:02:12.000Z</time>
      </trkpt>
      <trkpt lat="44.14315" lon="5.88774">
        <ele>641</ele>
        <time>2021-06-01T07:02:13.000Z</time>
      </trkpt>
      <trkpt lat="44.14314" lon="5.88775">
        <ele>641</ele>
        <time>2021-06-01T07:02:14.000Z</time>
      </trkpt>
      <trkpt lat="44.14313" lon="5.88776">
        <ele>642</ele>
        <time>2021-06-01T07:02:15.000Z</time>
      </trkpt>
      <trkpt lat="44.14313" lon="5.88777">
        <ele>642</ele>
        <time>2021-06-01T07:02:16.000Z</time>
      </trkpt>
      <trkpt lat="44.14312" lon="5.88778">
        <ele>642</ele>
        <time>2021-06-01T07:02:17.000Z</time>
      </trkpt>
      <trkpt lat="44.14312" lon="5.88779">
        <ele>642</ele>
        <time>2021-06-01T07:02:18.000Z</time>
      </trkpt>
      <trkpt lat="44.14311" lon="5.88779">
        <ele>643</ele>
        <time>2021-06-01T07:02:19.000Z</time>
      </trkpt>
      <trkpt lat="44.14311" lon="5.8878">
        <ele>643</ele>
        <time>2021-06-01T07:02:20.000Z</time>
      </trkpt>
      <trkpt lat="44.1431" lon="5.88781">
        <ele>643</ele>
        <time>2021-06-01T07:02:21.000Z</time>
      </trkpt>
      <trkpt lat="44.14309" lon="5.88782">
        <ele>643</ele>
        <time>2021-06-01T07:02:22.000Z</time>
      </trkpt>
      <trkpt lat="44.14309" lon="5.88783">
        <ele>643</ele>
        <time>2021-06-01T07:02:23.000Z</time>
      </trkpt>
      <trkpt lat="44.14308" lon="5.88784">
        <ele>644</ele>
        <time>2021-06-01T07:02:24.000Z</time>
      </trkpt>
      <trkpt lat="44.14307" lon="5.88785">
        <ele>644</ele>
        <time>2021-06-01T07:02:25.000Z</time>
      </trkpt>
      <trkpt lat="44.14306" lon="5.88785">
        <ele>644</ele>
        <time>2021-06-01T07:02:26.000Z</time>
      </trkpt>
      <trkpt lat="44.14306" lon="5.88786">
        <ele>644</ele>
        <time>2021-06-01T07:02:27.000Z</time>
      </trkpt>
      <trkpt lat="44.14305" lon="5.88787">
        <ele>644</ele>
        <time>2021-06-01T07:02:28.000Z</time>
      </trkpt>
      <trkpt lat="44.14304" lon="5.88788">
        <ele>645</ele>
        <time>2021-06-01T07:02:29.000Z</time>
      </trkpt>
      <trkpt lat="44.14304" lon="5.88789">
        <ele>645</ele>
        <time>2021-06-01T07:02:30.000Z</time>
      </trkpt>
      <trkpt lat="44.14303" lon="5.8879">
        <ele>645</ele>
        <time>2021-06-01T07:02:31.000Z</time>
      </trkpt>
      <trkpt lat="44.14303" lon="5.88791">
        <ele>645</ele>
        <time>2021-06-01T07:02:32.000Z</time>
      </trkpt>
      <trkpt lat="44.14302" lon="5.88792">
        <ele>645</ele>
        <time>2021-06-01T07:02:33.000Z</time>
      </trkpt>
      <trkpt lat="44.14302" lon="5.88792">
        <ele>646</ele>
        <time>2021-06-01T07:02:34.000Z</time>
      </trkpt>
      <trkpt lat="44.14301" lon="5.88793">
        <ele>646</ele>
        <time>2021-06-01T07:02:35.000Z</time>
      </trkpt>
      <trkpt lat="44.14301" lon="5.88794">
        <ele>646</ele>
        <time>2021-06-01T07:02:36.000Z</time>
      </trkpt>
      <trkpt lat="44.143" lon="5.88795">
        <ele>646</ele>
        <time>2021-06-01T07:02:37.000Z</time>
      </trkpt>
      <trkpt lat="44.14299" lon="5.88796">
        <ele>646</ele>
        <time>2021-06-01T07:02:38.000Z</time>
      </trkpt>
      <trkpt lat="44.14299" lon="5.88797">
        <ele>647</ele>
        <time>2021-06-01T07:02:39.000Z</time>
      </trkpt>
      <trkpt lat="44.14298" lon="5.88798">
        <ele>647</ele>
        <time>2021-06-01T07:02:40.000Z</time>
      </trkpt>
      <trkpt lat="44.14297" lon="5.88799">
        <ele>647</ele>
        <time>2021-06-01T07:02:41.000Z</time>
      </trkpt>
      <trkpt lat="44.14296" lon="5.88799">
        <ele>647</ele>
        <time>2021-06-01T07:02:42.000Z</time>
      </trkpt>
      <trkpt lat="44.14296" lon="5.888">
        <ele>647</ele>
        <time>2021-06-01T07:02:43.000Z</time>
      </trkpt>
      <trkpt lat="44.14295" lon="5.88801">
        <ele>647</ele>
        <time>2021-06-01T07:02:44.000Z</time>
      </trkpt>
      <trkpt lat="44.14295" lon="5.88802">
        <ele>647</ele>
        <time>2021-06-01T07:02:45.000Z</time>
      </trkpt>
      <trkpt lat="44.14294" lon="5.88803">
        <ele>647</ele>
        <time>2021-06-01T07:02:46.000Z</time>
      </trkpt>
      <trkpt lat="44.14294" lon="5.88804">
        <ele>647</ele>
        <time>2021-06-01T07:02:47.000Z</time>
      </trkpt>
      <trkpt lat="44.14294" lon="5.88805">
        <ele>647</ele>
        <time>2021-06-01T07:02:48.000Z</time>
      </trkpt>
      <trkpt lat="44.14294" lon="5.88805">
        <ele>647</ele>
        <time>2021-06-01T07:02:49.000Z</time>
      </trkpt>
      <trkpt lat="44.14294" lon="5.88805">
        <ele>647</ele>
        <time>2021-06-01T07:02:50.000Z</time>
      </trkpt>
      <trkpt lat="44.14295" lon="5.88805">
        <ele>647</ele>
        <time>2021-06-01T07:02:51.000Z</time>
      </trkpt>
      <trkpt lat="44.14296" lon="5.88804">
        <ele>647</ele>
        <time>2021-06-01T07:02:52.000Z</time>
      </trkpt>
      <trkpt lat="44.14297" lon="5.88804">
        <ele>647</ele>
        <time>2021-06-01T07:02:53.000Z</time>
      </trkpt>
      <trkpt lat="44.14298" lon="5.88804">
        <ele>647</ele>
        <time>2021-06-01T07:02:54.000Z</time>
      </trkpt>
      <trkpt lat="44.14298" lon="5.88803">
        <ele>647</ele>
        <time>2021-06-01T07:02:55.000Z</time>
      </trkpt>
      <trkpt lat="44.14299" lon="5.88802">
        <ele>647</ele>
        <time>2021-06-01T07:02:56.000Z</time>
      </trkpt>
      <trkpt lat="44.143" lon="5.88801">
        <ele>646</ele>
        <time>2021-06-01T07:02:57.000Z</time>
      </trkpt>
      <trkpt lat="44.14301" lon="5.888">
        <ele>646</ele>
        <time>2021-06-01T07:02:58.000Z</time>
      </trkpt>
      <trkpt lat="44.14302" lon="5.888">
        <ele>646</ele>
        <time>2021-06-01T07:02:59.000Z</time>
      </trkpt>
      <trkpt lat="44.14303" lon="5.88799">
        <ele>646</ele>
        <time>2021-06-01T07:03:00.000Z</time>
      </trkpt>
      <trkpt lat="44.14305" lon="5.88798">
        <ele>646</ele>
        <time>2021-06-01T07:03:01.000Z</time>
      </trkpt>
      <trkpt lat="44.14306" lon="5.88798">
        <ele>645</ele>
        <time>2021-06-01T07:03:02.000Z</time>
      </trkpt>
      <trkpt lat="44.14306" lon="5.88797">
        <ele>645</ele>
        <time>2021-06-01T07:03:03.000Z</time>
      </trkpt>
      <trkpt lat="44.14307" lon="5.88796">
        <ele>645</ele>
        <time>2021-06-01T07:03:04.000Z</time>
      </trkpt>
      <trkpt lat="44.14308" lon="5.88796">
        <ele>645</ele>
        <time>2021-06-01T07:03:05.000Z</time>
      </trkpt>
      <trkpt lat="44.14309" lon="5.88795">
        <ele>645</ele>
        <time>2021-06-01T07:03:06.000Z</time>
      </trkpt>
      <trkpt lat="44.1431" lon="5.88794">
        <ele>645</ele>
        <time>2021-06-01T07:03:07.000Z</time>
      </trkpt>
      <trkpt lat="44.14311" lon="5.88793">
        <ele>645</ele>
        <time>2021-06-01T07:03:08.000Z</time>
      </trkpt>
      <trkpt lat="44.14312" lon="5.88792">
        <ele>645</ele>
        <time>2021-06-01T07:03:09.000Z</time>
      </trkpt>
      <trkpt lat="44.14313" lon="5.88791">
        <ele>645</ele>
        <time>2021-06-01T07:03:10.000Z</time>
      </trkpt>
      <trkpt lat="44.14314" lon="5.8879">
        <ele>645</ele>
        <time>2021-06-01T07:03:11.000Z</time>
      </trkpt>
      <trkpt lat="44.14315" lon="5.88789">
        <ele>645</ele>
        <time>2021-06-01T07:03:12.000Z</time>
      </trkpt>
      <trkpt lat="44.14316" lon="5.88788">
        <ele>645</ele>
        <time>2021-06-01T07:03:13.000Z</time>
      </trkpt>
      <trkpt lat="44.14317" lon="5.88788">
        <ele>645</ele>
        <time>2021-06-01T07:03:14.000Z</time>
      </trkpt>
      <trkpt lat="44.14318" lon="5.88787">
        <ele>645</ele>
        <time>2021-06-01T07:03:15.000Z</time>
      </trkpt>
      <trkpt lat="44.14318" lon="5.88786">
        <ele>645</ele>
        <time>2021-06-01T07:03:16.000Z</time>
      </trkpt>
      <trkpt lat="44.14319" lon="5.88786">
        <ele>645</ele>
        <time>2021-06-01T07:03:17.000Z</time>
      </trkpt>
      <trkpt lat="44.1432" lon="5.88785">
        <ele>645</ele>
        <time>2021-06-01T07:03:18.000Z</time>
      </trkpt>
      <trkpt lat="44.14321" lon="5.88784">
        <ele>644</ele>
        <time>2021-06-01T07:03:19.000Z</time>
      </trkpt>
      <trkpt lat="44.14322" lon="5.88784">
        <ele>644</ele>
        <time>2021-06-01T07:03:20.000Z</time>
      </trkpt>
      <trkpt lat="44.14323" lon="5.88783">
        <ele>644</ele>
        <time>2021-06-01T07:03:21.000Z</time>
      </trkpt>
      <trkpt lat="44.14324" lon="5.88783">
        <ele>644</ele>
        <time>2021-06-01T07:03:22.000Z</time>
      </trkpt>
      <trkpt lat="44.14325" lon="5.88782">
        <ele>644</ele>
        <time>2021-06-01T07:03:23.000Z</time>
      </trkpt>
      <trkpt lat="44.14325" lon="5.88781">
        <ele>644</ele>
        <time>2021-06-01T07:03:24.000Z</time>
      </trkpt>
      <trkpt lat="44.14326" lon="5.8878">
        <ele>644</ele>
        <time>2021-06-01T07:03:25.000Z</time>
      </trkpt>
      <trkpt lat="44.14327" lon="5.88779">
        <ele>644</ele>
        <time>2021-06-01T07:03:26.000Z</time>
      </trkpt>
      <trkpt lat="44.14327" lon="5.88778">
        <ele>644</ele>
        <time>2021-06-01T07:03:27.000Z</time>
      </trkpt>
      <trkpt lat="44.14328" lon="5.88777">
        <ele>644</ele>
        <time>2021-06-01T07:03:28.000Z</time>
      </trkpt>
      <trkpt lat="44.14329" lon="5.88776">
        <ele>644</ele>
        <time>2021-06-01T07:03:29.000Z</time>
      </trkpt>
      <trkpt lat="44.14329" lon="5.88775">
        <ele>644</ele>
        <time>2021-06-01T07:03:30.000Z</time>
      </trkpt>
      <trkpt lat="44.1433" lon="5.88775">
        <ele>644</ele>
        <time>2021-06-01T07:03:31.000Z</time>
      </trkpt>
      <trkpt lat="44.14331" lon="5.88774">
        <ele>644</ele>
        <time>2021-06-01T07:03:32.000Z</time>
      </trkpt>
      <trkpt lat="44.14332" lon="5.88773">
        <ele>644</ele>
        <time>2021-06-01T07:03:33.000Z</time>
      </trkpt>
      <trkpt lat="44.14332" lon="5.88772">
        <ele>644</ele>
        <time>2021-06-01T07:03:34.000Z</time>
      </trkpt>
      <trkpt lat="44.14333" lon="5.88771">
        <ele>644</ele>
        <time>2021-06-01T07:03:35.000Z</time>
      </trkpt>
      <trkpt lat="44.14334" lon="5.88771">
        <ele>643</ele>
        <time>2021-06-01T07:03:36.000Z</time>
      </trkpt>
      <trkpt lat="44.14335" lon="5.8877">
        <ele>643</ele>
        <time>2021-06-01T07:03:37.000Z</time>
      </trkpt>
      <trkpt lat="44.14336" lon="5.8877">
        <ele>643</ele>
        <time>2021-06-01T07:03:38.000Z</time>
      </trkpt>
      <trkpt lat="44.14337" lon="5.88769">
        <ele>643</ele>
        <time>2021-06-01T07:03:39.000Z</time>
      </trkpt>
      <trkpt lat="44.14338" lon="5.88769">
        <ele>643</ele>
        <time>2021-06-01T07:03:40.000Z</time>
      </trkpt>
      <trkpt lat="44.14338" lon="5.88768">
        <ele>643</ele>
        <time>2021-06-01T07:03:41.000Z</time>
      </trkpt>
      <trkpt lat="44.14339" lon="5.88768">
        <ele>643</ele>
        <time>2021-06-01T07:03:42.000Z</time>
      </trkpt>
      <trkpt lat="44.1434" lon="5.88767">
        <ele>643</ele>
        <time>2021-06-01T07:03:43.000Z</time>
      </trkpt>
      <trkpt lat="44.14341" lon="5.88767">
        <ele>643</ele>
        <time>2021-06-01T07:03:44.000Z</time>
      </trkpt>
      <trkpt lat="44.14342" lon="5.88766">
        <ele>643</ele>
        <time>2021-06-01T07:03:45.000Z</time>
      </trkpt>
      <trkpt lat="44.14342" lon="5.88765">
        <ele>643</ele>
        <time>2021-06-01T07:03:46.000Z</time>
      </trkpt>
      <trkpt lat="44.14343" lon="5.88765">
        <ele>643</ele>
        <time>2021-06-01T07:03:47.000Z</time>
      </trkpt>
      <trkpt lat="44.14344" lon="5.88764">
        <ele>643</ele>
        <time>2021-06-01T07:03:48.000Z</time>
      </trkpt>
      <trkpt lat="44.14345" lon="5.88764">
        <ele>643</ele>
        <time>2021-06-01T07:03:49.000Z</time>
      </trkpt>
      <trkpt lat="44.14346" lon="5.88764">
        <ele>643</ele>
        <time>2021-06-01T07:03:50.000Z</time>
      </trkpt>
      <trkpt lat="44.14347" lon="5.88763">
        <ele>643</ele>
        <time>2021-06-01T07:03:51.000Z</time>
      </trkpt>
      <trkpt lat="44.14348" lon="5.88763">
        <ele>643</ele>
        <time>2021-06-01T07:03:52.000Z</time>
      </trkpt>
      <trkpt lat="44.14349" lon="5.88762">
        <ele>643</ele>
        <time>2021-06-01T07:03:53.000Z</time>
      </trkpt>
      <trkpt lat="44.14349" lon="5.88761">
        <ele>643</ele>
        <time>2021-06-01T07:03:54.000Z</time>
      </trkpt>
      <trkpt lat="44.1435" lon="5.8876">
        <ele>643</ele>
        <time>2021-06-01T07:03:55.000Z</time>
      </trkpt>
      <trkpt lat="44.1435" lon="5.88759">
        <ele>643</ele>
        <time>2021-06-01T07:03:56.000Z</time>
      </trkpt>
      <trkpt lat="44.1435" lon="5.88758">
        <ele>644</ele>
        <time>2021-06-01T07:03:57.000Z</time>
      </trkpt>
      <trkpt lat="44.1435" lon="5.88757">
        <ele>644</ele>
        <time>2021-06-01T07:03:58.000Z</time>
      </trkpt>
      <trkpt lat="44.1435" lon="5.88756">
        <ele>644</ele>
        <time>2021-06-01T07:03:59.000Z</time>
      </trkpt>
      <trkpt lat="44.1435" lon="5.88755">
        <ele>644</ele>
        <time>2021-06-01T07:04:00.000Z</time>
      </trkpt>
      <trkpt lat="44.1435" lon="5.88754">
        <ele>644</ele>
        <time>2021-06-01T07:04:01.000Z</time>
      </trkpt>
      <trkpt lat="44.1435" lon="5.88753">
        <ele>644</ele>
        <time>2021-06-01T07:04:02.000Z</time>
      </trkpt>
      <trkpt lat="44.14351" lon="5.88752">
        <ele>644</ele>
        <time>2021-06-01T07:04:03.000Z</time>
      </trkpt>
      <trkpt lat="44.14351" lon="5.88752">
        <ele>644</ele>
        <time>2021-06-01T07:04:04.000Z</time>
      </trkpt>
      <trkpt lat="44.14351" lon="5.88752">
        <ele>645</ele>
        <time>2021-06-01T07:04:05.000Z</time>
      </trkpt>
      <trkpt lat="44.14351" lon="5.88752">
        <ele>645</ele>
        <time>2021-06-01T07:04:06.000Z</time>
      </trkpt>
      <trkpt lat="44.14351" lon="5.88752">
        <ele>645</ele>
        <time>2021-06-01T07:04:07.000Z</time>
      </trkpt>
      <trkpt lat="44.14351" lon="5.88752">
        <ele>645</ele>
        <time>2021-06-01T07:04:08.000Z</time>
      </trkpt>
      <trkpt lat="44.14351" lon="5.88752">
        <ele>645</ele>
        <time>2021-06-01T07:04:09.000Z</time>
      </trkpt>
      <trkpt lat="44.14351" lon="5.88752">
        <ele>645</ele>
        <time>2021-06-01T07:04:10.000Z</time>
      </trkpt>
      <trkpt lat="44.14351" lon="5.88752">
        <ele>645</ele>
        <time>2021-06-01T07:04:11.000Z</time>
      </trkpt>
      <trkpt lat="44.14351" lon="5.88752">
        <ele>646</ele>
        <time>2021-06-01T07:04:12.000Z</time>
      </trkpt>
      <trkpt lat="44.14351" lon="5.88752">
        <ele>646</ele>
        <time>2021-06-01T07:04:13.000Z</time>
      </trkpt>
      <trkpt lat="44.14351" lon="5.88752">
        <ele>646</ele>
        <time>2021-06-01T07:04:14.000Z</time>
      </trkpt>
      <trkpt lat="44.14351" lon="5.88752">
        <ele>646</ele>
        <time>2021-06-01T07:04:15.000Z</time>
      </trkpt>
      <trkpt lat="44.14351" lon="5.88753">
        <ele>646</ele>
        <time>2021-06-01T07:04:16.000Z</time>
      </trkpt>
      <trkpt lat="44.14351" lon="5.88753">
        <ele>646</ele>
        <time>2021-06-01T07:04:17.000Z</time>
      </trkpt>
      <trkpt lat="44.14351" lon="5.88754">
        <ele>646</ele>
        <time>2021-06-01T07:04:18.000Z</time>
      </trkpt>
      <trkpt lat="44.14351" lon="5.88755">
        <ele>646</ele>
        <time>2021-06-01T07:04:19.000Z</time>
      </trkpt>
      <trkpt lat="44.14352" lon="5.88756">
        <ele>646</ele>
        <time>2021-06-01T07:04:20.000Z</time>
      </trkpt>
      <trkpt lat="44.14352" lon="5.88757">
        <ele>646</ele>
        <time>2021-06-01T07:04:21.000Z</time>
      </trkpt>
      <trkpt lat="44.14352" lon="5.88757">
        <ele>646</ele>
        <time>2021-06-01T07:04:22.000Z</time>
      </trkpt>
      <trkpt lat="44.14352" lon="5.88758">
        <ele>646</ele>
        <time>2021-06-01T07:04:23.000Z</time>
      </trkpt>
      <trkpt lat="44.14352" lon="5.88758">
        <ele>646</ele>
        <time>2021-06-01T07:04:24.000Z</time>
      </trkpt>
      <trkpt lat="44.14352" lon="5.88758">
        <ele>646</ele>
        <time>2021-06-01T07:04:25.000Z</time>
      </trkpt>
      <trkpt lat="44.14352" lon="5.88758">
        <ele>647</ele>
        <time>2021-06-01T07:04:26.000Z</time>
      </trkpt>
      <trkpt lat="44.14352" lon="5.88758">
        <ele>647</ele>
        <time>2021-06-01T07:04:27.000Z</time>
      </trkpt>
      <trkpt lat="44.14352" lon="5.88758">
        <ele>647</ele>
        <time>2021-06-01T07:04:28.000Z</time>
      </trkpt>
      <trkpt lat="44.14352" lon="5.88758">
        <ele>647</ele>
        <time>2021-06-01T07:04:29.000Z</time>
      </trkpt>
      <trkpt lat="44.14352" lon="5.88758">
        <ele>647</ele>
        <time>2021-06-01T07:04:30.000Z</time>
      </trkpt>
      <trkpt lat="44.14352" lon="5.88758">
        <ele>647</ele>
        <time>2021-06-01T07:04:31.000Z</time>
      </trkpt>
      <trkpt lat="44.14352" lon="5.88758">
        <ele>647</ele>
        <time>2021-06-01T07:04:32.000Z</time>
      </trkpt>
      <trkpt lat="44.14352" lon="5.88757">
        <ele>647</ele>
        <time>2021-06-01T07:04:33.000Z</time>
      </trkpt>
      <trkpt lat="44.14352" lon="5.88756">
        <ele>647</ele>
        <time>2021-06-01T07:04:34.000Z</time>
      </trkpt>
      <trkpt lat="44.14352" lon="5.88756">
        <ele>647</ele>
        <time>2021-06-01T07:04:35.000Z</time>
      </trkpt>
      <trkpt lat="44.14352" lon="5.88756">
        <ele>648</ele>
        <time>2021-06-01T07:04:36.000Z</time>
      </trkpt>
      <trkpt lat="44.14352" lon="5.88756">
        <ele>648</ele>
        <time>2021-06-01T07:04:37.000Z</time>
      </trkpt>
      <trkpt lat="44.14352" lon="5.88756">
        <ele>648</ele>
        <time>2021-06-01T07:04:38.000Z</time>
      </trkpt>
      <trkpt lat="44.14352" lon="5.88756">
        <ele>648</ele>
        <time>2021-06-01T07:04:39.000Z</time>
      </trkpt>
      <trkpt lat="44.14352" lon="5.88756">
        <ele>648</ele>
        <time>2021-06-01T07:04:40.000Z</time>
      </trkpt>
      <trkpt lat="44.14352" lon="5.88756">
        <ele>648</ele>
        <time>2021-06-01T07:04:41.000Z</time>
      </trkpt>
      <trkpt lat="44.14352" lon="5.88756">
        <ele>649</ele>
        <time>2021-06-01T07:04:42.000Z</time>
      </trkpt>
      <trkpt lat="44.14352" lon="5.88756">
        <ele>649</ele>
        <time>2021-06-01T07:04:43.000Z</time>
      </trkpt>
      <trkpt lat="44.14352" lon="5.88756">
        <ele>649</ele>
        <time>2021-06-01T07:04:44.000Z</time>
      </trkpt>
      <trkpt lat="44.14352" lon="5.88756">
        <ele>649</ele>
        <time>2021-06-01T07:04:45.000Z</time>
      </trkpt>
      <trkpt lat="44.14352" lon="5.88756">
        <ele>649</ele>
        <time>2021-06-01T07:04:46.000Z</time>
      </trkpt>
      <trkpt lat="44.14352" lon="5.88756">
        <ele>649</ele>
        <time>2021-06-01T07:04:47.000Z</time>
      </trkpt>
      <trkpt lat="44.14352" lon="5.88756">
        <ele>649</ele>
        <time>2021-06-01T07:04:48.000Z</time>
      </trkpt>
      <trkpt lat="44.14352" lon="5.88756">
        <ele>649</ele>
        <time>2021-06-01T07:04:49.000Z</time>
      </trkpt>
      <trkpt lat="44.14352" lon="5.88756">
        <ele>649</ele>
        <time>2021-06-01T07:04:50.000Z</time>
      </trkpt>
      <trkpt lat="44.14352" lon="5.88756">
        <ele>649</ele>
        <time>2021-06-01T07:04:51.000Z</time>
      </trkpt>
      <trkpt lat="44.14352" lon="5.88756">
        <ele>649</ele>
        <time>2021-06-01T07:04:52.000Z</time>
      </trkpt>
      <trkpt lat="44.14352" lon="5.88756">
        <ele>649</ele>
        <time>2021-06-01T07:04:53.000Z</time>
      </trkpt>
      <trkpt lat="44.14352" lon="5.88756">
        <ele>649</ele>
        <time>2021-06-01T07:04:54.000Z</time>
      </trkpt>
      <trkpt lat="44.14352" lon="5.88756">
        <ele>649</ele>
        <time>2021-06-01T07:04:55.000Z</time>
      </trkpt>
      <trkpt lat="44.14352" lon="5.88756">
        <ele>649</ele>
        <time>2021-06-01T07:04:56.000Z</time>
      </trkpt>
      <trkpt lat="44.14352" lon="5.88756">
        <ele>649</ele>
        <time>2021-06-01T07:04:57.000Z</time>
      </trkpt>
      <trkpt lat="44.14352" lon="5.88756">
        <ele>649</ele>
        <time>2021-06-01T07:04:58.000Z</time>
      </trkpt>
      <trkpt lat="44.14352" lon="5.88756">
        <ele>649</ele>
        <time>2021-06-01T07:04:59.000Z</time>
      </trkpt>
      <trkpt lat="44.14352" lon="5.88755">
        <ele>650</ele>
        <time>2021-06-01T07:05:00.000Z</time>
      </trkpt>
      <trkpt lat="44.14352" lon="5.88756">
        <ele>650</ele>
        <time>2021-06-01T07:05:01.000Z</time>
      </trkpt>
      <trkpt lat="44.14352" lon="5.88755">
        <ele>650</ele>
        <time>2021-06-01T07:05:02.000Z</time>
      </trkpt>
      <trkpt lat="44.14352" lon="5.88756">
        <ele>650</ele>
        <time>2021-06-01T07:05:03.000Z</time>
      </trkpt>
      <trkpt lat="44.14352" lon="5.88756">
        <ele>650</ele>
        <time>2021-06-01T07:05:04.000Z</time>
      </trkpt>
      <trkpt lat="44.14352" lon="5.88756">
        <ele>650</ele>
        <time>2021-06-01T07:05:05.000Z</time>
      </trkpt>
      <trkpt lat="44.14352" lon="5.88756">
        <ele>650</ele>
        <time>2021-06-01T07:05:06.000Z</time>
      </trkpt>
      <trkpt lat="44.14352" lon="5.88756">
        <ele>650</ele>
        <time>2021-06-01T07:05:07.000Z</time>
      </trkpt>
      <trkpt lat="44.14352" lon="5.88756">
        <ele>650</ele>
        <time>2021-06-01T07:05:08.000Z</time>
      </trkpt>
      <trkpt lat="44.14352" lon="5.88756">
        <ele>650</ele>
        <time>2021-06-01T07:05:09.000Z</time>
      </trkpt>
      <trkpt lat="44.14352" lon="5.88756">
        <ele>650</ele>
        <time>2021-06-01T07:05:10.000Z</time>
      </trkpt>
      <trkpt lat="44.14352" lon="5.88756">
        <ele>650</ele>
        <time>2021-06-01T07:05:11.000Z</time>
      </trkpt>
      <trkpt lat="44.14352" lon="5.88756">
        <ele>650</ele>
        <time>2021-06-01T07:05:12.000Z</time>
      </trkpt>
      <trkpt lat="44.14352" lon="5.88756">
        <ele>650</ele>
        <time>2021-06-01T07:05:13.000Z</time>
      </trkpt>
      <trkpt lat="44.14352" lon="5.88756">
        <ele>650</ele>
        <time>2021-06-01T07:05:14.000Z</time>
      </trkpt>
      <trkpt lat="44.14352" lon="5.88756">
        <ele>650</ele>
        <time>2021-06-01T07:05:15.000Z</time>
      </trkpt>
      <trkpt lat="44.14352" lon="5.88756">
        <ele>650</ele>
        <time>2021-06-01T07:05:16.000Z</time>
      </trkpt>
      <trkpt lat="44.14352" lon="5.88756">
        <ele>650</ele>
        <time>2021-06-01T07:05:17.000Z</time>
      </trkpt>
      <trkpt lat="44.14352" lon="5.88756">
        <ele>650</ele>
        <time>2021-06-01T07:05:18.000Z</time>
      </trkpt>
      <trkpt lat="44.14352" lon="5.88756">
        <ele>650</ele>
        <time>2021-06-01T07:05:19.000Z</time>
      </trkpt>
      <trkpt lat="44.14352" lon="5.88756">
        <ele>650</ele>
        <time>2021-06-01T07:05:20.000Z</time>
      </trkpt>
      <trkpt lat="44.14352" lon="5.88756">
        <ele>651</ele>
        <time>2021-06-01T07:05:21.000Z</time>
      </trkpt>
      <trkpt lat="44.14352" lon="5.88756">
        <ele>651</ele>
        <time>2021-06-01T07:05:22.000Z</time>
      </trkpt>
      <trkpt lat="44.14352" lon="5.88756">
        <ele>651</ele>
        <time>2021-06-01T07:05:23.000Z</time>
      </trkpt>
      <trkpt lat="44.14352" lon="5.88756">
        <ele>651</ele>
        <time>2021-06-01T07:05:24.000Z</time>
      </trkpt>
      <trkpt lat="44.14352" lon="5.88756">
        <ele>651</ele>
        <time>2021-06-01T07:05:25.000Z</time>
      </trkpt>
      <trkpt lat="44.14352" lon="5.88756">
        <ele>651</ele>
        <time>2021-06-01T07:05:26.000Z</time>
      </trkpt>
      <trkpt lat="44.14352" lon="5.88756">
        <ele>651</ele>
        <time>2021-06-01T07:05:27.000Z</time>
      </trkpt>
      <trkpt lat="44.14352" lon="5.88756">
        <ele>651</ele>
        <time>2021-06-01T07:05:28.000Z</time>
      </trkpt>
      <trkpt lat="44.14352" lon="5.88756">
        <ele>651</ele>
        <time>2021-06-01T07:05:29.000Z</time>
      </trkpt>
      <trkpt lat="44.14352" lon="5.88756">
        <ele>651</ele>
        <time>2021-06-01T07:05:30.000Z</time>
      </trkpt>
      <trkpt lat="44.14352" lon="5.88756">
        <ele>651</ele>
        <time>2021-06-01T07:05:31.000Z</time>
      </trkpt>
      <trkpt lat="44.14352" lon="5.88756">
        <ele>651</ele>
        <time>2021-06-01T07:05:32.000Z</time>
      </trkpt>
      <trkpt lat="44.14352" lon="5.88756">
        <ele>651</ele>
        <time>2021-06-01T07:05:33.000Z</time>
      </trkpt>
      <trkpt lat="44.14352" lon="5.88756">
        <ele>651</ele>
        <time>2021-06-01T07:05:34.000Z</time>
      </trkpt>
      <trkpt lat="44.14351" lon="5.88756">
        <ele>651</ele>
        <time>2021-06-01T07:05:35.000Z</time>
      </trkpt>
      <trkpt lat="44.14351" lon="5.88756">
        <ele>651</ele>
        <time>2021-06-01T07:05:36.000Z</time>
      </trkpt>
      <trkpt lat="44.14351" lon="5.88756">
        <ele>651</ele>
        <time>2021-06-01T07:05:37.000Z</time>
      </trkpt>
      <trkpt lat="44.14351" lon="5.88756">
        <ele>651</ele>
        <time>2021-06-01T07:05:38.000Z</time>
      </trkpt>
      <trkpt lat="44.14351" lon="5.88756">
        <ele>651</ele>
        <time>2021-06-01T07:05:39.000Z</time>
      </trkpt>
      <trkpt lat="44.14351" lon="5.88756">
        <ele>651</ele>
        <time>2021-06-01T07:05:40.000Z</time>
      </trkpt>
      <trkpt lat="44.14351" lon="5.88756">
        <ele>651</ele>
        <time>2021-06-01T07:05:41.000Z</time>
      </trkpt>
      <trkpt lat="44.14351" lon="5.88756">
        <ele>651</ele>
        <time>2021-06-01T07:05:42.000Z</time>
      </trkpt>
      <trkpt lat="44.14351" lon="5.88756">
        <ele>651</ele>
        <time>2021-06-01T07:05:43.000Z</time>
      </trkpt>
      <trkpt lat="44.14351" lon="5.88756">
        <ele>651</ele>
        <time>2021-06-01T07:05:44.000Z</time>
      </trkpt>
      <trkpt lat="44.14351" lon="5.88756">
        <ele>651</ele>
        <time>2021-06-01T07:05:45.000Z</time>
      </trkpt>
      <trkpt lat="44.14351" lon="5.88756">
        <ele>651</ele>
        <time>2021-06-01T07:05:46.000Z</time>
      </trkpt>
      <trkpt lat="44.14351" lon="5.88756">
        <ele>651</ele>
        <time>2021-06-01T07:05:47.000Z</time>
      </trkpt>
      <trkpt lat="44.14351" lon="5.88757">
        <ele>651</ele>
        <time>2021-06-01T07:05:48.000Z</time>
      </trkpt>
      <trkpt lat="44.14351" lon="5.88756">
        <ele>652</ele>
        <time>2021-06-01T07:05:49.000Z</time>
      </trkpt>
      <trkpt lat="44.14351" lon="5.88756">
        <ele>652</ele>
        <time>2021-06-01T07:05:50.000Z</time>
      </trkpt>
      <trkpt lat="44.14351" lon="5.88757">
        <ele>652</ele>
        <time>2021-06-01T07:05:51.000Z</time>
      </trkpt>
      <trkpt lat="44.1435" lon="5.88757">
        <ele>652</ele>
        <time>2021-06-01T07:05:52.000Z</time>
      </trkpt>
      <trkpt lat="44.1435" lon="5.88757">
        <ele>652</ele>
        <time>2021-06-01T07:05:53.000Z</time>
      </trkpt>
      <trkpt lat="44.14349" lon="5.88757">
        <ele>652</ele>
        <time>2021-06-01T07:05:54.000Z</time>
      </trkpt>
      <trkpt lat="44.14348" lon="5.88757">
        <ele>652</ele>
        <time>2021-06-01T07:05:55.000Z</time>
      </trkpt>
      <trkpt lat="44.14347" lon="5.88756">
        <ele>652</ele>
        <time>2021-06-01T07:05:56.000Z</time>
      </trkpt>
      <trkpt lat="44.14347" lon="5.88756">
        <ele>652</ele>
        <time>2021-06-01T07:05:57.000Z</time>
      </trkpt>
      <trkpt lat="44.14346" lon="5.88755">
        <ele>652</ele>
        <time>2021-06-01T07:05:58.000Z</time>
      </trkpt>
      <trkpt lat="44.14346" lon="5.88755">
        <ele>652</ele>
        <time>2021-06-01T07:05:59.000Z</time>
      </trkpt>
      <trkpt lat="44.14346" lon="5.88755">
        <ele>652</ele>
        <time>2021-06-01T07:06:00.000Z</time>
      </trkpt>
      <trkpt lat="44.14346" lon="5.88755">
        <ele>652</ele>
        <time>2021-06-01T07:06:01.000Z</time>
      </trkpt>
      <trkpt lat="44.14346" lon="5.88755">
        <ele>652</ele>
        <time>2021-06-01T07:06:02.000Z</time>
      </trkpt>
      <trkpt lat="44.14346" lon="5.88755">
        <ele>652</ele>
        <time>2021-06-01T07:06:03.000Z</time>
      </trkpt>
      <trkpt lat="44.14346" lon="5.88755">
        <ele>652</ele>
        <time>2021-06-01T07:06:04.000Z</time>
      </trkpt>
      <trkpt lat="44.14346" lon="5.88755">
        <ele>652</ele>
        <time>2021-06-01T07:06:05.000Z</time>
      </trkpt>
      <trkpt lat="44.14346" lon="5.88755">
        <ele>652</ele>
        <time>2021-06-01T07:06:06.000Z</time>
      </trkpt>
      <trkpt lat="44.14346" lon="5.88755">
        <ele>652</ele>
        <time>2021-06-01T07:06:07.000Z</time>
      </trkpt>
      <trkpt lat="44.14346" lon="5.88755">
        <ele>652</ele>
        <time>2021-06-01T07:06:08.000Z</time>
      </trkpt>
      <trkpt lat="44.14346" lon="5.88755">
        <ele>652</ele>
        <time>2021-06-01T07:06:09.000Z</time>
      </trkpt>
      <trkpt lat="44.14346" lon="5.88755">
        <ele>652</ele>
        <time>2021-06-01T07:06:10.000Z</time>
      </trkpt>
      <trkpt lat="44.14346" lon="5.88755">
        <ele>652</ele>
        <time>2021-06-01T07:06:11.000Z</time>
      </trkpt>
      <trkpt lat="44.14346" lon="5.88755">
        <ele>652</ele>
        <time>2021-06-01T07:06:12.000Z</time>
      </trkpt>
      <trkpt lat="44.14346" lon="5.88755">
        <ele>652</ele>
        <time>2021-06-01T07:06:13.000Z</time>
      </trkpt>
      <trkpt lat="44.14346" lon="5.88755">
        <ele>652</ele>
        <time>2021-06-01T07:06:14.000Z</time>
      </trkpt>
      <trkpt lat="44.14346" lon="5.88755">
        <ele>652</ele>
        <time>2021-06-01T07:06:15.000Z</time>
      </trkpt>
      <trkpt lat="44.14346" lon="5.88755">
        <ele>652</ele>
        <time>2021-06-01T07:06:16.000Z</time>
      </trkpt>
      <trkpt lat="44.14346" lon="5.88755">
        <ele>652</ele>
        <time>2021-06-01T07:06:17.000Z</time>
      </trkpt>
      <trkpt lat="44.14346" lon="5.88755">
        <ele>652</ele>
        <time>2021-06-01T07:06:18.000Z</time>
      </trkpt>
      <trkpt lat="44.14346" lon="5.88755">
        <ele>652</ele>
        <time>2021-06-01T07:06:19.000Z</time>
      </trkpt>
      <trkpt lat="44.14346" lon="5.88755">
        <ele>652</ele>
        <time>2021-06-01T07:06:20.000Z</time>
      </trkpt>
      <trkpt lat="44.14346" lon="5.88755">
        <ele>652</ele>
        <time>2021-06-01T07:06:21.000Z</time>
      </trkpt>
      <trkpt lat="44.14346" lon="5.88755">
        <ele>652</ele>
        <time>2021-06-01T07:06:22.000Z</time>
      </trkpt>
      <trkpt lat="44.14346" lon="5.88755">
        <ele>652</ele>
        <time>2021-06-01T07:06:23.000Z</time>
      </trkpt>
      <trkpt lat="44.14346" lon="5.88755">
        <ele>652</ele>
        <time>2021-06-01T07:06:24.000Z</time>
      </trkpt>
      <trkpt lat="44.14346" lon="5.88755">
        <ele>652</ele>
        <time>2021-06-01T07:06:25.000Z</time>
      </trkpt>
      <trkpt lat="44.14346" lon="5.88755">
        <ele>652</ele>
        <time>2021-06-01T07:06:26.000Z</time>
      </trkpt>
      <trkpt lat="44.14346" lon="5.88755">
        <ele>652</ele>
        <time>2021-06-01T07:06:27.000Z</time>
      </trkpt>
      <trkpt lat="44.14346" lon="5.88755">
        <ele>652</ele>
        <time>2021-06-01T07:06:28.000Z</time>
      </trkpt>
      <trkpt lat="44.14346" lon="5.88755">
        <ele>652</ele>
        <time>2021-06-01T07:06:29.000Z</time>
      </trkpt>
      <trkpt lat="44.14346" lon="5.88755">
        <ele>652</ele>
        <time>2021-06-01T07:06:30.000Z</time>
      </trkpt>
      <trkpt lat="44.14346" lon="5.88755">
        <ele>652</ele>
        <time>2021-06-01T07:06:31.000Z</time>
      </trkpt>
      <trkpt lat="44.14346" lon="5.88755">
        <ele>652</ele>
        <time>2021-06-01T07:06:32.000Z</time>
      </trkpt>
      <trkpt lat="44.14346" lon="5.88755">
        <ele>652</ele>
        <time>2021-06-01T07:06:33.000Z</time>
      </trkpt>
      <trkpt lat="44.14346" lon="5.88755">
        <ele>652</ele>
        <time>2021-06-01T07:06:34.000Z</time>
      </trkpt>
      <trkpt lat="44.14346" lon="5.88755">
        <ele>652</ele>
        <time>2021-06-01T07:06:35.000Z</time>
      </trkpt>
      <trkpt lat="44.14346" lon="5.88755">
        <ele>652</ele>
        <time>2021-06-01T07:06:36.000Z</time>
      </trkpt>
      <trkpt lat="44.14346" lon="5.88755">
        <ele>652</ele>
        <time>2021-06-01T07:06:37.000Z</time>
      </trkpt>
      <trkpt lat="44.14347" lon="5.88755">
        <ele>652</ele>
        <time>2021-06-01T07:06:38.000Z</time>
      </trkpt>
      <trkpt lat="44.14347" lon="5.88755">
        <ele>652</ele>
        <time>2021-06-01T07:06:39.000Z</time>
      </trkpt>
      <trkpt lat="44.14347" lon="5.88755">
        <ele>652</ele>
        <time>2021-06-01T07:06:40.000Z</time>
      </trkpt>
      <trkpt lat="44.14347" lon="5.88755">
        <ele>652</ele>
        <time>2021-06-01T07:06:41.000Z</time>
      </trkpt>
      <trkpt lat="44.14347" lon="5.88755">
        <ele>651</ele>
        <time>2021-06-01T07:06:42.000Z</time>
      </trkpt>
      <trkpt lat="44.14347" lon="5.88755">
        <ele>651</ele>
        <time>2021-06-01T07:06:43.000Z</time>
      </trkpt>
      <trkpt lat="44.14347" lon="5.88754">
        <ele>651</ele>
        <time>2021-06-01T07:06:44.000Z</time>
      </trkpt>
      <trkpt lat="44.14347" lon="5.88754">
        <ele>651</ele>
        <time>2021-06-01T07:06:45.000Z</time>
      </trkpt>
      <trkpt lat="44.14347" lon="5.88754">
        <ele>651</ele>
        <time>2021-06-01T07:06:46.000Z</time>
      </trkpt>
      <trkpt lat="44.14347" lon="5.88754">
        <ele>651</ele>
        <time>2021-06-01T07:06:47.000Z</time>
      </trkpt>
      <trkpt lat="44.14348" lon="5.88754">
        <ele>651</ele>
        <time>2021-06-01T07:06:48.000Z</time>
      </trkpt>
      <trkpt lat="44.14348" lon="5.88754">
        <ele>651</ele>
        <time>2021-06-01T07:06:49.000Z</time>
      </trkpt>
      <trkpt lat="44.14348" lon="5.88754">
        <ele>651</ele>
        <time>2021-06-01T07:06:50.000Z</time>
      </trkpt>
      <trkpt lat="44.14348" lon="5.88754">
        <ele>651</ele>
        <time>2021-06-01T07:06:51.000Z</time>
      </trkpt>
      <trkpt lat="44.14348" lon="5.88754">
        <ele>651</ele>
        <time>2021-06-01T07:06:52.000Z</time>
      </trkpt>
      <trkpt lat="44.14348" lon="5.88754">
        <ele>651</ele>
        <time>2021-06-01T07:06:53.000Z</time>
      </trkpt>
      <trkpt lat="44.14348" lon="5.88754">
        <ele>651</ele>
        <time>2021-06-01T07:06:54.000Z</time>
      </trkpt>
      <trkpt lat="44.14348" lon="5.88754">
        <ele>651</ele>
        <time>2021-06-01T07:06:55.000Z</time>
      </trkpt>
      <trkpt lat="44.14348" lon="5.88754">
        <ele>651</ele>
        <time>2021-06-01T07:06:56.000Z</time>
      </trkpt>
      <trkpt lat="44.14348" lon="5.88754">
        <ele>651</ele>
        <time>2021-06-01T07:06:57.000Z</time>
      </trkpt>
      <trkpt lat="44.14348" lon="5.88754">
        <ele>651</ele>
        <time>2021-06-01T07:06:58.000Z</time>
      </trkpt>
      <trkpt lat="44.14348" lon="5.88754">
        <ele>651</ele>
        <time>2021-06-01T07:06:59.000Z</time>
      </trkpt>
      <trkpt lat="44.14348" lon="5.88754">
        <ele>651</ele>
        <time>2021-06-01T07:07:00.000Z</time>
      </trkpt>
      <trkpt lat="44.14348" lon="5.88753">
        <ele>651</ele>
        <time>2021-06-01T07:07:01.000Z</time>
      </trkpt>
      <trkpt lat="44.14348" lon="5.88753">
        <ele>651</ele>
        <time>2021-06-01T07:07:02.000Z</time>
      </trkpt>
      <trkpt lat="44.14348" lon="5.88753">
        <ele>651</ele>
        <time>2021-06-01T07:07:03.000Z</time>
      </trkpt>
      <trkpt lat="44.14348" lon="5.88753">
        <ele>651</ele>
        <time>2021-06-01T07:07:04.000Z</time>
      </trkpt>
      <trkpt lat="44.14348" lon="5.88753">
        <ele>651</ele>
        <time>2021-06-01T07:07:05.000Z</time>
      </trkpt>
      <trkpt lat="44.14348" lon="5.88753">
        <ele>651</ele>
        <time>2021-06-01T07:07:06.000Z</time>
      </trkpt>
      <trkpt lat="44.14348" lon="5.88753">
        <ele>651</ele>
        <time>2021-06-01T07:07:07.000Z</time>
      </trkpt>
      <trkpt lat="44.14348" lon="5.88753">
        <ele>651</ele>
        <time>2021-06-01T07:07:08.000Z</time>
      </trkpt>
      <trkpt lat="44.14348" lon="5.88753">
        <ele>651</ele>
        <time>2021-06-01T07:07:09.000Z</time>
      </trkpt>
      <trkpt lat="44.14348" lon="5.88753">
        <ele>651</ele>
        <time>2021-06-01T07:07:10.000Z</time>
      </trkpt>
      <trkpt lat="44.14348" lon="5.88753">
        <ele>651</ele>
        <time>2021-06-01T07:07:11.000Z</time>
      </trkpt>
      <trkpt lat="44.14348" lon="5.88753">
        <ele>651</ele>
        <time>2021-06-01T07:07:12.000Z</time>
      </trkpt>
      <trkpt lat="44.14348" lon="5.88753">
        <ele>651</ele>
        <time>2021-06-01T07:07:13.000Z</time>
      </trkpt>
      <trkpt lat="44.14348" lon="5.88753">
        <ele>651</ele>
        <time>2021-06-01T07:07:14.000Z</time>
      </trkpt>
      <trkpt lat="44.14348" lon="5.88753">
        <ele>651</ele>
        <time>2021-06-01T07:07:15.000Z</time>
      </trkpt>
      <trkpt lat="44.14348" lon="5.88753">
        <ele>651</ele>
        <time>2021-06-01T07:07:16.000Z</time>
      </trkpt>
      <trkpt lat="44.14348" lon="5.88753">
        <ele>651</ele>
        <time>2021-06-01T07:07:17.000Z</time>
      </trkpt>
      <trkpt lat="44.14348" lon="5.88753">
        <ele>651</ele>
        <time>2021-06-01T07:07:18.000Z</time>
      </trkpt>
      <trkpt lat="44.14348" lon="5.88753">
        <ele>651</ele>
        <time>2021-06-01T07:07:19.000Z</time>
      </trkpt>
      <trkpt lat="44.14348" lon="5.88753">
        <ele>651</ele>
        <time>2021-06-01T07:07:20.000Z</time>
      </trkpt>
      <trkpt lat="44.14348" lon="5.88753">
        <ele>651</ele>
        <time>2021-06-01T07:07:21.000Z</time>
      </trkpt>
      <trkpt lat="44.14348" lon="5.88753">
        <ele>651</ele>
        <time>2021-06-01T07:07:22.000Z</time>
      </trkpt>
      <trkpt lat="44.14348" lon="5.88753">
        <ele>651</ele>
        <time>2021-06-01T07:07:23.000Z</time>
      </trkpt>
      <trkpt lat="44.14348" lon="5.88753">
        <ele>651</ele>
        <time>2021-06-01T07:07:24.000Z</time>
      </trkpt>
      <trkpt lat="44.14348" lon="5.88753">
        <ele>651</ele>
        <time>2021-06-01T07:07:25.000Z</time>
      </trkpt>
      <trkpt lat="44.14348" lon="5.88753">
        <ele>651</ele>
        <time>2021-06-01T07:07:26.000Z</time>
      </trkpt>
      <trkpt lat="44.14348" lon="5.88753">
        <ele>651</ele>
        <time>2021-06-01T07:07:27.000Z</time>
      </trkpt>
      <trkpt lat="44.14348" lon="5.88753">
        <ele>651</ele>
        <time>2021-06-01T07:07:28.000Z</time>
      </trkpt>
      <trkpt lat="44.14348" lon="5.88753">
        <ele>651</ele>
        <time>2021-06-01T07:07:29.000Z</time>
      </trkpt>
      <trkpt lat="44.14348" lon="5.88753">
        <ele>651</ele>
        <time>2021-06-01T07:07:30.000Z</time>
      </trkpt>
      <trkpt lat="44.14348" lon="5.88753">
        <ele>651</ele>
        <time>2021-06-01T07:07:31.000Z</time>
      </trkpt>
      <trkpt lat="44.14348" lon="5.88753">
        <ele>651</ele>
        <time>2021-06-01T07:07:32.000Z</time>
      </trkpt>
      <trkpt lat="44.14348" lon="5.88753">
        <ele>651</ele>
        <time>2021-06-01T07:07:33.000Z</time>
      </trkpt>
      <trkpt lat="44.14348" lon="5.88753">
        <ele>651</ele>
        <time>2021-06-01T07:07:34.000Z</time>
      </trkpt>
      <trkpt lat="44.14348" lon="5.88753">
        <ele>651</ele>
        <time>2021-06-01T07:07:35.000Z</time>
      </trkpt>
      <trkpt lat="44.14348" lon="5.88753">
        <ele>651</ele>
        <time>2021-06-01T07:07:36.000Z</time>
      </trkpt>
      <trkpt lat="44.14348" lon="5.88753">
        <ele>651</ele>
        <time>2021-06-01T07:07:37.000Z</time>
      </trkpt>
      <trkpt lat="44.14349" lon="5.88753">
        <ele>651</ele>
        <time>2021-06-01T07:07:38.000Z</time>
      </trkpt>
      <trkpt lat="44.14349" lon="5.88753">
        <ele>651</ele>
        <time>2021-06-01T07:07:39.000Z</time>
      </trkpt>
      <trkpt lat="44.14349" lon="5.88753">
        <ele>651</ele>
        <time>2021-06-01T07:07:40.000Z</time>
      </trkpt>
      <trkpt lat="44.14348" lon="5.88753">
        <ele>651</ele>
        <time>2021-06-01T07:07:41.000Z</time>
      </trkpt>
      <trkpt lat="44.14348" lon="5.88753">
        <ele>651</ele>
        <time>2021-06-01T07:07:42.000Z</time>
      </trkpt>
      <trkpt lat="44.14348" lon="5.88753">
        <ele>651</ele>
        <time>2021-06-01T07:07:43.000Z</time>
      </trkpt>
      <trkpt lat="44.14348" lon="5.88753">
        <ele>651</ele>
        <time>2021-06-01T07:07:44.000Z</time>
      </trkpt>
      <trkpt lat="44.14348" lon="5.88753">
        <ele>651</ele>
        <time>2021-06-01T07:07:45.000Z</time>
      </trkpt>
      <trkpt lat="44.14348" lon="5.88753">
        <ele>651</ele>
        <time>2021-06-01T07:07:46.000Z</time>
      </trkpt>
      <trkpt lat="44.14348" lon="5.88753">
        <ele>651</ele>
        <time>2021-06-01T07:07:47.000Z</time>
      </trkpt>
      <trkpt lat="44.14348" lon="5.88753">
        <ele>651</ele>
        <time>2021-06-01T07:07:48.000Z</time>
      </trkpt>
      <trkpt lat="44.14348" lon="5.88753">
        <ele>651</ele>
        <time>2021-06-01T07:07:49.000Z</time>
      </trkpt>
      <trkpt lat="44.14348" lon="5.88753">
        <ele>651</ele>
        <time>2021-06-01T07:07:50.000Z</time>
      </trkpt>
      <trkpt lat="44.14348" lon="5.88753">
        <ele>651</ele>
        <time>2021-06-01T07:07:51.000Z</time>
      </trkpt>
      <trkpt lat="44.14348" lon="5.88753">
        <ele>651</ele>
        <time>2021-06-01T07:07:52.000Z</time>
      </trkpt>
      <trkpt lat="44.14348" lon="5.88753">
        <ele>651</ele>
        <time>2021-06-01T07:07:53.000Z</time>
      </trkpt>
      <trkpt lat="44.14348" lon="5.88753">
        <ele>651</ele>
        <time>2021-06-01T07:07:54.000Z</time>
      </trkpt>
      <trkpt lat="44.14348" lon="5.88753">
        <ele>651</ele>
        <time>2021-06-01T07:07:55.000Z</time>
      </trkpt>
      <trkpt lat="44.14348" lon="5.88753">
        <ele>651</ele>
        <time>2021-06-01T07:07:56.000Z</time>
      </trkpt>
      <trkpt lat="44.14348" lon="5.88752">
        <ele>651</ele>
        <time>2021-06-01T07:07:57.000Z</time>
      </trkpt>
      <trkpt lat="44.14348" lon="5.88752">
        <ele>651</ele>
        <time>2021-06-01T07:07:58.000Z</time>
      </trkpt>
      <trkpt lat="44.14348" lon="5.88752">
        <ele>651</ele>
        <time>2021-06-01T07:07:59.000Z</time>
      </trkpt>
      <trkpt lat="44.14348" lon="5.88752">
        <ele>651</ele>
        <time>2021-06-01T07:08:00.000Z</time>
      </trkpt>
      <trkpt lat="44.14348" lon="5.88752">
        <ele>651</ele>
        <time>2021-06-01T07:08:01.000Z</time>
      </trkpt>
      <trkpt lat="44.14348" lon="5.88752">
        <ele>651</ele>
        <time>2021-06-01T07:08:02.000Z</time>
      </trkpt>
      <trkpt lat="44.14348" lon="5.88752">
        <ele>651</ele>
        <time>2021-06-01T07:08:03.000Z</time>
      </trkpt>
      <trkpt lat="44.14348" lon="5.88752">
        <ele>651</ele>
        <time>2021-06-01T07:08:04.000Z</time>
      </trkpt>
      <trkpt lat="44.14348" lon="5.88752">
        <ele>651</ele>
        <time>2021-06-01T07:08:05.000Z</time>
      </trkpt>
      <trkpt lat="44.14348" lon="5.88752">
        <ele>651</ele>
        <time>2021-06-01T07:08:06.000Z</time>
      </trkpt>
      <trkpt lat="44.14348" lon="5.88752">
        <ele>651</ele>
        <time>2021-06-01T07:08:07.000Z</time>
      </trkpt>
      <trkpt lat="44.14348" lon="5.88752">
        <ele>651</ele>
        <time>2021-06-01T07:08:08.000Z</time>
      </trkpt>
      <trkpt lat="44.14348" lon="5.88753">
        <ele>651</ele>
        <time>2021-06-01T07:08:09.000Z</time>
      </trkpt>
      <trkpt lat="44.14348" lon="5.88753">
        <ele>651</ele>
        <time>2021-06-01T07:08:10.000Z</time>
      </trkpt>
      <trkpt lat="44.14348" lon="5.88753">
        <ele>651</ele>
        <time>2021-06-01T07:08:11.000Z</time>
      </trkpt>
      <trkpt lat="44.14348" lon="5.88753">
        <ele>651</ele>
        <time>2021-06-01T07:08:12.000Z</time>
      </trkpt>
      <trkpt lat="44.14348" lon="5.88752">
        <ele>651</ele>
        <time>2021-06-01T07:08:13.000Z</time>
      </trkpt>
      <trkpt lat="44.14348" lon="5.88752">
        <ele>651</ele>
        <time>2021-06-01T07:08:14.000Z</time>
      </trkpt>
      <trkpt lat="44.14348" lon="5.88752">
        <ele>651</ele>
        <time>2021-06-01T07:08:15.000Z</time>
      </trkpt>
      <trkpt lat="44.14348" lon="5.88752">
        <ele>651</ele>
        <time>2021-06-01T07:08:16.000Z</time>
      </trkpt>
      <trkpt lat="44.14348" lon="5.88752">
        <ele>651</ele>
        <time>2021-06-01T07:08:17.000Z</time>
      </trkpt>
      <trkpt lat="44.14348" lon="5.88752">
        <ele>651</ele>
        <time>2021-06-01T07:08:18.000Z</time>
      </trkpt>
      <trkpt lat="44.14348" lon="5.88752">
        <ele>651</ele>
        <time>2021-06-01T07:08:19.000Z</time>
      </trkpt>
      <trkpt lat="44.14348" lon="5.88752">
        <ele>651</ele>
        <time>2021-06-01T07:08:20.000Z</time>
      </trkpt>
      <trkpt lat="44.14349" lon="5.88752">
        <ele>651</ele>
        <time>2021-06-01T07:08:21.000Z</time>
      </trkpt>
      <trkpt lat="44.14349" lon="5.88752">
        <ele>651</ele>
        <time>2021-06-01T07:08:22.000Z</time>
      </trkpt>
      <trkpt lat="44.14349" lon="5.88752">
        <ele>651</ele>
        <time>2021-06-01T07:08:23.000Z</time>
      </trkpt>
      <trkpt lat="44.14349" lon="5.88752">
        <ele>651</ele>
        <time>2021-06-01T07:08:24.000Z</time>
      </trkpt>
      <trkpt lat="44.14349" lon="5.88752">
        <ele>651</ele>
        <time>2021-06-01T07:08:25.000Z</time>
      </trkpt>
      <trkpt lat="44.14349" lon="5.88752">
        <ele>651</ele>
        <time>2021-06-01T07:08:26.000Z</time>
      </trkpt>
      <trkpt lat="44.14349" lon="5.88752">
        <ele>651</ele>
        <time>2021-06-01T07:08:27.000Z</time>
      </trkpt>
      <trkpt lat="44.14349" lon="5.88752">
        <ele>651</ele>
        <time>2021-06-01T07:08:28.000Z</time>
      </trkpt>
      <trkpt lat="44.14349" lon="5.88752">
        <ele>651</ele>
        <time>2021-06-01T07:08:29.000Z</time>
      </trkpt>
      <trkpt lat="44.14349" lon="5.88752">
        <ele>651</ele>
        <time>2021-06-01T07:08:30.000Z</time>
      </trkpt>
      <trkpt lat="44.14349" lon="5.88752">
        <ele>651</ele>
        <time>2021-06-01T07:08:31.000Z</time>
      </trkpt>
      <trkpt lat="44.14349" lon="5.88752">
        <ele>651</ele>
        <time>2021-06-01T07:08:32.000Z</time>
      </trkpt>
      <trkpt lat="44.14349" lon="5.88752">
        <ele>651</ele>
        <time>2021-06-01T07:08:33.000Z</time>
      </trkpt>
      <trkpt lat="44.14349" lon="5.88752">
        <ele>651</ele>
        <time>2021-06-01T07:08:34.000Z</time>
      </trkpt>
      <trkpt lat="44.14349" lon="5.88752">
        <ele>651</ele>
        <time>2021-06-01T07:08:35.000Z</time>
      </trkpt>
      <trkpt lat="44.14349" lon="5.88752">
        <ele>651</ele>
        <time>2021-06-01T07:08:36.000Z</time>
      </trkpt>
      <trkpt lat="44.14349" lon="5.88752">
        <ele>651</ele>
        <time>2021-06-01T07:08:37.000Z</time>
      </trkpt>
      <trkpt lat="44.14349" lon="5.88752">
        <ele>651</ele>
        <time>2021-06-01T07:08:38.000Z</time>
      </trkpt>
      <trkpt lat="44.14349" lon="5.88753">
        <ele>651</ele>
        <time>2021-06-01T07:08:39.000Z</time>
      </trkpt>
      <trkpt lat="44.14349" lon="5.88753">
        <ele>651</ele>
        <time>2021-06-01T07:08:40.000Z</time>
      </trkpt>
      <trkpt lat="44.14349" lon="5.88753">
        <ele>651</ele>
        <time>2021-06-01T07:08:41.000Z</time>
      </trkpt>
      <trkpt lat="44.14349" lon="5.88753">
        <ele>651</ele>
        <time>2021-06-01T07:08:42.000Z</time>
      </trkpt>
      <trkpt lat="44.14349" lon="5.88753">
        <ele>651</ele>
        <time>2021-06-01T07:08:43.000Z</time>
      </trkpt>
      <trkpt lat="44.14349" lon="5.88753">
        <ele>651</ele>
        <time>2021-06-01T07:08:44.000Z</time>
      </trkpt>
      <trkpt lat="44.14349" lon="5.88753">
        <ele>651</ele>
        <time>2021-06-01T07:08:45.000Z</time>
      </trkpt>
      <trkpt lat="44.14349" lon="5.88753">
        <ele>651</ele>
        <time>2021-06-01T07:08:46.000Z</time>
      </trkpt>
      <trkpt lat="44.14349" lon="5.88753">
        <ele>651</ele>
        <time>2021-06-01T07:08:47.000Z</time>
      </trkpt>
      <trkpt lat="44.14349" lon="5.88753">
        <ele>651</ele>
        <time>2021-06-01T07:08:48.000Z</time>
      </trkpt>
      <trkpt lat="44.14349" lon="5.88753">
        <ele>651</ele>
        <time>2021-06-01T07:08:49.000Z</time>
      </trkpt>
      <trkpt lat="44.14349" lon="5.88753">
        <ele>651</ele>
        <time>2021-06-01T07:08:50.000Z</time>
      </trkpt>
      <trkpt lat="44.14349" lon="5.88753">
        <ele>651</ele>
        <time>2021-06-01T07:08:51.000Z</time>
      </trkpt>
      <trkpt lat="44.14349" lon="5.88753">
        <ele>651</ele>
        <time>2021-06-01T07:08:52.000Z</time>
      </trkpt>
      <trkpt lat="44.14349" lon="5.88753">
        <ele>651</ele>
        <time>2021-06-01T07:08:53.000Z</time>
      </trkpt>
      <trkpt lat="44.14349" lon="5.88753">
        <ele>651</ele>
        <time>2021-06-01T07:08:54.000Z</time>
      </trkpt>
      <trkpt lat="44.14349" lon="5.88753">
        <ele>651</ele>
        <time>2021-06-01T07:08:55.000Z</time>
      </trkpt>
      <trkpt lat="44.14349" lon="5.88753">
        <ele>651</ele>
        <time>2021-06-01T07:08:56.000Z</time>
      </trkpt>
      <trkpt lat="44.14349" lon="5.88753">
        <ele>651</ele>
        <time>2021-06-01T07:08:57.000Z</time>
      </trkpt>
      <trkpt lat="44.14349" lon="5.88753">
        <ele>651</ele>
        <time>2021-06-01T07:08:58.000Z</time>
      </trkpt>
      <trkpt lat="44.14349" lon="5.88753">
        <ele>651</ele>
        <time>2021-06-01T07:08:59.000Z</time>
      </trkpt>
      <trkpt lat="44.14349" lon="5.88753">
        <ele>651</ele>
        <time>2021-06-01T07:09:00.000Z</time>
      </trkpt>
      <trkpt lat="44.14349" lon="5.88753">
        <ele>651</ele>
        <time>2021-06-01T07:09:01.000Z</time>
      </trkpt>
      <trkpt lat="44.14349" lon="5.88753">
        <ele>651</ele>
        <time>2021-06-01T07:09:02.000Z</time>
      </trkpt>
      <trkpt lat="44.14349" lon="5.88753">
        <ele>650</ele>
        <time>2021-06-01T07:09:03.000Z</time>
      </trkpt>
      <trkpt lat="44.14349" lon="5.88753">
        <ele>650</ele>
        <time>2021-06-01T07:09:04.000Z</time>
      </trkpt>
      <trkpt lat="44.14349" lon="5.88753">
        <ele>650</ele>
        <time>2021-06-01T07:09:05.000Z</time>
      </trkpt>
      <trkpt lat="44.14349" lon="5.88753">
        <ele>650</ele>
        <time>2021-06-01T07:09:06.000Z</time>
      </trkpt>
      <trkpt lat="44.14349" lon="5.88753">
        <ele>650</ele>
        <time>2021-06-01T07:09:07.000Z</time>
      </trkpt>
      <trkpt lat="44.14349" lon="5.88754">
        <ele>650</ele>
        <time>2021-06-01T07:09:08.000Z</time>
      </trkpt>
      <trkpt lat="44.14349" lon="5.88754">
        <ele>650</ele>
        <time>2021-06-01T07:09:09.000Z</time>
      </trkpt>
      <trkpt lat="44.14349" lon="5.88754">
        <ele>650</ele>
        <time>2021-06-01T07:09:10.000Z</time>
      </trkpt>
      <trkpt lat="44.14349" lon="5.88754">
        <ele>650</ele>
        <time>2021-06-01T07:09:11.000Z</time>
      </trkpt>
      <trkpt lat="44.14349" lon="5.88754">
        <ele>650</ele>
        <time>2021-06-01T07:09:12.000Z</time>
      </trkpt>
      <trkpt lat="44.14349" lon="5.88754">
        <ele>650</ele>
        <time>2021-06-01T07:09:13.000Z</time>
      </trkpt>
      <trkpt lat="44.14349" lon="5.88754">
        <ele>650</ele>
        <time>2021-06-01T07:09:14.000Z</time>
      </trkpt>
      <trkpt lat="44.14349" lon="5.88754">
        <ele>650</ele>
        <time>2021-06-01T07:09:15.000Z</time>
      </trkpt>
      <trkpt lat="44.14349" lon="5.88754">
        <ele>650</ele>
        <time>2021-06-01T07:09:16.000Z</time>
      </trkpt>
      <trkpt lat="44.14348" lon="5.88754">
        <ele>650</ele>
        <time>2021-06-01T07:09:17.000Z</time>
      </trkpt>
      <trkpt lat="44.14348" lon="5.88755">
        <ele>650</ele>
        <time>2021-06-01T07:09:18.000Z</time>
      </trkpt>
      <trkpt lat="44.14348" lon="5.88755">
        <ele>650</ele>
        <time>2021-06-01T07:09:19.000Z</time>
      </trkpt>
      <trkpt lat="44.14348" lon="5.88755">
        <ele>650</ele>
        <time>2021-06-01T07:09:20.000Z</time>
      </trkpt>
      <trkpt lat="44.14348" lon="5.88755">
        <ele>650</ele>
        <time>2021-06-01T07:09:21.000Z</time>
      </trkpt>
      <trkpt lat="44.14348" lon="5.88755">
        <ele>650</ele>
        <time>2021-06-01T07:09:22.000Z</time>
      </trkpt>
      <trkpt lat="44.14348" lon="5.88755">
        <ele>650</ele>
        <time>2021-06-01T07:09:23.000Z</time>
      </trkpt>
      <trkpt lat="44.14348" lon="5.88755">
        <ele>650</ele>
        <time>2021-06-01T07:09:24.000Z</time>
      </trkpt>
      <trkpt lat="44.14348" lon="5.88755">
        <ele>650</ele>
        <time>2021-06-01T07:09:25.000Z</time>
      </trkpt>
      <trkpt lat="44.14347" lon="5.88755">
        <ele>650</ele>
        <time>2021-06-01T07:09:26.000Z</time>
      </trkpt>
      <trkpt lat="44.14347" lon="5.88755">
        <ele>650</ele>
        <time>2021-06-01T07:09:27.000Z</time>
      </trkpt>
      <trkpt lat="44.14347" lon="5.88755">
        <ele>650</ele>
        <time>2021-06-01T07:09:28.000Z</time>
      </trkpt>
      <trkpt lat="44.14347" lon="5.88755">
        <ele>650</ele>
        <time>2021-06-01T07:09:29.000Z</time>
      </trkpt>
      <trkpt lat="44.14347" lon="5.88755">
        <ele>650</ele>
        <time>2021-06-01T07:09:30.000Z</time>
      </trkpt>
      <trkpt lat="44.14347" lon="5.88755">
        <ele>650</ele>
        <time>2021-06-01T07:09:31.000Z</time>
      </trkpt>
      <trkpt lat="44.14346" lon="5.88755">
        <ele>650</ele>
        <time>2021-06-01T07:09:32.000Z</time>
      </trkpt>
      <trkpt lat="44.14345" lon="5.88755">
        <ele>650</ele>
        <time>2021-06-01T07:09:33.000Z</time>
      </trkpt>
      <trkpt lat="44.14345" lon="5.88756">
        <ele>650</ele>
        <time>2021-06-01T07:09:34.000Z</time>
      </trkpt>
      <trkpt lat="44.14344" lon="5.88757">
        <ele>650</ele>
        <time>2021-06-01T07:09:35.000Z</time>
      </trkpt>
      <trkpt lat="44.14344" lon="5.88758">
        <ele>650</ele>
        <time>2021-06-01T07:09:36.000Z</time>
      </trkpt>
      <trkpt lat="44.14344" lon="5.88759">
        <ele>650</ele>
        <time>2021-06-01T07:09:37.000Z</time>
      </trkpt>
      <trkpt lat="44.14343" lon="5.8876">
        <ele>650</ele>
        <time>2021-06-01T07:09:38.000Z</time>
      </trkpt>
      <trkpt lat="44.14343" lon="5.88761">
        <ele>649</ele>
        <time>2021-06-01T07:09:39.000Z</time>
      </trkpt>
      <trkpt lat="44.14343" lon="5.88762">
        <ele>649</ele>
        <time>2021-06-01T07:09:40.000Z</time>
      </trkpt>
      <trkpt lat="44.14342" lon="5.88762">
        <ele>649</ele>
        <time>2021-06-01T07:09:41.000Z</time>
      </trkpt>
      <trkpt lat="44.14342" lon="5.88763">
        <ele>649</ele>
        <time>2021-06-01T07:09:42.000Z</time>
      </trkpt>
      <trkpt lat="44.14342" lon="5.88764">
        <ele>649</ele>
        <time>2021-06-01T07:09:43.000Z</time>
      </trkpt>
      <trkpt lat="44.14341" lon="5.88764">
        <ele>649</ele>
        <time>2021-06-01T07:09:44.000Z</time>
      </trkpt>
      <trkpt lat="44.14341" lon="5.88765">
        <ele>649</ele>
        <time>2021-06-01T07:09:45.000Z</time>
      </trkpt>
      <trkpt lat="44.1434" lon="5.88765">
        <ele>649</ele>
        <time>2021-06-01T07:09:46.000Z</time>
      </trkpt>
      <trkpt lat="44.1434" lon="5.88765">
        <ele>648</ele>
        <time>2021-06-01T07:09:47.000Z</time>
      </trkpt>
      <trkpt lat="44.14339" lon="5.88765">
        <ele>648</ele>
        <time>2021-06-01T07:09:48.000Z</time>
      </trkpt>
      <trkpt lat="44.14338" lon="5.88765">
        <ele>648</ele>
        <time>2021-06-01T07:09:49.000Z</time>
      </trkpt>
      <trkpt lat="44.14338" lon="5.88766">
        <ele>648</ele>
        <time>2021-06-01T07:09:50.000Z</time>
      </trkpt>
      <trkpt lat="44.14337" lon="5.88767">
        <ele>648</ele>
        <time>2021-06-01T07:09:51.000Z</time>
      </trkpt>
      <trkpt lat="44.14336" lon="5.88767">
        <ele>648</ele>
        <time>2021-06-01T07:09:52.000Z</time>
      </trkpt>
      <trkpt lat="44.14336" lon="5.88767">
        <ele>648</ele>
        <time>2021-06-01T07:09:53.000Z</time>
      </trkpt>
      <trkpt lat="44.14335" lon="5.88768">
        <ele>648</ele>
        <time>2021-06-01T07:09:54.000Z</time>
      </trkpt>
      <trkpt lat="44.14334" lon="5.88768">
        <ele>648</ele>
        <time>2021-06-01T07:09:55.000Z</time>
      </trkpt>
      <trkpt lat="44.14333" lon="5.8877">
        <ele>648</ele>
        <time>2021-06-01T07:09:56.000Z</time>
      </trkpt>
      <trkpt lat="44.14333" lon="5.88771">
        <ele>648</ele>
        <time>2021-06-01T07:09:57.000Z</time>
      </trkpt>
      <trkpt lat="44.14332" lon="5.88771">
        <ele>648</ele>
        <time>2021-06-01T07:09:58.000Z</time>
      </trkpt>
      <trkpt lat="44.14331" lon="5.88772">
        <ele>648</ele>
        <time>2021-06-01T07:09:59.000Z</time>
      </trkpt>
      <trkpt lat="44.14331" lon="5.88773">
        <ele>649</ele>
        <time>2021-06-01T07:10:00.000Z</time>
      </trkpt>
      <trkpt lat="44.1433" lon="5.88774">
        <ele>649</ele>
        <time>2021-06-01T07:10:01.000Z</time>
      </trkpt>
      <trkpt lat="44.14329" lon="5.88775">
        <ele>649</ele>
        <time>2021-06-01T07:10:02.000Z</time>
      </trkpt>
      <trkpt lat="44.14328" lon="5.88775">
        <ele>649</ele>
        <time>2021-06-01T07:10:03.000Z</time>
      </trkpt>
      <trkpt lat="44.14328" lon="5.88776">
        <ele>649</ele>
        <time>2021-06-01T07:10:04.000Z</time>
      </trkpt>
      <trkpt lat="44.14327" lon="5.88777">
        <ele>649</ele>
        <time>2021-06-01T07:10:05.000Z</time>
      </trkpt>
      <trkpt lat="44.14326" lon="5.88778">
        <ele>649</ele>
        <time>2021-06-01T07:10:06.000Z</time>
      </trkpt>
      <trkpt lat="44.14326" lon="5.8878">
        <ele>649</ele>
        <time>2021-06-01T07:10:07.000Z</time>
      </trkpt>
      <trkpt lat="44.14325" lon="5.88781">
        <ele>649</ele>
        <time>2021-06-01T07:10:08.000Z</time>
      </trkpt>
      <trkpt lat="44.14324" lon="5.88781">
        <ele>649</ele>
        <time>2021-06-01T07:10:09.000Z</time>
      </trkpt>
      <trkpt lat="44.14323" lon="5.88782">
        <ele>649</ele>
        <time>2021-06-01T07:10:10.000Z</time>
      </trkpt>
      <trkpt lat="44.14322" lon="5.88782">
        <ele>649</ele>
        <time>2021-06-01T07:10:11.000Z</time>
      </trkpt>
      <trkpt lat="44.14321" lon="5.88783">
        <ele>649</ele>
        <time>2021-06-01T07:10:12.000Z</time>
      </trkpt>
      <trkpt lat="44.14321" lon="5.88784">
        <ele>649</ele>
        <time>2021-06-01T07:10:13.000Z</time>
      </trkpt>
      <trkpt lat="44.1432" lon="5.88784">
        <ele>649</ele>
        <time>2021-06-01T07:10:14.000Z</time>
      </trkpt>
      <trkpt lat="44.14319" lon="5.88785">
        <ele>650</ele>
        <time>2021-06-01T07:10:15.000Z</time>
      </trkpt>
      <trkpt lat="44.14318" lon="5.88786">
        <ele>650</ele>
        <time>2021-06-01T07:10:16.000Z</time>
      </trkpt>
      <trkpt lat="44.14318" lon="5.88787">
        <ele>650</ele>
        <time>2021-06-01T07:10:17.000Z</time>
      </trkpt>
      <trkpt lat="44.14317" lon="5.88787">
        <ele>650</ele>
        <time>2021-06-01T07:10:18.000Z</time>
      </trkpt>
      <trkpt lat="44.14316" lon="5.88788">
        <ele>650</ele>
        <time>2021-06-01T07:10:19.000Z</time>
      </trkpt>
      <trkpt lat="44.14316" lon="5.88789">
        <ele>650</ele>
        <time>2021-06-01T07:10:20.000Z</time>
      </trkpt>
      <trkpt lat="44.14315" lon="5.8879">
        <ele>650</ele>
        <time>2021-06-01T07:10:21.000Z</time>
      </trkpt>
      <trkpt lat="44.14314" lon="5.8879">
        <ele>650</ele>
        <time>2021-06-01T07:10:22.000Z</time>
      </trkpt>
      <trkpt lat="44.14313" lon="5.88791">
        <ele>650</ele>
        <time>2021-06-01T07:10:23.000Z</time>
      </trkpt>
      <trkpt lat="44.14312" lon="5.88792">
        <ele>650</ele>
        <time>2021-06-01T07:10:24.000Z</time>
      </trkpt>
      <trkpt lat="44.14311" lon="5.88793">
        <ele>650</ele>
        <time>2021-06-01T07:10:25.000Z</time>
      </trkpt>
      <trkpt lat="44.1431" lon="5.88794">
        <ele>650</ele>
        <time>2021-06-01T07:10:26.000Z</time>
      </trkpt>
      <trkpt lat="44.1431" lon="5.88795">
        <ele>650</ele>
        <time>2021-06-01T07:10:27.000Z</time>
      </trkpt>
      <trkpt lat="44.14309" lon="5.88796">
        <ele>650</ele>
        <time>2021-06-01T07:10:28.000Z</time>
      </trkpt>
      <trkpt lat="44.14308" lon="5.88796">
        <ele>650</ele>
        <time>2021-06-01T07:10:29.000Z</time>
      </trkpt>
      <trkpt lat="44.14307" lon="5.88797">
        <ele>650</ele>
        <time>2021-06-01T07:10:30.000Z</time>
      </trkpt>
      <trkpt lat="44.14306" lon="5.88797">
        <ele>650</ele>
        <time>2021-06-01T07:10:31.000Z</time>
      </trkpt>
      <trkpt lat="44.14306" lon="5.88798">
        <ele>650</ele>
        <time>2021-06-01T07:10:32.000Z</time>
      </trkpt>
      <trkpt lat="44.14305" lon="5.88799">
        <ele>650</ele>
        <time>2021-06-01T07:10:33.000Z</time>
      </trkpt>
      <trkpt lat="44.14304" lon="5.88799">
        <ele>650</ele>
        <time>2021-06-01T07:10:34.000Z</time>
      </trkpt>
      <trkpt lat="44.14303" lon="5.888">
        <ele>650</ele>
        <time>2021-06-01T07:10:35.000Z</time>
      </trkpt>
      <trkpt lat="44.14302" lon="5.88801">
        <ele>650</ele>
        <time>2021-06-01T07:10:36.000Z</time>
      </trkpt>
      <trkpt lat="44.14302" lon="5.88802">
        <ele>650</ele>
        <time>2021-06-01T07:10:37.000Z</time>
      </trkpt>
      <trkpt lat="44.14301" lon="5.88803">
        <ele>650</ele>
        <time>2021-06-01T07:10:38.000Z</time>
      </trkpt>
      <trkpt lat="44.143" lon="5.88803">
        <ele>650</ele>
        <time>2021-06-01T07:10:39.000Z</time>
      </trkpt>
      <trkpt lat="44.14299" lon="5.88804">
        <ele>650</ele>
        <time>2021-06-01T07:10:40.000Z</time>
      </trkpt>
      <trkpt lat="44.14298" lon="5.88805">
        <ele>650</ele>
        <time>2021-06-01T07:10:41.000Z</time>
      </trkpt>
      <trkpt lat="44.14297" lon="5.88805">
        <ele>650</ele>
        <time>2021-06-01T07:10:42.000Z</time>
      </trkpt>
      <trkpt lat="44.14296" lon="5.88806">
        <ele>651</ele>
        <time>2021-06-01T07:10:43.000Z</time>
      </trkpt>
      <trkpt lat="44.14295" lon="5.88806">
        <ele>651</ele>
        <time>2021-06-01T07:10:44.000Z</time>
      </trkpt>
      <trkpt lat="44.14294" lon="5.88806">
        <ele>651</ele>
        <time>2021-06-01T07:10:45.000Z</time>
      </trkpt>
      <trkpt lat="44.14293" lon="5.88806">
        <ele>651</ele>
        <time>2021-06-01T07:10:46.000Z</time>
      </trkpt>
      <trkpt lat="44.14292" lon="5.88807">
        <ele>651</ele>
        <time>2021-06-01T07:10:47.000Z</time>
      </trkpt>
      <trkpt lat="44.14291" lon="5.88808">
        <ele>651</ele>
        <time>2021-06-01T07:10:48.000Z</time>
      </trkpt>
      <trkpt lat="44.1429" lon="5.88809">
        <ele>651</ele>
        <time>2021-06-01T07:10:49.000Z</time>
      </trkpt>
      <trkpt lat="44.14289" lon="5.8881">
        <ele>651</ele>
        <time>2021-06-01T07:10:50.000Z</time>
      </trkpt>
      <trkpt lat="44.14288" lon="5.88811">
        <ele>651</ele>
        <time>2021-06-01T07:10:51.000Z</time>
      </trkpt>
      <trkpt lat="44.14287" lon="5.88812">
        <ele>651</ele>
        <time>2021-06-01T07:10:52.000Z</time>
      </trkpt>
      <trkpt lat="44.14286" lon="5.88813">
        <ele>651</ele>
        <time>2021-06-01T07:10:53.000Z</time>
      </trkpt>
      <trkpt lat="44.14285" lon="5.88814">
        <ele>651</ele>
        <time>2021-06-01T07:10:54.000Z</time>
      </trkpt>
      <trkpt lat="44.14284" lon="5.88815">
        <ele>651</ele>
        <time>2021-06-01T07:10:55.000Z</time>
      </trkpt>
      <trkpt lat="44.14283" lon="5.88816">
        <ele>651</ele>
        <time>2021-06-01T07:10:56.000Z</time>
      </trkpt>
      <trkpt lat="44.14282" lon="5.88817">
        <ele>651</ele>
        <time>2021-06-01T07:10:57.000Z</time>
      </trkpt>
      <trkpt lat="44.14282" lon="5.88818">
        <ele>651</ele>
        <time>2021-06-01T07:10:58.000Z</time>
      </trkpt>
      <trkpt lat="44.14281" lon="5.88819">
        <ele>651</ele>
        <time>2021-06-01T07:10:59.000Z</time>
      </trkpt>
      <trkpt lat="44.1428" lon="5.8882">
        <ele>651</ele>
        <time>2021-06-01T07:11:00.000Z</time>
      </trkpt>
      <trkpt lat="44.14279" lon="5.8882">
        <ele>651</ele>
        <time>2021-06-01T07:11:01.000Z</time>
      </trkpt>
      <trkpt lat="44.14278" lon="5.88821">
        <ele>651</ele>
        <time>2021-06-01T07:11:02.000Z</time>
      </trkpt>
      <trkpt lat="44.14277" lon="5.88822">
        <ele>651</ele>
        <time>2021-06-01T07:11:03.000Z</time>
      </trkpt>
      <trkpt lat="44.14276" lon="5.88823">
        <ele>651</ele>
        <time>2021-06-01T07:11:04.000Z</time>
      </trkpt>
      <trkpt lat="44.14275" lon="5.88824">
        <ele>651</ele>
        <time>2021-06-01T07:11:05.000Z</time>
      </trkpt>
      <trkpt lat="44.14274" lon="5.88825">
        <ele>651</ele>
        <time>2021-06-01T07:11:06.000Z</time>
      </trkpt>
      <trkpt lat="44.14273" lon="5.88826">
        <ele>651</ele>
        <time>2021-06-01T07:11:07.000Z</time>
      </trkpt>
      <trkpt lat="44.14272" lon="5.88826">
        <ele>651</ele>
        <time>2021-06-01T07:11:08.000Z</time>
      </trkpt>
      <trkpt lat="44.14272" lon="5.88827">
        <ele>651</ele>
        <time>2021-06-01T07:11:09.000Z</time>
      </trkpt>
      <trkpt lat="44.14271" lon="5.88827">
        <ele>651</ele>
        <time>2021-06-01T07:11:10.000Z</time>
      </trkpt>
      <trkpt lat="44.1427" lon="5.88828">
        <ele>651</ele>
        <time>2021-06-01T07:11:11.000Z</time>
      </trkpt>
      <trkpt lat="44.14269" lon="5.88829">
        <ele>651</ele>
        <time>2021-06-01T07:11:12.000Z</time>
      </trkpt>
      <trkpt lat="44.14268" lon="5.88829">
        <ele>651</ele>
        <time>2021-06-01T07:11:13.000Z</time>
      </trkpt>
      <trkpt lat="44.14267" lon="5.8883">
        <ele>651</ele>
        <time>2021-06-01T07:11:14.000Z</time>
      </trkpt>
      <trkpt lat="44.14267" lon="5.88831">
        <ele>651</ele>
        <time>2021-06-01T07:11:15.000Z</time>
      </trkpt>
      <trkpt lat="44.14266" lon="5.88832">
        <ele>652</ele>
        <time>2021-06-01T07:11:16.000Z</time>
      </trkpt>
      <trkpt lat="44.14265" lon="5.88832">
        <ele>652</ele>
        <time>2021-06-01T07:11:17.000Z</time>
      </trkpt>
      <trkpt lat="44.14264" lon="5.88833">
        <ele>652</ele>
        <time>2021-06-01T07:11:18.000Z</time>
      </trkpt>
      <trkpt lat="44.14263" lon="5.88834">
        <ele>652</ele>
        <time>2021-06-01T07:11:19.000Z</time>
      </trkpt>
      <trkpt lat="44.14262" lon="5.88835">
        <ele>652</ele>
        <time>2021-06-01T07:11:20.000Z</time>
      </trkpt>
      <trkpt lat="44.14261" lon="5.88836">
        <ele>652</ele>
        <time>2021-06-01T07:11:21.000Z</time>
      </trkpt>
      <trkpt lat="44.14261" lon="5.88836">
        <ele>652</ele>
        <time>2021-06-01T07:11:22.000Z</time>
      </trkpt>
      <trkpt lat="44.1426" lon="5.88837">
        <ele>652</ele>
        <time>2021-06-01T07:11:23.000Z</time>
      </trkpt>
      <trkpt lat="44.14259" lon="5.88837">
        <ele>652</ele>
        <time>2021-06-01T07:11:24.000Z</time>
      </trkpt>
      <trkpt lat="44.14258" lon="5.88838">
        <ele>652</ele>
        <time>2021-06-01T07:11:25.000Z</time>
      </trkpt>
      <trkpt lat="44.14257" lon="5.88838">
        <ele>652</ele>
        <time>2021-06-01T07:11:26.000Z</time>
      </trkpt>
      <trkpt lat="44.14256" lon="5.88839">
        <ele>652</ele>
        <time>2021-06-01T07:11:27.000Z</time>
      </trkpt>
      <trkpt lat="44.14255" lon="5.8884">
        <ele>652</ele>
        <time>2021-06-01T07:11:28.000Z</time>
      </trkpt>
      <trkpt lat="44.14254" lon="5.8884">
        <ele>652</ele>
        <time>2021-06-01T07:11:29.000Z</time>
      </trkpt>
      <trkpt lat="44.14253" lon="5.88841">
        <ele>652</ele>
        <time>2021-06-01T07:11:30.000Z</time>
      </trkpt>
      <trkpt lat="44.14252" lon="5.88842">
        <ele>652</ele>
        <time>2021-06-01T07:11:31.000Z</time>
      </trkpt>
      <trkpt lat="44.14251" lon="5.88843">
        <ele>652</ele>
        <time>2021-06-01T07:11:32.000Z</time>
      </trkpt>
      <trkpt lat="44.14251" lon="5.88844">
        <ele>652</ele>
        <time>2021-06-01T07:11:33.000Z</time>
      </trkpt>
      <trkpt lat="44.1425" lon="5.88844">
        <ele>652</ele>
        <time>2021-06-01T07:11:34.000Z</time>
      </trkpt>
      <trkpt lat="44.14249" lon="5.88845">
        <ele>652</ele>
        <time>2021-06-01T07:11:35.000Z</time>
      </trkpt>
      <trkpt lat="44.14248" lon="5.88846">
        <ele>653</ele>
        <time>2021-06-01T07:11:36.000Z</time>
      </trkpt>
      <trkpt lat="44.14247" lon="5.88847">
        <ele>653</ele>
        <time>2021-06-01T07:11:37.000Z</time>
      </trkpt>
      <trkpt lat="44.14246" lon="5.88848">
        <ele>653</ele>
        <time>2021-06-01T07:11:38.000Z</time>
      </trkpt>
      <trkpt lat="44.14246" lon="5.88849">
        <ele>653</ele>
        <time>2021-06-01T07:11:39.000Z</time>
      </trkpt>
      <trkpt lat="44.14245" lon="5.8885">
        <ele>653</ele>
        <time>2021-06-01T07:11:40.000Z</time>
      </trkpt>
      <trkpt lat="44.14244" lon="5.88851">
        <ele>653</ele>
        <time>2021-06-01T07:11:41.000Z</time>
      </trkpt>
      <trkpt lat="44.14243" lon="5.88852">
        <ele>653</ele>
        <time>2021-06-01T07:11:42.000Z</time>
      </trkpt>
      <trkpt lat="44.14243" lon="5.88854">
        <ele>653</ele>
        <time>2021-06-01T07:11:43.000Z</time>
      </trkpt>
      <trkpt lat="44.14242" lon="5.88855">
        <ele>653</ele>
        <time>2021-06-01T07:11:44.000Z</time>
      </trkpt>
      <trkpt lat="44.14241" lon="5.88856">
        <ele>653</ele>
        <time>2021-06-01T07:11:45.000Z</time>
      </trkpt>
      <trkpt lat="44.14241" lon="5.88857">
        <ele>653</ele>
        <time>2021-06-01T07:11:46.000Z</time>
      </trkpt>
      <trkpt lat="44.1424" lon="5.88859">
        <ele>653</ele>
        <time>2021-06-01T07:11:47.000Z</time>
      </trkpt>
      <trkpt lat="44.1424" lon="5.8886">
        <ele>653</ele>
        <time>2021-06-01T07:11:48.000Z</time>
      </trkpt>
      <trkpt lat="44.14239" lon="5.88861">
        <ele>653</ele>
        <time>2021-06-01T07:11:49.000Z</time>
      </trkpt>
      <trkpt lat="44.14238" lon="5.88862">
        <ele>653</ele>
        <time>2021-06-01T07:11:50.000Z</time>
      </trkpt>
      <trkpt lat="44.14238" lon="5.88863">
        <ele>653</ele>
        <time>2021-06-01T07:11:51.000Z</time>
      </trkpt>
      <trkpt lat="44.14237" lon="5.88864">
        <ele>653</ele>
        <time>2021-06-01T07:11:52.000Z</time>
      </trkpt>
      <trkpt lat="44.14236" lon="5.88865">
        <ele>653</ele>
        <time>2021-06-01T07:11:53.000Z</time>
      </trkpt>
      <trkpt lat="44.14235" lon="5.88866">
        <ele>654</ele>
        <time>2021-06-01T07:11:54.000Z</time>
      </trkpt>
      <trkpt lat="44.14235" lon="5.88866">
        <ele>654</ele>
        <time>2021-06-01T07:11:55.000Z</time>
      </trkpt>
      <trkpt lat="44.14234" lon="5.88867">
        <ele>654</ele>
        <time>2021-06-01T07:11:56.000Z</time>
      </trkpt>
      <trkpt lat="44.14233" lon="5.88868">
        <ele>654</ele>
        <time>2021-06-01T07:11:57.000Z</time>
      </trkpt>
      <trkpt lat="44.14232" lon="5.88869">
        <ele>654</ele>
        <time>2021-06-01T07:11:58.000Z</time>
      </trkpt>
      <trkpt lat="44.14231" lon="5.8887">
        <ele>654</ele>
        <time>2021-06-01T07:11:59.000Z</time>
      </trkpt>
      <trkpt lat="44.1423" lon="5.88871">
        <ele>654</ele>
        <time>2021-06-01T07:12:00.000Z</time>
      </trkpt>
      <trkpt lat="44.1423" lon="5.88871">
        <ele>654</ele>
        <time>2021-06-01T07:12:01.000Z</time>
      </trkpt>
      <trkpt lat="44.14229" lon="5.88872">
        <ele>654</ele>
        <time>2021-06-01T07:12:02.000Z</time>
      </trkpt>
      <trkpt lat="44.14228" lon="5.88873">
        <ele>654</ele>
        <time>2021-06-01T07:12:03.000Z</time>
      </trkpt>
      <trkpt lat="44.14227" lon="5.88874">
        <ele>654</ele>
        <time>2021-06-01T07:12:04.000Z</time>
      </trkpt>
      <trkpt lat="44.14226" lon="5.88874">
        <ele>654</ele>
        <time>2021-06-01T07:12:05.000Z</time>
      </trkpt>
      <trkpt lat="44.14225" lon="5.88874">
        <ele>654</ele>
        <time>2021-06-01T07:12:06.000Z</time>
      </trkpt>
      <trkpt lat="44.14224" lon="5.88875">
        <ele>654</ele>
        <time>2021-06-01T07:12:07.000Z</time>
      </trkpt>
      <trkpt lat="44.14223" lon="5.88875">
        <ele>654</ele>
        <time>2021-06-01T07:12:08.000Z</time>
      </trkpt>
      <trkpt lat="44.14222" lon="5.88876">
        <ele>654</ele>
        <time>2021-06-01T07:12:09.000Z</time>
      </trkpt>
      <trkpt lat="44.14221" lon="5.88876">
        <ele>654</ele>
        <time>2021-06-01T07:12:10.000Z</time>
      </trkpt>
      <trkpt lat="44.1422" lon="5.88877">
        <ele>654</ele>
        <time>2021-06-01T07:12:11.000Z</time>
      </trkpt>
      <trkpt lat="44.1422" lon="5.88878">
        <ele>654</ele>
        <time>2021-06-01T07:12:12.000Z</time>
      </trkpt>
      <trkpt lat="44.14219" lon="5.88879">
        <ele>654</ele>
        <time>2021-06-01T07:12:13.000Z</time>
      </trkpt>
      <trkpt lat="44.14218" lon="5.8888">
        <ele>654</ele>
        <time>2021-06-01T07:12:14.000Z</time>
      </trkpt>
      <trkpt lat="44.14217" lon="5.8888">
        <ele>655</ele>
        <time>2021-06-01T07:12:15.000Z</time>
      </trkpt>
      <trkpt lat="44.14216" lon="5.88881">
        <ele>655</ele>
        <time>2021-06-01T07:12:16.000Z</time>
      </trkpt>
      <trkpt lat="44.14215" lon="5.88882">
        <ele>655</ele>
        <time>2021-06-01T07:12:17.000Z</time>
      </trkpt>
      <trkpt lat="44.14214" lon="5.88883">
        <ele>655</ele>
        <time>2021-06-01T07:12:18.000Z</time>
      </trkpt>
      <trkpt lat="44.14213" lon="5.88883">
        <ele>655</ele>
        <time>2021-06-01T07:12:19.000Z</time>
      </trkpt>
      <trkpt lat="44.14213" lon="5.88884">
        <ele>655</ele>
        <time>2021-06-01T07:12:20.000Z</time>
      </trkpt>
      <trkpt lat="44.14212" lon="5.88885">
        <ele>655</ele>
        <time>2021-06-01T07:12:21.000Z</time>
      </trkpt>
      <trkpt lat="44.14211" lon="5.88887">
        <ele>655</ele>
        <time>2021-06-01T07:12:22.000Z</time>
      </trkpt>
      <trkpt lat="44.1421" lon="5.88888">
        <ele>655</ele>
        <time>2021-06-01T07:12:23.000Z</time>
      </trkpt>
      <trkpt lat="44.1421" lon="5.88888">
        <ele>655</ele>
        <time>2021-06-01T07:12:24.000Z</time>
      </trkpt>
      <trkpt lat="44.14209" lon="5.88889">
        <ele>655</ele>
        <time>2021-06-01T07:12:25.000Z</time>
      </trkpt>
      <trkpt lat="44.14208" lon="5.8889">
        <ele>655</ele>
        <time>2021-06-01T07:12:26.000Z</time>
      </trkpt>
      <trkpt lat="44.14207" lon="5.88891">
        <ele>655</ele>
        <time>2021-06-01T07:12:27.000Z</time>
      </trkpt>
      <trkpt lat="44.14206" lon="5.88892">
        <ele>655</ele>
        <time>2021-06-01T07:12:28.000Z</time>
      </trkpt>
      <trkpt lat="44.14206" lon="5.88893">
        <ele>655</ele>
        <time>2021-06-01T07:12:29.000Z</time>
      </trkpt>
      <trkpt lat="44.14205" lon="5.88894">
        <ele>655</ele>
        <time>2021-06-01T07:12:30.000Z</time>
      </trkpt>
      <trkpt lat="44.14204" lon="5.88895">
        <ele>656</ele>
        <time>2021-06-01T07:12:31.000Z</time>
      </trkpt>
      <trkpt lat="44.14203" lon="5.88896">
        <ele>656</ele>
        <time>2021-06-01T07:12:32.000Z</time>
      </trkpt>
      <trkpt lat="44.14203" lon="5.88897">
        <ele>656</ele>
        <time>2021-06-01T07:12:33.000Z</time>
      </trkpt>
      <trkpt lat="44.14202" lon="5.88898">
        <ele>656</ele>
        <time>2021-06-01T07:12:34.000Z</time>
      </trkpt>
      <trkpt lat="44.14201" lon="5.88899">
        <ele>656</ele>
        <time>2021-06-01T07:12:35.000Z</time>
      </trkpt>
      <trkpt lat="44.142" lon="5.889">
        <ele>656</ele>
        <time>2021-06-01T07:12:36.000Z</time>
      </trkpt>
      <trkpt lat="44.14199" lon="5.88901">
        <ele>656</ele>
        <time>2021-06-01T07:12:37.000Z</time>
      </trkpt>
      <trkpt lat="44.14199" lon="5.88902">
        <ele>656</ele>
        <time>2021-06-01T07:12:38.000Z</time>
      </trkpt>
      <trkpt lat="44.14198" lon="5.88903">
        <ele>656</ele>
        <time>2021-06-01T07:12:39.000Z</time>
      </trkpt>
      <trkpt lat="44.14197" lon="5.88904">
        <ele>656</ele>
        <time>2021-06-01T07:12:40.000Z</time>
      </trkpt>
      <trkpt lat="44.14196" lon="5.88905">
        <ele>656</ele>
        <time>2021-06-01T07:12:41.000Z</time>
      </trkpt>
      <trkpt lat="44.14195" lon="5.88906">
        <ele>656</ele>
        <time>2021-06-01T07:12:42.000Z</time>
      </trkpt>
      <trkpt lat="44.14195" lon="5.88907">
        <ele>656</ele>
        <time>2021-06-01T07:12:43.000Z</time>
      </trkpt>
      <trkpt lat="44.14194" lon="5.88908">
        <ele>656</ele>
        <time>2021-06-01T07:12:44.000Z</time>
      </trkpt>
      <trkpt lat="44.14193" lon="5.88909">
        <ele>656</ele>
        <time>2021-06-01T07:12:45.000Z</time>
      </trkpt>
      <trkpt lat="44.14192" lon="5.8891">
        <ele>657</ele>
        <time>2021-06-01T07:12:46.000Z</time>
      </trkpt>
      <trkpt lat="44.14192" lon="5.88911">
        <ele>657</ele>
        <time>2021-06-01T07:12:47.000Z</time>
      </trkpt>
      <trkpt lat="44.14191" lon="5.88912">
        <ele>657</ele>
        <time>2021-06-01T07:12:48.000Z</time>
      </trkpt>
      <trkpt lat="44.1419" lon="5.88912">
        <ele>657</ele>
        <time>2021-06-01T07:12:49.000Z</time>
      </trkpt>
      <trkpt lat="44.14189" lon="5.88913">
        <ele>657</ele>
        <time>2021-06-01T07:12:50.000Z</time>
      </trkpt>
      <trkpt lat="44.14188" lon="5.88914">
        <ele>657</ele>
        <time>2021-06-01T07:12:51.000Z</time>
      </trkpt>
      <trkpt lat="44.14187" lon="5.88915">
        <ele>657</ele>
        <time>2021-06-01T07:12:52.000Z</time>
      </trkpt>
      <trkpt lat="44.14187" lon="5.88916">
        <ele>657</ele>
        <time>2021-06-01T07:12:53.000Z</time>
      </trkpt>
      <trkpt lat="44.14186" lon="5.88916">
        <ele>657</ele>
        <time>2021-06-01T07:12:54.000Z</time>
      </trkpt>
      <trkpt lat="44.14186" lon="5.88917">
        <ele>657</ele>
        <time>2021-06-01T07:12:55.000Z</time>
      </trkpt>
      <trkpt lat="44.14185" lon="5.88917">
        <ele>657</ele>
        <time>2021-06-01T07:12:56.000Z</time>
      </trkpt>
      <trkpt lat="44.14184" lon="5.88918">
        <ele>657</ele>
        <time>2021-06-01T07:12:57.000Z</time>
      </trkpt>
      <trkpt lat="44.14184" lon="5.88919">
        <ele>657</ele>
        <time>2021-06-01T07:12:58.000Z</time>
      </trkpt>
      <trkpt lat="44.14183" lon="5.8892">
        <ele>658</ele>
        <time>2021-06-01T07:12:59.000Z</time>
      </trkpt>
      <trkpt lat="44.14182" lon="5.88921">
        <ele>658</ele>
        <time>2021-06-01T07:13:00.000Z</time>
      </trkpt>
      <trkpt lat="44.14181" lon="5.88922">
        <ele>657</ele>
        <time>2021-06-01T07:13:01.000Z</time>
      </trkpt>
      <trkpt lat="44.14181" lon="5.88923">
        <ele>657</ele>
        <time>2021-06-01T07:13:02.000Z</time>
      </trkpt>
      <trkpt lat="44.1418" lon="5.88923">
        <ele>657</ele>
        <time>2021-06-01T07:13:03.000Z</time>
      </trkpt>
      <trkpt lat="44.14179" lon="5.88924">
        <ele>657</ele>
        <time>2021-06-01T07:13:04.000Z</time>
      </trkpt>
      <trkpt lat="44.14178" lon="5.88924">
        <ele>657</ele>
        <time>2021-06-01T07:13:05.000Z</time>
      </trkpt>
      <trkpt lat="44.14178" lon="5.88924">
        <ele>657</ele>
        <time>2021-06-01T07:13:06.000Z</time>
      </trkpt>
      <trkpt lat="44.14178" lon="5.88925">
        <ele>657</ele>
        <time>2021-06-01T07:13:07.000Z</time>
      </trkpt>
      <trkpt lat="44.14177" lon="5.88925">
        <ele>657</ele>
        <time>2021-06-01T07:13:08.000Z</time>
      </trkpt>
      <trkpt lat="44.14176" lon="5.88926">
        <ele>657</ele>
        <time>2021-06-01T07:13:09.000Z</time>
      </trkpt>
      <trkpt lat="44.14176" lon="5.88927">
        <ele>657</ele>
        <time>2021-06-01T07:13:10.000Z</time>
      </trkpt>
      <trkpt lat="44.14175" lon="5.88928">
        <ele>657</ele>
        <time>2021-06-01T07:13:11.000Z</time>
      </trkpt>
      <trkpt lat="44.14174" lon="5.88928">
        <ele>657</ele>
        <time>2021-06-01T07:13:12.000Z</time>
      </trkpt>
      <trkpt lat="44.14173" lon="5.88929">
        <ele>657</ele>
        <time>2021-06-01T07:13:13.000Z</time>
      </trkpt>
      <trkpt lat="44.14172" lon="5.8893">
        <ele>657</ele>
        <time>2021-06-01T07:13:14.000Z</time>
      </trkpt>
      <trkpt lat="44.14172" lon="5.88931">
        <ele>657</ele>
        <time>2021-06-01T07:13:15.000Z</time>
      </trkpt>
      <trkpt lat="44.14171" lon="5.88931">
        <ele>657</ele>
        <time>2021-06-01T07:13:16.000Z</time>
      </trkpt>
      <trkpt lat="44.1417" lon="5.88932">
        <ele>657</ele>
        <time>2021-06-01T07:13:17.000Z</time>
      </trkpt>
      <trkpt lat="44.14169" lon="5.88933">
        <ele>657</ele>
        <time>2021-06-01T07:13:18.000Z</time>
      </trkpt>
      <trkpt lat="44.14168" lon="5.88934">
        <ele>657</ele>
        <time>2021-06-01T07:13:19.000Z</time>
      </trkpt>
      <trkpt lat="44.14167" lon="5.88935">
        <ele>657</ele>
        <time>2021-06-01T07:13:20.000Z</time>
      </trkpt>
      <trkpt lat="44.14166" lon="5.88936">
        <ele>657</ele>
        <time>2021-06-01T07:13:21.000Z</time>
      </trkpt>
      <trkpt lat="44.14165" lon="5.88937">
        <ele>657</ele>
        <time>2021-06-01T07:13:22.000Z</time>
      </trkpt>
      <trkpt lat="44.14164" lon="5.88938">
        <ele>657</ele>
        <time>2021-06-01T07:13:23.000Z</time>
      </trkpt>
      <trkpt lat="44.14164" lon="5.88939">
        <ele>658</ele>
        <time>2021-06-01T07:13:24.000Z</time>
      </trkpt>
      <trkpt lat="44.14163" lon="5.8894">
        <ele>658</ele>
        <time>2021-06-01T07:13:25.000Z</time>
      </trkpt>
      <trkpt lat="44.14162" lon="5.88941">
        <ele>658</ele>
        <time>2021-06-01T07:13:26.000Z</time>
      </trkpt>
      <trkpt lat="44.14161" lon="5.88941">
        <ele>658</ele>
        <time>2021-06-01T07:13:27.000Z</time>
      </trkpt>
      <trkpt lat="44.1416" lon="5.88942">
        <ele>658</ele>
        <time>2021-06-01T07:13:28.000Z</time>
      </trkpt>
      <trkpt lat="44.14159" lon="5.88943">
        <ele>658</ele>
        <time>2021-06-01T07:13:29.000Z</time>
      </trkpt>
      <trkpt lat="44.14158" lon="5.88944">
        <ele>658</ele>
        <time>2021-06-01T07:13:30.000Z</time>
      </trkpt>
      <trkpt lat="44.14157" lon="5.88944">
        <ele>658</ele>
        <time>2021-06-01T07:13:31.000Z</time>
      </trkpt>
      <trkpt lat="44.14156" lon="5.88945">
        <ele>659</ele>
        <time>2021-06-01T07:13:32.000Z</time>
      </trkpt>
      <trkpt lat="44.14155" lon="5.88946">
        <ele>659</ele>
        <time>2021-06-01T07:13:33.000Z</time>
      </trkpt>
      <trkpt lat="44.14154" lon="5.88946">
        <ele>659</ele>
        <time>2021-06-01T07:13:34.000Z</time>
      </trkpt>
      <trkpt lat="44.14152" lon="5.88947">
        <ele>659</ele>
        <time>2021-06-01T07:13:35.000Z</time>
      </trkpt>
      <trkpt lat="44.14151" lon="5.88948">
        <ele>659</ele>
        <time>2021-06-01T07:13:36.000Z</time>
      </trkpt>
      <trkpt lat="44.1415" lon="5.88949">
        <ele>659</ele>
        <time>2021-06-01T07:13:37.000Z</time>
      </trkpt>
      <trkpt lat="44.14149" lon="5.8895">
        <ele>658</ele>
        <time>2021-06-01T07:13:38.000Z</time>
      </trkpt>
      <trkpt lat="44.14149" lon="5.8895">
        <ele>658</ele>
        <time>2021-06-01T07:13:39.000Z</time>
      </trkpt>
      <trkpt lat="44.14148" lon="5.88951">
        <ele>658</ele>
        <time>2021-06-01T07:13:40.000Z</time>
      </trkpt>
      <trkpt lat="44.14147" lon="5.88952">
        <ele>658</ele>
        <time>2021-06-01T07:13:41.000Z</time>
      </trkpt>
      <trkpt lat="44.14146" lon="5.88953">
        <ele>658</ele>
        <time>2021-06-01T07:13:42.000Z</time>
      </trkpt>
      <trkpt lat="44.14145" lon="5.88954">
        <ele>658</ele>
        <time>2021-06-01T07:13:43.000Z</time>
      </trkpt>
      <trkpt lat="44.14144" lon="5.88954">
        <ele>659</ele>
        <time>2021-06-01T07:13:44.000Z</time>
      </trkpt>
      <trkpt lat="44.14144" lon="5.88955">
        <ele>659</ele>
        <time>2021-06-01T07:13:45.000Z</time>
      </trkpt>
      <trkpt lat="44.14143" lon="5.88956">
        <ele>659</ele>
        <time>2021-06-01T07:13:46.000Z</time>
      </trkpt>
      <trkpt lat="44.14143" lon="5.88957">
        <ele>659</ele>
        <time>2021-06-01T07:13:47.000Z</time>
      </trkpt>
      <trkpt lat="44.14142" lon="5.88958">
        <ele>659</ele>
        <time>2021-06-01T07:13:48.000Z</time>
      </trkpt>
      <trkpt lat="44.14142" lon="5.88959">
        <ele>658</ele>
        <time>2021-06-01T07:13:49.000Z</time>
      </trkpt>
      <trkpt lat="44.14141" lon="5.8896">
        <ele>658</ele>
        <time>2021-06-01T07:13:50.000Z</time>
      </trkpt>
      <trkpt lat="44.1414" lon="5.8896">
        <ele>658</ele>
        <time>2021-06-01T07:13:51.000Z</time>
      </trkpt>
      <trkpt lat="44.14139" lon="5.88961">
        <ele>659</ele>
        <time>2021-06-01T07:13:52.000Z</time>
      </trkpt>
      <trkpt lat="44.14139" lon="5.88962">
        <ele>659</ele>
        <time>2021-06-01T07:13:53.000Z</time>
      </trkpt>
      <trkpt lat="44.14138" lon="5.88963">
        <ele>659</ele>
        <time>2021-06-01T07:13:54.000Z</time>
      </trkpt>
      <trkpt lat="44.14137" lon="5.88964">
        <ele>659</ele>
        <time>2021-06-01T07:13:55.000Z</time>
      </trkpt>
      <trkpt lat="44.14136" lon="5.88964">
        <ele>659</ele>
        <time>2021-06-01T07:13:56.000Z</time>
      </trkpt>
      <trkpt lat="44.14135" lon="5.88965">
        <ele>659</ele>
        <time>2021-06-01T07:13:57.000Z</time>
      </trkpt>
      <trkpt lat="44.14135" lon="5.88966">
        <ele>659</ele>
        <time>2021-06-01T07:13:58.000Z</time>
      </trkpt>
      <trkpt lat="44.14134" lon="5.88966">
        <ele>659</ele>
        <time>2021-06-01T07:13:59.000Z</time>
      </trkpt>
      <trkpt lat="44.14133" lon="5.88967">
        <ele>659</ele>
        <time>2021-06-01T07:14:00.000Z</time>
      </trkpt>
      <trkpt lat="44.14132" lon="5.88968">
        <ele>659</ele>
        <time>2021-06-01T07:14:01.000Z</time>
      </trkpt>
      <trkpt lat="44.14131" lon="5.88968">
        <ele>659</ele>
        <time>2021-06-01T07:14:02.000Z</time>
      </trkpt>
      <trkpt lat="44.1413" lon="5.88969">
        <ele>659</ele>
        <time>2021-06-01T07:14:03.000Z</time>
      </trkpt>
      <trkpt lat="44.14129" lon="5.88969">
        <ele>659</ele>
        <time>2021-06-01T07:14:04.000Z</time>
      </trkpt>
      <trkpt lat="44.14128" lon="5.8897">
        <ele>659</ele>
        <time>2021-06-01T07:14:05.000Z</time>
      </trkpt>
      <trkpt lat="44.14128" lon="5.88971">
        <ele>659</ele>
        <time>2021-06-01T07:14:06.000Z</time>
      </trkpt>
      <trkpt lat="44.14127" lon="5.88972">
        <ele>659</ele>
        <time>2021-06-01T07:14:07.000Z</time>
      </trkpt>
      <trkpt lat="44.14126" lon="5.88972">
        <ele>659</ele>
        <time>2021-06-01T07:14:08.000Z</time>
      </trkpt>
      <trkpt lat="44.14125" lon="5.88973">
        <ele>659</ele>
        <time>2021-06-01T07:14:09.000Z</time>
      </trkpt>
      <trkpt lat="44.14124" lon="5.88974">
        <ele>659</ele>
        <time>2021-06-01T07:14:10.000Z</time>
      </trkpt>
      <trkpt lat="44.14122" lon="5.88975">
        <ele>660</ele>
        <time>2021-06-01T07:14:11.000Z</time>
      </trkpt>
      <trkpt lat="44.14122" lon="5.88975">
        <ele>660</ele>
        <time>2021-06-01T07:14:12.000Z</time>
      </trkpt>
      <trkpt lat="44.14121" lon="5.88976">
        <ele>660</ele>
        <time>2021-06-01T07:14:13.000Z</time>
      </trkpt>
      <trkpt lat="44.1412" lon="5.88977">
        <ele>660</ele>
        <time>2021-06-01T07:14:14.000Z</time>
      </trkpt>
      <trkpt lat="44.14119" lon="5.88978">
        <ele>660</ele>
        <time>2021-06-01T07:14:15.000Z</time>
      </trkpt>
      <trkpt lat="44.14118" lon="5.88979">
        <ele>660</ele>
        <time>2021-06-01T07:14:16.000Z</time>
      </trkpt>
      <trkpt lat="44.14117" lon="5.88979">
        <ele>660</ele>
        <time>2021-06-01T07:14:17.000Z</time>
      </trkpt>
      <trkpt lat="44.14116" lon="5.8898">
        <ele>660</ele>
        <time>2021-06-01T07:14:18.000Z</time>
      </trkpt>
      <trkpt lat="44.14115" lon="5.88981">
        <ele>660</ele>
        <time>2021-06-01T07:14:19.000Z</time>
      </trkpt>
      <trkpt lat="44.14115" lon="5.88981">
        <ele>660</ele>
        <time>2021-06-01T07:14:20.000Z</time>
      </trkpt>
      <trkpt lat="44.14114" lon="5.88982">
        <ele>660</ele>
        <time>2021-06-01T07:14:21.000Z</time>
      </trkpt>
      <trkpt lat="44.14113" lon="5.88983">
        <ele>660</ele>
        <time>2021-06-01T07:14:22.000Z</time>
      </trkpt>
      <trkpt lat="44.14112" lon="5.88985">
        <ele>660</ele>
        <time>2021-06-01T07:14:23.000Z</time>
      </trkpt>
      <trkpt lat="44.14111" lon="5.88985">
        <ele>661</ele>
        <time>2021-06-01T07:14:24.000Z</time>
      </trkpt>
      <trkpt lat="44.1411" lon="5.88986">
        <ele>661</ele>
        <time>2021-06-01T07:14:25.000Z</time>
      </trkpt>
      <trkpt lat="44.14109" lon="5.88987">
        <ele>661</ele>
        <time>2021-06-01T07:14:26.000Z</time>
      </trkpt>
      <trkpt lat="44.14109" lon="5.88988">
        <ele>661</ele>
        <time>2021-06-01T07:14:27.000Z</time>
      </trkpt>
      <trkpt lat="44.14108" lon="5.88989">
        <ele>661</ele>
        <time>2021-06-01T07:14:28.000Z</time>
      </trkpt>
      <trkpt lat="44.14107" lon="5.8899">
        <ele>661</ele>
        <time>2021-06-01T07:14:29.000Z</time>
      </trkpt>
      <trkpt lat="44.14106" lon="5.88991">
        <ele>661</ele>
        <time>2021-06-01T07:14:30.000Z</time>
      </trkpt>
      <trkpt lat="44.14106" lon="5.88991">
        <ele>661</ele>
        <time>2021-06-01T07:14:31.000Z</time>
      </trkpt>
      <trkpt lat="44.14105" lon="5.88992">
        <ele>661</ele>
        <time>2021-06-01T07:14:32.000Z</time>
      </trkpt>
      <trkpt lat="44.14104" lon="5.88993">
        <ele>661</ele>
        <time>2021-06-01T07:14:33.000Z</time>
      </trkpt>
      <trkpt lat="44.14103" lon="5.88994">
        <ele>661</ele>
        <time>2021-06-01T07:14:34.000Z</time>
      </trkpt>
      <trkpt lat="44.14102" lon="5.88995">
        <ele>661</ele>
        <time>2021-06-01T07:14:35.000Z</time>
      </trkpt>
      <trkpt lat="44.14101" lon="5.88996">
        <ele>661</ele>
        <time>2021-06-01T07:14:36.000Z</time>
      </trkpt>
      <trkpt lat="44.141" lon="5.88997">
        <ele>661</ele>
        <time>2021-06-01T07:14:37.000Z</time>
      </trkpt>
      <trkpt lat="44.14099" lon="5.88998">
        <ele>661</ele>
        <time>2021-06-01T07:14:38.000Z</time>
      </trkpt>
      <trkpt lat="44.14098" lon="5.88999">
        <ele>661</ele>
        <time>2021-06-01T07:14:39.000Z</time>
      </trkpt>
      <trkpt lat="44.14098" lon="5.89">
        <ele>661</ele>
        <time>2021-06-01T07:14:40.000Z</time>
      </trkpt>
      <trkpt lat="44.14097" lon="5.89001">
        <ele>661</ele>
        <time>2021-06-01T07:14:41.000Z</time>
      </trkpt>
      <trkpt lat="44.14096" lon="5.89002">
        <ele>661</ele>
        <time>2021-06-01T07:14:42.000Z</time>
      </trkpt>
      <trkpt lat="44.14095" lon="5.89003">
        <ele>661</ele>
        <time>2021-06-01T07:14:43.000Z</time>
      </trkpt>
      <trkpt lat="44.14094" lon="5.89003">
        <ele>661</ele>
        <time>2021-06-01T07:14:44.000Z</time>
      </trkpt>
      <trkpt lat="44.14093" lon="5.89004">
        <ele>661</ele>
        <time>2021-06-01T07:14:45.000Z</time>
      </trkpt>
      <trkpt lat="44.14092" lon="5.89005">
        <ele>661</ele>
        <time>2021-06-01T07:14:46.000Z</time>
      </trkpt>
      <trkpt lat="44.14091" lon="5.89006">
        <ele>661</ele>
        <time>2021-06-01T07:14:47.000Z</time>
      </trkpt>
      <trkpt lat="44.1409" lon="5.89007">
        <ele>661</ele>
        <time>2021-06-01T07:14:48.000Z</time>
      </trkpt>
      <trkpt lat="44.14089" lon="5.89009">
        <ele>661</ele>
        <time>2021-06-01T07:14:49.000Z</time>
      </trkpt>
      <trkpt lat="44.14088" lon="5.8901">
        <ele>661</ele>
        <time>2021-06-01T07:14:50.000Z</time>
      </trkpt>
      <trkpt lat="44.14087" lon="5.89011">
        <ele>661</ele>
        <time>2021-06-01T07:14:51.000Z</time>
      </trkpt>
      <trkpt lat="44.14086" lon="5.89012">
        <ele>660</ele>
        <time>2021-06-01T07:14:52.000Z</time>
      </trkpt>
      <trkpt lat="44.14085" lon="5.89013">
        <ele>660</ele>
        <time>2021-06-01T07:14:53.000Z</time>
      </trkpt>
      <trkpt lat="44.14085" lon="5.89014">
        <ele>660</ele>
        <time>2021-06-01T07:14:54.000Z</time>
      </trkpt>
      <trkpt lat="44.14084" lon="5.89015">
        <ele>660</ele>
        <time>2021-06-01T07:14:55.000Z</time>
      </trkpt>
      <trkpt lat="44.14083" lon="5.89015">
        <ele>660</ele>
        <time>2021-06-01T07:14:56.000Z</time>
      </trkpt>
      <trkpt lat="44.14083" lon="5.89016">
        <ele>660</ele>
        <time>2021-06-01T07:14:57.000Z</time>
      </trkpt>
      <trkpt lat="44.14082" lon="5.89016">
        <ele>660</ele>
        <time>2021-06-01T07:14:58.000Z</time>
      </trkpt>
      <trkpt lat="44.14081" lon="5.89017">
        <ele>660</ele>
        <time>2021-06-01T07:14:59.000Z</time>
      </trkpt>
      <trkpt lat="44.14081" lon="5.89018">
        <ele>660</ele>
        <time>2021-06-01T07:15:00.000Z</time>
      </trkpt>
      <trkpt lat="44.1408" lon="5.89019">
        <ele>660</ele>
        <time>2021-06-01T07:15:01.000Z</time>
      </trkpt>
      <trkpt lat="44.14079" lon="5.8902">
        <ele>660</ele>
        <time>2021-06-01T07:15:02.000Z</time>
      </trkpt>
      <trkpt lat="44.14079" lon="5.8902">
        <ele>661</ele>
        <time>2021-06-01T07:15:03.000Z</time>
      </trkpt>
      <trkpt lat="44.14078" lon="5.89021">
        <ele>661</ele>
        <time>2021-06-01T07:15:04.000Z</time>
      </trkpt>
      <trkpt lat="44.14077" lon="5.89022">
        <ele>661</ele>
        <time>2021-06-01T07:15:05.000Z</time>
      </trkpt>
      <trkpt lat="44.14077" lon="5.89022">
        <ele>661</ele>
        <time>2021-06-01T07:15:06.000Z</time>
      </trkpt>
      <trkpt lat="44.14076" lon="5.89023">
        <ele>661</ele>
        <time>2021-06-01T07:15:07.000Z</time>
      </trkpt>
      <trkpt lat="44.14075" lon="5.89024">
        <ele>661</ele>
        <time>2021-06-01T07:15:08.000Z</time>
      </trkpt>
      <trkpt lat="44.14074" lon="5.89025">
        <ele>661</ele>
        <time>2021-06-01T07:15:09.000Z</time>
      </trkpt>
      <trkpt lat="44.14073" lon="5.89026">
        <ele>661</ele>
        <time>2021-06-01T07:15:10.000Z</time>
      </trkpt>
      <trkpt lat="44.14072" lon="5.89026">
        <ele>661</ele>
        <time>2021-06-01T07:15:11.000Z</time>
      </trkpt>
      <trkpt lat="44.14072" lon="5.89027">
        <ele>661</ele>
        <time>2021-06-01T07:15:12.000Z</time>
      </trkpt>
      <trkpt lat="44.14071" lon="5.89028">
        <ele>661</ele>
        <time>2021-06-01T07:15:13.000Z</time>
      </trkpt>
      <trkpt lat="44.1407" lon="5.89029">
        <ele>661</ele>
        <time>2021-06-01T07:15:14.000Z</time>
      </trkpt>
      <trkpt lat="44.14069" lon="5.8903">
        <ele>661</ele>
        <time>2021-06-01T07:15:15.000Z</time>
      </trkpt>
      <trkpt lat="44.14068" lon="5.8903">
        <ele>661</ele>
        <time>2021-06-01T07:15:16.000Z</time>
      </trkpt>
      <trkpt lat="44.14067" lon="5.89031">
        <ele>661</ele>
        <time>2021-06-01T07:15:17.000Z</time>
      </trkpt>
      <trkpt lat="44.14066" lon="5.89032">
        <ele>661</ele>
        <time>2021-06-01T07:15:18.000Z</time>
      </trkpt>
      <trkpt lat="44.14065" lon="5.89033">
        <ele>661</ele>
        <time>2021-06-01T07:15:19.000Z</time>
      </trkpt>
      <trkpt lat="44.14065" lon="5.89035">
        <ele>661</ele>
        <time>2021-06-01T07:15:20.000Z</time>
      </trkpt>
      <trkpt lat="44.14064" lon="5.89035">
        <ele>661</ele>
        <time>2021-06-01T07:15:21.000Z</time>
      </trkpt>
      <trkpt lat="44.14063" lon="5.89037">
        <ele>661</ele>
        <time>2021-06-01T07:15:22.000Z</time>
      </trkpt>
      <trkpt lat="44.14062" lon="5.89038">
        <ele>661</ele>
        <time>2021-06-01T07:15:23.000Z</time>
      </trkpt>
      <trkpt lat="44.14062" lon="5.89039">
        <ele>661</ele>
        <time>2021-06-01T07:15:24.000Z</time>
      </trkpt>
      <trkpt lat="44.14061" lon="5.8904">
        <ele>662</ele>
        <time>2021-06-01T07:15:25.000Z</time>
      </trkpt>
      <trkpt lat="44.14061" lon="5.8904">
        <ele>662</ele>
        <time>2021-06-01T07:15:26.000Z</time>
      </trkpt>
      <trkpt lat="44.1406" lon="5.89041">
        <ele>662</ele>
        <time>2021-06-01T07:15:27.000Z</time>
      </trkpt>
      <trkpt lat="44.14059" lon="5.89042">
        <ele>662</ele>
        <time>2021-06-01T07:15:28.000Z</time>
      </trkpt>
      <trkpt lat="44.14058" lon="5.89043">
        <ele>662</ele>
        <time>2021-06-01T07:15:29.000Z</time>
      </trkpt>
      <trkpt lat="44.14057" lon="5.89044">
        <ele>662</ele>
        <time>2021-06-01T07:15:30.000Z</time>
      </trkpt>
      <trkpt lat="44.14056" lon="5.89045">
        <ele>662</ele>
        <time>2021-06-01T07:15:31.000Z</time>
      </trkpt>
      <trkpt lat="44.14055" lon="5.89045">
        <ele>662</ele>
        <time>2021-06-01T07:15:32.000Z</time>
      </trkpt>
      <trkpt lat="44.14054" lon="5.89046">
        <ele>662</ele>
        <time>2021-06-01T07:15:33.000Z</time>
      </trkpt>
      <trkpt lat="44.14053" lon="5.89047">
        <ele>662</ele>
        <time>2021-06-01T07:15:34.000Z</time>
      </trkpt>
      <trkpt lat="44.14052" lon="5.89047">
        <ele>662</ele>
        <time>2021-06-01T07:15:35.000Z</time>
      </trkpt>
      <trkpt lat="44.14051" lon="5.89048">
        <ele>662</ele>
        <time>2021-06-01T07:15:36.000Z</time>
      </trkpt>
      <trkpt lat="44.1405" lon="5.89049">
        <ele>662</ele>
        <time>2021-06-01T07:15:37.000Z</time>
      </trkpt>
      <trkpt lat="44.14049" lon="5.89049">
        <ele>662</ele>
        <time>2021-06-01T07:15:38.000Z</time>
      </trkpt>
      <trkpt lat="44.14049" lon="5.8905">
        <ele>662</ele>
        <time>2021-06-01T07:15:39.000Z</time>
      </trkpt>
      <trkpt lat="44.14047" lon="5.8905">
        <ele>662</ele>
        <time>2021-06-01T07:15:40.000Z</time>
      </trkpt>
      <trkpt lat="44.14046" lon="5.89051">
        <ele>662</ele>
        <time>2021-06-01T07:15:41.000Z</time>
      </trkpt>
      <trkpt lat="44.14045" lon="5.89051">
        <ele>662</ele>
        <time>2021-06-01T07:15:42.000Z</time>
      </trkpt>
      <trkpt lat="44.14045" lon="5.89052">
        <ele>662</ele>
        <time>2021-06-01T07:15:43.000Z</time>
      </trkpt>
      <trkpt lat="44.14044" lon="5.89052">
        <ele>662</ele>
        <time>2021-06-01T07:15:44.000Z</time>
      </trkpt>
      <trkpt lat="44.14043" lon="5.89053">
        <ele>662</ele>
        <time>2021-06-01T07:15:45.000Z</time>
      </trkpt>
      <trkpt lat="44.14042" lon="5.89053">
        <ele>662</ele>
        <time>2021-06-01T07:15:46.000Z</time>
      </trkpt>
      <trkpt lat="44.14042" lon="5.89053">
        <ele>662</ele>
        <time>2021-06-01T07:15:47.000Z</time>
      </trkpt>
      <trkpt lat="44.14041" lon="5.89054">
        <ele>662</ele>
        <time>2021-06-01T07:15:48.000Z</time>
      </trkpt>
      <trkpt lat="44.1404" lon="5.89054">
        <ele>662</ele>
        <time>2021-06-01T07:15:49.000Z</time>
      </trkpt>
      <trkpt lat="44.14039" lon="5.89055">
        <ele>662</ele>
        <time>2021-06-01T07:15:50.000Z</time>
      </trkpt>
      <trkpt lat="44.14038" lon="5.89055">
        <ele>662</ele>
        <time>2021-06-01T07:15:51.000Z</time>
      </trkpt>
      <trkpt lat="44.14037" lon="5.89056">
        <ele>662</ele>
        <time>2021-06-01T07:15:52.000Z</time>
      </trkpt>
      <trkpt lat="44.14036" lon="5.89056">
        <ele>662</ele>
        <time>2021-06-01T07:15:53.000Z</time>
      </trkpt>
      <trkpt lat="44.14036" lon="5.89056">
        <ele>662</ele>
        <time>2021-06-01T07:15:54.000Z</time>
      </trkpt>
      <trkpt lat="44.14035" lon="5.89056">
        <ele>662</ele>
        <time>2021-06-01T07:15:55.000Z</time>
      </trkpt>
      <trkpt lat="44.14035" lon="5.89057">
        <ele>662</ele>
        <time>2021-06-01T07:15:56.000Z</time>
      </trkpt>
      <trkpt lat="44.14034" lon="5.89057">
        <ele>662</ele>
        <time>2021-06-01T07:15:57.000Z</time>
      </trkpt>
      <trkpt lat="44.14033" lon="5.89057">
        <ele>662</ele>
        <time>2021-06-01T07:15:58.000Z</time>
      </trkpt>
      <trkpt lat="44.14032" lon="5.89057">
        <ele>662</ele>
        <time>2021-06-01T07:15:59.000Z</time>
      </trkpt>
      <trkpt lat="44.14031" lon="5.89058">
        <ele>662</ele>
        <time>2021-06-01T07:16:00.000Z</time>
      </trkpt>
      <trkpt lat="44.14031" lon="5.89058">
        <ele>662</ele>
        <time>2021-06-01T07:16:01.000Z</time>
      </trkpt>
      <trkpt lat="44.1403" lon="5.89059">
        <ele>662</ele>
        <time>2021-06-01T07:16:02.000Z</time>
      </trkpt>
      <trkpt lat="44.14029" lon="5.89059">
        <ele>662</ele>
        <time>2021-06-01T07:16:03.000Z</time>
      </trkpt>
      <trkpt lat="44.14028" lon="5.8906">
        <ele>662</ele>
        <time>2021-06-01T07:16:04.000Z</time>
      </trkpt>
      <trkpt lat="44.14028" lon="5.8906">
        <ele>662</ele>
        <time>2021-06-01T07:16:05.000Z</time>
      </trkpt>
      <trkpt lat="44.14027" lon="5.89061">
        <ele>662</ele>
        <time>2021-06-01T07:16:06.000Z</time>
      </trkpt>
      <trkpt lat="44.14026" lon="5.89061">
        <ele>662</ele>
        <time>2021-06-01T07:16:07.000Z</time>
      </trkpt>
      <trkpt lat="44.14026" lon="5.89062">
        <ele>662</ele>
        <time>2021-06-01T07:16:08.000Z</time>
      </trkpt>
      <trkpt lat="44.14025" lon="5.89062">
        <ele>662</ele>
        <time>2021-06-01T07:16:09.000Z</time>
      </trkpt>
      <trkpt lat="44.14024" lon="5.89063">
        <ele>662</ele>
        <time>2021-06-01T07:16:10.000Z</time>
      </trkpt>
      <trkpt lat="44.14024" lon="5.89063">
        <ele>662</ele>
        <time>2021-06-01T07:16:11.000Z</time>
      </trkpt>
      <trkpt lat="44.14023" lon="5.89064">
        <ele>662</ele>
        <time>2021-06-01T07:16:12.000Z</time>
      </trkpt>
      <trkpt lat="44.14022" lon="5.89064">
        <ele>662</ele>
        <time>2021-06-01T07:16:13.000Z</time>
      </trkpt>
      <trkpt lat="44.14022" lon="5.89064">
        <ele>662</ele>
        <time>2021-06-01T07:16:14.000Z</time>
      </trkpt>
      <trkpt lat="44.14021" lon="5.89065">
        <ele>663</ele>
        <time>2021-06-01T07:16:15.000Z</time>
      </trkpt>
      <trkpt lat="44.14021" lon="5.89066">
        <ele>663</ele>
        <time>2021-06-01T07:16:16.000Z</time>
      </trkpt>
      <trkpt lat="44.1402" lon="5.89067">
        <ele>663</ele>
        <time>2021-06-01T07:16:17.000Z</time>
      </trkpt>
      <trkpt lat="44.14019" lon="5.89068">
        <ele>663</ele>
        <time>2021-06-01T07:16:18.000Z</time>
      </trkpt>
      <trkpt lat="44.14018" lon="5.89069">
        <ele>663</ele>
        <time>2021-06-01T07:16:19.000Z</time>
      </trkpt>
      <trkpt lat="44.14017" lon="5.89069">
        <ele>663</ele>
        <time>2021-06-01T07:16:20.000Z</time>
      </trkpt>
      <trkpt lat="44.14017" lon="5.8907">
        <ele>663</ele>
        <time>2021-06-01T07:16:21.000Z</time>
      </trkpt>
      <trkpt lat="44.14016" lon="5.89072">
        <ele>663</ele>
        <time>2021-06-01T07:16:22.000Z</time>
      </trkpt>
      <trkpt lat="44.14015" lon="5.89073">
        <ele>663</ele>
        <time>2021-06-01T07:16:23.000Z</time>
      </trkpt>
      <trkpt lat="44.14014" lon="5.89074">
        <ele>663</ele>
        <time>2021-06-01T07:16:24.000Z</time>
      </trkpt>
      <trkpt lat="44.14013" lon="5.89075">
        <ele>663</ele>
        <time>2021-06-01T07:16:25.000Z</time>
      </trkpt>
      <trkpt lat="44.14013" lon="5.89076">
        <ele>663</ele>
        <time>2021-06-01T07:16:26.000Z</time>
      </trkpt>
      <trkpt lat="44.14012" lon="5.89077">
        <ele>663</ele>
        <time>2021-06-01T07:16:27.000Z</time>
      </trkpt>
      <trkpt lat="44.14011" lon="5.89078">
        <ele>663</ele>
        <time>2021-06-01T07:16:28.000Z</time>
      </trkpt>
      <trkpt lat="44.1401" lon="5.89079">
        <ele>663</ele>
        <time>2021-06-01T07:16:29.000Z</time>
      </trkpt>
      <trkpt lat="44.1401" lon="5.89079">
        <ele>664</ele>
        <time>2021-06-01T07:16:30.000Z</time>
      </trkpt>
      <trkpt lat="44.14009" lon="5.8908">
        <ele>664</ele>
        <time>2021-06-01T07:16:31.000Z</time>
      </trkpt>
      <trkpt lat="44.14008" lon="5.89081">
        <ele>664</ele>
        <time>2021-06-01T07:16:32.000Z</time>
      </trkpt>
      <trkpt lat="44.14008" lon="5.89082">
        <ele>664</ele>
        <time>2021-06-01T07:16:33.000Z</time>
      </trkpt>
      <trkpt lat="44.14007" lon="5.89083">
        <ele>664</ele>
        <time>2021-06-01T07:16:34.000Z</time>
      </trkpt>
      <trkpt lat="44.14007" lon="5.89084">
        <ele>664</ele>
        <time>2021-06-01T07:16:35.000Z</time>
      </trkpt>
      <trkpt lat="44.14006" lon="5.89084">
        <ele>665</ele>
        <time>2021-06-01T07:16:36.000Z</time>
      </trkpt>
      <trkpt lat="44.14006" lon="5.89085">
        <ele>665</ele>
        <time>2021-06-01T07:16:37.000Z</time>
      </trkpt>
      <trkpt lat="44.14005" lon="5.89085">
        <ele>665</ele>
        <time>2021-06-01T07:16:38.000Z</time>
      </trkpt>
      <trkpt lat="44.14005" lon="5.89086">
        <ele>665</ele>
        <time>2021-06-01T07:16:39.000Z</time>
      </trkpt>
      <trkpt lat="44.14004" lon="5.89086">
        <ele>665</ele>
        <time>2021-06-01T07:16:40.000Z</time>
      </trkpt>
      <trkpt lat="44.14004" lon="5.89087">
        <ele>665</ele>
        <time>2021-06-01T07:16:41.000Z</time>
      </trkpt>
      <trkpt lat="44.14003" lon="5.89088">
        <ele>665</ele>
        <time>2021-06-01T07:16:42.000Z</time>
      </trkpt>
      <trkpt lat="44.14002" lon="5.89089">
        <ele>666</ele>
        <time>2021-06-01T07:16:43.000Z</time>
      </trkpt>
      <trkpt lat="44.14002" lon="5.89089">
        <ele>666</ele>
        <time>2021-06-01T07:16:44.000Z</time>
      </trkpt>
      <trkpt lat="44.14001" lon="5.8909">
        <ele>666</ele>
        <time>2021-06-01T07:16:45.000Z</time>
      </trkpt>
      <trkpt lat="44.14001" lon="5.89091">
        <ele>666</ele>
        <time>2021-06-01T07:16:46.000Z</time>
      </trkpt>
      <trkpt lat="44.14" lon="5.89091">
        <ele>666</ele>
        <time>2021-06-01T07:16:47.000Z</time>
      </trkpt>
      <trkpt lat="44.14" lon="5.89091">
        <ele>666</ele>
        <time>2021-06-01T07:16:48.000Z</time>
      </trkpt>
      <trkpt lat="44.13999" lon="5.89091">
        <ele>667</ele>
        <time>2021-06-01T07:16:49.000Z</time>
      </trkpt>
      <trkpt lat="44.13999" lon="5.89092">
        <ele>667</ele>
        <time>2021-06-01T07:16:50.000Z</time>
      </trkpt>
      <trkpt lat="44.13998" lon="5.89092">
        <ele>667</ele>
        <time>2021-06-01T07:16:51.000Z</time>
      </trkpt>
      <trkpt lat="44.13997" lon="5.89092">
        <ele>667</ele>
        <time>2021-06-01T07:16:52.000Z</time>
      </trkpt>
      <trkpt lat="44.13997" lon="5.89093">
        <ele>667</ele>
        <time>2021-06-01T07:16:53.000Z</time>
      </trkpt>
      <trkpt lat="44.13996" lon="5.89093">
        <ele>667</ele>
        <time>2021-06-01T07:16:54.000Z</time>
      </trkpt>
      <trkpt lat="44.13996" lon="5.89094">
        <ele>667</ele>
        <time>2021-06-01T07:16:55.000Z</time>
      </trkpt>
      <trkpt lat="44.13995" lon="5.89094">
        <ele>667</ele>
        <time>2021-06-01T07:16:56.000Z</time>
      </trkpt>
      <trkpt lat="44.13995" lon="5.89095">
        <ele>667</ele>
        <time>2021-06-01T07:16:57.000Z</time>
      </trkpt>
      <trkpt lat="44.13994" lon="5.89095">
        <ele>667</ele>
        <time>2021-06-01T07:16:58.000Z</time>
      </trkpt>
      <trkpt lat="44.13993" lon="5.89096">
        <ele>667</ele>
        <time>2021-06-01T07:16:59.000Z</time>
      </trkpt>
      <trkpt lat="44.13992" lon="5.89096">
        <ele>667</ele>
        <time>2021-06-01T07:17:00.000Z</time>
      </trkpt>
      <trkpt lat="44.13991" lon="5.89097">
        <ele>667</ele>
        <time>2021-06-01T07:17:01.000Z</time>
      </trkpt>
      <trkpt lat="44.1399" lon="5.89098">
        <ele>667</ele>
        <time>2021-06-01T07:17:02.000Z</time>
      </trkpt>
      <trkpt lat="44.13989" lon="5.89099">
        <ele>667</ele>
        <time>2021-06-01T07:17:03.000Z</time>
      </trkpt>
      <trkpt lat="44.13989" lon="5.89099">
        <ele>668</ele>
        <time>2021-06-01T07:17:04.000Z</time>
      </trkpt>
      <trkpt lat="44.13988" lon="5.891">
        <ele>668</ele>
        <time>2021-06-01T07:17:05.000Z</time>
      </trkpt>
      <trkpt lat="44.13987" lon="5.89101">
        <ele>668</ele>
        <time>2021-06-01T07:17:06.000Z</time>
      </trkpt>
      <trkpt lat="44.13987" lon="5.89101">
        <ele>668</ele>
        <time>2021-06-01T07:17:07.000Z</time>
      </trkpt>
      <trkpt lat="44.13986" lon="5.89102">
        <ele>668</ele>
        <time>2021-06-01T07:17:08.000Z</time>
      </trkpt>
      <trkpt lat="44.13984" lon="5.89102">
        <ele>668</ele>
        <time>2021-06-01T07:17:09.000Z</time>
      </trkpt>
      <trkpt lat="44.13983" lon="5.89102">
        <ele>668</ele>
        <time>2021-06-01T07:17:10.000Z</time>
      </trkpt>
      <trkpt lat="44.13982" lon="5.89102">
        <ele>668</ele>
        <time>2021-06-01T07:17:11.000Z</time>
      </trkpt>
      <trkpt lat="44.13981" lon="5.89103">
        <ele>668</ele>
        <time>2021-06-01T07:17:12.000Z</time>
      </trkpt>
      <trkpt lat="44.1398" lon="5.89104">
        <ele>668</ele>
        <time>2021-06-01T07:17:13.000Z</time>
      </trkpt>
      <trkpt lat="44.13979" lon="5.89104">
        <ele>668</ele>
        <time>2021-06-01T07:17:14.000Z</time>
      </trkpt>
      <trkpt lat="44.13978" lon="5.89105">
        <ele>668</ele>
        <time>2021-06-01T07:17:15.000Z</time>
      </trkpt>
      <trkpt lat="44.13977" lon="5.89105">
        <ele>669</ele>
        <time>2021-06-01T07:17:16.000Z</time>
      </trkpt>
      <trkpt lat="44.13976" lon="5.89106">
        <ele>669</ele>
        <time>2021-06-01T07:17:17.000Z</time>
      </trkpt>
      <trkpt lat="44.13975" lon="5.89106">
        <ele>669</ele>
        <time>2021-06-01T07:17:18.000Z</time>
      </trkpt>
      <trkpt lat="44.13974" lon="5.89106">
        <ele>669</ele>
        <time>2021-06-01T07:17:19.000Z</time>
      </trkpt>
      <trkpt lat="44.13973" lon="5.89106">
        <ele>669</ele>
        <time>2021-06-01T07:17:20.000Z</time>
      </trkpt>
      <trkpt lat="44.13971" lon="5.89107">
        <ele>669</ele>
        <time>2021-06-01T07:17:21.000Z</time>
      </trkpt>
      <trkpt lat="44.1397" lon="5.89107">
        <ele>669</ele>
        <time>2021-06-01T07:17:22.000Z</time>
      </trkpt>
      <trkpt lat="44.13969" lon="5.89108">
        <ele>669</ele>
        <time>2021-06-01T07:17:23.000Z</time>
      </trkpt>
      <trkpt lat="44.13968" lon="5.89108">
        <ele>670</ele>
        <time>2021-06-01T07:17:24.000Z</time>
      </trkpt>
      <trkpt lat="44.13967" lon="5.89109">
        <ele>670</ele>
        <time>2021-06-01T07:17:25.000Z</time>
      </trkpt>
      <trkpt lat="44.13966" lon="5.89109">
        <ele>670</ele>
        <time>2021-06-01T07:17:26.000Z</time>
      </trkpt>
      <trkpt lat="44.13965" lon="5.8911">
        <ele>670</ele>
        <time>2021-06-01T07:17:27.000Z</time>
      </trkpt>
      <trkpt lat="44.13964" lon="5.8911">
        <ele>670</ele>
        <time>2021-06-01T07:17:28.000Z</time>
      </trkpt>
      <trkpt lat="44.13963" lon="5.89111">
        <ele>670</ele>
        <time>2021-06-01T07:17:29.000Z</time>
      </trkpt>
      <trkpt lat="44.13963" lon="5.89111">
        <ele>670</ele>
        <time>2021-06-01T07:17:30.000Z</time>
      </trkpt>
      <trkpt lat="44.13962" lon="5.89111">
        <ele>670</ele>
        <time>2021-06-01T07:17:31.000Z</time>
      </trkpt>
      <trkpt lat="44.13962" lon="5.89112">
        <ele>670</ele>
        <time>2021-06-01T07:17:32.000Z</time>
      </trkpt>
      <trkpt lat="44.13962" lon="5.89112">
        <ele>670</ele>
        <time>2021-06-01T07:17:33.000Z</time>
      </trkpt>
      <trkpt lat="44.13961" lon="5.89112">
        <ele>670</ele>
        <time>2021-06-01T07:17:34.000Z</time>
      </trkpt>
      <trkpt lat="44.13961" lon="5.89112">
        <ele>670</ele>
        <time>2021-06-01T07:17:35.000Z</time>
      </trkpt>
      <trkpt lat="44.1396" lon="5.89112">
        <ele>670</ele>
        <time>2021-06-01T07:17:36.000Z</time>
      </trkpt>
      <trkpt lat="44.1396" lon="5.89113">
        <ele>670</ele>
        <time>2021-06-01T07:17:37.000Z</time>
      </trkpt>
      <trkpt lat="44.1396" lon="5.89113">
        <ele>670</ele>
        <time>2021-06-01T07:17:38.000Z</time>
      </trkpt>
      <trkpt lat="44.13959" lon="5.89113">
        <ele>671</ele>
        <time>2021-06-01T07:17:39.000Z</time>
      </trkpt>
      <trkpt lat="44.13959" lon="5.89113">
        <ele>671</ele>
        <time>2021-06-01T07:17:40.000Z</time>
      </trkpt>
      <trkpt lat="44.13958" lon="5.89114">
        <ele>671</ele>
        <time>2021-06-01T07:17:41.000Z</time>
      </trkpt>
      <trkpt lat="44.13957" lon="5.89114">
        <ele>671</ele>
        <time>2021-06-01T07:17:42.000Z</time>
      </trkpt>
      <trkpt lat="44.13956" lon="5.89114">
        <ele>671</ele>
        <time>2021-06-01T07:17:43.000Z</time>
      </trkpt>
      <trkpt lat="44.13955" lon="5.89114">
        <ele>671</ele>
        <time>2021-06-01T07:17:44.000Z</time>
      </trkpt>
      <trkpt lat="44.13954" lon="5.89113">
        <ele>671</ele>
        <time>2021-06-01T07:17:45.000Z</time>
      </trkpt>
      <trkpt lat="44.13954" lon="5.89113">
        <ele>671</ele>
        <time>2021-06-01T07:17:46.000Z</time>
      </trkpt>
      <trkpt lat="44.13953" lon="5.89113">
        <ele>671</ele>
        <time>2021-06-01T07:17:47.000Z</time>
      </trkpt>
      <trkpt lat="44.13952" lon="5.89113">
        <ele>671</ele>
        <time>2021-06-01T07:17:48.000Z</time>
      </trkpt>
      <trkpt lat="44.13951" lon="5.89113">
        <ele>671</ele>
        <time>2021-06-01T07:17:49.000Z</time>
      </trkpt>
      <trkpt lat="44.13951" lon="5.89113">
        <ele>671</ele>
        <time>2021-06-01T07:17:50.000Z</time>
      </trkpt>
      <trkpt lat="44.13949" lon="5.89114">
        <ele>671</ele>
        <time>2021-06-01T07:17:51.000Z</time>
      </trkpt>
      <trkpt lat="44.13949" lon="5.89114">
        <ele>671</ele>
        <time>2021-06-01T07:17:52.000Z</time>
      </trkpt>
      <trkpt lat="44.13948" lon="5.89114">
        <ele>671</ele>
        <time>2021-06-01T07:17:53.000Z</time>
      </trkpt>
      <trkpt lat="44.13947" lon="5.89114">
        <ele>671</ele>
        <time>2021-06-01T07:17:54.000Z</time>
      </trkpt>
      <trkpt lat="44.13947" lon="5.89114">
        <ele>671</ele>
        <time>2021-06-01T07:17:55.000Z</time>
      </trkpt>
      <trkpt lat="44.13946" lon="5.89114">
        <ele>671</ele>
        <time>2021-06-01T07:17:56.000Z</time>
      </trkpt>
      <trkpt lat="44.13946" lon="5.89114">
        <ele>671</ele>
        <time>2021-06-01T07:17:57.000Z</time>
      </trkpt>
      <trkpt lat="44.13946" lon="5.89114">
        <ele>671</ele>
        <time>2021-06-01T07:17:58.000Z</time>
      </trkpt>
      <trkpt lat="44.13946" lon="5.89114">
        <ele>671</ele>
        <time>2021-06-01T07:17:59.000Z</time>
      </trkpt>
      <trkpt lat="44.13946" lon="5.89114">
        <ele>671</ele>
        <time>2021-06-01T07:18:00.000Z</time>
      </trkpt>
      <trkpt lat="44.13945" lon="5.89114">
        <ele>672</ele>
        <time>2021-06-01T07:18:01.000Z</time>
      </trkpt>
      <trkpt lat="44.13945" lon="5.89115">
        <ele>672</ele>
        <time>2021-06-01T07:18:02.000Z</time>
      </trkpt>
      <trkpt lat="44.13945" lon="5.89115">
        <ele>672</ele>
        <time>2021-06-01T07:18:03.000Z</time>
      </trkpt>
      <trkpt lat="44.13945" lon="5.89115">
        <ele>672</ele>
        <time>2021-06-01T07:18:04.000Z</time>
      </trkpt>
      <trkpt lat="44.13945" lon="5.89114">
        <ele>672</ele>
        <time>2021-06-01T07:18:05.000Z</time>
      </trkpt>
      <trkpt lat="44.13945" lon="5.89115">
        <ele>672</ele>
        <time>2021-06-01T07:18:06.000Z</time>
      </trkpt>
      <trkpt lat="44.13945" lon="5.89115">
        <ele>672</ele>
        <time>2021-06-01T07:18:07.000Z</time>
      </trkpt>
      <trkpt lat="44.13945" lon="5.89114">
        <ele>672</ele>
        <time>2021-06-01T07:18:08.000Z</time>
      </trkpt>
      <trkpt lat="44.13945" lon="5.89115">
        <ele>672</ele>
        <time>2021-06-01T07:18:09.000Z</time>
      </trkpt>
      <trkpt lat="44.13944" lon="5.89115">
        <ele>672</ele>
        <time>2021-06-01T07:18:10.000Z</time>
      </trkpt>
      <trkpt lat="44.13944" lon="5.89115">
        <ele>672</ele>
        <time>2021-06-01T07:18:11.000Z</time>
      </trkpt>
      <trkpt lat="44.13944" lon="5.89115">
        <ele>672</ele>
        <time>2021-06-01T07:18:12.000Z</time>
      </trkpt>
      <trkpt lat="44.13944" lon="5.89115">
        <ele>673</ele>
        <time>2021-06-01T07:18:13.000Z</time>
      </trkpt>
      <trkpt lat="44.13944" lon="5.89115">
        <ele>673</ele>
        <time>2021-06-01T07:18:14.000Z</time>
      </trkpt>
      <trkpt lat="44.13944" lon="5.89115">
        <ele>673</ele>
        <time>2021-06-01T07:18:15.000Z</time>
      </trkpt>
      <trkpt lat="44.13944" lon="5.89115">
        <ele>673</ele>
        <time>2021-06-01T07:18:16.000Z</time>
      </trkpt>
      <trkpt lat="44.13944" lon="5.89114">
        <ele>673</ele>
        <time>2021-06-01T07:18:17.000Z</time>
      </trkpt>
      <trkpt lat="44.13944" lon="5.89114">
        <ele>673</ele>
        <time>2021-06-01T07:18:18.000Z</time>
      </trkpt>
      <trkpt lat="44.13944" lon="5.89113">
        <ele>673</ele>
        <time>2021-06-01T07:18:19.000Z</time>
      </trkpt>
      <trkpt lat="44.13943" lon="5.89112">
        <ele>673</ele>
        <time>2021-06-01T07:18:20.000Z</time>
      </trkpt>
      <trkpt lat="44.13943" lon="5.89112">
        <ele>673</ele>
        <time>2021-06-01T07:18:21.000Z</time>
      </trkpt>
      <trkpt lat="44.13942" lon="5.89111">
        <ele>673</ele>
        <time>2021-06-01T07:18:22.000Z</time>
      </trkpt>
      <trkpt lat="44.13942" lon="5.8911">
        <ele>673</ele>
        <time>2021-06-01T07:18:23.000Z</time>
      </trkpt>
      <trkpt lat="44.13942" lon="5.89109">
        <ele>673</ele>
        <time>2021-06-01T07:18:24.000Z</time>
      </trkpt>
      <trkpt lat="44.13941" lon="5.89108">
        <ele>673</ele>
        <time>2021-06-01T07:18:25.000Z</time>
      </trkpt>
      <trkpt lat="44.13941" lon="5.89107">
        <ele>673</ele>
        <time>2021-06-01T07:18:26.000Z</time>
      </trkpt>
      <trkpt lat="44.13941" lon="5.89106">
        <ele>673</ele>
        <time>2021-06-01T07:18:27.000Z</time>
      </trkpt>
      <trkpt lat="44.13941" lon="5.89105">
        <ele>673</ele>
        <time>2021-06-01T07:18:28.000Z</time>
      </trkpt>
      <trkpt lat="44.13941" lon="5.89104">
        <ele>673</ele>
        <time>2021-06-01T07:18:29.000Z</time>
      </trkpt>
      <trkpt lat="44.13941" lon="5.89102">
        <ele>673</ele>
        <time>2021-06-01T07:18:30.000Z</time>
      </trkpt>
      <trkpt lat="44.13941" lon="5.89101">
        <ele>673</ele>
        <time>2021-06-01T07:18:31.000Z</time>
      </trkpt>
      <trkpt lat="44.13941" lon="5.89099">
        <ele>673</ele>
        <time>2021-06-01T07:18:32.000Z</time>
      </trkpt>
      <trkpt lat="44.1394" lon="5.89098">
        <ele>673</ele>
        <time>2021-06-01T07:18:33.000Z</time>
      </trkpt>
      <trkpt lat="44.1394" lon="5.89096">
        <ele>673</ele>
        <time>2021-06-01T07:18:34.000Z</time>
      </trkpt>
      <trkpt lat="44.13939" lon="5.89095">
        <ele>673</ele>
        <time>2021-06-01T07:18:35.000Z</time>
      </trkpt>
      <trkpt lat="44.13939" lon="5.89094">
        <ele>673</ele>
        <time>2021-06-01T07:18:36.000Z</time>
      </trkpt>
      <trkpt lat="44.13938" lon="5.89093">
        <ele>673</ele>
        <time>2021-06-01T07:18:37.000Z</time>
      </trkpt>
      <trkpt lat="44.13938" lon="5.89092">
        <ele>673</ele>
        <time>2021-06-01T07:18:38.000Z</time>
      </trkpt>
      <trkpt lat="44.13937" lon="5.89091">
        <ele>673</ele>
        <time>2021-06-01T07:18:39.000Z</time>
      </trkpt>
      <trkpt lat="44.13937" lon="5.8909">
        <ele>673</ele>
        <time>2021-06-01T07:18:40.000Z</time>
      </trkpt>
      <trkpt lat="44.13936" lon="5.89089">
        <ele>673</ele>
        <time>2021-06-01T07:18:41.000Z</time>
      </trkpt>
      <trkpt lat="44.13936" lon="5.89088">
        <ele>674</ele>
        <time>2021-06-01T07:18:42.000Z</time>
      </trkpt>
      <trkpt lat="44.13935" lon="5.89087">
        <ele>674</ele>
        <time>2021-06-01T07:18:43.000Z</time>
      </trkpt>
      <trkpt lat="44.13934" lon="5.89086">
        <ele>674</ele>
        <time>2021-06-01T07:18:44.000Z</time>
      </trkpt>
      <trkpt lat="44.13933" lon="5.89085">
        <ele>674</ele>
        <time>2021-06-01T07:18:45.000Z</time>
      </trkpt>
      <trkpt lat="44.13933" lon="5.89084">
        <ele>674</ele>
        <time>2021-06-01T07:18:46.000Z</time>
      </trkpt>
      <trkpt lat="44.13932" lon="5.89082">
        <ele>674</ele>
        <time>2021-06-01T07:18:47.000Z</time>
      </trkpt>
      <trkpt lat="44.13932" lon="5.8908">
        <ele>674</ele>
        <time>2021-06-01T07:18:48.000Z</time>
      </trkpt>
      <trkpt lat="44.13932" lon="5.89078">
        <ele>674</ele>
        <time>2021-06-01T07:18:49.000Z</time>
      </trkpt>
      <trkpt lat="44.13931" lon="5.89077">
        <ele>674</ele>
        <time>2021-06-01T07:18:50.000Z</time>
      </trkpt>
      <trkpt lat="44.13931" lon="5.89075">
        <ele>674</ele>
        <time>2021-06-01T07:18:51.000Z</time>
      </trkpt>
      <trkpt lat="44.13931" lon="5.89073">
        <ele>674</ele>
        <time>2021-06-01T07:18:52.000Z</time>
      </trkpt>
      <trkpt lat="44.13931" lon="5.89072">
        <ele>674</ele>
        <time>2021-06-01T07:18:53.000Z</time>
      </trkpt>
      <trkpt lat="44.1393" lon="5.8907">
        <ele>674</ele>
        <time>2021-06-01T07:18:54.000Z</time>
      </trkpt>
      <trkpt lat="44.1393" lon="5.89069">
        <ele>674</ele>
        <time>2021-06-01T07:18:55.000Z</time>
      </trkpt>
      <trkpt lat="44.13929" lon="5.89067">
        <ele>674</ele>
        <time>2021-06-01T07:18:56.000Z</time>
      </trkpt>
      <trkpt lat="44.13929" lon="5.89066">
        <ele>674</ele>
        <time>2021-06-01T07:18:57.000Z</time>
      </trkpt>
      <trkpt lat="44.13928" lon="5.89064">
        <ele>674</ele>
        <time>2021-06-01T07:18:58.000Z</time>
      </trkpt>
      <trkpt lat="44.13928" lon="5.89063">
        <ele>674</ele>
        <time>2021-06-01T07:18:59.000Z</time>
      </trkpt>
      <trkpt lat="44.13927" lon="5.89061">
        <ele>674</ele>
        <time>2021-06-01T07:19:00.000Z</time>
      </trkpt>
      <trkpt lat="44.13927" lon="5.8906">
        <ele>674</ele>
        <time>2021-06-01T07:19:01.000Z</time>
      </trkpt>
      <trkpt lat="44.13927" lon="5.89059">
        <ele>674</ele>
        <time>2021-06-01T07:19:02.000Z</time>
      </trkpt>
      <trkpt lat="44.13926" lon="5.89057">
        <ele>674</ele>
        <time>2021-06-01T07:19:03.000Z</time>
      </trkpt>
      <trkpt lat="44.13926" lon="5.89056">
        <ele>674</ele>
        <time>2021-06-01T07:19:04.000Z</time>
      </trkpt>
      <trkpt lat="44.13926" lon="5.89054">
        <ele>674</ele>
        <time>2021-06-01T07:19:05.000Z</time>
      </trkpt>
      <trkpt lat="44.13926" lon="5.89053">
        <ele>674</ele>
        <time>2021-06-01T07:19:06.000Z</time>
      </trkpt>
      <trkpt lat="44.13925" lon="5.89051">
        <ele>674</ele>
        <time>2021-06-01T07:19:07.000Z</time>
      </trkpt>
      <trkpt lat="44.13925" lon="5.89049">
        <ele>674</ele>
        <time>2021-06-01T07:19:08.000Z</time>
      </trkpt>
      <trkpt lat="44.13925" lon="5.89048">
        <ele>675</ele>
        <time>2021-06-01T07:19:09.000Z</time>
      </trkpt>
      <trkpt lat="44.13925" lon="5.89046">
        <ele>675</ele>
        <time>2021-06-01T07:19:10.000Z</time>
      </trkpt>
      <trkpt lat="44.13925" lon="5.89044">
        <ele>675</ele>
        <time>2021-06-01T07:19:11.000Z</time>
      </trkpt>
      <trkpt lat="44.13925" lon="5.89042">
        <ele>675</ele>
        <time>2021-06-01T07:19:12.000Z</time>
      </trkpt>
      <trkpt lat="44.13925" lon="5.8904">
        <ele>675</ele>
        <time>2021-06-01T07:19:13.000Z</time>
      </trkpt>
      <trkpt lat="44.13925" lon="5.89038">
        <ele>675</ele>
        <time>2021-06-01T07:19:14.000Z</time>
      </trkpt>
      <trkpt lat="44.13924" lon="5.89037">
        <ele>675</ele>
        <time>2021-06-01T07:19:15.000Z</time>
      </trkpt>
      <trkpt lat="44.13924" lon="5.89036">
        <ele>675</ele>
        <time>2021-06-01T07:19:16.000Z</time>
      </trkpt>
      <trkpt lat="44.13924" lon="5.89035">
        <ele>675</ele>
        <time>2021-06-01T07:19:17.000Z</time>
      </trkpt>
      <trkpt lat="44.13923" lon="5.89034">
        <ele>675</ele>
        <time>2021-06-01T07:19:18.000Z</time>
      </trkpt>
      <trkpt lat="44.13923" lon="5.89033">
        <ele>675</ele>
        <time>2021-06-01T07:19:19.000Z</time>
      </trkpt>
      <trkpt lat="44.13922" lon="5.89032">
        <ele>675</ele>
        <time>2021-06-01T07:19:20.000Z</time>
      </trkpt>
      <trkpt lat="44.13922" lon="5.89031">
        <ele>675</ele>
        <time>2021-06-01T07:19:21.000Z</time>
      </trkpt>
      <trkpt lat="44.13921" lon="5.8903">
        <ele>675</ele>
        <time>2021-06-01T07:19:22.000Z</time>
      </trkpt>
      <trkpt lat="44.13921" lon="5.89029">
        <ele>675</ele>
        <time>2021-06-01T07:19:23.000Z</time>
      </trkpt>
      <trkpt lat="44.1392" lon="5.89027">
        <ele>675</ele>
        <time>2021-06-01T07:19:24.000Z</time>
      </trkpt>
      <trkpt lat="44.1392" lon="5.89026">
        <ele>675</ele>
        <time>2021-06-01T07:19:25.000Z</time>
      </trkpt>
      <trkpt lat="44.1392" lon="5.89025">
        <ele>675</ele>
        <time>2021-06-01T07:19:26.000Z</time>
      </trkpt>
      <trkpt lat="44.13919" lon="5.89023">
        <ele>675</ele>
        <time>2021-06-01T07:19:27.000Z</time>
      </trkpt>
      <trkpt lat="44.13919" lon="5.89022">
        <ele>675</ele>
        <time>2021-06-01T07:19:28.000Z</time>
      </trkpt>
      <trkpt lat="44.13919" lon="5.89021">
        <ele>674</ele>
        <time>2021-06-01T07:19:29.000Z</time>
      </trkpt>
      <trkpt lat="44.13918" lon="5.89019">
        <ele>674</ele>
        <time>2021-06-01T07:19:30.000Z</time>
      </trkpt>
      <trkpt lat="44.13918" lon="5.89018">
        <ele>674</ele>
        <time>2021-06-01T07:19:31.000Z</time>
      </trkpt>
      <trkpt lat="44.13918" lon="5.89016">
        <ele>674</ele>
        <time>2021-06-01T07:19:32.000Z</time>
      </trkpt>
      <trkpt lat="44.13918" lon="5.89014">
        <ele>674</ele>
        <time>2021-06-01T07:19:33.000Z</time>
      </trkpt>
      <trkpt lat="44.13917" lon="5.89013">
        <ele>674</ele>
        <time>2021-06-01T07:19:34.000Z</time>
      </trkpt>
      <trkpt lat="44.13917" lon="5.89011">
        <ele>674</ele>
        <time>2021-06-01T07:19:35.000Z</time>
      </trkpt>
      <trkpt lat="44.13917" lon="5.89009">
        <ele>674</ele>
        <time>2021-06-01T07:19:36.000Z</time>
      </trkpt>
      <trkpt lat="44.13916" lon="5.89008">
        <ele>674</ele>
        <time>2021-06-01T07:19:37.000Z</time>
      </trkpt>
      <trkpt lat="44.13916" lon="5.89006">
        <ele>674</ele>
        <time>2021-06-01T07:19:38.000Z</time>
      </trkpt>
      <trkpt lat="44.13915" lon="5.89004">
        <ele>674</ele>
        <time>2021-06-01T07:19:39.000Z</time>
      </trkpt>
      <trkpt lat="44.13914" lon="5.89003">
        <ele>674</ele>
        <time>2021-06-01T07:19:40.000Z</time>
      </trkpt>
      <trkpt lat="44.13914" lon="5.89002">
        <ele>674</ele>
        <time>2021-06-01T07:19:41.000Z</time>
      </trkpt>
      <trkpt lat="44.13913" lon="5.89001">
        <ele>674</ele>
        <time>2021-06-01T07:19:42.000Z</time>
      </trkpt>
      <trkpt lat="44.13913" lon="5.88999">
        <ele>674</ele>
        <time>2021-06-01T07:19:43.000Z</time>
      </trkpt>
      <trkpt lat="44.13912" lon="5.88998">
        <ele>674</ele>
        <time>2021-06-01T07:19:44.000Z</time>
      </trkpt>
      <trkpt lat="44.13911" lon="5.88997">
        <ele>674</ele>
        <time>2021-06-01T07:19:45.000Z</time>
      </trkpt>
      <trkpt lat="44.13911" lon="5.88995">
        <ele>674</ele>
        <time>2021-06-01T07:19:46.000Z</time>
      </trkpt>
      <trkpt lat="44.1391" lon="5.88993">
        <ele>674</ele>
        <time>2021-06-01T07:19:47.000Z</time>
      </trkpt>
      <trkpt lat="44.1391" lon="5.88991">
        <ele>674</ele>
        <time>2021-06-01T07:19:48.000Z</time>
      </trkpt>
      <trkpt lat="44.1391" lon="5.8899">
        <ele>674</ele>
        <time>2021-06-01T07:19:49.000Z</time>
      </trkpt>
      <trkpt lat="44.13909" lon="5.88988">
        <ele>674</ele>
        <time>2021-06-01T07:19:50.000Z</time>
      </trkpt>
      <trkpt lat="44.13909" lon="5.88986">
        <ele>674</ele>
        <time>2021-06-01T07:19:51.000Z</time>
      </trkpt>
      <trkpt lat="44.13908" lon="5.88985">
        <ele>674</ele>
        <time>2021-06-01T07:19:52.000Z</time>
      </trkpt>
      <trkpt lat="44.13908" lon="5.88984">
        <ele>674</ele>
        <time>2021-06-01T07:19:53.000Z</time>
      </trkpt>
      <trkpt lat="44.13908" lon="5.88982">
        <ele>674</ele>
        <time>2021-06-01T07:19:54.000Z</time>
      </trkpt>
      <trkpt lat="44.13907" lon="5.88981">
        <ele>674</ele>
        <time>2021-06-01T07:19:55.000Z</time>
      </trkpt>
      <trkpt lat="44.13907" lon="5.8898">
        <ele>674</ele>
        <time>2021-06-01T07:19:56.000Z</time>
      </trkpt>
      <trkpt lat="44.13906" lon="5.88979">
        <ele>674</ele>
        <time>2021-06-01T07:19:57.000Z</time>
      </trkpt>
      <trkpt lat="44.13906" lon="5.88978">
        <ele>674</ele>
        <time>2021-06-01T07:19:58.000Z</time>
      </trkpt>
      <trkpt lat="44.13906" lon="5.88977">
        <ele>674</ele>
        <time>2021-06-01T07:19:59.000Z</time>
      </trkpt>
      <trkpt lat="44.13906" lon="5.88976">
        <ele>674</ele>
        <time>2021-06-01T07:20:00.000Z</time>
      </trkpt>
      <trkpt lat="44.13905" lon="5.88975">
        <ele>674</ele>
        <time>2021-06-01T07:20:01.000Z</time>
      </trkpt>
      <trkpt lat="44.13905" lon="5.88974">
        <ele>674</ele>
        <time>2021-06-01T07:20:02.000Z</time>
      </trkpt>
      <trkpt lat="44.13905" lon="5.88973">
        <ele>674</ele>
        <time>2021-06-01T07:20:03.000Z</time>
      </trkpt>
      <trkpt lat="44.13905" lon="5.88973">
        <ele>675</ele>
        <time>2021-06-01T07:20:04.000Z</time>
      </trkpt>
      <trkpt lat="44.13905" lon="5.88972">
        <ele>675</ele>
        <time>2021-06-01T07:20:05.000Z</time>
      </trkpt>
      <trkpt lat="44.13905" lon="5.88971">
        <ele>675</ele>
        <time>2021-06-01T07:20:06.000Z</time>
      </trkpt>
      <trkpt lat="44.13905" lon="5.8897">
        <ele>675</ele>
        <time>2021-06-01T07:20:07.000Z</time>
      </trkpt>
      <trkpt lat="44.13905" lon="5.88969">
        <ele>675</ele>
        <time>2021-06-01T07:20:08.000Z</time>
      </trkpt>
      <trkpt lat="44.13905" lon="5.88968">
        <ele>675</ele>
        <time>2021-06-01T07:20:09.000Z</time>
      </trkpt>
      <trkpt lat="44.13904" lon="5.88967">
        <ele>675</ele>
        <time>2021-06-01T07:20:10.000Z</time>
      </trkpt>
      <trkpt lat="44.13904" lon="5.88965">
        <ele>675</ele>
        <time>2021-06-01T07:20:11.000Z</time>
      </trkpt>
      <trkpt lat="44.13904" lon="5.88964">
        <ele>675</ele>
        <time>2021-06-01T07:20:12.000Z</time>
      </trkpt>
      <trkpt lat="44.13904" lon="5.88963">
        <ele>675</ele>
        <time>2021-06-01T07:20:13.000Z</time>
      </trkpt>
      <trkpt lat="44.13904" lon="5.88962">
        <ele>675</ele>
        <time>2021-06-01T07:20:14.000Z</time>
      </trkpt>
      <trkpt lat="44.13904" lon="5.88961">
        <ele>675</ele>
        <time>2021-06-01T07:20:15.000Z</time>
      </trkpt>
      <trkpt lat="44.13904" lon="5.8896">
        <ele>675</ele>
        <time>2021-06-01T07:20:16.000Z</time>
      </trkpt>
      <trkpt lat="44.13904" lon="5.88959">
        <ele>675</ele>
        <time>2021-06-01T07:20:17.000Z</time>
      </trkpt>
      <trkpt lat="44.13903" lon="5.88957">
        <ele>675</ele>
        <time>2021-06-01T07:20:18.000Z</time>
      </trkpt>
      <trkpt lat="44.13903" lon="5.88956">
        <ele>675</ele>
        <time>2021-06-01T07:20:19.000Z</time>
      </trkpt>
      <trkpt lat="44.13902" lon="5.88955">
        <ele>675</ele>
        <time>2021-06-01T07:20:20.000Z</time>
      </trkpt>
      <trkpt lat="44.13902" lon="5.88954">
        <ele>675</ele>
        <time>2021-06-01T07:20:21.000Z</time>
      </trkpt>
      <trkpt lat="44.13902" lon="5.88953">
        <ele>675</ele>
        <time>2021-06-01T07:20:22.000Z</time>
      </trkpt>
      <trkpt lat="44.13901" lon="5.88951">
        <ele>675</ele>
        <time>2021-06-01T07:20:23.000Z</time>
      </trkpt>
      <trkpt lat="44.13901" lon="5.8895">
        <ele>676</ele>
        <time>2021-06-01T07:20:24.000Z</time>
      </trkpt>
      <trkpt lat="44.139" lon="5.88949">
        <ele>676</ele>
        <time>2021-06-01T07:20:25.000Z</time>
      </trkpt>
      <trkpt lat="44.139" lon="5.88947">
        <ele>676</ele>
        <time>2021-06-01T07:20:26.000Z</time>
      </trkpt>
      <trkpt lat="44.139" lon="5.88946">
        <ele>676</ele>
        <time>2021-06-01T07:20:27.000Z</time>
      </trkpt>
      <trkpt lat="44.13899" lon="5.88945">
        <ele>676</ele>
        <time>2021-06-01T07:20:28.000Z</time>
      </trkpt>
      <trkpt lat="44.13899" lon="5.88943">
        <ele>676</ele>
        <time>2021-06-01T07:20:29.000Z</time>
      </trkpt>
      <trkpt lat="44.13899" lon="5.88942">
        <ele>676</ele>
        <time>2021-06-01T07:20:30.000Z</time>
      </trkpt>
      <trkpt lat="44.13899" lon="5.88941">
        <ele>677</ele>
        <time>2021-06-01T07:20:31.000Z</time>
      </trkpt>
      <trkpt lat="44.13899" lon="5.8894">
        <ele>677</ele>
        <time>2021-06-01T07:20:32.000Z</time>
      </trkpt>
      <trkpt lat="44.13899" lon="5.88939">
        <ele>677</ele>
        <time>2021-06-01T07:20:33.000Z</time>
      </trkpt>
      <trkpt lat="44.13899" lon="5.88937">
        <ele>677</ele>
        <time>2021-06-01T07:20:34.000Z</time>
      </trkpt>
      <trkpt lat="44.13898" lon="5.88936">
        <ele>677</ele>
        <time>2021-06-01T07:20:35.000Z</time>
      </trkpt>
      <trkpt lat="44.13898" lon="5.88935">
        <ele>678</ele>
        <time>2021-06-01T07:20:36.000Z</time>
      </trkpt>
      <trkpt lat="44.13898" lon="5.88933">
        <ele>678</ele>
        <time>2021-06-01T07:20:37.000Z</time>
      </trkpt>
      <trkpt lat="44.13898" lon="5.88931">
        <ele>678</ele>
        <time>2021-06-01T07:20:38.000Z</time>
      </trkpt>
      <trkpt lat="44.13897" lon="5.8893">
        <ele>678</ele>
        <time>2021-06-01T07:20:39.000Z</time>
      </trkpt>
      <trkpt lat="44.13897" lon="5.88929">
        <ele>678</ele>
        <time>2021-06-01T07:20:40.000Z</time>
      </trkpt>
      <trkpt lat="44.13897" lon="5.88928">
        <ele>679</ele>
        <time>2021-06-01T07:20:41.000Z</time>
      </trkpt>
      <trkpt lat="44.13897" lon="5.88927">
        <ele>679</ele>
        <time>2021-06-01T07:20:42.000Z</time>
      </trkpt>
      <trkpt lat="44.13897" lon="5.88926">
        <ele>679</ele>
        <time>2021-06-01T07:20:43.000Z</time>
      </trkpt>
      <trkpt lat="44.13897" lon="5.88925">
        <ele>679</ele>
        <time>2021-06-01T07:20:44.000Z</time>
      </trkpt>
      <trkpt lat="44.13897" lon="5.88924">
        <ele>679</ele>
        <time>2021-06-01T07:20:45.000Z</time>
      </trkpt>
      <trkpt lat="44.13897" lon="5.88923">
        <ele>680</ele>
        <time>2021-06-01T07:20:46.000Z</time>
      </trkpt>
      <trkpt lat="44.13896" lon="5.88922">
        <ele>680</ele>
        <time>2021-06-01T07:20:47.000Z</time>
      </trkpt>
      <trkpt lat="44.13896" lon="5.88921">
        <ele>680</ele>
        <time>2021-06-01T07:20:48.000Z</time>
      </trkpt>
      <trkpt lat="44.13896" lon="5.88919">
        <ele>680</ele>
        <time>2021-06-01T07:20:49.000Z</time>
      </trkpt>
      <trkpt lat="44.13895" lon="5.88918">
        <ele>680</ele>
        <time>2021-06-01T07:20:50.000Z</time>
      </trkpt>
      <trkpt lat="44.13895" lon="5.88916">
        <ele>680</ele>
        <time>2021-06-01T07:20:51.000Z</time>
      </trkpt>
      <trkpt lat="44.13894" lon="5.88915">
        <ele>680</ele>
        <time>2021-06-01T07:20:52.000Z</time>
      </trkpt>
      <trkpt lat="44.13894" lon="5.88913">
        <ele>680</ele>
        <time>2021-06-01T07:20:53.000Z</time>
      </trkpt>
      <trkpt lat="44.13893" lon="5.88912">
        <ele>680</ele>
        <time>2021-06-01T07:20:54.000Z</time>
      </trkpt>
      <trkpt lat="44.13892" lon="5.88911">
        <ele>680</ele>
        <time>2021-06-01T07:20:55.000Z</time>
      </trkpt>
      <trkpt lat="44.13892" lon="5.8891">
        <ele>680</ele>
        <time>2021-06-01T07:20:56.000Z</time>
      </trkpt>
      <trkpt lat="44.13891" lon="5.8891">
        <ele>680</ele>
        <time>2021-06-01T07:20:57.000Z</time>
      </trkpt>
      <trkpt lat="44.13891" lon="5.88909">
        <ele>680</ele>
        <time>2021-06-01T07:20:58.000Z</time>
      </trkpt>
      <trkpt lat="44.1389" lon="5.88908">
        <ele>680</ele>
        <time>2021-06-01T07:20:59.000Z</time>
      </trkpt>
      <trkpt lat="44.1389" lon="5.88906">
        <ele>680</ele>
        <time>2021-06-01T07:21:00.000Z</time>
      </trkpt>
      <trkpt lat="44.13889" lon="5.88905">
        <ele>681</ele>
        <time>2021-06-01T07:21:01.000Z</time>
      </trkpt>
      <trkpt lat="44.13889" lon="5.88903">
        <ele>681</ele>
        <time>2021-06-01T07:21:02.000Z</time>
      </trkpt>
      <trkpt lat="44.13889" lon="5.88902">
        <ele>681</ele>
        <time>2021-06-01T07:21:03.000Z</time>
      </trkpt>
      <trkpt lat="44.13888" lon="5.889">
        <ele>681</ele>
        <time>2021-06-01T07:21:04.000Z</time>
      </trkpt>
      <trkpt lat="44.13887" lon="5.88899">
        <ele>681</ele>
        <time>2021-06-01T07:21:05.000Z</time>
      </trkpt>
      <trkpt lat="44.13887" lon="5.88897">
        <ele>681</ele>
        <time>2021-06-01T07:21:06.000Z</time>
      </trkpt>
      <trkpt lat="44.13886" lon="5.88896">
        <ele>681</ele>
        <time>2021-06-01T07:21:07.000Z</time>
      </trkpt>
      <trkpt lat="44.13885" lon="5.88895">
        <ele>681</ele>
        <time>2021-06-01T07:21:08.000Z</time>
      </trkpt>
      <trkpt lat="44.13885" lon="5.88893">
        <ele>681</ele>
        <time>2021-06-01T07:21:09.000Z</time>
      </trkpt>
      <trkpt lat="44.13884" lon="5.88892">
        <ele>681</ele>
        <time>2021-06-01T07:21:10.000Z</time>
      </trkpt>
      <trkpt lat="44.13883" lon="5.88891">
        <ele>681</ele>
        <time>2021-06-01T07:21:11.000Z</time>
      </trkpt>
      <trkpt lat="44.13883" lon="5.8889">
        <ele>681</ele>
        <time>2021-06-01T07:21:12.000Z</time>
      </trkpt>
      <trkpt lat="44.13882" lon="5.88888">
        <ele>682</ele>
        <time>2021-06-01T07:21:13.000Z</time>
      </trkpt>
      <trkpt lat="44.13882" lon="5.88887">
        <ele>682</ele>
        <time>2021-06-01T07:21:14.000Z</time>
      </trkpt>
      <trkpt lat="44.13881" lon="5.88886">
        <ele>682</ele>
        <time>2021-06-01T07:21:15.000Z</time>
      </trkpt>
      <trkpt lat="44.13881" lon="5.88884">
        <ele>682</ele>
        <time>2021-06-01T07:21:16.000Z</time>
      </trkpt>
      <trkpt lat="44.1388" lon="5.88883">
        <ele>682</ele>
        <time>2021-06-01T07:21:17.000Z</time>
      </trkpt>
      <trkpt lat="44.1388" lon="5.88882">
        <ele>682</ele>
        <time>2021-06-01T07:21:18.000Z</time>
      </trkpt>
      <trkpt lat="44.13879" lon="5.88881">
        <ele>683</ele>
        <time>2021-06-01T07:21:19.000Z</time>
      </trkpt>
      <trkpt lat="44.13879" lon="5.8888">
        <ele>683</ele>
        <time>2021-06-01T07:21:20.000Z</time>
      </trkpt>
      <trkpt lat="44.13878" lon="5.8888">
        <ele>683</ele>
        <time>2021-06-01T07:21:21.000Z</time>
      </trkpt>
      <trkpt lat="44.13878" lon="5.88879">
        <ele>683</ele>
        <time>2021-06-01T07:21:22.000Z</time>
      </trkpt>
      <trkpt lat="44.13877" lon="5.88878">
        <ele>683</ele>
        <time>2021-06-01T07:21:23.000Z</time>
      </trkpt>
      <trkpt lat="44.13877" lon="5.88877">
        <ele>683</ele>
        <time>2021-06-01T07:21:24.000Z</time>
      </trkpt>
      <trkpt lat="44.13876" lon="5.88875">
        <ele>683</ele>
        <time>2021-06-01T07:21:25.000Z</time>
      </trkpt>
      <trkpt lat="44.13876" lon="5.88874">
        <ele>684</ele>
        <time>2021-06-01T07:21:26.000Z</time>
      </trkpt>
      <trkpt lat="44.13876" lon="5.88873">
        <ele>684</ele>
        <time>2021-06-01T07:21:27.000Z</time>
      </trkpt>
      <trkpt lat="44.13876" lon="5.88872">
        <ele>684</ele>
        <time>2021-06-01T07:21:28.000Z</time>
      </trkpt>
      <trkpt lat="44.13875" lon="5.88871">
        <ele>684</ele>
        <time>2021-06-01T07:21:29.000Z</time>
      </trkpt>
      <trkpt lat="44.13875" lon="5.88871">
        <ele>684</ele>
        <time>2021-06-01T07:21:30.000Z</time>
      </trkpt>
      <trkpt lat="44.13875" lon="5.8887">
        <ele>684</ele>
        <time>2021-06-01T07:21:31.000Z</time>
      </trkpt>
      <trkpt lat="44.13874" lon="5.88869">
        <ele>684</ele>
        <time>2021-06-01T07:21:32.000Z</time>
      </trkpt>
      <trkpt lat="44.13873" lon="5.88868">
        <ele>684</ele>
        <time>2021-06-01T07:21:33.000Z</time>
      </trkpt>
      <trkpt lat="44.13873" lon="5.88867">
        <ele>684</ele>
        <time>2021-06-01T07:21:34.000Z</time>
      </trkpt>
      <trkpt lat="44.13872" lon="5.88867">
        <ele>684</ele>
        <time>2021-06-01T07:21:35.000Z</time>
      </trkpt>
      <trkpt lat="44.13871" lon="5.88866">
        <ele>684</ele>
        <time>2021-06-01T07:21:36.000Z</time>
      </trkpt>
      <trkpt lat="44.13871" lon="5.88866">
        <ele>684</ele>
        <time>2021-06-01T07:21:37.000Z</time>
      </trkpt>
      <trkpt lat="44.1387" lon="5.88865">
        <ele>684</ele>
        <time>2021-06-01T07:21:38.000Z</time>
      </trkpt>
      <trkpt lat="44.13869" lon="5.88865">
        <ele>685</ele>
        <time>2021-06-01T07:21:39.000Z</time>
      </trkpt>
      <trkpt lat="44.13869" lon="5.88864">
        <ele>685</ele>
        <time>2021-06-01T07:21:40.000Z</time>
      </trkpt>
      <trkpt lat="44.13868" lon="5.88863">
        <ele>685</ele>
        <time>2021-06-01T07:21:41.000Z</time>
      </trkpt>
      <trkpt lat="44.13867" lon="5.88862">
        <ele>685</ele>
        <time>2021-06-01T07:21:42.000Z</time>
      </trkpt>
      <trkpt lat="44.13867" lon="5.88862">
        <ele>685</ele>
        <time>2021-06-01T07:21:43.000Z</time>
      </trkpt>
      <trkpt lat="44.13866" lon="5.88861">
        <ele>685</ele>
        <time>2021-06-01T07:21:44.000Z</time>
      </trkpt>
      <trkpt lat="44.13865" lon="5.8886">
        <ele>685</ele>
        <time>2021-06-01T07:21:45.000Z</time>
      </trkpt>
      <trkpt lat="44.13865" lon="5.88859">
        <ele>685</ele>
        <time>2021-06-01T07:21:46.000Z</time>
      </trkpt>
      <trkpt lat="44.13864" lon="5.88858">
        <ele>685</ele>
        <time>2021-06-01T07:21:47.000Z</time>
      </trkpt>
      <trkpt lat="44.13864" lon="5.88857">
        <ele>685</ele>
        <time>2021-06-01T07:21:48.000Z</time>
      </trkpt>
      <trkpt lat="44.13863" lon="5.88857">
        <ele>685</ele>
        <time>2021-06-01T07:21:49.000Z</time>
      </trkpt>
      <trkpt lat="44.13863" lon="5.88856">
        <ele>685</ele>
        <time>2021-06-01T07:21:50.000Z</time>
      </trkpt>
      <trkpt lat="44.13862" lon="5.88855">
        <ele>685</ele>
        <time>2021-06-01T07:21:51.000Z</time>
      </trkpt>
      <trkpt lat="44.13862" lon="5.88854">
        <ele>685</ele>
        <time>2021-06-01T07:21:52.000Z</time>
      </trkpt>
      <trkpt lat="44.13861" lon="5.88853">
        <ele>685</ele>
        <time>2021-06-01T07:21:53.000Z</time>
      </trkpt>
      <trkpt lat="44.1386" lon="5.88853">
        <ele>686</ele>
        <time>2021-06-01T07:21:54.000Z</time>
      </trkpt>
      <trkpt lat="44.1386" lon="5.88852">
        <ele>686</ele>
        <time>2021-06-01T07:21:55.000Z</time>
      </trkpt>
      <trkpt lat="44.13859" lon="5.88852">
        <ele>686</ele>
        <time>2021-06-01T07:21:56.000Z</time>
      </trkpt>
      <trkpt lat="44.13858" lon="5.88851">
        <ele>686</ele>
        <time>2021-06-01T07:21:57.000Z</time>
      </trkpt>
      <trkpt lat="44.13858" lon="5.8885">
        <ele>686</ele>
        <time>2021-06-01T07:21:58.000Z</time>
      </trkpt>
      <trkpt lat="44.13857" lon="5.8885">
        <ele>686</ele>
        <time>2021-06-01T07:21:59.000Z</time>
      </trkpt>
      <trkpt lat="44.13856" lon="5.88849">
        <ele>686</ele>
        <time>2021-06-01T07:22:00.000Z</time>
      </trkpt>
      <trkpt lat="44.13856" lon="5.88848">
        <ele>686</ele>
        <time>2021-06-01T07:22:01.000Z</time>
      </trkpt>
      <trkpt lat="44.13855" lon="5.88847">
        <ele>686</ele>
        <time>2021-06-01T07:22:02.000Z</time>
      </trkpt>
      <trkpt lat="44.13855" lon="5.88846">
        <ele>686</ele>
        <time>2021-06-01T07:22:03.000Z</time>
      </trkpt>
      <trkpt lat="44.13855" lon="5.88845">
        <ele>686</ele>
        <time>2021-06-01T07:22:04.000Z</time>
      </trkpt>
      <trkpt lat="44.13855" lon="5.88844">
        <ele>686</ele>
        <time>2021-06-01T07:22:05.000Z</time>
      </trkpt>
      <trkpt lat="44.13854" lon="5.88843">
        <ele>686</ele>
        <time>2021-06-01T07:22:06.000Z</time>
      </trkpt>
      <trkpt lat="44.13854" lon="5.88842">
        <ele>686</ele>
        <time>2021-06-01T07:22:07.000Z</time>
      </trkpt>
      <trkpt lat="44.13853" lon="5.88841">
        <ele>686</ele>
        <time>2021-06-01T07:22:08.000Z</time>
      </trkpt>
      <trkpt lat="44.13853" lon="5.88839">
        <ele>687</ele>
        <time>2021-06-01T07:22:09.000Z</time>
      </trkpt>
      <trkpt lat="44.13852" lon="5.88838">
        <ele>687</ele>
        <time>2021-06-01T07:22:10.000Z</time>
      </trkpt>
      <trkpt lat="44.13851" lon="5.88838">
        <ele>687</ele>
        <time>2021-06-01T07:22:11.000Z</time>
      </trkpt>
      <trkpt lat="44.13851" lon="5.88837">
        <ele>687</ele>
        <time>2021-06-01T07:22:12.000Z</time>
      </trkpt>
      <trkpt lat="44.1385" lon="5.88836">
        <ele>687</ele>
        <time>2021-06-01T07:22:13.000Z</time>
      </trkpt>
      <trkpt lat="44.13849" lon="5.88836">
        <ele>687</ele>
        <time>2021-06-01T07:22:14.000Z</time>
      </trkpt>
      <trkpt lat="44.13849" lon="5.88835">
        <ele>687</ele>
        <time>2021-06-01T07:22:15.000Z</time>
      </trkpt>
      <trkpt lat="44.13848" lon="5.88834">
        <ele>687</ele>
        <time>2021-06-01T07:22:16.000Z</time>
      </trkpt>
      <trkpt lat="44.13847" lon="5.88832">
        <ele>688</ele>
        <time>2021-06-01T07:22:17.000Z</time>
      </trkpt>
      <trkpt lat="44.13847" lon="5.88831">
        <ele>688</ele>
        <time>2021-06-01T07:22:18.000Z</time>
      </trkpt>
      <trkpt lat="44.13846" lon="5.8883">
        <ele>688</ele>
        <time>2021-06-01T07:22:19.000Z</time>
      </trkpt>
      <trkpt lat="44.13846" lon="5.88829">
        <ele>688</ele>
        <time>2021-06-01T07:22:20.000Z</time>
      </trkpt>
      <trkpt lat="44.13845" lon="5.88828">
        <ele>688</ele>
        <time>2021-06-01T07:22:21.000Z</time>
      </trkpt>
      <trkpt lat="44.13845" lon="5.88826">
        <ele>689</ele>
        <time>2021-06-01T07:22:22.000Z</time>
      </trkpt>
      <trkpt lat="44.13845" lon="5.88825">
        <ele>689</ele>
        <time>2021-06-01T07:22:23.000Z</time>
      </trkpt>
      <trkpt lat="44.13844" lon="5.88824">
        <ele>689</ele>
        <time>2021-06-01T07:22:24.000Z</time>
      </trkpt>
      <trkpt lat="44.13843" lon="5.88823">
        <ele>689</ele>
        <time>2021-06-01T07:22:25.000Z</time>
      </trkpt>
      <trkpt lat="44.13843" lon="5.88822">
        <ele>689</ele>
        <time>2021-06-01T07:22:26.000Z</time>
      </trkpt>
      <trkpt lat="44.13843" lon="5.88821">
        <ele>690</ele>
        <time>2021-06-01T07:22:27.000Z</time>
      </trkpt>
      <trkpt lat="44.13843" lon="5.8882">
        <ele>690</ele>
        <time>2021-06-01T07:22:28.000Z</time>
      </trkpt>
      <trkpt lat="44.13843" lon="5.88819">
        <ele>690</ele>
        <time>2021-06-01T07:22:29.000Z</time>
      </trkpt>
      <trkpt lat="44.13842" lon="5.88819">
        <ele>690</ele>
        <time>2021-06-01T07:22:30.000Z</time>
      </trkpt>
      <trkpt lat="44.13842" lon="5.88818">
        <ele>690</ele>
        <time>2021-06-01T07:22:31.000Z</time>
      </trkpt>
      <trkpt lat="44.13841" lon="5.88817">
        <ele>691</ele>
        <time>2021-06-01T07:22:32.000Z</time>
      </trkpt>
      <trkpt lat="44.13841" lon="5.88816">
        <ele>691</ele>
        <time>2021-06-01T07:22:33.000Z</time>
      </trkpt>
      <trkpt lat="44.1384" lon="5.88815">
        <ele>691</ele>
        <time>2021-06-01T07:22:34.000Z</time>
      </trkpt>
      <trkpt lat="44.1384" lon="5.88814">
        <ele>691</ele>
        <time>2021-06-01T07:22:35.000Z</time>
      </trkpt>
      <trkpt lat="44.1384" lon="5.88813">
        <ele>691</ele>
        <time>2021-06-01T07:22:36.000Z</time>
      </trkpt>
      <trkpt lat="44.13839" lon="5.88812">
        <ele>691</ele>
        <time>2021-06-01T07:22:37.000Z</time>
      </trkpt>
      <trkpt lat="44.13839" lon="5.88812">
        <ele>692</ele>
        <time>2021-06-01T07:22:38.000Z</time>
      </trkpt>
      <trkpt lat="44.13839" lon="5.88811">
        <ele>692</ele>
        <time>2021-06-01T07:22:39.000Z</time>
      </trkpt>
      <trkpt lat="44.13839" lon="5.88811">
        <ele>692</ele>
        <time>2021-06-01T07:22:40.000Z</time>
      </trkpt>
      <trkpt lat="44.13839" lon="5.8881">
        <ele>692</ele>
        <time>2021-06-01T07:22:41.000Z</time>
      </trkpt>
      <trkpt lat="44.13839" lon="5.8881">
        <ele>692</ele>
        <time>2021-06-01T07:22:42.000Z</time>
      </trkpt>
      <trkpt lat="44.13838" lon="5.88809">
        <ele>693</ele>
        <time>2021-06-01T07:22:43.000Z</time>
      </trkpt>
      <trkpt lat="44.13838" lon="5.88809">
        <ele>693</ele>
        <time>2021-06-01T07:22:44.000Z</time>
      </trkpt>
      <trkpt lat="44.13838" lon="5.88808">
        <ele>693</ele>
        <time>2021-06-01T07:22:45.000Z</time>
      </trkpt>
      <trkpt lat="44.13837" lon="5.88808">
        <ele>693</ele>
        <time>2021-06-01T07:22:46.000Z</time>
      </trkpt>
      <trkpt lat="44.13837" lon="5.88807">
        <ele>693</ele>
        <time>2021-06-01T07:22:47.000Z</time>
      </trkpt>
      <trkpt lat="44.13836" lon="5.88807">
        <ele>694</ele>
        <time>2021-06-01T07:22:48.000Z</time>
      </trkpt>
      <trkpt lat="44.13835" lon="5.88806">
        <ele>694</ele>
        <time>2021-06-01T07:22:49.000Z</time>
      </trkpt>
      <trkpt lat="44.13835" lon="5.88805">
        <ele>694</ele>
        <time>2021-06-01T07:22:50.000Z</time>
      </trkpt>
      <trkpt lat="44.13834" lon="5.88804">
        <ele>694</ele>
        <time>2021-06-01T07:22:51.000Z</time>
      </trkpt>
      <trkpt lat="44.13834" lon="5.88803">
        <ele>694</ele>
        <time>2021-06-01T07:22:52.000Z</time>
      </trkpt>
      <trkpt lat="44.13833" lon="5.88802">
        <ele>694</ele>
        <time>2021-06-01T07:22:53.000Z</time>
      </trkpt>
      <trkpt lat="44.13832" lon="5.88802">
        <ele>694</ele>
        <time>2021-06-01T07:22:54.000Z</time>
      </trkpt>
      <trkpt lat="44.13832" lon="5.88801">
        <ele>694</ele>
        <time>2021-06-01T07:22:55.000Z</time>
      </trkpt>
      <trkpt lat="44.13831" lon="5.888">
        <ele>694</ele>
        <time>2021-06-01T07:22:56.000Z</time>
      </trkpt>
      <trkpt lat="44.13831" lon="5.88799">
        <ele>695</ele>
        <time>2021-06-01T07:22:57.000Z</time>
      </trkpt>
      <trkpt lat="44.1383" lon="5.88798">
        <ele>695</ele>
        <time>2021-06-01T07:22:58.000Z</time>
      </trkpt>
      <trkpt lat="44.1383" lon="5.88797">
        <ele>695</ele>
        <time>2021-06-01T07:22:59.000Z</time>
      </trkpt>
      <trkpt lat="44.1383" lon="5.88797">
        <ele>695</ele>
        <time>2021-06-01T07:23:00.000Z</time>
      </trkpt>
      <trkpt lat="44.13829" lon="5.88796">
        <ele>695</ele>
        <time>2021-06-01T07:23:01.000Z</time>
      </trkpt>
      <trkpt lat="44.13829" lon="5.88795">
        <ele>695</ele>
        <time>2021-06-01T07:23:02.000Z</time>
      </trkpt>
      <trkpt lat="44.13829" lon="5.88794">
        <ele>695</ele>
        <time>2021-06-01T07:23:03.000Z</time>
      </trkpt>
      <trkpt lat="44.13828" lon="5.88793">
        <ele>695</ele>
        <time>2021-06-01T07:23:04.000Z</time>
      </trkpt>
      <trkpt lat="44.13828" lon="5.88793">
        <ele>696</ele>
        <time>2021-06-01T07:23:05.000Z</time>
      </trkpt>
      <trkpt lat="44.13828" lon="5.88792">
        <ele>696</ele>
        <time>2021-06-01T07:23:06.000Z</time>
      </trkpt>
      <trkpt lat="44.13827" lon="5.88791">
        <ele>696</ele>
        <time>2021-06-01T07:23:07.000Z</time>
      </trkpt>
      <trkpt lat="44.13827" lon="5.88789">
        <ele>696</ele>
        <time>2021-06-01T07:23:08.000Z</time>
      </trkpt>
      <trkpt lat="44.13827" lon="5.88788">
        <ele>696</ele>
        <time>2021-06-01T07:23:09.000Z</time>
      </trkpt>
      <trkpt lat="44.13826" lon="5.88787">
        <ele>696</ele>
        <time>2021-06-01T07:23:10.000Z</time>
      </trkpt>
      <trkpt lat="44.13825" lon="5.88786">
        <ele>696</ele>
        <time>2021-06-01T07:23:11.000Z</time>
      </trkpt>
      <trkpt lat="44.13825" lon="5.88785">
        <ele>696</ele>
        <time>2021-06-01T07:23:12.000Z</time>
      </trkpt>
      <trkpt lat="44.13824" lon="5.88784">
        <ele>696</ele>
        <time>2021-06-01T07:23:13.000Z</time>
      </trkpt>
      <trkpt lat="44.13824" lon="5.88782">
        <ele>696</ele>
        <time>2021-06-01T07:23:14.000Z</time>
      </trkpt>
      <trkpt lat="44.13823" lon="5.88781">
        <ele>696</ele>
        <time>2021-06-01T07:23:15.000Z</time>
      </trkpt>
      <trkpt lat="44.13823" lon="5.8878">
        <ele>696</ele>
        <time>2021-06-01T07:23:16.000Z</time>
      </trkpt>
      <trkpt lat="44.13822" lon="5.88779">
        <ele>696</ele>
        <time>2021-06-01T07:23:17.000Z</time>
      </trkpt>
      <trkpt lat="44.13821" lon="5.88777">
        <ele>697</ele>
        <time>2021-06-01T07:23:18.000Z</time>
      </trkpt>
      <trkpt lat="44.13821" lon="5.88776">
        <ele>697</ele>
        <time>2021-06-01T07:23:19.000Z</time>
      </trkpt>
      <trkpt lat="44.13821" lon="5.88775">
        <ele>697</ele>
        <time>2021-06-01T07:23:20.000Z</time>
      </trkpt>
      <trkpt lat="44.1382" lon="5.88774">
        <ele>697</ele>
        <time>2021-06-01T07:23:21.000Z</time>
      </trkpt>
      <trkpt lat="44.13819" lon="5.88773">
        <ele>697</ele>
        <time>2021-06-01T07:23:22.000Z</time>
      </trkpt>
      <trkpt lat="44.13819" lon="5.88772">
        <ele>697</ele>
        <time>2021-06-01T07:23:23.000Z</time>
      </trkpt>
      <trkpt lat="44.13818" lon="5.8877">
        <ele>697</ele>
        <time>2021-06-01T07:23:24.000Z</time>
      </trkpt>
      <trkpt lat="44.13818" lon="5.88769">
        <ele>697</ele>
        <time>2021-06-01T07:23:25.000Z</time>
      </trkpt>
      <trkpt lat="44.13818" lon="5.88768">
        <ele>697</ele>
        <time>2021-06-01T07:23:26.000Z</time>
      </trkpt>
      <trkpt lat="44.13817" lon="5.88767">
        <ele>697</ele>
        <time>2021-06-01T07:23:27.000Z</time>
      </trkpt>
      <trkpt lat="44.13817" lon="5.88766">
        <ele>697</ele>
        <time>2021-06-01T07:23:28.000Z</time>
      </trkpt>
      <trkpt lat="44.13817" lon="5.88765">
        <ele>697</ele>
        <time>2021-06-01T07:23:29.000Z</time>
      </trkpt>
      <trkpt lat="44.13816" lon="5.88764">
        <ele>697</ele>
        <time>2021-06-01T07:23:30.000Z</time>
      </trkpt>
      <trkpt lat="44.13816" lon="5.88763">
        <ele>698</ele>
        <time>2021-06-01T07:23:31.000Z</time>
      </trkpt>
      <trkpt lat="44.13815" lon="5.88762">
        <ele>698</ele>
        <time>2021-06-01T07:23:32.000Z</time>
      </trkpt>
      <trkpt lat="44.13815" lon="5.88761">
        <ele>698</ele>
        <time>2021-06-01T07:23:33.000Z</time>
      </trkpt>
      <trkpt lat="44.13814" lon="5.88759">
        <ele>698</ele>
        <time>2021-06-01T07:23:34.000Z</time>
      </trkpt>
      <trkpt lat="44.13814" lon="5.88758">
        <ele>698</ele>
        <time>2021-06-01T07:23:35.000Z</time>
      </trkpt>
      <trkpt lat="44.13813" lon="5.88757">
        <ele>698</ele>
        <time>2021-06-01T07:23:36.000Z</time>
      </trkpt>
      <trkpt lat="44.13813" lon="5.88756">
        <ele>698</ele>
        <time>2021-06-01T07:23:37.000Z</time>
      </trkpt>
      <trkpt lat="44.13812" lon="5.88755">
        <ele>698</ele>
        <time>2021-06-01T07:23:38.000Z</time>
      </trkpt>
      <trkpt lat="44.13812" lon="5.88754">
        <ele>699</ele>
        <time>2021-06-01T07:23:39.000Z</time>
      </trkpt>
      <trkpt lat="44.13811" lon="5.88753">
        <ele>699</ele>
        <time>2021-06-01T07:23:40.000Z</time>
      </trkpt>
      <trkpt lat="44.13811" lon="5.88753">
        <ele>699</ele>
        <time>2021-06-01T07:23:41.000Z</time>
      </trkpt>
      <trkpt lat="44.1381" lon="5.88752">
        <ele>699</ele>
        <time>2021-06-01T07:23:42.000Z</time>
      </trkpt>
      <trkpt lat="44.1381" lon="5.88751">
        <ele>699</ele>
        <time>2021-06-01T07:23:43.000Z</time>
      </trkpt>
      <trkpt lat="44.13809" lon="5.88751">
        <ele>699</ele>
        <time>2021-06-01T07:23:44.000Z</time>
      </trkpt>
      <trkpt lat="44.13808" lon="5.8875">
        <ele>699</ele>
        <time>2021-06-01T07:23:45.000Z</time>
      </trkpt>
      <trkpt lat="44.13808" lon="5.8875">
        <ele>700</ele>
        <time>2021-06-01T07:23:46.000Z</time>
      </trkpt>
      <trkpt lat="44.13807" lon="5.88749">
        <ele>700</ele>
        <time>2021-06-01T07:23:47.000Z</time>
      </trkpt>
      <trkpt lat="44.13807" lon="5.88749">
        <ele>700</ele>
        <time>2021-06-01T07:23:48.000Z</time>
      </trkpt>
      <trkpt lat="44.13806" lon="5.88748">
        <ele>700</ele>
        <time>2021-06-01T07:23:49.000Z</time>
      </trkpt>
      <trkpt lat="44.13806" lon="5.88747">
        <ele>700</ele>
        <time>2021-06-01T07:23:50.000Z</time>
      </trkpt>
      <trkpt lat="44.13805" lon="5.88747">
        <ele>700</ele>
        <time>2021-06-01T07:23:51.000Z</time>
      </trkpt>
      <trkpt lat="44.13805" lon="5.88746">
        <ele>701</ele>
        <time>2021-06-01T07:23:52.000Z</time>
      </trkpt>
      <trkpt lat="44.13804" lon="5.88745">
        <ele>701</ele>
        <time>2021-06-01T07:23:53.000Z</time>
      </trkpt>
      <trkpt lat="44.13804" lon="5.88745">
        <ele>701</ele>
        <time>2021-06-01T07:23:54.000Z</time>
      </trkpt>
      <trkpt lat="44.13803" lon="5.88744">
        <ele>701</ele>
        <time>2021-06-01T07:23:55.000Z</time>
      </trkpt>
      <trkpt lat="44.13803" lon="5.88743">
        <ele>702</ele>
        <time>2021-06-01T07:23:56.000Z</time>
      </trkpt>
      <trkpt lat="44.13803" lon="5.88743">
        <ele>702</ele>
        <time>2021-06-01T07:23:57.000Z</time>
      </trkpt>
      <trkpt lat="44.13802" lon="5.88742">
        <ele>702</ele>
        <time>2021-06-01T07:23:58.000Z</time>
      </trkpt>
      <trkpt lat="44.13802" lon="5.88742">
        <ele>702</ele>
        <time>2021-06-01T07:23:59.000Z</time>
      </trkpt>
      <trkpt lat="44.13801" lon="5.88741">
        <ele>702</ele>
        <time>2021-06-01T07:24:00.000Z</time>
      </trkpt>
      <trkpt lat="44.13801" lon="5.88741">
        <ele>702</ele>
        <time>2021-06-01T07:24:01.000Z</time>
      </trkpt>
      <trkpt lat="44.138" lon="5.88741">
        <ele>703</ele>
        <time>2021-06-01T07:24:02.000Z</time>
      </trkpt>
      <trkpt lat="44.138" lon="5.8874">
        <ele>703</ele>
        <time>2021-06-01T07:24:03.000Z</time>
      </trkpt>
      <trkpt lat="44.138" lon="5.8874">
        <ele>703</ele>
        <time>2021-06-01T07:24:04.000Z</time>
      </trkpt>
      <trkpt lat="44.13799" lon="5.88739">
        <ele>703</ele>
        <time>2021-06-01T07:24:05.000Z</time>
      </trkpt>
      <trkpt lat="44.13799" lon="5.88739">
        <ele>704</ele>
        <time>2021-06-01T07:24:06.000Z</time>
      </trkpt>
      <trkpt lat="44.13798" lon="5.88739">
        <ele>704</ele>
        <time>2021-06-01T07:24:07.000Z</time>
      </trkpt>
      <trkpt lat="44.13798" lon="5.88738">
        <ele>704</ele>
        <time>2021-06-01T07:24:08.000Z</time>
      </trkpt>
      <trkpt lat="44.13798" lon="5.88738">
        <ele>704</ele>
        <time>2021-06-01T07:24:09.000Z</time>
      </trkpt>
      <trkpt lat="44.13797" lon="5.88738">
        <ele>704</ele>
        <time>2021-06-01T07:24:10.000Z</time>
      </trkpt>
      <trkpt lat="44.13797" lon="5.88737">
        <ele>704</ele>
        <time>2021-06-01T07:24:11.000Z</time>
      </trkpt>
      <trkpt lat="44.13797" lon="5.88737">
        <ele>704</ele>
        <time>2021-06-01T07:24:12.000Z</time>
      </trkpt>
      <trkpt lat="44.13796" lon="5.88736">
        <ele>704</ele>
        <time>2021-06-01T07:24:13.000Z</time>
      </trkpt>
      <trkpt lat="44.13796" lon="5.88736">
        <ele>705</ele>
        <time>2021-06-01T07:24:14.000Z</time>
      </trkpt>
      <trkpt lat="44.13796" lon="5.88735">
        <ele>705</ele>
        <time>2021-06-01T07:24:15.000Z</time>
      </trkpt>
      <trkpt lat="44.13795" lon="5.88735">
        <ele>705</ele>
        <time>2021-06-01T07:24:16.000Z</time>
      </trkpt>
      <trkpt lat="44.13795" lon="5.88735">
        <ele>705</ele>
        <time>2021-06-01T07:24:17.000Z</time>
      </trkpt>
      <trkpt lat="44.13795" lon="5.88734">
        <ele>705</ele>
        <time>2021-06-01T07:24:18.000Z</time>
      </trkpt>
      <trkpt lat="44.13794" lon="5.88734">
        <ele>705</ele>
        <time>2021-06-01T07:24:19.000Z</time>
      </trkpt>
      <trkpt lat="44.13794" lon="5.88733">
        <ele>705</ele>
        <time>2021-06-01T07:24:20.000Z</time>
      </trkpt>
      <trkpt lat="44.13793" lon="5.88733">
        <ele>705</ele>
        <time>2021-06-01T07:24:21.000Z</time>
      </trkpt>
      <trkpt lat="44.13793" lon="5.88733">
        <ele>705</ele>
        <time>2021-06-01T07:24:22.000Z</time>
      </trkpt>
      <trkpt lat="44.13792" lon="5.88732">
        <ele>705</ele>
        <time>2021-06-01T07:24:23.000Z</time>
      </trkpt>
      <trkpt lat="44.13792" lon="5.88732">
        <ele>705</ele>
        <time>2021-06-01T07:24:24.000Z</time>
      </trkpt>
      <trkpt lat="44.13791" lon="5.88732">
        <ele>705</ele>
        <time>2021-06-01T07:24:25.000Z</time>
      </trkpt>
      <trkpt lat="44.13791" lon="5.88732">
        <ele>705</ele>
        <time>2021-06-01T07:24:26.000Z</time>
      </trkpt>
      <trkpt lat="44.1379" lon="5.88732">
        <ele>705</ele>
        <time>2021-06-01T07:24:27.000Z</time>
      </trkpt>
      <trkpt lat="44.1379" lon="5.88733">
        <ele>705</ele>
        <time>2021-06-01T07:24:28.000Z</time>
      </trkpt>
      <trkpt lat="44.13789" lon="5.88733">
        <ele>705</ele>
        <time>2021-06-01T07:24:29.000Z</time>
      </trkpt>
      <trkpt lat="44.13789" lon="5.88733">
        <ele>705</ele>
        <time>2021-06-01T07:24:30.000Z</time>
      </trkpt>
      <trkpt lat="44.13788" lon="5.88732">
        <ele>706</ele>
        <time>2021-06-01T07:24:31.000Z</time>
      </trkpt>
      <trkpt lat="44.13787" lon="5.88732">
        <ele>706</ele>
        <time>2021-06-01T07:24:32.000Z</time>
      </trkpt>
      <trkpt lat="44.13787" lon="5.88732">
        <ele>706</ele>
        <time>2021-06-01T07:24:33.000Z</time>
      </trkpt>
      <trkpt lat="44.13786" lon="5.88731">
        <ele>706</ele>
        <time>2021-06-01T07:24:34.000Z</time>
      </trkpt>
      <trkpt lat="44.13786" lon="5.88731">
        <ele>706</ele>
        <time>2021-06-01T07:24:35.000Z</time>
      </trkpt>
      <trkpt lat="44.13785" lon="5.8873">
        <ele>706</ele>
        <time>2021-06-01T07:24:36.000Z</time>
      </trkpt>
      <trkpt lat="44.13784" lon="5.8873">
        <ele>706</ele>
        <time>2021-06-01T07:24:37.000Z</time>
      </trkpt>
      <trkpt lat="44.13784" lon="5.88729">
        <ele>706</ele>
        <time>2021-06-01T07:24:38.000Z</time>
      </trkpt>
      <trkpt lat="44.13783" lon="5.88729">
        <ele>707</ele>
        <time>2021-06-01T07:24:39.000Z</time>
      </trkpt>
      <trkpt lat="44.13782" lon="5.88729">
        <ele>707</ele>
        <time>2021-06-01T07:24:40.000Z</time>
      </trkpt>
      <trkpt lat="44.13781" lon="5.88729">
        <ele>707</ele>
        <time>2021-06-01T07:24:41.000Z</time>
      </trkpt>
      <trkpt lat="44.13781" lon="5.88729">
        <ele>707</ele>
        <time>2021-06-01T07:24:42.000Z</time>
      </trkpt>
      <trkpt lat="44.1378" lon="5.88728">
        <ele>707</ele>
        <time>2021-06-01T07:24:43.000Z</time>
      </trkpt>
      <trkpt lat="44.1378" lon="5.88728">
        <ele>707</ele>
        <time>2021-06-01T07:24:44.000Z</time>
      </trkpt>
      <trkpt lat="44.1378" lon="5.88728">
        <ele>707</ele>
        <time>2021-06-01T07:24:45.000Z</time>
      </trkpt>
      <trkpt lat="44.1378" lon="5.88728">
        <ele>707</ele>
        <time>2021-06-01T07:24:46.000Z</time>
      </trkpt>
      <trkpt lat="44.1378" lon="5.88728">
        <ele>707</ele>
        <time>2021-06-01T07:24:47.000Z</time>
      </trkpt>
      <trkpt lat="44.1378" lon="5.88728">
        <ele>707</ele>
        <time>2021-06-01T07:24:48.000Z</time>
      </trkpt>
      <trkpt lat="44.1378" lon="5.88727">
        <ele>708</ele>
        <time>2021-06-01T07:24:49.000Z</time>
      </trkpt>
      <trkpt lat="44.1378" lon="5.88727">
        <ele>708</ele>
        <time>2021-06-01T07:24:50.000Z</time>
      </trkpt>
      <trkpt lat="44.1378" lon="5.88727">
        <ele>708</ele>
        <time>2021-06-01T07:24:51.000Z</time>
      </trkpt>
      <trkpt lat="44.1378" lon="5.88727">
        <ele>708</ele>
        <time>2021-06-01T07:24:52.000Z</time>
      </trkpt>
      <trkpt lat="44.1378" lon="5.88727">
        <ele>708</ele>
        <time>2021-06-01T07:24:53.000Z</time>
      </trkpt>
      <trkpt lat="44.1378" lon="5.88727">
        <ele>708</ele>
        <time>2021-06-01T07:24:54.000Z</time>
      </trkpt>
      <trkpt lat="44.1378" lon="5.88727">
        <ele>708</ele>
        <time>2021-06-01T07:24:55.000Z</time>
      </trkpt>
      <trkpt lat="44.1378" lon="5.88726">
        <ele>708</ele>
        <time>2021-06-01T07:24:56.000Z</time>
      </trkpt>
      <trkpt lat="44.1378" lon="5.88726">
        <ele>708</ele>
        <time>2021-06-01T07:24:57.000Z</time>
      </trkpt>
      <trkpt lat="44.1378" lon="5.88726">
        <ele>708</ele>
        <time>2021-06-01T07:24:58.000Z</time>
      </trkpt>
      <trkpt lat="44.13779" lon="5.88726">
        <ele>708</ele>
        <time>2021-06-01T07:24:59.000Z</time>
      </trkpt>
      <trkpt lat="44.13779" lon="5.88726">
        <ele>708</ele>
        <time>2021-06-01T07:25:00.000Z</time>
      </trkpt>
      <trkpt lat="44.13779" lon="5.88726">
        <ele>708</ele>
        <time>2021-06-01T07:25:01.000Z</time>
      </trkpt>
      <trkpt lat="44.13779" lon="5.88726">
        <ele>708</ele>
        <time>2021-06-01T07:25:02.000Z</time>
      </trkpt>
      <trkpt lat="44.13779" lon="5.88726">
        <ele>708</ele>
        <time>2021-06-01T07:25:03.000Z</time>
      </trkpt>
      <trkpt lat="44.13779" lon="5.88725">
        <ele>708</ele>
        <time>2021-06-01T07:25:04.000Z</time>
      </trkpt>
      <trkpt lat="44.13779" lon="5.88726">
        <ele>708</ele>
        <time>2021-06-01T07:25:05.000Z</time>
      </trkpt>
      <trkpt lat="44.13779" lon="5.88726">
        <ele>709</ele>
        <time>2021-06-01T07:25:06.000Z</time>
      </trkpt>
      <trkpt lat="44.13779" lon="5.88726">
        <ele>709</ele>
        <time>2021-06-01T07:25:07.000Z</time>
      </trkpt>
      <trkpt lat="44.13779" lon="5.88725">
        <ele>709</ele>
        <time>2021-06-01T07:25:08.000Z</time>
      </trkpt>
      <trkpt lat="44.13779" lon="5.88725">
        <ele>709</ele>
        <time>2021-06-01T07:25:09.000Z</time>
      </trkpt>
      <trkpt lat="44.13779" lon="5.88725">
        <ele>709</ele>
        <time>2021-06-01T07:25:10.000Z</time>
      </trkpt>
      <trkpt lat="44.13779" lon="5.88725">
        <ele>709</ele>
        <time>2021-06-01T07:25:11.000Z</time>
      </trkpt>
      <trkpt lat="44.13779" lon="5.88725">
        <ele>709</ele>
        <time>2021-06-01T07:25:12.000Z</time>
      </trkpt>
      <trkpt lat="44.13779" lon="5.88725">
        <ele>709</ele>
        <time>2021-06-01T07:25:13.000Z</time>
      </trkpt>
      <trkpt lat="44.13779" lon="5.88725">
        <ele>709</ele>
        <time>2021-06-01T07:25:14.000Z</time>
      </trkpt>
      <trkpt lat="44.13779" lon="5.88725">
        <ele>709</ele>
        <time>2021-06-01T07:25:15.000Z</time>
      </trkpt>
      <trkpt lat="44.13779" lon="5.88725">
        <ele>709</ele>
        <time>2021-06-01T07:25:16.000Z</time>
      </trkpt>
      <trkpt lat="44.13779" lon="5.88725">
        <ele>709</ele>
        <time>2021-06-01T07:25:17.000Z</time>
      </trkpt>
      <trkpt lat="44.13779" lon="5.88725">
        <ele>709</ele>
        <time>2021-06-01T07:25:18.000Z</time>
      </trkpt>
      <trkpt lat="44.13779" lon="5.88725">
        <ele>710</ele>
        <time>2021-06-01T07:25:19.000Z</time>
      </trkpt>
      <trkpt lat="44.13779" lon="5.88726">
        <ele>710</ele>
        <time>2021-06-01T07:25:20.000Z</time>
      </trkpt>
      <trkpt lat="44.13779" lon="5.88726">
        <ele>710</ele>
        <time>2021-06-01T07:25:21.000Z</time>
      </trkpt>
      <trkpt lat="44.13779" lon="5.88725">
        <ele>710</ele>
        <time>2021-06-01T07:25:22.000Z</time>
      </trkpt>
      <trkpt lat="44.13779" lon="5.88725">
        <ele>710</ele>
        <time>2021-06-01T07:25:23.000Z</time>
      </trkpt>
      <trkpt lat="44.13779" lon="5.88725">
        <ele>710</ele>
        <time>2021-06-01T07:25:24.000Z</time>
      </trkpt>
      <trkpt lat="44.13779" lon="5.88725">
        <ele>710</ele>
        <time>2021-06-01T07:25:25.000Z</time>
      </trkpt>
      <trkpt lat="44.13779" lon="5.88725">
        <ele>710</ele>
        <time>2021-06-01T07:25:26.000Z</time>
      </trkpt>
      <trkpt lat="44.13779" lon="5.88725">
        <ele>710</ele>
        <time>2021-06-01T07:25:27.000Z</time>
      </trkpt>
      <trkpt lat="44.13779" lon="5.88725">
        <ele>710</ele>
        <time>2021-06-01T07:25:28.000Z</time>
      </trkpt>
      <trkpt lat="44.13779" lon="5.88725">
        <ele>710</ele>
        <time>2021-06-01T07:25:29.000Z</time>
      </trkpt>
      <trkpt lat="44.13779" lon="5.88725">
        <ele>710</ele>
        <time>2021-06-01T07:25:30.000Z</time>
      </trkpt>
      <trkpt lat="44.13779" lon="5.88725">
        <ele>710</ele>
        <time>2021-06-01T07:25:31.000Z</time>
      </trkpt>
      <trkpt lat="44.13779" lon="5.88725">
        <ele>711</ele>
        <time>2021-06-01T07:25:32.000Z</time>
      </trkpt>
      <trkpt lat="44.13779" lon="5.88725">
        <ele>711</ele>
        <time>2021-06-01T07:25:33.000Z</time>
      </trkpt>
      <trkpt lat="44.13779" lon="5.88725">
        <ele>711</ele>
        <time>2021-06-01T07:25:34.000Z</time>
      </trkpt>
      <trkpt lat="44.13779" lon="5.88724">
        <ele>711</ele>
        <time>2021-06-01T07:25:35.000Z</time>
      </trkpt>
      <trkpt lat="44.13779" lon="5.88724">
        <ele>711</ele>
        <time>2021-06-01T07:25:36.000Z</time>
      </trkpt>
      <trkpt lat="44.13779" lon="5.88724">
        <ele>711</ele>
        <time>2021-06-01T07:25:37.000Z</time>
      </trkpt>
      <trkpt lat="44.13779" lon="5.88724">
        <ele>711</ele>
        <time>2021-06-01T07:25:38.000Z</time>
      </trkpt>
      <trkpt lat="44.13779" lon="5.88724">
        <ele>711</ele>
        <time>2021-06-01T07:25:39.000Z</time>
      </trkpt>
      <trkpt lat="44.13779" lon="5.88724">
        <ele>711</ele>
        <time>2021-06-01T07:25:40.000Z</time>
      </trkpt>
      <trkpt lat="44.13779" lon="5.88724">
        <ele>711</ele>
        <time>2021-06-01T07:25:41.000Z</time>
      </trkpt>
      <trkpt lat="44.13779" lon="5.88723">
        <ele>711</ele>
        <time>2021-06-01T07:25:42.000Z</time>
      </trkpt>
      <trkpt lat="44.13779" lon="5.88723">
        <ele>711</ele>
        <time>2021-06-01T07:25:43.000Z</time>
      </trkpt>
      <trkpt lat="44.13779" lon="5.88723">
        <ele>712</ele>
        <time>2021-06-01T07:25:44.000Z</time>
      </trkpt>
      <trkpt lat="44.13779" lon="5.88723">
        <ele>712</ele>
        <time>2021-06-01T07:25:45.000Z</time>
      </trkpt>
      <trkpt lat="44.13779" lon="5.88723">
        <ele>712</ele>
        <time>2021-06-01T07:25:46.000Z</time>
      </trkpt>
      <trkpt lat="44.13779" lon="5.88723">
        <ele>712</ele>
        <time>2021-06-01T07:25:47.000Z</time>
      </trkpt>
      <trkpt lat="44.13779" lon="5.88723">
        <ele>712</ele>
        <time>2021-06-01T07:25:48.000Z</time>
      </trkpt>
      <trkpt lat="44.13779" lon="5.88723">
        <ele>712</ele>
        <time>2021-06-01T07:25:49.000Z</time>
      </trkpt>
      <trkpt lat="44.13779" lon="5.88723">
        <ele>712</ele>
        <time>2021-06-01T07:25:50.000Z</time>
      </trkpt>
      <trkpt lat="44.13779" lon="5.88722">
        <ele>712</ele>
        <time>2021-06-01T07:25:51.000Z</time>
      </trkpt>
      <trkpt lat="44.13778" lon="5.88722">
        <ele>712</ele>
        <time>2021-06-01T07:25:52.000Z</time>
      </trkpt>
      <trkpt lat="44.13778" lon="5.88722">
        <ele>712</ele>
        <time>2021-06-01T07:25:53.000Z</time>
      </trkpt>
      <trkpt lat="44.13778" lon="5.88722">
        <ele>712</ele>
        <time>2021-06-01T07:25:54.000Z</time>
      </trkpt>
      <trkpt lat="44.13778" lon="5.88722">
        <ele>712</ele>
        <time>2021-06-01T07:25:55.000Z</time>
      </trkpt>
      <trkpt lat="44.13778" lon="5.88722">
        <ele>712</ele>
        <time>2021-06-01T07:25:56.000Z</time>
      </trkpt>
      <trkpt lat="44.13778" lon="5.88722">
        <ele>712</ele>
        <time>2021-06-01T07:25:57.000Z</time>
      </trkpt>
      <trkpt lat="44.13778" lon="5.88722">
        <ele>712</ele>
        <time>2021-06-01T07:25:58.000Z</time>
      </trkpt>
      <trkpt lat="44.13778" lon="5.88722">
        <ele>712</ele>
        <time>2021-06-01T07:25:59.000Z</time>
      </trkpt>
      <trkpt lat="44.13778" lon="5.88722">
        <ele>712</ele>
        <time>2021-06-01T07:26:00.000Z</time>
      </trkpt>
      <trkpt lat="44.13778" lon="5.88722">
        <ele>712</ele>
        <time>2021-06-01T07:26:01.000Z</time>
      </trkpt>
      <trkpt lat="44.13778" lon="5.88722">
        <ele>712</ele>
        <time>2021-06-01T07:26:02.000Z</time>
      </trkpt>
      <trkpt lat="44.13778" lon="5.88722">
        <ele>712</ele>
        <time>2021-06-01T07:26:03.000Z</time>
      </trkpt>
      <trkpt lat="44.13778" lon="5.88722">
        <ele>712</ele>
        <time>2021-06-01T07:26:04.000Z</time>
      </trkpt>
      <trkpt lat="44.13778" lon="5.88722">
        <ele>712</ele>
        <time>2021-06-01T07:26:05.000Z</time>
      </trkpt>
      <trkpt lat="44.13778" lon="5.88722">
        <ele>712</ele>
        <time>2021-06-01T07:26:06.000Z</time>
      </trkpt>
      <trkpt lat="44.13778" lon="5.88722">
        <ele>712</ele>
        <time>2021-06-01T07:26:07.000Z</time>
      </trkpt>
      <trkpt lat="44.13778" lon="5.88722">
        <ele>712</ele>
        <time>2021-06-01T07:26:08.000Z</time>
      </trkpt>
      <trkpt lat="44.13778" lon="5.88722">
        <ele>712</ele>
        <time>2021-06-01T07:26:09.000Z</time>
      </trkpt>
      <trkpt lat="44.13778" lon="5.88722">
        <ele>712</ele>
        <time>2021-06-01T07:26:10.000Z</time>
      </trkpt>
      <trkpt lat="44.13778" lon="5.88722">
        <ele>712</ele>
        <time>2021-06-01T07:26:11.000Z</time>
      </trkpt>
      <trkpt lat="44.13778" lon="5.88721">
        <ele>712</ele>
        <time>2021-06-01T07:26:12.000Z</time>
      </trkpt>
      <trkpt lat="44.13778" lon="5.88721">
        <ele>712</ele>
        <time>2021-06-01T07:26:13.000Z</time>
      </trkpt>
      <trkpt lat="44.13778" lon="5.88721">
        <ele>712</ele>
        <time>2021-06-01T07:26:14.000Z</time>
      </trkpt>
      <trkpt lat="44.13778" lon="5.88721">
        <ele>712</ele>
        <time>2021-06-01T07:26:15.000Z</time>
      </trkpt>
      <trkpt lat="44.13778" lon="5.88721">
        <ele>712</ele>
        <time>2021-06-01T07:26:16.000Z</time>
      </trkpt>
      <trkpt lat="44.13778" lon="5.88721">
        <ele>712</ele>
        <time>2021-06-01T07:26:17.000Z</time>
      </trkpt>
      <trkpt lat="44.13778" lon="5.88721">
        <ele>712</ele>
        <time>2021-06-01T07:26:18.000Z</time>
      </trkpt>
      <trkpt lat="44.13777" lon="5.88721">
        <ele>712</ele>
        <time>2021-06-01T07:26:19.000Z</time>
      </trkpt>
      <trkpt lat="44.13777" lon="5.8872">
        <ele>712</ele>
        <time>2021-06-01T07:26:20.000Z</time>
      </trkpt>
      <trkpt lat="44.13777" lon="5.8872">
        <ele>712</ele>
        <time>2021-06-01T07:26:21.000Z</time>
      </trkpt>
      <trkpt lat="44.13777" lon="5.8872">
        <ele>711</ele>
        <time>2021-06-01T07:26:22.000Z</time>
      </trkpt>
      <trkpt lat="44.13777" lon="5.8872">
        <ele>711</ele>
        <time>2021-06-01T07:26:23.000Z</time>
      </trkpt>
      <trkpt lat="44.13777" lon="5.8872">
        <ele>711</ele>
        <time>2021-06-01T07:26:24.000Z</time>
      </trkpt>
      <trkpt lat="44.13777" lon="5.8872">
        <ele>711</ele>
        <time>2021-06-01T07:26:25.000Z</time>
      </trkpt>
      <trkpt lat="44.13776" lon="5.8872">
        <ele>711</ele>
        <time>2021-06-01T07:26:26.000Z</time>
      </trkpt>
      <trkpt lat="44.13776" lon="5.88719">
        <ele>711</ele>
        <time>2021-06-01T07:26:27.000Z</time>
      </trkpt>
      <trkpt lat="44.13776" lon="5.88719">
        <ele>711</ele>
        <time>2021-06-01T07:26:28.000Z</time>
      </trkpt>
      <trkpt lat="44.13776" lon="5.88719">
        <ele>711</ele>
        <time>2021-06-01T07:26:29.000Z</time>
      </trkpt>
      <trkpt lat="44.13776" lon="5.88719">
        <ele>711</ele>
        <time>2021-06-01T07:26:30.000Z</time>
      </trkpt>
      <trkpt lat="44.13776" lon="5.88718">
        <ele>711</ele>
        <time>2021-06-01T07:26:31.000Z</time>
      </trkpt>
      <trkpt lat="44.13776" lon="5.88718">
        <ele>710</ele>
        <time>2021-06-01T07:26:32.000Z</time>
      </trkpt>
      <trkpt lat="44.13776" lon="5.88718">
        <ele>710</ele>
        <time>2021-06-01T07:26:33.000Z</time>
      </trkpt>
      <trkpt lat="44.13776" lon="5.88718">
        <ele>710</ele>
        <time>2021-06-01T07:26:34.000Z</time>
      </trkpt>
      <trkpt lat="44.13775" lon="5.88718">
        <ele>710</ele>
        <time>2021-06-01T07:26:35.000Z</time>
      </trkpt>
      <trkpt lat="44.13775" lon="5.88717">
        <ele>710</ele>
        <time>2021-06-01T07:26:36.000Z</time>
      </trkpt>
      <trkpt lat="44.13775" lon="5.88717">
        <ele>710</ele>
        <time>2021-06-01T07:26:37.000Z</time>
      </trkpt>
      <trkpt lat="44.13775" lon="5.88717">
        <ele>710</ele>
        <time>2021-06-01T07:26:38.000Z</time>
      </trkpt>
      <trkpt lat="44.13775" lon="5.88717">
        <ele>710</ele>
        <time>2021-06-01T07:26:39.000Z</time>
      </trkpt>
      <trkpt lat="44.13775" lon="5.88717">
        <ele>710</ele>
        <time>2021-06-01T07:26:40.000Z</time>
      </trkpt>
      <trkpt lat="44.13775" lon="5.88716">
        <ele>710</ele>
        <time>2021-06-01T07:26:41.000Z</time>
      </trkpt>
      <trkpt lat="44.13775" lon="5.88716">
        <ele>710</ele>
        <time>2021-06-01T07:26:42.000Z</time>
      </trkpt>
      <trkpt lat="44.13775" lon="5.88716">
        <ele>710</ele>
        <time>2021-06-01T07:26:43.000Z</time>
      </trkpt>
      <trkpt lat="44.13775" lon="5.88716">
        <ele>710</ele>
        <time>2021-06-01T07:26:44.000Z</time>
      </trkpt>
      <trkpt lat="44.13775" lon="5.88715">
        <ele>710</ele>
        <time>2021-06-01T07:26:45.000Z</time>
      </trkpt>
      <trkpt lat="44.13775" lon="5.88715">
        <ele>710</ele>
        <time>2021-06-01T07:26:46.000Z</time>
      </trkpt>
      <trkpt lat="44.13775" lon="5.88715">
        <ele>710</ele>
        <time>2021-06-01T07:26:47.000Z</time>
      </trkpt>
      <trkpt lat="44.13775" lon="5.88715">
        <ele>710</ele>
        <time>2021-06-01T07:26:48.000Z</time>
      </trkpt>
      <trkpt lat="44.13775" lon="5.88715">
        <ele>710</ele>
        <time>2021-06-01T07:26:49.000Z</time>
      </trkpt>
      <trkpt lat="44.13775" lon="5.88715">
        <ele>710</ele>
        <time>2021-06-01T07:26:50.000Z</time>
      </trkpt>
      <trkpt lat="44.13775" lon="5.88715">
        <ele>710</ele>
        <time>2021-06-01T07:26:51.000Z</time>
      </trkpt>
      <trkpt lat="44.13775" lon="5.88715">
        <ele>710</ele>
        <time>2021-06-01T07:26:52.000Z</time>
      </trkpt>
      <trkpt lat="44.13775" lon="5.88715">
        <ele>710</ele>
        <time>2021-06-01T07:26:53.000Z</time>
      </trkpt>
      <trkpt lat="44.13775" lon="5.88715">
        <ele>710</ele>
        <time>2021-06-01T07:26:54.000Z</time>
      </trkpt>
      <trkpt lat="44.13775" lon="5.88715">
        <ele>710</ele>
        <time>2021-06-01T07:26:55.000Z</time>
      </trkpt>
      <trkpt lat="44.13775" lon="5.88715">
        <ele>710</ele>
        <time>2021-06-01T07:26:56.000Z</time>
      </trkpt>
      <trkpt lat="44.13775" lon="5.88714">
        <ele>710</ele>
        <time>2021-06-01T07:26:57.000Z</time>
      </trkpt>
      <trkpt lat="44.13775" lon="5.88714">
        <ele>710</ele>
        <time>2021-06-01T07:26:58.000Z</time>
      </trkpt>
      <trkpt lat="44.13775" lon="5.88713">
        <ele>710</ele>
        <time>2021-06-01T07:26:59.000Z</time>
      </trkpt>
      <trkpt lat="44.13774" lon="5.88713">
        <ele>710</ele>
        <time>2021-06-01T07:27:00.000Z</time>
      </trkpt>
      <trkpt lat="44.13774" lon="5.88712">
        <ele>710</ele>
        <time>2021-06-01T07:27:01.000Z</time>
      </trkpt>
      <trkpt lat="44.13774" lon="5.88712">
        <ele>710</ele>
        <time>2021-06-01T07:27:02.000Z</time>
      </trkpt>
      <trkpt lat="44.13773" lon="5.88712">
        <ele>710</ele>
        <time>2021-06-01T07:27:03.000Z</time>
      </trkpt>
      <trkpt lat="44.13773" lon="5.88712">
        <ele>710</ele>
        <time>2021-06-01T07:27:04.000Z</time>
      </trkpt>
      <trkpt lat="44.13772" lon="5.88712">
        <ele>709</ele>
        <time>2021-06-01T07:27:05.000Z</time>
      </trkpt>
      <trkpt lat="44.13772" lon="5.88713">
        <ele>709</ele>
        <time>2021-06-01T07:27:06.000Z</time>
      </trkpt>
      <trkpt lat="44.13771" lon="5.88713">
        <ele>709</ele>
        <time>2021-06-01T07:27:07.000Z</time>
      </trkpt>
      <trkpt lat="44.1377" lon="5.88713">
        <ele>709</ele>
        <time>2021-06-01T07:27:08.000Z</time>
      </trkpt>
      <trkpt lat="44.1377" lon="5.88712">
        <ele>709</ele>
        <time>2021-06-01T07:27:09.000Z</time>
      </trkpt>
      <trkpt lat="44.13769" lon="5.88713">
        <ele>709</ele>
        <time>2021-06-01T07:27:10.000Z</time>
      </trkpt>
      <trkpt lat="44.13768" lon="5.88713">
        <ele>709</ele>
        <time>2021-06-01T07:27:11.000Z</time>
      </trkpt>
      <trkpt lat="44.13768" lon="5.88712">
        <ele>709</ele>
        <time>2021-06-01T07:27:12.000Z</time>
      </trkpt>
      <trkpt lat="44.13767" lon="5.88712">
        <ele>709</ele>
        <time>2021-06-01T07:27:13.000Z</time>
      </trkpt>
      <trkpt lat="44.13766" lon="5.88711">
        <ele>709</ele>
        <time>2021-06-01T07:27:14.000Z</time>
      </trkpt>
      <trkpt lat="44.13766" lon="5.88711">
        <ele>709</ele>
        <time>2021-06-01T07:27:15.000Z</time>
      </trkpt>
      <trkpt lat="44.13765" lon="5.8871">
        <ele>709</ele>
        <time>2021-06-01T07:27:16.000Z</time>
      </trkpt>
      <trkpt lat="44.13764" lon="5.88709">
        <ele>709</ele>
        <time>2021-06-01T07:27:17.000Z</time>
      </trkpt>
      <trkpt lat="44.13764" lon="5.88709">
        <ele>709</ele>
        <time>2021-06-01T07:27:18.000Z</time>
      </trkpt>
      <trkpt lat="44.13763" lon="5.88709">
        <ele>709</ele>
        <time>2021-06-01T07:27:19.000Z</time>
      </trkpt>
      <trkpt lat="44.13763" lon="5.88708">
        <ele>709</ele>
        <time>2021-06-01T07:27:20.000Z</time>
      </trkpt>
      <trkpt lat="44.13762" lon="5.88708">
        <ele>709</ele>
        <time>2021-06-01T07:27:21.000Z</time>
      </trkpt>
      <trkpt lat="44.13761" lon="5.88708">
        <ele>709</ele>
        <time>2021-06-01T07:27:22.000Z</time>
      </trkpt>
      <trkpt lat="44.13761" lon="5.88708">
        <ele>709</ele>
        <time>2021-06-01T07:27:23.000Z</time>
      </trkpt>
      <trkpt lat="44.1376" lon="5.88708">
        <ele>709</ele>
        <time>2021-06-01T07:27:24.000Z</time>
      </trkpt>
      <trkpt lat="44.1376" lon="5.88707">
        <ele>710</ele>
        <time>2021-06-01T07:27:25.000Z</time>
      </trkpt>
      <trkpt lat="44.13759" lon="5.88707">
        <ele>710</ele>
        <time>2021-06-01T07:27:26.000Z</time>
      </trkpt>
      <trkpt lat="44.13759" lon="5.88706">
        <ele>710</ele>
        <time>2021-06-01T07:27:27.000Z</time>
      </trkpt>
      <trkpt lat="44.13758" lon="5.88706">
        <ele>710</ele>
        <time>2021-06-01T07:27:28.000Z</time>
      </trkpt>
      <trkpt lat="44.13758" lon="5.88705">
        <ele>710</ele>
        <time>2021-06-01T07:27:29.000Z</time>
      </trkpt>
      <trkpt lat="44.13757" lon="5.88705">
        <ele>710</ele>
        <time>2021-06-01T07:27:30.000Z</time>
      </trkpt>
      <trkpt lat="44.13757" lon="5.88704">
        <ele>710</ele>
        <time>2021-06-01T07:27:31.000Z</time>
      </trkpt>
      <trkpt lat="44.13757" lon="5.88703">
        <ele>710</ele>
        <time>2021-06-01T07:27:32.000Z</time>
      </trkpt>
      <trkpt lat="44.13757" lon="5.88702">
        <ele>710</ele>
        <time>2021-06-01T07:27:33.000Z</time>
      </trkpt>
      <trkpt lat="44.13756" lon="5.88701">
        <ele>711</ele>
        <time>2021-06-01T07:27:34.000Z</time>
      </trkpt>
      <trkpt lat="44.13756" lon="5.887">
        <ele>711</ele>
        <time>2021-06-01T07:27:35.000Z</time>
      </trkpt>
      <trkpt lat="44.13756" lon="5.88699">
        <ele>711</ele>
        <time>2021-06-01T07:27:36.000Z</time>
      </trkpt>
      <trkpt lat="44.13755" lon="5.88697">
        <ele>711</ele>
        <time>2021-06-01T07:27:37.000Z</time>
      </trkpt>
      <trkpt lat="44.13755" lon="5.88696">
        <ele>712</ele>
        <time>2021-06-01T07:27:38.000Z</time>
      </trkpt>
      <trkpt lat="44.13755" lon="5.88695">
        <ele>712</ele>
        <time>2021-06-01T07:27:39.000Z</time>
      </trkpt>
      <trkpt lat="44.13754" lon="5.88694">
        <ele>712</ele>
        <time>2021-06-01T07:27:40.000Z</time>
      </trkpt>
      <trkpt lat="44.13754" lon="5.88694">
        <ele>712</ele>
        <time>2021-06-01T07:27:41.000Z</time>
      </trkpt>
      <trkpt lat="44.13754" lon="5.88693">
        <ele>713</ele>
        <time>2021-06-01T07:27:42.000Z</time>
      </trkpt>
      <trkpt lat="44.13754" lon="5.88692">
        <ele>713</ele>
        <time>2021-06-01T07:27:43.000Z</time>
      </trkpt>
      <trkpt lat="44.13754" lon="5.88691">
        <ele>713</ele>
        <time>2021-06-01T07:27:44.000Z</time>
      </trkpt>
      <trkpt lat="44.13754" lon="5.88691">
        <ele>713</ele>
        <time>2021-06-01T07:27:45.000Z</time>
      </trkpt>
      <trkpt lat="44.13755" lon="5.8869">
        <ele>714</ele>
        <time>2021-06-01T07:27:46.000Z</time>
      </trkpt>
      <trkpt lat="44.13755" lon="5.8869">
        <ele>714</ele>
        <time>2021-06-01T07:27:47.000Z</time>
      </trkpt>
      <trkpt lat="44.13755" lon="5.88689">
        <ele>714</ele>
        <time>2021-06-01T07:27:48.000Z</time>
      </trkpt>
      <trkpt lat="44.13756" lon="5.88688">
        <ele>715</ele>
        <time>2021-06-01T07:27:49.000Z</time>
      </trkpt>
      <trkpt lat="44.13756" lon="5.88688">
        <ele>715</ele>
        <time>2021-06-01T07:27:50.000Z</time>
      </trkpt>
      <trkpt lat="44.13756" lon="5.88687">
        <ele>715</ele>
        <time>2021-06-01T07:27:51.000Z</time>
      </trkpt>
      <trkpt lat="44.13756" lon="5.88686">
        <ele>716</ele>
        <time>2021-06-01T07:27:52.000Z</time>
      </trkpt>
      <trkpt lat="44.13756" lon="5.88686">
        <ele>716</ele>
        <time>2021-06-01T07:27:53.000Z</time>
      </trkpt>
      <trkpt lat="44.13756" lon="5.88685">
        <ele>716</ele>
        <time>2021-06-01T07:27:54.000Z</time>
      </trkpt>
      <trkpt lat="44.13756" lon="5.88685">
        <ele>717</ele>
        <time>2021-06-01T07:27:55.000Z</time>
      </trkpt>
      <trkpt lat="44.13755" lon="5.88684">
        <ele>717</ele>
        <time>2021-06-01T07:27:56.000Z</time>
      </trkpt>
      <trkpt lat="44.13755" lon="5.88683">
        <ele>717</ele>
        <time>2021-06-01T07:27:57.000Z</time>
      </trkpt>
      <trkpt lat="44.13755" lon="5.88683">
        <ele>717</ele>
        <time>2021-06-01T07:27:58.000Z</time>
      </trkpt>
      <trkpt lat="44.13755" lon="5.88683">
        <ele>718</ele>
        <time>2021-06-01T07:27:59.000Z</time>
      </trkpt>
      <trkpt lat="44.13754" lon="5.88682">
        <ele>718</ele>
        <time>2021-06-01T07:28:00.000Z</time>
      </trkpt>
      <trkpt lat="44.13754" lon="5.88682">
        <ele>718</ele>
        <time>2021-06-01T07:28:01.000Z</time>
      </trkpt>
      <trkpt lat="44.13754" lon="5.88681">
        <ele>718</ele>
        <time>2021-06-01T07:28:02.000Z</time>
      </trkpt>
      <trkpt lat="44.13753" lon="5.8868">
        <ele>718</ele>
        <time>2021-06-01T07:28:03.000Z</time>
      </trkpt>
      <trkpt lat="44.13753" lon="5.88679">
        <ele>718</ele>
        <time>2021-06-01T07:28:04.000Z</time>
      </trkpt>
      <trkpt lat="44.13752" lon="5.88679">
        <ele>719</ele>
        <time>2021-06-01T07:28:05.000Z</time>
      </trkpt>
      <trkpt lat="44.13752" lon="5.88678">
        <ele>719</ele>
        <time>2021-06-01T07:28:06.000Z</time>
      </trkpt>
      <trkpt lat="44.13752" lon="5.88677">
        <ele>719</ele>
        <time>2021-06-01T07:28:07.000Z</time>
      </trkpt>
      <trkpt lat="44.13753" lon="5.88676">
        <ele>719</ele>
        <time>2021-06-01T07:28:08.000Z</time>
      </trkpt>
      <trkpt lat="44.13753" lon="5.88675">
        <ele>719</ele>
        <time>2021-06-01T07:28:09.000Z</time>
      </trkpt>
      <trkpt lat="44.13754" lon="5.88674">
        <ele>720</ele>
        <time>2021-06-01T07:28:10.000Z</time>
      </trkpt>
      <trkpt lat="44.13754" lon="5.88673">
        <ele>720</ele>
        <time>2021-06-01T07:28:11.000Z</time>
      </trkpt>
      <trkpt lat="44.13754" lon="5.88672">
        <ele>720</ele>
        <time>2021-06-01T07:28:12.000Z</time>
      </trkpt>
      <trkpt lat="44.13754" lon="5.88671">
        <ele>720</ele>
        <time>2021-06-01T07:28:13.000Z</time>
      </trkpt>
      <trkpt lat="44.13754" lon="5.8867">
        <ele>720</ele>
        <time>2021-06-01T07:28:14.000Z</time>
      </trkpt>
      <trkpt lat="44.13754" lon="5.88669">
        <ele>721</ele>
        <time>2021-06-01T07:28:15.000Z</time>
      </trkpt>
      <trkpt lat="44.13755" lon="5.88668">
        <ele>721</ele>
        <time>2021-06-01T07:28:16.000Z</time>
      </trkpt>
      <trkpt lat="44.13755" lon="5.88667">
        <ele>721</ele>
        <time>2021-06-01T07:28:17.000Z</time>
      </trkpt>
      <trkpt lat="44.13755" lon="5.88667">
        <ele>721</ele>
        <time>2021-06-01T07:28:18.000Z</time>
      </trkpt>
      <trkpt lat="44.13755" lon="5.88666">
        <ele>721</ele>
        <time>2021-06-01T07:28:19.000Z</time>
      </trkpt>
      <trkpt lat="44.13755" lon="5.88665">
        <ele>722</ele>
        <time>2021-06-01T07:28:20.000Z</time>
      </trkpt>
      <trkpt lat="44.13756" lon="5.88665">
        <ele>722</ele>
        <time>2021-06-01T07:28:21.000Z</time>
      </trkpt>
      <trkpt lat="44.13756" lon="5.88664">
        <ele>722</ele>
        <time>2021-06-01T07:28:22.000Z</time>
      </trkpt>
      <trkpt lat="44.13756" lon="5.88664">
        <ele>722</ele>
        <time>2021-06-01T07:28:23.000Z</time>
      </trkpt>
      <trkpt lat="44.13756" lon="5.88664">
        <ele>722</ele>
        <time>2021-06-01T07:28:24.000Z</time>
      </trkpt>
      <trkpt lat="44.13757" lon="5.88664">
        <ele>722</ele>
        <time>2021-06-01T07:28:25.000Z</time>
      </trkpt>
      <trkpt lat="44.13757" lon="5.88664">
        <ele>722</ele>
        <time>2021-06-01T07:28:26.000Z</time>
      </trkpt>
      <trkpt lat="44.13757" lon="5.88664">
        <ele>722</ele>
        <time>2021-06-01T07:28:27.000Z</time>
      </trkpt>
      <trkpt lat="44.13757" lon="5.88664">
        <ele>723</ele>
        <time>2021-06-01T07:28:28.000Z</time>
      </trkpt>
      <trkpt lat="44.13757" lon="5.88665">
        <ele>723</ele>
        <time>2021-06-01T07:28:29.000Z</time>
      </trkpt>
      <trkpt lat="44.13757" lon="5.88665">
        <ele>723</ele>
        <time>2021-06-01T07:28:30.000Z</time>
      </trkpt>
      <trkpt lat="44.13756" lon="5.88666">
        <ele>723</ele>
        <time>2021-06-01T07:28:31.000Z</time>
      </trkpt>
      <trkpt lat="44.13756" lon="5.88666">
        <ele>723</ele>
        <time>2021-06-01T07:28:32.000Z</time>
      </trkpt>
      <trkpt lat="44.13756" lon="5.88667">
        <ele>723</ele>
        <time>2021-06-01T07:28:33.000Z</time>
      </trkpt>
      <trkpt lat="44.13755" lon="5.88668">
        <ele>724</ele>
        <time>2021-06-01T07:28:34.000Z</time>
      </trkpt>
      <trkpt lat="44.13755" lon="5.88669">
        <ele>724</ele>
        <time>2021-06-01T07:28:35.000Z</time>
      </trkpt>
      <trkpt lat="44.13755" lon="5.8867">
        <ele>724</ele>
        <time>2021-06-01T07:28:36.000Z</time>
      </trkpt>
      <trkpt lat="44.13754" lon="5.88671">
        <ele>724</ele>
        <time>2021-06-01T07:28:37.000Z</time>
      </trkpt>
      <trkpt lat="44.13754" lon="5.88672">
        <ele>724</ele>
        <time>2021-06-01T07:28:38.000Z</time>
      </trkpt>
      <trkpt lat="44.13753" lon="5.88673">
        <ele>725</ele>
        <time>2021-06-01T07:28:39.000Z</time>
      </trkpt>
      <trkpt lat="44.13753" lon="5.88673">
        <ele>725</ele>
        <time>2021-06-01T07:28:40.000Z</time>
      </trkpt>
      <trkpt lat="44.13753" lon="5.88674">
        <ele>725</ele>
        <time>2021-06-01T07:28:41.000Z</time>
      </trkpt>
      <trkpt lat="44.13752" lon="5.88674">
        <ele>725</ele>
        <time>2021-06-01T07:28:42.000Z</time>
      </trkpt>
      <trkpt lat="44.13752" lon="5.88674">
        <ele>725</ele>
        <time>2021-06-01T07:28:43.000Z</time>
      </trkpt>
      <trkpt lat="44.13751" lon="5.88675">
        <ele>725</ele>
        <time>2021-06-01T07:28:44.000Z</time>
      </trkpt>
      <trkpt lat="44.13751" lon="5.88675">
        <ele>726</ele>
        <time>2021-06-01T07:28:45.000Z</time>
      </trkpt>
      <trkpt lat="44.13751" lon="5.88676">
        <ele>726</ele>
        <time>2021-06-01T07:28:46.000Z</time>
      </trkpt>
      <trkpt lat="44.13751" lon="5.88676">
        <ele>726</ele>
        <time>2021-06-01T07:28:47.000Z</time>
      </trkpt>
      <trkpt lat="44.1375" lon="5.88677">
        <ele>726</ele>
        <time>2021-06-01T07:28:48.000Z</time>
      </trkpt>
      <trkpt lat="44.1375" lon="5.88677">
        <ele>726</ele>
        <time>2021-06-01T07:28:49.000Z</time>
      </trkpt>
      <trkpt lat="44.1375" lon="5.88678">
        <ele>726</ele>
        <time>2021-06-01T07:28:50.000Z</time>
      </trkpt>
      <trkpt lat="44.13749" lon="5.8868">
        <ele>726</ele>
        <time>2021-06-01T07:28:51.000Z</time>
      </trkpt>
      <trkpt lat="44.13749" lon="5.88681">
        <ele>726</ele>
        <time>2021-06-01T07:28:52.000Z</time>
      </trkpt>
      <trkpt lat="44.13749" lon="5.88682">
        <ele>726</ele>
        <time>2021-06-01T07:28:53.000Z</time>
      </trkpt>
      <trkpt lat="44.13748" lon="5.88683">
        <ele>726</ele>
        <time>2021-06-01T07:28:54.000Z</time>
      </trkpt>
      <trkpt lat="44.13748" lon="5.88684">
        <ele>727</ele>
        <time>2021-06-01T07:28:55.000Z</time>
      </trkpt>
      <trkpt lat="44.13747" lon="5.88685">
        <ele>727</ele>
        <time>2021-06-01T07:28:56.000Z</time>
      </trkpt>
      <trkpt lat="44.13747" lon="5.88685">
        <ele>727</ele>
        <time>2021-06-01T07:28:57.000Z</time>
      </trkpt>
      <trkpt lat="44.13746" lon="5.88686">
        <ele>727</ele>
        <time>2021-06-01T07:28:58.000Z</time>
      </trkpt>
      <trkpt lat="44.13746" lon="5.88686">
        <ele>727</ele>
        <time>2021-06-01T07:28:59.000Z</time>
      </trkpt>
      <trkpt lat="44.13746" lon="5.88686">
        <ele>727</ele>
        <time>2021-06-01T07:29:00.000Z</time>
      </trkpt>
      <trkpt lat="44.13745" lon="5.88687">
        <ele>727</ele>
        <time>2021-06-01T07:29:01.000Z</time>
      </trkpt>
      <trkpt lat="44.13745" lon="5.88687">
        <ele>728</ele>
        <time>2021-06-01T07:29:02.000Z</time>
      </trkpt>
      <trkpt lat="44.13745" lon="5.88687">
        <ele>728</ele>
        <time>2021-06-01T07:29:03.000Z</time>
      </trkpt>
      <trkpt lat="44.13744" lon="5.88688">
        <ele>728</ele>
        <time>2021-06-01T07:29:04.000Z</time>
      </trkpt>
      <trkpt lat="44.13744" lon="5.88689">
        <ele>728</ele>
        <time>2021-06-01T07:29:05.000Z</time>
      </trkpt>
      <trkpt lat="44.13743" lon="5.88689">
        <ele>728</ele>
        <time>2021-06-01T07:29:06.000Z</time>
      </trkpt>
      <trkpt lat="44.13743" lon="5.8869">
        <ele>728</ele>
        <time>2021-06-01T07:29:07.000Z</time>
      </trkpt>
      <trkpt lat="44.13742" lon="5.88691">
        <ele>729</ele>
        <time>2021-06-01T07:29:08.000Z</time>
      </trkpt>
      <trkpt lat="44.13742" lon="5.88691">
        <ele>729</ele>
        <time>2021-06-01T07:29:09.000Z</time>
      </trkpt>
      <trkpt lat="44.13741" lon="5.88691">
        <ele>729</ele>
        <time>2021-06-01T07:29:10.000Z</time>
      </trkpt>
      <trkpt lat="44.13741" lon="5.88691">
        <ele>729</ele>
        <time>2021-06-01T07:29:11.000Z</time>
      </trkpt>
      <trkpt lat="44.1374" lon="5.88692">
        <ele>729</ele>
        <time>2021-06-01T07:29:12.000Z</time>
      </trkpt>
      <trkpt lat="44.1374" lon="5.88692">
        <ele>729</ele>
        <time>2021-06-01T07:29:13.000Z</time>
      </trkpt>
      <trkpt lat="44.1374" lon="5.88692">
        <ele>729</ele>
        <time>2021-06-01T07:29:14.000Z</time>
      </trkpt>
      <trkpt lat="44.1374" lon="5.88693">
        <ele>729</ele>
        <time>2021-06-01T07:29:15.000Z</time>
      </trkpt>
      <trkpt lat="44.1374" lon="5.88693">
        <ele>729</ele>
        <time>2021-06-01T07:29:16.000Z</time>
      </trkpt>
      <trkpt lat="44.1374" lon="5.88694">
        <ele>729</ele>
        <time>2021-06-01T07:29:17.000Z</time>
      </trkpt>
      <trkpt lat="44.1374" lon="5.88695">
        <ele>730</ele>
        <time>2021-06-01T07:29:18.000Z</time>
      </trkpt>
      <trkpt lat="44.13739" lon="5.88696">
        <ele>730</ele>
        <time>2021-06-01T07:29:19.000Z</time>
      </trkpt>
      <trkpt lat="44.13739" lon="5.88696">
        <ele>730</ele>
        <time>2021-06-01T07:29:20.000Z</time>
      </trkpt>
      <trkpt lat="44.13738" lon="5.88697">
        <ele>730</ele>
        <time>2021-06-01T07:29:21.000Z</time>
      </trkpt>
      <trkpt lat="44.13738" lon="5.88697">
        <ele>730</ele>
        <time>2021-06-01T07:29:22.000Z</time>
      </trkpt>
      <trkpt lat="44.13737" lon="5.88697">
        <ele>730</ele>
        <time>2021-06-01T07:29:23.000Z</time>
      </trkpt>
      <trkpt lat="44.13737" lon="5.88696">
        <ele>730</ele>
        <time>2021-06-01T07:29:24.000Z</time>
      </trkpt>
      <trkpt lat="44.13736" lon="5.88696">
        <ele>730</ele>
        <time>2021-06-01T07:29:25.000Z</time>
      </trkpt>
      <trkpt lat="44.13736" lon="5.88695">
        <ele>730</ele>
        <time>2021-06-01T07:29:26.000Z</time>
      </trkpt>
      <trkpt lat="44.13736" lon="5.88695">
        <ele>730</ele>
        <time>2021-06-01T07:29:27.000Z</time>
      </trkpt>
      <trkpt lat="44.13736" lon="5.88694">
        <ele>730</ele>
        <time>2021-06-01T07:29:28.000Z</time>
      </trkpt>
      <trkpt lat="44.13735" lon="5.88694">
        <ele>730</ele>
        <time>2021-06-01T07:29:29.000Z</time>
      </trkpt>
      <trkpt lat="44.13735" lon="5.88693">
        <ele>730</ele>
        <time>2021-06-01T07:29:30.000Z</time>
      </trkpt>
      <trkpt lat="44.13735" lon="5.88692">
        <ele>730</ele>
        <time>2021-06-01T07:29:31.000Z</time>
      </trkpt>
      <trkpt lat="44.13735" lon="5.88691">
        <ele>730</ele>
        <time>2021-06-01T07:29:32.000Z</time>
      </trkpt>
      <trkpt lat="44.13735" lon="5.8869">
        <ele>730</ele>
        <time>2021-06-01T07:29:33.000Z</time>
      </trkpt>
      <trkpt lat="44.13735" lon="5.88689">
        <ele>730</ele>
        <time>2021-06-01T07:29:34.000Z</time>
      </trkpt>
      <trkpt lat="44.13735" lon="5.88688">
        <ele>730</ele>
        <time>2021-06-01T07:29:35.000Z</time>
      </trkpt>
      <trkpt lat="44.13735" lon="5.88688">
        <ele>731</ele>
        <time>2021-06-01T07:29:36.000Z</time>
      </trkpt>
      <trkpt lat="44.13734" lon="5.88687">
        <ele>731</ele>
        <time>2021-06-01T07:29:37.000Z</time>
      </trkpt>
      <trkpt lat="44.13734" lon="5.88686">
        <ele>731</ele>
        <time>2021-06-01T07:29:38.000Z</time>
      </trkpt>
      <trkpt lat="44.13734" lon="5.88685">
        <ele>731</ele>
        <time>2021-06-01T07:29:39.000Z</time>
      </trkpt>
      <trkpt lat="44.13735" lon="5.88684">
        <ele>731</ele>
        <time>2021-06-01T07:29:40.000Z</time>
      </trkpt>
      <trkpt lat="44.13735" lon="5.88683">
        <ele>731</ele>
        <time>2021-06-01T07:29:41.000Z</time>
      </trkpt>
      <trkpt lat="44.13735" lon="5.88682">
        <ele>731</ele>
        <time>2021-06-01T07:29:42.000Z</time>
      </trkpt>
      <trkpt lat="44.13735" lon="5.88682">
        <ele>731</ele>
        <time>2021-06-01T07:29:43.000Z</time>
      </trkpt>
      <trkpt lat="44.13735" lon="5.88681">
        <ele>731</ele>
        <time>2021-06-01T07:29:44.000Z</time>
      </trkpt>
      <trkpt lat="44.13736" lon="5.8868">
        <ele>732</ele>
        <time>2021-06-01T07:29:45.000Z</time>
      </trkpt>
      <trkpt lat="44.13736" lon="5.88679">
        <ele>732</ele>
        <time>2021-06-01T07:29:46.000Z</time>
      </trkpt>
      <trkpt lat="44.13736" lon="5.88679">
        <ele>732</ele>
        <time>2021-06-01T07:29:47.000Z</time>
      </trkpt>
      <trkpt lat="44.13736" lon="5.88679">
        <ele>732</ele>
        <time>2021-06-01T07:29:48.000Z</time>
      </trkpt>
      <trkpt lat="44.13736" lon="5.88678">
        <ele>732</ele>
        <time>2021-06-01T07:29:49.000Z</time>
      </trkpt>
      <trkpt lat="44.13736" lon="5.88678">
        <ele>732</ele>
        <time>2021-06-01T07:29:50.000Z</time>
      </trkpt>
      <trkpt lat="44.13736" lon="5.88678">
        <ele>732</ele>
        <time>2021-06-01T07:29:51.000Z</time>
      </trkpt>
      <trkpt lat="44.13735" lon="5.88678">
        <ele>733</ele>
        <time>2021-06-01T07:29:52.000Z</time>
      </trkpt>
      <trkpt lat="44.13734" lon="5.88677">
        <ele>733</ele>
        <time>2021-06-01T07:29:53.000Z</time>
      </trkpt>
      <trkpt lat="44.13734" lon="5.88678">
        <ele>733</ele>
        <time>2021-06-01T07:29:54.000Z</time>
      </trkpt>
      <trkpt lat="44.13734" lon="5.88678">
        <ele>733</ele>
        <time>2021-06-01T07:29:55.000Z</time>
      </trkpt>
      <trkpt lat="44.13733" lon="5.88678">
        <ele>734</ele>
        <time>2021-06-01T07:29:56.000Z</time>
      </trkpt>
      <trkpt lat="44.13733" lon="5.88679">
        <ele>734</ele>
        <time>2021-06-01T07:29:57.000Z</time>
      </trkpt>
      <trkpt lat="44.13732" lon="5.88679">
        <ele>734</ele>
        <time>2021-06-01T07:29:58.000Z</time>
      </trkpt>
      <trkpt lat="44.13732" lon="5.88679">
        <ele>734</ele>
        <time>2021-06-01T07:29:59.000Z</time>
      </trkpt>
      <trkpt lat="44.13732" lon="5.88679">
        <ele>734</ele>
        <time>2021-06-01T07:30:00.000Z</time>
      </trkpt>
      <trkpt lat="44.13732" lon="5.88679">
        <ele>734</ele>
        <time>2021-06-01T07:30:01.000Z</time>
      </trkpt>
      <trkpt lat="44.13731" lon="5.8868">
        <ele>734</ele>
        <time>2021-06-01T07:30:02.000Z</time>
      </trkpt>
      <trkpt lat="44.1373" lon="5.8868">
        <ele>735</ele>
        <time>2021-06-01T07:30:03.000Z</time>
      </trkpt>
      <trkpt lat="44.1373" lon="5.88679">
        <ele>735</ele>
        <time>2021-06-01T07:30:04.000Z</time>
      </trkpt>
      <trkpt lat="44.1373" lon="5.88679">
        <ele>735</ele>
        <time>2021-06-01T07:30:05.000Z</time>
      </trkpt>
      <trkpt lat="44.13729" lon="5.88679">
        <ele>735</ele>
        <time>2021-06-01T07:30:06.000Z</time>
      </trkpt>
      <trkpt lat="44.13729" lon="5.88678">
        <ele>735</ele>
        <time>2021-06-01T07:30:07.000Z</time>
      </trkpt>
      <trkpt lat="44.13729" lon="5.88678">
        <ele>736</ele>
        <time>2021-06-01T07:30:08.000Z</time>
      </trkpt>
      <trkpt lat="44.13729" lon="5.88678">
        <ele>736</ele>
        <time>2021-06-01T07:30:09.000Z</time>
      </trkpt>
      <trkpt lat="44.13728" lon="5.88678">
        <ele>736</ele>
        <time>2021-06-01T07:30:10.000Z</time>
      </trkpt>
      <trkpt lat="44.13728" lon="5.88678">
        <ele>736</ele>
        <time>2021-06-01T07:30:11.000Z</time>
      </trkpt>
      <trkpt lat="44.13728" lon="5.88678">
        <ele>736</ele>
        <time>2021-06-01T07:30:12.000Z</time>
      </trkpt>
      <trkpt lat="44.13728" lon="5.88678">
        <ele>736</ele>
        <time>2021-06-01T07:30:13.000Z</time>
      </trkpt>
      <trkpt lat="44.13728" lon="5.88678">
        <ele>736</ele>
        <time>2021-06-01T07:30:14.000Z</time>
      </trkpt>
      <trkpt lat="44.13728" lon="5.88678">
        <ele>736</ele>
        <time>2021-06-01T07:30:15.000Z</time>
      </trkpt>
      <trkpt lat="44.13728" lon="5.88678">
        <ele>736</ele>
        <time>2021-06-01T07:30:16.000Z</time>
      </trkpt>
      <trkpt lat="44.13728" lon="5.88677">
        <ele>736</ele>
        <time>2021-06-01T07:30:17.000Z</time>
      </trkpt>
      <trkpt lat="44.13728" lon="5.88677">
        <ele>736</ele>
        <time>2021-06-01T07:30:18.000Z</time>
      </trkpt>
      <trkpt lat="44.13728" lon="5.88676">
        <ele>736</ele>
        <time>2021-06-01T07:30:19.000Z</time>
      </trkpt>
      <trkpt lat="44.13728" lon="5.88675">
        <ele>737</ele>
        <time>2021-06-01T07:30:20.000Z</time>
      </trkpt>
      <trkpt lat="44.13727" lon="5.88675">
        <ele>737</ele>
        <time>2021-06-01T07:30:21.000Z</time>
      </trkpt>
      <trkpt lat="44.13727" lon="5.88674">
        <ele>737</ele>
        <time>2021-06-01T07:30:22.000Z</time>
      </trkpt>
      <trkpt lat="44.13727" lon="5.88673">
        <ele>737</ele>
        <time>2021-06-01T07:30:23.000Z</time>
      </trkpt>
      <trkpt lat="44.13727" lon="5.88672">
        <ele>737</ele>
        <time>2021-06-01T07:30:24.000Z</time>
      </trkpt>
      <trkpt lat="44.13728" lon="5.88671">
        <ele>737</ele>
        <time>2021-06-01T07:30:25.000Z</time>
      </trkpt>
      <trkpt lat="44.13728" lon="5.8867">
        <ele>737</ele>
        <time>2021-06-01T07:30:26.000Z</time>
      </trkpt>
      <trkpt lat="44.13729" lon="5.88669">
        <ele>737</ele>
        <time>2021-06-01T07:30:27.000Z</time>
      </trkpt>
      <trkpt lat="44.13729" lon="5.88668">
        <ele>737</ele>
        <time>2021-06-01T07:30:28.000Z</time>
      </trkpt>
      <trkpt lat="44.13729" lon="5.88667">
        <ele>737</ele>
        <time>2021-06-01T07:30:29.000Z</time>
      </trkpt>
      <trkpt lat="44.1373" lon="5.88667">
        <ele>737</ele>
        <time>2021-06-01T07:30:30.000Z</time>
      </trkpt>
      <trkpt lat="44.1373" lon="5.88666">
        <ele>738</ele>
        <time>2021-06-01T07:30:31.000Z</time>
      </trkpt>
      <trkpt lat="44.1373" lon="5.88664">
        <ele>738</ele>
        <time>2021-06-01T07:30:32.000Z</time>
      </trkpt>
      <trkpt lat="44.13731" lon="5.88664">
        <ele>738</ele>
        <time>2021-06-01T07:30:33.000Z</time>
      </trkpt>
      <trkpt lat="44.13731" lon="5.88663">
        <ele>738</ele>
        <time>2021-06-01T07:30:34.000Z</time>
      </trkpt>
      <trkpt lat="44.13731" lon="5.88661">
        <ele>738</ele>
        <time>2021-06-01T07:30:35.000Z</time>
      </trkpt>
      <trkpt lat="44.1373" lon="5.8866">
        <ele>738</ele>
        <time>2021-06-01T07:30:36.000Z</time>
      </trkpt>
      <trkpt lat="44.1373" lon="5.88659">
        <ele>738</ele>
        <time>2021-06-01T07:30:37.000Z</time>
      </trkpt>
      <trkpt lat="44.1373" lon="5.88658">
        <ele>738</ele>
        <time>2021-06-01T07:30:38.000Z</time>
      </trkpt>
      <trkpt lat="44.13731" lon="5.88657">
        <ele>738</ele>
        <time>2021-06-01T07:30:39.000Z</time>
      </trkpt>
      <trkpt lat="44.13731" lon="5.88656">
        <ele>737</ele>
        <time>2021-06-01T07:30:40.000Z</time>
      </trkpt>
      <trkpt lat="44.13731" lon="5.88655">
        <ele>737</ele>
        <time>2021-06-01T07:30:41.000Z</time>
      </trkpt>
      <trkpt lat="44.13731" lon="5.88654">
        <ele>737</ele>
        <time>2021-06-01T07:30:42.000Z</time>
      </trkpt>
      <trkpt lat="44.13731" lon="5.88653">
        <ele>737</ele>
        <time>2021-06-01T07:30:43.000Z</time>
      </trkpt>
      <trkpt lat="44.13731" lon="5.88651">
        <ele>737</ele>
        <time>2021-06-01T07:30:44.000Z</time>
      </trkpt>
      <trkpt lat="44.13731" lon="5.88649">
        <ele>737</ele>
        <time>2021-06-01T07:30:45.000Z</time>
      </trkpt>
      <trkpt lat="44.13732" lon="5.88648">
        <ele>737</ele>
        <time>2021-06-01T07:30:46.000Z</time>
      </trkpt>
      <trkpt lat="44.13732" lon="5.88647">
        <ele>737</ele>
        <time>2021-06-01T07:30:47.000Z</time>
      </trkpt>
      <trkpt lat="44.13732" lon="5.88646">
        <ele>737</ele>
        <time>2021-06-01T07:30:48.000Z</time>
      </trkpt>
      <trkpt lat="44.13731" lon="5.88645">
        <ele>737</ele>
        <time>2021-06-01T07:30:49.000Z</time>
      </trkpt>
      <trkpt lat="44.13731" lon="5.88644">
        <ele>737</ele>
        <time>2021-06-01T07:30:50.000Z</time>
      </trkpt>
      <trkpt lat="44.13731" lon="5.88643">
        <ele>737</ele>
        <time>2021-06-01T07:30:51.000Z</time>
      </trkpt>
      <trkpt lat="44.13731" lon="5.88642">
        <ele>737</ele>
        <time>2021-06-01T07:30:52.000Z</time>
      </trkpt>
      <trkpt lat="44.1373" lon="5.8864">
        <ele>737</ele>
        <time>2021-06-01T07:30:53.000Z</time>
      </trkpt>
      <trkpt lat="44.1373" lon="5.88639">
        <ele>737</ele>
        <time>2021-06-01T07:30:54.000Z</time>
      </trkpt>
      <trkpt lat="44.1373" lon="5.88639">
        <ele>737</ele>
        <time>2021-06-01T07:30:55.000Z</time>
      </trkpt>
      <trkpt lat="44.13729" lon="5.88638">
        <ele>737</ele>
        <time>2021-06-01T07:30:56.000Z</time>
      </trkpt>
      <trkpt lat="44.13729" lon="5.88637">
        <ele>737</ele>
        <time>2021-06-01T07:30:57.000Z</time>
      </trkpt>
      <trkpt lat="44.13728" lon="5.88635">
        <ele>738</ele>
        <time>2021-06-01T07:30:58.000Z</time>
      </trkpt>
      <trkpt lat="44.13728" lon="5.88634">
        <ele>738</ele>
        <time>2021-06-01T07:30:59.000Z</time>
      </trkpt>
      <trkpt lat="44.13728" lon="5.88633">
        <ele>738</ele>
        <time>2021-06-01T07:31:00.000Z</time>
      </trkpt>
      <trkpt lat="44.13727" lon="5.88632">
        <ele>738</ele>
        <time>2021-06-01T07:31:01.000Z</time>
      </trkpt>
      <trkpt lat="44.13727" lon="5.88631">
        <ele>738</ele>
        <time>2021-06-01T07:31:02.000Z</time>
      </trkpt>
      <trkpt lat="44.13726" lon="5.8863">
        <ele>738</ele>
        <time>2021-06-01T07:31:03.000Z</time>
      </trkpt>
      <trkpt lat="44.13726" lon="5.88629">
        <ele>738</ele>
        <time>2021-06-01T07:31:04.000Z</time>
      </trkpt>
      <trkpt lat="44.13726" lon="5.88627">
        <ele>738</ele>
        <time>2021-06-01T07:31:05.000Z</time>
      </trkpt>
      <trkpt lat="44.13725" lon="5.88627">
        <ele>738</ele>
        <time>2021-06-01T07:31:06.000Z</time>
      </trkpt>
      <trkpt lat="44.13725" lon="5.88626">
        <ele>739</ele>
        <time>2021-06-01T07:31:07.000Z</time>
      </trkpt>
      <trkpt lat="44.13724" lon="5.88625">
        <ele>739</ele>
        <time>2021-06-01T07:31:08.000Z</time>
      </trkpt>
      <trkpt lat="44.13724" lon="5.88624">
        <ele>739</ele>
        <time>2021-06-01T07:31:09.000Z</time>
      </trkpt>
      <trkpt lat="44.13723" lon="5.88624">
        <ele>739</ele>
        <time>2021-06-01T07:31:10.000Z</time>
      </trkpt>
      <trkpt lat="44.13723" lon="5.88623">
        <ele>739</ele>
        <time>2021-06-01T07:31:11.000Z</time>
      </trkpt>
      <trkpt lat="44.13723" lon="5.88622">
        <ele>739</ele>
        <time>2021-06-01T07:31:12.000Z</time>
      </trkpt>
      <trkpt lat="44.13723" lon="5.88621">
        <ele>739</ele>
        <time>2021-06-01T07:31:13.000Z</time>
      </trkpt>
      <trkpt lat="44.13723" lon="5.8862">
        <ele>739</ele>
        <time>2021-06-01T07:31:14.000Z</time>
      </trkpt>
      <trkpt lat="44.13722" lon="5.88619">
        <ele>740</ele>
        <time>2021-06-01T07:31:15.000Z</time>
      </trkpt>
      <trkpt lat="44.13722" lon="5.88617">
        <ele>740</ele>
        <time>2021-06-01T07:31:16.000Z</time>
      </trkpt>
      <trkpt lat="44.13721" lon="5.88616">
        <ele>740</ele>
        <time>2021-06-01T07:31:17.000Z</time>
      </trkpt>
      <trkpt lat="44.13721" lon="5.88615">
        <ele>740</ele>
        <time>2021-06-01T07:31:18.000Z</time>
      </trkpt>
      <trkpt lat="44.1372" lon="5.88614">
        <ele>740</ele>
        <time>2021-06-01T07:31:19.000Z</time>
      </trkpt>
      <trkpt lat="44.13719" lon="5.88613">
        <ele>740</ele>
        <time>2021-06-01T07:31:20.000Z</time>
      </trkpt>
      <trkpt lat="44.13719" lon="5.88611">
        <ele>740</ele>
        <time>2021-06-01T07:31:21.000Z</time>
      </trkpt>
      <trkpt lat="44.13719" lon="5.8861">
        <ele>740</ele>
        <time>2021-06-01T07:31:22.000Z</time>
      </trkpt>
      <trkpt lat="44.13719" lon="5.8861">
        <ele>740</ele>
        <time>2021-06-01T07:31:23.000Z</time>
      </trkpt>
      <trkpt lat="44.13719" lon="5.88609">
        <ele>740</ele>
        <time>2021-06-01T07:31:24.000Z</time>
      </trkpt>
      <trkpt lat="44.13719" lon="5.88608">
        <ele>740</ele>
        <time>2021-06-01T07:31:25.000Z</time>
      </trkpt>
      <trkpt lat="44.13719" lon="5.88607">
        <ele>740</ele>
        <time>2021-06-01T07:31:26.000Z</time>
      </trkpt>
      <trkpt lat="44.13719" lon="5.88606">
        <ele>740</ele>
        <time>2021-06-01T07:31:27.000Z</time>
      </trkpt>
      <trkpt lat="44.13719" lon="5.88604">
        <ele>741</ele>
        <time>2021-06-01T07:31:28.000Z</time>
      </trkpt>
      <trkpt lat="44.13719" lon="5.88603">
        <ele>741</ele>
        <time>2021-06-01T07:31:29.000Z</time>
      </trkpt>
      <trkpt lat="44.13719" lon="5.88602">
        <ele>741</ele>
        <time>2021-06-01T07:31:30.000Z</time>
      </trkpt>
      <trkpt lat="44.13719" lon="5.886">
        <ele>741</ele>
        <time>2021-06-01T07:31:31.000Z</time>
      </trkpt>
      <trkpt lat="44.13719" lon="5.88599">
        <ele>741</ele>
        <time>2021-06-01T07:31:32.000Z</time>
      </trkpt>
      <trkpt lat="44.13719" lon="5.88597">
        <ele>741</ele>
        <time>2021-06-01T07:31:33.000Z</time>
      </trkpt>
      <trkpt lat="44.13719" lon="5.88596">
        <ele>741</ele>
        <time>2021-06-01T07:31:34.000Z</time>
      </trkpt>
      <trkpt lat="44.13719" lon="5.88595">
        <ele>741</ele>
        <time>2021-06-01T07:31:35.000Z</time>
      </trkpt>
      <trkpt lat="44.13719" lon="5.88594">
        <ele>741</ele>
        <time>2021-06-01T07:31:36.000Z</time>
      </trkpt>
      <trkpt lat="44.13719" lon="5.88593">
        <ele>741</ele>
        <time>2021-06-01T07:31:37.000Z</time>
      </trkpt>
      <trkpt lat="44.13719" lon="5.88592">
        <ele>741</ele>
        <time>2021-06-01T07:31:38.000Z</time>
      </trkpt>
      <trkpt lat="44.13719" lon="5.88591">
        <ele>741</ele>
        <time>2021-06-01T07:31:39.000Z</time>
      </trkpt>
      <trkpt lat="44.13718" lon="5.8859">
        <ele>741</ele>
        <time>2021-06-01T07:31:40.000Z</time>
      </trkpt>
      <trkpt lat="44.13718" lon="5.88589">
        <ele>741</ele>
        <time>2021-06-01T07:31:41.000Z</time>
      </trkpt>
      <trkpt lat="44.13717" lon="5.88588">
        <ele>742</ele>
        <time>2021-06-01T07:31:42.000Z</time>
      </trkpt>
      <trkpt lat="44.13717" lon="5.88587">
        <ele>742</ele>
        <time>2021-06-01T07:31:43.000Z</time>
      </trkpt>
      <trkpt lat="44.13716" lon="5.88586">
        <ele>742</ele>
        <time>2021-06-01T07:31:44.000Z</time>
      </trkpt>
      <trkpt lat="44.13716" lon="5.88585">
        <ele>742</ele>
        <time>2021-06-01T07:31:45.000Z</time>
      </trkpt>
      <trkpt lat="44.13716" lon="5.88584">
        <ele>742</ele>
        <time>2021-06-01T07:31:46.000Z</time>
      </trkpt>
      <trkpt lat="44.13715" lon="5.88583">
        <ele>742</ele>
        <time>2021-06-01T07:31:47.000Z</time>
      </trkpt>
      <trkpt lat="44.13714" lon="5.88582">
        <ele>742</ele>
        <time>2021-06-01T07:31:48.000Z</time>
      </trkpt>
      <trkpt lat="44.13714" lon="5.88581">
        <ele>743</ele>
        <time>2021-06-01T07:31:49.000Z</time>
      </trkpt>
      <trkpt lat="44.13713" lon="5.8858">
        <ele>743</ele>
        <time>2021-06-01T07:31:50.000Z</time>
      </trkpt>
      <trkpt lat="44.13713" lon="5.8858">
        <ele>743</ele>
        <time>2021-06-01T07:31:51.000Z</time>
      </trkpt>
      <trkpt lat="44.13712" lon="5.88579">
        <ele>743</ele>
        <time>2021-06-01T07:31:52.000Z</time>
      </trkpt>
      <trkpt lat="44.13711" lon="5.88578">
        <ele>743</ele>
        <time>2021-06-01T07:31:53.000Z</time>
      </trkpt>
      <trkpt lat="44.13711" lon="5.88577">
        <ele>743</ele>
        <time>2021-06-01T07:31:54.000Z</time>
      </trkpt>
      <trkpt lat="44.1371" lon="5.88576">
        <ele>743</ele>
        <time>2021-06-01T07:31:55.000Z</time>
      </trkpt>
      <trkpt lat="44.13709" lon="5.88575">
        <ele>743</ele>
        <time>2021-06-01T07:31:56.000Z</time>
      </trkpt>
      <trkpt lat="44.13709" lon="5.88574">
        <ele>744</ele>
        <time>2021-06-01T07:31:57.000Z</time>
      </trkpt>
      <trkpt lat="44.13708" lon="5.88573">
        <ele>744</ele>
        <time>2021-06-01T07:31:58.000Z</time>
      </trkpt>
      <trkpt lat="44.13708" lon="5.88572">
        <ele>744</ele>
        <time>2021-06-01T07:31:59.000Z</time>
      </trkpt>
      <trkpt lat="44.13708" lon="5.88571">
        <ele>744</ele>
        <time>2021-06-01T07:32:00.000Z</time>
      </trkpt>
      <trkpt lat="44.13707" lon="5.88569">
        <ele>744</ele>
        <time>2021-06-01T07:32:01.000Z</time>
      </trkpt>
      <trkpt lat="44.13707" lon="5.88568">
        <ele>744</ele>
        <time>2021-06-01T07:32:02.000Z</time>
      </trkpt>
      <trkpt lat="44.13706" lon="5.88567">
        <ele>744</ele>
        <time>2021-06-01T07:32:03.000Z</time>
      </trkpt>
      <trkpt lat="44.13706" lon="5.88566">
        <ele>744</ele>
        <time>2021-06-01T07:32:04.000Z</time>
      </trkpt>
      <trkpt lat="44.13705" lon="5.88564">
        <ele>744</ele>
        <time>2021-06-01T07:32:05.000Z</time>
      </trkpt>
      <trkpt lat="44.13705" lon="5.88563">
        <ele>744</ele>
        <time>2021-06-01T07:32:06.000Z</time>
      </trkpt>
      <trkpt lat="44.13705" lon="5.88562">
        <ele>744</ele>
        <time>2021-06-01T07:32:07.000Z</time>
      </trkpt>
      <trkpt lat="44.13704" lon="5.88561">
        <ele>744</ele>
        <time>2021-06-01T07:32:08.000Z</time>
      </trkpt>
      <trkpt lat="44.13704" lon="5.8856">
        <ele>744</ele>
        <time>2021-06-01T07:32:09.000Z</time>
      </trkpt>
      <trkpt lat="44.13704" lon="5.88559">
        <ele>744</ele>
        <time>2021-06-01T07:32:10.000Z</time>
      </trkpt>
      <trkpt lat="44.13704" lon="5.88557">
        <ele>744</ele>
        <time>2021-06-01T07:32:11.000Z</time>
      </trkpt>
      <trkpt lat="44.13703" lon="5.88556">
        <ele>744</ele>
        <time>2021-06-01T07:32:12.000Z</time>
      </trkpt>
      <trkpt lat="44.13703" lon="5.88555">
        <ele>744</ele>
        <time>2021-06-01T07:32:13.000Z</time>
      </trkpt>
      <trkpt lat="44.13703" lon="5.88554">
        <ele>744</ele>
        <time>2021-06-01T07:32:14.000Z</time>
      </trkpt>
      <trkpt lat="44.13702" lon="5.88553">
        <ele>744</ele>
        <time>2021-06-01T07:32:15.000Z</time>
      </trkpt>
      <trkpt lat="44.13702" lon="5.88552">
        <ele>745</ele>
        <time>2021-06-01T07:32:16.000Z</time>
      </trkpt>
      <trkpt lat="44.13701" lon="5.88552">
        <ele>745</ele>
        <time>2021-06-01T07:32:17.000Z</time>
      </trkpt>
      <trkpt lat="44.137" lon="5.88551">
        <ele>745</ele>
        <time>2021-06-01T07:32:18.000Z</time>
      </trkpt>
      <trkpt lat="44.137" lon="5.88549">
        <ele>745</ele>
        <time>2021-06-01T07:32:19.000Z</time>
      </trkpt>
      <trkpt lat="44.13699" lon="5.88548">
        <ele>745</ele>
        <time>2021-06-01T07:32:20.000Z</time>
      </trkpt>
      <trkpt lat="44.13698" lon="5.88547">
        <ele>745</ele>
        <time>2021-06-01T07:32:21.000Z</time>
      </trkpt>
      <trkpt lat="44.13698" lon="5.88546">
        <ele>745</ele>
        <time>2021-06-01T07:32:22.000Z</time>
      </trkpt>
      <trkpt lat="44.13697" lon="5.88545">
        <ele>745</ele>
        <time>2021-06-01T07:32:23.000Z</time>
      </trkpt>
      <trkpt lat="44.13696" lon="5.88544">
        <ele>745</ele>
        <time>2021-06-01T07:32:24.000Z</time>
      </trkpt>
      <trkpt lat="44.13695" lon="5.88543">
        <ele>745</ele>
        <time>2021-06-01T07:32:25.000Z</time>
      </trkpt>
      <trkpt lat="44.13694" lon="5.88543">
        <ele>745</ele>
        <time>2021-06-01T07:32:26.000Z</time>
      </trkpt>
      <trkpt lat="44.13693" lon="5.88542">
        <ele>746</ele>
        <time>2021-06-01T07:32:27.000Z</time>
      </trkpt>
      <trkpt lat="44.13693" lon="5.88542">
        <ele>746</ele>
        <time>2021-06-01T07:32:28.000Z</time>
      </trkpt>
      <trkpt lat="44.13692" lon="5.88541">
        <ele>746</ele>
        <time>2021-06-01T07:32:29.000Z</time>
      </trkpt>
      <trkpt lat="44.13691" lon="5.8854">
        <ele>746</ele>
        <time>2021-06-01T07:32:30.000Z</time>
      </trkpt>
      <trkpt lat="44.1369" lon="5.88539">
        <ele>746</ele>
        <time>2021-06-01T07:32:31.000Z</time>
      </trkpt>
      <trkpt lat="44.13689" lon="5.88538">
        <ele>746</ele>
        <time>2021-06-01T07:32:32.000Z</time>
      </trkpt>
      <trkpt lat="44.13688" lon="5.88537">
        <ele>746</ele>
        <time>2021-06-01T07:32:33.000Z</time>
      </trkpt>
      <trkpt lat="44.13688" lon="5.88536">
        <ele>746</ele>
        <time>2021-06-01T07:32:34.000Z</time>
      </trkpt>
      <trkpt lat="44.13687" lon="5.88535">
        <ele>746</ele>
        <time>2021-06-01T07:32:35.000Z</time>
      </trkpt>
      <trkpt lat="44.13686" lon="5.88534">
        <ele>746</ele>
        <time>2021-06-01T07:32:36.000Z</time>
      </trkpt>
      <trkpt lat="44.13685" lon="5.88534">
        <ele>746</ele>
        <time>2021-06-01T07:32:37.000Z</time>
      </trkpt>
      <trkpt lat="44.13685" lon="5.88533">
        <ele>746</ele>
        <time>2021-06-01T07:32:38.000Z</time>
      </trkpt>
      <trkpt lat="44.13685" lon="5.88533">
        <ele>746</ele>
        <time>2021-06-01T07:32:39.000Z</time>
      </trkpt>
      <trkpt lat="44.13685" lon="5.88533">
        <ele>747</ele>
        <time>2021-06-01T07:32:40.000Z</time>
      </trkpt>
      <trkpt lat="44.13684" lon="5.88533">
        <ele>747</ele>
        <time>2021-06-01T07:32:41.000Z</time>
      </trkpt>
      <trkpt lat="44.13684" lon="5.88532">
        <ele>747</ele>
        <time>2021-06-01T07:32:42.000Z</time>
      </trkpt>
      <trkpt lat="44.13683" lon="5.88532">
        <ele>747</ele>
        <time>2021-06-01T07:32:43.000Z</time>
      </trkpt>
      <trkpt lat="44.13682" lon="5.88531">
        <ele>747</ele>
        <time>2021-06-01T07:32:44.000Z</time>
      </trkpt>
      <trkpt lat="44.13681" lon="5.88531">
        <ele>747</ele>
        <time>2021-06-01T07:32:45.000Z</time>
      </trkpt>
      <trkpt lat="44.1368" lon="5.8853">
        <ele>747</ele>
        <time>2021-06-01T07:32:46.000Z</time>
      </trkpt>
      <trkpt lat="44.13679" lon="5.88529">
        <ele>748</ele>
        <time>2021-06-01T07:32:47.000Z</time>
      </trkpt>
      <trkpt lat="44.13678" lon="5.88528">
        <ele>748</ele>
        <time>2021-06-01T07:32:48.000Z</time>
      </trkpt>
      <trkpt lat="44.13677" lon="5.88527">
        <ele>748</ele>
        <time>2021-06-01T07:32:49.000Z</time>
      </trkpt>
      <trkpt lat="44.13676" lon="5.88527">
        <ele>748</ele>
        <time>2021-06-01T07:32:50.000Z</time>
      </trkpt>
      <trkpt lat="44.13676" lon="5.88526">
        <ele>748</ele>
        <time>2021-06-01T07:32:51.000Z</time>
      </trkpt>
      <trkpt lat="44.13675" lon="5.88526">
        <ele>748</ele>
        <time>2021-06-01T07:32:52.000Z</time>
      </trkpt>
      <trkpt lat="44.13674" lon="5.88525">
        <ele>748</ele>
        <time>2021-06-01T07:32:53.000Z</time>
      </trkpt>
      <trkpt lat="44.13673" lon="5.88525">
        <ele>749</ele>
        <time>2021-06-01T07:32:54.000Z</time>
      </trkpt>
      <trkpt lat="44.13673" lon="5.88524">
        <ele>749</ele>
        <time>2021-06-01T07:32:55.000Z</time>
      </trkpt>
      <trkpt lat="44.13672" lon="5.88523">
        <ele>749</ele>
        <time>2021-06-01T07:32:56.000Z</time>
      </trkpt>
      <trkpt lat="44.13671" lon="5.88523">
        <ele>749</ele>
        <time>2021-06-01T07:32:57.000Z</time>
      </trkpt>
      <trkpt lat="44.13671" lon="5.88522">
        <ele>749</ele>
        <time>2021-06-01T07:32:58.000Z</time>
      </trkpt>
      <trkpt lat="44.1367" lon="5.88521">
        <ele>749</ele>
        <time>2021-06-01T07:32:59.000Z</time>
      </trkpt>
      <trkpt lat="44.1367" lon="5.8852">
        <ele>749</ele>
        <time>2021-06-01T07:33:00.000Z</time>
      </trkpt>
      <trkpt lat="44.1367" lon="5.88518">
        <ele>749</ele>
        <time>2021-06-01T07:33:01.000Z</time>
      </trkpt>
      <trkpt lat="44.1367" lon="5.88517">
        <ele>749</ele>
        <time>2021-06-01T07:33:02.000Z</time>
      </trkpt>
      <trkpt lat="44.13669" lon="5.88515">
        <ele>749</ele>
        <time>2021-06-01T07:33:03.000Z</time>
      </trkpt>
      <trkpt lat="44.13669" lon="5.88514">
        <ele>749</ele>
        <time>2021-06-01T07:33:04.000Z</time>
      </trkpt>
      <trkpt lat="44.13668" lon="5.88513">
        <ele>750</ele>
        <time>2021-06-01T07:33:05.000Z</time>
      </trkpt>
      <trkpt lat="44.13667" lon="5.88512">
        <ele>750</ele>
        <time>2021-06-01T07:33:06.000Z</time>
      </trkpt>
      <trkpt lat="44.13667" lon="5.88511">
        <ele>750</ele>
        <time>2021-06-01T07:33:07.000Z</time>
      </trkpt>
      <trkpt lat="44.13667" lon="5.8851">
        <ele>750</ele>
        <time>2021-06-01T07:33:08.000Z</time>
      </trkpt>
      <trkpt lat="44.13666" lon="5.88509">
        <ele>750</ele>
        <time>2021-06-01T07:33:09.000Z</time>
      </trkpt>
      <trkpt lat="44.13666" lon="5.88508">
        <ele>750</ele>
        <time>2021-06-01T07:33:10.000Z</time>
      </trkpt>
      <trkpt lat="44.13666" lon="5.88507">
        <ele>750</ele>
        <time>2021-06-01T07:33:11.000Z</time>
      </trkpt>
      <trkpt lat="44.13665" lon="5.88507">
        <ele>750</ele>
        <time>2021-06-01T07:33:12.000Z</time>
      </trkpt>
      <trkpt lat="44.13664" lon="5.88506">
        <ele>750</ele>
        <time>2021-06-01T07:33:13.000Z</time>
      </trkpt>
      <trkpt lat="44.13663" lon="5.88505">
        <ele>750</ele>
        <time>2021-06-01T07:33:14.000Z</time>
      </trkpt>
      <trkpt lat="44.13663" lon="5.88505">
        <ele>750</ele>
        <time>2021-06-01T07:33:15.000Z</time>
      </trkpt>
      <trkpt lat="44.13662" lon="5.88503">
        <ele>749</ele>
        <time>2021-06-01T07:33:16.000Z</time>
      </trkpt>
      <trkpt lat="44.13662" lon="5.88502">
        <ele>750</ele>
        <time>2021-06-01T07:33:17.000Z</time>
      </trkpt>
      <trkpt lat="44.13661" lon="5.88501">
        <ele>750</ele>
        <time>2021-06-01T07:33:18.000Z</time>
      </trkpt>
      <trkpt lat="44.1366" lon="5.885">
        <ele>750</ele>
        <time>2021-06-01T07:33:19.000Z</time>
      </trkpt>
      <trkpt lat="44.1366" lon="5.88499">
        <ele>750</ele>
        <time>2021-06-01T07:33:20.000Z</time>
      </trkpt>
      <trkpt lat="44.13659" lon="5.88498">
        <ele>750</ele>
        <time>2021-06-01T07:33:21.000Z</time>
      </trkpt>
      <trkpt lat="44.13658" lon="5.88497">
        <ele>750</ele>
        <time>2021-06-01T07:33:22.000Z</time>
      </trkpt>
      <trkpt lat="44.13657" lon="5.88496">
        <ele>750</ele>
        <time>2021-06-01T07:33:23.000Z</time>
      </trkpt>
      <trkpt lat="44.13656" lon="5.88496">
        <ele>750</ele>
        <time>2021-06-01T07:33:24.000Z</time>
      </trkpt>
      <trkpt lat="44.13655" lon="5.88495">
        <ele>750</ele>
        <time>2021-06-01T07:33:25.000Z</time>
      </trkpt>
      <trkpt lat="44.13655" lon="5.88495">
        <ele>750</ele>
        <time>2021-06-01T07:33:26.000Z</time>
      </trkpt>
      <trkpt lat="44.13654" lon="5.88494">
        <ele>750</ele>
        <time>2021-06-01T07:33:27.000Z</time>
      </trkpt>
      <trkpt lat="44.13654" lon="5.88494">
        <ele>750</ele>
        <time>2021-06-01T07:33:28.000Z</time>
      </trkpt>
      <trkpt lat="44.13653" lon="5.88494">
        <ele>750</ele>
        <time>2021-06-01T07:33:29.000Z</time>
      </trkpt>
      <trkpt lat="44.13652" lon="5.88493">
        <ele>750</ele>
        <time>2021-06-01T07:33:30.000Z</time>
      </trkpt>
      <trkpt lat="44.13652" lon="5.88493">
        <ele>751</ele>
        <time>2021-06-01T07:33:31.000Z</time>
      </trkpt>
      <trkpt lat="44.13651" lon="5.88493">
        <ele>751</ele>
        <time>2021-06-01T07:33:32.000Z</time>
      </trkpt>
      <trkpt lat="44.1365" lon="5.88492">
        <ele>751</ele>
        <time>2021-06-01T07:33:33.000Z</time>
      </trkpt>
      <trkpt lat="44.1365" lon="5.88492">
        <ele>751</ele>
        <time>2021-06-01T07:33:34.000Z</time>
      </trkpt>
      <trkpt lat="44.13649" lon="5.88491">
        <ele>751</ele>
        <time>2021-06-01T07:33:35.000Z</time>
      </trkpt>
      <trkpt lat="44.13649" lon="5.88491">
        <ele>751</ele>
        <time>2021-06-01T07:33:36.000Z</time>
      </trkpt>
      <trkpt lat="44.13648" lon="5.8849">
        <ele>751</ele>
        <time>2021-06-01T07:33:37.000Z</time>
      </trkpt>
      <trkpt lat="44.13648" lon="5.8849">
        <ele>751</ele>
        <time>2021-06-01T07:33:38.000Z</time>
      </trkpt>
      <trkpt lat="44.13647" lon="5.88489">
        <ele>751</ele>
        <time>2021-06-01T07:33:39.000Z</time>
      </trkpt>
      <trkpt lat="44.13647" lon="5.88489">
        <ele>751</ele>
        <time>2021-06-01T07:33:40.000Z</time>
      </trkpt>
      <trkpt lat="44.13646" lon="5.88488">
        <ele>751</ele>
        <time>2021-06-01T07:33:41.000Z</time>
      </trkpt>
      <trkpt lat="44.13646" lon="5.88488">
        <ele>751</ele>
        <time>2021-06-01T07:33:42.000Z</time>
      </trkpt>
      <trkpt lat="44.13645" lon="5.88487">
        <ele>751</ele>
        <time>2021-06-01T07:33:43.000Z</time>
      </trkpt>
      <trkpt lat="44.13644" lon="5.88487">
        <ele>751</ele>
        <time>2021-06-01T07:33:44.000Z</time>
      </trkpt>
      <trkpt lat="44.13643" lon="5.88487">
        <ele>751</ele>
        <time>2021-06-01T07:33:45.000Z</time>
      </trkpt>
      <trkpt lat="44.13642" lon="5.88486">
        <ele>751</ele>
        <time>2021-06-01T07:33:46.000Z</time>
      </trkpt>
      <trkpt lat="44.13641" lon="5.88485">
        <ele>751</ele>
        <time>2021-06-01T07:33:47.000Z</time>
      </trkpt>
      <trkpt lat="44.1364" lon="5.88485">
        <ele>751</ele>
        <time>2021-06-01T07:33:48.000Z</time>
      </trkpt>
      <trkpt lat="44.13639" lon="5.88484">
        <ele>751</ele>
        <time>2021-06-01T07:33:49.000Z</time>
      </trkpt>
      <trkpt lat="44.13639" lon="5.88484">
        <ele>751</ele>
        <time>2021-06-01T07:33:50.000Z</time>
      </trkpt>
      <trkpt lat="44.13638" lon="5.88483">
        <ele>751</ele>
        <time>2021-06-01T07:33:51.000Z</time>
      </trkpt>
      <trkpt lat="44.13637" lon="5.88483">
        <ele>751</ele>
        <time>2021-06-01T07:33:52.000Z</time>
      </trkpt>
      <trkpt lat="44.13636" lon="5.88483">
        <ele>751</ele>
        <time>2021-06-01T07:33:53.000Z</time>
      </trkpt>
      <trkpt lat="44.13635" lon="5.88483">
        <ele>751</ele>
        <time>2021-06-01T07:33:54.000Z</time>
      </trkpt>
      <trkpt lat="44.13634" lon="5.88482">
        <ele>751</ele>
        <time>2021-06-01T07:33:55.000Z</time>
      </trkpt>
      <trkpt lat="44.13634" lon="5.88482">
        <ele>751</ele>
        <time>2021-06-01T07:33:56.000Z</time>
      </trkpt>
      <trkpt lat="44.13634" lon="5.88482">
        <ele>751</ele>
        <time>2021-06-01T07:33:57.000Z</time>
      </trkpt>
      <trkpt lat="44.13633" lon="5.88482">
        <ele>751</ele>
        <time>2021-06-01T07:33:58.000Z</time>
      </trkpt>
      <trkpt lat="44.13633" lon="5.88482">
        <ele>751</ele>
        <time>2021-06-01T07:33:59.000Z</time>
      </trkpt>
      <trkpt lat="44.13633" lon="5.88482">
        <ele>751</ele>
        <time>2021-06-01T07:34:00.000Z</time>
      </trkpt>
      <trkpt lat="44.13633" lon="5.88482">
        <ele>751</ele>
        <time>2021-06-01T07:34:01.000Z</time>
      </trkpt>
      <trkpt lat="44.13633" lon="5.88482">
        <ele>751</ele>
        <time>2021-06-01T07:34:02.000Z</time>
      </trkpt>
      <trkpt lat="44.13632" lon="5.88482">
        <ele>751</ele>
        <time>2021-06-01T07:34:03.000Z</time>
      </trkpt>
      <trkpt lat="44.13632" lon="5.88482">
        <ele>751</ele>
        <time>2021-06-01T07:34:04.000Z</time>
      </trkpt>
      <trkpt lat="44.13632" lon="5.88482">
        <ele>752</ele>
        <time>2021-06-01T07:34:05.000Z</time>
      </trkpt>
      <trkpt lat="44.13632" lon="5.88482">
        <ele>752</ele>
        <time>2021-06-01T07:34:06.000Z</time>
      </trkpt>
      <trkpt lat="44.13632" lon="5.88482">
        <ele>752</ele>
        <time>2021-06-01T07:34:07.000Z</time>
      </trkpt>
      <trkpt lat="44.13632" lon="5.88482">
        <ele>752</ele>
        <time>2021-06-01T07:34:08.000Z</time>
      </trkpt>
      <trkpt lat="44.13631" lon="5.88482">
        <ele>752</ele>
        <time>2021-06-01T07:34:09.000Z</time>
      </trkpt>
      <trkpt lat="44.13631" lon="5.88482">
        <ele>752</ele>
        <time>2021-06-01T07:34:10.000Z</time>
      </trkpt>
      <trkpt lat="44.13631" lon="5.88482">
        <ele>752</ele>
        <time>2021-06-01T07:34:11.000Z</time>
      </trkpt>
      <trkpt lat="44.13631" lon="5.88482">
        <ele>752</ele>
        <time>2021-06-01T07:34:12.000Z</time>
      </trkpt>
      <trkpt lat="44.13631" lon="5.88482">
        <ele>752</ele>
        <time>2021-06-01T07:34:13.000Z</time>
      </trkpt>
      <trkpt lat="44.13631" lon="5.88482">
        <ele>752</ele>
        <time>2021-06-01T07:34:14.000Z</time>
      </trkpt>
      <trkpt lat="44.13631" lon="5.88482">
        <ele>753</ele>
        <time>2021-06-01T07:34:15.000Z</time>
      </trkpt>
      <trkpt lat="44.13631" lon="5.88482">
        <ele>753</ele>
        <time>2021-06-01T07:34:16.000Z</time>
      </trkpt>
      <trkpt lat="44.1363" lon="5.88482">
        <ele>753</ele>
        <time>2021-06-01T07:34:17.000Z</time>
      </trkpt>
      <trkpt lat="44.1363" lon="5.88482">
        <ele>753</ele>
        <time>2021-06-01T07:34:18.000Z</time>
      </trkpt>
      <trkpt lat="44.1363" lon="5.88482">
        <ele>753</ele>
        <time>2021-06-01T07:34:19.000Z</time>
      </trkpt>
      <trkpt lat="44.13631" lon="5.88482">
        <ele>753</ele>
        <time>2021-06-01T07:34:20.000Z</time>
      </trkpt>
      <trkpt lat="44.13631" lon="5.88482">
        <ele>753</ele>
        <time>2021-06-01T07:34:21.000Z</time>
      </trkpt>
      <trkpt lat="44.1363" lon="5.88482">
        <ele>753</ele>
        <time>2021-06-01T07:34:22.000Z</time>
      </trkpt>
      <trkpt lat="44.1363" lon="5.88482">
        <ele>753</ele>
        <time>2021-06-01T07:34:23.000Z</time>
      </trkpt>
      <trkpt lat="44.13629" lon="5.88482">
        <ele>753</ele>
        <time>2021-06-01T07:34:24.000Z</time>
      </trkpt>
      <trkpt lat="44.13629" lon="5.88481">
        <ele>754</ele>
        <time>2021-06-01T07:34:25.000Z</time>
      </trkpt>
      <trkpt lat="44.13628" lon="5.88481">
        <ele>754</ele>
        <time>2021-06-01T07:34:26.000Z</time>
      </trkpt>
      <trkpt lat="44.13628" lon="5.88481">
        <ele>754</ele>
        <time>2021-06-01T07:34:27.000Z</time>
      </trkpt>
      <trkpt lat="44.13627" lon="5.8848">
        <ele>754</ele>
        <time>2021-06-01T07:34:28.000Z</time>
      </trkpt>
      <trkpt lat="44.13626" lon="5.8848">
        <ele>754</ele>
        <time>2021-06-01T07:34:29.000Z</time>
      </trkpt>
      <trkpt lat="44.13626" lon="5.8848">
        <ele>754</ele>
        <time>2021-06-01T07:34:30.000Z</time>
      </trkpt>
      <trkpt lat="44.13625" lon="5.88481">
        <ele>754</ele>
        <time>2021-06-01T07:34:31.000Z</time>
      </trkpt>
      <trkpt lat="44.13625" lon="5.88481">
        <ele>754</ele>
        <time>2021-06-01T07:34:32.000Z</time>
      </trkpt>
      <trkpt lat="44.13624" lon="5.88481">
        <ele>755</ele>
        <time>2021-06-01T07:34:33.000Z</time>
      </trkpt>
      <trkpt lat="44.13623" lon="5.88481">
        <ele>755</ele>
        <time>2021-06-01T07:34:34.000Z</time>
      </trkpt>
      <trkpt lat="44.13623" lon="5.88481">
        <ele>755</ele>
        <time>2021-06-01T07:34:35.000Z</time>
      </trkpt>
      <trkpt lat="44.13623" lon="5.88481">
        <ele>755</ele>
        <time>2021-06-01T07:34:36.000Z</time>
      </trkpt>
      <trkpt lat="44.13622" lon="5.88481">
        <ele>755</ele>
        <time>2021-06-01T07:34:37.000Z</time>
      </trkpt>
      <trkpt lat="44.13621" lon="5.88481">
        <ele>755</ele>
        <time>2021-06-01T07:34:38.000Z</time>
      </trkpt>
      <trkpt lat="44.13621" lon="5.88481">
        <ele>755</ele>
        <time>2021-06-01T07:34:39.000Z</time>
      </trkpt>
      <trkpt lat="44.1362" lon="5.88481">
        <ele>755</ele>
        <time>2021-06-01T07:34:40.000Z</time>
      </trkpt>
      <trkpt lat="44.1362" lon="5.88481">
        <ele>755</ele>
        <time>2021-06-01T07:34:41.000Z</time>
      </trkpt>
      <trkpt lat="44.13619" lon="5.88481">
        <ele>755</ele>
        <time>2021-06-01T07:34:42.000Z</time>
      </trkpt>
      <trkpt lat="44.13618" lon="5.88481">
        <ele>755</ele>
        <time>2021-06-01T07:34:43.000Z</time>
      </trkpt>
      <trkpt lat="44.13618" lon="5.88481">
        <ele>755</ele>
        <time>2021-06-01T07:34:44.000Z</time>
      </trkpt>
      <trkpt lat="44.13617" lon="5.8848">
        <ele>755</ele>
        <time>2021-06-01T07:34:45.000Z</time>
      </trkpt>
      <trkpt lat="44.13616" lon="5.8848">
        <ele>756</ele>
        <time>2021-06-01T07:34:46.000Z</time>
      </trkpt>
      <trkpt lat="44.13616" lon="5.8848">
        <ele>756</ele>
        <time>2021-06-01T07:34:47.000Z</time>
      </trkpt>
      <trkpt lat="44.13615" lon="5.8848">
        <ele>756</ele>
        <time>2021-06-01T07:34:48.000Z</time>
      </trkpt>
      <trkpt lat="44.13614" lon="5.8848">
        <ele>756</ele>
        <time>2021-06-01T07:34:49.000Z</time>
      </trkpt>
      <trkpt lat="44.13613" lon="5.8848">
        <ele>756</ele>
        <time>2021-06-01T07:34:50.000Z</time>
      </trkpt>
      <trkpt lat="44.13613" lon="5.8848">
        <ele>756</ele>
        <time>2021-06-01T07:34:51.000Z</time>
      </trkpt>
      <trkpt lat="44.13612" lon="5.8848">
        <ele>757</ele>
        <time>2021-06-01T07:34:52.000Z</time>
      </trkpt>
      <trkpt lat="44.13611" lon="5.8848">
        <ele>757</ele>
        <time>2021-06-01T07:34:53.000Z</time>
      </trkpt>
      <trkpt lat="44.13611" lon="5.8848">
        <ele>757</ele>
        <time>2021-06-01T07:34:54.000Z</time>
      </trkpt>
      <trkpt lat="44.1361" lon="5.8848">
        <ele>757</ele>
        <time>2021-06-01T07:34:55.000Z</time>
      </trkpt>
      <trkpt lat="44.13609" lon="5.88481">
        <ele>757</ele>
        <time>2021-06-01T07:34:56.000Z</time>
      </trkpt>
      <trkpt lat="44.13609" lon="5.88481">
        <ele>758</ele>
        <time>2021-06-01T07:34:57.000Z</time>
      </trkpt>
      <trkpt lat="44.13608" lon="5.88481">
        <ele>758</ele>
        <time>2021-06-01T07:34:58.000Z</time>
      </trkpt>
      <trkpt lat="44.13608" lon="5.88481">
        <ele>758</ele>
        <time>2021-06-01T07:34:59.000Z</time>
      </trkpt>
      <trkpt lat="44.13607" lon="5.88481">
        <ele>758</ele>
        <time>2021-06-01T07:35:00.000Z</time>
      </trkpt>
      <trkpt lat="44.13607" lon="5.88481">
        <ele>758</ele>
        <time>2021-06-01T07:35:01.000Z</time>
      </trkpt>
      <trkpt lat="44.13607" lon="5.88481">
        <ele>759</ele>
        <time>2021-06-01T07:35:02.000Z</time>
      </trkpt>
      <trkpt lat="44.13607" lon="5.88481">
        <ele>759</ele>
        <time>2021-06-01T07:35:03.000Z</time>
      </trkpt>
      <trkpt lat="44.13607" lon="5.88481">
        <ele>759</ele>
        <time>2021-06-01T07:35:04.000Z</time>
      </trkpt>
      <trkpt lat="44.13606" lon="5.88481">
        <ele>759</ele>
        <time>2021-06-01T07:35:05.000Z</time>
      </trkpt>
      <trkpt lat="44.13606" lon="5.88482">
        <ele>759</ele>
        <time>2021-06-01T07:35:06.000Z</time>
      </trkpt>
      <trkpt lat="44.13606" lon="5.88482">
        <ele>759</ele>
        <time>2021-06-01T07:35:07.000Z</time>
      </trkpt>
      <trkpt lat="44.13605" lon="5.88482">
        <ele>760</ele>
        <time>2021-06-01T07:35:08.000Z</time>
      </trkpt>
      <trkpt lat="44.13605" lon="5.88482">
        <ele>760</ele>
        <time>2021-06-01T07:35:09.000Z</time>
      </trkpt>
      <trkpt lat="44.13604" lon="5.88482">
        <ele>760</ele>
        <time>2021-06-01T07:35:10.000Z</time>
      </trkpt>
      <trkpt lat="44.13604" lon="5.88482">
        <ele>760</ele>
        <time>2021-06-01T07:35:11.000Z</time>
      </trkpt>
      <trkpt lat="44.13604" lon="5.88482">
        <ele>760</ele>
        <time>2021-06-01T07:35:12.000Z</time>
      </trkpt>
      <trkpt lat="44.13604" lon="5.88482">
        <ele>760</ele>
        <time>2021-06-01T07:35:13.000Z</time>
      </trkpt>
      <trkpt lat="44.13604" lon="5.88483">
        <ele>761</ele>
        <time>2021-06-01T07:35:14.000Z</time>
      </trkpt>
      <trkpt lat="44.13603" lon="5.88483">
        <ele>761</ele>
        <time>2021-06-01T07:35:15.000Z</time>
      </trkpt>
      <trkpt lat="44.13603" lon="5.88483">
        <ele>761</ele>
        <time>2021-06-01T07:35:16.000Z</time>
      </trkpt>
      <trkpt lat="44.13602" lon="5.88483">
        <ele>761</ele>
        <time>2021-06-01T07:35:17.000Z</time>
      </trkpt>
      <trkpt lat="44.13602" lon="5.88483">
        <ele>762</ele>
        <time>2021-06-01T07:35:18.000Z</time>
      </trkpt>
      <trkpt lat="44.13602" lon="5.88483">
        <ele>762</ele>
        <time>2021-06-01T07:35:19.000Z</time>
      </trkpt>
      <trkpt lat="44.13601" lon="5.88483">
        <ele>762</ele>
        <time>2021-06-01T07:35:20.000Z</time>
      </trkpt>
      <trkpt lat="44.13601" lon="5.88483">
        <ele>762</ele>
        <time>2021-06-01T07:35:21.000Z</time>
      </trkpt>
      <trkpt lat="44.136" lon="5.88483">
        <ele>762</ele>
        <time>2021-06-01T07:35:22.000Z</time>
      </trkpt>
      <trkpt lat="44.136" lon="5.88483">
        <ele>762</ele>
        <time>2021-06-01T07:35:23.000Z</time>
      </trkpt>
      <trkpt lat="44.13599" lon="5.88483">
        <ele>762</ele>
        <time>2021-06-01T07:35:24.000Z</time>
      </trkpt>
      <trkpt lat="44.13599" lon="5.88483">
        <ele>762</ele>
        <time>2021-06-01T07:35:25.000Z</time>
      </trkpt>
      <trkpt lat="44.13598" lon="5.88483">
        <ele>762</ele>
        <time>2021-06-01T07:35:26.000Z</time>
      </trkpt>
      <trkpt lat="44.13598" lon="5.88483">
        <ele>763</ele>
        <time>2021-06-01T07:35:27.000Z</time>
      </trkpt>
      <trkpt lat="44.13597" lon="5.88483">
        <ele>763</ele>
        <time>2021-06-01T07:35:28.000Z</time>
      </trkpt>
      <trkpt lat="44.13596" lon="5.88484">
        <ele>763</ele>
        <time>2021-06-01T07:35:29.000Z</time>
      </trkpt>
      <trkpt lat="44.13596" lon="5.88484">
        <ele>763</ele>
        <time>2021-06-01T07:35:30.000Z</time>
      </trkpt>
      <trkpt lat="44.13596" lon="5.88484">
        <ele>763</ele>
        <time>2021-06-01T07:35:31.000Z</time>
      </trkpt>
      <trkpt lat="44.13595" lon="5.88484">
        <ele>763</ele>
        <time>2021-06-01T07:35:32.000Z</time>
      </trkpt>
      <trkpt lat="44.13595" lon="5.88484">
        <ele>763</ele>
        <time>2021-06-01T07:35:33.000Z</time>
      </trkpt>
      <trkpt lat="44.13594" lon="5.88484">
        <ele>763</ele>
        <time>2021-06-01T07:35:34.000Z</time>
      </trkpt>
      <trkpt lat="44.13594" lon="5.88484">
        <ele>763</ele>
        <time>2021-06-01T07:35:35.000Z</time>
      </trkpt>
      <trkpt lat="44.13594" lon="5.88484">
        <ele>763</ele>
        <time>2021-06-01T07:35:36.000Z</time>
      </trkpt>
      <trkpt lat="44.13593" lon="5.88484">
        <ele>763</ele>
        <time>2021-06-01T07:35:37.000Z</time>
      </trkpt>
      <trkpt lat="44.13593" lon="5.88484">
        <ele>763</ele>
        <time>2021-06-01T07:35:38.000Z</time>
      </trkpt>
      <trkpt lat="44.13592" lon="5.88484">
        <ele>764</ele>
        <time>2021-06-01T07:35:39.000Z</time>
      </trkpt>
      <trkpt lat="44.13592" lon="5.88484">
        <ele>764</ele>
        <time>2021-06-01T07:35:40.000Z</time>
      </trkpt>
      <trkpt lat="44.13591" lon="5.88485">
        <ele>764</ele>
        <time>2021-06-01T07:35:41.000Z</time>
      </trkpt>
      <trkpt lat="44.13591" lon="5.88485">
        <ele>764</ele>
        <time>2021-06-01T07:35:42.000Z</time>
      </trkpt>
      <trkpt lat="44.1359" lon="5.88485">
        <ele>764</ele>
        <time>2021-06-01T07:35:43.000Z</time>
      </trkpt>
      <trkpt lat="44.1359" lon="5.88485">
        <ele>764</ele>
        <time>2021-06-01T07:35:44.000Z</time>
      </trkpt>
      <trkpt lat="44.13589" lon="5.88485">
        <ele>764</ele>
        <time>2021-06-01T07:35:45.000Z</time>
      </trkpt>
      <trkpt lat="44.13589" lon="5.88485">
        <ele>764</ele>
        <time>2021-06-01T07:35:46.000Z</time>
      </trkpt>
      <trkpt lat="44.13588" lon="5.88485">
        <ele>764</ele>
        <time>2021-06-01T07:35:47.000Z</time>
      </trkpt>
      <trkpt lat="44.13588" lon="5.88486">
        <ele>764</ele>
        <time>2021-06-01T07:35:48.000Z</time>
      </trkpt>
      <trkpt lat="44.13587" lon="5.88486">
        <ele>765</ele>
        <time>2021-06-01T07:35:49.000Z</time>
      </trkpt>
      <trkpt lat="44.13586" lon="5.88486">
        <ele>765</ele>
        <time>2021-06-01T07:35:50.000Z</time>
      </trkpt>
      <trkpt lat="44.13586" lon="5.88486">
        <ele>765</ele>
        <time>2021-06-01T07:35:51.000Z</time>
      </trkpt>
      <trkpt lat="44.13585" lon="5.88485">
        <ele>765</ele>
        <time>2021-06-01T07:35:52.000Z</time>
      </trkpt>
      <trkpt lat="44.13585" lon="5.88485">
        <ele>765</ele>
        <time>2021-06-01T07:35:53.000Z</time>
      </trkpt>
      <trkpt lat="44.13584" lon="5.88485">
        <ele>765</ele>
        <time>2021-06-01T07:35:54.000Z</time>
      </trkpt>
      <trkpt lat="44.13583" lon="5.88485">
        <ele>765</ele>
        <time>2021-06-01T07:35:55.000Z</time>
      </trkpt>
      <trkpt lat="44.13583" lon="5.88485">
        <ele>765</ele>
        <time>2021-06-01T07:35:56.000Z</time>
      </trkpt>
      <trkpt lat="44.13582" lon="5.88485">
        <ele>766</ele>
        <time>2021-06-01T07:35:57.000Z</time>
      </trkpt>
      <trkpt lat="44.13582" lon="5.88484">
        <ele>766</ele>
        <time>2021-06-01T07:35:58.000Z</time>
      </trkpt>
      <trkpt lat="44.13581" lon="5.88484">
        <ele>766</ele>
        <time>2021-06-01T07:35:59.000Z</time>
      </trkpt>
      <trkpt lat="44.13581" lon="5.88484">
        <ele>766</ele>
        <time>2021-06-01T07:36:00.000Z</time>
      </trkpt>
      <trkpt lat="44.1358" lon="5.88484">
        <ele>766</ele>
        <time>2021-06-01T07:36:01.000Z</time>
      </trkpt>
      <trkpt lat="44.1358" lon="5.88484">
        <ele>766</ele>
        <time>2021-06-01T07:36:02.000Z</time>
      </trkpt>
      <trkpt lat="44.1358" lon="5.88484">
        <ele>766</ele>
        <time>2021-06-01T07:36:03.000Z</time>
      </trkpt>
      <trkpt lat="44.13579" lon="5.88483">
        <ele>767</ele>
        <time>2021-06-01T07:36:04.000Z</time>
      </trkpt>
      <trkpt lat="44.13579" lon="5.88483">
        <ele>767</ele>
        <time>2021-06-01T07:36:05.000Z</time>
      </trkpt>
      <trkpt lat="44.13578" lon="5.88483">
        <ele>767</ele>
        <time>2021-06-01T07:36:06.000Z</time>
      </trkpt>
      <trkpt lat="44.13578" lon="5.88482">
        <ele>767</ele>
        <time>2021-06-01T07:36:07.000Z</time>
      </trkpt>
      <trkpt lat="44.13577" lon="5.88482">
        <ele>767</ele>
        <time>2021-06-01T07:36:08.000Z</time>
      </trkpt>
      <trkpt lat="44.13576" lon="5.88481">
        <ele>767</ele>
        <time>2021-06-01T07:36:09.000Z</time>
      </trkpt>
      <trkpt lat="44.13576" lon="5.88481">
        <ele>767</ele>
        <time>2021-06-01T07:36:10.000Z</time>
      </trkpt>
      <trkpt lat="44.13575" lon="5.8848">
        <ele>767</ele>
        <time>2021-06-01T07:36:11.000Z</time>
      </trkpt>
      <trkpt lat="44.13575" lon="5.8848">
        <ele>767</ele>
        <time>2021-06-01T07:36:12.000Z</time>
      </trkpt>
      <trkpt lat="44.13574" lon="5.88479">
        <ele>767</ele>
        <time>2021-06-01T07:36:13.000Z</time>
      </trkpt>
      <trkpt lat="44.13573" lon="5.88479">
        <ele>767</ele>
        <time>2021-06-01T07:36:14.000Z</time>
      </trkpt>
      <trkpt lat="44.13573" lon="5.88478">
        <ele>767</ele>
        <time>2021-06-01T07:36:15.000Z</time>
      </trkpt>
      <trkpt lat="44.13572" lon="5.88478">
        <ele>767</ele>
        <time>2021-06-01T07:36:16.000Z</time>
      </trkpt>
      <trkpt lat="44.13572" lon="5.88477">
        <ele>767</ele>
        <time>2021-06-01T07:36:17.000Z</time>
      </trkpt>
      <trkpt lat="44.13571" lon="5.88477">
        <ele>767</ele>
        <time>2021-06-01T07:36:18.000Z</time>
      </trkpt>
      <trkpt lat="44.13571" lon="5.88476">
        <ele>767</ele>
        <time>2021-06-01T07:36:19.000Z</time>
      </trkpt>
      <trkpt lat="44.1357" lon="5.88476">
        <ele>767</ele>
        <time>2021-06-01T07:36:20.000Z</time>
      </trkpt>
      <trkpt lat="44.1357" lon="5.88475">
        <ele>768</ele>
        <time>2021-06-01T07:36:21.000Z</time>
      </trkpt>
      <trkpt lat="44.13569" lon="5.88473">
        <ele>768</ele>
        <time>2021-06-01T07:36:22.000Z</time>
      </trkpt>
      <trkpt lat="44.13569" lon="5.88473">
        <ele>768</ele>
        <time>2021-06-01T07:36:23.000Z</time>
      </trkpt>
      <trkpt lat="44.13568" lon="5.88472">
        <ele>768</ele>
        <time>2021-06-01T07:36:24.000Z</time>
      </trkpt>
      <trkpt lat="44.13568" lon="5.88471">
        <ele>768</ele>
        <time>2021-06-01T07:36:25.000Z</time>
      </trkpt>
      <trkpt lat="44.13568" lon="5.8847">
        <ele>768</ele>
        <time>2021-06-01T07:36:26.000Z</time>
      </trkpt>
      <trkpt lat="44.13567" lon="5.8847">
        <ele>768</ele>
        <time>2021-06-01T07:36:27.000Z</time>
      </trkpt>
      <trkpt lat="44.13567" lon="5.88469">
        <ele>768</ele>
        <time>2021-06-01T07:36:28.000Z</time>
      </trkpt>
      <trkpt lat="44.13566" lon="5.88468">
        <ele>768</ele>
        <time>2021-06-01T07:36:29.000Z</time>
      </trkpt>
      <trkpt lat="44.13566" lon="5.88467">
        <ele>768</ele>
        <time>2021-06-01T07:36:30.000Z</time>
      </trkpt>
      <trkpt lat="44.13566" lon="5.88467">
        <ele>768</ele>
        <time>2021-06-01T07:36:31.000Z</time>
      </trkpt>
      <trkpt lat="44.13565" lon="5.88466">
        <ele>768</ele>
        <time>2021-06-01T07:36:32.000Z</time>
      </trkpt>
      <trkpt lat="44.13565" lon="5.88465">
        <ele>769</ele>
        <time>2021-06-01T07:36:33.000Z</time>
      </trkpt>
      <trkpt lat="44.13564" lon="5.88464">
        <ele>769</ele>
        <time>2021-06-01T07:36:34.000Z</time>
      </trkpt>
      <trkpt lat="44.13564" lon="5.88463">
        <ele>769</ele>
        <time>2021-06-01T07:36:35.000Z</time>
      </trkpt>
      <trkpt lat="44.13564" lon="5.88463">
        <ele>769</ele>
        <time>2021-06-01T07:36:36.000Z</time>
      </trkpt>
      <trkpt lat="44.13564" lon="5.88463">
        <ele>769</ele>
        <time>2021-06-01T07:36:37.000Z</time>
      </trkpt>
      <trkpt lat="44.13564" lon="5.88463">
        <ele>769</ele>
        <time>2021-06-01T07:36:38.000Z</time>
      </trkpt>
      <trkpt lat="44.13564" lon="5.88462">
        <ele>770</ele>
        <time>2021-06-01T07:36:39.000Z</time>
      </trkpt>
      <trkpt lat="44.13564" lon="5.88462">
        <ele>770</ele>
        <time>2021-06-01T07:36:40.000Z</time>
      </trkpt>
      <trkpt lat="44.13564" lon="5.88462">
        <ele>770</ele>
        <time>2021-06-01T07:36:41.000Z</time>
      </trkpt>
      <trkpt lat="44.13564" lon="5.88461">
        <ele>770</ele>
        <time>2021-06-01T07:36:42.000Z</time>
      </trkpt>
      <trkpt lat="44.13564" lon="5.88461">
        <ele>770</ele>
        <time>2021-06-01T07:36:43.000Z</time>
      </trkpt>
      <trkpt lat="44.13564" lon="5.88461">
        <ele>770</ele>
        <time>2021-06-01T07:36:44.000Z</time>
      </trkpt>
      <trkpt lat="44.13564" lon="5.88461">
        <ele>771</ele>
        <time>2021-06-01T07:36:45.000Z</time>
      </trkpt>
      <trkpt lat="44.13564" lon="5.88461">
        <ele>771</ele>
        <time>2021-06-01T07:36:46.000Z</time>
      </trkpt>
      <trkpt lat="44.13564" lon="5.8846">
        <ele>771</ele>
        <time>2021-06-01T07:36:47.000Z</time>
      </trkpt>
      <trkpt lat="44.13564" lon="5.8846">
        <ele>771</ele>
        <time>2021-06-01T07:36:48.000Z</time>
      </trkpt>
      <trkpt lat="44.13564" lon="5.8846">
        <ele>772</ele>
        <time>2021-06-01T07:36:49.000Z</time>
      </trkpt>
      <trkpt lat="44.13564" lon="5.8846">
        <ele>772</ele>
        <time>2021-06-01T07:36:50.000Z</time>
      </trkpt>
      <trkpt lat="44.13564" lon="5.8846">
        <ele>772</ele>
        <time>2021-06-01T07:36:51.000Z</time>
      </trkpt>
      <trkpt lat="44.13564" lon="5.8846">
        <ele>772</ele>
        <time>2021-06-01T07:36:52.000Z</time>
      </trkpt>
      <trkpt lat="44.13564" lon="5.8846">
        <ele>772</ele>
        <time>2021-06-01T07:36:53.000Z</time>
      </trkpt>
      <trkpt lat="44.13564" lon="5.88459">
        <ele>773</ele>
        <time>2021-06-01T07:36:54.000Z</time>
      </trkpt>
      <trkpt lat="44.13564" lon="5.88459">
        <ele>773</ele>
        <time>2021-06-01T07:36:55.000Z</time>
      </trkpt>
      <trkpt lat="44.13564" lon="5.88459">
        <ele>773</ele>
        <time>2021-06-01T07:36:56.000Z</time>
      </trkpt>
      <trkpt lat="44.13564" lon="5.88459">
        <ele>773</ele>
        <time>2021-06-01T07:36:57.000Z</time>
      </trkpt>
      <trkpt lat="44.13564" lon="5.88458">
        <ele>773</ele>
        <time>2021-06-01T07:36:58.000Z</time>
      </trkpt>
      <trkpt lat="44.13563" lon="5.88458">
        <ele>773</ele>
        <time>2021-06-01T07:36:59.000Z</time>
      </trkpt>
      <trkpt lat="44.13563" lon="5.88458">
        <ele>773</ele>
        <time>2021-06-01T07:37:00.000Z</time>
      </trkpt>
      <trkpt lat="44.13563" lon="5.88458">
        <ele>773</ele>
        <time>2021-06-01T07:37:01.000Z</time>
      </trkpt>
      <trkpt lat="44.13563" lon="5.88458">
        <ele>774</ele>
        <time>2021-06-01T07:37:02.000Z</time>
      </trkpt>
      <trkpt lat="44.13563" lon="5.88458">
        <ele>774</ele>
        <time>2021-06-01T07:37:03.000Z</time>
      </trkpt>
      <trkpt lat="44.13563" lon="5.88457">
        <ele>774</ele>
        <time>2021-06-01T07:37:04.000Z</time>
      </trkpt>
      <trkpt lat="44.13563" lon="5.88457">
        <ele>774</ele>
        <time>2021-06-01T07:37:05.000Z</time>
      </trkpt>
      <trkpt lat="44.13563" lon="5.88457">
        <ele>774</ele>
        <time>2021-06-01T07:37:06.000Z</time>
      </trkpt>
      <trkpt lat="44.13563" lon="5.88457">
        <ele>774</ele>
        <time>2021-06-01T07:37:07.000Z</time>
      </trkpt>
      <trkpt lat="44.13563" lon="5.88457">
        <ele>774</ele>
        <time>2021-06-01T07:37:08.000Z</time>
      </trkpt>
      <trkpt lat="44.13562" lon="5.88457">
        <ele>775</ele>
        <time>2021-06-01T07:37:09.000Z</time>
      </trkpt>
      <trkpt lat="44.13562" lon="5.88458">
        <ele>775</ele>
        <time>2021-06-01T07:37:10.000Z</time>
      </trkpt>
      <trkpt lat="44.13562" lon="5.88458">
        <ele>775</ele>
        <time>2021-06-01T07:37:11.000Z</time>
      </trkpt>
      <trkpt lat="44.13562" lon="5.88457">
        <ele>775</ele>
        <time>2021-06-01T07:37:12.000Z</time>
      </trkpt>
      <trkpt lat="44.13562" lon="5.88457">
        <ele>775</ele>
        <time>2021-06-01T07:37:13.000Z</time>
      </trkpt>
      <trkpt lat="44.13562" lon="5.88457">
        <ele>775</ele>
        <time>2021-06-01T07:37:14.000Z</time>
      </trkpt>
      <trkpt lat="44.13562" lon="5.88457">
        <ele>776</ele>
        <time>2021-06-01T07:37:15.000Z</time>
      </trkpt>
      <trkpt lat="44.13562" lon="5.88457">
        <ele>776</ele>
        <time>2021-06-01T07:37:16.000Z</time>
      </trkpt>
      <trkpt lat="44.13562" lon="5.88457">
        <ele>776</ele>
        <time>2021-06-01T07:37:17.000Z</time>
      </trkpt>
      <trkpt lat="44.13562" lon="5.88457">
        <ele>776</ele>
        <time>2021-06-01T07:37:18.000Z</time>
      </trkpt>
      <trkpt lat="44.13562" lon="5.88457">
        <ele>776</ele>
        <time>2021-06-01T07:37:19.000Z</time>
      </trkpt>
      <trkpt lat="44.13562" lon="5.88457">
        <ele>776</ele>
        <time>2021-06-01T07:37:20.000Z</time>
      </trkpt>
      <trkpt lat="44.13562" lon="5.88457">
        <ele>776</ele>
        <time>2021-06-01T07:37:21.000Z</time>
      </trkpt>
      <trkpt lat="44.13562" lon="5.88457">
        <ele>776</ele>
        <time>2021-06-01T07:37:22.000Z</time>
      </trkpt>
      <trkpt lat="44.13562" lon="5.88457">
        <ele>776</ele>
        <time>2021-06-01T07:37:23.000Z</time>
      </trkpt>
      <trkpt lat="44.13561" lon="5.88456">
        <ele>776</ele>
        <time>2021-06-01T07:37:24.000Z</time>
      </trkpt>
      <trkpt lat="44.13561" lon="5.88456">
        <ele>776</ele>
        <time>2021-06-01T07:37:25.000Z</time>
      </trkpt>
      <trkpt lat="44.1356" lon="5.88455">
        <ele>776</ele>
        <time>2021-06-01T07:37:26.000Z</time>
      </trkpt>
      <trkpt lat="44.1356" lon="5.88455">
        <ele>776</ele>
        <time>2021-06-01T07:37:27.000Z</time>
      </trkpt>
      <trkpt lat="44.13559" lon="5.88455">
        <ele>776</ele>
        <time>2021-06-01T07:37:28.000Z</time>
      </trkpt>
      <trkpt lat="44.13559" lon="5.88455">
        <ele>776</ele>
        <time>2021-06-01T07:37:29.000Z</time>
      </trkpt>
      <trkpt lat="44.13558" lon="5.88455">
        <ele>776</ele>
        <time>2021-06-01T07:37:30.000Z</time>
      </trkpt>
      <trkpt lat="44.13557" lon="5.88454">
        <ele>776</ele>
        <time>2021-06-01T07:37:31.000Z</time>
      </trkpt>
      <trkpt lat="44.13557" lon="5.88454">
        <ele>776</ele>
        <time>2021-06-01T07:37:32.000Z</time>
      </trkpt>
      <trkpt lat="44.13556" lon="5.88454">
        <ele>776</ele>
        <time>2021-06-01T07:37:33.000Z</time>
      </trkpt>
      <trkpt lat="44.13556" lon="5.88454">
        <ele>776</ele>
        <time>2021-06-01T07:37:34.000Z</time>
      </trkpt>
      <trkpt lat="44.13556" lon="5.88454">
        <ele>776</ele>
        <time>2021-06-01T07:37:35.000Z</time>
      </trkpt>
      <trkpt lat="44.13555" lon="5.88454">
        <ele>776</ele>
        <time>2021-06-01T07:37:36.000Z</time>
      </trkpt>
      <trkpt lat="44.13555" lon="5.88454">
        <ele>776</ele>
        <time>2021-06-01T07:37:37.000Z</time>
      </trkpt>
      <trkpt lat="44.13554" lon="5.88454">
        <ele>776</ele>
        <time>2021-06-01T07:37:38.000Z</time>
      </trkpt>
      <trkpt lat="44.13554" lon="5.88454">
        <ele>776</ele>
        <time>2021-06-01T07:37:39.000Z</time>
      </trkpt>
      <trkpt lat="44.13553" lon="5.88454">
        <ele>776</ele>
        <time>2021-06-01T07:37:40.000Z</time>
      </trkpt>
      <trkpt lat="44.13553" lon="5.88454">
        <ele>776</ele>
        <time>2021-06-01T07:37:41.000Z</time>
      </trkpt>
      <trkpt lat="44.13552" lon="5.88454">
        <ele>776</ele>
        <time>2021-06-01T07:37:42.000Z</time>
      </trkpt>
      <trkpt lat="44.13552" lon="5.88455">
        <ele>776</ele>
        <time>2021-06-01T07:37:43.000Z</time>
      </trkpt>
      <trkpt lat="44.13552" lon="5.88455">
        <ele>776</ele>
        <time>2021-06-01T07:37:44.000Z</time>
      </trkpt>
      <trkpt lat="44.13551" lon="5.88455">
        <ele>776</ele>
        <time>2021-06-01T07:37:45.000Z</time>
      </trkpt>
      <trkpt lat="44.13551" lon="5.88455">
        <ele>776</ele>
        <time>2021-06-01T07:37:46.000Z</time>
      </trkpt>
      <trkpt lat="44.13551" lon="5.88455">
        <ele>776</ele>
        <time>2021-06-01T07:37:47.000Z</time>
      </trkpt>
      <trkpt lat="44.13551" lon="5.88455">
        <ele>776</ele>
        <time>2021-06-01T07:37:48.000Z</time>
      </trkpt>
      <trkpt lat="44.13551" lon="5.88455">
        <ele>776</ele>
        <time>2021-06-01T07:37:49.000Z</time>
      </trkpt>
      <trkpt lat="44.1355" lon="5.88456">
        <ele>776</ele>
        <time>2021-06-01T07:37:50.000Z</time>
      </trkpt>
      <trkpt lat="44.1355" lon="5.88456">
        <ele>776</ele>
        <time>2021-06-01T07:37:51.000Z</time>
      </trkpt>
      <trkpt lat="44.1355" lon="5.88457">
        <ele>776</ele>
        <time>2021-06-01T07:37:52.000Z</time>
      </trkpt>
      <trkpt lat="44.13549" lon="5.88457">
        <ele>776</ele>
        <time>2021-06-01T07:37:53.000Z</time>
      </trkpt>
      <trkpt lat="44.13549" lon="5.88457">
        <ele>776</ele>
        <time>2021-06-01T07:37:54.000Z</time>
      </trkpt>
      <trkpt lat="44.13549" lon="5.88458">
        <ele>776</ele>
        <time>2021-06-01T07:37:55.000Z</time>
      </trkpt>
      <trkpt lat="44.13548" lon="5.88458">
        <ele>776</ele>
        <time>2021-06-01T07:37:56.000Z</time>
      </trkpt>
      <trkpt lat="44.13548" lon="5.88459">
        <ele>776</ele>
        <time>2021-06-01T07:37:57.000Z</time>
      </trkpt>
      <trkpt lat="44.13548" lon="5.88459">
        <ele>776</ele>
        <time>2021-06-01T07:37:58.000Z</time>
      </trkpt>
      <trkpt lat="44.13547" lon="5.88459">
        <ele>776</ele>
        <time>2021-06-01T07:37:59.000Z</time>
      </trkpt>
      <trkpt lat="44.13547" lon="5.8846">
        <ele>776</ele>
        <time>2021-06-01T07:38:00.000Z</time>
      </trkpt>
      <trkpt lat="44.13546" lon="5.8846">
        <ele>776</ele>
        <time>2021-06-01T07:38:01.000Z</time>
      </trkpt>
      <trkpt lat="44.13546" lon="5.88461">
        <ele>776</ele>
        <time>2021-06-01T07:38:02.000Z</time>
      </trkpt>
      <trkpt lat="44.13545" lon="5.88461">
        <ele>776</ele>
        <time>2021-06-01T07:38:03.000Z</time>
      </trkpt>
      <trkpt lat="44.13545" lon="5.88461">
        <ele>776</ele>
        <time>2021-06-01T07:38:04.000Z</time>
      </trkpt>
      <trkpt lat="44.13544" lon="5.88462">
        <ele>776</ele>
        <time>2021-06-01T07:38:05.000Z</time>
      </trkpt>
      <trkpt lat="44.13544" lon="5.88462">
        <ele>776</ele>
        <time>2021-06-01T07:38:06.000Z</time>
      </trkpt>
      <trkpt lat="44.13543" lon="5.88462">
        <ele>776</ele>
        <time>2021-06-01T07:38:07.000Z</time>
      </trkpt>
      <trkpt lat="44.13543" lon="5.88462">
        <ele>777</ele>
        <time>2021-06-01T07:38:08.000Z</time>
      </trkpt>
      <trkpt lat="44.13543" lon="5.88462">
        <ele>777</ele>
        <time>2021-06-01T07:38:09.000Z</time>
      </trkpt>
      <trkpt lat="44.13542" lon="5.88462">
        <ele>777</ele>
        <time>2021-06-01T07:38:10.000Z</time>
      </trkpt>
      <trkpt lat="44.13542" lon="5.88463">
        <ele>777</ele>
        <time>2021-06-01T07:38:11.000Z</time>
      </trkpt>
      <trkpt lat="44.13541" lon="5.88463">
        <ele>777</ele>
        <time>2021-06-01T07:38:12.000Z</time>
      </trkpt>
      <trkpt lat="44.13541" lon="5.88463">
        <ele>777</ele>
        <time>2021-06-01T07:38:13.000Z</time>
      </trkpt>
      <trkpt lat="44.1354" lon="5.88463">
        <ele>777</ele>
        <time>2021-06-01T07:38:14.000Z</time>
      </trkpt>
      <trkpt lat="44.1354" lon="5.88463">
        <ele>777</ele>
        <time>2021-06-01T07:38:15.000Z</time>
      </trkpt>
      <trkpt lat="44.1354" lon="5.88464">
        <ele>777</ele>
        <time>2021-06-01T07:38:16.000Z</time>
      </trkpt>
      <trkpt lat="44.1354" lon="5.88464">
        <ele>778</ele>
        <time>2021-06-01T07:38:17.000Z</time>
      </trkpt>
      <trkpt lat="44.1354" lon="5.88465">
        <ele>778</ele>
        <time>2021-06-01T07:38:18.000Z</time>
      </trkpt>
      <trkpt lat="44.13541" lon="5.88465">
        <ele>778</ele>
        <time>2021-06-01T07:38:19.000Z</time>
      </trkpt>
      <trkpt lat="44.13541" lon="5.88465">
        <ele>778</ele>
        <time>2021-06-01T07:38:20.000Z</time>
      </trkpt>
      <trkpt lat="44.13541" lon="5.88465">
        <ele>778</ele>
        <time>2021-06-01T07:38:21.000Z</time>
      </trkpt>
      <trkpt lat="44.13542" lon="5.88466">
        <ele>778</ele>
        <time>2021-06-01T07:38:22.000Z</time>
      </trkpt>
      <trkpt lat="44.13542" lon="5.88466">
        <ele>779</ele>
        <time>2021-06-01T07:38:23.000Z</time>
      </trkpt>
      <trkpt lat="44.13543" lon="5.88467">
        <ele>779</ele>
        <time>2021-06-01T07:38:24.000Z</time>
      </trkpt>
      <trkpt lat="44.13543" lon="5.88467">
        <ele>779</ele>
        <time>2021-06-01T07:38:25.000Z</time>
      </trkpt>
      <trkpt lat="44.13543" lon="5.88467">
        <ele>779</ele>
        <time>2021-06-01T07:38:26.000Z</time>
      </trkpt>
      <trkpt lat="44.13543" lon="5.88468">
        <ele>779</ele>
        <time>2021-06-01T07:38:27.000Z</time>
      </trkpt>
      <trkpt lat="44.13543" lon="5.88467">
        <ele>780</ele>
        <time>2021-06-01T07:38:28.000Z</time>
      </trkpt>
      <trkpt lat="44.13543" lon="5.88468">
        <ele>780</ele>
        <time>2021-06-01T07:38:29.000Z</time>
      </trkpt>
      <trkpt lat="44.13543" lon="5.88468">
        <ele>780</ele>
        <time>2021-06-01T07:38:30.000Z</time>
      </trkpt>
      <trkpt lat="44.13543" lon="5.88468">
        <ele>780</ele>
        <time>2021-06-01T07:38:31.000Z</time>
      </trkpt>
      <trkpt lat="44.13543" lon="5.88468">
        <ele>780</ele>
        <time>2021-06-01T07:38:32.000Z</time>
      </trkpt>
      <trkpt lat="44.13543" lon="5.88468">
        <ele>780</ele>
        <time>2021-06-01T07:38:33.000Z</time>
      </trkpt>
      <trkpt lat="44.13543" lon="5.88467">
        <ele>780</ele>
        <time>2021-06-01T07:38:34.000Z</time>
      </trkpt>
      <trkpt lat="44.13543" lon="5.88467">
        <ele>780</ele>
        <time>2021-06-01T07:38:35.000Z</time>
      </trkpt>
      <trkpt lat="44.13543" lon="5.88467">
        <ele>780</ele>
        <time>2021-06-01T07:38:36.000Z</time>
      </trkpt>
      <trkpt lat="44.13543" lon="5.88467">
        <ele>781</ele>
        <time>2021-06-01T07:38:37.000Z</time>
      </trkpt>
      <trkpt lat="44.13543" lon="5.88467">
        <ele>781</ele>
        <time>2021-06-01T07:38:38.000Z</time>
      </trkpt>
      <trkpt lat="44.13543" lon="5.88467">
        <ele>781</ele>
        <time>2021-06-01T07:38:39.000Z</time>
      </trkpt>
      <trkpt lat="44.13543" lon="5.88467">
        <ele>781</ele>
        <time>2021-06-01T07:38:40.000Z</time>
      </trkpt>
      <trkpt lat="44.13543" lon="5.88467">
        <ele>781</ele>
        <time>2021-06-01T07:38:41.000Z</time>
      </trkpt>
      <trkpt lat="44.13543" lon="5.88467">
        <ele>781</ele>
        <time>2021-06-01T07:38:42.000Z</time>
      </trkpt>
      <trkpt lat="44.13543" lon="5.88467">
        <ele>781</ele>
        <time>2021-06-01T07:38:43.000Z</time>
      </trkpt>
      <trkpt lat="44.13543" lon="5.88468">
        <ele>781</ele>
        <time>2021-06-01T07:38:44.000Z</time>
      </trkpt>
      <trkpt lat="44.13543" lon="5.88467">
        <ele>781</ele>
        <time>2021-06-01T07:38:45.000Z</time>
      </trkpt>
      <trkpt lat="44.13543" lon="5.88468">
        <ele>781</ele>
        <time>2021-06-01T07:38:46.000Z</time>
      </trkpt>
      <trkpt lat="44.13543" lon="5.88468">
        <ele>781</ele>
        <time>2021-06-01T07:38:47.000Z</time>
      </trkpt>
      <trkpt lat="44.13543" lon="5.88468">
        <ele>781</ele>
        <time>2021-06-01T07:38:48.000Z</time>
      </trkpt>
      <trkpt lat="44.13543" lon="5.88468">
        <ele>781</ele>
        <time>2021-06-01T07:38:49.000Z</time>
      </trkpt>
      <trkpt lat="44.13543" lon="5.88467">
        <ele>781</ele>
        <time>2021-06-01T07:38:50.000Z</time>
      </trkpt>
      <trkpt lat="44.13543" lon="5.88467">
        <ele>781</ele>
        <time>2021-06-01T07:38:51.000Z</time>
      </trkpt>
      <trkpt lat="44.13543" lon="5.88467">
        <ele>781</ele>
        <time>2021-06-01T07:38:52.000Z</time>
      </trkpt>
      <trkpt lat="44.13544" lon="5.88467">
        <ele>781</ele>
        <time>2021-06-01T07:38:53.000Z</time>
      </trkpt>
      <trkpt lat="44.13544" lon="5.88467">
        <ele>781</ele>
        <time>2021-06-01T07:38:54.000Z</time>
      </trkpt>
      <trkpt lat="44.13544" lon="5.88467">
        <ele>781</ele>
        <time>2021-06-01T07:38:55.000Z</time>
      </trkpt>
      <trkpt lat="44.13544" lon="5.88468">
        <ele>781</ele>
        <time>2021-06-01T07:38:56.000Z</time>
      </trkpt>
      <trkpt lat="44.13544" lon="5.88467">
        <ele>782</ele>
        <time>2021-06-01T07:38:57.000Z</time>
      </trkpt>
      <trkpt lat="44.13544" lon="5.88467">
        <ele>782</ele>
        <time>2021-06-01T07:38:58.000Z</time>
      </trkpt>
      <trkpt lat="44.13544" lon="5.88467">
        <ele>782</ele>
        <time>2021-06-01T07:38:59.000Z</time>
      </trkpt>
      <trkpt lat="44.13544" lon="5.88468">
        <ele>782</ele>
        <time>2021-06-01T07:39:00.000Z</time>
      </trkpt>
      <trkpt lat="44.13544" lon="5.88469">
        <ele>782</ele>
        <time>2021-06-01T07:39:01.000Z</time>
      </trkpt>
      <trkpt lat="44.13544" lon="5.88469">
        <ele>782</ele>
        <time>2021-06-01T07:39:02.000Z</time>
      </trkpt>
      <trkpt lat="44.13544" lon="5.88469">
        <ele>782</ele>
        <time>2021-06-01T07:39:03.000Z</time>
      </trkpt>
      <trkpt lat="44.13544" lon="5.88469">
        <ele>782</ele>
        <time>2021-06-01T07:39:04.000Z</time>
      </trkpt>
      <trkpt lat="44.13544" lon="5.88469">
        <ele>782</ele>
        <time>2021-06-01T07:39:05.000Z</time>
      </trkpt>
      <trkpt lat="44.13544" lon="5.88469">
        <ele>782</ele>
        <time>2021-06-01T07:39:06.000Z</time>
      </trkpt>
      <trkpt lat="44.13544" lon="5.8847">
        <ele>782</ele>
        <time>2021-06-01T07:39:07.000Z</time>
      </trkpt>
      <trkpt lat="44.13544" lon="5.8847">
        <ele>782</ele>
        <time>2021-06-01T07:39:08.000Z</time>
      </trkpt>
      <trkpt lat="44.13544" lon="5.8847">
        <ele>782</ele>
        <time>2021-06-01T07:39:09.000Z</time>
      </trkpt>
      <trkpt lat="44.13543" lon="5.8847">
        <ele>783</ele>
        <time>2021-06-01T07:39:10.000Z</time>
      </trkpt>
      <trkpt lat="44.13543" lon="5.8847">
        <ele>783</ele>
        <time>2021-06-01T07:39:11.000Z</time>
      </trkpt>
      <trkpt lat="44.13543" lon="5.88471">
        <ele>783</ele>
        <time>2021-06-01T07:39:12.000Z</time>
      </trkpt>
      <trkpt lat="44.13542" lon="5.88471">
        <ele>783</ele>
        <time>2021-06-01T07:39:13.000Z</time>
      </trkpt>
      <trkpt lat="44.13542" lon="5.88471">
        <ele>783</ele>
        <time>2021-06-01T07:39:14.000Z</time>
      </trkpt>
      <trkpt lat="44.13542" lon="5.88471">
        <ele>783</ele>
        <time>2021-06-01T07:39:15.000Z</time>
      </trkpt>
      <trkpt lat="44.13542" lon="5.88471">
        <ele>783</ele>
        <time>2021-06-01T07:39:16.000Z</time>
      </trkpt>
      <trkpt lat="44.13542" lon="5.88471">
        <ele>783</ele>
        <time>2021-06-01T07:39:17.000Z</time>
      </trkpt>
      <trkpt lat="44.13542" lon="5.88471">
        <ele>783</ele>
        <time>2021-06-01T07:39:18.000Z</time>
      </trkpt>
      <trkpt lat="44.13542" lon="5.88471">
        <ele>783</ele>
        <time>2021-06-01T07:39:19.000Z</time>
      </trkpt>
      <trkpt lat="44.13542" lon="5.88472">
        <ele>783</ele>
        <time>2021-06-01T07:39:20.000Z</time>
      </trkpt>
      <trkpt lat="44.13542" lon="5.88472">
        <ele>783</ele>
        <time>2021-06-01T07:39:21.000Z</time>
      </trkpt>
      <trkpt lat="44.13542" lon="5.88472">
        <ele>784</ele>
        <time>2021-06-01T07:39:22.000Z</time>
      </trkpt>
      <trkpt lat="44.13542" lon="5.88472">
        <ele>784</ele>
        <time>2021-06-01T07:39:23.000Z</time>
      </trkpt>
      <trkpt lat="44.13541" lon="5.88472">
        <ele>784</ele>
        <time>2021-06-01T07:39:24.000Z</time>
      </trkpt>
      <trkpt lat="44.13541" lon="5.88473">
        <ele>784</ele>
        <time>2021-06-01T07:39:25.000Z</time>
      </trkpt>
      <trkpt lat="44.13541" lon="5.88473">
        <ele>784</ele>
        <time>2021-06-01T07:39:26.000Z</time>
      </trkpt>
      <trkpt lat="44.13541" lon="5.88474">
        <ele>784</ele>
        <time>2021-06-01T07:39:27.000Z</time>
      </trkpt>
      <trkpt lat="44.13541" lon="5.88474">
        <ele>784</ele>
        <time>2021-06-01T07:39:28.000Z</time>
      </trkpt>
      <trkpt lat="44.13541" lon="5.88474">
        <ele>785</ele>
        <time>2021-06-01T07:39:29.000Z</time>
      </trkpt>
      <trkpt lat="44.13542" lon="5.88475">
        <ele>785</ele>
        <time>2021-06-01T07:39:30.000Z</time>
      </trkpt>
      <trkpt lat="44.13542" lon="5.88475">
        <ele>785</ele>
        <time>2021-06-01T07:39:31.000Z</time>
      </trkpt>
      <trkpt lat="44.13542" lon="5.88475">
        <ele>785</ele>
        <time>2021-06-01T07:39:32.000Z</time>
      </trkpt>
      <trkpt lat="44.13543" lon="5.88475">
        <ele>785</ele>
        <time>2021-06-01T07:39:33.000Z</time>
      </trkpt>
      <trkpt lat="44.13543" lon="5.88476">
        <ele>786</ele>
        <time>2021-06-01T07:39:34.000Z</time>
      </trkpt>
      <trkpt lat="44.13543" lon="5.88476">
        <ele>786</ele>
        <time>2021-06-01T07:39:35.000Z</time>
      </trkpt>
      <trkpt lat="44.13544" lon="5.88477">
        <ele>786</ele>
        <time>2021-06-01T07:39:36.000Z</time>
      </trkpt>
      <trkpt lat="44.13544" lon="5.88477">
        <ele>786</ele>
        <time>2021-06-01T07:39:37.000Z</time>
      </trkpt>
      <trkpt lat="44.13544" lon="5.88478">
        <ele>786</ele>
        <time>2021-06-01T07:39:38.000Z</time>
      </trkpt>
      <trkpt lat="44.13544" lon="5.88478">
        <ele>787</ele>
        <time>2021-06-01T07:39:39.000Z</time>
      </trkpt>
      <trkpt lat="44.13544" lon="5.88478">
        <ele>787</ele>
        <time>2021-06-01T07:39:40.000Z</time>
      </trkpt>
      <trkpt lat="44.13544" lon="5.88479">
        <ele>787</ele>
        <time>2021-06-01T07:39:41.000Z</time>
      </trkpt>
      <trkpt lat="44.13544" lon="5.88479">
        <ele>787</ele>
        <time>2021-06-01T07:39:42.000Z</time>
      </trkpt>
      <trkpt lat="44.13544" lon="5.88479">
        <ele>787</ele>
        <time>2021-06-01T07:39:43.000Z</time>
      </trkpt>
      <trkpt lat="44.13544" lon="5.8848">
        <ele>787</ele>
        <time>2021-06-01T07:39:44.000Z</time>
      </trkpt>
      <trkpt lat="44.13544" lon="5.8848">
        <ele>788</ele>
        <time>2021-06-01T07:39:45.000Z</time>
      </trkpt>
      <trkpt lat="44.13544" lon="5.8848">
        <ele>788</ele>
        <time>2021-06-01T07:39:46.000Z</time>
      </trkpt>
      <trkpt lat="44.13545" lon="5.88481">
        <ele>788</ele>
        <time>2021-06-01T07:39:47.000Z</time>
      </trkpt>
      <trkpt lat="44.13545" lon="5.88481">
        <ele>788</ele>
        <time>2021-06-01T07:39:48.000Z</time>
      </trkpt>
      <trkpt lat="44.13545" lon="5.88482">
        <ele>788</ele>
        <time>2021-06-01T07:39:49.000Z</time>
      </trkpt>
      <trkpt lat="44.13544" lon="5.88483">
        <ele>789</ele>
        <time>2021-06-01T07:39:50.000Z</time>
      </trkpt>
      <trkpt lat="44.13544" lon="5.88483">
        <ele>789</ele>
        <time>2021-06-01T07:39:51.000Z</time>
      </trkpt>
      <trkpt lat="44.13544" lon="5.88483">
        <ele>789</ele>
        <time>2021-06-01T07:39:52.000Z</time>
      </trkpt>
      <trkpt lat="44.13544" lon="5.88484">
        <ele>789</ele>
        <time>2021-06-01T07:39:53.000Z</time>
      </trkpt>
      <trkpt lat="44.13545" lon="5.88484">
        <ele>789</ele>
        <time>2021-06-01T07:39:54.000Z</time>
      </trkpt>
      <trkpt lat="44.13545" lon="5.88484">
        <ele>790</ele>
        <time>2021-06-01T07:39:55.000Z</time>
      </trkpt>
      <trkpt lat="44.13545" lon="5.88484">
        <ele>790</ele>
        <time>2021-06-01T07:39:56.000Z</time>
      </trkpt>
      <trkpt lat="44.13545" lon="5.88485">
        <ele>790</ele>
        <time>2021-06-01T07:39:57.000Z</time>
      </trkpt>
      <trkpt lat="44.13545" lon="5.88485">
        <ele>790</ele>
        <time>2021-06-01T07:39:58.000Z</time>
      </trkpt>
      <trkpt lat="44.13545" lon="5.88486">
        <ele>790</ele>
        <time>2021-06-01T07:39:59.000Z</time>
      </trkpt>
      <trkpt lat="44.13544" lon="5.88486">
        <ele>791</ele>
        <time>2021-06-01T07:40:00.000Z</time>
      </trkpt>
      <trkpt lat="44.13544" lon="5.88487">
        <ele>791</ele>
        <time>2021-06-01T07:40:01.000Z</time>
      </trkpt>
      <trkpt lat="44.13544" lon="5.88487">
        <ele>791</ele>
        <time>2021-06-01T07:40:02.000Z</time>
      </trkpt>
      <trkpt lat="44.13543" lon="5.88487">
        <ele>791</ele>
        <time>2021-06-01T07:40:03.000Z</time>
      </trkpt>
      <trkpt lat="44.13543" lon="5.88487">
        <ele>791</ele>
        <time>2021-06-01T07:40:04.000Z</time>
      </trkpt>
      <trkpt lat="44.13543" lon="5.88487">
        <ele>792</ele>
        <time>2021-06-01T07:40:05.000Z</time>
      </trkpt>
      <trkpt lat="44.13543" lon="5.88487">
        <ele>792</ele>
        <time>2021-06-01T07:40:06.000Z</time>
      </trkpt>
      <trkpt lat="44.13543" lon="5.88487">
        <ele>792</ele>
        <time>2021-06-01T07:40:07.000Z</time>
      </trkpt>
      <trkpt lat="44.13542" lon="5.88487">
        <ele>792</ele>
        <time>2021-06-01T07:40:08.000Z</time>
      </trkpt>
      <trkpt lat="44.13542" lon="5.88487">
        <ele>792</ele>
        <time>2021-06-01T07:40:09.000Z</time>
      </trkpt>
      <trkpt lat="44.13542" lon="5.88487">
        <ele>792</ele>
        <time>2021-06-01T07:40:10.000Z</time>
      </trkpt>
      <trkpt lat="44.13541" lon="5.88488">
        <ele>792</ele>
        <time>2021-06-01T07:40:11.000Z</time>
      </trkpt>
      <trkpt lat="44.13541" lon="5.88488">
        <ele>793</ele>
        <time>2021-06-01T07:40:12.000Z</time>
      </trkpt>
      <trkpt lat="44.13541" lon="5.88488">
        <ele>793</ele>
        <time>2021-06-01T07:40:13.000Z</time>
      </trkpt>
      <trkpt lat="44.13541" lon="5.88488">
        <ele>793</ele>
        <time>2021-06-01T07:40:14.000Z</time>
      </trkpt>
      <trkpt lat="44.13541" lon="5.88488">
        <ele>793</ele>
        <time>2021-06-01T07:40:15.000Z</time>
      </trkpt>
      <trkpt lat="44.13541" lon="5.88488">
        <ele>793</ele>
        <time>2021-06-01T07:40:16.000Z</time>
      </trkpt>
      <trkpt lat="44.13541" lon="5.88488">
        <ele>794</ele>
        <time>2021-06-01T07:40:17.000Z</time>
      </trkpt>
      <trkpt lat="44.13541" lon="5.88488">
        <ele>794</ele>
        <time>2021-06-01T07:40:18.000Z</time>
      </trkpt>
      <trkpt lat="44.13541" lon="5.88488">
        <ele>794</ele>
        <time>2021-06-01T07:40:19.000Z</time>
      </trkpt>
      <trkpt lat="44.13541" lon="5.88488">
        <ele>794</ele>
        <time>2021-06-01T07:40:20.000Z</time>
      </trkpt>
      <trkpt lat="44.13541" lon="5.88489">
        <ele>794</ele>
        <time>2021-06-01T07:40:21.000Z</time>
      </trkpt>
      <trkpt lat="44.13541" lon="5.88489">
        <ele>795</ele>
        <time>2021-06-01T07:40:22.000Z</time>
      </trkpt>
      <trkpt lat="44.13541" lon="5.88489">
        <ele>795</ele>
        <time>2021-06-01T07:40:23.000Z</time>
      </trkpt>
      <trkpt lat="44.13541" lon="5.88489">
        <ele>795</ele>
        <time>2021-06-01T07:40:24.000Z</time>
      </trkpt>
      <trkpt lat="44.13542" lon="5.88489">
        <ele>795</ele>
        <time>2021-06-01T07:40:25.000Z</time>
      </trkpt>
      <trkpt lat="44.13542" lon="5.8849">
        <ele>796</ele>
        <time>2021-06-01T07:40:26.000Z</time>
      </trkpt>
      <trkpt lat="44.13542" lon="5.8849">
        <ele>796</ele>
        <time>2021-06-01T07:40:27.000Z</time>
      </trkpt>
      <trkpt lat="44.13543" lon="5.8849">
        <ele>796</ele>
        <time>2021-06-01T07:40:28.000Z</time>
      </trkpt>
      <trkpt lat="44.13543" lon="5.88491">
        <ele>796</ele>
        <time>2021-06-01T07:40:29.000Z</time>
      </trkpt>
      <trkpt lat="44.13543" lon="5.88491">
        <ele>797</ele>
        <time>2021-06-01T07:40:30.000Z</time>
      </trkpt>
      <trkpt lat="44.13543" lon="5.88491">
        <ele>797</ele>
        <time>2021-06-01T07:40:31.000Z</time>
      </trkpt>
      <trkpt lat="44.13543" lon="5.88492">
        <ele>797</ele>
        <time>2021-06-01T07:40:32.000Z</time>
      </trkpt>
      <trkpt lat="44.13543" lon="5.88492">
        <ele>797</ele>
        <time>2021-06-01T07:40:33.000Z</time>
      </trkpt>
      <trkpt lat="44.13543" lon="5.88492">
        <ele>797</ele>
        <time>2021-06-01T07:40:34.000Z</time>
      </trkpt>
      <trkpt lat="44.13543" lon="5.88493">
        <ele>798</ele>
        <time>2021-06-01T07:40:35.000Z</time>
      </trkpt>
      <trkpt lat="44.13543" lon="5.88493">
        <ele>798</ele>
        <time>2021-06-01T07:40:36.000Z</time>
      </trkpt>
      <trkpt lat="44.13543" lon="5.88493">
        <ele>798</ele>
        <time>2021-06-01T07:40:37.000Z</time>
      </trkpt>
      <trkpt lat="44.13543" lon="5.88493">
        <ele>798</ele>
        <time>2021-06-01T07:40:38.000Z</time>
      </trkpt>
      <trkpt lat="44.13543" lon="5.88494">
        <ele>798</ele>
        <time>2021-06-01T07:40:39.000Z</time>
      </trkpt>
      <trkpt lat="44.13543" lon="5.88494">
        <ele>799</ele>
        <time>2021-06-01T07:40:40.000Z</time>
      </trkpt>
      <trkpt lat="44.13544" lon="5.88495">
        <ele>799</ele>
        <time>2021-06-01T07:40:41.000Z</time>
      </trkpt>
      <trkpt lat="44.13544" lon="5.88495">
        <ele>799</ele>
        <time>2021-06-01T07:40:42.000Z</time>
      </trkpt>
      <trkpt lat="44.13544" lon="5.88496">
        <ele>799</ele>
        <time>2021-06-01T07:40:43.000Z</time>
      </trkpt>
      <trkpt lat="44.13544" lon="5.88496">
        <ele>799</ele>
        <time>2021-06-01T07:40:44.000Z</time>
      </trkpt>
      <trkpt lat="44.13544" lon="5.88497">
        <ele>799</ele>
        <time>2021-06-01T07:40:45.000Z</time>
      </trkpt>
      <trkpt lat="44.13545" lon="5.88497">
        <ele>799</ele>
        <time>2021-06-01T07:40:46.000Z</time>
      </trkpt>
      <trkpt lat="44.13545" lon="5.88497">
        <ele>800</ele>
        <time>2021-06-01T07:40:47.000Z</time>
      </trkpt>
      <trkpt lat="44.13545" lon="5.88498">
        <ele>800</ele>
        <time>2021-06-01T07:40:48.000Z</time>
      </trkpt>
      <trkpt lat="44.13545" lon="5.88499">
        <ele>800</ele>
        <time>2021-06-01T07:40:49.000Z</time>
      </trkpt>
      <trkpt lat="44.13545" lon="5.885">
        <ele>800</ele>
        <time>2021-06-01T07:40:50.000Z</time>
      </trkpt>
      <trkpt lat="44.13545" lon="5.885">
        <ele>800</ele>
        <time>2021-06-01T07:40:51.000Z</time>
      </trkpt>
      <trkpt lat="44.13544" lon="5.885">
        <ele>800</ele>
        <time>2021-06-01T07:40:52.000Z</time>
      </trkpt>
      <trkpt lat="44.13544" lon="5.885">
        <ele>800</ele>
        <time>2021-06-01T07:40:53.000Z</time>
      </trkpt>
      <trkpt lat="44.13544" lon="5.885">
        <ele>801</ele>
        <time>2021-06-01T07:40:54.000Z</time>
      </trkpt>
      <trkpt lat="44.13544" lon="5.885">
        <ele>801</ele>
        <time>2021-06-01T07:40:55.000Z</time>
      </trkpt>
      <trkpt lat="44.13544" lon="5.885">
        <ele>801</ele>
        <time>2021-06-01T07:40:56.000Z</time>
      </trkpt>
      <trkpt lat="44.13544" lon="5.885">
        <ele>801</ele>
        <time>2021-06-01T07:40:57.000Z</time>
      </trkpt>
      <trkpt lat="44.13543" lon="5.885">
        <ele>801</ele>
        <time>2021-06-01T07:40:58.000Z</time>
      </trkpt>
      <trkpt lat="44.13543" lon="5.885">
        <ele>801</ele>
        <time>2021-06-01T07:40:59.000Z</time>
      </trkpt>
      <trkpt lat="44.13543" lon="5.885">
        <ele>801</ele>
        <time>2021-06-01T07:41:00.000Z</time>
      </trkpt>
      <trkpt lat="44.13543" lon="5.885">
        <ele>801</ele>
        <time>2021-06-01T07:41:01.000Z</time>
      </trkpt>
      <trkpt lat="44.13543" lon="5.885">
        <ele>801</ele>
        <time>2021-06-01T07:41:02.000Z</time>
      </trkpt>
      <trkpt lat="44.13543" lon="5.88499">
        <ele>801</ele>
        <time>2021-06-01T07:41:03.000Z</time>
      </trkpt>
      <trkpt lat="44.13543" lon="5.88499">
        <ele>801</ele>
        <time>2021-06-01T07:41:04.000Z</time>
      </trkpt>
      <trkpt lat="44.13543" lon="5.88499">
        <ele>801</ele>
        <time>2021-06-01T07:41:05.000Z</time>
      </trkpt>
      <trkpt lat="44.13542" lon="5.88499">
        <ele>801</ele>
        <time>2021-06-01T07:41:06.000Z</time>
      </trkpt>
      <trkpt lat="44.13542" lon="5.88499">
        <ele>801</ele>
        <time>2021-06-01T07:41:07.000Z</time>
      </trkpt>
      <trkpt lat="44.13542" lon="5.88499">
        <ele>801</ele>
        <time>2021-06-01T07:41:08.000Z</time>
      </trkpt>
      <trkpt lat="44.13542" lon="5.88499">
        <ele>801</ele>
        <time>2021-06-01T07:41:09.000Z</time>
      </trkpt>
      <trkpt lat="44.13542" lon="5.88499">
        <ele>801</ele>
        <time>2021-06-01T07:41:10.000Z</time>
      </trkpt>
      <trkpt lat="44.13542" lon="5.88499">
        <ele>802</ele>
        <time>2021-06-01T07:41:11.000Z</time>
      </trkpt>
      <trkpt lat="44.13542" lon="5.88498">
        <ele>802</ele>
        <time>2021-06-01T07:41:12.000Z</time>
      </trkpt>
      <trkpt lat="44.13542" lon="5.88498">
        <ele>802</ele>
        <time>2021-06-01T07:41:13.000Z</time>
      </trkpt>
      <trkpt lat="44.13542" lon="5.88498">
        <ele>802</ele>
        <time>2021-06-01T07:41:14.000Z</time>
      </trkpt>
      <trkpt lat="44.13542" lon="5.88498">
        <ele>802</ele>
        <time>2021-06-01T07:41:15.000Z</time>
      </trkpt>
      <trkpt lat="44.13542" lon="5.88498">
        <ele>802</ele>
        <time>2021-06-01T07:41:16.000Z</time>
      </trkpt>
      <trkpt lat="44.13542" lon="5.88498">
        <ele>802</ele>
        <time>2021-06-01T07:41:17.000Z</time>
      </trkpt>
      <trkpt lat="44.13542" lon="5.88498">
        <ele>802</ele>
        <time>2021-06-01T07:41:18.000Z</time>
      </trkpt>
      <trkpt lat="44.13542" lon="5.88498">
        <ele>802</ele>
        <time>2021-06-01T07:41:19.000Z</time>
      </trkpt>
      <trkpt lat="44.13542" lon="5.88498">
        <ele>802</ele>
        <time>2021-06-01T07:41:20.000Z</time>
      </trkpt>
      <trkpt lat="44.13542" lon="5.88498">
        <ele>802</ele>
        <time>2021-06-01T07:41:21.000Z</time>
      </trkpt>
      <trkpt lat="44.13542" lon="5.88498">
        <ele>802</ele>
        <time>2021-06-01T07:41:22.000Z</time>
      </trkpt>
      <trkpt lat="44.13542" lon="5.88498">
        <ele>802</ele>
        <time>2021-06-01T07:41:23.000Z</time>
      </trkpt>
      <trkpt lat="44.13542" lon="5.88498">
        <ele>802</ele>
        <time>2021-06-01T07:41:24.000Z</time>
      </trkpt>
      <trkpt lat="44.13542" lon="5.88498">
        <ele>802</ele>
        <time>2021-06-01T07:41:25.000Z</time>
      </trkpt>
      <trkpt lat="44.13541" lon="5.88497">
        <ele>802</ele>
        <time>2021-06-01T07:41:26.000Z</time>
      </trkpt>
      <trkpt lat="44.13541" lon="5.88498">
        <ele>802</ele>
        <time>2021-06-01T07:41:27.000Z</time>
      </trkpt>
      <trkpt lat="44.13541" lon="5.88498">
        <ele>802</ele>
        <time>2021-06-01T07:41:28.000Z</time>
      </trkpt>
      <trkpt lat="44.13541" lon="5.88498">
        <ele>802</ele>
        <time>2021-06-01T07:41:29.000Z</time>
      </trkpt>
      <trkpt lat="44.13541" lon="5.88498">
        <ele>802</ele>
        <time>2021-06-01T07:41:30.000Z</time>
      </trkpt>
      <trkpt lat="44.13541" lon="5.88498">
        <ele>802</ele>
        <time>2021-06-01T07:41:31.000Z</time>
      </trkpt>
      <trkpt lat="44.1354" lon="5.88497">
        <ele>802</ele>
        <time>2021-06-01T07:41:32.000Z</time>
      </trkpt>
      <trkpt lat="44.1354" lon="5.88497">
        <ele>802</ele>
        <time>2021-06-01T07:41:33.000Z</time>
      </trkpt>
      <trkpt lat="44.1354" lon="5.88496">
        <ele>803</ele>
        <time>2021-06-01T07:41:34.000Z</time>
      </trkpt>
      <trkpt lat="44.1354" lon="5.88496">
        <ele>803</ele>
        <time>2021-06-01T07:41:35.000Z</time>
      </trkpt>
      <trkpt lat="44.1354" lon="5.88496">
        <ele>803</ele>
        <time>2021-06-01T07:41:36.000Z</time>
      </trkpt>
      <trkpt lat="44.1354" lon="5.88495">
        <ele>803</ele>
        <time>2021-06-01T07:41:37.000Z</time>
      </trkpt>
      <trkpt lat="44.1354" lon="5.88496">
        <ele>803</ele>
        <time>2021-06-01T07:41:38.000Z</time>
      </trkpt>
      <trkpt lat="44.13539" lon="5.88496">
        <ele>803</ele>
        <time>2021-06-01T07:41:39.000Z</time>
      </trkpt>
      <trkpt lat="44.13539" lon="5.88496">
        <ele>803</ele>
        <time>2021-06-01T07:41:40.000Z</time>
      </trkpt>
      <trkpt lat="44.13539" lon="5.88496">
        <ele>803</ele>
        <time>2021-06-01T07:41:41.000Z</time>
      </trkpt>
      <trkpt lat="44.13539" lon="5.88496">
        <ele>803</ele>
        <time>2021-06-01T07:41:42.000Z</time>
      </trkpt>
      <trkpt lat="44.13539" lon="5.88497">
        <ele>803</ele>
        <time>2021-06-01T07:41:43.000Z</time>
      </trkpt>
      <trkpt lat="44.13539" lon="5.88497">
        <ele>803</ele>
        <time>2021-06-01T07:41:44.000Z</time>
      </trkpt>
      <trkpt lat="44.13539" lon="5.88496">
        <ele>804</ele>
        <time>2021-06-01T07:41:45.000Z</time>
      </trkpt>
      <trkpt lat="44.13538" lon="5.88496">
        <ele>804</ele>
        <time>2021-06-01T07:41:46.000Z</time>
      </trkpt>
      <trkpt lat="44.13538" lon="5.88496">
        <ele>804</ele>
        <time>2021-06-01T07:41:47.000Z</time>
      </trkpt>
      <trkpt lat="44.13537" lon="5.88496">
        <ele>804</ele>
        <time>2021-06-01T07:41:48.000Z</time>
      </trkpt>
      <trkpt lat="44.13537" lon="5.88496">
        <ele>804</ele>
        <time>2021-06-01T07:41:49.000Z</time>
      </trkpt>
      <trkpt lat="44.13537" lon="5.88497">
        <ele>804</ele>
        <time>2021-06-01T07:41:50.000Z</time>
      </trkpt>
      <trkpt lat="44.13536" lon="5.88497">
        <ele>804</ele>
        <time>2021-06-01T07:41:51.000Z</time>
      </trkpt>
      <trkpt lat="44.13535" lon="5.88497">
        <ele>804</ele>
        <time>2021-06-01T07:41:52.000Z</time>
      </trkpt>
      <trkpt lat="44.13535" lon="5.88497">
        <ele>804</ele>
        <time>2021-06-01T07:41:53.000Z</time>
      </trkpt>
      <trkpt lat="44.13535" lon="5.88497">
        <ele>804</ele>
        <time>2021-06-01T07:41:54.000Z</time>
      </trkpt>
      <trkpt lat="44.13534" lon="5.88497">
        <ele>804</ele>
        <time>2021-06-01T07:41:55.000Z</time>
      </trkpt>
      <trkpt lat="44.13534" lon="5.88497">
        <ele>804</ele>
        <time>2021-06-01T07:41:56.000Z</time>
      </trkpt>
      <trkpt lat="44.13533" lon="5.88497">
        <ele>804</ele>
        <time>2021-06-01T07:41:57.000Z</time>
      </trkpt>
      <trkpt lat="44.13533" lon="5.88497">
        <ele>804</ele>
        <time>2021-06-01T07:41:58.000Z</time>
      </trkpt>
      <trkpt lat="44.13532" lon="5.88496">
        <ele>804</ele>
        <time>2021-06-01T07:41:59.000Z</time>
      </trkpt>
      <trkpt lat="44.13532" lon="5.88496">
        <ele>805</ele>
        <time>2021-06-01T07:42:00.000Z</time>
      </trkpt>
      <trkpt lat="44.13531" lon="5.88497">
        <ele>805</ele>
        <time>2021-06-01T07:42:01.000Z</time>
      </trkpt>
      <trkpt lat="44.1353" lon="5.88497">
        <ele>805</ele>
        <time>2021-06-01T07:42:02.000Z</time>
      </trkpt>
      <trkpt lat="44.1353" lon="5.88497">
        <ele>805</ele>
        <time>2021-06-01T07:42:03.000Z</time>
      </trkpt>
      <trkpt lat="44.13529" lon="5.88497">
        <ele>805</ele>
        <time>2021-06-01T07:42:04.000Z</time>
      </trkpt>
      <trkpt lat="44.13529" lon="5.88496">
        <ele>805</ele>
        <time>2021-06-01T07:42:05.000Z</time>
      </trkpt>
      <trkpt lat="44.13528" lon="5.88496">
        <ele>805</ele>
        <time>2021-06-01T07:42:06.000Z</time>
      </trkpt>
      <trkpt lat="44.13527" lon="5.88496">
        <ele>805</ele>
        <time>2021-06-01T07:42:07.000Z</time>
      </trkpt>
      <trkpt lat="44.13527" lon="5.88495">
        <ele>805</ele>
        <time>2021-06-01T07:42:08.000Z</time>
      </trkpt>
      <trkpt lat="44.13527" lon="5.88495">
        <ele>806</ele>
        <time>2021-06-01T07:42:09.000Z</time>
      </trkpt>
      <trkpt lat="44.13526" lon="5.88495">
        <ele>806</ele>
        <time>2021-06-01T07:42:10.000Z</time>
      </trkpt>
      <trkpt lat="44.13525" lon="5.88494">
        <ele>806</ele>
        <time>2021-06-01T07:42:11.000Z</time>
      </trkpt>
      <trkpt lat="44.13525" lon="5.88494">
        <ele>806</ele>
        <time>2021-06-01T07:42:12.000Z</time>
      </trkpt>
      <trkpt lat="44.13524" lon="5.88494">
        <ele>806</ele>
        <time>2021-06-01T07:42:13.000Z</time>
      </trkpt>
      <trkpt lat="44.13523" lon="5.88494">
        <ele>806</ele>
        <time>2021-06-01T07:42:14.000Z</time>
      </trkpt>
      <trkpt lat="44.13522" lon="5.88494">
        <ele>806</ele>
        <time>2021-06-01T07:42:15.000Z</time>
      </trkpt>
      <trkpt lat="44.13521" lon="5.88493">
        <ele>806</ele>
        <time>2021-06-01T07:42:16.000Z</time>
      </trkpt>
      <trkpt lat="44.13521" lon="5.88493">
        <ele>807</ele>
        <time>2021-06-01T07:42:17.000Z</time>
      </trkpt>
      <trkpt lat="44.1352" lon="5.88492">
        <ele>807</ele>
        <time>2021-06-01T07:42:18.000Z</time>
      </trkpt>
      <trkpt lat="44.13519" lon="5.88492">
        <ele>807</ele>
        <time>2021-06-01T07:42:19.000Z</time>
      </trkpt>
      <trkpt lat="44.13519" lon="5.88492">
        <ele>807</ele>
        <time>2021-06-01T07:42:20.000Z</time>
      </trkpt>
      <trkpt lat="44.13518" lon="5.88491">
        <ele>807</ele>
        <time>2021-06-01T07:42:21.000Z</time>
      </trkpt>
      <trkpt lat="44.13517" lon="5.8849">
        <ele>807</ele>
        <time>2021-06-01T07:42:22.000Z</time>
      </trkpt>
      <trkpt lat="44.13517" lon="5.8849">
        <ele>807</ele>
        <time>2021-06-01T07:42:23.000Z</time>
      </trkpt>
      <trkpt lat="44.13516" lon="5.8849">
        <ele>808</ele>
        <time>2021-06-01T07:42:24.000Z</time>
      </trkpt>
      <trkpt lat="44.13515" lon="5.8849">
        <ele>808</ele>
        <time>2021-06-01T07:42:25.000Z</time>
      </trkpt>
      <trkpt lat="44.13515" lon="5.88489">
        <ele>808</ele>
        <time>2021-06-01T07:42:26.000Z</time>
      </trkpt>
      <trkpt lat="44.13515" lon="5.88489">
        <ele>808</ele>
        <time>2021-06-01T07:42:27.000Z</time>
      </trkpt>
      <trkpt lat="44.13515" lon="5.88489">
        <ele>808</ele>
        <time>2021-06-01T07:42:28.000Z</time>
      </trkpt>
      <trkpt lat="44.13514" lon="5.88489">
        <ele>808</ele>
        <time>2021-06-01T07:42:29.000Z</time>
      </trkpt>
      <trkpt lat="44.13514" lon="5.88489">
        <ele>808</ele>
        <time>2021-06-01T07:42:30.000Z</time>
      </trkpt>
      <trkpt lat="44.13514" lon="5.88489">
        <ele>809</ele>
        <time>2021-06-01T07:42:31.000Z</time>
      </trkpt>
      <trkpt lat="44.13513" lon="5.88489">
        <ele>809</ele>
        <time>2021-06-01T07:42:32.000Z</time>
      </trkpt>
      <trkpt lat="44.13513" lon="5.88489">
        <ele>809</ele>
        <time>2021-06-01T07:42:33.000Z</time>
      </trkpt>
      <trkpt lat="44.13513" lon="5.88489">
        <ele>809</ele>
        <time>2021-06-01T07:42:34.000Z</time>
      </trkpt>
      <trkpt lat="44.13512" lon="5.88489">
        <ele>809</ele>
        <time>2021-06-01T07:42:35.000Z</time>
      </trkpt>
      <trkpt lat="44.13512" lon="5.88489">
        <ele>809</ele>
        <time>2021-06-01T07:42:36.000Z</time>
      </trkpt>
      <trkpt lat="44.13511" lon="5.88489">
        <ele>810</ele>
        <time>2021-06-01T07:42:37.000Z</time>
      </trkpt>
      <trkpt lat="44.13511" lon="5.88488">
        <ele>810</ele>
        <time>2021-06-01T07:42:38.000Z</time>
      </trkpt>
      <trkpt lat="44.13511" lon="5.88488">
        <ele>810</ele>
        <time>2021-06-01T07:42:39.000Z</time>
      </trkpt>
      <trkpt lat="44.1351" lon="5.88488">
        <ele>810</ele>
        <time>2021-06-01T07:42:40.000Z</time>
      </trkpt>
      <trkpt lat="44.1351" lon="5.88488">
        <ele>810</ele>
        <time>2021-06-01T07:42:41.000Z</time>
      </trkpt>
      <trkpt lat="44.13509" lon="5.88487">
        <ele>810</ele>
        <time>2021-06-01T07:42:42.000Z</time>
      </trkpt>
      <trkpt lat="44.13509" lon="5.88487">
        <ele>810</ele>
        <time>2021-06-01T07:42:43.000Z</time>
      </trkpt>
      <trkpt lat="44.13508" lon="5.88487">
        <ele>810</ele>
        <time>2021-06-01T07:42:44.000Z</time>
      </trkpt>
      <trkpt lat="44.13508" lon="5.88487">
        <ele>810</ele>
        <time>2021-06-01T07:42:45.000Z</time>
      </trkpt>
      <trkpt lat="44.13507" lon="5.88487">
        <ele>810</ele>
        <time>2021-06-01T07:42:46.000Z</time>
      </trkpt>
      <trkpt lat="44.13507" lon="5.88487">
        <ele>810</ele>
        <time>2021-06-01T07:42:47.000Z</time>
      </trkpt>
      <trkpt lat="44.13507" lon="5.88486">
        <ele>810</ele>
        <time>2021-06-01T07:42:48.000Z</time>
      </trkpt>
      <trkpt lat="44.13507" lon="5.88486">
        <ele>810</ele>
        <time>2021-06-01T07:42:49.000Z</time>
      </trkpt>
      <trkpt lat="44.13506" lon="5.88486">
        <ele>811</ele>
        <time>2021-06-01T07:42:50.000Z</time>
      </trkpt>
      <trkpt lat="44.13506" lon="5.88486">
        <ele>811</ele>
        <time>2021-06-01T07:42:51.000Z</time>
      </trkpt>
      <trkpt lat="44.13506" lon="5.88485">
        <ele>811</ele>
        <time>2021-06-01T07:42:52.000Z</time>
      </trkpt>
      <trkpt lat="44.13505" lon="5.88485">
        <ele>811</ele>
        <time>2021-06-01T07:42:53.000Z</time>
      </trkpt>
      <trkpt lat="44.13505" lon="5.88485">
        <ele>811</ele>
        <time>2021-06-01T07:42:54.000Z</time>
      </trkpt>
      <trkpt lat="44.13505" lon="5.88485">
        <ele>811</ele>
        <time>2021-06-01T07:42:55.000Z</time>
      </trkpt>
      <trkpt lat="44.13504" lon="5.88485">
        <ele>811</ele>
        <time>2021-06-01T07:42:56.000Z</time>
      </trkpt>
      <trkpt lat="44.13504" lon="5.88484">
        <ele>811</ele>
        <time>2021-06-01T07:42:57.000Z</time>
      </trkpt>
      <trkpt lat="44.13504" lon="5.88484">
        <ele>811</ele>
        <time>2021-06-01T07:42:58.000Z</time>
      </trkpt>
      <trkpt lat="44.13504" lon="5.88484">
        <ele>811</ele>
        <time>2021-06-01T07:42:59.000Z</time>
      </trkpt>
      <trkpt lat="44.13504" lon="5.88484">
        <ele>811</ele>
        <time>2021-06-01T07:43:00.000Z</time>
      </trkpt>
      <trkpt lat="44.13504" lon="5.88484">
        <ele>811</ele>
        <time>2021-06-01T07:43:01.000Z</time>
      </trkpt>
      <trkpt lat="44.13504" lon="5.88484">
        <ele>812</ele>
        <time>2021-06-01T07:43:02.000Z</time>
      </trkpt>
      <trkpt lat="44.13504" lon="5.88484">
        <ele>812</ele>
        <time>2021-06-01T07:43:03.000Z</time>
      </trkpt>
      <trkpt lat="44.13504" lon="5.88484">
        <ele>812</ele>
        <time>2021-06-01T07:43:04.000Z</time>
      </trkpt>
      <trkpt lat="44.13504" lon="5.88484">
        <ele>812</ele>
        <time>2021-06-01T07:43:05.000Z</time>
      </trkpt>
      <trkpt lat="44.13503" lon="5.88484">
        <ele>812</ele>
        <time>2021-06-01T07:43:06.000Z</time>
      </trkpt>
      <trkpt lat="44.13503" lon="5.88484">
        <ele>812</ele>
        <time>2021-06-01T07:43:07.000Z</time>
      </trkpt>
      <trkpt lat="44.13503" lon="5.88484">
        <ele>812</ele>
        <time>2021-06-01T07:43:08.000Z</time>
      </trkpt>
      <trkpt lat="44.13503" lon="5.88484">
        <ele>812</ele>
        <time>2021-06-01T07:43:09.000Z</time>
      </trkpt>
      <trkpt lat="44.13503" lon="5.88484">
        <ele>813</ele>
        <time>2021-06-01T07:43:10.000Z</time>
      </trkpt>
      <trkpt lat="44.13503" lon="5.88484">
        <ele>813</ele>
        <time>2021-06-01T07:43:11.000Z</time>
      </trkpt>
      <trkpt lat="44.13503" lon="5.88483">
        <ele>813</ele>
        <time>2021-06-01T07:43:12.000Z</time>
      </trkpt>
      <trkpt lat="44.13503" lon="5.88483">
        <ele>813</ele>
        <time>2021-06-01T07:43:13.000Z</time>
      </trkpt>
      <trkpt lat="44.13503" lon="5.88483">
        <ele>813</ele>
        <time>2021-06-01T07:43:14.000Z</time>
      </trkpt>
      <trkpt lat="44.13503" lon="5.88483">
        <ele>813</ele>
        <time>2021-06-01T07:43:15.000Z</time>
      </trkpt>
      <trkpt lat="44.13503" lon="5.88484">
        <ele>814</ele>
        <time>2021-06-01T07:43:16.000Z</time>
      </trkpt>
      <trkpt lat="44.13503" lon="5.88484">
        <ele>814</ele>
        <time>2021-06-01T07:43:17.000Z</time>
      </trkpt>
      <trkpt lat="44.13503" lon="5.88484">
        <ele>814</ele>
        <time>2021-06-01T07:43:18.000Z</time>
      </trkpt>
      <trkpt lat="44.13503" lon="5.88484">
        <ele>814</ele>
        <time>2021-06-01T07:43:19.000Z</time>
      </trkpt>
      <trkpt lat="44.13503" lon="5.88483">
        <ele>814</ele>
        <time>2021-06-01T07:43:20.000Z</time>
      </trkpt>
      <trkpt lat="44.13502" lon="5.88483">
        <ele>814</ele>
        <time>2021-06-01T07:43:21.000Z</time>
      </trkpt>
      <trkpt lat="44.13502" lon="5.88483">
        <ele>816</ele>
        <time>2021-06-01T07:43:49.000Z</time>
      </trkpt>
      <trkpt lat="44.13502" lon="5.88483">
        <ele>816</ele>
        <time>2021-06-01T07:43:50.000Z</time>
      </trkpt>
      <trkpt lat="44.13495" lon="5.88481">
        <ele>816</ele>
        <time>2021-06-01T07:43:51.000Z</time>
      </trkpt>
      <trkpt lat="44.13494" lon="5.88481">
        <ele>816</ele>
        <time>2021-06-01T07:43:52.000Z</time>
      </trkpt>
      <trkpt lat="44.13494" lon="5.88481">
        <ele>816</ele>
        <time>2021-06-01T07:43:53.000Z</time>
      </trkpt>
      <trkpt lat="44.13493" lon="5.8848">
        <ele>816</ele>
        <time>2021-06-01T07:43:54.000Z</time>
      </trkpt>
      <trkpt lat="44.13492" lon="5.8848">
        <ele>815</ele>
        <time>2021-06-01T07:43:55.000Z</time>
      </trkpt>
      <trkpt lat="44.13492" lon="5.88479">
        <ele>815</ele>
        <time>2021-06-01T07:43:56.000Z</time>
      </trkpt>
      <trkpt lat="44.13492" lon="5.88479">
        <ele>815</ele>
        <time>2021-06-01T07:43:57.000Z</time>
      </trkpt>
      <trkpt lat="44.13492" lon="5.88478">
        <ele>815</ele>
        <time>2021-06-01T07:43:58.000Z</time>
      </trkpt>
      <trkpt lat="44.13492" lon="5.88477">
        <ele>815</ele>
        <time>2021-06-01T07:43:59.000Z</time>
      </trkpt>
      <trkpt lat="44.13492" lon="5.88476">
        <ele>815</ele>
        <time>2021-06-01T07:44:00.000Z</time>
      </trkpt>
      <trkpt lat="44.13492" lon="5.88476">
        <ele>816</ele>
        <time>2021-06-01T07:44:01.000Z</time>
      </trkpt>
      <trkpt lat="44.13492" lon="5.88475">
        <ele>817</ele>
        <time>2021-06-01T07:44:02.000Z</time>
      </trkpt>
      <trkpt lat="44.13492" lon="5.88474">
        <ele>817</ele>
        <time>2021-06-01T07:44:03.000Z</time>
      </trkpt>
      <trkpt lat="44.13492" lon="5.88473">
        <ele>818</ele>
        <time>2021-06-01T07:44:04.000Z</time>
      </trkpt>
      <trkpt lat="44.13493" lon="5.88472">
        <ele>819</ele>
        <time>2021-06-01T07:44:05.000Z</time>
      </trkpt>
      <trkpt lat="44.13493" lon="5.88472">
        <ele>819</ele>
        <time>2021-06-01T07:44:06.000Z</time>
      </trkpt>
      <trkpt lat="44.13493" lon="5.88472">
        <ele>820</ele>
        <time>2021-06-01T07:44:07.000Z</time>
      </trkpt>
      <trkpt lat="44.13493" lon="5.88471">
        <ele>821</ele>
        <time>2021-06-01T07:44:08.000Z</time>
      </trkpt>
      <trkpt lat="44.13493" lon="5.8847">
        <ele>821</ele>
        <time>2021-06-01T07:44:09.000Z</time>
      </trkpt>
      <trkpt lat="44.13494" lon="5.8847">
        <ele>822</ele>
        <time>2021-06-01T07:44:10.000Z</time>
      </trkpt>
      <trkpt lat="44.13494" lon="5.88469">
        <ele>823</ele>
        <time>2021-06-01T07:44:11.000Z</time>
      </trkpt>
      <trkpt lat="44.13494" lon="5.88469">
        <ele>823</ele>
        <time>2021-06-01T07:44:12.000Z</time>
      </trkpt>
      <trkpt lat="44.13494" lon="5.88468">
        <ele>824</ele>
        <time>2021-06-01T07:44:13.000Z</time>
      </trkpt>
      <trkpt lat="44.13494" lon="5.88467">
        <ele>824</ele>
        <time>2021-06-01T07:44:14.000Z</time>
      </trkpt>
      <trkpt lat="44.13494" lon="5.88467">
        <ele>825</ele>
        <time>2021-06-01T07:44:15.000Z</time>
      </trkpt>
      <trkpt lat="44.13495" lon="5.88466">
        <ele>826</ele>
        <time>2021-06-01T07:44:16.000Z</time>
      </trkpt>
      <trkpt lat="44.13495" lon="5.88466">
        <ele>827</ele>
        <time>2021-06-01T07:44:17.000Z</time>
      </trkpt>
      <trkpt lat="44.13495" lon="5.88465">
        <ele>828</ele>
        <time>2021-06-01T07:44:18.000Z</time>
      </trkpt>
      <trkpt lat="44.13494" lon="5.88465">
        <ele>829</ele>
        <time>2021-06-01T07:44:19.000Z</time>
      </trkpt>
      <trkpt lat="44.13495" lon="5.88464">
        <ele>829</ele>
        <time>2021-06-01T07:44:20.000Z</time>
      </trkpt>
      <trkpt lat="44.13495" lon="5.88464">
        <ele>830</ele>
        <time>2021-06-01T07:44:21.000Z</time>
      </trkpt>
      <trkpt lat="44.13495" lon="5.88464">
        <ele>830</ele>
        <time>2021-06-01T07:44:22.000Z</time>
      </trkpt>
      <trkpt lat="44.13495" lon="5.88463">
        <ele>830</ele>
        <time>2021-06-01T07:44:23.000Z</time>
      </trkpt>
      <trkpt lat="44.13495" lon="5.88463">
        <ele>831</ele>
        <time>2021-06-01T07:44:24.000Z</time>
      </trkpt>
      <trkpt lat="44.13496" lon="5.88463">
        <ele>831</ele>
        <time>2021-06-01T07:44:25.000Z</time>
      </trkpt>
      <trkpt lat="44.13496" lon="5.88463">
        <ele>832</ele>
        <time>2021-06-01T07:44:28.000Z</time>
      </trkpt>
      <trkpt lat="44.13496" lon="5.88463">
        <ele>833</ele>
        <time>2021-06-01T07:44:29.000Z</time>
      </trkpt>
      <trkpt lat="44.13496" lon="5.88462">
        <ele>833</ele>
        <time>2021-06-01T07:44:30.000Z</time>
      </trkpt>
      <trkpt lat="44.13496" lon="5.88461">
        <ele>833</ele>
        <time>2021-06-01T07:44:31.000Z</time>
      </trkpt>
      <trkpt lat="44.13496" lon="5.88461">
        <ele>835</ele>
        <time>2021-06-01T07:44:34.000Z</time>
      </trkpt>
      <trkpt lat="44.13496" lon="5.88461">
        <ele>835</ele>
        <time>2021-06-01T07:44:35.000Z</time>
      </trkpt>
      <trkpt lat="44.13497" lon="5.8846">
        <ele>835</ele>
        <time>2021-06-01T07:44:36.000Z</time>
      </trkpt>
      <trkpt lat="44.13497" lon="5.8846">
        <ele>836</ele>
        <time>2021-06-01T07:44:39.000Z</time>
      </trkpt>
      <trkpt lat="44.13497" lon="5.8846">
        <ele>836</ele>
        <time>2021-06-01T07:44:40.000Z</time>
      </trkpt>
      <trkpt lat="44.13497" lon="5.88458">
        <ele>837</ele>
        <time>2021-06-01T07:44:41.000Z</time>
      </trkpt>
      <trkpt lat="44.13497" lon="5.88458">
        <ele>837</ele>
        <time>2021-06-01T07:44:42.000Z</time>
      </trkpt>
      <trkpt lat="44.13497" lon="5.88458">
        <ele>838</ele>
        <time>2021-06-01T07:44:43.000Z</time>
      </trkpt>
      <trkpt lat="44.13497" lon="5.88458">
        <ele>838</ele>
        <time>2021-06-01T07:44:44.000Z</time>
      </trkpt>
      <trkpt lat="44.13497" lon="5.88458">
        <ele>839</ele>
        <time>2021-06-01T07:44:45.000Z</time>
      </trkpt>
      <trkpt lat="44.13497" lon="5.88458">
        <ele>839</ele>
        <time>2021-06-01T07:44:46.000Z</time>
      </trkpt>
      <trkpt lat="44.13497" lon="5.88458">
        <ele>839</ele>
        <time>2021-06-01T07:44:47.000Z</time>
      </trkpt>
      <trkpt lat="44.13497" lon="5.88457">
        <ele>840</ele>
        <time>2021-06-01T07:44:48.000Z</time>
      </trkpt>
      <trkpt lat="44.13498" lon="5.88457">
        <ele>840</ele>
        <time>2021-06-01T07:44:49.000Z</time>
      </trkpt>
      <trkpt lat="44.13498" lon="5.88456">
        <ele>841</ele>
        <time>2021-06-01T07:44:50.000Z</time>
      </trkpt>
      <trkpt lat="44.13497" lon="5.88456">
        <ele>841</ele>
        <time>2021-06-01T07:44:51.000Z</time>
      </trkpt>
      <trkpt lat="44.13497" lon="5.88455">
        <ele>842</ele>
        <time>2021-06-01T07:44:52.000Z</time>
      </trkpt>
      <trkpt lat="44.13497" lon="5.88455">
        <ele>843</ele>
        <time>2021-06-01T07:44:53.000Z</time>
      </trkpt>
      <trkpt lat="44.13497" lon="5.88455">
        <ele>843</ele>
        <time>2021-06-01T07:44:54.000Z</time>
      </trkpt>
      <trkpt lat="44.13497" lon="5.88454">
        <ele>844</ele>
        <time>2021-06-01T07:44:55.000Z</time>
      </trkpt>
      <trkpt lat="44.13497" lon="5.88454">
        <ele>844</ele>
        <time>2021-06-01T07:44:56.000Z</time>
      </trkpt>
      <trkpt lat="44.13496" lon="5.88453">
        <ele>845</ele>
        <time>2021-06-01T07:44:57.000Z</time>
      </trkpt>
      <trkpt lat="44.13496" lon="5.88452">
        <ele>846</ele>
        <time>2021-06-01T07:44:58.000Z</time>
      </trkpt>
      <trkpt lat="44.13496" lon="5.88452">
        <ele>847</ele>
        <time>2021-06-01T07:44:59.000Z</time>
      </trkpt>
      <trkpt lat="44.13495" lon="5.88451">
        <ele>847</ele>
        <time>2021-06-01T07:45:00.000Z</time>
      </trkpt>
      <trkpt lat="44.13495" lon="5.88451">
        <ele>848</ele>
        <time>2021-06-01T07:45:01.000Z</time>
      </trkpt>
      <trkpt lat="44.13495" lon="5.88451">
        <ele>848</ele>
        <time>2021-06-01T07:45:02.000Z</time>
      </trkpt>
      <trkpt lat="44.13495" lon="5.8845">
        <ele>849</ele>
        <time>2021-06-01T07:45:03.000Z</time>
      </trkpt>
      <trkpt lat="44.13495" lon="5.8845">
        <ele>850</ele>
        <time>2021-06-01T07:45:04.000Z</time>
      </trkpt>
      <trkpt lat="44.13495" lon="5.8845">
        <ele>851</ele>
        <time>2021-06-01T07:45:05.000Z</time>
      </trkpt>
      <trkpt lat="44.13495" lon="5.8845">
        <ele>852</ele>
        <time>2021-06-01T07:45:06.000Z</time>
      </trkpt>
      <trkpt lat="44.13495" lon="5.88449">
        <ele>853</ele>
        <time>2021-06-01T07:45:07.000Z</time>
      </trkpt>
      <trkpt lat="44.13494" lon="5.88449">
        <ele>854</ele>
        <time>2021-06-01T07:45:08.000Z</time>
      </trkpt>
      <trkpt lat="44.13494" lon="5.88449">
        <ele>855</ele>
        <time>2021-06-01T07:45:09.000Z</time>
      </trkpt>
      <trkpt lat="44.13494" lon="5.88448">
        <ele>856</ele>
        <time>2021-06-01T07:45:10.000Z</time>
      </trkpt>
      <trkpt lat="44.13494" lon="5.88448">
        <ele>857</ele>
        <time>2021-06-01T07:45:11.000Z</time>
      </trkpt>
      <trkpt lat="44.13494" lon="5.88448">
        <ele>858</ele>
        <time>2021-06-01T07:45:12.000Z</time>
      </trkpt>
      <trkpt lat="44.13494" lon="5.88448">
        <ele>859</ele>
        <time>2021-06-01T07:45:13.000Z</time>
      </trkpt>
      <trkpt lat="44.13494" lon="5.88448">
        <ele>859</ele>
        <time>2021-06-01T07:45:14.000Z</time>
      </trkpt>
      <trkpt lat="44.13494" lon="5.88448">
        <ele>860</ele>
        <time>2021-06-01T07:45:15.000Z</time>
      </trkpt>
      <trkpt lat="44.13494" lon="5.88448">
        <ele>860</ele>
        <time>2021-06-01T07:45:16.000Z</time>
      </trkpt>
      <trkpt lat="44.13494" lon="5.88448">
        <ele>860</ele>
        <time>2021-06-01T07:45:17.000Z</time>
      </trkpt>
      <trkpt lat="44.13494" lon="5.88448">
        <ele>861</ele>
        <time>2021-06-01T07:45:18.000Z</time>
      </trkpt>
      <trkpt lat="44.13494" lon="5.88448">
        <ele>861</ele>
        <time>2021-06-01T07:45:19.000Z</time>
      </trkpt>
      <trkpt lat="44.13494" lon="5.88448">
        <ele>861</ele>
        <time>2021-06-01T07:45:20.000Z</time>
      </trkpt>
      <trkpt lat="44.13494" lon="5.88449">
        <ele>862</ele>
        <time>2021-06-01T07:45:21.000Z</time>
      </trkpt>
      <trkpt lat="44.13494" lon="5.88449">
        <ele>862</ele>
        <time>2021-06-01T07:45:22.000Z</time>
      </trkpt>
      <trkpt lat="44.13494" lon="5.88449">
        <ele>862</ele>
        <time>2021-06-01T07:45:23.000Z</time>
      </trkpt>
      <trkpt lat="44.13494" lon="5.88449">
        <ele>863</ele>
        <time>2021-06-01T07:45:24.000Z</time>
      </trkpt>
      <trkpt lat="44.13494" lon="5.88448">
        <ele>863</ele>
        <time>2021-06-01T07:45:25.000Z</time>
      </trkpt>
      <trkpt lat="44.13494" lon="5.88447">
        <ele>863</ele>
        <time>2021-06-01T07:45:26.000Z</time>
      </trkpt>
      <trkpt lat="44.13493" lon="5.88447">
        <ele>863</ele>
        <time>2021-06-01T07:45:27.000Z</time>
      </trkpt>
      <trkpt lat="44.13493" lon="5.88446">
        <ele>863</ele>
        <time>2021-06-01T07:45:28.000Z</time>
      </trkpt>
      <trkpt lat="44.13493" lon="5.88446">
        <ele>864</ele>
        <time>2021-06-01T07:45:29.000Z</time>
      </trkpt>
      <trkpt lat="44.13493" lon="5.88446">
        <ele>864</ele>
        <time>2021-06-01T07:45:30.000Z</time>
      </trkpt>
      <trkpt lat="44.13493" lon="5.88445">
        <ele>864</ele>
        <time>2021-06-01T07:45:31.000Z</time>
      </trkpt>
      <trkpt lat="44.13493" lon="5.88444">
        <ele>865</ele>
        <time>2021-06-01T07:45:32.000Z</time>
      </trkpt>
      <trkpt lat="44.13493" lon="5.88444">
        <ele>865</ele>
        <time>2021-06-01T07:45:33.000Z</time>
      </trkpt>
      <trkpt lat="44.13492" lon="5.88443">
        <ele>865</ele>
        <time>2021-06-01T07:45:34.000Z</time>
      </trkpt>
      <trkpt lat="44.13492" lon="5.88443">
        <ele>865</ele>
        <time>2021-06-01T07:45:35.000Z</time>
      </trkpt>
      <trkpt lat="44.13492" lon="5.88443">
        <ele>865</ele>
        <time>2021-06-01T07:45:36.000Z</time>
      </trkpt>
      <trkpt lat="44.13493" lon="5.88442">
        <ele>866</ele>
        <time>2021-06-01T07:45:37.000Z</time>
      </trkpt>
      <trkpt lat="44.13493" lon="5.88442">
        <ele>866</ele>
        <time>2021-06-01T07:45:38.000Z</time>
      </trkpt>
      <trkpt lat="44.13493" lon="5.88441">
        <ele>866</ele>
        <time>2021-06-01T07:45:39.000Z</time>
      </trkpt>
      <trkpt lat="44.13492" lon="5.88441">
        <ele>866</ele>
        <time>2021-06-01T07:45:40.000Z</time>
      </trkpt>
      <trkpt lat="44.13492" lon="5.88441">
        <ele>866</ele>
        <time>2021-06-01T07:45:41.000Z</time>
      </trkpt>
      <trkpt lat="44.13492" lon="5.8844">
        <ele>866</ele>
        <time>2021-06-01T07:45:42.000Z</time>
      </trkpt>
      <trkpt lat="44.13492" lon="5.8844">
        <ele>867</ele>
        <time>2021-06-01T07:45:43.000Z</time>
      </trkpt>
      <trkpt lat="44.13492" lon="5.88441">
        <ele>867</ele>
        <time>2021-06-01T07:45:44.000Z</time>
      </trkpt>
      <trkpt lat="44.13492" lon="5.88441">
        <ele>867</ele>
        <time>2021-06-01T07:45:45.000Z</time>
      </trkpt>
      <trkpt lat="44.13492" lon="5.88442">
        <ele>867</ele>
        <time>2021-06-01T07:45:46.000Z</time>
      </trkpt>
      <trkpt lat="44.13492" lon="5.88443">
        <ele>867</ele>
        <time>2021-06-01T07:45:47.000Z</time>
      </trkpt>
      <trkpt lat="44.13492" lon="5.88444">
        <ele>867</ele>
        <time>2021-06-01T07:45:48.000Z</time>
      </trkpt>
      <trkpt lat="44.13491" lon="5.88445">
        <ele>867</ele>
        <time>2021-06-01T07:45:49.000Z</time>
      </trkpt>
      <trkpt lat="44.13491" lon="5.88445">
        <ele>867</ele>
        <time>2021-06-01T07:45:50.000Z</time>
      </trkpt>
      <trkpt lat="44.13492" lon="5.88445">
        <ele>867</ele>
        <time>2021-06-01T07:45:51.000Z</time>
      </trkpt>
      <trkpt lat="44.13492" lon="5.88445">
        <ele>867</ele>
        <time>2021-06-01T07:45:52.000Z</time>
      </trkpt>
      <trkpt lat="44.13492" lon="5.88445">
        <ele>867</ele>
        <time>2021-06-01T07:45:53.000Z</time>
      </trkpt>
      <trkpt lat="44.13492" lon="5.88445">
        <ele>867</ele>
        <time>2021-06-01T07:45:54.000Z</time>
      </trkpt>
      <trkpt lat="44.13491" lon="5.88445">
        <ele>867</ele>
        <time>2021-06-01T07:45:55.000Z</time>
      </trkpt>
      <trkpt lat="44.13491" lon="5.88445">
        <ele>867</ele>
        <time>2021-06-01T07:45:56.000Z</time>
      </trkpt>
      <trkpt lat="44.13491" lon="5.88445">
        <ele>867</ele>
        <time>2021-06-01T07:45:57.000Z</time>
      </trkpt>
      <trkpt lat="44.13491" lon="5.88445">
        <ele>867</ele>
        <time>2021-06-01T07:45:58.000Z</time>
      </trkpt>
      <trkpt lat="44.13491" lon="5.88446">
        <ele>867</ele>
        <time>2021-06-01T07:45:59.000Z</time>
      </trkpt>
      <trkpt lat="44.13491" lon="5.88446">
        <ele>867</ele>
        <time>2021-06-01T07:46:08.000Z</time>
      </trkpt>
      <trkpt lat="44.13491" lon="5.88446">
        <ele>866</ele>
        <time>2021-06-01T07:46:09.000Z</time>
      </trkpt>
      <trkpt lat="44.13491" lon="5.88448">
        <ele>866</ele>
        <time>2021-06-01T07:46:10.000Z</time>
      </trkpt>
      <trkpt lat="44.13491" lon="5.88449">
        <ele>866</ele>
        <time>2021-06-01T07:46:11.000Z</time>
      </trkpt>
      <trkpt lat="44.13491" lon="5.8845">
        <ele>867</ele>
        <time>2021-06-01T07:46:12.000Z</time>
      </trkpt>
      <trkpt lat="44.1349" lon="5.8845">
        <ele>867</ele>
        <time>2021-06-01T07:46:13.000Z</time>
      </trkpt>
      <trkpt lat="44.1349" lon="5.8845">
        <ele>867</ele>
        <time>2021-06-01T07:46:14.000Z</time>
      </trkpt>
      <trkpt lat="44.13491" lon="5.8845">
        <ele>867</ele>
        <time>2021-06-01T07:46:15.000Z</time>
      </trkpt>
      <trkpt lat="44.13491" lon="5.8845">
        <ele>867</ele>
        <time>2021-06-01T07:46:16.000Z</time>
      </trkpt>
      <trkpt lat="44.13492" lon="5.88451">
        <ele>867</ele>
        <time>2021-06-01T07:46:17.000Z</time>
      </trkpt>
      <trkpt lat="44.13492" lon="5.88451">
        <ele>867</ele>
        <time>2021-06-01T07:46:18.000Z</time>
      </trkpt>
      <trkpt lat="44.13492" lon="5.88451">
        <ele>868</ele>
        <time>2021-06-01T07:46:19.000Z</time>
      </trkpt>
      <trkpt lat="44.13492" lon="5.88451">
        <ele>868</ele>
        <time>2021-06-01T07:46:20.000Z</time>
      </trkpt>
      <trkpt lat="44.13492" lon="5.88452">
        <ele>868</ele>
        <time>2021-06-01T07:46:21.000Z</time>
      </trkpt>
      <trkpt lat="44.13492" lon="5.88452">
        <ele>868</ele>
        <time>2021-06-01T07:46:22.000Z</time>
      </trkpt>
      <trkpt lat="44.13492" lon="5.88452">
        <ele>868</ele>
        <time>2021-06-01T07:46:23.000Z</time>
      </trkpt>
      <trkpt lat="44.13492" lon="5.88453">
        <ele>868</ele>
        <time>2021-06-01T07:46:24.000Z</time>
      </trkpt>
      <trkpt lat="44.13492" lon="5.88453">
        <ele>868</ele>
        <time>2021-06-01T07:46:25.000Z</time>
      </trkpt>
      <trkpt lat="44.13492" lon="5.88454">
        <ele>867</ele>
        <time>2021-06-01T07:46:26.000Z</time>
      </trkpt>
      <trkpt lat="44.13491" lon="5.88454">
        <ele>867</ele>
        <time>2021-06-01T07:46:27.000Z</time>
      </trkpt>
      <trkpt lat="44.13491" lon="5.88454">
        <ele>867</ele>
        <time>2021-06-01T07:46:28.000Z</time>
      </trkpt>
      <trkpt lat="44.13491" lon="5.88455">
        <ele>866</ele>
        <time>2021-06-01T07:46:29.000Z</time>
      </trkpt>
      <trkpt lat="44.13491" lon="5.88455">
        <ele>866</ele>
        <time>2021-06-01T07:46:30.000Z</time>
      </trkpt>
      <trkpt lat="44.13491" lon="5.88455">
        <ele>858</ele>
        <time>2021-06-01T07:46:54.000Z</time>
      </trkpt>
      <trkpt lat="44.13491" lon="5.88455">
        <ele>858</ele>
        <time>2021-06-01T07:46:55.000Z</time>
      </trkpt>
      <trkpt lat="44.13486" lon="5.88462">
        <ele>858</ele>
        <time>2021-06-01T07:46:56.000Z</time>
      </trkpt>
      <trkpt lat="44.13486" lon="5.88463">
        <ele>859</ele>
        <time>2021-06-01T07:46:57.000Z</time>
      </trkpt>
      <trkpt lat="44.13486" lon="5.88463">
        <ele>859</ele>
        <time>2021-06-01T07:46:58.000Z</time>
      </trkpt>
      <trkpt lat="44.13487" lon="5.88463">
        <ele>860</ele>
        <time>2021-06-01T07:46:59.000Z</time>
      </trkpt>
      <trkpt lat="44.13487" lon="5.88463">
        <ele>861</ele>
        <time>2021-06-01T07:47:00.000Z</time>
      </trkpt>
      <trkpt lat="44.13488" lon="5.88463">
        <ele>861</ele>
        <time>2021-06-01T07:47:01.000Z</time>
      </trkpt>
      <trkpt lat="44.13488" lon="5.88463">
        <ele>862</ele>
        <time>2021-06-01T07:47:02.000Z</time>
      </trkpt>
      <trkpt lat="44.13488" lon="5.88463">
        <ele>863</ele>
        <time>2021-06-01T07:47:03.000Z</time>
      </trkpt>
      <trkpt lat="44.13489" lon="5.88463">
        <ele>863</ele>
        <time>2021-06-01T07:47:04.000Z</time>
      </trkpt>
      <trkpt lat="44.13489" lon="5.88463">
        <ele>864</ele>
        <time>2021-06-01T07:47:05.000Z</time>
      </trkpt>
      <trkpt lat="44.13489" lon="5.88463">
        <ele>865</ele>
        <time>2021-06-01T07:47:06.000Z</time>
      </trkpt>
      <trkpt lat="44.13489" lon="5.88463">
        <ele>866</ele>
        <time>2021-06-01T07:47:07.000Z</time>
      </trkpt>
      <trkpt lat="44.1349" lon="5.88462">
        <ele>866</ele>
        <time>2021-06-01T07:47:08.000Z</time>
      </trkpt>
      <trkpt lat="44.1349" lon="5.88462">
        <ele>867</ele>
        <time>2021-06-01T07:47:09.000Z</time>
      </trkpt>
      <trkpt lat="44.1349" lon="5.88462">
        <ele>867</ele>
        <time>2021-06-01T07:47:10.000Z</time>
      </trkpt>
      <trkpt lat="44.1349" lon="5.88462">
        <ele>868</ele>
        <time>2021-06-01T07:47:11.000Z</time>
      </trkpt>
      <trkpt lat="44.13491" lon="5.88462">
        <ele>868</ele>
        <time>2021-06-01T07:47:12.000Z</time>
      </trkpt>
      <trkpt lat="44.13491" lon="5.88461">
        <ele>869</ele>
        <time>2021-06-01T07:47:13.000Z</time>
      </trkpt>
      <trkpt lat="44.13492" lon="5.88461">
        <ele>870</ele>
        <time>2021-06-01T07:47:14.000Z</time>
      </trkpt>
      <trkpt lat="44.13492" lon="5.88462">
        <ele>870</ele>
        <time>2021-06-01T07:47:15.000Z</time>
      </trkpt>
      <trkpt lat="44.13493" lon="5.88462">
        <ele>871</ele>
        <time>2021-06-01T07:47:16.000Z</time>
      </trkpt>
      <trkpt lat="44.13493" lon="5.88463">
        <ele>872</ele>
        <time>2021-06-01T07:47:17.000Z</time>
      </trkpt>
      <trkpt lat="44.13493" lon="5.88464">
        <ele>872</ele>
        <time>2021-06-01T07:47:18.000Z</time>
      </trkpt>
      <trkpt lat="44.13493" lon="5.88464">
        <ele>873</ele>
        <time>2021-06-01T07:47:19.000Z</time>
      </trkpt>
      <trkpt lat="44.13493" lon="5.88464">
        <ele>874</ele>
        <time>2021-06-01T07:47:20.000Z</time>
      </trkpt>
      <trkpt lat="44.13493" lon="5.88465">
        <ele>875</ele>
        <time>2021-06-01T07:47:21.000Z</time>
      </trkpt>
      <trkpt lat="44.13493" lon="5.88465">
        <ele>877</ele>
        <time>2021-06-01T07:47:24.000Z</time>
      </trkpt>
      <trkpt lat="44.13493" lon="5.88465">
        <ele>877</ele>
        <time>2021-06-01T07:47:25.000Z</time>
      </trkpt>
      <trkpt lat="44.13493" lon="5.88464">
        <ele>878</ele>
        <time>2021-06-01T07:47:26.000Z</time>
      </trkpt>
      <trkpt lat="44.13494" lon="5.88464">
        <ele>879</ele>
        <time>2021-06-01T07:47:27.000Z</time>
      </trkpt>
      <trkpt lat="44.13494" lon="5.88463">
        <ele>880</ele>
        <time>2021-06-01T07:47:28.000Z</time>
      </trkpt>
      <trkpt lat="44.13494" lon="5.88463">
        <ele>881</ele>
        <time>2021-06-01T07:47:29.000Z</time>
      </trkpt>
      <trkpt lat="44.13494" lon="5.88463">
        <ele>881</ele>
        <time>2021-06-01T07:47:30.000Z</time>
      </trkpt>
      <trkpt lat="44.13494" lon="5.88464">
        <ele>882</ele>
        <time>2021-06-01T07:47:31.000Z</time>
      </trkpt>
      <trkpt lat="44.13494" lon="5.88464">
        <ele>883</ele>
        <time>2021-06-01T07:47:32.000Z</time>
      </trkpt>
      <trkpt lat="44.13494" lon="5.88465">
        <ele>883</ele>
        <time>2021-06-01T07:47:33.000Z</time>
      </trkpt>
      <trkpt lat="44.13494" lon="5.88465">
        <ele>883</ele>
        <time>2021-06-01T07:47:34.000Z</time>
      </trkpt>
      <trkpt lat="44.13494" lon="5.88465">
        <ele>884</ele>
        <time>2021-06-01T07:47:35.000Z</time>
      </trkpt>
      <trkpt lat="44.13494" lon="5.88466">
        <ele>884</ele>
        <time>2021-06-01T07:47:36.000Z</time>
      </trkpt>
      <trkpt lat="44.13495" lon="5.88466">
        <ele>884</ele>
        <time>2021-06-01T07:47:37.000Z</time>
      </trkpt>
      <trkpt lat="44.13495" lon="5.88466">
        <ele>886</ele>
        <time>2021-06-01T07:47:49.000Z</time>
      </trkpt>
      <trkpt lat="44.13495" lon="5.88466">
        <ele>886</ele>
        <time>2021-06-01T07:47:50.000Z</time>
      </trkpt>
      <trkpt lat="44.13496" lon="5.88472">
        <ele>885</ele>
        <time>2021-06-01T07:47:51.000Z</time>
      </trkpt>
      <trkpt lat="44.13495" lon="5.88472">
        <ele>885</ele>
        <time>2021-06-01T07:47:52.000Z</time>
      </trkpt>
      <trkpt lat="44.13494" lon="5.88471">
        <ele>884</ele>
        <time>2021-06-01T07:47:53.000Z</time>
      </trkpt>
      <trkpt lat="44.13494" lon="5.88471">
        <ele>884</ele>
        <time>2021-06-01T07:47:54.000Z</time>
      </trkpt>
      <trkpt lat="44.13493" lon="5.88471">
        <ele>884</ele>
        <time>2021-06-01T07:47:55.000Z</time>
      </trkpt>
      <trkpt lat="44.13493" lon="5.88471">
        <ele>884</ele>
        <time>2021-06-01T07:47:58.000Z</time>
      </trkpt>
      <trkpt lat="44.13493" lon="5.88471">
        <ele>884</ele>
        <time>2021-06-01T07:47:59.000Z</time>
      </trkpt>
      <trkpt lat="44.13493" lon="5.88471">
        <ele>884</ele>
        <time>2021-06-01T07:48:01.000Z</time>
      </trkpt>
      <trkpt lat="44.13493" lon="5.88471">
        <ele>888</ele>
        <time>2021-06-01T07:48:59.000Z</time>
      </trkpt>
      <trkpt lat="44.13493" lon="5.88471">
        <ele>890</ele>
        <time>2021-06-01T07:49:00.000Z</time>
      </trkpt>
      <trkpt lat="44.13528" lon="5.88461">
        <ele>891</ele>
        <time>2021-06-01T07:49:01.000Z</time>
      </trkpt>
      <trkpt lat="44.13531" lon="5.88461">
        <ele>893</ele>
        <time>2021-06-01T07:49:02.000Z</time>
      </trkpt>
      <trkpt lat="44.13534" lon="5.88461">
        <ele>894</ele>
        <time>2021-06-01T07:49:03.000Z</time>
      </trkpt>
      <trkpt lat="44.13537" lon="5.88461">
        <ele>896</ele>
        <time>2021-06-01T07:49:04.000Z</time>
      </trkpt>
      <trkpt lat="44.13539" lon="5.88462">
        <ele>897</ele>
        <time>2021-06-01T07:49:05.000Z</time>
      </trkpt>
      <trkpt lat="44.13542" lon="5.88462">
        <ele>899</ele>
        <time>2021-06-01T07:49:06.000Z</time>
      </trkpt>
      <trkpt lat="44.13544" lon="5.88463">
        <ele>900</ele>
        <time>2021-06-01T07:49:07.000Z</time>
      </trkpt>
      <trkpt lat="44.13547" lon="5.88463">
        <ele>902</ele>
        <time>2021-06-01T07:49:08.000Z</time>
      </trkpt>
      <trkpt lat="44.13549" lon="5.88463">
        <ele>903</ele>
        <time>2021-06-01T07:49:09.000Z</time>
      </trkpt>
      <trkpt lat="44.13551" lon="5.88464">
        <ele>904</ele>
        <time>2021-06-01T07:49:10.000Z</time>
      </trkpt>
      <trkpt lat="44.13553" lon="5.88464">
        <ele>906</ele>
        <time>2021-06-01T07:49:11.000Z</time>
      </trkpt>
      <trkpt lat="44.13555" lon="5.88464">
        <ele>907</ele>
        <time>2021-06-01T07:49:12.000Z</time>
      </trkpt>
      <trkpt lat="44.13557" lon="5.88464">
        <ele>908</ele>
        <time>2021-06-01T07:49:13.000Z</time>
      </trkpt>
      <trkpt lat="44.13559" lon="5.88464">
        <ele>910</ele>
        <time>2021-06-01T07:49:14.000Z</time>
      </trkpt>
      <trkpt lat="44.13561" lon="5.88465">
        <ele>911</ele>
        <time>2021-06-01T07:49:15.000Z</time>
      </trkpt>
      <trkpt lat="44.13563" lon="5.88465">
        <ele>912</ele>
        <time>2021-06-01T07:49:16.000Z</time>
      </trkpt>
      <trkpt lat="44.13564" lon="5.88465">
        <ele>913</ele>
        <time>2021-06-01T07:49:17.000Z</time>
      </trkpt>
      <trkpt lat="44.13566" lon="5.88465">
        <ele>914</ele>
        <time>2021-06-01T07:49:18.000Z</time>
      </trkpt>
      <trkpt lat="44.13567" lon="5.88465">
        <ele>914</ele>
        <time>2021-06-01T07:49:19.000Z</time>
      </trkpt>
      <trkpt lat="44.13568" lon="5.88465">
        <ele>915</ele>
        <time>2021-06-01T07:49:20.000Z</time>
      </trkpt>
      <trkpt lat="44.13569" lon="5.88465">
        <ele>916</ele>
        <time>2021-06-01T07:49:21.000Z</time>
      </trkpt>
      <trkpt lat="44.13569" lon="5.88465">
        <ele>916</ele>
        <time>2021-06-01T07:49:22.000Z</time>
      </trkpt>
      <trkpt lat="44.1357" lon="5.88465">
        <ele>917</ele>
        <time>2021-06-01T07:49:23.000Z</time>
      </trkpt>
      <trkpt lat="44.1357" lon="5.88465">
        <ele>917</ele>
        <time>2021-06-01T07:49:24.000Z</time>
      </trkpt>
      <trkpt lat="44.13571" lon="5.88466">
        <ele>917</ele>
        <time>2021-06-01T07:49:25.000Z</time>
      </trkpt>
      <trkpt lat="44.13571" lon="5.88466">
        <ele>918</ele>
        <time>2021-06-01T07:49:26.000Z</time>
      </trkpt>
      <trkpt lat="44.13571" lon="5.88465">
        <ele>918</ele>
        <time>2021-06-01T07:49:27.000Z</time>
      </trkpt>
      <trkpt lat="44.13572" lon="5.88465">
        <ele>918</ele>
        <time>2021-06-01T07:49:28.000Z</time>
      </trkpt>
      <trkpt lat="44.13572" lon="5.88465">
        <ele>919</ele>
        <time>2021-06-01T07:49:29.000Z</time>
      </trkpt>
      <trkpt lat="44.13574" lon="5.88465">
        <ele>920</ele>
        <time>2021-06-01T07:49:30.000Z</time>
      </trkpt>
      <trkpt lat="44.13575" lon="5.88465">
        <ele>921</ele>
        <time>2021-06-01T07:49:31.000Z</time>
      </trkpt>
      <trkpt lat="44.13577" lon="5.88465">
        <ele>922</ele>
        <time>2021-06-01T07:49:32.000Z</time>
      </trkpt>
      <trkpt lat="44.13579" lon="5.88465">
        <ele>924</ele>
        <time>2021-06-01T07:49:33.000Z</time>
      </trkpt>
      <trkpt lat="44.1358" lon="5.88465">
        <ele>925</ele>
        <time>2021-06-01T07:49:34.000Z</time>
      </trkpt>
      <trkpt lat="44.13581" lon="5.88465">
        <ele>926</ele>
        <time>2021-06-01T07:49:35.000Z</time>
      </trkpt>
      <trkpt lat="44.13583" lon="5.88465">
        <ele>927</ele>
        <time>2021-06-01T07:49:36.000Z</time>
      </trkpt>
      <trkpt lat="44.13584" lon="5.88465">
        <ele>928</ele>
        <time>2021-06-01T07:49:37.000Z</time>
      </trkpt>
      <trkpt lat="44.13586" lon="5.88466">
        <ele>929</ele>
        <time>2021-06-01T07:49:38.000Z</time>
      </trkpt>
      <trkpt lat="44.13587" lon="5.88466">
        <ele>930</ele>
        <time>2021-06-01T07:49:39.000Z</time>
      </trkpt>
      <trkpt lat="44.13589" lon="5.88466">
        <ele>931</ele>
        <time>2021-06-01T07:49:40.000Z</time>
      </trkpt>
      <trkpt lat="44.1359" lon="5.88466">
        <ele>932</ele>
        <time>2021-06-01T07:49:41.000Z</time>
      </trkpt>
      <trkpt lat="44.13592" lon="5.88466">
        <ele>933</ele>
        <time>2021-06-01T07:49:42.000Z</time>
      </trkpt>
      <trkpt lat="44.13593" lon="5.88466">
        <ele>934</ele>
        <time>2021-06-01T07:49:43.000Z</time>
      </trkpt>
      <trkpt lat="44.13594" lon="5.88466">
        <ele>935</ele>
        <time>2021-06-01T07:49:44.000Z</time>
      </trkpt>
      <trkpt lat="44.13595" lon="5.88465">
        <ele>935</ele>
        <time>2021-06-01T07:49:45.000Z</time>
      </trkpt>
      <trkpt lat="44.13596" lon="5.88465">
        <ele>936</ele>
        <time>2021-06-01T07:49:46.000Z</time>
      </trkpt>
      <trkpt lat="44.13597" lon="5.88465">
        <ele>937</ele>
        <time>2021-06-01T07:49:47.000Z</time>
      </trkpt>
      <trkpt lat="44.13598" lon="5.88465">
        <ele>937</ele>
        <time>2021-06-01T07:49:48.000Z</time>
      </trkpt>
      <trkpt lat="44.13599" lon="5.88465">
        <ele>938</ele>
        <time>2021-06-01T07:49:49.000Z</time>
      </trkpt>
      <trkpt lat="44.136" lon="5.88465">
        <ele>938</ele>
        <time>2021-06-01T07:49:50.000Z</time>
      </trkpt>
      <trkpt lat="44.136" lon="5.88465">
        <ele>939</ele>
        <time>2021-06-01T07:49:51.000Z</time>
      </trkpt>
      <trkpt lat="44.13601" lon="5.88465">
        <ele>939</ele>
        <time>2021-06-01T07:49:52.000Z</time>
      </trkpt>
      <trkpt lat="44.13602" lon="5.88465">
        <ele>940</ele>
        <time>2021-06-01T07:49:53.000Z</time>
      </trkpt>
      <trkpt lat="44.13602" lon="5.88465">
        <ele>940</ele>
        <time>2021-06-01T07:49:54.000Z</time>
      </trkpt>
      <trkpt lat="44.13602" lon="5.88465">
        <ele>941</ele>
        <time>2021-06-01T07:49:55.000Z</time>
      </trkpt>
      <trkpt lat="44.13603" lon="5.88465">
        <ele>941</ele>
        <time>2021-06-01T07:49:56.000Z</time>
      </trkpt>
      <trkpt lat="44.13603" lon="5.88464">
        <ele>941</ele>
        <time>2021-06-01T07:49:57.000Z</time>
      </trkpt>
      <trkpt lat="44.13604" lon="5.88464">
        <ele>941</ele>
        <time>2021-06-01T07:49:58.000Z</time>
      </trkpt>
      <trkpt lat="44.13604" lon="5.88463">
        <ele>942</ele>
        <time>2021-06-01T07:49:59.000Z</time>
      </trkpt>
      <trkpt lat="44.13604" lon="5.88462">
        <ele>942</ele>
        <time>2021-06-01T07:50:00.000Z</time>
      </trkpt>
      <trkpt lat="44.13604" lon="5.88462">
        <ele>942</ele>
        <time>2021-06-01T07:50:01.000Z</time>
      </trkpt>
      <trkpt lat="44.13604" lon="5.88461">
        <ele>942</ele>
        <time>2021-06-01T07:50:02.000Z</time>
      </trkpt>
      <trkpt lat="44.13604" lon="5.8846">
        <ele>942</ele>
        <time>2021-06-01T07:50:03.000Z</time>
      </trkpt>
      <trkpt lat="44.13604" lon="5.88459">
        <ele>942</ele>
        <time>2021-06-01T07:50:04.000Z</time>
      </trkpt>
      <trkpt lat="44.13604" lon="5.88459">
        <ele>942</ele>
        <time>2021-06-01T07:50:05.000Z</time>
      </trkpt>
      <trkpt lat="44.13603" lon="5.88459">
        <ele>942</ele>
        <time>2021-06-01T07:50:06.000Z</time>
      </trkpt>
      <trkpt lat="44.13603" lon="5.88459">
        <ele>941</ele>
        <time>2021-06-01T07:50:07.000Z</time>
      </trkpt>
      <trkpt lat="44.13602" lon="5.88459">
        <ele>941</ele>
        <time>2021-06-01T07:50:08.000Z</time>
      </trkpt>
      <trkpt lat="44.13601" lon="5.88459">
        <ele>940</ele>
        <time>2021-06-01T07:50:09.000Z</time>
      </trkpt>
      <trkpt lat="44.136" lon="5.88459">
        <ele>940</ele>
        <time>2021-06-01T07:50:10.000Z</time>
      </trkpt>
      <trkpt lat="44.1352" lon="5.88467">
        <ele>872</ele>
        <time>2021-06-01T07:50:15.000Z</time>
      </trkpt>
      <trkpt lat="44.1352" lon="5.88467">
        <ele>870</ele>
        <time>2021-06-01T07:50:16.000Z</time>
      </trkpt>
      <trkpt lat="44.13498" lon="5.88454">
        <ele>869</ele>
        <time>2021-06-01T07:50:17.000Z</time>
      </trkpt>
      <trkpt lat="44.13497" lon="5.88454">
        <ele>868</ele>
        <time>2021-06-01T07:50:18.000Z</time>
      </trkpt>
      <trkpt lat="44.13495" lon="5.88454">
        <ele>867</ele>
        <time>2021-06-01T07:50:19.000Z</time>
      </trkpt>
      <trkpt lat="44.13493" lon="5.88453">
        <ele>865</ele>
        <time>2021-06-01T07:50:20.000Z</time>
      </trkpt>
      <trkpt lat="44.13491" lon="5.88452">
        <ele>865</ele>
        <time>2021-06-01T07:50:21.000Z</time>
      </trkpt>
      <trkpt lat="44.1349" lon="5.88452">
        <ele>864</ele>
        <time>2021-06-01T07:50:22.000Z</time>
      </trkpt>
      <trkpt lat="44.13488" lon="5.88452">
        <ele>863</ele>
        <time>2021-06-01T07:50:23.000Z</time>
      </trkpt>
      <trkpt lat="44.13486" lon="5.88452">
        <ele>862</ele>
        <time>2021-06-01T07:50:24.000Z</time>
      </trkpt>
      <trkpt lat="44.13485" lon="5.88452">
        <ele>861</ele>
        <time>2021-06-01T07:50:25.000Z</time>
      </trkpt>
      <trkpt lat="44.13483" lon="5.88451">
        <ele>860</ele>
        <time>2021-06-01T07:50:26.000Z</time>
      </trkpt>
      <trkpt lat="44.13482" lon="5.88451">
        <ele>860</ele>
        <time>2021-06-01T07:50:27.000Z</time>
      </trkpt>
      <trkpt lat="44.13481" lon="5.88451">
        <ele>859</ele>
        <time>2021-06-01T07:50:28.000Z</time>
      </trkpt>
      <trkpt lat="44.1348" lon="5.88451">
        <ele>859</ele>
        <time>2021-06-01T07:50:29.000Z</time>
      </trkpt>
      <trkpt lat="44.13479" lon="5.88451">
        <ele>858</ele>
        <time>2021-06-01T07:50:30.000Z</time>
      </trkpt>
      <trkpt lat="44.13478" lon="5.88451">
        <ele>857</ele>
        <time>2021-06-01T07:50:31.000Z</time>
      </trkpt>
      <trkpt lat="44.13477" lon="5.88451">
        <ele>857</ele>
        <time>2021-06-01T07:50:32.000Z</time>
      </trkpt>
      <trkpt lat="44.13477" lon="5.88452">
        <ele>857</ele>
        <time>2021-06-01T07:50:33.000Z</time>
      </trkpt>
      <trkpt lat="44.13476" lon="5.88452">
        <ele>856</ele>
        <time>2021-06-01T07:50:34.000Z</time>
      </trkpt>
      <trkpt lat="44.13476" lon="5.88452">
        <ele>856</ele>
        <time>2021-06-01T07:50:35.000Z</time>
      </trkpt>
      <trkpt lat="44.13476" lon="5.88452">
        <ele>856</ele>
        <time>2021-06-01T07:50:36.000Z</time>
      </trkpt>
      <trkpt lat="44.13476" lon="5.88452">
        <ele>856</ele>
        <time>2021-06-01T07:50:37.000Z</time>
      </trkpt>
      <trkpt lat="44.13476" lon="5.88452">
        <ele>856</ele>
        <time>2021-06-01T07:50:38.000Z</time>
      </trkpt>
      <trkpt lat="44.13476" lon="5.88452">
        <ele>856</ele>
        <time>2021-06-01T07:50:39.000Z</time>
      </trkpt>
      <trkpt lat="44.13476" lon="5.88452">
        <ele>856</ele>
        <time>2021-06-01T07:50:40.000Z</time>
      </trkpt>
      <trkpt lat="44.13477" lon="5.88452">
        <ele>856</ele>
        <time>2021-06-01T07:50:41.000Z</time>
      </trkpt>
      <trkpt lat="44.13477" lon="5.88452">
        <ele>856</ele>
        <time>2021-06-01T07:50:42.000Z</time>
      </trkpt>
      <trkpt lat="44.13477" lon="5.88452">
        <ele>856</ele>
        <time>2021-06-01T07:50:43.000Z</time>
      </trkpt>
      <trkpt lat="44.13477" lon="5.88452">
        <ele>856</ele>
        <time>2021-06-01T07:50:44.000Z</time>
      </trkpt>
      <trkpt lat="44.13477" lon="5.88452">
        <ele>856</ele>
        <time>2021-06-01T07:50:45.000Z</time>
      </trkpt>
      <trkpt lat="44.13477" lon="5.88452">
        <ele>856</ele>
        <time>2021-06-01T07:50:46.000Z</time>
      </trkpt>
      <trkpt lat="44.13477" lon="5.88452">
        <ele>856</ele>
        <time>2021-06-01T07:50:47.000Z</time>
      </trkpt>
      <trkpt lat="44.13477" lon="5.88452">
        <ele>856</ele>
        <time>2021-06-01T07:50:48.000Z</time>
      </trkpt>
      <trkpt lat="44.13477" lon="5.88452">
        <ele>856</ele>
        <time>2021-06-01T07:50:49.000Z</time>
      </trkpt>
      <trkpt lat="44.13477" lon="5.88452">
        <ele>856</ele>
        <time>2021-06-01T07:50:50.000Z</time>
      </trkpt>
      <trkpt lat="44.13477" lon="5.88452">
        <ele>856</ele>
        <time>2021-06-01T07:50:51.000Z</time>
      </trkpt>
      <trkpt lat="44.13478" lon="5.88453">
        <ele>856</ele>
        <time>2021-06-01T07:50:52.000Z</time>
      </trkpt>
      <trkpt lat="44.13478" lon="5.88453">
        <ele>856</ele>
        <time>2021-06-01T07:50:53.000Z</time>
      </trkpt>
      <trkpt lat="44.13478" lon="5.88453">
        <ele>856</ele>
        <time>2021-06-01T07:50:54.000Z</time>
      </trkpt>
      <trkpt lat="44.13478" lon="5.88453">
        <ele>856</ele>
        <time>2021-06-01T07:50:55.000Z</time>
      </trkpt>
      <trkpt lat="44.13478" lon="5.88453">
        <ele>856</ele>
        <time>2021-06-01T07:50:56.000Z</time>
      </trkpt>
      <trkpt lat="44.13478" lon="5.88453">
        <ele>856</ele>
        <time>2021-06-01T07:50:57.000Z</time>
      </trkpt>
      <trkpt lat="44.13478" lon="5.88453">
        <ele>856</ele>
        <time>2021-06-01T07:50:58.000Z</time>
      </trkpt>
      <trkpt lat="44.13478" lon="5.88453">
        <ele>856</ele>
        <time>2021-06-01T07:50:59.000Z</time>
      </trkpt>
      <trkpt lat="44.13478" lon="5.88453">
        <ele>856</ele>
        <time>2021-06-01T07:51:00.000Z</time>
      </trkpt>
      <trkpt lat="44.13478" lon="5.88453">
        <ele>856</ele>
        <time>2021-06-01T07:51:01.000Z</time>
      </trkpt>
      <trkpt lat="44.13478" lon="5.88453">
        <ele>856</ele>
        <time>2021-06-01T07:51:02.000Z</time>
      </trkpt>
      <trkpt lat="44.13478" lon="5.88453">
        <ele>856</ele>
        <time>2021-06-01T07:51:03.000Z</time>
      </trkpt>
      <trkpt lat="44.13478" lon="5.88453">
        <ele>856</ele>
        <time>2021-06-01T07:51:04.000Z</time>
      </trkpt>
      <trkpt lat="44.13478" lon="5.88453">
        <ele>856</ele>
        <time>2021-06-01T07:51:05.000Z</time>
      </trkpt>
      <trkpt lat="44.13478" lon="5.88453">
        <ele>856</ele>
        <time>2021-06-01T07:51:06.000Z</time>
      </trkpt>
      <trkpt lat="44.13478" lon="5.88453">
        <ele>856</ele>
        <time>2021-06-01T07:51:07.000Z</time>
      </trkpt>
      <trkpt lat="44.13478" lon="5.88453">
        <ele>856</ele>
        <time>2021-06-01T07:51:08.000Z</time>
      </trkpt>
      <trkpt lat="44.13478" lon="5.88453">
        <ele>856</ele>
        <time>2021-06-01T07:51:09.000Z</time>
      </trkpt>
      <trkpt lat="44.13478" lon="5.88453">
        <ele>856</ele>
        <time>2021-06-01T07:51:10.000Z</time>
      </trkpt>
      <trkpt lat="44.13478" lon="5.88453">
        <ele>856</ele>
        <time>2021-06-01T07:51:11.000Z</time>
      </trkpt>
      <trkpt lat="44.13478" lon="5.88453">
        <ele>856</ele>
        <time>2021-06-01T07:51:12.000Z</time>
      </trkpt>
      <trkpt lat="44.13478" lon="5.88453">
        <ele>856</ele>
        <time>2021-06-01T07:51:13.000Z</time>
      </trkpt>
      <trkpt lat="44.13478" lon="5.88453">
        <ele>856</ele>
        <time>2021-06-01T07:51:14.000Z</time>
      </trkpt>
      <trkpt lat="44.13478" lon="5.88453">
        <ele>856</ele>
        <time>2021-06-01T07:51:15.000Z</time>
      </trkpt>
      <trkpt lat="44.13478" lon="5.88453">
        <ele>856</ele>
        <time>2021-06-01T07:51:16.000Z</time>
      </trkpt>
      <trkpt lat="44.13478" lon="5.88453">
        <ele>856</ele>
        <time>2021-06-01T07:51:17.000Z</time>
      </trkpt>
      <trkpt lat="44.13478" lon="5.88453">
        <ele>856</ele>
        <time>2021-06-01T07:51:18.000Z</time>
      </trkpt>
      <trkpt lat="44.13478" lon="5.88453">
        <ele>856</ele>
        <time>2021-06-01T07:51:19.000Z</time>
      </trkpt>
      <trkpt lat="44.13479" lon="5.88452">
        <ele>856</ele>
        <time>2021-06-01T07:51:20.000Z</time>
      </trkpt>
      <trkpt lat="44.13479" lon="5.88452">
        <ele>856</ele>
        <time>2021-06-01T07:51:21.000Z</time>
      </trkpt>
      <trkpt lat="44.13479" lon="5.88452">
        <ele>856</ele>
        <time>2021-06-01T07:51:22.000Z</time>
      </trkpt>
      <trkpt lat="44.13479" lon="5.88451">
        <ele>856</ele>
        <time>2021-06-01T07:51:23.000Z</time>
      </trkpt>
      <trkpt lat="44.13479" lon="5.88451">
        <ele>856</ele>
        <time>2021-06-01T07:51:24.000Z</time>
      </trkpt>
      <trkpt lat="44.13479" lon="5.88451">
        <ele>856</ele>
        <time>2021-06-01T07:51:25.000Z</time>
      </trkpt>
      <trkpt lat="44.13479" lon="5.88451">
        <ele>857</ele>
        <time>2021-06-01T07:51:26.000Z</time>
      </trkpt>
      <trkpt lat="44.13479" lon="5.88451">
        <ele>857</ele>
        <time>2021-06-01T07:51:27.000Z</time>
      </trkpt>
      <trkpt lat="44.13479" lon="5.88451">
        <ele>857</ele>
        <time>2021-06-01T07:51:28.000Z</time>
      </trkpt>
      <trkpt lat="44.13479" lon="5.88451">
        <ele>857</ele>
        <time>2021-06-01T07:51:29.000Z</time>
      </trkpt>
      <trkpt lat="44.13479" lon="5.88451">
        <ele>857</ele>
        <time>2021-06-01T07:51:30.000Z</time>
      </trkpt>
      <trkpt lat="44.13479" lon="5.88451">
        <ele>856</ele>
        <time>2021-06-01T07:51:31.000Z</time>
      </trkpt>
      <trkpt lat="44.13479" lon="5.88451">
        <ele>857</ele>
        <time>2021-06-01T07:51:32.000Z</time>
      </trkpt>
      <trkpt lat="44.13479" lon="5.88451">
        <ele>857</ele>
        <time>2021-06-01T07:51:33.000Z</time>
      </trkpt>
      <trkpt lat="44.13479" lon="5.88451">
        <ele>857</ele>
        <time>2021-06-01T07:51:34.000Z</time>
      </trkpt>
      <trkpt lat="44.13479" lon="5.88451">
        <ele>857</ele>
        <time>2021-06-01T07:51:35.000Z</time>
      </trkpt>
      <trkpt lat="44.13479" lon="5.88451">
        <ele>857</ele>
        <time>2021-06-01T07:51:36.000Z</time>
      </trkpt>
      <trkpt lat="44.13479" lon="5.88451">
        <ele>857</ele>
        <time>2021-06-01T07:51:37.000Z</time>
      </trkpt>
      <trkpt lat="44.13479" lon="5.88451">
        <ele>857</ele>
        <time>2021-06-01T07:51:38.000Z</time>
      </trkpt>
      <trkpt lat="44.13479" lon="5.88451">
        <ele>857</ele>
        <time>2021-06-01T07:51:39.000Z</time>
      </trkpt>
      <trkpt lat="44.1348" lon="5.88451">
        <ele>857</ele>
        <time>2021-06-01T07:51:40.000Z</time>
      </trkpt>
      <trkpt lat="44.1348" lon="5.88451">
        <ele>857</ele>
        <time>2021-06-01T07:51:41.000Z</time>
      </trkpt>
      <trkpt lat="44.13479" lon="5.88451">
        <ele>857</ele>
        <time>2021-06-01T07:51:42.000Z</time>
      </trkpt>
      <trkpt lat="44.13479" lon="5.88451">
        <ele>857</ele>
        <time>2021-06-01T07:51:43.000Z</time>
      </trkpt>
      <trkpt lat="44.1348" lon="5.88451">
        <ele>857</ele>
        <time>2021-06-01T07:51:44.000Z</time>
      </trkpt>
      <trkpt lat="44.1348" lon="5.88451">
        <ele>857</ele>
        <time>2021-06-01T07:51:45.000Z</time>
      </trkpt>
      <trkpt lat="44.1348" lon="5.88451">
        <ele>857</ele>
        <time>2021-06-01T07:51:46.000Z</time>
      </trkpt>
      <trkpt lat="44.1348" lon="5.88451">
        <ele>857</ele>
        <time>2021-06-01T07:51:47.000Z</time>
      </trkpt>
      <trkpt lat="44.1348" lon="5.88451">
        <ele>857</ele>
        <time>2021-06-01T07:51:48.000Z</time>
      </trkpt>
      <trkpt lat="44.1348" lon="5.88451">
        <ele>857</ele>
        <time>2021-06-01T07:51:49.000Z</time>
      </trkpt>
      <trkpt lat="44.1348" lon="5.88451">
        <ele>857</ele>
        <time>2021-06-01T07:51:50.000Z</time>
      </trkpt>
      <trkpt lat="44.1348" lon="5.88451">
        <ele>857</ele>
        <time>2021-06-01T07:51:51.000Z</time>
      </trkpt>
      <trkpt lat="44.1348" lon="5.88451">
        <ele>857</ele>
        <time>2021-06-01T07:51:52.000Z</time>
      </trkpt>
      <trkpt lat="44.1348" lon="5.88451">
        <ele>858</ele>
        <time>2021-06-01T07:51:53.000Z</time>
      </trkpt>
      <trkpt lat="44.13479" lon="5.88451">
        <ele>857</ele>
        <time>2021-06-01T07:51:54.000Z</time>
      </trkpt>
      <trkpt lat="44.13479" lon="5.88451">
        <ele>857</ele>
        <time>2021-06-01T07:51:55.000Z</time>
      </trkpt>
      <trkpt lat="44.13479" lon="5.88451">
        <ele>857</ele>
        <time>2021-06-01T07:51:56.000Z</time>
      </trkpt>
      <trkpt lat="44.13479" lon="5.88451">
        <ele>857</ele>
        <time>2021-06-01T07:51:57.000Z</time>
      </trkpt>
      <trkpt lat="44.13479" lon="5.88451">
        <ele>857</ele>
        <time>2021-06-01T07:51:58.000Z</time>
      </trkpt>
      <trkpt lat="44.13479" lon="5.88451">
        <ele>857</ele>
        <time>2021-06-01T07:51:59.000Z</time>
      </trkpt>
      <trkpt lat="44.13479" lon="5.88451">
        <ele>857</ele>
        <time>2021-06-01T07:52:00.000Z</time>
      </trkpt>
      <trkpt lat="44.13479" lon="5.88451">
        <ele>857</ele>
        <time>2021-06-01T07:52:01.000Z</time>
      </trkpt>
      <trkpt lat="44.13479" lon="5.88451">
        <ele>857</ele>
        <time>2021-06-01T07:52:02.000Z</time>
      </trkpt>
      <trkpt lat="44.13479" lon="5.88451">
        <ele>857</ele>
        <time>2021-06-01T07:52:03.000Z</time>
      </trkpt>
      <trkpt lat="44.13479" lon="5.88451">
        <ele>857</ele>
        <time>2021-06-01T07:52:04.000Z</time>
      </trkpt>
      <trkpt lat="44.13479" lon="5.88451">
        <ele>858</ele>
        <time>2021-06-01T07:52:05.000Z</time>
      </trkpt>
      <trkpt lat="44.13479" lon="5.88451">
        <ele>857</ele>
        <time>2021-06-01T07:52:06.000Z</time>
      </trkpt>
      <trkpt lat="44.13479" lon="5.88451">
        <ele>857</ele>
        <time>2021-06-01T07:52:07.000Z</time>
      </trkpt>
      <trkpt lat="44.13479" lon="5.88451">
        <ele>857</ele>
        <time>2021-06-01T07:52:08.000Z</time>
      </trkpt>
      <trkpt lat="44.13479" lon="5.8845">
        <ele>857</ele>
        <time>2021-06-01T07:52:09.000Z</time>
      </trkpt>
      <trkpt lat="44.13479" lon="5.8845">
        <ele>857</ele>
        <time>2021-06-01T07:52:10.000Z</time>
      </trkpt>
      <trkpt lat="44.13479" lon="5.8845">
        <ele>857</ele>
        <time>2021-06-01T07:52:11.000Z</time>
      </trkpt>
      <trkpt lat="44.13479" lon="5.8845">
        <ele>857</ele>
        <time>2021-06-01T07:52:12.000Z</time>
      </trkpt>
      <trkpt lat="44.13478" lon="5.8845">
        <ele>857</ele>
        <time>2021-06-01T07:52:13.000Z</time>
      </trkpt>
      <trkpt lat="44.13478" lon="5.8845">
        <ele>857</ele>
        <time>2021-06-01T07:52:14.000Z</time>
      </trkpt>
      <trkpt lat="44.13478" lon="5.88451">
        <ele>857</ele>
        <time>2021-06-01T07:52:15.000Z</time>
      </trkpt>
      <trkpt lat="44.13478" lon="5.88451">
        <ele>857</ele>
        <time>2021-06-01T07:52:16.000Z</time>
      </trkpt>
      <trkpt lat="44.13478" lon="5.8845">
        <ele>857</ele>
        <time>2021-06-01T07:52:17.000Z</time>
      </trkpt>
      <trkpt lat="44.13479" lon="5.8845">
        <ele>857</ele>
        <time>2021-06-01T07:52:18.000Z</time>
      </trkpt>
      <trkpt lat="44.13478" lon="5.88451">
        <ele>857</ele>
        <time>2021-06-01T07:52:19.000Z</time>
      </trkpt>
      <trkpt lat="44.13478" lon="5.88451">
        <ele>857</ele>
        <time>2021-06-01T07:52:20.000Z</time>
      </trkpt>
      <trkpt lat="44.13478" lon="5.88451">
        <ele>857</ele>
        <time>2021-06-01T07:52:21.000Z</time>
      </trkpt>
      <trkpt lat="44.13478" lon="5.8845">
        <ele>857</ele>
        <time>2021-06-01T07:52:22.000Z</time>
      </trkpt>
      <trkpt lat="44.13478" lon="5.8845">
        <ele>857</ele>
        <time>2021-06-01T07:52:23.000Z</time>
      </trkpt>
      <trkpt lat="44.13478" lon="5.8845">
        <ele>857</ele>
        <time>2021-06-01T07:52:24.000Z</time>
      </trkpt>
      <trkpt lat="44.13478" lon="5.8845">
        <ele>856</ele>
        <time>2021-06-01T07:52:25.000Z</time>
      </trkpt>
      <trkpt lat="44.13478" lon="5.8845">
        <ele>856</ele>
        <time>2021-06-01T07:52:26.000Z</time>
      </trkpt>
      <trkpt lat="44.13478" lon="5.8845">
        <ele>856</ele>
        <time>2021-06-01T07:52:27.000Z</time>
      </trkpt>
      <trkpt lat="44.13478" lon="5.8845">
        <ele>856</ele>
        <time>2021-06-01T07:52:28.000Z</time>
      </trkpt>
      <trkpt lat="44.13479" lon="5.8845">
        <ele>856</ele>
        <time>2021-06-01T07:52:29.000Z</time>
      </trkpt>
      <trkpt lat="44.13479" lon="5.88451">
        <ele>856</ele>
        <time>2021-06-01T07:52:30.000Z</time>
      </trkpt>
      <trkpt lat="44.13479" lon="5.88452">
        <ele>856</ele>
        <time>2021-06-01T07:52:31.000Z</time>
      </trkpt>
      <trkpt lat="44.13479" lon="5.88452">
        <ele>856</ele>
        <time>2021-06-01T07:52:32.000Z</time>
      </trkpt>
      <trkpt lat="44.13478" lon="5.88453">
        <ele>856</ele>
        <time>2021-06-01T07:52:33.000Z</time>
      </trkpt>
      <trkpt lat="44.13478" lon="5.88453">
        <ele>856</ele>
        <time>2021-06-01T07:52:34.000Z</time>
      </trkpt>
      <trkpt lat="44.13478" lon="5.88453">
        <ele>856</ele>
        <time>2021-06-01T07:52:35.000Z</time>
      </trkpt>
      <trkpt lat="44.13478" lon="5.88453">
        <ele>856</ele>
        <time>2021-06-01T07:52:36.000Z</time>
      </trkpt>
      <trkpt lat="44.13478" lon="5.88454">
        <ele>856</ele>
        <time>2021-06-01T07:52:37.000Z</time>
      </trkpt>
      <trkpt lat="44.13478" lon="5.88454">
        <ele>856</ele>
        <time>2021-06-01T07:52:38.000Z</time>
      </trkpt>
      <trkpt lat="44.13478" lon="5.88454">
        <ele>856</ele>
        <time>2021-06-01T07:52:39.000Z</time>
      </trkpt>
      <trkpt lat="44.13478" lon="5.88455">
        <ele>856</ele>
        <time>2021-06-01T07:52:40.000Z</time>
      </trkpt>
      <trkpt lat="44.13478" lon="5.88455">
        <ele>856</ele>
        <time>2021-06-01T07:52:41.000Z</time>
      </trkpt>
      <trkpt lat="44.13479" lon="5.88455">
        <ele>856</ele>
        <time>2021-06-01T07:52:42.000Z</time>
      </trkpt>
      <trkpt lat="44.13479" lon="5.88455">
        <ele>856</ele>
        <time>2021-06-01T07:52:43.000Z</time>
      </trkpt>
      <trkpt lat="44.13478" lon="5.88455">
        <ele>856</ele>
        <time>2021-06-01T07:52:44.000Z</time>
      </trkpt>
      <trkpt lat="44.13478" lon="5.88454">
        <ele>857</ele>
        <time>2021-06-01T07:52:45.000Z</time>
      </trkpt>
      <trkpt lat="44.13478" lon="5.88454">
        <ele>857</ele>
        <time>2021-06-01T07:52:46.000Z</time>
      </trkpt>
      <trkpt lat="44.13478" lon="5.88454">
        <ele>857</ele>
        <time>2021-06-01T07:52:47.000Z</time>
      </trkpt>
      <trkpt lat="44.13478" lon="5.88454">
        <ele>857</ele>
        <time>2021-06-01T07:52:48.000Z</time>
      </trkpt>
      <trkpt lat="44.13478" lon="5.88454">
        <ele>857</ele>
        <time>2021-06-01T07:52:49.000Z</time>
      </trkpt>
      <trkpt lat="44.13478" lon="5.88454">
        <ele>857</ele>
        <time>2021-06-01T07:52:50.000Z</time>
      </trkpt>
      <trkpt lat="44.13478" lon="5.88454">
        <ele>857</ele>
        <time>2021-06-01T07:52:51.000Z</time>
      </trkpt>
      <trkpt lat="44.13478" lon="5.88454">
        <ele>857</ele>
        <time>2021-06-01T07:52:52.000Z</time>
      </trkpt>
      <trkpt lat="44.13478" lon="5.88454">
        <ele>857</ele>
        <time>2021-06-01T07:52:53.000Z</time>
      </trkpt>
      <trkpt lat="44.13478" lon="5.88454">
        <ele>857</ele>
        <time>2021-06-01T07:52:54.000Z</time>
      </trkpt>
      <trkpt lat="44.13478" lon="5.88453">
        <ele>857</ele>
        <time>2021-06-01T07:52:55.000Z</time>
      </trkpt>
      <trkpt lat="44.13478" lon="5.88453">
        <ele>857</ele>
        <time>2021-06-01T07:52:56.000Z</time>
      </trkpt>
      <trkpt lat="44.13478" lon="5.88453">
        <ele>857</ele>
        <time>2021-06-01T07:52:57.000Z</time>
      </trkpt>
      <trkpt lat="44.13478" lon="5.88453">
        <ele>857</ele>
        <time>2021-06-01T07:52:58.000Z</time>
      </trkpt>
      <trkpt lat="44.13478" lon="5.88453">
        <ele>857</ele>
        <time>2021-06-01T07:52:59.000Z</time>
      </trkpt>
      <trkpt lat="44.13478" lon="5.88453">
        <ele>857</ele>
        <time>2021-06-01T07:53:00.000Z</time>
      </trkpt>
      <trkpt lat="44.13479" lon="5.88452">
        <ele>857</ele>
        <time>2021-06-01T07:53:01.000Z</time>
      </trkpt>
      <trkpt lat="44.13479" lon="5.88452">
        <ele>857</ele>
        <time>2021-06-01T07:53:02.000Z</time>
      </trkpt>
      <trkpt lat="44.13479" lon="5.88452">
        <ele>857</ele>
        <time>2021-06-01T07:53:03.000Z</time>
      </trkpt>
      <trkpt lat="44.13479" lon="5.88453">
        <ele>857</ele>
        <time>2021-06-01T07:53:04.000Z</time>
      </trkpt>
      <trkpt lat="44.13479" lon="5.88453">
        <ele>857</ele>
        <time>2021-06-01T07:53:05.000Z</time>
      </trkpt>
      <trkpt lat="44.1348" lon="5.88453">
        <ele>858</ele>
        <time>2021-06-01T07:53:06.000Z</time>
      </trkpt>
      <trkpt lat="44.1348" lon="5.88452">
        <ele>858</ele>
        <time>2021-06-01T07:53:07.000Z</time>
      </trkpt>
      <trkpt lat="44.13479" lon="5.88452">
        <ele>858</ele>
        <time>2021-06-01T07:53:08.000Z</time>
      </trkpt>
      <trkpt lat="44.13479" lon="5.88452">
        <ele>858</ele>
        <time>2021-06-01T07:53:09.000Z</time>
      </trkpt>
      <trkpt lat="44.13479" lon="5.88452">
        <ele>858</ele>
        <time>2021-06-01T07:53:10.000Z</time>
      </trkpt>
      <trkpt lat="44.13479" lon="5.88452">
        <ele>858</ele>
        <time>2021-06-01T07:53:11.000Z</time>
      </trkpt>
      <trkpt lat="44.13478" lon="5.88452">
        <ele>858</ele>
        <time>2021-06-01T07:53:12.000Z</time>
      </trkpt>
      <trkpt lat="44.13478" lon="5.88453">
        <ele>858</ele>
        <time>2021-06-01T07:53:13.000Z</time>
      </trkpt>
      <trkpt lat="44.13478" lon="5.88453">
        <ele>858</ele>
        <time>2021-06-01T07:53:14.000Z</time>
      </trkpt>
      <trkpt lat="44.13478" lon="5.88453">
        <ele>858</ele>
        <time>2021-06-01T07:53:15.000Z</time>
      </trkpt>
      <trkpt lat="44.13477" lon="5.88453">
        <ele>857</ele>
        <time>2021-06-01T07:53:16.000Z</time>
      </trkpt>
      <trkpt lat="44.13477" lon="5.88453">
        <ele>857</ele>
        <time>2021-06-01T07:53:17.000Z</time>
      </trkpt>
      <trkpt lat="44.13477" lon="5.88453">
        <ele>857</ele>
        <time>2021-06-01T07:53:18.000Z</time>
      </trkpt>
      <trkpt lat="44.13477" lon="5.88453">
        <ele>857</ele>
        <time>2021-06-01T07:53:19.000Z</time>
      </trkpt>
      <trkpt lat="44.13477" lon="5.88453">
        <ele>857</ele>
        <time>2021-06-01T07:53:20.000Z</time>
      </trkpt>
      <trkpt lat="44.13477" lon="5.88453">
        <ele>857</ele>
        <time>2021-06-01T07:53:21.000Z</time>
      </trkpt>
      <trkpt lat="44.13477" lon="5.88453">
        <ele>857</ele>
        <time>2021-06-01T07:53:22.000Z</time>
      </trkpt>
      <trkpt lat="44.13477" lon="5.88453">
        <ele>857</ele>
        <time>2021-06-01T07:53:23.000Z</time>
      </trkpt>
      <trkpt lat="44.13477" lon="5.88452">
        <ele>857</ele>
        <time>2021-06-01T07:53:24.000Z</time>
      </trkpt>
      <trkpt lat="44.13477" lon="5.88452">
        <ele>857</ele>
        <time>2021-06-01T07:53:25.000Z</time>
      </trkpt>
      <trkpt lat="44.13477" lon="5.88452">
        <ele>857</ele>
        <time>2021-06-01T07:53:26.000Z</time>
      </trkpt>
      <trkpt lat="44.13477" lon="5.88452">
        <ele>858</ele>
        <time>2021-06-01T07:53:27.000Z</time>
      </trkpt>
      <trkpt lat="44.13477" lon="5.88452">
        <ele>857</ele>
        <time>2021-06-01T07:53:28.000Z</time>
      </trkpt>
      <trkpt lat="44.13477" lon="5.88452">
        <ele>857</ele>
        <time>2021-06-01T07:53:29.000Z</time>
      </trkpt>
      <trkpt lat="44.13478" lon="5.88452">
        <ele>857</ele>
        <time>2021-06-01T07:53:30.000Z</time>
      </trkpt>
      <trkpt lat="44.13478" lon="5.88452">
        <ele>857</ele>
        <time>2021-06-01T07:53:31.000Z</time>
      </trkpt>
      <trkpt lat="44.13478" lon="5.88452">
        <ele>858</ele>
        <time>2021-06-01T07:53:32.000Z</time>
      </trkpt>
      <trkpt lat="44.13478" lon="5.88452">
        <ele>858</ele>
        <time>2021-06-01T07:53:33.000Z</time>
      </trkpt>
      <trkpt lat="44.13478" lon="5.88452">
        <ele>858</ele>
        <time>2021-06-01T07:53:34.000Z</time>
      </trkpt>
      <trkpt lat="44.13478" lon="5.88451">
        <ele>858</ele>
        <time>2021-06-01T07:53:35.000Z</time>
      </trkpt>
      <trkpt lat="44.13478" lon="5.88451">
        <ele>858</ele>
        <time>2021-06-01T07:53:36.000Z</time>
      </trkpt>
      <trkpt lat="44.13478" lon="5.88451">
        <ele>858</ele>
        <time>2021-06-01T07:53:37.000Z</time>
      </trkpt>
      <trkpt lat="44.13478" lon="5.88451">
        <ele>857</ele>
        <time>2021-06-01T07:53:38.000Z</time>
      </trkpt>
      <trkpt lat="44.13479" lon="5.88451">
        <ele>857</ele>
        <time>2021-06-01T07:53:39.000Z</time>
      </trkpt>
      <trkpt lat="44.13479" lon="5.88451">
        <ele>857</ele>
        <time>2021-06-01T07:53:40.000Z</time>
      </trkpt>
      <trkpt lat="44.13479" lon="5.8845">
        <ele>857</ele>
        <time>2021-06-01T07:53:41.000Z</time>
      </trkpt>
      <trkpt lat="44.13479" lon="5.8845">
        <ele>857</ele>
        <time>2021-06-01T07:53:42.000Z</time>
      </trkpt>
      <trkpt lat="44.13479" lon="5.8845">
        <ele>857</ele>
        <time>2021-06-01T07:53:43.000Z</time>
      </trkpt>
      <trkpt lat="44.13479" lon="5.8845">
        <ele>857</ele>
        <time>2021-06-01T07:53:44.000Z</time>
      </trkpt>
      <trkpt lat="44.13479" lon="5.8845">
        <ele>857</ele>
        <time>2021-06-01T07:53:45.000Z</time>
      </trkpt>
      <trkpt lat="44.13479" lon="5.8845">
        <ele>857</ele>
        <time>2021-06-01T07:53:46.000Z</time>
      </trkpt>
      <trkpt lat="44.13479" lon="5.8845">
        <ele>857</ele>
        <time>2021-06-01T07:53:47.000Z</time>
      </trkpt>
      <trkpt lat="44.13479" lon="5.8845">
        <ele>857</ele>
        <time>2021-06-01T07:53:48.000Z</time>
      </trkpt>
      <trkpt lat="44.1348" lon="5.8845">
        <ele>858</ele>
        <time>2021-06-01T07:53:49.000Z</time>
      </trkpt>
      <trkpt lat="44.1348" lon="5.8845">
        <ele>858</ele>
        <time>2021-06-01T07:53:50.000Z</time>
      </trkpt>
      <trkpt lat="44.1348" lon="5.88449">
        <ele>858</ele>
        <time>2021-06-01T07:53:51.000Z</time>
      </trkpt>
      <trkpt lat="44.1348" lon="5.88449">
        <ele>858</ele>
        <time>2021-06-01T07:53:52.000Z</time>
      </trkpt>
      <trkpt lat="44.1348" lon="5.88449">
        <ele>858</ele>
        <time>2021-06-01T07:53:53.000Z</time>
      </trkpt>
      <trkpt lat="44.1348" lon="5.88449">
        <ele>858</ele>
        <time>2021-06-01T07:53:54.000Z</time>
      </trkpt>
      <trkpt lat="44.13481" lon="5.88449">
        <ele>858</ele>
        <time>2021-06-01T07:53:55.000Z</time>
      </trkpt>
      <trkpt lat="44.13481" lon="5.88449">
        <ele>858</ele>
        <time>2021-06-01T07:53:56.000Z</time>
      </trkpt>
      <trkpt lat="44.13481" lon="5.8845">
        <ele>858</ele>
        <time>2021-06-01T07:53:57.000Z</time>
      </trkpt>
      <trkpt lat="44.13481" lon="5.8845">
        <ele>858</ele>
        <time>2021-06-01T07:53:58.000Z</time>
      </trkpt>
      <trkpt lat="44.13481" lon="5.88449">
        <ele>858</ele>
        <time>2021-06-01T07:53:59.000Z</time>
      </trkpt>
      <trkpt lat="44.13481" lon="5.88449">
        <ele>858</ele>
        <time>2021-06-01T07:54:00.000Z</time>
      </trkpt>
      <trkpt lat="44.13481" lon="5.88449">
        <ele>858</ele>
        <time>2021-06-01T07:54:01.000Z</time>
      </trkpt>
      <trkpt lat="44.13481" lon="5.88449">
        <ele>858</ele>
        <time>2021-06-01T07:54:02.000Z</time>
      </trkpt>
      <trkpt lat="44.13481" lon="5.88449">
        <ele>858</ele>
        <time>2021-06-01T07:54:03.000Z</time>
      </trkpt>
      <trkpt lat="44.13481" lon="5.88449">
        <ele>858</ele>
        <time>2021-06-01T07:54:04.000Z</time>
      </trkpt>
      <trkpt lat="44.1348" lon="5.8845">
        <ele>858</ele>
        <time>2021-06-01T07:54:05.000Z</time>
      </trkpt>
      <trkpt lat="44.1348" lon="5.8845">
        <ele>858</ele>
        <time>2021-06-01T07:54:06.000Z</time>
      </trkpt>
      <trkpt lat="44.1348" lon="5.8845">
        <ele>858</ele>
        <time>2021-06-01T07:54:07.000Z</time>
      </trkpt>
      <trkpt lat="44.1348" lon="5.88449">
        <ele>858</ele>
        <time>2021-06-01T07:54:08.000Z</time>
      </trkpt>
      <trkpt lat="44.1348" lon="5.88449">
        <ele>858</ele>
        <time>2021-06-01T07:54:09.000Z</time>
      </trkpt>
      <trkpt lat="44.1348" lon="5.88449">
        <ele>858</ele>
        <time>2021-06-01T07:54:10.000Z</time>
      </trkpt>
      <trkpt lat="44.1348" lon="5.88449">
        <ele>858</ele>
        <time>2021-06-01T07:54:11.000Z</time>
      </trkpt>
      <trkpt lat="44.1348" lon="5.88449">
        <ele>858</ele>
        <time>2021-06-01T07:54:12.000Z</time>
      </trkpt>
      <trkpt lat="44.1348" lon="5.88449">
        <ele>858</ele>
        <time>2021-06-01T07:54:13.000Z</time>
      </trkpt>
      <trkpt lat="44.1348" lon="5.88449">
        <ele>859</ele>
        <time>2021-06-01T07:54:14.000Z</time>
      </trkpt>
      <trkpt lat="44.1348" lon="5.88449">
        <ele>859</ele>
        <time>2021-06-01T07:54:15.000Z</time>
      </trkpt>
      <trkpt lat="44.1348" lon="5.88449">
        <ele>859</ele>
        <time>2021-06-01T07:54:16.000Z</time>
      </trkpt>
      <trkpt lat="44.13479" lon="5.88449">
        <ele>859</ele>
        <time>2021-06-01T07:54:17.000Z</time>
      </trkpt>
      <trkpt lat="44.13479" lon="5.88449">
        <ele>859</ele>
        <time>2021-06-01T07:54:18.000Z</time>
      </trkpt>
      <trkpt lat="44.13479" lon="5.8845">
        <ele>859</ele>
        <time>2021-06-01T07:54:19.000Z</time>
      </trkpt>
      <trkpt lat="44.13479" lon="5.88449">
        <ele>859</ele>
        <time>2021-06-01T07:54:20.000Z</time>
      </trkpt>
      <trkpt lat="44.1348" lon="5.88449">
        <ele>858</ele>
        <time>2021-06-01T07:54:21.000Z</time>
      </trkpt>
      <trkpt lat="44.1348" lon="5.88449">
        <ele>858</ele>
        <time>2021-06-01T07:54:22.000Z</time>
      </trkpt>
      <trkpt lat="44.1348" lon="5.88449">
        <ele>858</ele>
        <time>2021-06-01T07:54:23.000Z</time>
      </trkpt>
      <trkpt lat="44.13479" lon="5.8845">
        <ele>858</ele>
        <time>2021-06-01T07:54:24.000Z</time>
      </trkpt>
      <trkpt lat="44.13479" lon="5.8845">
        <ele>858</ele>
        <time>2021-06-01T07:54:25.000Z</time>
      </trkpt>
      <trkpt lat="44.13479" lon="5.8845">
        <ele>858</ele>
        <time>2021-06-01T07:54:26.000Z</time>
      </trkpt>
      <trkpt lat="44.13479" lon="5.8845">
        <ele>858</ele>
        <time>2021-06-01T07:54:27.000Z</time>
      </trkpt>
      <trkpt lat="44.13479" lon="5.8845">
        <ele>858</ele>
        <time>2021-06-01T07:54:28.000Z</time>
      </trkpt>
      <trkpt lat="44.13479" lon="5.8845">
        <ele>858</ele>
        <time>2021-06-01T07:54:29.000Z</time>
      </trkpt>
      <trkpt lat="44.13479" lon="5.8845">
        <ele>858</ele>
        <time>2021-06-01T07:54:30.000Z</time>
      </trkpt>
      <trkpt lat="44.13479" lon="5.8845">
        <ele>858</ele>
        <time>2021-06-01T07:54:31.000Z</time>
      </trkpt>
      <trkpt lat="44.13479" lon="5.8845">
        <ele>858</ele>
        <time>2021-06-01T07:54:32.000Z</time>
      </trkpt>
      <trkpt lat="44.13479" lon="5.8845">
        <ele>858</ele>
        <time>2021-06-01T07:54:33.000Z</time>
      </trkpt>
      <trkpt lat="44.13479" lon="5.8845">
        <ele>858</ele>
        <time>2021-06-01T07:54:34.000Z</time>
      </trkpt>
      <trkpt lat="44.13479" lon="5.88449">
        <ele>858</ele>
        <time>2021-06-01T07:54:35.000Z</time>
      </trkpt>
      <trkpt lat="44.13479" lon="5.88449">
        <ele>858</ele>
        <time>2021-06-01T07:54:36.000Z</time>
      </trkpt>
      <trkpt lat="44.13479" lon="5.88448">
        <ele>858</ele>
        <time>2021-06-01T07:54:37.000Z</time>
      </trkpt>
      <trkpt lat="44.13479" lon="5.88448">
        <ele>858</ele>
        <time>2021-06-01T07:54:38.000Z</time>
      </trkpt>
      <trkpt lat="44.13479" lon="5.88448">
        <ele>858</ele>
        <time>2021-06-01T07:54:39.000Z</time>
      </trkpt>
      <trkpt lat="44.13479" lon="5.88447">
        <ele>858</ele>
        <time>2021-06-01T07:54:40.000Z</time>
      </trkpt>
      <trkpt lat="44.13479" lon="5.88447">
        <ele>858</ele>
        <time>2021-06-01T07:54:41.000Z</time>
      </trkpt>
      <trkpt lat="44.13479" lon="5.88447">
        <ele>858</ele>
        <time>2021-06-01T07:54:42.000Z</time>
      </trkpt>
      <trkpt lat="44.13479" lon="5.88447">
        <ele>858</ele>
        <time>2021-06-01T07:54:43.000Z</time>
      </trkpt>
      <trkpt lat="44.13478" lon="5.88446">
        <ele>858</ele>
        <time>2021-06-01T07:54:44.000Z</time>
      </trkpt>
      <trkpt lat="44.13478" lon="5.88446">
        <ele>858</ele>
        <time>2021-06-01T07:54:45.000Z</time>
      </trkpt>
      <trkpt lat="44.13477" lon="5.88446">
        <ele>858</ele>
        <time>2021-06-01T07:54:46.000Z</time>
      </trkpt>
      <trkpt lat="44.13477" lon="5.88445">
        <ele>857</ele>
        <time>2021-06-01T07:54:47.000Z</time>
      </trkpt>
      <trkpt lat="44.13477" lon="5.88445">
        <ele>857</ele>
        <time>2021-06-01T07:54:48.000Z</time>
      </trkpt>
      <trkpt lat="44.13476" lon="5.88445">
        <ele>857</ele>
        <time>2021-06-01T07:54:49.000Z</time>
      </trkpt>
      <trkpt lat="44.13476" lon="5.88446">
        <ele>857</ele>
        <time>2021-06-01T07:54:50.000Z</time>
      </trkpt>
      <trkpt lat="44.13476" lon="5.88446">
        <ele>857</ele>
        <time>2021-06-01T07:54:51.000Z</time>
      </trkpt>
      <trkpt lat="44.13476" lon="5.88446">
        <ele>857</ele>
        <time>2021-06-01T07:54:52.000Z</time>
      </trkpt>
      <trkpt lat="44.13476" lon="5.88445">
        <ele>857</ele>
        <time>2021-06-01T07:54:53.000Z</time>
      </trkpt>
      <trkpt lat="44.13476" lon="5.88445">
        <ele>857</ele>
        <time>2021-06-01T07:54:54.000Z</time>
      </trkpt>
      <trkpt lat="44.13476" lon="5.88444">
        <ele>857</ele>
        <time>2021-06-01T07:54:55.000Z</time>
      </trkpt>
      <trkpt lat="44.13476" lon="5.88444">
        <ele>857</ele>
        <time>2021-06-01T07:54:56.000Z</time>
      </trkpt>
      <trkpt lat="44.13476" lon="5.88444">
        <ele>857</ele>
        <time>2021-06-01T07:54:57.000Z</time>
      </trkpt>
      <trkpt lat="44.13475" lon="5.88443">
        <ele>857</ele>
        <time>2021-06-01T07:54:58.000Z</time>
      </trkpt>
      <trkpt lat="44.13475" lon="5.88443">
        <ele>857</ele>
        <time>2021-06-01T07:54:59.000Z</time>
      </trkpt>
      <trkpt lat="44.13475" lon="5.88442">
        <ele>856</ele>
        <time>2021-06-01T07:55:00.000Z</time>
      </trkpt>
      <trkpt lat="44.13475" lon="5.88441">
        <ele>856</ele>
        <time>2021-06-01T07:55:01.000Z</time>
      </trkpt>
      <trkpt lat="44.13474" lon="5.88441">
        <ele>856</ele>
        <time>2021-06-01T07:55:02.000Z</time>
      </trkpt>
      <trkpt lat="44.13474" lon="5.8844">
        <ele>856</ele>
        <time>2021-06-01T07:55:03.000Z</time>
      </trkpt>
      <trkpt lat="44.13474" lon="5.8844">
        <ele>856</ele>
        <time>2021-06-01T07:55:04.000Z</time>
      </trkpt>
      <trkpt lat="44.13474" lon="5.88439">
        <ele>856</ele>
        <time>2021-06-01T07:55:05.000Z</time>
      </trkpt>
      <trkpt lat="44.13474" lon="5.88437">
        <ele>856</ele>
        <time>2021-06-01T07:55:06.000Z</time>
      </trkpt>
      <trkpt lat="44.13474" lon="5.88436">
        <ele>856</ele>
        <time>2021-06-01T07:55:07.000Z</time>
      </trkpt>
      <trkpt lat="44.13474" lon="5.88435">
        <ele>856</ele>
        <time>2021-06-01T07:55:08.000Z</time>
      </trkpt>
      <trkpt lat="44.13474" lon="5.88433">
        <ele>856</ele>
        <time>2021-06-01T07:55:09.000Z</time>
      </trkpt>
      <trkpt lat="44.13474" lon="5.88432">
        <ele>856</ele>
        <time>2021-06-01T07:55:10.000Z</time>
      </trkpt>
      <trkpt lat="44.13473" lon="5.88432">
        <ele>856</ele>
        <time>2021-06-01T07:55:11.000Z</time>
      </trkpt>
      <trkpt lat="44.13473" lon="5.88431">
        <ele>856</ele>
        <time>2021-06-01T07:55:12.000Z</time>
      </trkpt>
      <trkpt lat="44.13472" lon="5.8843">
        <ele>856</ele>
        <time>2021-06-01T07:55:13.000Z</time>
      </trkpt>
      <trkpt lat="44.13472" lon="5.88429">
        <ele>855</ele>
        <time>2021-06-01T07:55:14.000Z</time>
      </trkpt>
      <trkpt lat="44.13471" lon="5.88429">
        <ele>855</ele>
        <time>2021-06-01T07:55:15.000Z</time>
      </trkpt>
      <trkpt lat="44.13471" lon="5.88428">
        <ele>855</ele>
        <time>2021-06-01T07:55:16.000Z</time>
      </trkpt>
      <trkpt lat="44.1347" lon="5.88428">
        <ele>855</ele>
        <time>2021-06-01T07:55:17.000Z</time>
      </trkpt>
      <trkpt lat="44.1347" lon="5.88428">
        <ele>855</ele>
        <time>2021-06-01T07:55:18.000Z</time>
      </trkpt>
      <trkpt lat="44.1347" lon="5.88428">
        <ele>855</ele>
        <time>2021-06-01T07:55:19.000Z</time>
      </trkpt>
      <trkpt lat="44.1347" lon="5.88427">
        <ele>855</ele>
        <time>2021-06-01T07:55:20.000Z</time>
      </trkpt>
      <trkpt lat="44.1347" lon="5.88427">
        <ele>855</ele>
        <time>2021-06-01T07:55:21.000Z</time>
      </trkpt>
      <trkpt lat="44.13469" lon="5.88427">
        <ele>855</ele>
        <time>2021-06-01T07:55:22.000Z</time>
      </trkpt>
      <trkpt lat="44.13469" lon="5.88427">
        <ele>855</ele>
        <time>2021-06-01T07:55:23.000Z</time>
      </trkpt>
      <trkpt lat="44.13469" lon="5.88427">
        <ele>855</ele>
        <time>2021-06-01T07:55:24.000Z</time>
      </trkpt>
      <trkpt lat="44.13469" lon="5.88427">
        <ele>855</ele>
        <time>2021-06-01T07:55:25.000Z</time>
      </trkpt>
      <trkpt lat="44.13469" lon="5.88427">
        <ele>854</ele>
        <time>2021-06-01T07:55:26.000Z</time>
      </trkpt>
      <trkpt lat="44.13469" lon="5.88427">
        <ele>854</ele>
        <time>2021-06-01T07:55:27.000Z</time>
      </trkpt>
      <trkpt lat="44.13469" lon="5.88426">
        <ele>854</ele>
        <time>2021-06-01T07:55:28.000Z</time>
      </trkpt>
      <trkpt lat="44.13469" lon="5.88426">
        <ele>854</ele>
        <time>2021-06-01T07:55:29.000Z</time>
      </trkpt>
      <trkpt lat="44.13468" lon="5.88426">
        <ele>854</ele>
        <time>2021-06-01T07:55:30.000Z</time>
      </trkpt>
      <trkpt lat="44.13468" lon="5.88426">
        <ele>854</ele>
        <time>2021-06-01T07:55:31.000Z</time>
      </trkpt>
      <trkpt lat="44.13467" lon="5.88426">
        <ele>854</ele>
        <time>2021-06-01T07:55:32.000Z</time>
      </trkpt>
      <trkpt lat="44.13467" lon="5.88425">
        <ele>854</ele>
        <time>2021-06-01T07:55:33.000Z</time>
      </trkpt>
      <trkpt lat="44.13467" lon="5.88425">
        <ele>854</ele>
        <time>2021-06-01T07:55:34.000Z</time>
      </trkpt>
      <trkpt lat="44.13467" lon="5.88426">
        <ele>854</ele>
        <time>2021-06-01T07:55:35.000Z</time>
      </trkpt>
      <trkpt lat="44.13467" lon="5.88425">
        <ele>854</ele>
        <time>2021-06-01T07:55:36.000Z</time>
      </trkpt>
      <trkpt lat="44.13466" lon="5.88426">
        <ele>854</ele>
        <time>2021-06-01T07:55:37.000Z</time>
      </trkpt>
      <trkpt lat="44.13466" lon="5.88426">
        <ele>854</ele>
        <time>2021-06-01T07:55:38.000Z</time>
      </trkpt>
      <trkpt lat="44.13466" lon="5.88426">
        <ele>854</ele>
        <time>2021-06-01T07:55:39.000Z</time>
      </trkpt>
      <trkpt lat="44.13465" lon="5.88426">
        <ele>854</ele>
        <time>2021-06-01T07:55:40.000Z</time>
      </trkpt>
      <trkpt lat="44.13465" lon="5.88426">
        <ele>854</ele>
        <time>2021-06-01T07:55:41.000Z</time>
      </trkpt>
      <trkpt lat="44.13465" lon="5.88426">
        <ele>854</ele>
        <time>2021-06-01T07:55:42.000Z</time>
      </trkpt>
      <trkpt lat="44.13465" lon="5.88426">
        <ele>854</ele>
        <time>2021-06-01T07:55:43.000Z</time>
      </trkpt>
      <trkpt lat="44.13464" lon="5.88426">
        <ele>854</ele>
        <time>2021-06-01T07:55:44.000Z</time>
      </trkpt>
      <trkpt lat="44.13464" lon="5.88426">
        <ele>853</ele>
        <time>2021-06-01T07:55:45.000Z</time>
      </trkpt>
      <trkpt lat="44.13464" lon="5.88427">
        <ele>853</ele>
        <time>2021-06-01T07:55:46.000Z</time>
      </trkpt>
      <trkpt lat="44.13464" lon="5.88427">
        <ele>853</ele>
        <time>2021-06-01T07:55:47.000Z</time>
      </trkpt>
      <trkpt lat="44.13463" lon="5.88427">
        <ele>853</ele>
        <time>2021-06-01T07:55:48.000Z</time>
      </trkpt>
      <trkpt lat="44.13463" lon="5.88427">
        <ele>853</ele>
        <time>2021-06-01T07:55:49.000Z</time>
      </trkpt>
      <trkpt lat="44.13463" lon="5.88427">
        <ele>853</ele>
        <time>2021-06-01T07:55:50.000Z</time>
      </trkpt>
      <trkpt lat="44.13463" lon="5.88427">
        <ele>853</ele>
        <time>2021-06-01T07:55:51.000Z</time>
      </trkpt>
      <trkpt lat="44.13463" lon="5.88426">
        <ele>853</ele>
        <time>2021-06-01T07:55:52.000Z</time>
      </trkpt>
      <trkpt lat="44.13463" lon="5.88426">
        <ele>853</ele>
        <time>2021-06-01T07:55:53.000Z</time>
      </trkpt>
      <trkpt lat="44.13463" lon="5.88426">
        <ele>853</ele>
        <time>2021-06-01T07:55:54.000Z</time>
      </trkpt>
      <trkpt lat="44.13463" lon="5.88426">
        <ele>854</ele>
        <time>2021-06-01T07:55:55.000Z</time>
      </trkpt>
      <trkpt lat="44.13462" lon="5.88426">
        <ele>854</ele>
        <time>2021-06-01T07:55:56.000Z</time>
      </trkpt>
      <trkpt lat="44.13462" lon="5.88426">
        <ele>854</ele>
        <time>2021-06-01T07:55:57.000Z</time>
      </trkpt>
      <trkpt lat="44.13462" lon="5.88426">
        <ele>854</ele>
        <time>2021-06-01T07:55:58.000Z</time>
      </trkpt>
      <trkpt lat="44.13462" lon="5.88426">
        <ele>854</ele>
        <time>2021-06-01T07:55:59.000Z</time>
      </trkpt>
      <trkpt lat="44.13462" lon="5.88426">
        <ele>854</ele>
        <time>2021-06-01T07:56:00.000Z</time>
      </trkpt>
      <trkpt lat="44.13462" lon="5.88426">
        <ele>854</ele>
        <time>2021-06-01T07:56:01.000Z</time>
      </trkpt>
      <trkpt lat="44.13462" lon="5.88426">
        <ele>854</ele>
        <time>2021-06-01T07:56:02.000Z</time>
      </trkpt>
      <trkpt lat="44.13462" lon="5.88425">
        <ele>854</ele>
        <time>2021-06-01T07:56:03.000Z</time>
      </trkpt>
      <trkpt lat="44.13462" lon="5.88425">
        <ele>854</ele>
        <time>2021-06-01T07:56:04.000Z</time>
      </trkpt>
      <trkpt lat="44.13462" lon="5.88425">
        <ele>854</ele>
        <time>2021-06-01T07:56:05.000Z</time>
      </trkpt>
      <trkpt lat="44.13462" lon="5.88425">
        <ele>854</ele>
        <time>2021-06-01T07:56:06.000Z</time>
      </trkpt>
      <trkpt lat="44.13462" lon="5.88425">
        <ele>854</ele>
        <time>2021-06-01T07:56:07.000Z</time>
      </trkpt>
      <trkpt lat="44.13462" lon="5.88425">
        <ele>854</ele>
        <time>2021-06-01T07:56:08.000Z</time>
      </trkpt>
      <trkpt lat="44.13462" lon="5.88425">
        <ele>854</ele>
        <time>2021-06-01T07:56:09.000Z</time>
      </trkpt>
      <trkpt lat="44.13462" lon="5.88425">
        <ele>854</ele>
        <time>2021-06-01T07:56:10.000Z</time>
      </trkpt>
      <trkpt lat="44.13462" lon="5.88425">
        <ele>854</ele>
        <time>2021-06-01T07:56:11.000Z</time>
      </trkpt>
      <trkpt lat="44.13462" lon="5.88425">
        <ele>854</ele>
        <time>2021-06-01T07:56:12.000Z</time>
      </trkpt>
      <trkpt lat="44.13462" lon="5.88425">
        <ele>854</ele>
        <time>2021-06-01T07:56:13.000Z</time>
      </trkpt>
      <trkpt lat="44.13462" lon="5.88425">
        <ele>854</ele>
        <time>2021-06-01T07:56:14.000Z</time>
      </trkpt>
      <trkpt lat="44.13462" lon="5.88425">
        <ele>854</ele>
        <time>2021-06-01T07:56:15.000Z</time>
      </trkpt>
      <trkpt lat="44.13462" lon="5.88425">
        <ele>854</ele>
        <time>2021-06-01T07:56:16.000Z</time>
      </trkpt>
      <trkpt lat="44.13462" lon="5.88425">
        <ele>854</ele>
        <time>2021-06-01T07:56:17.000Z</time>
      </trkpt>
      <trkpt lat="44.13462" lon="5.88425">
        <ele>854</ele>
        <time>2021-06-01T07:56:18.000Z</time>
      </trkpt>
      <trkpt lat="44.13462" lon="5.88425">
        <ele>854</ele>
        <time>2021-06-01T07:56:19.000Z</time>
      </trkpt>
      <trkpt lat="44.13462" lon="5.88425">
        <ele>854</ele>
        <time>2021-06-01T07:56:20.000Z</time>
      </trkpt>
      <trkpt lat="44.13462" lon="5.88425">
        <ele>854</ele>
        <time>2021-06-01T07:56:21.000Z</time>
      </trkpt>
      <trkpt lat="44.13462" lon="5.88425">
        <ele>854</ele>
        <time>2021-06-01T07:56:22.000Z</time>
      </trkpt>
      <trkpt lat="44.13462" lon="5.88425">
        <ele>854</ele>
        <time>2021-06-01T07:56:23.000Z</time>
      </trkpt>
      <trkpt lat="44.13462" lon="5.88425">
        <ele>854</ele>
        <time>2021-06-01T07:56:24.000Z</time>
      </trkpt>
      <trkpt lat="44.13462" lon="5.88425">
        <ele>854</ele>
        <time>2021-06-01T07:56:25.000Z</time>
      </trkpt>
      <trkpt lat="44.13462" lon="5.88425">
        <ele>854</ele>
        <time>2021-06-01T07:56:26.000Z</time>
      </trkpt>
      <trkpt lat="44.13462" lon="5.88425">
        <ele>854</ele>
        <time>2021-06-01T07:56:27.000Z</time>
      </trkpt>
      <trkpt lat="44.13462" lon="5.88425">
        <ele>854</ele>
        <time>2021-06-01T07:56:28.000Z</time>
      </trkpt>
      <trkpt lat="44.13462" lon="5.88425">
        <ele>854</ele>
        <time>2021-06-01T07:56:29.000Z</time>
      </trkpt>
      <trkpt lat="44.13462" lon="5.88425">
        <ele>854</ele>
        <time>2021-06-01T07:56:30.000Z</time>
      </trkpt>
      <trkpt lat="44.13462" lon="5.88425">
        <ele>854</ele>
        <time>2021-06-01T07:56:31.000Z</time>
      </trkpt>
      <trkpt lat="44.13462" lon="5.88425">
        <ele>854</ele>
        <time>2021-06-01T07:56:32.000Z</time>
      </trkpt>
      <trkpt lat="44.13462" lon="5.88424">
        <ele>854</ele>
        <time>2021-06-01T07:56:33.000Z</time>
      </trkpt>
      <trkpt lat="44.13463" lon="5.88424">
        <ele>854</ele>
        <time>2021-06-01T07:56:34.000Z</time>
      </trkpt>
      <trkpt lat="44.13463" lon="5.88424">
        <ele>854</ele>
        <time>2021-06-01T07:56:35.000Z</time>
      </trkpt>
      <trkpt lat="44.13463" lon="5.88424">
        <ele>854</ele>
        <time>2021-06-01T07:56:36.000Z</time>
      </trkpt>
      <trkpt lat="44.13463" lon="5.88424">
        <ele>854</ele>
        <time>2021-06-01T07:56:37.000Z</time>
      </trkpt>
      <trkpt lat="44.13463" lon="5.88424">
        <ele>854</ele>
        <time>2021-06-01T07:56:38.000Z</time>
      </trkpt>
      <trkpt lat="44.13463" lon="5.88424">
        <ele>854</ele>
        <time>2021-06-01T07:56:39.000Z</time>
      </trkpt>
      <trkpt lat="44.13463" lon="5.88424">
        <ele>854</ele>
        <time>2021-06-01T07:56:40.000Z</time>
      </trkpt>
      <trkpt lat="44.13463" lon="5.88424">
        <ele>854</ele>
        <time>2021-06-01T07:56:41.000Z</time>
      </trkpt>
      <trkpt lat="44.13463" lon="5.88424">
        <ele>854</ele>
        <time>2021-06-01T07:56:42.000Z</time>
      </trkpt>
      <trkpt lat="44.13463" lon="5.88424">
        <ele>854</ele>
        <time>2021-06-01T07:56:43.000Z</time>
      </trkpt>
      <trkpt lat="44.13463" lon="5.88424">
        <ele>854</ele>
        <time>2021-06-01T07:56:44.000Z</time>
      </trkpt>
      <trkpt lat="44.13463" lon="5.88424">
        <ele>855</ele>
        <time>2021-06-01T07:56:45.000Z</time>
      </trkpt>
      <trkpt lat="44.13463" lon="5.88424">
        <ele>855</ele>
        <time>2021-06-01T07:56:46.000Z</time>
      </trkpt>
      <trkpt lat="44.13463" lon="5.88424">
        <ele>855</ele>
        <time>2021-06-01T07:56:47.000Z</time>
      </trkpt>
      <trkpt lat="44.13463" lon="5.88424">
        <ele>855</ele>
        <time>2021-06-01T07:56:48.000Z</time>
      </trkpt>
      <trkpt lat="44.13463" lon="5.88423">
        <ele>855</ele>
        <time>2021-06-01T07:56:49.000Z</time>
      </trkpt>
      <trkpt lat="44.13463" lon="5.88423">
        <ele>855</ele>
        <time>2021-06-01T07:56:50.000Z</time>
      </trkpt>
      <trkpt lat="44.13463" lon="5.88423">
        <ele>855</ele>
        <time>2021-06-01T07:56:51.000Z</time>
      </trkpt>
      <trkpt lat="44.13463" lon="5.88423">
        <ele>855</ele>
        <time>2021-06-01T07:56:52.000Z</time>
      </trkpt>
      <trkpt lat="44.13464" lon="5.88423">
        <ele>855</ele>
        <time>2021-06-01T07:56:53.000Z</time>
      </trkpt>
      <trkpt lat="44.13464" lon="5.88422">
        <ele>855</ele>
        <time>2021-06-01T07:56:54.000Z</time>
      </trkpt>
      <trkpt lat="44.13464" lon="5.88422">
        <ele>855</ele>
        <time>2021-06-01T07:56:55.000Z</time>
      </trkpt>
      <trkpt lat="44.13464" lon="5.88422">
        <ele>855</ele>
        <time>2021-06-01T07:56:56.000Z</time>
      </trkpt>
      <trkpt lat="44.13464" lon="5.88422">
        <ele>855</ele>
        <time>2021-06-01T07:56:57.000Z</time>
      </trkpt>
      <trkpt lat="44.13464" lon="5.88422">
        <ele>855</ele>
        <time>2021-06-01T07:56:58.000Z</time>
      </trkpt>
      <trkpt lat="44.13464" lon="5.88422">
        <ele>855</ele>
        <time>2021-06-01T07:56:59.000Z</time>
      </trkpt>
      <trkpt lat="44.13464" lon="5.88422">
        <ele>855</ele>
        <time>2021-06-01T07:57:00.000Z</time>
      </trkpt>
      <trkpt lat="44.13463" lon="5.88422">
        <ele>855</ele>
        <time>2021-06-01T07:57:01.000Z</time>
      </trkpt>
      <trkpt lat="44.13463" lon="5.88422">
        <ele>855</ele>
        <time>2021-06-01T07:57:02.000Z</time>
      </trkpt>
      <trkpt lat="44.13463" lon="5.88422">
        <ele>855</ele>
        <time>2021-06-01T07:57:03.000Z</time>
      </trkpt>
      <trkpt lat="44.13463" lon="5.88422">
        <ele>855</ele>
        <time>2021-06-01T07:57:04.000Z</time>
      </trkpt>
      <trkpt lat="44.13463" lon="5.88422">
        <ele>855</ele>
        <time>2021-06-01T07:57:05.000Z</time>
      </trkpt>
      <trkpt lat="44.13463" lon="5.88422">
        <ele>855</ele>
        <time>2021-06-01T07:57:06.000Z</time>
      </trkpt>
      <trkpt lat="44.13463" lon="5.88422">
        <ele>855</ele>
        <time>2021-06-01T07:57:07.000Z</time>
      </trkpt>
      <trkpt lat="44.13463" lon="5.88422">
        <ele>855</ele>
        <time>2021-06-01T07:57:08.000Z</time>
      </trkpt>
      <trkpt lat="44.13463" lon="5.88422">
        <ele>855</ele>
        <time>2021-06-01T07:57:09.000Z</time>
      </trkpt>
      <trkpt lat="44.13463" lon="5.88422">
        <ele>855</ele>
        <time>2021-06-01T07:57:10.000Z</time>
      </trkpt>
      <trkpt lat="44.13463" lon="5.88422">
        <ele>855</ele>
        <time>2021-06-01T07:57:11.000Z</time>
      </trkpt>
      <trkpt lat="44.13463" lon="5.88422">
        <ele>855</ele>
        <time>2021-06-01T07:57:12.000Z</time>
      </trkpt>
      <trkpt lat="44.13463" lon="5.88422">
        <ele>855</ele>
        <time>2021-06-01T07:57:13.000Z</time>
      </trkpt>
      <trkpt lat="44.13463" lon="5.88422">
        <ele>855</ele>
        <time>2021-06-01T07:57:14.000Z</time>
      </trkpt>
      <trkpt lat="44.13463" lon="5.88422">
        <ele>855</ele>
        <time>2021-06-01T07:57:15.000Z</time>
      </trkpt>
      <trkpt lat="44.13463" lon="5.88422">
        <ele>855</ele>
        <time>2021-06-01T07:57:16.000Z</time>
      </trkpt>
      <trkpt lat="44.13463" lon="5.88422">
        <ele>855</ele>
        <time>2021-06-01T07:57:17.000Z</time>
      </trkpt>
      <trkpt lat="44.13463" lon="5.88422">
        <ele>855</ele>
        <time>2021-06-01T07:57:18.000Z</time>
      </trkpt>
      <trkpt lat="44.13463" lon="5.88422">
        <ele>855</ele>
        <time>2021-06-01T07:57:19.000Z</time>
      </trkpt>
      <trkpt lat="44.13463" lon="5.88422">
        <ele>855</ele>
        <time>2021-06-01T07:57:20.000Z</time>
      </trkpt>
      <trkpt lat="44.13463" lon="5.88422">
        <ele>855</ele>
        <time>2021-06-01T07:57:21.000Z</time>
      </trkpt>
      <trkpt lat="44.13463" lon="5.88422">
        <ele>855</ele>
        <time>2021-06-01T07:57:22.000Z</time>
      </trkpt>
      <trkpt lat="44.13463" lon="5.88422">
        <ele>855</ele>
        <time>2021-06-01T07:57:23.000Z</time>
      </trkpt>
      <trkpt lat="44.13463" lon="5.88422">
        <ele>855</ele>
        <time>2021-06-01T07:57:24.000Z</time>
      </trkpt>
      <trkpt lat="44.13463" lon="5.88422">
        <ele>855</ele>
        <time>2021-06-01T07:57:25.000Z</time>
      </trkpt>
      <trkpt lat="44.13463" lon="5.88422">
        <ele>855</ele>
        <time>2021-06-01T07:57:26.000Z</time>
      </trkpt>
      <trkpt lat="44.13463" lon="5.88422">
        <ele>855</ele>
        <time>2021-06-01T07:57:27.000Z</time>
      </trkpt>
      <trkpt lat="44.13463" lon="5.88422">
        <ele>855</ele>
        <time>2021-06-01T07:57:28.000Z</time>
      </trkpt>
      <trkpt lat="44.13463" lon="5.88422">
        <ele>855</ele>
        <time>2021-06-01T07:57:29.000Z</time>
      </trkpt>
      <trkpt lat="44.13463" lon="5.88422">
        <ele>855</ele>
        <time>2021-06-01T07:57:30.000Z</time>
      </trkpt>
      <trkpt lat="44.13463" lon="5.88422">
        <ele>855</ele>
        <time>2021-06-01T07:57:31.000Z</time>
      </trkpt>
      <trkpt lat="44.13463" lon="5.88422">
        <ele>855</ele>
        <time>2021-06-01T07:57:32.000Z</time>
      </trkpt>
      <trkpt lat="44.13463" lon="5.88422">
        <ele>855</ele>
        <time>2021-06-01T07:57:33.000Z</time>
      </trkpt>
      <trkpt lat="44.13463" lon="5.88422">
        <ele>855</ele>
        <time>2021-06-01T07:57:34.000Z</time>
      </trkpt>
      <trkpt lat="44.13463" lon="5.88422">
        <ele>855</ele>
        <time>2021-06-01T07:57:35.000Z</time>
      </trkpt>
      <trkpt lat="44.13463" lon="5.88422">
        <ele>855</ele>
        <time>2021-06-01T07:57:36.000Z</time>
      </trkpt>
      <trkpt lat="44.13463" lon="5.88421">
        <ele>855</ele>
        <time>2021-06-01T07:57:37.000Z</time>
      </trkpt>
      <trkpt lat="44.13463" lon="5.88421">
        <ele>855</ele>
        <time>2021-06-01T07:57:38.000Z</time>
      </trkpt>
      <trkpt lat="44.13463" lon="5.88421">
        <ele>855</ele>
        <time>2021-06-01T07:57:39.000Z</time>
      </trkpt>
      <trkpt lat="44.13463" lon="5.88421">
        <ele>855</ele>
        <time>2021-06-01T07:57:40.000Z</time>
      </trkpt>
      <trkpt lat="44.13463" lon="5.88421">
        <ele>855</ele>
        <time>2021-06-01T07:57:41.000Z</time>
      </trkpt>
      <trkpt lat="44.13463" lon="5.88421">
        <ele>855</ele>
        <time>2021-06-01T07:57:42.000Z</time>
      </trkpt>
      <trkpt lat="44.13463" lon="5.88421">
        <ele>855</ele>
        <time>2021-06-01T07:57:43.000Z</time>
      </trkpt>
      <trkpt lat="44.13463" lon="5.88421">
        <ele>855</ele>
        <time>2021-06-01T07:57:44.000Z</time>
      </trkpt>
      <trkpt lat="44.13463" lon="5.88421">
        <ele>855</ele>
        <time>2021-06-01T07:57:45.000Z</time>
      </trkpt>
      <trkpt lat="44.13463" lon="5.88421">
        <ele>855</ele>
        <time>2021-06-01T07:57:46.000Z</time>
      </trkpt>
      <trkpt lat="44.13463" lon="5.88421">
        <ele>855</ele>
        <time>2021-06-01T07:57:47.000Z</time>
      </trkpt>
      <trkpt lat="44.13463" lon="5.88421">
        <ele>855</ele>
        <time>2021-06-01T07:57:48.000Z</time>
      </trkpt>
      <trkpt lat="44.13463" lon="5.8842">
        <ele>855</ele>
        <time>2021-06-01T07:57:49.000Z</time>
      </trkpt>
      <trkpt lat="44.13463" lon="5.8842">
        <ele>855</ele>
        <time>2021-06-01T07:57:50.000Z</time>
      </trkpt>
      <trkpt lat="44.13464" lon="5.8842">
        <ele>855</ele>
        <time>2021-06-01T07:57:51.000Z</time>
      </trkpt>
      <trkpt lat="44.13464" lon="5.8842">
        <ele>855</ele>
        <time>2021-06-01T07:57:52.000Z</time>
      </trkpt>
      <trkpt lat="44.13464" lon="5.8842">
        <ele>855</ele>
        <time>2021-06-01T07:57:53.000Z</time>
      </trkpt>
      <trkpt lat="44.13464" lon="5.8842">
        <ele>855</ele>
        <time>2021-06-01T07:57:54.000Z</time>
      </trkpt>
      <trkpt lat="44.13464" lon="5.8842">
        <ele>855</ele>
        <time>2021-06-01T07:57:55.000Z</time>
      </trkpt>
      <trkpt lat="44.13464" lon="5.8842">
        <ele>855</ele>
        <time>2021-06-01T07:57:56.000Z</time>
      </trkpt>
      <trkpt lat="44.13464" lon="5.8842">
        <ele>855</ele>
        <time>2021-06-01T07:57:57.000Z</time>
      </trkpt>
      <trkpt lat="44.13464" lon="5.8842">
        <ele>855</ele>
        <time>2021-06-01T07:57:58.000Z</time>
      </trkpt>
      <trkpt lat="44.13464" lon="5.8842">
        <ele>855</ele>
        <time>2021-06-01T07:57:59.000Z</time>
      </trkpt>
      <trkpt lat="44.13464" lon="5.8842">
        <ele>855</ele>
        <time>2021-06-01T07:58:00.000Z</time>
      </trkpt>
      <trkpt lat="44.13464" lon="5.8842">
        <ele>855</ele>
        <time>2021-06-01T07:58:01.000Z</time>
      </trkpt>
      <trkpt lat="44.13464" lon="5.8842">
        <ele>855</ele>
        <time>2021-06-01T07:58:02.000Z</time>
      </trkpt>
      <trkpt lat="44.13464" lon="5.8842">
        <ele>855</ele>
        <time>2021-06-01T07:58:03.000Z</time>
      </trkpt>
      <trkpt lat="44.13464" lon="5.8842">
        <ele>855</ele>
        <time>2021-06-01T07:58:04.000Z</time>
      </trkpt>
      <trkpt lat="44.13464" lon="5.8842">
        <ele>855</ele>
        <time>2021-06-01T07:58:05.000Z</time>
      </trkpt>
      <trkpt lat="44.13464" lon="5.8842">
        <ele>855</ele>
        <time>2021-06-01T07:58:06.000Z</time>
      </trkpt>
      <trkpt lat="44.13464" lon="5.8842">
        <ele>855</ele>
        <time>2021-06-01T07:58:07.000Z</time>
      </trkpt>
      <trkpt lat="44.13464" lon="5.8842">
        <ele>855</ele>
        <time>2021-06-01T07:58:08.000Z</time>
      </trkpt>
      <trkpt lat="44.13464" lon="5.8842">
        <ele>855</ele>
        <time>2021-06-01T07:58:09.000Z</time>
      </trkpt>
      <trkpt lat="44.13464" lon="5.8842">
        <ele>856</ele>
        <time>2021-06-01T07:58:10.000Z</time>
      </trkpt>
      <trkpt lat="44.13464" lon="5.8842">
        <ele>856</ele>
        <time>2021-06-01T07:58:11.000Z</time>
      </trkpt>
      <trkpt lat="44.13464" lon="5.8842">
        <ele>856</ele>
        <time>2021-06-01T07:58:12.000Z</time>
      </trkpt>
      <trkpt lat="44.13464" lon="5.8842">
        <ele>856</ele>
        <time>2021-06-01T07:58:13.000Z</time>
      </trkpt>
      <trkpt lat="44.13465" lon="5.8842">
        <ele>856</ele>
        <time>2021-06-01T07:58:14.000Z</time>
      </trkpt>
      <trkpt lat="44.13465" lon="5.8842">
        <ele>856</ele>
        <time>2021-06-01T07:58:15.000Z</time>
      </trkpt>
      <trkpt lat="44.13465" lon="5.8842">
        <ele>856</ele>
        <time>2021-06-01T07:58:16.000Z</time>
      </trkpt>
      <trkpt lat="44.13465" lon="5.8842">
        <ele>856</ele>
        <time>2021-06-01T07:58:17.000Z</time>
      </trkpt>
      <trkpt lat="44.13465" lon="5.8842">
        <ele>856</ele>
        <time>2021-06-01T07:58:18.000Z</time>
      </trkpt>
      <trkpt lat="44.13465" lon="5.8842">
        <ele>856</ele>
        <time>2021-06-01T07:58:19.000Z</time>
      </trkpt>
      <trkpt lat="44.13465" lon="5.8842">
        <ele>856</ele>
        <time>2021-06-01T07:58:20.000Z</time>
      </trkpt>
      <trkpt lat="44.13465" lon="5.8842">
        <ele>856</ele>
        <time>2021-06-01T07:58:21.000Z</time>
      </trkpt>
      <trkpt lat="44.13465" lon="5.8842">
        <ele>856</ele>
        <time>2021-06-01T07:58:22.000Z</time>
      </trkpt>
      <trkpt lat="44.13465" lon="5.8842">
        <ele>856</ele>
        <time>2021-06-01T07:58:23.000Z</time>
      </trkpt>
      <trkpt lat="44.13465" lon="5.88419">
        <ele>856</ele>
        <time>2021-06-01T07:58:24.000Z</time>
      </trkpt>
      <trkpt lat="44.13465" lon="5.88419">
        <ele>856</ele>
        <time>2021-06-01T07:58:25.000Z</time>
      </trkpt>
      <trkpt lat="44.13465" lon="5.8842">
        <ele>856</ele>
        <time>2021-06-01T07:58:26.000Z</time>
      </trkpt>
      <trkpt lat="44.13465" lon="5.8842">
        <ele>856</ele>
        <time>2021-06-01T07:58:27.000Z</time>
      </trkpt>
      <trkpt lat="44.13465" lon="5.88419">
        <ele>856</ele>
        <time>2021-06-01T07:58:28.000Z</time>
      </trkpt>
      <trkpt lat="44.13465" lon="5.88419">
        <ele>856</ele>
        <time>2021-06-01T07:58:29.000Z</time>
      </trkpt>
      <trkpt lat="44.13465" lon="5.88419">
        <ele>856</ele>
        <time>2021-06-01T07:58:30.000Z</time>
      </trkpt>
      <trkpt lat="44.13465" lon="5.88419">
        <ele>856</ele>
        <time>2021-06-01T07:58:31.000Z</time>
      </trkpt>
      <trkpt lat="44.13465" lon="5.88419">
        <ele>856</ele>
        <time>2021-06-01T07:58:32.000Z</time>
      </trkpt>
      <trkpt lat="44.13465" lon="5.8842">
        <ele>856</ele>
        <time>2021-06-01T07:58:33.000Z</time>
      </trkpt>
      <trkpt lat="44.13465" lon="5.8842">
        <ele>856</ele>
        <time>2021-06-01T07:58:34.000Z</time>
      </trkpt>
      <trkpt lat="44.13465" lon="5.8842">
        <ele>856</ele>
        <time>2021-06-01T07:58:35.000Z</time>
      </trkpt>
      <trkpt lat="44.13465" lon="5.8842">
        <ele>856</ele>
        <time>2021-06-01T07:58:36.000Z</time>
      </trkpt>
      <trkpt lat="44.13465" lon="5.8842">
        <ele>856</ele>
        <time>2021-06-01T07:58:37.000Z</time>
      </trkpt>
      <trkpt lat="44.13465" lon="5.8842">
        <ele>856</ele>
        <time>2021-06-01T07:58:38.000Z</time>
      </trkpt>
      <trkpt lat="44.13465" lon="5.88419">
        <ele>856</ele>
        <time>2021-06-01T07:58:39.000Z</time>
      </trkpt>
      <trkpt lat="44.13465" lon="5.88419">
        <ele>856</ele>
        <time>2021-06-01T07:58:40.000Z</time>
      </trkpt>
      <trkpt lat="44.13465" lon="5.88419">
        <ele>856</ele>
        <time>2021-06-01T07:58:41.000Z</time>
      </trkpt>
      <trkpt lat="44.13465" lon="5.88418">
        <ele>856</ele>
        <time>2021-06-01T07:58:42.000Z</time>
      </trkpt>
      <trkpt lat="44.13465" lon="5.88418">
        <ele>856</ele>
        <time>2021-06-01T07:58:43.000Z</time>
      </trkpt>
      <trkpt lat="44.13466" lon="5.88417">
        <ele>857</ele>
        <time>2021-06-01T07:58:44.000Z</time>
      </trkpt>
      <trkpt lat="44.13466" lon="5.88417">
        <ele>867</ele>
        <time>2021-06-01T08:00:45.000Z</time>
      </trkpt>
      <trkpt lat="44.13466" lon="5.88417">
        <ele>866</ele>
        <time>2021-06-01T08:00:46.000Z</time>
      </trkpt>
      <trkpt lat="44.13476" lon="5.88373">
        <ele>866</ele>
        <time>2021-06-01T08:00:47.000Z</time>
      </trkpt>
      <trkpt lat="44.13475" lon="5.88373">
        <ele>865</ele>
        <time>2021-06-01T08:00:48.000Z</time>
      </trkpt>
      <trkpt lat="44.13475" lon="5.88373">
        <ele>864</ele>
        <time>2021-06-01T08:00:49.000Z</time>
      </trkpt>
      <trkpt lat="44.13475" lon="5.88374">
        <ele>863</ele>
        <time>2021-06-01T08:00:50.000Z</time>
      </trkpt>
      <trkpt lat="44.13474" lon="5.88375">
        <ele>863</ele>
        <time>2021-06-01T08:00:51.000Z</time>
      </trkpt>
      <trkpt lat="44.13474" lon="5.88376">
        <ele>862</ele>
        <time>2021-06-01T08:00:52.000Z</time>
      </trkpt>
      <trkpt lat="44.13474" lon="5.88377">
        <ele>861</ele>
        <time>2021-06-01T08:00:53.000Z</time>
      </trkpt>
      <trkpt lat="44.13474" lon="5.88379">
        <ele>861</ele>
        <time>2021-06-01T08:00:54.000Z</time>
      </trkpt>
      <trkpt lat="44.13474" lon="5.8838">
        <ele>860</ele>
        <time>2021-06-01T08:00:55.000Z</time>
      </trkpt>
      <trkpt lat="44.13474" lon="5.88382">
        <ele>859</ele>
        <time>2021-06-01T08:00:56.000Z</time>
      </trkpt>
      <trkpt lat="44.13474" lon="5.88384">
        <ele>859</ele>
        <time>2021-06-01T08:00:57.000Z</time>
      </trkpt>
      <trkpt lat="44.13475" lon="5.88385">
        <ele>859</ele>
        <time>2021-06-01T08:00:58.000Z</time>
      </trkpt>
      <trkpt lat="44.13475" lon="5.88387">
        <ele>858</ele>
        <time>2021-06-01T08:00:59.000Z</time>
      </trkpt>
      <trkpt lat="44.13475" lon="5.88389">
        <ele>858</ele>
        <time>2021-06-01T08:01:00.000Z</time>
      </trkpt>
      <trkpt lat="44.13476" lon="5.88391">
        <ele>858</ele>
        <time>2021-06-01T08:01:01.000Z</time>
      </trkpt>
      <trkpt lat="44.13476" lon="5.88392">
        <ele>857</ele>
        <time>2021-06-01T08:01:02.000Z</time>
      </trkpt>
      <trkpt lat="44.13476" lon="5.88393">
        <ele>857</ele>
        <time>2021-06-01T08:01:03.000Z</time>
      </trkpt>
      <trkpt lat="44.13476" lon="5.88394">
        <ele>857</ele>
        <time>2021-06-01T08:01:04.000Z</time>
      </trkpt>
      <trkpt lat="44.13477" lon="5.88396">
        <ele>857</ele>
        <time>2021-06-01T08:01:05.000Z</time>
      </trkpt>
      <trkpt lat="44.13477" lon="5.88398">
        <ele>857</ele>
        <time>2021-06-01T08:01:06.000Z</time>
      </trkpt>
      <trkpt lat="44.13477" lon="5.884">
        <ele>857</ele>
        <time>2021-06-01T08:01:07.000Z</time>
      </trkpt>
      <trkpt lat="44.13477" lon="5.88401">
        <ele>856</ele>
        <time>2021-06-01T08:01:08.000Z</time>
      </trkpt>
      <trkpt lat="44.13477" lon="5.88403">
        <ele>856</ele>
        <time>2021-06-01T08:01:09.000Z</time>
      </trkpt>
      <trkpt lat="44.13476" lon="5.88404">
        <ele>856</ele>
        <time>2021-06-01T08:01:10.000Z</time>
      </trkpt>
      <trkpt lat="44.13476" lon="5.88406">
        <ele>856</ele>
        <time>2021-06-01T08:01:11.000Z</time>
      </trkpt>
      <trkpt lat="44.13475" lon="5.88407">
        <ele>856</ele>
        <time>2021-06-01T08:01:12.000Z</time>
      </trkpt>
      <trkpt lat="44.13475" lon="5.88409">
        <ele>856</ele>
        <time>2021-06-01T08:01:13.000Z</time>
      </trkpt>
      <trkpt lat="44.13474" lon="5.8841">
        <ele>856</ele>
        <time>2021-06-01T08:01:14.000Z</time>
      </trkpt>
      <trkpt lat="44.13474" lon="5.88411">
        <ele>856</ele>
        <time>2021-06-01T08:01:15.000Z</time>
      </trkpt>
      <trkpt lat="44.13474" lon="5.88412">
        <ele>856</ele>
        <time>2021-06-01T08:01:16.000Z</time>
      </trkpt>
      <trkpt lat="44.13473" lon="5.88413">
        <ele>856</ele>
        <time>2021-06-01T08:01:17.000Z</time>
      </trkpt>
      <trkpt lat="44.13473" lon="5.88415">
        <ele>856</ele>
        <time>2021-06-01T08:01:18.000Z</time>
      </trkpt>
      <trkpt lat="44.13472" lon="5.88416">
        <ele>856</ele>
        <time>2021-06-01T08:01:19.000Z</time>
      </trkpt>
      <trkpt lat="44.13472" lon="5.88417">
        <ele>856</ele>
        <time>2021-06-01T08:01:20.000Z</time>
      </trkpt>
      <trkpt lat="44.13471" lon="5.88417">
        <ele>856</ele>
        <time>2021-06-01T08:01:21.000Z</time>
      </trkpt>
      <trkpt lat="44.13471" lon="5.88418">
        <ele>856</ele>
        <time>2021-06-01T08:01:22.000Z</time>
      </trkpt>
      <trkpt lat="44.13471" lon="5.88418">
        <ele>856</ele>
        <time>2021-06-01T08:01:23.000Z</time>
      </trkpt>
      <trkpt lat="44.13471" lon="5.88418">
        <ele>856</ele>
        <time>2021-06-01T08:01:24.000Z</time>
      </trkpt>
      <trkpt lat="44.13471" lon="5.88419">
        <ele>856</ele>
        <time>2021-06-01T08:01:25.000Z</time>
      </trkpt>
      <trkpt lat="44.13471" lon="5.88419">
        <ele>856</ele>
        <time>2021-06-01T08:01:26.000Z</time>
      </trkpt>
      <trkpt lat="44.13471" lon="5.88419">
        <ele>856</ele>
        <time>2021-06-01T08:01:27.000Z</time>
      </trkpt>
      <trkpt lat="44.1347" lon="5.8842">
        <ele>856</ele>
        <time>2021-06-01T08:01:28.000Z</time>
      </trkpt>
      <trkpt lat="44.1347" lon="5.8842">
        <ele>856</ele>
        <time>2021-06-01T08:01:29.000Z</time>
      </trkpt>
      <trkpt lat="44.1347" lon="5.8842">
        <ele>856</ele>
        <time>2021-06-01T08:01:30.000Z</time>
      </trkpt>
      <trkpt lat="44.1347" lon="5.8842">
        <ele>856</ele>
        <time>2021-06-01T08:01:31.000Z</time>
      </trkpt>
      <trkpt lat="44.1347" lon="5.88421">
        <ele>856</ele>
        <time>2021-06-01T08:01:32.000Z</time>
      </trkpt>
      <trkpt lat="44.1347" lon="5.88421">
        <ele>856</ele>
        <time>2021-06-01T08:01:33.000Z</time>
      </trkpt>
      <trkpt lat="44.13469" lon="5.88422">
        <ele>856</ele>
        <time>2021-06-01T08:01:34.000Z</time>
      </trkpt>
      <trkpt lat="44.13469" lon="5.88421">
        <ele>856</ele>
        <time>2021-06-01T08:01:35.000Z</time>
      </trkpt>
      <trkpt lat="44.13469" lon="5.88421">
        <ele>856</ele>
        <time>2021-06-01T08:01:36.000Z</time>
      </trkpt>
      <trkpt lat="44.13469" lon="5.88421">
        <ele>856</ele>
        <time>2021-06-01T08:01:37.000Z</time>
      </trkpt>
      <trkpt lat="44.13468" lon="5.88421">
        <ele>856</ele>
        <time>2021-06-01T08:01:38.000Z</time>
      </trkpt>
      <trkpt lat="44.13467" lon="5.8842">
        <ele>857</ele>
        <time>2021-06-01T08:01:39.000Z</time>
      </trkpt>
      <trkpt lat="44.13467" lon="5.8842">
        <ele>857</ele>
        <time>2021-06-01T08:01:40.000Z</time>
      </trkpt>
      <trkpt lat="44.13467" lon="5.8842">
        <ele>857</ele>
        <time>2021-06-01T08:01:41.000Z</time>
      </trkpt>
      <trkpt lat="44.13466" lon="5.8842">
        <ele>857</ele>
        <time>2021-06-01T08:01:42.000Z</time>
      </trkpt>
      <trkpt lat="44.13466" lon="5.8842">
        <ele>857</ele>
        <time>2021-06-01T08:01:43.000Z</time>
      </trkpt>
      <trkpt lat="44.13466" lon="5.8842">
        <ele>857</ele>
        <time>2021-06-01T08:01:44.000Z</time>
      </trkpt>
      <trkpt lat="44.13466" lon="5.8842">
        <ele>857</ele>
        <time>2021-06-01T08:01:45.000Z</time>
      </trkpt>
      <trkpt lat="44.13466" lon="5.88421">
        <ele>857</ele>
        <time>2021-06-01T08:01:46.000Z</time>
      </trkpt>
      <trkpt lat="44.13466" lon="5.88421">
        <ele>857</ele>
        <time>2021-06-01T08:01:47.000Z</time>
      </trkpt>
      <trkpt lat="44.13465" lon="5.88421">
        <ele>857</ele>
        <time>2021-06-01T08:01:48.000Z</time>
      </trkpt>
      <trkpt lat="44.13465" lon="5.88421">
        <ele>857</ele>
        <time>2021-06-01T08:01:49.000Z</time>
      </trkpt>
      <trkpt lat="44.13465" lon="5.88422">
        <ele>857</ele>
        <time>2021-06-01T08:01:50.000Z</time>
      </trkpt>
      <trkpt lat="44.13465" lon="5.88422">
        <ele>857</ele>
        <time>2021-06-01T08:01:51.000Z</time>
      </trkpt>
      <trkpt lat="44.13465" lon="5.88422">
        <ele>857</ele>
        <time>2021-06-01T08:01:52.000Z</time>
      </trkpt>
      <trkpt lat="44.13465" lon="5.88422">
        <ele>856</ele>
        <time>2021-06-01T08:01:53.000Z</time>
      </trkpt>
      <trkpt lat="44.13464" lon="5.88423">
        <ele>856</ele>
        <time>2021-06-01T08:01:54.000Z</time>
      </trkpt>
      <trkpt lat="44.13464" lon="5.88423">
        <ele>856</ele>
        <time>2021-06-01T08:01:55.000Z</time>
      </trkpt>
      <trkpt lat="44.13464" lon="5.88423">
        <ele>856</ele>
        <time>2021-06-01T08:01:56.000Z</time>
      </trkpt>
      <trkpt lat="44.13464" lon="5.88423">
        <ele>856</ele>
        <time>2021-06-01T08:01:57.000Z</time>
      </trkpt>
      <trkpt lat="44.13464" lon="5.88424">
        <ele>856</ele>
        <time>2021-06-01T08:01:58.000Z</time>
      </trkpt>
      <trkpt lat="44.13464" lon="5.88424">
        <ele>856</ele>
        <time>2021-06-01T08:01:59.000Z</time>
      </trkpt>
      <trkpt lat="44.13464" lon="5.88424">
        <ele>856</ele>
        <time>2021-06-01T08:02:00.000Z</time>
      </trkpt>
      <trkpt lat="44.13464" lon="5.88424">
        <ele>856</ele>
        <time>2021-06-01T08:02:01.000Z</time>
      </trkpt>
      <trkpt lat="44.13464" lon="5.88423">
        <ele>856</ele>
        <time>2021-06-01T08:02:02.000Z</time>
      </trkpt>
      <trkpt lat="44.13464" lon="5.88423">
        <ele>856</ele>
        <time>2021-06-01T08:02:03.000Z</time>
      </trkpt>
      <trkpt lat="44.13464" lon="5.88423">
        <ele>856</ele>
        <time>2021-06-01T08:02:04.000Z</time>
      </trkpt>
      <trkpt lat="44.13464" lon="5.88423">
        <ele>856</ele>
        <time>2021-06-01T08:02:05.000Z</time>
      </trkpt>
      <trkpt lat="44.13464" lon="5.88422">
        <ele>856</ele>
        <time>2021-06-01T08:02:06.000Z</time>
      </trkpt>
      <trkpt lat="44.13464" lon="5.88422">
        <ele>856</ele>
        <time>2021-06-01T08:02:07.000Z</time>
      </trkpt>
      <trkpt lat="44.13464" lon="5.88422">
        <ele>856</ele>
        <time>2021-06-01T08:02:08.000Z</time>
      </trkpt>
      <trkpt lat="44.13464" lon="5.88422">
        <ele>856</ele>
        <time>2021-06-01T08:02:09.000Z</time>
      </trkpt>
      <trkpt lat="44.13464" lon="5.88422">
        <ele>856</ele>
        <time>2021-06-01T08:02:10.000Z</time>
      </trkpt>
      <trkpt lat="44.13464" lon="5.88422">
        <ele>856</ele>
        <time>2021-06-01T08:02:11.000Z</time>
      </trkpt>
      <trkpt lat="44.13464" lon="5.88422">
        <ele>856</ele>
        <time>2021-06-01T08:02:12.000Z</time>
      </trkpt>
      <trkpt lat="44.13464" lon="5.88421">
        <ele>856</ele>
        <time>2021-06-01T08:02:13.000Z</time>
      </trkpt>
      <trkpt lat="44.13465" lon="5.88421">
        <ele>856</ele>
        <time>2021-06-01T08:02:14.000Z</time>
      </trkpt>
      <trkpt lat="44.13465" lon="5.88421">
        <ele>856</ele>
        <time>2021-06-01T08:02:15.000Z</time>
      </trkpt>
      <trkpt lat="44.13465" lon="5.88421">
        <ele>856</ele>
        <time>2021-06-01T08:02:16.000Z</time>
      </trkpt>
      <trkpt lat="44.13465" lon="5.88421">
        <ele>856</ele>
        <time>2021-06-01T08:02:17.000Z</time>
      </trkpt>
      <trkpt lat="44.13465" lon="5.88421">
        <ele>856</ele>
        <time>2021-06-01T08:02:18.000Z</time>
      </trkpt>
      <trkpt lat="44.13465" lon="5.88421">
        <ele>856</ele>
        <time>2021-06-01T08:02:19.000Z</time>
      </trkpt>
      <trkpt lat="44.13465" lon="5.88421">
        <ele>856</ele>
        <time>2021-06-01T08:02:20.000Z</time>
      </trkpt>
      <trkpt lat="44.13465" lon="5.8842">
        <ele>856</ele>
        <time>2021-06-01T08:02:21.000Z</time>
      </trkpt>
      <trkpt lat="44.13465" lon="5.8842">
        <ele>856</ele>
        <time>2021-06-01T08:02:22.000Z</time>
      </trkpt>
      <trkpt lat="44.13465" lon="5.8842">
        <ele>857</ele>
        <time>2021-06-01T08:02:23.000Z</time>
      </trkpt>
      <trkpt lat="44.13466" lon="5.8842">
        <ele>857</ele>
        <time>2021-06-01T08:02:24.000Z</time>
      </trkpt>
      <trkpt lat="44.13466" lon="5.8842">
        <ele>857</ele>
        <time>2021-06-01T08:02:25.000Z</time>
      </trkpt>
      <trkpt lat="44.13466" lon="5.8842">
        <ele>857</ele>
        <time>2021-06-01T08:02:26.000Z</time>
      </trkpt>
      <trkpt lat="44.13466" lon="5.88419">
        <ele>857</ele>
        <time>2021-06-01T08:02:27.000Z</time>
      </trkpt>
      <trkpt lat="44.13466" lon="5.88419">
        <ele>857</ele>
        <time>2021-06-01T08:02:28.000Z</time>
      </trkpt>
      <trkpt lat="44.13466" lon="5.88419">
        <ele>857</ele>
        <time>2021-06-01T08:02:29.000Z</time>
      </trkpt>
      <trkpt lat="44.13466" lon="5.88419">
        <ele>857</ele>
        <time>2021-06-01T08:02:30.000Z</time>
      </trkpt>
      <trkpt lat="44.13466" lon="5.88419">
        <ele>857</ele>
        <time>2021-06-01T08:02:31.000Z</time>
      </trkpt>
      <trkpt lat="44.13466" lon="5.88419">
        <ele>857</ele>
        <time>2021-06-01T08:02:32.000Z</time>
      </trkpt>
      <trkpt lat="44.13466" lon="5.88418">
        <ele>857</ele>
        <time>2021-06-01T08:02:33.000Z</time>
      </trkpt>
      <trkpt lat="44.13466" lon="5.88418">
        <ele>857</ele>
        <time>2021-06-01T08:02:34.000Z</time>
      </trkpt>
      <trkpt lat="44.13466" lon="5.88418">
        <ele>857</ele>
        <time>2021-06-01T08:02:35.000Z</time>
      </trkpt>
      <trkpt lat="44.13466" lon="5.88418">
        <ele>857</ele>
        <time>2021-06-01T08:02:36.000Z</time>
      </trkpt>
      <trkpt lat="44.13466" lon="5.88418">
        <ele>857</ele>
        <time>2021-06-01T08:02:37.000Z</time>
      </trkpt>
      <trkpt lat="44.13466" lon="5.88417">
        <ele>857</ele>
        <time>2021-06-01T08:02:38.000Z</time>
      </trkpt>
      <trkpt lat="44.13466" lon="5.88417">
        <ele>857</ele>
        <time>2021-06-01T08:02:39.000Z</time>
      </trkpt>
      <trkpt lat="44.13466" lon="5.88417">
        <ele>857</ele>
        <time>2021-06-01T08:02:40.000Z</time>
      </trkpt>
      <trkpt lat="44.13466" lon="5.88417">
        <ele>857</ele>
        <time>2021-06-01T08:02:41.000Z</time>
      </trkpt>
      <trkpt lat="44.13466" lon="5.88417">
        <ele>857</ele>
        <time>2021-06-01T08:02:42.000Z</time>
      </trkpt>
      <trkpt lat="44.13466" lon="5.88417">
        <ele>857</ele>
        <time>2021-06-01T08:02:43.000Z</time>
      </trkpt>
      <trkpt lat="44.13466" lon="5.88417">
        <ele>857</ele>
        <time>2021-06-01T08:02:44.000Z</time>
      </trkpt>
      <trkpt lat="44.13466" lon="5.88417">
        <ele>857</ele>
        <time>2021-06-01T08:02:45.000Z</time>
      </trkpt>
      <trkpt lat="44.13466" lon="5.88417">
        <ele>857</ele>
        <time>2021-06-01T08:02:46.000Z</time>
      </trkpt>
      <trkpt lat="44.13466" lon="5.88417">
        <ele>857</ele>
        <time>2021-06-01T08:02:47.000Z</time>
      </trkpt>
      <trkpt lat="44.13465" lon="5.88417">
        <ele>857</ele>
        <time>2021-06-01T08:02:48.000Z</time>
      </trkpt>
      <trkpt lat="44.13465" lon="5.88417">
        <ele>857</ele>
        <time>2021-06-01T08:02:49.000Z</time>
      </trkpt>
      <trkpt lat="44.13465" lon="5.88417">
        <ele>857</ele>
        <time>2021-06-01T08:02:50.000Z</time>
      </trkpt>
      <trkpt lat="44.13465" lon="5.88417">
        <ele>857</ele>
        <time>2021-06-01T08:02:51.000Z</time>
      </trkpt>
      <trkpt lat="44.13465" lon="5.88417">
        <ele>857</ele>
        <time>2021-06-01T08:02:52.000Z</time>
      </trkpt>
      <trkpt lat="44.13465" lon="5.88417">
        <ele>857</ele>
        <time>2021-06-01T08:02:53.000Z</time>
      </trkpt>
      <trkpt lat="44.13465" lon="5.88416">
        <ele>857</ele>
        <time>2021-06-01T08:02:54.000Z</time>
      </trkpt>
      <trkpt lat="44.13465" lon="5.88415">
        <ele>857</ele>
        <time>2021-06-01T08:02:55.000Z</time>
      </trkpt>
      <trkpt lat="44.13465" lon="5.88414">
        <ele>857</ele>
        <time>2021-06-01T08:02:56.000Z</time>
      </trkpt>
      <trkpt lat="44.13465" lon="5.88414">
        <ele>857</ele>
        <time>2021-06-01T08:02:57.000Z</time>
      </trkpt>
      <trkpt lat="44.13465" lon="5.88414">
        <ele>857</ele>
        <time>2021-06-01T08:02:58.000Z</time>
      </trkpt>
      <trkpt lat="44.13464" lon="5.88413">
        <ele>857</ele>
        <time>2021-06-01T08:02:59.000Z</time>
      </trkpt>
      <trkpt lat="44.13464" lon="5.88413">
        <ele>858</ele>
        <time>2021-06-01T08:03:00.000Z</time>
      </trkpt>
      <trkpt lat="44.13464" lon="5.88413">
        <ele>858</ele>
        <time>2021-06-01T08:03:01.000Z</time>
      </trkpt>
      <trkpt lat="44.13463" lon="5.88412">
        <ele>858</ele>
        <time>2021-06-01T08:03:02.000Z</time>
      </trkpt>
      <trkpt lat="44.13463" lon="5.88412">
        <ele>858</ele>
        <time>2021-06-01T08:03:03.000Z</time>
      </trkpt>
      <trkpt lat="44.13462" lon="5.88411">
        <ele>858</ele>
        <time>2021-06-01T08:03:04.000Z</time>
      </trkpt>
      <trkpt lat="44.13462" lon="5.8841">
        <ele>858</ele>
        <time>2021-06-01T08:03:05.000Z</time>
      </trkpt>
      <trkpt lat="44.13462" lon="5.8841">
        <ele>858</ele>
        <time>2021-06-01T08:03:06.000Z</time>
      </trkpt>
      <trkpt lat="44.13461" lon="5.88409">
        <ele>858</ele>
        <time>2021-06-01T08:03:07.000Z</time>
      </trkpt>
      <trkpt lat="44.13461" lon="5.88409">
        <ele>858</ele>
        <time>2021-06-01T08:03:08.000Z</time>
      </trkpt>
      <trkpt lat="44.1346" lon="5.88408">
        <ele>858</ele>
        <time>2021-06-01T08:03:09.000Z</time>
      </trkpt>
      <trkpt lat="44.1346" lon="5.88408">
        <ele>858</ele>
        <time>2021-06-01T08:03:10.000Z</time>
      </trkpt>
      <trkpt lat="44.13459" lon="5.88407">
        <ele>858</ele>
        <time>2021-06-01T08:03:11.000Z</time>
      </trkpt>
      <trkpt lat="44.13459" lon="5.88406">
        <ele>858</ele>
        <time>2021-06-01T08:03:12.000Z</time>
      </trkpt>
      <trkpt lat="44.13458" lon="5.88406">
        <ele>858</ele>
        <time>2021-06-01T08:03:13.000Z</time>
      </trkpt>
      <trkpt lat="44.13458" lon="5.88405">
        <ele>858</ele>
        <time>2021-06-01T08:03:14.000Z</time>
      </trkpt>
      <trkpt lat="44.13457" lon="5.88404">
        <ele>858</ele>
        <time>2021-06-01T08:03:15.000Z</time>
      </trkpt>
      <trkpt lat="44.13457" lon="5.88404">
        <ele>858</ele>
        <time>2021-06-01T08:03:16.000Z</time>
      </trkpt>
      <trkpt lat="44.13457" lon="5.88403">
        <ele>858</ele>
        <time>2021-06-01T08:03:17.000Z</time>
      </trkpt>
      <trkpt lat="44.13456" lon="5.88402">
        <ele>858</ele>
        <time>2021-06-01T08:03:18.000Z</time>
      </trkpt>
      <trkpt lat="44.13456" lon="5.88402">
        <ele>858</ele>
        <time>2021-06-01T08:03:19.000Z</time>
      </trkpt>
      <trkpt lat="44.13455" lon="5.88401">
        <ele>858</ele>
        <time>2021-06-01T08:03:20.000Z</time>
      </trkpt>
      <trkpt lat="44.13455" lon="5.88401">
        <ele>858</ele>
        <time>2021-06-01T08:03:21.000Z</time>
      </trkpt>
      <trkpt lat="44.13455" lon="5.884">
        <ele>858</ele>
        <time>2021-06-01T08:03:22.000Z</time>
      </trkpt>
      <trkpt lat="44.13455" lon="5.88399">
        <ele>858</ele>
        <time>2021-06-01T08:03:23.000Z</time>
      </trkpt>
      <trkpt lat="44.13454" lon="5.88399">
        <ele>858</ele>
        <time>2021-06-01T08:03:24.000Z</time>
      </trkpt>
      <trkpt lat="44.13454" lon="5.88399">
        <ele>858</ele>
        <time>2021-06-01T08:03:25.000Z</time>
      </trkpt>
      <trkpt lat="44.13454" lon="5.88399">
        <ele>858</ele>
        <time>2021-06-01T08:03:26.000Z</time>
      </trkpt>
      <trkpt lat="44.13453" lon="5.88399">
        <ele>858</ele>
        <time>2021-06-01T08:03:27.000Z</time>
      </trkpt>
      <trkpt lat="44.13453" lon="5.88398">
        <ele>858</ele>
        <time>2021-06-01T08:03:28.000Z</time>
      </trkpt>
      <trkpt lat="44.13452" lon="5.88398">
        <ele>858</ele>
        <time>2021-06-01T08:03:29.000Z</time>
      </trkpt>
      <trkpt lat="44.13451" lon="5.88397">
        <ele>858</ele>
        <time>2021-06-01T08:03:30.000Z</time>
      </trkpt>
      <trkpt lat="44.1345" lon="5.88396">
        <ele>858</ele>
        <time>2021-06-01T08:03:31.000Z</time>
      </trkpt>
      <trkpt lat="44.13449" lon="5.88395">
        <ele>858</ele>
        <time>2021-06-01T08:03:32.000Z</time>
      </trkpt>
      <trkpt lat="44.13448" lon="5.88395">
        <ele>858</ele>
        <time>2021-06-01T08:03:33.000Z</time>
      </trkpt>
      <trkpt lat="44.13447" lon="5.88394">
        <ele>858</ele>
        <time>2021-06-01T08:03:34.000Z</time>
      </trkpt>
      <trkpt lat="44.13446" lon="5.88394">
        <ele>858</ele>
        <time>2021-06-01T08:03:35.000Z</time>
      </trkpt>
      <trkpt lat="44.13445" lon="5.88394">
        <ele>858</ele>
        <time>2021-06-01T08:03:36.000Z</time>
      </trkpt>
      <trkpt lat="44.13444" lon="5.88394">
        <ele>858</ele>
        <time>2021-06-01T08:03:37.000Z</time>
      </trkpt>
      <trkpt lat="44.13443" lon="5.88395">
        <ele>858</ele>
        <time>2021-06-01T08:03:38.000Z</time>
      </trkpt>
      <trkpt lat="44.13442" lon="5.88395">
        <ele>858</ele>
        <time>2021-06-01T08:03:39.000Z</time>
      </trkpt>
      <trkpt lat="44.13441" lon="5.88396">
        <ele>858</ele>
        <time>2021-06-01T08:03:40.000Z</time>
      </trkpt>
      <trkpt lat="44.1344" lon="5.88396">
        <ele>858</ele>
        <time>2021-06-01T08:03:41.000Z</time>
      </trkpt>
      <trkpt lat="44.13439" lon="5.88396">
        <ele>858</ele>
        <time>2021-06-01T08:03:42.000Z</time>
      </trkpt>
      <trkpt lat="44.13438" lon="5.88396">
        <ele>858</ele>
        <time>2021-06-01T08:03:43.000Z</time>
      </trkpt>
      <trkpt lat="44.13438" lon="5.88395">
        <ele>858</ele>
        <time>2021-06-01T08:03:44.000Z</time>
      </trkpt>
      <trkpt lat="44.13437" lon="5.88395">
        <ele>858</ele>
        <time>2021-06-01T08:03:45.000Z</time>
      </trkpt>
      <trkpt lat="44.13437" lon="5.88394">
        <ele>858</ele>
        <time>2021-06-01T08:03:46.000Z</time>
      </trkpt>
      <trkpt lat="44.13437" lon="5.88394">
        <ele>858</ele>
        <time>2021-06-01T08:03:47.000Z</time>
      </trkpt>
      <trkpt lat="44.13436" lon="5.88394">
        <ele>858</ele>
        <time>2021-06-01T08:03:48.000Z</time>
      </trkpt>
      <trkpt lat="44.13436" lon="5.88393">
        <ele>858</ele>
        <time>2021-06-01T08:03:49.000Z</time>
      </trkpt>
      <trkpt lat="44.13436" lon="5.88392">
        <ele>858</ele>
        <time>2021-06-01T08:03:50.000Z</time>
      </trkpt>
      <trkpt lat="44.13435" lon="5.88392">
        <ele>857</ele>
        <time>2021-06-01T08:03:51.000Z</time>
      </trkpt>
      <trkpt lat="44.13435" lon="5.88391">
        <ele>857</ele>
        <time>2021-06-01T08:03:52.000Z</time>
      </trkpt>
      <trkpt lat="44.13435" lon="5.88391">
        <ele>857</ele>
        <time>2021-06-01T08:03:53.000Z</time>
      </trkpt>
      <trkpt lat="44.13435" lon="5.88391">
        <ele>857</ele>
        <time>2021-06-01T08:03:54.000Z</time>
      </trkpt>
      <trkpt lat="44.13434" lon="5.8839">
        <ele>857</ele>
        <time>2021-06-01T08:03:55.000Z</time>
      </trkpt>
      <trkpt lat="44.13434" lon="5.8839">
        <ele>857</ele>
        <time>2021-06-01T08:03:56.000Z</time>
      </trkpt>
      <trkpt lat="44.13434" lon="5.88389">
        <ele>857</ele>
        <time>2021-06-01T08:03:57.000Z</time>
      </trkpt>
      <trkpt lat="44.13433" lon="5.88389">
        <ele>857</ele>
        <time>2021-06-01T08:03:58.000Z</time>
      </trkpt>
      <trkpt lat="44.13433" lon="5.88389">
        <ele>857</ele>
        <time>2021-06-01T08:03:59.000Z</time>
      </trkpt>
      <trkpt lat="44.13433" lon="5.88389">
        <ele>857</ele>
        <time>2021-06-01T08:04:01.000Z</time>
      </trkpt>
      <trkpt lat="44.13433" lon="5.88389">
        <ele>857</ele>
        <time>2021-06-01T08:04:02.000Z</time>
      </trkpt>
      <trkpt lat="44.13433" lon="5.88389">
        <ele>856</ele>
        <time>2021-06-01T08:04:03.000Z</time>
      </trkpt>
      <trkpt lat="44.13433" lon="5.88389">
        <ele>856</ele>
        <time>2021-06-01T08:04:04.000Z</time>
      </trkpt>
      <trkpt lat="44.13433" lon="5.8839">
        <ele>856</ele>
        <time>2021-06-01T08:04:05.000Z</time>
      </trkpt>
      <trkpt lat="44.13433" lon="5.8839">
        <ele>856</ele>
        <time>2021-06-01T08:04:06.000Z</time>
      </trkpt>
      <trkpt lat="44.13433" lon="5.8839">
        <ele>855</ele>
        <time>2021-06-01T08:04:07.000Z</time>
      </trkpt>
      <trkpt lat="44.13433" lon="5.8839">
        <ele>855</ele>
        <time>2021-06-01T08:04:08.000Z</time>
      </trkpt>
      <trkpt lat="44.13432" lon="5.8839">
        <ele>855</ele>
        <time>2021-06-01T08:04:09.000Z</time>
      </trkpt>
      <trkpt lat="44.13432" lon="5.88389">
        <ele>854</ele>
        <time>2021-06-01T08:04:10.000Z</time>
      </trkpt>
      <trkpt lat="44.13431" lon="5.88389">
        <ele>854</ele>
        <time>2021-06-01T08:04:11.000Z</time>
      </trkpt>
      <trkpt lat="44.1343" lon="5.88389">
        <ele>854</ele>
        <time>2021-06-01T08:04:12.000Z</time>
      </trkpt>
      <trkpt lat="44.1343" lon="5.88388">
        <ele>853</ele>
        <time>2021-06-01T08:04:13.000Z</time>
      </trkpt>
      <trkpt lat="44.13429" lon="5.88388">
        <ele>853</ele>
        <time>2021-06-01T08:04:14.000Z</time>
      </trkpt>
      <trkpt lat="44.13428" lon="5.88388">
        <ele>853</ele>
        <time>2021-06-01T08:04:15.000Z</time>
      </trkpt>
      <trkpt lat="44.13428" lon="5.88388">
        <ele>853</ele>
        <time>2021-06-01T08:04:16.000Z</time>
      </trkpt>
      <trkpt lat="44.13427" lon="5.88387">
        <ele>853</ele>
        <time>2021-06-01T08:04:17.000Z</time>
      </trkpt>
      <trkpt lat="44.13427" lon="5.88387">
        <ele>853</ele>
        <time>2021-06-01T08:04:18.000Z</time>
      </trkpt>
      <trkpt lat="44.13426" lon="5.88386">
        <ele>853</ele>
        <time>2021-06-01T08:04:19.000Z</time>
      </trkpt>
      <trkpt lat="44.13426" lon="5.88386">
        <ele>853</ele>
        <time>2021-06-01T08:04:20.000Z</time>
      </trkpt>
      <trkpt lat="44.13425" lon="5.88386">
        <ele>853</ele>
        <time>2021-06-01T08:04:21.000Z</time>
      </trkpt>
      <trkpt lat="44.13425" lon="5.88386">
        <ele>853</ele>
        <time>2021-06-01T08:04:22.000Z</time>
      </trkpt>
      <trkpt lat="44.13424" lon="5.88386">
        <ele>853</ele>
        <time>2021-06-01T08:04:23.000Z</time>
      </trkpt>
      <trkpt lat="44.13424" lon="5.88386">
        <ele>853</ele>
        <time>2021-06-01T08:04:24.000Z</time>
      </trkpt>
      <trkpt lat="44.13423" lon="5.88386">
        <ele>853</ele>
        <time>2021-06-01T08:04:25.000Z</time>
      </trkpt>
      <trkpt lat="44.13423" lon="5.88386">
        <ele>854</ele>
        <time>2021-06-01T08:04:30.000Z</time>
      </trkpt>
      <trkpt lat="44.13423" lon="5.88386">
        <ele>854</ele>
        <time>2021-06-01T08:04:31.000Z</time>
      </trkpt>
      <trkpt lat="44.13421" lon="5.88387">
        <ele>854</ele>
        <time>2021-06-01T08:04:32.000Z</time>
      </trkpt>
      <trkpt lat="44.13421" lon="5.88388">
        <ele>854</ele>
        <time>2021-06-01T08:04:33.000Z</time>
      </trkpt>
      <trkpt lat="44.13421" lon="5.88388">
        <ele>854</ele>
        <time>2021-06-01T08:04:34.000Z</time>
      </trkpt>
      <trkpt lat="44.13421" lon="5.88389">
        <ele>854</ele>
        <time>2021-06-01T08:04:35.000Z</time>
      </trkpt>
      <trkpt lat="44.13421" lon="5.88389">
        <ele>854</ele>
        <time>2021-06-01T08:04:36.000Z</time>
      </trkpt>
      <trkpt lat="44.1342" lon="5.88389">
        <ele>854</ele>
        <time>2021-06-01T08:04:37.000Z</time>
      </trkpt>
      <trkpt lat="44.13419" lon="5.88388">
        <ele>854</ele>
        <time>2021-06-01T08:04:38.000Z</time>
      </trkpt>
      <trkpt lat="44.13418" lon="5.88388">
        <ele>854</ele>
        <time>2021-06-01T08:04:39.000Z</time>
      </trkpt>
      <trkpt lat="44.13418" lon="5.88387">
        <ele>854</ele>
        <time>2021-06-01T08:04:40.000Z</time>
      </trkpt>
      <trkpt lat="44.13417" lon="5.88386">
        <ele>854</ele>
        <time>2021-06-01T08:04:41.000Z</time>
      </trkpt>
      <trkpt lat="44.13416" lon="5.88385">
        <ele>854</ele>
        <time>2021-06-01T08:04:42.000Z</time>
      </trkpt>
      <trkpt lat="44.13416" lon="5.88384">
        <ele>854</ele>
        <time>2021-06-01T08:04:43.000Z</time>
      </trkpt>
      <trkpt lat="44.13415" lon="5.88384">
        <ele>854</ele>
        <time>2021-06-01T08:04:44.000Z</time>
      </trkpt>
      <trkpt lat="44.13415" lon="5.88384">
        <ele>855</ele>
        <time>2021-06-01T08:04:45.000Z</time>
      </trkpt>
      <trkpt lat="44.13414" lon="5.88384">
        <ele>855</ele>
        <time>2021-06-01T08:04:46.000Z</time>
      </trkpt>
      <trkpt lat="44.13414" lon="5.88384">
        <ele>855</ele>
        <time>2021-06-01T08:04:47.000Z</time>
      </trkpt>
      <trkpt lat="44.13413" lon="5.88384">
        <ele>855</ele>
        <time>2021-06-01T08:04:48.000Z</time>
      </trkpt>
      <trkpt lat="44.13412" lon="5.88384">
        <ele>855</ele>
        <time>2021-06-01T08:04:49.000Z</time>
      </trkpt>
      <trkpt lat="44.13412" lon="5.88384">
        <ele>855</ele>
        <time>2021-06-01T08:04:50.000Z</time>
      </trkpt>
      <trkpt lat="44.13411" lon="5.88384">
        <ele>856</ele>
        <time>2021-06-01T08:04:51.000Z</time>
      </trkpt>
      <trkpt lat="44.1341" lon="5.88384">
        <ele>856</ele>
        <time>2021-06-01T08:04:52.000Z</time>
      </trkpt>
      <trkpt lat="44.1341" lon="5.88384">
        <ele>856</ele>
        <time>2021-06-01T08:04:53.000Z</time>
      </trkpt>
      <trkpt lat="44.13409" lon="5.88384">
        <ele>856</ele>
        <time>2021-06-01T08:04:54.000Z</time>
      </trkpt>
      <trkpt lat="44.13408" lon="5.88384">
        <ele>856</ele>
        <time>2021-06-01T08:04:55.000Z</time>
      </trkpt>
      <trkpt lat="44.13408" lon="5.88384">
        <ele>864</ele>
        <time>2021-06-01T08:06:05.000Z</time>
      </trkpt>
      <trkpt lat="44.13408" lon="5.88384">
        <ele>861</ele>
        <time>2021-06-01T08:06:10.000Z</time>
      </trkpt>
      <trkpt lat="44.13408" lon="5.88384">
        <ele>861</ele>
        <time>2021-06-01T08:06:11.000Z</time>
      </trkpt>
      <trkpt lat="44.13366" lon="5.88365">
        <ele>861</ele>
        <time>2021-06-01T08:06:12.000Z</time>
      </trkpt>
      <trkpt lat="44.13366" lon="5.88365">
        <ele>861</ele>
        <time>2021-06-01T08:06:15.000Z</time>
      </trkpt>
      <trkpt lat="44.13366" lon="5.88365">
        <ele>861</ele>
        <time>2021-06-01T08:06:16.000Z</time>
      </trkpt>
      <trkpt lat="44.13365" lon="5.88355">
        <ele>861</ele>
        <time>2021-06-01T08:06:17.000Z</time>
      </trkpt>
      <trkpt lat="44.13364" lon="5.88352">
        <ele>861</ele>
        <time>2021-06-01T08:06:18.000Z</time>
      </trkpt>
      <trkpt lat="44.13364" lon="5.8835">
        <ele>862</ele>
        <time>2021-06-01T08:06:19.000Z</time>
      </trkpt>
      <trkpt lat="44.13364" lon="5.88349">
        <ele>862</ele>
        <time>2021-06-01T08:06:20.000Z</time>
      </trkpt>
      <trkpt lat="44.13364" lon="5.88347">
        <ele>862</ele>
        <time>2021-06-01T08:06:21.000Z</time>
      </trkpt>
      <trkpt lat="44.13364" lon="5.88346">
        <ele>862</ele>
        <time>2021-06-01T08:06:22.000Z</time>
      </trkpt>
      <trkpt lat="44.13364" lon="5.88346">
        <ele>862</ele>
        <time>2021-06-01T08:06:23.000Z</time>
      </trkpt>
      <trkpt lat="44.13364" lon="5.88345">
        <ele>863</ele>
        <time>2021-06-01T08:06:24.000Z</time>
      </trkpt>
      <trkpt lat="44.13365" lon="5.88344">
        <ele>863</ele>
        <time>2021-06-01T08:06:25.000Z</time>
      </trkpt>
      <trkpt lat="44.13365" lon="5.88344">
        <ele>863</ele>
        <time>2021-06-01T08:06:26.000Z</time>
      </trkpt>
      <trkpt lat="44.13365" lon="5.88343">
        <ele>862</ele>
        <time>2021-06-01T08:06:27.000Z</time>
      </trkpt>
      <trkpt lat="44.13365" lon="5.88343">
        <ele>862</ele>
        <time>2021-06-01T08:06:28.000Z</time>
      </trkpt>
      <trkpt lat="44.13365" lon="5.88343">
        <ele>862</ele>
        <time>2021-06-01T08:06:29.000Z</time>
      </trkpt>
      <trkpt lat="44.13365" lon="5.88343">
        <ele>862</ele>
        <time>2021-06-01T08:06:30.000Z</time>
      </trkpt>
      <trkpt lat="44.13365" lon="5.88343">
        <ele>861</ele>
        <time>2021-06-01T08:06:31.000Z</time>
      </trkpt>
      <trkpt lat="44.13365" lon="5.88343">
        <ele>860</ele>
        <time>2021-06-01T08:06:32.000Z</time>
      </trkpt>
      <trkpt lat="44.13364" lon="5.88343">
        <ele>860</ele>
        <time>2021-06-01T08:06:33.000Z</time>
      </trkpt>
      <trkpt lat="44.13364" lon="5.88344">
        <ele>859</ele>
        <time>2021-06-01T08:06:34.000Z</time>
      </trkpt>
      <trkpt lat="44.13364" lon="5.88344">
        <ele>859</ele>
        <time>2021-06-01T08:06:35.000Z</time>
      </trkpt>
      <trkpt lat="44.13363" lon="5.88345">
        <ele>858</ele>
        <time>2021-06-01T08:06:36.000Z</time>
      </trkpt>
      <trkpt lat="44.13363" lon="5.88345">
        <ele>858</ele>
        <time>2021-06-01T08:06:37.000Z</time>
      </trkpt>
      <trkpt lat="44.13362" lon="5.88345">
        <ele>857</ele>
        <time>2021-06-01T08:06:38.000Z</time>
      </trkpt>
      <trkpt lat="44.13362" lon="5.88346">
        <ele>857</ele>
        <time>2021-06-01T08:06:39.000Z</time>
      </trkpt>
      <trkpt lat="44.13362" lon="5.88347">
        <ele>856</ele>
        <time>2021-06-01T08:06:40.000Z</time>
      </trkpt>
      <trkpt lat="44.13361" lon="5.88347">
        <ele>856</ele>
        <time>2021-06-01T08:06:41.000Z</time>
      </trkpt>
      <trkpt lat="44.13361" lon="5.88347">
        <ele>856</ele>
        <time>2021-06-01T08:06:42.000Z</time>
      </trkpt>
      <trkpt lat="44.13361" lon="5.88347">
        <ele>856</ele>
        <time>2021-06-01T08:06:43.000Z</time>
      </trkpt>
      <trkpt lat="44.13361" lon="5.88348">
        <ele>856</ele>
        <time>2021-06-01T08:06:44.000Z</time>
      </trkpt>
      <trkpt lat="44.13361" lon="5.88348">
        <ele>856</ele>
        <time>2021-06-01T08:06:45.000Z</time>
      </trkpt>
      <trkpt lat="44.13361" lon="5.88348">
        <ele>856</ele>
        <time>2021-06-01T08:06:46.000Z</time>
      </trkpt>
      <trkpt lat="44.13361" lon="5.88349">
        <ele>856</ele>
        <time>2021-06-01T08:06:47.000Z</time>
      </trkpt>
      <trkpt lat="44.1336" lon="5.88349">
        <ele>856</ele>
        <time>2021-06-01T08:06:48.000Z</time>
      </trkpt>
      <trkpt lat="44.1336" lon="5.88349">
        <ele>856</ele>
        <time>2021-06-01T08:06:49.000Z</time>
      </trkpt>
      <trkpt lat="44.1336" lon="5.88349">
        <ele>856</ele>
        <time>2021-06-01T08:06:50.000Z</time>
      </trkpt>
      <trkpt lat="44.13359" lon="5.88349">
        <ele>857</ele>
        <time>2021-06-01T08:06:51.000Z</time>
      </trkpt>
      <trkpt lat="44.13359" lon="5.88349">
        <ele>857</ele>
        <time>2021-06-01T08:06:54.000Z</time>
      </trkpt>
      <trkpt lat="44.13359" lon="5.88349">
        <ele>857</ele>
        <time>2021-06-01T08:06:55.000Z</time>
      </trkpt>
      <trkpt lat="44.13358" lon="5.88348">
        <ele>857</ele>
        <time>2021-06-01T08:06:56.000Z</time>
      </trkpt>
      <trkpt lat="44.13358" lon="5.88348">
        <ele>857</ele>
        <time>2021-06-01T08:06:57.000Z</time>
      </trkpt>
      <trkpt lat="44.13358" lon="5.88348">
        <ele>857</ele>
        <time>2021-06-01T08:06:58.000Z</time>
      </trkpt>
      <trkpt lat="44.13358" lon="5.88348">
        <ele>857</ele>
        <time>2021-06-01T08:06:59.000Z</time>
      </trkpt>
      <trkpt lat="44.13358" lon="5.88348">
        <ele>857</ele>
        <time>2021-06-01T08:07:00.000Z</time>
      </trkpt>
      <trkpt lat="44.13357" lon="5.88347">
        <ele>856</ele>
        <time>2021-06-01T08:07:01.000Z</time>
      </trkpt>
      <trkpt lat="44.13357" lon="5.88347">
        <ele>856</ele>
        <time>2021-06-01T08:07:02.000Z</time>
      </trkpt>
      <trkpt lat="44.13357" lon="5.88347">
        <ele>856</ele>
        <time>2021-06-01T08:07:03.000Z</time>
      </trkpt>
      <trkpt lat="44.13356" lon="5.88347">
        <ele>856</ele>
        <time>2021-06-01T08:07:04.000Z</time>
      </trkpt>
      <trkpt lat="44.13356" lon="5.88348">
        <ele>855</ele>
        <time>2021-06-01T08:07:05.000Z</time>
      </trkpt>
      <trkpt lat="44.13355" lon="5.88348">
        <ele>855</ele>
        <time>2021-06-01T08:07:06.000Z</time>
      </trkpt>
      <trkpt lat="44.13355" lon="5.88348">
        <ele>854</ele>
        <time>2021-06-01T08:07:07.000Z</time>
      </trkpt>
      <trkpt lat="44.13355" lon="5.88349">
        <ele>854</ele>
        <time>2021-06-01T08:07:08.000Z</time>
      </trkpt>
      <trkpt lat="44.13354" lon="5.8835">
        <ele>853</ele>
        <time>2021-06-01T08:07:09.000Z</time>
      </trkpt>
      <trkpt lat="44.13355" lon="5.8835">
        <ele>853</ele>
        <time>2021-06-01T08:07:10.000Z</time>
      </trkpt>
      <trkpt lat="44.13355" lon="5.88351">
        <ele>852</ele>
        <time>2021-06-01T08:07:11.000Z</time>
      </trkpt>
      <trkpt lat="44.13355" lon="5.88352">
        <ele>852</ele>
        <time>2021-06-01T08:07:12.000Z</time>
      </trkpt>
      <trkpt lat="44.13355" lon="5.88352">
        <ele>851</ele>
        <time>2021-06-01T08:07:13.000Z</time>
      </trkpt>
      <trkpt lat="44.13355" lon="5.88353">
        <ele>851</ele>
        <time>2021-06-01T08:07:14.000Z</time>
      </trkpt>
      <trkpt lat="44.13355" lon="5.88354">
        <ele>851</ele>
        <time>2021-06-01T08:07:15.000Z</time>
      </trkpt>
      <trkpt lat="44.13354" lon="5.88355">
        <ele>851</ele>
        <time>2021-06-01T08:07:16.000Z</time>
      </trkpt>
      <trkpt lat="44.13354" lon="5.88356">
        <ele>851</ele>
        <time>2021-06-01T08:07:17.000Z</time>
      </trkpt>
      <trkpt lat="44.13354" lon="5.88357">
        <ele>851</ele>
        <time>2021-06-01T08:07:18.000Z</time>
      </trkpt>
      <trkpt lat="44.13353" lon="5.88357">
        <ele>850</ele>
        <time>2021-06-01T08:07:19.000Z</time>
      </trkpt>
      <trkpt lat="44.13353" lon="5.88358">
        <ele>850</ele>
        <time>2021-06-01T08:07:20.000Z</time>
      </trkpt>
      <trkpt lat="44.13352" lon="5.88358">
        <ele>850</ele>
        <time>2021-06-01T08:07:21.000Z</time>
      </trkpt>
      <trkpt lat="44.13352" lon="5.88359">
        <ele>850</ele>
        <time>2021-06-01T08:07:22.000Z</time>
      </trkpt>
      <trkpt lat="44.13352" lon="5.8836">
        <ele>850</ele>
        <time>2021-06-01T08:07:23.000Z</time>
      </trkpt>
      <trkpt lat="44.13351" lon="5.8836">
        <ele>850</ele>
        <time>2021-06-01T08:07:24.000Z</time>
      </trkpt>
      <trkpt lat="44.13351" lon="5.88361">
        <ele>850</ele>
        <time>2021-06-01T08:07:25.000Z</time>
      </trkpt>
      <trkpt lat="44.13351" lon="5.88361">
        <ele>850</ele>
        <time>2021-06-01T08:07:26.000Z</time>
      </trkpt>
      <trkpt lat="44.13351" lon="5.88361">
        <ele>850</ele>
        <time>2021-06-01T08:07:27.000Z</time>
      </trkpt>
      <trkpt lat="44.13352" lon="5.88361">
        <ele>850</ele>
        <time>2021-06-01T08:07:28.000Z</time>
      </trkpt>
      <trkpt lat="44.13352" lon="5.88361">
        <ele>850</ele>
        <time>2021-06-01T08:07:29.000Z</time>
      </trkpt>
      <trkpt lat="44.13352" lon="5.88361">
        <ele>850</ele>
        <time>2021-06-01T08:07:30.000Z</time>
      </trkpt>
      <trkpt lat="44.13352" lon="5.88361">
        <ele>851</ele>
        <time>2021-06-01T08:07:31.000Z</time>
      </trkpt>
      <trkpt lat="44.13352" lon="5.8836">
        <ele>851</ele>
        <time>2021-06-01T08:07:32.000Z</time>
      </trkpt>
      <trkpt lat="44.13352" lon="5.8836">
        <ele>851</ele>
        <time>2021-06-01T08:07:33.000Z</time>
      </trkpt>
      <trkpt lat="44.13352" lon="5.8836">
        <ele>851</ele>
        <time>2021-06-01T08:07:34.000Z</time>
      </trkpt>
      <trkpt lat="44.13352" lon="5.8836">
        <ele>852</ele>
        <time>2021-06-01T08:07:35.000Z</time>
      </trkpt>
      <trkpt lat="44.13353" lon="5.8836">
        <ele>852</ele>
        <time>2021-06-01T08:07:36.000Z</time>
      </trkpt>
      <trkpt lat="44.13353" lon="5.8836">
        <ele>852</ele>
        <time>2021-06-01T08:07:37.000Z</time>
      </trkpt>
      <trkpt lat="44.13353" lon="5.8836">
        <ele>853</ele>
        <time>2021-06-01T08:07:38.000Z</time>
      </trkpt>
      <trkpt lat="44.13353" lon="5.8836">
        <ele>853</ele>
        <time>2021-06-01T08:07:39.000Z</time>
      </trkpt>
      <trkpt lat="44.13353" lon="5.8836">
        <ele>853</ele>
        <time>2021-06-01T08:07:40.000Z</time>
      </trkpt>
      <trkpt lat="44.13353" lon="5.8836">
        <ele>854</ele>
        <time>2021-06-01T08:07:41.000Z</time>
      </trkpt>
      <trkpt lat="44.13353" lon="5.8836">
        <ele>854</ele>
        <time>2021-06-01T08:07:42.000Z</time>
      </trkpt>
      <trkpt lat="44.13354" lon="5.8836">
        <ele>854</ele>
        <time>2021-06-01T08:07:43.000Z</time>
      </trkpt>
      <trkpt lat="44.13354" lon="5.8836">
        <ele>855</ele>
        <time>2021-06-01T08:07:44.000Z</time>
      </trkpt>
      <trkpt lat="44.13354" lon="5.8836">
        <ele>855</ele>
        <time>2021-06-01T08:07:45.000Z</time>
      </trkpt>
      <trkpt lat="44.13354" lon="5.8836">
        <ele>855</ele>
        <time>2021-06-01T08:07:46.000Z</time>
      </trkpt>
      <trkpt lat="44.13354" lon="5.8836">
        <ele>855</ele>
        <time>2021-06-01T08:07:47.000Z</time>
      </trkpt>
      <trkpt lat="44.13354" lon="5.8836">
        <ele>856</ele>
        <time>2021-06-01T08:07:48.000Z</time>
      </trkpt>
      <trkpt lat="44.13354" lon="5.8836">
        <ele>856</ele>
        <time>2021-06-01T08:07:49.000Z</time>
      </trkpt>
      <trkpt lat="44.13355" lon="5.8836">
        <ele>856</ele>
        <time>2021-06-01T08:07:50.000Z</time>
      </trkpt>
      <trkpt lat="44.13355" lon="5.8836">
        <ele>856</ele>
        <time>2021-06-01T08:07:51.000Z</time>
      </trkpt>
      <trkpt lat="44.13355" lon="5.8836">
        <ele>856</ele>
        <time>2021-06-01T08:07:52.000Z</time>
      </trkpt>
      <trkpt lat="44.13355" lon="5.8836">
        <ele>856</ele>
        <time>2021-06-01T08:07:53.000Z</time>
      </trkpt>
      <trkpt lat="44.13354" lon="5.88361">
        <ele>856</ele>
        <time>2021-06-01T08:07:54.000Z</time>
      </trkpt>
      <trkpt lat="44.13354" lon="5.88361">
        <ele>856</ele>
        <time>2021-06-01T08:07:55.000Z</time>
      </trkpt>
      <trkpt lat="44.13354" lon="5.88361">
        <ele>856</ele>
        <time>2021-06-01T08:07:56.000Z</time>
      </trkpt>
      <trkpt lat="44.13355" lon="5.88361">
        <ele>856</ele>
        <time>2021-06-01T08:07:57.000Z</time>
      </trkpt>
      <trkpt lat="44.13355" lon="5.88361">
        <ele>856</ele>
        <time>2021-06-01T08:07:58.000Z</time>
      </trkpt>
      <trkpt lat="44.13354" lon="5.88361">
        <ele>856</ele>
        <time>2021-06-01T08:07:59.000Z</time>
      </trkpt>
      <trkpt lat="44.13354" lon="5.88361">
        <ele>856</ele>
        <time>2021-06-01T08:08:00.000Z</time>
      </trkpt>
      <trkpt lat="44.13353" lon="5.88362">
        <ele>856</ele>
        <time>2021-06-01T08:08:01.000Z</time>
      </trkpt>
      <trkpt lat="44.13353" lon="5.88362">
        <ele>856</ele>
        <time>2021-06-01T08:08:02.000Z</time>
      </trkpt>
      <trkpt lat="44.13353" lon="5.88362">
        <ele>856</ele>
        <time>2021-06-01T08:08:03.000Z</time>
      </trkpt>
      <trkpt lat="44.13353" lon="5.88362">
        <ele>856</ele>
        <time>2021-06-01T08:08:04.000Z</time>
      </trkpt>
      <trkpt lat="44.13353" lon="5.88363">
        <ele>856</ele>
        <time>2021-06-01T08:08:05.000Z</time>
      </trkpt>
      <trkpt lat="44.13353" lon="5.88363">
        <ele>856</ele>
        <time>2021-06-01T08:08:06.000Z</time>
      </trkpt>
      <trkpt lat="44.13353" lon="5.88363">
        <ele>856</ele>
        <time>2021-06-01T08:08:07.000Z</time>
      </trkpt>
      <trkpt lat="44.13353" lon="5.88363">
        <ele>856</ele>
        <time>2021-06-01T08:08:08.000Z</time>
      </trkpt>
      <trkpt lat="44.13353" lon="5.88363">
        <ele>856</ele>
        <time>2021-06-01T08:08:09.000Z</time>
      </trkpt>
      <trkpt lat="44.13353" lon="5.88364">
        <ele>856</ele>
        <time>2021-06-01T08:08:10.000Z</time>
      </trkpt>
      <trkpt lat="44.13353" lon="5.88364">
        <ele>855</ele>
        <time>2021-06-01T08:08:11.000Z</time>
      </trkpt>
      <trkpt lat="44.13353" lon="5.88364">
        <ele>855</ele>
        <time>2021-06-01T08:08:12.000Z</time>
      </trkpt>
      <trkpt lat="44.13353" lon="5.88364">
        <ele>856</ele>
        <time>2021-06-01T08:08:13.000Z</time>
      </trkpt>
      <trkpt lat="44.13353" lon="5.88364">
        <ele>856</ele>
        <time>2021-06-01T08:08:14.000Z</time>
      </trkpt>
      <trkpt lat="44.13352" lon="5.88365">
        <ele>856</ele>
        <time>2021-06-01T08:08:15.000Z</time>
      </trkpt>
      <trkpt lat="44.13352" lon="5.88365">
        <ele>856</ele>
        <time>2021-06-01T08:08:16.000Z</time>
      </trkpt>
      <trkpt lat="44.13352" lon="5.88366">
        <ele>856</ele>
        <time>2021-06-01T08:08:17.000Z</time>
      </trkpt>
      <trkpt lat="44.13352" lon="5.88366">
        <ele>856</ele>
        <time>2021-06-01T08:08:18.000Z</time>
      </trkpt>
      <trkpt lat="44.13352" lon="5.88366">
        <ele>856</ele>
        <time>2021-06-01T08:08:19.000Z</time>
      </trkpt>
      <trkpt lat="44.13352" lon="5.88367">
        <ele>856</ele>
        <time>2021-06-01T08:08:20.000Z</time>
      </trkpt>
      <trkpt lat="44.13352" lon="5.88367">
        <ele>856</ele>
        <time>2021-06-01T08:08:21.000Z</time>
      </trkpt>
      <trkpt lat="44.13353" lon="5.88368">
        <ele>856</ele>
        <time>2021-06-01T08:08:22.000Z</time>
      </trkpt>
      <trkpt lat="44.13353" lon="5.88368">
        <ele>856</ele>
        <time>2021-06-01T08:08:23.000Z</time>
      </trkpt>
      <trkpt lat="44.13353" lon="5.88369">
        <ele>856</ele>
        <time>2021-06-01T08:08:24.000Z</time>
      </trkpt>
      <trkpt lat="44.13353" lon="5.88369">
        <ele>856</ele>
        <time>2021-06-01T08:08:27.000Z</time>
      </trkpt>
      <trkpt lat="44.13353" lon="5.88369">
        <ele>856</ele>
        <time>2021-06-01T08:08:28.000Z</time>
      </trkpt>
      <trkpt lat="44.13351" lon="5.88374">
        <ele>856</ele>
        <time>2021-06-01T08:08:29.000Z</time>
      </trkpt>
      <trkpt lat="44.1335" lon="5.88374">
        <ele>856</ele>
        <time>2021-06-01T08:08:30.000Z</time>
      </trkpt>
      <trkpt lat="44.1335" lon="5.88375">
        <ele>856</ele>
        <time>2021-06-01T08:08:31.000Z</time>
      </trkpt>
      <trkpt lat="44.1335" lon="5.88375">
        <ele>856</ele>
        <time>2021-06-01T08:08:32.000Z</time>
      </trkpt>
      <trkpt lat="44.13349" lon="5.88376">
        <ele>856</ele>
        <time>2021-06-01T08:08:33.000Z</time>
      </trkpt>
      <trkpt lat="44.13349" lon="5.88376">
        <ele>856</ele>
        <time>2021-06-01T08:08:34.000Z</time>
      </trkpt>
      <trkpt lat="44.13349" lon="5.88376">
        <ele>856</ele>
        <time>2021-06-01T08:08:35.000Z</time>
      </trkpt>
      <trkpt lat="44.13348" lon="5.88376">
        <ele>856</ele>
        <time>2021-06-01T08:08:36.000Z</time>
      </trkpt>
      <trkpt lat="44.13348" lon="5.88376">
        <ele>855</ele>
        <time>2021-06-01T08:08:37.000Z</time>
      </trkpt>
      <trkpt lat="44.13348" lon="5.88377">
        <ele>855</ele>
        <time>2021-06-01T08:08:38.000Z</time>
      </trkpt>
      <trkpt lat="44.13347" lon="5.88377">
        <ele>855</ele>
        <time>2021-06-01T08:08:39.000Z</time>
      </trkpt>
      <trkpt lat="44.13347" lon="5.88378">
        <ele>855</ele>
        <time>2021-06-01T08:08:40.000Z</time>
      </trkpt>
      <trkpt lat="44.13347" lon="5.88378">
        <ele>855</ele>
        <time>2021-06-01T08:08:41.000Z</time>
      </trkpt>
      <trkpt lat="44.13346" lon="5.88379">
        <ele>855</ele>
        <time>2021-06-01T08:08:42.000Z</time>
      </trkpt>
      <trkpt lat="44.13346" lon="5.88379">
        <ele>854</ele>
        <time>2021-06-01T08:08:43.000Z</time>
      </trkpt>
      <trkpt lat="44.13345" lon="5.8838">
        <ele>854</ele>
        <time>2021-06-01T08:08:44.000Z</time>
      </trkpt>
      <trkpt lat="44.13345" lon="5.88381">
        <ele>854</ele>
        <time>2021-06-01T08:08:45.000Z</time>
      </trkpt>
      <trkpt lat="44.13345" lon="5.88382">
        <ele>854</ele>
        <time>2021-06-01T08:08:46.000Z</time>
      </trkpt>
      <trkpt lat="44.13345" lon="5.88382">
        <ele>853</ele>
        <time>2021-06-01T08:08:47.000Z</time>
      </trkpt>
      <trkpt lat="44.13344" lon="5.88382">
        <ele>853</ele>
        <time>2021-06-01T08:08:48.000Z</time>
      </trkpt>
      <trkpt lat="44.13344" lon="5.88383">
        <ele>853</ele>
        <time>2021-06-01T08:08:49.000Z</time>
      </trkpt>
      <trkpt lat="44.13344" lon="5.88383">
        <ele>852</ele>
        <time>2021-06-01T08:08:50.000Z</time>
      </trkpt>
      <trkpt lat="44.13344" lon="5.88383">
        <ele>852</ele>
        <time>2021-06-01T08:08:51.000Z</time>
      </trkpt>
      <trkpt lat="44.13344" lon="5.88384">
        <ele>852</ele>
        <time>2021-06-01T08:08:52.000Z</time>
      </trkpt>
      <trkpt lat="44.13344" lon="5.88384">
        <ele>852</ele>
        <time>2021-06-01T08:08:53.000Z</time>
      </trkpt>
      <trkpt lat="44.13344" lon="5.88384">
        <ele>852</ele>
        <time>2021-06-01T08:08:54.000Z</time>
      </trkpt>
      <trkpt lat="44.13344" lon="5.88384">
        <ele>851</ele>
        <time>2021-06-01T08:08:55.000Z</time>
      </trkpt>
      <trkpt lat="44.13344" lon="5.88384">
        <ele>851</ele>
        <time>2021-06-01T08:08:56.000Z</time>
      </trkpt>
      <trkpt lat="44.13344" lon="5.88384">
        <ele>851</ele>
        <time>2021-06-01T08:08:57.000Z</time>
      </trkpt>
      <trkpt lat="44.13344" lon="5.88384">
        <ele>851</ele>
        <time>2021-06-01T08:08:58.000Z</time>
      </trkpt>
      <trkpt lat="44.13344" lon="5.88384">
        <ele>851</ele>
        <time>2021-06-01T08:08:59.000Z</time>
      </trkpt>
      <trkpt lat="44.13344" lon="5.88384">
        <ele>851</ele>
        <time>2021-06-01T08:09:00.000Z</time>
      </trkpt>
      <trkpt lat="44.13344" lon="5.88384">
        <ele>851</ele>
        <time>2021-06-01T08:09:01.000Z</time>
      </trkpt>
      <trkpt lat="44.13344" lon="5.88384">
        <ele>851</ele>
        <time>2021-06-01T08:09:02.000Z</time>
      </trkpt>
      <trkpt lat="44.13344" lon="5.88384">
        <ele>851</ele>
        <time>2021-06-01T08:09:03.000Z</time>
      </trkpt>
      <trkpt lat="44.13344" lon="5.88384">
        <ele>852</ele>
        <time>2021-06-01T08:09:04.000Z</time>
      </trkpt>
      <trkpt lat="44.13344" lon="5.88384">
        <ele>852</ele>
        <time>2021-06-01T08:09:05.000Z</time>
      </trkpt>
      <trkpt lat="44.13344" lon="5.88383">
        <ele>852</ele>
        <time>2021-06-01T08:09:06.000Z</time>
      </trkpt>
      <trkpt lat="44.13344" lon="5.88383">
        <ele>852</ele>
        <time>2021-06-01T08:09:07.000Z</time>
      </trkpt>
      <trkpt lat="44.13344" lon="5.88383">
        <ele>852</ele>
        <time>2021-06-01T08:09:08.000Z</time>
      </trkpt>
      <trkpt lat="44.13345" lon="5.88383">
        <ele>852</ele>
        <time>2021-06-01T08:09:09.000Z</time>
      </trkpt>
      <trkpt lat="44.13345" lon="5.88383">
        <ele>852</ele>
        <time>2021-06-01T08:09:10.000Z</time>
      </trkpt>
      <trkpt lat="44.13345" lon="5.88383">
        <ele>852</ele>
        <time>2021-06-01T08:09:11.000Z</time>
      </trkpt>
      <trkpt lat="44.13345" lon="5.88383">
        <ele>852</ele>
        <time>2021-06-01T08:09:12.000Z</time>
      </trkpt>
      <trkpt lat="44.13345" lon="5.88383">
        <ele>852</ele>
        <time>2021-06-01T08:09:13.000Z</time>
      </trkpt>
      <trkpt lat="44.13345" lon="5.88384">
        <ele>852</ele>
        <time>2021-06-01T08:09:14.000Z</time>
      </trkpt>
      <trkpt lat="44.13344" lon="5.88384">
        <ele>853</ele>
        <time>2021-06-01T08:09:15.000Z</time>
      </trkpt>
      <trkpt lat="44.13344" lon="5.88384">
        <ele>853</ele>
        <time>2021-06-01T08:09:16.000Z</time>
      </trkpt>
      <trkpt lat="44.13344" lon="5.88384">
        <ele>853</ele>
        <time>2021-06-01T08:09:17.000Z</time>
      </trkpt>
      <trkpt lat="44.13344" lon="5.88384">
        <ele>853</ele>
        <time>2021-06-01T08:09:18.000Z</time>
      </trkpt>
      <trkpt lat="44.13344" lon="5.88385">
        <ele>853</ele>
        <time>2021-06-01T08:09:19.000Z</time>
      </trkpt>
      <trkpt lat="44.13344" lon="5.88385">
        <ele>853</ele>
        <time>2021-06-01T08:09:20.000Z</time>
      </trkpt>
      <trkpt lat="44.13344" lon="5.88385">
        <ele>853</ele>
        <time>2021-06-01T08:09:21.000Z</time>
      </trkpt>
      <trkpt lat="44.13345" lon="5.88385">
        <ele>854</ele>
        <time>2021-06-01T08:09:22.000Z</time>
      </trkpt>
      <trkpt lat="44.13345" lon="5.88385">
        <ele>854</ele>
        <time>2021-06-01T08:09:23.000Z</time>
      </trkpt>
      <trkpt lat="44.13345" lon="5.88385">
        <ele>854</ele>
        <time>2021-06-01T08:09:24.000Z</time>
      </trkpt>
      <trkpt lat="44.13345" lon="5.88384">
        <ele>854</ele>
        <time>2021-06-01T08:09:25.000Z</time>
      </trkpt>
      <trkpt lat="44.13345" lon="5.88384">
        <ele>854</ele>
        <time>2021-06-01T08:09:26.000Z</time>
      </trkpt>
      <trkpt lat="44.13345" lon="5.88384">
        <ele>854</ele>
        <time>2021-06-01T08:09:27.000Z</time>
      </trkpt>
      <trkpt lat="44.13345" lon="5.88384">
        <ele>854</ele>
        <time>2021-06-01T08:09:28.000Z</time>
      </trkpt>
      <trkpt lat="44.13345" lon="5.88384">
        <ele>854</ele>
        <time>2021-06-01T08:09:29.000Z</time>
      </trkpt>
      <trkpt lat="44.13345" lon="5.88384">
        <ele>854</ele>
        <time>2021-06-01T08:09:30.000Z</time>
      </trkpt>
      <trkpt lat="44.13345" lon="5.88384">
        <ele>854</ele>
        <time>2021-06-01T08:09:31.000Z</time>
      </trkpt>
      <trkpt lat="44.13345" lon="5.88384">
        <ele>854</ele>
        <time>2021-06-01T08:09:32.000Z</time>
      </trkpt>
      <trkpt lat="44.13345" lon="5.88384">
        <ele>855</ele>
        <time>2021-06-01T08:09:33.000Z</time>
      </trkpt>
      <trkpt lat="44.13345" lon="5.88384">
        <ele>855</ele>
        <time>2021-06-01T08:09:34.000Z</time>
      </trkpt>
      <trkpt lat="44.13345" lon="5.88384">
        <ele>855</ele>
        <time>2021-06-01T08:09:35.000Z</time>
      </trkpt>
      <trkpt lat="44.13345" lon="5.88384">
        <ele>855</ele>
        <time>2021-06-01T08:09:36.000Z</time>
      </trkpt>
      <trkpt lat="44.13345" lon="5.88384">
        <ele>855</ele>
        <time>2021-06-01T08:09:37.000Z</time>
      </trkpt>
      <trkpt lat="44.13345" lon="5.88384">
        <ele>855</ele>
        <time>2021-06-01T08:09:38.000Z</time>
      </trkpt>
      <trkpt lat="44.13345" lon="5.88385">
        <ele>855</ele>
        <time>2021-06-01T08:09:39.000Z</time>
      </trkpt>
      <trkpt lat="44.13345" lon="5.88385">
        <ele>855</ele>
        <time>2021-06-01T08:09:40.000Z</time>
      </trkpt>
      <trkpt lat="44.13345" lon="5.88385">
        <ele>855</ele>
        <time>2021-06-01T08:09:41.000Z</time>
      </trkpt>
      <trkpt lat="44.13345" lon="5.88386">
        <ele>855</ele>
        <time>2021-06-01T08:09:42.000Z</time>
      </trkpt>
      <trkpt lat="44.13345" lon="5.88386">
        <ele>855</ele>
        <time>2021-06-01T08:09:43.000Z</time>
      </trkpt>
      <trkpt lat="44.13345" lon="5.88386">
        <ele>855</ele>
        <time>2021-06-01T08:09:44.000Z</time>
      </trkpt>
      <trkpt lat="44.13345" lon="5.88386">
        <ele>855</ele>
        <time>2021-06-01T08:09:45.000Z</time>
      </trkpt>
      <trkpt lat="44.13345" lon="5.88386">
        <ele>855</ele>
        <time>2021-06-01T08:09:46.000Z</time>
      </trkpt>
      <trkpt lat="44.13345" lon="5.88386">
        <ele>855</ele>
        <time>2021-06-01T08:09:47.000Z</time>
      </trkpt>
      <trkpt lat="44.13345" lon="5.88385">
        <ele>855</ele>
        <time>2021-06-01T08:09:48.000Z</time>
      </trkpt>
      <trkpt lat="44.13345" lon="5.88385">
        <ele>855</ele>
        <time>2021-06-01T08:09:49.000Z</time>
      </trkpt>
      <trkpt lat="44.13345" lon="5.88385">
        <ele>855</ele>
        <time>2021-06-01T08:09:50.000Z</time>
      </trkpt>
      <trkpt lat="44.13345" lon="5.88385">
        <ele>855</ele>
        <time>2021-06-01T08:09:51.000Z</time>
      </trkpt>
      <trkpt lat="44.13345" lon="5.88385">
        <ele>855</ele>
        <time>2021-06-01T08:09:52.000Z</time>
      </trkpt>
      <trkpt lat="44.13345" lon="5.88385">
        <ele>855</ele>
        <time>2021-06-01T08:09:53.000Z</time>
      </trkpt>
      <trkpt lat="44.13345" lon="5.88385">
        <ele>855</ele>
        <time>2021-06-01T08:09:54.000Z</time>
      </trkpt>
      <trkpt lat="44.13345" lon="5.88385">
        <ele>855</ele>
        <time>2021-06-01T08:09:55.000Z</time>
      </trkpt>
      <trkpt lat="44.13345" lon="5.88385">
        <ele>855</ele>
        <time>2021-06-01T08:09:56.000Z</time>
      </trkpt>
      <trkpt lat="44.13345" lon="5.88385">
        <ele>855</ele>
        <time>2021-06-01T08:09:57.000Z</time>
      </trkpt>
      <trkpt lat="44.13345" lon="5.88385">
        <ele>855</ele>
        <time>2021-06-01T08:09:58.000Z</time>
      </trkpt>
      <trkpt lat="44.13345" lon="5.88385">
        <ele>855</ele>
        <time>2021-06-01T08:09:59.000Z</time>
      </trkpt>
      <trkpt lat="44.13345" lon="5.88385">
        <ele>855</ele>
        <time>2021-06-01T08:10:00.000Z</time>
      </trkpt>
      <trkpt lat="44.13345" lon="5.88385">
        <ele>855</ele>
        <time>2021-06-01T08:10:01.000Z</time>
      </trkpt>
      <trkpt lat="44.13345" lon="5.88385">
        <ele>855</ele>
        <time>2021-06-01T08:10:02.000Z</time>
      </trkpt>
      <trkpt lat="44.13345" lon="5.88385">
        <ele>855</ele>
        <time>2021-06-01T08:10:03.000Z</time>
      </trkpt>
      <trkpt lat="44.13344" lon="5.88385">
        <ele>855</ele>
        <time>2021-06-01T08:10:04.000Z</time>
      </trkpt>
      <trkpt lat="44.13344" lon="5.88385">
        <ele>855</ele>
        <time>2021-06-01T08:10:05.000Z</time>
      </trkpt>
      <trkpt lat="44.13344" lon="5.88385">
        <ele>855</ele>
        <time>2021-06-01T08:10:06.000Z</time>
      </trkpt>
      <trkpt lat="44.13344" lon="5.88385">
        <ele>855</ele>
        <time>2021-06-01T08:10:07.000Z</time>
      </trkpt>
      <trkpt lat="44.13344" lon="5.88385">
        <ele>855</ele>
        <time>2021-06-01T08:10:08.000Z</time>
      </trkpt>
      <trkpt lat="44.13344" lon="5.88385">
        <ele>855</ele>
        <time>2021-06-01T08:10:09.000Z</time>
      </trkpt>
      <trkpt lat="44.13344" lon="5.88385">
        <ele>855</ele>
        <time>2021-06-01T08:10:10.000Z</time>
      </trkpt>
      <trkpt lat="44.13344" lon="5.88385">
        <ele>855</ele>
        <time>2021-06-01T08:10:11.000Z</time>
      </trkpt>
      <trkpt lat="44.13344" lon="5.88385">
        <ele>855</ele>
        <time>2021-06-01T08:10:12.000Z</time>
      </trkpt>
      <trkpt lat="44.13343" lon="5.88386">
        <ele>855</ele>
        <time>2021-06-01T08:10:13.000Z</time>
      </trkpt>
      <trkpt lat="44.13343" lon="5.88386">
        <ele>855</ele>
        <time>2021-06-01T08:10:14.000Z</time>
      </trkpt>
      <trkpt lat="44.13343" lon="5.88386">
        <ele>855</ele>
        <time>2021-06-01T08:10:15.000Z</time>
      </trkpt>
      <trkpt lat="44.13342" lon="5.88387">
        <ele>855</ele>
        <time>2021-06-01T08:10:16.000Z</time>
      </trkpt>
      <trkpt lat="44.13343" lon="5.88387">
        <ele>855</ele>
        <time>2021-06-01T08:10:17.000Z</time>
      </trkpt>
      <trkpt lat="44.13343" lon="5.88387">
        <ele>855</ele>
        <time>2021-06-01T08:10:18.000Z</time>
      </trkpt>
      <trkpt lat="44.13343" lon="5.88387">
        <ele>855</ele>
        <time>2021-06-01T08:10:19.000Z</time>
      </trkpt>
      <trkpt lat="44.13343" lon="5.88388">
        <ele>855</ele>
        <time>2021-06-01T08:10:20.000Z</time>
      </trkpt>
      <trkpt lat="44.13343" lon="5.88388">
        <ele>855</ele>
        <time>2021-06-01T08:10:21.000Z</time>
      </trkpt>
      <trkpt lat="44.13343" lon="5.88388">
        <ele>855</ele>
        <time>2021-06-01T08:10:22.000Z</time>
      </trkpt>
      <trkpt lat="44.13343" lon="5.88389">
        <ele>855</ele>
        <time>2021-06-01T08:10:23.000Z</time>
      </trkpt>
      <trkpt lat="44.13343" lon="5.88389">
        <ele>855</ele>
        <time>2021-06-01T08:10:24.000Z</time>
      </trkpt>
      <trkpt lat="44.13342" lon="5.88389">
        <ele>855</ele>
        <time>2021-06-01T08:10:25.000Z</time>
      </trkpt>
      <trkpt lat="44.13342" lon="5.88389">
        <ele>855</ele>
        <time>2021-06-01T08:10:26.000Z</time>
      </trkpt>
      <trkpt lat="44.13342" lon="5.8839">
        <ele>855</ele>
        <time>2021-06-01T08:10:27.000Z</time>
      </trkpt>
      <trkpt lat="44.13342" lon="5.8839">
        <ele>855</ele>
        <time>2021-06-01T08:10:28.000Z</time>
      </trkpt>
      <trkpt lat="44.13342" lon="5.8839">
        <ele>855</ele>
        <time>2021-06-01T08:10:29.000Z</time>
      </trkpt>
      <trkpt lat="44.13342" lon="5.8839">
        <ele>855</ele>
        <time>2021-06-01T08:10:30.000Z</time>
      </trkpt>
      <trkpt lat="44.13342" lon="5.8839">
        <ele>855</ele>
        <time>2021-06-01T08:10:31.000Z</time>
      </trkpt>
      <trkpt lat="44.13342" lon="5.8839">
        <ele>855</ele>
        <time>2021-06-01T08:10:32.000Z</time>
      </trkpt>
      <trkpt lat="44.13342" lon="5.8839">
        <ele>855</ele>
        <time>2021-06-01T08:10:33.000Z</time>
      </trkpt>
      <trkpt lat="44.13342" lon="5.8839">
        <ele>855</ele>
        <time>2021-06-01T08:10:34.000Z</time>
      </trkpt>
      <trkpt lat="44.13342" lon="5.8839">
        <ele>855</ele>
        <time>2021-06-01T08:10:35.000Z</time>
      </trkpt>
      <trkpt lat="44.13342" lon="5.8839">
        <ele>855</ele>
        <time>2021-06-01T08:10:36.000Z</time>
      </trkpt>
      <trkpt lat="44.13342" lon="5.8839">
        <ele>855</ele>
        <time>2021-06-01T08:10:37.000Z</time>
      </trkpt>
      <trkpt lat="44.13342" lon="5.8839">
        <ele>855</ele>
        <time>2021-06-01T08:10:38.000Z</time>
      </trkpt>
      <trkpt lat="44.13342" lon="5.8839">
        <ele>855</ele>
        <time>2021-06-01T08:10:39.000Z</time>
      </trkpt>
      <trkpt lat="44.13342" lon="5.8839">
        <ele>855</ele>
        <time>2021-06-01T08:10:40.000Z</time>
      </trkpt>
      <trkpt lat="44.13342" lon="5.8839">
        <ele>855</ele>
        <time>2021-06-01T08:10:41.000Z</time>
      </trkpt>
      <trkpt lat="44.13342" lon="5.8839">
        <ele>855</ele>
        <time>2021-06-01T08:10:42.000Z</time>
      </trkpt>
      <trkpt lat="44.13342" lon="5.88391">
        <ele>855</ele>
        <time>2021-06-01T08:10:43.000Z</time>
      </trkpt>
      <trkpt lat="44.13342" lon="5.88391">
        <ele>855</ele>
        <time>2021-06-01T08:10:44.000Z</time>
      </trkpt>
      <trkpt lat="44.13342" lon="5.88391">
        <ele>855</ele>
        <time>2021-06-01T08:10:45.000Z</time>
      </trkpt>
      <trkpt lat="44.13342" lon="5.88392">
        <ele>855</ele>
        <time>2021-06-01T08:10:46.000Z</time>
      </trkpt>
      <trkpt lat="44.13342" lon="5.88392">
        <ele>855</ele>
        <time>2021-06-01T08:10:47.000Z</time>
      </trkpt>
      <trkpt lat="44.13342" lon="5.88392">
        <ele>855</ele>
        <time>2021-06-01T08:10:48.000Z</time>
      </trkpt>
      <trkpt lat="44.13342" lon="5.88393">
        <ele>855</ele>
        <time>2021-06-01T08:10:49.000Z</time>
      </trkpt>
      <trkpt lat="44.13342" lon="5.88393">
        <ele>856</ele>
        <time>2021-06-01T08:10:59.000Z</time>
      </trkpt>
      <trkpt lat="44.13342" lon="5.88393">
        <ele>856</ele>
        <time>2021-06-01T08:11:00.000Z</time>
      </trkpt>
      <trkpt lat="44.13341" lon="5.88397">
        <ele>856</ele>
        <time>2021-06-01T08:11:01.000Z</time>
      </trkpt>
      <trkpt lat="44.13341" lon="5.88397">
        <ele>856</ele>
        <time>2021-06-01T08:11:02.000Z</time>
      </trkpt>
      <trkpt lat="44.13341" lon="5.88398">
        <ele>856</ele>
        <time>2021-06-01T08:11:03.000Z</time>
      </trkpt>
      <trkpt lat="44.13341" lon="5.88398">
        <ele>856</ele>
        <time>2021-06-01T08:11:04.000Z</time>
      </trkpt>
      <trkpt lat="44.13341" lon="5.88399">
        <ele>856</ele>
        <time>2021-06-01T08:11:05.000Z</time>
      </trkpt>
      <trkpt lat="44.13341" lon="5.88399">
        <ele>856</ele>
        <time>2021-06-01T08:11:06.000Z</time>
      </trkpt>
      <trkpt lat="44.13341" lon="5.884">
        <ele>855</ele>
        <time>2021-06-01T08:11:07.000Z</time>
      </trkpt>
      <trkpt lat="44.13341" lon="5.88401">
        <ele>855</ele>
        <time>2021-06-01T08:11:08.000Z</time>
      </trkpt>
      <trkpt lat="44.13341" lon="5.88401">
        <ele>855</ele>
        <time>2021-06-01T08:11:09.000Z</time>
      </trkpt>
      <trkpt lat="44.13342" lon="5.88402">
        <ele>855</ele>
        <time>2021-06-01T08:11:10.000Z</time>
      </trkpt>
      <trkpt lat="44.13342" lon="5.88402">
        <ele>855</ele>
        <time>2021-06-01T08:11:11.000Z</time>
      </trkpt>
      <trkpt lat="44.13343" lon="5.88402">
        <ele>855</ele>
        <time>2021-06-01T08:11:12.000Z</time>
      </trkpt>
      <trkpt lat="44.13343" lon="5.88402">
        <ele>855</ele>
        <time>2021-06-01T08:11:13.000Z</time>
      </trkpt>
      <trkpt lat="44.13344" lon="5.88402">
        <ele>855</ele>
        <time>2021-06-01T08:11:14.000Z</time>
      </trkpt>
      <trkpt lat="44.13344" lon="5.88402">
        <ele>855</ele>
        <time>2021-06-01T08:11:15.000Z</time>
      </trkpt>
      <trkpt lat="44.13344" lon="5.88402">
        <ele>855</ele>
        <time>2021-06-01T08:11:16.000Z</time>
      </trkpt>
      <trkpt lat="44.13344" lon="5.88402">
        <ele>855</ele>
        <time>2021-06-01T08:11:17.000Z</time>
      </trkpt>
      <trkpt lat="44.13344" lon="5.88402">
        <ele>855</ele>
        <time>2021-06-01T08:11:18.000Z</time>
      </trkpt>
      <trkpt lat="44.13344" lon="5.88402">
        <ele>856</ele>
        <time>2021-06-01T08:11:19.000Z</time>
      </trkpt>
      <trkpt lat="44.13345" lon="5.88402">
        <ele>856</ele>
        <time>2021-06-01T08:11:20.000Z</time>
      </trkpt>
      <trkpt lat="44.13345" lon="5.88402">
        <ele>856</ele>
        <time>2021-06-01T08:11:21.000Z</time>
      </trkpt>
      <trkpt lat="44.13345" lon="5.88402">
        <ele>856</ele>
        <time>2021-06-01T08:11:22.000Z</time>
      </trkpt>
      <trkpt lat="44.13345" lon="5.88402">
        <ele>856</ele>
        <time>2021-06-01T08:11:23.000Z</time>
      </trkpt>
      <trkpt lat="44.13345" lon="5.88403">
        <ele>856</ele>
        <time>2021-06-01T08:11:24.000Z</time>
      </trkpt>
      <trkpt lat="44.13345" lon="5.88403">
        <ele>856</ele>
        <time>2021-06-01T08:11:25.000Z</time>
      </trkpt>
      <trkpt lat="44.13345" lon="5.88403">
        <ele>856</ele>
        <time>2021-06-01T08:11:26.000Z</time>
      </trkpt>
      <trkpt lat="44.13346" lon="5.88403">
        <ele>856</ele>
        <time>2021-06-01T08:11:27.000Z</time>
      </trkpt>
      <trkpt lat="44.13346" lon="5.88402">
        <ele>856</ele>
        <time>2021-06-01T08:11:28.000Z</time>
      </trkpt>
      <trkpt lat="44.13346" lon="5.88402">
        <ele>856</ele>
        <time>2021-06-01T08:11:29.000Z</time>
      </trkpt>
      <trkpt lat="44.13347" lon="5.88402">
        <ele>856</ele>
        <time>2021-06-01T08:11:30.000Z</time>
      </trkpt>
      <trkpt lat="44.13347" lon="5.88402">
        <ele>856</ele>
        <time>2021-06-01T08:11:31.000Z</time>
      </trkpt>
      <trkpt lat="44.13347" lon="5.88401">
        <ele>856</ele>
        <time>2021-06-01T08:11:32.000Z</time>
      </trkpt>
      <trkpt lat="44.13348" lon="5.88401">
        <ele>857</ele>
        <time>2021-06-01T08:11:33.000Z</time>
      </trkpt>
      <trkpt lat="44.13348" lon="5.88402">
        <ele>857</ele>
        <time>2021-06-01T08:11:34.000Z</time>
      </trkpt>
      <trkpt lat="44.13348" lon="5.88401">
        <ele>857</ele>
        <time>2021-06-01T08:11:35.000Z</time>
      </trkpt>
      <trkpt lat="44.13348" lon="5.88401">
        <ele>857</ele>
        <time>2021-06-01T08:11:37.000Z</time>
      </trkpt>
      <trkpt lat="44.13348" lon="5.88401">
        <ele>858</ele>
        <time>2021-06-01T08:11:38.000Z</time>
      </trkpt>
      <trkpt lat="44.13348" lon="5.88401">
        <ele>858</ele>
        <time>2021-06-01T08:11:39.000Z</time>
      </trkpt>
      <trkpt lat="44.13348" lon="5.884">
        <ele>859</ele>
        <time>2021-06-01T08:11:40.000Z</time>
      </trkpt>
      <trkpt lat="44.13348" lon="5.884">
        <ele>860</ele>
        <time>2021-06-01T08:11:41.000Z</time>
      </trkpt>
      <trkpt lat="44.13348" lon="5.88398">
        <ele>860</ele>
        <time>2021-06-01T08:11:42.000Z</time>
      </trkpt>
      <trkpt lat="44.13348" lon="5.88397">
        <ele>861</ele>
        <time>2021-06-01T08:11:43.000Z</time>
      </trkpt>
      <trkpt lat="44.13348" lon="5.88396">
        <ele>862</ele>
        <time>2021-06-01T08:11:44.000Z</time>
      </trkpt>
      <trkpt lat="44.13348" lon="5.88395">
        <ele>862</ele>
        <time>2021-06-01T08:11:45.000Z</time>
      </trkpt>
      <trkpt lat="44.13347" lon="5.88395">
        <ele>863</ele>
        <time>2021-06-01T08:11:46.000Z</time>
      </trkpt>
      <trkpt lat="44.13347" lon="5.88394">
        <ele>863</ele>
        <time>2021-06-01T08:11:47.000Z</time>
      </trkpt>
      <trkpt lat="44.13346" lon="5.88394">
        <ele>863</ele>
        <time>2021-06-01T08:11:48.000Z</time>
      </trkpt>
      <trkpt lat="44.13346" lon="5.88393">
        <ele>863</ele>
        <time>2021-06-01T08:11:49.000Z</time>
      </trkpt>
      <trkpt lat="44.13346" lon="5.88393">
        <ele>863</ele>
        <time>2021-06-01T08:11:50.000Z</time>
      </trkpt>
      <trkpt lat="44.13345" lon="5.88394">
        <ele>863</ele>
        <time>2021-06-01T08:11:51.000Z</time>
      </trkpt>
      <trkpt lat="44.13345" lon="5.88394">
        <ele>863</ele>
        <time>2021-06-01T08:11:52.000Z</time>
      </trkpt>
      <trkpt lat="44.13345" lon="5.88394">
        <ele>863</ele>
        <time>2021-06-01T08:11:53.000Z</time>
      </trkpt>
      <trkpt lat="44.13344" lon="5.88394">
        <ele>863</ele>
        <time>2021-06-01T08:11:54.000Z</time>
      </trkpt>
      <trkpt lat="44.13344" lon="5.88394">
        <ele>863</ele>
        <time>2021-06-01T08:11:55.000Z</time>
      </trkpt>
      <trkpt lat="44.13343" lon="5.88394">
        <ele>863</ele>
        <time>2021-06-01T08:11:56.000Z</time>
      </trkpt>
      <trkpt lat="44.13342" lon="5.88394">
        <ele>864</ele>
        <time>2021-06-01T08:11:57.000Z</time>
      </trkpt>
      <trkpt lat="44.13342" lon="5.88394">
        <ele>864</ele>
        <time>2021-06-01T08:11:58.000Z</time>
      </trkpt>
      <trkpt lat="44.13341" lon="5.88394">
        <ele>864</ele>
        <time>2021-06-01T08:11:59.000Z</time>
      </trkpt>
      <trkpt lat="44.1334" lon="5.88394">
        <ele>865</ele>
        <time>2021-06-01T08:12:00.000Z</time>
      </trkpt>
      <trkpt lat="44.1334" lon="5.88394">
        <ele>865</ele>
        <time>2021-06-01T08:12:01.000Z</time>
      </trkpt>
      <trkpt lat="44.13339" lon="5.88394">
        <ele>866</ele>
        <time>2021-06-01T08:12:02.000Z</time>
      </trkpt>
      <trkpt lat="44.13339" lon="5.88393">
        <ele>866</ele>
        <time>2021-06-01T08:12:03.000Z</time>
      </trkpt>
      <trkpt lat="44.13339" lon="5.88393">
        <ele>866</ele>
        <time>2021-06-01T08:12:05.000Z</time>
      </trkpt>
      <trkpt lat="44.13339" lon="5.88393">
        <ele>866</ele>
        <time>2021-06-01T08:12:06.000Z</time>
      </trkpt>
      <trkpt lat="44.13337" lon="5.88394">
        <ele>866</ele>
        <time>2021-06-01T08:12:07.000Z</time>
      </trkpt>
      <trkpt lat="44.13337" lon="5.88394">
        <ele>866</ele>
        <time>2021-06-01T08:12:08.000Z</time>
      </trkpt>
      <trkpt lat="44.13337" lon="5.88394">
        <ele>866</ele>
        <time>2021-06-01T08:12:09.000Z</time>
      </trkpt>
      <trkpt lat="44.13336" lon="5.88394">
        <ele>866</ele>
        <time>2021-06-01T08:12:10.000Z</time>
      </trkpt>
      <trkpt lat="44.13335" lon="5.88394">
        <ele>866</ele>
        <time>2021-06-01T08:12:11.000Z</time>
      </trkpt>
      <trkpt lat="44.13335" lon="5.88394">
        <ele>867</ele>
        <time>2021-06-01T08:12:12.000Z</time>
      </trkpt>
      <trkpt lat="44.13334" lon="5.88393">
        <ele>867</ele>
        <time>2021-06-01T08:12:13.000Z</time>
      </trkpt>
      <trkpt lat="44.13333" lon="5.88393">
        <ele>868</ele>
        <time>2021-06-01T08:12:14.000Z</time>
      </trkpt>
      <trkpt lat="44.13333" lon="5.88393">
        <ele>871</ele>
        <time>2021-06-01T08:12:20.000Z</time>
      </trkpt>
      <trkpt lat="44.13333" lon="5.88393">
        <ele>871</ele>
        <time>2021-06-01T08:12:21.000Z</time>
      </trkpt>
      <trkpt lat="44.1333" lon="5.88391">
        <ele>872</ele>
        <time>2021-06-01T08:12:22.000Z</time>
      </trkpt>
      <trkpt lat="44.13329" lon="5.88391">
        <ele>872</ele>
        <time>2021-06-01T08:12:23.000Z</time>
      </trkpt>
      <trkpt lat="44.13328" lon="5.88391">
        <ele>872</ele>
        <time>2021-06-01T08:12:24.000Z</time>
      </trkpt>
      <trkpt lat="44.13327" lon="5.88392">
        <ele>872</ele>
        <time>2021-06-01T08:12:25.000Z</time>
      </trkpt>
      <trkpt lat="44.13327" lon="5.88392">
        <ele>872</ele>
        <time>2021-06-01T08:12:26.000Z</time>
      </trkpt>
      <trkpt lat="44.13326" lon="5.88392">
        <ele>872</ele>
        <time>2021-06-01T08:12:27.000Z</time>
      </trkpt>
      <trkpt lat="44.13325" lon="5.88392">
        <ele>872</ele>
        <time>2021-06-01T08:12:28.000Z</time>
      </trkpt>
      <trkpt lat="44.13324" lon="5.88392">
        <ele>873</ele>
        <time>2021-06-01T08:12:29.000Z</time>
      </trkpt>
      <trkpt lat="44.13323" lon="5.88392">
        <ele>873</ele>
        <time>2021-06-01T08:12:30.000Z</time>
      </trkpt>
      <trkpt lat="44.13322" lon="5.88392">
        <ele>873</ele>
        <time>2021-06-01T08:12:31.000Z</time>
      </trkpt>
      <trkpt lat="44.13321" lon="5.88392">
        <ele>873</ele>
        <time>2021-06-01T08:12:32.000Z</time>
      </trkpt>
      <trkpt lat="44.1332" lon="5.88392">
        <ele>873</ele>
        <time>2021-06-01T08:12:33.000Z</time>
      </trkpt>
      <trkpt lat="44.13318" lon="5.88392">
        <ele>873</ele>
        <time>2021-06-01T08:12:34.000Z</time>
      </trkpt>
      <trkpt lat="44.13317" lon="5.88391">
        <ele>874</ele>
        <time>2021-06-01T08:12:35.000Z</time>
      </trkpt>
      <trkpt lat="44.13316" lon="5.88392">
        <ele>874</ele>
        <time>2021-06-01T08:12:36.000Z</time>
      </trkpt>
      <trkpt lat="44.13314" lon="5.88392">
        <ele>874</ele>
        <time>2021-06-01T08:12:37.000Z</time>
      </trkpt>
      <trkpt lat="44.13312" lon="5.88392">
        <ele>874</ele>
        <time>2021-06-01T08:12:38.000Z</time>
      </trkpt>
      <trkpt lat="44.13311" lon="5.88392">
        <ele>874</ele>
        <time>2021-06-01T08:12:39.000Z</time>
      </trkpt>
      <trkpt lat="44.1331" lon="5.88392">
        <ele>875</ele>
        <time>2021-06-01T08:12:40.000Z</time>
      </trkpt>
      <trkpt lat="44.13309" lon="5.88391">
        <ele>875</ele>
        <time>2021-06-01T08:12:41.000Z</time>
      </trkpt>
      <trkpt lat="44.13308" lon="5.88391">
        <ele>876</ele>
        <time>2021-06-01T08:12:42.000Z</time>
      </trkpt>
      <trkpt lat="44.13308" lon="5.88389">
        <ele>877</ele>
        <time>2021-06-01T08:12:43.000Z</time>
      </trkpt>
      <trkpt lat="44.13308" lon="5.88388">
        <ele>878</ele>
        <time>2021-06-01T08:12:44.000Z</time>
      </trkpt>
      <trkpt lat="44.13308" lon="5.88387">
        <ele>879</ele>
        <time>2021-06-01T08:12:45.000Z</time>
      </trkpt>
      <trkpt lat="44.13308" lon="5.88385">
        <ele>880</ele>
        <time>2021-06-01T08:12:46.000Z</time>
      </trkpt>
      <trkpt lat="44.13309" lon="5.88384">
        <ele>882</ele>
        <time>2021-06-01T08:12:47.000Z</time>
      </trkpt>
      <trkpt lat="44.13309" lon="5.88383">
        <ele>883</ele>
        <time>2021-06-01T08:12:48.000Z</time>
      </trkpt>
      <trkpt lat="44.13309" lon="5.88381">
        <ele>885</ele>
        <time>2021-06-01T08:12:49.000Z</time>
      </trkpt>
      <trkpt lat="44.13309" lon="5.8838">
        <ele>886</ele>
        <time>2021-06-01T08:12:50.000Z</time>
      </trkpt>
      <trkpt lat="44.1331" lon="5.88377">
        <ele>888</ele>
        <time>2021-06-01T08:12:51.000Z</time>
      </trkpt>
      <trkpt lat="44.13311" lon="5.88375">
        <ele>890</ele>
        <time>2021-06-01T08:12:52.000Z</time>
      </trkpt>
      <trkpt lat="44.13312" lon="5.88372">
        <ele>891</ele>
        <time>2021-06-01T08:12:53.000Z</time>
      </trkpt>
      <trkpt lat="44.13313" lon="5.8837">
        <ele>893</ele>
        <time>2021-06-01T08:12:54.000Z</time>
      </trkpt>
      <trkpt lat="44.13315" lon="5.88367">
        <ele>895</ele>
        <time>2021-06-01T08:12:55.000Z</time>
      </trkpt>
      <trkpt lat="44.13316" lon="5.88364">
        <ele>897</ele>
        <time>2021-06-01T08:12:56.000Z</time>
      </trkpt>
      <trkpt lat="44.13318" lon="5.8836">
        <ele>899</ele>
        <time>2021-06-01T08:12:57.000Z</time>
      </trkpt>
      <trkpt lat="44.13319" lon="5.88357">
        <ele>901</ele>
        <time>2021-06-01T08:12:58.000Z</time>
      </trkpt>
      <trkpt lat="44.13321" lon="5.88354">
        <ele>903</ele>
        <time>2021-06-01T08:12:59.000Z</time>
      </trkpt>
      <trkpt lat="44.13323" lon="5.88351">
        <ele>905</ele>
        <time>2021-06-01T08:13:00.000Z</time>
      </trkpt>
      <trkpt lat="44.13325" lon="5.88349">
        <ele>907</ele>
        <time>2021-06-01T08:13:01.000Z</time>
      </trkpt>
      <trkpt lat="44.13326" lon="5.88347">
        <ele>908</ele>
        <time>2021-06-01T08:13:02.000Z</time>
      </trkpt>
      <trkpt lat="44.13328" lon="5.88345">
        <ele>910</ele>
        <time>2021-06-01T08:13:03.000Z</time>
      </trkpt>
      <trkpt lat="44.13329" lon="5.88342">
        <ele>911</ele>
        <time>2021-06-01T08:13:04.000Z</time>
      </trkpt>
      <trkpt lat="44.1333" lon="5.8834">
        <ele>913</ele>
        <time>2021-06-01T08:13:05.000Z</time>
      </trkpt>
      <trkpt lat="44.13331" lon="5.88338">
        <ele>914</ele>
        <time>2021-06-01T08:13:06.000Z</time>
      </trkpt>
      <trkpt lat="44.13332" lon="5.88336">
        <ele>916</ele>
        <time>2021-06-01T08:13:07.000Z</time>
      </trkpt>
      <trkpt lat="44.13333" lon="5.88334">
        <ele>917</ele>
        <time>2021-06-01T08:13:08.000Z</time>
      </trkpt>
      <trkpt lat="44.13333" lon="5.88332">
        <ele>918</ele>
        <time>2021-06-01T08:13:09.000Z</time>
      </trkpt>
      <trkpt lat="44.13334" lon="5.8833">
        <ele>920</ele>
        <time>2021-06-01T08:13:10.000Z</time>
      </trkpt>
      <trkpt lat="44.13334" lon="5.88328">
        <ele>921</ele>
        <time>2021-06-01T08:13:11.000Z</time>
      </trkpt>
      <trkpt lat="44.13335" lon="5.88326">
        <ele>922</ele>
        <time>2021-06-01T08:13:12.000Z</time>
      </trkpt>
      <trkpt lat="44.13335" lon="5.88325">
        <ele>923</ele>
        <time>2021-06-01T08:13:13.000Z</time>
      </trkpt>
      <trkpt lat="44.13336" lon="5.88323">
        <ele>924</ele>
        <time>2021-06-01T08:13:14.000Z</time>
      </trkpt>
      <trkpt lat="44.13336" lon="5.88322">
        <ele>925</ele>
        <time>2021-06-01T08:13:15.000Z</time>
      </trkpt>
      <trkpt lat="44.13337" lon="5.88321">
        <ele>926</ele>
        <time>2021-06-01T08:13:16.000Z</time>
      </trkpt>
      <trkpt lat="44.13337" lon="5.8832">
        <ele>927</ele>
        <time>2021-06-01T08:13:17.000Z</time>
      </trkpt>
      <trkpt lat="44.13337" lon="5.88318">
        <ele>928</ele>
        <time>2021-06-01T08:13:18.000Z</time>
      </trkpt>
      <trkpt lat="44.13337" lon="5.88317">
        <ele>929</ele>
        <time>2021-06-01T08:13:19.000Z</time>
      </trkpt>
      <trkpt lat="44.13338" lon="5.88316">
        <ele>929</ele>
        <time>2021-06-01T08:13:20.000Z</time>
      </trkpt>
      <trkpt lat="44.13338" lon="5.88314">
        <ele>930</ele>
        <time>2021-06-01T08:13:21.000Z</time>
      </trkpt>
      <trkpt lat="44.13338" lon="5.88313">
        <ele>931</ele>
        <time>2021-06-01T08:13:22.000Z</time>
      </trkpt>
      <trkpt lat="44.13338" lon="5.88312">
        <ele>932</ele>
        <time>2021-06-01T08:13:23.000Z</time>
      </trkpt>
      <trkpt lat="44.13339" lon="5.88311">
        <ele>933</ele>
        <time>2021-06-01T08:13:24.000Z</time>
      </trkpt>
      <trkpt lat="44.13339" lon="5.8831">
        <ele>934</ele>
        <time>2021-06-01T08:13:25.000Z</time>
      </trkpt>
      <trkpt lat="44.13339" lon="5.88309">
        <ele>935</ele>
        <time>2021-06-01T08:13:26.000Z</time>
      </trkpt>
      <trkpt lat="44.13339" lon="5.88307">
        <ele>936</ele>
        <time>2021-06-01T08:13:27.000Z</time>
      </trkpt>
      <trkpt lat="44.13339" lon="5.88306">
        <ele>937</ele>
        <time>2021-06-01T08:13:28.000Z</time>
      </trkpt>
      <trkpt lat="44.13339" lon="5.88305">
        <ele>938</ele>
        <time>2021-06-01T08:13:29.000Z</time>
      </trkpt>
      <trkpt lat="44.13339" lon="5.88304">
        <ele>938</ele>
        <time>2021-06-01T08:13:30.000Z</time>
      </trkpt>
      <trkpt lat="44.13339" lon="5.88303">
        <ele>938</ele>
        <time>2021-06-01T08:13:31.000Z</time>
      </trkpt>
      <trkpt lat="44.13339" lon="5.88302">
        <ele>939</ele>
        <time>2021-06-01T08:13:32.000Z</time>
      </trkpt>
      <trkpt lat="44.13339" lon="5.88302">
        <ele>939</ele>
        <time>2021-06-01T08:13:33.000Z</time>
      </trkpt>
      <trkpt lat="44.13339" lon="5.88302">
        <ele>939</ele>
        <time>2021-06-01T08:13:34.000Z</time>
      </trkpt>
      <trkpt lat="44.13339" lon="5.88302">
        <ele>939</ele>
        <time>2021-06-01T08:13:35.000Z</time>
      </trkpt>
      <trkpt lat="44.1334" lon="5.88302">
        <ele>938</ele>
        <time>2021-06-01T08:13:36.000Z</time>
      </trkpt>
      <trkpt lat="44.1334" lon="5.88302">
        <ele>938</ele>
        <time>2021-06-01T08:13:37.000Z</time>
      </trkpt>
      <trkpt lat="44.1334" lon="5.88303">
        <ele>937</ele>
        <time>2021-06-01T08:13:38.000Z</time>
      </trkpt>
      <trkpt lat="44.1334" lon="5.88303">
        <ele>937</ele>
        <time>2021-06-01T08:13:39.000Z</time>
      </trkpt>
      <trkpt lat="44.1334" lon="5.88304">
        <ele>936</ele>
        <time>2021-06-01T08:13:40.000Z</time>
      </trkpt>
      <trkpt lat="44.1334" lon="5.88305">
        <ele>936</ele>
        <time>2021-06-01T08:13:41.000Z</time>
      </trkpt>
      <trkpt lat="44.13341" lon="5.88305">
        <ele>935</ele>
        <time>2021-06-01T08:13:42.000Z</time>
      </trkpt>
      <trkpt lat="44.13341" lon="5.88305">
        <ele>934</ele>
        <time>2021-06-01T08:13:44.000Z</time>
      </trkpt>
      <trkpt lat="44.13341" lon="5.88305">
        <ele>933</ele>
        <time>2021-06-01T08:13:45.000Z</time>
      </trkpt>
      <trkpt lat="44.13341" lon="5.88307">
        <ele>933</ele>
        <time>2021-06-01T08:13:46.000Z</time>
      </trkpt>
      <trkpt lat="44.13341" lon="5.88307">
        <ele>933</ele>
        <time>2021-06-01T08:13:47.000Z</time>
      </trkpt>
      <trkpt lat="44.13341" lon="5.88308">
        <ele>932</ele>
        <time>2021-06-01T08:13:48.000Z</time>
      </trkpt>
      <trkpt lat="44.13341" lon="5.88308">
        <ele>932</ele>
        <time>2021-06-01T08:13:49.000Z</time>
      </trkpt>
      <trkpt lat="44.13341" lon="5.88308">
        <ele>932</ele>
        <time>2021-06-01T08:13:50.000Z</time>
      </trkpt>
      <trkpt lat="44.13341" lon="5.88308">
        <ele>932</ele>
        <time>2021-06-01T08:13:51.000Z</time>
      </trkpt>
      <trkpt lat="44.13341" lon="5.88308">
        <ele>931</ele>
        <time>2021-06-01T08:13:52.000Z</time>
      </trkpt>
      <trkpt lat="44.13342" lon="5.88308">
        <ele>931</ele>
        <time>2021-06-01T08:13:53.000Z</time>
      </trkpt>
      <trkpt lat="44.13342" lon="5.88309">
        <ele>931</ele>
        <time>2021-06-01T08:13:54.000Z</time>
      </trkpt>
      <trkpt lat="44.13342" lon="5.88308">
        <ele>931</ele>
        <time>2021-06-01T08:13:55.000Z</time>
      </trkpt>
      <trkpt lat="44.13342" lon="5.88309">
        <ele>930</ele>
        <time>2021-06-01T08:13:56.000Z</time>
      </trkpt>
      <trkpt lat="44.13342" lon="5.88309">
        <ele>930</ele>
        <time>2021-06-01T08:13:57.000Z</time>
      </trkpt>
      <trkpt lat="44.13342" lon="5.88309">
        <ele>929</ele>
        <time>2021-06-01T08:13:58.000Z</time>
      </trkpt>
      <trkpt lat="44.13342" lon="5.8831">
        <ele>929</ele>
        <time>2021-06-01T08:13:59.000Z</time>
      </trkpt>
      <trkpt lat="44.13343" lon="5.88311">
        <ele>928</ele>
        <time>2021-06-01T08:14:00.000Z</time>
      </trkpt>
      <trkpt lat="44.13343" lon="5.88311">
        <ele>927</ele>
        <time>2021-06-01T08:14:01.000Z</time>
      </trkpt>
      <trkpt lat="44.13343" lon="5.88312">
        <ele>926</ele>
        <time>2021-06-01T08:14:02.000Z</time>
      </trkpt>
      <trkpt lat="44.13342" lon="5.88313">
        <ele>925</ele>
        <time>2021-06-01T08:14:03.000Z</time>
      </trkpt>
      <trkpt lat="44.13342" lon="5.88313">
        <ele>924</ele>
        <time>2021-06-01T08:14:04.000Z</time>
      </trkpt>
      <trkpt lat="44.13342" lon="5.88314">
        <ele>923</ele>
        <time>2021-06-01T08:14:05.000Z</time>
      </trkpt>
      <trkpt lat="44.13342" lon="5.88316">
        <ele>922</ele>
        <time>2021-06-01T08:14:06.000Z</time>
      </trkpt>
      <trkpt lat="44.13342" lon="5.88317">
        <ele>920</ele>
        <time>2021-06-01T08:14:07.000Z</time>
      </trkpt>
      <trkpt lat="44.13342" lon="5.88319">
        <ele>918</ele>
        <time>2021-06-01T08:14:08.000Z</time>
      </trkpt>
      <trkpt lat="44.13342" lon="5.88321">
        <ele>917</ele>
        <time>2021-06-01T08:14:09.000Z</time>
      </trkpt>
      <trkpt lat="44.13342" lon="5.88323">
        <ele>915</ele>
        <time>2021-06-01T08:14:10.000Z</time>
      </trkpt>
      <trkpt lat="44.13342" lon="5.88325">
        <ele>913</ele>
        <time>2021-06-01T08:14:11.000Z</time>
      </trkpt>
      <trkpt lat="44.13342" lon="5.88327">
        <ele>911</ele>
        <time>2021-06-01T08:14:12.000Z</time>
      </trkpt>
      <trkpt lat="44.13342" lon="5.88329">
        <ele>909</ele>
        <time>2021-06-01T08:14:13.000Z</time>
      </trkpt>
      <trkpt lat="44.13342" lon="5.88331">
        <ele>906</ele>
        <time>2021-06-01T08:14:14.000Z</time>
      </trkpt>
      <trkpt lat="44.13342" lon="5.88333">
        <ele>904</ele>
        <time>2021-06-01T08:14:15.000Z</time>
      </trkpt>
      <trkpt lat="44.13342" lon="5.88335">
        <ele>903</ele>
        <time>2021-06-01T08:14:16.000Z</time>
      </trkpt>
      <trkpt lat="44.13342" lon="5.88336">
        <ele>901</ele>
        <time>2021-06-01T08:14:17.000Z</time>
      </trkpt>
      <trkpt lat="44.13342" lon="5.88337">
        <ele>900</ele>
        <time>2021-06-01T08:14:18.000Z</time>
      </trkpt>
      <trkpt lat="44.13342" lon="5.88338">
        <ele>899</ele>
        <time>2021-06-01T08:14:19.000Z</time>
      </trkpt>
      <trkpt lat="44.13342" lon="5.88339">
        <ele>898</ele>
        <time>2021-06-01T08:14:20.000Z</time>
      </trkpt>
      <trkpt lat="44.13342" lon="5.8834">
        <ele>897</ele>
        <time>2021-06-01T08:14:21.000Z</time>
      </trkpt>
      <trkpt lat="44.13342" lon="5.88341">
        <ele>896</ele>
        <time>2021-06-01T08:14:22.000Z</time>
      </trkpt>
      <trkpt lat="44.13342" lon="5.88342">
        <ele>895</ele>
        <time>2021-06-01T08:14:23.000Z</time>
      </trkpt>
      <trkpt lat="44.13342" lon="5.88342">
        <ele>894</ele>
        <time>2021-06-01T08:14:24.000Z</time>
      </trkpt>
      <trkpt lat="44.13342" lon="5.88343">
        <ele>893</ele>
        <time>2021-06-01T08:14:25.000Z</time>
      </trkpt>
      <trkpt lat="44.13342" lon="5.88344">
        <ele>893</ele>
        <time>2021-06-01T08:14:26.000Z</time>
      </trkpt>
      <trkpt lat="44.13342" lon="5.88345">
        <ele>892</ele>
        <time>2021-06-01T08:14:27.000Z</time>
      </trkpt>
      <trkpt lat="44.13342" lon="5.88346">
        <ele>891</ele>
        <time>2021-06-01T08:14:28.000Z</time>
      </trkpt>
      <trkpt lat="44.13342" lon="5.88346">
        <ele>890</ele>
        <time>2021-06-01T08:14:29.000Z</time>
      </trkpt>
      <trkpt lat="44.13342" lon="5.88347">
        <ele>890</ele>
        <time>2021-06-01T08:14:30.000Z</time>
      </trkpt>
      <trkpt lat="44.13342" lon="5.88348">
        <ele>889</ele>
        <time>2021-06-01T08:14:31.000Z</time>
      </trkpt>
      <trkpt lat="44.13342" lon="5.88349">
        <ele>888</ele>
        <time>2021-06-01T08:14:32.000Z</time>
      </trkpt>
      <trkpt lat="44.13342" lon="5.8835">
        <ele>887</ele>
        <time>2021-06-01T08:14:33.000Z</time>
      </trkpt>
      <trkpt lat="44.13342" lon="5.8835">
        <ele>886</ele>
        <time>2021-06-01T08:14:34.000Z</time>
      </trkpt>
      <trkpt lat="44.13342" lon="5.88351">
        <ele>885</ele>
        <time>2021-06-01T08:14:35.000Z</time>
      </trkpt>
      <trkpt lat="44.13342" lon="5.88352">
        <ele>884</ele>
        <time>2021-06-01T08:14:36.000Z</time>
      </trkpt>
      <trkpt lat="44.13342" lon="5.88352">
        <ele>883</ele>
        <time>2021-06-01T08:14:37.000Z</time>
      </trkpt>
      <trkpt lat="44.13343" lon="5.88353">
        <ele>882</ele>
        <time>2021-06-01T08:14:38.000Z</time>
      </trkpt>
      <trkpt lat="44.13343" lon="5.88353">
        <ele>881</ele>
        <time>2021-06-01T08:14:39.000Z</time>
      </trkpt>
      <trkpt lat="44.13343" lon="5.88354">
        <ele>880</ele>
        <time>2021-06-01T08:14:40.000Z</time>
      </trkpt>
      <trkpt lat="44.13343" lon="5.88355">
        <ele>879</ele>
        <time>2021-06-01T08:14:41.000Z</time>
      </trkpt>
      <trkpt lat="44.13343" lon="5.88356">
        <ele>877</ele>
        <time>2021-06-01T08:14:42.000Z</time>
      </trkpt>
      <trkpt lat="44.13343" lon="5.88357">
        <ele>877</ele>
        <time>2021-06-01T08:14:43.000Z</time>
      </trkpt>
      <trkpt lat="44.13343" lon="5.88358">
        <ele>876</ele>
        <time>2021-06-01T08:14:44.000Z</time>
      </trkpt>
      <trkpt lat="44.13343" lon="5.88359">
        <ele>875</ele>
        <time>2021-06-01T08:14:45.000Z</time>
      </trkpt>
      <trkpt lat="44.13343" lon="5.88359">
        <ele>874</ele>
        <time>2021-06-01T08:14:46.000Z</time>
      </trkpt>
      <trkpt lat="44.13343" lon="5.8836">
        <ele>873</ele>
        <time>2021-06-01T08:14:47.000Z</time>
      </trkpt>
      <trkpt lat="44.13343" lon="5.88361">
        <ele>873</ele>
        <time>2021-06-01T08:14:48.000Z</time>
      </trkpt>
      <trkpt lat="44.13343" lon="5.88362">
        <ele>872</ele>
        <time>2021-06-01T08:14:49.000Z</time>
      </trkpt>
      <trkpt lat="44.13343" lon="5.88362">
        <ele>871</ele>
        <time>2021-06-01T08:14:50.000Z</time>
      </trkpt>
      <trkpt lat="44.13343" lon="5.88363">
        <ele>871</ele>
        <time>2021-06-01T08:14:51.000Z</time>
      </trkpt>
      <trkpt lat="44.13343" lon="5.88363">
        <ele>871</ele>
        <time>2021-06-01T08:14:52.000Z</time>
      </trkpt>
      <trkpt lat="44.13343" lon="5.88364">
        <ele>870</ele>
        <time>2021-06-01T08:14:53.000Z</time>
      </trkpt>
      <trkpt lat="44.13343" lon="5.88364">
        <ele>870</ele>
        <time>2021-06-01T08:14:54.000Z</time>
      </trkpt>
      <trkpt lat="44.13343" lon="5.88365">
        <ele>870</ele>
        <time>2021-06-01T08:14:55.000Z</time>
      </trkpt>
      <trkpt lat="44.13344" lon="5.88365">
        <ele>870</ele>
        <time>2021-06-01T08:14:56.000Z</time>
      </trkpt>
      <trkpt lat="44.13344" lon="5.88365">
        <ele>869</ele>
        <time>2021-06-01T08:14:57.000Z</time>
      </trkpt>
      <trkpt lat="44.13344" lon="5.88365">
        <ele>869</ele>
        <time>2021-06-01T08:14:58.000Z</time>
      </trkpt>
      <trkpt lat="44.13344" lon="5.88366">
        <ele>869</ele>
        <time>2021-06-01T08:14:59.000Z</time>
      </trkpt>
      <trkpt lat="44.13344" lon="5.88365">
        <ele>869</ele>
        <time>2021-06-01T08:15:00.000Z</time>
      </trkpt>
      <trkpt lat="44.13344" lon="5.88366">
        <ele>869</ele>
        <time>2021-06-01T08:15:01.000Z</time>
      </trkpt>
      <trkpt lat="44.13344" lon="5.88366">
        <ele>868</ele>
        <time>2021-06-01T08:15:02.000Z</time>
      </trkpt>
      <trkpt lat="44.13344" lon="5.88366">
        <ele>868</ele>
        <time>2021-06-01T08:15:03.000Z</time>
      </trkpt>
      <trkpt lat="44.13344" lon="5.88366">
        <ele>868</ele>
        <time>2021-06-01T08:15:04.000Z</time>
      </trkpt>
      <trkpt lat="44.13344" lon="5.88365">
        <ele>867</ele>
        <time>2021-06-01T08:15:05.000Z</time>
      </trkpt>
      <trkpt lat="44.13344" lon="5.88365">
        <ele>867</ele>
        <time>2021-06-01T08:15:06.000Z</time>
      </trkpt>
      <trkpt lat="44.13345" lon="5.88365">
        <ele>866</ele>
        <time>2021-06-01T08:15:07.000Z</time>
      </trkpt>
      <trkpt lat="44.13345" lon="5.88365">
        <ele>865</ele>
        <time>2021-06-01T08:15:08.000Z</time>
      </trkpt>
      <trkpt lat="44.13345" lon="5.88366">
        <ele>865</ele>
        <time>2021-06-01T08:15:09.000Z</time>
      </trkpt>
      <trkpt lat="44.13345" lon="5.88366">
        <ele>864</ele>
        <time>2021-06-01T08:15:10.000Z</time>
      </trkpt>
      <trkpt lat="44.13345" lon="5.88366">
        <ele>864</ele>
        <time>2021-06-01T08:15:11.000Z</time>
      </trkpt>
      <trkpt lat="44.13346" lon="5.88366">
        <ele>863</ele>
        <time>2021-06-01T08:15:12.000Z</time>
      </trkpt>
      <trkpt lat="44.13346" lon="5.88366">
        <ele>863</ele>
        <time>2021-06-01T08:15:13.000Z</time>
      </trkpt>
      <trkpt lat="44.13347" lon="5.88366">
        <ele>862</ele>
        <time>2021-06-01T08:15:14.000Z</time>
      </trkpt>
      <trkpt lat="44.13347" lon="5.88366">
        <ele>861</ele>
        <time>2021-06-01T08:15:15.000Z</time>
      </trkpt>
      <trkpt lat="44.13348" lon="5.88366">
        <ele>861</ele>
        <time>2021-06-01T08:15:16.000Z</time>
      </trkpt>
      <trkpt lat="44.13348" lon="5.88366">
        <ele>860</ele>
        <time>2021-06-01T08:15:17.000Z</time>
      </trkpt>
      <trkpt lat="44.13348" lon="5.88367">
        <ele>860</ele>
        <time>2021-06-01T08:15:18.000Z</time>
      </trkpt>
      <trkpt lat="44.13348" lon="5.88367">
        <ele>859</ele>
        <time>2021-06-01T08:15:19.000Z</time>
      </trkpt>
      <trkpt lat="44.13349" lon="5.88366">
        <ele>859</ele>
        <time>2021-06-01T08:15:20.000Z</time>
      </trkpt>
      <trkpt lat="44.13349" lon="5.88366">
        <ele>858</ele>
        <time>2021-06-01T08:15:21.000Z</time>
      </trkpt>
      <trkpt lat="44.13349" lon="5.88366">
        <ele>858</ele>
        <time>2021-06-01T08:15:22.000Z</time>
      </trkpt>
      <trkpt lat="44.13349" lon="5.88366">
        <ele>857</ele>
        <time>2021-06-01T08:15:23.000Z</time>
      </trkpt>
      <trkpt lat="44.13349" lon="5.88366">
        <ele>857</ele>
        <time>2021-06-01T08:15:24.000Z</time>
      </trkpt>
      <trkpt lat="44.13349" lon="5.88367">
        <ele>856</ele>
        <time>2021-06-01T08:15:25.000Z</time>
      </trkpt>
      <trkpt lat="44.13349" lon="5.88367">
        <ele>856</ele>
        <time>2021-06-01T08:15:26.000Z</time>
      </trkpt>
      <trkpt lat="44.13349" lon="5.88367">
        <ele>855</ele>
        <time>2021-06-01T08:15:27.000Z</time>
      </trkpt>
      <trkpt lat="44.13349" lon="5.88366">
        <ele>855</ele>
        <time>2021-06-01T08:15:28.000Z</time>
      </trkpt>
      <trkpt lat="44.1335" lon="5.88367">
        <ele>854</ele>
        <time>2021-06-01T08:15:29.000Z</time>
      </trkpt>
      <trkpt lat="44.1335" lon="5.88367">
        <ele>854</ele>
        <time>2021-06-01T08:15:30.000Z</time>
      </trkpt>
      <trkpt lat="44.1335" lon="5.88367">
        <ele>854</ele>
        <time>2021-06-01T08:15:31.000Z</time>
      </trkpt>
      <trkpt lat="44.1335" lon="5.88367">
        <ele>853</ele>
        <time>2021-06-01T08:15:32.000Z</time>
      </trkpt>
      <trkpt lat="44.1335" lon="5.88367">
        <ele>853</ele>
        <time>2021-06-01T08:15:33.000Z</time>
      </trkpt>
      <trkpt lat="44.1335" lon="5.88367">
        <ele>852</ele>
        <time>2021-06-01T08:15:34.000Z</time>
      </trkpt>
      <trkpt lat="44.1335" lon="5.88367">
        <ele>852</ele>
        <time>2021-06-01T08:15:35.000Z</time>
      </trkpt>
      <trkpt lat="44.13349" lon="5.88367">
        <ele>852</ele>
        <time>2021-06-01T08:15:36.000Z</time>
      </trkpt>
      <trkpt lat="44.13349" lon="5.88367">
        <ele>851</ele>
        <time>2021-06-01T08:15:37.000Z</time>
      </trkpt>
      <trkpt lat="44.13349" lon="5.88367">
        <ele>851</ele>
        <time>2021-06-01T08:15:38.000Z</time>
      </trkpt>
      <trkpt lat="44.13348" lon="5.88367">
        <ele>851</ele>
        <time>2021-06-01T08:15:39.000Z</time>
      </trkpt>
      <trkpt lat="44.13348" lon="5.88366">
        <ele>851</ele>
        <time>2021-06-01T08:15:40.000Z</time>
      </trkpt>
      <trkpt lat="44.13348" lon="5.88366">
        <ele>850</ele>
        <time>2021-06-01T08:15:41.000Z</time>
      </trkpt>
      <trkpt lat="44.13348" lon="5.88366">
        <ele>850</ele>
        <time>2021-06-01T08:15:42.000Z</time>
      </trkpt>
      <trkpt lat="44.13349" lon="5.88365">
        <ele>850</ele>
        <time>2021-06-01T08:15:43.000Z</time>
      </trkpt>
      <trkpt lat="44.13349" lon="5.88365">
        <ele>850</ele>
        <time>2021-06-01T08:15:44.000Z</time>
      </trkpt>
      <trkpt lat="44.1335" lon="5.88365">
        <ele>850</ele>
        <time>2021-06-01T08:15:45.000Z</time>
      </trkpt>
      <trkpt lat="44.13351" lon="5.88364">
        <ele>850</ele>
        <time>2021-06-01T08:15:46.000Z</time>
      </trkpt>
      <trkpt lat="44.13351" lon="5.88363">
        <ele>849</ele>
        <time>2021-06-01T08:15:47.000Z</time>
      </trkpt>
      <trkpt lat="44.13352" lon="5.88363">
        <ele>849</ele>
        <time>2021-06-01T08:15:48.000Z</time>
      </trkpt>
      <trkpt lat="44.13352" lon="5.88362">
        <ele>849</ele>
        <time>2021-06-01T08:15:49.000Z</time>
      </trkpt>
      <trkpt lat="44.13353" lon="5.88362">
        <ele>849</ele>
        <time>2021-06-01T08:15:50.000Z</time>
      </trkpt>
      <trkpt lat="44.13353" lon="5.88362">
        <ele>849</ele>
        <time>2021-06-01T08:15:51.000Z</time>
      </trkpt>
      <trkpt lat="44.13354" lon="5.88362">
        <ele>849</ele>
        <time>2021-06-01T08:15:52.000Z</time>
      </trkpt>
      <trkpt lat="44.13354" lon="5.88361">
        <ele>849</ele>
        <time>2021-06-01T08:15:53.000Z</time>
      </trkpt>
      <trkpt lat="44.13355" lon="5.88361">
        <ele>849</ele>
        <time>2021-06-01T08:15:54.000Z</time>
      </trkpt>
      <trkpt lat="44.13355" lon="5.8836">
        <ele>849</ele>
        <time>2021-06-01T08:15:55.000Z</time>
      </trkpt>
      <trkpt lat="44.13356" lon="5.88359">
        <ele>848</ele>
        <time>2021-06-01T08:15:56.000Z</time>
      </trkpt>
      <trkpt lat="44.13356" lon="5.88358">
        <ele>848</ele>
        <time>2021-06-01T08:15:57.000Z</time>
      </trkpt>
      <trkpt lat="44.13356" lon="5.88357">
        <ele>848</ele>
        <time>2021-06-01T08:15:58.000Z</time>
      </trkpt>
      <trkpt lat="44.13356" lon="5.88357">
        <ele>848</ele>
        <time>2021-06-01T08:15:59.000Z</time>
      </trkpt>
      <trkpt lat="44.13355" lon="5.88357">
        <ele>848</ele>
        <time>2021-06-01T08:16:00.000Z</time>
      </trkpt>
      <trkpt lat="44.13354" lon="5.88356">
        <ele>848</ele>
        <time>2021-06-01T08:16:01.000Z</time>
      </trkpt>
      <trkpt lat="44.13354" lon="5.88356">
        <ele>848</ele>
        <time>2021-06-01T08:16:02.000Z</time>
      </trkpt>
      <trkpt lat="44.13353" lon="5.88356">
        <ele>847</ele>
        <time>2021-06-01T08:16:03.000Z</time>
      </trkpt>
      <trkpt lat="44.13352" lon="5.88355">
        <ele>847</ele>
        <time>2021-06-01T08:16:04.000Z</time>
      </trkpt>
      <trkpt lat="44.13351" lon="5.88355">
        <ele>847</ele>
        <time>2021-06-01T08:16:05.000Z</time>
      </trkpt>
      <trkpt lat="44.13351" lon="5.88355">
        <ele>847</ele>
        <time>2021-06-01T08:16:06.000Z</time>
      </trkpt>
      <trkpt lat="44.1335" lon="5.88355">
        <ele>847</ele>
        <time>2021-06-01T08:16:07.000Z</time>
      </trkpt>
      <trkpt lat="44.13349" lon="5.88356">
        <ele>847</ele>
        <time>2021-06-01T08:16:08.000Z</time>
      </trkpt>
      <trkpt lat="44.13348" lon="5.88356">
        <ele>847</ele>
        <time>2021-06-01T08:16:09.000Z</time>
      </trkpt>
      <trkpt lat="44.13347" lon="5.88356">
        <ele>846</ele>
        <time>2021-06-01T08:16:10.000Z</time>
      </trkpt>
      <trkpt lat="44.13347" lon="5.88355">
        <ele>846</ele>
        <time>2021-06-01T08:16:11.000Z</time>
      </trkpt>
      <trkpt lat="44.13346" lon="5.88355">
        <ele>846</ele>
        <time>2021-06-01T08:16:12.000Z</time>
      </trkpt>
      <trkpt lat="44.13346" lon="5.88354">
        <ele>846</ele>
        <time>2021-06-01T08:16:13.000Z</time>
      </trkpt>
      <trkpt lat="44.13345" lon="5.88354">
        <ele>845</ele>
        <time>2021-06-01T08:16:14.000Z</time>
      </trkpt>
      <trkpt lat="44.13345" lon="5.88353">
        <ele>845</ele>
        <time>2021-06-01T08:16:15.000Z</time>
      </trkpt>
      <trkpt lat="44.13345" lon="5.88353">
        <ele>845</ele>
        <time>2021-06-01T08:16:16.000Z</time>
      </trkpt>
      <trkpt lat="44.13344" lon="5.88353">
        <ele>845</ele>
        <time>2021-06-01T08:16:17.000Z</time>
      </trkpt>
      <trkpt lat="44.13343" lon="5.88352">
        <ele>845</ele>
        <time>2021-06-01T08:16:18.000Z</time>
      </trkpt>
      <trkpt lat="44.13343" lon="5.88352">
        <ele>845</ele>
        <time>2021-06-01T08:16:19.000Z</time>
      </trkpt>
      <trkpt lat="44.13343" lon="5.88352">
        <ele>845</ele>
        <time>2021-06-01T08:16:20.000Z</time>
      </trkpt>
      <trkpt lat="44.13342" lon="5.88353">
        <ele>844</ele>
        <time>2021-06-01T08:16:21.000Z</time>
      </trkpt>
      <trkpt lat="44.13342" lon="5.88353">
        <ele>844</ele>
        <time>2021-06-01T08:16:22.000Z</time>
      </trkpt>
      <trkpt lat="44.13341" lon="5.88353">
        <ele>844</ele>
        <time>2021-06-01T08:16:23.000Z</time>
      </trkpt>
      <trkpt lat="44.1334" lon="5.88353">
        <ele>844</ele>
        <time>2021-06-01T08:16:24.000Z</time>
      </trkpt>
      <trkpt lat="44.1334" lon="5.88353">
        <ele>844</ele>
        <time>2021-06-01T08:16:25.000Z</time>
      </trkpt>
      <trkpt lat="44.13339" lon="5.88353">
        <ele>844</ele>
        <time>2021-06-01T08:16:26.000Z</time>
      </trkpt>
      <trkpt lat="44.13338" lon="5.88353">
        <ele>843</ele>
        <time>2021-06-01T08:16:27.000Z</time>
      </trkpt>
      <trkpt lat="44.13338" lon="5.88354">
        <ele>843</ele>
        <time>2021-06-01T08:16:28.000Z</time>
      </trkpt>
      <trkpt lat="44.13337" lon="5.88354">
        <ele>843</ele>
        <time>2021-06-01T08:16:29.000Z</time>
      </trkpt>
      <trkpt lat="44.13336" lon="5.88354">
        <ele>843</ele>
        <time>2021-06-01T08:16:30.000Z</time>
      </trkpt>
      <trkpt lat="44.13336" lon="5.88355">
        <ele>843</ele>
        <time>2021-06-01T08:16:31.000Z</time>
      </trkpt>
      <trkpt lat="44.13335" lon="5.88355">
        <ele>843</ele>
        <time>2021-06-01T08:16:32.000Z</time>
      </trkpt>
      <trkpt lat="44.13334" lon="5.88356">
        <ele>843</ele>
        <time>2021-06-01T08:16:33.000Z</time>
      </trkpt>
      <trkpt lat="44.13334" lon="5.88356">
        <ele>843</ele>
        <time>2021-06-01T08:16:34.000Z</time>
      </trkpt>
      <trkpt lat="44.13334" lon="5.88357">
        <ele>842</ele>
        <time>2021-06-01T08:16:35.000Z</time>
      </trkpt>
      <trkpt lat="44.13333" lon="5.88358">
        <ele>842</ele>
        <time>2021-06-01T08:16:36.000Z</time>
      </trkpt>
      <trkpt lat="44.13333" lon="5.88359">
        <ele>842</ele>
        <time>2021-06-01T08:16:37.000Z</time>
      </trkpt>
      <trkpt lat="44.13332" lon="5.8836">
        <ele>842</ele>
        <time>2021-06-01T08:16:38.000Z</time>
      </trkpt>
      <trkpt lat="44.13332" lon="5.8836">
        <ele>842</ele>
        <time>2021-06-01T08:16:39.000Z</time>
      </trkpt>
      <trkpt lat="44.13332" lon="5.88361">
        <ele>842</ele>
        <time>2021-06-01T08:16:40.000Z</time>
      </trkpt>
      <trkpt lat="44.13331" lon="5.88361">
        <ele>842</ele>
        <time>2021-06-01T08:16:41.000Z</time>
      </trkpt>
      <trkpt lat="44.1333" lon="5.88361">
        <ele>842</ele>
        <time>2021-06-01T08:16:42.000Z</time>
      </trkpt>
      <trkpt lat="44.1333" lon="5.88361">
        <ele>841</ele>
        <time>2021-06-01T08:16:43.000Z</time>
      </trkpt>
      <trkpt lat="44.13329" lon="5.88361">
        <ele>841</ele>
        <time>2021-06-01T08:16:44.000Z</time>
      </trkpt>
      <trkpt lat="44.13329" lon="5.88361">
        <ele>841</ele>
        <time>2021-06-01T08:16:45.000Z</time>
      </trkpt>
      <trkpt lat="44.13329" lon="5.88361">
        <ele>841</ele>
        <time>2021-06-01T08:16:46.000Z</time>
      </trkpt>
      <trkpt lat="44.13328" lon="5.88362">
        <ele>841</ele>
        <time>2021-06-01T08:16:47.000Z</time>
      </trkpt>
      <trkpt lat="44.13327" lon="5.88362">
        <ele>840</ele>
        <time>2021-06-01T08:16:48.000Z</time>
      </trkpt>
      <trkpt lat="44.13327" lon="5.88362">
        <ele>840</ele>
        <time>2021-06-01T08:16:49.000Z</time>
      </trkpt>
      <trkpt lat="44.13327" lon="5.88362">
        <ele>840</ele>
        <time>2021-06-01T08:16:50.000Z</time>
      </trkpt>
      <trkpt lat="44.13327" lon="5.88363">
        <ele>840</ele>
        <time>2021-06-01T08:16:51.000Z</time>
      </trkpt>
      <trkpt lat="44.13327" lon="5.88363">
        <ele>840</ele>
        <time>2021-06-01T08:16:52.000Z</time>
      </trkpt>
      <trkpt lat="44.13327" lon="5.88363">
        <ele>840</ele>
        <time>2021-06-01T08:16:53.000Z</time>
      </trkpt>
      <trkpt lat="44.13326" lon="5.88363">
        <ele>841</ele>
        <time>2021-06-01T08:16:54.000Z</time>
      </trkpt>
      <trkpt lat="44.13326" lon="5.88364">
        <ele>841</ele>
        <time>2021-06-01T08:16:55.000Z</time>
      </trkpt>
      <trkpt lat="44.13326" lon="5.88364">
        <ele>841</ele>
        <time>2021-06-01T08:16:56.000Z</time>
      </trkpt>
      <trkpt lat="44.13326" lon="5.88364">
        <ele>841</ele>
        <time>2021-06-01T08:16:57.000Z</time>
      </trkpt>
      <trkpt lat="44.13325" lon="5.88364">
        <ele>841</ele>
        <time>2021-06-01T08:16:58.000Z</time>
      </trkpt>
      <trkpt lat="44.13325" lon="5.88364">
        <ele>841</ele>
        <time>2021-06-01T08:16:59.000Z</time>
      </trkpt>
      <trkpt lat="44.13325" lon="5.88364">
        <ele>841</ele>
        <time>2021-06-01T08:17:00.000Z</time>
      </trkpt>
      <trkpt lat="44.13325" lon="5.88364">
        <ele>841</ele>
        <time>2021-06-01T08:17:01.000Z</time>
      </trkpt>
      <trkpt lat="44.13324" lon="5.88365">
        <ele>841</ele>
        <time>2021-06-01T08:17:02.000Z</time>
      </trkpt>
      <trkpt lat="44.13324" lon="5.88365">
        <ele>841</ele>
        <time>2021-06-01T08:17:03.000Z</time>
      </trkpt>
      <trkpt lat="44.13324" lon="5.88365">
        <ele>841</ele>
        <time>2021-06-01T08:17:04.000Z</time>
      </trkpt>
      <trkpt lat="44.13324" lon="5.88365">
        <ele>841</ele>
        <time>2021-06-01T08:17:05.000Z</time>
      </trkpt>
      <trkpt lat="44.13323" lon="5.88365">
        <ele>841</ele>
        <time>2021-06-01T08:17:06.000Z</time>
      </trkpt>
      <trkpt lat="44.13323" lon="5.88365">
        <ele>841</ele>
        <time>2021-06-01T08:17:07.000Z</time>
      </trkpt>
      <trkpt lat="44.13322" lon="5.88365">
        <ele>841</ele>
        <time>2021-06-01T08:17:08.000Z</time>
      </trkpt>
      <trkpt lat="44.13321" lon="5.88366">
        <ele>841</ele>
        <time>2021-06-01T08:17:09.000Z</time>
      </trkpt>
      <trkpt lat="44.1332" lon="5.88365">
        <ele>841</ele>
        <time>2021-06-01T08:17:10.000Z</time>
      </trkpt>
      <trkpt lat="44.1332" lon="5.88365">
        <ele>841</ele>
        <time>2021-06-01T08:17:11.000Z</time>
      </trkpt>
      <trkpt lat="44.13319" lon="5.88366">
        <ele>841</ele>
        <time>2021-06-01T08:17:12.000Z</time>
      </trkpt>
      <trkpt lat="44.13319" lon="5.88366">
        <ele>841</ele>
        <time>2021-06-01T08:17:13.000Z</time>
      </trkpt>
      <trkpt lat="44.13319" lon="5.88366">
        <ele>841</ele>
        <time>2021-06-01T08:17:14.000Z</time>
      </trkpt>
      <trkpt lat="44.13318" lon="5.88366">
        <ele>840</ele>
        <time>2021-06-01T08:17:15.000Z</time>
      </trkpt>
      <trkpt lat="44.13318" lon="5.88366">
        <ele>840</ele>
        <time>2021-06-01T08:17:16.000Z</time>
      </trkpt>
      <trkpt lat="44.13317" lon="5.88366">
        <ele>840</ele>
        <time>2021-06-01T08:17:17.000Z</time>
      </trkpt>
      <trkpt lat="44.13317" lon="5.88366">
        <ele>840</ele>
        <time>2021-06-01T08:17:18.000Z</time>
      </trkpt>
      <trkpt lat="44.13317" lon="5.88366">
        <ele>840</ele>
        <time>2021-06-01T08:17:20.000Z</time>
      </trkpt>
      <trkpt lat="44.13317" lon="5.88366">
        <ele>840</ele>
        <time>2021-06-01T08:17:21.000Z</time>
      </trkpt>
      <trkpt lat="44.13316" lon="5.88367">
        <ele>840</ele>
        <time>2021-06-01T08:17:22.000Z</time>
      </trkpt>
      <trkpt lat="44.13316" lon="5.88367">
        <ele>840</ele>
        <time>2021-06-01T08:17:23.000Z</time>
      </trkpt>
      <trkpt lat="44.13315" lon="5.88367">
        <ele>840</ele>
        <time>2021-06-01T08:17:24.000Z</time>
      </trkpt>
      <trkpt lat="44.13315" lon="5.88367">
        <ele>840</ele>
        <time>2021-06-01T08:17:25.000Z</time>
      </trkpt>
      <trkpt lat="44.13314" lon="5.88367">
        <ele>840</ele>
        <time>2021-06-01T08:17:26.000Z</time>
      </trkpt>
      <trkpt lat="44.13314" lon="5.88367">
        <ele>840</ele>
        <time>2021-06-01T08:17:27.000Z</time>
      </trkpt>
      <trkpt lat="44.13314" lon="5.88367">
        <ele>840</ele>
        <time>2021-06-01T08:17:28.000Z</time>
      </trkpt>
      <trkpt lat="44.13313" lon="5.88368">
        <ele>840</ele>
        <time>2021-06-01T08:17:29.000Z</time>
      </trkpt>
      <trkpt lat="44.13313" lon="5.88368">
        <ele>840</ele>
        <time>2021-06-01T08:17:30.000Z</time>
      </trkpt>
      <trkpt lat="44.13312" lon="5.88368">
        <ele>839</ele>
        <time>2021-06-01T08:17:31.000Z</time>
      </trkpt>
      <trkpt lat="44.13312" lon="5.88368">
        <ele>839</ele>
        <time>2021-06-01T08:17:32.000Z</time>
      </trkpt>
      <trkpt lat="44.13311" lon="5.88369">
        <ele>839</ele>
        <time>2021-06-01T08:17:33.000Z</time>
      </trkpt>
      <trkpt lat="44.1331" lon="5.88369">
        <ele>839</ele>
        <time>2021-06-01T08:17:34.000Z</time>
      </trkpt>
      <trkpt lat="44.13309" lon="5.8837">
        <ele>839</ele>
        <time>2021-06-01T08:17:35.000Z</time>
      </trkpt>
      <trkpt lat="44.13309" lon="5.8837">
        <ele>839</ele>
        <time>2021-06-01T08:17:36.000Z</time>
      </trkpt>
      <trkpt lat="44.13308" lon="5.88371">
        <ele>839</ele>
        <time>2021-06-01T08:17:37.000Z</time>
      </trkpt>
      <trkpt lat="44.13307" lon="5.88371">
        <ele>839</ele>
        <time>2021-06-01T08:17:38.000Z</time>
      </trkpt>
      <trkpt lat="44.13307" lon="5.88371">
        <ele>839</ele>
        <time>2021-06-01T08:17:39.000Z</time>
      </trkpt>
      <trkpt lat="44.13306" lon="5.88371">
        <ele>839</ele>
        <time>2021-06-01T08:17:40.000Z</time>
      </trkpt>
      <trkpt lat="44.13306" lon="5.88372">
        <ele>839</ele>
        <time>2021-06-01T08:17:41.000Z</time>
      </trkpt>
      <trkpt lat="44.13305" lon="5.88373">
        <ele>839</ele>
        <time>2021-06-01T08:17:42.000Z</time>
      </trkpt>
      <trkpt lat="44.13305" lon="5.88373">
        <ele>839</ele>
        <time>2021-06-01T08:17:43.000Z</time>
      </trkpt>
      <trkpt lat="44.13305" lon="5.88373">
        <ele>839</ele>
        <time>2021-06-01T08:17:44.000Z</time>
      </trkpt>
      <trkpt lat="44.13305" lon="5.88373">
        <ele>840</ele>
        <time>2021-06-01T08:17:45.000Z</time>
      </trkpt>
      <trkpt lat="44.13305" lon="5.88373">
        <ele>840</ele>
        <time>2021-06-01T08:17:46.000Z</time>
      </trkpt>
      <trkpt lat="44.13305" lon="5.88373">
        <ele>840</ele>
        <time>2021-06-01T08:17:47.000Z</time>
      </trkpt>
      <trkpt lat="44.13305" lon="5.88373">
        <ele>840</ele>
        <time>2021-06-01T08:17:48.000Z</time>
      </trkpt>
      <trkpt lat="44.13305" lon="5.88373">
        <ele>840</ele>
        <time>2021-06-01T08:17:49.000Z</time>
      </trkpt>
      <trkpt lat="44.13305" lon="5.88373">
        <ele>840</ele>
        <time>2021-06-01T08:17:50.000Z</time>
      </trkpt>
      <trkpt lat="44.13304" lon="5.88373">
        <ele>840</ele>
        <time>2021-06-01T08:17:51.000Z</time>
      </trkpt>
      <trkpt lat="44.13305" lon="5.88373">
        <ele>840</ele>
        <time>2021-06-01T08:17:52.000Z</time>
      </trkpt>
      <trkpt lat="44.13304" lon="5.88372">
        <ele>840</ele>
        <time>2021-06-01T08:17:53.000Z</time>
      </trkpt>
      <trkpt lat="44.13304" lon="5.88373">
        <ele>840</ele>
        <time>2021-06-01T08:17:54.000Z</time>
      </trkpt>
      <trkpt lat="44.13304" lon="5.88373">
        <ele>840</ele>
        <time>2021-06-01T08:17:55.000Z</time>
      </trkpt>
      <trkpt lat="44.13303" lon="5.88374">
        <ele>840</ele>
        <time>2021-06-01T08:17:56.000Z</time>
      </trkpt>
      <trkpt lat="44.13303" lon="5.88374">
        <ele>840</ele>
        <time>2021-06-01T08:17:57.000Z</time>
      </trkpt>
      <trkpt lat="44.13303" lon="5.88374">
        <ele>840</ele>
        <time>2021-06-01T08:17:58.000Z</time>
      </trkpt>
      <trkpt lat="44.13302" lon="5.88374">
        <ele>840</ele>
        <time>2021-06-01T08:17:59.000Z</time>
      </trkpt>
      <trkpt lat="44.13302" lon="5.88374">
        <ele>840</ele>
        <time>2021-06-01T08:18:00.000Z</time>
      </trkpt>
      <trkpt lat="44.13302" lon="5.88374">
        <ele>840</ele>
        <time>2021-06-01T08:18:01.000Z</time>
      </trkpt>
      <trkpt lat="44.13302" lon="5.88374">
        <ele>840</ele>
        <time>2021-06-01T08:18:02.000Z</time>
      </trkpt>
      <trkpt lat="44.13302" lon="5.88374">
        <ele>840</ele>
        <time>2021-06-01T08:18:03.000Z</time>
      </trkpt>
      <trkpt lat="44.13302" lon="5.88374">
        <ele>840</ele>
        <time>2021-06-01T08:18:04.000Z</time>
      </trkpt>
      <trkpt lat="44.13302" lon="5.88374">
        <ele>840</ele>
        <time>2021-06-01T08:18:05.000Z</time>
      </trkpt>
      <trkpt lat="44.13302" lon="5.88374">
        <ele>840</ele>
        <time>2021-06-01T08:18:06.000Z</time>
      </trkpt>
      <trkpt lat="44.13302" lon="5.88374">
        <ele>840</ele>
        <time>2021-06-01T08:18:07.000Z</time>
      </trkpt>
      <trkpt lat="44.13302" lon="5.88374">
        <ele>840</ele>
        <time>2021-06-01T08:18:08.000Z</time>
      </trkpt>
      <trkpt lat="44.13302" lon="5.88374">
        <ele>840</ele>
        <time>2021-06-01T08:18:09.000Z</time>
      </trkpt>
      <trkpt lat="44.13302" lon="5.88375">
        <ele>840</ele>
        <time>2021-06-01T08:18:10.000Z</time>
      </trkpt>
      <trkpt lat="44.13302" lon="5.88375">
        <ele>840</ele>
        <time>2021-06-01T08:18:11.000Z</time>
      </trkpt>
      <trkpt lat="44.13301" lon="5.88375">
        <ele>839</ele>
        <time>2021-06-01T08:18:12.000Z</time>
      </trkpt>
      <trkpt lat="44.13301" lon="5.88375">
        <ele>839</ele>
        <time>2021-06-01T08:18:13.000Z</time>
      </trkpt>
      <trkpt lat="44.13301" lon="5.88375">
        <ele>839</ele>
        <time>2021-06-01T08:18:14.000Z</time>
      </trkpt>
      <trkpt lat="44.13301" lon="5.88375">
        <ele>839</ele>
        <time>2021-06-01T08:18:15.000Z</time>
      </trkpt>
      <trkpt lat="44.13301" lon="5.88375">
        <ele>839</ele>
        <time>2021-06-01T08:18:16.000Z</time>
      </trkpt>
      <trkpt lat="44.13301" lon="5.88375">
        <ele>839</ele>
        <time>2021-06-01T08:18:17.000Z</time>
      </trkpt>
      <trkpt lat="44.13301" lon="5.88376">
        <ele>839</ele>
        <time>2021-06-01T08:18:18.000Z</time>
      </trkpt>
      <trkpt lat="44.13301" lon="5.88376">
        <ele>839</ele>
        <time>2021-06-01T08:18:19.000Z</time>
      </trkpt>
      <trkpt lat="44.133" lon="5.88376">
        <ele>838</ele>
        <time>2021-06-01T08:18:20.000Z</time>
      </trkpt>
      <trkpt lat="44.133" lon="5.88376">
        <ele>838</ele>
        <time>2021-06-01T08:18:21.000Z</time>
      </trkpt>
      <trkpt lat="44.133" lon="5.88376">
        <ele>838</ele>
        <time>2021-06-01T08:18:22.000Z</time>
      </trkpt>
      <trkpt lat="44.133" lon="5.88377">
        <ele>838</ele>
        <time>2021-06-01T08:18:23.000Z</time>
      </trkpt>
      <trkpt lat="44.133" lon="5.88377">
        <ele>838</ele>
        <time>2021-06-01T08:18:24.000Z</time>
      </trkpt>
      <trkpt lat="44.133" lon="5.88377">
        <ele>838</ele>
        <time>2021-06-01T08:18:25.000Z</time>
      </trkpt>
      <trkpt lat="44.133" lon="5.88377">
        <ele>838</ele>
        <time>2021-06-01T08:18:26.000Z</time>
      </trkpt>
      <trkpt lat="44.133" lon="5.88377">
        <ele>838</ele>
        <time>2021-06-01T08:18:27.000Z</time>
      </trkpt>
      <trkpt lat="44.13299" lon="5.88377">
        <ele>838</ele>
        <time>2021-06-01T08:18:28.000Z</time>
      </trkpt>
      <trkpt lat="44.13299" lon="5.88377">
        <ele>838</ele>
        <time>2021-06-01T08:18:29.000Z</time>
      </trkpt>
      <trkpt lat="44.13298" lon="5.88378">
        <ele>838</ele>
        <time>2021-06-01T08:18:30.000Z</time>
      </trkpt>
      <trkpt lat="44.13298" lon="5.88378">
        <ele>838</ele>
        <time>2021-06-01T08:18:31.000Z</time>
      </trkpt>
      <trkpt lat="44.13298" lon="5.88378">
        <ele>838</ele>
        <time>2021-06-01T08:18:32.000Z</time>
      </trkpt>
      <trkpt lat="44.13298" lon="5.88378">
        <ele>838</ele>
        <time>2021-06-01T08:18:33.000Z</time>
      </trkpt>
      <trkpt lat="44.13298" lon="5.88378">
        <ele>838</ele>
        <time>2021-06-01T08:18:34.000Z</time>
      </trkpt>
      <trkpt lat="44.13298" lon="5.88378">
        <ele>838</ele>
        <time>2021-06-01T08:18:35.000Z</time>
      </trkpt>
      <trkpt lat="44.13298" lon="5.88377">
        <ele>838</ele>
        <time>2021-06-01T08:18:36.000Z</time>
      </trkpt>
      <trkpt lat="44.13299" lon="5.88377">
        <ele>838</ele>
        <time>2021-06-01T08:18:37.000Z</time>
      </trkpt>
      <trkpt lat="44.13299" lon="5.88377">
        <ele>838</ele>
        <time>2021-06-01T08:18:38.000Z</time>
      </trkpt>
      <trkpt lat="44.13299" lon="5.88377">
        <ele>838</ele>
        <time>2021-06-01T08:18:39.000Z</time>
      </trkpt>
      <trkpt lat="44.13299" lon="5.88377">
        <ele>838</ele>
        <time>2021-06-01T08:18:40.000Z</time>
      </trkpt>
      <trkpt lat="44.13299" lon="5.88377">
        <ele>838</ele>
        <time>2021-06-01T08:18:41.000Z</time>
      </trkpt>
      <trkpt lat="44.13299" lon="5.88377">
        <ele>838</ele>
        <time>2021-06-01T08:18:42.000Z</time>
      </trkpt>
      <trkpt lat="44.13299" lon="5.88377">
        <ele>838</ele>
        <time>2021-06-01T08:18:43.000Z</time>
      </trkpt>
      <trkpt lat="44.13299" lon="5.88377">
        <ele>838</ele>
        <time>2021-06-01T08:18:44.000Z</time>
      </trkpt>
      <trkpt lat="44.13299" lon="5.88377">
        <ele>838</ele>
        <time>2021-06-01T08:18:45.000Z</time>
      </trkpt>
      <trkpt lat="44.13299" lon="5.88377">
        <ele>838</ele>
        <time>2021-06-01T08:18:46.000Z</time>
      </trkpt>
      <trkpt lat="44.13299" lon="5.88377">
        <ele>838</ele>
        <time>2021-06-01T08:18:47.000Z</time>
      </trkpt>
      <trkpt lat="44.13299" lon="5.88377">
        <ele>838</ele>
        <time>2021-06-01T08:18:48.000Z</time>
      </trkpt>
      <trkpt lat="44.13299" lon="5.88378">
        <ele>838</ele>
        <time>2021-06-01T08:18:49.000Z</time>
      </trkpt>
      <trkpt lat="44.13298" lon="5.88378">
        <ele>838</ele>
        <time>2021-06-01T08:18:50.000Z</time>
      </trkpt>
      <trkpt lat="44.13298" lon="5.88378">
        <ele>838</ele>
        <time>2021-06-01T08:18:51.000Z</time>
      </trkpt>
      <trkpt lat="44.13298" lon="5.88378">
        <ele>838</ele>
        <time>2021-06-01T08:18:52.000Z</time>
      </trkpt>
      <trkpt lat="44.13298" lon="5.88378">
        <ele>837</ele>
        <time>2021-06-01T08:18:53.000Z</time>
      </trkpt>
      <trkpt lat="44.13298" lon="5.88378">
        <ele>837</ele>
        <time>2021-06-01T08:18:54.000Z</time>
      </trkpt>
      <trkpt lat="44.13298" lon="5.88378">
        <ele>837</ele>
        <time>2021-06-01T08:18:55.000Z</time>
      </trkpt>
      <trkpt lat="44.13298" lon="5.88379">
        <ele>837</ele>
        <time>2021-06-01T08:18:56.000Z</time>
      </trkpt>
      <trkpt lat="44.13298" lon="5.88379">
        <ele>837</ele>
        <time>2021-06-01T08:18:57.000Z</time>
      </trkpt>
      <trkpt lat="44.13298" lon="5.88379">
        <ele>837</ele>
        <time>2021-06-01T08:18:58.000Z</time>
      </trkpt>
      <trkpt lat="44.13298" lon="5.88379">
        <ele>837</ele>
        <time>2021-06-01T08:18:59.000Z</time>
      </trkpt>
      <trkpt lat="44.13298" lon="5.88379">
        <ele>837</ele>
        <time>2021-06-01T08:19:00.000Z</time>
      </trkpt>
      <trkpt lat="44.13298" lon="5.88379">
        <ele>837</ele>
        <time>2021-06-01T08:19:02.000Z</time>
      </trkpt>
      <trkpt lat="44.13298" lon="5.88379">
        <ele>837</ele>
        <time>2021-06-01T08:19:03.000Z</time>
      </trkpt>
      <trkpt lat="44.13298" lon="5.8838">
        <ele>837</ele>
        <time>2021-06-01T08:19:04.000Z</time>
      </trkpt>
      <trkpt lat="44.13298" lon="5.8838">
        <ele>837</ele>
        <time>2021-06-01T08:19:05.000Z</time>
      </trkpt>
      <trkpt lat="44.13298" lon="5.8838">
        <ele>836</ele>
        <time>2021-06-01T08:19:06.000Z</time>
      </trkpt>
      <trkpt lat="44.13298" lon="5.8838">
        <ele>836</ele>
        <time>2021-06-01T08:19:07.000Z</time>
      </trkpt>
      <trkpt lat="44.13298" lon="5.8838">
        <ele>836</ele>
        <time>2021-06-01T08:19:08.000Z</time>
      </trkpt>
      <trkpt lat="44.13298" lon="5.8838">
        <ele>836</ele>
        <time>2021-06-01T08:19:09.000Z</time>
      </trkpt>
      <trkpt lat="44.13298" lon="5.88381">
        <ele>836</ele>
        <time>2021-06-01T08:19:10.000Z</time>
      </trkpt>
      <trkpt lat="44.13298" lon="5.88381">
        <ele>836</ele>
        <time>2021-06-01T08:19:11.000Z</time>
      </trkpt>
      <trkpt lat="44.13298" lon="5.88381">
        <ele>836</ele>
        <time>2021-06-01T08:19:12.000Z</time>
      </trkpt>
      <trkpt lat="44.13298" lon="5.88381">
        <ele>836</ele>
        <time>2021-06-01T08:19:13.000Z</time>
      </trkpt>
      <trkpt lat="44.13297" lon="5.88382">
        <ele>835</ele>
        <time>2021-06-01T08:19:14.000Z</time>
      </trkpt>
      <trkpt lat="44.13297" lon="5.88382">
        <ele>835</ele>
        <time>2021-06-01T08:19:15.000Z</time>
      </trkpt>
      <trkpt lat="44.13297" lon="5.88382">
        <ele>835</ele>
        <time>2021-06-01T08:19:16.000Z</time>
      </trkpt>
      <trkpt lat="44.13297" lon="5.88382">
        <ele>835</ele>
        <time>2021-06-01T08:19:17.000Z</time>
      </trkpt>
      <trkpt lat="44.13297" lon="5.88382">
        <ele>835</ele>
        <time>2021-06-01T08:19:18.000Z</time>
      </trkpt>
      <trkpt lat="44.13297" lon="5.88382">
        <ele>835</ele>
        <time>2021-06-01T08:19:19.000Z</time>
      </trkpt>
      <trkpt lat="44.13297" lon="5.88382">
        <ele>835</ele>
        <time>2021-06-01T08:19:20.000Z</time>
      </trkpt>
      <trkpt lat="44.13297" lon="5.88382">
        <ele>835</ele>
        <time>2021-06-01T08:19:21.000Z</time>
      </trkpt>
      <trkpt lat="44.13298" lon="5.88382">
        <ele>835</ele>
        <time>2021-06-01T08:19:22.000Z</time>
      </trkpt>
      <trkpt lat="44.13298" lon="5.88382">
        <ele>835</ele>
        <time>2021-06-01T08:19:23.000Z</time>
      </trkpt>
      <trkpt lat="44.13298" lon="5.88381">
        <ele>836</ele>
        <time>2021-06-01T08:19:24.000Z</time>
      </trkpt>
      <trkpt lat="44.13298" lon="5.88381">
        <ele>836</ele>
        <time>2021-06-01T08:19:25.000Z</time>
      </trkpt>
      <trkpt lat="44.13298" lon="5.88381">
        <ele>836</ele>
        <time>2021-06-01T08:19:26.000Z</time>
      </trkpt>
      <trkpt lat="44.13298" lon="5.88382">
        <ele>835</ele>
        <time>2021-06-01T08:19:27.000Z</time>
      </trkpt>
      <trkpt lat="44.13298" lon="5.88382">
        <ele>835</ele>
        <time>2021-06-01T08:19:28.000Z</time>
      </trkpt>
      <trkpt lat="44.13298" lon="5.88382">
        <ele>835</ele>
        <time>2021-06-01T08:19:29.000Z</time>
      </trkpt>
      <trkpt lat="44.13298" lon="5.88382">
        <ele>835</ele>
        <time>2021-06-01T08:19:30.000Z</time>
      </trkpt>
      <trkpt lat="44.13298" lon="5.88382">
        <ele>835</ele>
        <time>2021-06-01T08:19:31.000Z</time>
      </trkpt>
      <trkpt lat="44.13298" lon="5.88381">
        <ele>835</ele>
        <time>2021-06-01T08:19:32.000Z</time>
      </trkpt>
      <trkpt lat="44.13298" lon="5.88381">
        <ele>834</ele>
        <time>2021-06-01T08:19:33.000Z</time>
      </trkpt>
      <trkpt lat="44.13298" lon="5.88381">
        <ele>834</ele>
        <time>2021-06-01T08:19:34.000Z</time>
      </trkpt>
      <trkpt lat="44.13298" lon="5.88381">
        <ele>834</ele>
        <time>2021-06-01T08:19:35.000Z</time>
      </trkpt>
      <trkpt lat="44.13298" lon="5.88381">
        <ele>834</ele>
        <time>2021-06-01T08:19:36.000Z</time>
      </trkpt>
      <trkpt lat="44.13297" lon="5.8838">
        <ele>835</ele>
        <time>2021-06-01T08:19:37.000Z</time>
      </trkpt>
      <trkpt lat="44.13297" lon="5.8838">
        <ele>835</ele>
        <time>2021-06-01T08:19:38.000Z</time>
      </trkpt>
      <trkpt lat="44.13296" lon="5.8838">
        <ele>835</ele>
        <time>2021-06-01T08:19:39.000Z</time>
      </trkpt>
      <trkpt lat="44.13296" lon="5.8838">
        <ele>835</ele>
        <time>2021-06-01T08:19:40.000Z</time>
      </trkpt>
      <trkpt lat="44.13295" lon="5.8838">
        <ele>835</ele>
        <time>2021-06-01T08:19:41.000Z</time>
      </trkpt>
      <trkpt lat="44.13295" lon="5.8838">
        <ele>835</ele>
        <time>2021-06-01T08:19:42.000Z</time>
      </trkpt>
      <trkpt lat="44.13294" lon="5.8838">
        <ele>835</ele>
        <time>2021-06-01T08:19:43.000Z</time>
      </trkpt>
      <trkpt lat="44.13294" lon="5.8838">
        <ele>835</ele>
        <time>2021-06-01T08:19:44.000Z</time>
      </trkpt>
      <trkpt lat="44.13293" lon="5.8838">
        <ele>835</ele>
        <time>2021-06-01T08:19:45.000Z</time>
      </trkpt>
      <trkpt lat="44.13293" lon="5.8838">
        <ele>835</ele>
        <time>2021-06-01T08:19:46.000Z</time>
      </trkpt>
      <trkpt lat="44.13292" lon="5.8838">
        <ele>835</ele>
        <time>2021-06-01T08:19:47.000Z</time>
      </trkpt>
      <trkpt lat="44.13292" lon="5.8838">
        <ele>835</ele>
        <time>2021-06-01T08:19:48.000Z</time>
      </trkpt>
      <trkpt lat="44.13291" lon="5.88381">
        <ele>835</ele>
        <time>2021-06-01T08:19:49.000Z</time>
      </trkpt>
      <trkpt lat="44.13291" lon="5.88381">
        <ele>835</ele>
        <time>2021-06-01T08:19:50.000Z</time>
      </trkpt>
      <trkpt lat="44.13291" lon="5.88381">
        <ele>835</ele>
        <time>2021-06-01T08:19:51.000Z</time>
      </trkpt>
      <trkpt lat="44.13291" lon="5.88381">
        <ele>835</ele>
        <time>2021-06-01T08:19:52.000Z</time>
      </trkpt>
      <trkpt lat="44.1329" lon="5.88381">
        <ele>836</ele>
        <time>2021-06-01T08:19:53.000Z</time>
      </trkpt>
      <trkpt lat="44.1329" lon="5.88381">
        <ele>836</ele>
        <time>2021-06-01T08:19:54.000Z</time>
      </trkpt>
      <trkpt lat="44.1329" lon="5.88382">
        <ele>836</ele>
        <time>2021-06-01T08:19:55.000Z</time>
      </trkpt>
      <trkpt lat="44.1329" lon="5.88382">
        <ele>836</ele>
        <time>2021-06-01T08:19:56.000Z</time>
      </trkpt>
      <trkpt lat="44.13289" lon="5.88382">
        <ele>836</ele>
        <time>2021-06-01T08:19:57.000Z</time>
      </trkpt>
      <trkpt lat="44.13289" lon="5.88382">
        <ele>836</ele>
        <time>2021-06-01T08:19:58.000Z</time>
      </trkpt>
      <trkpt lat="44.13289" lon="5.88382">
        <ele>836</ele>
        <time>2021-06-01T08:19:59.000Z</time>
      </trkpt>
      <trkpt lat="44.13289" lon="5.88382">
        <ele>837</ele>
        <time>2021-06-01T08:20:00.000Z</time>
      </trkpt>
      <trkpt lat="44.13288" lon="5.88382">
        <ele>837</ele>
        <time>2021-06-01T08:20:01.000Z</time>
      </trkpt>
      <trkpt lat="44.13288" lon="5.88382">
        <ele>837</ele>
        <time>2021-06-01T08:20:02.000Z</time>
      </trkpt>
      <trkpt lat="44.13287" lon="5.88382">
        <ele>837</ele>
        <time>2021-06-01T08:20:03.000Z</time>
      </trkpt>
      <trkpt lat="44.13287" lon="5.88382">
        <ele>837</ele>
        <time>2021-06-01T08:20:04.000Z</time>
      </trkpt>
      <trkpt lat="44.13286" lon="5.88382">
        <ele>837</ele>
        <time>2021-06-01T08:20:05.000Z</time>
      </trkpt>
      <trkpt lat="44.13286" lon="5.88383">
        <ele>837</ele>
        <time>2021-06-01T08:20:06.000Z</time>
      </trkpt>
      <trkpt lat="44.13286" lon="5.88383">
        <ele>837</ele>
        <time>2021-06-01T08:20:07.000Z</time>
      </trkpt>
      <trkpt lat="44.13286" lon="5.88383">
        <ele>838</ele>
        <time>2021-06-01T08:20:08.000Z</time>
      </trkpt>
      <trkpt lat="44.13286" lon="5.88383">
        <ele>838</ele>
        <time>2021-06-01T08:20:09.000Z</time>
      </trkpt>
      <trkpt lat="44.13286" lon="5.88382">
        <ele>838</ele>
        <time>2021-06-01T08:20:10.000Z</time>
      </trkpt>
      <trkpt lat="44.13286" lon="5.88382">
        <ele>838</ele>
        <time>2021-06-01T08:20:11.000Z</time>
      </trkpt>
      <trkpt lat="44.13285" lon="5.88383">
        <ele>838</ele>
        <time>2021-06-01T08:20:12.000Z</time>
      </trkpt>
      <trkpt lat="44.13285" lon="5.88383">
        <ele>838</ele>
        <time>2021-06-01T08:20:13.000Z</time>
      </trkpt>
      <trkpt lat="44.13285" lon="5.88384">
        <ele>839</ele>
        <time>2021-06-01T08:20:14.000Z</time>
      </trkpt>
      <trkpt lat="44.13285" lon="5.88384">
        <ele>839</ele>
        <time>2021-06-01T08:20:15.000Z</time>
      </trkpt>
      <trkpt lat="44.13285" lon="5.88385">
        <ele>839</ele>
        <time>2021-06-01T08:20:16.000Z</time>
      </trkpt>
      <trkpt lat="44.13285" lon="5.88385">
        <ele>839</ele>
        <time>2021-06-01T08:20:17.000Z</time>
      </trkpt>
      <trkpt lat="44.13285" lon="5.88385">
        <ele>839</ele>
        <time>2021-06-01T08:20:18.000Z</time>
      </trkpt>
      <trkpt lat="44.13285" lon="5.88385">
        <ele>839</ele>
        <time>2021-06-01T08:20:19.000Z</time>
      </trkpt>
      <trkpt lat="44.13285" lon="5.88385">
        <ele>839</ele>
        <time>2021-06-01T08:20:20.000Z</time>
      </trkpt>
      <trkpt lat="44.13285" lon="5.88385">
        <ele>840</ele>
        <time>2021-06-01T08:20:21.000Z</time>
      </trkpt>
      <trkpt lat="44.13285" lon="5.88384">
        <ele>840</ele>
        <time>2021-06-01T08:20:22.000Z</time>
      </trkpt>
      <trkpt lat="44.13285" lon="5.88384">
        <ele>840</ele>
        <time>2021-06-01T08:20:23.000Z</time>
      </trkpt>
      <trkpt lat="44.13285" lon="5.88384">
        <ele>840</ele>
        <time>2021-06-01T08:20:24.000Z</time>
      </trkpt>
      <trkpt lat="44.13285" lon="5.88384">
        <ele>840</ele>
        <time>2021-06-01T08:20:25.000Z</time>
      </trkpt>
      <trkpt lat="44.13285" lon="5.88384">
        <ele>840</ele>
        <time>2021-06-01T08:20:26.000Z</time>
      </trkpt>
      <trkpt lat="44.13285" lon="5.88384">
        <ele>840</ele>
        <time>2021-06-01T08:20:27.000Z</time>
      </trkpt>
      <trkpt lat="44.13285" lon="5.88384">
        <ele>840</ele>
        <time>2021-06-01T08:20:28.000Z</time>
      </trkpt>
      <trkpt lat="44.13286" lon="5.88384">
        <ele>840</ele>
        <time>2021-06-01T08:20:29.000Z</time>
      </trkpt>
      <trkpt lat="44.13286" lon="5.88384">
        <ele>841</ele>
        <time>2021-06-01T08:20:30.000Z</time>
      </trkpt>
      <trkpt lat="44.13286" lon="5.88384">
        <ele>841</ele>
        <time>2021-06-01T08:20:31.000Z</time>
      </trkpt>
      <trkpt lat="44.13286" lon="5.88384">
        <ele>841</ele>
        <time>2021-06-01T08:20:32.000Z</time>
      </trkpt>
      <trkpt lat="44.13286" lon="5.88385">
        <ele>841</ele>
        <time>2021-06-01T08:20:33.000Z</time>
      </trkpt>
      <trkpt lat="44.13286" lon="5.88385">
        <ele>841</ele>
        <time>2021-06-01T08:20:34.000Z</time>
      </trkpt>
      <trkpt lat="44.13286" lon="5.88385">
        <ele>841</ele>
        <time>2021-06-01T08:20:35.000Z</time>
      </trkpt>
      <trkpt lat="44.13286" lon="5.88385">
        <ele>842</ele>
        <time>2021-06-01T08:20:36.000Z</time>
      </trkpt>
      <trkpt lat="44.13286" lon="5.88385">
        <ele>842</ele>
        <time>2021-06-01T08:20:37.000Z</time>
      </trkpt>
      <trkpt lat="44.13286" lon="5.88385">
        <ele>842</ele>
        <time>2021-06-01T08:20:38.000Z</time>
      </trkpt>
      <trkpt lat="44.13287" lon="5.88385">
        <ele>842</ele>
        <time>2021-06-01T08:20:39.000Z</time>
      </trkpt>
      <trkpt lat="44.13287" lon="5.88385">
        <ele>842</ele>
        <time>2021-06-01T08:20:40.000Z</time>
      </trkpt>
      <trkpt lat="44.13287" lon="5.88385">
        <ele>842</ele>
        <time>2021-06-01T08:20:41.000Z</time>
      </trkpt>
      <trkpt lat="44.13287" lon="5.88385">
        <ele>843</ele>
        <time>2021-06-01T08:20:42.000Z</time>
      </trkpt>
      <trkpt lat="44.13287" lon="5.88385">
        <ele>843</ele>
        <time>2021-06-01T08:20:43.000Z</time>
      </trkpt>
      <trkpt lat="44.13287" lon="5.88385">
        <ele>843</ele>
        <time>2021-06-01T08:20:44.000Z</time>
      </trkpt>
      <trkpt lat="44.13287" lon="5.88385">
        <ele>843</ele>
        <time>2021-06-01T08:20:45.000Z</time>
      </trkpt>
      <trkpt lat="44.13287" lon="5.88385">
        <ele>843</ele>
        <time>2021-06-01T08:20:46.000Z</time>
      </trkpt>
      <trkpt lat="44.13287" lon="5.88385">
        <ele>843</ele>
        <time>2021-06-01T08:20:47.000Z</time>
      </trkpt>
      <trkpt lat="44.13287" lon="5.88385">
        <ele>843</ele>
        <time>2021-06-01T08:20:48.000Z</time>
      </trkpt>
      <trkpt lat="44.13287" lon="5.88385">
        <ele>843</ele>
        <time>2021-06-01T08:20:49.000Z</time>
      </trkpt>
      <trkpt lat="44.13287" lon="5.88384">
        <ele>844</ele>
        <time>2021-06-01T08:20:50.000Z</time>
      </trkpt>
      <trkpt lat="44.13287" lon="5.88385">
        <ele>844</ele>
        <time>2021-06-01T08:20:51.000Z</time>
      </trkpt>
      <trkpt lat="44.13287" lon="5.88385">
        <ele>844</ele>
        <time>2021-06-01T08:20:52.000Z</time>
      </trkpt>
      <trkpt lat="44.13287" lon="5.88385">
        <ele>844</ele>
        <time>2021-06-01T08:20:53.000Z</time>
      </trkpt>
      <trkpt lat="44.13287" lon="5.88385">
        <ele>844</ele>
        <time>2021-06-01T08:20:54.000Z</time>
      </trkpt>
      <trkpt lat="44.13287" lon="5.88385">
        <ele>844</ele>
        <time>2021-06-01T08:20:55.000Z</time>
      </trkpt>
      <trkpt lat="44.13287" lon="5.88384">
        <ele>844</ele>
        <time>2021-06-01T08:20:56.000Z</time>
      </trkpt>
      <trkpt lat="44.13287" lon="5.88384">
        <ele>844</ele>
        <time>2021-06-01T08:20:57.000Z</time>
      </trkpt>
      <trkpt lat="44.13287" lon="5.88384">
        <ele>844</ele>
        <time>2021-06-01T08:20:58.000Z</time>
      </trkpt>
      <trkpt lat="44.13287" lon="5.88384">
        <ele>845</ele>
        <time>2021-06-01T08:20:59.000Z</time>
      </trkpt>
      <trkpt lat="44.13287" lon="5.88384">
        <ele>845</ele>
        <time>2021-06-01T08:21:00.000Z</time>
      </trkpt>
      <trkpt lat="44.13287" lon="5.88384">
        <ele>845</ele>
        <time>2021-06-01T08:21:01.000Z</time>
      </trkpt>
      <trkpt lat="44.13287" lon="5.88384">
        <ele>845</ele>
        <time>2021-06-01T08:21:02.000Z</time>
      </trkpt>
      <trkpt lat="44.13287" lon="5.88384">
        <ele>845</ele>
        <time>2021-06-01T08:21:03.000Z</time>
      </trkpt>
      <trkpt lat="44.13287" lon="5.88384">
        <ele>845</ele>
        <time>2021-06-01T08:21:04.000Z</time>
      </trkpt>
      <trkpt lat="44.13287" lon="5.88384">
        <ele>845</ele>
        <time>2021-06-01T08:21:05.000Z</time>
      </trkpt>
      <trkpt lat="44.13287" lon="5.88384">
        <ele>845</ele>
        <time>2021-06-01T08:21:06.000Z</time>
      </trkpt>
      <trkpt lat="44.13287" lon="5.88384">
        <ele>845</ele>
        <time>2021-06-01T08:21:07.000Z</time>
      </trkpt>
      <trkpt lat="44.13287" lon="5.88384">
        <ele>845</ele>
        <time>2021-06-01T08:21:08.000Z</time>
      </trkpt>
      <trkpt lat="44.13287" lon="5.88383">
        <ele>846</ele>
        <time>2021-06-01T08:21:09.000Z</time>
      </trkpt>
      <trkpt lat="44.13287" lon="5.88383">
        <ele>846</ele>
        <time>2021-06-01T08:21:10.000Z</time>
      </trkpt>
      <trkpt lat="44.13287" lon="5.88383">
        <ele>846</ele>
        <time>2021-06-01T08:21:11.000Z</time>
      </trkpt>
      <trkpt lat="44.13287" lon="5.88383">
        <ele>846</ele>
        <time>2021-06-01T08:21:12.000Z</time>
      </trkpt>
      <trkpt lat="44.13287" lon="5.88383">
        <ele>846</ele>
        <time>2021-06-01T08:21:13.000Z</time>
      </trkpt>
      <trkpt lat="44.13287" lon="5.88383">
        <ele>846</ele>
        <time>2021-06-01T08:21:14.000Z</time>
      </trkpt>
      <trkpt lat="44.13287" lon="5.88383">
        <ele>846</ele>
        <time>2021-06-01T08:21:15.000Z</time>
      </trkpt>
      <trkpt lat="44.13287" lon="5.88383">
        <ele>846</ele>
        <time>2021-06-01T08:21:16.000Z</time>
      </trkpt>
      <trkpt lat="44.13287" lon="5.88383">
        <ele>846</ele>
        <time>2021-06-01T08:21:17.000Z</time>
      </trkpt>
      <trkpt lat="44.13287" lon="5.88383">
        <ele>846</ele>
        <time>2021-06-01T08:21:18.000Z</time>
      </trkpt>
      <trkpt lat="44.13286" lon="5.88383">
        <ele>847</ele>
        <time>2021-06-01T08:21:19.000Z</time>
      </trkpt>
      <trkpt lat="44.13286" lon="5.88383">
        <ele>847</ele>
        <time>2021-06-01T08:21:20.000Z</time>
      </trkpt>
      <trkpt lat="44.13286" lon="5.88383">
        <ele>847</ele>
        <time>2021-06-01T08:21:21.000Z</time>
      </trkpt>
      <trkpt lat="44.13286" lon="5.88383">
        <ele>847</ele>
        <time>2021-06-01T08:21:22.000Z</time>
      </trkpt>
      <trkpt lat="44.13286" lon="5.88383">
        <ele>847</ele>
        <time>2021-06-01T08:21:23.000Z</time>
      </trkpt>
      <trkpt lat="44.13286" lon="5.88383">
        <ele>847</ele>
        <time>2021-06-01T08:21:24.000Z</time>
      </trkpt>
      <trkpt lat="44.13286" lon="5.88383">
        <ele>847</ele>
        <time>2021-06-01T08:21:25.000Z</time>
      </trkpt>
      <trkpt lat="44.13286" lon="5.88383">
        <ele>847</ele>
        <time>2021-06-01T08:21:26.000Z</time>
      </trkpt>
      <trkpt lat="44.13286" lon="5.88383">
        <ele>847</ele>
        <time>2021-06-01T08:21:27.000Z</time>
      </trkpt>
      <trkpt lat="44.13286" lon="5.88383">
        <ele>847</ele>
        <time>2021-06-01T08:21:28.000Z</time>
      </trkpt>
      <trkpt lat="44.13286" lon="5.88383">
        <ele>847</ele>
        <time>2021-06-01T08:21:29.000Z</time>
      </trkpt>
      <trkpt lat="44.13285" lon="5.88383">
        <ele>848</ele>
        <time>2021-06-01T08:21:30.000Z</time>
      </trkpt>
      <trkpt lat="44.13285" lon="5.88383">
        <ele>848</ele>
        <time>2021-06-01T08:21:31.000Z</time>
      </trkpt>
      <trkpt lat="44.13285" lon="5.88383">
        <ele>848</ele>
        <time>2021-06-01T08:21:33.000Z</time>
      </trkpt>
      <trkpt lat="44.13285" lon="5.88383">
        <ele>848</ele>
        <time>2021-06-01T08:21:34.000Z</time>
      </trkpt>
      <trkpt lat="44.13284" lon="5.88383">
        <ele>848</ele>
        <time>2021-06-01T08:21:35.000Z</time>
      </trkpt>
      <trkpt lat="44.13284" lon="5.88383">
        <ele>848</ele>
        <time>2021-06-01T08:21:36.000Z</time>
      </trkpt>
      <trkpt lat="44.13284" lon="5.88383">
        <ele>848</ele>
        <time>2021-06-01T08:21:37.000Z</time>
      </trkpt>
      <trkpt lat="44.13284" lon="5.88383">
        <ele>848</ele>
        <time>2021-06-01T08:21:38.000Z</time>
      </trkpt>
      <trkpt lat="44.13284" lon="5.88383">
        <ele>848</ele>
        <time>2021-06-01T08:21:39.000Z</time>
      </trkpt>
      <trkpt lat="44.13284" lon="5.88384">
        <ele>848</ele>
        <time>2021-06-01T08:21:40.000Z</time>
      </trkpt>
      <trkpt lat="44.13283" lon="5.88384">
        <ele>848</ele>
        <time>2021-06-01T08:21:41.000Z</time>
      </trkpt>
      <trkpt lat="44.13283" lon="5.88385">
        <ele>848</ele>
        <time>2021-06-01T08:21:42.000Z</time>
      </trkpt>
      <trkpt lat="44.13283" lon="5.88385">
        <ele>848</ele>
        <time>2021-06-01T08:21:43.000Z</time>
      </trkpt>
      <trkpt lat="44.13283" lon="5.88385">
        <ele>848</ele>
        <time>2021-06-01T08:21:44.000Z</time>
      </trkpt>
      <trkpt lat="44.13283" lon="5.88385">
        <ele>849</ele>
        <time>2021-06-01T08:21:45.000Z</time>
      </trkpt>
      <trkpt lat="44.13282" lon="5.88385">
        <ele>849</ele>
        <time>2021-06-01T08:21:46.000Z</time>
      </trkpt>
      <trkpt lat="44.13282" lon="5.88385">
        <ele>849</ele>
        <time>2021-06-01T08:21:47.000Z</time>
      </trkpt>
      <trkpt lat="44.13282" lon="5.88385">
        <ele>849</ele>
        <time>2021-06-01T08:21:48.000Z</time>
      </trkpt>
      <trkpt lat="44.13282" lon="5.88385">
        <ele>849</ele>
        <time>2021-06-01T08:21:49.000Z</time>
      </trkpt>
      <trkpt lat="44.13282" lon="5.88385">
        <ele>849</ele>
        <time>2021-06-01T08:21:50.000Z</time>
      </trkpt>
      <trkpt lat="44.13281" lon="5.88385">
        <ele>849</ele>
        <time>2021-06-01T08:21:51.000Z</time>
      </trkpt>
      <trkpt lat="44.13281" lon="5.88385">
        <ele>849</ele>
        <time>2021-06-01T08:21:52.000Z</time>
      </trkpt>
      <trkpt lat="44.13281" lon="5.88385">
        <ele>849</ele>
        <time>2021-06-01T08:21:53.000Z</time>
      </trkpt>
      <trkpt lat="44.13281" lon="5.88385">
        <ele>849</ele>
        <time>2021-06-01T08:21:54.000Z</time>
      </trkpt>
      <trkpt lat="44.13281" lon="5.88385">
        <ele>849</ele>
        <time>2021-06-01T08:21:55.000Z</time>
      </trkpt>
      <trkpt lat="44.13281" lon="5.88385">
        <ele>849</ele>
        <time>2021-06-01T08:21:56.000Z</time>
      </trkpt>
      <trkpt lat="44.13281" lon="5.88385">
        <ele>849</ele>
        <time>2021-06-01T08:21:57.000Z</time>
      </trkpt>
      <trkpt lat="44.13281" lon="5.88385">
        <ele>849</ele>
        <time>2021-06-01T08:21:58.000Z</time>
      </trkpt>
      <trkpt lat="44.13281" lon="5.88385">
        <ele>849</ele>
        <time>2021-06-01T08:21:59.000Z</time>
      </trkpt>
      <trkpt lat="44.13281" lon="5.88385">
        <ele>849</ele>
        <time>2021-06-01T08:22:00.000Z</time>
      </trkpt>
      <trkpt lat="44.13281" lon="5.88385">
        <ele>849</ele>
        <time>2021-06-01T08:22:01.000Z</time>
      </trkpt>
      <trkpt lat="44.13281" lon="5.88385">
        <ele>849</ele>
        <time>2021-06-01T08:22:02.000Z</time>
      </trkpt>
      <trkpt lat="44.13281" lon="5.88385">
        <ele>849</ele>
        <time>2021-06-01T08:22:03.000Z</time>
      </trkpt>
      <trkpt lat="44.13281" lon="5.88385">
        <ele>849</ele>
        <time>2021-06-01T08:22:04.000Z</time>
      </trkpt>
      <trkpt lat="44.13281" lon="5.88385">
        <ele>849</ele>
        <time>2021-06-01T08:22:05.000Z</time>
      </trkpt>
      <trkpt lat="44.13281" lon="5.88385">
        <ele>849</ele>
        <time>2021-06-01T08:22:06.000Z</time>
      </trkpt>
      <trkpt lat="44.13281" lon="5.88385">
        <ele>849</ele>
        <time>2021-06-01T08:22:07.000Z</time>
      </trkpt>
      <trkpt lat="44.13281" lon="5.88385">
        <ele>849</ele>
        <time>2021-06-01T08:22:08.000Z</time>
      </trkpt>
      <trkpt lat="44.13281" lon="5.88385">
        <ele>850</ele>
        <time>2021-06-01T08:22:09.000Z</time>
      </trkpt>
      <trkpt lat="44.13281" lon="5.88385">
        <ele>850</ele>
        <time>2021-06-01T08:22:10.000Z</time>
      </trkpt>
      <trkpt lat="44.13281" lon="5.88385">
        <ele>850</ele>
        <time>2021-06-01T08:22:11.000Z</time>
      </trkpt>
      <trkpt lat="44.13281" lon="5.88385">
        <ele>850</ele>
        <time>2021-06-01T08:22:12.000Z</time>
      </trkpt>
      <trkpt lat="44.13281" lon="5.88385">
        <ele>850</ele>
        <time>2021-06-01T08:22:13.000Z</time>
      </trkpt>
      <trkpt lat="44.13281" lon="5.88385">
        <ele>850</ele>
        <time>2021-06-01T08:22:14.000Z</time>
      </trkpt>
      <trkpt lat="44.13281" lon="5.88385">
        <ele>850</ele>
        <time>2021-06-01T08:22:15.000Z</time>
      </trkpt>
      <trkpt lat="44.1328" lon="5.88386">
        <ele>850</ele>
        <time>2021-06-01T08:22:16.000Z</time>
      </trkpt>
      <trkpt lat="44.1328" lon="5.88386">
        <ele>850</ele>
        <time>2021-06-01T08:22:17.000Z</time>
      </trkpt>
      <trkpt lat="44.1328" lon="5.88386">
        <ele>850</ele>
        <time>2021-06-01T08:22:18.000Z</time>
      </trkpt>
      <trkpt lat="44.1328" lon="5.88386">
        <ele>850</ele>
        <time>2021-06-01T08:22:19.000Z</time>
      </trkpt>
      <trkpt lat="44.1328" lon="5.88386">
        <ele>850</ele>
        <time>2021-06-01T08:22:20.000Z</time>
      </trkpt>
      <trkpt lat="44.1328" lon="5.88386">
        <ele>850</ele>
        <time>2021-06-01T08:22:21.000Z</time>
      </trkpt>
      <trkpt lat="44.1328" lon="5.88387">
        <ele>850</ele>
        <time>2021-06-01T08:22:22.000Z</time>
      </trkpt>
      <trkpt lat="44.13281" lon="5.88387">
        <ele>850</ele>
        <time>2021-06-01T08:22:23.000Z</time>
      </trkpt>
      <trkpt lat="44.13281" lon="5.88387">
        <ele>850</ele>
        <time>2021-06-01T08:22:24.000Z</time>
      </trkpt>
      <trkpt lat="44.13281" lon="5.88388">
        <ele>850</ele>
        <time>2021-06-01T08:22:25.000Z</time>
      </trkpt>
      <trkpt lat="44.13282" lon="5.88388">
        <ele>851</ele>
        <time>2021-06-01T08:22:26.000Z</time>
      </trkpt>
      <trkpt lat="44.13282" lon="5.88389">
        <ele>851</ele>
        <time>2021-06-01T08:22:27.000Z</time>
      </trkpt>
      <trkpt lat="44.13282" lon="5.88389">
        <ele>851</ele>
        <time>2021-06-01T08:22:28.000Z</time>
      </trkpt>
      <trkpt lat="44.13282" lon="5.88389">
        <ele>851</ele>
        <time>2021-06-01T08:22:29.000Z</time>
      </trkpt>
      <trkpt lat="44.13282" lon="5.88389">
        <ele>851</ele>
        <time>2021-06-01T08:22:30.000Z</time>
      </trkpt>
      <trkpt lat="44.13282" lon="5.88389">
        <ele>851</ele>
        <time>2021-06-01T08:22:31.000Z</time>
      </trkpt>
      <trkpt lat="44.13282" lon="5.88389">
        <ele>851</ele>
        <time>2021-06-01T08:22:32.000Z</time>
      </trkpt>
      <trkpt lat="44.13282" lon="5.88389">
        <ele>851</ele>
        <time>2021-06-01T08:22:33.000Z</time>
      </trkpt>
      <trkpt lat="44.13282" lon="5.88389">
        <ele>851</ele>
        <time>2021-06-01T08:22:34.000Z</time>
      </trkpt>
      <trkpt lat="44.13282" lon="5.88389">
        <ele>851</ele>
        <time>2021-06-01T08:22:35.000Z</time>
      </trkpt>
      <trkpt lat="44.13282" lon="5.88389">
        <ele>851</ele>
        <time>2021-06-01T08:22:36.000Z</time>
      </trkpt>
      <trkpt lat="44.13282" lon="5.88389">
        <ele>851</ele>
        <time>2021-06-01T08:22:37.000Z</time>
      </trkpt>
      <trkpt lat="44.13282" lon="5.88389">
        <ele>851</ele>
        <time>2021-06-01T08:22:38.000Z</time>
      </trkpt>
      <trkpt lat="44.13282" lon="5.88389">
        <ele>852</ele>
        <time>2021-06-01T08:22:39.000Z</time>
      </trkpt>
      <trkpt lat="44.13282" lon="5.88389">
        <ele>852</ele>
        <time>2021-06-01T08:22:40.000Z</time>
      </trkpt>
      <trkpt lat="44.13282" lon="5.88389">
        <ele>852</ele>
        <time>2021-06-01T08:22:48.000Z</time>
      </trkpt>
      <trkpt lat="44.13282" lon="5.88389">
        <ele>852</ele>
        <time>2021-06-01T08:22:49.000Z</time>
      </trkpt>
      <trkpt lat="44.13281" lon="5.88388">
        <ele>852</ele>
        <time>2021-06-01T08:22:50.000Z</time>
      </trkpt>
      <trkpt lat="44.13281" lon="5.88388">
        <ele>852</ele>
        <time>2021-06-01T08:22:51.000Z</time>
      </trkpt>
      <trkpt lat="44.13281" lon="5.88387">
        <ele>852</ele>
        <time>2021-06-01T08:22:52.000Z</time>
      </trkpt>
      <trkpt lat="44.13281" lon="5.88387">
        <ele>852</ele>
        <time>2021-06-01T08:22:53.000Z</time>
      </trkpt>
      <trkpt lat="44.13281" lon="5.88387">
        <ele>852</ele>
        <time>2021-06-01T08:22:54.000Z</time>
      </trkpt>
      <trkpt lat="44.13281" lon="5.88387">
        <ele>852</ele>
        <time>2021-06-01T08:22:55.000Z</time>
      </trkpt>
      <trkpt lat="44.13281" lon="5.88387">
        <ele>852</ele>
        <time>2021-06-01T08:22:56.000Z</time>
      </trkpt>
      <trkpt lat="44.13281" lon="5.88387">
        <ele>852</ele>
        <time>2021-06-01T08:22:57.000Z</time>
      </trkpt>
      <trkpt lat="44.13281" lon="5.88387">
        <ele>852</ele>
        <time>2021-06-01T08:22:58.000Z</time>
      </trkpt>
      <trkpt lat="44.13281" lon="5.88387">
        <ele>852</ele>
        <time>2021-06-01T08:22:59.000Z</time>
      </trkpt>
      <trkpt lat="44.13281" lon="5.88387">
        <ele>852</ele>
        <time>2021-06-01T08:23:00.000Z</time>
      </trkpt>
      <trkpt lat="44.13281" lon="5.88387">
        <ele>852</ele>
        <time>2021-06-01T08:23:01.000Z</time>
      </trkpt>
      <trkpt lat="44.13281" lon="5.88387">
        <ele>852</ele>
        <time>2021-06-01T08:23:02.000Z</time>
      </trkpt>
      <trkpt lat="44.13281" lon="5.88387">
        <ele>852</ele>
        <time>2021-06-01T08:23:03.000Z</time>
      </trkpt>
      <trkpt lat="44.13281" lon="5.88387">
        <ele>852</ele>
        <time>2021-06-01T08:23:04.000Z</time>
      </trkpt>
      <trkpt lat="44.13281" lon="5.88387">
        <ele>852</ele>
        <time>2021-06-01T08:23:05.000Z</time>
      </trkpt>
      <trkpt lat="44.13281" lon="5.88387">
        <ele>852</ele>
        <time>2021-06-01T08:23:06.000Z</time>
      </trkpt>
      <trkpt lat="44.13281" lon="5.88386">
        <ele>852</ele>
        <time>2021-06-01T08:23:07.000Z</time>
      </trkpt>
      <trkpt lat="44.13281" lon="5.88386">
        <ele>852</ele>
        <time>2021-06-01T08:23:08.000Z</time>
      </trkpt>
      <trkpt lat="44.1328" lon="5.88386">
        <ele>853</ele>
        <time>2021-06-01T08:23:09.000Z</time>
      </trkpt>
      <trkpt lat="44.1328" lon="5.88386">
        <ele>853</ele>
        <time>2021-06-01T08:23:10.000Z</time>
      </trkpt>
      <trkpt lat="44.1328" lon="5.88386">
        <ele>853</ele>
        <time>2021-06-01T08:23:11.000Z</time>
      </trkpt>
      <trkpt lat="44.1328" lon="5.88386">
        <ele>853</ele>
        <time>2021-06-01T08:23:12.000Z</time>
      </trkpt>
      <trkpt lat="44.1328" lon="5.88386">
        <ele>853</ele>
        <time>2021-06-01T08:23:13.000Z</time>
      </trkpt>
      <trkpt lat="44.1328" lon="5.88386">
        <ele>853</ele>
        <time>2021-06-01T08:23:14.000Z</time>
      </trkpt>
      <trkpt lat="44.1328" lon="5.88386">
        <ele>853</ele>
        <time>2021-06-01T08:23:15.000Z</time>
      </trkpt>
      <trkpt lat="44.1328" lon="5.88386">
        <ele>853</ele>
        <time>2021-06-01T08:23:16.000Z</time>
      </trkpt>
      <trkpt lat="44.1328" lon="5.88386">
        <ele>853</ele>
        <time>2021-06-01T08:23:17.000Z</time>
      </trkpt>
      <trkpt lat="44.1328" lon="5.88386">
        <ele>853</ele>
        <time>2021-06-01T08:23:18.000Z</time>
      </trkpt>
      <trkpt lat="44.1328" lon="5.88386">
        <ele>853</ele>
        <time>2021-06-01T08:23:19.000Z</time>
      </trkpt>
      <trkpt lat="44.13279" lon="5.88386">
        <ele>853</ele>
        <time>2021-06-01T08:23:20.000Z</time>
      </trkpt>
      <trkpt lat="44.13279" lon="5.88386">
        <ele>853</ele>
        <time>2021-06-01T08:23:21.000Z</time>
      </trkpt>
      <trkpt lat="44.13279" lon="5.88386">
        <ele>853</ele>
        <time>2021-06-01T08:23:22.000Z</time>
      </trkpt>
      <trkpt lat="44.13279" lon="5.88386">
        <ele>853</ele>
        <time>2021-06-01T08:23:23.000Z</time>
      </trkpt>
      <trkpt lat="44.13279" lon="5.88386">
        <ele>853</ele>
        <time>2021-06-01T08:23:24.000Z</time>
      </trkpt>
      <trkpt lat="44.13279" lon="5.88386">
        <ele>853</ele>
        <time>2021-06-01T08:23:25.000Z</time>
      </trkpt>
      <trkpt lat="44.13278" lon="5.88385">
        <ele>853</ele>
        <time>2021-06-01T08:23:26.000Z</time>
      </trkpt>
      <trkpt lat="44.13278" lon="5.88385">
        <ele>853</ele>
        <time>2021-06-01T08:23:27.000Z</time>
      </trkpt>
      <trkpt lat="44.13277" lon="5.88385">
        <ele>853</ele>
        <time>2021-06-01T08:23:28.000Z</time>
      </trkpt>
      <trkpt lat="44.13277" lon="5.88385">
        <ele>853</ele>
        <time>2021-06-01T08:23:29.000Z</time>
      </trkpt>
      <trkpt lat="44.13277" lon="5.88385">
        <ele>853</ele>
        <time>2021-06-01T08:23:30.000Z</time>
      </trkpt>
      <trkpt lat="44.13278" lon="5.88385">
        <ele>854</ele>
        <time>2021-06-01T08:23:31.000Z</time>
      </trkpt>
      <trkpt lat="44.13278" lon="5.88385">
        <ele>854</ele>
        <time>2021-06-01T08:23:32.000Z</time>
      </trkpt>
      <trkpt lat="44.13278" lon="5.88385">
        <ele>854</ele>
        <time>2021-06-01T08:23:33.000Z</time>
      </trkpt>
      <trkpt lat="44.13278" lon="5.88385">
        <ele>854</ele>
        <time>2021-06-01T08:23:34.000Z</time>
      </trkpt>
      <trkpt lat="44.13278" lon="5.88385">
        <ele>854</ele>
        <time>2021-06-01T08:23:35.000Z</time>
      </trkpt>
      <trkpt lat="44.13278" lon="5.88385">
        <ele>854</ele>
        <time>2021-06-01T08:23:36.000Z</time>
      </trkpt>
      <trkpt lat="44.13278" lon="5.88385">
        <ele>854</ele>
        <time>2021-06-01T08:23:37.000Z</time>
      </trkpt>
      <trkpt lat="44.13278" lon="5.88386">
        <ele>854</ele>
        <time>2021-06-01T08:23:38.000Z</time>
      </trkpt>
      <trkpt lat="44.13278" lon="5.88386">
        <ele>854</ele>
        <time>2021-06-01T08:23:39.000Z</time>
      </trkpt>
      <trkpt lat="44.13279" lon="5.88386">
        <ele>854</ele>
        <time>2021-06-01T08:23:40.000Z</time>
      </trkpt>
      <trkpt lat="44.13279" lon="5.88386">
        <ele>854</ele>
        <time>2021-06-01T08:23:41.000Z</time>
      </trkpt>
      <trkpt lat="44.13279" lon="5.88386">
        <ele>854</ele>
        <time>2021-06-01T08:23:42.000Z</time>
      </trkpt>
      <trkpt lat="44.13279" lon="5.88386">
        <ele>854</ele>
        <time>2021-06-01T08:23:43.000Z</time>
      </trkpt>
      <trkpt lat="44.13278" lon="5.88387">
        <ele>854</ele>
        <time>2021-06-01T08:23:44.000Z</time>
      </trkpt>
      <trkpt lat="44.13279" lon="5.88387">
        <ele>854</ele>
        <time>2021-06-01T08:23:45.000Z</time>
      </trkpt>
      <trkpt lat="44.13279" lon="5.88387">
        <ele>855</ele>
        <time>2021-06-01T08:23:46.000Z</time>
      </trkpt>
      <trkpt lat="44.13279" lon="5.88387">
        <ele>855</ele>
        <time>2021-06-01T08:23:47.000Z</time>
      </trkpt>
      <trkpt lat="44.13279" lon="5.88387">
        <ele>855</ele>
        <time>2021-06-01T08:23:48.000Z</time>
      </trkpt>
      <trkpt lat="44.13279" lon="5.88387">
        <ele>855</ele>
        <time>2021-06-01T08:23:49.000Z</time>
      </trkpt>
      <trkpt lat="44.13279" lon="5.88387">
        <ele>855</ele>
        <time>2021-06-01T08:23:50.000Z</time>
      </trkpt>
      <trkpt lat="44.13279" lon="5.88387">
        <ele>855</ele>
        <time>2021-06-01T08:23:55.000Z</time>
      </trkpt>
      <trkpt lat="44.13279" lon="5.88387">
        <ele>855</ele>
        <time>2021-06-01T08:23:56.000Z</time>
      </trkpt>
      <trkpt lat="44.13279" lon="5.88387">
        <ele>855</ele>
        <time>2021-06-01T08:23:57.000Z</time>
      </trkpt>
      <trkpt lat="44.13279" lon="5.88388">
        <ele>855</ele>
        <time>2021-06-01T08:23:58.000Z</time>
      </trkpt>
      <trkpt lat="44.13279" lon="5.88388">
        <ele>855</ele>
        <time>2021-06-01T08:23:59.000Z</time>
      </trkpt>
      <trkpt lat="44.13278" lon="5.88389">
        <ele>855</ele>
        <time>2021-06-01T08:24:00.000Z</time>
      </trkpt>
      <trkpt lat="44.13278" lon="5.88389">
        <ele>855</ele>
        <time>2021-06-01T08:24:01.000Z</time>
      </trkpt>
      <trkpt lat="44.13278" lon="5.88389">
        <ele>855</ele>
        <time>2021-06-01T08:24:02.000Z</time>
      </trkpt>
      <trkpt lat="44.13278" lon="5.88389">
        <ele>855</ele>
        <time>2021-06-01T08:24:03.000Z</time>
      </trkpt>
      <trkpt lat="44.13278" lon="5.88389">
        <ele>855</ele>
        <time>2021-06-01T08:24:04.000Z</time>
      </trkpt>
      <trkpt lat="44.13278" lon="5.88389">
        <ele>856</ele>
        <time>2021-06-01T08:24:05.000Z</time>
      </trkpt>
      <trkpt lat="44.13278" lon="5.88389">
        <ele>856</ele>
        <time>2021-06-01T08:24:06.000Z</time>
      </trkpt>
      <trkpt lat="44.13277" lon="5.88389">
        <ele>856</ele>
        <time>2021-06-01T08:24:07.000Z</time>
      </trkpt>
      <trkpt lat="44.13277" lon="5.88389">
        <ele>856</ele>
        <time>2021-06-01T08:24:12.000Z</time>
      </trkpt>
      <trkpt lat="44.13277" lon="5.88389">
        <ele>857</ele>
        <time>2021-06-01T08:24:13.000Z</time>
      </trkpt>
      <trkpt lat="44.13277" lon="5.88388">
        <ele>857</ele>
        <time>2021-06-01T08:24:14.000Z</time>
      </trkpt>
      <trkpt lat="44.13277" lon="5.88388">
        <ele>857</ele>
        <time>2021-06-01T08:24:15.000Z</time>
      </trkpt>
      <trkpt lat="44.13277" lon="5.88387">
        <ele>857</ele>
        <time>2021-06-01T08:24:16.000Z</time>
      </trkpt>
      <trkpt lat="44.13277" lon="5.88387">
        <ele>857</ele>
        <time>2021-06-01T08:24:17.000Z</time>
      </trkpt>
      <trkpt lat="44.13277" lon="5.88387">
        <ele>857</ele>
        <time>2021-06-01T08:24:18.000Z</time>
      </trkpt>
      <trkpt lat="44.13277" lon="5.88387">
        <ele>857</ele>
        <time>2021-06-01T08:24:19.000Z</time>
      </trkpt>
      <trkpt lat="44.13277" lon="5.88387">
        <ele>857</ele>
        <time>2021-06-01T08:24:20.000Z</time>
      </trkpt>
      <trkpt lat="44.13277" lon="5.88387">
        <ele>857</ele>
        <time>2021-06-01T08:24:21.000Z</time>
      </trkpt>
      <trkpt lat="44.13277" lon="5.88387">
        <ele>857</ele>
        <time>2021-06-01T08:24:22.000Z</time>
      </trkpt>
      <trkpt lat="44.13277" lon="5.88387">
        <ele>858</ele>
        <time>2021-06-01T08:24:23.000Z</time>
      </trkpt>
      <trkpt lat="44.13277" lon="5.88387">
        <ele>858</ele>
        <time>2021-06-01T08:24:24.000Z</time>
      </trkpt>
      <trkpt lat="44.13277" lon="5.88387">
        <ele>858</ele>
        <time>2021-06-01T08:24:25.000Z</time>
      </trkpt>
      <trkpt lat="44.13277" lon="5.88387">
        <ele>858</ele>
        <time>2021-06-01T08:24:26.000Z</time>
      </trkpt>
      <trkpt lat="44.13277" lon="5.88387">
        <ele>858</ele>
        <time>2021-06-01T08:24:27.000Z</time>
      </trkpt>
      <trkpt lat="44.13277" lon="5.88386">
        <ele>858</ele>
        <time>2021-06-01T08:24:28.000Z</time>
      </trkpt>
      <trkpt lat="44.13277" lon="5.88386">
        <ele>858</ele>
        <time>2021-06-01T08:24:29.000Z</time>
      </trkpt>
      <trkpt lat="44.13277" lon="5.88386">
        <ele>858</ele>
        <time>2021-06-01T08:24:30.000Z</time>
      </trkpt>
      <trkpt lat="44.13277" lon="5.88386">
        <ele>858</ele>
        <time>2021-06-01T08:24:31.000Z</time>
      </trkpt>
      <trkpt lat="44.13277" lon="5.88386">
        <ele>858</ele>
        <time>2021-06-01T08:24:32.000Z</time>
      </trkpt>
      <trkpt lat="44.13277" lon="5.88386">
        <ele>858</ele>
        <time>2021-06-01T08:24:33.000Z</time>
      </trkpt>
      <trkpt lat="44.13277" lon="5.88386">
        <ele>858</ele>
        <time>2021-06-01T08:24:34.000Z</time>
      </trkpt>
      <trkpt lat="44.13277" lon="5.88386">
        <ele>858</ele>
        <time>2021-06-01T08:24:35.000Z</time>
      </trkpt>
      <trkpt lat="44.13277" lon="5.88386">
        <ele>858</ele>
        <time>2021-06-01T08:24:36.000Z</time>
      </trkpt>
      <trkpt lat="44.13277" lon="5.88386">
        <ele>858</ele>
        <time>2021-06-01T08:24:37.000Z</time>
      </trkpt>
      <trkpt lat="44.13277" lon="5.88386">
        <ele>858</ele>
        <time>2021-06-01T08:24:38.000Z</time>
      </trkpt>
      <trkpt lat="44.13277" lon="5.88386">
        <ele>858</ele>
        <time>2021-06-01T08:24:39.000Z</time>
      </trkpt>
      <trkpt lat="44.13277" lon="5.88386">
        <ele>859</ele>
        <time>2021-06-01T08:24:40.000Z</time>
      </trkpt>
      <trkpt lat="44.13277" lon="5.88386">
        <ele>859</ele>
        <time>2021-06-01T08:24:41.000Z</time>
      </trkpt>
      <trkpt lat="44.13277" lon="5.88386">
        <ele>859</ele>
        <time>2021-06-01T08:24:42.000Z</time>
      </trkpt>
      <trkpt lat="44.13277" lon="5.88386">
        <ele>859</ele>
        <time>2021-06-01T08:24:43.000Z</time>
      </trkpt>
      <trkpt lat="44.13277" lon="5.88386">
        <ele>859</ele>
        <time>2021-06-01T08:24:44.000Z</time>
      </trkpt>
      <trkpt lat="44.13277" lon="5.88385">
        <ele>859</ele>
        <time>2021-06-01T08:24:45.000Z</time>
      </trkpt>
      <trkpt lat="44.13277" lon="5.88385">
        <ele>859</ele>
        <time>2021-06-01T08:24:46.000Z</time>
      </trkpt>
      <trkpt lat="44.13277" lon="5.88385">
        <ele>860</ele>
        <time>2021-06-01T08:24:47.000Z</time>
      </trkpt>
      <trkpt lat="44.13277" lon="5.88385">
        <ele>860</ele>
        <time>2021-06-01T08:24:48.000Z</time>
      </trkpt>
      <trkpt lat="44.13277" lon="5.88385">
        <ele>860</ele>
        <time>2021-06-01T08:24:49.000Z</time>
      </trkpt>
      <trkpt lat="44.13277" lon="5.88385">
        <ele>860</ele>
        <time>2021-06-01T08:24:50.000Z</time>
      </trkpt>
      <trkpt lat="44.13277" lon="5.88385">
        <ele>860</ele>
        <time>2021-06-01T08:24:51.000Z</time>
      </trkpt>
      <trkpt lat="44.13276" lon="5.88385">
        <ele>860</ele>
        <time>2021-06-01T08:24:52.000Z</time>
      </trkpt>
      <trkpt lat="44.13276" lon="5.88385">
        <ele>860</ele>
        <time>2021-06-01T08:24:53.000Z</time>
      </trkpt>
      <trkpt lat="44.13276" lon="5.88385">
        <ele>861</ele>
        <time>2021-06-01T08:24:54.000Z</time>
      </trkpt>
      <trkpt lat="44.13276" lon="5.88385">
        <ele>861</ele>
        <time>2021-06-01T08:24:55.000Z</time>
      </trkpt>
      <trkpt lat="44.13276" lon="5.88385">
        <ele>861</ele>
        <time>2021-06-01T08:24:56.000Z</time>
      </trkpt>
      <trkpt lat="44.13276" lon="5.88385">
        <ele>861</ele>
        <time>2021-06-01T08:24:57.000Z</time>
      </trkpt>
      <trkpt lat="44.13276" lon="5.88385">
        <ele>861</ele>
        <time>2021-06-01T08:24:58.000Z</time>
      </trkpt>
      <trkpt lat="44.13276" lon="5.88385">
        <ele>861</ele>
        <time>2021-06-01T08:24:59.000Z</time>
      </trkpt>
      <trkpt lat="44.13276" lon="5.88385">
        <ele>861</ele>
        <time>2021-06-01T08:25:00.000Z</time>
      </trkpt>
      <trkpt lat="44.13276" lon="5.88385">
        <ele>861</ele>
        <time>2021-06-01T08:25:01.000Z</time>
      </trkpt>
      <trkpt lat="44.13276" lon="5.88385">
        <ele>861</ele>
        <time>2021-06-01T08:25:02.000Z</time>
      </trkpt>
      <trkpt lat="44.13276" lon="5.88385">
        <ele>861</ele>
        <time>2021-06-01T08:25:03.000Z</time>
      </trkpt>
      <trkpt lat="44.13276" lon="5.88386">
        <ele>861</ele>
        <time>2021-06-01T08:25:04.000Z</time>
      </trkpt>
      <trkpt lat="44.13276" lon="5.88386">
        <ele>862</ele>
        <time>2021-06-01T08:25:05.000Z</time>
      </trkpt>
      <trkpt lat="44.13276" lon="5.88386">
        <ele>862</ele>
        <time>2021-06-01T08:25:06.000Z</time>
      </trkpt>
      <trkpt lat="44.13276" lon="5.88386">
        <ele>862</ele>
        <time>2021-06-01T08:25:07.000Z</time>
      </trkpt>
      <trkpt lat="44.13276" lon="5.88385">
        <ele>862</ele>
        <time>2021-06-01T08:25:08.000Z</time>
      </trkpt>
      <trkpt lat="44.13276" lon="5.88385">
        <ele>862</ele>
        <time>2021-06-01T08:25:09.000Z</time>
      </trkpt>
      <trkpt lat="44.13276" lon="5.88385">
        <ele>862</ele>
        <time>2021-06-01T08:25:10.000Z</time>
      </trkpt>
      <trkpt lat="44.13276" lon="5.88385">
        <ele>862</ele>
        <time>2021-06-01T08:25:11.000Z</time>
      </trkpt>
      <trkpt lat="44.13276" lon="5.88385">
        <ele>862</ele>
        <time>2021-06-01T08:25:12.000Z</time>
      </trkpt>
      <trkpt lat="44.13276" lon="5.88385">
        <ele>862</ele>
        <time>2021-06-01T08:25:13.000Z</time>
      </trkpt>
      <trkpt lat="44.13276" lon="5.88386">
        <ele>862</ele>
        <time>2021-06-01T08:25:14.000Z</time>
      </trkpt>
      <trkpt lat="44.13276" lon="5.88386">
        <ele>863</ele>
        <time>2021-06-01T08:25:15.000Z</time>
      </trkpt>
      <trkpt lat="44.13276" lon="5.88385">
        <ele>863</ele>
        <time>2021-06-01T08:25:16.000Z</time>
      </trkpt>
      <trkpt lat="44.13276" lon="5.88386">
        <ele>863</ele>
        <time>2021-06-01T08:25:17.000Z</time>
      </trkpt>
      <trkpt lat="44.13276" lon="5.88386">
        <ele>863</ele>
        <time>2021-06-01T08:25:18.000Z</time>
      </trkpt>
      <trkpt lat="44.13276" lon="5.88386">
        <ele>863</ele>
        <time>2021-06-01T08:25:19.000Z</time>
      </trkpt>
      <trkpt lat="44.13276" lon="5.88386">
        <ele>863</ele>
        <time>2021-06-01T08:25:20.000Z</time>
      </trkpt>
      <trkpt lat="44.13276" lon="5.88386">
        <ele>863</ele>
        <time>2021-06-01T08:25:21.000Z</time>
      </trkpt>
      <trkpt lat="44.13276" lon="5.88386">
        <ele>864</ele>
        <time>2021-06-01T08:25:22.000Z</time>
      </trkpt>
      <trkpt lat="44.13277" lon="5.88387">
        <ele>864</ele>
        <time>2021-06-01T08:25:23.000Z</time>
      </trkpt>
      <trkpt lat="44.13277" lon="5.88387">
        <ele>864</ele>
        <time>2021-06-01T08:25:24.000Z</time>
      </trkpt>
      <trkpt lat="44.13277" lon="5.88387">
        <ele>864</ele>
        <time>2021-06-01T08:25:25.000Z</time>
      </trkpt>
      <trkpt lat="44.13277" lon="5.88387">
        <ele>864</ele>
        <time>2021-06-01T08:25:26.000Z</time>
      </trkpt>
      <trkpt lat="44.13277" lon="5.88387">
        <ele>864</ele>
        <time>2021-06-01T08:25:27.000Z</time>
      </trkpt>
      <trkpt lat="44.13277" lon="5.88386">
        <ele>864</ele>
        <time>2021-06-01T08:25:28.000Z</time>
      </trkpt>
      <trkpt lat="44.13277" lon="5.88386">
        <ele>864</ele>
        <time>2021-06-01T08:25:29.000Z</time>
      </trkpt>
      <trkpt lat="44.13277" lon="5.88386">
        <ele>864</ele>
        <time>2021-06-01T08:25:30.000Z</time>
      </trkpt>
      <trkpt lat="44.13277" lon="5.88386">
        <ele>864</ele>
        <time>2021-06-01T08:25:31.000Z</time>
      </trkpt>
      <trkpt lat="44.13277" lon="5.88386">
        <ele>864</ele>
        <time>2021-06-01T08:25:32.000Z</time>
      </trkpt>
      <trkpt lat="44.13277" lon="5.88386">
        <ele>865</ele>
        <time>2021-06-01T08:25:33.000Z</time>
      </trkpt>
      <trkpt lat="44.13277" lon="5.88386">
        <ele>865</ele>
        <time>2021-06-01T08:25:34.000Z</time>
      </trkpt>
      <trkpt lat="44.13277" lon="5.88386">
        <ele>865</ele>
        <time>2021-06-01T08:25:35.000Z</time>
      </trkpt>
      <trkpt lat="44.13276" lon="5.88387">
        <ele>865</ele>
        <time>2021-06-01T08:25:36.000Z</time>
      </trkpt>
      <trkpt lat="44.13276" lon="5.88387">
        <ele>865</ele>
        <time>2021-06-01T08:25:37.000Z</time>
      </trkpt>
      <trkpt lat="44.13276" lon="5.88387">
        <ele>865</ele>
        <time>2021-06-01T08:25:40.000Z</time>
      </trkpt>
      <trkpt lat="44.13276" lon="5.88387">
        <ele>865</ele>
        <time>2021-06-01T08:25:41.000Z</time>
      </trkpt>
      <trkpt lat="44.13277" lon="5.88388">
        <ele>866</ele>
        <time>2021-06-01T08:25:42.000Z</time>
      </trkpt>
      <trkpt lat="44.13277" lon="5.88388">
        <ele>866</ele>
        <time>2021-06-01T08:25:43.000Z</time>
      </trkpt>
      <trkpt lat="44.13277" lon="5.88388">
        <ele>866</ele>
        <time>2021-06-01T08:25:44.000Z</time>
      </trkpt>
      <trkpt lat="44.13277" lon="5.88388">
        <ele>866</ele>
        <time>2021-06-01T08:25:45.000Z</time>
      </trkpt>
      <trkpt lat="44.13277" lon="5.88388">
        <ele>866</ele>
        <time>2021-06-01T08:25:46.000Z</time>
      </trkpt>
      <trkpt lat="44.13277" lon="5.88388">
        <ele>866</ele>
        <time>2021-06-01T08:25:47.000Z</time>
      </trkpt>
      <trkpt lat="44.13278" lon="5.88388">
        <ele>866</ele>
        <time>2021-06-01T08:25:48.000Z</time>
      </trkpt>
      <trkpt lat="44.13278" lon="5.88387">
        <ele>866</ele>
        <time>2021-06-01T08:25:49.000Z</time>
      </trkpt>
      <trkpt lat="44.13278" lon="5.88387">
        <ele>866</ele>
        <time>2021-06-01T08:25:50.000Z</time>
      </trkpt>
      <trkpt lat="44.13278" lon="5.88387">
        <ele>867</ele>
        <time>2021-06-01T08:25:51.000Z</time>
      </trkpt>
      <trkpt lat="44.13279" lon="5.88387">
        <ele>867</ele>
        <time>2021-06-01T08:25:52.000Z</time>
      </trkpt>
      <trkpt lat="44.13279" lon="5.88388">
        <ele>867</ele>
        <time>2021-06-01T08:25:53.000Z</time>
      </trkpt>
      <trkpt lat="44.13279" lon="5.88388">
        <ele>867</ele>
        <time>2021-06-01T08:25:54.000Z</time>
      </trkpt>
      <trkpt lat="44.13279" lon="5.88388">
        <ele>867</ele>
        <time>2021-06-01T08:25:55.000Z</time>
      </trkpt>
      <trkpt lat="44.13279" lon="5.88388">
        <ele>867</ele>
        <time>2021-06-01T08:25:56.000Z</time>
      </trkpt>
      <trkpt lat="44.13279" lon="5.88389">
        <ele>868</ele>
        <time>2021-06-01T08:25:57.000Z</time>
      </trkpt>
      <trkpt lat="44.13279" lon="5.88389">
        <ele>868</ele>
        <time>2021-06-01T08:25:58.000Z</time>
      </trkpt>
      <trkpt lat="44.13279" lon="5.88389">
        <ele>868</ele>
        <time>2021-06-01T08:25:59.000Z</time>
      </trkpt>
      <trkpt lat="44.1328" lon="5.8839">
        <ele>868</ele>
        <time>2021-06-01T08:26:00.000Z</time>
      </trkpt>
      <trkpt lat="44.1328" lon="5.8839">
        <ele>868</ele>
        <time>2021-06-01T08:26:01.000Z</time>
      </trkpt>
      <trkpt lat="44.1328" lon="5.8839">
        <ele>868</ele>
        <time>2021-06-01T08:26:02.000Z</time>
      </trkpt>
      <trkpt lat="44.1328" lon="5.88391">
        <ele>868</ele>
        <time>2021-06-01T08:26:03.000Z</time>
      </trkpt>
      <trkpt lat="44.13281" lon="5.88391">
        <ele>869</ele>
        <time>2021-06-01T08:26:04.000Z</time>
      </trkpt>
      <trkpt lat="44.13281" lon="5.88391">
        <ele>869</ele>
        <time>2021-06-01T08:26:05.000Z</time>
      </trkpt>
      <trkpt lat="44.13281" lon="5.88391">
        <ele>870</ele>
        <time>2021-06-01T08:26:06.000Z</time>
      </trkpt>
      <trkpt lat="44.13281" lon="5.88391">
        <ele>870</ele>
        <time>2021-06-01T08:26:07.000Z</time>
      </trkpt>
      <trkpt lat="44.13281" lon="5.88391">
        <ele>870</ele>
        <time>2021-06-01T08:26:08.000Z</time>
      </trkpt>
      <trkpt lat="44.13281" lon="5.88391">
        <ele>871</ele>
        <time>2021-06-01T08:26:09.000Z</time>
      </trkpt>
      <trkpt lat="44.13282" lon="5.88391">
        <ele>871</ele>
        <time>2021-06-01T08:26:10.000Z</time>
      </trkpt>
      <trkpt lat="44.13282" lon="5.88391">
        <ele>871</ele>
        <time>2021-06-01T08:26:11.000Z</time>
      </trkpt>
      <trkpt lat="44.13282" lon="5.88391">
        <ele>871</ele>
        <time>2021-06-01T08:26:12.000Z</time>
      </trkpt>
      <trkpt lat="44.13282" lon="5.88391">
        <ele>872</ele>
        <time>2021-06-01T08:26:13.000Z</time>
      </trkpt>
      <trkpt lat="44.13282" lon="5.88391">
        <ele>872</ele>
        <time>2021-06-01T08:26:14.000Z</time>
      </trkpt>
      <trkpt lat="44.13282" lon="5.88391">
        <ele>872</ele>
        <time>2021-06-01T08:26:15.000Z</time>
      </trkpt>
      <trkpt lat="44.13282" lon="5.88391">
        <ele>871</ele>
        <time>2021-06-01T08:26:16.000Z</time>
      </trkpt>
      <trkpt lat="44.13282" lon="5.88392">
        <ele>871</ele>
        <time>2021-06-01T08:26:17.000Z</time>
      </trkpt>
      <trkpt lat="44.13282" lon="5.88392">
        <ele>871</ele>
        <time>2021-06-01T08:26:18.000Z</time>
      </trkpt>
      <trkpt lat="44.13282" lon="5.88392">
        <ele>871</ele>
        <time>2021-06-01T08:26:19.000Z</time>
      </trkpt>
      <trkpt lat="44.13282" lon="5.88392">
        <ele>870</ele>
        <time>2021-06-01T08:26:20.000Z</time>
      </trkpt>
      <trkpt lat="44.13282" lon="5.88392">
        <ele>870</ele>
        <time>2021-06-01T08:26:21.000Z</time>
      </trkpt>
      <trkpt lat="44.13282" lon="5.88392">
        <ele>870</ele>
        <time>2021-06-01T08:26:22.000Z</time>
      </trkpt>
      <trkpt lat="44.13282" lon="5.88392">
        <ele>870</ele>
        <time>2021-06-01T08:26:23.000Z</time>
      </trkpt>
      <trkpt lat="44.13282" lon="5.88392">
        <ele>869</ele>
        <time>2021-06-01T08:26:24.000Z</time>
      </trkpt>
      <trkpt lat="44.13282" lon="5.88392">
        <ele>869</ele>
        <time>2021-06-01T08:26:25.000Z</time>
      </trkpt>
      <trkpt lat="44.13282" lon="5.88392">
        <ele>869</ele>
        <time>2021-06-01T08:26:26.000Z</time>
      </trkpt>
      <trkpt lat="44.13282" lon="5.88392">
        <ele>869</ele>
        <time>2021-06-01T08:26:27.000Z</time>
      </trkpt>
      <trkpt lat="44.13282" lon="5.88392">
        <ele>869</ele>
        <time>2021-06-01T08:26:28.000Z</time>
      </trkpt>
      <trkpt lat="44.13281" lon="5.88392">
        <ele>868</ele>
        <time>2021-06-01T08:26:29.000Z</time>
      </trkpt>
      <trkpt lat="44.13281" lon="5.88392">
        <ele>868</ele>
        <time>2021-06-01T08:26:30.000Z</time>
      </trkpt>
      <trkpt lat="44.13281" lon="5.88392">
        <ele>868</ele>
        <time>2021-06-01T08:26:31.000Z</time>
      </trkpt>
      <trkpt lat="44.13281" lon="5.88392">
        <ele>868</ele>
        <time>2021-06-01T08:26:32.000Z</time>
      </trkpt>
      <trkpt lat="44.13282" lon="5.88393">
        <ele>868</ele>
        <time>2021-06-01T08:26:33.000Z</time>
      </trkpt>
      <trkpt lat="44.13282" lon="5.88393">
        <ele>868</ele>
        <time>2021-06-01T08:26:34.000Z</time>
      </trkpt>
      <trkpt lat="44.13282" lon="5.88392">
        <ele>868</ele>
        <time>2021-06-01T08:26:35.000Z</time>
      </trkpt>
      <trkpt lat="44.13282" lon="5.88392">
        <ele>868</ele>
        <time>2021-06-01T08:26:36.000Z</time>
      </trkpt>
      <trkpt lat="44.13282" lon="5.88392">
        <ele>868</ele>
        <time>2021-06-01T08:26:37.000Z</time>
      </trkpt>
      <trkpt lat="44.13282" lon="5.88392">
        <ele>868</ele>
        <time>2021-06-01T08:26:38.000Z</time>
      </trkpt>
      <trkpt lat="44.13282" lon="5.88392">
        <ele>868</ele>
        <time>2021-06-01T08:26:39.000Z</time>
      </trkpt>
      <trkpt lat="44.13282" lon="5.88392">
        <ele>868</ele>
        <time>2021-06-01T08:26:40.000Z</time>
      </trkpt>
      <trkpt lat="44.13283" lon="5.88392">
        <ele>868</ele>
        <time>2021-06-01T08:26:41.000Z</time>
      </trkpt>
      <trkpt lat="44.13283" lon="5.88393">
        <ele>868</ele>
        <time>2021-06-01T08:26:42.000Z</time>
      </trkpt>
      <trkpt lat="44.13284" lon="5.88393">
        <ele>867</ele>
        <time>2021-06-01T08:26:43.000Z</time>
      </trkpt>
      <trkpt lat="44.13284" lon="5.88394">
        <ele>867</ele>
        <time>2021-06-01T08:26:44.000Z</time>
      </trkpt>
      <trkpt lat="44.13285" lon="5.88394">
        <ele>867</ele>
        <time>2021-06-01T08:26:45.000Z</time>
      </trkpt>
      <trkpt lat="44.13285" lon="5.88395">
        <ele>867</ele>
        <time>2021-06-01T08:26:46.000Z</time>
      </trkpt>
      <trkpt lat="44.13285" lon="5.88395">
        <ele>867</ele>
        <time>2021-06-01T08:26:47.000Z</time>
      </trkpt>
      <trkpt lat="44.13286" lon="5.88396">
        <ele>867</ele>
        <time>2021-06-01T08:26:48.000Z</time>
      </trkpt>
      <trkpt lat="44.13286" lon="5.88396">
        <ele>867</ele>
        <time>2021-06-01T08:26:49.000Z</time>
      </trkpt>
      <trkpt lat="44.13286" lon="5.88396">
        <ele>867</ele>
        <time>2021-06-01T08:26:50.000Z</time>
      </trkpt>
      <trkpt lat="44.13286" lon="5.88396">
        <ele>867</ele>
        <time>2021-06-01T08:26:51.000Z</time>
      </trkpt>
      <trkpt lat="44.13286" lon="5.88396">
        <ele>866</ele>
        <time>2021-06-01T08:26:52.000Z</time>
      </trkpt>
      <trkpt lat="44.13287" lon="5.88396">
        <ele>866</ele>
        <time>2021-06-01T08:26:53.000Z</time>
      </trkpt>
      <trkpt lat="44.13287" lon="5.88397">
        <ele>866</ele>
        <time>2021-06-01T08:26:54.000Z</time>
      </trkpt>
      <trkpt lat="44.13287" lon="5.88397">
        <ele>866</ele>
        <time>2021-06-01T08:26:55.000Z</time>
      </trkpt>
      <trkpt lat="44.13288" lon="5.88397">
        <ele>866</ele>
        <time>2021-06-01T08:26:56.000Z</time>
      </trkpt>
      <trkpt lat="44.13289" lon="5.88397">
        <ele>866</ele>
        <time>2021-06-01T08:26:57.000Z</time>
      </trkpt>
      <trkpt lat="44.13289" lon="5.88398">
        <ele>866</ele>
        <time>2021-06-01T08:26:58.000Z</time>
      </trkpt>
      <trkpt lat="44.13289" lon="5.88398">
        <ele>866</ele>
        <time>2021-06-01T08:26:59.000Z</time>
      </trkpt>
      <trkpt lat="44.1329" lon="5.88398">
        <ele>866</ele>
        <time>2021-06-01T08:27:00.000Z</time>
      </trkpt>
      <trkpt lat="44.1329" lon="5.88399">
        <ele>866</ele>
        <time>2021-06-01T08:27:01.000Z</time>
      </trkpt>
      <trkpt lat="44.1329" lon="5.88399">
        <ele>866</ele>
        <time>2021-06-01T08:27:02.000Z</time>
      </trkpt>
      <trkpt lat="44.1329" lon="5.88399">
        <ele>866</ele>
        <time>2021-06-01T08:27:03.000Z</time>
      </trkpt>
      <trkpt lat="44.1329" lon="5.88399">
        <ele>865</ele>
        <time>2021-06-01T08:27:04.000Z</time>
      </trkpt>
      <trkpt lat="44.13291" lon="5.88399">
        <ele>865</ele>
        <time>2021-06-01T08:27:05.000Z</time>
      </trkpt>
      <trkpt lat="44.13291" lon="5.88399">
        <ele>865</ele>
        <time>2021-06-01T08:27:06.000Z</time>
      </trkpt>
      <trkpt lat="44.13291" lon="5.884">
        <ele>865</ele>
        <time>2021-06-01T08:27:07.000Z</time>
      </trkpt>
      <trkpt lat="44.13292" lon="5.884">
        <ele>865</ele>
        <time>2021-06-01T08:27:08.000Z</time>
      </trkpt>
      <trkpt lat="44.13292" lon="5.88401">
        <ele>865</ele>
        <time>2021-06-01T08:27:09.000Z</time>
      </trkpt>
      <trkpt lat="44.13293" lon="5.88401">
        <ele>865</ele>
        <time>2021-06-01T08:27:10.000Z</time>
      </trkpt>
      <trkpt lat="44.13293" lon="5.88402">
        <ele>865</ele>
        <time>2021-06-01T08:27:11.000Z</time>
      </trkpt>
      <trkpt lat="44.13294" lon="5.88402">
        <ele>865</ele>
        <time>2021-06-01T08:27:12.000Z</time>
      </trkpt>
      <trkpt lat="44.13294" lon="5.88403">
        <ele>865</ele>
        <time>2021-06-01T08:27:13.000Z</time>
      </trkpt>
      <trkpt lat="44.13295" lon="5.88403">
        <ele>865</ele>
        <time>2021-06-01T08:27:14.000Z</time>
      </trkpt>
      <trkpt lat="44.13295" lon="5.88404">
        <ele>865</ele>
        <time>2021-06-01T08:27:15.000Z</time>
      </trkpt>
      <trkpt lat="44.13295" lon="5.88404">
        <ele>865</ele>
        <time>2021-06-01T08:27:16.000Z</time>
      </trkpt>
      <trkpt lat="44.13296" lon="5.88404">
        <ele>865</ele>
        <time>2021-06-01T08:27:17.000Z</time>
      </trkpt>
      <trkpt lat="44.13296" lon="5.88405">
        <ele>865</ele>
        <time>2021-06-01T08:27:18.000Z</time>
      </trkpt>
      <trkpt lat="44.13297" lon="5.88405">
        <ele>865</ele>
        <time>2021-06-01T08:27:19.000Z</time>
      </trkpt>
      <trkpt lat="44.13297" lon="5.88405">
        <ele>865</ele>
        <time>2021-06-01T08:27:20.000Z</time>
      </trkpt>
      <trkpt lat="44.13298" lon="5.88406">
        <ele>866</ele>
        <time>2021-06-01T08:27:21.000Z</time>
      </trkpt>
      <trkpt lat="44.13298" lon="5.88406">
        <ele>866</ele>
        <time>2021-06-01T08:27:22.000Z</time>
      </trkpt>
      <trkpt lat="44.13298" lon="5.88406">
        <ele>866</ele>
        <time>2021-06-01T08:27:23.000Z</time>
      </trkpt>
      <trkpt lat="44.13298" lon="5.88406">
        <ele>866</ele>
        <time>2021-06-01T08:27:24.000Z</time>
      </trkpt>
      <trkpt lat="44.13298" lon="5.88406">
        <ele>866</ele>
        <time>2021-06-01T08:27:25.000Z</time>
      </trkpt>
      <trkpt lat="44.13298" lon="5.88406">
        <ele>866</ele>
        <time>2021-06-01T08:27:26.000Z</time>
      </trkpt>
      <trkpt lat="44.13299" lon="5.88406">
        <ele>866</ele>
        <time>2021-06-01T08:27:27.000Z</time>
      </trkpt>
      <trkpt lat="44.13299" lon="5.88406">
        <ele>866</ele>
        <time>2021-06-01T08:27:28.000Z</time>
      </trkpt>
      <trkpt lat="44.13299" lon="5.88406">
        <ele>866</ele>
        <time>2021-06-01T08:27:29.000Z</time>
      </trkpt>
      <trkpt lat="44.133" lon="5.88406">
        <ele>866</ele>
        <time>2021-06-01T08:27:30.000Z</time>
      </trkpt>
      <trkpt lat="44.133" lon="5.88407">
        <ele>866</ele>
        <time>2021-06-01T08:27:31.000Z</time>
      </trkpt>
      <trkpt lat="44.13301" lon="5.88407">
        <ele>866</ele>
        <time>2021-06-01T08:27:32.000Z</time>
      </trkpt>
      <trkpt lat="44.13301" lon="5.88408">
        <ele>866</ele>
        <time>2021-06-01T08:27:33.000Z</time>
      </trkpt>
      <trkpt lat="44.13301" lon="5.88408">
        <ele>866</ele>
        <time>2021-06-01T08:27:34.000Z</time>
      </trkpt>
      <trkpt lat="44.13302" lon="5.88408">
        <ele>866</ele>
        <time>2021-06-01T08:27:35.000Z</time>
      </trkpt>
      <trkpt lat="44.13302" lon="5.88409">
        <ele>866</ele>
        <time>2021-06-01T08:27:36.000Z</time>
      </trkpt>
      <trkpt lat="44.13303" lon="5.88409">
        <ele>867</ele>
        <time>2021-06-01T08:27:37.000Z</time>
      </trkpt>
      <trkpt lat="44.13303" lon="5.88409">
        <ele>867</ele>
        <time>2021-06-01T08:27:38.000Z</time>
      </trkpt>
      <trkpt lat="44.13304" lon="5.88409">
        <ele>867</ele>
        <time>2021-06-01T08:27:39.000Z</time>
      </trkpt>
      <trkpt lat="44.13303" lon="5.88409">
        <ele>867</ele>
        <time>2021-06-01T08:27:40.000Z</time>
      </trkpt>
      <trkpt lat="44.13304" lon="5.88409">
        <ele>867</ele>
        <time>2021-06-01T08:27:41.000Z</time>
      </trkpt>
      <trkpt lat="44.13304" lon="5.88409">
        <ele>867</ele>
        <time>2021-06-01T08:27:42.000Z</time>
      </trkpt>
      <trkpt lat="44.13304" lon="5.88409">
        <ele>867</ele>
        <time>2021-06-01T08:27:43.000Z</time>
      </trkpt>
      <trkpt lat="44.13304" lon="5.88409">
        <ele>867</ele>
        <time>2021-06-01T08:27:44.000Z</time>
      </trkpt>
      <trkpt lat="44.13304" lon="5.88409">
        <ele>867</ele>
        <time>2021-06-01T08:27:45.000Z</time>
      </trkpt>
      <trkpt lat="44.13305" lon="5.88409">
        <ele>867</ele>
        <time>2021-06-01T08:27:46.000Z</time>
      </trkpt>
      <trkpt lat="44.13305" lon="5.8841">
        <ele>867</ele>
        <time>2021-06-01T08:27:47.000Z</time>
      </trkpt>
      <trkpt lat="44.13306" lon="5.8841">
        <ele>867</ele>
        <time>2021-06-01T08:27:48.000Z</time>
      </trkpt>
      <trkpt lat="44.13306" lon="5.88411">
        <ele>868</ele>
        <time>2021-06-01T08:27:49.000Z</time>
      </trkpt>
      <trkpt lat="44.13306" lon="5.88411">
        <ele>868</ele>
        <time>2021-06-01T08:27:50.000Z</time>
      </trkpt>
      <trkpt lat="44.13307" lon="5.88411">
        <ele>868</ele>
        <time>2021-06-01T08:27:51.000Z</time>
      </trkpt>
      <trkpt lat="44.13307" lon="5.88411">
        <ele>868</ele>
        <time>2021-06-01T08:27:52.000Z</time>
      </trkpt>
      <trkpt lat="44.13308" lon="5.88411">
        <ele>868</ele>
        <time>2021-06-01T08:27:53.000Z</time>
      </trkpt>
      <trkpt lat="44.13308" lon="5.88411">
        <ele>868</ele>
        <time>2021-06-01T08:27:54.000Z</time>
      </trkpt>
      <trkpt lat="44.13308" lon="5.88411">
        <ele>868</ele>
        <time>2021-06-01T08:27:55.000Z</time>
      </trkpt>
      <trkpt lat="44.13309" lon="5.88411">
        <ele>868</ele>
        <time>2021-06-01T08:27:56.000Z</time>
      </trkpt>
      <trkpt lat="44.13309" lon="5.88411">
        <ele>868</ele>
        <time>2021-06-01T08:27:57.000Z</time>
      </trkpt>
      <trkpt lat="44.1331" lon="5.88411">
        <ele>868</ele>
        <time>2021-06-01T08:27:58.000Z</time>
      </trkpt>
      <trkpt lat="44.1331" lon="5.88412">
        <ele>868</ele>
        <time>2021-06-01T08:27:59.000Z</time>
      </trkpt>
      <trkpt lat="44.13311" lon="5.88412">
        <ele>868</ele>
        <time>2021-06-01T08:28:00.000Z</time>
      </trkpt>
      <trkpt lat="44.13311" lon="5.88413">
        <ele>868</ele>
        <time>2021-06-01T08:28:01.000Z</time>
      </trkpt>
      <trkpt lat="44.13312" lon="5.88413">
        <ele>868</ele>
        <time>2021-06-01T08:28:02.000Z</time>
      </trkpt>
      <trkpt lat="44.13312" lon="5.88413">
        <ele>869</ele>
        <time>2021-06-01T08:28:03.000Z</time>
      </trkpt>
      <trkpt lat="44.13312" lon="5.88413">
        <ele>869</ele>
        <time>2021-06-01T08:28:04.000Z</time>
      </trkpt>
      <trkpt lat="44.13312" lon="5.88413">
        <ele>869</ele>
        <time>2021-06-01T08:28:05.000Z</time>
      </trkpt>
      <trkpt lat="44.13313" lon="5.88413">
        <ele>869</ele>
        <time>2021-06-01T08:28:06.000Z</time>
      </trkpt>
      <trkpt lat="44.13313" lon="5.88413">
        <ele>869</ele>
        <time>2021-06-01T08:28:07.000Z</time>
      </trkpt>
      <trkpt lat="44.13313" lon="5.88414">
        <ele>869</ele>
        <time>2021-06-01T08:28:08.000Z</time>
      </trkpt>
      <trkpt lat="44.13314" lon="5.88414">
        <ele>869</ele>
        <time>2021-06-01T08:28:09.000Z</time>
      </trkpt>
      <trkpt lat="44.13314" lon="5.88414">
        <ele>869</ele>
        <time>2021-06-01T08:28:10.000Z</time>
      </trkpt>
      <trkpt lat="44.13314" lon="5.88414">
        <ele>869</ele>
        <time>2021-06-01T08:28:11.000Z</time>
      </trkpt>
      <trkpt lat="44.13315" lon="5.88415">
        <ele>870</ele>
        <time>2021-06-01T08:28:12.000Z</time>
      </trkpt>
      <trkpt lat="44.13315" lon="5.88415">
        <ele>870</ele>
        <time>2021-06-01T08:28:13.000Z</time>
      </trkpt>
      <trkpt lat="44.13315" lon="5.88415">
        <ele>870</ele>
        <time>2021-06-01T08:28:14.000Z</time>
      </trkpt>
      <trkpt lat="44.13315" lon="5.88415">
        <ele>870</ele>
        <time>2021-06-01T08:28:15.000Z</time>
      </trkpt>
      <trkpt lat="44.13315" lon="5.88416">
        <ele>870</ele>
        <time>2021-06-01T08:28:16.000Z</time>
      </trkpt>
      <trkpt lat="44.13315" lon="5.88416">
        <ele>870</ele>
        <time>2021-06-01T08:28:17.000Z</time>
      </trkpt>
      <trkpt lat="44.13315" lon="5.88415">
        <ele>870</ele>
        <time>2021-06-01T08:28:18.000Z</time>
      </trkpt>
      <trkpt lat="44.13315" lon="5.88415">
        <ele>870</ele>
        <time>2021-06-01T08:28:19.000Z</time>
      </trkpt>
      <trkpt lat="44.13315" lon="5.88415">
        <ele>870</ele>
        <time>2021-06-01T08:28:20.000Z</time>
      </trkpt>
      <trkpt lat="44.13315" lon="5.88415">
        <ele>870</ele>
        <time>2021-06-01T08:28:21.000Z</time>
      </trkpt>
      <trkpt lat="44.13315" lon="5.88415">
        <ele>870</ele>
        <time>2021-06-01T08:28:22.000Z</time>
      </trkpt>
      <trkpt lat="44.13316" lon="5.88415">
        <ele>871</ele>
        <time>2021-06-01T08:28:23.000Z</time>
      </trkpt>
      <trkpt lat="44.13315" lon="5.88415">
        <ele>871</ele>
        <time>2021-06-01T08:28:24.000Z</time>
      </trkpt>
      <trkpt lat="44.13316" lon="5.88415">
        <ele>871</ele>
        <time>2021-06-01T08:28:25.000Z</time>
      </trkpt>
      <trkpt lat="44.13316" lon="5.88415">
        <ele>871</ele>
        <time>2021-06-01T08:28:26.000Z</time>
      </trkpt>
      <trkpt lat="44.13316" lon="5.88415">
        <ele>871</ele>
        <time>2021-06-01T08:28:27.000Z</time>
      </trkpt>
      <trkpt lat="44.13316" lon="5.88415">
        <ele>871</ele>
        <time>2021-06-01T08:28:28.000Z</time>
      </trkpt>
      <trkpt lat="44.13316" lon="5.88414">
        <ele>871</ele>
        <time>2021-06-01T08:28:29.000Z</time>
      </trkpt>
      <trkpt lat="44.13315" lon="5.88414">
        <ele>871</ele>
        <time>2021-06-01T08:28:30.000Z</time>
      </trkpt>
      <trkpt lat="44.13315" lon="5.88414">
        <ele>871</ele>
        <time>2021-06-01T08:28:31.000Z</time>
      </trkpt>
      <trkpt lat="44.13316" lon="5.88414">
        <ele>871</ele>
        <time>2021-06-01T08:28:32.000Z</time>
      </trkpt>
      <trkpt lat="44.13316" lon="5.88414">
        <ele>871</ele>
        <time>2021-06-01T08:28:33.000Z</time>
      </trkpt>
      <trkpt lat="44.13316" lon="5.88415">
        <ele>871</ele>
        <time>2021-06-01T08:28:34.000Z</time>
      </trkpt>
      <trkpt lat="44.13317" lon="5.88415">
        <ele>871</ele>
        <time>2021-06-01T08:28:35.000Z</time>
      </trkpt>
      <trkpt lat="44.13317" lon="5.88415">
        <ele>871</ele>
        <time>2021-06-01T08:28:36.000Z</time>
      </trkpt>
      <trkpt lat="44.13318" lon="5.88415">
        <ele>871</ele>
        <time>2021-06-01T08:28:37.000Z</time>
      </trkpt>
      <trkpt lat="44.13318" lon="5.88415">
        <ele>871</ele>
        <time>2021-06-01T08:28:38.000Z</time>
      </trkpt>
      <trkpt lat="44.13319" lon="5.88416">
        <ele>872</ele>
        <time>2021-06-01T08:28:39.000Z</time>
      </trkpt>
      <trkpt lat="44.1332" lon="5.88416">
        <ele>872</ele>
        <time>2021-06-01T08:28:40.000Z</time>
      </trkpt>
      <trkpt lat="44.1332" lon="5.88416">
        <ele>872</ele>
        <time>2021-06-01T08:28:41.000Z</time>
      </trkpt>
      <trkpt lat="44.13321" lon="5.88417">
        <ele>872</ele>
        <time>2021-06-01T08:28:42.000Z</time>
      </trkpt>
      <trkpt lat="44.13321" lon="5.88417">
        <ele>872</ele>
        <time>2021-06-01T08:28:43.000Z</time>
      </trkpt>
      <trkpt lat="44.13322" lon="5.88418">
        <ele>872</ele>
        <time>2021-06-01T08:28:44.000Z</time>
      </trkpt>
      <trkpt lat="44.13322" lon="5.88418">
        <ele>872</ele>
        <time>2021-06-01T08:28:45.000Z</time>
      </trkpt>
      <trkpt lat="44.13323" lon="5.88418">
        <ele>872</ele>
        <time>2021-06-01T08:28:46.000Z</time>
      </trkpt>
      <trkpt lat="44.13323" lon="5.88419">
        <ele>872</ele>
        <time>2021-06-01T08:28:47.000Z</time>
      </trkpt>
      <trkpt lat="44.13324" lon="5.88419">
        <ele>872</ele>
        <time>2021-06-01T08:28:48.000Z</time>
      </trkpt>
      <trkpt lat="44.13324" lon="5.88419">
        <ele>873</ele>
        <time>2021-06-01T08:28:49.000Z</time>
      </trkpt>
      <trkpt lat="44.13325" lon="5.8842">
        <ele>873</ele>
        <time>2021-06-01T08:28:50.000Z</time>
      </trkpt>
      <trkpt lat="44.13325" lon="5.8842">
        <ele>873</ele>
        <time>2021-06-01T08:28:51.000Z</time>
      </trkpt>
      <trkpt lat="44.13326" lon="5.8842">
        <ele>873</ele>
        <time>2021-06-01T08:28:52.000Z</time>
      </trkpt>
      <trkpt lat="44.13326" lon="5.8842">
        <ele>873</ele>
        <time>2021-06-01T08:28:53.000Z</time>
      </trkpt>
      <trkpt lat="44.13326" lon="5.88421">
        <ele>873</ele>
        <time>2021-06-01T08:28:54.000Z</time>
      </trkpt>
      <trkpt lat="44.13326" lon="5.88421">
        <ele>873</ele>
        <time>2021-06-01T08:28:55.000Z</time>
      </trkpt>
      <trkpt lat="44.13327" lon="5.88422">
        <ele>873</ele>
        <time>2021-06-01T08:28:56.000Z</time>
      </trkpt>
      <trkpt lat="44.13327" lon="5.88422">
        <ele>873</ele>
        <time>2021-06-01T08:28:57.000Z</time>
      </trkpt>
      <trkpt lat="44.13327" lon="5.88422">
        <ele>874</ele>
        <time>2021-06-01T08:28:58.000Z</time>
      </trkpt>
      <trkpt lat="44.13327" lon="5.88422">
        <ele>874</ele>
        <time>2021-06-01T08:28:59.000Z</time>
      </trkpt>
      <trkpt lat="44.13328" lon="5.88422">
        <ele>874</ele>
        <time>2021-06-01T08:29:00.000Z</time>
      </trkpt>
      <trkpt lat="44.13328" lon="5.88422">
        <ele>874</ele>
        <time>2021-06-01T08:29:01.000Z</time>
      </trkpt>
      <trkpt lat="44.13327" lon="5.88422">
        <ele>874</ele>
        <time>2021-06-01T08:29:02.000Z</time>
      </trkpt>
      <trkpt lat="44.13327" lon="5.88422">
        <ele>874</ele>
        <time>2021-06-01T08:29:03.000Z</time>
      </trkpt>
      <trkpt lat="44.13327" lon="5.88423">
        <ele>874</ele>
        <time>2021-06-01T08:29:04.000Z</time>
      </trkpt>
      <trkpt lat="44.13328" lon="5.88422">
        <ele>874</ele>
        <time>2021-06-01T08:29:05.000Z</time>
      </trkpt>
      <trkpt lat="44.13328" lon="5.88423">
        <ele>874</ele>
        <time>2021-06-01T08:29:06.000Z</time>
      </trkpt>
      <trkpt lat="44.13328" lon="5.88423">
        <ele>874</ele>
        <time>2021-06-01T08:29:07.000Z</time>
      </trkpt>
      <trkpt lat="44.13328" lon="5.88423">
        <ele>874</ele>
        <time>2021-06-01T08:29:08.000Z</time>
      </trkpt>
      <trkpt lat="44.13328" lon="5.88424">
        <ele>875</ele>
        <time>2021-06-01T08:29:09.000Z</time>
      </trkpt>
      <trkpt lat="44.13328" lon="5.88424">
        <ele>875</ele>
        <time>2021-06-01T08:29:10.000Z</time>
      </trkpt>
      <trkpt lat="44.13328" lon="5.88424">
        <ele>875</ele>
        <time>2021-06-01T08:29:11.000Z</time>
      </trkpt>
      <trkpt lat="44.13328" lon="5.88424">
        <ele>875</ele>
        <time>2021-06-01T08:29:12.000Z</time>
      </trkpt>
      <trkpt lat="44.13328" lon="5.88424">
        <ele>875</ele>
        <time>2021-06-01T08:29:13.000Z</time>
      </trkpt>
      <trkpt lat="44.13328" lon="5.88424">
        <ele>875</ele>
        <time>2021-06-01T08:29:14.000Z</time>
      </trkpt>
      <trkpt lat="44.13328" lon="5.88424">
        <ele>875</ele>
        <time>2021-06-01T08:29:15.000Z</time>
      </trkpt>
      <trkpt lat="44.13328" lon="5.88424">
        <ele>875</ele>
        <time>2021-06-01T08:29:16.000Z</time>
      </trkpt>
      <trkpt lat="44.13328" lon="5.88423">
        <ele>875</ele>
        <time>2021-06-01T08:29:17.000Z</time>
      </trkpt>
      <trkpt lat="44.13328" lon="5.88423">
        <ele>875</ele>
        <time>2021-06-01T08:29:18.000Z</time>
      </trkpt>
      <trkpt lat="44.13328" lon="5.88423">
        <ele>875</ele>
        <time>2021-06-01T08:29:19.000Z</time>
      </trkpt>
      <trkpt lat="44.13328" lon="5.88423">
        <ele>876</ele>
        <time>2021-06-01T08:29:20.000Z</time>
      </trkpt>
      <trkpt lat="44.13328" lon="5.88423">
        <ele>876</ele>
        <time>2021-06-01T08:29:21.000Z</time>
      </trkpt>
      <trkpt lat="44.13328" lon="5.88423">
        <ele>876</ele>
        <time>2021-06-01T08:29:22.000Z</time>
      </trkpt>
      <trkpt lat="44.13328" lon="5.88423">
        <ele>876</ele>
        <time>2021-06-01T08:29:23.000Z</time>
      </trkpt>
      <trkpt lat="44.13329" lon="5.88423">
        <ele>876</ele>
        <time>2021-06-01T08:29:24.000Z</time>
      </trkpt>
      <trkpt lat="44.13329" lon="5.88423">
        <ele>876</ele>
        <time>2021-06-01T08:29:25.000Z</time>
      </trkpt>
      <trkpt lat="44.13329" lon="5.88423">
        <ele>876</ele>
        <time>2021-06-01T08:29:26.000Z</time>
      </trkpt>
      <trkpt lat="44.13329" lon="5.88423">
        <ele>876</ele>
        <time>2021-06-01T08:29:27.000Z</time>
      </trkpt>
      <trkpt lat="44.13329" lon="5.88423">
        <ele>877</ele>
        <time>2021-06-01T08:29:28.000Z</time>
      </trkpt>
      <trkpt lat="44.13329" lon="5.88423">
        <ele>877</ele>
        <time>2021-06-01T08:29:29.000Z</time>
      </trkpt>
      <trkpt lat="44.13329" lon="5.88423">
        <ele>877</ele>
        <time>2021-06-01T08:29:30.000Z</time>
      </trkpt>
      <trkpt lat="44.13329" lon="5.88422">
        <ele>877</ele>
        <time>2021-06-01T08:29:31.000Z</time>
      </trkpt>
      <trkpt lat="44.13329" lon="5.88422">
        <ele>877</ele>
        <time>2021-06-01T08:29:32.000Z</time>
      </trkpt>
      <trkpt lat="44.13329" lon="5.88422">
        <ele>877</ele>
        <time>2021-06-01T08:29:33.000Z</time>
      </trkpt>
      <trkpt lat="44.13329" lon="5.88422">
        <ele>877</ele>
        <time>2021-06-01T08:29:34.000Z</time>
      </trkpt>
      <trkpt lat="44.13329" lon="5.88422">
        <ele>877</ele>
        <time>2021-06-01T08:29:35.000Z</time>
      </trkpt>
      <trkpt lat="44.13329" lon="5.88422">
        <ele>877</ele>
        <time>2021-06-01T08:29:36.000Z</time>
      </trkpt>
      <trkpt lat="44.13329" lon="5.88422">
        <ele>877</ele>
        <time>2021-06-01T08:29:37.000Z</time>
      </trkpt>
      <trkpt lat="44.13329" lon="5.88422">
        <ele>878</ele>
        <time>2021-06-01T08:29:38.000Z</time>
      </trkpt>
      <trkpt lat="44.13329" lon="5.88422">
        <ele>878</ele>
        <time>2021-06-01T08:29:39.000Z</time>
      </trkpt>
      <trkpt lat="44.13329" lon="5.88422">
        <ele>878</ele>
        <time>2021-06-01T08:29:40.000Z</time>
      </trkpt>
      <trkpt lat="44.13329" lon="5.88422">
        <ele>878</ele>
        <time>2021-06-01T08:29:41.000Z</time>
      </trkpt>
      <trkpt lat="44.13329" lon="5.88422">
        <ele>878</ele>
        <time>2021-06-01T08:29:42.000Z</time>
      </trkpt>
      <trkpt lat="44.13329" lon="5.88422">
        <ele>878</ele>
        <time>2021-06-01T08:29:43.000Z</time>
      </trkpt>
      <trkpt lat="44.13329" lon="5.88422">
        <ele>878</ele>
        <time>2021-06-01T08:29:44.000Z</time>
      </trkpt>
      <trkpt lat="44.13329" lon="5.88422">
        <ele>878</ele>
        <time>2021-06-01T08:29:45.000Z</time>
      </trkpt>
      <trkpt lat="44.13329" lon="5.88422">
        <ele>878</ele>
        <time>2021-06-01T08:29:46.000Z</time>
      </trkpt>
      <trkpt lat="44.13329" lon="5.88422">
        <ele>878</ele>
        <time>2021-06-01T08:29:47.000Z</time>
      </trkpt>
      <trkpt lat="44.13329" lon="5.88422">
        <ele>878</ele>
        <time>2021-06-01T08:29:48.000Z</time>
      </trkpt>
      <trkpt lat="44.13329" lon="5.88422">
        <ele>878</ele>
        <time>2021-06-01T08:29:49.000Z</time>
      </trkpt>
      <trkpt lat="44.13329" lon="5.88422">
        <ele>878</ele>
        <time>2021-06-01T08:29:50.000Z</time>
      </trkpt>
      <trkpt lat="44.13329" lon="5.88422">
        <ele>879</ele>
        <time>2021-06-01T08:29:51.000Z</time>
      </trkpt>
      <trkpt lat="44.13328" lon="5.88422">
        <ele>879</ele>
        <time>2021-06-01T08:29:52.000Z</time>
      </trkpt>
      <trkpt lat="44.13328" lon="5.88422">
        <ele>879</ele>
        <time>2021-06-01T08:29:53.000Z</time>
      </trkpt>
      <trkpt lat="44.13328" lon="5.88422">
        <ele>879</ele>
        <time>2021-06-01T08:29:54.000Z</time>
      </trkpt>
      <trkpt lat="44.13328" lon="5.88422">
        <ele>879</ele>
        <time>2021-06-01T08:29:55.000Z</time>
      </trkpt>
      <trkpt lat="44.13328" lon="5.88422">
        <ele>879</ele>
        <time>2021-06-01T08:29:56.000Z</time>
      </trkpt>
      <trkpt lat="44.13328" lon="5.88423">
        <ele>879</ele>
        <time>2021-06-01T08:29:57.000Z</time>
      </trkpt>
      <trkpt lat="44.13328" lon="5.88422">
        <ele>879</ele>
        <time>2021-06-01T08:29:58.000Z</time>
      </trkpt>
      <trkpt lat="44.13328" lon="5.88422">
        <ele>879</ele>
        <time>2021-06-01T08:29:59.000Z</time>
      </trkpt>
      <trkpt lat="44.13327" lon="5.88423">
        <ele>880</ele>
        <time>2021-06-01T08:30:00.000Z</time>
      </trkpt>
      <trkpt lat="44.13327" lon="5.88423">
        <ele>880</ele>
        <time>2021-06-01T08:30:01.000Z</time>
      </trkpt>
      <trkpt lat="44.13327" lon="5.88423">
        <ele>880</ele>
        <time>2021-06-01T08:30:02.000Z</time>
      </trkpt>
      <trkpt lat="44.13327" lon="5.88423">
        <ele>880</ele>
        <time>2021-06-01T08:30:03.000Z</time>
      </trkpt>
      <trkpt lat="44.13327" lon="5.88423">
        <ele>880</ele>
        <time>2021-06-01T08:30:04.000Z</time>
      </trkpt>
      <trkpt lat="44.13327" lon="5.88423">
        <ele>880</ele>
        <time>2021-06-01T08:30:05.000Z</time>
      </trkpt>
      <trkpt lat="44.13327" lon="5.88423">
        <ele>880</ele>
        <time>2021-06-01T08:30:06.000Z</time>
      </trkpt>
      <trkpt lat="44.13327" lon="5.88423">
        <ele>881</ele>
        <time>2021-06-01T08:30:07.000Z</time>
      </trkpt>
      <trkpt lat="44.13327" lon="5.88424">
        <ele>881</ele>
        <time>2021-06-01T08:30:08.000Z</time>
      </trkpt>
      <trkpt lat="44.13326" lon="5.88424">
        <ele>881</ele>
        <time>2021-06-01T08:30:09.000Z</time>
      </trkpt>
      <trkpt lat="44.13326" lon="5.88424">
        <ele>881</ele>
        <time>2021-06-01T08:30:10.000Z</time>
      </trkpt>
      <trkpt lat="44.13326" lon="5.88424">
        <ele>881</ele>
        <time>2021-06-01T08:30:11.000Z</time>
      </trkpt>
      <trkpt lat="44.13326" lon="5.88425">
        <ele>881</ele>
        <time>2021-06-01T08:30:12.000Z</time>
      </trkpt>
      <trkpt lat="44.13326" lon="5.88424">
        <ele>881</ele>
        <time>2021-06-01T08:30:13.000Z</time>
      </trkpt>
      <trkpt lat="44.13326" lon="5.88425">
        <ele>881</ele>
        <time>2021-06-01T08:30:14.000Z</time>
      </trkpt>
      <trkpt lat="44.13326" lon="5.88424">
        <ele>881</ele>
        <time>2021-06-01T08:30:15.000Z</time>
      </trkpt>
      <trkpt lat="44.13326" lon="5.88425">
        <ele>881</ele>
        <time>2021-06-01T08:30:16.000Z</time>
      </trkpt>
      <trkpt lat="44.13326" lon="5.88425">
        <ele>882</ele>
        <time>2021-06-01T08:30:17.000Z</time>
      </trkpt>
      <trkpt lat="44.13325" lon="5.88425">
        <ele>882</ele>
        <time>2021-06-01T08:30:18.000Z</time>
      </trkpt>
      <trkpt lat="44.13325" lon="5.88425">
        <ele>882</ele>
        <time>2021-06-01T08:30:19.000Z</time>
      </trkpt>
      <trkpt lat="44.13325" lon="5.88426">
        <ele>882</ele>
        <time>2021-06-01T08:30:20.000Z</time>
      </trkpt>
      <trkpt lat="44.13325" lon="5.88426">
        <ele>882</ele>
        <time>2021-06-01T08:30:21.000Z</time>
      </trkpt>
      <trkpt lat="44.13325" lon="5.88426">
        <ele>882</ele>
        <time>2021-06-01T08:30:22.000Z</time>
      </trkpt>
      <trkpt lat="44.13325" lon="5.88427">
        <ele>882</ele>
        <time>2021-06-01T08:30:23.000Z</time>
      </trkpt>
      <trkpt lat="44.13326" lon="5.88427">
        <ele>882</ele>
        <time>2021-06-01T08:30:24.000Z</time>
      </trkpt>
      <trkpt lat="44.13326" lon="5.88427">
        <ele>882</ele>
        <time>2021-06-01T08:30:25.000Z</time>
      </trkpt>
      <trkpt lat="44.13326" lon="5.88428">
        <ele>882</ele>
        <time>2021-06-01T08:30:26.000Z</time>
      </trkpt>
      <trkpt lat="44.13326" lon="5.88428">
        <ele>882</ele>
        <time>2021-06-01T08:30:27.000Z</time>
      </trkpt>
      <trkpt lat="44.13326" lon="5.88429">
        <ele>882</ele>
        <time>2021-06-01T08:30:28.000Z</time>
      </trkpt>
      <trkpt lat="44.13326" lon="5.88429">
        <ele>882</ele>
        <time>2021-06-01T08:30:29.000Z</time>
      </trkpt>
      <trkpt lat="44.13326" lon="5.8843">
        <ele>882</ele>
        <time>2021-06-01T08:30:30.000Z</time>
      </trkpt>
      <trkpt lat="44.13326" lon="5.8843">
        <ele>882</ele>
        <time>2021-06-01T08:30:31.000Z</time>
      </trkpt>
      <trkpt lat="44.13327" lon="5.8843">
        <ele>883</ele>
        <time>2021-06-01T08:30:32.000Z</time>
      </trkpt>
      <trkpt lat="44.13327" lon="5.8843">
        <ele>883</ele>
        <time>2021-06-01T08:30:33.000Z</time>
      </trkpt>
      <trkpt lat="44.13328" lon="5.88431">
        <ele>883</ele>
        <time>2021-06-01T08:30:34.000Z</time>
      </trkpt>
      <trkpt lat="44.13328" lon="5.88431">
        <ele>883</ele>
        <time>2021-06-01T08:30:35.000Z</time>
      </trkpt>
      <trkpt lat="44.13328" lon="5.88431">
        <ele>883</ele>
        <time>2021-06-01T08:30:36.000Z</time>
      </trkpt>
      <trkpt lat="44.13328" lon="5.88431">
        <ele>883</ele>
        <time>2021-06-01T08:30:37.000Z</time>
      </trkpt>
      <trkpt lat="44.13328" lon="5.88431">
        <ele>884</ele>
        <time>2021-06-01T08:30:38.000Z</time>
      </trkpt>
      <trkpt lat="44.13328" lon="5.88431">
        <ele>884</ele>
        <time>2021-06-01T08:30:39.000Z</time>
      </trkpt>
      <trkpt lat="44.13328" lon="5.88431">
        <ele>884</ele>
        <time>2021-06-01T08:30:40.000Z</time>
      </trkpt>
      <trkpt lat="44.13328" lon="5.88431">
        <ele>884</ele>
        <time>2021-06-01T08:30:41.000Z</time>
      </trkpt>
      <trkpt lat="44.13328" lon="5.88431">
        <ele>884</ele>
        <time>2021-06-01T08:30:42.000Z</time>
      </trkpt>
      <trkpt lat="44.13328" lon="5.88431">
        <ele>884</ele>
        <time>2021-06-01T08:30:43.000Z</time>
      </trkpt>
      <trkpt lat="44.13329" lon="5.88431">
        <ele>884</ele>
        <time>2021-06-01T08:30:44.000Z</time>
      </trkpt>
      <trkpt lat="44.13329" lon="5.8843">
        <ele>884</ele>
        <time>2021-06-01T08:30:45.000Z</time>
      </trkpt>
      <trkpt lat="44.13329" lon="5.8843">
        <ele>885</ele>
        <time>2021-06-01T08:30:46.000Z</time>
      </trkpt>
      <trkpt lat="44.13329" lon="5.8843">
        <ele>885</ele>
        <time>2021-06-01T08:30:47.000Z</time>
      </trkpt>
      <trkpt lat="44.13329" lon="5.8843">
        <ele>885</ele>
        <time>2021-06-01T08:30:48.000Z</time>
      </trkpt>
      <trkpt lat="44.13329" lon="5.88431">
        <ele>885</ele>
        <time>2021-06-01T08:30:49.000Z</time>
      </trkpt>
      <trkpt lat="44.13329" lon="5.8843">
        <ele>885</ele>
        <time>2021-06-01T08:30:50.000Z</time>
      </trkpt>
      <trkpt lat="44.13329" lon="5.88431">
        <ele>885</ele>
        <time>2021-06-01T08:30:51.000Z</time>
      </trkpt>
      <trkpt lat="44.13329" lon="5.88431">
        <ele>885</ele>
        <time>2021-06-01T08:30:52.000Z</time>
      </trkpt>
      <trkpt lat="44.13329" lon="5.88432">
        <ele>885</ele>
        <time>2021-06-01T08:30:53.000Z</time>
      </trkpt>
      <trkpt lat="44.13329" lon="5.88432">
        <ele>886</ele>
        <time>2021-06-01T08:30:54.000Z</time>
      </trkpt>
      <trkpt lat="44.13329" lon="5.88432">
        <ele>886</ele>
        <time>2021-06-01T08:30:55.000Z</time>
      </trkpt>
      <trkpt lat="44.13329" lon="5.88433">
        <ele>886</ele>
        <time>2021-06-01T08:30:56.000Z</time>
      </trkpt>
      <trkpt lat="44.13328" lon="5.88433">
        <ele>886</ele>
        <time>2021-06-01T08:30:57.000Z</time>
      </trkpt>
      <trkpt lat="44.13328" lon="5.88434">
        <ele>886</ele>
        <time>2021-06-01T08:30:58.000Z</time>
      </trkpt>
      <trkpt lat="44.13327" lon="5.88435">
        <ele>886</ele>
        <time>2021-06-01T08:30:59.000Z</time>
      </trkpt>
      <trkpt lat="44.13326" lon="5.88435">
        <ele>886</ele>
        <time>2021-06-01T08:31:00.000Z</time>
      </trkpt>
      <trkpt lat="44.13325" lon="5.88435">
        <ele>886</ele>
        <time>2021-06-01T08:31:01.000Z</time>
      </trkpt>
      <trkpt lat="44.13324" lon="5.88435">
        <ele>886</ele>
        <time>2021-06-01T08:31:02.000Z</time>
      </trkpt>
      <trkpt lat="44.13324" lon="5.88435">
        <ele>886</ele>
        <time>2021-06-01T08:31:03.000Z</time>
      </trkpt>
      <trkpt lat="44.13323" lon="5.88435">
        <ele>887</ele>
        <time>2021-06-01T08:31:04.000Z</time>
      </trkpt>
      <trkpt lat="44.13323" lon="5.88434">
        <ele>887</ele>
        <time>2021-06-01T08:31:05.000Z</time>
      </trkpt>
      <trkpt lat="44.13322" lon="5.88434">
        <ele>887</ele>
        <time>2021-06-01T08:31:06.000Z</time>
      </trkpt>
      <trkpt lat="44.13322" lon="5.88433">
        <ele>887</ele>
        <time>2021-06-01T08:31:07.000Z</time>
      </trkpt>
      <trkpt lat="44.13322" lon="5.88433">
        <ele>887</ele>
        <time>2021-06-01T08:31:08.000Z</time>
      </trkpt>
      <trkpt lat="44.13321" lon="5.88433">
        <ele>887</ele>
        <time>2021-06-01T08:31:09.000Z</time>
      </trkpt>
      <trkpt lat="44.13321" lon="5.88432">
        <ele>887</ele>
        <time>2021-06-01T08:31:10.000Z</time>
      </trkpt>
      <trkpt lat="44.1332" lon="5.88431">
        <ele>887</ele>
        <time>2021-06-01T08:31:11.000Z</time>
      </trkpt>
      <trkpt lat="44.1332" lon="5.88431">
        <ele>888</ele>
        <time>2021-06-01T08:31:12.000Z</time>
      </trkpt>
      <trkpt lat="44.1332" lon="5.88431">
        <ele>888</ele>
        <time>2021-06-01T08:31:13.000Z</time>
      </trkpt>
      <trkpt lat="44.1332" lon="5.88431">
        <ele>888</ele>
        <time>2021-06-01T08:31:14.000Z</time>
      </trkpt>
      <trkpt lat="44.1332" lon="5.88431">
        <ele>888</ele>
        <time>2021-06-01T08:31:15.000Z</time>
      </trkpt>
      <trkpt lat="44.13319" lon="5.88431">
        <ele>888</ele>
        <time>2021-06-01T08:31:16.000Z</time>
      </trkpt>
      <trkpt lat="44.13319" lon="5.88431">
        <ele>888</ele>
        <time>2021-06-01T08:31:17.000Z</time>
      </trkpt>
      <trkpt lat="44.13319" lon="5.88431">
        <ele>888</ele>
        <time>2021-06-01T08:31:18.000Z</time>
      </trkpt>
      <trkpt lat="44.13319" lon="5.88431">
        <ele>888</ele>
        <time>2021-06-01T08:31:19.000Z</time>
      </trkpt>
      <trkpt lat="44.13319" lon="5.88431">
        <ele>888</ele>
        <time>2021-06-01T08:31:20.000Z</time>
      </trkpt>
      <trkpt lat="44.13319" lon="5.88431">
        <ele>888</ele>
        <time>2021-06-01T08:31:21.000Z</time>
      </trkpt>
      <trkpt lat="44.13319" lon="5.88431">
        <ele>888</ele>
        <time>2021-06-01T08:31:22.000Z</time>
      </trkpt>
      <trkpt lat="44.13319" lon="5.88431">
        <ele>888</ele>
        <time>2021-06-01T08:31:23.000Z</time>
      </trkpt>
      <trkpt lat="44.13319" lon="5.88431">
        <ele>888</ele>
        <time>2021-06-01T08:31:24.000Z</time>
      </trkpt>
      <trkpt lat="44.13319" lon="5.88431">
        <ele>888</ele>
        <time>2021-06-01T08:31:25.000Z</time>
      </trkpt>
      <trkpt lat="44.13318" lon="5.88431">
        <ele>888</ele>
        <time>2021-06-01T08:31:26.000Z</time>
      </trkpt>
      <trkpt lat="44.13318" lon="5.88431">
        <ele>888</ele>
        <time>2021-06-01T08:31:27.000Z</time>
      </trkpt>
      <trkpt lat="44.13318" lon="5.8843">
        <ele>888</ele>
        <time>2021-06-01T08:31:28.000Z</time>
      </trkpt>
      <trkpt lat="44.13318" lon="5.8843">
        <ele>888</ele>
        <time>2021-06-01T08:31:29.000Z</time>
      </trkpt>
      <trkpt lat="44.13318" lon="5.8843">
        <ele>888</ele>
        <time>2021-06-01T08:31:30.000Z</time>
      </trkpt>
      <trkpt lat="44.13318" lon="5.8843">
        <ele>888</ele>
        <time>2021-06-01T08:31:31.000Z</time>
      </trkpt>
      <trkpt lat="44.13318" lon="5.8843">
        <ele>888</ele>
        <time>2021-06-01T08:31:32.000Z</time>
      </trkpt>
      <trkpt lat="44.13318" lon="5.8843">
        <ele>888</ele>
        <time>2021-06-01T08:31:33.000Z</time>
      </trkpt>
      <trkpt lat="44.13318" lon="5.8843">
        <ele>889</ele>
        <time>2021-06-01T08:31:34.000Z</time>
      </trkpt>
      <trkpt lat="44.13318" lon="5.8843">
        <ele>889</ele>
        <time>2021-06-01T08:31:35.000Z</time>
      </trkpt>
      <trkpt lat="44.13318" lon="5.8843">
        <ele>889</ele>
        <time>2021-06-01T08:31:36.000Z</time>
      </trkpt>
      <trkpt lat="44.13318" lon="5.8843">
        <ele>889</ele>
        <time>2021-06-01T08:31:37.000Z</time>
      </trkpt>
      <trkpt lat="44.13318" lon="5.8843">
        <ele>889</ele>
        <time>2021-06-01T08:31:38.000Z</time>
      </trkpt>
      <trkpt lat="44.13318" lon="5.8843">
        <ele>889</ele>
        <time>2021-06-01T08:31:39.000Z</time>
      </trkpt>
      <trkpt lat="44.13318" lon="5.8843">
        <ele>889</ele>
        <time>2021-06-01T08:31:40.000Z</time>
      </trkpt>
      <trkpt lat="44.13318" lon="5.8843">
        <ele>889</ele>
        <time>2021-06-01T08:31:41.000Z</time>
      </trkpt>
      <trkpt lat="44.13318" lon="5.8843">
        <ele>889</ele>
        <time>2021-06-01T08:31:42.000Z</time>
      </trkpt>
      <trkpt lat="44.13318" lon="5.8843">
        <ele>889</ele>
        <time>2021-06-01T08:31:43.000Z</time>
      </trkpt>
      <trkpt lat="44.13318" lon="5.8843">
        <ele>889</ele>
        <time>2021-06-01T08:31:44.000Z</time>
      </trkpt>
      <trkpt lat="44.13317" lon="5.8843">
        <ele>889</ele>
        <time>2021-06-01T08:31:45.000Z</time>
      </trkpt>
      <trkpt lat="44.13317" lon="5.88429">
        <ele>889</ele>
        <time>2021-06-01T08:31:46.000Z</time>
      </trkpt>
      <trkpt lat="44.13317" lon="5.88429">
        <ele>889</ele>
        <time>2021-06-01T08:31:47.000Z</time>
      </trkpt>
      <trkpt lat="44.13317" lon="5.88429">
        <ele>889</ele>
        <time>2021-06-01T08:31:48.000Z</time>
      </trkpt>
      <trkpt lat="44.13317" lon="5.88429">
        <ele>889</ele>
        <time>2021-06-01T08:31:49.000Z</time>
      </trkpt>
      <trkpt lat="44.13317" lon="5.88428">
        <ele>889</ele>
        <time>2021-06-01T08:31:50.000Z</time>
      </trkpt>
      <trkpt lat="44.13316" lon="5.88428">
        <ele>890</ele>
        <time>2021-06-01T08:31:51.000Z</time>
      </trkpt>
      <trkpt lat="44.13316" lon="5.88427">
        <ele>890</ele>
        <time>2021-06-01T08:31:52.000Z</time>
      </trkpt>
      <trkpt lat="44.13316" lon="5.88427">
        <ele>890</ele>
        <time>2021-06-01T08:31:53.000Z</time>
      </trkpt>
      <trkpt lat="44.13315" lon="5.88427">
        <ele>890</ele>
        <time>2021-06-01T08:31:54.000Z</time>
      </trkpt>
      <trkpt lat="44.13315" lon="5.88427">
        <ele>890</ele>
        <time>2021-06-01T08:31:55.000Z</time>
      </trkpt>
      <trkpt lat="44.13315" lon="5.88427">
        <ele>890</ele>
        <time>2021-06-01T08:31:56.000Z</time>
      </trkpt>
      <trkpt lat="44.13315" lon="5.88427">
        <ele>890</ele>
        <time>2021-06-01T08:31:57.000Z</time>
      </trkpt>
      <trkpt lat="44.13314" lon="5.88427">
        <ele>890</ele>
        <time>2021-06-01T08:31:58.000Z</time>
      </trkpt>
      <trkpt lat="44.13314" lon="5.88427">
        <ele>890</ele>
        <time>2021-06-01T08:31:59.000Z</time>
      </trkpt>
      <trkpt lat="44.13314" lon="5.88427">
        <ele>891</ele>
        <time>2021-06-01T08:32:00.000Z</time>
      </trkpt>
      <trkpt lat="44.13314" lon="5.88427">
        <ele>891</ele>
        <time>2021-06-01T08:32:01.000Z</time>
      </trkpt>
      <trkpt lat="44.13314" lon="5.88427">
        <ele>891</ele>
        <time>2021-06-01T08:32:02.000Z</time>
      </trkpt>
      <trkpt lat="44.13314" lon="5.88427">
        <ele>891</ele>
        <time>2021-06-01T08:32:03.000Z</time>
      </trkpt>
      <trkpt lat="44.13314" lon="5.88426">
        <ele>891</ele>
        <time>2021-06-01T08:32:04.000Z</time>
      </trkpt>
      <trkpt lat="44.13314" lon="5.88426">
        <ele>891</ele>
        <time>2021-06-01T08:32:05.000Z</time>
      </trkpt>
      <trkpt lat="44.13314" lon="5.88426">
        <ele>891</ele>
        <time>2021-06-01T08:32:06.000Z</time>
      </trkpt>
      <trkpt lat="44.13314" lon="5.88426">
        <ele>891</ele>
        <time>2021-06-01T08:32:07.000Z</time>
      </trkpt>
      <trkpt lat="44.13313" lon="5.88426">
        <ele>891</ele>
        <time>2021-06-01T08:32:08.000Z</time>
      </trkpt>
      <trkpt lat="44.13313" lon="5.88427">
        <ele>891</ele>
        <time>2021-06-01T08:32:09.000Z</time>
      </trkpt>
      <trkpt lat="44.13313" lon="5.88427">
        <ele>891</ele>
        <time>2021-06-01T08:32:10.000Z</time>
      </trkpt>
      <trkpt lat="44.13313" lon="5.88427">
        <ele>891</ele>
        <time>2021-06-01T08:32:11.000Z</time>
      </trkpt>
      <trkpt lat="44.13313" lon="5.88427">
        <ele>892</ele>
        <time>2021-06-01T08:32:12.000Z</time>
      </trkpt>
      <trkpt lat="44.13313" lon="5.88427">
        <ele>892</ele>
        <time>2021-06-01T08:32:13.000Z</time>
      </trkpt>
      <trkpt lat="44.13313" lon="5.88426">
        <ele>892</ele>
        <time>2021-06-01T08:32:14.000Z</time>
      </trkpt>
      <trkpt lat="44.13313" lon="5.88426">
        <ele>892</ele>
        <time>2021-06-01T08:32:15.000Z</time>
      </trkpt>
      <trkpt lat="44.13313" lon="5.88426">
        <ele>892</ele>
        <time>2021-06-01T08:32:16.000Z</time>
      </trkpt>
      <trkpt lat="44.13314" lon="5.88426">
        <ele>893</ele>
        <time>2021-06-01T08:32:17.000Z</time>
      </trkpt>
      <trkpt lat="44.13314" lon="5.88426">
        <ele>893</ele>
        <time>2021-06-01T08:32:18.000Z</time>
      </trkpt>
      <trkpt lat="44.13314" lon="5.88426">
        <ele>893</ele>
        <time>2021-06-01T08:32:19.000Z</time>
      </trkpt>
      <trkpt lat="44.13314" lon="5.88426">
        <ele>893</ele>
        <time>2021-06-01T08:32:20.000Z</time>
      </trkpt>
      <trkpt lat="44.13314" lon="5.88426">
        <ele>894</ele>
        <time>2021-06-01T08:32:21.000Z</time>
      </trkpt>
      <trkpt lat="44.13314" lon="5.88425">
        <ele>894</ele>
        <time>2021-06-01T08:32:22.000Z</time>
      </trkpt>
      <trkpt lat="44.13314" lon="5.88425">
        <ele>894</ele>
        <time>2021-06-01T08:32:23.000Z</time>
      </trkpt>
      <trkpt lat="44.13314" lon="5.88425">
        <ele>894</ele>
        <time>2021-06-01T08:32:24.000Z</time>
      </trkpt>
      <trkpt lat="44.13314" lon="5.88425">
        <ele>895</ele>
        <time>2021-06-01T08:32:25.000Z</time>
      </trkpt>
      <trkpt lat="44.13314" lon="5.88425">
        <ele>895</ele>
        <time>2021-06-01T08:32:26.000Z</time>
      </trkpt>
      <trkpt lat="44.13314" lon="5.88425">
        <ele>895</ele>
        <time>2021-06-01T08:32:27.000Z</time>
      </trkpt>
      <trkpt lat="44.13314" lon="5.88425">
        <ele>895</ele>
        <time>2021-06-01T08:32:28.000Z</time>
      </trkpt>
      <trkpt lat="44.13314" lon="5.88426">
        <ele>896</ele>
        <time>2021-06-01T08:32:29.000Z</time>
      </trkpt>
      <trkpt lat="44.13314" lon="5.88426">
        <ele>896</ele>
        <time>2021-06-01T08:32:30.000Z</time>
      </trkpt>
      <trkpt lat="44.13314" lon="5.88426">
        <ele>896</ele>
        <time>2021-06-01T08:32:31.000Z</time>
      </trkpt>
      <trkpt lat="44.13314" lon="5.88426">
        <ele>896</ele>
        <time>2021-06-01T08:32:32.000Z</time>
      </trkpt>
      <trkpt lat="44.13314" lon="5.88425">
        <ele>897</ele>
        <time>2021-06-01T08:32:33.000Z</time>
      </trkpt>
      <trkpt lat="44.13314" lon="5.88425">
        <ele>897</ele>
        <time>2021-06-01T08:32:34.000Z</time>
      </trkpt>
      <trkpt lat="44.13314" lon="5.88425">
        <ele>897</ele>
        <time>2021-06-01T08:32:35.000Z</time>
      </trkpt>
      <trkpt lat="44.13314" lon="5.88425">
        <ele>897</ele>
        <time>2021-06-01T08:32:36.000Z</time>
      </trkpt>
      <trkpt lat="44.13314" lon="5.88426">
        <ele>897</ele>
        <time>2021-06-01T08:32:37.000Z</time>
      </trkpt>
      <trkpt lat="44.13313" lon="5.88426">
        <ele>897</ele>
        <time>2021-06-01T08:32:38.000Z</time>
      </trkpt>
      <trkpt lat="44.13313" lon="5.88426">
        <ele>898</ele>
        <time>2021-06-01T08:32:39.000Z</time>
      </trkpt>
      <trkpt lat="44.13313" lon="5.88426">
        <ele>898</ele>
        <time>2021-06-01T08:32:40.000Z</time>
      </trkpt>
      <trkpt lat="44.13313" lon="5.88426">
        <ele>898</ele>
        <time>2021-06-01T08:32:41.000Z</time>
      </trkpt>
      <trkpt lat="44.13313" lon="5.88426">
        <ele>898</ele>
        <time>2021-06-01T08:32:42.000Z</time>
      </trkpt>
      <trkpt lat="44.13313" lon="5.88426">
        <ele>898</ele>
        <time>2021-06-01T08:32:43.000Z</time>
      </trkpt>
      <trkpt lat="44.13313" lon="5.88426">
        <ele>898</ele>
        <time>2021-06-01T08:32:44.000Z</time>
      </trkpt>
      <trkpt lat="44.13313" lon="5.88426">
        <ele>898</ele>
        <time>2021-06-01T08:32:45.000Z</time>
      </trkpt>
      <trkpt lat="44.13313" lon="5.88426">
        <ele>898</ele>
        <time>2021-06-01T08:32:46.000Z</time>
      </trkpt>
      <trkpt lat="44.13313" lon="5.88426">
        <ele>899</ele>
        <time>2021-06-01T08:32:47.000Z</time>
      </trkpt>
      <trkpt lat="44.13313" lon="5.88426">
        <ele>899</ele>
        <time>2021-06-01T08:32:48.000Z</time>
      </trkpt>
      <trkpt lat="44.13313" lon="5.88426">
        <ele>899</ele>
        <time>2021-06-01T08:32:49.000Z</time>
      </trkpt>
      <trkpt lat="44.13313" lon="5.88426">
        <ele>899</ele>
        <time>2021-06-01T08:32:50.000Z</time>
      </trkpt>
      <trkpt lat="44.13313" lon="5.88426">
        <ele>899</ele>
        <time>2021-06-01T08:32:51.000Z</time>
      </trkpt>
      <trkpt lat="44.13313" lon="5.88426">
        <ele>900</ele>
        <time>2021-06-01T08:32:52.000Z</time>
      </trkpt>
      <trkpt lat="44.13313" lon="5.88426">
        <ele>900</ele>
        <time>2021-06-01T08:32:53.000Z</time>
      </trkpt>
      <trkpt lat="44.13314" lon="5.88426">
        <ele>900</ele>
        <time>2021-06-01T08:32:54.000Z</time>
      </trkpt>
      <trkpt lat="44.13314" lon="5.88426">
        <ele>901</ele>
        <time>2021-06-01T08:32:55.000Z</time>
      </trkpt>
      <trkpt lat="44.13314" lon="5.88426">
        <ele>901</ele>
        <time>2021-06-01T08:32:56.000Z</time>
      </trkpt>
      <trkpt lat="44.13314" lon="5.88425">
        <ele>902</ele>
        <time>2021-06-01T08:32:57.000Z</time>
      </trkpt>
      <trkpt lat="44.13314" lon="5.88425">
        <ele>902</ele>
        <time>2021-06-01T08:32:58.000Z</time>
      </trkpt>
      <trkpt lat="44.13315" lon="5.88425">
        <ele>902</ele>
        <time>2021-06-01T08:32:59.000Z</time>
      </trkpt>
      <trkpt lat="44.13315" lon="5.88425">
        <ele>902</ele>
        <time>2021-06-01T08:33:00.000Z</time>
      </trkpt>
      <trkpt lat="44.13315" lon="5.88425">
        <ele>903</ele>
        <time>2021-06-01T08:33:01.000Z</time>
      </trkpt>
      <trkpt lat="44.13315" lon="5.88425">
        <ele>903</ele>
        <time>2021-06-01T08:33:02.000Z</time>
      </trkpt>
      <trkpt lat="44.13315" lon="5.88425">
        <ele>903</ele>
        <time>2021-06-01T08:33:03.000Z</time>
      </trkpt>
      <trkpt lat="44.13315" lon="5.88425">
        <ele>903</ele>
        <time>2021-06-01T08:33:04.000Z</time>
      </trkpt>
      <trkpt lat="44.13315" lon="5.88425">
        <ele>904</ele>
        <time>2021-06-01T08:33:05.000Z</time>
      </trkpt>
      <trkpt lat="44.13314" lon="5.88425">
        <ele>904</ele>
        <time>2021-06-01T08:33:06.000Z</time>
      </trkpt>
      <trkpt lat="44.13314" lon="5.88425">
        <ele>904</ele>
        <time>2021-06-01T08:33:07.000Z</time>
      </trkpt>
      <trkpt lat="44.13314" lon="5.88425">
        <ele>904</ele>
        <time>2021-06-01T08:33:08.000Z</time>
      </trkpt>
      <trkpt lat="44.13314" lon="5.88425">
        <ele>904</ele>
        <time>2021-06-01T08:33:09.000Z</time>
      </trkpt>
      <trkpt lat="44.13314" lon="5.88425">
        <ele>904</ele>
        <time>2021-06-01T08:33:10.000Z</time>
      </trkpt>
      <trkpt lat="44.13314" lon="5.88425">
        <ele>905</ele>
        <time>2021-06-01T08:33:11.000Z</time>
      </trkpt>
      <trkpt lat="44.13313" lon="5.88425">
        <ele>905</ele>
        <time>2021-06-01T08:33:12.000Z</time>
      </trkpt>
      <trkpt lat="44.13313" lon="5.88425">
        <ele>905</ele>
        <time>2021-06-01T08:33:13.000Z</time>
      </trkpt>
      <trkpt lat="44.13313" lon="5.88424">
        <ele>905</ele>
        <time>2021-06-01T08:33:14.000Z</time>
      </trkpt>
      <trkpt lat="44.13313" lon="5.88424">
        <ele>905</ele>
        <time>2021-06-01T08:33:15.000Z</time>
      </trkpt>
      <trkpt lat="44.13312" lon="5.88424">
        <ele>905</ele>
        <time>2021-06-01T08:33:16.000Z</time>
      </trkpt>
      <trkpt lat="44.13312" lon="5.88425">
        <ele>905</ele>
        <time>2021-06-01T08:33:17.000Z</time>
      </trkpt>
      <trkpt lat="44.13312" lon="5.88425">
        <ele>904</ele>
        <time>2021-06-01T08:33:18.000Z</time>
      </trkpt>
      <trkpt lat="44.13311" lon="5.88425">
        <ele>904</ele>
        <time>2021-06-01T08:33:19.000Z</time>
      </trkpt>
      <trkpt lat="44.13311" lon="5.88425">
        <ele>904</ele>
        <time>2021-06-01T08:33:20.000Z</time>
      </trkpt>
      <trkpt lat="44.13311" lon="5.88425">
        <ele>904</ele>
        <time>2021-06-01T08:33:21.000Z</time>
      </trkpt>
      <trkpt lat="44.13311" lon="5.88425">
        <ele>904</ele>
        <time>2021-06-01T08:33:22.000Z</time>
      </trkpt>
      <trkpt lat="44.13311" lon="5.88425">
        <ele>904</ele>
        <time>2021-06-01T08:33:23.000Z</time>
      </trkpt>
      <trkpt lat="44.13311" lon="5.88425">
        <ele>904</ele>
        <time>2021-06-01T08:33:24.000Z</time>
      </trkpt>
      <trkpt lat="44.13311" lon="5.88425">
        <ele>904</ele>
        <time>2021-06-01T08:33:25.000Z</time>
      </trkpt>
      <trkpt lat="44.13311" lon="5.88425">
        <ele>904</ele>
        <time>2021-06-01T08:33:26.000Z</time>
      </trkpt>
      <trkpt lat="44.13311" lon="5.88425">
        <ele>904</ele>
        <time>2021-06-01T08:33:27.000Z</time>
      </trkpt>
      <trkpt lat="44.13311" lon="5.88425">
        <ele>904</ele>
        <time>2021-06-01T08:33:28.000Z</time>
      </trkpt>
      <trkpt lat="44.13311" lon="5.88424">
        <ele>904</ele>
        <time>2021-06-01T08:33:29.000Z</time>
      </trkpt>
      <trkpt lat="44.13311" lon="5.88424">
        <ele>904</ele>
        <time>2021-06-01T08:33:30.000Z</time>
      </trkpt>
      <trkpt lat="44.13311" lon="5.88425">
        <ele>904</ele>
        <time>2021-06-01T08:33:31.000Z</time>
      </trkpt>
      <trkpt lat="44.1331" lon="5.88425">
        <ele>905</ele>
        <time>2021-06-01T08:33:32.000Z</time>
      </trkpt>
      <trkpt lat="44.1331" lon="5.88425">
        <ele>905</ele>
        <time>2021-06-01T08:33:33.000Z</time>
      </trkpt>
      <trkpt lat="44.1331" lon="5.88425">
        <ele>905</ele>
        <time>2021-06-01T08:33:34.000Z</time>
      </trkpt>
      <trkpt lat="44.1331" lon="5.88425">
        <ele>905</ele>
        <time>2021-06-01T08:33:35.000Z</time>
      </trkpt>
      <trkpt lat="44.1331" lon="5.88425">
        <ele>905</ele>
        <time>2021-06-01T08:33:36.000Z</time>
      </trkpt>
      <trkpt lat="44.1331" lon="5.88425">
        <ele>905</ele>
        <time>2021-06-01T08:33:37.000Z</time>
      </trkpt>
      <trkpt lat="44.1331" lon="5.88425">
        <ele>905</ele>
        <time>2021-06-01T08:33:38.000Z</time>
      </trkpt>
      <trkpt lat="44.1331" lon="5.88425">
        <ele>905</ele>
        <time>2021-06-01T08:33:39.000Z</time>
      </trkpt>
      <trkpt lat="44.1331" lon="5.88425">
        <ele>905</ele>
        <time>2021-06-01T08:33:40.000Z</time>
      </trkpt>
      <trkpt lat="44.1331" lon="5.88425">
        <ele>905</ele>
        <time>2021-06-01T08:33:41.000Z</time>
      </trkpt>
      <trkpt lat="44.13309" lon="5.88426">
        <ele>905</ele>
        <time>2021-06-01T08:33:42.000Z</time>
      </trkpt>
      <trkpt lat="44.13309" lon="5.88427">
        <ele>905</ele>
        <time>2021-06-01T08:33:43.000Z</time>
      </trkpt>
      <trkpt lat="44.13308" lon="5.88427">
        <ele>905</ele>
        <time>2021-06-01T08:33:44.000Z</time>
      </trkpt>
      <trkpt lat="44.13307" lon="5.88428">
        <ele>905</ele>
        <time>2021-06-01T08:33:45.000Z</time>
      </trkpt>
      <trkpt lat="44.13307" lon="5.88428">
        <ele>905</ele>
        <time>2021-06-01T08:33:46.000Z</time>
      </trkpt>
      <trkpt lat="44.13307" lon="5.88429">
        <ele>905</ele>
        <time>2021-06-01T08:33:47.000Z</time>
      </trkpt>
      <trkpt lat="44.13306" lon="5.8843">
        <ele>905</ele>
        <time>2021-06-01T08:33:48.000Z</time>
      </trkpt>
      <trkpt lat="44.13307" lon="5.8843">
        <ele>905</ele>
        <time>2021-06-01T08:33:49.000Z</time>
      </trkpt>
      <trkpt lat="44.13307" lon="5.8843">
        <ele>905</ele>
        <time>2021-06-01T08:33:50.000Z</time>
      </trkpt>
      <trkpt lat="44.13306" lon="5.8843">
        <ele>905</ele>
        <time>2021-06-01T08:33:51.000Z</time>
      </trkpt>
      <trkpt lat="44.13306" lon="5.8843">
        <ele>905</ele>
        <time>2021-06-01T08:33:52.000Z</time>
      </trkpt>
      <trkpt lat="44.13306" lon="5.8843">
        <ele>905</ele>
        <time>2021-06-01T08:33:53.000Z</time>
      </trkpt>
      <trkpt lat="44.13306" lon="5.8843">
        <ele>905</ele>
        <time>2021-06-01T08:33:54.000Z</time>
      </trkpt>
      <trkpt lat="44.13306" lon="5.8843">
        <ele>905</ele>
        <time>2021-06-01T08:33:55.000Z</time>
      </trkpt>
      <trkpt lat="44.13306" lon="5.88429">
        <ele>905</ele>
        <time>2021-06-01T08:33:56.000Z</time>
      </trkpt>
      <trkpt lat="44.13306" lon="5.88429">
        <ele>905</ele>
        <time>2021-06-01T08:33:57.000Z</time>
      </trkpt>
      <trkpt lat="44.13306" lon="5.88429">
        <ele>905</ele>
        <time>2021-06-01T08:33:58.000Z</time>
      </trkpt>
      <trkpt lat="44.13306" lon="5.88429">
        <ele>905</ele>
        <time>2021-06-01T08:33:59.000Z</time>
      </trkpt>
      <trkpt lat="44.13306" lon="5.88429">
        <ele>905</ele>
        <time>2021-06-01T08:34:00.000Z</time>
      </trkpt>
      <trkpt lat="44.13306" lon="5.8843">
        <ele>905</ele>
        <time>2021-06-01T08:34:01.000Z</time>
      </trkpt>
      <trkpt lat="44.13306" lon="5.8843">
        <ele>905</ele>
        <time>2021-06-01T08:34:02.000Z</time>
      </trkpt>
      <trkpt lat="44.13306" lon="5.88431">
        <ele>905</ele>
        <time>2021-06-01T08:34:03.000Z</time>
      </trkpt>
      <trkpt lat="44.13306" lon="5.88431">
        <ele>905</ele>
        <time>2021-06-01T08:34:04.000Z</time>
      </trkpt>
      <trkpt lat="44.13305" lon="5.88431">
        <ele>905</ele>
        <time>2021-06-01T08:34:05.000Z</time>
      </trkpt>
      <trkpt lat="44.13305" lon="5.88431">
        <ele>905</ele>
        <time>2021-06-01T08:34:06.000Z</time>
      </trkpt>
      <trkpt lat="44.13305" lon="5.88431">
        <ele>905</ele>
        <time>2021-06-01T08:34:07.000Z</time>
      </trkpt>
      <trkpt lat="44.13305" lon="5.88431">
        <ele>905</ele>
        <time>2021-06-01T08:34:08.000Z</time>
      </trkpt>
      <trkpt lat="44.13305" lon="5.88432">
        <ele>905</ele>
        <time>2021-06-01T08:34:09.000Z</time>
      </trkpt>
      <trkpt lat="44.13305" lon="5.88432">
        <ele>905</ele>
        <time>2021-06-01T08:34:10.000Z</time>
      </trkpt>
      <trkpt lat="44.13305" lon="5.88433">
        <ele>905</ele>
        <time>2021-06-01T08:34:11.000Z</time>
      </trkpt>
      <trkpt lat="44.13305" lon="5.88433">
        <ele>905</ele>
        <time>2021-06-01T08:34:12.000Z</time>
      </trkpt>
      <trkpt lat="44.13305" lon="5.88434">
        <ele>905</ele>
        <time>2021-06-01T08:34:13.000Z</time>
      </trkpt>
      <trkpt lat="44.13304" lon="5.88434">
        <ele>905</ele>
        <time>2021-06-01T08:34:14.000Z</time>
      </trkpt>
      <trkpt lat="44.13304" lon="5.88434">
        <ele>905</ele>
        <time>2021-06-01T08:34:15.000Z</time>
      </trkpt>
      <trkpt lat="44.13304" lon="5.88434">
        <ele>905</ele>
        <time>2021-06-01T08:34:16.000Z</time>
      </trkpt>
      <trkpt lat="44.13304" lon="5.88434">
        <ele>905</ele>
        <time>2021-06-01T08:34:17.000Z</time>
      </trkpt>
      <trkpt lat="44.13304" lon="5.88434">
        <ele>905</ele>
        <time>2021-06-01T08:34:18.000Z</time>
      </trkpt>
      <trkpt lat="44.13304" lon="5.88434">
        <ele>905</ele>
        <time>2021-06-01T08:34:19.000Z</time>
      </trkpt>
      <trkpt lat="44.13304" lon="5.88434">
        <ele>905</ele>
        <time>2021-06-01T08:34:20.000Z</time>
      </trkpt>
      <trkpt lat="44.13304" lon="5.88434">
        <ele>905</ele>
        <time>2021-06-01T08:34:21.000Z</time>
      </trkpt>
      <trkpt lat="44.13304" lon="5.88434">
        <ele>905</ele>
        <time>2021-06-01T08:34:22.000Z</time>
      </trkpt>
      <trkpt lat="44.13304" lon="5.88434">
        <ele>905</ele>
        <time>2021-06-01T08:34:23.000Z</time>
      </trkpt>
      <trkpt lat="44.13304" lon="5.88434">
        <ele>905</ele>
        <time>2021-06-01T08:34:24.000Z</time>
      </trkpt>
      <trkpt lat="44.13304" lon="5.88434">
        <ele>905</ele>
        <time>2021-06-01T08:34:25.000Z</time>
      </trkpt>
      <trkpt lat="44.13304" lon="5.88434">
        <ele>905</ele>
        <time>2021-06-01T08:34:26.000Z</time>
      </trkpt>
      <trkpt lat="44.13304" lon="5.88434">
        <ele>905</ele>
        <time>2021-06-01T08:34:27.000Z</time>
      </trkpt>
      <trkpt lat="44.13304" lon="5.88434">
        <ele>905</ele>
        <time>2021-06-01T08:34:28.000Z</time>
      </trkpt>
      <trkpt lat="44.13304" lon="5.88434">
        <ele>905</ele>
        <time>2021-06-01T08:34:29.000Z</time>
      </trkpt>
      <trkpt lat="44.13304" lon="5.88434">
        <ele>905</ele>
        <time>2021-06-01T08:34:30.000Z</time>
      </trkpt>
      <trkpt lat="44.13304" lon="5.88434">
        <ele>905</ele>
        <time>2021-06-01T08:34:31.000Z</time>
      </trkpt>
      <trkpt lat="44.13304" lon="5.88434">
        <ele>905</ele>
        <time>2021-06-01T08:34:32.000Z</time>
      </trkpt>
      <trkpt lat="44.13303" lon="5.88434">
        <ele>905</ele>
        <time>2021-06-01T08:34:33.000Z</time>
      </trkpt>
      <trkpt lat="44.13303" lon="5.88434">
        <ele>905</ele>
        <time>2021-06-01T08:34:34.000Z</time>
      </trkpt>
      <trkpt lat="44.13303" lon="5.88434">
        <ele>905</ele>
        <time>2021-06-01T08:34:35.000Z</time>
      </trkpt>
      <trkpt lat="44.13303" lon="5.88434">
        <ele>905</ele>
        <time>2021-06-01T08:34:36.000Z</time>
      </trkpt>
      <trkpt lat="44.13303" lon="5.88434">
        <ele>905</ele>
        <time>2021-06-01T08:34:37.000Z</time>
      </trkpt>
      <trkpt lat="44.13303" lon="5.88434">
        <ele>905</ele>
        <time>2021-06-01T08:34:38.000Z</time>
      </trkpt>
      <trkpt lat="44.13303" lon="5.88434">
        <ele>905</ele>
        <time>2021-06-01T08:34:39.000Z</time>
      </trkpt>
      <trkpt lat="44.13303" lon="5.88434">
        <ele>905</ele>
        <time>2021-06-01T08:34:40.000Z</time>
      </trkpt>
      <trkpt lat="44.13303" lon="5.88434">
        <ele>905</ele>
        <time>2021-06-01T08:34:41.000Z</time>
      </trkpt>
      <trkpt lat="44.13303" lon="5.88434">
        <ele>905</ele>
        <time>2021-06-01T08:34:42.000Z</time>
      </trkpt>
      <trkpt lat="44.13302" lon="5.88434">
        <ele>906</ele>
        <time>2021-06-01T08:34:43.000Z</time>
      </trkpt>
      <trkpt lat="44.13302" lon="5.88434">
        <ele>906</ele>
        <time>2021-06-01T08:34:44.000Z</time>
      </trkpt>
      <trkpt lat="44.13302" lon="5.88434">
        <ele>906</ele>
        <time>2021-06-01T08:34:45.000Z</time>
      </trkpt>
      <trkpt lat="44.13302" lon="5.88434">
        <ele>906</ele>
        <time>2021-06-01T08:34:46.000Z</time>
      </trkpt>
      <trkpt lat="44.13302" lon="5.88434">
        <ele>906</ele>
        <time>2021-06-01T08:34:47.000Z</time>
      </trkpt>
      <trkpt lat="44.13302" lon="5.88434">
        <ele>906</ele>
        <time>2021-06-01T08:34:48.000Z</time>
      </trkpt>
      <trkpt lat="44.13302" lon="5.88434">
        <ele>906</ele>
        <time>2021-06-01T08:34:49.000Z</time>
      </trkpt>
      <trkpt lat="44.13302" lon="5.88434">
        <ele>906</ele>
        <time>2021-06-01T08:34:50.000Z</time>
      </trkpt>
      <trkpt lat="44.13302" lon="5.88434">
        <ele>906</ele>
        <time>2021-06-01T08:34:51.000Z</time>
      </trkpt>
      <trkpt lat="44.13302" lon="5.88434">
        <ele>906</ele>
        <time>2021-06-01T08:34:52.000Z</time>
      </trkpt>
      <trkpt lat="44.13302" lon="5.88434">
        <ele>906</ele>
        <time>2021-06-01T08:34:53.000Z</time>
      </trkpt>
      <trkpt lat="44.13302" lon="5.88434">
        <ele>906</ele>
        <time>2021-06-01T08:34:54.000Z</time>
      </trkpt>
      <trkpt lat="44.13302" lon="5.88434">
        <ele>906</ele>
        <time>2021-06-01T08:34:55.000Z</time>
      </trkpt>
      <trkpt lat="44.13302" lon="5.88435">
        <ele>906</ele>
        <time>2021-06-01T08:34:56.000Z</time>
      </trkpt>
      <trkpt lat="44.13302" lon="5.88435">
        <ele>906</ele>
        <time>2021-06-01T08:34:57.000Z</time>
      </trkpt>
      <trkpt lat="44.13302" lon="5.88435">
        <ele>906</ele>
        <time>2021-06-01T08:34:58.000Z</time>
      </trkpt>
      <trkpt lat="44.13302" lon="5.88435">
        <ele>906</ele>
        <time>2021-06-01T08:34:59.000Z</time>
      </trkpt>
      <trkpt lat="44.13302" lon="5.88435">
        <ele>906</ele>
        <time>2021-06-01T08:35:00.000Z</time>
      </trkpt>
      <trkpt lat="44.13302" lon="5.88436">
        <ele>906</ele>
        <time>2021-06-01T08:35:01.000Z</time>
      </trkpt>
      <trkpt lat="44.13302" lon="5.88436">
        <ele>906</ele>
        <time>2021-06-01T08:35:02.000Z</time>
      </trkpt>
      <trkpt lat="44.13302" lon="5.88436">
        <ele>906</ele>
        <time>2021-06-01T08:35:03.000Z</time>
      </trkpt>
      <trkpt lat="44.13302" lon="5.88436">
        <ele>906</ele>
        <time>2021-06-01T08:35:04.000Z</time>
      </trkpt>
      <trkpt lat="44.13302" lon="5.88436">
        <ele>906</ele>
        <time>2021-06-01T08:35:05.000Z</time>
      </trkpt>
      <trkpt lat="44.13303" lon="5.88436">
        <ele>906</ele>
        <time>2021-06-01T08:35:06.000Z</time>
      </trkpt>
      <trkpt lat="44.13303" lon="5.88436">
        <ele>906</ele>
        <time>2021-06-01T08:35:07.000Z</time>
      </trkpt>
      <trkpt lat="44.13303" lon="5.88436">
        <ele>906</ele>
        <time>2021-06-01T08:35:08.000Z</time>
      </trkpt>
      <trkpt lat="44.13303" lon="5.88436">
        <ele>906</ele>
        <time>2021-06-01T08:35:09.000Z</time>
      </trkpt>
      <trkpt lat="44.13303" lon="5.88436">
        <ele>906</ele>
        <time>2021-06-01T08:35:10.000Z</time>
      </trkpt>
      <trkpt lat="44.13303" lon="5.88436">
        <ele>906</ele>
        <time>2021-06-01T08:35:11.000Z</time>
      </trkpt>
      <trkpt lat="44.13303" lon="5.88436">
        <ele>906</ele>
        <time>2021-06-01T08:35:12.000Z</time>
      </trkpt>
      <trkpt lat="44.13303" lon="5.88436">
        <ele>906</ele>
        <time>2021-06-01T08:35:13.000Z</time>
      </trkpt>
      <trkpt lat="44.13303" lon="5.88436">
        <ele>906</ele>
        <time>2021-06-01T08:35:14.000Z</time>
      </trkpt>
      <trkpt lat="44.13303" lon="5.88436">
        <ele>906</ele>
        <time>2021-06-01T08:35:15.000Z</time>
      </trkpt>
      <trkpt lat="44.13303" lon="5.88436">
        <ele>906</ele>
        <time>2021-06-01T08:35:16.000Z</time>
      </trkpt>
      <trkpt lat="44.13303" lon="5.88436">
        <ele>906</ele>
        <time>2021-06-01T08:35:17.000Z</time>
      </trkpt>
      <trkpt lat="44.13303" lon="5.88436">
        <ele>906</ele>
        <time>2021-06-01T08:35:18.000Z</time>
      </trkpt>
      <trkpt lat="44.13303" lon="5.88436">
        <ele>906</ele>
        <time>2021-06-01T08:35:19.000Z</time>
      </trkpt>
      <trkpt lat="44.13303" lon="5.88437">
        <ele>906</ele>
        <time>2021-06-01T08:35:20.000Z</time>
      </trkpt>
      <trkpt lat="44.13303" lon="5.88437">
        <ele>906</ele>
        <time>2021-06-01T08:35:21.000Z</time>
      </trkpt>
      <trkpt lat="44.13303" lon="5.88437">
        <ele>906</ele>
        <time>2021-06-01T08:35:22.000Z</time>
      </trkpt>
      <trkpt lat="44.13303" lon="5.88438">
        <ele>906</ele>
        <time>2021-06-01T08:35:23.000Z</time>
      </trkpt>
      <trkpt lat="44.13303" lon="5.88438">
        <ele>906</ele>
        <time>2021-06-01T08:35:24.000Z</time>
      </trkpt>
      <trkpt lat="44.13303" lon="5.88439">
        <ele>906</ele>
        <time>2021-06-01T08:35:25.000Z</time>
      </trkpt>
      <trkpt lat="44.13303" lon="5.88438">
        <ele>906</ele>
        <time>2021-06-01T08:35:26.000Z</time>
      </trkpt>
      <trkpt lat="44.13302" lon="5.88439">
        <ele>906</ele>
        <time>2021-06-01T08:35:27.000Z</time>
      </trkpt>
      <trkpt lat="44.13302" lon="5.88439">
        <ele>906</ele>
        <time>2021-06-01T08:35:28.000Z</time>
      </trkpt>
      <trkpt lat="44.13301" lon="5.88439">
        <ele>906</ele>
        <time>2021-06-01T08:35:29.000Z</time>
      </trkpt>
      <trkpt lat="44.13301" lon="5.88439">
        <ele>906</ele>
        <time>2021-06-01T08:35:30.000Z</time>
      </trkpt>
      <trkpt lat="44.13301" lon="5.88439">
        <ele>906</ele>
        <time>2021-06-01T08:35:31.000Z</time>
      </trkpt>
      <trkpt lat="44.13301" lon="5.88439">
        <ele>906</ele>
        <time>2021-06-01T08:35:32.000Z</time>
      </trkpt>
      <trkpt lat="44.13301" lon="5.8844">
        <ele>907</ele>
        <time>2021-06-01T08:35:33.000Z</time>
      </trkpt>
      <trkpt lat="44.13301" lon="5.8844">
        <ele>907</ele>
        <time>2021-06-01T08:35:34.000Z</time>
      </trkpt>
      <trkpt lat="44.13301" lon="5.8844">
        <ele>907</ele>
        <time>2021-06-01T08:35:35.000Z</time>
      </trkpt>
      <trkpt lat="44.13301" lon="5.88441">
        <ele>907</ele>
        <time>2021-06-01T08:35:36.000Z</time>
      </trkpt>
      <trkpt lat="44.13301" lon="5.88441">
        <ele>907</ele>
        <time>2021-06-01T08:35:37.000Z</time>
      </trkpt>
      <trkpt lat="44.13301" lon="5.88441">
        <ele>907</ele>
        <time>2021-06-01T08:35:38.000Z</time>
      </trkpt>
      <trkpt lat="44.13301" lon="5.88441">
        <ele>907</ele>
        <time>2021-06-01T08:35:39.000Z</time>
      </trkpt>
      <trkpt lat="44.13302" lon="5.88442">
        <ele>907</ele>
        <time>2021-06-01T08:35:40.000Z</time>
      </trkpt>
      <trkpt lat="44.13302" lon="5.88442">
        <ele>907</ele>
        <time>2021-06-01T08:35:41.000Z</time>
      </trkpt>
      <trkpt lat="44.13302" lon="5.88442">
        <ele>907</ele>
        <time>2021-06-01T08:35:42.000Z</time>
      </trkpt>
      <trkpt lat="44.13303" lon="5.88442">
        <ele>907</ele>
        <time>2021-06-01T08:35:43.000Z</time>
      </trkpt>
      <trkpt lat="44.13303" lon="5.88443">
        <ele>907</ele>
        <time>2021-06-01T08:35:44.000Z</time>
      </trkpt>
      <trkpt lat="44.13304" lon="5.88443">
        <ele>908</ele>
        <time>2021-06-01T08:35:45.000Z</time>
      </trkpt>
      <trkpt lat="44.13304" lon="5.88443">
        <ele>908</ele>
        <time>2021-06-01T08:35:46.000Z</time>
      </trkpt>
      <trkpt lat="44.13304" lon="5.88443">
        <ele>908</ele>
        <time>2021-06-01T08:35:47.000Z</time>
      </trkpt>
      <trkpt lat="44.13305" lon="5.88444">
        <ele>908</ele>
        <time>2021-06-01T08:35:48.000Z</time>
      </trkpt>
      <trkpt lat="44.13305" lon="5.88444">
        <ele>908</ele>
        <time>2021-06-01T08:35:49.000Z</time>
      </trkpt>
      <trkpt lat="44.13305" lon="5.88444">
        <ele>908</ele>
        <time>2021-06-01T08:35:50.000Z</time>
      </trkpt>
      <trkpt lat="44.13306" lon="5.88444">
        <ele>909</ele>
        <time>2021-06-01T08:35:51.000Z</time>
      </trkpt>
      <trkpt lat="44.13306" lon="5.88444">
        <ele>909</ele>
        <time>2021-06-01T08:35:52.000Z</time>
      </trkpt>
      <trkpt lat="44.13307" lon="5.88444">
        <ele>909</ele>
        <time>2021-06-01T08:35:53.000Z</time>
      </trkpt>
      <trkpt lat="44.13307" lon="5.88444">
        <ele>909</ele>
        <time>2021-06-01T08:35:54.000Z</time>
      </trkpt>
      <trkpt lat="44.13307" lon="5.88444">
        <ele>909</ele>
        <time>2021-06-01T08:35:55.000Z</time>
      </trkpt>
      <trkpt lat="44.13307" lon="5.88444">
        <ele>909</ele>
        <time>2021-06-01T08:35:56.000Z</time>
      </trkpt>
      <trkpt lat="44.13307" lon="5.88444">
        <ele>909</ele>
        <time>2021-06-01T08:35:57.000Z</time>
      </trkpt>
      <trkpt lat="44.13307" lon="5.88444">
        <ele>909</ele>
        <time>2021-06-01T08:35:58.000Z</time>
      </trkpt>
      <trkpt lat="44.13307" lon="5.88444">
        <ele>910</ele>
        <time>2021-06-01T08:35:59.000Z</time>
      </trkpt>
      <trkpt lat="44.13307" lon="5.88444">
        <ele>910</ele>
        <time>2021-06-01T08:36:00.000Z</time>
      </trkpt>
      <trkpt lat="44.13307" lon="5.88444">
        <ele>910</ele>
        <time>2021-06-01T08:36:01.000Z</time>
      </trkpt>
      <trkpt lat="44.13307" lon="5.88444">
        <ele>910</ele>
        <time>2021-06-01T08:36:02.000Z</time>
      </trkpt>
      <trkpt lat="44.13307" lon="5.88444">
        <ele>910</ele>
        <time>2021-06-01T08:36:03.000Z</time>
      </trkpt>
      <trkpt lat="44.13307" lon="5.88443">
        <ele>910</ele>
        <time>2021-06-01T08:36:04.000Z</time>
      </trkpt>
      <trkpt lat="44.13307" lon="5.88443">
        <ele>910</ele>
        <time>2021-06-01T08:36:05.000Z</time>
      </trkpt>
      <trkpt lat="44.13307" lon="5.88443">
        <ele>910</ele>
        <time>2021-06-01T08:36:06.000Z</time>
      </trkpt>
      <trkpt lat="44.13308" lon="5.88443">
        <ele>911</ele>
        <time>2021-06-01T08:36:07.000Z</time>
      </trkpt>
      <trkpt lat="44.13308" lon="5.88443">
        <ele>911</ele>
        <time>2021-06-01T08:36:08.000Z</time>
      </trkpt>
      <trkpt lat="44.13308" lon="5.88443">
        <ele>911</ele>
        <time>2021-06-01T08:36:09.000Z</time>
      </trkpt>
      <trkpt lat="44.13308" lon="5.88443">
        <ele>911</ele>
        <time>2021-06-01T08:36:10.000Z</time>
      </trkpt>
      <trkpt lat="44.13308" lon="5.88443">
        <ele>911</ele>
        <time>2021-06-01T08:36:11.000Z</time>
      </trkpt>
      <trkpt lat="44.13308" lon="5.88443">
        <ele>911</ele>
        <time>2021-06-01T08:36:12.000Z</time>
      </trkpt>
      <trkpt lat="44.13308" lon="5.88443">
        <ele>911</ele>
        <time>2021-06-01T08:36:13.000Z</time>
      </trkpt>
      <trkpt lat="44.13308" lon="5.88443">
        <ele>911</ele>
        <time>2021-06-01T08:36:14.000Z</time>
      </trkpt>
      <trkpt lat="44.13308" lon="5.88443">
        <ele>912</ele>
        <time>2021-06-01T08:36:15.000Z</time>
      </trkpt>
      <trkpt lat="44.13308" lon="5.88443">
        <ele>912</ele>
        <time>2021-06-01T08:36:16.000Z</time>
      </trkpt>
      <trkpt lat="44.13308" lon="5.88443">
        <ele>912</ele>
        <time>2021-06-01T08:36:17.000Z</time>
      </trkpt>
      <trkpt lat="44.13309" lon="5.88443">
        <ele>912</ele>
        <time>2021-06-01T08:36:18.000Z</time>
      </trkpt>
      <trkpt lat="44.13309" lon="5.88443">
        <ele>912</ele>
        <time>2021-06-01T08:36:19.000Z</time>
      </trkpt>
      <trkpt lat="44.13309" lon="5.88443">
        <ele>912</ele>
        <time>2021-06-01T08:36:20.000Z</time>
      </trkpt>
      <trkpt lat="44.13309" lon="5.88442">
        <ele>912</ele>
        <time>2021-06-01T08:36:21.000Z</time>
      </trkpt>
      <trkpt lat="44.13309" lon="5.88443">
        <ele>912</ele>
        <time>2021-06-01T08:36:22.000Z</time>
      </trkpt>
      <trkpt lat="44.13309" lon="5.88443">
        <ele>913</ele>
        <time>2021-06-01T08:36:23.000Z</time>
      </trkpt>
      <trkpt lat="44.13309" lon="5.88444">
        <ele>913</ele>
        <time>2021-06-01T08:36:24.000Z</time>
      </trkpt>
      <trkpt lat="44.1331" lon="5.88444">
        <ele>913</ele>
        <time>2021-06-01T08:36:25.000Z</time>
      </trkpt>
      <trkpt lat="44.1331" lon="5.88445">
        <ele>913</ele>
        <time>2021-06-01T08:36:26.000Z</time>
      </trkpt>
      <trkpt lat="44.1331" lon="5.88445">
        <ele>913</ele>
        <time>2021-06-01T08:36:27.000Z</time>
      </trkpt>
      <trkpt lat="44.1331" lon="5.88446">
        <ele>913</ele>
        <time>2021-06-01T08:36:28.000Z</time>
      </trkpt>
      <trkpt lat="44.1331" lon="5.88446">
        <ele>913</ele>
        <time>2021-06-01T08:36:29.000Z</time>
      </trkpt>
      <trkpt lat="44.1331" lon="5.88446">
        <ele>913</ele>
        <time>2021-06-01T08:36:30.000Z</time>
      </trkpt>
      <trkpt lat="44.1331" lon="5.88446">
        <ele>914</ele>
        <time>2021-06-01T08:36:31.000Z</time>
      </trkpt>
      <trkpt lat="44.13309" lon="5.88447">
        <ele>914</ele>
        <time>2021-06-01T08:36:32.000Z</time>
      </trkpt>
      <trkpt lat="44.13309" lon="5.88447">
        <ele>914</ele>
        <time>2021-06-01T08:36:33.000Z</time>
      </trkpt>
      <trkpt lat="44.13309" lon="5.88448">
        <ele>914</ele>
        <time>2021-06-01T08:36:34.000Z</time>
      </trkpt>
      <trkpt lat="44.13309" lon="5.88448">
        <ele>914</ele>
        <time>2021-06-01T08:36:35.000Z</time>
      </trkpt>
      <trkpt lat="44.13308" lon="5.88448">
        <ele>914</ele>
        <time>2021-06-01T08:36:36.000Z</time>
      </trkpt>
      <trkpt lat="44.13308" lon="5.88449">
        <ele>914</ele>
        <time>2021-06-01T08:36:37.000Z</time>
      </trkpt>
      <trkpt lat="44.13308" lon="5.88449">
        <ele>914</ele>
        <time>2021-06-01T08:36:38.000Z</time>
      </trkpt>
      <trkpt lat="44.13308" lon="5.88449">
        <ele>914</ele>
        <time>2021-06-01T08:36:39.000Z</time>
      </trkpt>
      <trkpt lat="44.13308" lon="5.88449">
        <ele>914</ele>
        <time>2021-06-01T08:36:40.000Z</time>
      </trkpt>
      <trkpt lat="44.13308" lon="5.8845">
        <ele>915</ele>
        <time>2021-06-01T08:36:41.000Z</time>
      </trkpt>
      <trkpt lat="44.13307" lon="5.8845">
        <ele>915</ele>
        <time>2021-06-01T08:36:42.000Z</time>
      </trkpt>
      <trkpt lat="44.13307" lon="5.8845">
        <ele>915</ele>
        <time>2021-06-01T08:36:43.000Z</time>
      </trkpt>
      <trkpt lat="44.13307" lon="5.8845">
        <ele>915</ele>
        <time>2021-06-01T08:36:44.000Z</time>
      </trkpt>
      <trkpt lat="44.13307" lon="5.8845">
        <ele>915</ele>
        <time>2021-06-01T08:36:45.000Z</time>
      </trkpt>
      <trkpt lat="44.13306" lon="5.88451">
        <ele>915</ele>
        <time>2021-06-01T08:36:46.000Z</time>
      </trkpt>
      <trkpt lat="44.13306" lon="5.88451">
        <ele>915</ele>
        <time>2021-06-01T08:36:47.000Z</time>
      </trkpt>
      <trkpt lat="44.13306" lon="5.88451">
        <ele>915</ele>
        <time>2021-06-01T08:36:48.000Z</time>
      </trkpt>
      <trkpt lat="44.13305" lon="5.88451">
        <ele>915</ele>
        <time>2021-06-01T08:36:49.000Z</time>
      </trkpt>
      <trkpt lat="44.13305" lon="5.88451">
        <ele>915</ele>
        <time>2021-06-01T08:36:50.000Z</time>
      </trkpt>
      <trkpt lat="44.13304" lon="5.88452">
        <ele>915</ele>
        <time>2021-06-01T08:36:51.000Z</time>
      </trkpt>
      <trkpt lat="44.13304" lon="5.88452">
        <ele>916</ele>
        <time>2021-06-01T08:36:52.000Z</time>
      </trkpt>
      <trkpt lat="44.13303" lon="5.88452">
        <ele>916</ele>
        <time>2021-06-01T08:36:53.000Z</time>
      </trkpt>
      <trkpt lat="44.13302" lon="5.88452">
        <ele>916</ele>
        <time>2021-06-01T08:36:54.000Z</time>
      </trkpt>
      <trkpt lat="44.13302" lon="5.88453">
        <ele>916</ele>
        <time>2021-06-01T08:36:55.000Z</time>
      </trkpt>
      <trkpt lat="44.13301" lon="5.88453">
        <ele>916</ele>
        <time>2021-06-01T08:36:56.000Z</time>
      </trkpt>
      <trkpt lat="44.13301" lon="5.88454">
        <ele>916</ele>
        <time>2021-06-01T08:36:57.000Z</time>
      </trkpt>
      <trkpt lat="44.133" lon="5.88454">
        <ele>916</ele>
        <time>2021-06-01T08:36:58.000Z</time>
      </trkpt>
      <trkpt lat="44.133" lon="5.88454">
        <ele>916</ele>
        <time>2021-06-01T08:36:59.000Z</time>
      </trkpt>
      <trkpt lat="44.133" lon="5.88455">
        <ele>916</ele>
        <time>2021-06-01T08:37:00.000Z</time>
      </trkpt>
      <trkpt lat="44.133" lon="5.88455">
        <ele>917</ele>
        <time>2021-06-01T08:37:01.000Z</time>
      </trkpt>
      <trkpt lat="44.13299" lon="5.88455">
        <ele>917</ele>
        <time>2021-06-01T08:37:02.000Z</time>
      </trkpt>
      <trkpt lat="44.13299" lon="5.88456">
        <ele>917</ele>
        <time>2021-06-01T08:37:03.000Z</time>
      </trkpt>
      <trkpt lat="44.13298" lon="5.88456">
        <ele>917</ele>
        <time>2021-06-01T08:37:04.000Z</time>
      </trkpt>
      <trkpt lat="44.13298" lon="5.88456">
        <ele>917</ele>
        <time>2021-06-01T08:37:05.000Z</time>
      </trkpt>
      <trkpt lat="44.13297" lon="5.88456">
        <ele>917</ele>
        <time>2021-06-01T08:37:06.000Z</time>
      </trkpt>
      <trkpt lat="44.13297" lon="5.88456">
        <ele>917</ele>
        <time>2021-06-01T08:37:07.000Z</time>
      </trkpt>
      <trkpt lat="44.13296" lon="5.88456">
        <ele>917</ele>
        <time>2021-06-01T08:37:08.000Z</time>
      </trkpt>
      <trkpt lat="44.13295" lon="5.88456">
        <ele>917</ele>
        <time>2021-06-01T08:37:09.000Z</time>
      </trkpt>
      <trkpt lat="44.13295" lon="5.88456">
        <ele>918</ele>
        <time>2021-06-01T08:37:10.000Z</time>
      </trkpt>
      <trkpt lat="44.13294" lon="5.88455">
        <ele>918</ele>
        <time>2021-06-01T08:37:11.000Z</time>
      </trkpt>
      <trkpt lat="44.13293" lon="5.88455">
        <ele>918</ele>
        <time>2021-06-01T08:37:12.000Z</time>
      </trkpt>
      <trkpt lat="44.13293" lon="5.88455">
        <ele>918</ele>
        <time>2021-06-01T08:37:13.000Z</time>
      </trkpt>
      <trkpt lat="44.13292" lon="5.88455">
        <ele>918</ele>
        <time>2021-06-01T08:37:14.000Z</time>
      </trkpt>
      <trkpt lat="44.13292" lon="5.88455">
        <ele>918</ele>
        <time>2021-06-01T08:37:15.000Z</time>
      </trkpt>
      <trkpt lat="44.13292" lon="5.88454">
        <ele>918</ele>
        <time>2021-06-01T08:37:16.000Z</time>
      </trkpt>
      <trkpt lat="44.13291" lon="5.88454">
        <ele>918</ele>
        <time>2021-06-01T08:37:17.000Z</time>
      </trkpt>
      <trkpt lat="44.13291" lon="5.88454">
        <ele>919</ele>
        <time>2021-06-01T08:37:18.000Z</time>
      </trkpt>
      <trkpt lat="44.13291" lon="5.88454">
        <ele>919</ele>
        <time>2021-06-01T08:37:19.000Z</time>
      </trkpt>
      <trkpt lat="44.1329" lon="5.88454">
        <ele>919</ele>
        <time>2021-06-01T08:37:20.000Z</time>
      </trkpt>
      <trkpt lat="44.1329" lon="5.88454">
        <ele>919</ele>
        <time>2021-06-01T08:37:21.000Z</time>
      </trkpt>
      <trkpt lat="44.13289" lon="5.88453">
        <ele>919</ele>
        <time>2021-06-01T08:37:22.000Z</time>
      </trkpt>
      <trkpt lat="44.13289" lon="5.88453">
        <ele>919</ele>
        <time>2021-06-01T08:37:23.000Z</time>
      </trkpt>
      <trkpt lat="44.13288" lon="5.88453">
        <ele>919</ele>
        <time>2021-06-01T08:37:24.000Z</time>
      </trkpt>
      <trkpt lat="44.13288" lon="5.88453">
        <ele>919</ele>
        <time>2021-06-01T08:37:25.000Z</time>
      </trkpt>
      <trkpt lat="44.13287" lon="5.88452">
        <ele>920</ele>
        <time>2021-06-01T08:37:26.000Z</time>
      </trkpt>
      <trkpt lat="44.13287" lon="5.88452">
        <ele>920</ele>
        <time>2021-06-01T08:37:27.000Z</time>
      </trkpt>
      <trkpt lat="44.13286" lon="5.88452">
        <ele>920</ele>
        <time>2021-06-01T08:37:28.000Z</time>
      </trkpt>
      <trkpt lat="44.13286" lon="5.88452">
        <ele>920</ele>
        <time>2021-06-01T08:37:29.000Z</time>
      </trkpt>
      <trkpt lat="44.13285" lon="5.88452">
        <ele>920</ele>
        <time>2021-06-01T08:37:30.000Z</time>
      </trkpt>
      <trkpt lat="44.13285" lon="5.88452">
        <ele>920</ele>
        <time>2021-06-01T08:37:31.000Z</time>
      </trkpt>
      <trkpt lat="44.13285" lon="5.88452">
        <ele>920</ele>
        <time>2021-06-01T08:37:32.000Z</time>
      </trkpt>
      <trkpt lat="44.13285" lon="5.88453">
        <ele>920</ele>
        <time>2021-06-01T08:37:33.000Z</time>
      </trkpt>
      <trkpt lat="44.13284" lon="5.88453">
        <ele>921</ele>
        <time>2021-06-01T08:37:34.000Z</time>
      </trkpt>
      <trkpt lat="44.13284" lon="5.88453">
        <ele>921</ele>
        <time>2021-06-01T08:37:35.000Z</time>
      </trkpt>
      <trkpt lat="44.13283" lon="5.88453">
        <ele>921</ele>
        <time>2021-06-01T08:37:36.000Z</time>
      </trkpt>
      <trkpt lat="44.13283" lon="5.88453">
        <ele>921</ele>
        <time>2021-06-01T08:37:37.000Z</time>
      </trkpt>
      <trkpt lat="44.13282" lon="5.88452">
        <ele>921</ele>
        <time>2021-06-01T08:37:38.000Z</time>
      </trkpt>
      <trkpt lat="44.13282" lon="5.88452">
        <ele>921</ele>
        <time>2021-06-01T08:37:39.000Z</time>
      </trkpt>
      <trkpt lat="44.13282" lon="5.88452">
        <ele>921</ele>
        <time>2021-06-01T08:37:40.000Z</time>
      </trkpt>
      <trkpt lat="44.13282" lon="5.88452">
        <ele>921</ele>
        <time>2021-06-01T08:37:41.000Z</time>
      </trkpt>
      <trkpt lat="44.13281" lon="5.88452">
        <ele>921</ele>
        <time>2021-06-01T08:37:42.000Z</time>
      </trkpt>
      <trkpt lat="44.13281" lon="5.88452">
        <ele>922</ele>
        <time>2021-06-01T08:37:43.000Z</time>
      </trkpt>
      <trkpt lat="44.13281" lon="5.88452">
        <ele>922</ele>
        <time>2021-06-01T08:37:44.000Z</time>
      </trkpt>
      <trkpt lat="44.13281" lon="5.88452">
        <ele>922</ele>
        <time>2021-06-01T08:37:45.000Z</time>
      </trkpt>
      <trkpt lat="44.13281" lon="5.88452">
        <ele>922</ele>
        <time>2021-06-01T08:37:46.000Z</time>
      </trkpt>
      <trkpt lat="44.13281" lon="5.88452">
        <ele>922</ele>
        <time>2021-06-01T08:37:47.000Z</time>
      </trkpt>
      <trkpt lat="44.13281" lon="5.88452">
        <ele>922</ele>
        <time>2021-06-01T08:37:48.000Z</time>
      </trkpt>
      <trkpt lat="44.13281" lon="5.88452">
        <ele>922</ele>
        <time>2021-06-01T08:37:49.000Z</time>
      </trkpt>
      <trkpt lat="44.13281" lon="5.88452">
        <ele>922</ele>
        <time>2021-06-01T08:37:50.000Z</time>
      </trkpt>
      <trkpt lat="44.13281" lon="5.88452">
        <ele>922</ele>
        <time>2021-06-01T08:37:51.000Z</time>
      </trkpt>
      <trkpt lat="44.13281" lon="5.88452">
        <ele>922</ele>
        <time>2021-06-01T08:37:52.000Z</time>
      </trkpt>
      <trkpt lat="44.13281" lon="5.88452">
        <ele>922</ele>
        <time>2021-06-01T08:37:53.000Z</time>
      </trkpt>
      <trkpt lat="44.13281" lon="5.88452">
        <ele>922</ele>
        <time>2021-06-01T08:37:54.000Z</time>
      </trkpt>
      <trkpt lat="44.13281" lon="5.88452">
        <ele>922</ele>
        <time>2021-06-01T08:37:55.000Z</time>
      </trkpt>
      <trkpt lat="44.13281" lon="5.88452">
        <ele>922</ele>
        <time>2021-06-01T08:37:56.000Z</time>
      </trkpt>
      <trkpt lat="44.13281" lon="5.88452">
        <ele>922</ele>
        <time>2021-06-01T08:37:57.000Z</time>
      </trkpt>
      <trkpt lat="44.13281" lon="5.88452">
        <ele>922</ele>
        <time>2021-06-01T08:37:58.000Z</time>
      </trkpt>
      <trkpt lat="44.13281" lon="5.88452">
        <ele>922</ele>
        <time>2021-06-01T08:37:59.000Z</time>
      </trkpt>
      <trkpt lat="44.1328" lon="5.88452">
        <ele>922</ele>
        <time>2021-06-01T08:38:00.000Z</time>
      </trkpt>
      <trkpt lat="44.1328" lon="5.88452">
        <ele>922</ele>
        <time>2021-06-01T08:38:01.000Z</time>
      </trkpt>
      <trkpt lat="44.1328" lon="5.88452">
        <ele>922</ele>
        <time>2021-06-01T08:38:02.000Z</time>
      </trkpt>
      <trkpt lat="44.1328" lon="5.88452">
        <ele>922</ele>
        <time>2021-06-01T08:38:03.000Z</time>
      </trkpt>
      <trkpt lat="44.1328" lon="5.88452">
        <ele>922</ele>
        <time>2021-06-01T08:38:04.000Z</time>
      </trkpt>
      <trkpt lat="44.1328" lon="5.88452">
        <ele>922</ele>
        <time>2021-06-01T08:38:05.000Z</time>
      </trkpt>
      <trkpt lat="44.1328" lon="5.88452">
        <ele>922</ele>
        <time>2021-06-01T08:38:06.000Z</time>
      </trkpt>
      <trkpt lat="44.1328" lon="5.88452">
        <ele>922</ele>
        <time>2021-06-01T08:38:07.000Z</time>
      </trkpt>
      <trkpt lat="44.1328" lon="5.88451">
        <ele>922</ele>
        <time>2021-06-01T08:38:08.000Z</time>
      </trkpt>
      <trkpt lat="44.1328" lon="5.88451">
        <ele>922</ele>
        <time>2021-06-01T08:38:09.000Z</time>
      </trkpt>
      <trkpt lat="44.1328" lon="5.88451">
        <ele>923</ele>
        <time>2021-06-01T08:38:10.000Z</time>
      </trkpt>
      <trkpt lat="44.1328" lon="5.88451">
        <ele>923</ele>
        <time>2021-06-01T08:38:11.000Z</time>
      </trkpt>
      <trkpt lat="44.13281" lon="5.88451">
        <ele>923</ele>
        <time>2021-06-01T08:38:12.000Z</time>
      </trkpt>
      <trkpt lat="44.13281" lon="5.88451">
        <ele>923</ele>
        <time>2021-06-01T08:38:13.000Z</time>
      </trkpt>
      <trkpt lat="44.13281" lon="5.88451">
        <ele>923</ele>
        <time>2021-06-01T08:38:14.000Z</time>
      </trkpt>
      <trkpt lat="44.13281" lon="5.88451">
        <ele>923</ele>
        <time>2021-06-01T08:38:15.000Z</time>
      </trkpt>
      <trkpt lat="44.13281" lon="5.8845">
        <ele>923</ele>
        <time>2021-06-01T08:38:16.000Z</time>
      </trkpt>
      <trkpt lat="44.13281" lon="5.8845">
        <ele>923</ele>
        <time>2021-06-01T08:38:17.000Z</time>
      </trkpt>
      <trkpt lat="44.13281" lon="5.8845">
        <ele>923</ele>
        <time>2021-06-01T08:38:18.000Z</time>
      </trkpt>
      <trkpt lat="44.13281" lon="5.8845">
        <ele>923</ele>
        <time>2021-06-01T08:38:19.000Z</time>
      </trkpt>
      <trkpt lat="44.13281" lon="5.8845">
        <ele>923</ele>
        <time>2021-06-01T08:38:20.000Z</time>
      </trkpt>
      <trkpt lat="44.13281" lon="5.8845">
        <ele>923</ele>
        <time>2021-06-01T08:38:21.000Z</time>
      </trkpt>
      <trkpt lat="44.13281" lon="5.8845">
        <ele>923</ele>
        <time>2021-06-01T08:38:22.000Z</time>
      </trkpt>
      <trkpt lat="44.13281" lon="5.8845">
        <ele>923</ele>
        <time>2021-06-01T08:38:23.000Z</time>
      </trkpt>
      <trkpt lat="44.13282" lon="5.8845">
        <ele>923</ele>
        <time>2021-06-01T08:38:24.000Z</time>
      </trkpt>
      <trkpt lat="44.13282" lon="5.8845">
        <ele>923</ele>
        <time>2021-06-01T08:38:25.000Z</time>
      </trkpt>
      <trkpt lat="44.13282" lon="5.8845">
        <ele>924</ele>
        <time>2021-06-01T08:38:26.000Z</time>
      </trkpt>
      <trkpt lat="44.13282" lon="5.8845">
        <ele>924</ele>
        <time>2021-06-01T08:38:27.000Z</time>
      </trkpt>
      <trkpt lat="44.13282" lon="5.8845">
        <ele>924</ele>
        <time>2021-06-01T08:38:28.000Z</time>
      </trkpt>
      <trkpt lat="44.13282" lon="5.8845">
        <ele>924</ele>
        <time>2021-06-01T08:38:29.000Z</time>
      </trkpt>
      <trkpt lat="44.13282" lon="5.8845">
        <ele>924</ele>
        <time>2021-06-01T08:38:30.000Z</time>
      </trkpt>
      <trkpt lat="44.13282" lon="5.8845">
        <ele>924</ele>
        <time>2021-06-01T08:38:31.000Z</time>
      </trkpt>
      <trkpt lat="44.13282" lon="5.8845">
        <ele>924</ele>
        <time>2021-06-01T08:38:32.000Z</time>
      </trkpt>
      <trkpt lat="44.13282" lon="5.8845">
        <ele>924</ele>
        <time>2021-06-01T08:38:33.000Z</time>
      </trkpt>
      <trkpt lat="44.13282" lon="5.8845">
        <ele>924</ele>
        <time>2021-06-01T08:38:34.000Z</time>
      </trkpt>
      <trkpt lat="44.13282" lon="5.88449">
        <ele>924</ele>
        <time>2021-06-01T08:38:35.000Z</time>
      </trkpt>
      <trkpt lat="44.13282" lon="5.88449">
        <ele>924</ele>
        <time>2021-06-01T08:38:36.000Z</time>
      </trkpt>
      <trkpt lat="44.13282" lon="5.88449">
        <ele>924</ele>
        <time>2021-06-01T08:38:37.000Z</time>
      </trkpt>
      <trkpt lat="44.13282" lon="5.88449">
        <ele>924</ele>
        <time>2021-06-01T08:38:38.000Z</time>
      </trkpt>
      <trkpt lat="44.13282" lon="5.88449">
        <ele>924</ele>
        <time>2021-06-01T08:38:39.000Z</time>
      </trkpt>
      <trkpt lat="44.13282" lon="5.88449">
        <ele>924</ele>
        <time>2021-06-01T08:38:40.000Z</time>
      </trkpt>
      <trkpt lat="44.13282" lon="5.88449">
        <ele>924</ele>
        <time>2021-06-01T08:38:41.000Z</time>
      </trkpt>
      <trkpt lat="44.13282" lon="5.88449">
        <ele>924</ele>
        <time>2021-06-01T08:38:42.000Z</time>
      </trkpt>
      <trkpt lat="44.13282" lon="5.88449">
        <ele>924</ele>
        <time>2021-06-01T08:38:43.000Z</time>
      </trkpt>
      <trkpt lat="44.13282" lon="5.88449">
        <ele>924</ele>
        <time>2021-06-01T08:38:44.000Z</time>
      </trkpt>
      <trkpt lat="44.13281" lon="5.88449">
        <ele>924</ele>
        <time>2021-06-01T08:38:45.000Z</time>
      </trkpt>
      <trkpt lat="44.13281" lon="5.88449">
        <ele>924</ele>
        <time>2021-06-01T08:38:46.000Z</time>
      </trkpt>
      <trkpt lat="44.13281" lon="5.88449">
        <ele>924</ele>
        <time>2021-06-01T08:38:47.000Z</time>
      </trkpt>
      <trkpt lat="44.13281" lon="5.88449">
        <ele>924</ele>
        <time>2021-06-01T08:38:48.000Z</time>
      </trkpt>
      <trkpt lat="44.13281" lon="5.88449">
        <ele>924</ele>
        <time>2021-06-01T08:38:49.000Z</time>
      </trkpt>
      <trkpt lat="44.13281" lon="5.8845">
        <ele>924</ele>
        <time>2021-06-01T08:38:50.000Z</time>
      </trkpt>
      <trkpt lat="44.13281" lon="5.8845">
        <ele>924</ele>
        <time>2021-06-01T08:38:51.000Z</time>
      </trkpt>
      <trkpt lat="44.13281" lon="5.8845">
        <ele>924</ele>
        <time>2021-06-01T08:38:52.000Z</time>
      </trkpt>
      <trkpt lat="44.13281" lon="5.8845">
        <ele>924</ele>
        <time>2021-06-01T08:38:53.000Z</time>
      </trkpt>
      <trkpt lat="44.13281" lon="5.8845">
        <ele>924</ele>
        <time>2021-06-01T08:38:54.000Z</time>
      </trkpt>
      <trkpt lat="44.13281" lon="5.8845">
        <ele>924</ele>
        <time>2021-06-01T08:38:55.000Z</time>
      </trkpt>
      <trkpt lat="44.13281" lon="5.8845">
        <ele>924</ele>
        <time>2021-06-01T08:38:56.000Z</time>
      </trkpt>
      <trkpt lat="44.13281" lon="5.88449">
        <ele>924</ele>
        <time>2021-06-01T08:38:57.000Z</time>
      </trkpt>
      <trkpt lat="44.13281" lon="5.88449">
        <ele>924</ele>
        <time>2021-06-01T08:38:58.000Z</time>
      </trkpt>
      <trkpt lat="44.13282" lon="5.88449">
        <ele>924</ele>
        <time>2021-06-01T08:38:59.000Z</time>
      </trkpt>
      <trkpt lat="44.13281" lon="5.88449">
        <ele>924</ele>
        <time>2021-06-01T08:39:00.000Z</time>
      </trkpt>
      <trkpt lat="44.13281" lon="5.88449">
        <ele>924</ele>
        <time>2021-06-01T08:39:01.000Z</time>
      </trkpt>
      <trkpt lat="44.13281" lon="5.8845">
        <ele>924</ele>
        <time>2021-06-01T08:39:02.000Z</time>
      </trkpt>
      <trkpt lat="44.13281" lon="5.88449">
        <ele>925</ele>
        <time>2021-06-01T08:39:03.000Z</time>
      </trkpt>
      <trkpt lat="44.13281" lon="5.88449">
        <ele>925</ele>
        <time>2021-06-01T08:39:04.000Z</time>
      </trkpt>
      <trkpt lat="44.13281" lon="5.88449">
        <ele>925</ele>
        <time>2021-06-01T08:39:05.000Z</time>
      </trkpt>
      <trkpt lat="44.13281" lon="5.88449">
        <ele>925</ele>
        <time>2021-06-01T08:39:06.000Z</time>
      </trkpt>
      <trkpt lat="44.13281" lon="5.88449">
        <ele>925</ele>
        <time>2021-06-01T08:39:07.000Z</time>
      </trkpt>
      <trkpt lat="44.13281" lon="5.88448">
        <ele>925</ele>
        <time>2021-06-01T08:39:08.000Z</time>
      </trkpt>
      <trkpt lat="44.1328" lon="5.88448">
        <ele>925</ele>
        <time>2021-06-01T08:39:09.000Z</time>
      </trkpt>
      <trkpt lat="44.1328" lon="5.88447">
        <ele>925</ele>
        <time>2021-06-01T08:39:10.000Z</time>
      </trkpt>
      <trkpt lat="44.1328" lon="5.88446">
        <ele>925</ele>
        <time>2021-06-01T08:39:11.000Z</time>
      </trkpt>
      <trkpt lat="44.13279" lon="5.88446">
        <ele>925</ele>
        <time>2021-06-01T08:39:12.000Z</time>
      </trkpt>
      <trkpt lat="44.13278" lon="5.88446">
        <ele>925</ele>
        <time>2021-06-01T08:39:13.000Z</time>
      </trkpt>
      <trkpt lat="44.13278" lon="5.88446">
        <ele>925</ele>
        <time>2021-06-01T08:39:14.000Z</time>
      </trkpt>
      <trkpt lat="44.13277" lon="5.88446">
        <ele>925</ele>
        <time>2021-06-01T08:39:15.000Z</time>
      </trkpt>
      <trkpt lat="44.13276" lon="5.88446">
        <ele>925</ele>
        <time>2021-06-01T08:39:16.000Z</time>
      </trkpt>
      <trkpt lat="44.13275" lon="5.88445">
        <ele>925</ele>
        <time>2021-06-01T08:39:17.000Z</time>
      </trkpt>
      <trkpt lat="44.13274" lon="5.88445">
        <ele>925</ele>
        <time>2021-06-01T08:39:18.000Z</time>
      </trkpt>
      <trkpt lat="44.13274" lon="5.88446">
        <ele>925</ele>
        <time>2021-06-01T08:39:19.000Z</time>
      </trkpt>
      <trkpt lat="44.13273" lon="5.88446">
        <ele>925</ele>
        <time>2021-06-01T08:39:20.000Z</time>
      </trkpt>
      <trkpt lat="44.13273" lon="5.88446">
        <ele>925</ele>
        <time>2021-06-01T08:39:21.000Z</time>
      </trkpt>
      <trkpt lat="44.13272" lon="5.88446">
        <ele>925</ele>
        <time>2021-06-01T08:39:22.000Z</time>
      </trkpt>
      <trkpt lat="44.13271" lon="5.88445">
        <ele>925</ele>
        <time>2021-06-01T08:39:23.000Z</time>
      </trkpt>
      <trkpt lat="44.13271" lon="5.88445">
        <ele>925</ele>
        <time>2021-06-01T08:39:24.000Z</time>
      </trkpt>
      <trkpt lat="44.1327" lon="5.88445">
        <ele>926</ele>
        <time>2021-06-01T08:39:25.000Z</time>
      </trkpt>
      <trkpt lat="44.1327" lon="5.88445">
        <ele>926</ele>
        <time>2021-06-01T08:39:26.000Z</time>
      </trkpt>
      <trkpt lat="44.13269" lon="5.88444">
        <ele>926</ele>
        <time>2021-06-01T08:39:27.000Z</time>
      </trkpt>
      <trkpt lat="44.13269" lon="5.88444">
        <ele>926</ele>
        <time>2021-06-01T08:39:28.000Z</time>
      </trkpt>
      <trkpt lat="44.13268" lon="5.88444">
        <ele>926</ele>
        <time>2021-06-01T08:39:29.000Z</time>
      </trkpt>
      <trkpt lat="44.13267" lon="5.88443">
        <ele>926</ele>
        <time>2021-06-01T08:39:30.000Z</time>
      </trkpt>
      <trkpt lat="44.13267" lon="5.88443">
        <ele>926</ele>
        <time>2021-06-01T08:39:31.000Z</time>
      </trkpt>
      <trkpt lat="44.13266" lon="5.88443">
        <ele>926</ele>
        <time>2021-06-01T08:39:32.000Z</time>
      </trkpt>
      <trkpt lat="44.13265" lon="5.88442">
        <ele>926</ele>
        <time>2021-06-01T08:39:33.000Z</time>
      </trkpt>
      <trkpt lat="44.13265" lon="5.88442">
        <ele>926</ele>
        <time>2021-06-01T08:39:34.000Z</time>
      </trkpt>
      <trkpt lat="44.13264" lon="5.88442">
        <ele>926</ele>
        <time>2021-06-01T08:39:35.000Z</time>
      </trkpt>
      <trkpt lat="44.13264" lon="5.88441">
        <ele>926</ele>
        <time>2021-06-01T08:39:36.000Z</time>
      </trkpt>
      <trkpt lat="44.13264" lon="5.88441">
        <ele>926</ele>
        <time>2021-06-01T08:39:37.000Z</time>
      </trkpt>
      <trkpt lat="44.13263" lon="5.88441">
        <ele>926</ele>
        <time>2021-06-01T08:39:38.000Z</time>
      </trkpt>
      <trkpt lat="44.13263" lon="5.88441">
        <ele>926</ele>
        <time>2021-06-01T08:39:39.000Z</time>
      </trkpt>
      <trkpt lat="44.13262" lon="5.88441">
        <ele>926</ele>
        <time>2021-06-01T08:39:40.000Z</time>
      </trkpt>
      <trkpt lat="44.13262" lon="5.88441">
        <ele>926</ele>
        <time>2021-06-01T08:39:41.000Z</time>
      </trkpt>
      <trkpt lat="44.13262" lon="5.88441">
        <ele>926</ele>
        <time>2021-06-01T08:39:42.000Z</time>
      </trkpt>
      <trkpt lat="44.13261" lon="5.8844">
        <ele>926</ele>
        <time>2021-06-01T08:39:43.000Z</time>
      </trkpt>
      <trkpt lat="44.13261" lon="5.8844">
        <ele>926</ele>
        <time>2021-06-01T08:39:44.000Z</time>
      </trkpt>
      <trkpt lat="44.13261" lon="5.8844">
        <ele>926</ele>
        <time>2021-06-01T08:39:45.000Z</time>
      </trkpt>
      <trkpt lat="44.1326" lon="5.8844">
        <ele>926</ele>
        <time>2021-06-01T08:39:46.000Z</time>
      </trkpt>
      <trkpt lat="44.1326" lon="5.8844">
        <ele>926</ele>
        <time>2021-06-01T08:39:47.000Z</time>
      </trkpt>
      <trkpt lat="44.13259" lon="5.8844">
        <ele>926</ele>
        <time>2021-06-01T08:39:48.000Z</time>
      </trkpt>
      <trkpt lat="44.13259" lon="5.8844">
        <ele>926</ele>
        <time>2021-06-01T08:39:49.000Z</time>
      </trkpt>
      <trkpt lat="44.13258" lon="5.8844">
        <ele>926</ele>
        <time>2021-06-01T08:39:50.000Z</time>
      </trkpt>
      <trkpt lat="44.13258" lon="5.88439">
        <ele>926</ele>
        <time>2021-06-01T08:39:51.000Z</time>
      </trkpt>
      <trkpt lat="44.13257" lon="5.88439">
        <ele>926</ele>
        <time>2021-06-01T08:39:52.000Z</time>
      </trkpt>
      <trkpt lat="44.13257" lon="5.88439">
        <ele>926</ele>
        <time>2021-06-01T08:39:53.000Z</time>
      </trkpt>
      <trkpt lat="44.13256" lon="5.88439">
        <ele>926</ele>
        <time>2021-06-01T08:39:54.000Z</time>
      </trkpt>
      <trkpt lat="44.13256" lon="5.88439">
        <ele>926</ele>
        <time>2021-06-01T08:39:55.000Z</time>
      </trkpt>
      <trkpt lat="44.13256" lon="5.88439">
        <ele>926</ele>
        <time>2021-06-01T08:39:56.000Z</time>
      </trkpt>
      <trkpt lat="44.13255" lon="5.88438">
        <ele>926</ele>
        <time>2021-06-01T08:39:57.000Z</time>
      </trkpt>
      <trkpt lat="44.13255" lon="5.88438">
        <ele>926</ele>
        <time>2021-06-01T08:39:58.000Z</time>
      </trkpt>
      <trkpt lat="44.13254" lon="5.88438">
        <ele>926</ele>
        <time>2021-06-01T08:39:59.000Z</time>
      </trkpt>
      <trkpt lat="44.13254" lon="5.88438">
        <ele>926</ele>
        <time>2021-06-01T08:40:00.000Z</time>
      </trkpt>
      <trkpt lat="44.13253" lon="5.88438">
        <ele>926</ele>
        <time>2021-06-01T08:40:01.000Z</time>
      </trkpt>
      <trkpt lat="44.13253" lon="5.88438">
        <ele>926</ele>
        <time>2021-06-01T08:40:02.000Z</time>
      </trkpt>
      <trkpt lat="44.13253" lon="5.88438">
        <ele>926</ele>
        <time>2021-06-01T08:40:03.000Z</time>
      </trkpt>
      <trkpt lat="44.13253" lon="5.88438">
        <ele>926</ele>
        <time>2021-06-01T08:40:04.000Z</time>
      </trkpt>
      <trkpt lat="44.13253" lon="5.88438">
        <ele>926</ele>
        <time>2021-06-01T08:40:05.000Z</time>
      </trkpt>
      <trkpt lat="44.13253" lon="5.88438">
        <ele>926</ele>
        <time>2021-06-01T08:40:06.000Z</time>
      </trkpt>
      <trkpt lat="44.13253" lon="5.88438">
        <ele>926</ele>
        <time>2021-06-01T08:40:07.000Z</time>
      </trkpt>
      <trkpt lat="44.13253" lon="5.88438">
        <ele>926</ele>
        <time>2021-06-01T08:40:08.000Z</time>
      </trkpt>
      <trkpt lat="44.13253" lon="5.88438">
        <ele>926</ele>
        <time>2021-06-01T08:40:09.000Z</time>
      </trkpt>
      <trkpt lat="44.13253" lon="5.88438">
        <ele>926</ele>
        <time>2021-06-01T08:40:10.000Z</time>
      </trkpt>
      <trkpt lat="44.13253" lon="5.88437">
        <ele>926</ele>
        <time>2021-06-01T08:40:11.000Z</time>
      </trkpt>
      <trkpt lat="44.13252" lon="5.88437">
        <ele>926</ele>
        <time>2021-06-01T08:40:12.000Z</time>
      </trkpt>
      <trkpt lat="44.13252" lon="5.88436">
        <ele>925</ele>
        <time>2021-06-01T08:40:13.000Z</time>
      </trkpt>
      <trkpt lat="44.13252" lon="5.88436">
        <ele>925</ele>
        <time>2021-06-01T08:40:14.000Z</time>
      </trkpt>
      <trkpt lat="44.13252" lon="5.88436">
        <ele>925</ele>
        <time>2021-06-01T08:40:15.000Z</time>
      </trkpt>
      <trkpt lat="44.13252" lon="5.88436">
        <ele>925</ele>
        <time>2021-06-01T08:40:16.000Z</time>
      </trkpt>
      <trkpt lat="44.13252" lon="5.88436">
        <ele>925</ele>
        <time>2021-06-01T08:40:17.000Z</time>
      </trkpt>
      <trkpt lat="44.13252" lon="5.88435">
        <ele>925</ele>
        <time>2021-06-01T08:40:18.000Z</time>
      </trkpt>
      <trkpt lat="44.13251" lon="5.88435">
        <ele>925</ele>
        <time>2021-06-01T08:40:19.000Z</time>
      </trkpt>
      <trkpt lat="44.13251" lon="5.88435">
        <ele>925</ele>
        <time>2021-06-01T08:40:20.000Z</time>
      </trkpt>
      <trkpt lat="44.13251" lon="5.88436">
        <ele>925</ele>
        <time>2021-06-01T08:40:21.000Z</time>
      </trkpt>
      <trkpt lat="44.1325" lon="5.88436">
        <ele>925</ele>
        <time>2021-06-01T08:40:22.000Z</time>
      </trkpt>
      <trkpt lat="44.1325" lon="5.88436">
        <ele>925</ele>
        <time>2021-06-01T08:40:23.000Z</time>
      </trkpt>
      <trkpt lat="44.13249" lon="5.88436">
        <ele>925</ele>
        <time>2021-06-01T08:40:24.000Z</time>
      </trkpt>
      <trkpt lat="44.13249" lon="5.88436">
        <ele>925</ele>
        <time>2021-06-01T08:40:25.000Z</time>
      </trkpt>
      <trkpt lat="44.13248" lon="5.88435">
        <ele>925</ele>
        <time>2021-06-01T08:40:26.000Z</time>
      </trkpt>
      <trkpt lat="44.13248" lon="5.88434">
        <ele>925</ele>
        <time>2021-06-01T08:40:27.000Z</time>
      </trkpt>
      <trkpt lat="44.13247" lon="5.88434">
        <ele>925</ele>
        <time>2021-06-01T08:40:28.000Z</time>
      </trkpt>
      <trkpt lat="44.13247" lon="5.88434">
        <ele>925</ele>
        <time>2021-06-01T08:40:29.000Z</time>
      </trkpt>
      <trkpt lat="44.13247" lon="5.88434">
        <ele>925</ele>
        <time>2021-06-01T08:40:30.000Z</time>
      </trkpt>
      <trkpt lat="44.13246" lon="5.88434">
        <ele>925</ele>
        <time>2021-06-01T08:40:31.000Z</time>
      </trkpt>
      <trkpt lat="44.13246" lon="5.88434">
        <ele>925</ele>
        <time>2021-06-01T08:40:32.000Z</time>
      </trkpt>
      <trkpt lat="44.13246" lon="5.88435">
        <ele>925</ele>
        <time>2021-06-01T08:40:33.000Z</time>
      </trkpt>
      <trkpt lat="44.13246" lon="5.88435">
        <ele>925</ele>
        <time>2021-06-01T08:40:34.000Z</time>
      </trkpt>
      <trkpt lat="44.13246" lon="5.88435">
        <ele>925</ele>
        <time>2021-06-01T08:40:35.000Z</time>
      </trkpt>
      <trkpt lat="44.13246" lon="5.88435">
        <ele>925</ele>
        <time>2021-06-01T08:40:36.000Z</time>
      </trkpt>
      <trkpt lat="44.13246" lon="5.88435">
        <ele>925</ele>
        <time>2021-06-01T08:40:37.000Z</time>
      </trkpt>
      <trkpt lat="44.13246" lon="5.88435">
        <ele>925</ele>
        <time>2021-06-01T08:40:38.000Z</time>
      </trkpt>
      <trkpt lat="44.13246" lon="5.88435">
        <ele>925</ele>
        <time>2021-06-01T08:40:39.000Z</time>
      </trkpt>
      <trkpt lat="44.13245" lon="5.88435">
        <ele>925</ele>
        <time>2021-06-01T08:40:40.000Z</time>
      </trkpt>
      <trkpt lat="44.13245" lon="5.88435">
        <ele>926</ele>
        <time>2021-06-01T08:40:41.000Z</time>
      </trkpt>
      <trkpt lat="44.13245" lon="5.88435">
        <ele>926</ele>
        <time>2021-06-01T08:40:42.000Z</time>
      </trkpt>
      <trkpt lat="44.13245" lon="5.88435">
        <ele>926</ele>
        <time>2021-06-01T08:40:43.000Z</time>
      </trkpt>
      <trkpt lat="44.13245" lon="5.88434">
        <ele>926</ele>
        <time>2021-06-01T08:40:44.000Z</time>
      </trkpt>
      <trkpt lat="44.13245" lon="5.88434">
        <ele>926</ele>
        <time>2021-06-01T08:40:45.000Z</time>
      </trkpt>
      <trkpt lat="44.13245" lon="5.88434">
        <ele>926</ele>
        <time>2021-06-01T08:40:46.000Z</time>
      </trkpt>
      <trkpt lat="44.13245" lon="5.88435">
        <ele>926</ele>
        <time>2021-06-01T08:40:47.000Z</time>
      </trkpt>
      <trkpt lat="44.13245" lon="5.88435">
        <ele>926</ele>
        <time>2021-06-01T08:40:48.000Z</time>
      </trkpt>
      <trkpt lat="44.13245" lon="5.88435">
        <ele>926</ele>
        <time>2021-06-01T08:40:49.000Z</time>
      </trkpt>
      <trkpt lat="44.13245" lon="5.88435">
        <ele>926</ele>
        <time>2021-06-01T08:40:50.000Z</time>
      </trkpt>
      <trkpt lat="44.13245" lon="5.88434">
        <ele>926</ele>
        <time>2021-06-01T08:40:51.000Z</time>
      </trkpt>
      <trkpt lat="44.13245" lon="5.88434">
        <ele>926</ele>
        <time>2021-06-01T08:40:52.000Z</time>
      </trkpt>
      <trkpt lat="44.13245" lon="5.88434">
        <ele>926</ele>
        <time>2021-06-01T08:40:53.000Z</time>
      </trkpt>
      <trkpt lat="44.13245" lon="5.88434">
        <ele>926</ele>
        <time>2021-06-01T08:40:54.000Z</time>
      </trkpt>
      <trkpt lat="44.13245" lon="5.88434">
        <ele>926</ele>
        <time>2021-06-01T08:40:55.000Z</time>
      </trkpt>
      <trkpt lat="44.13245" lon="5.88434">
        <ele>926</ele>
        <time>2021-06-01T08:40:56.000Z</time>
      </trkpt>
      <trkpt lat="44.13245" lon="5.88434">
        <ele>926</ele>
        <time>2021-06-01T08:40:57.000Z</time>
      </trkpt>
      <trkpt lat="44.13245" lon="5.88434">
        <ele>926</ele>
        <time>2021-06-01T08:40:58.000Z</time>
      </trkpt>
      <trkpt lat="44.13245" lon="5.88434">
        <ele>926</ele>
        <time>2021-06-01T08:40:59.000Z</time>
      </trkpt>
      <trkpt lat="44.13245" lon="5.88434">
        <ele>926</ele>
        <time>2021-06-01T08:41:00.000Z</time>
      </trkpt>
      <trkpt lat="44.13245" lon="5.88434">
        <ele>926</ele>
        <time>2021-06-01T08:41:01.000Z</time>
      </trkpt>
      <trkpt lat="44.13245" lon="5.88434">
        <ele>926</ele>
        <time>2021-06-01T08:41:02.000Z</time>
      </trkpt>
      <trkpt lat="44.13245" lon="5.88434">
        <ele>926</ele>
        <time>2021-06-01T08:41:03.000Z</time>
      </trkpt>
      <trkpt lat="44.13245" lon="5.88434">
        <ele>926</ele>
        <time>2021-06-01T08:41:04.000Z</time>
      </trkpt>
      <trkpt lat="44.13245" lon="5.88435">
        <ele>926</ele>
        <time>2021-06-01T08:41:05.000Z</time>
      </trkpt>
      <trkpt lat="44.13245" lon="5.88435">
        <ele>926</ele>
        <time>2021-06-01T08:41:06.000Z</time>
      </trkpt>
      <trkpt lat="44.13245" lon="5.88434">
        <ele>926</ele>
        <time>2021-06-01T08:41:07.000Z</time>
      </trkpt>
      <trkpt lat="44.13245" lon="5.88434">
        <ele>926</ele>
        <time>2021-06-01T08:41:08.000Z</time>
      </trkpt>
      <trkpt lat="44.13245" lon="5.88435">
        <ele>926</ele>
        <time>2021-06-01T08:41:09.000Z</time>
      </trkpt>
      <trkpt lat="44.13245" lon="5.88435">
        <ele>926</ele>
        <time>2021-06-01T08:41:10.000Z</time>
      </trkpt>
      <trkpt lat="44.13245" lon="5.88435">
        <ele>926</ele>
        <time>2021-06-01T08:41:11.000Z</time>
      </trkpt>
      <trkpt lat="44.13245" lon="5.88435">
        <ele>926</ele>
        <time>2021-06-01T08:41:12.000Z</time>
      </trkpt>
      <trkpt lat="44.13245" lon="5.88435">
        <ele>926</ele>
        <time>2021-06-01T08:41:13.000Z</time>
      </trkpt>
      <trkpt lat="44.13245" lon="5.88435">
        <ele>926</ele>
        <time>2021-06-01T08:41:14.000Z</time>
      </trkpt>
      <trkpt lat="44.13245" lon="5.88435">
        <ele>926</ele>
        <time>2021-06-01T08:41:15.000Z</time>
      </trkpt>
      <trkpt lat="44.13245" lon="5.88435">
        <ele>926</ele>
        <time>2021-06-01T08:41:16.000Z</time>
      </trkpt>
      <trkpt lat="44.13245" lon="5.88434">
        <ele>926</ele>
        <time>2021-06-01T08:41:17.000Z</time>
      </trkpt>
      <trkpt lat="44.13245" lon="5.88435">
        <ele>926</ele>
        <time>2021-06-01T08:41:18.000Z</time>
      </trkpt>
      <trkpt lat="44.13245" lon="5.88435">
        <ele>927</ele>
        <time>2021-06-01T08:41:19.000Z</time>
      </trkpt>
      <trkpt lat="44.13245" lon="5.88435">
        <ele>927</ele>
        <time>2021-06-01T08:41:20.000Z</time>
      </trkpt>
      <trkpt lat="44.13245" lon="5.88435">
        <ele>927</ele>
        <time>2021-06-01T08:41:21.000Z</time>
      </trkpt>
      <trkpt lat="44.13245" lon="5.88435">
        <ele>927</ele>
        <time>2021-06-01T08:41:22.000Z</time>
      </trkpt>
      <trkpt lat="44.13245" lon="5.88435">
        <ele>927</ele>
        <time>2021-06-01T08:41:23.000Z</time>
      </trkpt>
      <trkpt lat="44.13245" lon="5.88435">
        <ele>927</ele>
        <time>2021-06-01T08:41:24.000Z</time>
      </trkpt>
      <trkpt lat="44.13245" lon="5.88435">
        <ele>927</ele>
        <time>2021-06-01T08:41:25.000Z</time>
      </trkpt>
      <trkpt lat="44.13245" lon="5.88435">
        <ele>927</ele>
        <time>2021-06-01T08:41:26.000Z</time>
      </trkpt>
      <trkpt lat="44.13245" lon="5.88436">
        <ele>927</ele>
        <time>2021-06-01T08:41:27.000Z</time>
      </trkpt>
      <trkpt lat="44.13245" lon="5.88436">
        <ele>927</ele>
        <time>2021-06-01T08:41:28.000Z</time>
      </trkpt>
      <trkpt lat="44.13245" lon="5.88436">
        <ele>927</ele>
        <time>2021-06-01T08:41:29.000Z</time>
      </trkpt>
      <trkpt lat="44.13245" lon="5.88436">
        <ele>927</ele>
        <time>2021-06-01T08:41:30.000Z</time>
      </trkpt>
      <trkpt lat="44.13245" lon="5.88436">
        <ele>927</ele>
        <time>2021-06-01T08:41:31.000Z</time>
      </trkpt>
      <trkpt lat="44.13245" lon="5.88436">
        <ele>927</ele>
        <time>2021-06-01T08:41:32.000Z</time>
      </trkpt>
      <trkpt lat="44.13245" lon="5.88436">
        <ele>927</ele>
        <time>2021-06-01T08:41:33.000Z</time>
      </trkpt>
      <trkpt lat="44.13245" lon="5.88436">
        <ele>927</ele>
        <time>2021-06-01T08:41:34.000Z</time>
      </trkpt>
      <trkpt lat="44.13245" lon="5.88436">
        <ele>927</ele>
        <time>2021-06-01T08:41:35.000Z</time>
      </trkpt>
      <trkpt lat="44.13245" lon="5.88436">
        <ele>927</ele>
        <time>2021-06-01T08:41:36.000Z</time>
      </trkpt>
      <trkpt lat="44.13245" lon="5.88436">
        <ele>927</ele>
        <time>2021-06-01T08:41:37.000Z</time>
      </trkpt>
      <trkpt lat="44.13245" lon="5.88436">
        <ele>927</ele>
        <time>2021-06-01T08:41:38.000Z</time>
      </trkpt>
      <trkpt lat="44.13245" lon="5.88436">
        <ele>927</ele>
        <time>2021-06-01T08:41:39.000Z</time>
      </trkpt>
      <trkpt lat="44.13245" lon="5.88436">
        <ele>927</ele>
        <time>2021-06-01T08:41:40.000Z</time>
      </trkpt>
      <trkpt lat="44.13245" lon="5.88436">
        <ele>927</ele>
        <time>2021-06-01T08:41:41.000Z</time>
      </trkpt>
      <trkpt lat="44.13245" lon="5.88436">
        <ele>927</ele>
        <time>2021-06-01T08:41:42.000Z</time>
      </trkpt>
      <trkpt lat="44.13245" lon="5.88436">
        <ele>927</ele>
        <time>2021-06-01T08:41:43.000Z</time>
      </trkpt>
      <trkpt lat="44.13245" lon="5.88437">
        <ele>927</ele>
        <time>2021-06-01T08:41:44.000Z</time>
      </trkpt>
      <trkpt lat="44.13245" lon="5.88437">
        <ele>927</ele>
        <time>2021-06-01T08:41:45.000Z</time>
      </trkpt>
      <trkpt lat="44.13245" lon="5.88437">
        <ele>927</ele>
        <time>2021-06-01T08:41:46.000Z</time>
      </trkpt>
      <trkpt lat="44.13245" lon="5.88437">
        <ele>927</ele>
        <time>2021-06-01T08:41:47.000Z</time>
      </trkpt>
      <trkpt lat="44.13245" lon="5.88437">
        <ele>927</ele>
        <time>2021-06-01T08:41:48.000Z</time>
      </trkpt>
      <trkpt lat="44.13245" lon="5.88438">
        <ele>927</ele>
        <time>2021-06-01T08:41:49.000Z</time>
      </trkpt>
      <trkpt lat="44.13245" lon="5.88438">
        <ele>928</ele>
        <time>2021-06-01T08:41:50.000Z</time>
      </trkpt>
      <trkpt lat="44.13245" lon="5.88438">
        <ele>928</ele>
        <time>2021-06-01T08:41:51.000Z</time>
      </trkpt>
      <trkpt lat="44.13245" lon="5.88438">
        <ele>928</ele>
        <time>2021-06-01T08:41:52.000Z</time>
      </trkpt>
      <trkpt lat="44.13245" lon="5.88438">
        <ele>928</ele>
        <time>2021-06-01T08:41:53.000Z</time>
      </trkpt>
      <trkpt lat="44.13245" lon="5.88438">
        <ele>928</ele>
        <time>2021-06-01T08:41:54.000Z</time>
      </trkpt>
      <trkpt lat="44.13245" lon="5.88438">
        <ele>928</ele>
        <time>2021-06-01T08:41:55.000Z</time>
      </trkpt>
      <trkpt lat="44.13245" lon="5.88438">
        <ele>928</ele>
        <time>2021-06-01T08:41:56.000Z</time>
      </trkpt>
      <trkpt lat="44.13245" lon="5.88439">
        <ele>928</ele>
        <time>2021-06-01T08:41:57.000Z</time>
      </trkpt>
      <trkpt lat="44.13245" lon="5.88439">
        <ele>928</ele>
        <time>2021-06-01T08:41:58.000Z</time>
      </trkpt>
      <trkpt lat="44.13245" lon="5.88439">
        <ele>928</ele>
        <time>2021-06-01T08:41:59.000Z</time>
      </trkpt>
      <trkpt lat="44.13245" lon="5.88439">
        <ele>928</ele>
        <time>2021-06-01T08:42:00.000Z</time>
      </trkpt>
      <trkpt lat="44.13245" lon="5.8844">
        <ele>928</ele>
        <time>2021-06-01T08:42:01.000Z</time>
      </trkpt>
      <trkpt lat="44.13245" lon="5.8844">
        <ele>928</ele>
        <time>2021-06-01T08:42:02.000Z</time>
      </trkpt>
      <trkpt lat="44.13245" lon="5.8844">
        <ele>928</ele>
        <time>2021-06-01T08:42:03.000Z</time>
      </trkpt>
      <trkpt lat="44.13245" lon="5.8844">
        <ele>928</ele>
        <time>2021-06-01T08:42:04.000Z</time>
      </trkpt>
      <trkpt lat="44.13245" lon="5.8844">
        <ele>928</ele>
        <time>2021-06-01T08:42:05.000Z</time>
      </trkpt>
      <trkpt lat="44.13245" lon="5.88441">
        <ele>928</ele>
        <time>2021-06-01T08:42:06.000Z</time>
      </trkpt>
      <trkpt lat="44.13245" lon="5.88441">
        <ele>929</ele>
        <time>2021-06-01T08:42:07.000Z</time>
      </trkpt>
      <trkpt lat="44.13245" lon="5.88441">
        <ele>929</ele>
        <time>2021-06-01T08:42:08.000Z</time>
      </trkpt>
      <trkpt lat="44.13245" lon="5.88442">
        <ele>929</ele>
        <time>2021-06-01T08:42:09.000Z</time>
      </trkpt>
      <trkpt lat="44.13245" lon="5.88442">
        <ele>929</ele>
        <time>2021-06-01T08:42:10.000Z</time>
      </trkpt>
      <trkpt lat="44.13245" lon="5.88442">
        <ele>929</ele>
        <time>2021-06-01T08:42:11.000Z</time>
      </trkpt>
      <trkpt lat="44.13245" lon="5.88442">
        <ele>929</ele>
        <time>2021-06-01T08:42:12.000Z</time>
      </trkpt>
      <trkpt lat="44.13245" lon="5.88442">
        <ele>929</ele>
        <time>2021-06-01T08:42:13.000Z</time>
      </trkpt>
      <trkpt lat="44.13245" lon="5.88443">
        <ele>929</ele>
        <time>2021-06-01T08:42:14.000Z</time>
      </trkpt>
      <trkpt lat="44.13245" lon="5.88443">
        <ele>929</ele>
        <time>2021-06-01T08:42:15.000Z</time>
      </trkpt>
      <trkpt lat="44.13245" lon="5.88443">
        <ele>929</ele>
        <time>2021-06-01T08:42:16.000Z</time>
      </trkpt>
      <trkpt lat="44.13245" lon="5.88444">
        <ele>930</ele>
        <time>2021-06-01T08:42:17.000Z</time>
      </trkpt>
      <trkpt lat="44.13245" lon="5.88444">
        <ele>930</ele>
        <time>2021-06-01T08:42:18.000Z</time>
      </trkpt>
      <trkpt lat="44.13245" lon="5.88443">
        <ele>930</ele>
        <time>2021-06-01T08:42:19.000Z</time>
      </trkpt>
      <trkpt lat="44.13245" lon="5.88443">
        <ele>930</ele>
        <time>2021-06-01T08:42:20.000Z</time>
      </trkpt>
      <trkpt lat="44.13245" lon="5.88443">
        <ele>930</ele>
        <time>2021-06-01T08:42:21.000Z</time>
      </trkpt>
      <trkpt lat="44.13245" lon="5.88443">
        <ele>930</ele>
        <time>2021-06-01T08:42:22.000Z</time>
      </trkpt>
      <trkpt lat="44.13245" lon="5.88443">
        <ele>930</ele>
        <time>2021-06-01T08:42:23.000Z</time>
      </trkpt>
      <trkpt lat="44.13245" lon="5.88443">
        <ele>930</ele>
        <time>2021-06-01T08:42:24.000Z</time>
      </trkpt>
      <trkpt lat="44.13245" lon="5.88443">
        <ele>930</ele>
        <time>2021-06-01T08:42:25.000Z</time>
      </trkpt>
      <trkpt lat="44.13245" lon="5.88443">
        <ele>930</ele>
        <time>2021-06-01T08:42:26.000Z</time>
      </trkpt>
      <trkpt lat="44.13245" lon="5.88443">
        <ele>930</ele>
        <time>2021-06-01T08:42:27.000Z</time>
      </trkpt>
      <trkpt lat="44.13245" lon="5.88443">
        <ele>930</ele>
        <time>2021-06-01T08:42:28.000Z</time>
      </trkpt>
      <trkpt lat="44.13245" lon="5.88443">
        <ele>930</ele>
        <time>2021-06-01T08:42:29.000Z</time>
      </trkpt>
      <trkpt lat="44.13245" lon="5.88443">
        <ele>930</ele>
        <time>2021-06-01T08:42:30.000Z</time>
      </trkpt>
      <trkpt lat="44.13245" lon="5.88443">
        <ele>930</ele>
        <time>2021-06-01T08:42:31.000Z</time>
      </trkpt>
      <trkpt lat="44.13245" lon="5.88443">
        <ele>930</ele>
        <time>2021-06-01T08:42:32.000Z</time>
      </trkpt>
      <trkpt lat="44.13245" lon="5.88444">
        <ele>930</ele>
        <time>2021-06-01T08:42:33.000Z</time>
      </trkpt>
      <trkpt lat="44.13246" lon="5.88444">
        <ele>930</ele>
        <time>2021-06-01T08:42:34.000Z</time>
      </trkpt>
      <trkpt lat="44.13245" lon="5.88444">
        <ele>930</ele>
        <time>2021-06-01T08:42:35.000Z</time>
      </trkpt>
      <trkpt lat="44.13245" lon="5.88445">
        <ele>930</ele>
        <time>2021-06-01T08:42:36.000Z</time>
      </trkpt>
      <trkpt lat="44.13245" lon="5.88445">
        <ele>930</ele>
        <time>2021-06-01T08:42:37.000Z</time>
      </trkpt>
      <trkpt lat="44.13244" lon="5.88445">
        <ele>930</ele>
        <time>2021-06-01T08:42:38.000Z</time>
      </trkpt>
      <trkpt lat="44.13244" lon="5.88445">
        <ele>930</ele>
        <time>2021-06-01T08:42:39.000Z</time>
      </trkpt>
      <trkpt lat="44.13244" lon="5.88446">
        <ele>930</ele>
        <time>2021-06-01T08:42:40.000Z</time>
      </trkpt>
      <trkpt lat="44.13244" lon="5.88446">
        <ele>931</ele>
        <time>2021-06-01T08:42:41.000Z</time>
      </trkpt>
      <trkpt lat="44.13244" lon="5.88447">
        <ele>931</ele>
        <time>2021-06-01T08:42:42.000Z</time>
      </trkpt>
      <trkpt lat="44.13243" lon="5.88447">
        <ele>931</ele>
        <time>2021-06-01T08:42:43.000Z</time>
      </trkpt>
      <trkpt lat="44.13243" lon="5.88447">
        <ele>931</ele>
        <time>2021-06-01T08:42:44.000Z</time>
      </trkpt>
      <trkpt lat="44.13242" lon="5.88447">
        <ele>931</ele>
        <time>2021-06-01T08:42:45.000Z</time>
      </trkpt>
      <trkpt lat="44.13242" lon="5.88448">
        <ele>931</ele>
        <time>2021-06-01T08:42:46.000Z</time>
      </trkpt>
      <trkpt lat="44.13242" lon="5.88448">
        <ele>931</ele>
        <time>2021-06-01T08:42:47.000Z</time>
      </trkpt>
      <trkpt lat="44.13241" lon="5.88448">
        <ele>931</ele>
        <time>2021-06-01T08:42:48.000Z</time>
      </trkpt>
      <trkpt lat="44.13241" lon="5.88448">
        <ele>931</ele>
        <time>2021-06-01T08:42:49.000Z</time>
      </trkpt>
      <trkpt lat="44.13241" lon="5.88448">
        <ele>931</ele>
        <time>2021-06-01T08:42:50.000Z</time>
      </trkpt>
      <trkpt lat="44.1324" lon="5.88447">
        <ele>932</ele>
        <time>2021-06-01T08:42:51.000Z</time>
      </trkpt>
      <trkpt lat="44.1324" lon="5.88447">
        <ele>932</ele>
        <time>2021-06-01T08:42:52.000Z</time>
      </trkpt>
      <trkpt lat="44.1324" lon="5.88447">
        <ele>932</ele>
        <time>2021-06-01T08:42:53.000Z</time>
      </trkpt>
      <trkpt lat="44.13239" lon="5.88447">
        <ele>932</ele>
        <time>2021-06-01T08:42:54.000Z</time>
      </trkpt>
      <trkpt lat="44.13239" lon="5.88447">
        <ele>932</ele>
        <time>2021-06-01T08:42:55.000Z</time>
      </trkpt>
      <trkpt lat="44.13239" lon="5.88447">
        <ele>932</ele>
        <time>2021-06-01T08:42:56.000Z</time>
      </trkpt>
      <trkpt lat="44.13238" lon="5.88447">
        <ele>933</ele>
        <time>2021-06-01T08:42:57.000Z</time>
      </trkpt>
      <trkpt lat="44.13238" lon="5.88447">
        <ele>933</ele>
        <time>2021-06-01T08:42:58.000Z</time>
      </trkpt>
      <trkpt lat="44.13238" lon="5.88447">
        <ele>933</ele>
        <time>2021-06-01T08:42:59.000Z</time>
      </trkpt>
      <trkpt lat="44.13237" lon="5.88447">
        <ele>933</ele>
        <time>2021-06-01T08:43:00.000Z</time>
      </trkpt>
      <trkpt lat="44.13237" lon="5.88448">
        <ele>934</ele>
        <time>2021-06-01T08:43:01.000Z</time>
      </trkpt>
      <trkpt lat="44.13237" lon="5.88448">
        <ele>934</ele>
        <time>2021-06-01T08:43:02.000Z</time>
      </trkpt>
      <trkpt lat="44.13237" lon="5.88448">
        <ele>934</ele>
        <time>2021-06-01T08:43:03.000Z</time>
      </trkpt>
      <trkpt lat="44.13236" lon="5.88448">
        <ele>934</ele>
        <time>2021-06-01T08:43:04.000Z</time>
      </trkpt>
      <trkpt lat="44.13236" lon="5.88447">
        <ele>934</ele>
        <time>2021-06-01T08:43:05.000Z</time>
      </trkpt>
      <trkpt lat="44.13236" lon="5.88447">
        <ele>935</ele>
        <time>2021-06-01T08:43:06.000Z</time>
      </trkpt>
      <trkpt lat="44.13236" lon="5.88447">
        <ele>935</ele>
        <time>2021-06-01T08:43:07.000Z</time>
      </trkpt>
      <trkpt lat="44.13236" lon="5.88447">
        <ele>935</ele>
        <time>2021-06-01T08:43:08.000Z</time>
      </trkpt>
      <trkpt lat="44.13236" lon="5.88447">
        <ele>935</ele>
        <time>2021-06-01T08:43:09.000Z</time>
      </trkpt>
      <trkpt lat="44.13236" lon="5.88448">
        <ele>935</ele>
        <time>2021-06-01T08:43:10.000Z</time>
      </trkpt>
      <trkpt lat="44.13236" lon="5.88448">
        <ele>935</ele>
        <time>2021-06-01T08:43:11.000Z</time>
      </trkpt>
      <trkpt lat="44.13236" lon="5.88449">
        <ele>935</ele>
        <time>2021-06-01T08:43:12.000Z</time>
      </trkpt>
      <trkpt lat="44.13236" lon="5.88449">
        <ele>935</ele>
        <time>2021-06-01T08:43:13.000Z</time>
      </trkpt>
      <trkpt lat="44.13236" lon="5.88449">
        <ele>936</ele>
        <time>2021-06-01T08:43:14.000Z</time>
      </trkpt>
      <trkpt lat="44.13236" lon="5.88449">
        <ele>936</ele>
        <time>2021-06-01T08:43:15.000Z</time>
      </trkpt>
      <trkpt lat="44.13236" lon="5.88449">
        <ele>936</ele>
        <time>2021-06-01T08:43:16.000Z</time>
      </trkpt>
      <trkpt lat="44.13235" lon="5.88449">
        <ele>936</ele>
        <time>2021-06-01T08:43:17.000Z</time>
      </trkpt>
      <trkpt lat="44.13235" lon="5.88449">
        <ele>936</ele>
        <time>2021-06-01T08:43:18.000Z</time>
      </trkpt>
      <trkpt lat="44.13235" lon="5.88449">
        <ele>936</ele>
        <time>2021-06-01T08:43:19.000Z</time>
      </trkpt>
      <trkpt lat="44.13235" lon="5.88449">
        <ele>936</ele>
        <time>2021-06-01T08:43:20.000Z</time>
      </trkpt>
      <trkpt lat="44.13235" lon="5.88449">
        <ele>936</ele>
        <time>2021-06-01T08:43:21.000Z</time>
      </trkpt>
      <trkpt lat="44.13235" lon="5.88449">
        <ele>936</ele>
        <time>2021-06-01T08:43:22.000Z</time>
      </trkpt>
      <trkpt lat="44.13235" lon="5.88449">
        <ele>936</ele>
        <time>2021-06-01T08:43:23.000Z</time>
      </trkpt>
      <trkpt lat="44.13235" lon="5.88449">
        <ele>936</ele>
        <time>2021-06-01T08:43:24.000Z</time>
      </trkpt>
      <trkpt lat="44.13235" lon="5.88449">
        <ele>937</ele>
        <time>2021-06-01T08:43:25.000Z</time>
      </trkpt>
      <trkpt lat="44.13235" lon="5.88448">
        <ele>937</ele>
        <time>2021-06-01T08:43:26.000Z</time>
      </trkpt>
      <trkpt lat="44.13235" lon="5.88448">
        <ele>937</ele>
        <time>2021-06-01T08:43:27.000Z</time>
      </trkpt>
      <trkpt lat="44.13235" lon="5.88448">
        <ele>937</ele>
        <time>2021-06-01T08:43:28.000Z</time>
      </trkpt>
      <trkpt lat="44.13235" lon="5.88448">
        <ele>937</ele>
        <time>2021-06-01T08:43:29.000Z</time>
      </trkpt>
      <trkpt lat="44.13235" lon="5.88448">
        <ele>937</ele>
        <time>2021-06-01T08:43:30.000Z</time>
      </trkpt>
      <trkpt lat="44.13235" lon="5.88448">
        <ele>937</ele>
        <time>2021-06-01T08:43:31.000Z</time>
      </trkpt>
      <trkpt lat="44.13235" lon="5.88448">
        <ele>937</ele>
        <time>2021-06-01T08:43:32.000Z</time>
      </trkpt>
      <trkpt lat="44.13235" lon="5.88449">
        <ele>937</ele>
        <time>2021-06-01T08:43:33.000Z</time>
      </trkpt>
      <trkpt lat="44.13236" lon="5.88449">
        <ele>937</ele>
        <time>2021-06-01T08:43:34.000Z</time>
      </trkpt>
      <trkpt lat="44.13235" lon="5.88449">
        <ele>937</ele>
        <time>2021-06-01T08:43:35.000Z</time>
      </trkpt>
      <trkpt lat="44.13235" lon="5.88449">
        <ele>937</ele>
        <time>2021-06-01T08:43:36.000Z</time>
      </trkpt>
      <trkpt lat="44.13235" lon="5.88449">
        <ele>937</ele>
        <time>2021-06-01T08:43:37.000Z</time>
      </trkpt>
      <trkpt lat="44.13235" lon="5.88448">
        <ele>937</ele>
        <time>2021-06-01T08:43:38.000Z</time>
      </trkpt>
      <trkpt lat="44.13235" lon="5.88449">
        <ele>937</ele>
        <time>2021-06-01T08:43:39.000Z</time>
      </trkpt>
      <trkpt lat="44.13235" lon="5.88448">
        <ele>937</ele>
        <time>2021-06-01T08:43:40.000Z</time>
      </trkpt>
      <trkpt lat="44.13235" lon="5.88448">
        <ele>938</ele>
        <time>2021-06-01T08:43:41.000Z</time>
      </trkpt>
      <trkpt lat="44.13235" lon="5.88448">
        <ele>938</ele>
        <time>2021-06-01T08:43:42.000Z</time>
      </trkpt>
      <trkpt lat="44.13235" lon="5.88448">
        <ele>938</ele>
        <time>2021-06-01T08:43:43.000Z</time>
      </trkpt>
      <trkpt lat="44.13235" lon="5.88448">
        <ele>938</ele>
        <time>2021-06-01T08:43:44.000Z</time>
      </trkpt>
      <trkpt lat="44.13235" lon="5.88448">
        <ele>938</ele>
        <time>2021-06-01T08:43:45.000Z</time>
      </trkpt>
      <trkpt lat="44.13235" lon="5.88448">
        <ele>938</ele>
        <time>2021-06-01T08:43:46.000Z</time>
      </trkpt>
      <trkpt lat="44.13235" lon="5.88448">
        <ele>938</ele>
        <time>2021-06-01T08:43:47.000Z</time>
      </trkpt>
      <trkpt lat="44.13235" lon="5.88448">
        <ele>938</ele>
        <time>2021-06-01T08:43:48.000Z</time>
      </trkpt>
      <trkpt lat="44.13235" lon="5.88448">
        <ele>938</ele>
        <time>2021-06-01T08:43:49.000Z</time>
      </trkpt>
      <trkpt lat="44.13235" lon="5.88448">
        <ele>938</ele>
        <time>2021-06-01T08:43:50.000Z</time>
      </trkpt>
      <trkpt lat="44.13235" lon="5.88448">
        <ele>938</ele>
        <time>2021-06-01T08:43:51.000Z</time>
      </trkpt>
      <trkpt lat="44.13235" lon="5.88448">
        <ele>938</ele>
        <time>2021-06-01T08:43:52.000Z</time>
      </trkpt>
      <trkpt lat="44.13235" lon="5.88448">
        <ele>938</ele>
        <time>2021-06-01T08:43:53.000Z</time>
      </trkpt>
      <trkpt lat="44.13235" lon="5.88448">
        <ele>938</ele>
        <time>2021-06-01T08:43:54.000Z</time>
      </trkpt>
      <trkpt lat="44.13234" lon="5.88448">
        <ele>938</ele>
        <time>2021-06-01T08:43:55.000Z</time>
      </trkpt>
      <trkpt lat="44.13234" lon="5.88448">
        <ele>938</ele>
        <time>2021-06-01T08:43:56.000Z</time>
      </trkpt>
      <trkpt lat="44.13234" lon="5.88448">
        <ele>939</ele>
        <time>2021-06-01T08:43:57.000Z</time>
      </trkpt>
      <trkpt lat="44.13234" lon="5.88448">
        <ele>939</ele>
        <time>2021-06-01T08:43:58.000Z</time>
      </trkpt>
      <trkpt lat="44.13234" lon="5.88448">
        <ele>939</ele>
        <time>2021-06-01T08:43:59.000Z</time>
      </trkpt>
      <trkpt lat="44.13234" lon="5.88448">
        <ele>939</ele>
        <time>2021-06-01T08:44:00.000Z</time>
      </trkpt>
      <trkpt lat="44.13234" lon="5.88448">
        <ele>939</ele>
        <time>2021-06-01T08:44:01.000Z</time>
      </trkpt>
      <trkpt lat="44.13234" lon="5.88448">
        <ele>939</ele>
        <time>2021-06-01T08:44:02.000Z</time>
      </trkpt>
      <trkpt lat="44.13234" lon="5.88447">
        <ele>940</ele>
        <time>2021-06-01T08:44:03.000Z</time>
      </trkpt>
      <trkpt lat="44.13234" lon="5.88447">
        <ele>940</ele>
        <time>2021-06-01T08:44:04.000Z</time>
      </trkpt>
      <trkpt lat="44.13234" lon="5.88447">
        <ele>940</ele>
        <time>2021-06-01T08:44:05.000Z</time>
      </trkpt>
      <trkpt lat="44.13235" lon="5.88447">
        <ele>940</ele>
        <time>2021-06-01T08:44:06.000Z</time>
      </trkpt>
      <trkpt lat="44.13235" lon="5.88446">
        <ele>940</ele>
        <time>2021-06-01T08:44:07.000Z</time>
      </trkpt>
      <trkpt lat="44.13235" lon="5.88446">
        <ele>941</ele>
        <time>2021-06-01T08:44:08.000Z</time>
      </trkpt>
      <trkpt lat="44.13235" lon="5.88446">
        <ele>941</ele>
        <time>2021-06-01T08:44:09.000Z</time>
      </trkpt>
      <trkpt lat="44.13235" lon="5.88446">
        <ele>941</ele>
        <time>2021-06-01T08:44:10.000Z</time>
      </trkpt>
      <trkpt lat="44.13235" lon="5.88446">
        <ele>941</ele>
        <time>2021-06-01T08:44:11.000Z</time>
      </trkpt>
      <trkpt lat="44.13235" lon="5.88446">
        <ele>941</ele>
        <time>2021-06-01T08:44:12.000Z</time>
      </trkpt>
      <trkpt lat="44.13235" lon="5.88446">
        <ele>941</ele>
        <time>2021-06-01T08:44:13.000Z</time>
      </trkpt>
      <trkpt lat="44.13235" lon="5.88446">
        <ele>941</ele>
        <time>2021-06-01T08:44:14.000Z</time>
      </trkpt>
      <trkpt lat="44.13235" lon="5.88445">
        <ele>941</ele>
        <time>2021-06-01T08:44:15.000Z</time>
      </trkpt>
      <trkpt lat="44.13235" lon="5.88446">
        <ele>942</ele>
        <time>2021-06-01T08:44:16.000Z</time>
      </trkpt>
      <trkpt lat="44.13235" lon="5.88446">
        <ele>942</ele>
        <time>2021-06-01T08:44:17.000Z</time>
      </trkpt>
      <trkpt lat="44.13235" lon="5.88446">
        <ele>942</ele>
        <time>2021-06-01T08:44:18.000Z</time>
      </trkpt>
      <trkpt lat="44.13235" lon="5.88446">
        <ele>942</ele>
        <time>2021-06-01T08:44:19.000Z</time>
      </trkpt>
      <trkpt lat="44.13236" lon="5.88446">
        <ele>942</ele>
        <time>2021-06-01T08:44:20.000Z</time>
      </trkpt>
      <trkpt lat="44.13236" lon="5.88447">
        <ele>942</ele>
        <time>2021-06-01T08:44:21.000Z</time>
      </trkpt>
      <trkpt lat="44.13236" lon="5.88447">
        <ele>942</ele>
        <time>2021-06-01T08:44:22.000Z</time>
      </trkpt>
      <trkpt lat="44.13237" lon="5.88448">
        <ele>942</ele>
        <time>2021-06-01T08:44:23.000Z</time>
      </trkpt>
      <trkpt lat="44.13237" lon="5.88448">
        <ele>943</ele>
        <time>2021-06-01T08:44:24.000Z</time>
      </trkpt>
      <trkpt lat="44.13237" lon="5.88448">
        <ele>943</ele>
        <time>2021-06-01T08:44:25.000Z</time>
      </trkpt>
      <trkpt lat="44.13237" lon="5.88448">
        <ele>943</ele>
        <time>2021-06-01T08:44:26.000Z</time>
      </trkpt>
      <trkpt lat="44.13237" lon="5.88448">
        <ele>943</ele>
        <time>2021-06-01T08:44:27.000Z</time>
      </trkpt>
      <trkpt lat="44.13237" lon="5.88448">
        <ele>943</ele>
        <time>2021-06-01T08:44:28.000Z</time>
      </trkpt>
      <trkpt lat="44.13237" lon="5.88448">
        <ele>943</ele>
        <time>2021-06-01T08:44:29.000Z</time>
      </trkpt>
      <trkpt lat="44.13237" lon="5.88448">
        <ele>943</ele>
        <time>2021-06-01T08:44:30.000Z</time>
      </trkpt>
      <trkpt lat="44.13237" lon="5.88448">
        <ele>943</ele>
        <time>2021-06-01T08:44:31.000Z</time>
      </trkpt>
      <trkpt lat="44.13237" lon="5.88448">
        <ele>943</ele>
        <time>2021-06-01T08:44:32.000Z</time>
      </trkpt>
      <trkpt lat="44.13237" lon="5.88448">
        <ele>943</ele>
        <time>2021-06-01T08:44:33.000Z</time>
      </trkpt>
      <trkpt lat="44.13237" lon="5.88449">
        <ele>943</ele>
        <time>2021-06-01T08:44:34.000Z</time>
      </trkpt>
      <trkpt lat="44.13237" lon="5.88449">
        <ele>943</ele>
        <time>2021-06-01T08:44:35.000Z</time>
      </trkpt>
      <trkpt lat="44.13237" lon="5.88449">
        <ele>943</ele>
        <time>2021-06-01T08:44:36.000Z</time>
      </trkpt>
      <trkpt lat="44.13237" lon="5.88449">
        <ele>943</ele>
        <time>2021-06-01T08:44:37.000Z</time>
      </trkpt>
      <trkpt lat="44.13237" lon="5.88449">
        <ele>943</ele>
        <time>2021-06-01T08:44:38.000Z</time>
      </trkpt>
      <trkpt lat="44.13237" lon="5.8845">
        <ele>943</ele>
        <time>2021-06-01T08:44:39.000Z</time>
      </trkpt>
      <trkpt lat="44.13237" lon="5.8845">
        <ele>943</ele>
        <time>2021-06-01T08:44:40.000Z</time>
      </trkpt>
      <trkpt lat="44.13237" lon="5.8845">
        <ele>943</ele>
        <time>2021-06-01T08:44:41.000Z</time>
      </trkpt>
      <trkpt lat="44.13237" lon="5.8845">
        <ele>943</ele>
        <time>2021-06-01T08:44:42.000Z</time>
      </trkpt>
      <trkpt lat="44.13237" lon="5.8845">
        <ele>944</ele>
        <time>2021-06-01T08:44:43.000Z</time>
      </trkpt>
      <trkpt lat="44.13237" lon="5.88451">
        <ele>944</ele>
        <time>2021-06-01T08:44:44.000Z</time>
      </trkpt>
      <trkpt lat="44.13238" lon="5.88452">
        <ele>944</ele>
        <time>2021-06-01T08:44:45.000Z</time>
      </trkpt>
      <trkpt lat="44.13238" lon="5.88452">
        <ele>944</ele>
        <time>2021-06-01T08:44:46.000Z</time>
      </trkpt>
      <trkpt lat="44.13238" lon="5.88453">
        <ele>944</ele>
        <time>2021-06-01T08:44:47.000Z</time>
      </trkpt>
      <trkpt lat="44.13238" lon="5.88453">
        <ele>944</ele>
        <time>2021-06-01T08:44:48.000Z</time>
      </trkpt>
      <trkpt lat="44.13238" lon="5.88453">
        <ele>944</ele>
        <time>2021-06-01T08:44:49.000Z</time>
      </trkpt>
      <trkpt lat="44.13238" lon="5.88453">
        <ele>944</ele>
        <time>2021-06-01T08:44:50.000Z</time>
      </trkpt>
      <trkpt lat="44.13238" lon="5.88453">
        <ele>944</ele>
        <time>2021-06-01T08:44:51.000Z</time>
      </trkpt>
      <trkpt lat="44.13238" lon="5.88453">
        <ele>944</ele>
        <time>2021-06-01T08:44:52.000Z</time>
      </trkpt>
      <trkpt lat="44.13238" lon="5.88453">
        <ele>944</ele>
        <time>2021-06-01T08:44:53.000Z</time>
      </trkpt>
      <trkpt lat="44.13238" lon="5.88453">
        <ele>944</ele>
        <time>2021-06-01T08:44:54.000Z</time>
      </trkpt>
      <trkpt lat="44.13238" lon="5.88453">
        <ele>944</ele>
        <time>2021-06-01T08:44:55.000Z</time>
      </trkpt>
      <trkpt lat="44.13238" lon="5.88453">
        <ele>945</ele>
        <time>2021-06-01T08:44:56.000Z</time>
      </trkpt>
      <trkpt lat="44.13238" lon="5.88453">
        <ele>945</ele>
        <time>2021-06-01T08:44:57.000Z</time>
      </trkpt>
      <trkpt lat="44.13238" lon="5.88453">
        <ele>945</ele>
        <time>2021-06-01T08:44:58.000Z</time>
      </trkpt>
      <trkpt lat="44.13238" lon="5.88453">
        <ele>945</ele>
        <time>2021-06-01T08:44:59.000Z</time>
      </trkpt>
      <trkpt lat="44.13237" lon="5.88453">
        <ele>945</ele>
        <time>2021-06-01T08:45:00.000Z</time>
      </trkpt>
      <trkpt lat="44.13237" lon="5.88454">
        <ele>945</ele>
        <time>2021-06-01T08:45:01.000Z</time>
      </trkpt>
      <trkpt lat="44.13237" lon="5.88454">
        <ele>945</ele>
        <time>2021-06-01T08:45:02.000Z</time>
      </trkpt>
      <trkpt lat="44.13237" lon="5.88454">
        <ele>945</ele>
        <time>2021-06-01T08:45:03.000Z</time>
      </trkpt>
      <trkpt lat="44.13237" lon="5.88454">
        <ele>945</ele>
        <time>2021-06-01T08:45:04.000Z</time>
      </trkpt>
      <trkpt lat="44.13237" lon="5.88454">
        <ele>945</ele>
        <time>2021-06-01T08:45:05.000Z</time>
      </trkpt>
      <trkpt lat="44.13237" lon="5.88454">
        <ele>945</ele>
        <time>2021-06-01T08:45:06.000Z</time>
      </trkpt>
      <trkpt lat="44.13237" lon="5.88454">
        <ele>945</ele>
        <time>2021-06-01T08:45:07.000Z</time>
      </trkpt>
      <trkpt lat="44.13237" lon="5.88454">
        <ele>945</ele>
        <time>2021-06-01T08:45:08.000Z</time>
      </trkpt>
      <trkpt lat="44.13237" lon="5.88454">
        <ele>945</ele>
        <time>2021-06-01T08:45:09.000Z</time>
      </trkpt>
      <trkpt lat="44.13237" lon="5.88454">
        <ele>945</ele>
        <time>2021-06-01T08:45:10.000Z</time>
      </trkpt>
      <trkpt lat="44.13237" lon="5.88454">
        <ele>945</ele>
        <time>2021-06-01T08:45:11.000Z</time>
      </trkpt>
      <trkpt lat="44.13237" lon="5.88454">
        <ele>945</ele>
        <time>2021-06-01T08:45:12.000Z</time>
      </trkpt>
      <trkpt lat="44.13236" lon="5.88454">
        <ele>945</ele>
        <time>2021-06-01T08:45:13.000Z</time>
      </trkpt>
      <trkpt lat="44.13236" lon="5.88454">
        <ele>945</ele>
        <time>2021-06-01T08:45:14.000Z</time>
      </trkpt>
      <trkpt lat="44.13236" lon="5.88454">
        <ele>945</ele>
        <time>2021-06-01T08:45:15.000Z</time>
      </trkpt>
      <trkpt lat="44.13236" lon="5.88454">
        <ele>945</ele>
        <time>2021-06-01T08:45:16.000Z</time>
      </trkpt>
      <trkpt lat="44.13236" lon="5.88454">
        <ele>945</ele>
        <time>2021-06-01T08:45:17.000Z</time>
      </trkpt>
      <trkpt lat="44.13236" lon="5.88454">
        <ele>945</ele>
        <time>2021-06-01T08:45:18.000Z</time>
      </trkpt>
      <trkpt lat="44.13236" lon="5.88454">
        <ele>945</ele>
        <time>2021-06-01T08:45:19.000Z</time>
      </trkpt>
      <trkpt lat="44.13236" lon="5.88455">
        <ele>946</ele>
        <time>2021-06-01T08:45:20.000Z</time>
      </trkpt>
      <trkpt lat="44.13236" lon="5.88455">
        <ele>946</ele>
        <time>2021-06-01T08:45:21.000Z</time>
      </trkpt>
      <trkpt lat="44.13236" lon="5.88456">
        <ele>946</ele>
        <time>2021-06-01T08:45:22.000Z</time>
      </trkpt>
      <trkpt lat="44.13235" lon="5.88456">
        <ele>946</ele>
        <time>2021-06-01T08:45:23.000Z</time>
      </trkpt>
      <trkpt lat="44.13235" lon="5.88456">
        <ele>946</ele>
        <time>2021-06-01T08:45:24.000Z</time>
      </trkpt>
      <trkpt lat="44.13235" lon="5.88457">
        <ele>946</ele>
        <time>2021-06-01T08:45:25.000Z</time>
      </trkpt>
      <trkpt lat="44.13235" lon="5.88457">
        <ele>946</ele>
        <time>2021-06-01T08:45:26.000Z</time>
      </trkpt>
      <trkpt lat="44.13235" lon="5.88458">
        <ele>946</ele>
        <time>2021-06-01T08:45:27.000Z</time>
      </trkpt>
      <trkpt lat="44.13235" lon="5.88458">
        <ele>947</ele>
        <time>2021-06-01T08:45:28.000Z</time>
      </trkpt>
      <trkpt lat="44.13235" lon="5.88459">
        <ele>947</ele>
        <time>2021-06-01T08:45:29.000Z</time>
      </trkpt>
      <trkpt lat="44.13235" lon="5.88459">
        <ele>947</ele>
        <time>2021-06-01T08:45:30.000Z</time>
      </trkpt>
      <trkpt lat="44.13235" lon="5.8846">
        <ele>947</ele>
        <time>2021-06-01T08:45:31.000Z</time>
      </trkpt>
      <trkpt lat="44.13235" lon="5.8846">
        <ele>947</ele>
        <time>2021-06-01T08:45:32.000Z</time>
      </trkpt>
      <trkpt lat="44.13235" lon="5.8846">
        <ele>948</ele>
        <time>2021-06-01T08:45:33.000Z</time>
      </trkpt>
      <trkpt lat="44.13235" lon="5.88461">
        <ele>948</ele>
        <time>2021-06-01T08:45:34.000Z</time>
      </trkpt>
      <trkpt lat="44.13234" lon="5.88461">
        <ele>948</ele>
        <time>2021-06-01T08:45:35.000Z</time>
      </trkpt>
      <trkpt lat="44.13234" lon="5.88461">
        <ele>948</ele>
        <time>2021-06-01T08:45:36.000Z</time>
      </trkpt>
      <trkpt lat="44.13233" lon="5.88461">
        <ele>949</ele>
        <time>2021-06-01T08:45:37.000Z</time>
      </trkpt>
      <trkpt lat="44.13233" lon="5.88461">
        <ele>949</ele>
        <time>2021-06-01T08:45:38.000Z</time>
      </trkpt>
      <trkpt lat="44.13233" lon="5.88461">
        <ele>949</ele>
        <time>2021-06-01T08:45:39.000Z</time>
      </trkpt>
      <trkpt lat="44.13233" lon="5.88461">
        <ele>949</ele>
        <time>2021-06-01T08:45:40.000Z</time>
      </trkpt>
      <trkpt lat="44.13233" lon="5.88461">
        <ele>949</ele>
        <time>2021-06-01T08:45:41.000Z</time>
      </trkpt>
      <trkpt lat="44.13232" lon="5.88461">
        <ele>950</ele>
        <time>2021-06-01T08:45:42.000Z</time>
      </trkpt>
      <trkpt lat="44.13232" lon="5.88462">
        <ele>950</ele>
        <time>2021-06-01T08:45:43.000Z</time>
      </trkpt>
      <trkpt lat="44.13232" lon="5.88462">
        <ele>950</ele>
        <time>2021-06-01T08:45:44.000Z</time>
      </trkpt>
      <trkpt lat="44.13232" lon="5.88463">
        <ele>950</ele>
        <time>2021-06-01T08:45:45.000Z</time>
      </trkpt>
      <trkpt lat="44.13232" lon="5.88463">
        <ele>951</ele>
        <time>2021-06-01T08:45:46.000Z</time>
      </trkpt>
      <trkpt lat="44.13231" lon="5.88463">
        <ele>951</ele>
        <time>2021-06-01T08:45:47.000Z</time>
      </trkpt>
      <trkpt lat="44.13231" lon="5.88463">
        <ele>951</ele>
        <time>2021-06-01T08:45:48.000Z</time>
      </trkpt>
      <trkpt lat="44.13231" lon="5.88463">
        <ele>952</ele>
        <time>2021-06-01T08:45:49.000Z</time>
      </trkpt>
      <trkpt lat="44.1323" lon="5.88464">
        <ele>952</ele>
        <time>2021-06-01T08:45:50.000Z</time>
      </trkpt>
      <trkpt lat="44.1323" lon="5.88464">
        <ele>952</ele>
        <time>2021-06-01T08:45:51.000Z</time>
      </trkpt>
      <trkpt lat="44.1323" lon="5.88463">
        <ele>952</ele>
        <time>2021-06-01T08:45:52.000Z</time>
      </trkpt>
      <trkpt lat="44.1323" lon="5.88463">
        <ele>953</ele>
        <time>2021-06-01T08:45:53.000Z</time>
      </trkpt>
      <trkpt lat="44.1323" lon="5.88463">
        <ele>953</ele>
        <time>2021-06-01T08:45:54.000Z</time>
      </trkpt>
      <trkpt lat="44.1323" lon="5.88463">
        <ele>953</ele>
        <time>2021-06-01T08:45:55.000Z</time>
      </trkpt>
      <trkpt lat="44.1323" lon="5.88463">
        <ele>953</ele>
        <time>2021-06-01T08:45:56.000Z</time>
      </trkpt>
      <trkpt lat="44.1323" lon="5.88463">
        <ele>953</ele>
        <time>2021-06-01T08:45:57.000Z</time>
      </trkpt>
      <trkpt lat="44.1323" lon="5.88463">
        <ele>953</ele>
        <time>2021-06-01T08:45:58.000Z</time>
      </trkpt>
      <trkpt lat="44.1323" lon="5.88463">
        <ele>953</ele>
        <time>2021-06-01T08:45:59.000Z</time>
      </trkpt>
      <trkpt lat="44.1323" lon="5.88463">
        <ele>953</ele>
        <time>2021-06-01T08:46:00.000Z</time>
      </trkpt>
      <trkpt lat="44.1323" lon="5.88463">
        <ele>954</ele>
        <time>2021-06-01T08:46:01.000Z</time>
      </trkpt>
      <trkpt lat="44.1323" lon="5.88463">
        <ele>954</ele>
        <time>2021-06-01T08:46:02.000Z</time>
      </trkpt>
      <trkpt lat="44.1323" lon="5.88463">
        <ele>954</ele>
        <time>2021-06-01T08:46:03.000Z</time>
      </trkpt>
      <trkpt lat="44.1323" lon="5.88463">
        <ele>954</ele>
        <time>2021-06-01T08:46:04.000Z</time>
      </trkpt>
      <trkpt lat="44.1323" lon="5.88463">
        <ele>954</ele>
        <time>2021-06-01T08:46:05.000Z</time>
      </trkpt>
      <trkpt lat="44.1323" lon="5.88463">
        <ele>954</ele>
        <time>2021-06-01T08:46:06.000Z</time>
      </trkpt>
      <trkpt lat="44.1323" lon="5.88463">
        <ele>954</ele>
        <time>2021-06-01T08:46:07.000Z</time>
      </trkpt>
      <trkpt lat="44.1323" lon="5.88463">
        <ele>954</ele>
        <time>2021-06-01T08:46:08.000Z</time>
      </trkpt>
      <trkpt lat="44.1323" lon="5.88463">
        <ele>954</ele>
        <time>2021-06-01T08:46:09.000Z</time>
      </trkpt>
      <trkpt lat="44.1323" lon="5.88463">
        <ele>954</ele>
        <time>2021-06-01T08:46:10.000Z</time>
      </trkpt>
      <trkpt lat="44.1323" lon="5.88463">
        <ele>954</ele>
        <time>2021-06-01T08:46:11.000Z</time>
      </trkpt>
      <trkpt lat="44.1323" lon="5.88463">
        <ele>954</ele>
        <time>2021-06-01T08:46:12.000Z</time>
      </trkpt>
      <trkpt lat="44.1323" lon="5.88463">
        <ele>954</ele>
        <time>2021-06-01T08:46:13.000Z</time>
      </trkpt>
      <trkpt lat="44.1323" lon="5.88463">
        <ele>954</ele>
        <time>2021-06-01T08:46:14.000Z</time>
      </trkpt>
      <trkpt lat="44.1323" lon="5.88463">
        <ele>954</ele>
        <time>2021-06-01T08:46:15.000Z</time>
      </trkpt>
      <trkpt lat="44.1323" lon="5.88463">
        <ele>954</ele>
        <time>2021-06-01T08:46:16.000Z</time>
      </trkpt>
      <trkpt lat="44.1323" lon="5.88463">
        <ele>954</ele>
        <time>2021-06-01T08:46:17.000Z</time>
      </trkpt>
      <trkpt lat="44.1323" lon="5.88463">
        <ele>954</ele>
        <time>2021-06-01T08:46:18.000Z</time>
      </trkpt>
      <trkpt lat="44.1323" lon="5.88463">
        <ele>954</ele>
        <time>2021-06-01T08:46:19.000Z</time>
      </trkpt>
      <trkpt lat="44.1323" lon="5.88463">
        <ele>954</ele>
        <time>2021-06-01T08:46:20.000Z</time>
      </trkpt>
      <trkpt lat="44.1323" lon="5.88463">
        <ele>954</ele>
        <time>2021-06-01T08:46:21.000Z</time>
      </trkpt>
      <trkpt lat="44.1323" lon="5.88463">
        <ele>954</ele>
        <time>2021-06-01T08:46:22.000Z</time>
      </trkpt>
      <trkpt lat="44.1323" lon="5.88463">
        <ele>955</ele>
        <time>2021-06-01T08:46:23.000Z</time>
      </trkpt>
      <trkpt lat="44.1323" lon="5.88463">
        <ele>955</ele>
        <time>2021-06-01T08:46:24.000Z</time>
      </trkpt>
      <trkpt lat="44.1323" lon="5.88463">
        <ele>955</ele>
        <time>2021-06-01T08:46:25.000Z</time>
      </trkpt>
      <trkpt lat="44.1323" lon="5.88463">
        <ele>955</ele>
        <time>2021-06-01T08:46:26.000Z</time>
      </trkpt>
      <trkpt lat="44.1323" lon="5.88463">
        <ele>955</ele>
        <time>2021-06-01T08:46:27.000Z</time>
      </trkpt>
      <trkpt lat="44.1323" lon="5.88463">
        <ele>955</ele>
        <time>2021-06-01T08:46:28.000Z</time>
      </trkpt>
      <trkpt lat="44.1323" lon="5.88463">
        <ele>955</ele>
        <time>2021-06-01T08:46:29.000Z</time>
      </trkpt>
      <trkpt lat="44.1323" lon="5.88463">
        <ele>955</ele>
        <time>2021-06-01T08:46:30.000Z</time>
      </trkpt>
      <trkpt lat="44.1323" lon="5.88463">
        <ele>955</ele>
        <time>2021-06-01T08:46:31.000Z</time>
      </trkpt>
      <trkpt lat="44.1323" lon="5.88463">
        <ele>955</ele>
        <time>2021-06-01T08:46:32.000Z</time>
      </trkpt>
      <trkpt lat="44.1323" lon="5.88463">
        <ele>955</ele>
        <time>2021-06-01T08:46:33.000Z</time>
      </trkpt>
      <trkpt lat="44.1323" lon="5.88463">
        <ele>955</ele>
        <time>2021-06-01T08:46:34.000Z</time>
      </trkpt>
      <trkpt lat="44.1323" lon="5.88463">
        <ele>955</ele>
        <time>2021-06-01T08:46:35.000Z</time>
      </trkpt>
      <trkpt lat="44.1323" lon="5.88463">
        <ele>955</ele>
        <time>2021-06-01T08:46:36.000Z</time>
      </trkpt>
      <trkpt lat="44.1323" lon="5.88463">
        <ele>955</ele>
        <time>2021-06-01T08:46:37.000Z</time>
      </trkpt>
      <trkpt lat="44.1323" lon="5.88463">
        <ele>955</ele>
        <time>2021-06-01T08:46:38.000Z</time>
      </trkpt>
      <trkpt lat="44.1323" lon="5.88463">
        <ele>955</ele>
        <time>2021-06-01T08:46:39.000Z</time>
      </trkpt>
      <trkpt lat="44.1323" lon="5.88463">
        <ele>955</ele>
        <time>2021-06-01T08:46:40.000Z</time>
      </trkpt>
      <trkpt lat="44.1323" lon="5.88463">
        <ele>955</ele>
        <time>2021-06-01T08:46:41.000Z</time>
      </trkpt>
      <trkpt lat="44.1323" lon="5.88463">
        <ele>955</ele>
        <time>2021-06-01T08:46:42.000Z</time>
      </trkpt>
      <trkpt lat="44.1323" lon="5.88463">
        <ele>955</ele>
        <time>2021-06-01T08:46:43.000Z</time>
      </trkpt>
      <trkpt lat="44.1323" lon="5.88463">
        <ele>955</ele>
        <time>2021-06-01T08:46:44.000Z</time>
      </trkpt>
      <trkpt lat="44.1323" lon="5.88463">
        <ele>955</ele>
        <time>2021-06-01T08:46:45.000Z</time>
      </trkpt>
      <trkpt lat="44.1323" lon="5.88463">
        <ele>955</ele>
        <time>2021-06-01T08:46:46.000Z</time>
      </trkpt>
      <trkpt lat="44.1323" lon="5.88463">
        <ele>955</ele>
        <time>2021-06-01T08:46:47.000Z</time>
      </trkpt>
      <trkpt lat="44.1323" lon="5.88463">
        <ele>955</ele>
        <time>2021-06-01T08:46:48.000Z</time>
      </trkpt>
      <trkpt lat="44.1323" lon="5.88463">
        <ele>955</ele>
        <time>2021-06-01T08:46:49.000Z</time>
      </trkpt>
      <trkpt lat="44.1323" lon="5.88463">
        <ele>955</ele>
        <time>2021-06-01T08:46:50.000Z</time>
      </trkpt>
      <trkpt lat="44.1323" lon="5.88463">
        <ele>955</ele>
        <time>2021-06-01T08:46:51.000Z</time>
      </trkpt>
      <trkpt lat="44.1323" lon="5.88463">
        <ele>955</ele>
        <time>2021-06-01T08:46:52.000Z</time>
      </trkpt>
      <trkpt lat="44.1323" lon="5.88463">
        <ele>955</ele>
        <time>2021-06-01T08:46:53.000Z</time>
      </trkpt>
      <trkpt lat="44.1323" lon="5.88463">
        <ele>955</ele>
        <time>2021-06-01T08:46:54.000Z</time>
      </trkpt>
      <trkpt lat="44.1323" lon="5.88463">
        <ele>955</ele>
        <time>2021-06-01T08:46:55.000Z</time>
      </trkpt>
      <trkpt lat="44.1323" lon="5.88463">
        <ele>955</ele>
        <time>2021-06-01T08:46:56.000Z</time>
      </trkpt>
      <trkpt lat="44.1323" lon="5.88463">
        <ele>955</ele>
        <time>2021-06-01T08:46:57.000Z</time>
      </trkpt>
      <trkpt lat="44.1323" lon="5.88463">
        <ele>955</ele>
        <time>2021-06-01T08:46:58.000Z</time>
      </trkpt>
      <trkpt lat="44.1323" lon="5.88463">
        <ele>955</ele>
        <time>2021-06-01T08:46:59.000Z</time>
      </trkpt>
      <trkpt lat="44.1323" lon="5.88463">
        <ele>955</ele>
        <time>2021-06-01T08:47:00.000Z</time>
      </trkpt>
      <trkpt lat="44.1323" lon="5.88463">
        <ele>955</ele>
        <time>2021-06-01T08:47:01.000Z</time>
      </trkpt>
      <trkpt lat="44.1323" lon="5.88463">
        <ele>955</ele>
        <time>2021-06-01T08:47:02.000Z</time>
      </trkpt>
      <trkpt lat="44.1323" lon="5.88463">
        <ele>955</ele>
        <time>2021-06-01T08:47:03.000Z</time>
      </trkpt>
      <trkpt lat="44.1323" lon="5.88463">
        <ele>955</ele>
        <time>2021-06-01T08:47:04.000Z</time>
      </trkpt>
      <trkpt lat="44.1323" lon="5.88463">
        <ele>955</ele>
        <time>2021-06-01T08:47:05.000Z</time>
      </trkpt>
      <trkpt lat="44.1323" lon="5.88463">
        <ele>955</ele>
        <time>2021-06-01T08:47:06.000Z</time>
      </trkpt>
      <trkpt lat="44.1323" lon="5.88463">
        <ele>955</ele>
        <time>2021-06-01T08:47:07.000Z</time>
      </trkpt>
      <trkpt lat="44.1323" lon="5.88463">
        <ele>955</ele>
        <time>2021-06-01T08:47:08.000Z</time>
      </trkpt>
      <trkpt lat="44.1323" lon="5.88463">
        <ele>955</ele>
        <time>2021-06-01T08:47:09.000Z</time>
      </trkpt>
      <trkpt lat="44.1323" lon="5.88463">
        <ele>955</ele>
        <time>2021-06-01T08:47:10.000Z</time>
      </trkpt>
      <trkpt lat="44.1323" lon="5.88463">
        <ele>955</ele>
        <time>2021-06-01T08:47:11.000Z</time>
      </trkpt>
      <trkpt lat="44.1323" lon="5.88463">
        <ele>955</ele>
        <time>2021-06-01T08:47:12.000Z</time>
      </trkpt>
      <trkpt lat="44.1323" lon="5.88463">
        <ele>955</ele>
        <time>2021-06-01T08:47:13.000Z</time>
      </trkpt>
      <trkpt lat="44.1323" lon="5.88463">
        <ele>955</ele>
        <time>2021-06-01T08:47:14.000Z</time>
      </trkpt>
      <trkpt lat="44.1323" lon="5.88463">
        <ele>955</ele>
        <time>2021-06-01T08:47:15.000Z</time>
      </trkpt>
      <trkpt lat="44.1323" lon="5.88463">
        <ele>955</ele>
        <time>2021-06-01T08:47:16.000Z</time>
      </trkpt>
      <trkpt lat="44.1323" lon="5.88463">
        <ele>955</ele>
        <time>2021-06-01T08:47:17.000Z</time>
      </trkpt>
      <trkpt lat="44.1323" lon="5.88463">
        <ele>955</ele>
        <time>2021-06-01T08:47:18.000Z</time>
      </trkpt>
      <trkpt lat="44.1323" lon="5.88463">
        <ele>955</ele>
        <time>2021-06-01T08:47:19.000Z</time>
      </trkpt>
      <trkpt lat="44.1323" lon="5.88463">
        <ele>955</ele>
        <time>2021-06-01T08:47:20.000Z</time>
      </trkpt>
      <trkpt lat="44.1323" lon="5.88463">
        <ele>955</ele>
        <time>2021-06-01T08:47:21.000Z</time>
      </trkpt>
      <trkpt lat="44.1323" lon="5.88463">
        <ele>955</ele>
        <time>2021-06-01T08:47:22.000Z</time>
      </trkpt>
      <trkpt lat="44.1323" lon="5.88463">
        <ele>955</ele>
        <time>2021-06-01T08:47:23.000Z</time>
      </trkpt>
      <trkpt lat="44.1323" lon="5.88463">
        <ele>955</ele>
        <time>2021-06-01T08:47:24.000Z</time>
      </trkpt>
      <trkpt lat="44.1323" lon="5.88463">
        <ele>955</ele>
        <time>2021-06-01T08:47:25.000Z</time>
      </trkpt>
      <trkpt lat="44.1323" lon="5.88463">
        <ele>955</ele>
        <time>2021-06-01T08:47:26.000Z</time>
      </trkpt>
      <trkpt lat="44.1323" lon="5.88463">
        <ele>955</ele>
        <time>2021-06-01T08:47:27.000Z</time>
      </trkpt>
      <trkpt lat="44.1323" lon="5.88463">
        <ele>955</ele>
        <time>2021-06-01T08:47:28.000Z</time>
      </trkpt>
      <trkpt lat="44.1323" lon="5.88463">
        <ele>955</ele>
        <time>2021-06-01T08:47:29.000Z</time>
      </trkpt>
      <trkpt lat="44.1323" lon="5.88463">
        <ele>955</ele>
        <time>2021-06-01T08:47:30.000Z</time>
      </trkpt>
      <trkpt lat="44.1323" lon="5.88463">
        <ele>955</ele>
        <time>2021-06-01T08:47:31.000Z</time>
      </trkpt>
      <trkpt lat="44.1323" lon="5.88463">
        <ele>955</ele>
        <time>2021-06-01T08:47:32.000Z</time>
      </trkpt>
      <trkpt lat="44.1323" lon="5.88463">
        <ele>955</ele>
        <time>2021-06-01T08:47:33.000Z</time>
      </trkpt>
      <trkpt lat="44.1323" lon="5.88463">
        <ele>955</ele>
        <time>2021-06-01T08:47:34.000Z</time>
      </trkpt>
      <trkpt lat="44.1323" lon="5.88463">
        <ele>955</ele>
        <time>2021-06-01T08:47:35.000Z</time>
      </trkpt>
      <trkpt lat="44.1323" lon="5.88463">
        <ele>955</ele>
        <time>2021-06-01T08:47:36.000Z</time>
      </trkpt>
      <trkpt lat="44.1323" lon="5.88463">
        <ele>955</ele>
        <time>2021-06-01T08:47:37.000Z</time>
      </trkpt>
      <trkpt lat="44.1323" lon="5.88463">
        <ele>956</ele>
        <time>2021-06-01T08:47:38.000Z</time>
      </trkpt>
      <trkpt lat="44.1323" lon="5.88463">
        <ele>956</ele>
        <time>2021-06-01T08:47:39.000Z</time>
      </trkpt>
      <trkpt lat="44.1323" lon="5.88463">
        <ele>956</ele>
        <time>2021-06-01T08:47:40.000Z</time>
      </trkpt>
      <trkpt lat="44.1323" lon="5.88463">
        <ele>956</ele>
        <time>2021-06-01T08:47:41.000Z</time>
      </trkpt>
      <trkpt lat="44.1323" lon="5.88463">
        <ele>956</ele>
        <time>2021-06-01T08:47:42.000Z</time>
      </trkpt>
      <trkpt lat="44.1323" lon="5.88463">
        <ele>956</ele>
        <time>2021-06-01T08:47:43.000Z</time>
      </trkpt>
      <trkpt lat="44.1323" lon="5.88463">
        <ele>956</ele>
        <time>2021-06-01T08:47:44.000Z</time>
      </trkpt>
      <trkpt lat="44.1323" lon="5.88463">
        <ele>956</ele>
        <time>2021-06-01T08:47:45.000Z</time>
      </trkpt>
      <trkpt lat="44.1323" lon="5.88463">
        <ele>956</ele>
        <time>2021-06-01T08:47:46.000Z</time>
      </trkpt>
      <trkpt lat="44.1323" lon="5.88463">
        <ele>956</ele>
        <time>2021-06-01T08:47:47.000Z</time>
      </trkpt>
      <trkpt lat="44.1323" lon="5.88463">
        <ele>956</ele>
        <time>2021-06-01T08:47:48.000Z</time>
      </trkpt>
      <trkpt lat="44.1323" lon="5.88463">
        <ele>956</ele>
        <time>2021-06-01T08:47:49.000Z</time>
      </trkpt>
      <trkpt lat="44.1323" lon="5.88463">
        <ele>956</ele>
        <time>2021-06-01T08:47:50.000Z</time>
      </trkpt>
      <trkpt lat="44.1323" lon="5.88463">
        <ele>956</ele>
        <time>2021-06-01T08:47:51.000Z</time>
      </trkpt>
      <trkpt lat="44.1323" lon="5.88463">
        <ele>956</ele>
        <time>2021-06-01T08:47:52.000Z</time>
      </trkpt>
      <trkpt lat="44.1323" lon="5.88463">
        <ele>956</ele>
        <time>2021-06-01T08:47:53.000Z</time>
      </trkpt>
      <trkpt lat="44.1323" lon="5.88463">
        <ele>956</ele>
        <time>2021-06-01T08:47:54.000Z</time>
      </trkpt>
      <trkpt lat="44.1323" lon="5.88463">
        <ele>956</ele>
        <time>2021-06-01T08:47:55.000Z</time>
      </trkpt>
      <trkpt lat="44.1323" lon="5.88463">
        <ele>956</ele>
        <time>2021-06-01T08:47:56.000Z</time>
      </trkpt>
      <trkpt lat="44.1323" lon="5.88463">
        <ele>956</ele>
        <time>2021-06-01T08:47:57.000Z</time>
      </trkpt>
      <trkpt lat="44.1323" lon="5.88463">
        <ele>956</ele>
        <time>2021-06-01T08:47:58.000Z</time>
      </trkpt>
      <trkpt lat="44.1323" lon="5.88463">
        <ele>956</ele>
        <time>2021-06-01T08:47:59.000Z</time>
      </trkpt>
      <trkpt lat="44.1323" lon="5.88463">
        <ele>956</ele>
        <time>2021-06-01T08:48:00.000Z</time>
      </trkpt>
      <trkpt lat="44.1323" lon="5.88463">
        <ele>956</ele>
        <time>2021-06-01T08:48:01.000Z</time>
      </trkpt>
      <trkpt lat="44.1323" lon="5.88463">
        <ele>956</ele>
        <time>2021-06-01T08:48:02.000Z</time>
      </trkpt>
      <trkpt lat="44.1323" lon="5.88463">
        <ele>956</ele>
        <time>2021-06-01T08:48:03.000Z</time>
      </trkpt>
      <trkpt lat="44.1323" lon="5.88463">
        <ele>956</ele>
        <time>2021-06-01T08:48:04.000Z</time>
      </trkpt>
      <trkpt lat="44.1323" lon="5.88463">
        <ele>956</ele>
        <time>2021-06-01T08:48:05.000Z</time>
      </trkpt>
      <trkpt lat="44.1323" lon="5.88463">
        <ele>956</ele>
        <time>2021-06-01T08:48:06.000Z</time>
      </trkpt>
      <trkpt lat="44.1323" lon="5.88463">
        <ele>956</ele>
        <time>2021-06-01T08:48:07.000Z</time>
      </trkpt>
      <trkpt lat="44.1323" lon="5.88463">
        <ele>956</ele>
        <time>2021-06-01T08:48:08.000Z</time>
      </trkpt>
      <trkpt lat="44.1323" lon="5.88463">
        <ele>956</ele>
        <time>2021-06-01T08:48:09.000Z</time>
      </trkpt>
      <trkpt lat="44.1323" lon="5.88463">
        <ele>956</ele>
        <time>2021-06-01T08:48:10.000Z</time>
      </trkpt>
      <trkpt lat="44.1323" lon="5.88463">
        <ele>956</ele>
        <time>2021-06-01T08:48:11.000Z</time>
      </trkpt>
      <trkpt lat="44.1323" lon="5.88463">
        <ele>956</ele>
        <time>2021-06-01T08:48:12.000Z</time>
      </trkpt>
      <trkpt lat="44.1323" lon="5.88463">
        <ele>956</ele>
        <time>2021-06-01T08:48:13.000Z</time>
      </trkpt>
      <trkpt lat="44.1323" lon="5.88463">
        <ele>956</ele>
        <time>2021-06-01T08:48:14.000Z</time>
      </trkpt>
      <trkpt lat="44.1323" lon="5.88463">
        <ele>956</ele>
        <time>2021-06-01T08:48:15.000Z</time>
      </trkpt>
      <trkpt lat="44.1323" lon="5.88463">
        <ele>956</ele>
        <time>2021-06-01T08:48:16.000Z</time>
      </trkpt>
      <trkpt lat="44.1323" lon="5.88463">
        <ele>956</ele>
        <time>2021-06-01T08:48:17.000Z</time>
      </trkpt>
      <trkpt lat="44.1323" lon="5.88463">
        <ele>956</ele>
        <time>2021-06-01T08:48:18.000Z</time>
      </trkpt>
      <trkpt lat="44.1323" lon="5.88463">
        <ele>956</ele>
        <time>2021-06-01T08:48:19.000Z</time>
      </trkpt>
      <trkpt lat="44.1323" lon="5.88463">
        <ele>956</ele>
        <time>2021-06-01T08:48:20.000Z</time>
      </trkpt>
      <trkpt lat="44.1323" lon="5.88463">
        <ele>956</ele>
        <time>2021-06-01T08:48:21.000Z</time>
      </trkpt>
      <trkpt lat="44.1323" lon="5.88463">
        <ele>956</ele>
        <time>2021-06-01T08:48:22.000Z</time>
      </trkpt>
      <trkpt lat="44.1323" lon="5.88463">
        <ele>956</ele>
        <time>2021-06-01T08:48:23.000Z</time>
      </trkpt>
      <trkpt lat="44.1323" lon="5.88463">
        <ele>956</ele>
        <time>2021-06-01T08:48:24.000Z</time>
      </trkpt>
      <trkpt lat="44.1323" lon="5.88463">
        <ele>956</ele>
        <time>2021-06-01T08:48:25.000Z</time>
      </trkpt>
      <trkpt lat="44.1323" lon="5.88463">
        <ele>956</ele>
        <time>2021-06-01T08:48:26.000Z</time>
      </trkpt>
      <trkpt lat="44.1323" lon="5.88463">
        <ele>956</ele>
        <time>2021-06-01T08:48:27.000Z</time>
      </trkpt>
      <trkpt lat="44.1323" lon="5.88463">
        <ele>956</ele>
        <time>2021-06-01T08:48:28.000Z</time>
      </trkpt>
      <trkpt lat="44.1323" lon="5.88463">
        <ele>957</ele>
        <time>2021-06-01T08:48:29.000Z</time>
      </trkpt>
      <trkpt lat="44.1323" lon="5.88463">
        <ele>957</ele>
        <time>2021-06-01T08:48:30.000Z</time>
      </trkpt>
      <trkpt lat="44.1323" lon="5.88463">
        <ele>957</ele>
        <time>2021-06-01T08:48:31.000Z</time>
      </trkpt>
      <trkpt lat="44.1323" lon="5.88462">
        <ele>957</ele>
        <time>2021-06-01T08:48:32.000Z</time>
      </trkpt>
      <trkpt lat="44.1323" lon="5.88462">
        <ele>957</ele>
        <time>2021-06-01T08:48:33.000Z</time>
      </trkpt>
      <trkpt lat="44.1323" lon="5.88462">
        <ele>957</ele>
        <time>2021-06-01T08:48:34.000Z</time>
      </trkpt>
      <trkpt lat="44.1323" lon="5.88462">
        <ele>957</ele>
        <time>2021-06-01T08:48:35.000Z</time>
      </trkpt>
      <trkpt lat="44.13229" lon="5.88462">
        <ele>957</ele>
        <time>2021-06-01T08:48:36.000Z</time>
      </trkpt>
      <trkpt lat="44.13229" lon="5.88462">
        <ele>957</ele>
        <time>2021-06-01T08:48:37.000Z</time>
      </trkpt>
      <trkpt lat="44.13229" lon="5.88462">
        <ele>957</ele>
        <time>2021-06-01T08:48:38.000Z</time>
      </trkpt>
      <trkpt lat="44.13229" lon="5.88462">
        <ele>957</ele>
        <time>2021-06-01T08:48:39.000Z</time>
      </trkpt>
      <trkpt lat="44.13229" lon="5.88462">
        <ele>957</ele>
        <time>2021-06-01T08:48:40.000Z</time>
      </trkpt>
      <trkpt lat="44.13229" lon="5.88462">
        <ele>957</ele>
        <time>2021-06-01T08:48:41.000Z</time>
      </trkpt>
      <trkpt lat="44.13229" lon="5.88462">
        <ele>957</ele>
        <time>2021-06-01T08:48:42.000Z</time>
      </trkpt>
      <trkpt lat="44.13229" lon="5.88462">
        <ele>957</ele>
        <time>2021-06-01T08:48:43.000Z</time>
      </trkpt>
      <trkpt lat="44.13229" lon="5.88462">
        <ele>957</ele>
        <time>2021-06-01T08:48:44.000Z</time>
      </trkpt>
      <trkpt lat="44.13229" lon="5.88462">
        <ele>957</ele>
        <time>2021-06-01T08:48:45.000Z</time>
      </trkpt>
      <trkpt lat="44.13229" lon="5.88462">
        <ele>957</ele>
        <time>2021-06-01T08:48:46.000Z</time>
      </trkpt>
      <trkpt lat="44.13229" lon="5.88462">
        <ele>957</ele>
        <time>2021-06-01T08:48:47.000Z</time>
      </trkpt>
      <trkpt lat="44.1323" lon="5.88462">
        <ele>957</ele>
        <time>2021-06-01T08:48:48.000Z</time>
      </trkpt>
      <trkpt lat="44.1323" lon="5.88462">
        <ele>957</ele>
        <time>2021-06-01T08:48:49.000Z</time>
      </trkpt>
      <trkpt lat="44.1323" lon="5.88462">
        <ele>957</ele>
        <time>2021-06-01T08:48:50.000Z</time>
      </trkpt>
      <trkpt lat="44.1323" lon="5.88462">
        <ele>957</ele>
        <time>2021-06-01T08:48:51.000Z</time>
      </trkpt>
      <trkpt lat="44.1323" lon="5.88462">
        <ele>957</ele>
        <time>2021-06-01T08:48:52.000Z</time>
      </trkpt>
      <trkpt lat="44.13229" lon="5.88462">
        <ele>957</ele>
        <time>2021-06-01T08:48:53.000Z</time>
      </trkpt>
      <trkpt lat="44.13229" lon="5.88462">
        <ele>957</ele>
        <time>2021-06-01T08:48:54.000Z</time>
      </trkpt>
      <trkpt lat="44.1323" lon="5.88462">
        <ele>957</ele>
        <time>2021-06-01T08:48:55.000Z</time>
      </trkpt>
      <trkpt lat="44.13229" lon="5.88462">
        <ele>957</ele>
        <time>2021-06-01T08:48:56.000Z</time>
      </trkpt>
      <trkpt lat="44.13229" lon="5.88462">
        <ele>957</ele>
        <time>2021-06-01T08:48:57.000Z</time>
      </trkpt>
      <trkpt lat="44.13229" lon="5.88462">
        <ele>957</ele>
        <time>2021-06-01T08:48:58.000Z</time>
      </trkpt>
      <trkpt lat="44.13229" lon="5.88462">
        <ele>957</ele>
        <time>2021-06-01T08:48:59.000Z</time>
      </trkpt>
      <trkpt lat="44.13229" lon="5.88462">
        <ele>957</ele>
        <time>2021-06-01T08:49:00.000Z</time>
      </trkpt>
      <trkpt lat="44.13229" lon="5.88462">
        <ele>957</ele>
        <time>2021-06-01T08:49:01.000Z</time>
      </trkpt>
      <trkpt lat="44.13229" lon="5.88462">
        <ele>957</ele>
        <time>2021-06-01T08:49:02.000Z</time>
      </trkpt>
      <trkpt lat="44.13229" lon="5.88462">
        <ele>957</ele>
        <time>2021-06-01T08:49:03.000Z</time>
      </trkpt>
      <trkpt lat="44.13229" lon="5.88461">
        <ele>957</ele>
        <time>2021-06-01T08:49:04.000Z</time>
      </trkpt>
      <trkpt lat="44.13229" lon="5.88461">
        <ele>957</ele>
        <time>2021-06-01T08:49:05.000Z</time>
      </trkpt>
      <trkpt lat="44.13229" lon="5.8846">
        <ele>957</ele>
        <time>2021-06-01T08:49:06.000Z</time>
      </trkpt>
      <trkpt lat="44.13229" lon="5.8846">
        <ele>957</ele>
        <time>2021-06-01T08:49:07.000Z</time>
      </trkpt>
      <trkpt lat="44.13229" lon="5.8846">
        <ele>957</ele>
        <time>2021-06-01T08:49:08.000Z</time>
      </trkpt>
      <trkpt lat="44.13229" lon="5.8846">
        <ele>957</ele>
        <time>2021-06-01T08:49:09.000Z</time>
      </trkpt>
      <trkpt lat="44.13229" lon="5.8846">
        <ele>957</ele>
        <time>2021-06-01T08:49:10.000Z</time>
      </trkpt>
      <trkpt lat="44.13229" lon="5.8846">
        <ele>957</ele>
        <time>2021-06-01T08:49:11.000Z</time>
      </trkpt>
      <trkpt lat="44.13229" lon="5.8846">
        <ele>957</ele>
        <time>2021-06-01T08:49:12.000Z</time>
      </trkpt>
      <trkpt lat="44.13229" lon="5.8846">
        <ele>957</ele>
        <time>2021-06-01T08:49:13.000Z</time>
      </trkpt>
      <trkpt lat="44.13229" lon="5.8846">
        <ele>957</ele>
        <time>2021-06-01T08:49:14.000Z</time>
      </trkpt>
      <trkpt lat="44.13229" lon="5.8846">
        <ele>957</ele>
        <time>2021-06-01T08:49:15.000Z</time>
      </trkpt>
      <trkpt lat="44.13229" lon="5.8846">
        <ele>957</ele>
        <time>2021-06-01T08:49:16.000Z</time>
      </trkpt>
      <trkpt lat="44.13229" lon="5.8846">
        <ele>957</ele>
        <time>2021-06-01T08:49:17.000Z</time>
      </trkpt>
      <trkpt lat="44.13229" lon="5.8846">
        <ele>957</ele>
        <time>2021-06-01T08:49:18.000Z</time>
      </trkpt>
      <trkpt lat="44.13229" lon="5.88459">
        <ele>957</ele>
        <time>2021-06-01T08:49:19.000Z</time>
      </trkpt>
      <trkpt lat="44.13229" lon="5.88459">
        <ele>957</ele>
        <time>2021-06-01T08:49:20.000Z</time>
      </trkpt>
      <trkpt lat="44.13229" lon="5.88459">
        <ele>957</ele>
        <time>2021-06-01T08:49:21.000Z</time>
      </trkpt>
      <trkpt lat="44.13229" lon="5.88459">
        <ele>957</ele>
        <time>2021-06-01T08:49:22.000Z</time>
      </trkpt>
      <trkpt lat="44.13229" lon="5.88459">
        <ele>957</ele>
        <time>2021-06-01T08:49:23.000Z</time>
      </trkpt>
      <trkpt lat="44.13229" lon="5.88459">
        <ele>957</ele>
        <time>2021-06-01T08:49:24.000Z</time>
      </trkpt>
      <trkpt lat="44.13229" lon="5.88459">
        <ele>957</ele>
        <time>2021-06-01T08:49:25.000Z</time>
      </trkpt>
      <trkpt lat="44.13229" lon="5.88459">
        <ele>957</ele>
        <time>2021-06-01T08:49:26.000Z</time>
      </trkpt>
      <trkpt lat="44.13229" lon="5.88459">
        <ele>957</ele>
        <time>2021-06-01T08:49:27.000Z</time>
      </trkpt>
      <trkpt lat="44.13229" lon="5.88459">
        <ele>957</ele>
        <time>2021-06-01T08:49:28.000Z</time>
      </trkpt>
      <trkpt lat="44.13229" lon="5.88459">
        <ele>957</ele>
        <time>2021-06-01T08:49:29.000Z</time>
      </trkpt>
      <trkpt lat="44.13229" lon="5.88459">
        <ele>957</ele>
        <time>2021-06-01T08:49:30.000Z</time>
      </trkpt>
      <trkpt lat="44.13229" lon="5.88459">
        <ele>957</ele>
        <time>2021-06-01T08:49:31.000Z</time>
      </trkpt>
      <trkpt lat="44.13229" lon="5.88459">
        <ele>957</ele>
        <time>2021-06-01T08:49:32.000Z</time>
      </trkpt>
      <trkpt lat="44.13229" lon="5.88459">
        <ele>957</ele>
        <time>2021-06-01T08:49:33.000Z</time>
      </trkpt>
      <trkpt lat="44.13229" lon="5.88459">
        <ele>957</ele>
        <time>2021-06-01T08:49:34.000Z</time>
      </trkpt>
      <trkpt lat="44.13229" lon="5.88459">
        <ele>957</ele>
        <time>2021-06-01T08:49:35.000Z</time>
      </trkpt>
      <trkpt lat="44.13229" lon="5.88459">
        <ele>957</ele>
        <time>2021-06-01T08:49:36.000Z</time>
      </trkpt>
      <trkpt lat="44.13229" lon="5.88459">
        <ele>957</ele>
        <time>2021-06-01T08:49:37.000Z</time>
      </trkpt>
      <trkpt lat="44.13229" lon="5.88459">
        <ele>957</ele>
        <time>2021-06-01T08:49:38.000Z</time>
      </trkpt>
      <trkpt lat="44.13229" lon="5.88459">
        <ele>957</ele>
        <time>2021-06-01T08:49:39.000Z</time>
      </trkpt>
      <trkpt lat="44.13229" lon="5.88459">
        <ele>957</ele>
        <time>2021-06-01T08:49:40.000Z</time>
      </trkpt>
      <trkpt lat="44.13229" lon="5.88459">
        <ele>957</ele>
        <time>2021-06-01T08:49:41.000Z</time>
      </trkpt>
      <trkpt lat="44.13229" lon="5.88459">
        <ele>957</ele>
        <time>2021-06-01T08:49:42.000Z</time>
      </trkpt>
      <trkpt lat="44.13229" lon="5.88459">
        <ele>957</ele>
        <time>2021-06-01T08:49:43.000Z</time>
      </trkpt>
      <trkpt lat="44.13229" lon="5.88459">
        <ele>957</ele>
        <time>2021-06-01T08:49:44.000Z</time>
      </trkpt>
      <trkpt lat="44.13229" lon="5.88459">
        <ele>957</ele>
        <time>2021-06-01T08:49:45.000Z</time>
      </trkpt>
      <trkpt lat="44.13229" lon="5.88459">
        <ele>957</ele>
        <time>2021-06-01T08:49:46.000Z</time>
      </trkpt>
      <trkpt lat="44.13229" lon="5.88459">
        <ele>957</ele>
        <time>2021-06-01T08:49:47.000Z</time>
      </trkpt>
      <trkpt lat="44.13229" lon="5.88459">
        <ele>957</ele>
        <time>2021-06-01T08:49:48.000Z</time>
      </trkpt>
      <trkpt lat="44.13229" lon="5.88459">
        <ele>957</ele>
        <time>2021-06-01T08:49:49.000Z</time>
      </trkpt>
      <trkpt lat="44.13229" lon="5.88459">
        <ele>957</ele>
        <time>2021-06-01T08:49:50.000Z</time>
      </trkpt>
      <trkpt lat="44.13229" lon="5.88459">
        <ele>957</ele>
        <time>2021-06-01T08:49:51.000Z</time>
      </trkpt>
      <trkpt lat="44.13229" lon="5.88459">
        <ele>957</ele>
        <time>2021-06-01T08:49:52.000Z</time>
      </trkpt>
      <trkpt lat="44.13229" lon="5.88459">
        <ele>957</ele>
        <time>2021-06-01T08:49:53.000Z</time>
      </trkpt>
      <trkpt lat="44.13229" lon="5.88459">
        <ele>957</ele>
        <time>2021-06-01T08:49:54.000Z</time>
      </trkpt>
      <trkpt lat="44.13229" lon="5.88459">
        <ele>957</ele>
        <time>2021-06-01T08:49:55.000Z</time>
      </trkpt>
      <trkpt lat="44.13229" lon="5.88459">
        <ele>957</ele>
        <time>2021-06-01T08:49:56.000Z</time>
      </trkpt>
      <trkpt lat="44.13229" lon="5.88459">
        <ele>957</ele>
        <time>2021-06-01T08:49:57.000Z</time>
      </trkpt>
      <trkpt lat="44.13229" lon="5.88459">
        <ele>957</ele>
        <time>2021-06-01T08:49:58.000Z</time>
      </trkpt>
      <trkpt lat="44.13229" lon="5.88459">
        <ele>957</ele>
        <time>2021-06-01T08:49:59.000Z</time>
      </trkpt>
      <trkpt lat="44.13229" lon="5.88459">
        <ele>957</ele>
        <time>2021-06-01T08:50:00.000Z</time>
      </trkpt>
      <trkpt lat="44.13229" lon="5.8846">
        <ele>957</ele>
        <time>2021-06-01T08:50:01.000Z</time>
      </trkpt>
      <trkpt lat="44.13229" lon="5.8846">
        <ele>957</ele>
        <time>2021-06-01T08:50:02.000Z</time>
      </trkpt>
      <trkpt lat="44.13229" lon="5.8846">
        <ele>957</ele>
        <time>2021-06-01T08:50:03.000Z</time>
      </trkpt>
      <trkpt lat="44.13229" lon="5.8846">
        <ele>957</ele>
        <time>2021-06-01T08:50:04.000Z</time>
      </trkpt>
      <trkpt lat="44.13229" lon="5.8846">
        <ele>957</ele>
        <time>2021-06-01T08:50:05.000Z</time>
      </trkpt>
      <trkpt lat="44.13229" lon="5.8846">
        <ele>957</ele>
        <time>2021-06-01T08:50:06.000Z</time>
      </trkpt>
      <trkpt lat="44.13229" lon="5.8846">
        <ele>957</ele>
        <time>2021-06-01T08:50:07.000Z</time>
      </trkpt>
      <trkpt lat="44.13229" lon="5.8846">
        <ele>957</ele>
        <time>2021-06-01T08:50:08.000Z</time>
      </trkpt>
      <trkpt lat="44.13229" lon="5.8846">
        <ele>957</ele>
        <time>2021-06-01T08:50:09.000Z</time>
      </trkpt>
      <trkpt lat="44.13229" lon="5.8846">
        <ele>957</ele>
        <time>2021-06-01T08:50:10.000Z</time>
      </trkpt>
      <trkpt lat="44.13229" lon="5.8846">
        <ele>957</ele>
        <time>2021-06-01T08:50:11.000Z</time>
      </trkpt>
      <trkpt lat="44.13229" lon="5.8846">
        <ele>957</ele>
        <time>2021-06-01T08:50:12.000Z</time>
      </trkpt>
      <trkpt lat="44.13229" lon="5.8846">
        <ele>957</ele>
        <time>2021-06-01T08:50:13.000Z</time>
      </trkpt>
      <trkpt lat="44.13229" lon="5.8846">
        <ele>957</ele>
        <time>2021-06-01T08:50:14.000Z</time>
      </trkpt>
      <trkpt lat="44.13229" lon="5.8846">
        <ele>957</ele>
        <time>2021-06-01T08:50:15.000Z</time>
      </trkpt>
      <trkpt lat="44.13229" lon="5.8846">
        <ele>957</ele>
        <time>2021-06-01T08:50:16.000Z</time>
      </trkpt>
      <trkpt lat="44.13229" lon="5.8846">
        <ele>957</ele>
        <time>2021-06-01T08:50:17.000Z</time>
      </trkpt>
      <trkpt lat="44.13229" lon="5.88459">
        <ele>957</ele>
        <time>2021-06-01T08:50:18.000Z</time>
      </trkpt>
      <trkpt lat="44.13229" lon="5.88459">
        <ele>957</ele>
        <time>2021-06-01T08:50:19.000Z</time>
      </trkpt>
      <trkpt lat="44.13228" lon="5.8846">
        <ele>957</ele>
        <time>2021-06-01T08:50:20.000Z</time>
      </trkpt>
      <trkpt lat="44.13228" lon="5.8846">
        <ele>957</ele>
        <time>2021-06-01T08:50:21.000Z</time>
      </trkpt>
      <trkpt lat="44.13227" lon="5.8846">
        <ele>957</ele>
        <time>2021-06-01T08:50:22.000Z</time>
      </trkpt>
      <trkpt lat="44.13227" lon="5.8846">
        <ele>957</ele>
        <time>2021-06-01T08:50:23.000Z</time>
      </trkpt>
      <trkpt lat="44.13227" lon="5.88459">
        <ele>957</ele>
        <time>2021-06-01T08:50:24.000Z</time>
      </trkpt>
      <trkpt lat="44.13227" lon="5.88459">
        <ele>957</ele>
        <time>2021-06-01T08:50:25.000Z</time>
      </trkpt>
      <trkpt lat="44.13227" lon="5.88459">
        <ele>957</ele>
        <time>2021-06-01T08:50:26.000Z</time>
      </trkpt>
      <trkpt lat="44.13226" lon="5.88459">
        <ele>957</ele>
        <time>2021-06-01T08:50:27.000Z</time>
      </trkpt>
      <trkpt lat="44.13226" lon="5.8846">
        <ele>957</ele>
        <time>2021-06-01T08:50:28.000Z</time>
      </trkpt>
      <trkpt lat="44.13225" lon="5.8846">
        <ele>957</ele>
        <time>2021-06-01T08:50:29.000Z</time>
      </trkpt>
      <trkpt lat="44.13225" lon="5.8846">
        <ele>957</ele>
        <time>2021-06-01T08:50:30.000Z</time>
      </trkpt>
      <trkpt lat="44.13224" lon="5.8846">
        <ele>957</ele>
        <time>2021-06-01T08:50:31.000Z</time>
      </trkpt>
      <trkpt lat="44.13223" lon="5.88461">
        <ele>957</ele>
        <time>2021-06-01T08:50:32.000Z</time>
      </trkpt>
      <trkpt lat="44.13223" lon="5.88461">
        <ele>957</ele>
        <time>2021-06-01T08:50:33.000Z</time>
      </trkpt>
      <trkpt lat="44.13223" lon="5.88461">
        <ele>957</ele>
        <time>2021-06-01T08:50:34.000Z</time>
      </trkpt>
      <trkpt lat="44.13223" lon="5.88462">
        <ele>956</ele>
        <time>2021-06-01T08:50:35.000Z</time>
      </trkpt>
      <trkpt lat="44.13222" lon="5.88463">
        <ele>956</ele>
        <time>2021-06-01T08:50:36.000Z</time>
      </trkpt>
      <trkpt lat="44.13222" lon="5.88463">
        <ele>956</ele>
        <time>2021-06-01T08:50:37.000Z</time>
      </trkpt>
      <trkpt lat="44.13222" lon="5.88463">
        <ele>956</ele>
        <time>2021-06-01T08:50:38.000Z</time>
      </trkpt>
      <trkpt lat="44.13222" lon="5.88463">
        <ele>956</ele>
        <time>2021-06-01T08:50:39.000Z</time>
      </trkpt>
      <trkpt lat="44.13222" lon="5.88463">
        <ele>956</ele>
        <time>2021-06-01T08:50:40.000Z</time>
      </trkpt>
      <trkpt lat="44.13222" lon="5.88463">
        <ele>956</ele>
        <time>2021-06-01T08:50:41.000Z</time>
      </trkpt>
      <trkpt lat="44.13222" lon="5.88463">
        <ele>956</ele>
        <time>2021-06-01T08:50:42.000Z</time>
      </trkpt>
      <trkpt lat="44.13221" lon="5.88463">
        <ele>956</ele>
        <time>2021-06-01T08:50:43.000Z</time>
      </trkpt>
      <trkpt lat="44.13221" lon="5.88464">
        <ele>956</ele>
        <time>2021-06-01T08:50:44.000Z</time>
      </trkpt>
      <trkpt lat="44.13221" lon="5.88464">
        <ele>956</ele>
        <time>2021-06-01T08:50:45.000Z</time>
      </trkpt>
      <trkpt lat="44.1322" lon="5.88464">
        <ele>956</ele>
        <time>2021-06-01T08:50:46.000Z</time>
      </trkpt>
      <trkpt lat="44.1322" lon="5.88464">
        <ele>956</ele>
        <time>2021-06-01T08:50:47.000Z</time>
      </trkpt>
      <trkpt lat="44.13219" lon="5.88464">
        <ele>955</ele>
        <time>2021-06-01T08:50:48.000Z</time>
      </trkpt>
      <trkpt lat="44.13219" lon="5.88464">
        <ele>955</ele>
        <time>2021-06-01T08:50:49.000Z</time>
      </trkpt>
      <trkpt lat="44.13218" lon="5.88464">
        <ele>955</ele>
        <time>2021-06-01T08:50:50.000Z</time>
      </trkpt>
      <trkpt lat="44.13218" lon="5.88465">
        <ele>955</ele>
        <time>2021-06-01T08:50:51.000Z</time>
      </trkpt>
      <trkpt lat="44.13217" lon="5.88466">
        <ele>955</ele>
        <time>2021-06-01T08:50:52.000Z</time>
      </trkpt>
      <trkpt lat="44.13216" lon="5.88466">
        <ele>955</ele>
        <time>2021-06-01T08:50:53.000Z</time>
      </trkpt>
      <trkpt lat="44.13215" lon="5.88466">
        <ele>955</ele>
        <time>2021-06-01T08:50:54.000Z</time>
      </trkpt>
      <trkpt lat="44.13214" lon="5.88465">
        <ele>955</ele>
        <time>2021-06-01T08:50:55.000Z</time>
      </trkpt>
      <trkpt lat="44.13214" lon="5.88464">
        <ele>954</ele>
        <time>2021-06-01T08:50:56.000Z</time>
      </trkpt>
      <trkpt lat="44.13213" lon="5.88463">
        <ele>954</ele>
        <time>2021-06-01T08:50:57.000Z</time>
      </trkpt>
      <trkpt lat="44.13212" lon="5.88463">
        <ele>954</ele>
        <time>2021-06-01T08:50:58.000Z</time>
      </trkpt>
      <trkpt lat="44.13212" lon="5.88462">
        <ele>954</ele>
        <time>2021-06-01T08:50:59.000Z</time>
      </trkpt>
      <trkpt lat="44.13211" lon="5.88461">
        <ele>954</ele>
        <time>2021-06-01T08:51:00.000Z</time>
      </trkpt>
      <trkpt lat="44.13211" lon="5.8846">
        <ele>954</ele>
        <time>2021-06-01T08:51:01.000Z</time>
      </trkpt>
      <trkpt lat="44.1321" lon="5.88459">
        <ele>954</ele>
        <time>2021-06-01T08:51:02.000Z</time>
      </trkpt>
      <trkpt lat="44.13209" lon="5.88458">
        <ele>953</ele>
        <time>2021-06-01T08:51:03.000Z</time>
      </trkpt>
      <trkpt lat="44.13209" lon="5.88457">
        <ele>953</ele>
        <time>2021-06-01T08:51:04.000Z</time>
      </trkpt>
      <trkpt lat="44.13208" lon="5.88456">
        <ele>953</ele>
        <time>2021-06-01T08:51:05.000Z</time>
      </trkpt>
      <trkpt lat="44.13208" lon="5.88456">
        <ele>953</ele>
        <time>2021-06-01T08:51:06.000Z</time>
      </trkpt>
      <trkpt lat="44.13207" lon="5.88455">
        <ele>953</ele>
        <time>2021-06-01T08:51:07.000Z</time>
      </trkpt>
      <trkpt lat="44.13207" lon="5.88454">
        <ele>953</ele>
        <time>2021-06-01T08:51:08.000Z</time>
      </trkpt>
      <trkpt lat="44.13206" lon="5.88453">
        <ele>952</ele>
        <time>2021-06-01T08:51:09.000Z</time>
      </trkpt>
      <trkpt lat="44.13206" lon="5.88452">
        <ele>952</ele>
        <time>2021-06-01T08:51:10.000Z</time>
      </trkpt>
      <trkpt lat="44.13205" lon="5.88451">
        <ele>952</ele>
        <time>2021-06-01T08:51:11.000Z</time>
      </trkpt>
      <trkpt lat="44.13204" lon="5.88451">
        <ele>952</ele>
        <time>2021-06-01T08:51:12.000Z</time>
      </trkpt>
      <trkpt lat="44.13204" lon="5.8845">
        <ele>951</ele>
        <time>2021-06-01T08:51:13.000Z</time>
      </trkpt>
      <trkpt lat="44.13203" lon="5.8845">
        <ele>951</ele>
        <time>2021-06-01T08:51:14.000Z</time>
      </trkpt>
      <trkpt lat="44.13202" lon="5.88449">
        <ele>951</ele>
        <time>2021-06-01T08:51:15.000Z</time>
      </trkpt>
      <trkpt lat="44.13202" lon="5.88448">
        <ele>951</ele>
        <time>2021-06-01T08:51:16.000Z</time>
      </trkpt>
      <trkpt lat="44.13201" lon="5.88447">
        <ele>951</ele>
        <time>2021-06-01T08:51:17.000Z</time>
      </trkpt>
      <trkpt lat="44.13201" lon="5.88446">
        <ele>951</ele>
        <time>2021-06-01T08:51:18.000Z</time>
      </trkpt>
      <trkpt lat="44.132" lon="5.88445">
        <ele>950</ele>
        <time>2021-06-01T08:51:19.000Z</time>
      </trkpt>
      <trkpt lat="44.13199" lon="5.88445">
        <ele>950</ele>
        <time>2021-06-01T08:51:20.000Z</time>
      </trkpt>
      <trkpt lat="44.13198" lon="5.88444">
        <ele>950</ele>
        <time>2021-06-01T08:51:21.000Z</time>
      </trkpt>
      <trkpt lat="44.13198" lon="5.88444">
        <ele>950</ele>
        <time>2021-06-01T08:51:22.000Z</time>
      </trkpt>
      <trkpt lat="44.13197" lon="5.88443">
        <ele>950</ele>
        <time>2021-06-01T08:51:23.000Z</time>
      </trkpt>
      <trkpt lat="44.13197" lon="5.88443">
        <ele>950</ele>
        <time>2021-06-01T08:51:24.000Z</time>
      </trkpt>
      <trkpt lat="44.13196" lon="5.88442">
        <ele>950</ele>
        <time>2021-06-01T08:51:25.000Z</time>
      </trkpt>
      <trkpt lat="44.13196" lon="5.88441">
        <ele>950</ele>
        <time>2021-06-01T08:51:26.000Z</time>
      </trkpt>
      <trkpt lat="44.13195" lon="5.88441">
        <ele>949</ele>
        <time>2021-06-01T08:51:27.000Z</time>
      </trkpt>
      <trkpt lat="44.13194" lon="5.8844">
        <ele>949</ele>
        <time>2021-06-01T08:51:28.000Z</time>
      </trkpt>
      <trkpt lat="44.13194" lon="5.88439">
        <ele>949</ele>
        <time>2021-06-01T08:51:29.000Z</time>
      </trkpt>
      <trkpt lat="44.13193" lon="5.88438">
        <ele>949</ele>
        <time>2021-06-01T08:51:30.000Z</time>
      </trkpt>
      <trkpt lat="44.13193" lon="5.88438">
        <ele>949</ele>
        <time>2021-06-01T08:51:31.000Z</time>
      </trkpt>
      <trkpt lat="44.13192" lon="5.88437">
        <ele>949</ele>
        <time>2021-06-01T08:51:32.000Z</time>
      </trkpt>
      <trkpt lat="44.13191" lon="5.88436">
        <ele>949</ele>
        <time>2021-06-01T08:51:33.000Z</time>
      </trkpt>
      <trkpt lat="44.13191" lon="5.88435">
        <ele>948</ele>
        <time>2021-06-01T08:51:34.000Z</time>
      </trkpt>
      <trkpt lat="44.1319" lon="5.88434">
        <ele>948</ele>
        <time>2021-06-01T08:51:35.000Z</time>
      </trkpt>
      <trkpt lat="44.1319" lon="5.88434">
        <ele>948</ele>
        <time>2021-06-01T08:51:36.000Z</time>
      </trkpt>
      <trkpt lat="44.13189" lon="5.88433">
        <ele>948</ele>
        <time>2021-06-01T08:51:37.000Z</time>
      </trkpt>
      <trkpt lat="44.13189" lon="5.88432">
        <ele>948</ele>
        <time>2021-06-01T08:51:38.000Z</time>
      </trkpt>
      <trkpt lat="44.13188" lon="5.88431">
        <ele>948</ele>
        <time>2021-06-01T08:51:39.000Z</time>
      </trkpt>
      <trkpt lat="44.13188" lon="5.8843">
        <ele>948</ele>
        <time>2021-06-01T08:51:40.000Z</time>
      </trkpt>
      <trkpt lat="44.13188" lon="5.88429">
        <ele>947</ele>
        <time>2021-06-01T08:51:41.000Z</time>
      </trkpt>
      <trkpt lat="44.13187" lon="5.88428">
        <ele>947</ele>
        <time>2021-06-01T08:51:42.000Z</time>
      </trkpt>
      <trkpt lat="44.13187" lon="5.88428">
        <ele>947</ele>
        <time>2021-06-01T08:51:43.000Z</time>
      </trkpt>
      <trkpt lat="44.13186" lon="5.88427">
        <ele>947</ele>
        <time>2021-06-01T08:51:44.000Z</time>
      </trkpt>
      <trkpt lat="44.13185" lon="5.88426">
        <ele>947</ele>
        <time>2021-06-01T08:51:45.000Z</time>
      </trkpt>
      <trkpt lat="44.13185" lon="5.88425">
        <ele>947</ele>
        <time>2021-06-01T08:51:46.000Z</time>
      </trkpt>
      <trkpt lat="44.13184" lon="5.88424">
        <ele>946</ele>
        <time>2021-06-01T08:51:47.000Z</time>
      </trkpt>
      <trkpt lat="44.13183" lon="5.88424">
        <ele>946</ele>
        <time>2021-06-01T08:51:48.000Z</time>
      </trkpt>
      <trkpt lat="44.13183" lon="5.88423">
        <ele>946</ele>
        <time>2021-06-01T08:51:49.000Z</time>
      </trkpt>
      <trkpt lat="44.13182" lon="5.88422">
        <ele>946</ele>
        <time>2021-06-01T08:51:50.000Z</time>
      </trkpt>
      <trkpt lat="44.13181" lon="5.88422">
        <ele>946</ele>
        <time>2021-06-01T08:51:51.000Z</time>
      </trkpt>
      <trkpt lat="44.13181" lon="5.88421">
        <ele>946</ele>
        <time>2021-06-01T08:51:52.000Z</time>
      </trkpt>
      <trkpt lat="44.13181" lon="5.88421">
        <ele>946</ele>
        <time>2021-06-01T08:51:53.000Z</time>
      </trkpt>
      <trkpt lat="44.13181" lon="5.88421">
        <ele>946</ele>
        <time>2021-06-01T08:51:54.000Z</time>
      </trkpt>
      <trkpt lat="44.13181" lon="5.88421">
        <ele>946</ele>
        <time>2021-06-01T08:51:55.000Z</time>
      </trkpt>
      <trkpt lat="44.13181" lon="5.88421">
        <ele>946</ele>
        <time>2021-06-01T08:51:56.000Z</time>
      </trkpt>
      <trkpt lat="44.13181" lon="5.88421">
        <ele>946</ele>
        <time>2021-06-01T08:51:57.000Z</time>
      </trkpt>
      <trkpt lat="44.13181" lon="5.88421">
        <ele>946</ele>
        <time>2021-06-01T08:51:58.000Z</time>
      </trkpt>
      <trkpt lat="44.13181" lon="5.88421">
        <ele>946</ele>
        <time>2021-06-01T08:51:59.000Z</time>
      </trkpt>
      <trkpt lat="44.13181" lon="5.8842">
        <ele>946</ele>
        <time>2021-06-01T08:52:00.000Z</time>
      </trkpt>
      <trkpt lat="44.13181" lon="5.8842">
        <ele>946</ele>
        <time>2021-06-01T08:52:01.000Z</time>
      </trkpt>
      <trkpt lat="44.13181" lon="5.88421">
        <ele>945</ele>
        <time>2021-06-01T08:52:02.000Z</time>
      </trkpt>
      <trkpt lat="44.1318" lon="5.88421">
        <ele>945</ele>
        <time>2021-06-01T08:52:03.000Z</time>
      </trkpt>
      <trkpt lat="44.1318" lon="5.8842">
        <ele>945</ele>
        <time>2021-06-01T08:52:04.000Z</time>
      </trkpt>
      <trkpt lat="44.13179" lon="5.8842">
        <ele>945</ele>
        <time>2021-06-01T08:52:05.000Z</time>
      </trkpt>
      <trkpt lat="44.13179" lon="5.8842">
        <ele>945</ele>
        <time>2021-06-01T08:52:06.000Z</time>
      </trkpt>
      <trkpt lat="44.13178" lon="5.88419">
        <ele>945</ele>
        <time>2021-06-01T08:52:07.000Z</time>
      </trkpt>
      <trkpt lat="44.13178" lon="5.88418">
        <ele>945</ele>
        <time>2021-06-01T08:52:08.000Z</time>
      </trkpt>
      <trkpt lat="44.13177" lon="5.88418">
        <ele>945</ele>
        <time>2021-06-01T08:52:09.000Z</time>
      </trkpt>
      <trkpt lat="44.13177" lon="5.88417">
        <ele>945</ele>
        <time>2021-06-01T08:52:10.000Z</time>
      </trkpt>
      <trkpt lat="44.13176" lon="5.88416">
        <ele>945</ele>
        <time>2021-06-01T08:52:11.000Z</time>
      </trkpt>
      <trkpt lat="44.13176" lon="5.88416">
        <ele>944</ele>
        <time>2021-06-01T08:52:12.000Z</time>
      </trkpt>
      <trkpt lat="44.13175" lon="5.88415">
        <ele>944</ele>
        <time>2021-06-01T08:52:13.000Z</time>
      </trkpt>
      <trkpt lat="44.13175" lon="5.88414">
        <ele>944</ele>
        <time>2021-06-01T08:52:14.000Z</time>
      </trkpt>
      <trkpt lat="44.13174" lon="5.88413">
        <ele>944</ele>
        <time>2021-06-01T08:52:15.000Z</time>
      </trkpt>
      <trkpt lat="44.13174" lon="5.88412">
        <ele>944</ele>
        <time>2021-06-01T08:52:16.000Z</time>
      </trkpt>
      <trkpt lat="44.13173" lon="5.88412">
        <ele>944</ele>
        <time>2021-06-01T08:52:17.000Z</time>
      </trkpt>
      <trkpt lat="44.13173" lon="5.88411">
        <ele>944</ele>
        <time>2021-06-01T08:52:18.000Z</time>
      </trkpt>
      <trkpt lat="44.13172" lon="5.88411">
        <ele>944</ele>
        <time>2021-06-01T08:52:19.000Z</time>
      </trkpt>
      <trkpt lat="44.13172" lon="5.8841">
        <ele>944</ele>
        <time>2021-06-01T08:52:20.000Z</time>
      </trkpt>
      <trkpt lat="44.13171" lon="5.88409">
        <ele>944</ele>
        <time>2021-06-01T08:52:21.000Z</time>
      </trkpt>
      <trkpt lat="44.13171" lon="5.88409">
        <ele>944</ele>
        <time>2021-06-01T08:52:22.000Z</time>
      </trkpt>
      <trkpt lat="44.13171" lon="5.88408">
        <ele>944</ele>
        <time>2021-06-01T08:52:23.000Z</time>
      </trkpt>
      <trkpt lat="44.13171" lon="5.88407">
        <ele>944</ele>
        <time>2021-06-01T08:52:24.000Z</time>
      </trkpt>
      <trkpt lat="44.1317" lon="5.88407">
        <ele>944</ele>
        <time>2021-06-01T08:52:25.000Z</time>
      </trkpt>
      <trkpt lat="44.1317" lon="5.88406">
        <ele>944</ele>
        <time>2021-06-01T08:52:26.000Z</time>
      </trkpt>
      <trkpt lat="44.1317" lon="5.88406">
        <ele>943</ele>
        <time>2021-06-01T08:52:27.000Z</time>
      </trkpt>
      <trkpt lat="44.13169" lon="5.88405">
        <ele>943</ele>
        <time>2021-06-01T08:52:28.000Z</time>
      </trkpt>
      <trkpt lat="44.13169" lon="5.88405">
        <ele>943</ele>
        <time>2021-06-01T08:52:29.000Z</time>
      </trkpt>
      <trkpt lat="44.13168" lon="5.88404">
        <ele>943</ele>
        <time>2021-06-01T08:52:30.000Z</time>
      </trkpt>
      <trkpt lat="44.13168" lon="5.88403">
        <ele>943</ele>
        <time>2021-06-01T08:52:31.000Z</time>
      </trkpt>
      <trkpt lat="44.13168" lon="5.88403">
        <ele>943</ele>
        <time>2021-06-01T08:52:32.000Z</time>
      </trkpt>
      <trkpt lat="44.13167" lon="5.88402">
        <ele>943</ele>
        <time>2021-06-01T08:52:33.000Z</time>
      </trkpt>
      <trkpt lat="44.13167" lon="5.88402">
        <ele>943</ele>
        <time>2021-06-01T08:52:34.000Z</time>
      </trkpt>
      <trkpt lat="44.13166" lon="5.88401">
        <ele>943</ele>
        <time>2021-06-01T08:52:35.000Z</time>
      </trkpt>
      <trkpt lat="44.13166" lon="5.88401">
        <ele>943</ele>
        <time>2021-06-01T08:52:36.000Z</time>
      </trkpt>
      <trkpt lat="44.13166" lon="5.884">
        <ele>943</ele>
        <time>2021-06-01T08:52:37.000Z</time>
      </trkpt>
      <trkpt lat="44.13165" lon="5.88399">
        <ele>943</ele>
        <time>2021-06-01T08:52:38.000Z</time>
      </trkpt>
      <trkpt lat="44.13165" lon="5.88398">
        <ele>943</ele>
        <time>2021-06-01T08:52:39.000Z</time>
      </trkpt>
      <trkpt lat="44.13165" lon="5.88398">
        <ele>943</ele>
        <time>2021-06-01T08:52:40.000Z</time>
      </trkpt>
      <trkpt lat="44.13165" lon="5.88398">
        <ele>943</ele>
        <time>2021-06-01T08:52:41.000Z</time>
      </trkpt>
      <trkpt lat="44.13164" lon="5.88398">
        <ele>943</ele>
        <time>2021-06-01T08:52:42.000Z</time>
      </trkpt>
      <trkpt lat="44.13164" lon="5.88398">
        <ele>943</ele>
        <time>2021-06-01T08:52:43.000Z</time>
      </trkpt>
      <trkpt lat="44.13164" lon="5.88398">
        <ele>943</ele>
        <time>2021-06-01T08:52:44.000Z</time>
      </trkpt>
      <trkpt lat="44.13164" lon="5.88398">
        <ele>943</ele>
        <time>2021-06-01T08:52:45.000Z</time>
      </trkpt>
      <trkpt lat="44.13164" lon="5.88398">
        <ele>943</ele>
        <time>2021-06-01T08:52:46.000Z</time>
      </trkpt>
      <trkpt lat="44.13164" lon="5.88398">
        <ele>943</ele>
        <time>2021-06-01T08:52:47.000Z</time>
      </trkpt>
      <trkpt lat="44.13164" lon="5.88398">
        <ele>943</ele>
        <time>2021-06-01T08:52:48.000Z</time>
      </trkpt>
      <trkpt lat="44.13164" lon="5.88398">
        <ele>943</ele>
        <time>2021-06-01T08:52:49.000Z</time>
      </trkpt>
      <trkpt lat="44.13164" lon="5.88397">
        <ele>943</ele>
        <time>2021-06-01T08:52:50.000Z</time>
      </trkpt>
      <trkpt lat="44.13164" lon="5.88397">
        <ele>943</ele>
        <time>2021-06-01T08:52:51.000Z</time>
      </trkpt>
      <trkpt lat="44.13164" lon="5.88396">
        <ele>943</ele>
        <time>2021-06-01T08:52:52.000Z</time>
      </trkpt>
      <trkpt lat="44.13163" lon="5.88396">
        <ele>943</ele>
        <time>2021-06-01T08:52:53.000Z</time>
      </trkpt>
      <trkpt lat="44.13163" lon="5.88396">
        <ele>943</ele>
        <time>2021-06-01T08:52:54.000Z</time>
      </trkpt>
      <trkpt lat="44.13162" lon="5.88395">
        <ele>942</ele>
        <time>2021-06-01T08:52:55.000Z</time>
      </trkpt>
      <trkpt lat="44.13162" lon="5.88394">
        <ele>942</ele>
        <time>2021-06-01T08:52:56.000Z</time>
      </trkpt>
      <trkpt lat="44.13162" lon="5.88393">
        <ele>942</ele>
        <time>2021-06-01T08:52:57.000Z</time>
      </trkpt>
      <trkpt lat="44.13161" lon="5.88393">
        <ele>942</ele>
        <time>2021-06-01T08:52:58.000Z</time>
      </trkpt>
      <trkpt lat="44.13161" lon="5.88392">
        <ele>942</ele>
        <time>2021-06-01T08:52:59.000Z</time>
      </trkpt>
      <trkpt lat="44.1316" lon="5.88391">
        <ele>942</ele>
        <time>2021-06-01T08:53:00.000Z</time>
      </trkpt>
      <trkpt lat="44.1316" lon="5.88391">
        <ele>942</ele>
        <time>2021-06-01T08:53:01.000Z</time>
      </trkpt>
      <trkpt lat="44.1316" lon="5.8839">
        <ele>942</ele>
        <time>2021-06-01T08:53:02.000Z</time>
      </trkpt>
      <trkpt lat="44.13159" lon="5.88389">
        <ele>942</ele>
        <time>2021-06-01T08:53:03.000Z</time>
      </trkpt>
      <trkpt lat="44.13159" lon="5.88389">
        <ele>942</ele>
        <time>2021-06-01T08:53:04.000Z</time>
      </trkpt>
      <trkpt lat="44.13158" lon="5.88388">
        <ele>942</ele>
        <time>2021-06-01T08:53:05.000Z</time>
      </trkpt>
      <trkpt lat="44.13158" lon="5.88387">
        <ele>942</ele>
        <time>2021-06-01T08:53:06.000Z</time>
      </trkpt>
      <trkpt lat="44.13158" lon="5.88387">
        <ele>942</ele>
        <time>2021-06-01T08:53:07.000Z</time>
      </trkpt>
      <trkpt lat="44.13158" lon="5.88388">
        <ele>942</ele>
        <time>2021-06-01T08:53:08.000Z</time>
      </trkpt>
      <trkpt lat="44.13158" lon="5.88388">
        <ele>942</ele>
        <time>2021-06-01T08:53:09.000Z</time>
      </trkpt>
      <trkpt lat="44.13158" lon="5.88388">
        <ele>942</ele>
        <time>2021-06-01T08:53:10.000Z</time>
      </trkpt>
      <trkpt lat="44.13158" lon="5.88388">
        <ele>942</ele>
        <time>2021-06-01T08:53:11.000Z</time>
      </trkpt>
      <trkpt lat="44.13157" lon="5.88388">
        <ele>942</ele>
        <time>2021-06-01T08:53:12.000Z</time>
      </trkpt>
      <trkpt lat="44.13157" lon="5.88388">
        <ele>941</ele>
        <time>2021-06-01T08:53:13.000Z</time>
      </trkpt>
      <trkpt lat="44.13157" lon="5.88388">
        <ele>941</ele>
        <time>2021-06-01T08:53:14.000Z</time>
      </trkpt>
      <trkpt lat="44.13158" lon="5.88388">
        <ele>941</ele>
        <time>2021-06-01T08:53:15.000Z</time>
      </trkpt>
      <trkpt lat="44.13158" lon="5.88388">
        <ele>941</ele>
        <time>2021-06-01T08:53:16.000Z</time>
      </trkpt>
      <trkpt lat="44.13158" lon="5.88388">
        <ele>942</ele>
        <time>2021-06-01T08:53:17.000Z</time>
      </trkpt>
      <trkpt lat="44.13158" lon="5.88388">
        <ele>942</ele>
        <time>2021-06-01T08:53:18.000Z</time>
      </trkpt>
      <trkpt lat="44.13158" lon="5.88387">
        <ele>942</ele>
        <time>2021-06-01T08:53:19.000Z</time>
      </trkpt>
      <trkpt lat="44.13158" lon="5.88387">
        <ele>941</ele>
        <time>2021-06-01T08:53:20.000Z</time>
      </trkpt>
      <trkpt lat="44.13158" lon="5.88387">
        <ele>941</ele>
        <time>2021-06-01T08:53:21.000Z</time>
      </trkpt>
      <trkpt lat="44.13158" lon="5.88387">
        <ele>941</ele>
        <time>2021-06-01T08:53:22.000Z</time>
      </trkpt>
      <trkpt lat="44.13158" lon="5.88387">
        <ele>941</ele>
        <time>2021-06-01T08:53:23.000Z</time>
      </trkpt>
      <trkpt lat="44.13158" lon="5.88387">
        <ele>941</ele>
        <time>2021-06-01T08:53:24.000Z</time>
      </trkpt>
      <trkpt lat="44.13158" lon="5.88387">
        <ele>941</ele>
        <time>2021-06-01T08:53:25.000Z</time>
      </trkpt>
      <trkpt lat="44.13158" lon="5.88387">
        <ele>941</ele>
        <time>2021-06-01T08:53:26.000Z</time>
      </trkpt>
      <trkpt lat="44.13158" lon="5.88387">
        <ele>941</ele>
        <time>2021-06-01T08:53:27.000Z</time>
      </trkpt>
      <trkpt lat="44.13158" lon="5.88387">
        <ele>941</ele>
        <time>2021-06-01T08:53:28.000Z</time>
      </trkpt>
      <trkpt lat="44.13158" lon="5.88387">
        <ele>941</ele>
        <time>2021-06-01T08:53:29.000Z</time>
      </trkpt>
      <trkpt lat="44.13158" lon="5.88387">
        <ele>941</ele>
        <time>2021-06-01T08:53:30.000Z</time>
      </trkpt>
      <trkpt lat="44.13158" lon="5.88387">
        <ele>941</ele>
        <time>2021-06-01T08:53:31.000Z</time>
      </trkpt>
      <trkpt lat="44.13158" lon="5.88387">
        <ele>941</ele>
        <time>2021-06-01T08:53:32.000Z</time>
      </trkpt>
      <trkpt lat="44.13158" lon="5.88387">
        <ele>941</ele>
        <time>2021-06-01T08:53:33.000Z</time>
      </trkpt>
      <trkpt lat="44.13158" lon="5.88387">
        <ele>941</ele>
        <time>2021-06-01T08:53:34.000Z</time>
      </trkpt>
      <trkpt lat="44.13158" lon="5.88387">
        <ele>941</ele>
        <time>2021-06-01T08:53:35.000Z</time>
      </trkpt>
      <trkpt lat="44.13158" lon="5.88387">
        <ele>941</ele>
        <time>2021-06-01T08:53:36.000Z</time>
      </trkpt>
      <trkpt lat="44.13157" lon="5.88387">
        <ele>941</ele>
        <time>2021-06-01T08:53:37.000Z</time>
      </trkpt>
      <trkpt lat="44.13157" lon="5.88387">
        <ele>941</ele>
        <time>2021-06-01T08:53:38.000Z</time>
      </trkpt>
      <trkpt lat="44.13157" lon="5.88387">
        <ele>941</ele>
        <time>2021-06-01T08:53:39.000Z</time>
      </trkpt>
      <trkpt lat="44.13157" lon="5.88387">
        <ele>941</ele>
        <time>2021-06-01T08:53:40.000Z</time>
      </trkpt>
      <trkpt lat="44.13157" lon="5.88387">
        <ele>941</ele>
        <time>2021-06-01T08:53:41.000Z</time>
      </trkpt>
      <trkpt lat="44.13157" lon="5.88387">
        <ele>941</ele>
        <time>2021-06-01T08:53:42.000Z</time>
      </trkpt>
      <trkpt lat="44.13157" lon="5.88387">
        <ele>941</ele>
        <time>2021-06-01T08:53:43.000Z</time>
      </trkpt>
      <trkpt lat="44.13157" lon="5.88387">
        <ele>941</ele>
        <time>2021-06-01T08:53:44.000Z</time>
      </trkpt>
      <trkpt lat="44.13157" lon="5.88387">
        <ele>941</ele>
        <time>2021-06-01T08:53:45.000Z</time>
      </trkpt>
      <trkpt lat="44.13157" lon="5.88387">
        <ele>941</ele>
        <time>2021-06-01T08:53:46.000Z</time>
      </trkpt>
      <trkpt lat="44.13158" lon="5.88387">
        <ele>941</ele>
        <time>2021-06-01T08:53:47.000Z</time>
      </trkpt>
      <trkpt lat="44.13158" lon="5.88387">
        <ele>941</ele>
        <time>2021-06-01T08:53:48.000Z</time>
      </trkpt>
      <trkpt lat="44.13158" lon="5.88388">
        <ele>941</ele>
        <time>2021-06-01T08:53:49.000Z</time>
      </trkpt>
      <trkpt lat="44.13158" lon="5.88388">
        <ele>941</ele>
        <time>2021-06-01T08:53:50.000Z</time>
      </trkpt>
      <trkpt lat="44.13158" lon="5.88387">
        <ele>941</ele>
        <time>2021-06-01T08:53:51.000Z</time>
      </trkpt>
      <trkpt lat="44.13158" lon="5.88387">
        <ele>940</ele>
        <time>2021-06-01T08:53:52.000Z</time>
      </trkpt>
      <trkpt lat="44.13158" lon="5.88387">
        <ele>940</ele>
        <time>2021-06-01T08:53:53.000Z</time>
      </trkpt>
      <trkpt lat="44.13158" lon="5.88387">
        <ele>940</ele>
        <time>2021-06-01T08:53:54.000Z</time>
      </trkpt>
      <trkpt lat="44.13158" lon="5.88387">
        <ele>940</ele>
        <time>2021-06-01T08:53:55.000Z</time>
      </trkpt>
      <trkpt lat="44.13158" lon="5.88387">
        <ele>940</ele>
        <time>2021-06-01T08:53:56.000Z</time>
      </trkpt>
      <trkpt lat="44.13158" lon="5.88387">
        <ele>940</ele>
        <time>2021-06-01T08:53:57.000Z</time>
      </trkpt>
      <trkpt lat="44.13158" lon="5.88387">
        <ele>940</ele>
        <time>2021-06-01T08:53:58.000Z</time>
      </trkpt>
      <trkpt lat="44.13158" lon="5.88387">
        <ele>940</ele>
        <time>2021-06-01T08:53:59.000Z</time>
      </trkpt>
      <trkpt lat="44.13158" lon="5.88387">
        <ele>940</ele>
        <time>2021-06-01T08:54:00.000Z</time>
      </trkpt>
      <trkpt lat="44.13158" lon="5.88387">
        <ele>940</ele>
        <time>2021-06-01T08:54:01.000Z</time>
      </trkpt>
      <trkpt lat="44.13158" lon="5.88387">
        <ele>940</ele>
        <time>2021-06-01T08:54:02.000Z</time>
      </trkpt>
      <trkpt lat="44.13158" lon="5.88387">
        <ele>940</ele>
        <time>2021-06-01T08:54:03.000Z</time>
      </trkpt>
      <trkpt lat="44.13158" lon="5.88387">
        <ele>940</ele>
        <time>2021-06-01T08:54:04.000Z</time>
      </trkpt>
      <trkpt lat="44.13157" lon="5.88387">
        <ele>940</ele>
        <time>2021-06-01T08:54:05.000Z</time>
      </trkpt>
      <trkpt lat="44.13157" lon="5.88387">
        <ele>940</ele>
        <time>2021-06-01T08:54:06.000Z</time>
      </trkpt>
      <trkpt lat="44.13157" lon="5.88387">
        <ele>940</ele>
        <time>2021-06-01T08:54:07.000Z</time>
      </trkpt>
      <trkpt lat="44.13157" lon="5.88387">
        <ele>940</ele>
        <time>2021-06-01T08:54:08.000Z</time>
      </trkpt>
      <trkpt lat="44.13157" lon="5.88387">
        <ele>940</ele>
        <time>2021-06-01T08:54:09.000Z</time>
      </trkpt>
      <trkpt lat="44.13157" lon="5.88387">
        <ele>940</ele>
        <time>2021-06-01T08:54:10.000Z</time>
      </trkpt>
      <trkpt lat="44.13157" lon="5.88387">
        <ele>940</ele>
        <time>2021-06-01T08:54:11.000Z</time>
      </trkpt>
      <trkpt lat="44.13157" lon="5.88387">
        <ele>940</ele>
        <time>2021-06-01T08:54:12.000Z</time>
      </trkpt>
      <trkpt lat="44.13157" lon="5.88387">
        <ele>940</ele>
        <time>2021-06-01T08:54:13.000Z</time>
      </trkpt>
      <trkpt lat="44.13157" lon="5.88387">
        <ele>940</ele>
        <time>2021-06-01T08:54:14.000Z</time>
      </trkpt>
      <trkpt lat="44.13157" lon="5.88387">
        <ele>940</ele>
        <time>2021-06-01T08:54:15.000Z</time>
      </trkpt>
      <trkpt lat="44.13157" lon="5.88387">
        <ele>940</ele>
        <time>2021-06-01T08:54:16.000Z</time>
      </trkpt>
      <trkpt lat="44.13157" lon="5.88387">
        <ele>940</ele>
        <time>2021-06-01T08:54:17.000Z</time>
      </trkpt>
      <trkpt lat="44.13157" lon="5.88387">
        <ele>940</ele>
        <time>2021-06-01T08:54:18.000Z</time>
      </trkpt>
      <trkpt lat="44.13157" lon="5.88387">
        <ele>940</ele>
        <time>2021-06-01T08:54:19.000Z</time>
      </trkpt>
      <trkpt lat="44.13157" lon="5.88387">
        <ele>940</ele>
        <time>2021-06-01T08:54:20.000Z</time>
      </trkpt>
      <trkpt lat="44.13157" lon="5.88387">
        <ele>940</ele>
        <time>2021-06-01T08:54:21.000Z</time>
      </trkpt>
      <trkpt lat="44.13157" lon="5.88387">
        <ele>940</ele>
        <time>2021-06-01T08:54:22.000Z</time>
      </trkpt>
      <trkpt lat="44.13157" lon="5.88388">
        <ele>940</ele>
        <time>2021-06-01T08:54:23.000Z</time>
      </trkpt>
      <trkpt lat="44.13157" lon="5.88388">
        <ele>940</ele>
        <time>2021-06-01T08:54:24.000Z</time>
      </trkpt>
      <trkpt lat="44.13157" lon="5.88388">
        <ele>940</ele>
        <time>2021-06-01T08:54:25.000Z</time>
      </trkpt>
      <trkpt lat="44.13157" lon="5.88388">
        <ele>940</ele>
        <time>2021-06-01T08:54:26.000Z</time>
      </trkpt>
      <trkpt lat="44.13158" lon="5.88388">
        <ele>940</ele>
        <time>2021-06-01T08:54:27.000Z</time>
      </trkpt>
      <trkpt lat="44.13158" lon="5.88387">
        <ele>940</ele>
        <time>2021-06-01T08:54:28.000Z</time>
      </trkpt>
      <trkpt lat="44.13158" lon="5.88388">
        <ele>940</ele>
        <time>2021-06-01T08:54:29.000Z</time>
      </trkpt>
      <trkpt lat="44.13158" lon="5.88388">
        <ele>940</ele>
        <time>2021-06-01T08:54:30.000Z</time>
      </trkpt>
      <trkpt lat="44.13158" lon="5.88387">
        <ele>940</ele>
        <time>2021-06-01T08:54:31.000Z</time>
      </trkpt>
      <trkpt lat="44.13158" lon="5.88388">
        <ele>940</ele>
        <time>2021-06-01T08:54:32.000Z</time>
      </trkpt>
      <trkpt lat="44.13158" lon="5.88387">
        <ele>940</ele>
        <time>2021-06-01T08:54:33.000Z</time>
      </trkpt>
      <trkpt lat="44.13158" lon="5.88387">
        <ele>940</ele>
        <time>2021-06-01T08:54:34.000Z</time>
      </trkpt>
      <trkpt lat="44.13158" lon="5.88387">
        <ele>940</ele>
        <time>2021-06-01T08:54:35.000Z</time>
      </trkpt>
      <trkpt lat="44.13158" lon="5.88387">
        <ele>940</ele>
        <time>2021-06-01T08:54:36.000Z</time>
      </trkpt>
      <trkpt lat="44.13158" lon="5.88387">
        <ele>940</ele>
        <time>2021-06-01T08:54:37.000Z</time>
      </trkpt>
      <trkpt lat="44.13158" lon="5.88387">
        <ele>940</ele>
        <time>2021-06-01T08:54:38.000Z</time>
      </trkpt>
      <trkpt lat="44.13158" lon="5.88387">
        <ele>940</ele>
        <time>2021-06-01T08:54:39.000Z</time>
      </trkpt>
      <trkpt lat="44.13157" lon="5.88387">
        <ele>940</ele>
        <time>2021-06-01T08:54:40.000Z</time>
      </trkpt>
      <trkpt lat="44.13157" lon="5.88387">
        <ele>940</ele>
        <time>2021-06-01T08:54:41.000Z</time>
      </trkpt>
      <trkpt lat="44.13157" lon="5.88387">
        <ele>940</ele>
        <time>2021-06-01T08:54:42.000Z</time>
      </trkpt>
      <trkpt lat="44.13157" lon="5.88387">
        <ele>940</ele>
        <time>2021-06-01T08:54:43.000Z</time>
      </trkpt>
      <trkpt lat="44.13157" lon="5.88387">
        <ele>940</ele>
        <time>2021-06-01T08:54:44.000Z</time>
      </trkpt>
      <trkpt lat="44.13157" lon="5.88387">
        <ele>940</ele>
        <time>2021-06-01T08:54:45.000Z</time>
      </trkpt>
      <trkpt lat="44.13157" lon="5.88387">
        <ele>940</ele>
        <time>2021-06-01T08:54:46.000Z</time>
      </trkpt>
      <trkpt lat="44.13157" lon="5.88387">
        <ele>940</ele>
        <time>2021-06-01T08:54:47.000Z</time>
      </trkpt>
      <trkpt lat="44.13157" lon="5.88386">
        <ele>940</ele>
        <time>2021-06-01T08:54:48.000Z</time>
      </trkpt>
      <trkpt lat="44.13157" lon="5.88386">
        <ele>940</ele>
        <time>2021-06-01T08:54:49.000Z</time>
      </trkpt>
      <trkpt lat="44.13157" lon="5.88386">
        <ele>940</ele>
        <time>2021-06-01T08:54:50.000Z</time>
      </trkpt>
      <trkpt lat="44.13157" lon="5.88387">
        <ele>940</ele>
        <time>2021-06-01T08:54:51.000Z</time>
      </trkpt>
      <trkpt lat="44.13157" lon="5.88387">
        <ele>940</ele>
        <time>2021-06-01T08:54:52.000Z</time>
      </trkpt>
      <trkpt lat="44.13157" lon="5.88387">
        <ele>940</ele>
        <time>2021-06-01T08:54:53.000Z</time>
      </trkpt>
      <trkpt lat="44.13157" lon="5.88387">
        <ele>940</ele>
        <time>2021-06-01T08:54:54.000Z</time>
      </trkpt>
      <trkpt lat="44.13157" lon="5.88386">
        <ele>940</ele>
        <time>2021-06-01T08:54:55.000Z</time>
      </trkpt>
      <trkpt lat="44.13157" lon="5.88386">
        <ele>940</ele>
        <time>2021-06-01T08:54:56.000Z</time>
      </trkpt>
      <trkpt lat="44.13157" lon="5.88386">
        <ele>940</ele>
        <time>2021-06-01T08:54:57.000Z</time>
      </trkpt>
      <trkpt lat="44.13157" lon="5.88386">
        <ele>940</ele>
        <time>2021-06-01T08:54:58.000Z</time>
      </trkpt>
      <trkpt lat="44.13157" lon="5.88386">
        <ele>940</ele>
        <time>2021-06-01T08:54:59.000Z</time>
      </trkpt>
      <trkpt lat="44.13157" lon="5.88387">
        <ele>940</ele>
        <time>2021-06-01T08:55:00.000Z</time>
      </trkpt>
      <trkpt lat="44.13157" lon="5.88387">
        <ele>940</ele>
        <time>2021-06-01T08:55:01.000Z</time>
      </trkpt>
      <trkpt lat="44.13157" lon="5.88387">
        <ele>940</ele>
        <time>2021-06-01T08:55:02.000Z</time>
      </trkpt>
      <trkpt lat="44.13157" lon="5.88387">
        <ele>940</ele>
        <time>2021-06-01T08:55:03.000Z</time>
      </trkpt>
      <trkpt lat="44.13157" lon="5.88387">
        <ele>940</ele>
        <time>2021-06-01T08:55:04.000Z</time>
      </trkpt>
      <trkpt lat="44.13157" lon="5.88387">
        <ele>940</ele>
        <time>2021-06-01T08:55:05.000Z</time>
      </trkpt>
      <trkpt lat="44.13157" lon="5.88387">
        <ele>940</ele>
        <time>2021-06-01T08:55:06.000Z</time>
      </trkpt>
      <trkpt lat="44.13157" lon="5.88387">
        <ele>940</ele>
        <time>2021-06-01T08:55:07.000Z</time>
      </trkpt>
      <trkpt lat="44.13157" lon="5.88387">
        <ele>940</ele>
        <time>2021-06-01T08:55:08.000Z</time>
      </trkpt>
      <trkpt lat="44.13157" lon="5.88387">
        <ele>940</ele>
        <time>2021-06-01T08:55:09.000Z</time>
      </trkpt>
      <trkpt lat="44.13157" lon="5.88387">
        <ele>940</ele>
        <time>2021-06-01T08:55:10.000Z</time>
      </trkpt>
      <trkpt lat="44.13157" lon="5.88387">
        <ele>940</ele>
        <time>2021-06-01T08:55:11.000Z</time>
      </trkpt>
      <trkpt lat="44.13157" lon="5.88387">
        <ele>940</ele>
        <time>2021-06-01T08:55:12.000Z</time>
      </trkpt>
      <trkpt lat="44.13157" lon="5.88387">
        <ele>940</ele>
        <time>2021-06-01T08:55:13.000Z</time>
      </trkpt>
      <trkpt lat="44.13157" lon="5.88388">
        <ele>940</ele>
        <time>2021-06-01T08:55:14.000Z</time>
      </trkpt>
      <trkpt lat="44.13157" lon="5.88388">
        <ele>940</ele>
        <time>2021-06-01T08:55:15.000Z</time>
      </trkpt>
      <trkpt lat="44.13157" lon="5.88388">
        <ele>940</ele>
        <time>2021-06-01T08:55:16.000Z</time>
      </trkpt>
      <trkpt lat="44.13157" lon="5.88388">
        <ele>940</ele>
        <time>2021-06-01T08:55:17.000Z</time>
      </trkpt>
      <trkpt lat="44.13157" lon="5.88388">
        <ele>940</ele>
        <time>2021-06-01T08:55:18.000Z</time>
      </trkpt>
      <trkpt lat="44.13157" lon="5.88388">
        <ele>940</ele>
        <time>2021-06-01T08:55:19.000Z</time>
      </trkpt>
      <trkpt lat="44.13157" lon="5.88388">
        <ele>940</ele>
        <time>2021-06-01T08:55:20.000Z</time>
      </trkpt>
      <trkpt lat="44.13157" lon="5.88388">
        <ele>940</ele>
        <time>2021-06-01T08:55:21.000Z</time>
      </trkpt>
      <trkpt lat="44.13157" lon="5.88388">
        <ele>940</ele>
        <time>2021-06-01T08:55:22.000Z</time>
      </trkpt>
      <trkpt lat="44.13157" lon="5.88388">
        <ele>940</ele>
        <time>2021-06-01T08:55:23.000Z</time>
      </trkpt>
      <trkpt lat="44.13157" lon="5.88388">
        <ele>940</ele>
        <time>2021-06-01T08:55:24.000Z</time>
      </trkpt>
      <trkpt lat="44.13157" lon="5.88388">
        <ele>940</ele>
        <time>2021-06-01T08:55:25.000Z</time>
      </trkpt>
      <trkpt lat="44.13157" lon="5.88388">
        <ele>940</ele>
        <time>2021-06-01T08:55:26.000Z</time>
      </trkpt>
      <trkpt lat="44.13157" lon="5.88388">
        <ele>940</ele>
        <time>2021-06-01T08:55:27.000Z</time>
      </trkpt>
      <trkpt lat="44.13157" lon="5.88388">
        <ele>940</ele>
        <time>2021-06-01T08:55:28.000Z</time>
      </trkpt>
      <trkpt lat="44.13157" lon="5.88388">
        <ele>940</ele>
        <time>2021-06-01T08:55:29.000Z</time>
      </trkpt>
      <trkpt lat="44.13157" lon="5.88387">
        <ele>940</ele>
        <time>2021-06-01T08:55:30.000Z</time>
      </trkpt>
      <trkpt lat="44.13157" lon="5.88388">
        <ele>940</ele>
        <time>2021-06-01T08:55:31.000Z</time>
      </trkpt>
      <trkpt lat="44.13157" lon="5.88388">
        <ele>940</ele>
        <time>2021-06-01T08:55:32.000Z</time>
      </trkpt>
      <trkpt lat="44.13157" lon="5.88388">
        <ele>940</ele>
        <time>2021-06-01T08:55:33.000Z</time>
      </trkpt>
      <trkpt lat="44.13157" lon="5.88388">
        <ele>940</ele>
        <time>2021-06-01T08:55:34.000Z</time>
      </trkpt>
      <trkpt lat="44.13157" lon="5.88388">
        <ele>940</ele>
        <time>2021-06-01T08:55:35.000Z</time>
      </trkpt>
      <trkpt lat="44.13157" lon="5.88387">
        <ele>940</ele>
        <time>2021-06-01T08:55:36.000Z</time>
      </trkpt>
      <trkpt lat="44.13158" lon="5.88387">
        <ele>940</ele>
        <time>2021-06-01T08:55:37.000Z</time>
      </trkpt>
      <trkpt lat="44.13158" lon="5.88387">
        <ele>940</ele>
        <time>2021-06-01T08:55:38.000Z</time>
      </trkpt>
      <trkpt lat="44.13158" lon="5.88387">
        <ele>940</ele>
        <time>2021-06-01T08:55:39.000Z</time>
      </trkpt>
      <trkpt lat="44.13158" lon="5.88387">
        <ele>940</ele>
        <time>2021-06-01T08:55:40.000Z</time>
      </trkpt>
      <trkpt lat="44.13158" lon="5.88387">
        <ele>940</ele>
        <time>2021-06-01T08:55:41.000Z</time>
      </trkpt>
      <trkpt lat="44.13158" lon="5.88387">
        <ele>940</ele>
        <time>2021-06-01T08:55:42.000Z</time>
      </trkpt>
      <trkpt lat="44.13158" lon="5.88387">
        <ele>940</ele>
        <time>2021-06-01T08:55:43.000Z</time>
      </trkpt>
      <trkpt lat="44.13158" lon="5.88387">
        <ele>940</ele>
        <time>2021-06-01T08:55:44.000Z</time>
      </trkpt>
      <trkpt lat="44.13157" lon="5.88388">
        <ele>940</ele>
        <time>2021-06-01T08:55:45.000Z</time>
      </trkpt>
      <trkpt lat="44.13158" lon="5.88388">
        <ele>940</ele>
        <time>2021-06-01T08:55:46.000Z</time>
      </trkpt>
      <trkpt lat="44.13158" lon="5.88388">
        <ele>940</ele>
        <time>2021-06-01T08:55:47.000Z</time>
      </trkpt>
      <trkpt lat="44.13158" lon="5.88387">
        <ele>940</ele>
        <time>2021-06-01T08:55:48.000Z</time>
      </trkpt>
      <trkpt lat="44.13158" lon="5.88387">
        <ele>940</ele>
        <time>2021-06-01T08:55:49.000Z</time>
      </trkpt>
      <trkpt lat="44.13158" lon="5.88387">
        <ele>940</ele>
        <time>2021-06-01T08:55:50.000Z</time>
      </trkpt>
      <trkpt lat="44.13158" lon="5.88387">
        <ele>940</ele>
        <time>2021-06-01T08:55:51.000Z</time>
      </trkpt>
      <trkpt lat="44.13157" lon="5.88387">
        <ele>940</ele>
        <time>2021-06-01T08:55:52.000Z</time>
      </trkpt>
      <trkpt lat="44.13157" lon="5.88387">
        <ele>940</ele>
        <time>2021-06-01T08:55:53.000Z</time>
      </trkpt>
      <trkpt lat="44.13157" lon="5.88387">
        <ele>940</ele>
        <time>2021-06-01T08:55:54.000Z</time>
      </trkpt>
      <trkpt lat="44.13157" lon="5.88387">
        <ele>940</ele>
        <time>2021-06-01T08:55:55.000Z</time>
      </trkpt>
      <trkpt lat="44.13157" lon="5.88387">
        <ele>940</ele>
        <time>2021-06-01T08:55:56.000Z</time>
      </trkpt>
      <trkpt lat="44.13157" lon="5.88387">
        <ele>940</ele>
        <time>2021-06-01T08:55:57.000Z</time>
      </trkpt>
      <trkpt lat="44.13157" lon="5.88387">
        <ele>940</ele>
        <time>2021-06-01T08:55:58.000Z</time>
      </trkpt>
      <trkpt lat="44.13157" lon="5.88387">
        <ele>940</ele>
        <time>2021-06-01T08:55:59.000Z</time>
      </trkpt>
      <trkpt lat="44.13157" lon="5.88388">
        <ele>940</ele>
        <time>2021-06-01T08:56:00.000Z</time>
      </trkpt>
      <trkpt lat="44.13157" lon="5.88388">
        <ele>940</ele>
        <time>2021-06-01T08:56:01.000Z</time>
      </trkpt>
      <trkpt lat="44.13158" lon="5.88388">
        <ele>940</ele>
        <time>2021-06-01T08:56:02.000Z</time>
      </trkpt>
      <trkpt lat="44.13158" lon="5.88387">
        <ele>940</ele>
        <time>2021-06-01T08:56:03.000Z</time>
      </trkpt>
      <trkpt lat="44.13158" lon="5.88387">
        <ele>940</ele>
        <time>2021-06-01T08:56:04.000Z</time>
      </trkpt>
      <trkpt lat="44.13158" lon="5.88387">
        <ele>940</ele>
        <time>2021-06-01T08:56:05.000Z</time>
      </trkpt>
      <trkpt lat="44.13158" lon="5.88387">
        <ele>940</ele>
        <time>2021-06-01T08:56:06.000Z</time>
      </trkpt>
      <trkpt lat="44.13158" lon="5.88387">
        <ele>940</ele>
        <time>2021-06-01T08:56:07.000Z</time>
      </trkpt>
      <trkpt lat="44.13158" lon="5.88387">
        <ele>940</ele>
        <time>2021-06-01T08:56:08.000Z</time>
      </trkpt>
      <trkpt lat="44.13158" lon="5.88387">
        <ele>940</ele>
        <time>2021-06-01T08:56:09.000Z</time>
      </trkpt>
      <trkpt lat="44.13158" lon="5.88387">
        <ele>940</ele>
        <time>2021-06-01T08:56:10.000Z</time>
      </trkpt>
      <trkpt lat="44.13158" lon="5.88387">
        <ele>940</ele>
        <time>2021-06-01T08:56:11.000Z</time>
      </trkpt>
      <trkpt lat="44.13158" lon="5.88387">
        <ele>940</ele>
        <time>2021-06-01T08:56:12.000Z</time>
      </trkpt>
      <trkpt lat="44.13157" lon="5.88387">
        <ele>940</ele>
        <time>2021-06-01T08:56:13.000Z</time>
      </trkpt>
      <trkpt lat="44.13157" lon="5.88387">
        <ele>940</ele>
        <time>2021-06-01T08:56:14.000Z</time>
      </trkpt>
      <trkpt lat="44.13157" lon="5.88387">
        <ele>940</ele>
        <time>2021-06-01T08:56:15.000Z</time>
      </trkpt>
      <trkpt lat="44.13157" lon="5.88387">
        <ele>940</ele>
        <time>2021-06-01T08:56:16.000Z</time>
      </trkpt>
      <trkpt lat="44.13157" lon="5.88387">
        <ele>940</ele>
        <time>2021-06-01T08:56:17.000Z</time>
      </trkpt>
      <trkpt lat="44.13157" lon="5.88387">
        <ele>940</ele>
        <time>2021-06-01T08:56:18.000Z</time>
      </trkpt>
      <trkpt lat="44.13157" lon="5.88387">
        <ele>940</ele>
        <time>2021-06-01T08:56:19.000Z</time>
      </trkpt>
      <trkpt lat="44.13157" lon="5.88387">
        <ele>940</ele>
        <time>2021-06-01T08:56:20.000Z</time>
      </trkpt>
      <trkpt lat="44.13157" lon="5.88387">
        <ele>940</ele>
        <time>2021-06-01T08:56:21.000Z</time>
      </trkpt>
      <trkpt lat="44.13157" lon="5.88387">
        <ele>940</ele>
        <time>2021-06-01T08:56:22.000Z</time>
      </trkpt>
      <trkpt lat="44.13157" lon="5.88387">
        <ele>940</ele>
        <time>2021-06-01T08:56:23.000Z</time>
      </trkpt>
      <trkpt lat="44.13157" lon="5.88387">
        <ele>940</ele>
        <time>2021-06-01T08:56:24.000Z</time>
      </trkpt>
      <trkpt lat="44.13157" lon="5.88387">
        <ele>940</ele>
        <time>2021-06-01T08:56:25.000Z</time>
      </trkpt>
      <trkpt lat="44.13157" lon="5.88387">
        <ele>940</ele>
        <time>2021-06-01T08:56:26.000Z</time>
      </trkpt>
      <trkpt lat="44.13157" lon="5.88386">
        <ele>940</ele>
        <time>2021-06-01T08:56:27.000Z</time>
      </trkpt>
      <trkpt lat="44.13156" lon="5.88386">
        <ele>940</ele>
        <time>2021-06-01T08:56:28.000Z</time>
      </trkpt>
      <trkpt lat="44.13156" lon="5.88385">
        <ele>940</ele>
        <time>2021-06-01T08:56:29.000Z</time>
      </trkpt>
      <trkpt lat="44.13155" lon="5.88385">
        <ele>940</ele>
        <time>2021-06-01T08:56:30.000Z</time>
      </trkpt>
      <trkpt lat="44.13155" lon="5.88384">
        <ele>940</ele>
        <time>2021-06-01T08:56:31.000Z</time>
      </trkpt>
      <trkpt lat="44.13154" lon="5.88383">
        <ele>939</ele>
        <time>2021-06-01T08:56:32.000Z</time>
      </trkpt>
      <trkpt lat="44.13154" lon="5.88383">
        <ele>939</ele>
        <time>2021-06-01T08:56:33.000Z</time>
      </trkpt>
      <trkpt lat="44.13153" lon="5.88382">
        <ele>939</ele>
        <time>2021-06-01T08:56:34.000Z</time>
      </trkpt>
      <trkpt lat="44.13153" lon="5.88382">
        <ele>939</ele>
        <time>2021-06-01T08:56:35.000Z</time>
      </trkpt>
      <trkpt lat="44.13153" lon="5.88382">
        <ele>939</ele>
        <time>2021-06-01T08:56:36.000Z</time>
      </trkpt>
      <trkpt lat="44.13153" lon="5.88382">
        <ele>939</ele>
        <time>2021-06-01T08:56:37.000Z</time>
      </trkpt>
      <trkpt lat="44.13153" lon="5.88381">
        <ele>939</ele>
        <time>2021-06-01T08:56:38.000Z</time>
      </trkpt>
      <trkpt lat="44.13153" lon="5.8838">
        <ele>939</ele>
        <time>2021-06-01T08:56:39.000Z</time>
      </trkpt>
      <trkpt lat="44.13152" lon="5.8838">
        <ele>939</ele>
        <time>2021-06-01T08:56:40.000Z</time>
      </trkpt>
      <trkpt lat="44.13151" lon="5.88379">
        <ele>939</ele>
        <time>2021-06-01T08:56:41.000Z</time>
      </trkpt>
      <trkpt lat="44.13151" lon="5.88378">
        <ele>939</ele>
        <time>2021-06-01T08:56:42.000Z</time>
      </trkpt>
      <trkpt lat="44.1315" lon="5.88378">
        <ele>939</ele>
        <time>2021-06-01T08:56:43.000Z</time>
      </trkpt>
      <trkpt lat="44.1315" lon="5.88377">
        <ele>939</ele>
        <time>2021-06-01T08:56:44.000Z</time>
      </trkpt>
      <trkpt lat="44.13149" lon="5.88376">
        <ele>939</ele>
        <time>2021-06-01T08:56:45.000Z</time>
      </trkpt>
      <trkpt lat="44.13148" lon="5.88376">
        <ele>939</ele>
        <time>2021-06-01T08:56:46.000Z</time>
      </trkpt>
      <trkpt lat="44.13148" lon="5.88375">
        <ele>939</ele>
        <time>2021-06-01T08:56:47.000Z</time>
      </trkpt>
      <trkpt lat="44.13147" lon="5.88374">
        <ele>939</ele>
        <time>2021-06-01T08:56:48.000Z</time>
      </trkpt>
      <trkpt lat="44.13146" lon="5.88374">
        <ele>939</ele>
        <time>2021-06-01T08:56:49.000Z</time>
      </trkpt>
      <trkpt lat="44.13146" lon="5.88373">
        <ele>939</ele>
        <time>2021-06-01T08:56:50.000Z</time>
      </trkpt>
      <trkpt lat="44.13145" lon="5.88372">
        <ele>939</ele>
        <time>2021-06-01T08:56:51.000Z</time>
      </trkpt>
      <trkpt lat="44.13144" lon="5.88371">
        <ele>939</ele>
        <time>2021-06-01T08:56:52.000Z</time>
      </trkpt>
      <trkpt lat="44.13144" lon="5.88371">
        <ele>938</ele>
        <time>2021-06-01T08:56:53.000Z</time>
      </trkpt>
      <trkpt lat="44.13143" lon="5.8837">
        <ele>938</ele>
        <time>2021-06-01T08:56:54.000Z</time>
      </trkpt>
      <trkpt lat="44.13142" lon="5.88369">
        <ele>938</ele>
        <time>2021-06-01T08:56:55.000Z</time>
      </trkpt>
      <trkpt lat="44.13141" lon="5.88369">
        <ele>938</ele>
        <time>2021-06-01T08:56:56.000Z</time>
      </trkpt>
      <trkpt lat="44.13141" lon="5.88369">
        <ele>938</ele>
        <time>2021-06-01T08:56:57.000Z</time>
      </trkpt>
      <trkpt lat="44.1314" lon="5.88368">
        <ele>938</ele>
        <time>2021-06-01T08:56:58.000Z</time>
      </trkpt>
      <trkpt lat="44.13139" lon="5.88368">
        <ele>938</ele>
        <time>2021-06-01T08:56:59.000Z</time>
      </trkpt>
      <trkpt lat="44.13138" lon="5.88368">
        <ele>938</ele>
        <time>2021-06-01T08:57:00.000Z</time>
      </trkpt>
      <trkpt lat="44.13138" lon="5.88367">
        <ele>938</ele>
        <time>2021-06-01T08:57:01.000Z</time>
      </trkpt>
      <trkpt lat="44.13137" lon="5.88367">
        <ele>937</ele>
        <time>2021-06-01T08:57:02.000Z</time>
      </trkpt>
      <trkpt lat="44.13136" lon="5.88367">
        <ele>937</ele>
        <time>2021-06-01T08:57:03.000Z</time>
      </trkpt>
      <trkpt lat="44.13135" lon="5.88366">
        <ele>937</ele>
        <time>2021-06-01T08:57:04.000Z</time>
      </trkpt>
      <trkpt lat="44.13134" lon="5.88366">
        <ele>937</ele>
        <time>2021-06-01T08:57:05.000Z</time>
      </trkpt>
      <trkpt lat="44.13134" lon="5.88366">
        <ele>937</ele>
        <time>2021-06-01T08:57:06.000Z</time>
      </trkpt>
      <trkpt lat="44.13133" lon="5.88366">
        <ele>937</ele>
        <time>2021-06-01T08:57:07.000Z</time>
      </trkpt>
      <trkpt lat="44.13132" lon="5.88365">
        <ele>937</ele>
        <time>2021-06-01T08:57:08.000Z</time>
      </trkpt>
      <trkpt lat="44.13131" lon="5.88365">
        <ele>937</ele>
        <time>2021-06-01T08:57:09.000Z</time>
      </trkpt>
      <trkpt lat="44.13131" lon="5.88364">
        <ele>936</ele>
        <time>2021-06-01T08:57:10.000Z</time>
      </trkpt>
      <trkpt lat="44.1313" lon="5.88364">
        <ele>936</ele>
        <time>2021-06-01T08:57:11.000Z</time>
      </trkpt>
      <trkpt lat="44.13129" lon="5.88363">
        <ele>936</ele>
        <time>2021-06-01T08:57:12.000Z</time>
      </trkpt>
      <trkpt lat="44.13128" lon="5.88363">
        <ele>936</ele>
        <time>2021-06-01T08:57:13.000Z</time>
      </trkpt>
      <trkpt lat="44.13127" lon="5.88363">
        <ele>936</ele>
        <time>2021-06-01T08:57:14.000Z</time>
      </trkpt>
      <trkpt lat="44.13126" lon="5.88362">
        <ele>936</ele>
        <time>2021-06-01T08:57:15.000Z</time>
      </trkpt>
      <trkpt lat="44.13126" lon="5.88362">
        <ele>936</ele>
        <time>2021-06-01T08:57:16.000Z</time>
      </trkpt>
      <trkpt lat="44.13125" lon="5.88362">
        <ele>935</ele>
        <time>2021-06-01T08:57:17.000Z</time>
      </trkpt>
      <trkpt lat="44.13124" lon="5.88362">
        <ele>935</ele>
        <time>2021-06-01T08:57:18.000Z</time>
      </trkpt>
      <trkpt lat="44.13123" lon="5.88361">
        <ele>935</ele>
        <time>2021-06-01T08:57:19.000Z</time>
      </trkpt>
      <trkpt lat="44.13122" lon="5.88361">
        <ele>935</ele>
        <time>2021-06-01T08:57:20.000Z</time>
      </trkpt>
      <trkpt lat="44.13121" lon="5.88361">
        <ele>935</ele>
        <time>2021-06-01T08:57:21.000Z</time>
      </trkpt>
      <trkpt lat="44.1312" lon="5.88361">
        <ele>935</ele>
        <time>2021-06-01T08:57:22.000Z</time>
      </trkpt>
      <trkpt lat="44.1312" lon="5.8836">
        <ele>935</ele>
        <time>2021-06-01T08:57:23.000Z</time>
      </trkpt>
      <trkpt lat="44.13119" lon="5.8836">
        <ele>935</ele>
        <time>2021-06-01T08:57:24.000Z</time>
      </trkpt>
      <trkpt lat="44.13118" lon="5.8836">
        <ele>934</ele>
        <time>2021-06-01T08:57:25.000Z</time>
      </trkpt>
      <trkpt lat="44.13117" lon="5.8836">
        <ele>934</ele>
        <time>2021-06-01T08:57:26.000Z</time>
      </trkpt>
      <trkpt lat="44.13116" lon="5.88359">
        <ele>934</ele>
        <time>2021-06-01T08:57:27.000Z</time>
      </trkpt>
      <trkpt lat="44.13115" lon="5.88359">
        <ele>934</ele>
        <time>2021-06-01T08:57:28.000Z</time>
      </trkpt>
      <trkpt lat="44.13114" lon="5.88359">
        <ele>934</ele>
        <time>2021-06-01T08:57:29.000Z</time>
      </trkpt>
      <trkpt lat="44.13114" lon="5.88358">
        <ele>934</ele>
        <time>2021-06-01T08:57:30.000Z</time>
      </trkpt>
      <trkpt lat="44.13113" lon="5.88358">
        <ele>934</ele>
        <time>2021-06-01T08:57:31.000Z</time>
      </trkpt>
      <trkpt lat="44.13112" lon="5.88358">
        <ele>934</ele>
        <time>2021-06-01T08:57:32.000Z</time>
      </trkpt>
      <trkpt lat="44.13111" lon="5.88357">
        <ele>933</ele>
        <time>2021-06-01T08:57:33.000Z</time>
      </trkpt>
      <trkpt lat="44.1311" lon="5.88357">
        <ele>933</ele>
        <time>2021-06-01T08:57:34.000Z</time>
      </trkpt>
      <trkpt lat="44.13109" lon="5.88356">
        <ele>933</ele>
        <time>2021-06-01T08:57:35.000Z</time>
      </trkpt>
      <trkpt lat="44.13108" lon="5.88356">
        <ele>933</ele>
        <time>2021-06-01T08:57:36.000Z</time>
      </trkpt>
      <trkpt lat="44.13108" lon="5.88355">
        <ele>933</ele>
        <time>2021-06-01T08:57:37.000Z</time>
      </trkpt>
      <trkpt lat="44.13107" lon="5.88355">
        <ele>933</ele>
        <time>2021-06-01T08:57:38.000Z</time>
      </trkpt>
      <trkpt lat="44.13106" lon="5.88354">
        <ele>933</ele>
        <time>2021-06-01T08:57:39.000Z</time>
      </trkpt>
      <trkpt lat="44.13105" lon="5.88354">
        <ele>932</ele>
        <time>2021-06-01T08:57:40.000Z</time>
      </trkpt>
      <trkpt lat="44.13105" lon="5.88354">
        <ele>932</ele>
        <time>2021-06-01T08:57:41.000Z</time>
      </trkpt>
      <trkpt lat="44.13104" lon="5.88353">
        <ele>932</ele>
        <time>2021-06-01T08:57:42.000Z</time>
      </trkpt>
      <trkpt lat="44.13103" lon="5.88352">
        <ele>932</ele>
        <time>2021-06-01T08:57:43.000Z</time>
      </trkpt>
      <trkpt lat="44.13102" lon="5.88352">
        <ele>932</ele>
        <time>2021-06-01T08:57:44.000Z</time>
      </trkpt>
      <trkpt lat="44.13101" lon="5.88351">
        <ele>932</ele>
        <time>2021-06-01T08:57:45.000Z</time>
      </trkpt>
      <trkpt lat="44.13101" lon="5.88351">
        <ele>932</ele>
        <time>2021-06-01T08:57:46.000Z</time>
      </trkpt>
      <trkpt lat="44.131" lon="5.8835">
        <ele>932</ele>
        <time>2021-06-01T08:57:47.000Z</time>
      </trkpt>
      <trkpt lat="44.13099" lon="5.8835">
        <ele>932</ele>
        <time>2021-06-01T08:57:48.000Z</time>
      </trkpt>
      <trkpt lat="44.13098" lon="5.88349">
        <ele>931</ele>
        <time>2021-06-01T08:57:49.000Z</time>
      </trkpt>
      <trkpt lat="44.13098" lon="5.88348">
        <ele>931</ele>
        <time>2021-06-01T08:57:50.000Z</time>
      </trkpt>
      <trkpt lat="44.13097" lon="5.88348">
        <ele>931</ele>
        <time>2021-06-01T08:57:51.000Z</time>
      </trkpt>
      <trkpt lat="44.13096" lon="5.88347">
        <ele>931</ele>
        <time>2021-06-01T08:57:52.000Z</time>
      </trkpt>
      <trkpt lat="44.13095" lon="5.88346">
        <ele>931</ele>
        <time>2021-06-01T08:57:53.000Z</time>
      </trkpt>
      <trkpt lat="44.13095" lon="5.88346">
        <ele>931</ele>
        <time>2021-06-01T08:57:54.000Z</time>
      </trkpt>
      <trkpt lat="44.13094" lon="5.88346">
        <ele>931</ele>
        <time>2021-06-01T08:57:55.000Z</time>
      </trkpt>
      <trkpt lat="44.13093" lon="5.88345">
        <ele>930</ele>
        <time>2021-06-01T08:57:56.000Z</time>
      </trkpt>
      <trkpt lat="44.13092" lon="5.88345">
        <ele>930</ele>
        <time>2021-06-01T08:57:57.000Z</time>
      </trkpt>
      <trkpt lat="44.13091" lon="5.88344">
        <ele>930</ele>
        <time>2021-06-01T08:57:58.000Z</time>
      </trkpt>
      <trkpt lat="44.13091" lon="5.88344">
        <ele>930</ele>
        <time>2021-06-01T08:57:59.000Z</time>
      </trkpt>
      <trkpt lat="44.1309" lon="5.88343">
        <ele>930</ele>
        <time>2021-06-01T08:58:00.000Z</time>
      </trkpt>
      <trkpt lat="44.13089" lon="5.88343">
        <ele>930</ele>
        <time>2021-06-01T08:58:01.000Z</time>
      </trkpt>
      <trkpt lat="44.13089" lon="5.88342">
        <ele>929</ele>
        <time>2021-06-01T08:58:02.000Z</time>
      </trkpt>
      <trkpt lat="44.13088" lon="5.88342">
        <ele>929</ele>
        <time>2021-06-01T08:58:03.000Z</time>
      </trkpt>
      <trkpt lat="44.13087" lon="5.88341">
        <ele>929</ele>
        <time>2021-06-01T08:58:04.000Z</time>
      </trkpt>
      <trkpt lat="44.13086" lon="5.8834">
        <ele>929</ele>
        <time>2021-06-01T08:58:05.000Z</time>
      </trkpt>
      <trkpt lat="44.13085" lon="5.8834">
        <ele>929</ele>
        <time>2021-06-01T08:58:06.000Z</time>
      </trkpt>
      <trkpt lat="44.13085" lon="5.88339">
        <ele>929</ele>
        <time>2021-06-01T08:58:07.000Z</time>
      </trkpt>
      <trkpt lat="44.13084" lon="5.88339">
        <ele>929</ele>
        <time>2021-06-01T08:58:08.000Z</time>
      </trkpt>
      <trkpt lat="44.13083" lon="5.88338">
        <ele>929</ele>
        <time>2021-06-01T08:58:09.000Z</time>
      </trkpt>
      <trkpt lat="44.13082" lon="5.88337">
        <ele>929</ele>
        <time>2021-06-01T08:58:10.000Z</time>
      </trkpt>
      <trkpt lat="44.13081" lon="5.88336">
        <ele>928</ele>
        <time>2021-06-01T08:58:11.000Z</time>
      </trkpt>
      <trkpt lat="44.13081" lon="5.88336">
        <ele>928</ele>
        <time>2021-06-01T08:58:12.000Z</time>
      </trkpt>
      <trkpt lat="44.1308" lon="5.88335">
        <ele>928</ele>
        <time>2021-06-01T08:58:13.000Z</time>
      </trkpt>
      <trkpt lat="44.13079" lon="5.88334">
        <ele>928</ele>
        <time>2021-06-01T08:58:14.000Z</time>
      </trkpt>
      <trkpt lat="44.13078" lon="5.88333">
        <ele>928</ele>
        <time>2021-06-01T08:58:15.000Z</time>
      </trkpt>
      <trkpt lat="44.13078" lon="5.88333">
        <ele>928</ele>
        <time>2021-06-01T08:58:16.000Z</time>
      </trkpt>
      <trkpt lat="44.13077" lon="5.88332">
        <ele>928</ele>
        <time>2021-06-01T08:58:17.000Z</time>
      </trkpt>
      <trkpt lat="44.13076" lon="5.88331">
        <ele>928</ele>
        <time>2021-06-01T08:58:18.000Z</time>
      </trkpt>
      <trkpt lat="44.13076" lon="5.8833">
        <ele>928</ele>
        <time>2021-06-01T08:58:19.000Z</time>
      </trkpt>
      <trkpt lat="44.13075" lon="5.88329">
        <ele>928</ele>
        <time>2021-06-01T08:58:20.000Z</time>
      </trkpt>
      <trkpt lat="44.13074" lon="5.88328">
        <ele>928</ele>
        <time>2021-06-01T08:58:21.000Z</time>
      </trkpt>
      <trkpt lat="44.13074" lon="5.88327">
        <ele>928</ele>
        <time>2021-06-01T08:58:22.000Z</time>
      </trkpt>
      <trkpt lat="44.13073" lon="5.88327">
        <ele>928</ele>
        <time>2021-06-01T08:58:23.000Z</time>
      </trkpt>
      <trkpt lat="44.13072" lon="5.88326">
        <ele>928</ele>
        <time>2021-06-01T08:58:24.000Z</time>
      </trkpt>
      <trkpt lat="44.13072" lon="5.88325">
        <ele>928</ele>
        <time>2021-06-01T08:58:25.000Z</time>
      </trkpt>
      <trkpt lat="44.13071" lon="5.88324">
        <ele>928</ele>
        <time>2021-06-01T08:58:26.000Z</time>
      </trkpt>
      <trkpt lat="44.1307" lon="5.88323">
        <ele>928</ele>
        <time>2021-06-01T08:58:27.000Z</time>
      </trkpt>
      <trkpt lat="44.1307" lon="5.88322">
        <ele>928</ele>
        <time>2021-06-01T08:58:28.000Z</time>
      </trkpt>
      <trkpt lat="44.13069" lon="5.88321">
        <ele>928</ele>
        <time>2021-06-01T08:58:29.000Z</time>
      </trkpt>
      <trkpt lat="44.13068" lon="5.8832">
        <ele>928</ele>
        <time>2021-06-01T08:58:30.000Z</time>
      </trkpt>
      <trkpt lat="44.13068" lon="5.88319">
        <ele>928</ele>
        <time>2021-06-01T08:58:31.000Z</time>
      </trkpt>
      <trkpt lat="44.13067" lon="5.88318">
        <ele>928</ele>
        <time>2021-06-01T08:58:32.000Z</time>
      </trkpt>
      <trkpt lat="44.13066" lon="5.88318">
        <ele>928</ele>
        <time>2021-06-01T08:58:33.000Z</time>
      </trkpt>
      <trkpt lat="44.13066" lon="5.88317">
        <ele>928</ele>
        <time>2021-06-01T08:58:34.000Z</time>
      </trkpt>
      <trkpt lat="44.13065" lon="5.88316">
        <ele>927</ele>
        <time>2021-06-01T08:58:35.000Z</time>
      </trkpt>
      <trkpt lat="44.13064" lon="5.88315">
        <ele>927</ele>
        <time>2021-06-01T08:58:36.000Z</time>
      </trkpt>
      <trkpt lat="44.13064" lon="5.88314">
        <ele>927</ele>
        <time>2021-06-01T08:58:37.000Z</time>
      </trkpt>
      <trkpt lat="44.13063" lon="5.88313">
        <ele>927</ele>
        <time>2021-06-01T08:58:38.000Z</time>
      </trkpt>
      <trkpt lat="44.13062" lon="5.88312">
        <ele>927</ele>
        <time>2021-06-01T08:58:39.000Z</time>
      </trkpt>
      <trkpt lat="44.13061" lon="5.8831">
        <ele>927</ele>
        <time>2021-06-01T08:58:40.000Z</time>
      </trkpt>
      <trkpt lat="44.13061" lon="5.88309">
        <ele>927</ele>
        <time>2021-06-01T08:58:41.000Z</time>
      </trkpt>
      <trkpt lat="44.1306" lon="5.88308">
        <ele>927</ele>
        <time>2021-06-01T08:58:42.000Z</time>
      </trkpt>
      <trkpt lat="44.13059" lon="5.88307">
        <ele>927</ele>
        <time>2021-06-01T08:58:43.000Z</time>
      </trkpt>
      <trkpt lat="44.13059" lon="5.88306">
        <ele>927</ele>
        <time>2021-06-01T08:58:44.000Z</time>
      </trkpt>
      <trkpt lat="44.13058" lon="5.88305">
        <ele>927</ele>
        <time>2021-06-01T08:58:45.000Z</time>
      </trkpt>
      <trkpt lat="44.13058" lon="5.88304">
        <ele>927</ele>
        <time>2021-06-01T08:58:46.000Z</time>
      </trkpt>
      <trkpt lat="44.13057" lon="5.88303">
        <ele>926</ele>
        <time>2021-06-01T08:58:47.000Z</time>
      </trkpt>
      <trkpt lat="44.13056" lon="5.88302">
        <ele>926</ele>
        <time>2021-06-01T08:58:48.000Z</time>
      </trkpt>
      <trkpt lat="44.13056" lon="5.88301">
        <ele>926</ele>
        <time>2021-06-01T08:58:49.000Z</time>
      </trkpt>
      <trkpt lat="44.13055" lon="5.883">
        <ele>926</ele>
        <time>2021-06-01T08:58:50.000Z</time>
      </trkpt>
      <trkpt lat="44.13054" lon="5.88299">
        <ele>926</ele>
        <time>2021-06-01T08:58:51.000Z</time>
      </trkpt>
      <trkpt lat="44.13054" lon="5.88298">
        <ele>926</ele>
        <time>2021-06-01T08:58:52.000Z</time>
      </trkpt>
      <trkpt lat="44.13053" lon="5.88297">
        <ele>926</ele>
        <time>2021-06-01T08:58:53.000Z</time>
      </trkpt>
      <trkpt lat="44.13052" lon="5.88296">
        <ele>926</ele>
        <time>2021-06-01T08:58:54.000Z</time>
      </trkpt>
      <trkpt lat="44.13052" lon="5.88295">
        <ele>926</ele>
        <time>2021-06-01T08:58:55.000Z</time>
      </trkpt>
      <trkpt lat="44.13051" lon="5.88294">
        <ele>926</ele>
        <time>2021-06-01T08:58:56.000Z</time>
      </trkpt>
      <trkpt lat="44.13051" lon="5.88293">
        <ele>926</ele>
        <time>2021-06-01T08:58:57.000Z</time>
      </trkpt>
      <trkpt lat="44.1305" lon="5.88292">
        <ele>925</ele>
        <time>2021-06-01T08:58:58.000Z</time>
      </trkpt>
      <trkpt lat="44.13049" lon="5.88291">
        <ele>925</ele>
        <time>2021-06-01T08:58:59.000Z</time>
      </trkpt>
      <trkpt lat="44.13049" lon="5.8829">
        <ele>925</ele>
        <time>2021-06-01T08:59:00.000Z</time>
      </trkpt>
      <trkpt lat="44.13048" lon="5.88289">
        <ele>925</ele>
        <time>2021-06-01T08:59:01.000Z</time>
      </trkpt>
      <trkpt lat="44.13047" lon="5.88289">
        <ele>925</ele>
        <time>2021-06-01T08:59:02.000Z</time>
      </trkpt>
      <trkpt lat="44.13047" lon="5.88288">
        <ele>925</ele>
        <time>2021-06-01T08:59:03.000Z</time>
      </trkpt>
      <trkpt lat="44.13046" lon="5.88287">
        <ele>925</ele>
        <time>2021-06-01T08:59:04.000Z</time>
      </trkpt>
      <trkpt lat="44.13045" lon="5.88286">
        <ele>925</ele>
        <time>2021-06-01T08:59:05.000Z</time>
      </trkpt>
      <trkpt lat="44.13045" lon="5.88285">
        <ele>924</ele>
        <time>2021-06-01T08:59:06.000Z</time>
      </trkpt>
      <trkpt lat="44.13044" lon="5.88284">
        <ele>924</ele>
        <time>2021-06-01T08:59:07.000Z</time>
      </trkpt>
      <trkpt lat="44.13043" lon="5.88283">
        <ele>924</ele>
        <time>2021-06-01T08:59:08.000Z</time>
      </trkpt>
      <trkpt lat="44.13042" lon="5.88283">
        <ele>924</ele>
        <time>2021-06-01T08:59:09.000Z</time>
      </trkpt>
      <trkpt lat="44.13041" lon="5.88282">
        <ele>924</ele>
        <time>2021-06-01T08:59:10.000Z</time>
      </trkpt>
      <trkpt lat="44.13041" lon="5.88281">
        <ele>924</ele>
        <time>2021-06-01T08:59:11.000Z</time>
      </trkpt>
      <trkpt lat="44.1304" lon="5.8828">
        <ele>924</ele>
        <time>2021-06-01T08:59:12.000Z</time>
      </trkpt>
      <trkpt lat="44.13039" lon="5.88279">
        <ele>923</ele>
        <time>2021-06-01T08:59:13.000Z</time>
      </trkpt>
      <trkpt lat="44.13039" lon="5.88279">
        <ele>923</ele>
        <time>2021-06-01T08:59:14.000Z</time>
      </trkpt>
      <trkpt lat="44.13038" lon="5.88278">
        <ele>923</ele>
        <time>2021-06-01T08:59:15.000Z</time>
      </trkpt>
      <trkpt lat="44.13037" lon="5.88277">
        <ele>923</ele>
        <time>2021-06-01T08:59:16.000Z</time>
      </trkpt>
      <trkpt lat="44.13037" lon="5.88276">
        <ele>923</ele>
        <time>2021-06-01T08:59:17.000Z</time>
      </trkpt>
      <trkpt lat="44.13036" lon="5.88275">
        <ele>923</ele>
        <time>2021-06-01T08:59:18.000Z</time>
      </trkpt>
      <trkpt lat="44.13035" lon="5.88275">
        <ele>923</ele>
        <time>2021-06-01T08:59:19.000Z</time>
      </trkpt>
      <trkpt lat="44.13035" lon="5.88274">
        <ele>923</ele>
        <time>2021-06-01T08:59:20.000Z</time>
      </trkpt>
      <trkpt lat="44.13034" lon="5.88273">
        <ele>923</ele>
        <time>2021-06-01T08:59:21.000Z</time>
      </trkpt>
      <trkpt lat="44.13033" lon="5.88273">
        <ele>922</ele>
        <time>2021-06-01T08:59:22.000Z</time>
      </trkpt>
      <trkpt lat="44.13032" lon="5.88272">
        <ele>922</ele>
        <time>2021-06-01T08:59:23.000Z</time>
      </trkpt>
      <trkpt lat="44.13031" lon="5.88271">
        <ele>922</ele>
        <time>2021-06-01T08:59:24.000Z</time>
      </trkpt>
      <trkpt lat="44.13031" lon="5.8827">
        <ele>922</ele>
        <time>2021-06-01T08:59:25.000Z</time>
      </trkpt>
      <trkpt lat="44.1303" lon="5.88269">
        <ele>922</ele>
        <time>2021-06-01T08:59:26.000Z</time>
      </trkpt>
      <trkpt lat="44.1303" lon="5.88268">
        <ele>922</ele>
        <time>2021-06-01T08:59:27.000Z</time>
      </trkpt>
      <trkpt lat="44.13029" lon="5.88267">
        <ele>921</ele>
        <time>2021-06-01T08:59:28.000Z</time>
      </trkpt>
      <trkpt lat="44.13028" lon="5.88266">
        <ele>921</ele>
        <time>2021-06-01T08:59:29.000Z</time>
      </trkpt>
      <trkpt lat="44.13028" lon="5.88265">
        <ele>921</ele>
        <time>2021-06-01T08:59:30.000Z</time>
      </trkpt>
      <trkpt lat="44.13027" lon="5.88264">
        <ele>921</ele>
        <time>2021-06-01T08:59:31.000Z</time>
      </trkpt>
      <trkpt lat="44.13026" lon="5.88263">
        <ele>921</ele>
        <time>2021-06-01T08:59:32.000Z</time>
      </trkpt>
      <trkpt lat="44.13026" lon="5.88263">
        <ele>921</ele>
        <time>2021-06-01T08:59:33.000Z</time>
      </trkpt>
      <trkpt lat="44.13025" lon="5.88262">
        <ele>921</ele>
        <time>2021-06-01T08:59:34.000Z</time>
      </trkpt>
      <trkpt lat="44.13024" lon="5.88261">
        <ele>921</ele>
        <time>2021-06-01T08:59:35.000Z</time>
      </trkpt>
      <trkpt lat="44.13024" lon="5.8826">
        <ele>921</ele>
        <time>2021-06-01T08:59:36.000Z</time>
      </trkpt>
      <trkpt lat="44.13023" lon="5.88259">
        <ele>921</ele>
        <time>2021-06-01T08:59:37.000Z</time>
      </trkpt>
      <trkpt lat="44.13023" lon="5.88258">
        <ele>921</ele>
        <time>2021-06-01T08:59:38.000Z</time>
      </trkpt>
      <trkpt lat="44.13022" lon="5.88257">
        <ele>920</ele>
        <time>2021-06-01T08:59:39.000Z</time>
      </trkpt>
      <trkpt lat="44.13021" lon="5.88256">
        <ele>920</ele>
        <time>2021-06-01T08:59:40.000Z</time>
      </trkpt>
      <trkpt lat="44.13021" lon="5.88255">
        <ele>920</ele>
        <time>2021-06-01T08:59:41.000Z</time>
      </trkpt>
      <trkpt lat="44.1302" lon="5.88254">
        <ele>920</ele>
        <time>2021-06-01T08:59:42.000Z</time>
      </trkpt>
      <trkpt lat="44.13019" lon="5.88253">
        <ele>920</ele>
        <time>2021-06-01T08:59:43.000Z</time>
      </trkpt>
      <trkpt lat="44.13019" lon="5.88252">
        <ele>920</ele>
        <time>2021-06-01T08:59:44.000Z</time>
      </trkpt>
      <trkpt lat="44.13018" lon="5.88251">
        <ele>920</ele>
        <time>2021-06-01T08:59:45.000Z</time>
      </trkpt>
      <trkpt lat="44.13018" lon="5.8825">
        <ele>920</ele>
        <time>2021-06-01T08:59:46.000Z</time>
      </trkpt>
      <trkpt lat="44.13018" lon="5.8825">
        <ele>920</ele>
        <time>2021-06-01T08:59:47.000Z</time>
      </trkpt>
      <trkpt lat="44.13018" lon="5.8825">
        <ele>920</ele>
        <time>2021-06-01T08:59:48.000Z</time>
      </trkpt>
      <trkpt lat="44.13018" lon="5.88249">
        <ele>920</ele>
        <time>2021-06-01T08:59:49.000Z</time>
      </trkpt>
      <trkpt lat="44.13018" lon="5.88249">
        <ele>920</ele>
        <time>2021-06-01T08:59:50.000Z</time>
      </trkpt>
      <trkpt lat="44.13018" lon="5.88249">
        <ele>920</ele>
        <time>2021-06-01T08:59:51.000Z</time>
      </trkpt>
      <trkpt lat="44.13018" lon="5.88249">
        <ele>920</ele>
        <time>2021-06-01T08:59:52.000Z</time>
      </trkpt>
      <trkpt lat="44.13017" lon="5.88249">
        <ele>919</ele>
        <time>2021-06-01T08:59:53.000Z</time>
      </trkpt>
      <trkpt lat="44.13016" lon="5.88248">
        <ele>919</ele>
        <time>2021-06-01T08:59:54.000Z</time>
      </trkpt>
      <trkpt lat="44.13016" lon="5.88247">
        <ele>919</ele>
        <time>2021-06-01T08:59:55.000Z</time>
      </trkpt>
      <trkpt lat="44.13015" lon="5.88246">
        <ele>919</ele>
        <time>2021-06-01T08:59:56.000Z</time>
      </trkpt>
      <trkpt lat="44.13014" lon="5.88246">
        <ele>919</ele>
        <time>2021-06-01T08:59:57.000Z</time>
      </trkpt>
      <trkpt lat="44.13013" lon="5.88245">
        <ele>919</ele>
        <time>2021-06-01T08:59:58.000Z</time>
      </trkpt>
      <trkpt lat="44.13013" lon="5.88244">
        <ele>919</ele>
        <time>2021-06-01T08:59:59.000Z</time>
      </trkpt>
      <trkpt lat="44.13012" lon="5.88243">
        <ele>919</ele>
        <time>2021-06-01T09:00:00.000Z</time>
      </trkpt>
      <trkpt lat="44.13011" lon="5.88242">
        <ele>919</ele>
        <time>2021-06-01T09:00:01.000Z</time>
      </trkpt>
      <trkpt lat="44.13011" lon="5.88241">
        <ele>919</ele>
        <time>2021-06-01T09:00:02.000Z</time>
      </trkpt>
      <trkpt lat="44.1301" lon="5.8824">
        <ele>918</ele>
        <time>2021-06-01T09:00:03.000Z</time>
      </trkpt>
      <trkpt lat="44.1301" lon="5.8824">
        <ele>918</ele>
        <time>2021-06-01T09:00:04.000Z</time>
      </trkpt>
      <trkpt lat="44.13009" lon="5.88239">
        <ele>918</ele>
        <time>2021-06-01T09:00:05.000Z</time>
      </trkpt>
      <trkpt lat="44.13008" lon="5.88239">
        <ele>918</ele>
        <time>2021-06-01T09:00:06.000Z</time>
      </trkpt>
      <trkpt lat="44.13008" lon="5.88238">
        <ele>918</ele>
        <time>2021-06-01T09:00:07.000Z</time>
      </trkpt>
      <trkpt lat="44.13007" lon="5.88238">
        <ele>918</ele>
        <time>2021-06-01T09:00:08.000Z</time>
      </trkpt>
      <trkpt lat="44.13006" lon="5.88237">
        <ele>918</ele>
        <time>2021-06-01T09:00:09.000Z</time>
      </trkpt>
      <trkpt lat="44.13005" lon="5.88236">
        <ele>918</ele>
        <time>2021-06-01T09:00:10.000Z</time>
      </trkpt>
      <trkpt lat="44.13004" lon="5.88235">
        <ele>918</ele>
        <time>2021-06-01T09:00:11.000Z</time>
      </trkpt>
      <trkpt lat="44.13003" lon="5.88235">
        <ele>918</ele>
        <time>2021-06-01T09:00:12.000Z</time>
      </trkpt>
      <trkpt lat="44.13002" lon="5.88234">
        <ele>918</ele>
        <time>2021-06-01T09:00:13.000Z</time>
      </trkpt>
      <trkpt lat="44.13002" lon="5.88232">
        <ele>918</ele>
        <time>2021-06-01T09:00:14.000Z</time>
      </trkpt>
      <trkpt lat="44.13001" lon="5.88232">
        <ele>918</ele>
        <time>2021-06-01T09:00:15.000Z</time>
      </trkpt>
      <trkpt lat="44.13" lon="5.88231">
        <ele>918</ele>
        <time>2021-06-01T09:00:16.000Z</time>
      </trkpt>
      <trkpt lat="44.12999" lon="5.88231">
        <ele>918</ele>
        <time>2021-06-01T09:00:17.000Z</time>
      </trkpt>
      <trkpt lat="44.12998" lon="5.8823">
        <ele>918</ele>
        <time>2021-06-01T09:00:18.000Z</time>
      </trkpt>
      <trkpt lat="44.12997" lon="5.88229">
        <ele>918</ele>
        <time>2021-06-01T09:00:19.000Z</time>
      </trkpt>
      <trkpt lat="44.12996" lon="5.88228">
        <ele>918</ele>
        <time>2021-06-01T09:00:20.000Z</time>
      </trkpt>
      <trkpt lat="44.12995" lon="5.88228">
        <ele>918</ele>
        <time>2021-06-01T09:00:21.000Z</time>
      </trkpt>
      <trkpt lat="44.12995" lon="5.88227">
        <ele>917</ele>
        <time>2021-06-01T09:00:22.000Z</time>
      </trkpt>
      <trkpt lat="44.12994" lon="5.88226">
        <ele>917</ele>
        <time>2021-06-01T09:00:23.000Z</time>
      </trkpt>
      <trkpt lat="44.12993" lon="5.88225">
        <ele>917</ele>
        <time>2021-06-01T09:00:24.000Z</time>
      </trkpt>
      <trkpt lat="44.12992" lon="5.88224">
        <ele>917</ele>
        <time>2021-06-01T09:00:25.000Z</time>
      </trkpt>
      <trkpt lat="44.12991" lon="5.88224">
        <ele>917</ele>
        <time>2021-06-01T09:00:26.000Z</time>
      </trkpt>
      <trkpt lat="44.12991" lon="5.88223">
        <ele>917</ele>
        <time>2021-06-01T09:00:27.000Z</time>
      </trkpt>
      <trkpt lat="44.1299" lon="5.88222">
        <ele>917</ele>
        <time>2021-06-01T09:00:28.000Z</time>
      </trkpt>
      <trkpt lat="44.12989" lon="5.88221">
        <ele>916</ele>
        <time>2021-06-01T09:00:29.000Z</time>
      </trkpt>
      <trkpt lat="44.12989" lon="5.8822">
        <ele>916</ele>
        <time>2021-06-01T09:00:30.000Z</time>
      </trkpt>
      <trkpt lat="44.12988" lon="5.88219">
        <ele>916</ele>
        <time>2021-06-01T09:00:31.000Z</time>
      </trkpt>
      <trkpt lat="44.12987" lon="5.88218">
        <ele>916</ele>
        <time>2021-06-01T09:00:32.000Z</time>
      </trkpt>
      <trkpt lat="44.12986" lon="5.88217">
        <ele>916</ele>
        <time>2021-06-01T09:00:33.000Z</time>
      </trkpt>
      <trkpt lat="44.12986" lon="5.88216">
        <ele>916</ele>
        <time>2021-06-01T09:00:34.000Z</time>
      </trkpt>
      <trkpt lat="44.12985" lon="5.88216">
        <ele>916</ele>
        <time>2021-06-01T09:00:35.000Z</time>
      </trkpt>
      <trkpt lat="44.12984" lon="5.88215">
        <ele>916</ele>
        <time>2021-06-01T09:00:36.000Z</time>
      </trkpt>
      <trkpt lat="44.12983" lon="5.88214">
        <ele>915</ele>
        <time>2021-06-01T09:00:37.000Z</time>
      </trkpt>
      <trkpt lat="44.12982" lon="5.88214">
        <ele>915</ele>
        <time>2021-06-01T09:00:38.000Z</time>
      </trkpt>
      <trkpt lat="44.12981" lon="5.88213">
        <ele>915</ele>
        <time>2021-06-01T09:00:39.000Z</time>
      </trkpt>
      <trkpt lat="44.1298" lon="5.88212">
        <ele>915</ele>
        <time>2021-06-01T09:00:40.000Z</time>
      </trkpt>
      <trkpt lat="44.1298" lon="5.88211">
        <ele>915</ele>
        <time>2021-06-01T09:00:41.000Z</time>
      </trkpt>
      <trkpt lat="44.12979" lon="5.88211">
        <ele>915</ele>
        <time>2021-06-01T09:00:42.000Z</time>
      </trkpt>
      <trkpt lat="44.12978" lon="5.8821">
        <ele>914</ele>
        <time>2021-06-01T09:00:43.000Z</time>
      </trkpt>
      <trkpt lat="44.12977" lon="5.88209">
        <ele>914</ele>
        <time>2021-06-01T09:00:44.000Z</time>
      </trkpt>
      <trkpt lat="44.12976" lon="5.88208">
        <ele>914</ele>
        <time>2021-06-01T09:00:45.000Z</time>
      </trkpt>
      <trkpt lat="44.12975" lon="5.88208">
        <ele>914</ele>
        <time>2021-06-01T09:00:46.000Z</time>
      </trkpt>
      <trkpt lat="44.12974" lon="5.88207">
        <ele>914</ele>
        <time>2021-06-01T09:00:47.000Z</time>
      </trkpt>
      <trkpt lat="44.12973" lon="5.88206">
        <ele>914</ele>
        <time>2021-06-01T09:00:48.000Z</time>
      </trkpt>
      <trkpt lat="44.12972" lon="5.88206">
        <ele>913</ele>
        <time>2021-06-01T09:00:49.000Z</time>
      </trkpt>
      <trkpt lat="44.12972" lon="5.88205">
        <ele>913</ele>
        <time>2021-06-01T09:00:50.000Z</time>
      </trkpt>
      <trkpt lat="44.12971" lon="5.88204">
        <ele>913</ele>
        <time>2021-06-01T09:00:51.000Z</time>
      </trkpt>
      <trkpt lat="44.1297" lon="5.88204">
        <ele>913</ele>
        <time>2021-06-01T09:00:52.000Z</time>
      </trkpt>
      <trkpt lat="44.12969" lon="5.88203">
        <ele>913</ele>
        <time>2021-06-01T09:00:53.000Z</time>
      </trkpt>
      <trkpt lat="44.12969" lon="5.88203">
        <ele>913</ele>
        <time>2021-06-01T09:00:54.000Z</time>
      </trkpt>
      <trkpt lat="44.12968" lon="5.88203">
        <ele>912</ele>
        <time>2021-06-01T09:00:55.000Z</time>
      </trkpt>
      <trkpt lat="44.12968" lon="5.88203">
        <ele>912</ele>
        <time>2021-06-01T09:00:56.000Z</time>
      </trkpt>
      <trkpt lat="44.12968" lon="5.88202">
        <ele>912</ele>
        <time>2021-06-01T09:00:57.000Z</time>
      </trkpt>
      <trkpt lat="44.12967" lon="5.88202">
        <ele>912</ele>
        <time>2021-06-01T09:00:58.000Z</time>
      </trkpt>
      <trkpt lat="44.12966" lon="5.88201">
        <ele>912</ele>
        <time>2021-06-01T09:00:59.000Z</time>
      </trkpt>
      <trkpt lat="44.12966" lon="5.882">
        <ele>912</ele>
        <time>2021-06-01T09:01:00.000Z</time>
      </trkpt>
      <trkpt lat="44.12965" lon="5.88199">
        <ele>912</ele>
        <time>2021-06-01T09:01:01.000Z</time>
      </trkpt>
      <trkpt lat="44.12964" lon="5.88199">
        <ele>911</ele>
        <time>2021-06-01T09:01:02.000Z</time>
      </trkpt>
      <trkpt lat="44.12963" lon="5.88198">
        <ele>911</ele>
        <time>2021-06-01T09:01:03.000Z</time>
      </trkpt>
      <trkpt lat="44.12962" lon="5.88197">
        <ele>911</ele>
        <time>2021-06-01T09:01:04.000Z</time>
      </trkpt>
      <trkpt lat="44.12961" lon="5.88197">
        <ele>911</ele>
        <time>2021-06-01T09:01:05.000Z</time>
      </trkpt>
      <trkpt lat="44.1296" lon="5.88196">
        <ele>911</ele>
        <time>2021-06-01T09:01:06.000Z</time>
      </trkpt>
      <trkpt lat="44.1296" lon="5.88195">
        <ele>911</ele>
        <time>2021-06-01T09:01:07.000Z</time>
      </trkpt>
      <trkpt lat="44.12959" lon="5.88194">
        <ele>911</ele>
        <time>2021-06-01T09:01:08.000Z</time>
      </trkpt>
      <trkpt lat="44.12958" lon="5.88194">
        <ele>911</ele>
        <time>2021-06-01T09:01:09.000Z</time>
      </trkpt>
      <trkpt lat="44.12957" lon="5.88193">
        <ele>911</ele>
        <time>2021-06-01T09:01:10.000Z</time>
      </trkpt>
      <trkpt lat="44.12956" lon="5.88192">
        <ele>910</ele>
        <time>2021-06-01T09:01:11.000Z</time>
      </trkpt>
      <trkpt lat="44.12955" lon="5.88192">
        <ele>910</ele>
        <time>2021-06-01T09:01:12.000Z</time>
      </trkpt>
      <trkpt lat="44.12954" lon="5.88191">
        <ele>910</ele>
        <time>2021-06-01T09:01:13.000Z</time>
      </trkpt>
      <trkpt lat="44.12953" lon="5.88191">
        <ele>910</ele>
        <time>2021-06-01T09:01:14.000Z</time>
      </trkpt>
      <trkpt lat="44.12953" lon="5.8819">
        <ele>910</ele>
        <time>2021-06-01T09:01:15.000Z</time>
      </trkpt>
      <trkpt lat="44.12952" lon="5.88189">
        <ele>910</ele>
        <time>2021-06-01T09:01:16.000Z</time>
      </trkpt>
      <trkpt lat="44.12951" lon="5.88189">
        <ele>910</ele>
        <time>2021-06-01T09:01:17.000Z</time>
      </trkpt>
      <trkpt lat="44.1295" lon="5.88188">
        <ele>910</ele>
        <time>2021-06-01T09:01:18.000Z</time>
      </trkpt>
      <trkpt lat="44.12949" lon="5.88188">
        <ele>909</ele>
        <time>2021-06-01T09:01:19.000Z</time>
      </trkpt>
      <trkpt lat="44.12948" lon="5.88187">
        <ele>909</ele>
        <time>2021-06-01T09:01:20.000Z</time>
      </trkpt>
      <trkpt lat="44.12947" lon="5.88187">
        <ele>909</ele>
        <time>2021-06-01T09:01:21.000Z</time>
      </trkpt>
      <trkpt lat="44.12946" lon="5.88186">
        <ele>909</ele>
        <time>2021-06-01T09:01:22.000Z</time>
      </trkpt>
      <trkpt lat="44.12945" lon="5.88185">
        <ele>908</ele>
        <time>2021-06-01T09:01:23.000Z</time>
      </trkpt>
      <trkpt lat="44.12945" lon="5.88185">
        <ele>908</ele>
        <time>2021-06-01T09:01:24.000Z</time>
      </trkpt>
      <trkpt lat="44.12944" lon="5.88184">
        <ele>908</ele>
        <time>2021-06-01T09:01:25.000Z</time>
      </trkpt>
      <trkpt lat="44.12943" lon="5.88184">
        <ele>908</ele>
        <time>2021-06-01T09:01:26.000Z</time>
      </trkpt>
      <trkpt lat="44.12942" lon="5.88183">
        <ele>908</ele>
        <time>2021-06-01T09:01:27.000Z</time>
      </trkpt>
      <trkpt lat="44.12941" lon="5.88183">
        <ele>908</ele>
        <time>2021-06-01T09:01:28.000Z</time>
      </trkpt>
      <trkpt lat="44.1294" lon="5.88182">
        <ele>908</ele>
        <time>2021-06-01T09:01:29.000Z</time>
      </trkpt>
      <trkpt lat="44.12939" lon="5.88182">
        <ele>908</ele>
        <time>2021-06-01T09:01:30.000Z</time>
      </trkpt>
      <trkpt lat="44.12938" lon="5.88181">
        <ele>908</ele>
        <time>2021-06-01T09:01:31.000Z</time>
      </trkpt>
      <trkpt lat="44.12938" lon="5.8818">
        <ele>908</ele>
        <time>2021-06-01T09:01:32.000Z</time>
      </trkpt>
      <trkpt lat="44.12937" lon="5.8818">
        <ele>908</ele>
        <time>2021-06-01T09:01:33.000Z</time>
      </trkpt>
      <trkpt lat="44.12936" lon="5.88179">
        <ele>908</ele>
        <time>2021-06-01T09:01:34.000Z</time>
      </trkpt>
      <trkpt lat="44.12935" lon="5.88178">
        <ele>908</ele>
        <time>2021-06-01T09:01:35.000Z</time>
      </trkpt>
      <trkpt lat="44.12934" lon="5.88178">
        <ele>908</ele>
        <time>2021-06-01T09:01:36.000Z</time>
      </trkpt>
      <trkpt lat="44.12934" lon="5.88177">
        <ele>907</ele>
        <time>2021-06-01T09:01:37.000Z</time>
      </trkpt>
      <trkpt lat="44.12933" lon="5.88176">
        <ele>907</ele>
        <time>2021-06-01T09:01:38.000Z</time>
      </trkpt>
      <trkpt lat="44.12932" lon="5.88175">
        <ele>907</ele>
        <time>2021-06-01T09:01:39.000Z</time>
      </trkpt>
      <trkpt lat="44.12932" lon="5.88175">
        <ele>907</ele>
        <time>2021-06-01T09:01:40.000Z</time>
      </trkpt>
      <trkpt lat="44.12931" lon="5.88174">
        <ele>907</ele>
        <time>2021-06-01T09:01:41.000Z</time>
      </trkpt>
      <trkpt lat="44.1293" lon="5.88174">
        <ele>907</ele>
        <time>2021-06-01T09:01:42.000Z</time>
      </trkpt>
      <trkpt lat="44.1293" lon="5.88174">
        <ele>907</ele>
        <time>2021-06-01T09:01:43.000Z</time>
      </trkpt>
      <trkpt lat="44.1293" lon="5.88174">
        <ele>907</ele>
        <time>2021-06-01T09:01:44.000Z</time>
      </trkpt>
      <trkpt lat="44.1293" lon="5.88173">
        <ele>907</ele>
        <time>2021-06-01T09:01:45.000Z</time>
      </trkpt>
      <trkpt lat="44.1293" lon="5.88173">
        <ele>907</ele>
        <time>2021-06-01T09:01:46.000Z</time>
      </trkpt>
      <trkpt lat="44.1293" lon="5.88173">
        <ele>907</ele>
        <time>2021-06-01T09:01:47.000Z</time>
      </trkpt>
      <trkpt lat="44.1293" lon="5.88173">
        <ele>907</ele>
        <time>2021-06-01T09:01:48.000Z</time>
      </trkpt>
      <trkpt lat="44.1293" lon="5.88173">
        <ele>907</ele>
        <time>2021-06-01T09:01:49.000Z</time>
      </trkpt>
      <trkpt lat="44.12929" lon="5.88173">
        <ele>907</ele>
        <time>2021-06-01T09:01:50.000Z</time>
      </trkpt>
      <trkpt lat="44.12928" lon="5.88172">
        <ele>907</ele>
        <time>2021-06-01T09:01:51.000Z</time>
      </trkpt>
      <trkpt lat="44.12927" lon="5.88171">
        <ele>907</ele>
        <time>2021-06-01T09:01:52.000Z</time>
      </trkpt>
      <trkpt lat="44.12926" lon="5.8817">
        <ele>907</ele>
        <time>2021-06-01T09:01:53.000Z</time>
      </trkpt>
      <trkpt lat="44.12926" lon="5.88169">
        <ele>906</ele>
        <time>2021-06-01T09:01:54.000Z</time>
      </trkpt>
      <trkpt lat="44.12925" lon="5.88168">
        <ele>906</ele>
        <time>2021-06-01T09:01:55.000Z</time>
      </trkpt>
      <trkpt lat="44.12924" lon="5.88167">
        <ele>906</ele>
        <time>2021-06-01T09:01:56.000Z</time>
      </trkpt>
      <trkpt lat="44.12923" lon="5.88166">
        <ele>906</ele>
        <time>2021-06-01T09:01:57.000Z</time>
      </trkpt>
      <trkpt lat="44.12922" lon="5.88165">
        <ele>906</ele>
        <time>2021-06-01T09:01:58.000Z</time>
      </trkpt>
      <trkpt lat="44.12922" lon="5.88164">
        <ele>906</ele>
        <time>2021-06-01T09:01:59.000Z</time>
      </trkpt>
      <trkpt lat="44.12921" lon="5.88163">
        <ele>906</ele>
        <time>2021-06-01T09:02:00.000Z</time>
      </trkpt>
      <trkpt lat="44.1292" lon="5.88162">
        <ele>906</ele>
        <time>2021-06-01T09:02:01.000Z</time>
      </trkpt>
      <trkpt lat="44.12919" lon="5.88161">
        <ele>906</ele>
        <time>2021-06-01T09:02:02.000Z</time>
      </trkpt>
      <trkpt lat="44.12918" lon="5.88161">
        <ele>906</ele>
        <time>2021-06-01T09:02:03.000Z</time>
      </trkpt>
      <trkpt lat="44.12918" lon="5.8816">
        <ele>906</ele>
        <time>2021-06-01T09:02:04.000Z</time>
      </trkpt>
      <trkpt lat="44.12917" lon="5.88159">
        <ele>906</ele>
        <time>2021-06-01T09:02:05.000Z</time>
      </trkpt>
      <trkpt lat="44.12916" lon="5.88158">
        <ele>906</ele>
        <time>2021-06-01T09:02:06.000Z</time>
      </trkpt>
      <trkpt lat="44.12915" lon="5.88158">
        <ele>906</ele>
        <time>2021-06-01T09:02:07.000Z</time>
      </trkpt>
      <trkpt lat="44.12914" lon="5.88157">
        <ele>906</ele>
        <time>2021-06-01T09:02:08.000Z</time>
      </trkpt>
      <trkpt lat="44.12913" lon="5.88158">
        <ele>906</ele>
        <time>2021-06-01T09:02:09.000Z</time>
      </trkpt>
      <trkpt lat="44.12912" lon="5.88157">
        <ele>906</ele>
        <time>2021-06-01T09:02:10.000Z</time>
      </trkpt>
      <trkpt lat="44.12911" lon="5.88157">
        <ele>906</ele>
        <time>2021-06-01T09:02:11.000Z</time>
      </trkpt>
      <trkpt lat="44.1291" lon="5.88158">
        <ele>906</ele>
        <time>2021-06-01T09:02:12.000Z</time>
      </trkpt>
      <trkpt lat="44.12909" lon="5.88158">
        <ele>905</ele>
        <time>2021-06-01T09:02:13.000Z</time>
      </trkpt>
      <trkpt lat="44.12908" lon="5.88158">
        <ele>905</ele>
        <time>2021-06-01T09:02:14.000Z</time>
      </trkpt>
      <trkpt lat="44.12907" lon="5.88158">
        <ele>905</ele>
        <time>2021-06-01T09:02:15.000Z</time>
      </trkpt>
      <trkpt lat="44.12906" lon="5.88158">
        <ele>905</ele>
        <time>2021-06-01T09:02:16.000Z</time>
      </trkpt>
      <trkpt lat="44.12905" lon="5.88159">
        <ele>905</ele>
        <time>2021-06-01T09:02:17.000Z</time>
      </trkpt>
      <trkpt lat="44.12905" lon="5.88159">
        <ele>905</ele>
        <time>2021-06-01T09:02:18.000Z</time>
      </trkpt>
      <trkpt lat="44.12904" lon="5.8816">
        <ele>905</ele>
        <time>2021-06-01T09:02:19.000Z</time>
      </trkpt>
      <trkpt lat="44.12904" lon="5.88161">
        <ele>905</ele>
        <time>2021-06-01T09:02:20.000Z</time>
      </trkpt>
      <trkpt lat="44.12904" lon="5.88162">
        <ele>905</ele>
        <time>2021-06-01T09:02:21.000Z</time>
      </trkpt>
      <trkpt lat="44.12903" lon="5.88163">
        <ele>905</ele>
        <time>2021-06-01T09:02:22.000Z</time>
      </trkpt>
      <trkpt lat="44.12903" lon="5.88164">
        <ele>904</ele>
        <time>2021-06-01T09:02:23.000Z</time>
      </trkpt>
      <trkpt lat="44.12902" lon="5.88165">
        <ele>904</ele>
        <time>2021-06-01T09:02:24.000Z</time>
      </trkpt>
      <trkpt lat="44.12902" lon="5.88165">
        <ele>904</ele>
        <time>2021-06-01T09:02:25.000Z</time>
      </trkpt>
      <trkpt lat="44.12901" lon="5.88166">
        <ele>904</ele>
        <time>2021-06-01T09:02:26.000Z</time>
      </trkpt>
      <trkpt lat="44.12901" lon="5.88168">
        <ele>904</ele>
        <time>2021-06-01T09:02:27.000Z</time>
      </trkpt>
      <trkpt lat="44.12901" lon="5.88169">
        <ele>904</ele>
        <time>2021-06-01T09:02:28.000Z</time>
      </trkpt>
      <trkpt lat="44.129" lon="5.8817">
        <ele>903</ele>
        <time>2021-06-01T09:02:29.000Z</time>
      </trkpt>
      <trkpt lat="44.129" lon="5.88171">
        <ele>903</ele>
        <time>2021-06-01T09:02:30.000Z</time>
      </trkpt>
      <trkpt lat="44.12899" lon="5.88172">
        <ele>903</ele>
        <time>2021-06-01T09:02:31.000Z</time>
      </trkpt>
      <trkpt lat="44.12899" lon="5.88173">
        <ele>903</ele>
        <time>2021-06-01T09:02:32.000Z</time>
      </trkpt>
      <trkpt lat="44.12899" lon="5.88174">
        <ele>903</ele>
        <time>2021-06-01T09:02:33.000Z</time>
      </trkpt>
      <trkpt lat="44.12898" lon="5.88176">
        <ele>903</ele>
        <time>2021-06-01T09:02:34.000Z</time>
      </trkpt>
      <trkpt lat="44.12898" lon="5.88177">
        <ele>903</ele>
        <time>2021-06-01T09:02:35.000Z</time>
      </trkpt>
      <trkpt lat="44.12898" lon="5.88179">
        <ele>903</ele>
        <time>2021-06-01T09:02:36.000Z</time>
      </trkpt>
      <trkpt lat="44.12898" lon="5.8818">
        <ele>903</ele>
        <time>2021-06-01T09:02:37.000Z</time>
      </trkpt>
      <trkpt lat="44.12897" lon="5.88182">
        <ele>903</ele>
        <time>2021-06-01T09:02:38.000Z</time>
      </trkpt>
      <trkpt lat="44.12897" lon="5.88183">
        <ele>902</ele>
        <time>2021-06-01T09:02:39.000Z</time>
      </trkpt>
      <trkpt lat="44.12897" lon="5.88184">
        <ele>902</ele>
        <time>2021-06-01T09:02:40.000Z</time>
      </trkpt>
      <trkpt lat="44.12897" lon="5.88186">
        <ele>902</ele>
        <time>2021-06-01T09:02:41.000Z</time>
      </trkpt>
      <trkpt lat="44.12896" lon="5.88187">
        <ele>902</ele>
        <time>2021-06-01T09:02:42.000Z</time>
      </trkpt>
      <trkpt lat="44.12896" lon="5.88188">
        <ele>902</ele>
        <time>2021-06-01T09:02:43.000Z</time>
      </trkpt>
      <trkpt lat="44.12896" lon="5.8819">
        <ele>902</ele>
        <time>2021-06-01T09:02:44.000Z</time>
      </trkpt>
      <trkpt lat="44.12896" lon="5.88191">
        <ele>902</ele>
        <time>2021-06-01T09:02:45.000Z</time>
      </trkpt>
      <trkpt lat="44.12896" lon="5.88193">
        <ele>902</ele>
        <time>2021-06-01T09:02:46.000Z</time>
      </trkpt>
      <trkpt lat="44.12896" lon="5.88194">
        <ele>902</ele>
        <time>2021-06-01T09:02:47.000Z</time>
      </trkpt>
      <trkpt lat="44.12896" lon="5.88196">
        <ele>901</ele>
        <time>2021-06-01T09:02:48.000Z</time>
      </trkpt>
      <trkpt lat="44.12896" lon="5.88197">
        <ele>901</ele>
        <time>2021-06-01T09:02:49.000Z</time>
      </trkpt>
      <trkpt lat="44.12896" lon="5.88199">
        <ele>901</ele>
        <time>2021-06-01T09:02:50.000Z</time>
      </trkpt>
      <trkpt lat="44.12896" lon="5.882">
        <ele>901</ele>
        <time>2021-06-01T09:02:51.000Z</time>
      </trkpt>
      <trkpt lat="44.12896" lon="5.88201">
        <ele>901</ele>
        <time>2021-06-01T09:02:52.000Z</time>
      </trkpt>
      <trkpt lat="44.12895" lon="5.88203">
        <ele>901</ele>
        <time>2021-06-01T09:02:53.000Z</time>
      </trkpt>
      <trkpt lat="44.12895" lon="5.88204">
        <ele>901</ele>
        <time>2021-06-01T09:02:54.000Z</time>
      </trkpt>
      <trkpt lat="44.12895" lon="5.88206">
        <ele>901</ele>
        <time>2021-06-01T09:02:55.000Z</time>
      </trkpt>
      <trkpt lat="44.12895" lon="5.88207">
        <ele>901</ele>
        <time>2021-06-01T09:02:56.000Z</time>
      </trkpt>
      <trkpt lat="44.12896" lon="5.88209">
        <ele>901</ele>
        <time>2021-06-01T09:02:57.000Z</time>
      </trkpt>
      <trkpt lat="44.12896" lon="5.8821">
        <ele>900</ele>
        <time>2021-06-01T09:02:58.000Z</time>
      </trkpt>
      <trkpt lat="44.12896" lon="5.88211">
        <ele>900</ele>
        <time>2021-06-01T09:02:59.000Z</time>
      </trkpt>
      <trkpt lat="44.12896" lon="5.88213">
        <ele>900</ele>
        <time>2021-06-01T09:03:00.000Z</time>
      </trkpt>
      <trkpt lat="44.12896" lon="5.88214">
        <ele>900</ele>
        <time>2021-06-01T09:03:01.000Z</time>
      </trkpt>
      <trkpt lat="44.12896" lon="5.88215">
        <ele>900</ele>
        <time>2021-06-01T09:03:02.000Z</time>
      </trkpt>
      <trkpt lat="44.12897" lon="5.88217">
        <ele>900</ele>
        <time>2021-06-01T09:03:03.000Z</time>
      </trkpt>
      <trkpt lat="44.12897" lon="5.88218">
        <ele>900</ele>
        <time>2021-06-01T09:03:04.000Z</time>
      </trkpt>
      <trkpt lat="44.12897" lon="5.88219">
        <ele>900</ele>
        <time>2021-06-01T09:03:05.000Z</time>
      </trkpt>
      <trkpt lat="44.12897" lon="5.88221">
        <ele>899</ele>
        <time>2021-06-01T09:03:06.000Z</time>
      </trkpt>
      <trkpt lat="44.12897" lon="5.88222">
        <ele>899</ele>
        <time>2021-06-01T09:03:07.000Z</time>
      </trkpt>
      <trkpt lat="44.12898" lon="5.88223">
        <ele>899</ele>
        <time>2021-06-01T09:03:08.000Z</time>
      </trkpt>
      <trkpt lat="44.12898" lon="5.88224">
        <ele>899</ele>
        <time>2021-06-01T09:03:09.000Z</time>
      </trkpt>
      <trkpt lat="44.12899" lon="5.88225">
        <ele>899</ele>
        <time>2021-06-01T09:03:10.000Z</time>
      </trkpt>
      <trkpt lat="44.12899" lon="5.88226">
        <ele>899</ele>
        <time>2021-06-01T09:03:11.000Z</time>
      </trkpt>
      <trkpt lat="44.12899" lon="5.88226">
        <ele>899</ele>
        <time>2021-06-01T09:03:12.000Z</time>
      </trkpt>
      <trkpt lat="44.12899" lon="5.88226">
        <ele>899</ele>
        <time>2021-06-01T09:03:13.000Z</time>
      </trkpt>
      <trkpt lat="44.12899" lon="5.88226">
        <ele>899</ele>
        <time>2021-06-01T09:03:14.000Z</time>
      </trkpt>
      <trkpt lat="44.12899" lon="5.88227">
        <ele>899</ele>
        <time>2021-06-01T09:03:15.000Z</time>
      </trkpt>
      <trkpt lat="44.129" lon="5.88228">
        <ele>899</ele>
        <time>2021-06-01T09:03:16.000Z</time>
      </trkpt>
      <trkpt lat="44.129" lon="5.8823">
        <ele>899</ele>
        <time>2021-06-01T09:03:17.000Z</time>
      </trkpt>
      <trkpt lat="44.12901" lon="5.88231">
        <ele>899</ele>
        <time>2021-06-01T09:03:18.000Z</time>
      </trkpt>
      <trkpt lat="44.12901" lon="5.88232">
        <ele>898</ele>
        <time>2021-06-01T09:03:19.000Z</time>
      </trkpt>
      <trkpt lat="44.12902" lon="5.88234">
        <ele>898</ele>
        <time>2021-06-01T09:03:20.000Z</time>
      </trkpt>
      <trkpt lat="44.12903" lon="5.88235">
        <ele>898</ele>
        <time>2021-06-01T09:03:21.000Z</time>
      </trkpt>
      <trkpt lat="44.12903" lon="5.88236">
        <ele>898</ele>
        <time>2021-06-01T09:03:22.000Z</time>
      </trkpt>
      <trkpt lat="44.12904" lon="5.88238">
        <ele>898</ele>
        <time>2021-06-01T09:03:23.000Z</time>
      </trkpt>
      <trkpt lat="44.12905" lon="5.88239">
        <ele>898</ele>
        <time>2021-06-01T09:03:24.000Z</time>
      </trkpt>
      <trkpt lat="44.12905" lon="5.8824">
        <ele>898</ele>
        <time>2021-06-01T09:03:25.000Z</time>
      </trkpt>
      <trkpt lat="44.12906" lon="5.88241">
        <ele>898</ele>
        <time>2021-06-01T09:03:26.000Z</time>
      </trkpt>
      <trkpt lat="44.12906" lon="5.88242">
        <ele>898</ele>
        <time>2021-06-01T09:03:27.000Z</time>
      </trkpt>
      <trkpt lat="44.12907" lon="5.88243">
        <ele>897</ele>
        <time>2021-06-01T09:03:28.000Z</time>
      </trkpt>
      <trkpt lat="44.12908" lon="5.88244">
        <ele>897</ele>
        <time>2021-06-01T09:03:29.000Z</time>
      </trkpt>
      <trkpt lat="44.12909" lon="5.88244">
        <ele>897</ele>
        <time>2021-06-01T09:03:30.000Z</time>
      </trkpt>
      <trkpt lat="44.1291" lon="5.88245">
        <ele>897</ele>
        <time>2021-06-01T09:03:31.000Z</time>
      </trkpt>
      <trkpt lat="44.12911" lon="5.88246">
        <ele>897</ele>
        <time>2021-06-01T09:03:32.000Z</time>
      </trkpt>
      <trkpt lat="44.12912" lon="5.88247">
        <ele>897</ele>
        <time>2021-06-01T09:03:33.000Z</time>
      </trkpt>
      <trkpt lat="44.12912" lon="5.88248">
        <ele>897</ele>
        <time>2021-06-01T09:03:34.000Z</time>
      </trkpt>
      <trkpt lat="44.12913" lon="5.88249">
        <ele>896</ele>
        <time>2021-06-01T09:03:35.000Z</time>
      </trkpt>
      <trkpt lat="44.12914" lon="5.8825">
        <ele>896</ele>
        <time>2021-06-01T09:03:36.000Z</time>
      </trkpt>
      <trkpt lat="44.12915" lon="5.8825">
        <ele>896</ele>
        <time>2021-06-01T09:03:37.000Z</time>
      </trkpt>
      <trkpt lat="44.12916" lon="5.88251">
        <ele>896</ele>
        <time>2021-06-01T09:03:38.000Z</time>
      </trkpt>
      <trkpt lat="44.12917" lon="5.88252">
        <ele>896</ele>
        <time>2021-06-01T09:03:39.000Z</time>
      </trkpt>
      <trkpt lat="44.12918" lon="5.88253">
        <ele>896</ele>
        <time>2021-06-01T09:03:40.000Z</time>
      </trkpt>
      <trkpt lat="44.12919" lon="5.88254">
        <ele>896</ele>
        <time>2021-06-01T09:03:41.000Z</time>
      </trkpt>
      <trkpt lat="44.12919" lon="5.88255">
        <ele>895</ele>
        <time>2021-06-01T09:03:42.000Z</time>
      </trkpt>
      <trkpt lat="44.1292" lon="5.88256">
        <ele>895</ele>
        <time>2021-06-01T09:03:43.000Z</time>
      </trkpt>
      <trkpt lat="44.12921" lon="5.88257">
        <ele>895</ele>
        <time>2021-06-01T09:03:44.000Z</time>
      </trkpt>
      <trkpt lat="44.12921" lon="5.88258">
        <ele>895</ele>
        <time>2021-06-01T09:03:45.000Z</time>
      </trkpt>
      <trkpt lat="44.12921" lon="5.88259">
        <ele>895</ele>
        <time>2021-06-01T09:03:46.000Z</time>
      </trkpt>
      <trkpt lat="44.12921" lon="5.88261">
        <ele>895</ele>
        <time>2021-06-01T09:03:47.000Z</time>
      </trkpt>
      <trkpt lat="44.12921" lon="5.88262">
        <ele>894</ele>
        <time>2021-06-01T09:03:48.000Z</time>
      </trkpt>
      <trkpt lat="44.12921" lon="5.88264">
        <ele>894</ele>
        <time>2021-06-01T09:03:49.000Z</time>
      </trkpt>
      <trkpt lat="44.12921" lon="5.88265">
        <ele>894</ele>
        <time>2021-06-01T09:03:50.000Z</time>
      </trkpt>
      <trkpt lat="44.1292" lon="5.88266">
        <ele>894</ele>
        <time>2021-06-01T09:03:51.000Z</time>
      </trkpt>
      <trkpt lat="44.12919" lon="5.88267">
        <ele>894</ele>
        <time>2021-06-01T09:03:52.000Z</time>
      </trkpt>
      <trkpt lat="44.12918" lon="5.88267">
        <ele>894</ele>
        <time>2021-06-01T09:03:53.000Z</time>
      </trkpt>
      <trkpt lat="44.12917" lon="5.88267">
        <ele>893</ele>
        <time>2021-06-01T09:03:54.000Z</time>
      </trkpt>
      <trkpt lat="44.12916" lon="5.88267">
        <ele>893</ele>
        <time>2021-06-01T09:03:55.000Z</time>
      </trkpt>
      <trkpt lat="44.12915" lon="5.88268">
        <ele>893</ele>
        <time>2021-06-01T09:03:56.000Z</time>
      </trkpt>
      <trkpt lat="44.12914" lon="5.88268">
        <ele>893</ele>
        <time>2021-06-01T09:03:57.000Z</time>
      </trkpt>
      <trkpt lat="44.12912" lon="5.88267">
        <ele>893</ele>
        <time>2021-06-01T09:03:58.000Z</time>
      </trkpt>
      <trkpt lat="44.12911" lon="5.88267">
        <ele>893</ele>
        <time>2021-06-01T09:03:59.000Z</time>
      </trkpt>
      <trkpt lat="44.1291" lon="5.88267">
        <ele>893</ele>
        <time>2021-06-01T09:04:00.000Z</time>
      </trkpt>
      <trkpt lat="44.12909" lon="5.88267">
        <ele>893</ele>
        <time>2021-06-01T09:04:01.000Z</time>
      </trkpt>
      <trkpt lat="44.12908" lon="5.88267">
        <ele>892</ele>
        <time>2021-06-01T09:04:02.000Z</time>
      </trkpt>
      <trkpt lat="44.12907" lon="5.88267">
        <ele>892</ele>
        <time>2021-06-01T09:04:03.000Z</time>
      </trkpt>
      <trkpt lat="44.12906" lon="5.88267">
        <ele>892</ele>
        <time>2021-06-01T09:04:04.000Z</time>
      </trkpt>
      <trkpt lat="44.12905" lon="5.88266">
        <ele>892</ele>
        <time>2021-06-01T09:04:05.000Z</time>
      </trkpt>
      <trkpt lat="44.12903" lon="5.88266">
        <ele>892</ele>
        <time>2021-06-01T09:04:06.000Z</time>
      </trkpt>
      <trkpt lat="44.12902" lon="5.88266">
        <ele>892</ele>
        <time>2021-06-01T09:04:07.000Z</time>
      </trkpt>
      <trkpt lat="44.12901" lon="5.88266">
        <ele>892</ele>
        <time>2021-06-01T09:04:08.000Z</time>
      </trkpt>
      <trkpt lat="44.129" lon="5.88266">
        <ele>892</ele>
        <time>2021-06-01T09:04:09.000Z</time>
      </trkpt>
      <trkpt lat="44.12899" lon="5.88266">
        <ele>892</ele>
        <time>2021-06-01T09:04:10.000Z</time>
      </trkpt>
      <trkpt lat="44.12898" lon="5.88266">
        <ele>892</ele>
        <time>2021-06-01T09:04:11.000Z</time>
      </trkpt>
      <trkpt lat="44.12897" lon="5.88265">
        <ele>892</ele>
        <time>2021-06-01T09:04:12.000Z</time>
      </trkpt>
      <trkpt lat="44.12896" lon="5.88265">
        <ele>892</ele>
        <time>2021-06-01T09:04:13.000Z</time>
      </trkpt>
      <trkpt lat="44.12894" lon="5.88264">
        <ele>891</ele>
        <time>2021-06-01T09:04:14.000Z</time>
      </trkpt>
      <trkpt lat="44.12893" lon="5.88264">
        <ele>891</ele>
        <time>2021-06-01T09:04:15.000Z</time>
      </trkpt>
      <trkpt lat="44.12892" lon="5.88263">
        <ele>891</ele>
        <time>2021-06-01T09:04:16.000Z</time>
      </trkpt>
      <trkpt lat="44.12891" lon="5.88262">
        <ele>891</ele>
        <time>2021-06-01T09:04:17.000Z</time>
      </trkpt>
      <trkpt lat="44.1289" lon="5.88262">
        <ele>891</ele>
        <time>2021-06-01T09:04:18.000Z</time>
      </trkpt>
      <trkpt lat="44.12889" lon="5.88261">
        <ele>891</ele>
        <time>2021-06-01T09:04:19.000Z</time>
      </trkpt>
      <trkpt lat="44.12888" lon="5.8826">
        <ele>891</ele>
        <time>2021-06-01T09:04:20.000Z</time>
      </trkpt>
      <trkpt lat="44.12887" lon="5.88259">
        <ele>891</ele>
        <time>2021-06-01T09:04:21.000Z</time>
      </trkpt>
      <trkpt lat="44.12886" lon="5.88259">
        <ele>891</ele>
        <time>2021-06-01T09:04:22.000Z</time>
      </trkpt>
      <trkpt lat="44.12885" lon="5.88258">
        <ele>891</ele>
        <time>2021-06-01T09:04:23.000Z</time>
      </trkpt>
      <trkpt lat="44.12884" lon="5.88258">
        <ele>891</ele>
        <time>2021-06-01T09:04:24.000Z</time>
      </trkpt>
      <trkpt lat="44.12883" lon="5.88258">
        <ele>891</ele>
        <time>2021-06-01T09:04:25.000Z</time>
      </trkpt>
      <trkpt lat="44.12882" lon="5.88257">
        <ele>891</ele>
        <time>2021-06-01T09:04:26.000Z</time>
      </trkpt>
      <trkpt lat="44.1288" lon="5.88256">
        <ele>891</ele>
        <time>2021-06-01T09:04:27.000Z</time>
      </trkpt>
      <trkpt lat="44.1288" lon="5.88255">
        <ele>891</ele>
        <time>2021-06-01T09:04:28.000Z</time>
      </trkpt>
      <trkpt lat="44.12879" lon="5.88254">
        <ele>891</ele>
        <time>2021-06-01T09:04:29.000Z</time>
      </trkpt>
      <trkpt lat="44.12878" lon="5.88254">
        <ele>891</ele>
        <time>2021-06-01T09:04:30.000Z</time>
      </trkpt>
      <trkpt lat="44.12877" lon="5.88253">
        <ele>891</ele>
        <time>2021-06-01T09:04:31.000Z</time>
      </trkpt>
      <trkpt lat="44.12876" lon="5.88252">
        <ele>891</ele>
        <time>2021-06-01T09:04:32.000Z</time>
      </trkpt>
      <trkpt lat="44.12875" lon="5.88251">
        <ele>891</ele>
        <time>2021-06-01T09:04:33.000Z</time>
      </trkpt>
      <trkpt lat="44.12875" lon="5.8825">
        <ele>890</ele>
        <time>2021-06-01T09:04:34.000Z</time>
      </trkpt>
      <trkpt lat="44.12874" lon="5.88249">
        <ele>890</ele>
        <time>2021-06-01T09:04:35.000Z</time>
      </trkpt>
      <trkpt lat="44.12873" lon="5.88248">
        <ele>890</ele>
        <time>2021-06-01T09:04:36.000Z</time>
      </trkpt>
      <trkpt lat="44.12873" lon="5.88247">
        <ele>890</ele>
        <time>2021-06-01T09:04:37.000Z</time>
      </trkpt>
      <trkpt lat="44.12872" lon="5.88245">
        <ele>890</ele>
        <time>2021-06-01T09:04:38.000Z</time>
      </trkpt>
      <trkpt lat="44.12871" lon="5.88244">
        <ele>890</ele>
        <time>2021-06-01T09:04:39.000Z</time>
      </trkpt>
      <trkpt lat="44.12871" lon="5.88243">
        <ele>890</ele>
        <time>2021-06-01T09:04:40.000Z</time>
      </trkpt>
      <trkpt lat="44.1287" lon="5.88242">
        <ele>890</ele>
        <time>2021-06-01T09:04:41.000Z</time>
      </trkpt>
      <trkpt lat="44.12869" lon="5.88241">
        <ele>890</ele>
        <time>2021-06-01T09:04:42.000Z</time>
      </trkpt>
      <trkpt lat="44.12868" lon="5.8824">
        <ele>890</ele>
        <time>2021-06-01T09:04:43.000Z</time>
      </trkpt>
      <trkpt lat="44.12868" lon="5.88239">
        <ele>890</ele>
        <time>2021-06-01T09:04:44.000Z</time>
      </trkpt>
      <trkpt lat="44.12867" lon="5.88238">
        <ele>890</ele>
        <time>2021-06-01T09:04:45.000Z</time>
      </trkpt>
      <trkpt lat="44.12866" lon="5.88237">
        <ele>890</ele>
        <time>2021-06-01T09:04:46.000Z</time>
      </trkpt>
      <trkpt lat="44.12865" lon="5.88236">
        <ele>890</ele>
        <time>2021-06-01T09:04:47.000Z</time>
      </trkpt>
      <trkpt lat="44.12864" lon="5.88235">
        <ele>890</ele>
        <time>2021-06-01T09:04:48.000Z</time>
      </trkpt>
      <trkpt lat="44.12863" lon="5.88235">
        <ele>890</ele>
        <time>2021-06-01T09:04:49.000Z</time>
      </trkpt>
      <trkpt lat="44.12862" lon="5.88234">
        <ele>890</ele>
        <time>2021-06-01T09:04:50.000Z</time>
      </trkpt>
      <trkpt lat="44.12862" lon="5.88233">
        <ele>890</ele>
        <time>2021-06-01T09:04:51.000Z</time>
      </trkpt>
      <trkpt lat="44.12861" lon="5.88232">
        <ele>890</ele>
        <time>2021-06-01T09:04:52.000Z</time>
      </trkpt>
      <trkpt lat="44.1286" lon="5.88232">
        <ele>890</ele>
        <time>2021-06-01T09:04:53.000Z</time>
      </trkpt>
      <trkpt lat="44.1286" lon="5.88231">
        <ele>890</ele>
        <time>2021-06-01T09:04:54.000Z</time>
      </trkpt>
      <trkpt lat="44.12859" lon="5.8823">
        <ele>890</ele>
        <time>2021-06-01T09:04:55.000Z</time>
      </trkpt>
      <trkpt lat="44.12858" lon="5.88229">
        <ele>890</ele>
        <time>2021-06-01T09:04:56.000Z</time>
      </trkpt>
      <trkpt lat="44.12858" lon="5.88228">
        <ele>890</ele>
        <time>2021-06-01T09:04:57.000Z</time>
      </trkpt>
      <trkpt lat="44.12855" lon="5.88226">
        <ele>889</ele>
        <time>2021-06-01T09:04:58.000Z</time>
      </trkpt>
      <trkpt lat="44.12855" lon="5.88226">
        <ele>889</ele>
        <time>2021-06-01T09:04:59.000Z</time>
      </trkpt>
      <trkpt lat="44.12854" lon="5.88226">
        <ele>889</ele>
        <time>2021-06-01T09:05:00.000Z</time>
      </trkpt>
      <trkpt lat="44.12854" lon="5.88225">
        <ele>889</ele>
        <time>2021-06-01T09:05:01.000Z</time>
      </trkpt>
      <trkpt lat="44.12853" lon="5.88224">
        <ele>889</ele>
        <time>2021-06-01T09:05:02.000Z</time>
      </trkpt>
      <trkpt lat="44.12852" lon="5.88223">
        <ele>889</ele>
        <time>2021-06-01T09:05:03.000Z</time>
      </trkpt>
      <trkpt lat="44.12851" lon="5.88223">
        <ele>888</ele>
        <time>2021-06-01T09:05:04.000Z</time>
      </trkpt>
      <trkpt lat="44.1285" lon="5.88222">
        <ele>888</ele>
        <time>2021-06-01T09:05:05.000Z</time>
      </trkpt>
      <trkpt lat="44.12849" lon="5.88221">
        <ele>888</ele>
        <time>2021-06-01T09:05:06.000Z</time>
      </trkpt>
      <trkpt lat="44.12848" lon="5.8822">
        <ele>888</ele>
        <time>2021-06-01T09:05:07.000Z</time>
      </trkpt>
      <trkpt lat="44.12848" lon="5.88219">
        <ele>888</ele>
        <time>2021-06-01T09:05:08.000Z</time>
      </trkpt>
      <trkpt lat="44.12847" lon="5.88218">
        <ele>888</ele>
        <time>2021-06-01T09:05:09.000Z</time>
      </trkpt>
      <trkpt lat="44.12846" lon="5.88217">
        <ele>887</ele>
        <time>2021-06-01T09:05:10.000Z</time>
      </trkpt>
      <trkpt lat="44.12845" lon="5.88216">
        <ele>887</ele>
        <time>2021-06-01T09:05:11.000Z</time>
      </trkpt>
      <trkpt lat="44.12844" lon="5.88216">
        <ele>887</ele>
        <time>2021-06-01T09:05:12.000Z</time>
      </trkpt>
      <trkpt lat="44.12844" lon="5.88215">
        <ele>887</ele>
        <time>2021-06-01T09:05:13.000Z</time>
      </trkpt>
      <trkpt lat="44.12843" lon="5.88214">
        <ele>887</ele>
        <time>2021-06-01T09:05:14.000Z</time>
      </trkpt>
      <trkpt lat="44.12842" lon="5.88213">
        <ele>887</ele>
        <time>2021-06-01T09:05:15.000Z</time>
      </trkpt>
      <trkpt lat="44.12841" lon="5.88213">
        <ele>887</ele>
        <time>2021-06-01T09:05:16.000Z</time>
      </trkpt>
      <trkpt lat="44.1284" lon="5.88212">
        <ele>887</ele>
        <time>2021-06-01T09:05:17.000Z</time>
      </trkpt>
      <trkpt lat="44.12839" lon="5.88211">
        <ele>887</ele>
        <time>2021-06-01T09:05:18.000Z</time>
      </trkpt>
      <trkpt lat="44.12838" lon="5.8821">
        <ele>887</ele>
        <time>2021-06-01T09:05:19.000Z</time>
      </trkpt>
      <trkpt lat="44.12838" lon="5.88209">
        <ele>886</ele>
        <time>2021-06-01T09:05:20.000Z</time>
      </trkpt>
      <trkpt lat="44.12837" lon="5.88208">
        <ele>886</ele>
        <time>2021-06-01T09:05:21.000Z</time>
      </trkpt>
      <trkpt lat="44.12836" lon="5.88207">
        <ele>886</ele>
        <time>2021-06-01T09:05:22.000Z</time>
      </trkpt>
      <trkpt lat="44.12835" lon="5.88206">
        <ele>886</ele>
        <time>2021-06-01T09:05:23.000Z</time>
      </trkpt>
      <trkpt lat="44.12834" lon="5.88205">
        <ele>885</ele>
        <time>2021-06-01T09:05:24.000Z</time>
      </trkpt>
      <trkpt lat="44.12833" lon="5.88204">
        <ele>885</ele>
        <time>2021-06-01T09:05:25.000Z</time>
      </trkpt>
      <trkpt lat="44.12833" lon="5.88203">
        <ele>885</ele>
        <time>2021-06-01T09:05:26.000Z</time>
      </trkpt>
      <trkpt lat="44.12832" lon="5.88202">
        <ele>885</ele>
        <time>2021-06-01T09:05:27.000Z</time>
      </trkpt>
      <trkpt lat="44.12831" lon="5.88201">
        <ele>885</ele>
        <time>2021-06-01T09:05:28.000Z</time>
      </trkpt>
      <trkpt lat="44.1283" lon="5.882">
        <ele>885</ele>
        <time>2021-06-01T09:05:29.000Z</time>
      </trkpt>
      <trkpt lat="44.12829" lon="5.88199">
        <ele>885</ele>
        <time>2021-06-01T09:05:30.000Z</time>
      </trkpt>
      <trkpt lat="44.12828" lon="5.88199">
        <ele>885</ele>
        <time>2021-06-01T09:05:31.000Z</time>
      </trkpt>
      <trkpt lat="44.12828" lon="5.88198">
        <ele>885</ele>
        <time>2021-06-01T09:05:32.000Z</time>
      </trkpt>
      <trkpt lat="44.12827" lon="5.88196">
        <ele>884</ele>
        <time>2021-06-01T09:05:33.000Z</time>
      </trkpt>
      <trkpt lat="44.12826" lon="5.88196">
        <ele>884</ele>
        <time>2021-06-01T09:05:34.000Z</time>
      </trkpt>
      <trkpt lat="44.12825" lon="5.88195">
        <ele>884</ele>
        <time>2021-06-01T09:05:35.000Z</time>
      </trkpt>
      <trkpt lat="44.12824" lon="5.88194">
        <ele>884</ele>
        <time>2021-06-01T09:05:36.000Z</time>
      </trkpt>
      <trkpt lat="44.12823" lon="5.88193">
        <ele>884</ele>
        <time>2021-06-01T09:05:37.000Z</time>
      </trkpt>
      <trkpt lat="44.12823" lon="5.88192">
        <ele>884</ele>
        <time>2021-06-01T09:05:38.000Z</time>
      </trkpt>
      <trkpt lat="44.12822" lon="5.88191">
        <ele>884</ele>
        <time>2021-06-01T09:05:39.000Z</time>
      </trkpt>
      <trkpt lat="44.12821" lon="5.8819">
        <ele>884</ele>
        <time>2021-06-01T09:05:40.000Z</time>
      </trkpt>
      <trkpt lat="44.1282" lon="5.88189">
        <ele>884</ele>
        <time>2021-06-01T09:05:41.000Z</time>
      </trkpt>
      <trkpt lat="44.12819" lon="5.88188">
        <ele>883</ele>
        <time>2021-06-01T09:05:42.000Z</time>
      </trkpt>
      <trkpt lat="44.12818" lon="5.88187">
        <ele>883</ele>
        <time>2021-06-01T09:05:43.000Z</time>
      </trkpt>
      <trkpt lat="44.12818" lon="5.88186">
        <ele>883</ele>
        <time>2021-06-01T09:05:44.000Z</time>
      </trkpt>
      <trkpt lat="44.12817" lon="5.88185">
        <ele>883</ele>
        <time>2021-06-01T09:05:45.000Z</time>
      </trkpt>
      <trkpt lat="44.12816" lon="5.88184">
        <ele>883</ele>
        <time>2021-06-01T09:05:46.000Z</time>
      </trkpt>
      <trkpt lat="44.12815" lon="5.88183">
        <ele>883</ele>
        <time>2021-06-01T09:05:47.000Z</time>
      </trkpt>
      <trkpt lat="44.12814" lon="5.88182">
        <ele>883</ele>
        <time>2021-06-01T09:05:48.000Z</time>
      </trkpt>
      <trkpt lat="44.12814" lon="5.88181">
        <ele>883</ele>
        <time>2021-06-01T09:05:49.000Z</time>
      </trkpt>
      <trkpt lat="44.12813" lon="5.8818">
        <ele>883</ele>
        <time>2021-06-01T09:05:50.000Z</time>
      </trkpt>
      <trkpt lat="44.12812" lon="5.88179">
        <ele>883</ele>
        <time>2021-06-01T09:05:51.000Z</time>
      </trkpt>
      <trkpt lat="44.12811" lon="5.88178">
        <ele>882</ele>
        <time>2021-06-01T09:05:52.000Z</time>
      </trkpt>
      <trkpt lat="44.1281" lon="5.88177">
        <ele>882</ele>
        <time>2021-06-01T09:05:53.000Z</time>
      </trkpt>
      <trkpt lat="44.12809" lon="5.88176">
        <ele>882</ele>
        <time>2021-06-01T09:05:54.000Z</time>
      </trkpt>
      <trkpt lat="44.12808" lon="5.88176">
        <ele>882</ele>
        <time>2021-06-01T09:05:55.000Z</time>
      </trkpt>
      <trkpt lat="44.12808" lon="5.88175">
        <ele>882</ele>
        <time>2021-06-01T09:05:56.000Z</time>
      </trkpt>
      <trkpt lat="44.12807" lon="5.88174">
        <ele>882</ele>
        <time>2021-06-01T09:05:57.000Z</time>
      </trkpt>
      <trkpt lat="44.12806" lon="5.88173">
        <ele>882</ele>
        <time>2021-06-01T09:05:58.000Z</time>
      </trkpt>
      <trkpt lat="44.12805" lon="5.88172">
        <ele>882</ele>
        <time>2021-06-01T09:05:59.000Z</time>
      </trkpt>
      <trkpt lat="44.12804" lon="5.88172">
        <ele>881</ele>
        <time>2021-06-01T09:06:00.000Z</time>
      </trkpt>
      <trkpt lat="44.12803" lon="5.8817">
        <ele>881</ele>
        <time>2021-06-01T09:06:01.000Z</time>
      </trkpt>
      <trkpt lat="44.12803" lon="5.88169">
        <ele>881</ele>
        <time>2021-06-01T09:06:02.000Z</time>
      </trkpt>
      <trkpt lat="44.12802" lon="5.88168">
        <ele>881</ele>
        <time>2021-06-01T09:06:03.000Z</time>
      </trkpt>
      <trkpt lat="44.12801" lon="5.88168">
        <ele>881</ele>
        <time>2021-06-01T09:06:04.000Z</time>
      </trkpt>
      <trkpt lat="44.128" lon="5.88167">
        <ele>881</ele>
        <time>2021-06-01T09:06:05.000Z</time>
      </trkpt>
      <trkpt lat="44.128" lon="5.88166">
        <ele>881</ele>
        <time>2021-06-01T09:06:06.000Z</time>
      </trkpt>
      <trkpt lat="44.12799" lon="5.88165">
        <ele>881</ele>
        <time>2021-06-01T09:06:07.000Z</time>
      </trkpt>
      <trkpt lat="44.12798" lon="5.88164">
        <ele>880</ele>
        <time>2021-06-01T09:06:08.000Z</time>
      </trkpt>
      <trkpt lat="44.12797" lon="5.88163">
        <ele>880</ele>
        <time>2021-06-01T09:06:09.000Z</time>
      </trkpt>
      <trkpt lat="44.12797" lon="5.88162">
        <ele>880</ele>
        <time>2021-06-01T09:06:10.000Z</time>
      </trkpt>
      <trkpt lat="44.12796" lon="5.88161">
        <ele>880</ele>
        <time>2021-06-01T09:06:11.000Z</time>
      </trkpt>
      <trkpt lat="44.12795" lon="5.8816">
        <ele>880</ele>
        <time>2021-06-01T09:06:12.000Z</time>
      </trkpt>
      <trkpt lat="44.12794" lon="5.8816">
        <ele>880</ele>
        <time>2021-06-01T09:06:13.000Z</time>
      </trkpt>
      <trkpt lat="44.12794" lon="5.88159">
        <ele>880</ele>
        <time>2021-06-01T09:06:14.000Z</time>
      </trkpt>
      <trkpt lat="44.12793" lon="5.88158">
        <ele>880</ele>
        <time>2021-06-01T09:06:15.000Z</time>
      </trkpt>
      <trkpt lat="44.12792" lon="5.88158">
        <ele>879</ele>
        <time>2021-06-01T09:06:16.000Z</time>
      </trkpt>
      <trkpt lat="44.12791" lon="5.88157">
        <ele>879</ele>
        <time>2021-06-01T09:06:17.000Z</time>
      </trkpt>
      <trkpt lat="44.1279" lon="5.88156">
        <ele>879</ele>
        <time>2021-06-01T09:06:18.000Z</time>
      </trkpt>
      <trkpt lat="44.12789" lon="5.88155">
        <ele>879</ele>
        <time>2021-06-01T09:06:19.000Z</time>
      </trkpt>
      <trkpt lat="44.12789" lon="5.88154">
        <ele>879</ele>
        <time>2021-06-01T09:06:20.000Z</time>
      </trkpt>
      <trkpt lat="44.12788" lon="5.88153">
        <ele>879</ele>
        <time>2021-06-01T09:06:21.000Z</time>
      </trkpt>
      <trkpt lat="44.12787" lon="5.88152">
        <ele>879</ele>
        <time>2021-06-01T09:06:22.000Z</time>
      </trkpt>
      <trkpt lat="44.12786" lon="5.88151">
        <ele>879</ele>
        <time>2021-06-01T09:06:23.000Z</time>
      </trkpt>
      <trkpt lat="44.12785" lon="5.8815">
        <ele>879</ele>
        <time>2021-06-01T09:06:24.000Z</time>
      </trkpt>
      <trkpt lat="44.12785" lon="5.88149">
        <ele>879</ele>
        <time>2021-06-01T09:06:25.000Z</time>
      </trkpt>
      <trkpt lat="44.12784" lon="5.88148">
        <ele>879</ele>
        <time>2021-06-01T09:06:26.000Z</time>
      </trkpt>
      <trkpt lat="44.12784" lon="5.88147">
        <ele>879</ele>
        <time>2021-06-01T09:06:27.000Z</time>
      </trkpt>
      <trkpt lat="44.12783" lon="5.88146">
        <ele>879</ele>
        <time>2021-06-01T09:06:28.000Z</time>
      </trkpt>
      <trkpt lat="44.12782" lon="5.88145">
        <ele>879</ele>
        <time>2021-06-01T09:06:29.000Z</time>
      </trkpt>
      <trkpt lat="44.12782" lon="5.88144">
        <ele>879</ele>
        <time>2021-06-01T09:06:30.000Z</time>
      </trkpt>
      <trkpt lat="44.12781" lon="5.88143">
        <ele>879</ele>
        <time>2021-06-01T09:06:31.000Z</time>
      </trkpt>
      <trkpt lat="44.1278" lon="5.88142">
        <ele>879</ele>
        <time>2021-06-01T09:06:32.000Z</time>
      </trkpt>
      <trkpt lat="44.12779" lon="5.88141">
        <ele>879</ele>
        <time>2021-06-01T09:06:33.000Z</time>
      </trkpt>
      <trkpt lat="44.12779" lon="5.8814">
        <ele>879</ele>
        <time>2021-06-01T09:06:34.000Z</time>
      </trkpt>
      <trkpt lat="44.12778" lon="5.88139">
        <ele>879</ele>
        <time>2021-06-01T09:06:35.000Z</time>
      </trkpt>
      <trkpt lat="44.12778" lon="5.88138">
        <ele>878</ele>
        <time>2021-06-01T09:06:36.000Z</time>
      </trkpt>
      <trkpt lat="44.12777" lon="5.88136">
        <ele>878</ele>
        <time>2021-06-01T09:06:37.000Z</time>
      </trkpt>
      <trkpt lat="44.12776" lon="5.88135">
        <ele>878</ele>
        <time>2021-06-01T09:06:38.000Z</time>
      </trkpt>
      <trkpt lat="44.12776" lon="5.88134">
        <ele>878</ele>
        <time>2021-06-01T09:06:39.000Z</time>
      </trkpt>
      <trkpt lat="44.12775" lon="5.88133">
        <ele>878</ele>
        <time>2021-06-01T09:06:40.000Z</time>
      </trkpt>
      <trkpt lat="44.12774" lon="5.88132">
        <ele>878</ele>
        <time>2021-06-01T09:06:41.000Z</time>
      </trkpt>
      <trkpt lat="44.12774" lon="5.88131">
        <ele>878</ele>
        <time>2021-06-01T09:06:42.000Z</time>
      </trkpt>
      <trkpt lat="44.12773" lon="5.8813">
        <ele>878</ele>
        <time>2021-06-01T09:06:43.000Z</time>
      </trkpt>
      <trkpt lat="44.12772" lon="5.88129">
        <ele>878</ele>
        <time>2021-06-01T09:06:44.000Z</time>
      </trkpt>
      <trkpt lat="44.12771" lon="5.88128">
        <ele>878</ele>
        <time>2021-06-01T09:06:45.000Z</time>
      </trkpt>
      <trkpt lat="44.12771" lon="5.88127">
        <ele>877</ele>
        <time>2021-06-01T09:06:46.000Z</time>
      </trkpt>
      <trkpt lat="44.1277" lon="5.88126">
        <ele>877</ele>
        <time>2021-06-01T09:06:47.000Z</time>
      </trkpt>
      <trkpt lat="44.12769" lon="5.88125">
        <ele>877</ele>
        <time>2021-06-01T09:06:48.000Z</time>
      </trkpt>
      <trkpt lat="44.12768" lon="5.88124">
        <ele>877</ele>
        <time>2021-06-01T09:06:49.000Z</time>
      </trkpt>
      <trkpt lat="44.12767" lon="5.88123">
        <ele>877</ele>
        <time>2021-06-01T09:06:50.000Z</time>
      </trkpt>
      <trkpt lat="44.12766" lon="5.88122">
        <ele>877</ele>
        <time>2021-06-01T09:06:51.000Z</time>
      </trkpt>
      <trkpt lat="44.12766" lon="5.88121">
        <ele>876</ele>
        <time>2021-06-01T09:06:52.000Z</time>
      </trkpt>
      <trkpt lat="44.12765" lon="5.8812">
        <ele>876</ele>
        <time>2021-06-01T09:06:53.000Z</time>
      </trkpt>
      <trkpt lat="44.12764" lon="5.88119">
        <ele>876</ele>
        <time>2021-06-01T09:06:54.000Z</time>
      </trkpt>
      <trkpt lat="44.12763" lon="5.88118">
        <ele>876</ele>
        <time>2021-06-01T09:06:55.000Z</time>
      </trkpt>
      <trkpt lat="44.12762" lon="5.88117">
        <ele>876</ele>
        <time>2021-06-01T09:06:56.000Z</time>
      </trkpt>
      <trkpt lat="44.12761" lon="5.88116">
        <ele>876</ele>
        <time>2021-06-01T09:06:57.000Z</time>
      </trkpt>
      <trkpt lat="44.1276" lon="5.88115">
        <ele>876</ele>
        <time>2021-06-01T09:06:58.000Z</time>
      </trkpt>
      <trkpt lat="44.1276" lon="5.88114">
        <ele>875</ele>
        <time>2021-06-01T09:06:59.000Z</time>
      </trkpt>
      <trkpt lat="44.12759" lon="5.88113">
        <ele>875</ele>
        <time>2021-06-01T09:07:00.000Z</time>
      </trkpt>
      <trkpt lat="44.12758" lon="5.88113">
        <ele>875</ele>
        <time>2021-06-01T09:07:01.000Z</time>
      </trkpt>
      <trkpt lat="44.12757" lon="5.88112">
        <ele>875</ele>
        <time>2021-06-01T09:07:02.000Z</time>
      </trkpt>
      <trkpt lat="44.12756" lon="5.88111">
        <ele>875</ele>
        <time>2021-06-01T09:07:03.000Z</time>
      </trkpt>
      <trkpt lat="44.12755" lon="5.8811">
        <ele>875</ele>
        <time>2021-06-01T09:07:04.000Z</time>
      </trkpt>
      <trkpt lat="44.12754" lon="5.88109">
        <ele>875</ele>
        <time>2021-06-01T09:07:05.000Z</time>
      </trkpt>
      <trkpt lat="44.12753" lon="5.88108">
        <ele>875</ele>
        <time>2021-06-01T09:07:06.000Z</time>
      </trkpt>
      <trkpt lat="44.12752" lon="5.88108">
        <ele>874</ele>
        <time>2021-06-01T09:07:07.000Z</time>
      </trkpt>
      <trkpt lat="44.12751" lon="5.88107">
        <ele>874</ele>
        <time>2021-06-01T09:07:08.000Z</time>
      </trkpt>
      <trkpt lat="44.1275" lon="5.88106">
        <ele>874</ele>
        <time>2021-06-01T09:07:09.000Z</time>
      </trkpt>
      <trkpt lat="44.12749" lon="5.88105">
        <ele>874</ele>
        <time>2021-06-01T09:07:10.000Z</time>
      </trkpt>
      <trkpt lat="44.12748" lon="5.88104">
        <ele>874</ele>
        <time>2021-06-01T09:07:11.000Z</time>
      </trkpt>
      <trkpt lat="44.12748" lon="5.88104">
        <ele>874</ele>
        <time>2021-06-01T09:07:12.000Z</time>
      </trkpt>
      <trkpt lat="44.12746" lon="5.88103">
        <ele>874</ele>
        <time>2021-06-01T09:07:13.000Z</time>
      </trkpt>
      <trkpt lat="44.12745" lon="5.88102">
        <ele>874</ele>
        <time>2021-06-01T09:07:14.000Z</time>
      </trkpt>
      <trkpt lat="44.12744" lon="5.88101">
        <ele>874</ele>
        <time>2021-06-01T09:07:15.000Z</time>
      </trkpt>
      <trkpt lat="44.12743" lon="5.88101">
        <ele>874</ele>
        <time>2021-06-01T09:07:16.000Z</time>
      </trkpt>
      <trkpt lat="44.12742" lon="5.88101">
        <ele>874</ele>
        <time>2021-06-01T09:07:17.000Z</time>
      </trkpt>
      <trkpt lat="44.12741" lon="5.881">
        <ele>873</ele>
        <time>2021-06-01T09:07:18.000Z</time>
      </trkpt>
      <trkpt lat="44.1274" lon="5.88099">
        <ele>873</ele>
        <time>2021-06-01T09:07:19.000Z</time>
      </trkpt>
      <trkpt lat="44.1274" lon="5.88098">
        <ele>873</ele>
        <time>2021-06-01T09:07:20.000Z</time>
      </trkpt>
      <trkpt lat="44.12739" lon="5.88097">
        <ele>873</ele>
        <time>2021-06-01T09:07:21.000Z</time>
      </trkpt>
      <trkpt lat="44.12739" lon="5.88096">
        <ele>873</ele>
        <time>2021-06-01T09:07:22.000Z</time>
      </trkpt>
      <trkpt lat="44.12738" lon="5.88095">
        <ele>873</ele>
        <time>2021-06-01T09:07:23.000Z</time>
      </trkpt>
      <trkpt lat="44.12737" lon="5.88094">
        <ele>873</ele>
        <time>2021-06-01T09:07:24.000Z</time>
      </trkpt>
      <trkpt lat="44.12737" lon="5.88092">
        <ele>873</ele>
        <time>2021-06-01T09:07:25.000Z</time>
      </trkpt>
      <trkpt lat="44.12736" lon="5.88092">
        <ele>872</ele>
        <time>2021-06-01T09:07:26.000Z</time>
      </trkpt>
      <trkpt lat="44.12735" lon="5.88091">
        <ele>872</ele>
        <time>2021-06-01T09:07:27.000Z</time>
      </trkpt>
      <trkpt lat="44.12734" lon="5.8809">
        <ele>872</ele>
        <time>2021-06-01T09:07:28.000Z</time>
      </trkpt>
      <trkpt lat="44.12733" lon="5.88089">
        <ele>872</ele>
        <time>2021-06-01T09:07:29.000Z</time>
      </trkpt>
      <trkpt lat="44.12732" lon="5.88088">
        <ele>872</ele>
        <time>2021-06-01T09:07:30.000Z</time>
      </trkpt>
      <trkpt lat="44.12732" lon="5.88087">
        <ele>872</ele>
        <time>2021-06-01T09:07:31.000Z</time>
      </trkpt>
      <trkpt lat="44.12731" lon="5.88087">
        <ele>871</ele>
        <time>2021-06-01T09:07:32.000Z</time>
      </trkpt>
      <trkpt lat="44.1273" lon="5.88086">
        <ele>871</ele>
        <time>2021-06-01T09:07:33.000Z</time>
      </trkpt>
      <trkpt lat="44.12729" lon="5.88085">
        <ele>871</ele>
        <time>2021-06-01T09:07:34.000Z</time>
      </trkpt>
      <trkpt lat="44.12728" lon="5.88084">
        <ele>871</ele>
        <time>2021-06-01T09:07:35.000Z</time>
      </trkpt>
      <trkpt lat="44.12728" lon="5.88083">
        <ele>871</ele>
        <time>2021-06-01T09:07:36.000Z</time>
      </trkpt>
      <trkpt lat="44.12727" lon="5.88082">
        <ele>871</ele>
        <time>2021-06-01T09:07:37.000Z</time>
      </trkpt>
      <trkpt lat="44.12726" lon="5.88081">
        <ele>871</ele>
        <time>2021-06-01T09:07:38.000Z</time>
      </trkpt>
      <trkpt lat="44.12725" lon="5.8808">
        <ele>871</ele>
        <time>2021-06-01T09:07:39.000Z</time>
      </trkpt>
      <trkpt lat="44.12724" lon="5.88079">
        <ele>871</ele>
        <time>2021-06-01T09:07:40.000Z</time>
      </trkpt>
      <trkpt lat="44.12723" lon="5.88078">
        <ele>871</ele>
        <time>2021-06-01T09:07:41.000Z</time>
      </trkpt>
      <trkpt lat="44.12722" lon="5.88077">
        <ele>871</ele>
        <time>2021-06-01T09:07:42.000Z</time>
      </trkpt>
      <trkpt lat="44.12721" lon="5.88076">
        <ele>871</ele>
        <time>2021-06-01T09:07:43.000Z</time>
      </trkpt>
      <trkpt lat="44.12721" lon="5.88075">
        <ele>870</ele>
        <time>2021-06-01T09:07:44.000Z</time>
      </trkpt>
      <trkpt lat="44.1272" lon="5.88074">
        <ele>870</ele>
        <time>2021-06-01T09:07:45.000Z</time>
      </trkpt>
      <trkpt lat="44.12719" lon="5.88073">
        <ele>870</ele>
        <time>2021-06-01T09:07:46.000Z</time>
      </trkpt>
      <trkpt lat="44.12719" lon="5.88072">
        <ele>870</ele>
        <time>2021-06-01T09:07:47.000Z</time>
      </trkpt>
      <trkpt lat="44.12718" lon="5.88071">
        <ele>870</ele>
        <time>2021-06-01T09:07:48.000Z</time>
      </trkpt>
      <trkpt lat="44.12717" lon="5.8807">
        <ele>870</ele>
        <time>2021-06-01T09:07:49.000Z</time>
      </trkpt>
      <trkpt lat="44.12716" lon="5.88069">
        <ele>870</ele>
        <time>2021-06-01T09:07:50.000Z</time>
      </trkpt>
      <trkpt lat="44.12715" lon="5.88068">
        <ele>870</ele>
        <time>2021-06-01T09:07:51.000Z</time>
      </trkpt>
      <trkpt lat="44.12714" lon="5.88066">
        <ele>870</ele>
        <time>2021-06-01T09:07:52.000Z</time>
      </trkpt>
      <trkpt lat="44.12714" lon="5.88065">
        <ele>870</ele>
        <time>2021-06-01T09:07:53.000Z</time>
      </trkpt>
      <trkpt lat="44.12713" lon="5.88064">
        <ele>870</ele>
        <time>2021-06-01T09:07:54.000Z</time>
      </trkpt>
      <trkpt lat="44.12712" lon="5.88063">
        <ele>870</ele>
        <time>2021-06-01T09:07:55.000Z</time>
      </trkpt>
      <trkpt lat="44.12712" lon="5.88062">
        <ele>870</ele>
        <time>2021-06-01T09:07:56.000Z</time>
      </trkpt>
      <trkpt lat="44.12711" lon="5.88061">
        <ele>870</ele>
        <time>2021-06-01T09:07:57.000Z</time>
      </trkpt>
      <trkpt lat="44.1271" lon="5.88059">
        <ele>870</ele>
        <time>2021-06-01T09:07:58.000Z</time>
      </trkpt>
      <trkpt lat="44.1271" lon="5.88058">
        <ele>870</ele>
        <time>2021-06-01T09:07:59.000Z</time>
      </trkpt>
      <trkpt lat="44.12709" lon="5.88057">
        <ele>870</ele>
        <time>2021-06-01T09:08:00.000Z</time>
      </trkpt>
      <trkpt lat="44.12708" lon="5.88056">
        <ele>869</ele>
        <time>2021-06-01T09:08:01.000Z</time>
      </trkpt>
      <trkpt lat="44.12707" lon="5.88055">
        <ele>869</ele>
        <time>2021-06-01T09:08:02.000Z</time>
      </trkpt>
      <trkpt lat="44.12707" lon="5.88054">
        <ele>869</ele>
        <time>2021-06-01T09:08:03.000Z</time>
      </trkpt>
      <trkpt lat="44.12706" lon="5.88053">
        <ele>869</ele>
        <time>2021-06-01T09:08:04.000Z</time>
      </trkpt>
      <trkpt lat="44.12706" lon="5.88051">
        <ele>869</ele>
        <time>2021-06-01T09:08:05.000Z</time>
      </trkpt>
      <trkpt lat="44.12705" lon="5.8805">
        <ele>869</ele>
        <time>2021-06-01T09:08:06.000Z</time>
      </trkpt>
      <trkpt lat="44.12704" lon="5.88049">
        <ele>869</ele>
        <time>2021-06-01T09:08:07.000Z</time>
      </trkpt>
      <trkpt lat="44.12704" lon="5.88048">
        <ele>869</ele>
        <time>2021-06-01T09:08:08.000Z</time>
      </trkpt>
      <trkpt lat="44.12703" lon="5.88047">
        <ele>869</ele>
        <time>2021-06-01T09:08:09.000Z</time>
      </trkpt>
      <trkpt lat="44.12702" lon="5.88045">
        <ele>868</ele>
        <time>2021-06-01T09:08:10.000Z</time>
      </trkpt>
      <trkpt lat="44.12701" lon="5.88044">
        <ele>868</ele>
        <time>2021-06-01T09:08:11.000Z</time>
      </trkpt>
      <trkpt lat="44.12701" lon="5.88043">
        <ele>868</ele>
        <time>2021-06-01T09:08:12.000Z</time>
      </trkpt>
      <trkpt lat="44.127" lon="5.88042">
        <ele>868</ele>
        <time>2021-06-01T09:08:13.000Z</time>
      </trkpt>
      <trkpt lat="44.12699" lon="5.88041">
        <ele>868</ele>
        <time>2021-06-01T09:08:14.000Z</time>
      </trkpt>
      <trkpt lat="44.12698" lon="5.8804">
        <ele>868</ele>
        <time>2021-06-01T09:08:15.000Z</time>
      </trkpt>
      <trkpt lat="44.12698" lon="5.88039">
        <ele>868</ele>
        <time>2021-06-01T09:08:16.000Z</time>
      </trkpt>
      <trkpt lat="44.12697" lon="5.88038">
        <ele>868</ele>
        <time>2021-06-01T09:08:17.000Z</time>
      </trkpt>
      <trkpt lat="44.12696" lon="5.88038">
        <ele>868</ele>
        <time>2021-06-01T09:08:18.000Z</time>
      </trkpt>
      <trkpt lat="44.12695" lon="5.88037">
        <ele>868</ele>
        <time>2021-06-01T09:08:19.000Z</time>
      </trkpt>
      <trkpt lat="44.12694" lon="5.88035">
        <ele>868</ele>
        <time>2021-06-01T09:08:20.000Z</time>
      </trkpt>
      <trkpt lat="44.12693" lon="5.88034">
        <ele>868</ele>
        <time>2021-06-01T09:08:21.000Z</time>
      </trkpt>
      <trkpt lat="44.12693" lon="5.88033">
        <ele>868</ele>
        <time>2021-06-01T09:08:22.000Z</time>
      </trkpt>
      <trkpt lat="44.12692" lon="5.88031">
        <ele>868</ele>
        <time>2021-06-01T09:08:23.000Z</time>
      </trkpt>
      <trkpt lat="44.12691" lon="5.8803">
        <ele>867</ele>
        <time>2021-06-01T09:08:24.000Z</time>
      </trkpt>
      <trkpt lat="44.1269" lon="5.88029">
        <ele>867</ele>
        <time>2021-06-01T09:08:25.000Z</time>
      </trkpt>
      <trkpt lat="44.1269" lon="5.88027">
        <ele>867</ele>
        <time>2021-06-01T09:08:26.000Z</time>
      </trkpt>
      <trkpt lat="44.12689" lon="5.88026">
        <ele>867</ele>
        <time>2021-06-01T09:08:27.000Z</time>
      </trkpt>
      <trkpt lat="44.12689" lon="5.88025">
        <ele>867</ele>
        <time>2021-06-01T09:08:28.000Z</time>
      </trkpt>
      <trkpt lat="44.12688" lon="5.88023">
        <ele>867</ele>
        <time>2021-06-01T09:08:29.000Z</time>
      </trkpt>
      <trkpt lat="44.12688" lon="5.88022">
        <ele>867</ele>
        <time>2021-06-01T09:08:30.000Z</time>
      </trkpt>
      <trkpt lat="44.12687" lon="5.88021">
        <ele>866</ele>
        <time>2021-06-01T09:08:31.000Z</time>
      </trkpt>
      <trkpt lat="44.12686" lon="5.8802">
        <ele>866</ele>
        <time>2021-06-01T09:08:32.000Z</time>
      </trkpt>
      <trkpt lat="44.12686" lon="5.88019">
        <ele>866</ele>
        <time>2021-06-01T09:08:33.000Z</time>
      </trkpt>
      <trkpt lat="44.12685" lon="5.88017">
        <ele>866</ele>
        <time>2021-06-01T09:08:34.000Z</time>
      </trkpt>
      <trkpt lat="44.12685" lon="5.88016">
        <ele>866</ele>
        <time>2021-06-01T09:08:35.000Z</time>
      </trkpt>
      <trkpt lat="44.12684" lon="5.88015">
        <ele>866</ele>
        <time>2021-06-01T09:08:36.000Z</time>
      </trkpt>
      <trkpt lat="44.12684" lon="5.88014">
        <ele>866</ele>
        <time>2021-06-01T09:08:37.000Z</time>
      </trkpt>
      <trkpt lat="44.12683" lon="5.88012">
        <ele>866</ele>
        <time>2021-06-01T09:08:38.000Z</time>
      </trkpt>
      <trkpt lat="44.12683" lon="5.8801">
        <ele>866</ele>
        <time>2021-06-01T09:08:39.000Z</time>
      </trkpt>
      <trkpt lat="44.12683" lon="5.88009">
        <ele>866</ele>
        <time>2021-06-01T09:08:40.000Z</time>
      </trkpt>
      <trkpt lat="44.12682" lon="5.88008">
        <ele>866</ele>
        <time>2021-06-01T09:08:41.000Z</time>
      </trkpt>
      <trkpt lat="44.12681" lon="5.88006">
        <ele>866</ele>
        <time>2021-06-01T09:08:42.000Z</time>
      </trkpt>
      <trkpt lat="44.12681" lon="5.88005">
        <ele>865</ele>
        <time>2021-06-01T09:08:43.000Z</time>
      </trkpt>
      <trkpt lat="44.1268" lon="5.88003">
        <ele>865</ele>
        <time>2021-06-01T09:08:44.000Z</time>
      </trkpt>
      <trkpt lat="44.1268" lon="5.88002">
        <ele>865</ele>
        <time>2021-06-01T09:08:45.000Z</time>
      </trkpt>
      <trkpt lat="44.12679" lon="5.88">
        <ele>865</ele>
        <time>2021-06-01T09:08:46.000Z</time>
      </trkpt>
      <trkpt lat="44.12679" lon="5.87999">
        <ele>865</ele>
        <time>2021-06-01T09:08:47.000Z</time>
      </trkpt>
      <trkpt lat="44.12678" lon="5.87998">
        <ele>865</ele>
        <time>2021-06-01T09:08:48.000Z</time>
      </trkpt>
      <trkpt lat="44.12678" lon="5.87996">
        <ele>865</ele>
        <time>2021-06-01T09:08:49.000Z</time>
      </trkpt>
      <trkpt lat="44.12677" lon="5.87995">
        <ele>865</ele>
        <time>2021-06-01T09:08:50.000Z</time>
      </trkpt>
      <trkpt lat="44.12677" lon="5.87993">
        <ele>865</ele>
        <time>2021-06-01T09:08:51.000Z</time>
      </trkpt>
      <trkpt lat="44.12676" lon="5.87992">
        <ele>865</ele>
        <time>2021-06-01T09:08:52.000Z</time>
      </trkpt>
      <trkpt lat="44.12675" lon="5.8799">
        <ele>865</ele>
        <time>2021-06-01T09:08:53.000Z</time>
      </trkpt>
      <trkpt lat="44.12675" lon="5.87989">
        <ele>865</ele>
        <time>2021-06-01T09:08:54.000Z</time>
      </trkpt>
      <trkpt lat="44.12674" lon="5.87988">
        <ele>865</ele>
        <time>2021-06-01T09:08:55.000Z</time>
      </trkpt>
      <trkpt lat="44.12674" lon="5.87986">
        <ele>865</ele>
        <time>2021-06-01T09:08:56.000Z</time>
      </trkpt>
      <trkpt lat="44.12673" lon="5.87985">
        <ele>865</ele>
        <time>2021-06-01T09:08:57.000Z</time>
      </trkpt>
      <trkpt lat="44.12672" lon="5.87984">
        <ele>865</ele>
        <time>2021-06-01T09:08:58.000Z</time>
      </trkpt>
      <trkpt lat="44.12672" lon="5.87983">
        <ele>865</ele>
        <time>2021-06-01T09:08:59.000Z</time>
      </trkpt>
      <trkpt lat="44.12671" lon="5.87982">
        <ele>865</ele>
        <time>2021-06-01T09:09:00.000Z</time>
      </trkpt>
      <trkpt lat="44.12671" lon="5.87981">
        <ele>865</ele>
        <time>2021-06-01T09:09:01.000Z</time>
      </trkpt>
      <trkpt lat="44.1267" lon="5.8798">
        <ele>865</ele>
        <time>2021-06-01T09:09:02.000Z</time>
      </trkpt>
      <trkpt lat="44.1267" lon="5.87979">
        <ele>865</ele>
        <time>2021-06-01T09:09:03.000Z</time>
      </trkpt>
      <trkpt lat="44.12669" lon="5.87978">
        <ele>865</ele>
        <time>2021-06-01T09:09:04.000Z</time>
      </trkpt>
      <trkpt lat="44.12668" lon="5.87977">
        <ele>865</ele>
        <time>2021-06-01T09:09:05.000Z</time>
      </trkpt>
      <trkpt lat="44.12668" lon="5.87975">
        <ele>865</ele>
        <time>2021-06-01T09:09:06.000Z</time>
      </trkpt>
      <trkpt lat="44.12667" lon="5.87974">
        <ele>865</ele>
        <time>2021-06-01T09:09:07.000Z</time>
      </trkpt>
      <trkpt lat="44.12666" lon="5.87973">
        <ele>865</ele>
        <time>2021-06-01T09:09:08.000Z</time>
      </trkpt>
      <trkpt lat="44.12666" lon="5.87972">
        <ele>864</ele>
        <time>2021-06-01T09:09:09.000Z</time>
      </trkpt>
      <trkpt lat="44.12665" lon="5.87971">
        <ele>864</ele>
        <time>2021-06-01T09:09:10.000Z</time>
      </trkpt>
      <trkpt lat="44.12664" lon="5.8797">
        <ele>864</ele>
        <time>2021-06-01T09:09:11.000Z</time>
      </trkpt>
      <trkpt lat="44.12663" lon="5.87969">
        <ele>864</ele>
        <time>2021-06-01T09:09:12.000Z</time>
      </trkpt>
      <trkpt lat="44.12662" lon="5.87968">
        <ele>864</ele>
        <time>2021-06-01T09:09:13.000Z</time>
      </trkpt>
      <trkpt lat="44.12662" lon="5.87967">
        <ele>864</ele>
        <time>2021-06-01T09:09:14.000Z</time>
      </trkpt>
      <trkpt lat="44.12661" lon="5.87966">
        <ele>864</ele>
        <time>2021-06-01T09:09:15.000Z</time>
      </trkpt>
      <trkpt lat="44.1266" lon="5.87965">
        <ele>864</ele>
        <time>2021-06-01T09:09:16.000Z</time>
      </trkpt>
      <trkpt lat="44.12659" lon="5.87964">
        <ele>864</ele>
        <time>2021-06-01T09:09:17.000Z</time>
      </trkpt>
      <trkpt lat="44.12658" lon="5.87964">
        <ele>864</ele>
        <time>2021-06-01T09:09:18.000Z</time>
      </trkpt>
      <trkpt lat="44.12657" lon="5.87963">
        <ele>864</ele>
        <time>2021-06-01T09:09:19.000Z</time>
      </trkpt>
      <trkpt lat="44.12657" lon="5.87962">
        <ele>864</ele>
        <time>2021-06-01T09:09:20.000Z</time>
      </trkpt>
      <trkpt lat="44.12656" lon="5.87961">
        <ele>864</ele>
        <time>2021-06-01T09:09:21.000Z</time>
      </trkpt>
      <trkpt lat="44.12655" lon="5.8796">
        <ele>864</ele>
        <time>2021-06-01T09:09:22.000Z</time>
      </trkpt>
      <trkpt lat="44.12654" lon="5.87958">
        <ele>864</ele>
        <time>2021-06-01T09:09:23.000Z</time>
      </trkpt>
      <trkpt lat="44.12654" lon="5.87957">
        <ele>864</ele>
        <time>2021-06-01T09:09:24.000Z</time>
      </trkpt>
      <trkpt lat="44.12653" lon="5.87957">
        <ele>864</ele>
        <time>2021-06-01T09:09:25.000Z</time>
      </trkpt>
      <trkpt lat="44.12652" lon="5.87956">
        <ele>864</ele>
        <time>2021-06-01T09:09:26.000Z</time>
      </trkpt>
      <trkpt lat="44.12651" lon="5.87955">
        <ele>864</ele>
        <time>2021-06-01T09:09:27.000Z</time>
      </trkpt>
      <trkpt lat="44.1265" lon="5.87954">
        <ele>864</ele>
        <time>2021-06-01T09:09:28.000Z</time>
      </trkpt>
      <trkpt lat="44.12649" lon="5.87953">
        <ele>864</ele>
        <time>2021-06-01T09:09:29.000Z</time>
      </trkpt>
      <trkpt lat="44.12648" lon="5.87952">
        <ele>864</ele>
        <time>2021-06-01T09:09:30.000Z</time>
      </trkpt>
      <trkpt lat="44.12647" lon="5.87951">
        <ele>864</ele>
        <time>2021-06-01T09:09:31.000Z</time>
      </trkpt>
      <trkpt lat="44.12646" lon="5.8795">
        <ele>864</ele>
        <time>2021-06-01T09:09:32.000Z</time>
      </trkpt>
      <trkpt lat="44.12645" lon="5.8795">
        <ele>864</ele>
        <time>2021-06-01T09:09:33.000Z</time>
      </trkpt>
      <trkpt lat="44.12644" lon="5.87949">
        <ele>864</ele>
        <time>2021-06-01T09:09:34.000Z</time>
      </trkpt>
      <trkpt lat="44.12643" lon="5.87948">
        <ele>864</ele>
        <time>2021-06-01T09:09:35.000Z</time>
      </trkpt>
      <trkpt lat="44.12642" lon="5.87948">
        <ele>864</ele>
        <time>2021-06-01T09:09:36.000Z</time>
      </trkpt>
      <trkpt lat="44.12641" lon="5.87947">
        <ele>864</ele>
        <time>2021-06-01T09:09:37.000Z</time>
      </trkpt>
      <trkpt lat="44.1264" lon="5.87947">
        <ele>865</ele>
        <time>2021-06-01T09:09:38.000Z</time>
      </trkpt>
      <trkpt lat="44.12639" lon="5.87946">
        <ele>865</ele>
        <time>2021-06-01T09:09:39.000Z</time>
      </trkpt>
      <trkpt lat="44.12639" lon="5.87946">
        <ele>865</ele>
        <time>2021-06-01T09:09:40.000Z</time>
      </trkpt>
      <trkpt lat="44.12638" lon="5.87945">
        <ele>865</ele>
        <time>2021-06-01T09:09:41.000Z</time>
      </trkpt>
      <trkpt lat="44.12637" lon="5.87945">
        <ele>865</ele>
        <time>2021-06-01T09:09:42.000Z</time>
      </trkpt>
      <trkpt lat="44.12637" lon="5.87944">
        <ele>865</ele>
        <time>2021-06-01T09:09:43.000Z</time>
      </trkpt>
      <trkpt lat="44.12636" lon="5.87944">
        <ele>865</ele>
        <time>2021-06-01T09:09:44.000Z</time>
      </trkpt>
      <trkpt lat="44.12635" lon="5.87943">
        <ele>865</ele>
        <time>2021-06-01T09:09:45.000Z</time>
      </trkpt>
      <trkpt lat="44.12634" lon="5.87943">
        <ele>865</ele>
        <time>2021-06-01T09:09:46.000Z</time>
      </trkpt>
      <trkpt lat="44.12633" lon="5.87942">
        <ele>865</ele>
        <time>2021-06-01T09:09:47.000Z</time>
      </trkpt>
      <trkpt lat="44.12633" lon="5.87941">
        <ele>865</ele>
        <time>2021-06-01T09:09:48.000Z</time>
      </trkpt>
      <trkpt lat="44.12632" lon="5.8794">
        <ele>866</ele>
        <time>2021-06-01T09:09:49.000Z</time>
      </trkpt>
      <trkpt lat="44.12631" lon="5.8794">
        <ele>866</ele>
        <time>2021-06-01T09:09:50.000Z</time>
      </trkpt>
      <trkpt lat="44.1263" lon="5.87939">
        <ele>866</ele>
        <time>2021-06-01T09:09:51.000Z</time>
      </trkpt>
      <trkpt lat="44.12629" lon="5.87939">
        <ele>866</ele>
        <time>2021-06-01T09:09:52.000Z</time>
      </trkpt>
      <trkpt lat="44.12628" lon="5.87938">
        <ele>866</ele>
        <time>2021-06-01T09:09:53.000Z</time>
      </trkpt>
      <trkpt lat="44.12627" lon="5.87938">
        <ele>866</ele>
        <time>2021-06-01T09:09:54.000Z</time>
      </trkpt>
      <trkpt lat="44.12627" lon="5.87937">
        <ele>866</ele>
        <time>2021-06-01T09:09:55.000Z</time>
      </trkpt>
      <trkpt lat="44.12626" lon="5.87937">
        <ele>866</ele>
        <time>2021-06-01T09:09:56.000Z</time>
      </trkpt>
      <trkpt lat="44.12625" lon="5.87936">
        <ele>866</ele>
        <time>2021-06-01T09:09:57.000Z</time>
      </trkpt>
      <trkpt lat="44.12625" lon="5.87936">
        <ele>866</ele>
        <time>2021-06-01T09:09:58.000Z</time>
      </trkpt>
      <trkpt lat="44.12624" lon="5.87935">
        <ele>866</ele>
        <time>2021-06-01T09:09:59.000Z</time>
      </trkpt>
      <trkpt lat="44.12623" lon="5.87935">
        <ele>866</ele>
        <time>2021-06-01T09:10:00.000Z</time>
      </trkpt>
      <trkpt lat="44.12623" lon="5.87934">
        <ele>866</ele>
        <time>2021-06-01T09:10:01.000Z</time>
      </trkpt>
      <trkpt lat="44.12622" lon="5.87934">
        <ele>866</ele>
        <time>2021-06-01T09:10:02.000Z</time>
      </trkpt>
      <trkpt lat="44.12621" lon="5.87934">
        <ele>867</ele>
        <time>2021-06-01T09:10:03.000Z</time>
      </trkpt>
      <trkpt lat="44.1262" lon="5.87933">
        <ele>867</ele>
        <time>2021-06-01T09:10:04.000Z</time>
      </trkpt>
      <trkpt lat="44.1262" lon="5.87933">
        <ele>867</ele>
        <time>2021-06-01T09:10:05.000Z</time>
      </trkpt>
      <trkpt lat="44.12619" lon="5.87932">
        <ele>867</ele>
        <time>2021-06-01T09:10:06.000Z</time>
      </trkpt>
      <trkpt lat="44.12618" lon="5.87931">
        <ele>867</ele>
        <time>2021-06-01T09:10:07.000Z</time>
      </trkpt>
      <trkpt lat="44.12618" lon="5.87931">
        <ele>867</ele>
        <time>2021-06-01T09:10:08.000Z</time>
      </trkpt>
      <trkpt lat="44.12617" lon="5.8793">
        <ele>867</ele>
        <time>2021-06-01T09:10:09.000Z</time>
      </trkpt>
      <trkpt lat="44.12616" lon="5.8793">
        <ele>867</ele>
        <time>2021-06-01T09:10:10.000Z</time>
      </trkpt>
      <trkpt lat="44.12615" lon="5.87929">
        <ele>867</ele>
        <time>2021-06-01T09:10:11.000Z</time>
      </trkpt>
      <trkpt lat="44.12614" lon="5.87929">
        <ele>867</ele>
        <time>2021-06-01T09:10:12.000Z</time>
      </trkpt>
      <trkpt lat="44.12613" lon="5.87928">
        <ele>868</ele>
        <time>2021-06-01T09:10:13.000Z</time>
      </trkpt>
      <trkpt lat="44.12613" lon="5.87928">
        <ele>868</ele>
        <time>2021-06-01T09:10:14.000Z</time>
      </trkpt>
      <trkpt lat="44.12612" lon="5.87927">
        <ele>868</ele>
        <time>2021-06-01T09:10:15.000Z</time>
      </trkpt>
      <trkpt lat="44.12611" lon="5.87926">
        <ele>868</ele>
        <time>2021-06-01T09:10:16.000Z</time>
      </trkpt>
      <trkpt lat="44.1261" lon="5.87925">
        <ele>868</ele>
        <time>2021-06-01T09:10:17.000Z</time>
      </trkpt>
      <trkpt lat="44.1261" lon="5.87924">
        <ele>868</ele>
        <time>2021-06-01T09:10:18.000Z</time>
      </trkpt>
      <trkpt lat="44.12609" lon="5.87923">
        <ele>868</ele>
        <time>2021-06-01T09:10:19.000Z</time>
      </trkpt>
      <trkpt lat="44.12608" lon="5.87922">
        <ele>868</ele>
        <time>2021-06-01T09:10:20.000Z</time>
      </trkpt>
      <trkpt lat="44.12608" lon="5.87922">
        <ele>868</ele>
        <time>2021-06-01T09:10:21.000Z</time>
      </trkpt>
      <trkpt lat="44.12607" lon="5.87921">
        <ele>868</ele>
        <time>2021-06-01T09:10:22.000Z</time>
      </trkpt>
      <trkpt lat="44.12606" lon="5.8792">
        <ele>868</ele>
        <time>2021-06-01T09:10:23.000Z</time>
      </trkpt>
      <trkpt lat="44.12605" lon="5.87919">
        <ele>869</ele>
        <time>2021-06-01T09:10:24.000Z</time>
      </trkpt>
      <trkpt lat="44.12604" lon="5.87918">
        <ele>869</ele>
        <time>2021-06-01T09:10:25.000Z</time>
      </trkpt>
      <trkpt lat="44.12604" lon="5.87918">
        <ele>869</ele>
        <time>2021-06-01T09:10:26.000Z</time>
      </trkpt>
      <trkpt lat="44.12603" lon="5.87917">
        <ele>869</ele>
        <time>2021-06-01T09:10:27.000Z</time>
      </trkpt>
      <trkpt lat="44.12602" lon="5.87916">
        <ele>869</ele>
        <time>2021-06-01T09:10:28.000Z</time>
      </trkpt>
      <trkpt lat="44.12602" lon="5.87916">
        <ele>869</ele>
        <time>2021-06-01T09:10:29.000Z</time>
      </trkpt>
      <trkpt lat="44.12601" lon="5.87915">
        <ele>869</ele>
        <time>2021-06-01T09:10:30.000Z</time>
      </trkpt>
      <trkpt lat="44.12601" lon="5.87914">
        <ele>869</ele>
        <time>2021-06-01T09:10:31.000Z</time>
      </trkpt>
      <trkpt lat="44.126" lon="5.87914">
        <ele>869</ele>
        <time>2021-06-01T09:10:32.000Z</time>
      </trkpt>
      <trkpt lat="44.126" lon="5.87913">
        <ele>869</ele>
        <time>2021-06-01T09:10:33.000Z</time>
      </trkpt>
      <trkpt lat="44.12599" lon="5.87913">
        <ele>870</ele>
        <time>2021-06-01T09:10:34.000Z</time>
      </trkpt>
      <trkpt lat="44.12599" lon="5.87913">
        <ele>870</ele>
        <time>2021-06-01T09:10:35.000Z</time>
      </trkpt>
      <trkpt lat="44.12599" lon="5.87913">
        <ele>870</ele>
        <time>2021-06-01T09:10:36.000Z</time>
      </trkpt>
      <trkpt lat="44.12599" lon="5.87912">
        <ele>870</ele>
        <time>2021-06-01T09:10:37.000Z</time>
      </trkpt>
      <trkpt lat="44.12599" lon="5.87912">
        <ele>870</ele>
        <time>2021-06-01T09:10:38.000Z</time>
      </trkpt>
      <trkpt lat="44.12598" lon="5.87912">
        <ele>870</ele>
        <time>2021-06-01T09:10:39.000Z</time>
      </trkpt>
      <trkpt lat="44.12598" lon="5.87911">
        <ele>870</ele>
        <time>2021-06-01T09:10:40.000Z</time>
      </trkpt>
      <trkpt lat="44.12598" lon="5.87911">
        <ele>871</ele>
        <time>2021-06-01T09:10:41.000Z</time>
      </trkpt>
      <trkpt lat="44.12597" lon="5.87911">
        <ele>871</ele>
        <time>2021-06-01T09:10:42.000Z</time>
      </trkpt>
      <trkpt lat="44.12597" lon="5.8791">
        <ele>871</ele>
        <time>2021-06-01T09:10:43.000Z</time>
      </trkpt>
      <trkpt lat="44.12596" lon="5.8791">
        <ele>871</ele>
        <time>2021-06-01T09:10:44.000Z</time>
      </trkpt>
      <trkpt lat="44.12595" lon="5.8791">
        <ele>871</ele>
        <time>2021-06-01T09:10:45.000Z</time>
      </trkpt>
      <trkpt lat="44.12595" lon="5.87909">
        <ele>871</ele>
        <time>2021-06-01T09:10:46.000Z</time>
      </trkpt>
      <trkpt lat="44.12594" lon="5.87908">
        <ele>871</ele>
        <time>2021-06-01T09:10:47.000Z</time>
      </trkpt>
      <trkpt lat="44.12593" lon="5.87908">
        <ele>871</ele>
        <time>2021-06-01T09:10:48.000Z</time>
      </trkpt>
      <trkpt lat="44.12593" lon="5.87907">
        <ele>871</ele>
        <time>2021-06-01T09:10:49.000Z</time>
      </trkpt>
      <trkpt lat="44.12592" lon="5.87906">
        <ele>871</ele>
        <time>2021-06-01T09:10:50.000Z</time>
      </trkpt>
      <trkpt lat="44.12592" lon="5.87906">
        <ele>871</ele>
        <time>2021-06-01T09:10:51.000Z</time>
      </trkpt>
      <trkpt lat="44.12591" lon="5.87905">
        <ele>871</ele>
        <time>2021-06-01T09:10:52.000Z</time>
      </trkpt>
      <trkpt lat="44.12591" lon="5.87905">
        <ele>871</ele>
        <time>2021-06-01T09:10:53.000Z</time>
      </trkpt>
      <trkpt lat="44.12591" lon="5.87905">
        <ele>871</ele>
        <time>2021-06-01T09:10:54.000Z</time>
      </trkpt>
      <trkpt lat="44.1259" lon="5.87905">
        <ele>871</ele>
        <time>2021-06-01T09:10:55.000Z</time>
      </trkpt>
      <trkpt lat="44.1259" lon="5.87905">
        <ele>871</ele>
        <time>2021-06-01T09:10:56.000Z</time>
      </trkpt>
      <trkpt lat="44.1259" lon="5.87905">
        <ele>871</ele>
        <time>2021-06-01T09:10:57.000Z</time>
      </trkpt>
      <trkpt lat="44.1259" lon="5.87905">
        <ele>871</ele>
        <time>2021-06-01T09:10:58.000Z</time>
      </trkpt>
      <trkpt lat="44.1259" lon="5.87905">
        <ele>871</ele>
        <time>2021-06-01T09:10:59.000Z</time>
      </trkpt>
      <trkpt lat="44.1259" lon="5.87905">
        <ele>871</ele>
        <time>2021-06-01T09:11:00.000Z</time>
      </trkpt>
      <trkpt lat="44.12589" lon="5.87905">
        <ele>871</ele>
        <time>2021-06-01T09:11:01.000Z</time>
      </trkpt>
      <trkpt lat="44.12589" lon="5.87905">
        <ele>871</ele>
        <time>2021-06-01T09:11:02.000Z</time>
      </trkpt>
      <trkpt lat="44.12589" lon="5.87905">
        <ele>871</ele>
        <time>2021-06-01T09:11:03.000Z</time>
      </trkpt>
      <trkpt lat="44.12589" lon="5.87905">
        <ele>871</ele>
        <time>2021-06-01T09:11:04.000Z</time>
      </trkpt>
      <trkpt lat="44.12589" lon="5.87905">
        <ele>871</ele>
        <time>2021-06-01T09:11:05.000Z</time>
      </trkpt>
      <trkpt lat="44.12588" lon="5.87904">
        <ele>871</ele>
        <time>2021-06-01T09:11:06.000Z</time>
      </trkpt>
      <trkpt lat="44.12588" lon="5.87904">
        <ele>871</ele>
        <time>2021-06-01T09:11:07.000Z</time>
      </trkpt>
      <trkpt lat="44.12588" lon="5.87904">
        <ele>871</ele>
        <time>2021-06-01T09:11:08.000Z</time>
      </trkpt>
      <trkpt lat="44.12588" lon="5.87904">
        <ele>871</ele>
        <time>2021-06-01T09:11:09.000Z</time>
      </trkpt>
      <trkpt lat="44.12588" lon="5.87904">
        <ele>871</ele>
        <time>2021-06-01T09:11:10.000Z</time>
      </trkpt>
      <trkpt lat="44.12588" lon="5.87904">
        <ele>871</ele>
        <time>2021-06-01T09:11:11.000Z</time>
      </trkpt>
      <trkpt lat="44.12588" lon="5.87904">
        <ele>871</ele>
        <time>2021-06-01T09:11:12.000Z</time>
      </trkpt>
      <trkpt lat="44.12587" lon="5.87904">
        <ele>871</ele>
        <time>2021-06-01T09:11:13.000Z</time>
      </trkpt>
      <trkpt lat="44.12587" lon="5.87904">
        <ele>871</ele>
        <time>2021-06-01T09:11:14.000Z</time>
      </trkpt>
      <trkpt lat="44.12587" lon="5.87904">
        <ele>871</ele>
        <time>2021-06-01T09:11:15.000Z</time>
      </trkpt>
      <trkpt lat="44.12587" lon="5.87904">
        <ele>871</ele>
        <time>2021-06-01T09:11:16.000Z</time>
      </trkpt>
      <trkpt lat="44.12587" lon="5.87904">
        <ele>871</ele>
        <time>2021-06-01T09:11:17.000Z</time>
      </trkpt>
      <trkpt lat="44.12587" lon="5.87904">
        <ele>871</ele>
        <time>2021-06-01T09:11:18.000Z</time>
      </trkpt>
      <trkpt lat="44.12587" lon="5.87903">
        <ele>871</ele>
        <time>2021-06-01T09:11:19.000Z</time>
      </trkpt>
      <trkpt lat="44.12587" lon="5.87903">
        <ele>871</ele>
        <time>2021-06-01T09:11:20.000Z</time>
      </trkpt>
      <trkpt lat="44.12587" lon="5.87903">
        <ele>871</ele>
        <time>2021-06-01T09:11:21.000Z</time>
      </trkpt>
      <trkpt lat="44.12587" lon="5.87903">
        <ele>871</ele>
        <time>2021-06-01T09:11:22.000Z</time>
      </trkpt>
      <trkpt lat="44.12587" lon="5.87904">
        <ele>871</ele>
        <time>2021-06-01T09:11:23.000Z</time>
      </trkpt>
      <trkpt lat="44.12587" lon="5.87904">
        <ele>871</ele>
        <time>2021-06-01T09:11:24.000Z</time>
      </trkpt>
      <trkpt lat="44.12588" lon="5.87904">
        <ele>870</ele>
        <time>2021-06-01T09:11:25.000Z</time>
      </trkpt>
      <trkpt lat="44.12589" lon="5.87905">
        <ele>870</ele>
        <time>2021-06-01T09:11:26.000Z</time>
      </trkpt>
      <trkpt lat="44.12589" lon="5.87905">
        <ele>870</ele>
        <time>2021-06-01T09:11:27.000Z</time>
      </trkpt>
      <trkpt lat="44.1259" lon="5.87905">
        <ele>870</ele>
        <time>2021-06-01T09:11:28.000Z</time>
      </trkpt>
      <trkpt lat="44.1259" lon="5.87906">
        <ele>870</ele>
        <time>2021-06-01T09:11:29.000Z</time>
      </trkpt>
      <trkpt lat="44.12591" lon="5.87906">
        <ele>870</ele>
        <time>2021-06-01T09:11:30.000Z</time>
      </trkpt>
      <trkpt lat="44.12591" lon="5.87907">
        <ele>870</ele>
        <time>2021-06-01T09:11:31.000Z</time>
      </trkpt>
      <trkpt lat="44.12592" lon="5.87907">
        <ele>870</ele>
        <time>2021-06-01T09:11:32.000Z</time>
      </trkpt>
      <trkpt lat="44.12592" lon="5.87907">
        <ele>870</ele>
        <time>2021-06-01T09:11:33.000Z</time>
      </trkpt>
      <trkpt lat="44.12592" lon="5.87907">
        <ele>870</ele>
        <time>2021-06-01T09:11:34.000Z</time>
      </trkpt>
      <trkpt lat="44.12592" lon="5.87907">
        <ele>870</ele>
        <time>2021-06-01T09:11:35.000Z</time>
      </trkpt>
      <trkpt lat="44.12592" lon="5.87907">
        <ele>870</ele>
        <time>2021-06-01T09:11:36.000Z</time>
      </trkpt>
      <trkpt lat="44.12592" lon="5.87907">
        <ele>870</ele>
        <time>2021-06-01T09:11:37.000Z</time>
      </trkpt>
      <trkpt lat="44.12592" lon="5.87907">
        <ele>870</ele>
        <time>2021-06-01T09:11:38.000Z</time>
      </trkpt>
      <trkpt lat="44.12592" lon="5.87907">
        <ele>870</ele>
        <time>2021-06-01T09:11:39.000Z</time>
      </trkpt>
      <trkpt lat="44.12592" lon="5.87907">
        <ele>870</ele>
        <time>2021-06-01T09:11:40.000Z</time>
      </trkpt>
      <trkpt lat="44.12592" lon="5.87907">
        <ele>870</ele>
        <time>2021-06-01T09:11:41.000Z</time>
      </trkpt>
      <trkpt lat="44.12592" lon="5.87907">
        <ele>870</ele>
        <time>2021-06-01T09:11:42.000Z</time>
      </trkpt>
      <trkpt lat="44.12592" lon="5.87907">
        <ele>870</ele>
        <time>2021-06-01T09:11:43.000Z</time>
      </trkpt>
      <trkpt lat="44.12592" lon="5.87907">
        <ele>870</ele>
        <time>2021-06-01T09:11:44.000Z</time>
      </trkpt>
      <trkpt lat="44.12592" lon="5.87907">
        <ele>870</ele>
        <time>2021-06-01T09:11:45.000Z</time>
      </trkpt>
      <trkpt lat="44.12592" lon="5.87907">
        <ele>870</ele>
        <time>2021-06-01T09:11:46.000Z</time>
      </trkpt>
      <trkpt lat="44.12592" lon="5.87906">
        <ele>870</ele>
        <time>2021-06-01T09:11:47.000Z</time>
      </trkpt>
      <trkpt lat="44.12592" lon="5.87906">
        <ele>870</ele>
        <time>2021-06-01T09:11:48.000Z</time>
      </trkpt>
      <trkpt lat="44.12592" lon="5.87906">
        <ele>870</ele>
        <time>2021-06-01T09:11:49.000Z</time>
      </trkpt>
      <trkpt lat="44.12592" lon="5.87906">
        <ele>870</ele>
        <time>2021-06-01T09:11:50.000Z</time>
      </trkpt>
      <trkpt lat="44.12592" lon="5.87907">
        <ele>870</ele>
        <time>2021-06-01T09:11:51.000Z</time>
      </trkpt>
      <trkpt lat="44.12592" lon="5.87907">
        <ele>870</ele>
        <time>2021-06-01T09:11:52.000Z</time>
      </trkpt>
      <trkpt lat="44.12592" lon="5.87907">
        <ele>870</ele>
        <time>2021-06-01T09:11:53.000Z</time>
      </trkpt>
      <trkpt lat="44.12593" lon="5.87908">
        <ele>870</ele>
        <time>2021-06-01T09:11:54.000Z</time>
      </trkpt>
      <trkpt lat="44.12593" lon="5.87908">
        <ele>870</ele>
        <time>2021-06-01T09:11:55.000Z</time>
      </trkpt>
      <trkpt lat="44.12594" lon="5.87908">
        <ele>870</ele>
        <time>2021-06-01T09:11:56.000Z</time>
      </trkpt>
      <trkpt lat="44.12594" lon="5.87908">
        <ele>870</ele>
        <time>2021-06-01T09:11:57.000Z</time>
      </trkpt>
      <trkpt lat="44.12595" lon="5.87908">
        <ele>870</ele>
        <time>2021-06-01T09:11:58.000Z</time>
      </trkpt>
      <trkpt lat="44.12595" lon="5.87908">
        <ele>870</ele>
        <time>2021-06-01T09:11:59.000Z</time>
      </trkpt>
      <trkpt lat="44.12596" lon="5.87909">
        <ele>870</ele>
        <time>2021-06-01T09:12:00.000Z</time>
      </trkpt>
      <trkpt lat="44.12597" lon="5.8791">
        <ele>870</ele>
        <time>2021-06-01T09:12:01.000Z</time>
      </trkpt>
      <trkpt lat="44.12598" lon="5.8791">
        <ele>870</ele>
        <time>2021-06-01T09:12:02.000Z</time>
      </trkpt>
      <trkpt lat="44.12599" lon="5.87911">
        <ele>870</ele>
        <time>2021-06-01T09:12:03.000Z</time>
      </trkpt>
      <trkpt lat="44.126" lon="5.87911">
        <ele>870</ele>
        <time>2021-06-01T09:12:04.000Z</time>
      </trkpt>
      <trkpt lat="44.12601" lon="5.87912">
        <ele>870</ele>
        <time>2021-06-01T09:12:05.000Z</time>
      </trkpt>
      <trkpt lat="44.12602" lon="5.87912">
        <ele>870</ele>
        <time>2021-06-01T09:12:06.000Z</time>
      </trkpt>
      <trkpt lat="44.12603" lon="5.87913">
        <ele>870</ele>
        <time>2021-06-01T09:12:07.000Z</time>
      </trkpt>
      <trkpt lat="44.12603" lon="5.87914">
        <ele>870</ele>
        <time>2021-06-01T09:12:08.000Z</time>
      </trkpt>
      <trkpt lat="44.12604" lon="5.87914">
        <ele>870</ele>
        <time>2021-06-01T09:12:09.000Z</time>
      </trkpt>
      <trkpt lat="44.12605" lon="5.87915">
        <ele>870</ele>
        <time>2021-06-01T09:12:10.000Z</time>
      </trkpt>
      <trkpt lat="44.12606" lon="5.87916">
        <ele>870</ele>
        <time>2021-06-01T09:12:11.000Z</time>
      </trkpt>
      <trkpt lat="44.12607" lon="5.87917">
        <ele>870</ele>
        <time>2021-06-01T09:12:12.000Z</time>
      </trkpt>
      <trkpt lat="44.12608" lon="5.87918">
        <ele>870</ele>
        <time>2021-06-01T09:12:13.000Z</time>
      </trkpt>
      <trkpt lat="44.12608" lon="5.87919">
        <ele>870</ele>
        <time>2021-06-01T09:12:14.000Z</time>
      </trkpt>
      <trkpt lat="44.12609" lon="5.87919">
        <ele>870</ele>
        <time>2021-06-01T09:12:15.000Z</time>
      </trkpt>
      <trkpt lat="44.1261" lon="5.8792">
        <ele>870</ele>
        <time>2021-06-01T09:12:16.000Z</time>
      </trkpt>
      <trkpt lat="44.12611" lon="5.87921">
        <ele>870</ele>
        <time>2021-06-01T09:12:17.000Z</time>
      </trkpt>
      <trkpt lat="44.12612" lon="5.87922">
        <ele>870</ele>
        <time>2021-06-01T09:12:18.000Z</time>
      </trkpt>
      <trkpt lat="44.12612" lon="5.87922">
        <ele>870</ele>
        <time>2021-06-01T09:12:19.000Z</time>
      </trkpt>
      <trkpt lat="44.12613" lon="5.87923">
        <ele>870</ele>
        <time>2021-06-01T09:12:20.000Z</time>
      </trkpt>
      <trkpt lat="44.12614" lon="5.87924">
        <ele>870</ele>
        <time>2021-06-01T09:12:21.000Z</time>
      </trkpt>
      <trkpt lat="44.12615" lon="5.87924">
        <ele>870</ele>
        <time>2021-06-01T09:12:22.000Z</time>
      </trkpt>
      <trkpt lat="44.12616" lon="5.87925">
        <ele>870</ele>
        <time>2021-06-01T09:12:23.000Z</time>
      </trkpt>
      <trkpt lat="44.12617" lon="5.87926">
        <ele>870</ele>
        <time>2021-06-01T09:12:24.000Z</time>
      </trkpt>
      <trkpt lat="44.12618" lon="5.87927">
        <ele>870</ele>
        <time>2021-06-01T09:12:25.000Z</time>
      </trkpt>
      <trkpt lat="44.12619" lon="5.87927">
        <ele>870</ele>
        <time>2021-06-01T09:12:26.000Z</time>
      </trkpt>
      <trkpt lat="44.1262" lon="5.87928">
        <ele>870</ele>
        <time>2021-06-01T09:12:27.000Z</time>
      </trkpt>
      <trkpt lat="44.12621" lon="5.87928">
        <ele>870</ele>
        <time>2021-06-01T09:12:28.000Z</time>
      </trkpt>
      <trkpt lat="44.12622" lon="5.87928">
        <ele>870</ele>
        <time>2021-06-01T09:12:29.000Z</time>
      </trkpt>
      <trkpt lat="44.12623" lon="5.87929">
        <ele>870</ele>
        <time>2021-06-01T09:12:30.000Z</time>
      </trkpt>
      <trkpt lat="44.12624" lon="5.87929">
        <ele>870</ele>
        <time>2021-06-01T09:12:31.000Z</time>
      </trkpt>
      <trkpt lat="44.12625" lon="5.8793">
        <ele>870</ele>
        <time>2021-06-01T09:12:32.000Z</time>
      </trkpt>
      <trkpt lat="44.12626" lon="5.8793">
        <ele>870</ele>
        <time>2021-06-01T09:12:33.000Z</time>
      </trkpt>
      <trkpt lat="44.12627" lon="5.87931">
        <ele>870</ele>
        <time>2021-06-01T09:12:34.000Z</time>
      </trkpt>
      <trkpt lat="44.12628" lon="5.87932">
        <ele>870</ele>
        <time>2021-06-01T09:12:35.000Z</time>
      </trkpt>
      <trkpt lat="44.12628" lon="5.87933">
        <ele>870</ele>
        <time>2021-06-01T09:12:36.000Z</time>
      </trkpt>
      <trkpt lat="44.12629" lon="5.87934">
        <ele>870</ele>
        <time>2021-06-01T09:12:37.000Z</time>
      </trkpt>
      <trkpt lat="44.1263" lon="5.87934">
        <ele>870</ele>
        <time>2021-06-01T09:12:38.000Z</time>
      </trkpt>
      <trkpt lat="44.12631" lon="5.87935">
        <ele>870</ele>
        <time>2021-06-01T09:12:39.000Z</time>
      </trkpt>
      <trkpt lat="44.12632" lon="5.87936">
        <ele>870</ele>
        <time>2021-06-01T09:12:40.000Z</time>
      </trkpt>
      <trkpt lat="44.12633" lon="5.87936">
        <ele>870</ele>
        <time>2021-06-01T09:12:41.000Z</time>
      </trkpt>
      <trkpt lat="44.12634" lon="5.87937">
        <ele>870</ele>
        <time>2021-06-01T09:12:42.000Z</time>
      </trkpt>
      <trkpt lat="44.12635" lon="5.87937">
        <ele>870</ele>
        <time>2021-06-01T09:12:43.000Z</time>
      </trkpt>
      <trkpt lat="44.12636" lon="5.87938">
        <ele>869</ele>
        <time>2021-06-01T09:12:44.000Z</time>
      </trkpt>
      <trkpt lat="44.12637" lon="5.87938">
        <ele>869</ele>
        <time>2021-06-01T09:12:45.000Z</time>
      </trkpt>
      <trkpt lat="44.12638" lon="5.87939">
        <ele>869</ele>
        <time>2021-06-01T09:12:46.000Z</time>
      </trkpt>
      <trkpt lat="44.12638" lon="5.8794">
        <ele>869</ele>
        <time>2021-06-01T09:12:47.000Z</time>
      </trkpt>
      <trkpt lat="44.12639" lon="5.8794">
        <ele>869</ele>
        <time>2021-06-01T09:12:48.000Z</time>
      </trkpt>
      <trkpt lat="44.1264" lon="5.87941">
        <ele>869</ele>
        <time>2021-06-01T09:12:49.000Z</time>
      </trkpt>
      <trkpt lat="44.12641" lon="5.87941">
        <ele>869</ele>
        <time>2021-06-01T09:12:50.000Z</time>
      </trkpt>
      <trkpt lat="44.12642" lon="5.87941">
        <ele>869</ele>
        <time>2021-06-01T09:12:51.000Z</time>
      </trkpt>
      <trkpt lat="44.12643" lon="5.87942">
        <ele>868</ele>
        <time>2021-06-01T09:12:52.000Z</time>
      </trkpt>
      <trkpt lat="44.12644" lon="5.87943">
        <ele>868</ele>
        <time>2021-06-01T09:12:53.000Z</time>
      </trkpt>
      <trkpt lat="44.12645" lon="5.87943">
        <ele>868</ele>
        <time>2021-06-01T09:12:54.000Z</time>
      </trkpt>
      <trkpt lat="44.12646" lon="5.87944">
        <ele>868</ele>
        <time>2021-06-01T09:12:55.000Z</time>
      </trkpt>
      <trkpt lat="44.12647" lon="5.87944">
        <ele>868</ele>
        <time>2021-06-01T09:12:56.000Z</time>
      </trkpt>
      <trkpt lat="44.12648" lon="5.87945">
        <ele>868</ele>
        <time>2021-06-01T09:12:57.000Z</time>
      </trkpt>
      <trkpt lat="44.12649" lon="5.87945">
        <ele>868</ele>
        <time>2021-06-01T09:12:58.000Z</time>
      </trkpt>
      <trkpt lat="44.1265" lon="5.87945">
        <ele>868</ele>
        <time>2021-06-01T09:12:59.000Z</time>
      </trkpt>
      <trkpt lat="44.12651" lon="5.87945">
        <ele>867</ele>
        <time>2021-06-01T09:13:00.000Z</time>
      </trkpt>
      <trkpt lat="44.12651" lon="5.87944">
        <ele>867</ele>
        <time>2021-06-01T09:13:01.000Z</time>
      </trkpt>
      <trkpt lat="44.12652" lon="5.87944">
        <ele>867</ele>
        <time>2021-06-01T09:13:02.000Z</time>
      </trkpt>
      <trkpt lat="44.12653" lon="5.87944">
        <ele>867</ele>
        <time>2021-06-01T09:13:03.000Z</time>
      </trkpt>
      <trkpt lat="44.12653" lon="5.87944">
        <ele>867</ele>
        <time>2021-06-01T09:13:04.000Z</time>
      </trkpt>
      <trkpt lat="44.12653" lon="5.87943">
        <ele>867</ele>
        <time>2021-06-01T09:13:05.000Z</time>
      </trkpt>
      <trkpt lat="44.12653" lon="5.87943">
        <ele>867</ele>
        <time>2021-06-01T09:13:06.000Z</time>
      </trkpt>
      <trkpt lat="44.12653" lon="5.87943">
        <ele>867</ele>
        <time>2021-06-01T09:13:07.000Z</time>
      </trkpt>
      <trkpt lat="44.12653" lon="5.87943">
        <ele>867</ele>
        <time>2021-06-01T09:13:08.000Z</time>
      </trkpt>
      <trkpt lat="44.12652" lon="5.87943">
        <ele>867</ele>
        <time>2021-06-01T09:13:09.000Z</time>
      </trkpt>
      <trkpt lat="44.12653" lon="5.87943">
        <ele>867</ele>
        <time>2021-06-01T09:13:10.000Z</time>
      </trkpt>
      <trkpt lat="44.12653" lon="5.87942">
        <ele>867</ele>
        <time>2021-06-01T09:13:11.000Z</time>
      </trkpt>
      <trkpt lat="44.12653" lon="5.87942">
        <ele>867</ele>
        <time>2021-06-01T09:13:12.000Z</time>
      </trkpt>
      <trkpt lat="44.12654" lon="5.87941">
        <ele>867</ele>
        <time>2021-06-01T09:13:13.000Z</time>
      </trkpt>
      <trkpt lat="44.12654" lon="5.8794">
        <ele>866</ele>
        <time>2021-06-01T09:13:14.000Z</time>
      </trkpt>
      <trkpt lat="44.12654" lon="5.87939">
        <ele>866</ele>
        <time>2021-06-01T09:13:15.000Z</time>
      </trkpt>
      <trkpt lat="44.12655" lon="5.87939">
        <ele>866</ele>
        <time>2021-06-01T09:13:16.000Z</time>
      </trkpt>
      <trkpt lat="44.12655" lon="5.87938">
        <ele>866</ele>
        <time>2021-06-01T09:13:17.000Z</time>
      </trkpt>
      <trkpt lat="44.12655" lon="5.87937">
        <ele>866</ele>
        <time>2021-06-01T09:13:18.000Z</time>
      </trkpt>
      <trkpt lat="44.12655" lon="5.87936">
        <ele>866</ele>
        <time>2021-06-01T09:13:19.000Z</time>
      </trkpt>
      <trkpt lat="44.12656" lon="5.87936">
        <ele>866</ele>
        <time>2021-06-01T09:13:20.000Z</time>
      </trkpt>
      <trkpt lat="44.12656" lon="5.87936">
        <ele>866</ele>
        <time>2021-06-01T09:13:21.000Z</time>
      </trkpt>
      <trkpt lat="44.12657" lon="5.87935">
        <ele>866</ele>
        <time>2021-06-01T09:13:22.000Z</time>
      </trkpt>
      <trkpt lat="44.12657" lon="5.87935">
        <ele>866</ele>
        <time>2021-06-01T09:13:23.000Z</time>
      </trkpt>
      <trkpt lat="44.12657" lon="5.87934">
        <ele>866</ele>
        <time>2021-06-01T09:13:24.000Z</time>
      </trkpt>
      <trkpt lat="44.12657" lon="5.87933">
        <ele>866</ele>
        <time>2021-06-01T09:13:25.000Z</time>
      </trkpt>
      <trkpt lat="44.12658" lon="5.87933">
        <ele>866</ele>
        <time>2021-06-01T09:13:26.000Z</time>
      </trkpt>
      <trkpt lat="44.12658" lon="5.87932">
        <ele>866</ele>
        <time>2021-06-01T09:13:27.000Z</time>
      </trkpt>
      <trkpt lat="44.12658" lon="5.87932">
        <ele>865</ele>
        <time>2021-06-01T09:13:28.000Z</time>
      </trkpt>
      <trkpt lat="44.12658" lon="5.87931">
        <ele>865</ele>
        <time>2021-06-01T09:13:29.000Z</time>
      </trkpt>
      <trkpt lat="44.12658" lon="5.87931">
        <ele>865</ele>
        <time>2021-06-01T09:13:30.000Z</time>
      </trkpt>
      <trkpt lat="44.12658" lon="5.8793">
        <ele>865</ele>
        <time>2021-06-01T09:13:31.000Z</time>
      </trkpt>
      <trkpt lat="44.12657" lon="5.87929">
        <ele>865</ele>
        <time>2021-06-01T09:13:32.000Z</time>
      </trkpt>
      <trkpt lat="44.12657" lon="5.87929">
        <ele>865</ele>
        <time>2021-06-01T09:13:33.000Z</time>
      </trkpt>
      <trkpt lat="44.12657" lon="5.87927">
        <ele>865</ele>
        <time>2021-06-01T09:13:34.000Z</time>
      </trkpt>
      <trkpt lat="44.12657" lon="5.87926">
        <ele>865</ele>
        <time>2021-06-01T09:13:35.000Z</time>
      </trkpt>
      <trkpt lat="44.12657" lon="5.87925">
        <ele>865</ele>
        <time>2021-06-01T09:13:36.000Z</time>
      </trkpt>
      <trkpt lat="44.12657" lon="5.87925">
        <ele>865</ele>
        <time>2021-06-01T09:13:37.000Z</time>
      </trkpt>
      <trkpt lat="44.12657" lon="5.87924">
        <ele>865</ele>
        <time>2021-06-01T09:13:38.000Z</time>
      </trkpt>
      <trkpt lat="44.12657" lon="5.87923">
        <ele>865</ele>
        <time>2021-06-01T09:13:39.000Z</time>
      </trkpt>
      <trkpt lat="44.12657" lon="5.87922">
        <ele>865</ele>
        <time>2021-06-01T09:13:40.000Z</time>
      </trkpt>
      <trkpt lat="44.12658" lon="5.87921">
        <ele>865</ele>
        <time>2021-06-01T09:13:41.000Z</time>
      </trkpt>
      <trkpt lat="44.12658" lon="5.87921">
        <ele>865</ele>
        <time>2021-06-01T09:13:42.000Z</time>
      </trkpt>
      <trkpt lat="44.12658" lon="5.87921">
        <ele>865</ele>
        <time>2021-06-01T09:13:43.000Z</time>
      </trkpt>
      <trkpt lat="44.12658" lon="5.87921">
        <ele>865</ele>
        <time>2021-06-01T09:13:44.000Z</time>
      </trkpt>
      <trkpt lat="44.12658" lon="5.87921">
        <ele>865</ele>
        <time>2021-06-01T09:13:45.000Z</time>
      </trkpt>
      <trkpt lat="44.12658" lon="5.87921">
        <ele>865</ele>
        <time>2021-06-01T09:13:46.000Z</time>
      </trkpt>
      <trkpt lat="44.12658" lon="5.87921">
        <ele>865</ele>
        <time>2021-06-01T09:13:47.000Z</time>
      </trkpt>
      <trkpt lat="44.12658" lon="5.87921">
        <ele>865</ele>
        <time>2021-06-01T09:13:48.000Z</time>
      </trkpt>
      <trkpt lat="44.12658" lon="5.87921">
        <ele>865</ele>
        <time>2021-06-01T09:13:49.000Z</time>
      </trkpt>
      <trkpt lat="44.12658" lon="5.87921">
        <ele>865</ele>
        <time>2021-06-01T09:13:50.000Z</time>
      </trkpt>
      <trkpt lat="44.12658" lon="5.87921">
        <ele>865</ele>
        <time>2021-06-01T09:13:51.000Z</time>
      </trkpt>
      <trkpt lat="44.12658" lon="5.87921">
        <ele>865</ele>
        <time>2021-06-01T09:13:52.000Z</time>
      </trkpt>
      <trkpt lat="44.12658" lon="5.8792">
        <ele>865</ele>
        <time>2021-06-01T09:13:53.000Z</time>
      </trkpt>
      <trkpt lat="44.12658" lon="5.8792">
        <ele>865</ele>
        <time>2021-06-01T09:13:54.000Z</time>
      </trkpt>
      <trkpt lat="44.12658" lon="5.8792">
        <ele>865</ele>
        <time>2021-06-01T09:13:55.000Z</time>
      </trkpt>
      <trkpt lat="44.12658" lon="5.8792">
        <ele>865</ele>
        <time>2021-06-01T09:13:56.000Z</time>
      </trkpt>
      <trkpt lat="44.12658" lon="5.8792">
        <ele>865</ele>
        <time>2021-06-01T09:13:57.000Z</time>
      </trkpt>
      <trkpt lat="44.12658" lon="5.8792">
        <ele>865</ele>
        <time>2021-06-01T09:13:58.000Z</time>
      </trkpt>
      <trkpt lat="44.12658" lon="5.8792">
        <ele>865</ele>
        <time>2021-06-01T09:13:59.000Z</time>
      </trkpt>
      <trkpt lat="44.12658" lon="5.8792">
        <ele>865</ele>
        <time>2021-06-01T09:14:00.000Z</time>
      </trkpt>
      <trkpt lat="44.12658" lon="5.8792">
        <ele>865</ele>
        <time>2021-06-01T09:14:01.000Z</time>
      </trkpt>
      <trkpt lat="44.12658" lon="5.8792">
        <ele>865</ele>
        <time>2021-06-01T09:14:02.000Z</time>
      </trkpt>
      <trkpt lat="44.12658" lon="5.8792">
        <ele>865</ele>
        <time>2021-06-01T09:14:03.000Z</time>
      </trkpt>
      <trkpt lat="44.12658" lon="5.8792">
        <ele>865</ele>
        <time>2021-06-01T09:14:04.000Z</time>
      </trkpt>
      <trkpt lat="44.12658" lon="5.8792">
        <ele>865</ele>
        <time>2021-06-01T09:14:05.000Z</time>
      </trkpt>
      <trkpt lat="44.12659" lon="5.8792">
        <ele>865</ele>
        <time>2021-06-01T09:14:06.000Z</time>
      </trkpt>
      <trkpt lat="44.12659" lon="5.8792">
        <ele>865</ele>
        <time>2021-06-01T09:14:07.000Z</time>
      </trkpt>
      <trkpt lat="44.12659" lon="5.8792">
        <ele>865</ele>
        <time>2021-06-01T09:14:08.000Z</time>
      </trkpt>
      <trkpt lat="44.12659" lon="5.8792">
        <ele>865</ele>
        <time>2021-06-01T09:14:09.000Z</time>
      </trkpt>
      <trkpt lat="44.12659" lon="5.8792">
        <ele>865</ele>
        <time>2021-06-01T09:14:10.000Z</time>
      </trkpt>
      <trkpt lat="44.12659" lon="5.8792">
        <ele>865</ele>
        <time>2021-06-01T09:14:11.000Z</time>
      </trkpt>
      <trkpt lat="44.12659" lon="5.8792">
        <ele>865</ele>
        <time>2021-06-01T09:14:12.000Z</time>
      </trkpt>
      <trkpt lat="44.12659" lon="5.8792">
        <ele>865</ele>
        <time>2021-06-01T09:14:13.000Z</time>
      </trkpt>
      <trkpt lat="44.12659" lon="5.8792">
        <ele>865</ele>
        <time>2021-06-01T09:14:14.000Z</time>
      </trkpt>
      <trkpt lat="44.12659" lon="5.8792">
        <ele>865</ele>
        <time>2021-06-01T09:14:15.000Z</time>
      </trkpt>
      <trkpt lat="44.12659" lon="5.8792">
        <ele>865</ele>
        <time>2021-06-01T09:14:16.000Z</time>
      </trkpt>
      <trkpt lat="44.12659" lon="5.8792">
        <ele>865</ele>
        <time>2021-06-01T09:14:17.000Z</time>
      </trkpt>
      <trkpt lat="44.12659" lon="5.8792">
        <ele>865</ele>
        <time>2021-06-01T09:14:18.000Z</time>
      </trkpt>
      <trkpt lat="44.12659" lon="5.8792">
        <ele>865</ele>
        <time>2021-06-01T09:14:19.000Z</time>
      </trkpt>
      <trkpt lat="44.12659" lon="5.8792">
        <ele>865</ele>
        <time>2021-06-01T09:14:20.000Z</time>
      </trkpt>
      <trkpt lat="44.12659" lon="5.8792">
        <ele>865</ele>
        <time>2021-06-01T09:14:21.000Z</time>
      </trkpt>
      <trkpt lat="44.12659" lon="5.8792">
        <ele>865</ele>
        <time>2021-06-01T09:14:22.000Z</time>
      </trkpt>
      <trkpt lat="44.12659" lon="5.8792">
        <ele>865</ele>
        <time>2021-06-01T09:14:23.000Z</time>
      </trkpt>
      <trkpt lat="44.12659" lon="5.8792">
        <ele>865</ele>
        <time>2021-06-01T09:14:24.000Z</time>
      </trkpt>
      <trkpt lat="44.12659" lon="5.87919">
        <ele>865</ele>
        <time>2021-06-01T09:14:25.000Z</time>
      </trkpt>
      <trkpt lat="44.12658" lon="5.87918">
        <ele>865</ele>
        <time>2021-06-01T09:14:26.000Z</time>
      </trkpt>
      <trkpt lat="44.12658" lon="5.87917">
        <ele>865</ele>
        <time>2021-06-01T09:14:27.000Z</time>
      </trkpt>
      <trkpt lat="44.12658" lon="5.87917">
        <ele>865</ele>
        <time>2021-06-01T09:14:28.000Z</time>
      </trkpt>
      <trkpt lat="44.12658" lon="5.87916">
        <ele>865</ele>
        <time>2021-06-01T09:14:29.000Z</time>
      </trkpt>
      <trkpt lat="44.12657" lon="5.87915">
        <ele>865</ele>
        <time>2021-06-01T09:14:30.000Z</time>
      </trkpt>
      <trkpt lat="44.12657" lon="5.87915">
        <ele>865</ele>
        <time>2021-06-01T09:14:31.000Z</time>
      </trkpt>
      <trkpt lat="44.12657" lon="5.87914">
        <ele>865</ele>
        <time>2021-06-01T09:14:32.000Z</time>
      </trkpt>
      <trkpt lat="44.12656" lon="5.87914">
        <ele>865</ele>
        <time>2021-06-01T09:14:33.000Z</time>
      </trkpt>
      <trkpt lat="44.12655" lon="5.87913">
        <ele>865</ele>
        <time>2021-06-01T09:14:34.000Z</time>
      </trkpt>
      <trkpt lat="44.12655" lon="5.87913">
        <ele>865</ele>
        <time>2021-06-01T09:14:35.000Z</time>
      </trkpt>
      <trkpt lat="44.12654" lon="5.87912">
        <ele>865</ele>
        <time>2021-06-01T09:14:36.000Z</time>
      </trkpt>
      <trkpt lat="44.12653" lon="5.87912">
        <ele>865</ele>
        <time>2021-06-01T09:14:37.000Z</time>
      </trkpt>
      <trkpt lat="44.12652" lon="5.87911">
        <ele>865</ele>
        <time>2021-06-01T09:14:38.000Z</time>
      </trkpt>
      <trkpt lat="44.12651" lon="5.8791">
        <ele>865</ele>
        <time>2021-06-01T09:14:39.000Z</time>
      </trkpt>
      <trkpt lat="44.12651" lon="5.87909">
        <ele>865</ele>
        <time>2021-06-01T09:14:40.000Z</time>
      </trkpt>
      <trkpt lat="44.1265" lon="5.87908">
        <ele>865</ele>
        <time>2021-06-01T09:14:41.000Z</time>
      </trkpt>
      <trkpt lat="44.1265" lon="5.87907">
        <ele>865</ele>
        <time>2021-06-01T09:14:42.000Z</time>
      </trkpt>
      <trkpt lat="44.12649" lon="5.87906">
        <ele>865</ele>
        <time>2021-06-01T09:14:43.000Z</time>
      </trkpt>
      <trkpt lat="44.12648" lon="5.87906">
        <ele>865</ele>
        <time>2021-06-01T09:14:44.000Z</time>
      </trkpt>
      <trkpt lat="44.12648" lon="5.87905">
        <ele>865</ele>
        <time>2021-06-01T09:14:45.000Z</time>
      </trkpt>
      <trkpt lat="44.12647" lon="5.87904">
        <ele>865</ele>
        <time>2021-06-01T09:14:46.000Z</time>
      </trkpt>
      <trkpt lat="44.12646" lon="5.87904">
        <ele>865</ele>
        <time>2021-06-01T09:14:47.000Z</time>
      </trkpt>
      <trkpt lat="44.12645" lon="5.87903">
        <ele>865</ele>
        <time>2021-06-01T09:14:48.000Z</time>
      </trkpt>
      <trkpt lat="44.12644" lon="5.87903">
        <ele>865</ele>
        <time>2021-06-01T09:14:49.000Z</time>
      </trkpt>
      <trkpt lat="44.12643" lon="5.87902">
        <ele>865</ele>
        <time>2021-06-01T09:14:50.000Z</time>
      </trkpt>
      <trkpt lat="44.12643" lon="5.87901">
        <ele>865</ele>
        <time>2021-06-01T09:14:51.000Z</time>
      </trkpt>
      <trkpt lat="44.12642" lon="5.879">
        <ele>865</ele>
        <time>2021-06-01T09:14:52.000Z</time>
      </trkpt>
      <trkpt lat="44.12642" lon="5.87899">
        <ele>865</ele>
        <time>2021-06-01T09:14:53.000Z</time>
      </trkpt>
      <trkpt lat="44.12642" lon="5.87898">
        <ele>866</ele>
        <time>2021-06-01T09:14:54.000Z</time>
      </trkpt>
      <trkpt lat="44.12641" lon="5.87897">
        <ele>866</ele>
        <time>2021-06-01T09:14:55.000Z</time>
      </trkpt>
      <trkpt lat="44.1264" lon="5.87896">
        <ele>866</ele>
        <time>2021-06-01T09:14:56.000Z</time>
      </trkpt>
      <trkpt lat="44.1264" lon="5.87895">
        <ele>866</ele>
        <time>2021-06-01T09:14:57.000Z</time>
      </trkpt>
      <trkpt lat="44.12639" lon="5.87894">
        <ele>866</ele>
        <time>2021-06-01T09:14:58.000Z</time>
      </trkpt>
      <trkpt lat="44.12639" lon="5.87893">
        <ele>866</ele>
        <time>2021-06-01T09:14:59.000Z</time>
      </trkpt>
      <trkpt lat="44.12639" lon="5.87893">
        <ele>866</ele>
        <time>2021-06-01T09:15:00.000Z</time>
      </trkpt>
      <trkpt lat="44.12638" lon="5.87892">
        <ele>866</ele>
        <time>2021-06-01T09:15:01.000Z</time>
      </trkpt>
      <trkpt lat="44.12638" lon="5.87892">
        <ele>866</ele>
        <time>2021-06-01T09:15:02.000Z</time>
      </trkpt>
      <trkpt lat="44.12637" lon="5.87891">
        <ele>866</ele>
        <time>2021-06-01T09:15:03.000Z</time>
      </trkpt>
      <trkpt lat="44.12637" lon="5.87891">
        <ele>866</ele>
        <time>2021-06-01T09:15:04.000Z</time>
      </trkpt>
      <trkpt lat="44.12636" lon="5.8789">
        <ele>866</ele>
        <time>2021-06-01T09:15:05.000Z</time>
      </trkpt>
      <trkpt lat="44.12635" lon="5.87889">
        <ele>866</ele>
        <time>2021-06-01T09:15:06.000Z</time>
      </trkpt>
      <trkpt lat="44.12635" lon="5.87888">
        <ele>867</ele>
        <time>2021-06-01T09:15:07.000Z</time>
      </trkpt>
      <trkpt lat="44.12634" lon="5.87887">
        <ele>867</ele>
        <time>2021-06-01T09:15:08.000Z</time>
      </trkpt>
      <trkpt lat="44.12633" lon="5.87887">
        <ele>867</ele>
        <time>2021-06-01T09:15:09.000Z</time>
      </trkpt>
      <trkpt lat="44.12633" lon="5.87886">
        <ele>867</ele>
        <time>2021-06-01T09:15:10.000Z</time>
      </trkpt>
      <trkpt lat="44.12632" lon="5.87885">
        <ele>867</ele>
        <time>2021-06-01T09:15:11.000Z</time>
      </trkpt>
      <trkpt lat="44.12631" lon="5.87884">
        <ele>867</ele>
        <time>2021-06-01T09:15:12.000Z</time>
      </trkpt>
      <trkpt lat="44.1263" lon="5.87883">
        <ele>867</ele>
        <time>2021-06-01T09:15:13.000Z</time>
      </trkpt>
      <trkpt lat="44.1263" lon="5.87883">
        <ele>867</ele>
        <time>2021-06-01T09:15:14.000Z</time>
      </trkpt>
      <trkpt lat="44.12629" lon="5.87882">
        <ele>867</ele>
        <time>2021-06-01T09:15:15.000Z</time>
      </trkpt>
      <trkpt lat="44.12628" lon="5.87881">
        <ele>867</ele>
        <time>2021-06-01T09:15:16.000Z</time>
      </trkpt>
      <trkpt lat="44.12628" lon="5.8788">
        <ele>867</ele>
        <time>2021-06-01T09:15:17.000Z</time>
      </trkpt>
      <trkpt lat="44.12627" lon="5.8788">
        <ele>868</ele>
        <time>2021-06-01T09:15:18.000Z</time>
      </trkpt>
      <trkpt lat="44.12626" lon="5.87879">
        <ele>868</ele>
        <time>2021-06-01T09:15:19.000Z</time>
      </trkpt>
      <trkpt lat="44.12626" lon="5.87879">
        <ele>868</ele>
        <time>2021-06-01T09:15:20.000Z</time>
      </trkpt>
      <trkpt lat="44.12625" lon="5.87878">
        <ele>868</ele>
        <time>2021-06-01T09:15:21.000Z</time>
      </trkpt>
      <trkpt lat="44.12625" lon="5.87878">
        <ele>868</ele>
        <time>2021-06-01T09:15:22.000Z</time>
      </trkpt>
      <trkpt lat="44.12625" lon="5.87878">
        <ele>868</ele>
        <time>2021-06-01T09:15:23.000Z</time>
      </trkpt>
      <trkpt lat="44.12625" lon="5.87879">
        <ele>868</ele>
        <time>2021-06-01T09:15:24.000Z</time>
      </trkpt>
      <trkpt lat="44.12624" lon="5.87879">
        <ele>868</ele>
        <time>2021-06-01T09:15:25.000Z</time>
      </trkpt>
      <trkpt lat="44.12624" lon="5.87879">
        <ele>868</ele>
        <time>2021-06-01T09:15:26.000Z</time>
      </trkpt>
      <trkpt lat="44.12624" lon="5.87879">
        <ele>868</ele>
        <time>2021-06-01T09:15:27.000Z</time>
      </trkpt>
      <trkpt lat="44.12624" lon="5.87879">
        <ele>868</ele>
        <time>2021-06-01T09:15:28.000Z</time>
      </trkpt>
      <trkpt lat="44.12624" lon="5.87879">
        <ele>868</ele>
        <time>2021-06-01T09:15:29.000Z</time>
      </trkpt>
      <trkpt lat="44.12624" lon="5.87879">
        <ele>868</ele>
        <time>2021-06-01T09:15:30.000Z</time>
      </trkpt>
      <trkpt lat="44.12623" lon="5.87879">
        <ele>868</ele>
        <time>2021-06-01T09:15:31.000Z</time>
      </trkpt>
      <trkpt lat="44.12623" lon="5.87878">
        <ele>868</ele>
        <time>2021-06-01T09:15:32.000Z</time>
      </trkpt>
      <trkpt lat="44.12622" lon="5.87878">
        <ele>868</ele>
        <time>2021-06-01T09:15:33.000Z</time>
      </trkpt>
      <trkpt lat="44.12622" lon="5.87878">
        <ele>868</ele>
        <time>2021-06-01T09:15:34.000Z</time>
      </trkpt>
      <trkpt lat="44.12621" lon="5.87878">
        <ele>868</ele>
        <time>2021-06-01T09:15:35.000Z</time>
      </trkpt>
      <trkpt lat="44.12621" lon="5.87877">
        <ele>868</ele>
        <time>2021-06-01T09:15:36.000Z</time>
      </trkpt>
      <trkpt lat="44.1262" lon="5.87876">
        <ele>868</ele>
        <time>2021-06-01T09:15:37.000Z</time>
      </trkpt>
      <trkpt lat="44.1262" lon="5.87875">
        <ele>868</ele>
        <time>2021-06-01T09:15:38.000Z</time>
      </trkpt>
      <trkpt lat="44.1262" lon="5.87874">
        <ele>868</ele>
        <time>2021-06-01T09:15:39.000Z</time>
      </trkpt>
      <trkpt lat="44.12619" lon="5.87873">
        <ele>868</ele>
        <time>2021-06-01T09:15:40.000Z</time>
      </trkpt>
      <trkpt lat="44.12619" lon="5.87872">
        <ele>868</ele>
        <time>2021-06-01T09:15:41.000Z</time>
      </trkpt>
      <trkpt lat="44.12619" lon="5.87871">
        <ele>868</ele>
        <time>2021-06-01T09:15:42.000Z</time>
      </trkpt>
      <trkpt lat="44.12618" lon="5.8787">
        <ele>868</ele>
        <time>2021-06-01T09:15:43.000Z</time>
      </trkpt>
      <trkpt lat="44.12618" lon="5.87869">
        <ele>868</ele>
        <time>2021-06-01T09:15:44.000Z</time>
      </trkpt>
      <trkpt lat="44.12618" lon="5.87867">
        <ele>868</ele>
        <time>2021-06-01T09:15:45.000Z</time>
      </trkpt>
      <trkpt lat="44.12617" lon="5.87866">
        <ele>868</ele>
        <time>2021-06-01T09:15:46.000Z</time>
      </trkpt>
      <trkpt lat="44.12617" lon="5.87865">
        <ele>868</ele>
        <time>2021-06-01T09:15:47.000Z</time>
      </trkpt>
      <trkpt lat="44.12617" lon="5.87864">
        <ele>869</ele>
        <time>2021-06-01T09:15:48.000Z</time>
      </trkpt>
      <trkpt lat="44.12616" lon="5.87862">
        <ele>869</ele>
        <time>2021-06-01T09:15:49.000Z</time>
      </trkpt>
      <trkpt lat="44.12616" lon="5.87861">
        <ele>869</ele>
        <time>2021-06-01T09:15:50.000Z</time>
      </trkpt>
      <trkpt lat="44.12616" lon="5.8786">
        <ele>869</ele>
        <time>2021-06-01T09:15:51.000Z</time>
      </trkpt>
      <trkpt lat="44.12615" lon="5.87859">
        <ele>869</ele>
        <time>2021-06-01T09:15:52.000Z</time>
      </trkpt>
      <trkpt lat="44.12615" lon="5.87858">
        <ele>869</ele>
        <time>2021-06-01T09:15:53.000Z</time>
      </trkpt>
      <trkpt lat="44.12615" lon="5.87856">
        <ele>869</ele>
        <time>2021-06-01T09:15:54.000Z</time>
      </trkpt>
      <trkpt lat="44.12614" lon="5.87855">
        <ele>869</ele>
        <time>2021-06-01T09:15:55.000Z</time>
      </trkpt>
      <trkpt lat="44.12614" lon="5.87854">
        <ele>869</ele>
        <time>2021-06-01T09:15:56.000Z</time>
      </trkpt>
      <trkpt lat="44.12614" lon="5.87853">
        <ele>870</ele>
        <time>2021-06-01T09:15:57.000Z</time>
      </trkpt>
      <trkpt lat="44.12614" lon="5.87852">
        <ele>870</ele>
        <time>2021-06-01T09:15:58.000Z</time>
      </trkpt>
      <trkpt lat="44.12614" lon="5.8785">
        <ele>870</ele>
        <time>2021-06-01T09:15:59.000Z</time>
      </trkpt>
      <trkpt lat="44.12614" lon="5.87849">
        <ele>870</ele>
        <time>2021-06-01T09:16:00.000Z</time>
      </trkpt>
      <trkpt lat="44.12614" lon="5.87848">
        <ele>870</ele>
        <time>2021-06-01T09:16:01.000Z</time>
      </trkpt>
      <trkpt lat="44.12614" lon="5.87847">
        <ele>870</ele>
        <time>2021-06-01T09:16:02.000Z</time>
      </trkpt>
      <trkpt lat="44.12613" lon="5.87845">
        <ele>870</ele>
        <time>2021-06-01T09:16:03.000Z</time>
      </trkpt>
      <trkpt lat="44.12613" lon="5.87844">
        <ele>870</ele>
        <time>2021-06-01T09:16:04.000Z</time>
      </trkpt>
      <trkpt lat="44.12613" lon="5.87843">
        <ele>870</ele>
        <time>2021-06-01T09:16:05.000Z</time>
      </trkpt>
      <trkpt lat="44.12613" lon="5.87841">
        <ele>870</ele>
        <time>2021-06-01T09:16:06.000Z</time>
      </trkpt>
      <trkpt lat="44.12613" lon="5.8784">
        <ele>870</ele>
        <time>2021-06-01T09:16:07.000Z</time>
      </trkpt>
      <trkpt lat="44.12613" lon="5.87839">
        <ele>870</ele>
        <time>2021-06-01T09:16:08.000Z</time>
      </trkpt>
      <trkpt lat="44.12613" lon="5.87837">
        <ele>870</ele>
        <time>2021-06-01T09:16:09.000Z</time>
      </trkpt>
      <trkpt lat="44.12613" lon="5.87836">
        <ele>870</ele>
        <time>2021-06-01T09:16:10.000Z</time>
      </trkpt>
      <trkpt lat="44.12613" lon="5.87834">
        <ele>870</ele>
        <time>2021-06-01T09:16:11.000Z</time>
      </trkpt>
      <trkpt lat="44.12613" lon="5.87833">
        <ele>871</ele>
        <time>2021-06-01T09:16:12.000Z</time>
      </trkpt>
      <trkpt lat="44.12613" lon="5.87832">
        <ele>871</ele>
        <time>2021-06-01T09:16:13.000Z</time>
      </trkpt>
      <trkpt lat="44.12612" lon="5.8783">
        <ele>871</ele>
        <time>2021-06-01T09:16:14.000Z</time>
      </trkpt>
      <trkpt lat="44.12612" lon="5.87829">
        <ele>871</ele>
        <time>2021-06-01T09:16:15.000Z</time>
      </trkpt>
      <trkpt lat="44.12612" lon="5.87828">
        <ele>871</ele>
        <time>2021-06-01T09:16:16.000Z</time>
      </trkpt>
      <trkpt lat="44.12612" lon="5.87826">
        <ele>871</ele>
        <time>2021-06-01T09:16:17.000Z</time>
      </trkpt>
      <trkpt lat="44.12612" lon="5.87825">
        <ele>871</ele>
        <time>2021-06-01T09:16:18.000Z</time>
      </trkpt>
      <trkpt lat="44.12612" lon="5.87824">
        <ele>871</ele>
        <time>2021-06-01T09:16:19.000Z</time>
      </trkpt>
      <trkpt lat="44.12611" lon="5.87822">
        <ele>872</ele>
        <time>2021-06-01T09:16:20.000Z</time>
      </trkpt>
      <trkpt lat="44.12611" lon="5.87821">
        <ele>872</ele>
        <time>2021-06-01T09:16:21.000Z</time>
      </trkpt>
      <trkpt lat="44.12611" lon="5.8782">
        <ele>872</ele>
        <time>2021-06-01T09:16:22.000Z</time>
      </trkpt>
      <trkpt lat="44.12611" lon="5.87818">
        <ele>872</ele>
        <time>2021-06-01T09:16:23.000Z</time>
      </trkpt>
      <trkpt lat="44.12611" lon="5.87817">
        <ele>872</ele>
        <time>2021-06-01T09:16:24.000Z</time>
      </trkpt>
      <trkpt lat="44.12611" lon="5.87816">
        <ele>872</ele>
        <time>2021-06-01T09:16:25.000Z</time>
      </trkpt>
      <trkpt lat="44.12611" lon="5.87815">
        <ele>872</ele>
        <time>2021-06-01T09:16:26.000Z</time>
      </trkpt>
      <trkpt lat="44.12611" lon="5.87813">
        <ele>872</ele>
        <time>2021-06-01T09:16:27.000Z</time>
      </trkpt>
      <trkpt lat="44.12611" lon="5.87812">
        <ele>872</ele>
        <time>2021-06-01T09:16:28.000Z</time>
      </trkpt>
      <trkpt lat="44.1261" lon="5.87811">
        <ele>873</ele>
        <time>2021-06-01T09:16:29.000Z</time>
      </trkpt>
      <trkpt lat="44.1261" lon="5.8781">
        <ele>873</ele>
        <time>2021-06-01T09:16:30.000Z</time>
      </trkpt>
      <trkpt lat="44.1261" lon="5.87809">
        <ele>873</ele>
        <time>2021-06-01T09:16:31.000Z</time>
      </trkpt>
      <trkpt lat="44.1261" lon="5.87808">
        <ele>873</ele>
        <time>2021-06-01T09:16:32.000Z</time>
      </trkpt>
      <trkpt lat="44.1261" lon="5.87807">
        <ele>873</ele>
        <time>2021-06-01T09:16:33.000Z</time>
      </trkpt>
      <trkpt lat="44.12609" lon="5.87805">
        <ele>873</ele>
        <time>2021-06-01T09:16:34.000Z</time>
      </trkpt>
      <trkpt lat="44.12609" lon="5.87804">
        <ele>873</ele>
        <time>2021-06-01T09:16:35.000Z</time>
      </trkpt>
      <trkpt lat="44.12609" lon="5.87803">
        <ele>873</ele>
        <time>2021-06-01T09:16:36.000Z</time>
      </trkpt>
      <trkpt lat="44.12608" lon="5.87802">
        <ele>873</ele>
        <time>2021-06-01T09:16:37.000Z</time>
      </trkpt>
      <trkpt lat="44.12608" lon="5.878">
        <ele>873</ele>
        <time>2021-06-01T09:16:38.000Z</time>
      </trkpt>
      <trkpt lat="44.12608" lon="5.87799">
        <ele>874</ele>
        <time>2021-06-01T09:16:39.000Z</time>
      </trkpt>
      <trkpt lat="44.12608" lon="5.87798">
        <ele>874</ele>
        <time>2021-06-01T09:16:40.000Z</time>
      </trkpt>
      <trkpt lat="44.12607" lon="5.87797">
        <ele>874</ele>
        <time>2021-06-01T09:16:41.000Z</time>
      </trkpt>
      <trkpt lat="44.12607" lon="5.87796">
        <ele>874</ele>
        <time>2021-06-01T09:16:42.000Z</time>
      </trkpt>
      <trkpt lat="44.12606" lon="5.87795">
        <ele>874</ele>
        <time>2021-06-01T09:16:43.000Z</time>
      </trkpt>
      <trkpt lat="44.12606" lon="5.87794">
        <ele>874</ele>
        <time>2021-06-01T09:16:44.000Z</time>
      </trkpt>
      <trkpt lat="44.12605" lon="5.87792">
        <ele>874</ele>
        <time>2021-06-01T09:16:45.000Z</time>
      </trkpt>
      <trkpt lat="44.12605" lon="5.87791">
        <ele>874</ele>
        <time>2021-06-01T09:16:46.000Z</time>
      </trkpt>
      <trkpt lat="44.12605" lon="5.8779">
        <ele>875</ele>
        <time>2021-06-01T09:16:47.000Z</time>
      </trkpt>
      <trkpt lat="44.12604" lon="5.87789">
        <ele>875</ele>
        <time>2021-06-01T09:16:48.000Z</time>
      </trkpt>
      <trkpt lat="44.12604" lon="5.87788">
        <ele>874</ele>
        <time>2021-06-01T09:16:49.000Z</time>
      </trkpt>
      <trkpt lat="44.12604" lon="5.87787">
        <ele>874</ele>
        <time>2021-06-01T09:16:50.000Z</time>
      </trkpt>
      <trkpt lat="44.12603" lon="5.87786">
        <ele>874</ele>
        <time>2021-06-01T09:16:51.000Z</time>
      </trkpt>
      <trkpt lat="44.12603" lon="5.87784">
        <ele>874</ele>
        <time>2021-06-01T09:16:52.000Z</time>
      </trkpt>
      <trkpt lat="44.12603" lon="5.87783">
        <ele>874</ele>
        <time>2021-06-01T09:16:53.000Z</time>
      </trkpt>
      <trkpt lat="44.12602" lon="5.87782">
        <ele>875</ele>
        <time>2021-06-01T09:16:54.000Z</time>
      </trkpt>
      <trkpt lat="44.12602" lon="5.87781">
        <ele>875</ele>
        <time>2021-06-01T09:16:55.000Z</time>
      </trkpt>
      <trkpt lat="44.12601" lon="5.8778">
        <ele>875</ele>
        <time>2021-06-01T09:16:56.000Z</time>
      </trkpt>
      <trkpt lat="44.12601" lon="5.87779">
        <ele>875</ele>
        <time>2021-06-01T09:16:57.000Z</time>
      </trkpt>
      <trkpt lat="44.12601" lon="5.87777">
        <ele>875</ele>
        <time>2021-06-01T09:16:58.000Z</time>
      </trkpt>
      <trkpt lat="44.126" lon="5.87776">
        <ele>875</ele>
        <time>2021-06-01T09:16:59.000Z</time>
      </trkpt>
      <trkpt lat="44.126" lon="5.87775">
        <ele>875</ele>
        <time>2021-06-01T09:17:00.000Z</time>
      </trkpt>
      <trkpt lat="44.126" lon="5.87774">
        <ele>876</ele>
        <time>2021-06-01T09:17:01.000Z</time>
      </trkpt>
      <trkpt lat="44.12599" lon="5.87773">
        <ele>876</ele>
        <time>2021-06-01T09:17:02.000Z</time>
      </trkpt>
      <trkpt lat="44.12599" lon="5.87772">
        <ele>876</ele>
        <time>2021-06-01T09:17:03.000Z</time>
      </trkpt>
      <trkpt lat="44.12599" lon="5.87771">
        <ele>876</ele>
        <time>2021-06-01T09:17:04.000Z</time>
      </trkpt>
      <trkpt lat="44.12598" lon="5.8777">
        <ele>876</ele>
        <time>2021-06-01T09:17:05.000Z</time>
      </trkpt>
      <trkpt lat="44.12598" lon="5.87769">
        <ele>876</ele>
        <time>2021-06-01T09:17:06.000Z</time>
      </trkpt>
      <trkpt lat="44.12597" lon="5.87768">
        <ele>876</ele>
        <time>2021-06-01T09:17:07.000Z</time>
      </trkpt>
      <trkpt lat="44.12597" lon="5.87766">
        <ele>876</ele>
        <time>2021-06-01T09:17:08.000Z</time>
      </trkpt>
      <trkpt lat="44.12597" lon="5.87765">
        <ele>877</ele>
        <time>2021-06-01T09:17:09.000Z</time>
      </trkpt>
      <trkpt lat="44.12596" lon="5.87765">
        <ele>877</ele>
        <time>2021-06-01T09:17:10.000Z</time>
      </trkpt>
      <trkpt lat="44.12596" lon="5.87763">
        <ele>877</ele>
        <time>2021-06-01T09:17:11.000Z</time>
      </trkpt>
      <trkpt lat="44.12595" lon="5.87762">
        <ele>877</ele>
        <time>2021-06-01T09:17:12.000Z</time>
      </trkpt>
      <trkpt lat="44.12595" lon="5.87761">
        <ele>877</ele>
        <time>2021-06-01T09:17:13.000Z</time>
      </trkpt>
      <trkpt lat="44.12595" lon="5.8776">
        <ele>877</ele>
        <time>2021-06-01T09:17:14.000Z</time>
      </trkpt>
      <trkpt lat="44.12594" lon="5.87759">
        <ele>877</ele>
        <time>2021-06-01T09:17:15.000Z</time>
      </trkpt>
      <trkpt lat="44.12594" lon="5.87758">
        <ele>877</ele>
        <time>2021-06-01T09:17:16.000Z</time>
      </trkpt>
      <trkpt lat="44.12593" lon="5.87756">
        <ele>877</ele>
        <time>2021-06-01T09:17:17.000Z</time>
      </trkpt>
      <trkpt lat="44.12593" lon="5.87755">
        <ele>877</ele>
        <time>2021-06-01T09:17:18.000Z</time>
      </trkpt>
      <trkpt lat="44.12592" lon="5.87754">
        <ele>877</ele>
        <time>2021-06-01T09:17:19.000Z</time>
      </trkpt>
      <trkpt lat="44.12592" lon="5.87753">
        <ele>877</ele>
        <time>2021-06-01T09:17:20.000Z</time>
      </trkpt>
      <trkpt lat="44.12592" lon="5.87752">
        <ele>877</ele>
        <time>2021-06-01T09:17:21.000Z</time>
      </trkpt>
      <trkpt lat="44.12591" lon="5.87751">
        <ele>877</ele>
        <time>2021-06-01T09:17:22.000Z</time>
      </trkpt>
      <trkpt lat="44.12591" lon="5.8775">
        <ele>877</ele>
        <time>2021-06-01T09:17:23.000Z</time>
      </trkpt>
      <trkpt lat="44.1259" lon="5.87749">
        <ele>877</ele>
        <time>2021-06-01T09:17:24.000Z</time>
      </trkpt>
      <trkpt lat="44.1259" lon="5.87748">
        <ele>877</ele>
        <time>2021-06-01T09:17:25.000Z</time>
      </trkpt>
      <trkpt lat="44.12589" lon="5.87747">
        <ele>877</ele>
        <time>2021-06-01T09:17:26.000Z</time>
      </trkpt>
      <trkpt lat="44.12589" lon="5.87746">
        <ele>877</ele>
        <time>2021-06-01T09:17:27.000Z</time>
      </trkpt>
      <trkpt lat="44.12589" lon="5.87745">
        <ele>878</ele>
        <time>2021-06-01T09:17:28.000Z</time>
      </trkpt>
      <trkpt lat="44.12588" lon="5.87744">
        <ele>878</ele>
        <time>2021-06-01T09:17:29.000Z</time>
      </trkpt>
      <trkpt lat="44.12588" lon="5.87743">
        <ele>878</ele>
        <time>2021-06-01T09:17:30.000Z</time>
      </trkpt>
      <trkpt lat="44.12587" lon="5.87742">
        <ele>878</ele>
        <time>2021-06-01T09:17:31.000Z</time>
      </trkpt>
      <trkpt lat="44.12587" lon="5.8774">
        <ele>878</ele>
        <time>2021-06-01T09:17:32.000Z</time>
      </trkpt>
      <trkpt lat="44.12586" lon="5.87739">
        <ele>878</ele>
        <time>2021-06-01T09:17:33.000Z</time>
      </trkpt>
      <trkpt lat="44.12586" lon="5.87738">
        <ele>878</ele>
        <time>2021-06-01T09:17:34.000Z</time>
      </trkpt>
      <trkpt lat="44.12585" lon="5.87738">
        <ele>878</ele>
        <time>2021-06-01T09:17:35.000Z</time>
      </trkpt>
      <trkpt lat="44.12585" lon="5.87736">
        <ele>879</ele>
        <time>2021-06-01T09:17:36.000Z</time>
      </trkpt>
      <trkpt lat="44.12584" lon="5.87735">
        <ele>879</ele>
        <time>2021-06-01T09:17:37.000Z</time>
      </trkpt>
      <trkpt lat="44.12584" lon="5.87734">
        <ele>879</ele>
        <time>2021-06-01T09:17:38.000Z</time>
      </trkpt>
      <trkpt lat="44.12583" lon="5.87733">
        <ele>879</ele>
        <time>2021-06-01T09:17:39.000Z</time>
      </trkpt>
      <trkpt lat="44.12583" lon="5.87732">
        <ele>879</ele>
        <time>2021-06-01T09:17:40.000Z</time>
      </trkpt>
      <trkpt lat="44.12582" lon="5.87731">
        <ele>879</ele>
        <time>2021-06-01T09:17:41.000Z</time>
      </trkpt>
      <trkpt lat="44.12582" lon="5.8773">
        <ele>879</ele>
        <time>2021-06-01T09:17:42.000Z</time>
      </trkpt>
      <trkpt lat="44.12581" lon="5.87729">
        <ele>879</ele>
        <time>2021-06-01T09:17:43.000Z</time>
      </trkpt>
      <trkpt lat="44.12581" lon="5.87728">
        <ele>879</ele>
        <time>2021-06-01T09:17:44.000Z</time>
      </trkpt>
      <trkpt lat="44.1258" lon="5.87726">
        <ele>879</ele>
        <time>2021-06-01T09:17:45.000Z</time>
      </trkpt>
      <trkpt lat="44.1258" lon="5.87725">
        <ele>879</ele>
        <time>2021-06-01T09:17:46.000Z</time>
      </trkpt>
      <trkpt lat="44.12579" lon="5.87724">
        <ele>879</ele>
        <time>2021-06-01T09:17:47.000Z</time>
      </trkpt>
      <trkpt lat="44.12578" lon="5.87723">
        <ele>879</ele>
        <time>2021-06-01T09:17:48.000Z</time>
      </trkpt>
      <trkpt lat="44.12578" lon="5.87722">
        <ele>879</ele>
        <time>2021-06-01T09:17:49.000Z</time>
      </trkpt>
      <trkpt lat="44.12577" lon="5.87721">
        <ele>880</ele>
        <time>2021-06-01T09:17:50.000Z</time>
      </trkpt>
      <trkpt lat="44.12577" lon="5.87721">
        <ele>880</ele>
        <time>2021-06-01T09:17:51.000Z</time>
      </trkpt>
      <trkpt lat="44.12576" lon="5.87719">
        <ele>880</ele>
        <time>2021-06-01T09:17:52.000Z</time>
      </trkpt>
      <trkpt lat="44.12575" lon="5.87718">
        <ele>880</ele>
        <time>2021-06-01T09:17:53.000Z</time>
      </trkpt>
      <trkpt lat="44.12575" lon="5.87718">
        <ele>880</ele>
        <time>2021-06-01T09:17:54.000Z</time>
      </trkpt>
      <trkpt lat="44.12574" lon="5.87716">
        <ele>880</ele>
        <time>2021-06-01T09:17:55.000Z</time>
      </trkpt>
      <trkpt lat="44.12573" lon="5.87715">
        <ele>880</ele>
        <time>2021-06-01T09:17:56.000Z</time>
      </trkpt>
      <trkpt lat="44.12573" lon="5.87714">
        <ele>881</ele>
        <time>2021-06-01T09:17:57.000Z</time>
      </trkpt>
      <trkpt lat="44.12572" lon="5.87713">
        <ele>881</ele>
        <time>2021-06-01T09:17:58.000Z</time>
      </trkpt>
      <trkpt lat="44.12572" lon="5.87712">
        <ele>881</ele>
        <time>2021-06-01T09:17:59.000Z</time>
      </trkpt>
      <trkpt lat="44.12572" lon="5.8771">
        <ele>881</ele>
        <time>2021-06-01T09:18:00.000Z</time>
      </trkpt>
      <trkpt lat="44.12571" lon="5.87709">
        <ele>881</ele>
        <time>2021-06-01T09:18:01.000Z</time>
      </trkpt>
      <trkpt lat="44.12571" lon="5.87708">
        <ele>881</ele>
        <time>2021-06-01T09:18:02.000Z</time>
      </trkpt>
      <trkpt lat="44.1257" lon="5.87707">
        <ele>882</ele>
        <time>2021-06-01T09:18:03.000Z</time>
      </trkpt>
      <trkpt lat="44.1257" lon="5.87705">
        <ele>882</ele>
        <time>2021-06-01T09:18:04.000Z</time>
      </trkpt>
      <trkpt lat="44.1257" lon="5.87704">
        <ele>882</ele>
        <time>2021-06-01T09:18:05.000Z</time>
      </trkpt>
      <trkpt lat="44.1257" lon="5.87702">
        <ele>882</ele>
        <time>2021-06-01T09:18:06.000Z</time>
      </trkpt>
      <trkpt lat="44.1257" lon="5.87701">
        <ele>882</ele>
        <time>2021-06-01T09:18:07.000Z</time>
      </trkpt>
      <trkpt lat="44.1257" lon="5.877">
        <ele>882</ele>
        <time>2021-06-01T09:18:08.000Z</time>
      </trkpt>
      <trkpt lat="44.1257" lon="5.87698">
        <ele>882</ele>
        <time>2021-06-01T09:18:09.000Z</time>
      </trkpt>
      <trkpt lat="44.1257" lon="5.87697">
        <ele>882</ele>
        <time>2021-06-01T09:18:10.000Z</time>
      </trkpt>
      <trkpt lat="44.1257" lon="5.87696">
        <ele>882</ele>
        <time>2021-06-01T09:18:11.000Z</time>
      </trkpt>
      <trkpt lat="44.12569" lon="5.87695">
        <ele>882</ele>
        <time>2021-06-01T09:18:12.000Z</time>
      </trkpt>
      <trkpt lat="44.12569" lon="5.87694">
        <ele>882</ele>
        <time>2021-06-01T09:18:13.000Z</time>
      </trkpt>
      <trkpt lat="44.12569" lon="5.87692">
        <ele>882</ele>
        <time>2021-06-01T09:18:14.000Z</time>
      </trkpt>
      <trkpt lat="44.12569" lon="5.87691">
        <ele>882</ele>
        <time>2021-06-01T09:18:15.000Z</time>
      </trkpt>
      <trkpt lat="44.12569" lon="5.8769">
        <ele>882</ele>
        <time>2021-06-01T09:18:16.000Z</time>
      </trkpt>
      <trkpt lat="44.12569" lon="5.87688">
        <ele>882</ele>
        <time>2021-06-01T09:18:17.000Z</time>
      </trkpt>
      <trkpt lat="44.12569" lon="5.87687">
        <ele>881</ele>
        <time>2021-06-01T09:18:18.000Z</time>
      </trkpt>
      <trkpt lat="44.12569" lon="5.87686">
        <ele>881</ele>
        <time>2021-06-01T09:18:19.000Z</time>
      </trkpt>
      <trkpt lat="44.12569" lon="5.87685">
        <ele>881</ele>
        <time>2021-06-01T09:18:20.000Z</time>
      </trkpt>
      <trkpt lat="44.12569" lon="5.87684">
        <ele>881</ele>
        <time>2021-06-01T09:18:21.000Z</time>
      </trkpt>
      <trkpt lat="44.12568" lon="5.87682">
        <ele>881</ele>
        <time>2021-06-01T09:18:22.000Z</time>
      </trkpt>
      <trkpt lat="44.12568" lon="5.87681">
        <ele>881</ele>
        <time>2021-06-01T09:18:23.000Z</time>
      </trkpt>
      <trkpt lat="44.12568" lon="5.87679">
        <ele>881</ele>
        <time>2021-06-01T09:18:24.000Z</time>
      </trkpt>
      <trkpt lat="44.12568" lon="5.87678">
        <ele>881</ele>
        <time>2021-06-01T09:18:25.000Z</time>
      </trkpt>
      <trkpt lat="44.12567" lon="5.87676">
        <ele>881</ele>
        <time>2021-06-01T09:18:26.000Z</time>
      </trkpt>
      <trkpt lat="44.12567" lon="5.87675">
        <ele>881</ele>
        <time>2021-06-01T09:18:27.000Z</time>
      </trkpt>
      <trkpt lat="44.12567" lon="5.87674">
        <ele>881</ele>
        <time>2021-06-01T09:18:28.000Z</time>
      </trkpt>
      <trkpt lat="44.12567" lon="5.87672">
        <ele>881</ele>
        <time>2021-06-01T09:18:29.000Z</time>
      </trkpt>
      <trkpt lat="44.12566" lon="5.87671">
        <ele>881</ele>
        <time>2021-06-01T09:18:30.000Z</time>
      </trkpt>
      <trkpt lat="44.12566" lon="5.8767">
        <ele>881</ele>
        <time>2021-06-01T09:18:31.000Z</time>
      </trkpt>
      <trkpt lat="44.12566" lon="5.87669">
        <ele>881</ele>
        <time>2021-06-01T09:18:32.000Z</time>
      </trkpt>
      <trkpt lat="44.12565" lon="5.87668">
        <ele>881</ele>
        <time>2021-06-01T09:18:33.000Z</time>
      </trkpt>
      <trkpt lat="44.12565" lon="5.87666">
        <ele>881</ele>
        <time>2021-06-01T09:18:34.000Z</time>
      </trkpt>
      <trkpt lat="44.12565" lon="5.87665">
        <ele>881</ele>
        <time>2021-06-01T09:18:35.000Z</time>
      </trkpt>
      <trkpt lat="44.12565" lon="5.87664">
        <ele>881</ele>
        <time>2021-06-01T09:18:36.000Z</time>
      </trkpt>
      <trkpt lat="44.12564" lon="5.87663">
        <ele>881</ele>
        <time>2021-06-01T09:18:37.000Z</time>
      </trkpt>
      <trkpt lat="44.12564" lon="5.87662">
        <ele>881</ele>
        <time>2021-06-01T09:18:38.000Z</time>
      </trkpt>
      <trkpt lat="44.12564" lon="5.8766">
        <ele>881</ele>
        <time>2021-06-01T09:18:39.000Z</time>
      </trkpt>
      <trkpt lat="44.12564" lon="5.87659">
        <ele>881</ele>
        <time>2021-06-01T09:18:40.000Z</time>
      </trkpt>
      <trkpt lat="44.12563" lon="5.87658">
        <ele>880</ele>
        <time>2021-06-01T09:18:41.000Z</time>
      </trkpt>
      <trkpt lat="44.12563" lon="5.87656">
        <ele>880</ele>
        <time>2021-06-01T09:18:42.000Z</time>
      </trkpt>
      <trkpt lat="44.12563" lon="5.87655">
        <ele>880</ele>
        <time>2021-06-01T09:18:43.000Z</time>
      </trkpt>
      <trkpt lat="44.12563" lon="5.87654">
        <ele>880</ele>
        <time>2021-06-01T09:18:44.000Z</time>
      </trkpt>
      <trkpt lat="44.12563" lon="5.87652">
        <ele>880</ele>
        <time>2021-06-01T09:18:45.000Z</time>
      </trkpt>
      <trkpt lat="44.12562" lon="5.87651">
        <ele>880</ele>
        <time>2021-06-01T09:18:46.000Z</time>
      </trkpt>
      <trkpt lat="44.12562" lon="5.8765">
        <ele>880</ele>
        <time>2021-06-01T09:18:47.000Z</time>
      </trkpt>
      <trkpt lat="44.12561" lon="5.87648">
        <ele>880</ele>
        <time>2021-06-01T09:18:48.000Z</time>
      </trkpt>
      <trkpt lat="44.12561" lon="5.87647">
        <ele>880</ele>
        <time>2021-06-01T09:18:49.000Z</time>
      </trkpt>
      <trkpt lat="44.12561" lon="5.87646">
        <ele>880</ele>
        <time>2021-06-01T09:18:50.000Z</time>
      </trkpt>
      <trkpt lat="44.12561" lon="5.87644">
        <ele>880</ele>
        <time>2021-06-01T09:18:51.000Z</time>
      </trkpt>
      <trkpt lat="44.12561" lon="5.87643">
        <ele>880</ele>
        <time>2021-06-01T09:18:52.000Z</time>
      </trkpt>
      <trkpt lat="44.1256" lon="5.87642">
        <ele>880</ele>
        <time>2021-06-01T09:18:53.000Z</time>
      </trkpt>
      <trkpt lat="44.1256" lon="5.87641">
        <ele>880</ele>
        <time>2021-06-01T09:18:54.000Z</time>
      </trkpt>
      <trkpt lat="44.1256" lon="5.8764">
        <ele>880</ele>
        <time>2021-06-01T09:18:55.000Z</time>
      </trkpt>
      <trkpt lat="44.1256" lon="5.87639">
        <ele>880</ele>
        <time>2021-06-01T09:18:56.000Z</time>
      </trkpt>
      <trkpt lat="44.1256" lon="5.87637">
        <ele>880</ele>
        <time>2021-06-01T09:18:57.000Z</time>
      </trkpt>
      <trkpt lat="44.1256" lon="5.87636">
        <ele>880</ele>
        <time>2021-06-01T09:18:58.000Z</time>
      </trkpt>
      <trkpt lat="44.12559" lon="5.87634">
        <ele>880</ele>
        <time>2021-06-01T09:18:59.000Z</time>
      </trkpt>
      <trkpt lat="44.12559" lon="5.87633">
        <ele>880</ele>
        <time>2021-06-01T09:19:00.000Z</time>
      </trkpt>
      <trkpt lat="44.12558" lon="5.87631">
        <ele>880</ele>
        <time>2021-06-01T09:19:01.000Z</time>
      </trkpt>
      <trkpt lat="44.12558" lon="5.8763">
        <ele>880</ele>
        <time>2021-06-01T09:19:02.000Z</time>
      </trkpt>
      <trkpt lat="44.12558" lon="5.87628">
        <ele>880</ele>
        <time>2021-06-01T09:19:03.000Z</time>
      </trkpt>
      <trkpt lat="44.12557" lon="5.87627">
        <ele>880</ele>
        <time>2021-06-01T09:19:04.000Z</time>
      </trkpt>
      <trkpt lat="44.12557" lon="5.87625">
        <ele>880</ele>
        <time>2021-06-01T09:19:05.000Z</time>
      </trkpt>
      <trkpt lat="44.12557" lon="5.87624">
        <ele>880</ele>
        <time>2021-06-01T09:19:06.000Z</time>
      </trkpt>
      <trkpt lat="44.12556" lon="5.87622">
        <ele>881</ele>
        <time>2021-06-01T09:19:07.000Z</time>
      </trkpt>
      <trkpt lat="44.12556" lon="5.87621">
        <ele>881</ele>
        <time>2021-06-01T09:19:08.000Z</time>
      </trkpt>
      <trkpt lat="44.12555" lon="5.87619">
        <ele>881</ele>
        <time>2021-06-01T09:19:09.000Z</time>
      </trkpt>
      <trkpt lat="44.12555" lon="5.87617">
        <ele>881</ele>
        <time>2021-06-01T09:19:10.000Z</time>
      </trkpt>
      <trkpt lat="44.12555" lon="5.87616">
        <ele>881</ele>
        <time>2021-06-01T09:19:11.000Z</time>
      </trkpt>
      <trkpt lat="44.12555" lon="5.87615">
        <ele>881</ele>
        <time>2021-06-01T09:19:12.000Z</time>
      </trkpt>
      <trkpt lat="44.12555" lon="5.87613">
        <ele>881</ele>
        <time>2021-06-01T09:19:13.000Z</time>
      </trkpt>
      <trkpt lat="44.12554" lon="5.87612">
        <ele>881</ele>
        <time>2021-06-01T09:19:14.000Z</time>
      </trkpt>
      <trkpt lat="44.12554" lon="5.8761">
        <ele>881</ele>
        <time>2021-06-01T09:19:15.000Z</time>
      </trkpt>
      <trkpt lat="44.12554" lon="5.87609">
        <ele>881</ele>
        <time>2021-06-01T09:19:16.000Z</time>
      </trkpt>
      <trkpt lat="44.12554" lon="5.87608">
        <ele>881</ele>
        <time>2021-06-01T09:19:17.000Z</time>
      </trkpt>
      <trkpt lat="44.12554" lon="5.87607">
        <ele>881</ele>
        <time>2021-06-01T09:19:18.000Z</time>
      </trkpt>
      <trkpt lat="44.12554" lon="5.87605">
        <ele>881</ele>
        <time>2021-06-01T09:19:19.000Z</time>
      </trkpt>
      <trkpt lat="44.12555" lon="5.87604">
        <ele>882</ele>
        <time>2021-06-01T09:19:20.000Z</time>
      </trkpt>
      <trkpt lat="44.12555" lon="5.87602">
        <ele>882</ele>
        <time>2021-06-01T09:19:21.000Z</time>
      </trkpt>
      <trkpt lat="44.12555" lon="5.87601">
        <ele>882</ele>
        <time>2021-06-01T09:19:22.000Z</time>
      </trkpt>
      <trkpt lat="44.12555" lon="5.87599">
        <ele>882</ele>
        <time>2021-06-01T09:19:23.000Z</time>
      </trkpt>
      <trkpt lat="44.12555" lon="5.87598">
        <ele>882</ele>
        <time>2021-06-01T09:19:24.000Z</time>
      </trkpt>
      <trkpt lat="44.12555" lon="5.87596">
        <ele>882</ele>
        <time>2021-06-01T09:19:25.000Z</time>
      </trkpt>
      <trkpt lat="44.12555" lon="5.87595">
        <ele>882</ele>
        <time>2021-06-01T09:19:26.000Z</time>
      </trkpt>
      <trkpt lat="44.12555" lon="5.87594">
        <ele>882</ele>
        <time>2021-06-01T09:19:27.000Z</time>
      </trkpt>
      <trkpt lat="44.12554" lon="5.87592">
        <ele>882</ele>
        <time>2021-06-01T09:19:28.000Z</time>
      </trkpt>
      <trkpt lat="44.12554" lon="5.8759">
        <ele>883</ele>
        <time>2021-06-01T09:19:29.000Z</time>
      </trkpt>
      <trkpt lat="44.12554" lon="5.87588">
        <ele>883</ele>
        <time>2021-06-01T09:19:30.000Z</time>
      </trkpt>
      <trkpt lat="44.12554" lon="5.87587">
        <ele>883</ele>
        <time>2021-06-01T09:19:31.000Z</time>
      </trkpt>
      <trkpt lat="44.12554" lon="5.87585">
        <ele>883</ele>
        <time>2021-06-01T09:19:32.000Z</time>
      </trkpt>
      <trkpt lat="44.12554" lon="5.87583">
        <ele>883</ele>
        <time>2021-06-01T09:19:33.000Z</time>
      </trkpt>
      <trkpt lat="44.12554" lon="5.87582">
        <ele>883</ele>
        <time>2021-06-01T09:19:34.000Z</time>
      </trkpt>
      <trkpt lat="44.12553" lon="5.8758">
        <ele>883</ele>
        <time>2021-06-01T09:19:35.000Z</time>
      </trkpt>
      <trkpt lat="44.12553" lon="5.87578">
        <ele>884</ele>
        <time>2021-06-01T09:19:36.000Z</time>
      </trkpt>
      <trkpt lat="44.12553" lon="5.87577">
        <ele>884</ele>
        <time>2021-06-01T09:19:37.000Z</time>
      </trkpt>
      <trkpt lat="44.12553" lon="5.87575">
        <ele>884</ele>
        <time>2021-06-01T09:19:38.000Z</time>
      </trkpt>
      <trkpt lat="44.12553" lon="5.87574">
        <ele>884</ele>
        <time>2021-06-01T09:19:39.000Z</time>
      </trkpt>
      <trkpt lat="44.12552" lon="5.87572">
        <ele>884</ele>
        <time>2021-06-01T09:19:40.000Z</time>
      </trkpt>
      <trkpt lat="44.12552" lon="5.87571">
        <ele>885</ele>
        <time>2021-06-01T09:19:41.000Z</time>
      </trkpt>
      <trkpt lat="44.12552" lon="5.87569">
        <ele>885</ele>
        <time>2021-06-01T09:19:42.000Z</time>
      </trkpt>
      <trkpt lat="44.12552" lon="5.87568">
        <ele>885</ele>
        <time>2021-06-01T09:19:43.000Z</time>
      </trkpt>
      <trkpt lat="44.12551" lon="5.87566">
        <ele>885</ele>
        <time>2021-06-01T09:19:44.000Z</time>
      </trkpt>
      <trkpt lat="44.12551" lon="5.87565">
        <ele>885</ele>
        <time>2021-06-01T09:19:45.000Z</time>
      </trkpt>
      <trkpt lat="44.12551" lon="5.87564">
        <ele>885</ele>
        <time>2021-06-01T09:19:46.000Z</time>
      </trkpt>
      <trkpt lat="44.12551" lon="5.87562">
        <ele>886</ele>
        <time>2021-06-01T09:19:47.000Z</time>
      </trkpt>
      <trkpt lat="44.1255" lon="5.87561">
        <ele>886</ele>
        <time>2021-06-01T09:19:48.000Z</time>
      </trkpt>
      <trkpt lat="44.1255" lon="5.87559">
        <ele>886</ele>
        <time>2021-06-01T09:19:49.000Z</time>
      </trkpt>
      <trkpt lat="44.1255" lon="5.87558">
        <ele>886</ele>
        <time>2021-06-01T09:19:50.000Z</time>
      </trkpt>
      <trkpt lat="44.1255" lon="5.87557">
        <ele>886</ele>
        <time>2021-06-01T09:19:51.000Z</time>
      </trkpt>
      <trkpt lat="44.1255" lon="5.87556">
        <ele>886</ele>
        <time>2021-06-01T09:19:52.000Z</time>
      </trkpt>
      <trkpt lat="44.1255" lon="5.87554">
        <ele>887</ele>
        <time>2021-06-01T09:19:53.000Z</time>
      </trkpt>
      <trkpt lat="44.12549" lon="5.87553">
        <ele>887</ele>
        <time>2021-06-01T09:19:54.000Z</time>
      </trkpt>
      <trkpt lat="44.12549" lon="5.87551">
        <ele>887</ele>
        <time>2021-06-01T09:19:55.000Z</time>
      </trkpt>
      <trkpt lat="44.12548" lon="5.8755">
        <ele>887</ele>
        <time>2021-06-01T09:19:56.000Z</time>
      </trkpt>
      <trkpt lat="44.12548" lon="5.87549">
        <ele>887</ele>
        <time>2021-06-01T09:19:57.000Z</time>
      </trkpt>
      <trkpt lat="44.12547" lon="5.87548">
        <ele>887</ele>
        <time>2021-06-01T09:19:58.000Z</time>
      </trkpt>
      <trkpt lat="44.12547" lon="5.87546">
        <ele>887</ele>
        <time>2021-06-01T09:19:59.000Z</time>
      </trkpt>
      <trkpt lat="44.12546" lon="5.87545">
        <ele>887</ele>
        <time>2021-06-01T09:20:00.000Z</time>
      </trkpt>
      <trkpt lat="44.12546" lon="5.87544">
        <ele>887</ele>
        <time>2021-06-01T09:20:01.000Z</time>
      </trkpt>
      <trkpt lat="44.12545" lon="5.87543">
        <ele>887</ele>
        <time>2021-06-01T09:20:02.000Z</time>
      </trkpt>
      <trkpt lat="44.12544" lon="5.87541">
        <ele>888</ele>
        <time>2021-06-01T09:20:03.000Z</time>
      </trkpt>
      <trkpt lat="44.12544" lon="5.8754">
        <ele>888</ele>
        <time>2021-06-01T09:20:04.000Z</time>
      </trkpt>
      <trkpt lat="44.12543" lon="5.87539">
        <ele>888</ele>
        <time>2021-06-01T09:20:05.000Z</time>
      </trkpt>
      <trkpt lat="44.12543" lon="5.87538">
        <ele>888</ele>
        <time>2021-06-01T09:20:06.000Z</time>
      </trkpt>
      <trkpt lat="44.12543" lon="5.87536">
        <ele>888</ele>
        <time>2021-06-01T09:20:07.000Z</time>
      </trkpt>
      <trkpt lat="44.12542" lon="5.87535">
        <ele>888</ele>
        <time>2021-06-01T09:20:08.000Z</time>
      </trkpt>
      <trkpt lat="44.12541" lon="5.87534">
        <ele>888</ele>
        <time>2021-06-01T09:20:09.000Z</time>
      </trkpt>
      <trkpt lat="44.12541" lon="5.87533">
        <ele>888</ele>
        <time>2021-06-01T09:20:10.000Z</time>
      </trkpt>
      <trkpt lat="44.1254" lon="5.87532">
        <ele>888</ele>
        <time>2021-06-01T09:20:11.000Z</time>
      </trkpt>
      <trkpt lat="44.12539" lon="5.87531">
        <ele>888</ele>
        <time>2021-06-01T09:20:12.000Z</time>
      </trkpt>
      <trkpt lat="44.12539" lon="5.8753">
        <ele>888</ele>
        <time>2021-06-01T09:20:13.000Z</time>
      </trkpt>
      <trkpt lat="44.12538" lon="5.87529">
        <ele>888</ele>
        <time>2021-06-01T09:20:14.000Z</time>
      </trkpt>
      <trkpt lat="44.12538" lon="5.87528">
        <ele>888</ele>
        <time>2021-06-01T09:20:15.000Z</time>
      </trkpt>
      <trkpt lat="44.12538" lon="5.87526">
        <ele>888</ele>
        <time>2021-06-01T09:20:16.000Z</time>
      </trkpt>
      <trkpt lat="44.12537" lon="5.87525">
        <ele>888</ele>
        <time>2021-06-01T09:20:17.000Z</time>
      </trkpt>
      <trkpt lat="44.12537" lon="5.87524">
        <ele>888</ele>
        <time>2021-06-01T09:20:18.000Z</time>
      </trkpt>
      <trkpt lat="44.12537" lon="5.87523">
        <ele>888</ele>
        <time>2021-06-01T09:20:19.000Z</time>
      </trkpt>
      <trkpt lat="44.12537" lon="5.87521">
        <ele>888</ele>
        <time>2021-06-01T09:20:20.000Z</time>
      </trkpt>
      <trkpt lat="44.12537" lon="5.8752">
        <ele>888</ele>
        <time>2021-06-01T09:20:21.000Z</time>
      </trkpt>
      <trkpt lat="44.12537" lon="5.87519">
        <ele>888</ele>
        <time>2021-06-01T09:20:22.000Z</time>
      </trkpt>
      <trkpt lat="44.12537" lon="5.87518">
        <ele>888</ele>
        <time>2021-06-01T09:20:23.000Z</time>
      </trkpt>
      <trkpt lat="44.12537" lon="5.87517">
        <ele>888</ele>
        <time>2021-06-01T09:20:24.000Z</time>
      </trkpt>
      <trkpt lat="44.12537" lon="5.87516">
        <ele>889</ele>
        <time>2021-06-01T09:20:25.000Z</time>
      </trkpt>
      <trkpt lat="44.12537" lon="5.87515">
        <ele>889</ele>
        <time>2021-06-01T09:20:26.000Z</time>
      </trkpt>
      <trkpt lat="44.12537" lon="5.87514">
        <ele>889</ele>
        <time>2021-06-01T09:20:27.000Z</time>
      </trkpt>
      <trkpt lat="44.12536" lon="5.87513">
        <ele>889</ele>
        <time>2021-06-01T09:20:28.000Z</time>
      </trkpt>
      <trkpt lat="44.12536" lon="5.87513">
        <ele>889</ele>
        <time>2021-06-01T09:20:29.000Z</time>
      </trkpt>
      <trkpt lat="44.12536" lon="5.87512">
        <ele>889</ele>
        <time>2021-06-01T09:20:30.000Z</time>
      </trkpt>
      <trkpt lat="44.12535" lon="5.87511">
        <ele>889</ele>
        <time>2021-06-01T09:20:31.000Z</time>
      </trkpt>
      <trkpt lat="44.12535" lon="5.8751">
        <ele>889</ele>
        <time>2021-06-01T09:20:32.000Z</time>
      </trkpt>
      <trkpt lat="44.12535" lon="5.87509">
        <ele>888</ele>
        <time>2021-06-01T09:20:33.000Z</time>
      </trkpt>
      <trkpt lat="44.12534" lon="5.87508">
        <ele>888</ele>
        <time>2021-06-01T09:20:34.000Z</time>
      </trkpt>
      <trkpt lat="44.12533" lon="5.87507">
        <ele>888</ele>
        <time>2021-06-01T09:20:35.000Z</time>
      </trkpt>
      <trkpt lat="44.12532" lon="5.87506">
        <ele>888</ele>
        <time>2021-06-01T09:20:36.000Z</time>
      </trkpt>
      <trkpt lat="44.12532" lon="5.87505">
        <ele>888</ele>
        <time>2021-06-01T09:20:37.000Z</time>
      </trkpt>
      <trkpt lat="44.12531" lon="5.87504">
        <ele>888</ele>
        <time>2021-06-01T09:20:38.000Z</time>
      </trkpt>
      <trkpt lat="44.12531" lon="5.87503">
        <ele>888</ele>
        <time>2021-06-01T09:20:39.000Z</time>
      </trkpt>
      <trkpt lat="44.12531" lon="5.87502">
        <ele>888</ele>
        <time>2021-06-01T09:20:40.000Z</time>
      </trkpt>
      <trkpt lat="44.12531" lon="5.87501">
        <ele>888</ele>
        <time>2021-06-01T09:20:41.000Z</time>
      </trkpt>
      <trkpt lat="44.12531" lon="5.875">
        <ele>888</ele>
        <time>2021-06-01T09:20:42.000Z</time>
      </trkpt>
      <trkpt lat="44.1253" lon="5.87499">
        <ele>888</ele>
        <time>2021-06-01T09:20:43.000Z</time>
      </trkpt>
      <trkpt lat="44.1253" lon="5.87498">
        <ele>888</ele>
        <time>2021-06-01T09:20:44.000Z</time>
      </trkpt>
      <trkpt lat="44.1253" lon="5.87497">
        <ele>888</ele>
        <time>2021-06-01T09:20:45.000Z</time>
      </trkpt>
      <trkpt lat="44.1253" lon="5.87496">
        <ele>888</ele>
        <time>2021-06-01T09:20:46.000Z</time>
      </trkpt>
      <trkpt lat="44.1253" lon="5.87495">
        <ele>888</ele>
        <time>2021-06-01T09:20:47.000Z</time>
      </trkpt>
      <trkpt lat="44.1253" lon="5.87494">
        <ele>888</ele>
        <time>2021-06-01T09:20:48.000Z</time>
      </trkpt>
      <trkpt lat="44.1253" lon="5.87493">
        <ele>889</ele>
        <time>2021-06-01T09:20:49.000Z</time>
      </trkpt>
      <trkpt lat="44.12531" lon="5.87493">
        <ele>889</ele>
        <time>2021-06-01T09:20:50.000Z</time>
      </trkpt>
      <trkpt lat="44.12531" lon="5.87492">
        <ele>889</ele>
        <time>2021-06-01T09:20:51.000Z</time>
      </trkpt>
      <trkpt lat="44.12531" lon="5.87491">
        <ele>889</ele>
        <time>2021-06-01T09:20:52.000Z</time>
      </trkpt>
      <trkpt lat="44.12531" lon="5.8749">
        <ele>889</ele>
        <time>2021-06-01T09:20:53.000Z</time>
      </trkpt>
      <trkpt lat="44.12531" lon="5.87489">
        <ele>889</ele>
        <time>2021-06-01T09:20:54.000Z</time>
      </trkpt>
      <trkpt lat="44.12532" lon="5.87488">
        <ele>889</ele>
        <time>2021-06-01T09:20:55.000Z</time>
      </trkpt>
      <trkpt lat="44.12532" lon="5.87487">
        <ele>889</ele>
        <time>2021-06-01T09:20:56.000Z</time>
      </trkpt>
      <trkpt lat="44.12532" lon="5.87486">
        <ele>889</ele>
        <time>2021-06-01T09:20:57.000Z</time>
      </trkpt>
      <trkpt lat="44.12532" lon="5.87485">
        <ele>889</ele>
        <time>2021-06-01T09:20:58.000Z</time>
      </trkpt>
      <trkpt lat="44.12532" lon="5.87484">
        <ele>889</ele>
        <time>2021-06-01T09:20:59.000Z</time>
      </trkpt>
      <trkpt lat="44.12531" lon="5.87483">
        <ele>889</ele>
        <time>2021-06-01T09:21:00.000Z</time>
      </trkpt>
      <trkpt lat="44.12531" lon="5.87482">
        <ele>889</ele>
        <time>2021-06-01T09:21:01.000Z</time>
      </trkpt>
      <trkpt lat="44.12531" lon="5.87482">
        <ele>889</ele>
        <time>2021-06-01T09:21:02.000Z</time>
      </trkpt>
      <trkpt lat="44.12531" lon="5.87481">
        <ele>889</ele>
        <time>2021-06-01T09:21:03.000Z</time>
      </trkpt>
      <trkpt lat="44.12531" lon="5.8748">
        <ele>889</ele>
        <time>2021-06-01T09:21:04.000Z</time>
      </trkpt>
      <trkpt lat="44.12531" lon="5.87479">
        <ele>889</ele>
        <time>2021-06-01T09:21:05.000Z</time>
      </trkpt>
      <trkpt lat="44.1253" lon="5.87478">
        <ele>889</ele>
        <time>2021-06-01T09:21:06.000Z</time>
      </trkpt>
      <trkpt lat="44.1253" lon="5.87476">
        <ele>889</ele>
        <time>2021-06-01T09:21:07.000Z</time>
      </trkpt>
      <trkpt lat="44.1253" lon="5.87475">
        <ele>889</ele>
        <time>2021-06-01T09:21:08.000Z</time>
      </trkpt>
      <trkpt lat="44.1253" lon="5.87474">
        <ele>889</ele>
        <time>2021-06-01T09:21:09.000Z</time>
      </trkpt>
      <trkpt lat="44.12529" lon="5.87473">
        <ele>889</ele>
        <time>2021-06-01T09:21:10.000Z</time>
      </trkpt>
      <trkpt lat="44.12529" lon="5.87472">
        <ele>889</ele>
        <time>2021-06-01T09:21:11.000Z</time>
      </trkpt>
      <trkpt lat="44.12529" lon="5.87471">
        <ele>890</ele>
        <time>2021-06-01T09:21:12.000Z</time>
      </trkpt>
      <trkpt lat="44.12529" lon="5.8747">
        <ele>890</ele>
        <time>2021-06-01T09:21:13.000Z</time>
      </trkpt>
      <trkpt lat="44.12529" lon="5.87469">
        <ele>890</ele>
        <time>2021-06-01T09:21:14.000Z</time>
      </trkpt>
      <trkpt lat="44.12529" lon="5.87468">
        <ele>890</ele>
        <time>2021-06-01T09:21:15.000Z</time>
      </trkpt>
      <trkpt lat="44.12529" lon="5.87467">
        <ele>890</ele>
        <time>2021-06-01T09:21:16.000Z</time>
      </trkpt>
      <trkpt lat="44.12529" lon="5.87466">
        <ele>890</ele>
        <time>2021-06-01T09:21:17.000Z</time>
      </trkpt>
      <trkpt lat="44.12528" lon="5.87465">
        <ele>890</ele>
        <time>2021-06-01T09:21:18.000Z</time>
      </trkpt>
      <trkpt lat="44.12528" lon="5.87464">
        <ele>890</ele>
        <time>2021-06-01T09:21:19.000Z</time>
      </trkpt>
      <trkpt lat="44.12528" lon="5.87463">
        <ele>890</ele>
        <time>2021-06-01T09:21:20.000Z</time>
      </trkpt>
      <trkpt lat="44.12528" lon="5.87462">
        <ele>890</ele>
        <time>2021-06-01T09:21:21.000Z</time>
      </trkpt>
      <trkpt lat="44.12528" lon="5.87462">
        <ele>890</ele>
        <time>2021-06-01T09:21:22.000Z</time>
      </trkpt>
      <trkpt lat="44.12528" lon="5.87461">
        <ele>890</ele>
        <time>2021-06-01T09:21:23.000Z</time>
      </trkpt>
      <trkpt lat="44.12528" lon="5.8746">
        <ele>890</ele>
        <time>2021-06-01T09:21:24.000Z</time>
      </trkpt>
      <trkpt lat="44.12528" lon="5.87459">
        <ele>890</ele>
        <time>2021-06-01T09:21:25.000Z</time>
      </trkpt>
      <trkpt lat="44.12528" lon="5.87458">
        <ele>891</ele>
        <time>2021-06-01T09:21:26.000Z</time>
      </trkpt>
      <trkpt lat="44.12528" lon="5.87457">
        <ele>891</ele>
        <time>2021-06-01T09:21:27.000Z</time>
      </trkpt>
      <trkpt lat="44.12528" lon="5.87456">
        <ele>891</ele>
        <time>2021-06-01T09:21:28.000Z</time>
      </trkpt>
      <trkpt lat="44.12528" lon="5.87455">
        <ele>891</ele>
        <time>2021-06-01T09:21:29.000Z</time>
      </trkpt>
      <trkpt lat="44.12529" lon="5.87454">
        <ele>891</ele>
        <time>2021-06-01T09:21:30.000Z</time>
      </trkpt>
      <trkpt lat="44.12529" lon="5.87452">
        <ele>891</ele>
        <time>2021-06-01T09:21:31.000Z</time>
      </trkpt>
      <trkpt lat="44.12529" lon="5.87451">
        <ele>891</ele>
        <time>2021-06-01T09:21:32.000Z</time>
      </trkpt>
      <trkpt lat="44.12529" lon="5.8745">
        <ele>891</ele>
        <time>2021-06-01T09:21:33.000Z</time>
      </trkpt>
      <trkpt lat="44.12529" lon="5.87449">
        <ele>891</ele>
        <time>2021-06-01T09:21:34.000Z</time>
      </trkpt>
      <trkpt lat="44.12529" lon="5.87448">
        <ele>891</ele>
        <time>2021-06-01T09:21:35.000Z</time>
      </trkpt>
      <trkpt lat="44.12529" lon="5.87446">
        <ele>892</ele>
        <time>2021-06-01T09:21:36.000Z</time>
      </trkpt>
      <trkpt lat="44.12529" lon="5.87445">
        <ele>892</ele>
        <time>2021-06-01T09:21:37.000Z</time>
      </trkpt>
      <trkpt lat="44.12529" lon="5.87443">
        <ele>892</ele>
        <time>2021-06-01T09:21:38.000Z</time>
      </trkpt>
      <trkpt lat="44.12529" lon="5.87442">
        <ele>892</ele>
        <time>2021-06-01T09:21:39.000Z</time>
      </trkpt>
      <trkpt lat="44.12529" lon="5.87441">
        <ele>892</ele>
        <time>2021-06-01T09:21:40.000Z</time>
      </trkpt>
      <trkpt lat="44.12529" lon="5.87439">
        <ele>892</ele>
        <time>2021-06-01T09:21:41.000Z</time>
      </trkpt>
      <trkpt lat="44.12529" lon="5.87438">
        <ele>892</ele>
        <time>2021-06-01T09:21:42.000Z</time>
      </trkpt>
      <trkpt lat="44.12529" lon="5.87436">
        <ele>892</ele>
        <time>2021-06-01T09:21:43.000Z</time>
      </trkpt>
      <trkpt lat="44.12529" lon="5.87434">
        <ele>892</ele>
        <time>2021-06-01T09:21:44.000Z</time>
      </trkpt>
      <trkpt lat="44.12529" lon="5.87433">
        <ele>893</ele>
        <time>2021-06-01T09:21:45.000Z</time>
      </trkpt>
      <trkpt lat="44.12529" lon="5.87431">
        <ele>893</ele>
        <time>2021-06-01T09:21:46.000Z</time>
      </trkpt>
      <trkpt lat="44.12529" lon="5.8743">
        <ele>893</ele>
        <time>2021-06-01T09:21:47.000Z</time>
      </trkpt>
      <trkpt lat="44.12529" lon="5.87428">
        <ele>893</ele>
        <time>2021-06-01T09:21:48.000Z</time>
      </trkpt>
      <trkpt lat="44.12529" lon="5.87427">
        <ele>893</ele>
        <time>2021-06-01T09:21:49.000Z</time>
      </trkpt>
      <trkpt lat="44.12529" lon="5.87426">
        <ele>893</ele>
        <time>2021-06-01T09:21:50.000Z</time>
      </trkpt>
      <trkpt lat="44.12529" lon="5.87425">
        <ele>893</ele>
        <time>2021-06-01T09:21:51.000Z</time>
      </trkpt>
      <trkpt lat="44.12529" lon="5.87423">
        <ele>893</ele>
        <time>2021-06-01T09:21:52.000Z</time>
      </trkpt>
      <trkpt lat="44.12529" lon="5.87422">
        <ele>894</ele>
        <time>2021-06-01T09:21:53.000Z</time>
      </trkpt>
      <trkpt lat="44.12529" lon="5.87421">
        <ele>894</ele>
        <time>2021-06-01T09:21:54.000Z</time>
      </trkpt>
      <trkpt lat="44.12529" lon="5.8742">
        <ele>894</ele>
        <time>2021-06-01T09:21:55.000Z</time>
      </trkpt>
      <trkpt lat="44.12529" lon="5.87418">
        <ele>894</ele>
        <time>2021-06-01T09:21:56.000Z</time>
      </trkpt>
      <trkpt lat="44.12529" lon="5.87417">
        <ele>894</ele>
        <time>2021-06-01T09:21:57.000Z</time>
      </trkpt>
      <trkpt lat="44.12529" lon="5.87416">
        <ele>894</ele>
        <time>2021-06-01T09:21:58.000Z</time>
      </trkpt>
      <trkpt lat="44.12529" lon="5.87415">
        <ele>894</ele>
        <time>2021-06-01T09:21:59.000Z</time>
      </trkpt>
      <trkpt lat="44.1253" lon="5.87413">
        <ele>894</ele>
        <time>2021-06-01T09:22:00.000Z</time>
      </trkpt>
      <trkpt lat="44.1253" lon="5.87412">
        <ele>894</ele>
        <time>2021-06-01T09:22:01.000Z</time>
      </trkpt>
      <trkpt lat="44.1253" lon="5.87411">
        <ele>894</ele>
        <time>2021-06-01T09:22:02.000Z</time>
      </trkpt>
      <trkpt lat="44.1253" lon="5.8741">
        <ele>894</ele>
        <time>2021-06-01T09:22:03.000Z</time>
      </trkpt>
      <trkpt lat="44.1253" lon="5.87408">
        <ele>894</ele>
        <time>2021-06-01T09:22:04.000Z</time>
      </trkpt>
      <trkpt lat="44.1253" lon="5.87407">
        <ele>894</ele>
        <time>2021-06-01T09:22:05.000Z</time>
      </trkpt>
      <trkpt lat="44.1253" lon="5.87405">
        <ele>894</ele>
        <time>2021-06-01T09:22:06.000Z</time>
      </trkpt>
      <trkpt lat="44.1253" lon="5.87404">
        <ele>894</ele>
        <time>2021-06-01T09:22:07.000Z</time>
      </trkpt>
      <trkpt lat="44.1253" lon="5.87402">
        <ele>894</ele>
        <time>2021-06-01T09:22:08.000Z</time>
      </trkpt>
      <trkpt lat="44.1253" lon="5.87401">
        <ele>894</ele>
        <time>2021-06-01T09:22:09.000Z</time>
      </trkpt>
      <trkpt lat="44.1253" lon="5.874">
        <ele>894</ele>
        <time>2021-06-01T09:22:10.000Z</time>
      </trkpt>
      <trkpt lat="44.1253" lon="5.87399">
        <ele>895</ele>
        <time>2021-06-01T09:22:11.000Z</time>
      </trkpt>
      <trkpt lat="44.1253" lon="5.87398">
        <ele>895</ele>
        <time>2021-06-01T09:22:12.000Z</time>
      </trkpt>
      <trkpt lat="44.1253" lon="5.87397">
        <ele>895</ele>
        <time>2021-06-01T09:22:13.000Z</time>
      </trkpt>
      <trkpt lat="44.1253" lon="5.87396">
        <ele>895</ele>
        <time>2021-06-01T09:22:14.000Z</time>
      </trkpt>
      <trkpt lat="44.1253" lon="5.87395">
        <ele>895</ele>
        <time>2021-06-01T09:22:15.000Z</time>
      </trkpt>
      <trkpt lat="44.12531" lon="5.87394">
        <ele>895</ele>
        <time>2021-06-01T09:22:16.000Z</time>
      </trkpt>
      <trkpt lat="44.12531" lon="5.87392">
        <ele>896</ele>
        <time>2021-06-01T09:22:17.000Z</time>
      </trkpt>
      <trkpt lat="44.12531" lon="5.87391">
        <ele>896</ele>
        <time>2021-06-01T09:22:18.000Z</time>
      </trkpt>
      <trkpt lat="44.12531" lon="5.8739">
        <ele>896</ele>
        <time>2021-06-01T09:22:19.000Z</time>
      </trkpt>
      <trkpt lat="44.12531" lon="5.87388">
        <ele>896</ele>
        <time>2021-06-01T09:22:20.000Z</time>
      </trkpt>
      <trkpt lat="44.12531" lon="5.87387">
        <ele>897</ele>
        <time>2021-06-01T09:22:21.000Z</time>
      </trkpt>
      <trkpt lat="44.12531" lon="5.87385">
        <ele>897</ele>
        <time>2021-06-01T09:22:22.000Z</time>
      </trkpt>
      <trkpt lat="44.1253" lon="5.87384">
        <ele>897</ele>
        <time>2021-06-01T09:22:23.000Z</time>
      </trkpt>
      <trkpt lat="44.1253" lon="5.87383">
        <ele>897</ele>
        <time>2021-06-01T09:22:24.000Z</time>
      </trkpt>
      <trkpt lat="44.12531" lon="5.87382">
        <ele>897</ele>
        <time>2021-06-01T09:22:25.000Z</time>
      </trkpt>
      <trkpt lat="44.12531" lon="5.8738">
        <ele>897</ele>
        <time>2021-06-01T09:22:26.000Z</time>
      </trkpt>
      <trkpt lat="44.12531" lon="5.87379">
        <ele>897</ele>
        <time>2021-06-01T09:22:27.000Z</time>
      </trkpt>
      <trkpt lat="44.12531" lon="5.87378">
        <ele>897</ele>
        <time>2021-06-01T09:22:28.000Z</time>
      </trkpt>
      <trkpt lat="44.12531" lon="5.87377">
        <ele>897</ele>
        <time>2021-06-01T09:22:29.000Z</time>
      </trkpt>
      <trkpt lat="44.12531" lon="5.87376">
        <ele>897</ele>
        <time>2021-06-01T09:22:30.000Z</time>
      </trkpt>
      <trkpt lat="44.12531" lon="5.87375">
        <ele>897</ele>
        <time>2021-06-01T09:22:31.000Z</time>
      </trkpt>
      <trkpt lat="44.12531" lon="5.87374">
        <ele>897</ele>
        <time>2021-06-01T09:22:32.000Z</time>
      </trkpt>
      <trkpt lat="44.12531" lon="5.87372">
        <ele>898</ele>
        <time>2021-06-01T09:22:33.000Z</time>
      </trkpt>
      <trkpt lat="44.12531" lon="5.87371">
        <ele>898</ele>
        <time>2021-06-01T09:22:34.000Z</time>
      </trkpt>
      <trkpt lat="44.12531" lon="5.8737">
        <ele>898</ele>
        <time>2021-06-01T09:22:35.000Z</time>
      </trkpt>
      <trkpt lat="44.12531" lon="5.87368">
        <ele>898</ele>
        <time>2021-06-01T09:22:36.000Z</time>
      </trkpt>
      <trkpt lat="44.12531" lon="5.87367">
        <ele>898</ele>
        <time>2021-06-01T09:22:37.000Z</time>
      </trkpt>
      <trkpt lat="44.12531" lon="5.87365">
        <ele>898</ele>
        <time>2021-06-01T09:22:38.000Z</time>
      </trkpt>
      <trkpt lat="44.12531" lon="5.87364">
        <ele>898</ele>
        <time>2021-06-01T09:22:39.000Z</time>
      </trkpt>
      <trkpt lat="44.12531" lon="5.87363">
        <ele>898</ele>
        <time>2021-06-01T09:22:40.000Z</time>
      </trkpt>
      <trkpt lat="44.1253" lon="5.87362">
        <ele>898</ele>
        <time>2021-06-01T09:22:41.000Z</time>
      </trkpt>
      <trkpt lat="44.1253" lon="5.8736">
        <ele>898</ele>
        <time>2021-06-01T09:22:42.000Z</time>
      </trkpt>
      <trkpt lat="44.1253" lon="5.87359">
        <ele>898</ele>
        <time>2021-06-01T09:22:43.000Z</time>
      </trkpt>
      <trkpt lat="44.1253" lon="5.87358">
        <ele>898</ele>
        <time>2021-06-01T09:22:44.000Z</time>
      </trkpt>
      <trkpt lat="44.1253" lon="5.87357">
        <ele>898</ele>
        <time>2021-06-01T09:22:45.000Z</time>
      </trkpt>
      <trkpt lat="44.1253" lon="5.87356">
        <ele>898</ele>
        <time>2021-06-01T09:22:46.000Z</time>
      </trkpt>
      <trkpt lat="44.1253" lon="5.87355">
        <ele>898</ele>
        <time>2021-06-01T09:22:47.000Z</time>
      </trkpt>
      <trkpt lat="44.1253" lon="5.87354">
        <ele>898</ele>
        <time>2021-06-01T09:22:48.000Z</time>
      </trkpt>
      <trkpt lat="44.1253" lon="5.87353">
        <ele>898</ele>
        <time>2021-06-01T09:22:49.000Z</time>
      </trkpt>
      <trkpt lat="44.1253" lon="5.87352">
        <ele>898</ele>
        <time>2021-06-01T09:22:50.000Z</time>
      </trkpt>
      <trkpt lat="44.1253" lon="5.8735">
        <ele>898</ele>
        <time>2021-06-01T09:22:51.000Z</time>
      </trkpt>
      <trkpt lat="44.1253" lon="5.87349">
        <ele>898</ele>
        <time>2021-06-01T09:22:52.000Z</time>
      </trkpt>
      <trkpt lat="44.12529" lon="5.87347">
        <ele>898</ele>
        <time>2021-06-01T09:22:53.000Z</time>
      </trkpt>
      <trkpt lat="44.12529" lon="5.87346">
        <ele>898</ele>
        <time>2021-06-01T09:22:54.000Z</time>
      </trkpt>
      <trkpt lat="44.12529" lon="5.87344">
        <ele>898</ele>
        <time>2021-06-01T09:22:55.000Z</time>
      </trkpt>
      <trkpt lat="44.12528" lon="5.87343">
        <ele>899</ele>
        <time>2021-06-01T09:22:56.000Z</time>
      </trkpt>
      <trkpt lat="44.12528" lon="5.87342">
        <ele>899</ele>
        <time>2021-06-01T09:22:57.000Z</time>
      </trkpt>
      <trkpt lat="44.12528" lon="5.8734">
        <ele>899</ele>
        <time>2021-06-01T09:22:58.000Z</time>
      </trkpt>
      <trkpt lat="44.12528" lon="5.87339">
        <ele>899</ele>
        <time>2021-06-01T09:22:59.000Z</time>
      </trkpt>
      <trkpt lat="44.12528" lon="5.87338">
        <ele>899</ele>
        <time>2021-06-01T09:23:00.000Z</time>
      </trkpt>
      <trkpt lat="44.12527" lon="5.87337">
        <ele>899</ele>
        <time>2021-06-01T09:23:01.000Z</time>
      </trkpt>
      <trkpt lat="44.12527" lon="5.87336">
        <ele>899</ele>
        <time>2021-06-01T09:23:02.000Z</time>
      </trkpt>
      <trkpt lat="44.12527" lon="5.87335">
        <ele>899</ele>
        <time>2021-06-01T09:23:03.000Z</time>
      </trkpt>
      <trkpt lat="44.12527" lon="5.87334">
        <ele>900</ele>
        <time>2021-06-01T09:23:04.000Z</time>
      </trkpt>
      <trkpt lat="44.12527" lon="5.87332">
        <ele>900</ele>
        <time>2021-06-01T09:23:05.000Z</time>
      </trkpt>
      <trkpt lat="44.12526" lon="5.87331">
        <ele>900</ele>
        <time>2021-06-01T09:23:06.000Z</time>
      </trkpt>
      <trkpt lat="44.12526" lon="5.87329">
        <ele>900</ele>
        <time>2021-06-01T09:23:07.000Z</time>
      </trkpt>
      <trkpt lat="44.12526" lon="5.87328">
        <ele>900</ele>
        <time>2021-06-01T09:23:08.000Z</time>
      </trkpt>
      <trkpt lat="44.12526" lon="5.87326">
        <ele>900</ele>
        <time>2021-06-01T09:23:09.000Z</time>
      </trkpt>
      <trkpt lat="44.12526" lon="5.87325">
        <ele>900</ele>
        <time>2021-06-01T09:23:10.000Z</time>
      </trkpt>
      <trkpt lat="44.12526" lon="5.87324">
        <ele>901</ele>
        <time>2021-06-01T09:23:11.000Z</time>
      </trkpt>
      <trkpt lat="44.12526" lon="5.87323">
        <ele>901</ele>
        <time>2021-06-01T09:23:12.000Z</time>
      </trkpt>
      <trkpt lat="44.12525" lon="5.87321">
        <ele>901</ele>
        <time>2021-06-01T09:23:13.000Z</time>
      </trkpt>
      <trkpt lat="44.12525" lon="5.8732">
        <ele>901</ele>
        <time>2021-06-01T09:23:14.000Z</time>
      </trkpt>
      <trkpt lat="44.12525" lon="5.87319">
        <ele>901</ele>
        <time>2021-06-01T09:23:15.000Z</time>
      </trkpt>
      <trkpt lat="44.12525" lon="5.87317">
        <ele>901</ele>
        <time>2021-06-01T09:23:16.000Z</time>
      </trkpt>
      <trkpt lat="44.12525" lon="5.87316">
        <ele>901</ele>
        <time>2021-06-01T09:23:17.000Z</time>
      </trkpt>
      <trkpt lat="44.12525" lon="5.87314">
        <ele>901</ele>
        <time>2021-06-01T09:23:18.000Z</time>
      </trkpt>
      <trkpt lat="44.12524" lon="5.87312">
        <ele>901</ele>
        <time>2021-06-01T09:23:19.000Z</time>
      </trkpt>
      <trkpt lat="44.12524" lon="5.8731">
        <ele>901</ele>
        <time>2021-06-01T09:23:20.000Z</time>
      </trkpt>
      <trkpt lat="44.12524" lon="5.87309">
        <ele>901</ele>
        <time>2021-06-01T09:23:21.000Z</time>
      </trkpt>
      <trkpt lat="44.12524" lon="5.87308">
        <ele>901</ele>
        <time>2021-06-01T09:23:22.000Z</time>
      </trkpt>
      <trkpt lat="44.12523" lon="5.87306">
        <ele>901</ele>
        <time>2021-06-01T09:23:23.000Z</time>
      </trkpt>
      <trkpt lat="44.12523" lon="5.87305">
        <ele>901</ele>
        <time>2021-06-01T09:23:24.000Z</time>
      </trkpt>
      <trkpt lat="44.12523" lon="5.87304">
        <ele>901</ele>
        <time>2021-06-01T09:23:25.000Z</time>
      </trkpt>
      <trkpt lat="44.12523" lon="5.87303">
        <ele>901</ele>
        <time>2021-06-01T09:23:26.000Z</time>
      </trkpt>
      <trkpt lat="44.12523" lon="5.87302">
        <ele>901</ele>
        <time>2021-06-01T09:23:27.000Z</time>
      </trkpt>
      <trkpt lat="44.12523" lon="5.87301">
        <ele>901</ele>
        <time>2021-06-01T09:23:28.000Z</time>
      </trkpt>
      <trkpt lat="44.12523" lon="5.87299">
        <ele>901</ele>
        <time>2021-06-01T09:23:29.000Z</time>
      </trkpt>
      <trkpt lat="44.12523" lon="5.87298">
        <ele>901</ele>
        <time>2021-06-01T09:23:30.000Z</time>
      </trkpt>
      <trkpt lat="44.12522" lon="5.87296">
        <ele>901</ele>
        <time>2021-06-01T09:23:31.000Z</time>
      </trkpt>
      <trkpt lat="44.12522" lon="5.87295">
        <ele>901</ele>
        <time>2021-06-01T09:23:32.000Z</time>
      </trkpt>
      <trkpt lat="44.12522" lon="5.87293">
        <ele>901</ele>
        <time>2021-06-01T09:23:33.000Z</time>
      </trkpt>
      <trkpt lat="44.12522" lon="5.87292">
        <ele>901</ele>
        <time>2021-06-01T09:23:34.000Z</time>
      </trkpt>
      <trkpt lat="44.12522" lon="5.8729">
        <ele>901</ele>
        <time>2021-06-01T09:23:35.000Z</time>
      </trkpt>
      <trkpt lat="44.12521" lon="5.87289">
        <ele>902</ele>
        <time>2021-06-01T09:23:36.000Z</time>
      </trkpt>
      <trkpt lat="44.12521" lon="5.87287">
        <ele>902</ele>
        <time>2021-06-01T09:23:37.000Z</time>
      </trkpt>
      <trkpt lat="44.12521" lon="5.87286">
        <ele>902</ele>
        <time>2021-06-01T09:23:38.000Z</time>
      </trkpt>
      <trkpt lat="44.12521" lon="5.87285">
        <ele>902</ele>
        <time>2021-06-01T09:23:39.000Z</time>
      </trkpt>
      <trkpt lat="44.12521" lon="5.87284">
        <ele>902</ele>
        <time>2021-06-01T09:23:40.000Z</time>
      </trkpt>
      <trkpt lat="44.12521" lon="5.87282">
        <ele>902</ele>
        <time>2021-06-01T09:23:41.000Z</time>
      </trkpt>
      <trkpt lat="44.12521" lon="5.87281">
        <ele>902</ele>
        <time>2021-06-01T09:23:42.000Z</time>
      </trkpt>
      <trkpt lat="44.1252" lon="5.87279">
        <ele>902</ele>
        <time>2021-06-01T09:23:43.000Z</time>
      </trkpt>
      <trkpt lat="44.1252" lon="5.87278">
        <ele>903</ele>
        <time>2021-06-01T09:23:44.000Z</time>
      </trkpt>
      <trkpt lat="44.1252" lon="5.87276">
        <ele>903</ele>
        <time>2021-06-01T09:23:45.000Z</time>
      </trkpt>
      <trkpt lat="44.12519" lon="5.87274">
        <ele>903</ele>
        <time>2021-06-01T09:23:46.000Z</time>
      </trkpt>
      <trkpt lat="44.12519" lon="5.87273">
        <ele>903</ele>
        <time>2021-06-01T09:23:47.000Z</time>
      </trkpt>
      <trkpt lat="44.12519" lon="5.87271">
        <ele>903</ele>
        <time>2021-06-01T09:23:48.000Z</time>
      </trkpt>
      <trkpt lat="44.12519" lon="5.8727">
        <ele>904</ele>
        <time>2021-06-01T09:23:49.000Z</time>
      </trkpt>
      <trkpt lat="44.12518" lon="5.87269">
        <ele>904</ele>
        <time>2021-06-01T09:23:50.000Z</time>
      </trkpt>
      <trkpt lat="44.12518" lon="5.87268">
        <ele>904</ele>
        <time>2021-06-01T09:23:51.000Z</time>
      </trkpt>
      <trkpt lat="44.12518" lon="5.87266">
        <ele>904</ele>
        <time>2021-06-01T09:23:52.000Z</time>
      </trkpt>
      <trkpt lat="44.12518" lon="5.87265">
        <ele>904</ele>
        <time>2021-06-01T09:23:53.000Z</time>
      </trkpt>
      <trkpt lat="44.12518" lon="5.87263">
        <ele>905</ele>
        <time>2021-06-01T09:23:54.000Z</time>
      </trkpt>
      <trkpt lat="44.12518" lon="5.87262">
        <ele>905</ele>
        <time>2021-06-01T09:23:55.000Z</time>
      </trkpt>
      <trkpt lat="44.12518" lon="5.8726">
        <ele>905</ele>
        <time>2021-06-01T09:23:56.000Z</time>
      </trkpt>
      <trkpt lat="44.12517" lon="5.87259">
        <ele>905</ele>
        <time>2021-06-01T09:23:57.000Z</time>
      </trkpt>
      <trkpt lat="44.12517" lon="5.87257">
        <ele>905</ele>
        <time>2021-06-01T09:23:58.000Z</time>
      </trkpt>
      <trkpt lat="44.12517" lon="5.87256">
        <ele>905</ele>
        <time>2021-06-01T09:23:59.000Z</time>
      </trkpt>
      <trkpt lat="44.12517" lon="5.87254">
        <ele>906</ele>
        <time>2021-06-01T09:24:00.000Z</time>
      </trkpt>
      <trkpt lat="44.12517" lon="5.87252">
        <ele>906</ele>
        <time>2021-06-01T09:24:01.000Z</time>
      </trkpt>
      <trkpt lat="44.12518" lon="5.87251">
        <ele>906</ele>
        <time>2021-06-01T09:24:02.000Z</time>
      </trkpt>
      <trkpt lat="44.12517" lon="5.87249">
        <ele>906</ele>
        <time>2021-06-01T09:24:03.000Z</time>
      </trkpt>
      <trkpt lat="44.12517" lon="5.87248">
        <ele>906</ele>
        <time>2021-06-01T09:24:04.000Z</time>
      </trkpt>
      <trkpt lat="44.12518" lon="5.87247">
        <ele>906</ele>
        <time>2021-06-01T09:24:05.000Z</time>
      </trkpt>
      <trkpt lat="44.12518" lon="5.87245">
        <ele>906</ele>
        <time>2021-06-01T09:24:06.000Z</time>
      </trkpt>
      <trkpt lat="44.12518" lon="5.87244">
        <ele>907</ele>
        <time>2021-06-01T09:24:07.000Z</time>
      </trkpt>
      <trkpt lat="44.12518" lon="5.87242">
        <ele>907</ele>
        <time>2021-06-01T09:24:08.000Z</time>
      </trkpt>
      <trkpt lat="44.12519" lon="5.87241">
        <ele>907</ele>
        <time>2021-06-01T09:24:09.000Z</time>
      </trkpt>
      <trkpt lat="44.12519" lon="5.87239">
        <ele>907</ele>
        <time>2021-06-01T09:24:10.000Z</time>
      </trkpt>
      <trkpt lat="44.12519" lon="5.87238">
        <ele>907</ele>
        <time>2021-06-01T09:24:11.000Z</time>
      </trkpt>
      <trkpt lat="44.1252" lon="5.87236">
        <ele>907</ele>
        <time>2021-06-01T09:24:12.000Z</time>
      </trkpt>
      <trkpt lat="44.1252" lon="5.87235">
        <ele>907</ele>
        <time>2021-06-01T09:24:13.000Z</time>
      </trkpt>
      <trkpt lat="44.1252" lon="5.87234">
        <ele>908</ele>
        <time>2021-06-01T09:24:14.000Z</time>
      </trkpt>
      <trkpt lat="44.1252" lon="5.87232">
        <ele>908</ele>
        <time>2021-06-01T09:24:15.000Z</time>
      </trkpt>
      <trkpt lat="44.12519" lon="5.87231">
        <ele>908</ele>
        <time>2021-06-01T09:24:16.000Z</time>
      </trkpt>
      <trkpt lat="44.12519" lon="5.8723">
        <ele>908</ele>
        <time>2021-06-01T09:24:17.000Z</time>
      </trkpt>
      <trkpt lat="44.12519" lon="5.87229">
        <ele>908</ele>
        <time>2021-06-01T09:24:18.000Z</time>
      </trkpt>
      <trkpt lat="44.12519" lon="5.87227">
        <ele>908</ele>
        <time>2021-06-01T09:24:19.000Z</time>
      </trkpt>
      <trkpt lat="44.12519" lon="5.87226">
        <ele>908</ele>
        <time>2021-06-01T09:24:20.000Z</time>
      </trkpt>
      <trkpt lat="44.12519" lon="5.87224">
        <ele>908</ele>
        <time>2021-06-01T09:24:21.000Z</time>
      </trkpt>
      <trkpt lat="44.12519" lon="5.87223">
        <ele>908</ele>
        <time>2021-06-01T09:24:22.000Z</time>
      </trkpt>
      <trkpt lat="44.12519" lon="5.87222">
        <ele>908</ele>
        <time>2021-06-01T09:24:23.000Z</time>
      </trkpt>
      <trkpt lat="44.1252" lon="5.8722">
        <ele>908</ele>
        <time>2021-06-01T09:24:24.000Z</time>
      </trkpt>
      <trkpt lat="44.1252" lon="5.87219">
        <ele>908</ele>
        <time>2021-06-01T09:24:25.000Z</time>
      </trkpt>
      <trkpt lat="44.1252" lon="5.87218">
        <ele>908</ele>
        <time>2021-06-01T09:24:26.000Z</time>
      </trkpt>
      <trkpt lat="44.12521" lon="5.87216">
        <ele>908</ele>
        <time>2021-06-01T09:24:27.000Z</time>
      </trkpt>
      <trkpt lat="44.12521" lon="5.87215">
        <ele>908</ele>
        <time>2021-06-01T09:24:28.000Z</time>
      </trkpt>
      <trkpt lat="44.12521" lon="5.87214">
        <ele>908</ele>
        <time>2021-06-01T09:24:29.000Z</time>
      </trkpt>
      <trkpt lat="44.12522" lon="5.87213">
        <ele>908</ele>
        <time>2021-06-01T09:24:30.000Z</time>
      </trkpt>
      <trkpt lat="44.12522" lon="5.87211">
        <ele>908</ele>
        <time>2021-06-01T09:24:31.000Z</time>
      </trkpt>
      <trkpt lat="44.12522" lon="5.8721">
        <ele>908</ele>
        <time>2021-06-01T09:24:32.000Z</time>
      </trkpt>
      <trkpt lat="44.12522" lon="5.87208">
        <ele>908</ele>
        <time>2021-06-01T09:24:33.000Z</time>
      </trkpt>
      <trkpt lat="44.12522" lon="5.87207">
        <ele>908</ele>
        <time>2021-06-01T09:24:34.000Z</time>
      </trkpt>
      <trkpt lat="44.12522" lon="5.87205">
        <ele>908</ele>
        <time>2021-06-01T09:24:35.000Z</time>
      </trkpt>
      <trkpt lat="44.12523" lon="5.87204">
        <ele>909</ele>
        <time>2021-06-01T09:24:36.000Z</time>
      </trkpt>
      <trkpt lat="44.12523" lon="5.87202">
        <ele>909</ele>
        <time>2021-06-01T09:24:37.000Z</time>
      </trkpt>
      <trkpt lat="44.12523" lon="5.87201">
        <ele>909</ele>
        <time>2021-06-01T09:24:38.000Z</time>
      </trkpt>
      <trkpt lat="44.12524" lon="5.87199">
        <ele>909</ele>
        <time>2021-06-01T09:24:39.000Z</time>
      </trkpt>
      <trkpt lat="44.12524" lon="5.87198">
        <ele>909</ele>
        <time>2021-06-01T09:24:40.000Z</time>
      </trkpt>
      <trkpt lat="44.12524" lon="5.87197">
        <ele>909</ele>
        <time>2021-06-01T09:24:41.000Z</time>
      </trkpt>
      <trkpt lat="44.12524" lon="5.87195">
        <ele>909</ele>
        <time>2021-06-01T09:24:42.000Z</time>
      </trkpt>
      <trkpt lat="44.12525" lon="5.87194">
        <ele>909</ele>
        <time>2021-06-01T09:24:43.000Z</time>
      </trkpt>
      <trkpt lat="44.12525" lon="5.87192">
        <ele>910</ele>
        <time>2021-06-01T09:24:44.000Z</time>
      </trkpt>
      <trkpt lat="44.12525" lon="5.87191">
        <ele>910</ele>
        <time>2021-06-01T09:24:45.000Z</time>
      </trkpt>
      <trkpt lat="44.12525" lon="5.87189">
        <ele>910</ele>
        <time>2021-06-01T09:24:46.000Z</time>
      </trkpt>
      <trkpt lat="44.12525" lon="5.87188">
        <ele>910</ele>
        <time>2021-06-01T09:24:47.000Z</time>
      </trkpt>
      <trkpt lat="44.12525" lon="5.87186">
        <ele>910</ele>
        <time>2021-06-01T09:24:48.000Z</time>
      </trkpt>
      <trkpt lat="44.12525" lon="5.87185">
        <ele>910</ele>
        <time>2021-06-01T09:24:49.000Z</time>
      </trkpt>
      <trkpt lat="44.12525" lon="5.87183">
        <ele>910</ele>
        <time>2021-06-01T09:24:50.000Z</time>
      </trkpt>
      <trkpt lat="44.12525" lon="5.87182">
        <ele>911</ele>
        <time>2021-06-01T09:24:51.000Z</time>
      </trkpt>
      <trkpt lat="44.12525" lon="5.8718">
        <ele>911</ele>
        <time>2021-06-01T09:24:52.000Z</time>
      </trkpt>
      <trkpt lat="44.12525" lon="5.87179">
        <ele>911</ele>
        <time>2021-06-01T09:24:53.000Z</time>
      </trkpt>
      <trkpt lat="44.12525" lon="5.87178">
        <ele>911</ele>
        <time>2021-06-01T09:24:54.000Z</time>
      </trkpt>
      <trkpt lat="44.12525" lon="5.87176">
        <ele>911</ele>
        <time>2021-06-01T09:24:55.000Z</time>
      </trkpt>
      <trkpt lat="44.12525" lon="5.87175">
        <ele>911</ele>
        <time>2021-06-01T09:24:56.000Z</time>
      </trkpt>
      <trkpt lat="44.12525" lon="5.87173">
        <ele>911</ele>
        <time>2021-06-01T09:24:57.000Z</time>
      </trkpt>
      <trkpt lat="44.12525" lon="5.87172">
        <ele>911</ele>
        <time>2021-06-01T09:24:58.000Z</time>
      </trkpt>
      <trkpt lat="44.12526" lon="5.87171">
        <ele>911</ele>
        <time>2021-06-01T09:24:59.000Z</time>
      </trkpt>
      <trkpt lat="44.12526" lon="5.87169">
        <ele>911</ele>
        <time>2021-06-01T09:25:00.000Z</time>
      </trkpt>
      <trkpt lat="44.12526" lon="5.87168">
        <ele>911</ele>
        <time>2021-06-01T09:25:01.000Z</time>
      </trkpt>
      <trkpt lat="44.12526" lon="5.87167">
        <ele>911</ele>
        <time>2021-06-01T09:25:02.000Z</time>
      </trkpt>
      <trkpt lat="44.12526" lon="5.87165">
        <ele>911</ele>
        <time>2021-06-01T09:25:03.000Z</time>
      </trkpt>
      <trkpt lat="44.12526" lon="5.87164">
        <ele>911</ele>
        <time>2021-06-01T09:25:04.000Z</time>
      </trkpt>
      <trkpt lat="44.12526" lon="5.87163">
        <ele>911</ele>
        <time>2021-06-01T09:25:05.000Z</time>
      </trkpt>
      <trkpt lat="44.12526" lon="5.87162">
        <ele>911</ele>
        <time>2021-06-01T09:25:06.000Z</time>
      </trkpt>
      <trkpt lat="44.12527" lon="5.87161">
        <ele>911</ele>
        <time>2021-06-01T09:25:07.000Z</time>
      </trkpt>
      <trkpt lat="44.12527" lon="5.8716">
        <ele>912</ele>
        <time>2021-06-01T09:25:08.000Z</time>
      </trkpt>
      <trkpt lat="44.12527" lon="5.87158">
        <ele>912</ele>
        <time>2021-06-01T09:25:09.000Z</time>
      </trkpt>
      <trkpt lat="44.12527" lon="5.87157">
        <ele>912</ele>
        <time>2021-06-01T09:25:10.000Z</time>
      </trkpt>
      <trkpt lat="44.12527" lon="5.87156">
        <ele>912</ele>
        <time>2021-06-01T09:25:11.000Z</time>
      </trkpt>
      <trkpt lat="44.12527" lon="5.87155">
        <ele>912</ele>
        <time>2021-06-01T09:25:12.000Z</time>
      </trkpt>
      <trkpt lat="44.12527" lon="5.87154">
        <ele>912</ele>
        <time>2021-06-01T09:25:13.000Z</time>
      </trkpt>
      <trkpt lat="44.12528" lon="5.87152">
        <ele>912</ele>
        <time>2021-06-01T09:25:14.000Z</time>
      </trkpt>
      <trkpt lat="44.12528" lon="5.87151">
        <ele>912</ele>
        <time>2021-06-01T09:25:15.000Z</time>
      </trkpt>
      <trkpt lat="44.12528" lon="5.8715">
        <ele>912</ele>
        <time>2021-06-01T09:25:16.000Z</time>
      </trkpt>
      <trkpt lat="44.12527" lon="5.87149">
        <ele>912</ele>
        <time>2021-06-01T09:25:17.000Z</time>
      </trkpt>
      <trkpt lat="44.12527" lon="5.87148">
        <ele>912</ele>
        <time>2021-06-01T09:25:18.000Z</time>
      </trkpt>
      <trkpt lat="44.12527" lon="5.87147">
        <ele>912</ele>
        <time>2021-06-01T09:25:19.000Z</time>
      </trkpt>
      <trkpt lat="44.12527" lon="5.87145">
        <ele>912</ele>
        <time>2021-06-01T09:25:20.000Z</time>
      </trkpt>
      <trkpt lat="44.12527" lon="5.87144">
        <ele>912</ele>
        <time>2021-06-01T09:25:21.000Z</time>
      </trkpt>
      <trkpt lat="44.12527" lon="5.87143">
        <ele>912</ele>
        <time>2021-06-01T09:25:22.000Z</time>
      </trkpt>
      <trkpt lat="44.12528" lon="5.87142">
        <ele>912</ele>
        <time>2021-06-01T09:25:23.000Z</time>
      </trkpt>
      <trkpt lat="44.12527" lon="5.8714">
        <ele>912</ele>
        <time>2021-06-01T09:25:24.000Z</time>
      </trkpt>
      <trkpt lat="44.12527" lon="5.87139">
        <ele>912</ele>
        <time>2021-06-01T09:25:25.000Z</time>
      </trkpt>
      <trkpt lat="44.12527" lon="5.87138">
        <ele>913</ele>
        <time>2021-06-01T09:25:26.000Z</time>
      </trkpt>
      <trkpt lat="44.12527" lon="5.87137">
        <ele>913</ele>
        <time>2021-06-01T09:25:27.000Z</time>
      </trkpt>
      <trkpt lat="44.12527" lon="5.87136">
        <ele>913</ele>
        <time>2021-06-01T09:25:28.000Z</time>
      </trkpt>
      <trkpt lat="44.12527" lon="5.87135">
        <ele>913</ele>
        <time>2021-06-01T09:25:29.000Z</time>
      </trkpt>
      <trkpt lat="44.12527" lon="5.87134">
        <ele>913</ele>
        <time>2021-06-01T09:25:30.000Z</time>
      </trkpt>
      <trkpt lat="44.12527" lon="5.87133">
        <ele>913</ele>
        <time>2021-06-01T09:25:31.000Z</time>
      </trkpt>
      <trkpt lat="44.12528" lon="5.87132">
        <ele>913</ele>
        <time>2021-06-01T09:25:32.000Z</time>
      </trkpt>
      <trkpt lat="44.12528" lon="5.8713">
        <ele>913</ele>
        <time>2021-06-01T09:25:33.000Z</time>
      </trkpt>
      <trkpt lat="44.12528" lon="5.87129">
        <ele>913</ele>
        <time>2021-06-01T09:25:34.000Z</time>
      </trkpt>
      <trkpt lat="44.12528" lon="5.87128">
        <ele>913</ele>
        <time>2021-06-01T09:25:35.000Z</time>
      </trkpt>
      <trkpt lat="44.12528" lon="5.87127">
        <ele>913</ele>
        <time>2021-06-01T09:25:36.000Z</time>
      </trkpt>
      <trkpt lat="44.12528" lon="5.87125">
        <ele>913</ele>
        <time>2021-06-01T09:25:37.000Z</time>
      </trkpt>
      <trkpt lat="44.12529" lon="5.87124">
        <ele>913</ele>
        <time>2021-06-01T09:25:38.000Z</time>
      </trkpt>
      <trkpt lat="44.12529" lon="5.87123">
        <ele>913</ele>
        <time>2021-06-01T09:25:39.000Z</time>
      </trkpt>
      <trkpt lat="44.12529" lon="5.87121">
        <ele>913</ele>
        <time>2021-06-01T09:25:40.000Z</time>
      </trkpt>
      <trkpt lat="44.12529" lon="5.8712">
        <ele>914</ele>
        <time>2021-06-01T09:25:41.000Z</time>
      </trkpt>
      <trkpt lat="44.1253" lon="5.87119">
        <ele>914</ele>
        <time>2021-06-01T09:25:42.000Z</time>
      </trkpt>
      <trkpt lat="44.1253" lon="5.87117">
        <ele>914</ele>
        <time>2021-06-01T09:25:43.000Z</time>
      </trkpt>
      <trkpt lat="44.1253" lon="5.87116">
        <ele>914</ele>
        <time>2021-06-01T09:25:44.000Z</time>
      </trkpt>
      <trkpt lat="44.1253" lon="5.87115">
        <ele>914</ele>
        <time>2021-06-01T09:25:45.000Z</time>
      </trkpt>
      <trkpt lat="44.12531" lon="5.87114">
        <ele>914</ele>
        <time>2021-06-01T09:25:46.000Z</time>
      </trkpt>
      <trkpt lat="44.12531" lon="5.87112">
        <ele>914</ele>
        <time>2021-06-01T09:25:47.000Z</time>
      </trkpt>
      <trkpt lat="44.12532" lon="5.87111">
        <ele>914</ele>
        <time>2021-06-01T09:25:48.000Z</time>
      </trkpt>
      <trkpt lat="44.12532" lon="5.8711">
        <ele>914</ele>
        <time>2021-06-01T09:25:49.000Z</time>
      </trkpt>
      <trkpt lat="44.12532" lon="5.87108">
        <ele>914</ele>
        <time>2021-06-01T09:25:50.000Z</time>
      </trkpt>
      <trkpt lat="44.12533" lon="5.87107">
        <ele>914</ele>
        <time>2021-06-01T09:25:51.000Z</time>
      </trkpt>
      <trkpt lat="44.12533" lon="5.87105">
        <ele>914</ele>
        <time>2021-06-01T09:25:52.000Z</time>
      </trkpt>
      <trkpt lat="44.12533" lon="5.87104">
        <ele>914</ele>
        <time>2021-06-01T09:25:53.000Z</time>
      </trkpt>
      <trkpt lat="44.12533" lon="5.87102">
        <ele>914</ele>
        <time>2021-06-01T09:25:54.000Z</time>
      </trkpt>
      <trkpt lat="44.12533" lon="5.87101">
        <ele>914</ele>
        <time>2021-06-01T09:25:55.000Z</time>
      </trkpt>
      <trkpt lat="44.12533" lon="5.87099">
        <ele>914</ele>
        <time>2021-06-01T09:25:56.000Z</time>
      </trkpt>
      <trkpt lat="44.12534" lon="5.87097">
        <ele>914</ele>
        <time>2021-06-01T09:25:57.000Z</time>
      </trkpt>
      <trkpt lat="44.12534" lon="5.87096">
        <ele>914</ele>
        <time>2021-06-01T09:25:58.000Z</time>
      </trkpt>
      <trkpt lat="44.12534" lon="5.87094">
        <ele>914</ele>
        <time>2021-06-01T09:25:59.000Z</time>
      </trkpt>
      <trkpt lat="44.12534" lon="5.87093">
        <ele>914</ele>
        <time>2021-06-01T09:26:00.000Z</time>
      </trkpt>
      <trkpt lat="44.12534" lon="5.87092">
        <ele>915</ele>
        <time>2021-06-01T09:26:01.000Z</time>
      </trkpt>
      <trkpt lat="44.12534" lon="5.8709">
        <ele>915</ele>
        <time>2021-06-01T09:26:02.000Z</time>
      </trkpt>
      <trkpt lat="44.12534" lon="5.87089">
        <ele>915</ele>
        <time>2021-06-01T09:26:03.000Z</time>
      </trkpt>
      <trkpt lat="44.12534" lon="5.87087">
        <ele>915</ele>
        <time>2021-06-01T09:26:04.000Z</time>
      </trkpt>
      <trkpt lat="44.12535" lon="5.87086">
        <ele>915</ele>
        <time>2021-06-01T09:26:05.000Z</time>
      </trkpt>
      <trkpt lat="44.12535" lon="5.87085">
        <ele>915</ele>
        <time>2021-06-01T09:26:06.000Z</time>
      </trkpt>
      <trkpt lat="44.12535" lon="5.87083">
        <ele>915</ele>
        <time>2021-06-01T09:26:07.000Z</time>
      </trkpt>
      <trkpt lat="44.12535" lon="5.87081">
        <ele>915</ele>
        <time>2021-06-01T09:26:08.000Z</time>
      </trkpt>
      <trkpt lat="44.12536" lon="5.8708">
        <ele>915</ele>
        <time>2021-06-01T09:26:09.000Z</time>
      </trkpt>
      <trkpt lat="44.12536" lon="5.87078">
        <ele>915</ele>
        <time>2021-06-01T09:26:10.000Z</time>
      </trkpt>
      <trkpt lat="44.12536" lon="5.87077">
        <ele>915</ele>
        <time>2021-06-01T09:26:11.000Z</time>
      </trkpt>
      <trkpt lat="44.12536" lon="5.87075">
        <ele>915</ele>
        <time>2021-06-01T09:26:12.000Z</time>
      </trkpt>
      <trkpt lat="44.12536" lon="5.87074">
        <ele>915</ele>
        <time>2021-06-01T09:26:13.000Z</time>
      </trkpt>
      <trkpt lat="44.12537" lon="5.87072">
        <ele>915</ele>
        <time>2021-06-01T09:26:14.000Z</time>
      </trkpt>
      <trkpt lat="44.12537" lon="5.87071">
        <ele>915</ele>
        <time>2021-06-01T09:26:15.000Z</time>
      </trkpt>
      <trkpt lat="44.12537" lon="5.87069">
        <ele>915</ele>
        <time>2021-06-01T09:26:16.000Z</time>
      </trkpt>
      <trkpt lat="44.12537" lon="5.87068">
        <ele>915</ele>
        <time>2021-06-01T09:26:17.000Z</time>
      </trkpt>
      <trkpt lat="44.12537" lon="5.87066">
        <ele>915</ele>
        <time>2021-06-01T09:26:18.000Z</time>
      </trkpt>
      <trkpt lat="44.12538" lon="5.87065">
        <ele>915</ele>
        <time>2021-06-01T09:26:19.000Z</time>
      </trkpt>
      <trkpt lat="44.12538" lon="5.87064">
        <ele>915</ele>
        <time>2021-06-01T09:26:20.000Z</time>
      </trkpt>
      <trkpt lat="44.12538" lon="5.87062">
        <ele>915</ele>
        <time>2021-06-01T09:26:21.000Z</time>
      </trkpt>
      <trkpt lat="44.12538" lon="5.87061">
        <ele>915</ele>
        <time>2021-06-01T09:26:22.000Z</time>
      </trkpt>
      <trkpt lat="44.12538" lon="5.87059">
        <ele>916</ele>
        <time>2021-06-01T09:26:23.000Z</time>
      </trkpt>
      <trkpt lat="44.12538" lon="5.87058">
        <ele>916</ele>
        <time>2021-06-01T09:26:24.000Z</time>
      </trkpt>
      <trkpt lat="44.12538" lon="5.87057">
        <ele>916</ele>
        <time>2021-06-01T09:26:25.000Z</time>
      </trkpt>
      <trkpt lat="44.12538" lon="5.87055">
        <ele>916</ele>
        <time>2021-06-01T09:26:26.000Z</time>
      </trkpt>
      <trkpt lat="44.12538" lon="5.87054">
        <ele>916</ele>
        <time>2021-06-01T09:26:27.000Z</time>
      </trkpt>
      <trkpt lat="44.12538" lon="5.87052">
        <ele>916</ele>
        <time>2021-06-01T09:26:28.000Z</time>
      </trkpt>
      <trkpt lat="44.12538" lon="5.87051">
        <ele>916</ele>
        <time>2021-06-01T09:26:29.000Z</time>
      </trkpt>
      <trkpt lat="44.12537" lon="5.8705">
        <ele>916</ele>
        <time>2021-06-01T09:26:30.000Z</time>
      </trkpt>
      <trkpt lat="44.12537" lon="5.87048">
        <ele>916</ele>
        <time>2021-06-01T09:26:31.000Z</time>
      </trkpt>
      <trkpt lat="44.12537" lon="5.87047">
        <ele>916</ele>
        <time>2021-06-01T09:26:32.000Z</time>
      </trkpt>
      <trkpt lat="44.12537" lon="5.87045">
        <ele>916</ele>
        <time>2021-06-01T09:26:33.000Z</time>
      </trkpt>
      <trkpt lat="44.12537" lon="5.87044">
        <ele>916</ele>
        <time>2021-06-01T09:26:34.000Z</time>
      </trkpt>
      <trkpt lat="44.12537" lon="5.87043">
        <ele>915</ele>
        <time>2021-06-01T09:26:35.000Z</time>
      </trkpt>
      <trkpt lat="44.12536" lon="5.87041">
        <ele>915</ele>
        <time>2021-06-01T09:26:36.000Z</time>
      </trkpt>
      <trkpt lat="44.12536" lon="5.8704">
        <ele>915</ele>
        <time>2021-06-01T09:26:37.000Z</time>
      </trkpt>
      <trkpt lat="44.12536" lon="5.87039">
        <ele>915</ele>
        <time>2021-06-01T09:26:38.000Z</time>
      </trkpt>
      <trkpt lat="44.12536" lon="5.87038">
        <ele>915</ele>
        <time>2021-06-01T09:26:39.000Z</time>
      </trkpt>
      <trkpt lat="44.12535" lon="5.87037">
        <ele>915</ele>
        <time>2021-06-01T09:26:40.000Z</time>
      </trkpt>
      <trkpt lat="44.12535" lon="5.87036">
        <ele>915</ele>
        <time>2021-06-01T09:26:41.000Z</time>
      </trkpt>
      <trkpt lat="44.12535" lon="5.87035">
        <ele>915</ele>
        <time>2021-06-01T09:26:42.000Z</time>
      </trkpt>
      <trkpt lat="44.12534" lon="5.87034">
        <ele>915</ele>
        <time>2021-06-01T09:26:43.000Z</time>
      </trkpt>
      <trkpt lat="44.12534" lon="5.87033">
        <ele>915</ele>
        <time>2021-06-01T09:26:44.000Z</time>
      </trkpt>
      <trkpt lat="44.12534" lon="5.87032">
        <ele>915</ele>
        <time>2021-06-01T09:26:45.000Z</time>
      </trkpt>
      <trkpt lat="44.12534" lon="5.87031">
        <ele>915</ele>
        <time>2021-06-01T09:26:46.000Z</time>
      </trkpt>
      <trkpt lat="44.12535" lon="5.87029">
        <ele>915</ele>
        <time>2021-06-01T09:26:47.000Z</time>
      </trkpt>
      <trkpt lat="44.12535" lon="5.87028">
        <ele>915</ele>
        <time>2021-06-01T09:26:48.000Z</time>
      </trkpt>
      <trkpt lat="44.12535" lon="5.87027">
        <ele>915</ele>
        <time>2021-06-01T09:26:49.000Z</time>
      </trkpt>
      <trkpt lat="44.12536" lon="5.87026">
        <ele>915</ele>
        <time>2021-06-01T09:26:50.000Z</time>
      </trkpt>
      <trkpt lat="44.12536" lon="5.87025">
        <ele>915</ele>
        <time>2021-06-01T09:26:51.000Z</time>
      </trkpt>
      <trkpt lat="44.12536" lon="5.87024">
        <ele>915</ele>
        <time>2021-06-01T09:26:52.000Z</time>
      </trkpt>
      <trkpt lat="44.12537" lon="5.87024">
        <ele>915</ele>
        <time>2021-06-01T09:26:53.000Z</time>
      </trkpt>
      <trkpt lat="44.12537" lon="5.87024">
        <ele>914</ele>
        <time>2021-06-01T09:26:54.000Z</time>
      </trkpt>
      <trkpt lat="44.12537" lon="5.87024">
        <ele>914</ele>
        <time>2021-06-01T09:26:55.000Z</time>
      </trkpt>
      <trkpt lat="44.12537" lon="5.87024">
        <ele>914</ele>
        <time>2021-06-01T09:26:56.000Z</time>
      </trkpt>
      <trkpt lat="44.12537" lon="5.87024">
        <ele>914</ele>
        <time>2021-06-01T09:26:57.000Z</time>
      </trkpt>
      <trkpt lat="44.12537" lon="5.87024">
        <ele>914</ele>
        <time>2021-06-01T09:26:58.000Z</time>
      </trkpt>
      <trkpt lat="44.12537" lon="5.87024">
        <ele>914</ele>
        <time>2021-06-01T09:26:59.000Z</time>
      </trkpt>
      <trkpt lat="44.12537" lon="5.87024">
        <ele>914</ele>
        <time>2021-06-01T09:27:00.000Z</time>
      </trkpt>
      <trkpt lat="44.12537" lon="5.87024">
        <ele>914</ele>
        <time>2021-06-01T09:27:01.000Z</time>
      </trkpt>
      <trkpt lat="44.12537" lon="5.87024">
        <ele>914</ele>
        <time>2021-06-01T09:27:02.000Z</time>
      </trkpt>
      <trkpt lat="44.12537" lon="5.87024">
        <ele>914</ele>
        <time>2021-06-01T09:27:03.000Z</time>
      </trkpt>
      <trkpt lat="44.12537" lon="5.87024">
        <ele>914</ele>
        <time>2021-06-01T09:27:04.000Z</time>
      </trkpt>
      <trkpt lat="44.12537" lon="5.87024">
        <ele>914</ele>
        <time>2021-06-01T09:27:05.000Z</time>
      </trkpt>
      <trkpt lat="44.12537" lon="5.87024">
        <ele>914</ele>
        <time>2021-06-01T09:27:06.000Z</time>
      </trkpt>
      <trkpt lat="44.12537" lon="5.87024">
        <ele>914</ele>
        <time>2021-06-01T09:27:07.000Z</time>
      </trkpt>
      <trkpt lat="44.12537" lon="5.87024">
        <ele>914</ele>
        <time>2021-06-01T09:27:08.000Z</time>
      </trkpt>
      <trkpt lat="44.12538" lon="5.87024">
        <ele>914</ele>
        <time>2021-06-01T09:27:09.000Z</time>
      </trkpt>
      <trkpt lat="44.12538" lon="5.87024">
        <ele>914</ele>
        <time>2021-06-01T09:27:10.000Z</time>
      </trkpt>
      <trkpt lat="44.12538" lon="5.87024">
        <ele>914</ele>
        <time>2021-06-01T09:27:11.000Z</time>
      </trkpt>
      <trkpt lat="44.12538" lon="5.87024">
        <ele>914</ele>
        <time>2021-06-01T09:27:12.000Z</time>
      </trkpt>
      <trkpt lat="44.12538" lon="5.87024">
        <ele>914</ele>
        <time>2021-06-01T09:27:13.000Z</time>
      </trkpt>
      <trkpt lat="44.12538" lon="5.87024">
        <ele>914</ele>
        <time>2021-06-01T09:27:14.000Z</time>
      </trkpt>
      <trkpt lat="44.12538" lon="5.87024">
        <ele>914</ele>
        <time>2021-06-01T09:27:15.000Z</time>
      </trkpt>
      <trkpt lat="44.12538" lon="5.87024">
        <ele>914</ele>
        <time>2021-06-01T09:27:16.000Z</time>
      </trkpt>
      <trkpt lat="44.12538" lon="5.87023">
        <ele>914</ele>
        <time>2021-06-01T09:27:17.000Z</time>
      </trkpt>
      <trkpt lat="44.12538" lon="5.87023">
        <ele>914</ele>
        <time>2021-06-01T09:27:18.000Z</time>
      </trkpt>
      <trkpt lat="44.12538" lon="5.87023">
        <ele>914</ele>
        <time>2021-06-01T09:27:19.000Z</time>
      </trkpt>
      <trkpt lat="44.12538" lon="5.87023">
        <ele>914</ele>
        <time>2021-06-01T09:27:20.000Z</time>
      </trkpt>
      <trkpt lat="44.12538" lon="5.87023">
        <ele>914</ele>
        <time>2021-06-01T09:27:21.000Z</time>
      </trkpt>
      <trkpt lat="44.12538" lon="5.87024">
        <ele>914</ele>
        <time>2021-06-01T09:27:22.000Z</time>
      </trkpt>
      <trkpt lat="44.12538" lon="5.87024">
        <ele>914</ele>
        <time>2021-06-01T09:27:23.000Z</time>
      </trkpt>
      <trkpt lat="44.12538" lon="5.87024">
        <ele>914</ele>
        <time>2021-06-01T09:27:24.000Z</time>
      </trkpt>
      <trkpt lat="44.12538" lon="5.87024">
        <ele>914</ele>
        <time>2021-06-01T09:27:25.000Z</time>
      </trkpt>
      <trkpt lat="44.12538" lon="5.87024">
        <ele>914</ele>
        <time>2021-06-01T09:27:26.000Z</time>
      </trkpt>
      <trkpt lat="44.12538" lon="5.87024">
        <ele>914</ele>
        <time>2021-06-01T09:27:27.000Z</time>
      </trkpt>
      <trkpt lat="44.12538" lon="5.87024">
        <ele>914</ele>
        <time>2021-06-01T09:27:28.000Z</time>
      </trkpt>
      <trkpt lat="44.12538" lon="5.87024">
        <ele>914</ele>
        <time>2021-06-01T09:27:29.000Z</time>
      </trkpt>
      <trkpt lat="44.12538" lon="5.87024">
        <ele>914</ele>
        <time>2021-06-01T09:27:30.000Z</time>
      </trkpt>
      <trkpt lat="44.12538" lon="5.87024">
        <ele>914</ele>
        <time>2021-06-01T09:27:31.000Z</time>
      </trkpt>
      <trkpt lat="44.12538" lon="5.87024">
        <ele>914</ele>
        <time>2021-06-01T09:27:32.000Z</time>
      </trkpt>
      <trkpt lat="44.12538" lon="5.87024">
        <ele>914</ele>
        <time>2021-06-01T09:27:33.000Z</time>
      </trkpt>
      <trkpt lat="44.12538" lon="5.87024">
        <ele>914</ele>
        <time>2021-06-01T09:27:34.000Z</time>
      </trkpt>
      <trkpt lat="44.12538" lon="5.87024">
        <ele>914</ele>
        <time>2021-06-01T09:27:35.000Z</time>
      </trkpt>
      <trkpt lat="44.12538" lon="5.87024">
        <ele>914</ele>
        <time>2021-06-01T09:27:36.000Z</time>
      </trkpt>
      <trkpt lat="44.12538" lon="5.87024">
        <ele>914</ele>
        <time>2021-06-01T09:27:37.000Z</time>
      </trkpt>
      <trkpt lat="44.12538" lon="5.87024">
        <ele>914</ele>
        <time>2021-06-01T09:27:38.000Z</time>
      </trkpt>
      <trkpt lat="44.12538" lon="5.87024">
        <ele>914</ele>
        <time>2021-06-01T09:27:39.000Z</time>
      </trkpt>
      <trkpt lat="44.12538" lon="5.87024">
        <ele>914</ele>
        <time>2021-06-01T09:27:40.000Z</time>
      </trkpt>
      <trkpt lat="44.12538" lon="5.87024">
        <ele>914</ele>
        <time>2021-06-01T09:27:41.000Z</time>
      </trkpt>
      <trkpt lat="44.12538" lon="5.87024">
        <ele>914</ele>
        <time>2021-06-01T09:27:42.000Z</time>
      </trkpt>
      <trkpt lat="44.12538" lon="5.87024">
        <ele>914</ele>
        <time>2021-06-01T09:27:43.000Z</time>
      </trkpt>
      <trkpt lat="44.12538" lon="5.87024">
        <ele>914</ele>
        <time>2021-06-01T09:27:44.000Z</time>
      </trkpt>
      <trkpt lat="44.12538" lon="5.87024">
        <ele>914</ele>
        <time>2021-06-01T09:27:45.000Z</time>
      </trkpt>
      <trkpt lat="44.12538" lon="5.87024">
        <ele>914</ele>
        <time>2021-06-01T09:27:46.000Z</time>
      </trkpt>
      <trkpt lat="44.12538" lon="5.87024">
        <ele>914</ele>
        <time>2021-06-01T09:27:47.000Z</time>
      </trkpt>
      <trkpt lat="44.12538" lon="5.87024">
        <ele>914</ele>
        <time>2021-06-01T09:27:48.000Z</time>
      </trkpt>
      <trkpt lat="44.12538" lon="5.87024">
        <ele>914</ele>
        <time>2021-06-01T09:27:49.000Z</time>
      </trkpt>
      <trkpt lat="44.12538" lon="5.87024">
        <ele>914</ele>
        <time>2021-06-01T09:27:50.000Z</time>
      </trkpt>
      <trkpt lat="44.12538" lon="5.87024">
        <ele>914</ele>
        <time>2021-06-01T09:27:51.000Z</time>
      </trkpt>
      <trkpt lat="44.12538" lon="5.87024">
        <ele>914</ele>
        <time>2021-06-01T09:27:52.000Z</time>
      </trkpt>
      <trkpt lat="44.12538" lon="5.87024">
        <ele>914</ele>
        <time>2021-06-01T09:27:53.000Z</time>
      </trkpt>
      <trkpt lat="44.12538" lon="5.87024">
        <ele>914</ele>
        <time>2021-06-01T09:27:54.000Z</time>
      </trkpt>
      <trkpt lat="44.12538" lon="5.87024">
        <ele>914</ele>
        <time>2021-06-01T09:27:55.000Z</time>
      </trkpt>
      <trkpt lat="44.12538" lon="5.87024">
        <ele>914</ele>
        <time>2021-06-01T09:27:56.000Z</time>
      </trkpt>
      <trkpt lat="44.12538" lon="5.87024">
        <ele>914</ele>
        <time>2021-06-01T09:27:57.000Z</time>
      </trkpt>
      <trkpt lat="44.12538" lon="5.87024">
        <ele>914</ele>
        <time>2021-06-01T09:27:58.000Z</time>
      </trkpt>
      <trkpt lat="44.12538" lon="5.87024">
        <ele>914</ele>
        <time>2021-06-01T09:27:59.000Z</time>
      </trkpt>
      <trkpt lat="44.12538" lon="5.87024">
        <ele>913</ele>
        <time>2021-06-01T09:28:00.000Z</time>
      </trkpt>
      <trkpt lat="44.12538" lon="5.87024">
        <ele>913</ele>
        <time>2021-06-01T09:28:01.000Z</time>
      </trkpt>
      <trkpt lat="44.12539" lon="5.87025">
        <ele>913</ele>
        <time>2021-06-01T09:28:02.000Z</time>
      </trkpt>
      <trkpt lat="44.12539" lon="5.87025">
        <ele>913</ele>
        <time>2021-06-01T09:28:03.000Z</time>
      </trkpt>
      <trkpt lat="44.12539" lon="5.87025">
        <ele>913</ele>
        <time>2021-06-01T09:28:04.000Z</time>
      </trkpt>
      <trkpt lat="44.12539" lon="5.87024">
        <ele>914</ele>
        <time>2021-06-01T09:28:05.000Z</time>
      </trkpt>
      <trkpt lat="44.12539" lon="5.87024">
        <ele>914</ele>
        <time>2021-06-01T09:28:06.000Z</time>
      </trkpt>
      <trkpt lat="44.12538" lon="5.87024">
        <ele>914</ele>
        <time>2021-06-01T09:28:07.000Z</time>
      </trkpt>
      <trkpt lat="44.12538" lon="5.87024">
        <ele>914</ele>
        <time>2021-06-01T09:28:08.000Z</time>
      </trkpt>
      <trkpt lat="44.12539" lon="5.87025">
        <ele>914</ele>
        <time>2021-06-01T09:28:09.000Z</time>
      </trkpt>
      <trkpt lat="44.12539" lon="5.87025">
        <ele>914</ele>
        <time>2021-06-01T09:28:10.000Z</time>
      </trkpt>
      <trkpt lat="44.12539" lon="5.87025">
        <ele>914</ele>
        <time>2021-06-01T09:28:11.000Z</time>
      </trkpt>
      <trkpt lat="44.12539" lon="5.87024">
        <ele>914</ele>
        <time>2021-06-01T09:28:12.000Z</time>
      </trkpt>
      <trkpt lat="44.12539" lon="5.87024">
        <ele>914</ele>
        <time>2021-06-01T09:28:13.000Z</time>
      </trkpt>
      <trkpt lat="44.12539" lon="5.87024">
        <ele>914</ele>
        <time>2021-06-01T09:28:14.000Z</time>
      </trkpt>
      <trkpt lat="44.12539" lon="5.87024">
        <ele>914</ele>
        <time>2021-06-01T09:28:15.000Z</time>
      </trkpt>
      <trkpt lat="44.12539" lon="5.87024">
        <ele>914</ele>
        <time>2021-06-01T09:28:16.000Z</time>
      </trkpt>
      <trkpt lat="44.12539" lon="5.87024">
        <ele>914</ele>
        <time>2021-06-01T09:28:17.000Z</time>
      </trkpt>
      <trkpt lat="44.12539" lon="5.87024">
        <ele>913</ele>
        <time>2021-06-01T09:28:18.000Z</time>
      </trkpt>
      <trkpt lat="44.12539" lon="5.87024">
        <ele>913</ele>
        <time>2021-06-01T09:28:19.000Z</time>
      </trkpt>
      <trkpt lat="44.12539" lon="5.87024">
        <ele>913</ele>
        <time>2021-06-01T09:28:20.000Z</time>
      </trkpt>
      <trkpt lat="44.12539" lon="5.87024">
        <ele>913</ele>
        <time>2021-06-01T09:28:21.000Z</time>
      </trkpt>
      <trkpt lat="44.12539" lon="5.87024">
        <ele>913</ele>
        <time>2021-06-01T09:28:22.000Z</time>
      </trkpt>
      <trkpt lat="44.12539" lon="5.87024">
        <ele>913</ele>
        <time>2021-06-01T09:28:23.000Z</time>
      </trkpt>
      <trkpt lat="44.12539" lon="5.87024">
        <ele>913</ele>
        <time>2021-06-01T09:28:24.000Z</time>
      </trkpt>
      <trkpt lat="44.12539" lon="5.87024">
        <ele>913</ele>
        <time>2021-06-01T09:28:25.000Z</time>
      </trkpt>
      <trkpt lat="44.12539" lon="5.87024">
        <ele>913</ele>
        <time>2021-06-01T09:28:26.000Z</time>
      </trkpt>
      <trkpt lat="44.12539" lon="5.87024">
        <ele>913</ele>
        <time>2021-06-01T09:28:27.000Z</time>
      </trkpt>
      <trkpt lat="44.12539" lon="5.87024">
        <ele>913</ele>
        <time>2021-06-01T09:28:28.000Z</time>
      </trkpt>
      <trkpt lat="44.12539" lon="5.87023">
        <ele>913</ele>
        <time>2021-06-01T09:28:29.000Z</time>
      </trkpt>
      <trkpt lat="44.12539" lon="5.87023">
        <ele>913</ele>
        <time>2021-06-01T09:28:30.000Z</time>
      </trkpt>
      <trkpt lat="44.12539" lon="5.87024">
        <ele>913</ele>
        <time>2021-06-01T09:28:31.000Z</time>
      </trkpt>
      <trkpt lat="44.12539" lon="5.87023">
        <ele>913</ele>
        <time>2021-06-01T09:28:32.000Z</time>
      </trkpt>
      <trkpt lat="44.12539" lon="5.87023">
        <ele>913</ele>
        <time>2021-06-01T09:28:33.000Z</time>
      </trkpt>
      <trkpt lat="44.12539" lon="5.87024">
        <ele>913</ele>
        <time>2021-06-01T09:28:34.000Z</time>
      </trkpt>
      <trkpt lat="44.12539" lon="5.87024">
        <ele>913</ele>
        <time>2021-06-01T09:28:35.000Z</time>
      </trkpt>
      <trkpt lat="44.12539" lon="5.87023">
        <ele>913</ele>
        <time>2021-06-01T09:28:36.000Z</time>
      </trkpt>
      <trkpt lat="44.12539" lon="5.87024">
        <ele>913</ele>
        <time>2021-06-01T09:28:37.000Z</time>
      </trkpt>
      <trkpt lat="44.12539" lon="5.87024">
        <ele>913</ele>
        <time>2021-06-01T09:28:38.000Z</time>
      </trkpt>
      <trkpt lat="44.12539" lon="5.87024">
        <ele>913</ele>
        <time>2021-06-01T09:28:39.000Z</time>
      </trkpt>
      <trkpt lat="44.12539" lon="5.87025">
        <ele>913</ele>
        <time>2021-06-01T09:28:40.000Z</time>
      </trkpt>
      <trkpt lat="44.12539" lon="5.87026">
        <ele>913</ele>
        <time>2021-06-01T09:28:41.000Z</time>
      </trkpt>
      <trkpt lat="44.12539" lon="5.87027">
        <ele>913</ele>
        <time>2021-06-01T09:28:42.000Z</time>
      </trkpt>
      <trkpt lat="44.12539" lon="5.87028">
        <ele>913</ele>
        <time>2021-06-01T09:28:43.000Z</time>
      </trkpt>
      <trkpt lat="44.12539" lon="5.87029">
        <ele>913</ele>
        <time>2021-06-01T09:28:44.000Z</time>
      </trkpt>
      <trkpt lat="44.12539" lon="5.87029">
        <ele>913</ele>
        <time>2021-06-01T09:28:45.000Z</time>
      </trkpt>
      <trkpt lat="44.1254" lon="5.8703">
        <ele>913</ele>
        <time>2021-06-01T09:28:46.000Z</time>
      </trkpt>
      <trkpt lat="44.1254" lon="5.87031">
        <ele>913</ele>
        <time>2021-06-01T09:28:47.000Z</time>
      </trkpt>
      <trkpt lat="44.1254" lon="5.87031">
        <ele>913</ele>
        <time>2021-06-01T09:28:48.000Z</time>
      </trkpt>
      <trkpt lat="44.12541" lon="5.87031">
        <ele>913</ele>
        <time>2021-06-01T09:28:49.000Z</time>
      </trkpt>
      <trkpt lat="44.12541" lon="5.87031">
        <ele>913</ele>
        <time>2021-06-01T09:28:50.000Z</time>
      </trkpt>
      <trkpt lat="44.12542" lon="5.87031">
        <ele>913</ele>
        <time>2021-06-01T09:28:51.000Z</time>
      </trkpt>
      <trkpt lat="44.12542" lon="5.87031">
        <ele>913</ele>
        <time>2021-06-01T09:28:52.000Z</time>
      </trkpt>
      <trkpt lat="44.12543" lon="5.87031">
        <ele>912</ele>
        <time>2021-06-01T09:28:53.000Z</time>
      </trkpt>
      <trkpt lat="44.12543" lon="5.8703">
        <ele>912</ele>
        <time>2021-06-01T09:28:54.000Z</time>
      </trkpt>
      <trkpt lat="44.12544" lon="5.8703">
        <ele>912</ele>
        <time>2021-06-01T09:28:55.000Z</time>
      </trkpt>
      <trkpt lat="44.12544" lon="5.87029">
        <ele>912</ele>
        <time>2021-06-01T09:28:56.000Z</time>
      </trkpt>
      <trkpt lat="44.12544" lon="5.87028">
        <ele>912</ele>
        <time>2021-06-01T09:28:57.000Z</time>
      </trkpt>
      <trkpt lat="44.12545" lon="5.87028">
        <ele>912</ele>
        <time>2021-06-01T09:28:58.000Z</time>
      </trkpt>
      <trkpt lat="44.12545" lon="5.87027">
        <ele>912</ele>
        <time>2021-06-01T09:28:59.000Z</time>
      </trkpt>
      <trkpt lat="44.12545" lon="5.87026">
        <ele>912</ele>
        <time>2021-06-01T09:29:00.000Z</time>
      </trkpt>
      <trkpt lat="44.12545" lon="5.87025">
        <ele>912</ele>
        <time>2021-06-01T09:29:01.000Z</time>
      </trkpt>
      <trkpt lat="44.12545" lon="5.87025">
        <ele>912</ele>
        <time>2021-06-01T09:29:02.000Z</time>
      </trkpt>
      <trkpt lat="44.12545" lon="5.87024">
        <ele>912</ele>
        <time>2021-06-01T09:29:03.000Z</time>
      </trkpt>
      <trkpt lat="44.12546" lon="5.87023">
        <ele>912</ele>
        <time>2021-06-01T09:29:04.000Z</time>
      </trkpt>
      <trkpt lat="44.12546" lon="5.87022">
        <ele>912</ele>
        <time>2021-06-01T09:29:05.000Z</time>
      </trkpt>
      <trkpt lat="44.12546" lon="5.87021">
        <ele>912</ele>
        <time>2021-06-01T09:29:06.000Z</time>
      </trkpt>
      <trkpt lat="44.12546" lon="5.8702">
        <ele>912</ele>
        <time>2021-06-01T09:29:07.000Z</time>
      </trkpt>
      <trkpt lat="44.12547" lon="5.8702">
        <ele>912</ele>
        <time>2021-06-01T09:29:08.000Z</time>
      </trkpt>
      <trkpt lat="44.12547" lon="5.87019">
        <ele>911</ele>
        <time>2021-06-01T09:29:09.000Z</time>
      </trkpt>
      <trkpt lat="44.12547" lon="5.87018">
        <ele>911</ele>
        <time>2021-06-01T09:29:10.000Z</time>
      </trkpt>
      <trkpt lat="44.12547" lon="5.87017">
        <ele>911</ele>
        <time>2021-06-01T09:29:11.000Z</time>
      </trkpt>
      <trkpt lat="44.12547" lon="5.87016">
        <ele>911</ele>
        <time>2021-06-01T09:29:12.000Z</time>
      </trkpt>
      <trkpt lat="44.12547" lon="5.87016">
        <ele>911</ele>
        <time>2021-06-01T09:29:13.000Z</time>
      </trkpt>
      <trkpt lat="44.12548" lon="5.87015">
        <ele>911</ele>
        <time>2021-06-01T09:29:14.000Z</time>
      </trkpt>
      <trkpt lat="44.12548" lon="5.87014">
        <ele>911</ele>
        <time>2021-06-01T09:29:15.000Z</time>
      </trkpt>
      <trkpt lat="44.12548" lon="5.87013">
        <ele>911</ele>
        <time>2021-06-01T09:29:16.000Z</time>
      </trkpt>
      <trkpt lat="44.12549" lon="5.87012">
        <ele>910</ele>
        <time>2021-06-01T09:29:17.000Z</time>
      </trkpt>
      <trkpt lat="44.12549" lon="5.87011">
        <ele>910</ele>
        <time>2021-06-01T09:29:18.000Z</time>
      </trkpt>
      <trkpt lat="44.12549" lon="5.87011">
        <ele>910</ele>
        <time>2021-06-01T09:29:19.000Z</time>
      </trkpt>
      <trkpt lat="44.12549" lon="5.8701">
        <ele>910</ele>
        <time>2021-06-01T09:29:20.000Z</time>
      </trkpt>
      <trkpt lat="44.12549" lon="5.87009">
        <ele>910</ele>
        <time>2021-06-01T09:29:21.000Z</time>
      </trkpt>
      <trkpt lat="44.12548" lon="5.87007">
        <ele>910</ele>
        <time>2021-06-01T09:29:22.000Z</time>
      </trkpt>
      <trkpt lat="44.12548" lon="5.87006">
        <ele>910</ele>
        <time>2021-06-01T09:29:23.000Z</time>
      </trkpt>
      <trkpt lat="44.12548" lon="5.87005">
        <ele>910</ele>
        <time>2021-06-01T09:29:24.000Z</time>
      </trkpt>
      <trkpt lat="44.12548" lon="5.87004">
        <ele>910</ele>
        <time>2021-06-01T09:29:25.000Z</time>
      </trkpt>
      <trkpt lat="44.12547" lon="5.87003">
        <ele>910</ele>
        <time>2021-06-01T09:29:26.000Z</time>
      </trkpt>
      <trkpt lat="44.12547" lon="5.87002">
        <ele>910</ele>
        <time>2021-06-01T09:29:27.000Z</time>
      </trkpt>
      <trkpt lat="44.12547" lon="5.87001">
        <ele>910</ele>
        <time>2021-06-01T09:29:28.000Z</time>
      </trkpt>
      <trkpt lat="44.12547" lon="5.87">
        <ele>910</ele>
        <time>2021-06-01T09:29:29.000Z</time>
      </trkpt>
      <trkpt lat="44.12546" lon="5.86998">
        <ele>910</ele>
        <time>2021-06-01T09:29:30.000Z</time>
      </trkpt>
      <trkpt lat="44.12546" lon="5.86998">
        <ele>910</ele>
        <time>2021-06-01T09:29:31.000Z</time>
      </trkpt>
      <trkpt lat="44.12546" lon="5.86996">
        <ele>910</ele>
        <time>2021-06-01T09:29:32.000Z</time>
      </trkpt>
      <trkpt lat="44.12546" lon="5.86995">
        <ele>910</ele>
        <time>2021-06-01T09:29:33.000Z</time>
      </trkpt>
      <trkpt lat="44.12546" lon="5.86994">
        <ele>909</ele>
        <time>2021-06-01T09:29:34.000Z</time>
      </trkpt>
      <trkpt lat="44.12546" lon="5.86993">
        <ele>909</ele>
        <time>2021-06-01T09:29:35.000Z</time>
      </trkpt>
      <trkpt lat="44.12546" lon="5.86992">
        <ele>909</ele>
        <time>2021-06-01T09:29:36.000Z</time>
      </trkpt>
      <trkpt lat="44.12546" lon="5.86991">
        <ele>909</ele>
        <time>2021-06-01T09:29:37.000Z</time>
      </trkpt>
      <trkpt lat="44.12546" lon="5.8699">
        <ele>909</ele>
        <time>2021-06-01T09:29:38.000Z</time>
      </trkpt>
      <trkpt lat="44.12546" lon="5.86989">
        <ele>909</ele>
        <time>2021-06-01T09:29:39.000Z</time>
      </trkpt>
      <trkpt lat="44.12546" lon="5.86988">
        <ele>909</ele>
        <time>2021-06-01T09:29:40.000Z</time>
      </trkpt>
      <trkpt lat="44.12545" lon="5.86987">
        <ele>909</ele>
        <time>2021-06-01T09:29:41.000Z</time>
      </trkpt>
      <trkpt lat="44.12545" lon="5.86986">
        <ele>909</ele>
        <time>2021-06-01T09:29:42.000Z</time>
      </trkpt>
      <trkpt lat="44.12545" lon="5.86986">
        <ele>909</ele>
        <time>2021-06-01T09:29:43.000Z</time>
      </trkpt>
      <trkpt lat="44.12544" lon="5.86985">
        <ele>909</ele>
        <time>2021-06-01T09:29:44.000Z</time>
      </trkpt>
      <trkpt lat="44.12544" lon="5.86984">
        <ele>908</ele>
        <time>2021-06-01T09:29:45.000Z</time>
      </trkpt>
      <trkpt lat="44.12543" lon="5.86983">
        <ele>908</ele>
        <time>2021-06-01T09:29:46.000Z</time>
      </trkpt>
      <trkpt lat="44.12543" lon="5.86981">
        <ele>908</ele>
        <time>2021-06-01T09:29:47.000Z</time>
      </trkpt>
      <trkpt lat="44.12543" lon="5.8698">
        <ele>908</ele>
        <time>2021-06-01T09:29:48.000Z</time>
      </trkpt>
      <trkpt lat="44.12542" lon="5.86979">
        <ele>908</ele>
        <time>2021-06-01T09:29:49.000Z</time>
      </trkpt>
      <trkpt lat="44.12542" lon="5.86979">
        <ele>908</ele>
        <time>2021-06-01T09:29:50.000Z</time>
      </trkpt>
      <trkpt lat="44.12541" lon="5.86978">
        <ele>908</ele>
        <time>2021-06-01T09:29:51.000Z</time>
      </trkpt>
      <trkpt lat="44.12541" lon="5.86977">
        <ele>908</ele>
        <time>2021-06-01T09:29:52.000Z</time>
      </trkpt>
      <trkpt lat="44.12541" lon="5.86976">
        <ele>908</ele>
        <time>2021-06-01T09:29:53.000Z</time>
      </trkpt>
      <trkpt lat="44.1254" lon="5.86974">
        <ele>908</ele>
        <time>2021-06-01T09:29:54.000Z</time>
      </trkpt>
      <trkpt lat="44.1254" lon="5.86973">
        <ele>908</ele>
        <time>2021-06-01T09:29:55.000Z</time>
      </trkpt>
      <trkpt lat="44.12539" lon="5.86972">
        <ele>908</ele>
        <time>2021-06-01T09:29:56.000Z</time>
      </trkpt>
      <trkpt lat="44.12539" lon="5.86971">
        <ele>908</ele>
        <time>2021-06-01T09:29:57.000Z</time>
      </trkpt>
      <trkpt lat="44.12538" lon="5.8697">
        <ele>908</ele>
        <time>2021-06-01T09:29:58.000Z</time>
      </trkpt>
      <trkpt lat="44.12538" lon="5.86969">
        <ele>908</ele>
        <time>2021-06-01T09:29:59.000Z</time>
      </trkpt>
      <trkpt lat="44.12538" lon="5.86968">
        <ele>908</ele>
        <time>2021-06-01T09:30:00.000Z</time>
      </trkpt>
      <trkpt lat="44.12538" lon="5.86967">
        <ele>908</ele>
        <time>2021-06-01T09:30:01.000Z</time>
      </trkpt>
      <trkpt lat="44.12537" lon="5.86966">
        <ele>908</ele>
        <time>2021-06-01T09:30:02.000Z</time>
      </trkpt>
      <trkpt lat="44.12537" lon="5.86965">
        <ele>908</ele>
        <time>2021-06-01T09:30:03.000Z</time>
      </trkpt>
      <trkpt lat="44.12537" lon="5.86964">
        <ele>908</ele>
        <time>2021-06-01T09:30:04.000Z</time>
      </trkpt>
      <trkpt lat="44.12537" lon="5.86962">
        <ele>908</ele>
        <time>2021-06-01T09:30:05.000Z</time>
      </trkpt>
      <trkpt lat="44.12537" lon="5.86961">
        <ele>908</ele>
        <time>2021-06-01T09:30:06.000Z</time>
      </trkpt>
      <trkpt lat="44.12537" lon="5.8696">
        <ele>908</ele>
        <time>2021-06-01T09:30:07.000Z</time>
      </trkpt>
      <trkpt lat="44.12537" lon="5.86959">
        <ele>907</ele>
        <time>2021-06-01T09:30:08.000Z</time>
      </trkpt>
      <trkpt lat="44.12536" lon="5.86958">
        <ele>907</ele>
        <time>2021-06-01T09:30:09.000Z</time>
      </trkpt>
      <trkpt lat="44.12536" lon="5.86957">
        <ele>907</ele>
        <time>2021-06-01T09:30:10.000Z</time>
      </trkpt>
      <trkpt lat="44.12536" lon="5.86956">
        <ele>907</ele>
        <time>2021-06-01T09:30:11.000Z</time>
      </trkpt>
      <trkpt lat="44.12535" lon="5.86955">
        <ele>907</ele>
        <time>2021-06-01T09:30:12.000Z</time>
      </trkpt>
      <trkpt lat="44.12535" lon="5.86954">
        <ele>907</ele>
        <time>2021-06-01T09:30:13.000Z</time>
      </trkpt>
      <trkpt lat="44.12535" lon="5.86953">
        <ele>907</ele>
        <time>2021-06-01T09:30:14.000Z</time>
      </trkpt>
      <trkpt lat="44.12534" lon="5.86951">
        <ele>907</ele>
        <time>2021-06-01T09:30:15.000Z</time>
      </trkpt>
      <trkpt lat="44.12534" lon="5.8695">
        <ele>907</ele>
        <time>2021-06-01T09:30:16.000Z</time>
      </trkpt>
      <trkpt lat="44.12533" lon="5.86949">
        <ele>907</ele>
        <time>2021-06-01T09:30:17.000Z</time>
      </trkpt>
      <trkpt lat="44.12533" lon="5.86948">
        <ele>907</ele>
        <time>2021-06-01T09:30:18.000Z</time>
      </trkpt>
      <trkpt lat="44.12533" lon="5.86946">
        <ele>907</ele>
        <time>2021-06-01T09:30:19.000Z</time>
      </trkpt>
      <trkpt lat="44.12532" lon="5.86945">
        <ele>907</ele>
        <time>2021-06-01T09:30:20.000Z</time>
      </trkpt>
      <trkpt lat="44.12532" lon="5.86944">
        <ele>907</ele>
        <time>2021-06-01T09:30:21.000Z</time>
      </trkpt>
      <trkpt lat="44.12531" lon="5.86943">
        <ele>907</ele>
        <time>2021-06-01T09:30:22.000Z</time>
      </trkpt>
      <trkpt lat="44.12531" lon="5.86941">
        <ele>906</ele>
        <time>2021-06-01T09:30:23.000Z</time>
      </trkpt>
      <trkpt lat="44.12531" lon="5.8694">
        <ele>906</ele>
        <time>2021-06-01T09:30:24.000Z</time>
      </trkpt>
      <trkpt lat="44.1253" lon="5.86939">
        <ele>906</ele>
        <time>2021-06-01T09:30:25.000Z</time>
      </trkpt>
      <trkpt lat="44.12531" lon="5.86937">
        <ele>906</ele>
        <time>2021-06-01T09:30:26.000Z</time>
      </trkpt>
      <trkpt lat="44.1253" lon="5.86936">
        <ele>906</ele>
        <time>2021-06-01T09:30:27.000Z</time>
      </trkpt>
      <trkpt lat="44.1253" lon="5.86934">
        <ele>906</ele>
        <time>2021-06-01T09:30:28.000Z</time>
      </trkpt>
      <trkpt lat="44.1253" lon="5.86933">
        <ele>906</ele>
        <time>2021-06-01T09:30:29.000Z</time>
      </trkpt>
      <trkpt lat="44.1253" lon="5.86932">
        <ele>906</ele>
        <time>2021-06-01T09:30:30.000Z</time>
      </trkpt>
      <trkpt lat="44.12531" lon="5.8693">
        <ele>906</ele>
        <time>2021-06-01T09:30:31.000Z</time>
      </trkpt>
      <trkpt lat="44.1253" lon="5.86929">
        <ele>906</ele>
        <time>2021-06-01T09:30:32.000Z</time>
      </trkpt>
      <trkpt lat="44.1253" lon="5.86928">
        <ele>906</ele>
        <time>2021-06-01T09:30:33.000Z</time>
      </trkpt>
      <trkpt lat="44.1253" lon="5.86926">
        <ele>906</ele>
        <time>2021-06-01T09:30:34.000Z</time>
      </trkpt>
      <trkpt lat="44.1253" lon="5.86925">
        <ele>906</ele>
        <time>2021-06-01T09:30:35.000Z</time>
      </trkpt>
      <trkpt lat="44.1253" lon="5.86923">
        <ele>906</ele>
        <time>2021-06-01T09:30:36.000Z</time>
      </trkpt>
      <trkpt lat="44.1253" lon="5.86922">
        <ele>905</ele>
        <time>2021-06-01T09:30:37.000Z</time>
      </trkpt>
      <trkpt lat="44.1253" lon="5.8692">
        <ele>905</ele>
        <time>2021-06-01T09:30:38.000Z</time>
      </trkpt>
      <trkpt lat="44.1253" lon="5.86919">
        <ele>905</ele>
        <time>2021-06-01T09:30:39.000Z</time>
      </trkpt>
      <trkpt lat="44.1253" lon="5.86918">
        <ele>905</ele>
        <time>2021-06-01T09:30:40.000Z</time>
      </trkpt>
      <trkpt lat="44.1253" lon="5.86916">
        <ele>905</ele>
        <time>2021-06-01T09:30:41.000Z</time>
      </trkpt>
      <trkpt lat="44.1253" lon="5.86915">
        <ele>905</ele>
        <time>2021-06-01T09:30:42.000Z</time>
      </trkpt>
      <trkpt lat="44.12529" lon="5.86913">
        <ele>905</ele>
        <time>2021-06-01T09:30:43.000Z</time>
      </trkpt>
      <trkpt lat="44.1253" lon="5.86912">
        <ele>905</ele>
        <time>2021-06-01T09:30:44.000Z</time>
      </trkpt>
      <trkpt lat="44.1253" lon="5.8691">
        <ele>904</ele>
        <time>2021-06-01T09:30:45.000Z</time>
      </trkpt>
      <trkpt lat="44.1253" lon="5.86909">
        <ele>904</ele>
        <time>2021-06-01T09:30:46.000Z</time>
      </trkpt>
      <trkpt lat="44.1253" lon="5.86908">
        <ele>904</ele>
        <time>2021-06-01T09:30:47.000Z</time>
      </trkpt>
      <trkpt lat="44.12531" lon="5.86907">
        <ele>904</ele>
        <time>2021-06-01T09:30:48.000Z</time>
      </trkpt>
      <trkpt lat="44.12531" lon="5.86906">
        <ele>904</ele>
        <time>2021-06-01T09:30:49.000Z</time>
      </trkpt>
      <trkpt lat="44.12532" lon="5.86905">
        <ele>903</ele>
        <time>2021-06-01T09:30:50.000Z</time>
      </trkpt>
      <trkpt lat="44.12532" lon="5.86903">
        <ele>903</ele>
        <time>2021-06-01T09:30:51.000Z</time>
      </trkpt>
      <trkpt lat="44.12532" lon="5.86902">
        <ele>903</ele>
        <time>2021-06-01T09:30:52.000Z</time>
      </trkpt>
      <trkpt lat="44.12532" lon="5.86901">
        <ele>903</ele>
        <time>2021-06-01T09:30:53.000Z</time>
      </trkpt>
      <trkpt lat="44.12532" lon="5.86899">
        <ele>903</ele>
        <time>2021-06-01T09:30:54.000Z</time>
      </trkpt>
      <trkpt lat="44.12533" lon="5.86898">
        <ele>903</ele>
        <time>2021-06-01T09:30:55.000Z</time>
      </trkpt>
      <trkpt lat="44.12533" lon="5.86897">
        <ele>903</ele>
        <time>2021-06-01T09:30:56.000Z</time>
      </trkpt>
      <trkpt lat="44.12533" lon="5.86896">
        <ele>902</ele>
        <time>2021-06-01T09:30:57.000Z</time>
      </trkpt>
      <trkpt lat="44.12533" lon="5.86894">
        <ele>902</ele>
        <time>2021-06-01T09:30:58.000Z</time>
      </trkpt>
      <trkpt lat="44.12533" lon="5.86893">
        <ele>902</ele>
        <time>2021-06-01T09:30:59.000Z</time>
      </trkpt>
      <trkpt lat="44.12533" lon="5.86892">
        <ele>902</ele>
        <time>2021-06-01T09:31:00.000Z</time>
      </trkpt>
      <trkpt lat="44.12533" lon="5.86891">
        <ele>902</ele>
        <time>2021-06-01T09:31:01.000Z</time>
      </trkpt>
      <trkpt lat="44.12533" lon="5.86889">
        <ele>902</ele>
        <time>2021-06-01T09:31:02.000Z</time>
      </trkpt>
      <trkpt lat="44.12533" lon="5.86888">
        <ele>902</ele>
        <time>2021-06-01T09:31:03.000Z</time>
      </trkpt>
      <trkpt lat="44.12534" lon="5.86887">
        <ele>902</ele>
        <time>2021-06-01T09:31:04.000Z</time>
      </trkpt>
      <trkpt lat="44.12534" lon="5.86886">
        <ele>902</ele>
        <time>2021-06-01T09:31:05.000Z</time>
      </trkpt>
      <trkpt lat="44.12535" lon="5.86885">
        <ele>902</ele>
        <time>2021-06-01T09:31:06.000Z</time>
      </trkpt>
      <trkpt lat="44.12535" lon="5.86884">
        <ele>902</ele>
        <time>2021-06-01T09:31:07.000Z</time>
      </trkpt>
      <trkpt lat="44.12535" lon="5.86883">
        <ele>902</ele>
        <time>2021-06-01T09:31:08.000Z</time>
      </trkpt>
      <trkpt lat="44.12536" lon="5.86882">
        <ele>901</ele>
        <time>2021-06-01T09:31:09.000Z</time>
      </trkpt>
      <trkpt lat="44.12536" lon="5.8688">
        <ele>901</ele>
        <time>2021-06-01T09:31:10.000Z</time>
      </trkpt>
      <trkpt lat="44.12536" lon="5.86879">
        <ele>901</ele>
        <time>2021-06-01T09:31:11.000Z</time>
      </trkpt>
      <trkpt lat="44.12537" lon="5.86878">
        <ele>901</ele>
        <time>2021-06-01T09:31:12.000Z</time>
      </trkpt>
      <trkpt lat="44.12537" lon="5.86878">
        <ele>901</ele>
        <time>2021-06-01T09:31:13.000Z</time>
      </trkpt>
      <trkpt lat="44.12538" lon="5.86876">
        <ele>900</ele>
        <time>2021-06-01T09:31:14.000Z</time>
      </trkpt>
      <trkpt lat="44.12539" lon="5.86876">
        <ele>900</ele>
        <time>2021-06-01T09:31:15.000Z</time>
      </trkpt>
      <trkpt lat="44.12539" lon="5.86875">
        <ele>900</ele>
        <time>2021-06-01T09:31:16.000Z</time>
      </trkpt>
      <trkpt lat="44.1254" lon="5.86873">
        <ele>900</ele>
        <time>2021-06-01T09:31:17.000Z</time>
      </trkpt>
      <trkpt lat="44.1254" lon="5.86872">
        <ele>900</ele>
        <time>2021-06-01T09:31:18.000Z</time>
      </trkpt>
      <trkpt lat="44.12541" lon="5.86871">
        <ele>900</ele>
        <time>2021-06-01T09:31:19.000Z</time>
      </trkpt>
      <trkpt lat="44.12541" lon="5.8687">
        <ele>899</ele>
        <time>2021-06-01T09:31:20.000Z</time>
      </trkpt>
      <trkpt lat="44.12542" lon="5.86869">
        <ele>899</ele>
        <time>2021-06-01T09:31:21.000Z</time>
      </trkpt>
      <trkpt lat="44.12543" lon="5.86868">
        <ele>899</ele>
        <time>2021-06-01T09:31:22.000Z</time>
      </trkpt>
      <trkpt lat="44.12543" lon="5.86867">
        <ele>899</ele>
        <time>2021-06-01T09:31:23.000Z</time>
      </trkpt>
      <trkpt lat="44.12543" lon="5.86866">
        <ele>899</ele>
        <time>2021-06-01T09:31:24.000Z</time>
      </trkpt>
      <trkpt lat="44.12544" lon="5.86865">
        <ele>898</ele>
        <time>2021-06-01T09:31:25.000Z</time>
      </trkpt>
      <trkpt lat="44.12544" lon="5.86864">
        <ele>898</ele>
        <time>2021-06-01T09:31:26.000Z</time>
      </trkpt>
      <trkpt lat="44.12545" lon="5.86862">
        <ele>898</ele>
        <time>2021-06-01T09:31:27.000Z</time>
      </trkpt>
      <trkpt lat="44.12545" lon="5.86861">
        <ele>898</ele>
        <time>2021-06-01T09:31:28.000Z</time>
      </trkpt>
      <trkpt lat="44.12546" lon="5.8686">
        <ele>898</ele>
        <time>2021-06-01T09:31:29.000Z</time>
      </trkpt>
      <trkpt lat="44.12546" lon="5.86858">
        <ele>897</ele>
        <time>2021-06-01T09:31:30.000Z</time>
      </trkpt>
      <trkpt lat="44.12546" lon="5.86857">
        <ele>897</ele>
        <time>2021-06-01T09:31:31.000Z</time>
      </trkpt>
      <trkpt lat="44.12547" lon="5.86856">
        <ele>897</ele>
        <time>2021-06-01T09:31:32.000Z</time>
      </trkpt>
      <trkpt lat="44.12547" lon="5.86855">
        <ele>897</ele>
        <time>2021-06-01T09:31:33.000Z</time>
      </trkpt>
      <trkpt lat="44.12548" lon="5.86854">
        <ele>897</ele>
        <time>2021-06-01T09:31:34.000Z</time>
      </trkpt>
      <trkpt lat="44.12548" lon="5.86852">
        <ele>896</ele>
        <time>2021-06-01T09:31:35.000Z</time>
      </trkpt>
      <trkpt lat="44.12549" lon="5.86851">
        <ele>896</ele>
        <time>2021-06-01T09:31:36.000Z</time>
      </trkpt>
      <trkpt lat="44.12549" lon="5.8685">
        <ele>896</ele>
        <time>2021-06-01T09:31:37.000Z</time>
      </trkpt>
      <trkpt lat="44.1255" lon="5.86849">
        <ele>896</ele>
        <time>2021-06-01T09:31:38.000Z</time>
      </trkpt>
      <trkpt lat="44.1255" lon="5.86848">
        <ele>895</ele>
        <time>2021-06-01T09:31:39.000Z</time>
      </trkpt>
      <trkpt lat="44.1255" lon="5.86847">
        <ele>895</ele>
        <time>2021-06-01T09:31:40.000Z</time>
      </trkpt>
      <trkpt lat="44.12551" lon="5.86846">
        <ele>895</ele>
        <time>2021-06-01T09:31:41.000Z</time>
      </trkpt>
      <trkpt lat="44.12551" lon="5.86845">
        <ele>895</ele>
        <time>2021-06-01T09:31:42.000Z</time>
      </trkpt>
      <trkpt lat="44.12552" lon="5.86844">
        <ele>895</ele>
        <time>2021-06-01T09:31:43.000Z</time>
      </trkpt>
      <trkpt lat="44.12552" lon="5.86843">
        <ele>895</ele>
        <time>2021-06-01T09:31:44.000Z</time>
      </trkpt>
      <trkpt lat="44.12552" lon="5.86841">
        <ele>894</ele>
        <time>2021-06-01T09:31:45.000Z</time>
      </trkpt>
      <trkpt lat="44.12553" lon="5.8684">
        <ele>894</ele>
        <time>2021-06-01T09:31:46.000Z</time>
      </trkpt>
      <trkpt lat="44.12553" lon="5.86839">
        <ele>894</ele>
        <time>2021-06-01T09:31:47.000Z</time>
      </trkpt>
      <trkpt lat="44.12554" lon="5.86838">
        <ele>894</ele>
        <time>2021-06-01T09:31:48.000Z</time>
      </trkpt>
      <trkpt lat="44.12554" lon="5.86837">
        <ele>894</ele>
        <time>2021-06-01T09:31:49.000Z</time>
      </trkpt>
      <trkpt lat="44.12555" lon="5.86836">
        <ele>894</ele>
        <time>2021-06-01T09:31:50.000Z</time>
      </trkpt>
      <trkpt lat="44.12555" lon="5.86835">
        <ele>894</ele>
        <time>2021-06-01T09:31:51.000Z</time>
      </trkpt>
      <trkpt lat="44.12556" lon="5.86834">
        <ele>894</ele>
        <time>2021-06-01T09:31:52.000Z</time>
      </trkpt>
      <trkpt lat="44.12556" lon="5.86833">
        <ele>894</ele>
        <time>2021-06-01T09:31:53.000Z</time>
      </trkpt>
      <trkpt lat="44.12557" lon="5.86832">
        <ele>894</ele>
        <time>2021-06-01T09:31:54.000Z</time>
      </trkpt>
      <trkpt lat="44.12557" lon="5.86831">
        <ele>894</ele>
        <time>2021-06-01T09:31:55.000Z</time>
      </trkpt>
      <trkpt lat="44.12558" lon="5.8683">
        <ele>894</ele>
        <time>2021-06-01T09:31:56.000Z</time>
      </trkpt>
      <trkpt lat="44.12558" lon="5.8683">
        <ele>894</ele>
        <time>2021-06-01T09:31:57.000Z</time>
      </trkpt>
      <trkpt lat="44.12558" lon="5.86829">
        <ele>894</ele>
        <time>2021-06-01T09:31:58.000Z</time>
      </trkpt>
      <trkpt lat="44.12558" lon="5.86828">
        <ele>894</ele>
        <time>2021-06-01T09:31:59.000Z</time>
      </trkpt>
      <trkpt lat="44.12559" lon="5.86828">
        <ele>894</ele>
        <time>2021-06-01T09:32:00.000Z</time>
      </trkpt>
      <trkpt lat="44.1256" lon="5.86827">
        <ele>894</ele>
        <time>2021-06-01T09:32:01.000Z</time>
      </trkpt>
      <trkpt lat="44.1256" lon="5.86826">
        <ele>894</ele>
        <time>2021-06-01T09:32:02.000Z</time>
      </trkpt>
      <trkpt lat="44.12561" lon="5.86826">
        <ele>894</ele>
        <time>2021-06-01T09:32:03.000Z</time>
      </trkpt>
      <trkpt lat="44.12562" lon="5.86826">
        <ele>894</ele>
        <time>2021-06-01T09:32:04.000Z</time>
      </trkpt>
      <trkpt lat="44.12563" lon="5.86825">
        <ele>894</ele>
        <time>2021-06-01T09:32:05.000Z</time>
      </trkpt>
      <trkpt lat="44.12563" lon="5.86825">
        <ele>894</ele>
        <time>2021-06-01T09:32:06.000Z</time>
      </trkpt>
      <trkpt lat="44.12564" lon="5.86825">
        <ele>894</ele>
        <time>2021-06-01T09:32:07.000Z</time>
      </trkpt>
      <trkpt lat="44.12564" lon="5.86825">
        <ele>894</ele>
        <time>2021-06-01T09:32:08.000Z</time>
      </trkpt>
      <trkpt lat="44.12564" lon="5.86825">
        <ele>894</ele>
        <time>2021-06-01T09:32:09.000Z</time>
      </trkpt>
      <trkpt lat="44.12564" lon="5.86824">
        <ele>894</ele>
        <time>2021-06-01T09:32:10.000Z</time>
      </trkpt>
      <trkpt lat="44.12564" lon="5.86824">
        <ele>894</ele>
        <time>2021-06-01T09:32:11.000Z</time>
      </trkpt>
      <trkpt lat="44.12564" lon="5.86824">
        <ele>894</ele>
        <time>2021-06-01T09:32:12.000Z</time>
      </trkpt>
      <trkpt lat="44.12564" lon="5.86824">
        <ele>894</ele>
        <time>2021-06-01T09:32:13.000Z</time>
      </trkpt>
      <trkpt lat="44.12564" lon="5.86824">
        <ele>894</ele>
        <time>2021-06-01T09:32:14.000Z</time>
      </trkpt>
      <trkpt lat="44.12564" lon="5.86824">
        <ele>894</ele>
        <time>2021-06-01T09:32:15.000Z</time>
      </trkpt>
      <trkpt lat="44.12564" lon="5.86824">
        <ele>894</ele>
        <time>2021-06-01T09:32:16.000Z</time>
      </trkpt>
      <trkpt lat="44.12564" lon="5.86824">
        <ele>894</ele>
        <time>2021-06-01T09:32:17.000Z</time>
      </trkpt>
      <trkpt lat="44.12564" lon="5.86824">
        <ele>894</ele>
        <time>2021-06-01T09:32:18.000Z</time>
      </trkpt>
      <trkpt lat="44.12565" lon="5.86824">
        <ele>894</ele>
        <time>2021-06-01T09:32:19.000Z</time>
      </trkpt>
      <trkpt lat="44.12565" lon="5.86824">
        <ele>894</ele>
        <time>2021-06-01T09:32:20.000Z</time>
      </trkpt>
      <trkpt lat="44.12565" lon="5.86824">
        <ele>894</ele>
        <time>2021-06-01T09:32:21.000Z</time>
      </trkpt>
      <trkpt lat="44.12565" lon="5.86824">
        <ele>894</ele>
        <time>2021-06-01T09:32:22.000Z</time>
      </trkpt>
      <trkpt lat="44.12565" lon="5.86824">
        <ele>894</ele>
        <time>2021-06-01T09:32:23.000Z</time>
      </trkpt>
      <trkpt lat="44.12565" lon="5.86823">
        <ele>894</ele>
        <time>2021-06-01T09:32:24.000Z</time>
      </trkpt>
      <trkpt lat="44.12565" lon="5.86823">
        <ele>894</ele>
        <time>2021-06-01T09:32:25.000Z</time>
      </trkpt>
      <trkpt lat="44.12565" lon="5.86823">
        <ele>894</ele>
        <time>2021-06-01T09:32:26.000Z</time>
      </trkpt>
      <trkpt lat="44.12565" lon="5.86823">
        <ele>894</ele>
        <time>2021-06-01T09:32:27.000Z</time>
      </trkpt>
      <trkpt lat="44.12565" lon="5.86823">
        <ele>894</ele>
        <time>2021-06-01T09:32:28.000Z</time>
      </trkpt>
      <trkpt lat="44.12566" lon="5.86823">
        <ele>894</ele>
        <time>2021-06-01T09:32:29.000Z</time>
      </trkpt>
      <trkpt lat="44.12566" lon="5.86823">
        <ele>894</ele>
        <time>2021-06-01T09:32:30.000Z</time>
      </trkpt>
      <trkpt lat="44.12566" lon="5.86823">
        <ele>894</ele>
        <time>2021-06-01T09:32:31.000Z</time>
      </trkpt>
      <trkpt lat="44.12566" lon="5.86823">
        <ele>895</ele>
        <time>2021-06-01T09:32:32.000Z</time>
      </trkpt>
      <trkpt lat="44.12566" lon="5.86823">
        <ele>895</ele>
        <time>2021-06-01T09:32:33.000Z</time>
      </trkpt>
      <trkpt lat="44.12566" lon="5.86823">
        <ele>895</ele>
        <time>2021-06-01T09:32:34.000Z</time>
      </trkpt>
      <trkpt lat="44.12566" lon="5.86823">
        <ele>895</ele>
        <time>2021-06-01T09:32:35.000Z</time>
      </trkpt>
      <trkpt lat="44.12566" lon="5.86822">
        <ele>895</ele>
        <time>2021-06-01T09:32:36.000Z</time>
      </trkpt>
      <trkpt lat="44.12566" lon="5.86822">
        <ele>895</ele>
        <time>2021-06-01T09:32:37.000Z</time>
      </trkpt>
      <trkpt lat="44.12565" lon="5.86822">
        <ele>895</ele>
        <time>2021-06-01T09:32:38.000Z</time>
      </trkpt>
      <trkpt lat="44.12565" lon="5.86822">
        <ele>895</ele>
        <time>2021-06-01T09:32:39.000Z</time>
      </trkpt>
      <trkpt lat="44.12566" lon="5.86822">
        <ele>895</ele>
        <time>2021-06-01T09:32:40.000Z</time>
      </trkpt>
      <trkpt lat="44.12566" lon="5.86822">
        <ele>895</ele>
        <time>2021-06-01T09:32:41.000Z</time>
      </trkpt>
      <trkpt lat="44.12566" lon="5.86822">
        <ele>895</ele>
        <time>2021-06-01T09:32:42.000Z</time>
      </trkpt>
      <trkpt lat="44.12566" lon="5.86822">
        <ele>895</ele>
        <time>2021-06-01T09:32:43.000Z</time>
      </trkpt>
      <trkpt lat="44.12566" lon="5.86822">
        <ele>895</ele>
        <time>2021-06-01T09:32:44.000Z</time>
      </trkpt>
      <trkpt lat="44.12567" lon="5.86822">
        <ele>895</ele>
        <time>2021-06-01T09:32:45.000Z</time>
      </trkpt>
      <trkpt lat="44.12568" lon="5.86822">
        <ele>895</ele>
        <time>2021-06-01T09:32:46.000Z</time>
      </trkpt>
      <trkpt lat="44.12569" lon="5.86821">
        <ele>895</ele>
        <time>2021-06-01T09:32:47.000Z</time>
      </trkpt>
      <trkpt lat="44.1257" lon="5.86821">
        <ele>895</ele>
        <time>2021-06-01T09:32:48.000Z</time>
      </trkpt>
      <trkpt lat="44.12571" lon="5.86821">
        <ele>896</ele>
        <time>2021-06-01T09:32:49.000Z</time>
      </trkpt>
      <trkpt lat="44.12572" lon="5.8682">
        <ele>896</ele>
        <time>2021-06-01T09:32:50.000Z</time>
      </trkpt>
      <trkpt lat="44.12573" lon="5.8682">
        <ele>896</ele>
        <time>2021-06-01T09:32:51.000Z</time>
      </trkpt>
      <trkpt lat="44.12573" lon="5.86819">
        <ele>896</ele>
        <time>2021-06-01T09:32:52.000Z</time>
      </trkpt>
      <trkpt lat="44.12574" lon="5.86819">
        <ele>896</ele>
        <time>2021-06-01T09:32:53.000Z</time>
      </trkpt>
      <trkpt lat="44.12575" lon="5.86818">
        <ele>896</ele>
        <time>2021-06-01T09:32:54.000Z</time>
      </trkpt>
      <trkpt lat="44.12576" lon="5.86818">
        <ele>896</ele>
        <time>2021-06-01T09:32:55.000Z</time>
      </trkpt>
      <trkpt lat="44.12577" lon="5.86818">
        <ele>896</ele>
        <time>2021-06-01T09:32:56.000Z</time>
      </trkpt>
      <trkpt lat="44.12578" lon="5.86817">
        <ele>896</ele>
        <time>2021-06-01T09:32:57.000Z</time>
      </trkpt>
      <trkpt lat="44.12579" lon="5.86816">
        <ele>896</ele>
        <time>2021-06-01T09:32:58.000Z</time>
      </trkpt>
      <trkpt lat="44.12579" lon="5.86816">
        <ele>896</ele>
        <time>2021-06-01T09:32:59.000Z</time>
      </trkpt>
      <trkpt lat="44.12581" lon="5.86815">
        <ele>896</ele>
        <time>2021-06-01T09:33:00.000Z</time>
      </trkpt>
      <trkpt lat="44.12582" lon="5.86814">
        <ele>896</ele>
        <time>2021-06-01T09:33:01.000Z</time>
      </trkpt>
      <trkpt lat="44.12583" lon="5.86813">
        <ele>896</ele>
        <time>2021-06-01T09:33:02.000Z</time>
      </trkpt>
      <trkpt lat="44.12584" lon="5.86812">
        <ele>896</ele>
        <time>2021-06-01T09:33:03.000Z</time>
      </trkpt>
      <trkpt lat="44.12584" lon="5.86811">
        <ele>896</ele>
        <time>2021-06-01T09:33:04.000Z</time>
      </trkpt>
      <trkpt lat="44.12585" lon="5.8681">
        <ele>897</ele>
        <time>2021-06-01T09:33:05.000Z</time>
      </trkpt>
      <trkpt lat="44.12586" lon="5.86809">
        <ele>897</ele>
        <time>2021-06-01T09:33:06.000Z</time>
      </trkpt>
      <trkpt lat="44.12587" lon="5.86808">
        <ele>897</ele>
        <time>2021-06-01T09:33:07.000Z</time>
      </trkpt>
      <trkpt lat="44.12588" lon="5.86807">
        <ele>897</ele>
        <time>2021-06-01T09:33:08.000Z</time>
      </trkpt>
      <trkpt lat="44.12589" lon="5.86805">
        <ele>897</ele>
        <time>2021-06-01T09:33:09.000Z</time>
      </trkpt>
      <trkpt lat="44.1259" lon="5.86804">
        <ele>897</ele>
        <time>2021-06-01T09:33:10.000Z</time>
      </trkpt>
      <trkpt lat="44.12591" lon="5.86803">
        <ele>896</ele>
        <time>2021-06-01T09:33:11.000Z</time>
      </trkpt>
      <trkpt lat="44.12592" lon="5.86802">
        <ele>896</ele>
        <time>2021-06-01T09:33:12.000Z</time>
      </trkpt>
      <trkpt lat="44.12592" lon="5.868">
        <ele>896</ele>
        <time>2021-06-01T09:33:13.000Z</time>
      </trkpt>
      <trkpt lat="44.12593" lon="5.86799">
        <ele>896</ele>
        <time>2021-06-01T09:33:14.000Z</time>
      </trkpt>
      <trkpt lat="44.12594" lon="5.86797">
        <ele>896</ele>
        <time>2021-06-01T09:33:15.000Z</time>
      </trkpt>
      <trkpt lat="44.12595" lon="5.86796">
        <ele>896</ele>
        <time>2021-06-01T09:33:16.000Z</time>
      </trkpt>
      <trkpt lat="44.12596" lon="5.86795">
        <ele>896</ele>
        <time>2021-06-01T09:33:17.000Z</time>
      </trkpt>
      <trkpt lat="44.12597" lon="5.86794">
        <ele>896</ele>
        <time>2021-06-01T09:33:18.000Z</time>
      </trkpt>
      <trkpt lat="44.12598" lon="5.86793">
        <ele>896</ele>
        <time>2021-06-01T09:33:19.000Z</time>
      </trkpt>
      <trkpt lat="44.12599" lon="5.86792">
        <ele>895</ele>
        <time>2021-06-01T09:33:20.000Z</time>
      </trkpt>
      <trkpt lat="44.12599" lon="5.86791">
        <ele>895</ele>
        <time>2021-06-01T09:33:21.000Z</time>
      </trkpt>
      <trkpt lat="44.126" lon="5.8679">
        <ele>895</ele>
        <time>2021-06-01T09:33:22.000Z</time>
      </trkpt>
      <trkpt lat="44.12601" lon="5.86789">
        <ele>895</ele>
        <time>2021-06-01T09:33:23.000Z</time>
      </trkpt>
      <trkpt lat="44.12602" lon="5.86788">
        <ele>895</ele>
        <time>2021-06-01T09:33:24.000Z</time>
      </trkpt>
      <trkpt lat="44.12603" lon="5.86788">
        <ele>895</ele>
        <time>2021-06-01T09:33:25.000Z</time>
      </trkpt>
      <trkpt lat="44.12603" lon="5.86787">
        <ele>895</ele>
        <time>2021-06-01T09:33:26.000Z</time>
      </trkpt>
      <trkpt lat="44.12604" lon="5.86786">
        <ele>895</ele>
        <time>2021-06-01T09:33:27.000Z</time>
      </trkpt>
      <trkpt lat="44.12605" lon="5.86785">
        <ele>894</ele>
        <time>2021-06-01T09:33:28.000Z</time>
      </trkpt>
      <trkpt lat="44.12606" lon="5.86785">
        <ele>894</ele>
        <time>2021-06-01T09:33:29.000Z</time>
      </trkpt>
      <trkpt lat="44.12607" lon="5.86784">
        <ele>894</ele>
        <time>2021-06-01T09:33:30.000Z</time>
      </trkpt>
      <trkpt lat="44.12607" lon="5.86783">
        <ele>894</ele>
        <time>2021-06-01T09:33:31.000Z</time>
      </trkpt>
      <trkpt lat="44.12608" lon="5.86782">
        <ele>894</ele>
        <time>2021-06-01T09:33:32.000Z</time>
      </trkpt>
      <trkpt lat="44.12609" lon="5.86781">
        <ele>894</ele>
        <time>2021-06-01T09:33:33.000Z</time>
      </trkpt>
      <trkpt lat="44.1261" lon="5.8678">
        <ele>894</ele>
        <time>2021-06-01T09:33:34.000Z</time>
      </trkpt>
      <trkpt lat="44.1261" lon="5.86779">
        <ele>894</ele>
        <time>2021-06-01T09:33:35.000Z</time>
      </trkpt>
      <trkpt lat="44.12611" lon="5.86778">
        <ele>894</ele>
        <time>2021-06-01T09:33:36.000Z</time>
      </trkpt>
      <trkpt lat="44.12612" lon="5.86777">
        <ele>894</ele>
        <time>2021-06-01T09:33:37.000Z</time>
      </trkpt>
      <trkpt lat="44.12613" lon="5.86776">
        <ele>894</ele>
        <time>2021-06-01T09:33:38.000Z</time>
      </trkpt>
      <trkpt lat="44.12614" lon="5.86775">
        <ele>894</ele>
        <time>2021-06-01T09:33:39.000Z</time>
      </trkpt>
      <trkpt lat="44.12615" lon="5.86774">
        <ele>894</ele>
        <time>2021-06-01T09:33:40.000Z</time>
      </trkpt>
      <trkpt lat="44.12616" lon="5.86772">
        <ele>894</ele>
        <time>2021-06-01T09:33:41.000Z</time>
      </trkpt>
      <trkpt lat="44.12616" lon="5.86771">
        <ele>894</ele>
        <time>2021-06-01T09:33:42.000Z</time>
      </trkpt>
      <trkpt lat="44.12617" lon="5.8677">
        <ele>894</ele>
        <time>2021-06-01T09:33:43.000Z</time>
      </trkpt>
      <trkpt lat="44.12618" lon="5.86769">
        <ele>894</ele>
        <time>2021-06-01T09:33:44.000Z</time>
      </trkpt>
      <trkpt lat="44.12619" lon="5.86768">
        <ele>894</ele>
        <time>2021-06-01T09:33:45.000Z</time>
      </trkpt>
      <trkpt lat="44.1262" lon="5.86767">
        <ele>894</ele>
        <time>2021-06-01T09:33:46.000Z</time>
      </trkpt>
      <trkpt lat="44.12621" lon="5.86766">
        <ele>894</ele>
        <time>2021-06-01T09:33:47.000Z</time>
      </trkpt>
      <trkpt lat="44.12622" lon="5.86765">
        <ele>893</ele>
        <time>2021-06-01T09:33:48.000Z</time>
      </trkpt>
      <trkpt lat="44.12623" lon="5.86764">
        <ele>893</ele>
        <time>2021-06-01T09:33:49.000Z</time>
      </trkpt>
      <trkpt lat="44.12624" lon="5.86763">
        <ele>893</ele>
        <time>2021-06-01T09:33:50.000Z</time>
      </trkpt>
      <trkpt lat="44.12625" lon="5.86762">
        <ele>893</ele>
        <time>2021-06-01T09:33:51.000Z</time>
      </trkpt>
      <trkpt lat="44.12626" lon="5.86761">
        <ele>893</ele>
        <time>2021-06-01T09:33:52.000Z</time>
      </trkpt>
      <trkpt lat="44.12626" lon="5.8676">
        <ele>893</ele>
        <time>2021-06-01T09:33:53.000Z</time>
      </trkpt>
      <trkpt lat="44.12627" lon="5.86759">
        <ele>893</ele>
        <time>2021-06-01T09:33:54.000Z</time>
      </trkpt>
      <trkpt lat="44.12628" lon="5.86759">
        <ele>893</ele>
        <time>2021-06-01T09:33:55.000Z</time>
      </trkpt>
      <trkpt lat="44.12629" lon="5.86758">
        <ele>893</ele>
        <time>2021-06-01T09:33:56.000Z</time>
      </trkpt>
      <trkpt lat="44.1263" lon="5.86758">
        <ele>893</ele>
        <time>2021-06-01T09:33:57.000Z</time>
      </trkpt>
      <trkpt lat="44.12631" lon="5.86757">
        <ele>893</ele>
        <time>2021-06-01T09:33:58.000Z</time>
      </trkpt>
      <trkpt lat="44.12632" lon="5.86756">
        <ele>893</ele>
        <time>2021-06-01T09:33:59.000Z</time>
      </trkpt>
      <trkpt lat="44.12632" lon="5.86755">
        <ele>893</ele>
        <time>2021-06-01T09:34:00.000Z</time>
      </trkpt>
      <trkpt lat="44.12633" lon="5.86754">
        <ele>893</ele>
        <time>2021-06-01T09:34:01.000Z</time>
      </trkpt>
      <trkpt lat="44.12634" lon="5.86754">
        <ele>893</ele>
        <time>2021-06-01T09:34:02.000Z</time>
      </trkpt>
      <trkpt lat="44.12635" lon="5.86753">
        <ele>893</ele>
        <time>2021-06-01T09:34:03.000Z</time>
      </trkpt>
      <trkpt lat="44.12636" lon="5.86752">
        <ele>893</ele>
        <time>2021-06-01T09:34:04.000Z</time>
      </trkpt>
      <trkpt lat="44.12636" lon="5.86751">
        <ele>893</ele>
        <time>2021-06-01T09:34:05.000Z</time>
      </trkpt>
      <trkpt lat="44.12637" lon="5.8675">
        <ele>893</ele>
        <time>2021-06-01T09:34:06.000Z</time>
      </trkpt>
      <trkpt lat="44.12638" lon="5.86749">
        <ele>893</ele>
        <time>2021-06-01T09:34:07.000Z</time>
      </trkpt>
      <trkpt lat="44.12639" lon="5.86748">
        <ele>893</ele>
        <time>2021-06-01T09:34:08.000Z</time>
      </trkpt>
      <trkpt lat="44.1264" lon="5.86747">
        <ele>893</ele>
        <time>2021-06-01T09:34:09.000Z</time>
      </trkpt>
      <trkpt lat="44.1264" lon="5.86746">
        <ele>893</ele>
        <time>2021-06-01T09:34:10.000Z</time>
      </trkpt>
      <trkpt lat="44.12641" lon="5.86745">
        <ele>893</ele>
        <time>2021-06-01T09:34:11.000Z</time>
      </trkpt>
      <trkpt lat="44.12642" lon="5.86744">
        <ele>893</ele>
        <time>2021-06-01T09:34:12.000Z</time>
      </trkpt>
      <trkpt lat="44.12642" lon="5.86743">
        <ele>893</ele>
        <time>2021-06-01T09:34:13.000Z</time>
      </trkpt>
      <trkpt lat="44.12643" lon="5.86741">
        <ele>893</ele>
        <time>2021-06-01T09:34:14.000Z</time>
      </trkpt>
      <trkpt lat="44.12644" lon="5.8674">
        <ele>893</ele>
        <time>2021-06-01T09:34:15.000Z</time>
      </trkpt>
      <trkpt lat="44.12644" lon="5.86739">
        <ele>893</ele>
        <time>2021-06-01T09:34:16.000Z</time>
      </trkpt>
      <trkpt lat="44.12645" lon="5.86738">
        <ele>893</ele>
        <time>2021-06-01T09:34:17.000Z</time>
      </trkpt>
      <trkpt lat="44.12645" lon="5.86738">
        <ele>893</ele>
        <time>2021-06-01T09:34:18.000Z</time>
      </trkpt>
      <trkpt lat="44.12646" lon="5.86737">
        <ele>893</ele>
        <time>2021-06-01T09:34:19.000Z</time>
      </trkpt>
      <trkpt lat="44.12647" lon="5.86736">
        <ele>893</ele>
        <time>2021-06-01T09:34:20.000Z</time>
      </trkpt>
      <trkpt lat="44.12647" lon="5.86735">
        <ele>893</ele>
        <time>2021-06-01T09:34:21.000Z</time>
      </trkpt>
      <trkpt lat="44.12648" lon="5.86735">
        <ele>893</ele>
        <time>2021-06-01T09:34:22.000Z</time>
      </trkpt>
      <trkpt lat="44.12648" lon="5.86734">
        <ele>893</ele>
        <time>2021-06-01T09:34:23.000Z</time>
      </trkpt>
      <trkpt lat="44.12649" lon="5.86733">
        <ele>893</ele>
        <time>2021-06-01T09:34:24.000Z</time>
      </trkpt>
      <trkpt lat="44.1265" lon="5.86733">
        <ele>893</ele>
        <time>2021-06-01T09:34:25.000Z</time>
      </trkpt>
      <trkpt lat="44.12651" lon="5.86732">
        <ele>893</ele>
        <time>2021-06-01T09:34:26.000Z</time>
      </trkpt>
      <trkpt lat="44.12651" lon="5.86731">
        <ele>893</ele>
        <time>2021-06-01T09:34:27.000Z</time>
      </trkpt>
      <trkpt lat="44.12652" lon="5.8673">
        <ele>893</ele>
        <time>2021-06-01T09:34:28.000Z</time>
      </trkpt>
      <trkpt lat="44.12653" lon="5.86729">
        <ele>893</ele>
        <time>2021-06-01T09:34:29.000Z</time>
      </trkpt>
      <trkpt lat="44.12654" lon="5.86729">
        <ele>893</ele>
        <time>2021-06-01T09:34:30.000Z</time>
      </trkpt>
      <trkpt lat="44.12655" lon="5.86728">
        <ele>893</ele>
        <time>2021-06-01T09:34:31.000Z</time>
      </trkpt>
      <trkpt lat="44.12656" lon="5.86728">
        <ele>893</ele>
        <time>2021-06-01T09:34:32.000Z</time>
      </trkpt>
      <trkpt lat="44.12657" lon="5.86727">
        <ele>893</ele>
        <time>2021-06-01T09:34:33.000Z</time>
      </trkpt>
      <trkpt lat="44.12658" lon="5.86726">
        <ele>893</ele>
        <time>2021-06-01T09:34:34.000Z</time>
      </trkpt>
      <trkpt lat="44.12659" lon="5.86725">
        <ele>893</ele>
        <time>2021-06-01T09:34:35.000Z</time>
      </trkpt>
      <trkpt lat="44.1266" lon="5.86724">
        <ele>892</ele>
        <time>2021-06-01T09:34:36.000Z</time>
      </trkpt>
      <trkpt lat="44.12661" lon="5.86724">
        <ele>892</ele>
        <time>2021-06-01T09:34:37.000Z</time>
      </trkpt>
      <trkpt lat="44.12662" lon="5.86724">
        <ele>892</ele>
        <time>2021-06-01T09:34:38.000Z</time>
      </trkpt>
      <trkpt lat="44.12663" lon="5.86723">
        <ele>892</ele>
        <time>2021-06-01T09:34:39.000Z</time>
      </trkpt>
      <trkpt lat="44.12663" lon="5.86723">
        <ele>892</ele>
        <time>2021-06-01T09:34:40.000Z</time>
      </trkpt>
      <trkpt lat="44.12664" lon="5.86724">
        <ele>892</ele>
        <time>2021-06-01T09:34:41.000Z</time>
      </trkpt>
      <trkpt lat="44.12664" lon="5.86724">
        <ele>892</ele>
        <time>2021-06-01T09:34:42.000Z</time>
      </trkpt>
      <trkpt lat="44.12665" lon="5.86724">
        <ele>892</ele>
        <time>2021-06-01T09:34:43.000Z</time>
      </trkpt>
      <trkpt lat="44.12666" lon="5.86724">
        <ele>892</ele>
        <time>2021-06-01T09:34:44.000Z</time>
      </trkpt>
      <trkpt lat="44.12666" lon="5.86724">
        <ele>892</ele>
        <time>2021-06-01T09:34:45.000Z</time>
      </trkpt>
      <trkpt lat="44.12667" lon="5.86725">
        <ele>892</ele>
        <time>2021-06-01T09:34:46.000Z</time>
      </trkpt>
      <trkpt lat="44.12667" lon="5.86725">
        <ele>892</ele>
        <time>2021-06-01T09:34:47.000Z</time>
      </trkpt>
      <trkpt lat="44.12668" lon="5.86725">
        <ele>892</ele>
        <time>2021-06-01T09:34:48.000Z</time>
      </trkpt>
      <trkpt lat="44.12669" lon="5.86726">
        <ele>892</ele>
        <time>2021-06-01T09:34:49.000Z</time>
      </trkpt>
      <trkpt lat="44.12669" lon="5.86726">
        <ele>892</ele>
        <time>2021-06-01T09:34:50.000Z</time>
      </trkpt>
      <trkpt lat="44.1267" lon="5.86726">
        <ele>891</ele>
        <time>2021-06-01T09:34:51.000Z</time>
      </trkpt>
      <trkpt lat="44.12671" lon="5.86727">
        <ele>891</ele>
        <time>2021-06-01T09:34:52.000Z</time>
      </trkpt>
      <trkpt lat="44.12672" lon="5.86727">
        <ele>891</ele>
        <time>2021-06-01T09:34:53.000Z</time>
      </trkpt>
      <trkpt lat="44.12673" lon="5.86727">
        <ele>891</ele>
        <time>2021-06-01T09:34:54.000Z</time>
      </trkpt>
      <trkpt lat="44.12674" lon="5.86727">
        <ele>891</ele>
        <time>2021-06-01T09:34:55.000Z</time>
      </trkpt>
      <trkpt lat="44.12675" lon="5.86727">
        <ele>891</ele>
        <time>2021-06-01T09:34:56.000Z</time>
      </trkpt>
      <trkpt lat="44.12676" lon="5.86727">
        <ele>890</ele>
        <time>2021-06-01T09:34:57.000Z</time>
      </trkpt>
      <trkpt lat="44.12677" lon="5.86726">
        <ele>890</ele>
        <time>2021-06-01T09:34:58.000Z</time>
      </trkpt>
      <trkpt lat="44.12678" lon="5.86726">
        <ele>890</ele>
        <time>2021-06-01T09:34:59.000Z</time>
      </trkpt>
      <trkpt lat="44.12679" lon="5.86725">
        <ele>890</ele>
        <time>2021-06-01T09:35:00.000Z</time>
      </trkpt>
      <trkpt lat="44.1268" lon="5.86725">
        <ele>890</ele>
        <time>2021-06-01T09:35:01.000Z</time>
      </trkpt>
      <trkpt lat="44.12681" lon="5.86724">
        <ele>890</ele>
        <time>2021-06-01T09:35:02.000Z</time>
      </trkpt>
      <trkpt lat="44.12681" lon="5.86724">
        <ele>890</ele>
        <time>2021-06-01T09:35:03.000Z</time>
      </trkpt>
      <trkpt lat="44.12682" lon="5.86723">
        <ele>889</ele>
        <time>2021-06-01T09:35:04.000Z</time>
      </trkpt>
      <trkpt lat="44.12683" lon="5.86722">
        <ele>889</ele>
        <time>2021-06-01T09:35:05.000Z</time>
      </trkpt>
      <trkpt lat="44.12683" lon="5.86721">
        <ele>889</ele>
        <time>2021-06-01T09:35:06.000Z</time>
      </trkpt>
      <trkpt lat="44.12684" lon="5.86721">
        <ele>889</ele>
        <time>2021-06-01T09:35:07.000Z</time>
      </trkpt>
      <trkpt lat="44.12684" lon="5.86721">
        <ele>889</ele>
        <time>2021-06-01T09:35:08.000Z</time>
      </trkpt>
      <trkpt lat="44.12684" lon="5.86721">
        <ele>889</ele>
        <time>2021-06-01T09:35:09.000Z</time>
      </trkpt>
      <trkpt lat="44.12684" lon="5.8672">
        <ele>889</ele>
        <time>2021-06-01T09:35:10.000Z</time>
      </trkpt>
      <trkpt lat="44.12685" lon="5.8672">
        <ele>889</ele>
        <time>2021-06-01T09:35:11.000Z</time>
      </trkpt>
      <trkpt lat="44.12685" lon="5.8672">
        <ele>889</ele>
        <time>2021-06-01T09:35:12.000Z</time>
      </trkpt>
      <trkpt lat="44.12685" lon="5.8672">
        <ele>888</ele>
        <time>2021-06-01T09:35:13.000Z</time>
      </trkpt>
      <trkpt lat="44.12686" lon="5.86719">
        <ele>888</ele>
        <time>2021-06-01T09:35:14.000Z</time>
      </trkpt>
      <trkpt lat="44.12686" lon="5.86719">
        <ele>888</ele>
        <time>2021-06-01T09:35:15.000Z</time>
      </trkpt>
      <trkpt lat="44.12687" lon="5.86718">
        <ele>888</ele>
        <time>2021-06-01T09:35:16.000Z</time>
      </trkpt>
      <trkpt lat="44.12688" lon="5.86717">
        <ele>888</ele>
        <time>2021-06-01T09:35:17.000Z</time>
      </trkpt>
      <trkpt lat="44.12688" lon="5.86717">
        <ele>888</ele>
        <time>2021-06-01T09:35:18.000Z</time>
      </trkpt>
      <trkpt lat="44.12689" lon="5.86716">
        <ele>888</ele>
        <time>2021-06-01T09:35:19.000Z</time>
      </trkpt>
      <trkpt lat="44.12689" lon="5.86715">
        <ele>888</ele>
        <time>2021-06-01T09:35:20.000Z</time>
      </trkpt>
      <trkpt lat="44.12689" lon="5.86715">
        <ele>888</ele>
        <time>2021-06-01T09:35:21.000Z</time>
      </trkpt>
      <trkpt lat="44.1269" lon="5.86714">
        <ele>888</ele>
        <time>2021-06-01T09:35:22.000Z</time>
      </trkpt>
      <trkpt lat="44.1269" lon="5.86714">
        <ele>888</ele>
        <time>2021-06-01T09:35:23.000Z</time>
      </trkpt>
      <trkpt lat="44.1269" lon="5.86713">
        <ele>887</ele>
        <time>2021-06-01T09:35:24.000Z</time>
      </trkpt>
      <trkpt lat="44.12691" lon="5.86712">
        <ele>887</ele>
        <time>2021-06-01T09:35:25.000Z</time>
      </trkpt>
      <trkpt lat="44.12691" lon="5.86711">
        <ele>887</ele>
        <time>2021-06-01T09:35:26.000Z</time>
      </trkpt>
      <trkpt lat="44.12691" lon="5.86711">
        <ele>887</ele>
        <time>2021-06-01T09:35:27.000Z</time>
      </trkpt>
      <trkpt lat="44.12692" lon="5.8671">
        <ele>887</ele>
        <time>2021-06-01T09:35:28.000Z</time>
      </trkpt>
      <trkpt lat="44.12692" lon="5.8671">
        <ele>887</ele>
        <time>2021-06-01T09:35:29.000Z</time>
      </trkpt>
      <trkpt lat="44.12693" lon="5.8671">
        <ele>887</ele>
        <time>2021-06-01T09:35:30.000Z</time>
      </trkpt>
      <trkpt lat="44.12693" lon="5.8671">
        <ele>886</ele>
        <time>2021-06-01T09:35:31.000Z</time>
      </trkpt>
      <trkpt lat="44.12694" lon="5.86709">
        <ele>886</ele>
        <time>2021-06-01T09:35:32.000Z</time>
      </trkpt>
      <trkpt lat="44.12694" lon="5.86708">
        <ele>886</ele>
        <time>2021-06-01T09:35:33.000Z</time>
      </trkpt>
      <trkpt lat="44.12694" lon="5.86708">
        <ele>886</ele>
        <time>2021-06-01T09:35:34.000Z</time>
      </trkpt>
      <trkpt lat="44.12695" lon="5.86707">
        <ele>885</ele>
        <time>2021-06-01T09:35:35.000Z</time>
      </trkpt>
      <trkpt lat="44.12695" lon="5.86707">
        <ele>885</ele>
        <time>2021-06-01T09:35:36.000Z</time>
      </trkpt>
      <trkpt lat="44.12695" lon="5.86706">
        <ele>885</ele>
        <time>2021-06-01T09:35:37.000Z</time>
      </trkpt>
      <trkpt lat="44.12696" lon="5.86706">
        <ele>885</ele>
        <time>2021-06-01T09:35:38.000Z</time>
      </trkpt>
      <trkpt lat="44.12696" lon="5.86705">
        <ele>885</ele>
        <time>2021-06-01T09:35:39.000Z</time>
      </trkpt>
      <trkpt lat="44.12696" lon="5.86705">
        <ele>884</ele>
        <time>2021-06-01T09:35:40.000Z</time>
      </trkpt>
      <trkpt lat="44.12696" lon="5.86704">
        <ele>884</ele>
        <time>2021-06-01T09:35:41.000Z</time>
      </trkpt>
      <trkpt lat="44.12697" lon="5.86703">
        <ele>884</ele>
        <time>2021-06-01T09:35:42.000Z</time>
      </trkpt>
      <trkpt lat="44.12697" lon="5.86703">
        <ele>884</ele>
        <time>2021-06-01T09:35:43.000Z</time>
      </trkpt>
      <trkpt lat="44.12697" lon="5.86702">
        <ele>883</ele>
        <time>2021-06-01T09:35:44.000Z</time>
      </trkpt>
      <trkpt lat="44.12698" lon="5.86702">
        <ele>883</ele>
        <time>2021-06-01T09:35:45.000Z</time>
      </trkpt>
      <trkpt lat="44.12698" lon="5.86702">
        <ele>883</ele>
        <time>2021-06-01T09:35:46.000Z</time>
      </trkpt>
      <trkpt lat="44.12699" lon="5.86701">
        <ele>883</ele>
        <time>2021-06-01T09:35:47.000Z</time>
      </trkpt>
      <trkpt lat="44.12699" lon="5.867">
        <ele>882</ele>
        <time>2021-06-01T09:35:48.000Z</time>
      </trkpt>
      <trkpt lat="44.12699" lon="5.867">
        <ele>882</ele>
        <time>2021-06-01T09:35:49.000Z</time>
      </trkpt>
      <trkpt lat="44.127" lon="5.86699">
        <ele>882</ele>
        <time>2021-06-01T09:35:50.000Z</time>
      </trkpt>
      <trkpt lat="44.127" lon="5.86699">
        <ele>882</ele>
        <time>2021-06-01T09:35:51.000Z</time>
      </trkpt>
      <trkpt lat="44.127" lon="5.86698">
        <ele>882</ele>
        <time>2021-06-01T09:35:52.000Z</time>
      </trkpt>
      <trkpt lat="44.12701" lon="5.86698">
        <ele>881</ele>
        <time>2021-06-01T09:35:53.000Z</time>
      </trkpt>
      <trkpt lat="44.12701" lon="5.86697">
        <ele>881</ele>
        <time>2021-06-01T09:35:54.000Z</time>
      </trkpt>
      <trkpt lat="44.12702" lon="5.86696">
        <ele>881</ele>
        <time>2021-06-01T09:35:55.000Z</time>
      </trkpt>
      <trkpt lat="44.12702" lon="5.86696">
        <ele>881</ele>
        <time>2021-06-01T09:35:56.000Z</time>
      </trkpt>
      <trkpt lat="44.12702" lon="5.86695">
        <ele>881</ele>
        <time>2021-06-01T09:35:57.000Z</time>
      </trkpt>
      <trkpt lat="44.12702" lon="5.86695">
        <ele>881</ele>
        <time>2021-06-01T09:35:58.000Z</time>
      </trkpt>
      <trkpt lat="44.12702" lon="5.86695">
        <ele>880</ele>
        <time>2021-06-01T09:35:59.000Z</time>
      </trkpt>
      <trkpt lat="44.12702" lon="5.86695">
        <ele>880</ele>
        <time>2021-06-01T09:36:00.000Z</time>
      </trkpt>
      <trkpt lat="44.12702" lon="5.86695">
        <ele>880</ele>
        <time>2021-06-01T09:36:01.000Z</time>
      </trkpt>
      <trkpt lat="44.12703" lon="5.86695">
        <ele>880</ele>
        <time>2021-06-01T09:36:02.000Z</time>
      </trkpt>
      <trkpt lat="44.12703" lon="5.86695">
        <ele>880</ele>
        <time>2021-06-01T09:36:03.000Z</time>
      </trkpt>
      <trkpt lat="44.12703" lon="5.86695">
        <ele>880</ele>
        <time>2021-06-01T09:36:04.000Z</time>
      </trkpt>
      <trkpt lat="44.12703" lon="5.86695">
        <ele>880</ele>
        <time>2021-06-01T09:36:05.000Z</time>
      </trkpt>
      <trkpt lat="44.12703" lon="5.86695">
        <ele>880</ele>
        <time>2021-06-01T09:36:06.000Z</time>
      </trkpt>
      <trkpt lat="44.12703" lon="5.86695">
        <ele>880</ele>
        <time>2021-06-01T09:36:07.000Z</time>
      </trkpt>
      <trkpt lat="44.12703" lon="5.86695">
        <ele>880</ele>
        <time>2021-06-01T09:36:08.000Z</time>
      </trkpt>
      <trkpt lat="44.12703" lon="5.86695">
        <ele>880</ele>
        <time>2021-06-01T09:36:09.000Z</time>
      </trkpt>
      <trkpt lat="44.12703" lon="5.86695">
        <ele>880</ele>
        <time>2021-06-01T09:36:10.000Z</time>
      </trkpt>
      <trkpt lat="44.12703" lon="5.86695">
        <ele>880</ele>
        <time>2021-06-01T09:36:11.000Z</time>
      </trkpt>
      <trkpt lat="44.12703" lon="5.86695">
        <ele>880</ele>
        <time>2021-06-01T09:36:12.000Z</time>
      </trkpt>
      <trkpt lat="44.12704" lon="5.86695">
        <ele>880</ele>
        <time>2021-06-01T09:36:13.000Z</time>
      </trkpt>
      <trkpt lat="44.12704" lon="5.86695">
        <ele>880</ele>
        <time>2021-06-01T09:36:14.000Z</time>
      </trkpt>
      <trkpt lat="44.12704" lon="5.86695">
        <ele>880</ele>
        <time>2021-06-01T09:36:15.000Z</time>
      </trkpt>
      <trkpt lat="44.12704" lon="5.86695">
        <ele>880</ele>
        <time>2021-06-01T09:36:16.000Z</time>
      </trkpt>
      <trkpt lat="44.12704" lon="5.86695">
        <ele>880</ele>
        <time>2021-06-01T09:36:17.000Z</time>
      </trkpt>
      <trkpt lat="44.12705" lon="5.86695">
        <ele>880</ele>
        <time>2021-06-01T09:36:18.000Z</time>
      </trkpt>
      <trkpt lat="44.12705" lon="5.86694">
        <ele>880</ele>
        <time>2021-06-01T09:36:19.000Z</time>
      </trkpt>
      <trkpt lat="44.12706" lon="5.86694">
        <ele>880</ele>
        <time>2021-06-01T09:36:20.000Z</time>
      </trkpt>
      <trkpt lat="44.12706" lon="5.86693">
        <ele>880</ele>
        <time>2021-06-01T09:36:21.000Z</time>
      </trkpt>
      <trkpt lat="44.12707" lon="5.86693">
        <ele>880</ele>
        <time>2021-06-01T09:36:22.000Z</time>
      </trkpt>
      <trkpt lat="44.12707" lon="5.86692">
        <ele>879</ele>
        <time>2021-06-01T09:36:23.000Z</time>
      </trkpt>
      <trkpt lat="44.12708" lon="5.86692">
        <ele>879</ele>
        <time>2021-06-01T09:36:24.000Z</time>
      </trkpt>
      <trkpt lat="44.12708" lon="5.86691">
        <ele>879</ele>
        <time>2021-06-01T09:36:25.000Z</time>
      </trkpt>
      <trkpt lat="44.12709" lon="5.86691">
        <ele>879</ele>
        <time>2021-06-01T09:36:26.000Z</time>
      </trkpt>
      <trkpt lat="44.12709" lon="5.8669">
        <ele>879</ele>
        <time>2021-06-01T09:36:27.000Z</time>
      </trkpt>
      <trkpt lat="44.1271" lon="5.8669">
        <ele>879</ele>
        <time>2021-06-01T09:36:28.000Z</time>
      </trkpt>
      <trkpt lat="44.12711" lon="5.86689">
        <ele>879</ele>
        <time>2021-06-01T09:36:29.000Z</time>
      </trkpt>
      <trkpt lat="44.12712" lon="5.86689">
        <ele>879</ele>
        <time>2021-06-01T09:36:30.000Z</time>
      </trkpt>
      <trkpt lat="44.12713" lon="5.86688">
        <ele>879</ele>
        <time>2021-06-01T09:36:31.000Z</time>
      </trkpt>
      <trkpt lat="44.12713" lon="5.86688">
        <ele>878</ele>
        <time>2021-06-01T09:36:32.000Z</time>
      </trkpt>
      <trkpt lat="44.12714" lon="5.86688">
        <ele>878</ele>
        <time>2021-06-01T09:36:33.000Z</time>
      </trkpt>
      <trkpt lat="44.12715" lon="5.86688">
        <ele>878</ele>
        <time>2021-06-01T09:36:34.000Z</time>
      </trkpt>
      <trkpt lat="44.12715" lon="5.86687">
        <ele>878</ele>
        <time>2021-06-01T09:36:35.000Z</time>
      </trkpt>
      <trkpt lat="44.12716" lon="5.86687">
        <ele>878</ele>
        <time>2021-06-01T09:36:36.000Z</time>
      </trkpt>
      <trkpt lat="44.12716" lon="5.86687">
        <ele>878</ele>
        <time>2021-06-01T09:36:37.000Z</time>
      </trkpt>
      <trkpt lat="44.12717" lon="5.86687">
        <ele>878</ele>
        <time>2021-06-01T09:36:38.000Z</time>
      </trkpt>
      <trkpt lat="44.12718" lon="5.86686">
        <ele>878</ele>
        <time>2021-06-01T09:36:39.000Z</time>
      </trkpt>
      <trkpt lat="44.12718" lon="5.86686">
        <ele>878</ele>
        <time>2021-06-01T09:36:40.000Z</time>
      </trkpt>
      <trkpt lat="44.12719" lon="5.86686">
        <ele>877</ele>
        <time>2021-06-01T09:36:41.000Z</time>
      </trkpt>
      <trkpt lat="44.1272" lon="5.86686">
        <ele>877</ele>
        <time>2021-06-01T09:36:42.000Z</time>
      </trkpt>
      <trkpt lat="44.12721" lon="5.86686">
        <ele>877</ele>
        <time>2021-06-01T09:36:43.000Z</time>
      </trkpt>
      <trkpt lat="44.12721" lon="5.86685">
        <ele>877</ele>
        <time>2021-06-01T09:36:44.000Z</time>
      </trkpt>
      <trkpt lat="44.12722" lon="5.86685">
        <ele>877</ele>
        <time>2021-06-01T09:36:45.000Z</time>
      </trkpt>
      <trkpt lat="44.12722" lon="5.86684">
        <ele>877</ele>
        <time>2021-06-01T09:36:46.000Z</time>
      </trkpt>
      <trkpt lat="44.12723" lon="5.86683">
        <ele>877</ele>
        <time>2021-06-01T09:36:47.000Z</time>
      </trkpt>
      <trkpt lat="44.12723" lon="5.86682">
        <ele>877</ele>
        <time>2021-06-01T09:36:48.000Z</time>
      </trkpt>
      <trkpt lat="44.12724" lon="5.86681">
        <ele>877</ele>
        <time>2021-06-01T09:36:49.000Z</time>
      </trkpt>
      <trkpt lat="44.12725" lon="5.8668">
        <ele>877</ele>
        <time>2021-06-01T09:36:50.000Z</time>
      </trkpt>
      <trkpt lat="44.12726" lon="5.86679">
        <ele>877</ele>
        <time>2021-06-01T09:36:51.000Z</time>
      </trkpt>
      <trkpt lat="44.12727" lon="5.86678">
        <ele>877</ele>
        <time>2021-06-01T09:36:52.000Z</time>
      </trkpt>
      <trkpt lat="44.12728" lon="5.86677">
        <ele>877</ele>
        <time>2021-06-01T09:36:53.000Z</time>
      </trkpt>
      <trkpt lat="44.12729" lon="5.86676">
        <ele>877</ele>
        <time>2021-06-01T09:36:54.000Z</time>
      </trkpt>
      <trkpt lat="44.1273" lon="5.86674">
        <ele>877</ele>
        <time>2021-06-01T09:36:55.000Z</time>
      </trkpt>
      <trkpt lat="44.12731" lon="5.86673">
        <ele>877</ele>
        <time>2021-06-01T09:36:56.000Z</time>
      </trkpt>
      <trkpt lat="44.12732" lon="5.86671">
        <ele>877</ele>
        <time>2021-06-01T09:36:57.000Z</time>
      </trkpt>
      <trkpt lat="44.12733" lon="5.86671">
        <ele>877</ele>
        <time>2021-06-01T09:36:58.000Z</time>
      </trkpt>
      <trkpt lat="44.12734" lon="5.8667">
        <ele>877</ele>
        <time>2021-06-01T09:36:59.000Z</time>
      </trkpt>
      <trkpt lat="44.12735" lon="5.8667">
        <ele>876</ele>
        <time>2021-06-01T09:37:00.000Z</time>
      </trkpt>
      <trkpt lat="44.12737" lon="5.86669">
        <ele>876</ele>
        <time>2021-06-01T09:37:01.000Z</time>
      </trkpt>
      <trkpt lat="44.12738" lon="5.86669">
        <ele>876</ele>
        <time>2021-06-01T09:37:02.000Z</time>
      </trkpt>
      <trkpt lat="44.12739" lon="5.86669">
        <ele>876</ele>
        <time>2021-06-01T09:37:03.000Z</time>
      </trkpt>
      <trkpt lat="44.1274" lon="5.86668">
        <ele>876</ele>
        <time>2021-06-01T09:37:04.000Z</time>
      </trkpt>
      <trkpt lat="44.12741" lon="5.86668">
        <ele>876</ele>
        <time>2021-06-01T09:37:05.000Z</time>
      </trkpt>
      <trkpt lat="44.12742" lon="5.86667">
        <ele>875</ele>
        <time>2021-06-01T09:37:06.000Z</time>
      </trkpt>
      <trkpt lat="44.12743" lon="5.86667">
        <ele>875</ele>
        <time>2021-06-01T09:37:07.000Z</time>
      </trkpt>
      <trkpt lat="44.12744" lon="5.86666">
        <ele>875</ele>
        <time>2021-06-01T09:37:08.000Z</time>
      </trkpt>
      <trkpt lat="44.12744" lon="5.86665">
        <ele>875</ele>
        <time>2021-06-01T09:37:09.000Z</time>
      </trkpt>
      <trkpt lat="44.12745" lon="5.86664">
        <ele>875</ele>
        <time>2021-06-01T09:37:10.000Z</time>
      </trkpt>
      <trkpt lat="44.12746" lon="5.86663">
        <ele>875</ele>
        <time>2021-06-01T09:37:11.000Z</time>
      </trkpt>
      <trkpt lat="44.12746" lon="5.86662">
        <ele>875</ele>
        <time>2021-06-01T09:37:12.000Z</time>
      </trkpt>
      <trkpt lat="44.12747" lon="5.86661">
        <ele>874</ele>
        <time>2021-06-01T09:37:13.000Z</time>
      </trkpt>
      <trkpt lat="44.12747" lon="5.8666">
        <ele>874</ele>
        <time>2021-06-01T09:37:14.000Z</time>
      </trkpt>
      <trkpt lat="44.12748" lon="5.8666">
        <ele>874</ele>
        <time>2021-06-01T09:37:15.000Z</time>
      </trkpt>
      <trkpt lat="44.12748" lon="5.86659">
        <ele>874</ele>
        <time>2021-06-01T09:37:16.000Z</time>
      </trkpt>
      <trkpt lat="44.12749" lon="5.86658">
        <ele>874</ele>
        <time>2021-06-01T09:37:17.000Z</time>
      </trkpt>
      <trkpt lat="44.12749" lon="5.86658">
        <ele>874</ele>
        <time>2021-06-01T09:37:18.000Z</time>
      </trkpt>
      <trkpt lat="44.1275" lon="5.86657">
        <ele>873</ele>
        <time>2021-06-01T09:37:19.000Z</time>
      </trkpt>
      <trkpt lat="44.1275" lon="5.86657">
        <ele>873</ele>
        <time>2021-06-01T09:37:20.000Z</time>
      </trkpt>
      <trkpt lat="44.12751" lon="5.86656">
        <ele>873</ele>
        <time>2021-06-01T09:37:21.000Z</time>
      </trkpt>
      <trkpt lat="44.12751" lon="5.86656">
        <ele>873</ele>
        <time>2021-06-01T09:37:22.000Z</time>
      </trkpt>
      <trkpt lat="44.12753" lon="5.86655">
        <ele>873</ele>
        <time>2021-06-01T09:37:23.000Z</time>
      </trkpt>
      <trkpt lat="44.12754" lon="5.86654">
        <ele>873</ele>
        <time>2021-06-01T09:37:24.000Z</time>
      </trkpt>
      <trkpt lat="44.12755" lon="5.86654">
        <ele>873</ele>
        <time>2021-06-01T09:37:25.000Z</time>
      </trkpt>
      <trkpt lat="44.12757" lon="5.86653">
        <ele>873</ele>
        <time>2021-06-01T09:37:26.000Z</time>
      </trkpt>
      <trkpt lat="44.12758" lon="5.86654">
        <ele>873</ele>
        <time>2021-06-01T09:37:27.000Z</time>
      </trkpt>
      <trkpt lat="44.12759" lon="5.86654">
        <ele>873</ele>
        <time>2021-06-01T09:37:28.000Z</time>
      </trkpt>
      <trkpt lat="44.1276" lon="5.86654">
        <ele>873</ele>
        <time>2021-06-01T09:37:29.000Z</time>
      </trkpt>
      <trkpt lat="44.12761" lon="5.86655">
        <ele>873</ele>
        <time>2021-06-01T09:37:30.000Z</time>
      </trkpt>
      <trkpt lat="44.12763" lon="5.86655">
        <ele>873</ele>
        <time>2021-06-01T09:37:31.000Z</time>
      </trkpt>
      <trkpt lat="44.12764" lon="5.86655">
        <ele>874</ele>
        <time>2021-06-01T09:37:32.000Z</time>
      </trkpt>
      <trkpt lat="44.12765" lon="5.86655">
        <ele>874</ele>
        <time>2021-06-01T09:37:33.000Z</time>
      </trkpt>
      <trkpt lat="44.12766" lon="5.86655">
        <ele>874</ele>
        <time>2021-06-01T09:37:34.000Z</time>
      </trkpt>
      <trkpt lat="44.12767" lon="5.86656">
        <ele>874</ele>
        <time>2021-06-01T09:37:35.000Z</time>
      </trkpt>
      <trkpt lat="44.12768" lon="5.86656">
        <ele>874</ele>
        <time>2021-06-01T09:37:36.000Z</time>
      </trkpt>
      <trkpt lat="44.12769" lon="5.86657">
        <ele>874</ele>
        <time>2021-06-01T09:37:37.000Z</time>
      </trkpt>
      <trkpt lat="44.12769" lon="5.86658">
        <ele>874</ele>
        <time>2021-06-01T09:37:38.000Z</time>
      </trkpt>
      <trkpt lat="44.1277" lon="5.86658">
        <ele>874</ele>
        <time>2021-06-01T09:37:39.000Z</time>
      </trkpt>
      <trkpt lat="44.12771" lon="5.86658">
        <ele>874</ele>
        <time>2021-06-01T09:37:40.000Z</time>
      </trkpt>
      <trkpt lat="44.12771" lon="5.86658">
        <ele>875</ele>
        <time>2021-06-01T09:37:41.000Z</time>
      </trkpt>
      <trkpt lat="44.12772" lon="5.86658">
        <ele>875</ele>
        <time>2021-06-01T09:37:42.000Z</time>
      </trkpt>
      <trkpt lat="44.12773" lon="5.86659">
        <ele>875</ele>
        <time>2021-06-01T09:37:43.000Z</time>
      </trkpt>
      <trkpt lat="44.12774" lon="5.86659">
        <ele>875</ele>
        <time>2021-06-01T09:37:44.000Z</time>
      </trkpt>
      <trkpt lat="44.12775" lon="5.86659">
        <ele>875</ele>
        <time>2021-06-01T09:37:45.000Z</time>
      </trkpt>
      <trkpt lat="44.12776" lon="5.86659">
        <ele>875</ele>
        <time>2021-06-01T09:37:46.000Z</time>
      </trkpt>
      <trkpt lat="44.12776" lon="5.86659">
        <ele>875</ele>
        <time>2021-06-01T09:37:47.000Z</time>
      </trkpt>
      <trkpt lat="44.12778" lon="5.8666">
        <ele>875</ele>
        <time>2021-06-01T09:37:48.000Z</time>
      </trkpt>
      <trkpt lat="44.12779" lon="5.8666">
        <ele>875</ele>
        <time>2021-06-01T09:37:49.000Z</time>
      </trkpt>
      <trkpt lat="44.1278" lon="5.86661">
        <ele>875</ele>
        <time>2021-06-01T09:37:50.000Z</time>
      </trkpt>
      <trkpt lat="44.1278" lon="5.86661">
        <ele>875</ele>
        <time>2021-06-01T09:37:51.000Z</time>
      </trkpt>
      <trkpt lat="44.12781" lon="5.86661">
        <ele>875</ele>
        <time>2021-06-01T09:37:52.000Z</time>
      </trkpt>
      <trkpt lat="44.12782" lon="5.86662">
        <ele>875</ele>
        <time>2021-06-01T09:37:53.000Z</time>
      </trkpt>
      <trkpt lat="44.12782" lon="5.86662">
        <ele>875</ele>
        <time>2021-06-01T09:37:54.000Z</time>
      </trkpt>
      <trkpt lat="44.12783" lon="5.86662">
        <ele>875</ele>
        <time>2021-06-01T09:37:55.000Z</time>
      </trkpt>
      <trkpt lat="44.12784" lon="5.86662">
        <ele>875</ele>
        <time>2021-06-01T09:37:56.000Z</time>
      </trkpt>
      <trkpt lat="44.12784" lon="5.86662">
        <ele>876</ele>
        <time>2021-06-01T09:37:57.000Z</time>
      </trkpt>
      <trkpt lat="44.12784" lon="5.86662">
        <ele>876</ele>
        <time>2021-06-01T09:37:58.000Z</time>
      </trkpt>
      <trkpt lat="44.12785" lon="5.86662">
        <ele>876</ele>
        <time>2021-06-01T09:37:59.000Z</time>
      </trkpt>
      <trkpt lat="44.12785" lon="5.86663">
        <ele>876</ele>
        <time>2021-06-01T09:38:00.000Z</time>
      </trkpt>
      <trkpt lat="44.12786" lon="5.86663">
        <ele>876</ele>
        <time>2021-06-01T09:38:01.000Z</time>
      </trkpt>
      <trkpt lat="44.12787" lon="5.86663">
        <ele>876</ele>
        <time>2021-06-01T09:38:02.000Z</time>
      </trkpt>
      <trkpt lat="44.12787" lon="5.86663">
        <ele>876</ele>
        <time>2021-06-01T09:38:03.000Z</time>
      </trkpt>
      <trkpt lat="44.12788" lon="5.86664">
        <ele>875</ele>
        <time>2021-06-01T09:38:04.000Z</time>
      </trkpt>
      <trkpt lat="44.12788" lon="5.86664">
        <ele>875</ele>
        <time>2021-06-01T09:38:05.000Z</time>
      </trkpt>
      <trkpt lat="44.12789" lon="5.86664">
        <ele>875</ele>
        <time>2021-06-01T09:38:06.000Z</time>
      </trkpt>
      <trkpt lat="44.12789" lon="5.86663">
        <ele>875</ele>
        <time>2021-06-01T09:38:07.000Z</time>
      </trkpt>
      <trkpt lat="44.1279" lon="5.86663">
        <ele>875</ele>
        <time>2021-06-01T09:38:08.000Z</time>
      </trkpt>
      <trkpt lat="44.1279" lon="5.86663">
        <ele>875</ele>
        <time>2021-06-01T09:38:09.000Z</time>
      </trkpt>
      <trkpt lat="44.1279" lon="5.86662">
        <ele>875</ele>
        <time>2021-06-01T09:38:10.000Z</time>
      </trkpt>
      <trkpt lat="44.12791" lon="5.86662">
        <ele>875</ele>
        <time>2021-06-01T09:38:11.000Z</time>
      </trkpt>
      <trkpt lat="44.12791" lon="5.86662">
        <ele>876</ele>
        <time>2021-06-01T09:38:12.000Z</time>
      </trkpt>
      <trkpt lat="44.12792" lon="5.86663">
        <ele>876</ele>
        <time>2021-06-01T09:38:13.000Z</time>
      </trkpt>
      <trkpt lat="44.12792" lon="5.86663">
        <ele>876</ele>
        <time>2021-06-01T09:38:14.000Z</time>
      </trkpt>
      <trkpt lat="44.12793" lon="5.86663">
        <ele>875</ele>
        <time>2021-06-01T09:38:15.000Z</time>
      </trkpt>
      <trkpt lat="44.12793" lon="5.86663">
        <ele>875</ele>
        <time>2021-06-01T09:38:16.000Z</time>
      </trkpt>
      <trkpt lat="44.12794" lon="5.86663">
        <ele>875</ele>
        <time>2021-06-01T09:38:17.000Z</time>
      </trkpt>
      <trkpt lat="44.12794" lon="5.86663">
        <ele>875</ele>
        <time>2021-06-01T09:38:18.000Z</time>
      </trkpt>
      <trkpt lat="44.12794" lon="5.86664">
        <ele>875</ele>
        <time>2021-06-01T09:38:19.000Z</time>
      </trkpt>
      <trkpt lat="44.12795" lon="5.86664">
        <ele>875</ele>
        <time>2021-06-01T09:38:20.000Z</time>
      </trkpt>
      <trkpt lat="44.12796" lon="5.86664">
        <ele>875</ele>
        <time>2021-06-01T09:38:21.000Z</time>
      </trkpt>
      <trkpt lat="44.12797" lon="5.86664">
        <ele>875</ele>
        <time>2021-06-01T09:38:22.000Z</time>
      </trkpt>
      <trkpt lat="44.12798" lon="5.86664">
        <ele>875</ele>
        <time>2021-06-01T09:38:23.000Z</time>
      </trkpt>
      <trkpt lat="44.12799" lon="5.86665">
        <ele>875</ele>
        <time>2021-06-01T09:38:24.000Z</time>
      </trkpt>
      <trkpt lat="44.128" lon="5.86665">
        <ele>875</ele>
        <time>2021-06-01T09:38:25.000Z</time>
      </trkpt>
      <trkpt lat="44.128" lon="5.86666">
        <ele>875</ele>
        <time>2021-06-01T09:38:26.000Z</time>
      </trkpt>
      <trkpt lat="44.12801" lon="5.86667">
        <ele>875</ele>
        <time>2021-06-01T09:38:27.000Z</time>
      </trkpt>
      <trkpt lat="44.12801" lon="5.86669">
        <ele>874</ele>
        <time>2021-06-01T09:38:28.000Z</time>
      </trkpt>
      <trkpt lat="44.12801" lon="5.8667">
        <ele>874</ele>
        <time>2021-06-01T09:38:29.000Z</time>
      </trkpt>
      <trkpt lat="44.12802" lon="5.86671">
        <ele>874</ele>
        <time>2021-06-01T09:38:30.000Z</time>
      </trkpt>
      <trkpt lat="44.12802" lon="5.86672">
        <ele>874</ele>
        <time>2021-06-01T09:38:31.000Z</time>
      </trkpt>
      <trkpt lat="44.12803" lon="5.86674">
        <ele>873</ele>
        <time>2021-06-01T09:38:32.000Z</time>
      </trkpt>
      <trkpt lat="44.12804" lon="5.86675">
        <ele>873</ele>
        <time>2021-06-01T09:38:33.000Z</time>
      </trkpt>
      <trkpt lat="44.12804" lon="5.86677">
        <ele>873</ele>
        <time>2021-06-01T09:38:34.000Z</time>
      </trkpt>
      <trkpt lat="44.12805" lon="5.86678">
        <ele>873</ele>
        <time>2021-06-01T09:38:35.000Z</time>
      </trkpt>
      <trkpt lat="44.12806" lon="5.86679">
        <ele>872</ele>
        <time>2021-06-01T09:38:36.000Z</time>
      </trkpt>
      <trkpt lat="44.12807" lon="5.86681">
        <ele>872</ele>
        <time>2021-06-01T09:38:37.000Z</time>
      </trkpt>
      <trkpt lat="44.12808" lon="5.86682">
        <ele>872</ele>
        <time>2021-06-01T09:38:38.000Z</time>
      </trkpt>
      <trkpt lat="44.12809" lon="5.86683">
        <ele>871</ele>
        <time>2021-06-01T09:38:39.000Z</time>
      </trkpt>
      <trkpt lat="44.12809" lon="5.86684">
        <ele>871</ele>
        <time>2021-06-01T09:38:40.000Z</time>
      </trkpt>
      <trkpt lat="44.1281" lon="5.86685">
        <ele>871</ele>
        <time>2021-06-01T09:38:41.000Z</time>
      </trkpt>
      <trkpt lat="44.12811" lon="5.86686">
        <ele>871</ele>
        <time>2021-06-01T09:38:42.000Z</time>
      </trkpt>
      <trkpt lat="44.12812" lon="5.86687">
        <ele>871</ele>
        <time>2021-06-01T09:38:43.000Z</time>
      </trkpt>
      <trkpt lat="44.12813" lon="5.86688">
        <ele>870</ele>
        <time>2021-06-01T09:38:44.000Z</time>
      </trkpt>
      <trkpt lat="44.12814" lon="5.86689">
        <ele>870</ele>
        <time>2021-06-01T09:38:45.000Z</time>
      </trkpt>
      <trkpt lat="44.12815" lon="5.8669">
        <ele>870</ele>
        <time>2021-06-01T09:38:46.000Z</time>
      </trkpt>
      <trkpt lat="44.12816" lon="5.86691">
        <ele>870</ele>
        <time>2021-06-01T09:38:47.000Z</time>
      </trkpt>
      <trkpt lat="44.12816" lon="5.86692">
        <ele>870</ele>
        <time>2021-06-01T09:38:48.000Z</time>
      </trkpt>
      <trkpt lat="44.12817" lon="5.86693">
        <ele>869</ele>
        <time>2021-06-01T09:38:49.000Z</time>
      </trkpt>
      <trkpt lat="44.12818" lon="5.86694">
        <ele>869</ele>
        <time>2021-06-01T09:38:50.000Z</time>
      </trkpt>
      <trkpt lat="44.12818" lon="5.86695">
        <ele>869</ele>
        <time>2021-06-01T09:38:51.000Z</time>
      </trkpt>
      <trkpt lat="44.12818" lon="5.86696">
        <ele>869</ele>
        <time>2021-06-01T09:38:52.000Z</time>
      </trkpt>
      <trkpt lat="44.12818" lon="5.86698">
        <ele>869</ele>
        <time>2021-06-01T09:38:53.000Z</time>
      </trkpt>
      <trkpt lat="44.12819" lon="5.86699">
        <ele>869</ele>
        <time>2021-06-01T09:38:54.000Z</time>
      </trkpt>
      <trkpt lat="44.12819" lon="5.867">
        <ele>869</ele>
        <time>2021-06-01T09:38:55.000Z</time>
      </trkpt>
      <trkpt lat="44.12819" lon="5.86702">
        <ele>869</ele>
        <time>2021-06-01T09:38:56.000Z</time>
      </trkpt>
      <trkpt lat="44.1282" lon="5.86703">
        <ele>868</ele>
        <time>2021-06-01T09:38:57.000Z</time>
      </trkpt>
      <trkpt lat="44.1282" lon="5.86704">
        <ele>868</ele>
        <time>2021-06-01T09:38:58.000Z</time>
      </trkpt>
      <trkpt lat="44.1282" lon="5.86705">
        <ele>868</ele>
        <time>2021-06-01T09:38:59.000Z</time>
      </trkpt>
      <trkpt lat="44.12821" lon="5.86705">
        <ele>868</ele>
        <time>2021-06-01T09:39:00.000Z</time>
      </trkpt>
      <trkpt lat="44.12821" lon="5.86707">
        <ele>867</ele>
        <time>2021-06-01T09:39:01.000Z</time>
      </trkpt>
      <trkpt lat="44.12821" lon="5.86708">
        <ele>867</ele>
        <time>2021-06-01T09:39:02.000Z</time>
      </trkpt>
      <trkpt lat="44.12822" lon="5.86709">
        <ele>867</ele>
        <time>2021-06-01T09:39:03.000Z</time>
      </trkpt>
      <trkpt lat="44.12823" lon="5.8671">
        <ele>867</ele>
        <time>2021-06-01T09:39:04.000Z</time>
      </trkpt>
      <trkpt lat="44.12823" lon="5.86711">
        <ele>867</ele>
        <time>2021-06-01T09:39:05.000Z</time>
      </trkpt>
      <trkpt lat="44.12824" lon="5.86712">
        <ele>867</ele>
        <time>2021-06-01T09:39:06.000Z</time>
      </trkpt>
      <trkpt lat="44.12825" lon="5.86713">
        <ele>867</ele>
        <time>2021-06-01T09:39:07.000Z</time>
      </trkpt>
      <trkpt lat="44.12826" lon="5.86714">
        <ele>867</ele>
        <time>2021-06-01T09:39:08.000Z</time>
      </trkpt>
      <trkpt lat="44.12826" lon="5.86715">
        <ele>867</ele>
        <time>2021-06-01T09:39:09.000Z</time>
      </trkpt>
      <trkpt lat="44.12827" lon="5.86716">
        <ele>867</ele>
        <time>2021-06-01T09:39:10.000Z</time>
      </trkpt>
      <trkpt lat="44.12827" lon="5.86716">
        <ele>867</ele>
        <time>2021-06-01T09:39:11.000Z</time>
      </trkpt>
      <trkpt lat="44.12828" lon="5.86717">
        <ele>867</ele>
        <time>2021-06-01T09:39:12.000Z</time>
      </trkpt>
      <trkpt lat="44.12828" lon="5.86717">
        <ele>867</ele>
        <time>2021-06-01T09:39:13.000Z</time>
      </trkpt>
      <trkpt lat="44.12828" lon="5.86718">
        <ele>867</ele>
        <time>2021-06-01T09:39:14.000Z</time>
      </trkpt>
      <trkpt lat="44.12829" lon="5.86719">
        <ele>867</ele>
        <time>2021-06-01T09:39:15.000Z</time>
      </trkpt>
      <trkpt lat="44.12829" lon="5.86719">
        <ele>867</ele>
        <time>2021-06-01T09:39:16.000Z</time>
      </trkpt>
      <trkpt lat="44.1283" lon="5.8672">
        <ele>867</ele>
        <time>2021-06-01T09:39:17.000Z</time>
      </trkpt>
      <trkpt lat="44.12831" lon="5.8672">
        <ele>867</ele>
        <time>2021-06-01T09:39:18.000Z</time>
      </trkpt>
      <trkpt lat="44.12831" lon="5.86721">
        <ele>867</ele>
        <time>2021-06-01T09:39:19.000Z</time>
      </trkpt>
      <trkpt lat="44.12831" lon="5.86721">
        <ele>867</ele>
        <time>2021-06-01T09:39:20.000Z</time>
      </trkpt>
      <trkpt lat="44.12832" lon="5.86721">
        <ele>867</ele>
        <time>2021-06-01T09:39:21.000Z</time>
      </trkpt>
      <trkpt lat="44.12832" lon="5.86722">
        <ele>867</ele>
        <time>2021-06-01T09:39:22.000Z</time>
      </trkpt>
      <trkpt lat="44.12833" lon="5.86722">
        <ele>867</ele>
        <time>2021-06-01T09:39:23.000Z</time>
      </trkpt>
      <trkpt lat="44.12833" lon="5.86723">
        <ele>866</ele>
        <time>2021-06-01T09:39:24.000Z</time>
      </trkpt>
      <trkpt lat="44.12834" lon="5.86723">
        <ele>866</ele>
        <time>2021-06-01T09:39:25.000Z</time>
      </trkpt>
      <trkpt lat="44.12835" lon="5.86723">
        <ele>866</ele>
        <time>2021-06-01T09:39:26.000Z</time>
      </trkpt>
      <trkpt lat="44.12835" lon="5.86724">
        <ele>866</ele>
        <time>2021-06-01T09:39:27.000Z</time>
      </trkpt>
      <trkpt lat="44.12836" lon="5.86724">
        <ele>866</ele>
        <time>2021-06-01T09:39:28.000Z</time>
      </trkpt>
      <trkpt lat="44.12836" lon="5.86724">
        <ele>866</ele>
        <time>2021-06-01T09:39:29.000Z</time>
      </trkpt>
      <trkpt lat="44.12837" lon="5.86724">
        <ele>866</ele>
        <time>2021-06-01T09:39:30.000Z</time>
      </trkpt>
      <trkpt lat="44.12837" lon="5.86725">
        <ele>866</ele>
        <time>2021-06-01T09:39:31.000Z</time>
      </trkpt>
      <trkpt lat="44.12837" lon="5.86725">
        <ele>866</ele>
        <time>2021-06-01T09:39:32.000Z</time>
      </trkpt>
      <trkpt lat="44.12838" lon="5.86726">
        <ele>866</ele>
        <time>2021-06-01T09:39:33.000Z</time>
      </trkpt>
      <trkpt lat="44.12838" lon="5.86726">
        <ele>866</ele>
        <time>2021-06-01T09:39:34.000Z</time>
      </trkpt>
      <trkpt lat="44.12838" lon="5.86726">
        <ele>866</ele>
        <time>2021-06-01T09:39:35.000Z</time>
      </trkpt>
      <trkpt lat="44.12838" lon="5.86727">
        <ele>866</ele>
        <time>2021-06-01T09:39:36.000Z</time>
      </trkpt>
      <trkpt lat="44.12838" lon="5.86727">
        <ele>866</ele>
        <time>2021-06-01T09:39:37.000Z</time>
      </trkpt>
      <trkpt lat="44.12839" lon="5.86727">
        <ele>866</ele>
        <time>2021-06-01T09:39:38.000Z</time>
      </trkpt>
      <trkpt lat="44.12839" lon="5.86727">
        <ele>866</ele>
        <time>2021-06-01T09:39:39.000Z</time>
      </trkpt>
      <trkpt lat="44.1284" lon="5.86727">
        <ele>866</ele>
        <time>2021-06-01T09:39:40.000Z</time>
      </trkpt>
      <trkpt lat="44.1284" lon="5.86727">
        <ele>866</ele>
        <time>2021-06-01T09:39:41.000Z</time>
      </trkpt>
      <trkpt lat="44.12841" lon="5.86728">
        <ele>865</ele>
        <time>2021-06-01T09:39:42.000Z</time>
      </trkpt>
      <trkpt lat="44.12842" lon="5.86728">
        <ele>865</ele>
        <time>2021-06-01T09:39:43.000Z</time>
      </trkpt>
      <trkpt lat="44.12842" lon="5.86728">
        <ele>865</ele>
        <time>2021-06-01T09:39:44.000Z</time>
      </trkpt>
      <trkpt lat="44.12843" lon="5.86729">
        <ele>865</ele>
        <time>2021-06-01T09:39:45.000Z</time>
      </trkpt>
      <trkpt lat="44.12843" lon="5.86728">
        <ele>865</ele>
        <time>2021-06-01T09:39:46.000Z</time>
      </trkpt>
      <trkpt lat="44.12844" lon="5.86728">
        <ele>865</ele>
        <time>2021-06-01T09:39:47.000Z</time>
      </trkpt>
      <trkpt lat="44.12844" lon="5.86728">
        <ele>865</ele>
        <time>2021-06-01T09:39:48.000Z</time>
      </trkpt>
      <trkpt lat="44.12844" lon="5.86728">
        <ele>865</ele>
        <time>2021-06-01T09:39:49.000Z</time>
      </trkpt>
      <trkpt lat="44.12844" lon="5.86727">
        <ele>865</ele>
        <time>2021-06-01T09:39:50.000Z</time>
      </trkpt>
      <trkpt lat="44.12844" lon="5.86727">
        <ele>865</ele>
        <time>2021-06-01T09:39:51.000Z</time>
      </trkpt>
      <trkpt lat="44.12845" lon="5.86726">
        <ele>866</ele>
        <time>2021-06-01T09:39:52.000Z</time>
      </trkpt>
      <trkpt lat="44.12845" lon="5.86726">
        <ele>866</ele>
        <time>2021-06-01T09:39:53.000Z</time>
      </trkpt>
      <trkpt lat="44.12844" lon="5.86725">
        <ele>866</ele>
        <time>2021-06-01T09:39:54.000Z</time>
      </trkpt>
      <trkpt lat="44.12844" lon="5.86724">
        <ele>866</ele>
        <time>2021-06-01T09:39:55.000Z</time>
      </trkpt>
      <trkpt lat="44.12845" lon="5.86724">
        <ele>866</ele>
        <time>2021-06-01T09:39:56.000Z</time>
      </trkpt>
      <trkpt lat="44.12845" lon="5.86723">
        <ele>866</ele>
        <time>2021-06-01T09:39:57.000Z</time>
      </trkpt>
      <trkpt lat="44.12845" lon="5.86723">
        <ele>867</ele>
        <time>2021-06-01T09:39:58.000Z</time>
      </trkpt>
      <trkpt lat="44.12845" lon="5.86722">
        <ele>867</ele>
        <time>2021-06-01T09:39:59.000Z</time>
      </trkpt>
      <trkpt lat="44.12845" lon="5.86722">
        <ele>867</ele>
        <time>2021-06-01T09:40:00.000Z</time>
      </trkpt>
      <trkpt lat="44.12844" lon="5.86721">
        <ele>867</ele>
        <time>2021-06-01T09:40:01.000Z</time>
      </trkpt>
      <trkpt lat="44.12844" lon="5.86721">
        <ele>867</ele>
        <time>2021-06-01T09:40:02.000Z</time>
      </trkpt>
      <trkpt lat="44.12844" lon="5.8672">
        <ele>868</ele>
        <time>2021-06-01T09:40:03.000Z</time>
      </trkpt>
      <trkpt lat="44.12844" lon="5.8672">
        <ele>868</ele>
        <time>2021-06-01T09:40:04.000Z</time>
      </trkpt>
      <trkpt lat="44.12844" lon="5.86719">
        <ele>868</ele>
        <time>2021-06-01T09:40:05.000Z</time>
      </trkpt>
      <trkpt lat="44.12844" lon="5.86719">
        <ele>868</ele>
        <time>2021-06-01T09:40:06.000Z</time>
      </trkpt>
      <trkpt lat="44.12844" lon="5.86719">
        <ele>868</ele>
        <time>2021-06-01T09:40:07.000Z</time>
      </trkpt>
      <trkpt lat="44.12844" lon="5.86718">
        <ele>868</ele>
        <time>2021-06-01T09:40:08.000Z</time>
      </trkpt>
      <trkpt lat="44.12844" lon="5.86718">
        <ele>869</ele>
        <time>2021-06-01T09:40:09.000Z</time>
      </trkpt>
      <trkpt lat="44.12844" lon="5.86718">
        <ele>869</ele>
        <time>2021-06-01T09:40:10.000Z</time>
      </trkpt>
      <trkpt lat="44.12844" lon="5.86717">
        <ele>869</ele>
        <time>2021-06-01T09:40:11.000Z</time>
      </trkpt>
      <trkpt lat="44.12844" lon="5.86717">
        <ele>869</ele>
        <time>2021-06-01T09:40:12.000Z</time>
      </trkpt>
      <trkpt lat="44.12844" lon="5.86716">
        <ele>869</ele>
        <time>2021-06-01T09:40:13.000Z</time>
      </trkpt>
      <trkpt lat="44.12844" lon="5.86716">
        <ele>869</ele>
        <time>2021-06-01T09:40:14.000Z</time>
      </trkpt>
      <trkpt lat="44.12844" lon="5.86715">
        <ele>869</ele>
        <time>2021-06-01T09:40:15.000Z</time>
      </trkpt>
      <trkpt lat="44.12844" lon="5.86715">
        <ele>869</ele>
        <time>2021-06-01T09:40:16.000Z</time>
      </trkpt>
      <trkpt lat="44.12844" lon="5.86714">
        <ele>869</ele>
        <time>2021-06-01T09:40:17.000Z</time>
      </trkpt>
      <trkpt lat="44.12844" lon="5.86714">
        <ele>869</ele>
        <time>2021-06-01T09:40:18.000Z</time>
      </trkpt>
      <trkpt lat="44.12844" lon="5.86713">
        <ele>869</ele>
        <time>2021-06-01T09:40:19.000Z</time>
      </trkpt>
      <trkpt lat="44.12845" lon="5.86712">
        <ele>869</ele>
        <time>2021-06-01T09:40:20.000Z</time>
      </trkpt>
      <trkpt lat="44.12845" lon="5.86712">
        <ele>869</ele>
        <time>2021-06-01T09:40:21.000Z</time>
      </trkpt>
      <trkpt lat="44.12845" lon="5.86711">
        <ele>869</ele>
        <time>2021-06-01T09:40:22.000Z</time>
      </trkpt>
      <trkpt lat="44.12846" lon="5.86711">
        <ele>869</ele>
        <time>2021-06-01T09:40:23.000Z</time>
      </trkpt>
      <trkpt lat="44.12846" lon="5.86711">
        <ele>869</ele>
        <time>2021-06-01T09:40:24.000Z</time>
      </trkpt>
      <trkpt lat="44.12846" lon="5.86711">
        <ele>869</ele>
        <time>2021-06-01T09:40:25.000Z</time>
      </trkpt>
      <trkpt lat="44.12847" lon="5.8671">
        <ele>870</ele>
        <time>2021-06-01T09:40:26.000Z</time>
      </trkpt>
      <trkpt lat="44.12847" lon="5.8671">
        <ele>870</ele>
        <time>2021-06-01T09:40:27.000Z</time>
      </trkpt>
      <trkpt lat="44.12848" lon="5.86711">
        <ele>870</ele>
        <time>2021-06-01T09:40:28.000Z</time>
      </trkpt>
      <trkpt lat="44.12848" lon="5.86711">
        <ele>870</ele>
        <time>2021-06-01T09:40:29.000Z</time>
      </trkpt>
      <trkpt lat="44.12848" lon="5.86711">
        <ele>870</ele>
        <time>2021-06-01T09:40:30.000Z</time>
      </trkpt>
      <trkpt lat="44.12848" lon="5.86711">
        <ele>870</ele>
        <time>2021-06-01T09:40:31.000Z</time>
      </trkpt>
      <trkpt lat="44.12848" lon="5.86711">
        <ele>870</ele>
        <time>2021-06-01T09:40:32.000Z</time>
      </trkpt>
      <trkpt lat="44.12849" lon="5.86711">
        <ele>870</ele>
        <time>2021-06-01T09:40:33.000Z</time>
      </trkpt>
      <trkpt lat="44.12849" lon="5.86711">
        <ele>870</ele>
        <time>2021-06-01T09:40:34.000Z</time>
      </trkpt>
      <trkpt lat="44.12849" lon="5.86711">
        <ele>870</ele>
        <time>2021-06-01T09:40:35.000Z</time>
      </trkpt>
      <trkpt lat="44.12849" lon="5.86711">
        <ele>870</ele>
        <time>2021-06-01T09:40:36.000Z</time>
      </trkpt>
      <trkpt lat="44.1285" lon="5.8671">
        <ele>870</ele>
        <time>2021-06-01T09:40:37.000Z</time>
      </trkpt>
      <trkpt lat="44.1285" lon="5.8671">
        <ele>871</ele>
        <time>2021-06-01T09:40:38.000Z</time>
      </trkpt>
      <trkpt lat="44.12851" lon="5.8671">
        <ele>871</ele>
        <time>2021-06-01T09:40:39.000Z</time>
      </trkpt>
      <trkpt lat="44.12851" lon="5.8671">
        <ele>871</ele>
        <time>2021-06-01T09:40:40.000Z</time>
      </trkpt>
      <trkpt lat="44.12851" lon="5.8671">
        <ele>871</ele>
        <time>2021-06-01T09:40:41.000Z</time>
      </trkpt>
      <trkpt lat="44.12852" lon="5.86711">
        <ele>871</ele>
        <time>2021-06-01T09:40:42.000Z</time>
      </trkpt>
      <trkpt lat="44.12852" lon="5.86711">
        <ele>871</ele>
        <time>2021-06-01T09:40:43.000Z</time>
      </trkpt>
      <trkpt lat="44.12852" lon="5.86711">
        <ele>872</ele>
        <time>2021-06-01T09:40:44.000Z</time>
      </trkpt>
      <trkpt lat="44.12853" lon="5.86711">
        <ele>872</ele>
        <time>2021-06-01T09:40:45.000Z</time>
      </trkpt>
      <trkpt lat="44.12853" lon="5.86711">
        <ele>872</ele>
        <time>2021-06-01T09:40:46.000Z</time>
      </trkpt>
      <trkpt lat="44.12853" lon="5.86711">
        <ele>872</ele>
        <time>2021-06-01T09:40:47.000Z</time>
      </trkpt>
      <trkpt lat="44.12854" lon="5.86711">
        <ele>872</ele>
        <time>2021-06-01T09:40:48.000Z</time>
      </trkpt>
      <trkpt lat="44.12854" lon="5.86712">
        <ele>873</ele>
        <time>2021-06-01T09:40:49.000Z</time>
      </trkpt>
      <trkpt lat="44.12854" lon="5.86712">
        <ele>873</ele>
        <time>2021-06-01T09:40:50.000Z</time>
      </trkpt>
      <trkpt lat="44.12854" lon="5.86711">
        <ele>873</ele>
        <time>2021-06-01T09:40:51.000Z</time>
      </trkpt>
      <trkpt lat="44.12854" lon="5.86711">
        <ele>873</ele>
        <time>2021-06-01T09:40:52.000Z</time>
      </trkpt>
      <trkpt lat="44.12855" lon="5.86711">
        <ele>873</ele>
        <time>2021-06-01T09:40:53.000Z</time>
      </trkpt>
      <trkpt lat="44.12855" lon="5.86711">
        <ele>873</ele>
        <time>2021-06-01T09:40:54.000Z</time>
      </trkpt>
      <trkpt lat="44.12855" lon="5.86711">
        <ele>873</ele>
        <time>2021-06-01T09:40:55.000Z</time>
      </trkpt>
      <trkpt lat="44.12855" lon="5.86711">
        <ele>873</ele>
        <time>2021-06-01T09:40:56.000Z</time>
      </trkpt>
      <trkpt lat="44.12855" lon="5.86711">
        <ele>873</ele>
        <time>2021-06-01T09:40:57.000Z</time>
      </trkpt>
      <trkpt lat="44.12856" lon="5.86711">
        <ele>873</ele>
        <time>2021-06-01T09:40:58.000Z</time>
      </trkpt>
      <trkpt lat="44.12856" lon="5.86711">
        <ele>874</ele>
        <time>2021-06-01T09:40:59.000Z</time>
      </trkpt>
      <trkpt lat="44.12856" lon="5.86712">
        <ele>874</ele>
        <time>2021-06-01T09:41:00.000Z</time>
      </trkpt>
      <trkpt lat="44.12856" lon="5.86712">
        <ele>874</ele>
        <time>2021-06-01T09:41:01.000Z</time>
      </trkpt>
      <trkpt lat="44.12856" lon="5.86712">
        <ele>874</ele>
        <time>2021-06-01T09:41:02.000Z</time>
      </trkpt>
      <trkpt lat="44.12857" lon="5.86712">
        <ele>874</ele>
        <time>2021-06-01T09:41:03.000Z</time>
      </trkpt>
      <trkpt lat="44.12857" lon="5.86712">
        <ele>874</ele>
        <time>2021-06-01T09:41:04.000Z</time>
      </trkpt>
      <trkpt lat="44.12857" lon="5.86712">
        <ele>874</ele>
        <time>2021-06-01T09:41:05.000Z</time>
      </trkpt>
      <trkpt lat="44.12857" lon="5.86712">
        <ele>874</ele>
        <time>2021-06-01T09:41:06.000Z</time>
      </trkpt>
      <trkpt lat="44.12857" lon="5.86712">
        <ele>874</ele>
        <time>2021-06-01T09:41:07.000Z</time>
      </trkpt>
      <trkpt lat="44.12857" lon="5.86711">
        <ele>874</ele>
        <time>2021-06-01T09:41:08.000Z</time>
      </trkpt>
      <trkpt lat="44.12857" lon="5.86712">
        <ele>874</ele>
        <time>2021-06-01T09:41:09.000Z</time>
      </trkpt>
      <trkpt lat="44.12857" lon="5.86712">
        <ele>874</ele>
        <time>2021-06-01T09:41:10.000Z</time>
      </trkpt>
      <trkpt lat="44.12857" lon="5.86712">
        <ele>874</ele>
        <time>2021-06-01T09:41:11.000Z</time>
      </trkpt>
      <trkpt lat="44.12858" lon="5.86712">
        <ele>874</ele>
        <time>2021-06-01T09:41:12.000Z</time>
      </trkpt>
      <trkpt lat="44.12858" lon="5.86712">
        <ele>874</ele>
        <time>2021-06-01T09:41:13.000Z</time>
      </trkpt>
      <trkpt lat="44.12858" lon="5.86712">
        <ele>874</ele>
        <time>2021-06-01T09:41:14.000Z</time>
      </trkpt>
      <trkpt lat="44.12858" lon="5.86712">
        <ele>875</ele>
        <time>2021-06-01T09:41:15.000Z</time>
      </trkpt>
      <trkpt lat="44.12858" lon="5.86712">
        <ele>875</ele>
        <time>2021-06-01T09:41:16.000Z</time>
      </trkpt>
      <trkpt lat="44.12858" lon="5.86712">
        <ele>875</ele>
        <time>2021-06-01T09:41:17.000Z</time>
      </trkpt>
      <trkpt lat="44.12858" lon="5.86712">
        <ele>875</ele>
        <time>2021-06-01T09:41:18.000Z</time>
      </trkpt>
      <trkpt lat="44.12858" lon="5.86712">
        <ele>875</ele>
        <time>2021-06-01T09:41:19.000Z</time>
      </trkpt>
      <trkpt lat="44.12858" lon="5.86712">
        <ele>875</ele>
        <time>2021-06-01T09:41:20.000Z</time>
      </trkpt>
      <trkpt lat="44.12858" lon="5.86712">
        <ele>875</ele>
        <time>2021-06-01T09:41:21.000Z</time>
      </trkpt>
      <trkpt lat="44.12858" lon="5.86712">
        <ele>875</ele>
        <time>2021-06-01T09:41:22.000Z</time>
      </trkpt>
      <trkpt lat="44.12858" lon="5.86712">
        <ele>875</ele>
        <time>2021-06-01T09:41:23.000Z</time>
      </trkpt>
      <trkpt lat="44.12858" lon="5.86712">
        <ele>875</ele>
        <time>2021-06-01T09:41:24.000Z</time>
      </trkpt>
      <trkpt lat="44.12858" lon="5.86712">
        <ele>875</ele>
        <time>2021-06-01T09:41:25.000Z</time>
      </trkpt>
      <trkpt lat="44.12858" lon="5.86712">
        <ele>875</ele>
        <time>2021-06-01T09:41:26.000Z</time>
      </trkpt>
      <trkpt lat="44.12858" lon="5.86712">
        <ele>875</ele>
        <time>2021-06-01T09:41:27.000Z</time>
      </trkpt>
      <trkpt lat="44.12858" lon="5.86712">
        <ele>875</ele>
        <time>2021-06-01T09:41:28.000Z</time>
      </trkpt>
      <trkpt lat="44.12858" lon="5.86712">
        <ele>875</ele>
        <time>2021-06-01T09:41:29.000Z</time>
      </trkpt>
      <trkpt lat="44.12858" lon="5.86712">
        <ele>875</ele>
        <time>2021-06-01T09:41:30.000Z</time>
      </trkpt>
      <trkpt lat="44.12858" lon="5.86712">
        <ele>875</ele>
        <time>2021-06-01T09:41:31.000Z</time>
      </trkpt>
      <trkpt lat="44.12858" lon="5.86712">
        <ele>875</ele>
        <time>2021-06-01T09:41:32.000Z</time>
      </trkpt>
      <trkpt lat="44.12858" lon="5.86712">
        <ele>876</ele>
        <time>2021-06-01T09:41:33.000Z</time>
      </trkpt>
      <trkpt lat="44.12858" lon="5.86712">
        <ele>876</ele>
        <time>2021-06-01T09:41:34.000Z</time>
      </trkpt>
      <trkpt lat="44.12858" lon="5.86712">
        <ele>876</ele>
        <time>2021-06-01T09:41:35.000Z</time>
      </trkpt>
      <trkpt lat="44.12858" lon="5.86712">
        <ele>876</ele>
        <time>2021-06-01T09:41:36.000Z</time>
      </trkpt>
      <trkpt lat="44.12859" lon="5.86712">
        <ele>876</ele>
        <time>2021-06-01T09:41:37.000Z</time>
      </trkpt>
      <trkpt lat="44.12859" lon="5.86712">
        <ele>876</ele>
        <time>2021-06-01T09:41:38.000Z</time>
      </trkpt>
      <trkpt lat="44.1286" lon="5.86712">
        <ele>876</ele>
        <time>2021-06-01T09:41:39.000Z</time>
      </trkpt>
      <trkpt lat="44.1286" lon="5.86712">
        <ele>876</ele>
        <time>2021-06-01T09:41:40.000Z</time>
      </trkpt>
      <trkpt lat="44.1286" lon="5.86711">
        <ele>876</ele>
        <time>2021-06-01T09:41:41.000Z</time>
      </trkpt>
      <trkpt lat="44.1286" lon="5.86712">
        <ele>876</ele>
        <time>2021-06-01T09:41:42.000Z</time>
      </trkpt>
      <trkpt lat="44.1286" lon="5.86712">
        <ele>876</ele>
        <time>2021-06-01T09:41:43.000Z</time>
      </trkpt>
      <trkpt lat="44.1286" lon="5.86712">
        <ele>876</ele>
        <time>2021-06-01T09:41:44.000Z</time>
      </trkpt>
      <trkpt lat="44.12861" lon="5.86712">
        <ele>876</ele>
        <time>2021-06-01T09:41:45.000Z</time>
      </trkpt>
      <trkpt lat="44.12861" lon="5.86713">
        <ele>876</ele>
        <time>2021-06-01T09:41:46.000Z</time>
      </trkpt>
      <trkpt lat="44.12862" lon="5.86713">
        <ele>876</ele>
        <time>2021-06-01T09:41:47.000Z</time>
      </trkpt>
      <trkpt lat="44.12862" lon="5.86714">
        <ele>876</ele>
        <time>2021-06-01T09:41:48.000Z</time>
      </trkpt>
      <trkpt lat="44.12862" lon="5.86714">
        <ele>876</ele>
        <time>2021-06-01T09:41:49.000Z</time>
      </trkpt>
      <trkpt lat="44.12862" lon="5.86715">
        <ele>877</ele>
        <time>2021-06-01T09:41:50.000Z</time>
      </trkpt>
      <trkpt lat="44.12863" lon="5.86715">
        <ele>877</ele>
        <time>2021-06-01T09:41:51.000Z</time>
      </trkpt>
      <trkpt lat="44.12863" lon="5.86716">
        <ele>877</ele>
        <time>2021-06-01T09:41:52.000Z</time>
      </trkpt>
      <trkpt lat="44.12863" lon="5.86716">
        <ele>877</ele>
        <time>2021-06-01T09:41:53.000Z</time>
      </trkpt>
      <trkpt lat="44.12864" lon="5.86717">
        <ele>877</ele>
        <time>2021-06-01T09:41:54.000Z</time>
      </trkpt>
      <trkpt lat="44.12864" lon="5.86717">
        <ele>877</ele>
        <time>2021-06-01T09:41:55.000Z</time>
      </trkpt>
      <trkpt lat="44.12864" lon="5.86718">
        <ele>877</ele>
        <time>2021-06-01T09:41:56.000Z</time>
      </trkpt>
      <trkpt lat="44.12864" lon="5.86718">
        <ele>877</ele>
        <time>2021-06-01T09:41:57.000Z</time>
      </trkpt>
      <trkpt lat="44.12865" lon="5.86718">
        <ele>877</ele>
        <time>2021-06-01T09:41:58.000Z</time>
      </trkpt>
      <trkpt lat="44.12865" lon="5.86719">
        <ele>877</ele>
        <time>2021-06-01T09:41:59.000Z</time>
      </trkpt>
      <trkpt lat="44.12865" lon="5.86719">
        <ele>878</ele>
        <time>2021-06-01T09:42:00.000Z</time>
      </trkpt>
      <trkpt lat="44.12865" lon="5.8672">
        <ele>878</ele>
        <time>2021-06-01T09:42:01.000Z</time>
      </trkpt>
      <trkpt lat="44.12865" lon="5.8672">
        <ele>878</ele>
        <time>2021-06-01T09:42:02.000Z</time>
      </trkpt>
      <trkpt lat="44.12865" lon="5.8672">
        <ele>878</ele>
        <time>2021-06-01T09:42:03.000Z</time>
      </trkpt>
      <trkpt lat="44.12865" lon="5.8672">
        <ele>878</ele>
        <time>2021-06-01T09:42:04.000Z</time>
      </trkpt>
      <trkpt lat="44.12865" lon="5.86721">
        <ele>878</ele>
        <time>2021-06-01T09:42:05.000Z</time>
      </trkpt>
      <trkpt lat="44.12866" lon="5.86721">
        <ele>878</ele>
        <time>2021-06-01T09:42:06.000Z</time>
      </trkpt>
      <trkpt lat="44.12866" lon="5.86722">
        <ele>878</ele>
        <time>2021-06-01T09:42:07.000Z</time>
      </trkpt>
      <trkpt lat="44.12866" lon="5.86722">
        <ele>878</ele>
        <time>2021-06-01T09:42:08.000Z</time>
      </trkpt>
      <trkpt lat="44.12866" lon="5.86722">
        <ele>878</ele>
        <time>2021-06-01T09:42:09.000Z</time>
      </trkpt>
      <trkpt lat="44.12866" lon="5.86723">
        <ele>879</ele>
        <time>2021-06-01T09:42:10.000Z</time>
      </trkpt>
      <trkpt lat="44.12866" lon="5.86723">
        <ele>879</ele>
        <time>2021-06-01T09:42:11.000Z</time>
      </trkpt>
      <trkpt lat="44.12866" lon="5.86723">
        <ele>879</ele>
        <time>2021-06-01T09:42:12.000Z</time>
      </trkpt>
      <trkpt lat="44.12866" lon="5.86723">
        <ele>879</ele>
        <time>2021-06-01T09:42:13.000Z</time>
      </trkpt>
      <trkpt lat="44.12866" lon="5.86724">
        <ele>879</ele>
        <time>2021-06-01T09:42:14.000Z</time>
      </trkpt>
      <trkpt lat="44.12866" lon="5.86724">
        <ele>879</ele>
        <time>2021-06-01T09:42:15.000Z</time>
      </trkpt>
      <trkpt lat="44.12866" lon="5.86724">
        <ele>879</ele>
        <time>2021-06-01T09:42:16.000Z</time>
      </trkpt>
      <trkpt lat="44.12866" lon="5.86724">
        <ele>879</ele>
        <time>2021-06-01T09:42:17.000Z</time>
      </trkpt>
      <trkpt lat="44.12866" lon="5.86724">
        <ele>879</ele>
        <time>2021-06-01T09:42:18.000Z</time>
      </trkpt>
      <trkpt lat="44.12866" lon="5.86724">
        <ele>879</ele>
        <time>2021-06-01T09:42:19.000Z</time>
      </trkpt>
      <trkpt lat="44.12866" lon="5.86724">
        <ele>879</ele>
        <time>2021-06-01T09:42:20.000Z</time>
      </trkpt>
      <trkpt lat="44.12867" lon="5.86724">
        <ele>879</ele>
        <time>2021-06-01T09:42:21.000Z</time>
      </trkpt>
      <trkpt lat="44.12867" lon="5.86724">
        <ele>879</ele>
        <time>2021-06-01T09:42:22.000Z</time>
      </trkpt>
      <trkpt lat="44.12867" lon="5.86724">
        <ele>879</ele>
        <time>2021-06-01T09:42:23.000Z</time>
      </trkpt>
      <trkpt lat="44.12867" lon="5.86725">
        <ele>880</ele>
        <time>2021-06-01T09:42:24.000Z</time>
      </trkpt>
      <trkpt lat="44.12867" lon="5.86725">
        <ele>880</ele>
        <time>2021-06-01T09:42:25.000Z</time>
      </trkpt>
      <trkpt lat="44.12867" lon="5.86725">
        <ele>880</ele>
        <time>2021-06-01T09:42:26.000Z</time>
      </trkpt>
      <trkpt lat="44.12867" lon="5.86725">
        <ele>880</ele>
        <time>2021-06-01T09:42:27.000Z</time>
      </trkpt>
      <trkpt lat="44.12867" lon="5.86725">
        <ele>880</ele>
        <time>2021-06-01T09:42:28.000Z</time>
      </trkpt>
      <trkpt lat="44.12867" lon="5.86725">
        <ele>880</ele>
        <time>2021-06-01T09:42:29.000Z</time>
      </trkpt>
      <trkpt lat="44.12867" lon="5.86725">
        <ele>880</ele>
        <time>2021-06-01T09:42:30.000Z</time>
      </trkpt>
      <trkpt lat="44.12867" lon="5.86725">
        <ele>880</ele>
        <time>2021-06-01T09:42:31.000Z</time>
      </trkpt>
      <trkpt lat="44.12867" lon="5.86725">
        <ele>880</ele>
        <time>2021-06-01T09:42:32.000Z</time>
      </trkpt>
      <trkpt lat="44.12867" lon="5.86725">
        <ele>880</ele>
        <time>2021-06-01T09:42:33.000Z</time>
      </trkpt>
      <trkpt lat="44.12867" lon="5.86725">
        <ele>880</ele>
        <time>2021-06-01T09:42:34.000Z</time>
      </trkpt>
      <trkpt lat="44.12867" lon="5.86725">
        <ele>880</ele>
        <time>2021-06-01T09:42:35.000Z</time>
      </trkpt>
      <trkpt lat="44.12867" lon="5.86725">
        <ele>880</ele>
        <time>2021-06-01T09:42:36.000Z</time>
      </trkpt>
      <trkpt lat="44.12867" lon="5.86725">
        <ele>880</ele>
        <time>2021-06-01T09:42:37.000Z</time>
      </trkpt>
      <trkpt lat="44.12867" lon="5.86725">
        <ele>880</ele>
        <time>2021-06-01T09:42:38.000Z</time>
      </trkpt>
      <trkpt lat="44.12867" lon="5.86725">
        <ele>880</ele>
        <time>2021-06-01T09:42:39.000Z</time>
      </trkpt>
      <trkpt lat="44.12867" lon="5.86725">
        <ele>880</ele>
        <time>2021-06-01T09:42:40.000Z</time>
      </trkpt>
      <trkpt lat="44.12867" lon="5.86725">
        <ele>880</ele>
        <time>2021-06-01T09:42:41.000Z</time>
      </trkpt>
      <trkpt lat="44.12867" lon="5.86725">
        <ele>880</ele>
        <time>2021-06-01T09:42:42.000Z</time>
      </trkpt>
      <trkpt lat="44.12867" lon="5.86725">
        <ele>880</ele>
        <time>2021-06-01T09:42:43.000Z</time>
      </trkpt>
      <trkpt lat="44.12867" lon="5.86725">
        <ele>880</ele>
        <time>2021-06-01T09:42:44.000Z</time>
      </trkpt>
      <trkpt lat="44.12867" lon="5.86725">
        <ele>880</ele>
        <time>2021-06-01T09:42:45.000Z</time>
      </trkpt>
      <trkpt lat="44.12867" lon="5.86726">
        <ele>881</ele>
        <time>2021-06-01T09:42:46.000Z</time>
      </trkpt>
      <trkpt lat="44.12867" lon="5.86726">
        <ele>881</ele>
        <time>2021-06-01T09:42:47.000Z</time>
      </trkpt>
      <trkpt lat="44.12867" lon="5.86725">
        <ele>881</ele>
        <time>2021-06-01T09:42:48.000Z</time>
      </trkpt>
      <trkpt lat="44.12867" lon="5.86725">
        <ele>881</ele>
        <time>2021-06-01T09:42:49.000Z</time>
      </trkpt>
      <trkpt lat="44.12867" lon="5.86725">
        <ele>881</ele>
        <time>2021-06-01T09:42:50.000Z</time>
      </trkpt>
      <trkpt lat="44.12867" lon="5.86725">
        <ele>881</ele>
        <time>2021-06-01T09:42:51.000Z</time>
      </trkpt>
      <trkpt lat="44.12867" lon="5.86726">
        <ele>881</ele>
        <time>2021-06-01T09:42:52.000Z</time>
      </trkpt>
      <trkpt lat="44.12867" lon="5.86726">
        <ele>881</ele>
        <time>2021-06-01T09:42:53.000Z</time>
      </trkpt>
      <trkpt lat="44.12867" lon="5.86726">
        <ele>881</ele>
        <time>2021-06-01T09:42:54.000Z</time>
      </trkpt>
      <trkpt lat="44.12867" lon="5.86726">
        <ele>881</ele>
        <time>2021-06-01T09:42:55.000Z</time>
      </trkpt>
      <trkpt lat="44.12867" lon="5.86726">
        <ele>881</ele>
        <time>2021-06-01T09:42:56.000Z</time>
      </trkpt>
      <trkpt lat="44.12866" lon="5.86726">
        <ele>881</ele>
        <time>2021-06-01T09:42:57.000Z</time>
      </trkpt>
      <trkpt lat="44.12866" lon="5.86726">
        <ele>881</ele>
        <time>2021-06-01T09:42:58.000Z</time>
      </trkpt>
      <trkpt lat="44.12866" lon="5.86726">
        <ele>881</ele>
        <time>2021-06-01T09:42:59.000Z</time>
      </trkpt>
      <trkpt lat="44.12866" lon="5.86726">
        <ele>881</ele>
        <time>2021-06-01T09:43:00.000Z</time>
      </trkpt>
      <trkpt lat="44.12866" lon="5.86726">
        <ele>881</ele>
        <time>2021-06-01T09:43:01.000Z</time>
      </trkpt>
      <trkpt lat="44.12866" lon="5.86726">
        <ele>881</ele>
        <time>2021-06-01T09:43:02.000Z</time>
      </trkpt>
      <trkpt lat="44.12866" lon="5.86726">
        <ele>881</ele>
        <time>2021-06-01T09:43:03.000Z</time>
      </trkpt>
      <trkpt lat="44.12866" lon="5.86726">
        <ele>881</ele>
        <time>2021-06-01T09:43:04.000Z</time>
      </trkpt>
      <trkpt lat="44.12866" lon="5.86726">
        <ele>881</ele>
        <time>2021-06-01T09:43:05.000Z</time>
      </trkpt>
      <trkpt lat="44.12866" lon="5.86726">
        <ele>881</ele>
        <time>2021-06-01T09:43:06.000Z</time>
      </trkpt>
      <trkpt lat="44.12866" lon="5.86726">
        <ele>881</ele>
        <time>2021-06-01T09:43:07.000Z</time>
      </trkpt>
      <trkpt lat="44.12866" lon="5.86726">
        <ele>881</ele>
        <time>2021-06-01T09:43:08.000Z</time>
      </trkpt>
      <trkpt lat="44.12866" lon="5.86726">
        <ele>881</ele>
        <time>2021-06-01T09:43:09.000Z</time>
      </trkpt>
      <trkpt lat="44.12866" lon="5.86726">
        <ele>881</ele>
        <time>2021-06-01T09:43:10.000Z</time>
      </trkpt>
      <trkpt lat="44.12866" lon="5.86726">
        <ele>881</ele>
        <time>2021-06-01T09:43:11.000Z</time>
      </trkpt>
      <trkpt lat="44.12866" lon="5.86726">
        <ele>881</ele>
        <time>2021-06-01T09:43:12.000Z</time>
      </trkpt>
      <trkpt lat="44.12866" lon="5.86726">
        <ele>881</ele>
        <time>2021-06-01T09:43:13.000Z</time>
      </trkpt>
      <trkpt lat="44.12866" lon="5.86726">
        <ele>881</ele>
        <time>2021-06-01T09:43:14.000Z</time>
      </trkpt>
      <trkpt lat="44.12866" lon="5.86726">
        <ele>881</ele>
        <time>2021-06-01T09:43:15.000Z</time>
      </trkpt>
      <trkpt lat="44.12866" lon="5.86726">
        <ele>881</ele>
        <time>2021-06-01T09:43:16.000Z</time>
      </trkpt>
      <trkpt lat="44.12866" lon="5.86726">
        <ele>881</ele>
        <time>2021-06-01T09:43:17.000Z</time>
      </trkpt>
      <trkpt lat="44.12866" lon="5.86726">
        <ele>881</ele>
        <time>2021-06-01T09:43:18.000Z</time>
      </trkpt>
      <trkpt lat="44.12866" lon="5.86726">
        <ele>881</ele>
        <time>2021-06-01T09:43:19.000Z</time>
      </trkpt>
      <trkpt lat="44.12866" lon="5.86726">
        <ele>881</ele>
        <time>2021-06-01T09:43:20.000Z</time>
      </trkpt>
      <trkpt lat="44.12866" lon="5.86726">
        <ele>881</ele>
        <time>2021-06-01T09:43:21.000Z</time>
      </trkpt>
      <trkpt lat="44.12866" lon="5.86726">
        <ele>881</ele>
        <time>2021-06-01T09:43:22.000Z</time>
      </trkpt>
      <trkpt lat="44.12866" lon="5.86726">
        <ele>881</ele>
        <time>2021-06-01T09:43:23.000Z</time>
      </trkpt>
      <trkpt lat="44.12866" lon="5.86726">
        <ele>881</ele>
        <time>2021-06-01T09:43:24.000Z</time>
      </trkpt>
      <trkpt lat="44.12866" lon="5.86726">
        <ele>881</ele>
        <time>2021-06-01T09:43:25.000Z</time>
      </trkpt>
      <trkpt lat="44.12866" lon="5.86726">
        <ele>881</ele>
        <time>2021-06-01T09:43:26.000Z</time>
      </trkpt>
      <trkpt lat="44.12866" lon="5.86726">
        <ele>881</ele>
        <time>2021-06-01T09:43:27.000Z</time>
      </trkpt>
      <trkpt lat="44.12866" lon="5.86726">
        <ele>881</ele>
        <time>2021-06-01T09:43:28.000Z</time>
      </trkpt>
      <trkpt lat="44.12866" lon="5.86726">
        <ele>881</ele>
        <time>2021-06-01T09:43:29.000Z</time>
      </trkpt>
      <trkpt lat="44.12867" lon="5.86726">
        <ele>881</ele>
        <time>2021-06-01T09:43:30.000Z</time>
      </trkpt>
      <trkpt lat="44.12867" lon="5.86726">
        <ele>881</ele>
        <time>2021-06-01T09:43:31.000Z</time>
      </trkpt>
      <trkpt lat="44.12867" lon="5.86727">
        <ele>881</ele>
        <time>2021-06-01T09:43:32.000Z</time>
      </trkpt>
      <trkpt lat="44.12867" lon="5.86727">
        <ele>881</ele>
        <time>2021-06-01T09:43:33.000Z</time>
      </trkpt>
      <trkpt lat="44.12867" lon="5.86727">
        <ele>881</ele>
        <time>2021-06-01T09:43:34.000Z</time>
      </trkpt>
      <trkpt lat="44.12867" lon="5.86727">
        <ele>882</ele>
        <time>2021-06-01T09:43:35.000Z</time>
      </trkpt>
      <trkpt lat="44.12867" lon="5.86727">
        <ele>882</ele>
        <time>2021-06-01T09:43:36.000Z</time>
      </trkpt>
      <trkpt lat="44.12867" lon="5.86727">
        <ele>882</ele>
        <time>2021-06-01T09:43:37.000Z</time>
      </trkpt>
      <trkpt lat="44.12867" lon="5.86726">
        <ele>882</ele>
        <time>2021-06-01T09:43:38.000Z</time>
      </trkpt>
      <trkpt lat="44.12867" lon="5.86726">
        <ele>882</ele>
        <time>2021-06-01T09:43:39.000Z</time>
      </trkpt>
      <trkpt lat="44.12867" lon="5.86726">
        <ele>882</ele>
        <time>2021-06-01T09:43:40.000Z</time>
      </trkpt>
      <trkpt lat="44.12867" lon="5.86726">
        <ele>882</ele>
        <time>2021-06-01T09:43:41.000Z</time>
      </trkpt>
      <trkpt lat="44.12868" lon="5.86727">
        <ele>882</ele>
        <time>2021-06-01T09:43:42.000Z</time>
      </trkpt>
      <trkpt lat="44.12868" lon="5.86727">
        <ele>882</ele>
        <time>2021-06-01T09:43:43.000Z</time>
      </trkpt>
      <trkpt lat="44.12868" lon="5.86727">
        <ele>882</ele>
        <time>2021-06-01T09:43:44.000Z</time>
      </trkpt>
      <trkpt lat="44.12868" lon="5.86727">
        <ele>882</ele>
        <time>2021-06-01T09:43:45.000Z</time>
      </trkpt>
      <trkpt lat="44.12869" lon="5.86728">
        <ele>882</ele>
        <time>2021-06-01T09:43:46.000Z</time>
      </trkpt>
      <trkpt lat="44.12869" lon="5.86728">
        <ele>883</ele>
        <time>2021-06-01T09:43:47.000Z</time>
      </trkpt>
      <trkpt lat="44.12869" lon="5.86728">
        <ele>883</ele>
        <time>2021-06-01T09:43:48.000Z</time>
      </trkpt>
      <trkpt lat="44.12869" lon="5.86729">
        <ele>883</ele>
        <time>2021-06-01T09:43:49.000Z</time>
      </trkpt>
      <trkpt lat="44.12869" lon="5.86729">
        <ele>883</ele>
        <time>2021-06-01T09:43:50.000Z</time>
      </trkpt>
      <trkpt lat="44.12869" lon="5.8673">
        <ele>883</ele>
        <time>2021-06-01T09:43:51.000Z</time>
      </trkpt>
      <trkpt lat="44.1287" lon="5.8673">
        <ele>883</ele>
        <time>2021-06-01T09:43:52.000Z</time>
      </trkpt>
      <trkpt lat="44.1287" lon="5.8673">
        <ele>883</ele>
        <time>2021-06-01T09:43:53.000Z</time>
      </trkpt>
      <trkpt lat="44.1287" lon="5.8673">
        <ele>883</ele>
        <time>2021-06-01T09:43:54.000Z</time>
      </trkpt>
      <trkpt lat="44.1287" lon="5.8673">
        <ele>883</ele>
        <time>2021-06-01T09:43:55.000Z</time>
      </trkpt>
      <trkpt lat="44.1287" lon="5.8673">
        <ele>883</ele>
        <time>2021-06-01T09:43:56.000Z</time>
      </trkpt>
      <trkpt lat="44.1287" lon="5.86729">
        <ele>883</ele>
        <time>2021-06-01T09:43:57.000Z</time>
      </trkpt>
      <trkpt lat="44.1287" lon="5.86729">
        <ele>883</ele>
        <time>2021-06-01T09:43:58.000Z</time>
      </trkpt>
      <trkpt lat="44.1287" lon="5.86728">
        <ele>883</ele>
        <time>2021-06-01T09:43:59.000Z</time>
      </trkpt>
      <trkpt lat="44.1287" lon="5.86728">
        <ele>883</ele>
        <time>2021-06-01T09:44:00.000Z</time>
      </trkpt>
      <trkpt lat="44.12871" lon="5.86727">
        <ele>883</ele>
        <time>2021-06-01T09:44:01.000Z</time>
      </trkpt>
      <trkpt lat="44.12871" lon="5.86727">
        <ele>883</ele>
        <time>2021-06-01T09:44:02.000Z</time>
      </trkpt>
      <trkpt lat="44.12871" lon="5.86726">
        <ele>883</ele>
        <time>2021-06-01T09:44:03.000Z</time>
      </trkpt>
      <trkpt lat="44.12872" lon="5.86726">
        <ele>883</ele>
        <time>2021-06-01T09:44:04.000Z</time>
      </trkpt>
      <trkpt lat="44.12872" lon="5.86726">
        <ele>883</ele>
        <time>2021-06-01T09:44:05.000Z</time>
      </trkpt>
      <trkpt lat="44.12873" lon="5.86726">
        <ele>883</ele>
        <time>2021-06-01T09:44:06.000Z</time>
      </trkpt>
      <trkpt lat="44.12873" lon="5.86725">
        <ele>883</ele>
        <time>2021-06-01T09:44:07.000Z</time>
      </trkpt>
      <trkpt lat="44.12874" lon="5.86725">
        <ele>883</ele>
        <time>2021-06-01T09:44:08.000Z</time>
      </trkpt>
      <trkpt lat="44.12875" lon="5.86725">
        <ele>883</ele>
        <time>2021-06-01T09:44:09.000Z</time>
      </trkpt>
      <trkpt lat="44.12875" lon="5.86725">
        <ele>883</ele>
        <time>2021-06-01T09:44:10.000Z</time>
      </trkpt>
      <trkpt lat="44.12876" lon="5.86725">
        <ele>883</ele>
        <time>2021-06-01T09:44:11.000Z</time>
      </trkpt>
      <trkpt lat="44.12876" lon="5.86725">
        <ele>883</ele>
        <time>2021-06-01T09:44:12.000Z</time>
      </trkpt>
      <trkpt lat="44.12877" lon="5.86725">
        <ele>883</ele>
        <time>2021-06-01T09:44:13.000Z</time>
      </trkpt>
      <trkpt lat="44.12877" lon="5.86726">
        <ele>883</ele>
        <time>2021-06-01T09:44:14.000Z</time>
      </trkpt>
      <trkpt lat="44.12878" lon="5.86726">
        <ele>883</ele>
        <time>2021-06-01T09:44:15.000Z</time>
      </trkpt>
      <trkpt lat="44.12878" lon="5.86726">
        <ele>883</ele>
        <time>2021-06-01T09:44:16.000Z</time>
      </trkpt>
      <trkpt lat="44.12879" lon="5.86726">
        <ele>884</ele>
        <time>2021-06-01T09:44:17.000Z</time>
      </trkpt>
      <trkpt lat="44.12879" lon="5.86726">
        <ele>884</ele>
        <time>2021-06-01T09:44:18.000Z</time>
      </trkpt>
      <trkpt lat="44.1288" lon="5.86725">
        <ele>884</ele>
        <time>2021-06-01T09:44:19.000Z</time>
      </trkpt>
      <trkpt lat="44.1288" lon="5.86725">
        <ele>884</ele>
        <time>2021-06-01T09:44:20.000Z</time>
      </trkpt>
      <trkpt lat="44.1288" lon="5.86725">
        <ele>884</ele>
        <time>2021-06-01T09:44:21.000Z</time>
      </trkpt>
      <trkpt lat="44.12881" lon="5.86724">
        <ele>884</ele>
        <time>2021-06-01T09:44:22.000Z</time>
      </trkpt>
      <trkpt lat="44.12881" lon="5.86724">
        <ele>884</ele>
        <time>2021-06-01T09:44:23.000Z</time>
      </trkpt>
      <trkpt lat="44.12882" lon="5.86724">
        <ele>884</ele>
        <time>2021-06-01T09:44:24.000Z</time>
      </trkpt>
      <trkpt lat="44.12882" lon="5.86723">
        <ele>884</ele>
        <time>2021-06-01T09:44:25.000Z</time>
      </trkpt>
      <trkpt lat="44.12883" lon="5.86723">
        <ele>884</ele>
        <time>2021-06-01T09:44:26.000Z</time>
      </trkpt>
      <trkpt lat="44.12883" lon="5.86722">
        <ele>884</ele>
        <time>2021-06-01T09:44:27.000Z</time>
      </trkpt>
      <trkpt lat="44.12883" lon="5.86722">
        <ele>884</ele>
        <time>2021-06-01T09:44:28.000Z</time>
      </trkpt>
      <trkpt lat="44.12884" lon="5.86721">
        <ele>884</ele>
        <time>2021-06-01T09:44:29.000Z</time>
      </trkpt>
      <trkpt lat="44.12884" lon="5.86721">
        <ele>884</ele>
        <time>2021-06-01T09:44:30.000Z</time>
      </trkpt>
      <trkpt lat="44.12884" lon="5.8672">
        <ele>885</ele>
        <time>2021-06-01T09:44:31.000Z</time>
      </trkpt>
      <trkpt lat="44.12885" lon="5.8672">
        <ele>885</ele>
        <time>2021-06-01T09:44:32.000Z</time>
      </trkpt>
      <trkpt lat="44.12885" lon="5.86719">
        <ele>885</ele>
        <time>2021-06-01T09:44:33.000Z</time>
      </trkpt>
      <trkpt lat="44.12886" lon="5.86718">
        <ele>885</ele>
        <time>2021-06-01T09:44:34.000Z</time>
      </trkpt>
      <trkpt lat="44.12886" lon="5.86718">
        <ele>885</ele>
        <time>2021-06-01T09:44:35.000Z</time>
      </trkpt>
      <trkpt lat="44.12887" lon="5.86718">
        <ele>885</ele>
        <time>2021-06-01T09:44:36.000Z</time>
      </trkpt>
      <trkpt lat="44.12887" lon="5.86717">
        <ele>885</ele>
        <time>2021-06-01T09:44:37.000Z</time>
      </trkpt>
      <trkpt lat="44.12887" lon="5.86717">
        <ele>885</ele>
        <time>2021-06-01T09:44:38.000Z</time>
      </trkpt>
      <trkpt lat="44.12887" lon="5.86717">
        <ele>885</ele>
        <time>2021-06-01T09:44:39.000Z</time>
      </trkpt>
      <trkpt lat="44.12887" lon="5.86717">
        <ele>885</ele>
        <time>2021-06-01T09:44:40.000Z</time>
      </trkpt>
      <trkpt lat="44.12888" lon="5.86717">
        <ele>885</ele>
        <time>2021-06-01T09:44:41.000Z</time>
      </trkpt>
      <trkpt lat="44.12888" lon="5.86718">
        <ele>886</ele>
        <time>2021-06-01T09:44:42.000Z</time>
      </trkpt>
      <trkpt lat="44.12889" lon="5.86718">
        <ele>886</ele>
        <time>2021-06-01T09:44:43.000Z</time>
      </trkpt>
      <trkpt lat="44.12889" lon="5.86718">
        <ele>886</ele>
        <time>2021-06-01T09:44:44.000Z</time>
      </trkpt>
      <trkpt lat="44.1289" lon="5.86718">
        <ele>886</ele>
        <time>2021-06-01T09:44:45.000Z</time>
      </trkpt>
      <trkpt lat="44.1289" lon="5.86718">
        <ele>886</ele>
        <time>2021-06-01T09:44:46.000Z</time>
      </trkpt>
      <trkpt lat="44.12891" lon="5.86718">
        <ele>886</ele>
        <time>2021-06-01T09:44:47.000Z</time>
      </trkpt>
      <trkpt lat="44.12891" lon="5.86718">
        <ele>886</ele>
        <time>2021-06-01T09:44:48.000Z</time>
      </trkpt>
      <trkpt lat="44.12891" lon="5.86718">
        <ele>887</ele>
        <time>2021-06-01T09:44:49.000Z</time>
      </trkpt>
      <trkpt lat="44.12892" lon="5.86718">
        <ele>887</ele>
        <time>2021-06-01T09:44:50.000Z</time>
      </trkpt>
      <trkpt lat="44.12892" lon="5.86718">
        <ele>887</ele>
        <time>2021-06-01T09:44:51.000Z</time>
      </trkpt>
      <trkpt lat="44.12893" lon="5.86718">
        <ele>887</ele>
        <time>2021-06-01T09:44:52.000Z</time>
      </trkpt>
      <trkpt lat="44.12893" lon="5.86719">
        <ele>887</ele>
        <time>2021-06-01T09:44:53.000Z</time>
      </trkpt>
      <trkpt lat="44.12893" lon="5.86719">
        <ele>887</ele>
        <time>2021-06-01T09:44:54.000Z</time>
      </trkpt>
      <trkpt lat="44.12894" lon="5.86719">
        <ele>887</ele>
        <time>2021-06-01T09:44:55.000Z</time>
      </trkpt>
      <trkpt lat="44.12894" lon="5.86719">
        <ele>887</ele>
        <time>2021-06-01T09:44:56.000Z</time>
      </trkpt>
      <trkpt lat="44.12895" lon="5.8672">
        <ele>888</ele>
        <time>2021-06-01T09:44:57.000Z</time>
      </trkpt>
      <trkpt lat="44.12896" lon="5.8672">
        <ele>888</ele>
        <time>2021-06-01T09:44:58.000Z</time>
      </trkpt>
      <trkpt lat="44.12896" lon="5.86721">
        <ele>888</ele>
        <time>2021-06-01T09:44:59.000Z</time>
      </trkpt>
      <trkpt lat="44.12896" lon="5.86721">
        <ele>888</ele>
        <time>2021-06-01T09:45:00.000Z</time>
      </trkpt>
      <trkpt lat="44.12897" lon="5.86722">
        <ele>888</ele>
        <time>2021-06-01T09:45:01.000Z</time>
      </trkpt>
      <trkpt lat="44.12897" lon="5.86722">
        <ele>889</ele>
        <time>2021-06-01T09:45:02.000Z</time>
      </trkpt>
      <trkpt lat="44.12897" lon="5.86722">
        <ele>889</ele>
        <time>2021-06-01T09:45:03.000Z</time>
      </trkpt>
      <trkpt lat="44.12898" lon="5.86723">
        <ele>889</ele>
        <time>2021-06-01T09:45:04.000Z</time>
      </trkpt>
      <trkpt lat="44.12898" lon="5.86723">
        <ele>889</ele>
        <time>2021-06-01T09:45:05.000Z</time>
      </trkpt>
      <trkpt lat="44.12898" lon="5.86724">
        <ele>889</ele>
        <time>2021-06-01T09:45:06.000Z</time>
      </trkpt>
      <trkpt lat="44.12899" lon="5.86725">
        <ele>889</ele>
        <time>2021-06-01T09:45:07.000Z</time>
      </trkpt>
      <trkpt lat="44.12899" lon="5.86725">
        <ele>890</ele>
        <time>2021-06-01T09:45:08.000Z</time>
      </trkpt>
      <trkpt lat="44.12899" lon="5.86726">
        <ele>890</ele>
        <time>2021-06-01T09:45:09.000Z</time>
      </trkpt>
      <trkpt lat="44.129" lon="5.86726">
        <ele>890</ele>
        <time>2021-06-01T09:45:10.000Z</time>
      </trkpt>
      <trkpt lat="44.129" lon="5.86726">
        <ele>890</ele>
        <time>2021-06-01T09:45:11.000Z</time>
      </trkpt>
      <trkpt lat="44.129" lon="5.86727">
        <ele>891</ele>
        <time>2021-06-01T09:45:12.000Z</time>
      </trkpt>
      <trkpt lat="44.12901" lon="5.86727">
        <ele>891</ele>
        <time>2021-06-01T09:45:13.000Z</time>
      </trkpt>
      <trkpt lat="44.12901" lon="5.86728">
        <ele>891</ele>
        <time>2021-06-01T09:45:14.000Z</time>
      </trkpt>
      <trkpt lat="44.12901" lon="5.86728">
        <ele>891</ele>
        <time>2021-06-01T09:45:15.000Z</time>
      </trkpt>
      <trkpt lat="44.12902" lon="5.86729">
        <ele>891</ele>
        <time>2021-06-01T09:45:16.000Z</time>
      </trkpt>
      <trkpt lat="44.12902" lon="5.86729">
        <ele>892</ele>
        <time>2021-06-01T09:45:17.000Z</time>
      </trkpt>
      <trkpt lat="44.12902" lon="5.86729">
        <ele>892</ele>
        <time>2021-06-01T09:45:18.000Z</time>
      </trkpt>
      <trkpt lat="44.12903" lon="5.8673">
        <ele>892</ele>
        <time>2021-06-01T09:45:19.000Z</time>
      </trkpt>
      <trkpt lat="44.12903" lon="5.8673">
        <ele>892</ele>
        <time>2021-06-01T09:45:20.000Z</time>
      </trkpt>
      <trkpt lat="44.12904" lon="5.8673">
        <ele>892</ele>
        <time>2021-06-01T09:45:21.000Z</time>
      </trkpt>
      <trkpt lat="44.12904" lon="5.8673">
        <ele>892</ele>
        <time>2021-06-01T09:45:22.000Z</time>
      </trkpt>
      <trkpt lat="44.12904" lon="5.86731">
        <ele>892</ele>
        <time>2021-06-01T09:45:23.000Z</time>
      </trkpt>
      <trkpt lat="44.12905" lon="5.86731">
        <ele>892</ele>
        <time>2021-06-01T09:45:24.000Z</time>
      </trkpt>
      <trkpt lat="44.12905" lon="5.86732">
        <ele>892</ele>
        <time>2021-06-01T09:45:25.000Z</time>
      </trkpt>
      <trkpt lat="44.12905" lon="5.86732">
        <ele>892</ele>
        <time>2021-06-01T09:45:26.000Z</time>
      </trkpt>
      <trkpt lat="44.12905" lon="5.86733">
        <ele>893</ele>
        <time>2021-06-01T09:45:27.000Z</time>
      </trkpt>
      <trkpt lat="44.12906" lon="5.86734">
        <ele>893</ele>
        <time>2021-06-01T09:45:28.000Z</time>
      </trkpt>
      <trkpt lat="44.12906" lon="5.86735">
        <ele>893</ele>
        <time>2021-06-01T09:45:29.000Z</time>
      </trkpt>
      <trkpt lat="44.12906" lon="5.86735">
        <ele>893</ele>
        <time>2021-06-01T09:45:30.000Z</time>
      </trkpt>
      <trkpt lat="44.12906" lon="5.86736">
        <ele>893</ele>
        <time>2021-06-01T09:45:31.000Z</time>
      </trkpt>
      <trkpt lat="44.12907" lon="5.86737">
        <ele>893</ele>
        <time>2021-06-01T09:45:32.000Z</time>
      </trkpt>
      <trkpt lat="44.12907" lon="5.86738">
        <ele>893</ele>
        <time>2021-06-01T09:45:33.000Z</time>
      </trkpt>
      <trkpt lat="44.12907" lon="5.86739">
        <ele>894</ele>
        <time>2021-06-01T09:45:34.000Z</time>
      </trkpt>
      <trkpt lat="44.12908" lon="5.86739">
        <ele>894</ele>
        <time>2021-06-01T09:45:35.000Z</time>
      </trkpt>
      <trkpt lat="44.12908" lon="5.8674">
        <ele>894</ele>
        <time>2021-06-01T09:45:36.000Z</time>
      </trkpt>
      <trkpt lat="44.12908" lon="5.8674">
        <ele>894</ele>
        <time>2021-06-01T09:45:37.000Z</time>
      </trkpt>
      <trkpt lat="44.12909" lon="5.8674">
        <ele>894</ele>
        <time>2021-06-01T09:45:38.000Z</time>
      </trkpt>
      <trkpt lat="44.12909" lon="5.86741">
        <ele>894</ele>
        <time>2021-06-01T09:45:39.000Z</time>
      </trkpt>
      <trkpt lat="44.1291" lon="5.86741">
        <ele>895</ele>
        <time>2021-06-01T09:45:40.000Z</time>
      </trkpt>
      <trkpt lat="44.1291" lon="5.86742">
        <ele>895</ele>
        <time>2021-06-01T09:45:41.000Z</time>
      </trkpt>
      <trkpt lat="44.12911" lon="5.86743">
        <ele>895</ele>
        <time>2021-06-01T09:45:42.000Z</time>
      </trkpt>
      <trkpt lat="44.12911" lon="5.86744">
        <ele>895</ele>
        <time>2021-06-01T09:45:43.000Z</time>
      </trkpt>
      <trkpt lat="44.12911" lon="5.86745">
        <ele>896</ele>
        <time>2021-06-01T09:45:44.000Z</time>
      </trkpt>
      <trkpt lat="44.12911" lon="5.86746">
        <ele>896</ele>
        <time>2021-06-01T09:45:45.000Z</time>
      </trkpt>
      <trkpt lat="44.12911" lon="5.86746">
        <ele>896</ele>
        <time>2021-06-01T09:45:46.000Z</time>
      </trkpt>
      <trkpt lat="44.12911" lon="5.86747">
        <ele>896</ele>
        <time>2021-06-01T09:45:47.000Z</time>
      </trkpt>
      <trkpt lat="44.12911" lon="5.86748">
        <ele>896</ele>
        <time>2021-06-01T09:45:48.000Z</time>
      </trkpt>
      <trkpt lat="44.12912" lon="5.86749">
        <ele>896</ele>
        <time>2021-06-01T09:45:49.000Z</time>
      </trkpt>
      <trkpt lat="44.12911" lon="5.8675">
        <ele>896</ele>
        <time>2021-06-01T09:45:50.000Z</time>
      </trkpt>
      <trkpt lat="44.12911" lon="5.86751">
        <ele>896</ele>
        <time>2021-06-01T09:45:51.000Z</time>
      </trkpt>
      <trkpt lat="44.12911" lon="5.86752">
        <ele>896</ele>
        <time>2021-06-01T09:45:52.000Z</time>
      </trkpt>
      <trkpt lat="44.12911" lon="5.86753">
        <ele>896</ele>
        <time>2021-06-01T09:45:53.000Z</time>
      </trkpt>
      <trkpt lat="44.12911" lon="5.86754">
        <ele>896</ele>
        <time>2021-06-01T09:45:54.000Z</time>
      </trkpt>
      <trkpt lat="44.12911" lon="5.86755">
        <ele>896</ele>
        <time>2021-06-01T09:45:55.000Z</time>
      </trkpt>
      <trkpt lat="44.12911" lon="5.86756">
        <ele>897</ele>
        <time>2021-06-01T09:45:56.000Z</time>
      </trkpt>
      <trkpt lat="44.12911" lon="5.86757">
        <ele>897</ele>
        <time>2021-06-01T09:45:57.000Z</time>
      </trkpt>
      <trkpt lat="44.12911" lon="5.86758">
        <ele>897</ele>
        <time>2021-06-01T09:45:58.000Z</time>
      </trkpt>
      <trkpt lat="44.12911" lon="5.86759">
        <ele>897</ele>
        <time>2021-06-01T09:45:59.000Z</time>
      </trkpt>
      <trkpt lat="44.12911" lon="5.8676">
        <ele>897</ele>
        <time>2021-06-01T09:46:00.000Z</time>
      </trkpt>
      <trkpt lat="44.12911" lon="5.8676">
        <ele>897</ele>
        <time>2021-06-01T09:46:01.000Z</time>
      </trkpt>
      <trkpt lat="44.12911" lon="5.86761">
        <ele>897</ele>
        <time>2021-06-01T09:46:02.000Z</time>
      </trkpt>
      <trkpt lat="44.12911" lon="5.86762">
        <ele>897</ele>
        <time>2021-06-01T09:46:03.000Z</time>
      </trkpt>
      <trkpt lat="44.12911" lon="5.86763">
        <ele>897</ele>
        <time>2021-06-01T09:46:04.000Z</time>
      </trkpt>
      <trkpt lat="44.12911" lon="5.86764">
        <ele>897</ele>
        <time>2021-06-01T09:46:05.000Z</time>
      </trkpt>
      <trkpt lat="44.12911" lon="5.86765">
        <ele>897</ele>
        <time>2021-06-01T09:46:06.000Z</time>
      </trkpt>
      <trkpt lat="44.12912" lon="5.86766">
        <ele>898</ele>
        <time>2021-06-01T09:46:07.000Z</time>
      </trkpt>
      <trkpt lat="44.12912" lon="5.86766">
        <ele>898</ele>
        <time>2021-06-01T09:46:08.000Z</time>
      </trkpt>
      <trkpt lat="44.12912" lon="5.86767">
        <ele>898</ele>
        <time>2021-06-01T09:46:09.000Z</time>
      </trkpt>
      <trkpt lat="44.12912" lon="5.86768">
        <ele>898</ele>
        <time>2021-06-01T09:46:10.000Z</time>
      </trkpt>
      <trkpt lat="44.12912" lon="5.86769">
        <ele>899</ele>
        <time>2021-06-01T09:46:11.000Z</time>
      </trkpt>
      <trkpt lat="44.12912" lon="5.8677">
        <ele>899</ele>
        <time>2021-06-01T09:46:12.000Z</time>
      </trkpt>
      <trkpt lat="44.12912" lon="5.8677">
        <ele>899</ele>
        <time>2021-06-01T09:46:13.000Z</time>
      </trkpt>
      <trkpt lat="44.12913" lon="5.86771">
        <ele>899</ele>
        <time>2021-06-01T09:46:14.000Z</time>
      </trkpt>
      <trkpt lat="44.12913" lon="5.86771">
        <ele>899</ele>
        <time>2021-06-01T09:46:15.000Z</time>
      </trkpt>
      <trkpt lat="44.12914" lon="5.86772">
        <ele>899</ele>
        <time>2021-06-01T09:46:16.000Z</time>
      </trkpt>
      <trkpt lat="44.12914" lon="5.86772">
        <ele>900</ele>
        <time>2021-06-01T09:46:17.000Z</time>
      </trkpt>
      <trkpt lat="44.12914" lon="5.86773">
        <ele>900</ele>
        <time>2021-06-01T09:46:18.000Z</time>
      </trkpt>
      <trkpt lat="44.12915" lon="5.86773">
        <ele>900</ele>
        <time>2021-06-01T09:46:19.000Z</time>
      </trkpt>
      <trkpt lat="44.12915" lon="5.86774">
        <ele>900</ele>
        <time>2021-06-01T09:46:20.000Z</time>
      </trkpt>
      <trkpt lat="44.12915" lon="5.86775">
        <ele>900</ele>
        <time>2021-06-01T09:46:21.000Z</time>
      </trkpt>
      <trkpt lat="44.12915" lon="5.86775">
        <ele>900</ele>
        <time>2021-06-01T09:46:22.000Z</time>
      </trkpt>
      <trkpt lat="44.12915" lon="5.86776">
        <ele>901</ele>
        <time>2021-06-01T09:46:23.000Z</time>
      </trkpt>
      <trkpt lat="44.12915" lon="5.86776">
        <ele>901</ele>
        <time>2021-06-01T09:46:24.000Z</time>
      </trkpt>
      <trkpt lat="44.12915" lon="5.86777">
        <ele>901</ele>
        <time>2021-06-01T09:46:25.000Z</time>
      </trkpt>
      <trkpt lat="44.12915" lon="5.86778">
        <ele>901</ele>
        <time>2021-06-01T09:46:26.000Z</time>
      </trkpt>
      <trkpt lat="44.12915" lon="5.86778">
        <ele>901</ele>
        <time>2021-06-01T09:46:27.000Z</time>
      </trkpt>
      <trkpt lat="44.12915" lon="5.86778">
        <ele>901</ele>
        <time>2021-06-01T09:46:28.000Z</time>
      </trkpt>
      <trkpt lat="44.12916" lon="5.86778">
        <ele>901</ele>
        <time>2021-06-01T09:46:29.000Z</time>
      </trkpt>
      <trkpt lat="44.12916" lon="5.86778">
        <ele>901</ele>
        <time>2021-06-01T09:46:30.000Z</time>
      </trkpt>
      <trkpt lat="44.12916" lon="5.86778">
        <ele>902</ele>
        <time>2021-06-01T09:46:31.000Z</time>
      </trkpt>
      <trkpt lat="44.12917" lon="5.86778">
        <ele>902</ele>
        <time>2021-06-01T09:46:32.000Z</time>
      </trkpt>
      <trkpt lat="44.12917" lon="5.86777">
        <ele>902</ele>
        <time>2021-06-01T09:46:33.000Z</time>
      </trkpt>
      <trkpt lat="44.12917" lon="5.86776">
        <ele>902</ele>
        <time>2021-06-01T09:46:34.000Z</time>
      </trkpt>
      <trkpt lat="44.12918" lon="5.86776">
        <ele>902</ele>
        <time>2021-06-01T09:46:35.000Z</time>
      </trkpt>
      <trkpt lat="44.12918" lon="5.86776">
        <ele>902</ele>
        <time>2021-06-01T09:46:36.000Z</time>
      </trkpt>
      <trkpt lat="44.12918" lon="5.86776">
        <ele>902</ele>
        <time>2021-06-01T09:46:37.000Z</time>
      </trkpt>
      <trkpt lat="44.12919" lon="5.86776">
        <ele>902</ele>
        <time>2021-06-01T09:46:38.000Z</time>
      </trkpt>
      <trkpt lat="44.12919" lon="5.86776">
        <ele>903</ele>
        <time>2021-06-01T09:46:39.000Z</time>
      </trkpt>
      <trkpt lat="44.12919" lon="5.86777">
        <ele>903</ele>
        <time>2021-06-01T09:46:40.000Z</time>
      </trkpt>
      <trkpt lat="44.1292" lon="5.86777">
        <ele>903</ele>
        <time>2021-06-01T09:46:41.000Z</time>
      </trkpt>
      <trkpt lat="44.1292" lon="5.86777">
        <ele>903</ele>
        <time>2021-06-01T09:46:42.000Z</time>
      </trkpt>
      <trkpt lat="44.1292" lon="5.86777">
        <ele>903</ele>
        <time>2021-06-01T09:46:43.000Z</time>
      </trkpt>
      <trkpt lat="44.1292" lon="5.86777">
        <ele>904</ele>
        <time>2021-06-01T09:46:44.000Z</time>
      </trkpt>
      <trkpt lat="44.12921" lon="5.86778">
        <ele>904</ele>
        <time>2021-06-01T09:46:45.000Z</time>
      </trkpt>
      <trkpt lat="44.12921" lon="5.86778">
        <ele>904</ele>
        <time>2021-06-01T09:46:46.000Z</time>
      </trkpt>
      <trkpt lat="44.12921" lon="5.86779">
        <ele>905</ele>
        <time>2021-06-01T09:46:47.000Z</time>
      </trkpt>
      <trkpt lat="44.12921" lon="5.86779">
        <ele>905</ele>
        <time>2021-06-01T09:46:48.000Z</time>
      </trkpt>
      <trkpt lat="44.12921" lon="5.8678">
        <ele>905</ele>
        <time>2021-06-01T09:46:49.000Z</time>
      </trkpt>
      <trkpt lat="44.12921" lon="5.8678">
        <ele>905</ele>
        <time>2021-06-01T09:46:50.000Z</time>
      </trkpt>
      <trkpt lat="44.12922" lon="5.8678">
        <ele>906</ele>
        <time>2021-06-01T09:46:51.000Z</time>
      </trkpt>
      <trkpt lat="44.12922" lon="5.86781">
        <ele>906</ele>
        <time>2021-06-01T09:46:52.000Z</time>
      </trkpt>
      <trkpt lat="44.12922" lon="5.86781">
        <ele>906</ele>
        <time>2021-06-01T09:46:53.000Z</time>
      </trkpt>
      <trkpt lat="44.12922" lon="5.86781">
        <ele>906</ele>
        <time>2021-06-01T09:46:54.000Z</time>
      </trkpt>
      <trkpt lat="44.12923" lon="5.86782">
        <ele>906</ele>
        <time>2021-06-01T09:46:55.000Z</time>
      </trkpt>
      <trkpt lat="44.12923" lon="5.86782">
        <ele>906</ele>
        <time>2021-06-01T09:46:56.000Z</time>
      </trkpt>
      <trkpt lat="44.12923" lon="5.86783">
        <ele>907</ele>
        <time>2021-06-01T09:46:57.000Z</time>
      </trkpt>
      <trkpt lat="44.12923" lon="5.86783">
        <ele>907</ele>
        <time>2021-06-01T09:46:58.000Z</time>
      </trkpt>
      <trkpt lat="44.12924" lon="5.86784">
        <ele>907</ele>
        <time>2021-06-01T09:46:59.000Z</time>
      </trkpt>
      <trkpt lat="44.12924" lon="5.86784">
        <ele>907</ele>
        <time>2021-06-01T09:47:00.000Z</time>
      </trkpt>
      <trkpt lat="44.12924" lon="5.86785">
        <ele>907</ele>
        <time>2021-06-01T09:47:01.000Z</time>
      </trkpt>
      <trkpt lat="44.12925" lon="5.86785">
        <ele>907</ele>
        <time>2021-06-01T09:47:02.000Z</time>
      </trkpt>
      <trkpt lat="44.12925" lon="5.86785">
        <ele>907</ele>
        <time>2021-06-01T09:47:03.000Z</time>
      </trkpt>
      <trkpt lat="44.12926" lon="5.86786">
        <ele>908</ele>
        <time>2021-06-01T09:47:04.000Z</time>
      </trkpt>
      <trkpt lat="44.12926" lon="5.86786">
        <ele>908</ele>
        <time>2021-06-01T09:47:05.000Z</time>
      </trkpt>
      <trkpt lat="44.12927" lon="5.86787">
        <ele>908</ele>
        <time>2021-06-01T09:47:06.000Z</time>
      </trkpt>
      <trkpt lat="44.12927" lon="5.86787">
        <ele>908</ele>
        <time>2021-06-01T09:47:07.000Z</time>
      </trkpt>
      <trkpt lat="44.12927" lon="5.86787">
        <ele>908</ele>
        <time>2021-06-01T09:47:08.000Z</time>
      </trkpt>
      <trkpt lat="44.12927" lon="5.86788">
        <ele>908</ele>
        <time>2021-06-01T09:47:09.000Z</time>
      </trkpt>
      <trkpt lat="44.12928" lon="5.86789">
        <ele>908</ele>
        <time>2021-06-01T09:47:10.000Z</time>
      </trkpt>
      <trkpt lat="44.12928" lon="5.86789">
        <ele>908</ele>
        <time>2021-06-01T09:47:11.000Z</time>
      </trkpt>
      <trkpt lat="44.12928" lon="5.86789">
        <ele>909</ele>
        <time>2021-06-01T09:47:12.000Z</time>
      </trkpt>
      <trkpt lat="44.12928" lon="5.8679">
        <ele>909</ele>
        <time>2021-06-01T09:47:13.000Z</time>
      </trkpt>
      <trkpt lat="44.12929" lon="5.8679">
        <ele>909</ele>
        <time>2021-06-01T09:47:14.000Z</time>
      </trkpt>
      <trkpt lat="44.12929" lon="5.86791">
        <ele>909</ele>
        <time>2021-06-01T09:47:15.000Z</time>
      </trkpt>
      <trkpt lat="44.12929" lon="5.86791">
        <ele>909</ele>
        <time>2021-06-01T09:47:16.000Z</time>
      </trkpt>
      <trkpt lat="44.12929" lon="5.86792">
        <ele>909</ele>
        <time>2021-06-01T09:47:17.000Z</time>
      </trkpt>
      <trkpt lat="44.12929" lon="5.86793">
        <ele>909</ele>
        <time>2021-06-01T09:47:18.000Z</time>
      </trkpt>
      <trkpt lat="44.12929" lon="5.86793">
        <ele>909</ele>
        <time>2021-06-01T09:47:19.000Z</time>
      </trkpt>
      <trkpt lat="44.12929" lon="5.86794">
        <ele>909</ele>
        <time>2021-06-01T09:47:20.000Z</time>
      </trkpt>
      <trkpt lat="44.12929" lon="5.86795">
        <ele>909</ele>
        <time>2021-06-01T09:47:21.000Z</time>
      </trkpt>
      <trkpt lat="44.12929" lon="5.86795">
        <ele>910</ele>
        <time>2021-06-01T09:47:22.000Z</time>
      </trkpt>
      <trkpt lat="44.1293" lon="5.86796">
        <ele>910</ele>
        <time>2021-06-01T09:47:23.000Z</time>
      </trkpt>
      <trkpt lat="44.1293" lon="5.86796">
        <ele>910</ele>
        <time>2021-06-01T09:47:24.000Z</time>
      </trkpt>
      <trkpt lat="44.1293" lon="5.86797">
        <ele>910</ele>
        <time>2021-06-01T09:47:25.000Z</time>
      </trkpt>
      <trkpt lat="44.1293" lon="5.86798">
        <ele>910</ele>
        <time>2021-06-01T09:47:26.000Z</time>
      </trkpt>
      <trkpt lat="44.1293" lon="5.86799">
        <ele>911</ele>
        <time>2021-06-01T09:47:27.000Z</time>
      </trkpt>
      <trkpt lat="44.1293" lon="5.86799">
        <ele>911</ele>
        <time>2021-06-01T09:47:28.000Z</time>
      </trkpt>
      <trkpt lat="44.1293" lon="5.868">
        <ele>911</ele>
        <time>2021-06-01T09:47:29.000Z</time>
      </trkpt>
      <trkpt lat="44.1293" lon="5.86801">
        <ele>911</ele>
        <time>2021-06-01T09:47:30.000Z</time>
      </trkpt>
      <trkpt lat="44.1293" lon="5.86801">
        <ele>911</ele>
        <time>2021-06-01T09:47:31.000Z</time>
      </trkpt>
      <trkpt lat="44.1293" lon="5.86802">
        <ele>911</ele>
        <time>2021-06-01T09:47:32.000Z</time>
      </trkpt>
      <trkpt lat="44.1293" lon="5.86803">
        <ele>911</ele>
        <time>2021-06-01T09:47:33.000Z</time>
      </trkpt>
      <trkpt lat="44.12929" lon="5.86804">
        <ele>911</ele>
        <time>2021-06-01T09:47:34.000Z</time>
      </trkpt>
      <trkpt lat="44.12929" lon="5.86805">
        <ele>912</ele>
        <time>2021-06-01T09:47:35.000Z</time>
      </trkpt>
      <trkpt lat="44.12929" lon="5.86806">
        <ele>912</ele>
        <time>2021-06-01T09:47:36.000Z</time>
      </trkpt>
      <trkpt lat="44.12929" lon="5.86807">
        <ele>912</ele>
        <time>2021-06-01T09:47:37.000Z</time>
      </trkpt>
      <trkpt lat="44.12929" lon="5.86808">
        <ele>912</ele>
        <time>2021-06-01T09:47:38.000Z</time>
      </trkpt>
      <trkpt lat="44.12929" lon="5.86808">
        <ele>912</ele>
        <time>2021-06-01T09:47:39.000Z</time>
      </trkpt>
      <trkpt lat="44.12929" lon="5.86808">
        <ele>912</ele>
        <time>2021-06-01T09:47:40.000Z</time>
      </trkpt>
      <trkpt lat="44.12929" lon="5.86808">
        <ele>913</ele>
        <time>2021-06-01T09:47:41.000Z</time>
      </trkpt>
      <trkpt lat="44.12929" lon="5.86808">
        <ele>913</ele>
        <time>2021-06-01T09:47:42.000Z</time>
      </trkpt>
      <trkpt lat="44.12929" lon="5.86808">
        <ele>913</ele>
        <time>2021-06-01T09:47:43.000Z</time>
      </trkpt>
      <trkpt lat="44.12929" lon="5.86808">
        <ele>913</ele>
        <time>2021-06-01T09:47:44.000Z</time>
      </trkpt>
      <trkpt lat="44.12929" lon="5.86808">
        <ele>913</ele>
        <time>2021-06-01T09:47:45.000Z</time>
      </trkpt>
      <trkpt lat="44.12929" lon="5.86808">
        <ele>913</ele>
        <time>2021-06-01T09:47:46.000Z</time>
      </trkpt>
      <trkpt lat="44.12929" lon="5.86809">
        <ele>913</ele>
        <time>2021-06-01T09:47:47.000Z</time>
      </trkpt>
      <trkpt lat="44.12929" lon="5.86809">
        <ele>913</ele>
        <time>2021-06-01T09:47:48.000Z</time>
      </trkpt>
      <trkpt lat="44.12929" lon="5.86809">
        <ele>913</ele>
        <time>2021-06-01T09:47:49.000Z</time>
      </trkpt>
      <trkpt lat="44.12929" lon="5.86809">
        <ele>913</ele>
        <time>2021-06-01T09:47:50.000Z</time>
      </trkpt>
      <trkpt lat="44.12929" lon="5.86809">
        <ele>913</ele>
        <time>2021-06-01T09:47:51.000Z</time>
      </trkpt>
      <trkpt lat="44.12929" lon="5.86809">
        <ele>913</ele>
        <time>2021-06-01T09:47:52.000Z</time>
      </trkpt>
      <trkpt lat="44.12929" lon="5.86809">
        <ele>913</ele>
        <time>2021-06-01T09:47:53.000Z</time>
      </trkpt>
      <trkpt lat="44.12929" lon="5.86809">
        <ele>913</ele>
        <time>2021-06-01T09:47:54.000Z</time>
      </trkpt>
      <trkpt lat="44.12929" lon="5.86809">
        <ele>913</ele>
        <time>2021-06-01T09:47:55.000Z</time>
      </trkpt>
      <trkpt lat="44.12929" lon="5.86809">
        <ele>913</ele>
        <time>2021-06-01T09:47:56.000Z</time>
      </trkpt>
      <trkpt lat="44.12929" lon="5.86809">
        <ele>913</ele>
        <time>2021-06-01T09:47:57.000Z</time>
      </trkpt>
      <trkpt lat="44.12929" lon="5.86809">
        <ele>913</ele>
        <time>2021-06-01T09:47:58.000Z</time>
      </trkpt>
      <trkpt lat="44.12929" lon="5.86809">
        <ele>913</ele>
        <time>2021-06-01T09:47:59.000Z</time>
      </trkpt>
      <trkpt lat="44.12929" lon="5.86809">
        <ele>913</ele>
        <time>2021-06-01T09:48:00.000Z</time>
      </trkpt>
      <trkpt lat="44.12929" lon="5.86809">
        <ele>913</ele>
        <time>2021-06-01T09:48:01.000Z</time>
      </trkpt>
      <trkpt lat="44.12929" lon="5.86809">
        <ele>913</ele>
        <time>2021-06-01T09:48:02.000Z</time>
      </trkpt>
      <trkpt lat="44.12929" lon="5.86809">
        <ele>913</ele>
        <time>2021-06-01T09:48:03.000Z</time>
      </trkpt>
      <trkpt lat="44.1293" lon="5.86809">
        <ele>913</ele>
        <time>2021-06-01T09:48:04.000Z</time>
      </trkpt>
      <trkpt lat="44.1293" lon="5.86809">
        <ele>913</ele>
        <time>2021-06-01T09:48:05.000Z</time>
      </trkpt>
      <trkpt lat="44.1293" lon="5.86809">
        <ele>913</ele>
        <time>2021-06-01T09:48:06.000Z</time>
      </trkpt>
      <trkpt lat="44.1293" lon="5.86809">
        <ele>913</ele>
        <time>2021-06-01T09:48:07.000Z</time>
      </trkpt>
      <trkpt lat="44.1293" lon="5.86809">
        <ele>913</ele>
        <time>2021-06-01T09:48:08.000Z</time>
      </trkpt>
      <trkpt lat="44.1293" lon="5.86809">
        <ele>913</ele>
        <time>2021-06-01T09:48:09.000Z</time>
      </trkpt>
      <trkpt lat="44.1293" lon="5.86809">
        <ele>913</ele>
        <time>2021-06-01T09:48:10.000Z</time>
      </trkpt>
      <trkpt lat="44.1293" lon="5.86809">
        <ele>914</ele>
        <time>2021-06-01T09:48:11.000Z</time>
      </trkpt>
      <trkpt lat="44.1293" lon="5.86809">
        <ele>914</ele>
        <time>2021-06-01T09:48:12.000Z</time>
      </trkpt>
      <trkpt lat="44.1293" lon="5.86809">
        <ele>914</ele>
        <time>2021-06-01T09:48:13.000Z</time>
      </trkpt>
      <trkpt lat="44.1293" lon="5.86809">
        <ele>914</ele>
        <time>2021-06-01T09:48:14.000Z</time>
      </trkpt>
      <trkpt lat="44.1293" lon="5.86809">
        <ele>914</ele>
        <time>2021-06-01T09:48:15.000Z</time>
      </trkpt>
      <trkpt lat="44.1293" lon="5.86809">
        <ele>914</ele>
        <time>2021-06-01T09:48:16.000Z</time>
      </trkpt>
      <trkpt lat="44.1293" lon="5.8681">
        <ele>914</ele>
        <time>2021-06-01T09:48:17.000Z</time>
      </trkpt>
      <trkpt lat="44.1293" lon="5.8681">
        <ele>914</ele>
        <time>2021-06-01T09:48:18.000Z</time>
      </trkpt>
      <trkpt lat="44.12931" lon="5.8681">
        <ele>914</ele>
        <time>2021-06-01T09:48:19.000Z</time>
      </trkpt>
      <trkpt lat="44.12931" lon="5.8681">
        <ele>914</ele>
        <time>2021-06-01T09:48:20.000Z</time>
      </trkpt>
      <trkpt lat="44.12931" lon="5.8681">
        <ele>915</ele>
        <time>2021-06-01T09:48:21.000Z</time>
      </trkpt>
      <trkpt lat="44.12931" lon="5.8681">
        <ele>915</ele>
        <time>2021-06-01T09:48:22.000Z</time>
      </trkpt>
      <trkpt lat="44.12931" lon="5.8681">
        <ele>915</ele>
        <time>2021-06-01T09:48:23.000Z</time>
      </trkpt>
      <trkpt lat="44.12931" lon="5.8681">
        <ele>915</ele>
        <time>2021-06-01T09:48:24.000Z</time>
      </trkpt>
      <trkpt lat="44.12931" lon="5.8681">
        <ele>915</ele>
        <time>2021-06-01T09:48:25.000Z</time>
      </trkpt>
      <trkpt lat="44.12931" lon="5.8681">
        <ele>915</ele>
        <time>2021-06-01T09:48:26.000Z</time>
      </trkpt>
      <trkpt lat="44.12931" lon="5.86811">
        <ele>915</ele>
        <time>2021-06-01T09:48:27.000Z</time>
      </trkpt>
      <trkpt lat="44.12931" lon="5.86811">
        <ele>915</ele>
        <time>2021-06-01T09:48:28.000Z</time>
      </trkpt>
      <trkpt lat="44.12931" lon="5.86811">
        <ele>915</ele>
        <time>2021-06-01T09:48:29.000Z</time>
      </trkpt>
      <trkpt lat="44.12931" lon="5.86811">
        <ele>915</ele>
        <time>2021-06-01T09:48:30.000Z</time>
      </trkpt>
      <trkpt lat="44.12931" lon="5.86811">
        <ele>915</ele>
        <time>2021-06-01T09:48:31.000Z</time>
      </trkpt>
      <trkpt lat="44.12931" lon="5.86811">
        <ele>915</ele>
        <time>2021-06-01T09:48:32.000Z</time>
      </trkpt>
      <trkpt lat="44.12931" lon="5.86811">
        <ele>915</ele>
        <time>2021-06-01T09:48:33.000Z</time>
      </trkpt>
      <trkpt lat="44.12931" lon="5.86811">
        <ele>915</ele>
        <time>2021-06-01T09:48:34.000Z</time>
      </trkpt>
      <trkpt lat="44.12932" lon="5.86811">
        <ele>916</ele>
        <time>2021-06-01T09:48:35.000Z</time>
      </trkpt>
      <trkpt lat="44.12932" lon="5.86811">
        <ele>916</ele>
        <time>2021-06-01T09:48:36.000Z</time>
      </trkpt>
      <trkpt lat="44.12932" lon="5.86812">
        <ele>916</ele>
        <time>2021-06-01T09:48:37.000Z</time>
      </trkpt>
      <trkpt lat="44.12932" lon="5.86812">
        <ele>916</ele>
        <time>2021-06-01T09:48:38.000Z</time>
      </trkpt>
      <trkpt lat="44.12932" lon="5.86813">
        <ele>916</ele>
        <time>2021-06-01T09:48:39.000Z</time>
      </trkpt>
      <trkpt lat="44.12932" lon="5.86814">
        <ele>916</ele>
        <time>2021-06-01T09:48:40.000Z</time>
      </trkpt>
      <trkpt lat="44.12932" lon="5.86815">
        <ele>916</ele>
        <time>2021-06-01T09:48:41.000Z</time>
      </trkpt>
      <trkpt lat="44.12933" lon="5.86815">
        <ele>916</ele>
        <time>2021-06-01T09:48:42.000Z</time>
      </trkpt>
      <trkpt lat="44.12933" lon="5.86816">
        <ele>916</ele>
        <time>2021-06-01T09:48:43.000Z</time>
      </trkpt>
      <trkpt lat="44.12933" lon="5.86816">
        <ele>916</ele>
        <time>2021-06-01T09:48:44.000Z</time>
      </trkpt>
      <trkpt lat="44.12933" lon="5.86817">
        <ele>916</ele>
        <time>2021-06-01T09:48:45.000Z</time>
      </trkpt>
      <trkpt lat="44.12933" lon="5.86818">
        <ele>916</ele>
        <time>2021-06-01T09:48:46.000Z</time>
      </trkpt>
      <trkpt lat="44.12933" lon="5.86819">
        <ele>916</ele>
        <time>2021-06-01T09:48:47.000Z</time>
      </trkpt>
      <trkpt lat="44.12933" lon="5.8682">
        <ele>916</ele>
        <time>2021-06-01T09:48:48.000Z</time>
      </trkpt>
      <trkpt lat="44.12933" lon="5.8682">
        <ele>916</ele>
        <time>2021-06-01T09:48:49.000Z</time>
      </trkpt>
      <trkpt lat="44.12933" lon="5.86821">
        <ele>916</ele>
        <time>2021-06-01T09:48:50.000Z</time>
      </trkpt>
      <trkpt lat="44.12934" lon="5.86822">
        <ele>917</ele>
        <time>2021-06-01T09:48:51.000Z</time>
      </trkpt>
      <trkpt lat="44.12934" lon="5.86823">
        <ele>917</ele>
        <time>2021-06-01T09:48:52.000Z</time>
      </trkpt>
      <trkpt lat="44.12935" lon="5.86824">
        <ele>917</ele>
        <time>2021-06-01T09:48:53.000Z</time>
      </trkpt>
      <trkpt lat="44.12935" lon="5.86824">
        <ele>917</ele>
        <time>2021-06-01T09:48:54.000Z</time>
      </trkpt>
      <trkpt lat="44.12936" lon="5.86825">
        <ele>917</ele>
        <time>2021-06-01T09:48:55.000Z</time>
      </trkpt>
      <trkpt lat="44.12936" lon="5.86826">
        <ele>917</ele>
        <time>2021-06-01T09:48:56.000Z</time>
      </trkpt>
      <trkpt lat="44.12937" lon="5.86827">
        <ele>917</ele>
        <time>2021-06-01T09:48:57.000Z</time>
      </trkpt>
      <trkpt lat="44.12938" lon="5.86828">
        <ele>917</ele>
        <time>2021-06-01T09:48:58.000Z</time>
      </trkpt>
      <trkpt lat="44.12938" lon="5.86828">
        <ele>918</ele>
        <time>2021-06-01T09:48:59.000Z</time>
      </trkpt>
      <trkpt lat="44.12939" lon="5.86829">
        <ele>918</ele>
        <time>2021-06-01T09:49:00.000Z</time>
      </trkpt>
      <trkpt lat="44.12939" lon="5.8683">
        <ele>918</ele>
        <time>2021-06-01T09:49:01.000Z</time>
      </trkpt>
      <trkpt lat="44.12939" lon="5.8683">
        <ele>918</ele>
        <time>2021-06-01T09:49:02.000Z</time>
      </trkpt>
      <trkpt lat="44.1294" lon="5.86831">
        <ele>918</ele>
        <time>2021-06-01T09:49:03.000Z</time>
      </trkpt>
      <trkpt lat="44.1294" lon="5.86831">
        <ele>918</ele>
        <time>2021-06-01T09:49:04.000Z</time>
      </trkpt>
      <trkpt lat="44.12941" lon="5.86832">
        <ele>918</ele>
        <time>2021-06-01T09:49:05.000Z</time>
      </trkpt>
      <trkpt lat="44.12941" lon="5.86832">
        <ele>918</ele>
        <time>2021-06-01T09:49:06.000Z</time>
      </trkpt>
      <trkpt lat="44.12942" lon="5.86833">
        <ele>918</ele>
        <time>2021-06-01T09:49:07.000Z</time>
      </trkpt>
      <trkpt lat="44.12942" lon="5.86834">
        <ele>919</ele>
        <time>2021-06-01T09:49:08.000Z</time>
      </trkpt>
      <trkpt lat="44.12943" lon="5.86834">
        <ele>919</ele>
        <time>2021-06-01T09:49:09.000Z</time>
      </trkpt>
      <trkpt lat="44.12943" lon="5.86835">
        <ele>919</ele>
        <time>2021-06-01T09:49:10.000Z</time>
      </trkpt>
      <trkpt lat="44.12943" lon="5.86835">
        <ele>919</ele>
        <time>2021-06-01T09:49:11.000Z</time>
      </trkpt>
      <trkpt lat="44.12944" lon="5.86836">
        <ele>919</ele>
        <time>2021-06-01T09:49:12.000Z</time>
      </trkpt>
      <trkpt lat="44.12945" lon="5.86837">
        <ele>919</ele>
        <time>2021-06-01T09:49:13.000Z</time>
      </trkpt>
      <trkpt lat="44.12946" lon="5.86837">
        <ele>919</ele>
        <time>2021-06-01T09:49:14.000Z</time>
      </trkpt>
      <trkpt lat="44.12946" lon="5.86838">
        <ele>919</ele>
        <time>2021-06-01T09:49:15.000Z</time>
      </trkpt>
      <trkpt lat="44.12947" lon="5.86838">
        <ele>919</ele>
        <time>2021-06-01T09:49:16.000Z</time>
      </trkpt>
      <trkpt lat="44.12947" lon="5.86839">
        <ele>919</ele>
        <time>2021-06-01T09:49:17.000Z</time>
      </trkpt>
      <trkpt lat="44.12948" lon="5.86839">
        <ele>919</ele>
        <time>2021-06-01T09:49:18.000Z</time>
      </trkpt>
      <trkpt lat="44.12949" lon="5.8684">
        <ele>919</ele>
        <time>2021-06-01T09:49:19.000Z</time>
      </trkpt>
      <trkpt lat="44.1295" lon="5.8684">
        <ele>919</ele>
        <time>2021-06-01T09:49:20.000Z</time>
      </trkpt>
      <trkpt lat="44.1295" lon="5.8684">
        <ele>919</ele>
        <time>2021-06-01T09:49:21.000Z</time>
      </trkpt>
      <trkpt lat="44.12951" lon="5.8684">
        <ele>919</ele>
        <time>2021-06-01T09:49:22.000Z</time>
      </trkpt>
      <trkpt lat="44.12952" lon="5.86841">
        <ele>920</ele>
        <time>2021-06-01T09:49:23.000Z</time>
      </trkpt>
      <trkpt lat="44.12952" lon="5.86841">
        <ele>920</ele>
        <time>2021-06-01T09:49:24.000Z</time>
      </trkpt>
      <trkpt lat="44.12953" lon="5.86841">
        <ele>920</ele>
        <time>2021-06-01T09:49:25.000Z</time>
      </trkpt>
      <trkpt lat="44.12953" lon="5.86841">
        <ele>920</ele>
        <time>2021-06-01T09:49:26.000Z</time>
      </trkpt>
      <trkpt lat="44.12954" lon="5.86842">
        <ele>920</ele>
        <time>2021-06-01T09:49:27.000Z</time>
      </trkpt>
      <trkpt lat="44.12955" lon="5.86843">
        <ele>920</ele>
        <time>2021-06-01T09:49:28.000Z</time>
      </trkpt>
      <trkpt lat="44.12955" lon="5.86843">
        <ele>920</ele>
        <time>2021-06-01T09:49:29.000Z</time>
      </trkpt>
      <trkpt lat="44.12956" lon="5.86844">
        <ele>921</ele>
        <time>2021-06-01T09:49:30.000Z</time>
      </trkpt>
      <trkpt lat="44.12956" lon="5.86845">
        <ele>921</ele>
        <time>2021-06-01T09:49:31.000Z</time>
      </trkpt>
      <trkpt lat="44.12957" lon="5.86846">
        <ele>921</ele>
        <time>2021-06-01T09:49:32.000Z</time>
      </trkpt>
      <trkpt lat="44.12958" lon="5.86847">
        <ele>921</ele>
        <time>2021-06-01T09:49:33.000Z</time>
      </trkpt>
      <trkpt lat="44.12958" lon="5.86848">
        <ele>921</ele>
        <time>2021-06-01T09:49:34.000Z</time>
      </trkpt>
      <trkpt lat="44.12959" lon="5.86849">
        <ele>921</ele>
        <time>2021-06-01T09:49:35.000Z</time>
      </trkpt>
      <trkpt lat="44.12959" lon="5.8685">
        <ele>921</ele>
        <time>2021-06-01T09:49:36.000Z</time>
      </trkpt>
      <trkpt lat="44.1296" lon="5.86851">
        <ele>921</ele>
        <time>2021-06-01T09:49:37.000Z</time>
      </trkpt>
      <trkpt lat="44.1296" lon="5.86852">
        <ele>921</ele>
        <time>2021-06-01T09:49:38.000Z</time>
      </trkpt>
      <trkpt lat="44.12961" lon="5.86853">
        <ele>922</ele>
        <time>2021-06-01T09:49:39.000Z</time>
      </trkpt>
      <trkpt lat="44.12962" lon="5.86853">
        <ele>922</ele>
        <time>2021-06-01T09:49:40.000Z</time>
      </trkpt>
      <trkpt lat="44.12962" lon="5.86854">
        <ele>922</ele>
        <time>2021-06-01T09:49:41.000Z</time>
      </trkpt>
      <trkpt lat="44.12963" lon="5.86855">
        <ele>922</ele>
        <time>2021-06-01T09:49:42.000Z</time>
      </trkpt>
      <trkpt lat="44.12964" lon="5.86856">
        <ele>922</ele>
        <time>2021-06-01T09:49:43.000Z</time>
      </trkpt>
      <trkpt lat="44.12964" lon="5.86856">
        <ele>922</ele>
        <time>2021-06-01T09:49:44.000Z</time>
      </trkpt>
      <trkpt lat="44.12965" lon="5.86857">
        <ele>923</ele>
        <time>2021-06-01T09:49:45.000Z</time>
      </trkpt>
      <trkpt lat="44.12966" lon="5.86857">
        <ele>923</ele>
        <time>2021-06-01T09:49:46.000Z</time>
      </trkpt>
      <trkpt lat="44.12967" lon="5.86858">
        <ele>923</ele>
        <time>2021-06-01T09:49:47.000Z</time>
      </trkpt>
      <trkpt lat="44.12968" lon="5.86859">
        <ele>923</ele>
        <time>2021-06-01T09:49:48.000Z</time>
      </trkpt>
      <trkpt lat="44.12968" lon="5.86859">
        <ele>923</ele>
        <time>2021-06-01T09:49:49.000Z</time>
      </trkpt>
      <trkpt lat="44.12969" lon="5.8686">
        <ele>924</ele>
        <time>2021-06-01T09:49:50.000Z</time>
      </trkpt>
      <trkpt lat="44.1297" lon="5.8686">
        <ele>924</ele>
        <time>2021-06-01T09:49:51.000Z</time>
      </trkpt>
      <trkpt lat="44.1297" lon="5.8686">
        <ele>924</ele>
        <time>2021-06-01T09:49:52.000Z</time>
      </trkpt>
      <trkpt lat="44.12971" lon="5.86861">
        <ele>924</ele>
        <time>2021-06-01T09:49:53.000Z</time>
      </trkpt>
      <trkpt lat="44.12972" lon="5.86861">
        <ele>924</ele>
        <time>2021-06-01T09:49:54.000Z</time>
      </trkpt>
      <trkpt lat="44.12973" lon="5.86861">
        <ele>925</ele>
        <time>2021-06-01T09:49:55.000Z</time>
      </trkpt>
      <trkpt lat="44.12973" lon="5.86862">
        <ele>925</ele>
        <time>2021-06-01T09:49:56.000Z</time>
      </trkpt>
      <trkpt lat="44.12974" lon="5.86862">
        <ele>925</ele>
        <time>2021-06-01T09:49:57.000Z</time>
      </trkpt>
      <trkpt lat="44.12975" lon="5.86863">
        <ele>925</ele>
        <time>2021-06-01T09:49:58.000Z</time>
      </trkpt>
      <trkpt lat="44.12976" lon="5.86863">
        <ele>925</ele>
        <time>2021-06-01T09:49:59.000Z</time>
      </trkpt>
      <trkpt lat="44.12976" lon="5.86863">
        <ele>926</ele>
        <time>2021-06-01T09:50:00.000Z</time>
      </trkpt>
      <trkpt lat="44.12977" lon="5.86864">
        <ele>926</ele>
        <time>2021-06-01T09:50:01.000Z</time>
      </trkpt>
      <trkpt lat="44.12977" lon="5.86864">
        <ele>926</ele>
        <time>2021-06-01T09:50:02.000Z</time>
      </trkpt>
      <trkpt lat="44.12978" lon="5.86865">
        <ele>926</ele>
        <time>2021-06-01T09:50:03.000Z</time>
      </trkpt>
      <trkpt lat="44.12978" lon="5.86865">
        <ele>927</ele>
        <time>2021-06-01T09:50:04.000Z</time>
      </trkpt>
      <trkpt lat="44.12978" lon="5.86866">
        <ele>927</ele>
        <time>2021-06-01T09:50:05.000Z</time>
      </trkpt>
      <trkpt lat="44.12979" lon="5.86866">
        <ele>927</ele>
        <time>2021-06-01T09:50:06.000Z</time>
      </trkpt>
      <trkpt lat="44.12979" lon="5.86867">
        <ele>927</ele>
        <time>2021-06-01T09:50:07.000Z</time>
      </trkpt>
      <trkpt lat="44.1298" lon="5.86868">
        <ele>927</ele>
        <time>2021-06-01T09:50:08.000Z</time>
      </trkpt>
      <trkpt lat="44.12981" lon="5.86869">
        <ele>928</ele>
        <time>2021-06-01T09:50:09.000Z</time>
      </trkpt>
      <trkpt lat="44.12981" lon="5.86869">
        <ele>928</ele>
        <time>2021-06-01T09:50:10.000Z</time>
      </trkpt>
      <trkpt lat="44.12982" lon="5.8687">
        <ele>928</ele>
        <time>2021-06-01T09:52:36.643Z</time>
      </trkpt>
      <trkpt lat="44.12983" lon="5.86871">
        <ele>928</ele>
        <time>2021-06-01T09:52:37.643Z</time>
      </trkpt>
      <trkpt lat="44.12984" lon="5.86871">
        <ele>929</ele>
        <time>2021-06-01T09:52:38.643Z</time>
      </trkpt>
      <trkpt lat="44.12985" lon="5.86872">
        <ele>929</ele>
        <time>2021-06-01T09:52:39.643Z</time>
      </trkpt>
      <trkpt lat="44.12985" lon="5.86873">
        <ele>929</ele>
        <time>2021-06-01T09:52:40.643Z</time>
      </trkpt>
      <trkpt lat="44.12986" lon="5.86874">
        <ele>929</ele>
        <time>2021-06-01T09:52:41.643Z</time>
      </trkpt>
      <trkpt lat="44.12987" lon="5.86875">
        <ele>930</ele>
        <time>2021-06-01T09:52:42.643Z</time>
      </trkpt>
      <trkpt lat="44.12987" lon="5.86876">
        <ele>930</ele>
        <time>2021-06-01T09:52:43.643Z</time>
      </trkpt>
      <trkpt lat="44.12988" lon="5.86876">
        <ele>930</ele>
        <time>2021-06-01T09:52:44.643Z</time>
      </trkpt>
      <trkpt lat="44.12989" lon="5.86877">
        <ele>930</ele>
        <time>2021-06-01T09:52:45.643Z</time>
      </trkpt>
      <trkpt lat="44.12989" lon="5.86878">
        <ele>930</ele>
        <time>2021-06-01T09:52:46.643Z</time>
      </trkpt>
      <trkpt lat="44.1299" lon="5.86879">
        <ele>930</ele>
        <time>2021-06-01T09:52:47.643Z</time>
      </trkpt>
      <trkpt lat="44.1299" lon="5.8688">
        <ele>931</ele>
        <time>2021-06-01T09:52:48.643Z</time>
      </trkpt>
      <trkpt lat="44.12991" lon="5.8688">
        <ele>931</ele>
        <time>2021-06-01T09:52:49.643Z</time>
      </trkpt>
      <trkpt lat="44.12992" lon="5.86881">
        <ele>931</ele>
        <time>2021-06-01T09:52:50.643Z</time>
      </trkpt>
      <trkpt lat="44.12993" lon="5.86881">
        <ele>931</ele>
        <time>2021-06-01T09:52:51.643Z</time>
      </trkpt>
      <trkpt lat="44.12993" lon="5.86882">
        <ele>931</ele>
        <time>2021-06-01T09:52:52.643Z</time>
      </trkpt>
      <trkpt lat="44.12994" lon="5.86882">
        <ele>931</ele>
        <time>2021-06-01T09:52:53.643Z</time>
      </trkpt>
      <trkpt lat="44.12995" lon="5.86883">
        <ele>931</ele>
        <time>2021-06-01T09:52:54.643Z</time>
      </trkpt>
      <trkpt lat="44.12996" lon="5.86883">
        <ele>932</ele>
        <time>2021-06-01T09:52:55.643Z</time>
      </trkpt>
      <trkpt lat="44.12997" lon="5.86884">
        <ele>932</ele>
        <time>2021-06-01T09:52:56.643Z</time>
      </trkpt>
      <trkpt lat="44.12997" lon="5.86884">
        <ele>932</ele>
        <time>2021-06-01T09:52:57.643Z</time>
      </trkpt>
      <trkpt lat="44.12998" lon="5.86884">
        <ele>932</ele>
        <time>2021-06-01T09:52:58.643Z</time>
      </trkpt>
      <trkpt lat="44.12998" lon="5.86885">
        <ele>932</ele>
        <time>2021-06-01T09:52:59.643Z</time>
      </trkpt>
      <trkpt lat="44.12999" lon="5.86885">
        <ele>932</ele>
        <time>2021-06-01T09:53:00.643Z</time>
      </trkpt>
      <trkpt lat="44.13" lon="5.86886">
        <ele>932</ele>
        <time>2021-06-01T09:53:01.643Z</time>
      </trkpt>
      <trkpt lat="44.13" lon="5.86887">
        <ele>932</ele>
        <time>2021-06-01T09:53:02.643Z</time>
      </trkpt>
      <trkpt lat="44.13001" lon="5.86888">
        <ele>933</ele>
        <time>2021-06-01T09:53:03.643Z</time>
      </trkpt>
      <trkpt lat="44.13001" lon="5.86888">
        <ele>933</ele>
        <time>2021-06-01T09:53:04.643Z</time>
      </trkpt>
      <trkpt lat="44.13002" lon="5.86889">
        <ele>933</ele>
        <time>2021-06-01T09:53:05.643Z</time>
      </trkpt>
      <trkpt lat="44.13003" lon="5.8689">
        <ele>933</ele>
        <time>2021-06-01T09:53:06.643Z</time>
      </trkpt>
      <trkpt lat="44.13003" lon="5.86891">
        <ele>933</ele>
        <time>2021-06-01T09:53:07.643Z</time>
      </trkpt>
      <trkpt lat="44.13004" lon="5.86892">
        <ele>933</ele>
        <time>2021-06-01T09:53:08.643Z</time>
      </trkpt>
      <trkpt lat="44.13004" lon="5.86893">
        <ele>933</ele>
        <time>2021-06-01T09:53:09.643Z</time>
      </trkpt>
      <trkpt lat="44.13004" lon="5.86894">
        <ele>933</ele>
        <time>2021-06-01T09:53:10.643Z</time>
      </trkpt>
      <trkpt lat="44.13004" lon="5.86894">
        <ele>933</ele>
        <time>2021-06-01T09:53:11.643Z</time>
      </trkpt>
      <trkpt lat="44.13005" lon="5.86895">
        <ele>934</ele>
        <time>2021-06-01T09:53:12.643Z</time>
      </trkpt>
      <trkpt lat="44.13004" lon="5.86897">
        <ele>934</ele>
        <time>2021-06-01T09:53:13.643Z</time>
      </trkpt>
      <trkpt lat="44.13004" lon="5.86898">
        <ele>934</ele>
        <time>2021-06-01T09:53:14.643Z</time>
      </trkpt>
      <trkpt lat="44.13004" lon="5.86899">
        <ele>934</ele>
        <time>2021-06-01T09:53:15.643Z</time>
      </trkpt>
      <trkpt lat="44.13004" lon="5.86899">
        <ele>934</ele>
        <time>2021-06-01T09:53:16.643Z</time>
      </trkpt>
      <trkpt lat="44.13004" lon="5.869">
        <ele>934</ele>
        <time>2021-06-01T09:53:17.643Z</time>
      </trkpt>
      <trkpt lat="44.13003" lon="5.869">
        <ele>934</ele>
        <time>2021-06-01T09:53:18.643Z</time>
      </trkpt>
      <trkpt lat="44.13003" lon="5.86901">
        <ele>934</ele>
        <time>2021-06-01T09:53:19.643Z</time>
      </trkpt>
      <trkpt lat="44.13003" lon="5.86902">
        <ele>934</ele>
        <time>2021-06-01T09:53:20.643Z</time>
      </trkpt>
      <trkpt lat="44.13002" lon="5.86903">
        <ele>934</ele>
        <time>2021-06-01T09:53:21.643Z</time>
      </trkpt>
      <trkpt lat="44.13002" lon="5.86904">
        <ele>934</ele>
        <time>2021-06-01T09:53:22.643Z</time>
      </trkpt>
      <trkpt lat="44.13002" lon="5.86905">
        <ele>935</ele>
        <time>2021-06-01T09:53:23.643Z</time>
      </trkpt>
      <trkpt lat="44.13001" lon="5.86905">
        <ele>935</ele>
        <time>2021-06-01T09:53:24.643Z</time>
      </trkpt>
      <trkpt lat="44.13001" lon="5.86906">
        <ele>935</ele>
        <time>2021-06-01T09:53:25.643Z</time>
      </trkpt>
      <trkpt lat="44.13001" lon="5.86907">
        <ele>935</ele>
        <time>2021-06-01T09:53:26.643Z</time>
      </trkpt>
      <trkpt lat="44.13001" lon="5.86907">
        <ele>936</ele>
        <time>2021-06-01T09:53:27.643Z</time>
      </trkpt>
      <trkpt lat="44.13001" lon="5.86909">
        <ele>936</ele>
        <time>2021-06-01T09:53:28.643Z</time>
      </trkpt>
      <trkpt lat="44.13001" lon="5.8691">
        <ele>936</ele>
        <time>2021-06-01T09:53:29.643Z</time>
      </trkpt>
      <trkpt lat="44.13" lon="5.8691">
        <ele>936</ele>
        <time>2021-06-01T09:53:30.643Z</time>
      </trkpt>
      <trkpt lat="44.13" lon="5.86911">
        <ele>936</ele>
        <time>2021-06-01T09:53:31.643Z</time>
      </trkpt>
      <trkpt lat="44.13" lon="5.86912">
        <ele>936</ele>
        <time>2021-06-01T09:53:32.643Z</time>
      </trkpt>
      <trkpt lat="44.12999" lon="5.86913">
        <ele>936</ele>
        <time>2021-06-01T09:53:33.643Z</time>
      </trkpt>
      <trkpt lat="44.12999" lon="5.86913">
        <ele>937</ele>
        <time>2021-06-01T09:53:34.643Z</time>
      </trkpt>
      <trkpt lat="44.12999" lon="5.86914">
        <ele>937</ele>
        <time>2021-06-01T09:53:35.643Z</time>
      </trkpt>
      <trkpt lat="44.12998" lon="5.86915">
        <ele>937</ele>
        <time>2021-06-01T09:53:36.643Z</time>
      </trkpt>
      <trkpt lat="44.12998" lon="5.86916">
        <ele>937</ele>
        <time>2021-06-01T09:53:37.643Z</time>
      </trkpt>
      <trkpt lat="44.12998" lon="5.86917">
        <ele>938</ele>
        <time>2021-06-01T09:53:38.643Z</time>
      </trkpt>
      <trkpt lat="44.12997" lon="5.86917">
        <ele>938</ele>
        <time>2021-06-01T09:53:39.643Z</time>
      </trkpt>
      <trkpt lat="44.12997" lon="5.86918">
        <ele>938</ele>
        <time>2021-06-01T09:53:40.643Z</time>
      </trkpt>
      <trkpt lat="44.12997" lon="5.86919">
        <ele>938</ele>
        <time>2021-06-01T09:53:41.643Z</time>
      </trkpt>
      <trkpt lat="44.12997" lon="5.8692">
        <ele>938</ele>
        <time>2021-06-01T09:53:42.643Z</time>
      </trkpt>
      <trkpt lat="44.12997" lon="5.8692">
        <ele>938</ele>
        <time>2021-06-01T09:53:43.643Z</time>
      </trkpt>
      <trkpt lat="44.12997" lon="5.86921">
        <ele>938</ele>
        <time>2021-06-01T09:53:44.643Z</time>
      </trkpt>
      <trkpt lat="44.12998" lon="5.86922">
        <ele>938</ele>
        <time>2021-06-01T09:53:45.643Z</time>
      </trkpt>
      <trkpt lat="44.12998" lon="5.86923">
        <ele>938</ele>
        <time>2021-06-01T09:53:46.643Z</time>
      </trkpt>
      <trkpt lat="44.12998" lon="5.86924">
        <ele>938</ele>
        <time>2021-06-01T09:53:47.643Z</time>
      </trkpt>
      <trkpt lat="44.12998" lon="5.86924">
        <ele>938</ele>
        <time>2021-06-01T09:53:48.643Z</time>
      </trkpt>
      <trkpt lat="44.12998" lon="5.86925">
        <ele>938</ele>
        <time>2021-06-01T09:53:49.643Z</time>
      </trkpt>
      <trkpt lat="44.12998" lon="5.86926">
        <ele>938</ele>
        <time>2021-06-01T09:53:50.643Z</time>
      </trkpt>
      <trkpt lat="44.12997" lon="5.86927">
        <ele>939</ele>
        <time>2021-06-01T09:53:51.643Z</time>
      </trkpt>
      <trkpt lat="44.12997" lon="5.86928">
        <ele>939</ele>
        <time>2021-06-01T09:53:52.643Z</time>
      </trkpt>
      <trkpt lat="44.12997" lon="5.86929">
        <ele>939</ele>
        <time>2021-06-01T09:53:53.643Z</time>
      </trkpt>
      <trkpt lat="44.12997" lon="5.8693">
        <ele>939</ele>
        <time>2021-06-01T09:53:54.643Z</time>
      </trkpt>
      <trkpt lat="44.12997" lon="5.86931">
        <ele>939</ele>
        <time>2021-06-01T09:53:55.643Z</time>
      </trkpt>
      <trkpt lat="44.12997" lon="5.86932">
        <ele>939</ele>
        <time>2021-06-01T09:53:56.643Z</time>
      </trkpt>
      <trkpt lat="44.12997" lon="5.86933">
        <ele>939</ele>
        <time>2021-06-01T09:53:57.643Z</time>
      </trkpt>
      <trkpt lat="44.12998" lon="5.86934">
        <ele>939</ele>
        <time>2021-06-01T09:53:58.643Z</time>
      </trkpt>
      <trkpt lat="44.12998" lon="5.86935">
        <ele>939</ele>
        <time>2021-06-01T09:53:59.643Z</time>
      </trkpt>
      <trkpt lat="44.12998" lon="5.86935">
        <ele>939</ele>
        <time>2021-06-01T09:54:00.643Z</time>
      </trkpt>
      <trkpt lat="44.12998" lon="5.86936">
        <ele>939</ele>
        <time>2021-06-01T09:54:01.643Z</time>
      </trkpt>
      <trkpt lat="44.12999" lon="5.86937">
        <ele>939</ele>
        <time>2021-06-01T09:54:02.643Z</time>
      </trkpt>
      <trkpt lat="44.12999" lon="5.86938">
        <ele>939</ele>
        <time>2021-06-01T09:54:03.643Z</time>
      </trkpt>
      <trkpt lat="44.12999" lon="5.86939">
        <ele>939</ele>
        <time>2021-06-01T09:54:04.643Z</time>
      </trkpt>
      <trkpt lat="44.12999" lon="5.8694">
        <ele>939</ele>
        <time>2021-06-01T09:54:05.643Z</time>
      </trkpt>
      <trkpt lat="44.13" lon="5.86941">
        <ele>939</ele>
        <time>2021-06-01T09:54:06.643Z</time>
      </trkpt>
      <trkpt lat="44.13" lon="5.86941">
        <ele>939</ele>
        <time>2021-06-01T09:54:07.643Z</time>
      </trkpt>
      <trkpt lat="44.13" lon="5.86942">
        <ele>939</ele>
        <time>2021-06-01T09:54:08.643Z</time>
      </trkpt>
      <trkpt lat="44.13001" lon="5.86943">
        <ele>939</ele>
        <time>2021-06-01T09:54:09.643Z</time>
      </trkpt>
      <trkpt lat="44.13001" lon="5.86944">
        <ele>939</ele>
        <time>2021-06-01T09:54:10.643Z</time>
      </trkpt>
      <trkpt lat="44.13001" lon="5.86945">
        <ele>939</ele>
        <time>2021-06-01T09:54:11.643Z</time>
      </trkpt>
      <trkpt lat="44.13001" lon="5.86945">
        <ele>938</ele>
        <time>2021-06-01T09:54:12.643Z</time>
      </trkpt>
      <trkpt lat="44.13001" lon="5.86946">
        <ele>938</ele>
        <time>2021-06-01T09:54:13.643Z</time>
      </trkpt>
      <trkpt lat="44.13002" lon="5.86947">
        <ele>938</ele>
        <time>2021-06-01T09:54:14.643Z</time>
      </trkpt>
      <trkpt lat="44.13002" lon="5.86948">
        <ele>938</ele>
        <time>2021-06-01T09:54:15.643Z</time>
      </trkpt>
      <trkpt lat="44.13002" lon="5.86949">
        <ele>938</ele>
        <time>2021-06-01T09:54:16.643Z</time>
      </trkpt>
      <trkpt lat="44.13002" lon="5.8695">
        <ele>938</ele>
        <time>2021-06-01T09:54:17.643Z</time>
      </trkpt>
      <trkpt lat="44.13002" lon="5.86951">
        <ele>938</ele>
        <time>2021-06-01T09:54:18.643Z</time>
      </trkpt>
      <trkpt lat="44.13002" lon="5.86952">
        <ele>938</ele>
        <time>2021-06-01T09:54:19.643Z</time>
      </trkpt>
      <trkpt lat="44.13002" lon="5.86953">
        <ele>938</ele>
        <time>2021-06-01T09:54:20.643Z</time>
      </trkpt>
      <trkpt lat="44.13002" lon="5.86954">
        <ele>938</ele>
        <time>2021-06-01T09:54:21.643Z</time>
      </trkpt>
      <trkpt lat="44.13003" lon="5.86955">
        <ele>938</ele>
        <time>2021-06-01T09:54:22.643Z</time>
      </trkpt>
      <trkpt lat="44.13003" lon="5.86956">
        <ele>938</ele>
        <time>2021-06-01T09:54:23.643Z</time>
      </trkpt>
      <trkpt lat="44.13002" lon="5.86957">
        <ele>938</ele>
        <time>2021-06-01T09:54:24.643Z</time>
      </trkpt>
      <trkpt lat="44.13003" lon="5.86958">
        <ele>938</ele>
        <time>2021-06-01T09:54:25.643Z</time>
      </trkpt>
      <trkpt lat="44.13002" lon="5.86959">
        <ele>938</ele>
        <time>2021-06-01T09:54:26.643Z</time>
      </trkpt>
      <trkpt lat="44.13002" lon="5.8696">
        <ele>938</ele>
        <time>2021-06-01T09:54:27.643Z</time>
      </trkpt>
      <trkpt lat="44.13002" lon="5.86961">
        <ele>938</ele>
        <time>2021-06-01T09:54:28.643Z</time>
      </trkpt>
      <trkpt lat="44.13002" lon="5.86961">
        <ele>938</ele>
        <time>2021-06-01T09:54:29.643Z</time>
      </trkpt>
      <trkpt lat="44.13001" lon="5.86962">
        <ele>938</ele>
        <time>2021-06-01T09:54:30.643Z</time>
      </trkpt>
      <trkpt lat="44.13001" lon="5.86963">
        <ele>938</ele>
        <time>2021-06-01T09:54:31.643Z</time>
      </trkpt>
      <trkpt lat="44.13" lon="5.86963">
        <ele>938</ele>
        <time>2021-06-01T09:54:32.643Z</time>
      </trkpt>
      <trkpt lat="44.13" lon="5.86964">
        <ele>938</ele>
        <time>2021-06-01T09:54:33.643Z</time>
      </trkpt>
      <trkpt lat="44.12999" lon="5.86965">
        <ele>938</ele>
        <time>2021-06-01T09:54:34.643Z</time>
      </trkpt>
      <trkpt lat="44.12999" lon="5.86966">
        <ele>938</ele>
        <time>2021-06-01T09:54:35.643Z</time>
      </trkpt>
      <trkpt lat="44.12998" lon="5.86966">
        <ele>938</ele>
        <time>2021-06-01T09:54:36.643Z</time>
      </trkpt>
      <trkpt lat="44.12998" lon="5.86967">
        <ele>938</ele>
        <time>2021-06-01T09:54:37.643Z</time>
      </trkpt>
      <trkpt lat="44.12998" lon="5.86968">
        <ele>938</ele>
        <time>2021-06-01T09:54:38.643Z</time>
      </trkpt>
      <trkpt lat="44.12998" lon="5.86969">
        <ele>938</ele>
        <time>2021-06-01T09:54:39.643Z</time>
      </trkpt>
      <trkpt lat="44.12998" lon="5.86969">
        <ele>938</ele>
        <time>2021-06-01T09:54:40.643Z</time>
      </trkpt>
      <trkpt lat="44.12997" lon="5.8697">
        <ele>938</ele>
        <time>2021-06-01T09:54:41.643Z</time>
      </trkpt>
      <trkpt lat="44.12997" lon="5.86971">
        <ele>938</ele>
        <time>2021-06-01T09:54:42.643Z</time>
      </trkpt>
      <trkpt lat="44.12997" lon="5.86972">
        <ele>938</ele>
        <time>2021-06-01T09:54:43.643Z</time>
      </trkpt>
      <trkpt lat="44.12996" lon="5.86973">
        <ele>939</ele>
        <time>2021-06-01T09:54:44.643Z</time>
      </trkpt>
      <trkpt lat="44.12996" lon="5.86974">
        <ele>939</ele>
        <time>2021-06-01T09:54:45.643Z</time>
      </trkpt>
      <trkpt lat="44.12996" lon="5.86974">
        <ele>939</ele>
        <time>2021-06-01T09:54:46.643Z</time>
      </trkpt>
      <trkpt lat="44.12997" lon="5.86975">
        <ele>939</ele>
        <time>2021-06-01T09:54:47.643Z</time>
      </trkpt>
      <trkpt lat="44.12997" lon="5.86975">
        <ele>939</ele>
        <time>2021-06-01T09:54:48.643Z</time>
      </trkpt>
      <trkpt lat="44.12997" lon="5.86975">
        <ele>939</ele>
        <time>2021-06-01T09:54:49.643Z</time>
      </trkpt>
      <trkpt lat="44.12997" lon="5.86976">
        <ele>939</ele>
        <time>2021-06-01T09:54:50.643Z</time>
      </trkpt>
      <trkpt lat="44.12997" lon="5.86976">
        <ele>939</ele>
        <time>2021-06-01T09:54:51.643Z</time>
      </trkpt>
      <trkpt lat="44.12997" lon="5.86976">
        <ele>939</ele>
        <time>2021-06-01T09:54:52.643Z</time>
      </trkpt>
      <trkpt lat="44.12997" lon="5.86976">
        <ele>939</ele>
        <time>2021-06-01T09:54:53.643Z</time>
      </trkpt>
      <trkpt lat="44.12997" lon="5.86976">
        <ele>939</ele>
        <time>2021-06-01T09:54:54.643Z</time>
      </trkpt>
      <trkpt lat="44.12997" lon="5.86977">
        <ele>939</ele>
        <time>2021-06-01T09:54:55.643Z</time>
      </trkpt>
      <trkpt lat="44.12997" lon="5.86977">
        <ele>940</ele>
        <time>2021-06-01T09:54:56.643Z</time>
      </trkpt>
      <trkpt lat="44.12997" lon="5.86977">
        <ele>940</ele>
        <time>2021-06-01T09:54:57.643Z</time>
      </trkpt>
      <trkpt lat="44.12997" lon="5.86977">
        <ele>940</ele>
        <time>2021-06-01T09:54:58.643Z</time>
      </trkpt>
      <trkpt lat="44.12997" lon="5.86977">
        <ele>940</ele>
        <time>2021-06-01T09:54:59.643Z</time>
      </trkpt>
      <trkpt lat="44.12997" lon="5.86977">
        <ele>940</ele>
        <time>2021-06-01T09:55:00.643Z</time>
      </trkpt>
      <trkpt lat="44.12997" lon="5.86977">
        <ele>940</ele>
        <time>2021-06-01T09:55:01.643Z</time>
      </trkpt>
      <trkpt lat="44.12997" lon="5.86977">
        <ele>940</ele>
        <time>2021-06-01T09:55:02.643Z</time>
      </trkpt>
      <trkpt lat="44.12997" lon="5.86977">
        <ele>940</ele>
        <time>2021-06-01T09:55:03.643Z</time>
      </trkpt>
      <trkpt lat="44.12997" lon="5.86978">
        <ele>940</ele>
        <time>2021-06-01T09:55:04.643Z</time>
      </trkpt>
      <trkpt lat="44.12997" lon="5.86978">
        <ele>940</ele>
        <time>2021-06-01T09:55:05.643Z</time>
      </trkpt>
      <trkpt lat="44.12997" lon="5.86978">
        <ele>940</ele>
        <time>2021-06-01T09:55:06.643Z</time>
      </trkpt>
      <trkpt lat="44.12997" lon="5.86978">
        <ele>940</ele>
        <time>2021-06-01T09:55:07.643Z</time>
      </trkpt>
      <trkpt lat="44.12997" lon="5.86978">
        <ele>940</ele>
        <time>2021-06-01T09:55:08.643Z</time>
      </trkpt>
      <trkpt lat="44.12997" lon="5.86978">
        <ele>940</ele>
        <time>2021-06-01T09:55:09.643Z</time>
      </trkpt>
      <trkpt lat="44.12997" lon="5.86978">
        <ele>940</ele>
        <time>2021-06-01T09:55:10.643Z</time>
      </trkpt>
      <trkpt lat="44.12997" lon="5.86978">
        <ele>940</ele>
        <time>2021-06-01T09:55:11.643Z</time>
      </trkpt>
      <trkpt lat="44.12997" lon="5.86978">
        <ele>940</ele>
        <time>2021-06-01T09:55:12.643Z</time>
      </trkpt>
      <trkpt lat="44.12997" lon="5.86978">
        <ele>940</ele>
        <time>2021-06-01T09:55:13.643Z</time>
      </trkpt>
      <trkpt lat="44.12997" lon="5.86978">
        <ele>941</ele>
        <time>2021-06-01T09:55:14.643Z</time>
      </trkpt>
      <trkpt lat="44.12997" lon="5.86978">
        <ele>941</ele>
        <time>2021-06-01T09:55:15.643Z</time>
      </trkpt>
      <trkpt lat="44.12997" lon="5.86979">
        <ele>941</ele>
        <time>2021-06-01T09:55:16.643Z</time>
      </trkpt>
      <trkpt lat="44.12997" lon="5.86979">
        <ele>941</ele>
        <time>2021-06-01T09:55:17.643Z</time>
      </trkpt>
      <trkpt lat="44.12997" lon="5.86979">
        <ele>941</ele>
        <time>2021-06-01T09:55:18.643Z</time>
      </trkpt>
      <trkpt lat="44.12997" lon="5.86979">
        <ele>941</ele>
        <time>2021-06-01T09:55:19.643Z</time>
      </trkpt>
      <trkpt lat="44.12997" lon="5.86979">
        <ele>941</ele>
        <time>2021-06-01T09:55:20.643Z</time>
      </trkpt>
      <trkpt lat="44.12997" lon="5.86979">
        <ele>941</ele>
        <time>2021-06-01T09:55:21.643Z</time>
      </trkpt>
      <trkpt lat="44.12997" lon="5.86979">
        <ele>941</ele>
        <time>2021-06-01T09:55:22.643Z</time>
      </trkpt>
      <trkpt lat="44.12997" lon="5.8698">
        <ele>941</ele>
        <time>2021-06-01T09:55:23.643Z</time>
      </trkpt>
      <trkpt lat="44.12997" lon="5.8698">
        <ele>941</ele>
        <time>2021-06-01T09:55:24.643Z</time>
      </trkpt>
      <trkpt lat="44.12997" lon="5.8698">
        <ele>941</ele>
        <time>2021-06-01T09:55:25.643Z</time>
      </trkpt>
      <trkpt lat="44.12997" lon="5.8698">
        <ele>941</ele>
        <time>2021-06-01T09:55:26.643Z</time>
      </trkpt>
      <trkpt lat="44.12997" lon="5.8698">
        <ele>941</ele>
        <time>2021-06-01T09:55:27.643Z</time>
      </trkpt>
      <trkpt lat="44.12997" lon="5.8698">
        <ele>941</ele>
        <time>2021-06-01T09:55:28.643Z</time>
      </trkpt>
      <trkpt lat="44.12997" lon="5.8698">
        <ele>941</ele>
        <time>2021-06-01T09:55:29.643Z</time>
      </trkpt>
      <trkpt lat="44.12996" lon="5.8698">
        <ele>941</ele>
        <time>2021-06-01T09:55:30.643Z</time>
      </trkpt>
      <trkpt lat="44.12996" lon="5.8698">
        <ele>941</ele>
        <time>2021-06-01T09:55:31.643Z</time>
      </trkpt>
      <trkpt lat="44.12996" lon="5.8698">
        <ele>941</ele>
        <time>2021-06-01T09:55:32.643Z</time>
      </trkpt>
      <trkpt lat="44.12996" lon="5.8698">
        <ele>941</ele>
        <time>2021-06-01T09:55:33.643Z</time>
      </trkpt>
      <trkpt lat="44.12995" lon="5.8698">
        <ele>941</ele>
        <time>2021-06-01T09:55:34.643Z</time>
      </trkpt>
      <trkpt lat="44.12995" lon="5.8698">
        <ele>941</ele>
        <time>2021-06-01T09:55:35.643Z</time>
      </trkpt>
      <trkpt lat="44.12995" lon="5.8698">
        <ele>941</ele>
        <time>2021-06-01T09:55:36.643Z</time>
      </trkpt>
      <trkpt lat="44.12995" lon="5.8698">
        <ele>941</ele>
        <time>2021-06-01T09:55:37.643Z</time>
      </trkpt>
      <trkpt lat="44.12995" lon="5.8698">
        <ele>941</ele>
        <time>2021-06-01T09:55:38.643Z</time>
      </trkpt>
      <trkpt lat="44.12995" lon="5.8698">
        <ele>941</ele>
        <time>2021-06-01T09:55:39.643Z</time>
      </trkpt>
      <trkpt lat="44.12995" lon="5.8698">
        <ele>941</ele>
        <time>2021-06-01T09:55:40.643Z</time>
      </trkpt>
      <trkpt lat="44.12995" lon="5.8698">
        <ele>941</ele>
        <time>2021-06-01T09:55:41.643Z</time>
      </trkpt>
      <trkpt lat="44.12995" lon="5.86981">
        <ele>941</ele>
        <time>2021-06-01T09:55:42.643Z</time>
      </trkpt>
      <trkpt lat="44.12995" lon="5.86981">
        <ele>941</ele>
        <time>2021-06-01T09:55:43.643Z</time>
      </trkpt>
      <trkpt lat="44.12995" lon="5.86981">
        <ele>941</ele>
        <time>2021-06-01T09:55:44.643Z</time>
      </trkpt>
      <trkpt lat="44.12995" lon="5.86981">
        <ele>941</ele>
        <time>2021-06-01T09:55:45.643Z</time>
      </trkpt>
      <trkpt lat="44.12995" lon="5.86981">
        <ele>941</ele>
        <time>2021-06-01T09:55:46.643Z</time>
      </trkpt>
      <trkpt lat="44.12995" lon="5.86981">
        <ele>941</ele>
        <time>2021-06-01T09:55:47.643Z</time>
      </trkpt>
      <trkpt lat="44.12995" lon="5.86981">
        <ele>942</ele>
        <time>2021-06-01T09:55:48.643Z</time>
      </trkpt>
      <trkpt lat="44.12995" lon="5.86981">
        <ele>942</ele>
        <time>2021-06-01T09:55:49.643Z</time>
      </trkpt>
      <trkpt lat="44.12995" lon="5.86981">
        <ele>942</ele>
        <time>2021-06-01T09:55:50.643Z</time>
      </trkpt>
      <trkpt lat="44.12995" lon="5.86981">
        <ele>942</ele>
        <time>2021-06-01T09:55:51.643Z</time>
      </trkpt>
      <trkpt lat="44.12996" lon="5.86981">
        <ele>942</ele>
        <time>2021-06-01T09:55:52.643Z</time>
      </trkpt>
      <trkpt lat="44.12995" lon="5.86981">
        <ele>942</ele>
        <time>2021-06-01T09:55:53.643Z</time>
      </trkpt>
      <trkpt lat="44.12996" lon="5.86981">
        <ele>942</ele>
        <time>2021-06-01T09:55:54.643Z</time>
      </trkpt>
      <trkpt lat="44.12996" lon="5.86981">
        <ele>942</ele>
        <time>2021-06-01T09:55:55.643Z</time>
      </trkpt>
      <trkpt lat="44.12996" lon="5.86981">
        <ele>942</ele>
        <time>2021-06-01T09:55:56.643Z</time>
      </trkpt>
      <trkpt lat="44.12996" lon="5.86981">
        <ele>942</ele>
        <time>2021-06-01T09:55:57.643Z</time>
      </trkpt>
      <trkpt lat="44.12996" lon="5.86981">
        <ele>942</ele>
        <time>2021-06-01T09:55:58.643Z</time>
      </trkpt>
      <trkpt lat="44.12996" lon="5.86981">
        <ele>942</ele>
        <time>2021-06-01T09:55:59.643Z</time>
      </trkpt>
      <trkpt lat="44.12996" lon="5.86981">
        <ele>942</ele>
        <time>2021-06-01T09:56:00.643Z</time>
      </trkpt>
      <trkpt lat="44.12996" lon="5.86981">
        <ele>942</ele>
        <time>2021-06-01T09:56:01.643Z</time>
      </trkpt>
      <trkpt lat="44.12996" lon="5.86981">
        <ele>942</ele>
        <time>2021-06-01T09:56:02.643Z</time>
      </trkpt>
      <trkpt lat="44.12996" lon="5.86981">
        <ele>942</ele>
        <time>2021-06-01T09:56:03.643Z</time>
      </trkpt>
      <trkpt lat="44.12996" lon="5.86981">
        <ele>942</ele>
        <time>2021-06-01T09:56:04.643Z</time>
      </trkpt>
      <trkpt lat="44.12996" lon="5.86981">
        <ele>942</ele>
        <time>2021-06-01T09:56:05.643Z</time>
      </trkpt>
      <trkpt lat="44.12996" lon="5.86981">
        <ele>942</ele>
        <time>2021-06-01T09:56:06.643Z</time>
      </trkpt>
      <trkpt lat="44.12996" lon="5.86981">
        <ele>942</ele>
        <time>2021-06-01T09:56:07.643Z</time>
      </trkpt>
      <trkpt lat="44.12996" lon="5.86981">
        <ele>942</ele>
        <time>2021-06-01T09:56:08.643Z</time>
      </trkpt>
      <trkpt lat="44.12996" lon="5.86981">
        <ele>942</ele>
        <time>2021-06-01T09:56:09.643Z</time>
      </trkpt>
      <trkpt lat="44.12996" lon="5.86981">
        <ele>942</ele>
        <time>2021-06-01T09:56:10.643Z</time>
      </trkpt>
      <trkpt lat="44.12996" lon="5.86981">
        <ele>942</ele>
        <time>2021-06-01T09:56:11.643Z</time>
      </trkpt>
      <trkpt lat="44.12996" lon="5.86981">
        <ele>942</ele>
        <time>2021-06-01T09:56:12.643Z</time>
      </trkpt>
      <trkpt lat="44.12996" lon="5.86981">
        <ele>942</ele>
        <time>2021-06-01T09:56:13.643Z</time>
      </trkpt>
      <trkpt lat="44.12996" lon="5.86981">
        <ele>942</ele>
        <time>2021-06-01T09:56:14.643Z</time>
      </trkpt>
      <trkpt lat="44.12996" lon="5.86981">
        <ele>942</ele>
        <time>2021-06-01T09:56:15.643Z</time>
      </trkpt>
      <trkpt lat="44.12996" lon="5.86981">
        <ele>942</ele>
        <time>2021-06-01T09:56:16.643Z</time>
      </trkpt>
      <trkpt lat="44.12996" lon="5.86981">
        <ele>942</ele>
        <time>2021-06-01T09:56:17.643Z</time>
      </trkpt>
      <trkpt lat="44.12996" lon="5.86981">
        <ele>942</ele>
        <time>2021-06-01T09:56:18.643Z</time>
      </trkpt>
      <trkpt lat="44.12996" lon="5.86981">
        <ele>942</ele>
        <time>2021-06-01T09:56:19.643Z</time>
      </trkpt>
      <trkpt lat="44.12996" lon="5.86981">
        <ele>942</ele>
        <time>2021-06-01T09:56:20.643Z</time>
      </trkpt>
      <trkpt lat="44.12996" lon="5.86981">
        <ele>942</ele>
        <time>2021-06-01T09:56:21.643Z</time>
      </trkpt>
      <trkpt lat="44.12996" lon="5.86981">
        <ele>942</ele>
        <time>2021-06-01T09:56:22.643Z</time>
      </trkpt>
      <trkpt lat="44.12996" lon="5.86981">
        <ele>942</ele>
        <time>2021-06-01T09:56:23.643Z</time>
      </trkpt>
      <trkpt lat="44.12996" lon="5.86981">
        <ele>943</ele>
        <time>2021-06-01T09:56:24.643Z</time>
      </trkpt>
      <trkpt lat="44.12997" lon="5.86981">
        <ele>943</ele>
        <time>2021-06-01T09:56:25.643Z</time>
      </trkpt>
      <trkpt lat="44.12997" lon="5.86981">
        <ele>943</ele>
        <time>2021-06-01T09:56:26.643Z</time>
      </trkpt>
      <trkpt lat="44.12997" lon="5.86981">
        <ele>943</ele>
        <time>2021-06-01T09:56:27.643Z</time>
      </trkpt>
      <trkpt lat="44.12997" lon="5.86981">
        <ele>943</ele>
        <time>2021-06-01T09:56:28.643Z</time>
      </trkpt>
      <trkpt lat="44.12997" lon="5.86981">
        <ele>943</ele>
        <time>2021-06-01T09:56:29.643Z</time>
      </trkpt>
      <trkpt lat="44.12997" lon="5.86981">
        <ele>943</ele>
        <time>2021-06-01T09:56:30.643Z</time>
      </trkpt>
      <trkpt lat="44.12997" lon="5.86981">
        <ele>943</ele>
        <time>2021-06-01T09:56:31.643Z</time>
      </trkpt>
      <trkpt lat="44.12997" lon="5.86981">
        <ele>943</ele>
        <time>2021-06-01T09:56:32.643Z</time>
      </trkpt>
      <trkpt lat="44.12997" lon="5.86981">
        <ele>943</ele>
        <time>2021-06-01T09:56:33.643Z</time>
      </trkpt>
      <trkpt lat="44.12997" lon="5.86982">
        <ele>943</ele>
        <time>2021-06-01T09:56:34.643Z</time>
      </trkpt>
      <trkpt lat="44.12997" lon="5.86982">
        <ele>943</ele>
        <time>2021-06-01T09:56:35.643Z</time>
      </trkpt>
      <trkpt lat="44.12997" lon="5.86982">
        <ele>943</ele>
        <time>2021-06-01T09:56:36.643Z</time>
      </trkpt>
      <trkpt lat="44.12997" lon="5.86982">
        <ele>943</ele>
        <time>2021-06-01T09:56:37.643Z</time>
      </trkpt>
      <trkpt lat="44.12998" lon="5.86982">
        <ele>943</ele>
        <time>2021-06-01T09:56:38.643Z</time>
      </trkpt>
      <trkpt lat="44.12998" lon="5.86982">
        <ele>943</ele>
        <time>2021-06-01T09:56:39.643Z</time>
      </trkpt>
      <trkpt lat="44.12998" lon="5.86982">
        <ele>943</ele>
        <time>2021-06-01T09:56:40.643Z</time>
      </trkpt>
      <trkpt lat="44.12998" lon="5.86982">
        <ele>943</ele>
        <time>2021-06-01T09:56:41.643Z</time>
      </trkpt>
      <trkpt lat="44.12998" lon="5.86982">
        <ele>943</ele>
        <time>2021-06-01T09:56:42.643Z</time>
      </trkpt>
      <trkpt lat="44.12998" lon="5.86983">
        <ele>943</ele>
        <time>2021-06-01T09:56:43.643Z</time>
      </trkpt>
      <trkpt lat="44.12998" lon="5.86983">
        <ele>943</ele>
        <time>2021-06-01T09:56:44.643Z</time>
      </trkpt>
      <trkpt lat="44.12998" lon="5.86983">
        <ele>943</ele>
        <time>2021-06-01T09:56:45.643Z</time>
      </trkpt>
      <trkpt lat="44.12998" lon="5.86983">
        <ele>943</ele>
        <time>2021-06-01T09:56:46.643Z</time>
      </trkpt>
      <trkpt lat="44.12998" lon="5.86983">
        <ele>943</ele>
        <time>2021-06-01T09:56:47.643Z</time>
      </trkpt>
      <trkpt lat="44.12998" lon="5.86983">
        <ele>943</ele>
        <time>2021-06-01T09:56:48.643Z</time>
      </trkpt>
      <trkpt lat="44.12998" lon="5.86983">
        <ele>943</ele>
        <time>2021-06-01T09:56:49.643Z</time>
      </trkpt>
      <trkpt lat="44.12998" lon="5.86983">
        <ele>943</ele>
        <time>2021-06-01T09:56:50.643Z</time>
      </trkpt>
      <trkpt lat="44.12998" lon="5.86983">
        <ele>943</ele>
        <time>2021-06-01T09:56:51.643Z</time>
      </trkpt>
      <trkpt lat="44.12998" lon="5.86983">
        <ele>943</ele>
        <time>2021-06-01T09:56:52.643Z</time>
      </trkpt>
      <trkpt lat="44.12998" lon="5.86983">
        <ele>943</ele>
        <time>2021-06-01T09:56:53.643Z</time>
      </trkpt>
      <trkpt lat="44.12998" lon="5.86983">
        <ele>943</ele>
        <time>2021-06-01T09:56:54.643Z</time>
      </trkpt>
      <trkpt lat="44.12998" lon="5.86983">
        <ele>943</ele>
        <time>2021-06-01T09:56:55.643Z</time>
      </trkpt>
      <trkpt lat="44.12998" lon="5.86983">
        <ele>943</ele>
        <time>2021-06-01T09:56:56.643Z</time>
      </trkpt>
      <trkpt lat="44.12998" lon="5.86983">
        <ele>943</ele>
        <time>2021-06-01T09:56:57.643Z</time>
      </trkpt>
      <trkpt lat="44.12998" lon="5.86983">
        <ele>944</ele>
        <time>2021-06-01T09:56:58.643Z</time>
      </trkpt>
      <trkpt lat="44.12998" lon="5.86983">
        <ele>944</ele>
        <time>2021-06-01T09:56:59.643Z</time>
      </trkpt>
      <trkpt lat="44.12998" lon="5.86984">
        <ele>944</ele>
        <time>2021-06-01T09:57:00.643Z</time>
      </trkpt>
      <trkpt lat="44.12998" lon="5.86984">
        <ele>944</ele>
        <time>2021-06-01T09:57:01.643Z</time>
      </trkpt>
      <trkpt lat="44.12998" lon="5.86986">
        <ele>943</ele>
        <time>2021-06-01T09:57:02.643Z</time>
      </trkpt>
      <trkpt lat="44.12998" lon="5.86986">
        <ele>944</ele>
        <time>2021-06-01T09:57:03.643Z</time>
      </trkpt>
      <trkpt lat="44.12998" lon="5.86987">
        <ele>944</ele>
        <time>2021-06-01T09:57:04.643Z</time>
      </trkpt>
      <trkpt lat="44.12998" lon="5.86988">
        <ele>944</ele>
        <time>2021-06-01T09:57:05.643Z</time>
      </trkpt>
      <trkpt lat="44.12998" lon="5.86989">
        <ele>944</ele>
        <time>2021-06-01T09:57:06.643Z</time>
      </trkpt>
      <trkpt lat="44.12999" lon="5.8699">
        <ele>944</ele>
        <time>2021-06-01T09:57:07.643Z</time>
      </trkpt>
      <trkpt lat="44.12999" lon="5.86991">
        <ele>944</ele>
        <time>2021-06-01T09:57:08.643Z</time>
      </trkpt>
      <trkpt lat="44.12999" lon="5.86991">
        <ele>944</ele>
        <time>2021-06-01T09:57:09.643Z</time>
      </trkpt>
      <trkpt lat="44.13" lon="5.86992">
        <ele>944</ele>
        <time>2021-06-01T09:57:10.643Z</time>
      </trkpt>
      <trkpt lat="44.13" lon="5.86993">
        <ele>944</ele>
        <time>2021-06-01T09:57:11.643Z</time>
      </trkpt>
      <trkpt lat="44.13" lon="5.86993">
        <ele>944</ele>
        <time>2021-06-01T09:57:12.643Z</time>
      </trkpt>
      <trkpt lat="44.13001" lon="5.86994">
        <ele>944</ele>
        <time>2021-06-01T09:57:13.643Z</time>
      </trkpt>
      <trkpt lat="44.13001" lon="5.86994">
        <ele>944</ele>
        <time>2021-06-01T09:57:14.643Z</time>
      </trkpt>
      <trkpt lat="44.13002" lon="5.86995">
        <ele>944</ele>
        <time>2021-06-01T09:57:15.643Z</time>
      </trkpt>
      <trkpt lat="44.13003" lon="5.86995">
        <ele>944</ele>
        <time>2021-06-01T09:57:16.643Z</time>
      </trkpt>
      <trkpt lat="44.13003" lon="5.86996">
        <ele>944</ele>
        <time>2021-06-01T09:57:17.643Z</time>
      </trkpt>
      <trkpt lat="44.13003" lon="5.86996">
        <ele>944</ele>
        <time>2021-06-01T09:57:18.643Z</time>
      </trkpt>
      <trkpt lat="44.13003" lon="5.86996">
        <ele>944</ele>
        <time>2021-06-01T09:57:19.643Z</time>
      </trkpt>
      <trkpt lat="44.13003" lon="5.86996">
        <ele>944</ele>
        <time>2021-06-01T09:57:20.643Z</time>
      </trkpt>
      <trkpt lat="44.13003" lon="5.86996">
        <ele>944</ele>
        <time>2021-06-01T09:57:21.643Z</time>
      </trkpt>
      <trkpt lat="44.13003" lon="5.86996">
        <ele>944</ele>
        <time>2021-06-01T09:57:22.643Z</time>
      </trkpt>
      <trkpt lat="44.13003" lon="5.86996">
        <ele>944</ele>
        <time>2021-06-01T09:57:23.643Z</time>
      </trkpt>
      <trkpt lat="44.13003" lon="5.86996">
        <ele>944</ele>
        <time>2021-06-01T09:57:24.643Z</time>
      </trkpt>
      <trkpt lat="44.13003" lon="5.86997">
        <ele>944</ele>
        <time>2021-06-01T09:57:25.643Z</time>
      </trkpt>
      <trkpt lat="44.13004" lon="5.86997">
        <ele>944</ele>
        <time>2021-06-01T09:57:26.643Z</time>
      </trkpt>
      <trkpt lat="44.13004" lon="5.86998">
        <ele>945</ele>
        <time>2021-06-01T09:57:27.643Z</time>
      </trkpt>
      <trkpt lat="44.13004" lon="5.86999">
        <ele>945</ele>
        <time>2021-06-01T09:57:28.643Z</time>
      </trkpt>
      <trkpt lat="44.13005" lon="5.87">
        <ele>945</ele>
        <time>2021-06-01T09:57:29.643Z</time>
      </trkpt>
      <trkpt lat="44.13005" lon="5.87">
        <ele>945</ele>
        <time>2021-06-01T09:57:30.643Z</time>
      </trkpt>
      <trkpt lat="44.13006" lon="5.87001">
        <ele>945</ele>
        <time>2021-06-01T09:57:31.643Z</time>
      </trkpt>
      <trkpt lat="44.13006" lon="5.87002">
        <ele>945</ele>
        <time>2021-06-01T09:57:32.643Z</time>
      </trkpt>
      <trkpt lat="44.13006" lon="5.87003">
        <ele>945</ele>
        <time>2021-06-01T09:57:33.643Z</time>
      </trkpt>
      <trkpt lat="44.13007" lon="5.87004">
        <ele>946</ele>
        <time>2021-06-01T09:57:34.643Z</time>
      </trkpt>
      <trkpt lat="44.13008" lon="5.87005">
        <ele>946</ele>
        <time>2021-06-01T09:57:35.643Z</time>
      </trkpt>
      <trkpt lat="44.13008" lon="5.87006">
        <ele>946</ele>
        <time>2021-06-01T09:57:36.643Z</time>
      </trkpt>
      <trkpt lat="44.13009" lon="5.87007">
        <ele>946</ele>
        <time>2021-06-01T09:57:37.643Z</time>
      </trkpt>
      <trkpt lat="44.13009" lon="5.87008">
        <ele>946</ele>
        <time>2021-06-01T09:57:38.643Z</time>
      </trkpt>
      <trkpt lat="44.13009" lon="5.87009">
        <ele>946</ele>
        <time>2021-06-01T09:57:39.643Z</time>
      </trkpt>
      <trkpt lat="44.13009" lon="5.8701">
        <ele>946</ele>
        <time>2021-06-01T09:57:40.643Z</time>
      </trkpt>
      <trkpt lat="44.1301" lon="5.87011">
        <ele>946</ele>
        <time>2021-06-01T09:57:41.643Z</time>
      </trkpt>
      <trkpt lat="44.13011" lon="5.87012">
        <ele>946</ele>
        <time>2021-06-01T09:57:42.643Z</time>
      </trkpt>
      <trkpt lat="44.13011" lon="5.87013">
        <ele>946</ele>
        <time>2021-06-01T09:57:43.643Z</time>
      </trkpt>
      <trkpt lat="44.13011" lon="5.87014">
        <ele>946</ele>
        <time>2021-06-01T09:57:44.643Z</time>
      </trkpt>
      <trkpt lat="44.13012" lon="5.87015">
        <ele>946</ele>
        <time>2021-06-01T09:57:45.643Z</time>
      </trkpt>
      <trkpt lat="44.13012" lon="5.87016">
        <ele>946</ele>
        <time>2021-06-01T09:57:46.643Z</time>
      </trkpt>
      <trkpt lat="44.13012" lon="5.87017">
        <ele>946</ele>
        <time>2021-06-01T09:57:47.643Z</time>
      </trkpt>
      <trkpt lat="44.13012" lon="5.87018">
        <ele>947</ele>
        <time>2021-06-01T09:57:48.643Z</time>
      </trkpt>
      <trkpt lat="44.13013" lon="5.87019">
        <ele>947</ele>
        <time>2021-06-01T09:57:49.643Z</time>
      </trkpt>
      <trkpt lat="44.13013" lon="5.8702">
        <ele>947</ele>
        <time>2021-06-01T09:57:50.643Z</time>
      </trkpt>
      <trkpt lat="44.13014" lon="5.8702">
        <ele>947</ele>
        <time>2021-06-01T09:57:51.643Z</time>
      </trkpt>
      <trkpt lat="44.13014" lon="5.87021">
        <ele>947</ele>
        <time>2021-06-01T09:57:52.643Z</time>
      </trkpt>
      <trkpt lat="44.13015" lon="5.87021">
        <ele>947</ele>
        <time>2021-06-01T09:57:53.643Z</time>
      </trkpt>
      <trkpt lat="44.13015" lon="5.87022">
        <ele>947</ele>
        <time>2021-06-01T09:57:54.643Z</time>
      </trkpt>
      <trkpt lat="44.13016" lon="5.87023">
        <ele>948</ele>
        <time>2021-06-01T09:57:55.643Z</time>
      </trkpt>
      <trkpt lat="44.13016" lon="5.87024">
        <ele>948</ele>
        <time>2021-06-01T09:57:56.643Z</time>
      </trkpt>
      <trkpt lat="44.13016" lon="5.87025">
        <ele>948</ele>
        <time>2021-06-01T09:57:57.643Z</time>
      </trkpt>
      <trkpt lat="44.13017" lon="5.87026">
        <ele>948</ele>
        <time>2021-06-01T09:57:58.643Z</time>
      </trkpt>
      <trkpt lat="44.13017" lon="5.87027">
        <ele>948</ele>
        <time>2021-06-01T09:57:59.643Z</time>
      </trkpt>
      <trkpt lat="44.13017" lon="5.87027">
        <ele>948</ele>
        <time>2021-06-01T09:58:00.643Z</time>
      </trkpt>
      <trkpt lat="44.13018" lon="5.87029">
        <ele>948</ele>
        <time>2021-06-01T09:58:01.643Z</time>
      </trkpt>
      <trkpt lat="44.13018" lon="5.8703">
        <ele>949</ele>
        <time>2021-06-01T09:58:02.643Z</time>
      </trkpt>
      <trkpt lat="44.13018" lon="5.87031">
        <ele>949</ele>
        <time>2021-06-01T09:58:03.643Z</time>
      </trkpt>
      <trkpt lat="44.13019" lon="5.87032">
        <ele>949</ele>
        <time>2021-06-01T09:58:04.643Z</time>
      </trkpt>
      <trkpt lat="44.13019" lon="5.87033">
        <ele>949</ele>
        <time>2021-06-01T09:58:05.643Z</time>
      </trkpt>
      <trkpt lat="44.13019" lon="5.87034">
        <ele>949</ele>
        <time>2021-06-01T09:58:06.643Z</time>
      </trkpt>
      <trkpt lat="44.1302" lon="5.87035">
        <ele>949</ele>
        <time>2021-06-01T09:58:07.643Z</time>
      </trkpt>
      <trkpt lat="44.1302" lon="5.87036">
        <ele>949</ele>
        <time>2021-06-01T09:58:08.643Z</time>
      </trkpt>
      <trkpt lat="44.13021" lon="5.87037">
        <ele>949</ele>
        <time>2021-06-01T09:58:09.643Z</time>
      </trkpt>
      <trkpt lat="44.13022" lon="5.87037">
        <ele>949</ele>
        <time>2021-06-01T09:58:10.643Z</time>
      </trkpt>
      <trkpt lat="44.13022" lon="5.87038">
        <ele>950</ele>
        <time>2021-06-01T09:58:11.643Z</time>
      </trkpt>
      <trkpt lat="44.13023" lon="5.87039">
        <ele>950</ele>
        <time>2021-06-01T09:58:12.643Z</time>
      </trkpt>
      <trkpt lat="44.13024" lon="5.87039">
        <ele>950</ele>
        <time>2021-06-01T09:58:13.643Z</time>
      </trkpt>
      <trkpt lat="44.13024" lon="5.8704">
        <ele>950</ele>
        <time>2021-06-01T09:58:14.643Z</time>
      </trkpt>
      <trkpt lat="44.13025" lon="5.87041">
        <ele>950</ele>
        <time>2021-06-01T09:58:15.643Z</time>
      </trkpt>
      <trkpt lat="44.13026" lon="5.87042">
        <ele>950</ele>
        <time>2021-06-01T09:58:16.643Z</time>
      </trkpt>
      <trkpt lat="44.13026" lon="5.87042">
        <ele>950</ele>
        <time>2021-06-01T09:58:17.643Z</time>
      </trkpt>
      <trkpt lat="44.13027" lon="5.87043">
        <ele>950</ele>
        <time>2021-06-01T09:58:18.643Z</time>
      </trkpt>
      <trkpt lat="44.13027" lon="5.87043">
        <ele>950</ele>
        <time>2021-06-01T09:58:19.643Z</time>
      </trkpt>
      <trkpt lat="44.13028" lon="5.87044">
        <ele>950</ele>
        <time>2021-06-01T09:58:20.643Z</time>
      </trkpt>
      <trkpt lat="44.13029" lon="5.87045">
        <ele>951</ele>
        <time>2021-06-01T09:58:21.643Z</time>
      </trkpt>
      <trkpt lat="44.13029" lon="5.87045">
        <ele>951</ele>
        <time>2021-06-01T09:58:22.643Z</time>
      </trkpt>
      <trkpt lat="44.1303" lon="5.87046">
        <ele>951</ele>
        <time>2021-06-01T09:58:23.643Z</time>
      </trkpt>
      <trkpt lat="44.1303" lon="5.87046">
        <ele>951</ele>
        <time>2021-06-01T09:58:24.643Z</time>
      </trkpt>
      <trkpt lat="44.13031" lon="5.87047">
        <ele>951</ele>
        <time>2021-06-01T09:58:25.643Z</time>
      </trkpt>
      <trkpt lat="44.13031" lon="5.87048">
        <ele>951</ele>
        <time>2021-06-01T09:58:26.643Z</time>
      </trkpt>
      <trkpt lat="44.13031" lon="5.87048">
        <ele>951</ele>
        <time>2021-06-01T09:58:27.643Z</time>
      </trkpt>
      <trkpt lat="44.13032" lon="5.87049">
        <ele>951</ele>
        <time>2021-06-01T09:58:28.643Z</time>
      </trkpt>
      <trkpt lat="44.13032" lon="5.8705">
        <ele>951</ele>
        <time>2021-06-01T09:58:29.643Z</time>
      </trkpt>
      <trkpt lat="44.13033" lon="5.8705">
        <ele>951</ele>
        <time>2021-06-01T09:58:30.643Z</time>
      </trkpt>
      <trkpt lat="44.13033" lon="5.87051">
        <ele>951</ele>
        <time>2021-06-01T09:58:31.643Z</time>
      </trkpt>
      <trkpt lat="44.13034" lon="5.87052">
        <ele>951</ele>
        <time>2021-06-01T09:58:32.643Z</time>
      </trkpt>
      <trkpt lat="44.13035" lon="5.87053">
        <ele>951</ele>
        <time>2021-06-01T09:58:33.643Z</time>
      </trkpt>
      <trkpt lat="44.13036" lon="5.87054">
        <ele>951</ele>
        <time>2021-06-01T09:58:34.643Z</time>
      </trkpt>
      <trkpt lat="44.13036" lon="5.87054">
        <ele>951</ele>
        <time>2021-06-01T09:58:35.643Z</time>
      </trkpt>
      <trkpt lat="44.13037" lon="5.87055">
        <ele>950</ele>
        <time>2021-06-01T09:58:36.643Z</time>
      </trkpt>
      <trkpt lat="44.13038" lon="5.87056">
        <ele>950</ele>
        <time>2021-06-01T09:58:37.643Z</time>
      </trkpt>
      <trkpt lat="44.13039" lon="5.87057">
        <ele>950</ele>
        <time>2021-06-01T09:58:38.643Z</time>
      </trkpt>
      <trkpt lat="44.1304" lon="5.87057">
        <ele>950</ele>
        <time>2021-06-01T09:58:39.643Z</time>
      </trkpt>
      <trkpt lat="44.13041" lon="5.87058">
        <ele>950</ele>
        <time>2021-06-01T09:58:40.643Z</time>
      </trkpt>
      <trkpt lat="44.13042" lon="5.87058">
        <ele>950</ele>
        <time>2021-06-01T09:58:41.643Z</time>
      </trkpt>
      <trkpt lat="44.13042" lon="5.87059">
        <ele>950</ele>
        <time>2021-06-01T09:58:42.643Z</time>
      </trkpt>
      <trkpt lat="44.13043" lon="5.87059">
        <ele>950</ele>
        <time>2021-06-01T09:58:43.643Z</time>
      </trkpt>
      <trkpt lat="44.13044" lon="5.8706">
        <ele>950</ele>
        <time>2021-06-01T09:58:44.643Z</time>
      </trkpt>
      <trkpt lat="44.13045" lon="5.87061">
        <ele>950</ele>
        <time>2021-06-01T09:58:45.643Z</time>
      </trkpt>
      <trkpt lat="44.13046" lon="5.87061">
        <ele>950</ele>
        <time>2021-06-01T09:58:46.643Z</time>
      </trkpt>
      <trkpt lat="44.13047" lon="5.87062">
        <ele>950</ele>
        <time>2021-06-01T09:58:47.643Z</time>
      </trkpt>
      <trkpt lat="44.13048" lon="5.87063">
        <ele>950</ele>
        <time>2021-06-01T09:58:48.643Z</time>
      </trkpt>
      <trkpt lat="44.13049" lon="5.87063">
        <ele>950</ele>
        <time>2021-06-01T09:58:49.643Z</time>
      </trkpt>
      <trkpt lat="44.13049" lon="5.87064">
        <ele>950</ele>
        <time>2021-06-01T09:58:50.643Z</time>
      </trkpt>
      <trkpt lat="44.1305" lon="5.87064">
        <ele>951</ele>
        <time>2021-06-01T09:58:51.643Z</time>
      </trkpt>
      <trkpt lat="44.13051" lon="5.87065">
        <ele>951</ele>
        <time>2021-06-01T09:58:52.643Z</time>
      </trkpt>
      <trkpt lat="44.13051" lon="5.87065">
        <ele>951</ele>
        <time>2021-06-01T09:58:53.643Z</time>
      </trkpt>
      <trkpt lat="44.13052" lon="5.87065">
        <ele>951</ele>
        <time>2021-06-01T09:58:54.643Z</time>
      </trkpt>
      <trkpt lat="44.13053" lon="5.87066">
        <ele>951</ele>
        <time>2021-06-01T09:58:55.643Z</time>
      </trkpt>
      <trkpt lat="44.13053" lon="5.87066">
        <ele>951</ele>
        <time>2021-06-01T09:58:56.643Z</time>
      </trkpt>
      <trkpt lat="44.13054" lon="5.87067">
        <ele>951</ele>
        <time>2021-06-01T09:58:57.643Z</time>
      </trkpt>
      <trkpt lat="44.13055" lon="5.87067">
        <ele>951</ele>
        <time>2021-06-01T09:58:58.643Z</time>
      </trkpt>
      <trkpt lat="44.13055" lon="5.87067">
        <ele>951</ele>
        <time>2021-06-01T09:58:59.643Z</time>
      </trkpt>
      <trkpt lat="44.13056" lon="5.87067">
        <ele>951</ele>
        <time>2021-06-01T09:59:00.643Z</time>
      </trkpt>
      <trkpt lat="44.13056" lon="5.87067">
        <ele>951</ele>
        <time>2021-06-01T09:59:01.643Z</time>
      </trkpt>
      <trkpt lat="44.13057" lon="5.87068">
        <ele>952</ele>
        <time>2021-06-01T09:59:02.643Z</time>
      </trkpt>
      <trkpt lat="44.13058" lon="5.87068">
        <ele>952</ele>
        <time>2021-06-01T09:59:03.643Z</time>
      </trkpt>
      <trkpt lat="44.13058" lon="5.87068">
        <ele>952</ele>
        <time>2021-06-01T09:59:04.643Z</time>
      </trkpt>
      <trkpt lat="44.13059" lon="5.87068">
        <ele>952</ele>
        <time>2021-06-01T09:59:05.643Z</time>
      </trkpt>
      <trkpt lat="44.1306" lon="5.87068">
        <ele>952</ele>
        <time>2021-06-01T09:59:06.643Z</time>
      </trkpt>
      <trkpt lat="44.1306" lon="5.87069">
        <ele>952</ele>
        <time>2021-06-01T09:59:07.643Z</time>
      </trkpt>
      <trkpt lat="44.13061" lon="5.87069">
        <ele>952</ele>
        <time>2021-06-01T09:59:08.643Z</time>
      </trkpt>
      <trkpt lat="44.13061" lon="5.8707">
        <ele>952</ele>
        <time>2021-06-01T09:59:09.643Z</time>
      </trkpt>
      <trkpt lat="44.13062" lon="5.87071">
        <ele>952</ele>
        <time>2021-06-01T09:59:10.643Z</time>
      </trkpt>
      <trkpt lat="44.13062" lon="5.87071">
        <ele>952</ele>
        <time>2021-06-01T09:59:11.643Z</time>
      </trkpt>
      <trkpt lat="44.13062" lon="5.87072">
        <ele>952</ele>
        <time>2021-06-01T09:59:12.643Z</time>
      </trkpt>
      <trkpt lat="44.13063" lon="5.87072">
        <ele>952</ele>
        <time>2021-06-01T09:59:13.643Z</time>
      </trkpt>
      <trkpt lat="44.13063" lon="5.87072">
        <ele>952</ele>
        <time>2021-06-01T09:59:14.643Z</time>
      </trkpt>
      <trkpt lat="44.13063" lon="5.87073">
        <ele>953</ele>
        <time>2021-06-01T09:59:15.643Z</time>
      </trkpt>
      <trkpt lat="44.13064" lon="5.87074">
        <ele>953</ele>
        <time>2021-06-01T09:59:16.643Z</time>
      </trkpt>
      <trkpt lat="44.13064" lon="5.87075">
        <ele>953</ele>
        <time>2021-06-01T09:59:17.643Z</time>
      </trkpt>
      <trkpt lat="44.13064" lon="5.87076">
        <ele>953</ele>
        <time>2021-06-01T09:59:18.643Z</time>
      </trkpt>
      <trkpt lat="44.13064" lon="5.87076">
        <ele>953</ele>
        <time>2021-06-01T09:59:19.643Z</time>
      </trkpt>
      <trkpt lat="44.13064" lon="5.87077">
        <ele>953</ele>
        <time>2021-06-01T09:59:20.643Z</time>
      </trkpt>
      <trkpt lat="44.13064" lon="5.87078">
        <ele>953</ele>
        <time>2021-06-01T09:59:21.643Z</time>
      </trkpt>
      <trkpt lat="44.13064" lon="5.87078">
        <ele>953</ele>
        <time>2021-06-01T09:59:22.643Z</time>
      </trkpt>
      <trkpt lat="44.13064" lon="5.87079">
        <ele>953</ele>
        <time>2021-06-01T09:59:23.643Z</time>
      </trkpt>
      <trkpt lat="44.13064" lon="5.8708">
        <ele>953</ele>
        <time>2021-06-01T09:59:24.643Z</time>
      </trkpt>
      <trkpt lat="44.13064" lon="5.8708">
        <ele>953</ele>
        <time>2021-06-01T09:59:25.643Z</time>
      </trkpt>
      <trkpt lat="44.13064" lon="5.87081">
        <ele>954</ele>
        <time>2021-06-01T09:59:26.643Z</time>
      </trkpt>
      <trkpt lat="44.13064" lon="5.87081">
        <ele>954</ele>
        <time>2021-06-01T09:59:27.643Z</time>
      </trkpt>
      <trkpt lat="44.13064" lon="5.87082">
        <ele>954</ele>
        <time>2021-06-01T09:59:28.643Z</time>
      </trkpt>
      <trkpt lat="44.13064" lon="5.87083">
        <ele>954</ele>
        <time>2021-06-01T09:59:29.643Z</time>
      </trkpt>
      <trkpt lat="44.13064" lon="5.87083">
        <ele>954</ele>
        <time>2021-06-01T09:59:30.643Z</time>
      </trkpt>
      <trkpt lat="44.13064" lon="5.87084">
        <ele>954</ele>
        <time>2021-06-01T09:59:31.643Z</time>
      </trkpt>
      <trkpt lat="44.13064" lon="5.87084">
        <ele>954</ele>
        <time>2021-06-01T09:59:32.643Z</time>
      </trkpt>
      <trkpt lat="44.13064" lon="5.87084">
        <ele>954</ele>
        <time>2021-06-01T09:59:33.643Z</time>
      </trkpt>
      <trkpt lat="44.13064" lon="5.87084">
        <ele>954</ele>
        <time>2021-06-01T09:59:34.643Z</time>
      </trkpt>
      <trkpt lat="44.13064" lon="5.87084">
        <ele>954</ele>
        <time>2021-06-01T09:59:35.643Z</time>
      </trkpt>
      <trkpt lat="44.13064" lon="5.87084">
        <ele>954</ele>
        <time>2021-06-01T09:59:36.643Z</time>
      </trkpt>
      <trkpt lat="44.13064" lon="5.87084">
        <ele>954</ele>
        <time>2021-06-01T09:59:37.643Z</time>
      </trkpt>
      <trkpt lat="44.13064" lon="5.87085">
        <ele>954</ele>
        <time>2021-06-01T09:59:38.643Z</time>
      </trkpt>
      <trkpt lat="44.13064" lon="5.87085">
        <ele>954</ele>
        <time>2021-06-01T09:59:39.643Z</time>
      </trkpt>
      <trkpt lat="44.13064" lon="5.87085">
        <ele>954</ele>
        <time>2021-06-01T09:59:40.643Z</time>
      </trkpt>
      <trkpt lat="44.13064" lon="5.87085">
        <ele>954</ele>
        <time>2021-06-01T09:59:41.643Z</time>
      </trkpt>
      <trkpt lat="44.13064" lon="5.87085">
        <ele>954</ele>
        <time>2021-06-01T09:59:42.643Z</time>
      </trkpt>
      <trkpt lat="44.13064" lon="5.87085">
        <ele>954</ele>
        <time>2021-06-01T09:59:43.643Z</time>
      </trkpt>
      <trkpt lat="44.13064" lon="5.87085">
        <ele>954</ele>
        <time>2021-06-01T09:59:44.643Z</time>
      </trkpt>
      <trkpt lat="44.13064" lon="5.87085">
        <ele>954</ele>
        <time>2021-06-01T09:59:45.643Z</time>
      </trkpt>
      <trkpt lat="44.13064" lon="5.87085">
        <ele>954</ele>
        <time>2021-06-01T09:59:46.643Z</time>
      </trkpt>
      <trkpt lat="44.13064" lon="5.87085">
        <ele>954</ele>
        <time>2021-06-01T09:59:47.643Z</time>
      </trkpt>
      <trkpt lat="44.13064" lon="5.87085">
        <ele>954</ele>
        <time>2021-06-01T09:59:48.643Z</time>
      </trkpt>
      <trkpt lat="44.13064" lon="5.87085">
        <ele>954</ele>
        <time>2021-06-01T09:59:49.643Z</time>
      </trkpt>
      <trkpt lat="44.13064" lon="5.87086">
        <ele>954</ele>
        <time>2021-06-01T09:59:50.643Z</time>
      </trkpt>
      <trkpt lat="44.13064" lon="5.87086">
        <ele>954</ele>
        <time>2021-06-01T09:59:51.643Z</time>
      </trkpt>
      <trkpt lat="44.13064" lon="5.87087">
        <ele>954</ele>
        <time>2021-06-01T09:59:52.643Z</time>
      </trkpt>
      <trkpt lat="44.13063" lon="5.87087">
        <ele>954</ele>
        <time>2021-06-01T09:59:53.643Z</time>
      </trkpt>
      <trkpt lat="44.13063" lon="5.87088">
        <ele>954</ele>
        <time>2021-06-01T09:59:54.643Z</time>
      </trkpt>
      <trkpt lat="44.13063" lon="5.87089">
        <ele>955</ele>
        <time>2021-06-01T09:59:55.643Z</time>
      </trkpt>
      <trkpt lat="44.13063" lon="5.87089">
        <ele>955</ele>
        <time>2021-06-01T09:59:56.643Z</time>
      </trkpt>
      <trkpt lat="44.13063" lon="5.8709">
        <ele>955</ele>
        <time>2021-06-01T09:59:57.643Z</time>
      </trkpt>
      <trkpt lat="44.13064" lon="5.8709">
        <ele>955</ele>
        <time>2021-06-01T09:59:58.643Z</time>
      </trkpt>
      <trkpt lat="44.13064" lon="5.87091">
        <ele>955</ele>
        <time>2021-06-01T09:59:59.643Z</time>
      </trkpt>
      <trkpt lat="44.13064" lon="5.87091">
        <ele>955</ele>
        <time>2021-06-01T10:00:00.643Z</time>
      </trkpt>
      <trkpt lat="44.13064" lon="5.87091">
        <ele>955</ele>
        <time>2021-06-01T10:00:01.643Z</time>
      </trkpt>
      <trkpt lat="44.13065" lon="5.87092">
        <ele>956</ele>
        <time>2021-06-01T10:00:02.643Z</time>
      </trkpt>
      <trkpt lat="44.13065" lon="5.87092">
        <ele>956</ele>
        <time>2021-06-01T10:00:03.643Z</time>
      </trkpt>
      <trkpt lat="44.13065" lon="5.87093">
        <ele>956</ele>
        <time>2021-06-01T10:00:04.643Z</time>
      </trkpt>
      <trkpt lat="44.13065" lon="5.87093">
        <ele>956</ele>
        <time>2021-06-01T10:00:05.643Z</time>
      </trkpt>
      <trkpt lat="44.13065" lon="5.87094">
        <ele>956</ele>
        <time>2021-06-01T10:00:06.643Z</time>
      </trkpt>
      <trkpt lat="44.13065" lon="5.87095">
        <ele>956</ele>
        <time>2021-06-01T10:00:07.643Z</time>
      </trkpt>
      <trkpt lat="44.13065" lon="5.87095">
        <ele>957</ele>
        <time>2021-06-01T10:00:08.643Z</time>
      </trkpt>
      <trkpt lat="44.13065" lon="5.87096">
        <ele>957</ele>
        <time>2021-06-01T10:00:09.643Z</time>
      </trkpt>
      <trkpt lat="44.13065" lon="5.87097">
        <ele>957</ele>
        <time>2021-06-01T10:00:10.643Z</time>
      </trkpt>
      <trkpt lat="44.13065" lon="5.87097">
        <ele>957</ele>
        <time>2021-06-01T10:00:11.643Z</time>
      </trkpt>
      <trkpt lat="44.13065" lon="5.87098">
        <ele>958</ele>
        <time>2021-06-01T10:00:12.643Z</time>
      </trkpt>
      <trkpt lat="44.13065" lon="5.87098">
        <ele>958</ele>
        <time>2021-06-01T10:00:13.643Z</time>
      </trkpt>
      <trkpt lat="44.13065" lon="5.87099">
        <ele>958</ele>
        <time>2021-06-01T10:00:14.643Z</time>
      </trkpt>
      <trkpt lat="44.13065" lon="5.87099">
        <ele>958</ele>
        <time>2021-06-01T10:00:15.643Z</time>
      </trkpt>
      <trkpt lat="44.13065" lon="5.871">
        <ele>958</ele>
        <time>2021-06-01T10:00:16.643Z</time>
      </trkpt>
      <trkpt lat="44.13065" lon="5.871">
        <ele>959</ele>
        <time>2021-06-01T10:00:17.643Z</time>
      </trkpt>
      <trkpt lat="44.13066" lon="5.87101">
        <ele>959</ele>
        <time>2021-06-01T10:00:18.643Z</time>
      </trkpt>
      <trkpt lat="44.13066" lon="5.87102">
        <ele>959</ele>
        <time>2021-06-01T10:00:19.643Z</time>
      </trkpt>
      <trkpt lat="44.13066" lon="5.87102">
        <ele>959</ele>
        <time>2021-06-01T10:00:20.643Z</time>
      </trkpt>
      <trkpt lat="44.13066" lon="5.87103">
        <ele>959</ele>
        <time>2021-06-01T10:00:21.643Z</time>
      </trkpt>
      <trkpt lat="44.13066" lon="5.87103">
        <ele>960</ele>
        <time>2021-06-01T10:00:22.643Z</time>
      </trkpt>
      <trkpt lat="44.13066" lon="5.87104">
        <ele>960</ele>
        <time>2021-06-01T10:00:23.643Z</time>
      </trkpt>
      <trkpt lat="44.13066" lon="5.87105">
        <ele>960</ele>
        <time>2021-06-01T10:00:24.643Z</time>
      </trkpt>
      <trkpt lat="44.13066" lon="5.87105">
        <ele>960</ele>
        <time>2021-06-01T10:00:25.643Z</time>
      </trkpt>
      <trkpt lat="44.13066" lon="5.87106">
        <ele>960</ele>
        <time>2021-06-01T10:00:26.643Z</time>
      </trkpt>
      <trkpt lat="44.13066" lon="5.87106">
        <ele>960</ele>
        <time>2021-06-01T10:00:27.643Z</time>
      </trkpt>
      <trkpt lat="44.13066" lon="5.87107">
        <ele>961</ele>
        <time>2021-06-01T10:00:28.643Z</time>
      </trkpt>
      <trkpt lat="44.13066" lon="5.87108">
        <ele>961</ele>
        <time>2021-06-01T10:00:29.643Z</time>
      </trkpt>
      <trkpt lat="44.13067" lon="5.87108">
        <ele>961</ele>
        <time>2021-06-01T10:00:30.643Z</time>
      </trkpt>
      <trkpt lat="44.13067" lon="5.87109">
        <ele>961</ele>
        <time>2021-06-01T10:00:31.643Z</time>
      </trkpt>
      <trkpt lat="44.13067" lon="5.8711">
        <ele>961</ele>
        <time>2021-06-01T10:00:32.643Z</time>
      </trkpt>
      <trkpt lat="44.13067" lon="5.8711">
        <ele>961</ele>
        <time>2021-06-01T10:00:33.643Z</time>
      </trkpt>
      <trkpt lat="44.13067" lon="5.87111">
        <ele>962</ele>
        <time>2021-06-01T10:00:34.643Z</time>
      </trkpt>
      <trkpt lat="44.13067" lon="5.87111">
        <ele>962</ele>
        <time>2021-06-01T10:00:35.643Z</time>
      </trkpt>
      <trkpt lat="44.13067" lon="5.87112">
        <ele>962</ele>
        <time>2021-06-01T10:00:36.643Z</time>
      </trkpt>
      <trkpt lat="44.13068" lon="5.87112">
        <ele>962</ele>
        <time>2021-06-01T10:00:37.643Z</time>
      </trkpt>
      <trkpt lat="44.13068" lon="5.87113">
        <ele>962</ele>
        <time>2021-06-01T10:00:38.643Z</time>
      </trkpt>
      <trkpt lat="44.13068" lon="5.87113">
        <ele>963</ele>
        <time>2021-06-01T10:00:39.643Z</time>
      </trkpt>
      <trkpt lat="44.13068" lon="5.87114">
        <ele>963</ele>
        <time>2021-06-01T10:00:40.643Z</time>
      </trkpt>
      <trkpt lat="44.13068" lon="5.87114">
        <ele>963</ele>
        <time>2021-06-01T10:00:41.643Z</time>
      </trkpt>
      <trkpt lat="44.13069" lon="5.87115">
        <ele>963</ele>
        <time>2021-06-01T10:00:42.643Z</time>
      </trkpt>
      <trkpt lat="44.13069" lon="5.87116">
        <ele>963</ele>
        <time>2021-06-01T10:00:43.643Z</time>
      </trkpt>
      <trkpt lat="44.13069" lon="5.87116">
        <ele>963</ele>
        <time>2021-06-01T10:00:44.643Z</time>
      </trkpt>
      <trkpt lat="44.13069" lon="5.87117">
        <ele>963</ele>
        <time>2021-06-01T10:00:45.643Z</time>
      </trkpt>
      <trkpt lat="44.13069" lon="5.87118">
        <ele>964</ele>
        <time>2021-06-01T10:00:46.643Z</time>
      </trkpt>
      <trkpt lat="44.13069" lon="5.87118">
        <ele>964</ele>
        <time>2021-06-01T10:00:47.643Z</time>
      </trkpt>
      <trkpt lat="44.1307" lon="5.87119">
        <ele>964</ele>
        <time>2021-06-01T10:00:48.643Z</time>
      </trkpt>
      <trkpt lat="44.1307" lon="5.87119">
        <ele>964</ele>
        <time>2021-06-01T10:00:49.643Z</time>
      </trkpt>
      <trkpt lat="44.1307" lon="5.87119">
        <ele>964</ele>
        <time>2021-06-01T10:00:50.643Z</time>
      </trkpt>
      <trkpt lat="44.1307" lon="5.8712">
        <ele>964</ele>
        <time>2021-06-01T10:00:51.643Z</time>
      </trkpt>
      <trkpt lat="44.1307" lon="5.8712">
        <ele>964</ele>
        <time>2021-06-01T10:00:52.643Z</time>
      </trkpt>
      <trkpt lat="44.1307" lon="5.8712">
        <ele>965</ele>
        <time>2021-06-01T10:00:53.643Z</time>
      </trkpt>
      <trkpt lat="44.13071" lon="5.87121">
        <ele>965</ele>
        <time>2021-06-01T10:00:54.643Z</time>
      </trkpt>
      <trkpt lat="44.13071" lon="5.87121">
        <ele>965</ele>
        <time>2021-06-01T10:00:55.643Z</time>
      </trkpt>
      <trkpt lat="44.13072" lon="5.87121">
        <ele>965</ele>
        <time>2021-06-01T10:00:56.643Z</time>
      </trkpt>
      <trkpt lat="44.13072" lon="5.87122">
        <ele>965</ele>
        <time>2021-06-01T10:00:57.643Z</time>
      </trkpt>
      <trkpt lat="44.13072" lon="5.87122">
        <ele>965</ele>
        <time>2021-06-01T10:00:58.643Z</time>
      </trkpt>
      <trkpt lat="44.13072" lon="5.87123">
        <ele>966</ele>
        <time>2021-06-01T10:00:59.643Z</time>
      </trkpt>
      <trkpt lat="44.13072" lon="5.87123">
        <ele>966</ele>
        <time>2021-06-01T10:01:00.643Z</time>
      </trkpt>
      <trkpt lat="44.13073" lon="5.87124">
        <ele>966</ele>
        <time>2021-06-01T10:01:01.643Z</time>
      </trkpt>
      <trkpt lat="44.13073" lon="5.87125">
        <ele>966</ele>
        <time>2021-06-01T10:01:02.643Z</time>
      </trkpt>
      <trkpt lat="44.13073" lon="5.87125">
        <ele>966</ele>
        <time>2021-06-01T10:01:03.643Z</time>
      </trkpt>
      <trkpt lat="44.13073" lon="5.87126">
        <ele>966</ele>
        <time>2021-06-01T10:01:04.643Z</time>
      </trkpt>
      <trkpt lat="44.13073" lon="5.87127">
        <ele>966</ele>
        <time>2021-06-01T10:01:05.643Z</time>
      </trkpt>
      <trkpt lat="44.13073" lon="5.87127">
        <ele>966</ele>
        <time>2021-06-01T10:01:06.643Z</time>
      </trkpt>
      <trkpt lat="44.13073" lon="5.87127">
        <ele>967</ele>
        <time>2021-06-01T10:01:07.643Z</time>
      </trkpt>
      <trkpt lat="44.13073" lon="5.87128">
        <ele>967</ele>
        <time>2021-06-01T10:01:08.643Z</time>
      </trkpt>
      <trkpt lat="44.13073" lon="5.87129">
        <ele>967</ele>
        <time>2021-06-01T10:01:09.643Z</time>
      </trkpt>
      <trkpt lat="44.13074" lon="5.87129">
        <ele>967</ele>
        <time>2021-06-01T10:01:10.643Z</time>
      </trkpt>
      <trkpt lat="44.13074" lon="5.87129">
        <ele>967</ele>
        <time>2021-06-01T10:01:11.643Z</time>
      </trkpt>
      <trkpt lat="44.13074" lon="5.8713">
        <ele>967</ele>
        <time>2021-06-01T10:01:12.643Z</time>
      </trkpt>
      <trkpt lat="44.13074" lon="5.8713">
        <ele>967</ele>
        <time>2021-06-01T10:01:13.643Z</time>
      </trkpt>
      <trkpt lat="44.13074" lon="5.87131">
        <ele>967</ele>
        <time>2021-06-01T10:01:14.643Z</time>
      </trkpt>
      <trkpt lat="44.13074" lon="5.87131">
        <ele>968</ele>
        <time>2021-06-01T10:01:15.643Z</time>
      </trkpt>
      <trkpt lat="44.13075" lon="5.87132">
        <ele>968</ele>
        <time>2021-06-01T10:01:16.643Z</time>
      </trkpt>
      <trkpt lat="44.13075" lon="5.87132">
        <ele>968</ele>
        <time>2021-06-01T10:01:17.643Z</time>
      </trkpt>
      <trkpt lat="44.13075" lon="5.87132">
        <ele>968</ele>
        <time>2021-06-01T10:01:18.643Z</time>
      </trkpt>
      <trkpt lat="44.13075" lon="5.87132">
        <ele>968</ele>
        <time>2021-06-01T10:01:19.643Z</time>
      </trkpt>
      <trkpt lat="44.13075" lon="5.87132">
        <ele>968</ele>
        <time>2021-06-01T10:01:20.643Z</time>
      </trkpt>
      <trkpt lat="44.13075" lon="5.87133">
        <ele>968</ele>
        <time>2021-06-01T10:01:21.643Z</time>
      </trkpt>
      <trkpt lat="44.13075" lon="5.87133">
        <ele>968</ele>
        <time>2021-06-01T10:01:22.643Z</time>
      </trkpt>
      <trkpt lat="44.13076" lon="5.87133">
        <ele>968</ele>
        <time>2021-06-01T10:01:23.643Z</time>
      </trkpt>
      <trkpt lat="44.13076" lon="5.87134">
        <ele>968</ele>
        <time>2021-06-01T10:01:24.643Z</time>
      </trkpt>
      <trkpt lat="44.13076" lon="5.87134">
        <ele>968</ele>
        <time>2021-06-01T10:01:25.643Z</time>
      </trkpt>
      <trkpt lat="44.13076" lon="5.87134">
        <ele>969</ele>
        <time>2021-06-01T10:01:26.643Z</time>
      </trkpt>
      <trkpt lat="44.13077" lon="5.87135">
        <ele>969</ele>
        <time>2021-06-01T10:01:27.643Z</time>
      </trkpt>
      <trkpt lat="44.13077" lon="5.87135">
        <ele>969</ele>
        <time>2021-06-01T10:01:28.643Z</time>
      </trkpt>
      <trkpt lat="44.13077" lon="5.87136">
        <ele>969</ele>
        <time>2021-06-01T10:01:29.643Z</time>
      </trkpt>
      <trkpt lat="44.13077" lon="5.87137">
        <ele>969</ele>
        <time>2021-06-01T10:01:30.643Z</time>
      </trkpt>
      <trkpt lat="44.13077" lon="5.87137">
        <ele>969</ele>
        <time>2021-06-01T10:01:31.643Z</time>
      </trkpt>
      <trkpt lat="44.13078" lon="5.87138">
        <ele>970</ele>
        <time>2021-06-01T10:01:32.643Z</time>
      </trkpt>
      <trkpt lat="44.13078" lon="5.87138">
        <ele>970</ele>
        <time>2021-06-01T10:01:33.643Z</time>
      </trkpt>
      <trkpt lat="44.13078" lon="5.87139">
        <ele>970</ele>
        <time>2021-06-01T10:01:34.643Z</time>
      </trkpt>
      <trkpt lat="44.13078" lon="5.87139">
        <ele>970</ele>
        <time>2021-06-01T10:01:35.643Z</time>
      </trkpt>
      <trkpt lat="44.13078" lon="5.8714">
        <ele>970</ele>
        <time>2021-06-01T10:01:36.643Z</time>
      </trkpt>
      <trkpt lat="44.13078" lon="5.8714">
        <ele>970</ele>
        <time>2021-06-01T10:01:37.643Z</time>
      </trkpt>
      <trkpt lat="44.13079" lon="5.8714">
        <ele>971</ele>
        <time>2021-06-01T10:01:38.643Z</time>
      </trkpt>
      <trkpt lat="44.13079" lon="5.8714">
        <ele>971</ele>
        <time>2021-06-01T10:01:39.643Z</time>
      </trkpt>
      <trkpt lat="44.1308" lon="5.8714">
        <ele>971</ele>
        <time>2021-06-01T10:01:40.643Z</time>
      </trkpt>
      <trkpt lat="44.1308" lon="5.87141">
        <ele>971</ele>
        <time>2021-06-01T10:01:41.643Z</time>
      </trkpt>
      <trkpt lat="44.1308" lon="5.8714">
        <ele>971</ele>
        <time>2021-06-01T10:01:42.643Z</time>
      </trkpt>
      <trkpt lat="44.13081" lon="5.8714">
        <ele>971</ele>
        <time>2021-06-01T10:01:43.643Z</time>
      </trkpt>
      <trkpt lat="44.13081" lon="5.87139">
        <ele>971</ele>
        <time>2021-06-01T10:01:44.643Z</time>
      </trkpt>
      <trkpt lat="44.13081" lon="5.87139">
        <ele>971</ele>
        <time>2021-06-01T10:01:45.643Z</time>
      </trkpt>
      <trkpt lat="44.13081" lon="5.87139">
        <ele>972</ele>
        <time>2021-06-01T10:01:46.643Z</time>
      </trkpt>
      <trkpt lat="44.13082" lon="5.87138">
        <ele>972</ele>
        <time>2021-06-01T10:01:47.643Z</time>
      </trkpt>
      <trkpt lat="44.13082" lon="5.87138">
        <ele>972</ele>
        <time>2021-06-01T10:01:48.643Z</time>
      </trkpt>
      <trkpt lat="44.13083" lon="5.87138">
        <ele>972</ele>
        <time>2021-06-01T10:01:49.643Z</time>
      </trkpt>
      <trkpt lat="44.13083" lon="5.87138">
        <ele>972</ele>
        <time>2021-06-01T10:01:50.643Z</time>
      </trkpt>
      <trkpt lat="44.13084" lon="5.87138">
        <ele>972</ele>
        <time>2021-06-01T10:01:51.643Z</time>
      </trkpt>
      <trkpt lat="44.13084" lon="5.87138">
        <ele>972</ele>
        <time>2021-06-01T10:01:52.643Z</time>
      </trkpt>
      <trkpt lat="44.13085" lon="5.87138">
        <ele>973</ele>
        <time>2021-06-01T10:01:53.643Z</time>
      </trkpt>
      <trkpt lat="44.13085" lon="5.87138">
        <ele>973</ele>
        <time>2021-06-01T10:01:54.643Z</time>
      </trkpt>
      <trkpt lat="44.13085" lon="5.87137">
        <ele>973</ele>
        <time>2021-06-01T10:01:55.643Z</time>
      </trkpt>
      <trkpt lat="44.13086" lon="5.87137">
        <ele>973</ele>
        <time>2021-06-01T10:01:56.643Z</time>
      </trkpt>
      <trkpt lat="44.13086" lon="5.87137">
        <ele>973</ele>
        <time>2021-06-01T10:01:57.643Z</time>
      </trkpt>
      <trkpt lat="44.13086" lon="5.87137">
        <ele>973</ele>
        <time>2021-06-01T10:01:58.643Z</time>
      </trkpt>
      <trkpt lat="44.13087" lon="5.87137">
        <ele>974</ele>
        <time>2021-06-01T10:01:59.643Z</time>
      </trkpt>
      <trkpt lat="44.13087" lon="5.87136">
        <ele>974</ele>
        <time>2021-06-01T10:02:00.643Z</time>
      </trkpt>
      <trkpt lat="44.13087" lon="5.87136">
        <ele>974</ele>
        <time>2021-06-01T10:02:01.643Z</time>
      </trkpt>
      <trkpt lat="44.13087" lon="5.87135">
        <ele>974</ele>
        <time>2021-06-01T10:02:02.643Z</time>
      </trkpt>
      <trkpt lat="44.13088" lon="5.87135">
        <ele>974</ele>
        <time>2021-06-01T10:02:03.643Z</time>
      </trkpt>
      <trkpt lat="44.13088" lon="5.87135">
        <ele>974</ele>
        <time>2021-06-01T10:02:04.643Z</time>
      </trkpt>
      <trkpt lat="44.13088" lon="5.87134">
        <ele>974</ele>
        <time>2021-06-01T10:02:05.643Z</time>
      </trkpt>
      <trkpt lat="44.13089" lon="5.87134">
        <ele>975</ele>
        <time>2021-06-01T10:02:06.643Z</time>
      </trkpt>
      <trkpt lat="44.13089" lon="5.87134">
        <ele>975</ele>
        <time>2021-06-01T10:02:07.643Z</time>
      </trkpt>
      <trkpt lat="44.13089" lon="5.87133">
        <ele>975</ele>
        <time>2021-06-01T10:02:08.643Z</time>
      </trkpt>
      <trkpt lat="44.1309" lon="5.87133">
        <ele>975</ele>
        <time>2021-06-01T10:02:09.643Z</time>
      </trkpt>
      <trkpt lat="44.1309" lon="5.87132">
        <ele>975</ele>
        <time>2021-06-01T10:02:10.643Z</time>
      </trkpt>
      <trkpt lat="44.13091" lon="5.87132">
        <ele>975</ele>
        <time>2021-06-01T10:02:11.643Z</time>
      </trkpt>
      <trkpt lat="44.13091" lon="5.87132">
        <ele>975</ele>
        <time>2021-06-01T10:02:12.643Z</time>
      </trkpt>
      <trkpt lat="44.13092" lon="5.87132">
        <ele>976</ele>
        <time>2021-06-01T10:02:13.643Z</time>
      </trkpt>
      <trkpt lat="44.13092" lon="5.87131">
        <ele>976</ele>
        <time>2021-06-01T10:02:14.643Z</time>
      </trkpt>
      <trkpt lat="44.13092" lon="5.87131">
        <ele>976</ele>
        <time>2021-06-01T10:02:15.643Z</time>
      </trkpt>
      <trkpt lat="44.13093" lon="5.87131">
        <ele>976</ele>
        <time>2021-06-01T10:02:16.643Z</time>
      </trkpt>
      <trkpt lat="44.13093" lon="5.8713">
        <ele>976</ele>
        <time>2021-06-01T10:02:17.643Z</time>
      </trkpt>
      <trkpt lat="44.13093" lon="5.8713">
        <ele>976</ele>
        <time>2021-06-01T10:02:18.643Z</time>
      </trkpt>
      <trkpt lat="44.13094" lon="5.8713">
        <ele>976</ele>
        <time>2021-06-01T10:02:19.643Z</time>
      </trkpt>
      <trkpt lat="44.13094" lon="5.87129">
        <ele>976</ele>
        <time>2021-06-01T10:02:20.643Z</time>
      </trkpt>
      <trkpt lat="44.13094" lon="5.87128">
        <ele>976</ele>
        <time>2021-06-01T10:02:21.643Z</time>
      </trkpt>
      <trkpt lat="44.13095" lon="5.87128">
        <ele>977</ele>
        <time>2021-06-01T10:02:22.643Z</time>
      </trkpt>
      <trkpt lat="44.13095" lon="5.87128">
        <ele>977</ele>
        <time>2021-06-01T10:02:23.643Z</time>
      </trkpt>
      <trkpt lat="44.13096" lon="5.87127">
        <ele>977</ele>
        <time>2021-06-01T10:02:24.643Z</time>
      </trkpt>
      <trkpt lat="44.13096" lon="5.87127">
        <ele>977</ele>
        <time>2021-06-01T10:02:25.643Z</time>
      </trkpt>
      <trkpt lat="44.13096" lon="5.87126">
        <ele>977</ele>
        <time>2021-06-01T10:02:26.643Z</time>
      </trkpt>
      <trkpt lat="44.13097" lon="5.87126">
        <ele>977</ele>
        <time>2021-06-01T10:02:27.643Z</time>
      </trkpt>
      <trkpt lat="44.13097" lon="5.87127">
        <ele>977</ele>
        <time>2021-06-01T10:02:28.643Z</time>
      </trkpt>
      <trkpt lat="44.13097" lon="5.87127">
        <ele>978</ele>
        <time>2021-06-01T10:02:29.643Z</time>
      </trkpt>
      <trkpt lat="44.13097" lon="5.87128">
        <ele>978</ele>
        <time>2021-06-01T10:02:30.643Z</time>
      </trkpt>
      <trkpt lat="44.13097" lon="5.87129">
        <ele>978</ele>
        <time>2021-06-01T10:02:31.643Z</time>
      </trkpt>
      <trkpt lat="44.13097" lon="5.87129">
        <ele>978</ele>
        <time>2021-06-01T10:02:32.643Z</time>
      </trkpt>
      <trkpt lat="44.13097" lon="5.8713">
        <ele>978</ele>
        <time>2021-06-01T10:02:33.643Z</time>
      </trkpt>
      <trkpt lat="44.13098" lon="5.8713">
        <ele>979</ele>
        <time>2021-06-01T10:02:34.643Z</time>
      </trkpt>
      <trkpt lat="44.13098" lon="5.87131">
        <ele>979</ele>
        <time>2021-06-01T10:02:35.643Z</time>
      </trkpt>
      <trkpt lat="44.13098" lon="5.87132">
        <ele>979</ele>
        <time>2021-06-01T10:02:36.643Z</time>
      </trkpt>
      <trkpt lat="44.13098" lon="5.87132">
        <ele>979</ele>
        <time>2021-06-01T10:02:37.643Z</time>
      </trkpt>
      <trkpt lat="44.13098" lon="5.87133">
        <ele>980</ele>
        <time>2021-06-01T10:02:38.643Z</time>
      </trkpt>
      <trkpt lat="44.13098" lon="5.87133">
        <ele>980</ele>
        <time>2021-06-01T10:02:39.643Z</time>
      </trkpt>
      <trkpt lat="44.13098" lon="5.87134">
        <ele>980</ele>
        <time>2021-06-01T10:02:40.643Z</time>
      </trkpt>
      <trkpt lat="44.13099" lon="5.87134">
        <ele>980</ele>
        <time>2021-06-01T10:02:41.643Z</time>
      </trkpt>
      <trkpt lat="44.13099" lon="5.87135">
        <ele>981</ele>
        <time>2021-06-01T10:02:42.643Z</time>
      </trkpt>
      <trkpt lat="44.13099" lon="5.87135">
        <ele>981</ele>
        <time>2021-06-01T10:02:43.643Z</time>
      </trkpt>
      <trkpt lat="44.13099" lon="5.87136">
        <ele>981</ele>
        <time>2021-06-01T10:02:44.643Z</time>
      </trkpt>
      <trkpt lat="44.13099" lon="5.87136">
        <ele>981</ele>
        <time>2021-06-01T10:02:45.643Z</time>
      </trkpt>
      <trkpt lat="44.13099" lon="5.87137">
        <ele>982</ele>
        <time>2021-06-01T10:02:46.643Z</time>
      </trkpt>
      <trkpt lat="44.13099" lon="5.87137">
        <ele>982</ele>
        <time>2021-06-01T10:02:47.643Z</time>
      </trkpt>
      <trkpt lat="44.13099" lon="5.87138">
        <ele>982</ele>
        <time>2021-06-01T10:02:48.643Z</time>
      </trkpt>
      <trkpt lat="44.131" lon="5.87139">
        <ele>982</ele>
        <time>2021-06-01T10:02:49.643Z</time>
      </trkpt>
      <trkpt lat="44.131" lon="5.87139">
        <ele>982</ele>
        <time>2021-06-01T10:02:50.643Z</time>
      </trkpt>
      <trkpt lat="44.131" lon="5.8714">
        <ele>983</ele>
        <time>2021-06-01T10:02:51.643Z</time>
      </trkpt>
      <trkpt lat="44.131" lon="5.87141">
        <ele>983</ele>
        <time>2021-06-01T10:02:52.643Z</time>
      </trkpt>
      <trkpt lat="44.131" lon="5.87142">
        <ele>983</ele>
        <time>2021-06-01T10:02:53.643Z</time>
      </trkpt>
      <trkpt lat="44.131" lon="5.87143">
        <ele>983</ele>
        <time>2021-06-01T10:02:54.643Z</time>
      </trkpt>
      <trkpt lat="44.131" lon="5.87144">
        <ele>983</ele>
        <time>2021-06-01T10:02:55.643Z</time>
      </trkpt>
      <trkpt lat="44.131" lon="5.87144">
        <ele>983</ele>
        <time>2021-06-01T10:02:56.643Z</time>
      </trkpt>
      <trkpt lat="44.131" lon="5.87145">
        <ele>983</ele>
        <time>2021-06-01T10:02:57.643Z</time>
      </trkpt>
      <trkpt lat="44.13101" lon="5.87146">
        <ele>983</ele>
        <time>2021-06-01T10:02:58.643Z</time>
      </trkpt>
      <trkpt lat="44.13101" lon="5.87147">
        <ele>984</ele>
        <time>2021-06-01T10:02:59.643Z</time>
      </trkpt>
      <trkpt lat="44.13101" lon="5.87147">
        <ele>984</ele>
        <time>2021-06-01T10:03:00.643Z</time>
      </trkpt>
      <trkpt lat="44.13101" lon="5.87148">
        <ele>984</ele>
        <time>2021-06-01T10:03:01.643Z</time>
      </trkpt>
      <trkpt lat="44.13101" lon="5.87149">
        <ele>984</ele>
        <time>2021-06-01T10:03:02.643Z</time>
      </trkpt>
      <trkpt lat="44.13101" lon="5.87149">
        <ele>984</ele>
        <time>2021-06-01T10:03:03.643Z</time>
      </trkpt>
      <trkpt lat="44.13101" lon="5.87149">
        <ele>984</ele>
        <time>2021-06-01T10:03:04.643Z</time>
      </trkpt>
      <trkpt lat="44.13101" lon="5.8715">
        <ele>984</ele>
        <time>2021-06-01T10:03:05.643Z</time>
      </trkpt>
      <trkpt lat="44.13101" lon="5.8715">
        <ele>984</ele>
        <time>2021-06-01T10:03:06.643Z</time>
      </trkpt>
      <trkpt lat="44.13101" lon="5.8715">
        <ele>984</ele>
        <time>2021-06-01T10:03:07.643Z</time>
      </trkpt>
      <trkpt lat="44.13101" lon="5.8715">
        <ele>984</ele>
        <time>2021-06-01T10:03:08.643Z</time>
      </trkpt>
      <trkpt lat="44.13101" lon="5.8715">
        <ele>984</ele>
        <time>2021-06-01T10:03:09.643Z</time>
      </trkpt>
      <trkpt lat="44.13101" lon="5.8715">
        <ele>984</ele>
        <time>2021-06-01T10:03:10.643Z</time>
      </trkpt>
      <trkpt lat="44.13101" lon="5.8715">
        <ele>984</ele>
        <time>2021-06-01T10:03:11.643Z</time>
      </trkpt>
      <trkpt lat="44.13101" lon="5.8715">
        <ele>984</ele>
        <time>2021-06-01T10:03:12.643Z</time>
      </trkpt>
      <trkpt lat="44.13101" lon="5.8715">
        <ele>984</ele>
        <time>2021-06-01T10:03:13.643Z</time>
      </trkpt>
      <trkpt lat="44.13101" lon="5.8715">
        <ele>984</ele>
        <time>2021-06-01T10:03:14.643Z</time>
      </trkpt>
      <trkpt lat="44.13101" lon="5.8715">
        <ele>984</ele>
        <time>2021-06-01T10:03:15.643Z</time>
      </trkpt>
      <trkpt lat="44.13101" lon="5.8715">
        <ele>984</ele>
        <time>2021-06-01T10:03:16.643Z</time>
      </trkpt>
      <trkpt lat="44.13101" lon="5.8715">
        <ele>984</ele>
        <time>2021-06-01T10:03:17.643Z</time>
      </trkpt>
      <trkpt lat="44.13101" lon="5.8715">
        <ele>984</ele>
        <time>2021-06-01T10:03:18.643Z</time>
      </trkpt>
      <trkpt lat="44.13101" lon="5.87151">
        <ele>984</ele>
        <time>2021-06-01T10:03:19.643Z</time>
      </trkpt>
      <trkpt lat="44.13101" lon="5.87151">
        <ele>984</ele>
        <time>2021-06-01T10:03:20.643Z</time>
      </trkpt>
      <trkpt lat="44.13101" lon="5.87151">
        <ele>984</ele>
        <time>2021-06-01T10:03:21.643Z</time>
      </trkpt>
      <trkpt lat="44.13101" lon="5.87151">
        <ele>984</ele>
        <time>2021-06-01T10:03:22.643Z</time>
      </trkpt>
      <trkpt lat="44.13101" lon="5.87151">
        <ele>984</ele>
        <time>2021-06-01T10:03:23.643Z</time>
      </trkpt>
      <trkpt lat="44.13101" lon="5.87151">
        <ele>984</ele>
        <time>2021-06-01T10:03:24.643Z</time>
      </trkpt>
      <trkpt lat="44.13101" lon="5.87151">
        <ele>984</ele>
        <time>2021-06-01T10:03:25.643Z</time>
      </trkpt>
      <trkpt lat="44.13101" lon="5.87151">
        <ele>984</ele>
        <time>2021-06-01T10:03:26.643Z</time>
      </trkpt>
      <trkpt lat="44.13101" lon="5.87151">
        <ele>984</ele>
        <time>2021-06-01T10:03:27.643Z</time>
      </trkpt>
      <trkpt lat="44.13101" lon="5.87151">
        <ele>984</ele>
        <time>2021-06-01T10:03:28.643Z</time>
      </trkpt>
      <trkpt lat="44.13101" lon="5.87151">
        <ele>984</ele>
        <time>2021-06-01T10:03:29.643Z</time>
      </trkpt>
      <trkpt lat="44.13101" lon="5.87151">
        <ele>984</ele>
        <time>2021-06-01T10:03:30.643Z</time>
      </trkpt>
      <trkpt lat="44.13101" lon="5.87151">
        <ele>984</ele>
        <time>2021-06-01T10:03:31.643Z</time>
      </trkpt>
      <trkpt lat="44.13101" lon="5.87151">
        <ele>984</ele>
        <time>2021-06-01T10:03:32.643Z</time>
      </trkpt>
      <trkpt lat="44.13101" lon="5.87151">
        <ele>984</ele>
        <time>2021-06-01T10:03:33.643Z</time>
      </trkpt>
      <trkpt lat="44.13101" lon="5.87151">
        <ele>984</ele>
        <time>2021-06-01T10:03:34.643Z</time>
      </trkpt>
      <trkpt lat="44.13101" lon="5.87151">
        <ele>984</ele>
        <time>2021-06-01T10:03:35.643Z</time>
      </trkpt>
      <trkpt lat="44.13101" lon="5.87151">
        <ele>984</ele>
        <time>2021-06-01T10:03:36.643Z</time>
      </trkpt>
      <trkpt lat="44.13101" lon="5.87151">
        <ele>984</ele>
        <time>2021-06-01T10:03:37.643Z</time>
      </trkpt>
      <trkpt lat="44.13101" lon="5.87151">
        <ele>984</ele>
        <time>2021-06-01T10:03:38.643Z</time>
      </trkpt>
      <trkpt lat="44.13101" lon="5.87151">
        <ele>984</ele>
        <time>2021-06-01T10:03:39.643Z</time>
      </trkpt>
      <trkpt lat="44.13101" lon="5.87151">
        <ele>984</ele>
        <time>2021-06-01T10:03:40.643Z</time>
      </trkpt>
      <trkpt lat="44.13101" lon="5.87152">
        <ele>984</ele>
        <time>2021-06-01T10:03:41.643Z</time>
      </trkpt>
      <trkpt lat="44.13101" lon="5.87152">
        <ele>984</ele>
        <time>2021-06-01T10:03:42.643Z</time>
      </trkpt>
      <trkpt lat="44.13101" lon="5.87152">
        <ele>984</ele>
        <time>2021-06-01T10:03:43.643Z</time>
      </trkpt>
      <trkpt lat="44.13101" lon="5.87152">
        <ele>984</ele>
        <time>2021-06-01T10:03:44.643Z</time>
      </trkpt>
      <trkpt lat="44.13101" lon="5.87152">
        <ele>984</ele>
        <time>2021-06-01T10:03:45.643Z</time>
      </trkpt>
      <trkpt lat="44.13101" lon="5.87152">
        <ele>984</ele>
        <time>2021-06-01T10:03:46.643Z</time>
      </trkpt>
      <trkpt lat="44.13101" lon="5.87152">
        <ele>984</ele>
        <time>2021-06-01T10:03:47.643Z</time>
      </trkpt>
      <trkpt lat="44.13101" lon="5.87152">
        <ele>984</ele>
        <time>2021-06-01T10:03:48.643Z</time>
      </trkpt>
      <trkpt lat="44.13101" lon="5.87152">
        <ele>984</ele>
        <time>2021-06-01T10:03:49.643Z</time>
      </trkpt>
      <trkpt lat="44.13101" lon="5.87152">
        <ele>984</ele>
        <time>2021-06-01T10:03:50.643Z</time>
      </trkpt>
      <trkpt lat="44.13101" lon="5.87152">
        <ele>984</ele>
        <time>2021-06-01T10:03:51.643Z</time>
      </trkpt>
      <trkpt lat="44.13101" lon="5.87152">
        <ele>984</ele>
        <time>2021-06-01T10:03:52.643Z</time>
      </trkpt>
      <trkpt lat="44.13101" lon="5.87152">
        <ele>984</ele>
        <time>2021-06-01T10:03:53.643Z</time>
      </trkpt>
      <trkpt lat="44.13101" lon="5.87152">
        <ele>984</ele>
        <time>2021-06-01T10:03:54.643Z</time>
      </trkpt>
      <trkpt lat="44.13101" lon="5.87152">
        <ele>984</ele>
        <time>2021-06-01T10:03:55.643Z</time>
      </trkpt>
      <trkpt lat="44.13101" lon="5.87152">
        <ele>984</ele>
        <time>2021-06-01T10:03:56.643Z</time>
      </trkpt>
      <trkpt lat="44.13101" lon="5.87152">
        <ele>984</ele>
        <time>2021-06-01T10:03:57.643Z</time>
      </trkpt>
      <trkpt lat="44.13101" lon="5.87152">
        <ele>984</ele>
        <time>2021-06-01T10:03:58.643Z</time>
      </trkpt>
      <trkpt lat="44.13101" lon="5.87152">
        <ele>984</ele>
        <time>2021-06-01T10:03:59.643Z</time>
      </trkpt>
      <trkpt lat="44.13101" lon="5.87152">
        <ele>984</ele>
        <time>2021-06-01T10:04:00.643Z</time>
      </trkpt>
      <trkpt lat="44.13101" lon="5.87152">
        <ele>984</ele>
        <time>2021-06-01T10:04:01.643Z</time>
      </trkpt>
      <trkpt lat="44.13101" lon="5.87152">
        <ele>984</ele>
        <time>2021-06-01T10:04:02.643Z</time>
      </trkpt>
      <trkpt lat="44.13101" lon="5.87152">
        <ele>984</ele>
        <time>2021-06-01T10:04:03.643Z</time>
      </trkpt>
      <trkpt lat="44.13101" lon="5.87152">
        <ele>984</ele>
        <time>2021-06-01T10:04:04.643Z</time>
      </trkpt>
      <trkpt lat="44.13102" lon="5.87152">
        <ele>984</ele>
        <time>2021-06-01T10:04:05.643Z</time>
      </trkpt>
      <trkpt lat="44.13102" lon="5.87152">
        <ele>984</ele>
        <time>2021-06-01T10:04:06.643Z</time>
      </trkpt>
      <trkpt lat="44.13102" lon="5.87152">
        <ele>984</ele>
        <time>2021-06-01T10:04:07.643Z</time>
      </trkpt>
      <trkpt lat="44.13102" lon="5.87152">
        <ele>985</ele>
        <time>2021-06-01T10:04:08.643Z</time>
      </trkpt>
      <trkpt lat="44.13102" lon="5.87152">
        <ele>985</ele>
        <time>2021-06-01T10:04:09.643Z</time>
      </trkpt>
      <trkpt lat="44.13102" lon="5.87152">
        <ele>985</ele>
        <time>2021-06-01T10:04:10.643Z</time>
      </trkpt>
      <trkpt lat="44.13102" lon="5.87152">
        <ele>985</ele>
        <time>2021-06-01T10:04:11.643Z</time>
      </trkpt>
      <trkpt lat="44.13102" lon="5.87152">
        <ele>985</ele>
        <time>2021-06-01T10:04:12.643Z</time>
      </trkpt>
      <trkpt lat="44.13102" lon="5.87152">
        <ele>985</ele>
        <time>2021-06-01T10:04:13.643Z</time>
      </trkpt>
      <trkpt lat="44.13102" lon="5.87152">
        <ele>985</ele>
        <time>2021-06-01T10:04:14.643Z</time>
      </trkpt>
      <trkpt lat="44.13101" lon="5.87152">
        <ele>985</ele>
        <time>2021-06-01T10:04:15.643Z</time>
      </trkpt>
      <trkpt lat="44.13101" lon="5.87152">
        <ele>985</ele>
        <time>2021-06-01T10:04:16.643Z</time>
      </trkpt>
      <trkpt lat="44.13101" lon="5.87152">
        <ele>985</ele>
        <time>2021-06-01T10:04:17.643Z</time>
      </trkpt>
      <trkpt lat="44.13101" lon="5.87152">
        <ele>985</ele>
        <time>2021-06-01T10:04:18.643Z</time>
      </trkpt>
      <trkpt lat="44.13101" lon="5.87152">
        <ele>985</ele>
        <time>2021-06-01T10:04:19.643Z</time>
      </trkpt>
      <trkpt lat="44.13101" lon="5.87152">
        <ele>985</ele>
        <time>2021-06-01T10:04:20.643Z</time>
      </trkpt>
      <trkpt lat="44.13102" lon="5.87152">
        <ele>985</ele>
        <time>2021-06-01T10:04:21.643Z</time>
      </trkpt>
      <trkpt lat="44.13101" lon="5.87152">
        <ele>985</ele>
        <time>2021-06-01T10:04:22.643Z</time>
      </trkpt>
      <trkpt lat="44.13102" lon="5.87152">
        <ele>985</ele>
        <time>2021-06-01T10:04:23.643Z</time>
      </trkpt>
      <trkpt lat="44.13101" lon="5.87152">
        <ele>985</ele>
        <time>2021-06-01T10:04:24.643Z</time>
      </trkpt>
      <trkpt lat="44.13101" lon="5.87152">
        <ele>985</ele>
        <time>2021-06-01T10:04:25.643Z</time>
      </trkpt>
      <trkpt lat="44.13101" lon="5.87152">
        <ele>985</ele>
        <time>2021-06-01T10:04:26.643Z</time>
      </trkpt>
      <trkpt lat="44.13101" lon="5.87153">
        <ele>985</ele>
        <time>2021-06-01T10:04:27.643Z</time>
      </trkpt>
      <trkpt lat="44.13102" lon="5.87153">
        <ele>985</ele>
        <time>2021-06-01T10:04:28.643Z</time>
      </trkpt>
      <trkpt lat="44.13102" lon="5.87153">
        <ele>985</ele>
        <time>2021-06-01T10:04:29.643Z</time>
      </trkpt>
      <trkpt lat="44.13102" lon="5.87153">
        <ele>985</ele>
        <time>2021-06-01T10:04:30.643Z</time>
      </trkpt>
      <trkpt lat="44.13102" lon="5.87153">
        <ele>985</ele>
        <time>2021-06-01T10:04:31.643Z</time>
      </trkpt>
      <trkpt lat="44.13102" lon="5.87152">
        <ele>985</ele>
        <time>2021-06-01T10:04:32.643Z</time>
      </trkpt>
      <trkpt lat="44.13102" lon="5.87153">
        <ele>985</ele>
        <time>2021-06-01T10:04:33.643Z</time>
      </trkpt>
      <trkpt lat="44.13102" lon="5.87153">
        <ele>985</ele>
        <time>2021-06-01T10:04:34.643Z</time>
      </trkpt>
      <trkpt lat="44.13102" lon="5.87153">
        <ele>985</ele>
        <time>2021-06-01T10:04:35.643Z</time>
      </trkpt>
      <trkpt lat="44.13102" lon="5.87153">
        <ele>985</ele>
        <time>2021-06-01T10:04:36.643Z</time>
      </trkpt>
      <trkpt lat="44.13103" lon="5.87154">
        <ele>985</ele>
        <time>2021-06-01T10:04:37.643Z</time>
      </trkpt>
      <trkpt lat="44.13103" lon="5.87154">
        <ele>985</ele>
        <time>2021-06-01T10:04:38.643Z</time>
      </trkpt>
      <trkpt lat="44.13103" lon="5.87155">
        <ele>985</ele>
        <time>2021-06-01T10:04:39.643Z</time>
      </trkpt>
      <trkpt lat="44.13103" lon="5.87156">
        <ele>985</ele>
        <time>2021-06-01T10:04:40.643Z</time>
      </trkpt>
      <trkpt lat="44.13104" lon="5.87156">
        <ele>986</ele>
        <time>2021-06-01T10:04:41.643Z</time>
      </trkpt>
      <trkpt lat="44.13104" lon="5.87157">
        <ele>986</ele>
        <time>2021-06-01T10:04:42.643Z</time>
      </trkpt>
      <trkpt lat="44.13104" lon="5.87157">
        <ele>986</ele>
        <time>2021-06-01T10:04:43.643Z</time>
      </trkpt>
      <trkpt lat="44.13104" lon="5.87158">
        <ele>986</ele>
        <time>2021-06-01T10:04:44.643Z</time>
      </trkpt>
      <trkpt lat="44.13105" lon="5.87159">
        <ele>986</ele>
        <time>2021-06-01T10:04:45.643Z</time>
      </trkpt>
      <trkpt lat="44.13105" lon="5.87159">
        <ele>986</ele>
        <time>2021-06-01T10:04:46.643Z</time>
      </trkpt>
      <trkpt lat="44.13105" lon="5.8716">
        <ele>987</ele>
        <time>2021-06-01T10:04:47.643Z</time>
      </trkpt>
      <trkpt lat="44.13105" lon="5.8716">
        <ele>987</ele>
        <time>2021-06-01T10:04:48.643Z</time>
      </trkpt>
      <trkpt lat="44.13106" lon="5.87161">
        <ele>987</ele>
        <time>2021-06-01T10:04:49.643Z</time>
      </trkpt>
      <trkpt lat="44.13106" lon="5.87162">
        <ele>987</ele>
        <time>2021-06-01T10:04:50.643Z</time>
      </trkpt>
      <trkpt lat="44.13106" lon="5.87163">
        <ele>987</ele>
        <time>2021-06-01T10:04:51.643Z</time>
      </trkpt>
      <trkpt lat="44.13106" lon="5.87163">
        <ele>987</ele>
        <time>2021-06-01T10:04:52.643Z</time>
      </trkpt>
      <trkpt lat="44.13107" lon="5.87164">
        <ele>987</ele>
        <time>2021-06-01T10:04:53.643Z</time>
      </trkpt>
      <trkpt lat="44.13107" lon="5.87164">
        <ele>988</ele>
        <time>2021-06-01T10:04:54.643Z</time>
      </trkpt>
      <trkpt lat="44.13107" lon="5.87165">
        <ele>988</ele>
        <time>2021-06-01T10:04:55.643Z</time>
      </trkpt>
      <trkpt lat="44.13107" lon="5.87165">
        <ele>988</ele>
        <time>2021-06-01T10:04:56.643Z</time>
      </trkpt>
      <trkpt lat="44.13108" lon="5.87165">
        <ele>988</ele>
        <time>2021-06-01T10:04:57.643Z</time>
      </trkpt>
      <trkpt lat="44.13108" lon="5.87165">
        <ele>988</ele>
        <time>2021-06-01T10:04:58.643Z</time>
      </trkpt>
      <trkpt lat="44.13108" lon="5.87165">
        <ele>988</ele>
        <time>2021-06-01T10:04:59.643Z</time>
      </trkpt>
      <trkpt lat="44.13109" lon="5.87164">
        <ele>988</ele>
        <time>2021-06-01T10:05:00.643Z</time>
      </trkpt>
      <trkpt lat="44.13109" lon="5.87164">
        <ele>989</ele>
        <time>2021-06-01T10:05:01.643Z</time>
      </trkpt>
      <trkpt lat="44.1311" lon="5.87163">
        <ele>989</ele>
        <time>2021-06-01T10:05:02.643Z</time>
      </trkpt>
      <trkpt lat="44.1311" lon="5.87163">
        <ele>989</ele>
        <time>2021-06-01T10:05:03.643Z</time>
      </trkpt>
      <trkpt lat="44.1311" lon="5.87162">
        <ele>989</ele>
        <time>2021-06-01T10:05:04.643Z</time>
      </trkpt>
      <trkpt lat="44.13111" lon="5.87162">
        <ele>989</ele>
        <time>2021-06-01T10:05:05.643Z</time>
      </trkpt>
      <trkpt lat="44.13111" lon="5.87161">
        <ele>989</ele>
        <time>2021-06-01T10:05:06.643Z</time>
      </trkpt>
      <trkpt lat="44.13111" lon="5.87161">
        <ele>989</ele>
        <time>2021-06-01T10:05:07.643Z</time>
      </trkpt>
      <trkpt lat="44.13112" lon="5.8716">
        <ele>989</ele>
        <time>2021-06-01T10:05:08.643Z</time>
      </trkpt>
      <trkpt lat="44.13112" lon="5.87159">
        <ele>989</ele>
        <time>2021-06-01T10:05:09.643Z</time>
      </trkpt>
      <trkpt lat="44.13112" lon="5.87159">
        <ele>989</ele>
        <time>2021-06-01T10:05:10.643Z</time>
      </trkpt>
      <trkpt lat="44.13113" lon="5.87159">
        <ele>989</ele>
        <time>2021-06-01T10:05:11.643Z</time>
      </trkpt>
      <trkpt lat="44.13113" lon="5.87158">
        <ele>989</ele>
        <time>2021-06-01T10:05:12.643Z</time>
      </trkpt>
      <trkpt lat="44.13113" lon="5.87158">
        <ele>989</ele>
        <time>2021-06-01T10:05:13.643Z</time>
      </trkpt>
      <trkpt lat="44.13114" lon="5.87157">
        <ele>989</ele>
        <time>2021-06-01T10:05:14.643Z</time>
      </trkpt>
      <trkpt lat="44.13114" lon="5.87156">
        <ele>989</ele>
        <time>2021-06-01T10:05:15.643Z</time>
      </trkpt>
      <trkpt lat="44.13115" lon="5.87156">
        <ele>990</ele>
        <time>2021-06-01T10:05:16.643Z</time>
      </trkpt>
      <trkpt lat="44.13115" lon="5.87155">
        <ele>990</ele>
        <time>2021-06-01T10:05:17.643Z</time>
      </trkpt>
      <trkpt lat="44.13115" lon="5.87155">
        <ele>990</ele>
        <time>2021-06-01T10:05:18.643Z</time>
      </trkpt>
      <trkpt lat="44.13116" lon="5.87154">
        <ele>990</ele>
        <time>2021-06-01T10:05:19.643Z</time>
      </trkpt>
      <trkpt lat="44.13116" lon="5.87154">
        <ele>990</ele>
        <time>2021-06-01T10:05:20.643Z</time>
      </trkpt>
      <trkpt lat="44.13116" lon="5.87153">
        <ele>991</ele>
        <time>2021-06-01T10:05:21.643Z</time>
      </trkpt>
      <trkpt lat="44.13116" lon="5.87152">
        <ele>991</ele>
        <time>2021-06-01T10:05:22.643Z</time>
      </trkpt>
      <trkpt lat="44.13117" lon="5.87152">
        <ele>991</ele>
        <time>2021-06-01T10:05:23.643Z</time>
      </trkpt>
      <trkpt lat="44.13117" lon="5.87151">
        <ele>991</ele>
        <time>2021-06-01T10:05:24.643Z</time>
      </trkpt>
      <trkpt lat="44.13117" lon="5.8715">
        <ele>991</ele>
        <time>2021-06-01T10:05:25.643Z</time>
      </trkpt>
      <trkpt lat="44.13118" lon="5.8715">
        <ele>992</ele>
        <time>2021-06-01T10:05:26.643Z</time>
      </trkpt>
      <trkpt lat="44.13118" lon="5.87149">
        <ele>992</ele>
        <time>2021-06-01T10:05:27.643Z</time>
      </trkpt>
      <trkpt lat="44.13118" lon="5.87149">
        <ele>992</ele>
        <time>2021-06-01T10:05:28.643Z</time>
      </trkpt>
      <trkpt lat="44.13118" lon="5.87149">
        <ele>992</ele>
        <time>2021-06-01T10:05:29.643Z</time>
      </trkpt>
      <trkpt lat="44.13118" lon="5.87149">
        <ele>992</ele>
        <time>2021-06-01T10:05:30.643Z</time>
      </trkpt>
      <trkpt lat="44.13118" lon="5.87149">
        <ele>992</ele>
        <time>2021-06-01T10:05:31.643Z</time>
      </trkpt>
      <trkpt lat="44.13118" lon="5.87149">
        <ele>992</ele>
        <time>2021-06-01T10:05:32.643Z</time>
      </trkpt>
      <trkpt lat="44.13118" lon="5.87149">
        <ele>992</ele>
        <time>2021-06-01T10:05:33.643Z</time>
      </trkpt>
      <trkpt lat="44.13118" lon="5.87149">
        <ele>992</ele>
        <time>2021-06-01T10:05:34.643Z</time>
      </trkpt>
      <trkpt lat="44.13118" lon="5.87149">
        <ele>992</ele>
        <time>2021-06-01T10:05:35.643Z</time>
      </trkpt>
      <trkpt lat="44.13118" lon="5.87149">
        <ele>992</ele>
        <time>2021-06-01T10:05:36.643Z</time>
      </trkpt>
      <trkpt lat="44.13118" lon="5.87149">
        <ele>992</ele>
        <time>2021-06-01T10:05:37.643Z</time>
      </trkpt>
      <trkpt lat="44.13118" lon="5.87149">
        <ele>992</ele>
        <time>2021-06-01T10:05:38.643Z</time>
      </trkpt>
      <trkpt lat="44.13118" lon="5.87149">
        <ele>992</ele>
        <time>2021-06-01T10:05:39.643Z</time>
      </trkpt>
      <trkpt lat="44.13118" lon="5.87149">
        <ele>992</ele>
        <time>2021-06-01T10:05:40.643Z</time>
      </trkpt>
      <trkpt lat="44.13118" lon="5.87149">
        <ele>992</ele>
        <time>2021-06-01T10:05:41.643Z</time>
      </trkpt>
      <trkpt lat="44.13118" lon="5.87149">
        <ele>992</ele>
        <time>2021-06-01T10:05:42.643Z</time>
      </trkpt>
      <trkpt lat="44.13118" lon="5.87149">
        <ele>992</ele>
        <time>2021-06-01T10:05:43.643Z</time>
      </trkpt>
      <trkpt lat="44.13118" lon="5.87149">
        <ele>992</ele>
        <time>2021-06-01T10:05:44.643Z</time>
      </trkpt>
      <trkpt lat="44.13118" lon="5.87149">
        <ele>992</ele>
        <time>2021-06-01T10:05:45.643Z</time>
      </trkpt>
      <trkpt lat="44.13118" lon="5.87149">
        <ele>992</ele>
        <time>2021-06-01T10:05:46.643Z</time>
      </trkpt>
      <trkpt lat="44.13118" lon="5.87148">
        <ele>992</ele>
        <time>2021-06-01T10:05:47.643Z</time>
      </trkpt>
      <trkpt lat="44.13118" lon="5.87148">
        <ele>992</ele>
        <time>2021-06-01T10:05:48.643Z</time>
      </trkpt>
      <trkpt lat="44.13118" lon="5.87148">
        <ele>992</ele>
        <time>2021-06-01T10:05:49.643Z</time>
      </trkpt>
      <trkpt lat="44.13118" lon="5.87148">
        <ele>992</ele>
        <time>2021-06-01T10:05:50.643Z</time>
      </trkpt>
      <trkpt lat="44.13117" lon="5.87148">
        <ele>992</ele>
        <time>2021-06-01T10:05:51.643Z</time>
      </trkpt>
      <trkpt lat="44.13117" lon="5.87148">
        <ele>992</ele>
        <time>2021-06-01T10:05:52.643Z</time>
      </trkpt>
      <trkpt lat="44.13117" lon="5.87148">
        <ele>992</ele>
        <time>2021-06-01T10:05:53.643Z</time>
      </trkpt>
      <trkpt lat="44.13117" lon="5.87148">
        <ele>993</ele>
        <time>2021-06-01T10:05:54.643Z</time>
      </trkpt>
      <trkpt lat="44.13118" lon="5.87148">
        <ele>993</ele>
        <time>2021-06-01T10:05:55.643Z</time>
      </trkpt>
      <trkpt lat="44.13118" lon="5.87148">
        <ele>993</ele>
        <time>2021-06-01T10:05:56.643Z</time>
      </trkpt>
      <trkpt lat="44.13117" lon="5.87148">
        <ele>993</ele>
        <time>2021-06-01T10:05:57.643Z</time>
      </trkpt>
      <trkpt lat="44.13117" lon="5.87148">
        <ele>993</ele>
        <time>2021-06-01T10:05:58.643Z</time>
      </trkpt>
      <trkpt lat="44.13117" lon="5.87148">
        <ele>993</ele>
        <time>2021-06-01T10:05:59.643Z</time>
      </trkpt>
      <trkpt lat="44.13117" lon="5.87148">
        <ele>993</ele>
        <time>2021-06-01T10:06:00.643Z</time>
      </trkpt>
      <trkpt lat="44.13117" lon="5.87148">
        <ele>993</ele>
        <time>2021-06-01T10:06:01.643Z</time>
      </trkpt>
      <trkpt lat="44.13117" lon="5.87148">
        <ele>993</ele>
        <time>2021-06-01T10:06:02.643Z</time>
      </trkpt>
      <trkpt lat="44.13117" lon="5.87148">
        <ele>993</ele>
        <time>2021-06-01T10:06:03.643Z</time>
      </trkpt>
      <trkpt lat="44.13117" lon="5.87148">
        <ele>993</ele>
        <time>2021-06-01T10:06:04.643Z</time>
      </trkpt>
      <trkpt lat="44.13117" lon="5.87149">
        <ele>993</ele>
        <time>2021-06-01T10:06:05.643Z</time>
      </trkpt>
      <trkpt lat="44.13117" lon="5.87149">
        <ele>993</ele>
        <time>2021-06-01T10:06:06.643Z</time>
      </trkpt>
      <trkpt lat="44.13117" lon="5.87149">
        <ele>993</ele>
        <time>2021-06-01T10:06:07.643Z</time>
      </trkpt>
      <trkpt lat="44.13117" lon="5.87149">
        <ele>993</ele>
        <time>2021-06-01T10:06:08.643Z</time>
      </trkpt>
      <trkpt lat="44.13117" lon="5.87149">
        <ele>993</ele>
        <time>2021-06-01T10:06:09.643Z</time>
      </trkpt>
      <trkpt lat="44.13117" lon="5.87149">
        <ele>993</ele>
        <time>2021-06-01T10:06:10.643Z</time>
      </trkpt>
      <trkpt lat="44.13117" lon="5.87149">
        <ele>993</ele>
        <time>2021-06-01T10:06:11.643Z</time>
      </trkpt>
      <trkpt lat="44.13117" lon="5.87149">
        <ele>993</ele>
        <time>2021-06-01T10:06:12.643Z</time>
      </trkpt>
      <trkpt lat="44.13117" lon="5.87149">
        <ele>993</ele>
        <time>2021-06-01T10:06:13.643Z</time>
      </trkpt>
      <trkpt lat="44.13117" lon="5.87149">
        <ele>993</ele>
        <time>2021-06-01T10:06:14.643Z</time>
      </trkpt>
      <trkpt lat="44.13117" lon="5.87149">
        <ele>993</ele>
        <time>2021-06-01T10:06:15.643Z</time>
      </trkpt>
      <trkpt lat="44.13117" lon="5.87149">
        <ele>993</ele>
        <time>2021-06-01T10:06:16.643Z</time>
      </trkpt>
      <trkpt lat="44.13117" lon="5.87149">
        <ele>993</ele>
        <time>2021-06-01T10:06:17.643Z</time>
      </trkpt>
      <trkpt lat="44.13117" lon="5.87149">
        <ele>993</ele>
        <time>2021-06-01T10:06:18.643Z</time>
      </trkpt>
      <trkpt lat="44.13117" lon="5.87148">
        <ele>993</ele>
        <time>2021-06-01T10:06:19.643Z</time>
      </trkpt>
      <trkpt lat="44.13117" lon="5.87148">
        <ele>993</ele>
        <time>2021-06-01T10:06:20.643Z</time>
      </trkpt>
      <trkpt lat="44.13117" lon="5.87148">
        <ele>993</ele>
        <time>2021-06-01T10:06:21.643Z</time>
      </trkpt>
      <trkpt lat="44.13117" lon="5.87149">
        <ele>993</ele>
        <time>2021-06-01T10:06:22.643Z</time>
      </trkpt>
      <trkpt lat="44.13117" lon="5.87149">
        <ele>993</ele>
        <time>2021-06-01T10:06:23.643Z</time>
      </trkpt>
      <trkpt lat="44.13117" lon="5.87149">
        <ele>993</ele>
        <time>2021-06-01T10:06:24.643Z</time>
      </trkpt>
      <trkpt lat="44.13117" lon="5.87149">
        <ele>993</ele>
        <time>2021-06-01T10:06:25.643Z</time>
      </trkpt>
      <trkpt lat="44.13117" lon="5.87149">
        <ele>994</ele>
        <time>2021-06-01T10:06:26.643Z</time>
      </trkpt>
      <trkpt lat="44.13117" lon="5.87149">
        <ele>994</ele>
        <time>2021-06-01T10:06:27.643Z</time>
      </trkpt>
      <trkpt lat="44.13117" lon="5.87149">
        <ele>994</ele>
        <time>2021-06-01T10:06:28.643Z</time>
      </trkpt>
      <trkpt lat="44.13117" lon="5.87148">
        <ele>994</ele>
        <time>2021-06-01T10:06:29.643Z</time>
      </trkpt>
      <trkpt lat="44.13118" lon="5.87148">
        <ele>994</ele>
        <time>2021-06-01T10:06:30.643Z</time>
      </trkpt>
      <trkpt lat="44.13118" lon="5.87147">
        <ele>994</ele>
        <time>2021-06-01T10:06:31.643Z</time>
      </trkpt>
      <trkpt lat="44.13118" lon="5.87147">
        <ele>994</ele>
        <time>2021-06-01T10:06:32.643Z</time>
      </trkpt>
      <trkpt lat="44.13118" lon="5.87147">
        <ele>994</ele>
        <time>2021-06-01T10:06:33.643Z</time>
      </trkpt>
      <trkpt lat="44.13118" lon="5.87147">
        <ele>994</ele>
        <time>2021-06-01T10:06:34.643Z</time>
      </trkpt>
      <trkpt lat="44.13118" lon="5.87147">
        <ele>994</ele>
        <time>2021-06-01T10:06:35.643Z</time>
      </trkpt>
      <trkpt lat="44.13119" lon="5.87146">
        <ele>994</ele>
        <time>2021-06-01T10:06:36.643Z</time>
      </trkpt>
      <trkpt lat="44.1312" lon="5.87146">
        <ele>994</ele>
        <time>2021-06-01T10:06:37.643Z</time>
      </trkpt>
      <trkpt lat="44.1312" lon="5.87146">
        <ele>994</ele>
        <time>2021-06-01T10:06:38.643Z</time>
      </trkpt>
      <trkpt lat="44.1312" lon="5.87147">
        <ele>994</ele>
        <time>2021-06-01T10:06:39.643Z</time>
      </trkpt>
      <trkpt lat="44.13121" lon="5.87147">
        <ele>994</ele>
        <time>2021-06-01T10:06:40.643Z</time>
      </trkpt>
      <trkpt lat="44.13121" lon="5.87148">
        <ele>995</ele>
        <time>2021-06-01T10:06:41.643Z</time>
      </trkpt>
      <trkpt lat="44.13121" lon="5.87149">
        <ele>995</ele>
        <time>2021-06-01T10:06:42.643Z</time>
      </trkpt>
      <trkpt lat="44.13121" lon="5.87149">
        <ele>995</ele>
        <time>2021-06-01T10:06:43.643Z</time>
      </trkpt>
      <trkpt lat="44.13121" lon="5.8715">
        <ele>995</ele>
        <time>2021-06-01T10:06:44.643Z</time>
      </trkpt>
      <trkpt lat="44.13121" lon="5.87151">
        <ele>995</ele>
        <time>2021-06-01T10:06:45.643Z</time>
      </trkpt>
      <trkpt lat="44.13121" lon="5.87151">
        <ele>996</ele>
        <time>2021-06-01T10:06:46.643Z</time>
      </trkpt>
      <trkpt lat="44.13121" lon="5.87152">
        <ele>996</ele>
        <time>2021-06-01T10:06:47.643Z</time>
      </trkpt>
      <trkpt lat="44.13122" lon="5.87153">
        <ele>996</ele>
        <time>2021-06-01T10:06:48.643Z</time>
      </trkpt>
      <trkpt lat="44.13122" lon="5.87153">
        <ele>996</ele>
        <time>2021-06-01T10:06:49.643Z</time>
      </trkpt>
      <trkpt lat="44.13122" lon="5.87153">
        <ele>996</ele>
        <time>2021-06-01T10:06:50.643Z</time>
      </trkpt>
      <trkpt lat="44.13123" lon="5.87154">
        <ele>996</ele>
        <time>2021-06-01T10:06:51.643Z</time>
      </trkpt>
      <trkpt lat="44.13123" lon="5.87154">
        <ele>996</ele>
        <time>2021-06-01T10:06:52.643Z</time>
      </trkpt>
      <trkpt lat="44.13123" lon="5.87155">
        <ele>997</ele>
        <time>2021-06-01T10:06:53.643Z</time>
      </trkpt>
      <trkpt lat="44.13123" lon="5.87155">
        <ele>997</ele>
        <time>2021-06-01T10:06:54.643Z</time>
      </trkpt>
      <trkpt lat="44.13123" lon="5.87156">
        <ele>997</ele>
        <time>2021-06-01T10:06:55.643Z</time>
      </trkpt>
      <trkpt lat="44.13123" lon="5.87156">
        <ele>997</ele>
        <time>2021-06-01T10:06:56.643Z</time>
      </trkpt>
      <trkpt lat="44.13123" lon="5.87157">
        <ele>997</ele>
        <time>2021-06-01T10:06:57.643Z</time>
      </trkpt>
      <trkpt lat="44.13124" lon="5.87158">
        <ele>997</ele>
        <time>2021-06-01T10:06:58.643Z</time>
      </trkpt>
      <trkpt lat="44.13124" lon="5.87158">
        <ele>997</ele>
        <time>2021-06-01T10:06:59.643Z</time>
      </trkpt>
      <trkpt lat="44.13124" lon="5.87159">
        <ele>997</ele>
        <time>2021-06-01T10:07:00.643Z</time>
      </trkpt>
      <trkpt lat="44.13124" lon="5.8716">
        <ele>997</ele>
        <time>2021-06-01T10:07:01.643Z</time>
      </trkpt>
      <trkpt lat="44.13124" lon="5.87161">
        <ele>998</ele>
        <time>2021-06-01T10:07:02.643Z</time>
      </trkpt>
      <trkpt lat="44.13124" lon="5.87162">
        <ele>998</ele>
        <time>2021-06-01T10:07:03.643Z</time>
      </trkpt>
      <trkpt lat="44.13125" lon="5.87162">
        <ele>998</ele>
        <time>2021-06-01T10:07:04.643Z</time>
      </trkpt>
      <trkpt lat="44.13125" lon="5.87163">
        <ele>998</ele>
        <time>2021-06-01T10:07:05.643Z</time>
      </trkpt>
      <trkpt lat="44.13125" lon="5.87164">
        <ele>998</ele>
        <time>2021-06-01T10:07:06.643Z</time>
      </trkpt>
      <trkpt lat="44.13125" lon="5.87164">
        <ele>998</ele>
        <time>2021-06-01T10:07:07.643Z</time>
      </trkpt>
      <trkpt lat="44.13126" lon="5.87165">
        <ele>998</ele>
        <time>2021-06-01T10:07:08.643Z</time>
      </trkpt>
      <trkpt lat="44.13126" lon="5.87166">
        <ele>998</ele>
        <time>2021-06-01T10:07:09.643Z</time>
      </trkpt>
      <trkpt lat="44.13126" lon="5.87166">
        <ele>999</ele>
        <time>2021-06-01T10:07:10.643Z</time>
      </trkpt>
      <trkpt lat="44.13126" lon="5.87166">
        <ele>999</ele>
        <time>2021-06-01T10:07:11.643Z</time>
      </trkpt>
      <trkpt lat="44.13127" lon="5.87166">
        <ele>999</ele>
        <time>2021-06-01T10:07:12.643Z</time>
      </trkpt>
      <trkpt lat="44.13127" lon="5.87166">
        <ele>999</ele>
        <time>2021-06-01T10:07:13.643Z</time>
      </trkpt>
      <trkpt lat="44.13127" lon="5.87166">
        <ele>999</ele>
        <time>2021-06-01T10:07:14.643Z</time>
      </trkpt>
      <trkpt lat="44.13128" lon="5.87166">
        <ele>999</ele>
        <time>2021-06-01T10:07:15.643Z</time>
      </trkpt>
      <trkpt lat="44.13128" lon="5.87166">
        <ele>999</ele>
        <time>2021-06-01T10:07:16.643Z</time>
      </trkpt>
      <trkpt lat="44.13128" lon="5.87166">
        <ele>999</ele>
        <time>2021-06-01T10:07:17.643Z</time>
      </trkpt>
      <trkpt lat="44.13129" lon="5.87165">
        <ele>1000</ele>
        <time>2021-06-01T10:07:18.643Z</time>
      </trkpt>
      <trkpt lat="44.13129" lon="5.87165">
        <ele>1000</ele>
        <time>2021-06-01T10:07:19.643Z</time>
      </trkpt>
      <trkpt lat="44.1313" lon="5.87165">
        <ele>1000</ele>
        <time>2021-06-01T10:07:20.643Z</time>
      </trkpt>
      <trkpt lat="44.1313" lon="5.87164">
        <ele>1000</ele>
        <time>2021-06-01T10:07:21.643Z</time>
      </trkpt>
      <trkpt lat="44.1313" lon="5.87164">
        <ele>1000</ele>
        <time>2021-06-01T10:07:22.643Z</time>
      </trkpt>
      <trkpt lat="44.1313" lon="5.87164">
        <ele>1000</ele>
        <time>2021-06-01T10:07:23.643Z</time>
      </trkpt>
      <trkpt lat="44.13131" lon="5.87164">
        <ele>1000</ele>
        <time>2021-06-01T10:07:24.643Z</time>
      </trkpt>
      <trkpt lat="44.13131" lon="5.87164">
        <ele>1001</ele>
        <time>2021-06-01T10:07:25.643Z</time>
      </trkpt>
      <trkpt lat="44.13132" lon="5.87164">
        <ele>1001</ele>
        <time>2021-06-01T10:07:26.643Z</time>
      </trkpt>
      <trkpt lat="44.13132" lon="5.87164">
        <ele>1001</ele>
        <time>2021-06-01T10:07:27.643Z</time>
      </trkpt>
      <trkpt lat="44.13132" lon="5.87163">
        <ele>1001</ele>
        <time>2021-06-01T10:07:28.643Z</time>
      </trkpt>
      <trkpt lat="44.13133" lon="5.87163">
        <ele>1001</ele>
        <time>2021-06-01T10:07:29.643Z</time>
      </trkpt>
      <trkpt lat="44.13133" lon="5.87162">
        <ele>1001</ele>
        <time>2021-06-01T10:07:30.643Z</time>
      </trkpt>
      <trkpt lat="44.13133" lon="5.87161">
        <ele>1001</ele>
        <time>2021-06-01T10:07:31.643Z</time>
      </trkpt>
      <trkpt lat="44.13133" lon="5.87161">
        <ele>1002</ele>
        <time>2021-06-01T10:07:32.643Z</time>
      </trkpt>
      <trkpt lat="44.13134" lon="5.8716">
        <ele>1002</ele>
        <time>2021-06-01T10:07:33.643Z</time>
      </trkpt>
      <trkpt lat="44.13134" lon="5.8716">
        <ele>1002</ele>
        <time>2021-06-01T10:07:34.643Z</time>
      </trkpt>
      <trkpt lat="44.13135" lon="5.8716">
        <ele>1002</ele>
        <time>2021-06-01T10:07:35.643Z</time>
      </trkpt>
      <trkpt lat="44.13135" lon="5.87159">
        <ele>1002</ele>
        <time>2021-06-01T10:07:36.643Z</time>
      </trkpt>
      <trkpt lat="44.13136" lon="5.87159">
        <ele>1002</ele>
        <time>2021-06-01T10:07:37.643Z</time>
      </trkpt>
      <trkpt lat="44.13136" lon="5.87158">
        <ele>1002</ele>
        <time>2021-06-01T10:07:38.643Z</time>
      </trkpt>
      <trkpt lat="44.13136" lon="5.87158">
        <ele>1002</ele>
        <time>2021-06-01T10:07:39.643Z</time>
      </trkpt>
      <trkpt lat="44.13137" lon="5.87158">
        <ele>1003</ele>
        <time>2021-06-01T10:07:40.643Z</time>
      </trkpt>
      <trkpt lat="44.13137" lon="5.87158">
        <ele>1003</ele>
        <time>2021-06-01T10:07:41.643Z</time>
      </trkpt>
      <trkpt lat="44.13138" lon="5.87158">
        <ele>1003</ele>
        <time>2021-06-01T10:07:42.643Z</time>
      </trkpt>
      <trkpt lat="44.13138" lon="5.87158">
        <ele>1003</ele>
        <time>2021-06-01T10:07:43.643Z</time>
      </trkpt>
      <trkpt lat="44.13138" lon="5.87158">
        <ele>1003</ele>
        <time>2021-06-01T10:07:44.643Z</time>
      </trkpt>
      <trkpt lat="44.13139" lon="5.87158">
        <ele>1003</ele>
        <time>2021-06-01T10:07:45.643Z</time>
      </trkpt>
      <trkpt lat="44.13139" lon="5.87159">
        <ele>1004</ele>
        <time>2021-06-01T10:07:46.643Z</time>
      </trkpt>
      <trkpt lat="44.13139" lon="5.87159">
        <ele>1004</ele>
        <time>2021-06-01T10:07:47.643Z</time>
      </trkpt>
      <trkpt lat="44.13139" lon="5.87159">
        <ele>1004</ele>
        <time>2021-06-01T10:07:48.643Z</time>
      </trkpt>
      <trkpt lat="44.13139" lon="5.87159">
        <ele>1004</ele>
        <time>2021-06-01T10:07:49.643Z</time>
      </trkpt>
      <trkpt lat="44.1314" lon="5.8716">
        <ele>1004</ele>
        <time>2021-06-01T10:07:50.643Z</time>
      </trkpt>
      <trkpt lat="44.1314" lon="5.87161">
        <ele>1004</ele>
        <time>2021-06-01T10:07:51.643Z</time>
      </trkpt>
      <trkpt lat="44.1314" lon="5.87161">
        <ele>1005</ele>
        <time>2021-06-01T10:07:52.643Z</time>
      </trkpt>
      <trkpt lat="44.1314" lon="5.87162">
        <ele>1005</ele>
        <time>2021-06-01T10:07:53.643Z</time>
      </trkpt>
      <trkpt lat="44.1314" lon="5.87162">
        <ele>1005</ele>
        <time>2021-06-01T10:07:54.643Z</time>
      </trkpt>
      <trkpt lat="44.13141" lon="5.87162">
        <ele>1005</ele>
        <time>2021-06-01T10:07:55.643Z</time>
      </trkpt>
      <trkpt lat="44.13141" lon="5.87163">
        <ele>1005</ele>
        <time>2021-06-01T10:07:56.643Z</time>
      </trkpt>
      <trkpt lat="44.13141" lon="5.87163">
        <ele>1006</ele>
        <time>2021-06-01T10:07:57.643Z</time>
      </trkpt>
      <trkpt lat="44.13141" lon="5.87164">
        <ele>1006</ele>
        <time>2021-06-01T10:07:58.643Z</time>
      </trkpt>
      <trkpt lat="44.13142" lon="5.87164">
        <ele>1006</ele>
        <time>2021-06-01T10:07:59.643Z</time>
      </trkpt>
      <trkpt lat="44.13142" lon="5.87165">
        <ele>1006</ele>
        <time>2021-06-01T10:08:00.643Z</time>
      </trkpt>
      <trkpt lat="44.13142" lon="5.87165">
        <ele>1006</ele>
        <time>2021-06-01T10:08:01.643Z</time>
      </trkpt>
      <trkpt lat="44.13142" lon="5.87165">
        <ele>1007</ele>
        <time>2021-06-01T10:08:02.643Z</time>
      </trkpt>
      <trkpt lat="44.13143" lon="5.87165">
        <ele>1007</ele>
        <time>2021-06-01T10:08:03.643Z</time>
      </trkpt>
      <trkpt lat="44.13143" lon="5.87166">
        <ele>1007</ele>
        <time>2021-06-01T10:08:04.643Z</time>
      </trkpt>
      <trkpt lat="44.13143" lon="5.87167">
        <ele>1007</ele>
        <time>2021-06-01T10:08:05.643Z</time>
      </trkpt>
      <trkpt lat="44.13143" lon="5.87167">
        <ele>1007</ele>
        <time>2021-06-01T10:08:06.643Z</time>
      </trkpt>
      <trkpt lat="44.13144" lon="5.87168">
        <ele>1007</ele>
        <time>2021-06-01T10:08:07.643Z</time>
      </trkpt>
      <trkpt lat="44.13144" lon="5.87168">
        <ele>1008</ele>
        <time>2021-06-01T10:08:08.643Z</time>
      </trkpt>
      <trkpt lat="44.13144" lon="5.87168">
        <ele>1008</ele>
        <time>2021-06-01T10:08:09.643Z</time>
      </trkpt>
      <trkpt lat="44.13144" lon="5.87169">
        <ele>1008</ele>
        <time>2021-06-01T10:08:10.643Z</time>
      </trkpt>
      <trkpt lat="44.13145" lon="5.87169">
        <ele>1008</ele>
        <time>2021-06-01T10:08:11.643Z</time>
      </trkpt>
      <trkpt lat="44.13145" lon="5.8717">
        <ele>1009</ele>
        <time>2021-06-01T10:08:12.643Z</time>
      </trkpt>
      <trkpt lat="44.13145" lon="5.8717">
        <ele>1009</ele>
        <time>2021-06-01T10:08:13.643Z</time>
      </trkpt>
      <trkpt lat="44.13146" lon="5.8717">
        <ele>1009</ele>
        <time>2021-06-01T10:08:14.643Z</time>
      </trkpt>
      <trkpt lat="44.13146" lon="5.8717">
        <ele>1009</ele>
        <time>2021-06-01T10:08:15.643Z</time>
      </trkpt>
      <trkpt lat="44.13146" lon="5.8717">
        <ele>1009</ele>
        <time>2021-06-01T10:08:16.643Z</time>
      </trkpt>
      <trkpt lat="44.13146" lon="5.8717">
        <ele>1009</ele>
        <time>2021-06-01T10:08:17.643Z</time>
      </trkpt>
      <trkpt lat="44.13147" lon="5.8717">
        <ele>1009</ele>
        <time>2021-06-01T10:08:18.643Z</time>
      </trkpt>
      <trkpt lat="44.13147" lon="5.87169">
        <ele>1009</ele>
        <time>2021-06-01T10:08:19.643Z</time>
      </trkpt>
      <trkpt lat="44.13147" lon="5.87169">
        <ele>1009</ele>
        <time>2021-06-01T10:08:20.643Z</time>
      </trkpt>
      <trkpt lat="44.13147" lon="5.87168">
        <ele>1009</ele>
        <time>2021-06-01T10:08:21.643Z</time>
      </trkpt>
      <trkpt lat="44.13148" lon="5.87168">
        <ele>1009</ele>
        <time>2021-06-01T10:08:22.643Z</time>
      </trkpt>
      <trkpt lat="44.13148" lon="5.87167">
        <ele>1009</ele>
        <time>2021-06-01T10:08:23.643Z</time>
      </trkpt>
      <trkpt lat="44.13148" lon="5.87167">
        <ele>1010</ele>
        <time>2021-06-01T10:08:24.643Z</time>
      </trkpt>
      <trkpt lat="44.13149" lon="5.87166">
        <ele>1010</ele>
        <time>2021-06-01T10:08:25.643Z</time>
      </trkpt>
      <trkpt lat="44.13149" lon="5.87165">
        <ele>1010</ele>
        <time>2021-06-01T10:08:26.643Z</time>
      </trkpt>
      <trkpt lat="44.13149" lon="5.87165">
        <ele>1010</ele>
        <time>2021-06-01T10:08:27.643Z</time>
      </trkpt>
      <trkpt lat="44.1315" lon="5.87164">
        <ele>1010</ele>
        <time>2021-06-01T10:08:28.643Z</time>
      </trkpt>
      <trkpt lat="44.1315" lon="5.87164">
        <ele>1010</ele>
        <time>2021-06-01T10:08:29.643Z</time>
      </trkpt>
      <trkpt lat="44.13151" lon="5.87163">
        <ele>1011</ele>
        <time>2021-06-01T10:08:30.643Z</time>
      </trkpt>
      <trkpt lat="44.13151" lon="5.87162">
        <ele>1011</ele>
        <time>2021-06-01T10:08:31.643Z</time>
      </trkpt>
      <trkpt lat="44.13151" lon="5.87162">
        <ele>1011</ele>
        <time>2021-06-01T10:08:32.643Z</time>
      </trkpt>
      <trkpt lat="44.13152" lon="5.87161">
        <ele>1011</ele>
        <time>2021-06-01T10:08:33.643Z</time>
      </trkpt>
      <trkpt lat="44.13152" lon="5.87161">
        <ele>1011</ele>
        <time>2021-06-01T10:08:34.643Z</time>
      </trkpt>
      <trkpt lat="44.13152" lon="5.8716">
        <ele>1011</ele>
        <time>2021-06-01T10:08:35.643Z</time>
      </trkpt>
      <trkpt lat="44.13152" lon="5.8716">
        <ele>1011</ele>
        <time>2021-06-01T10:08:36.643Z</time>
      </trkpt>
      <trkpt lat="44.13153" lon="5.87159">
        <ele>1011</ele>
        <time>2021-06-01T10:08:37.643Z</time>
      </trkpt>
      <trkpt lat="44.13153" lon="5.87159">
        <ele>1011</ele>
        <time>2021-06-01T10:08:38.643Z</time>
      </trkpt>
      <trkpt lat="44.13153" lon="5.87158">
        <ele>1011</ele>
        <time>2021-06-01T10:08:39.643Z</time>
      </trkpt>
      <trkpt lat="44.13154" lon="5.87157">
        <ele>1011</ele>
        <time>2021-06-01T10:08:40.643Z</time>
      </trkpt>
      <trkpt lat="44.13154" lon="5.87157">
        <ele>1012</ele>
        <time>2021-06-01T10:08:41.643Z</time>
      </trkpt>
      <trkpt lat="44.13154" lon="5.87156">
        <ele>1012</ele>
        <time>2021-06-01T10:08:42.643Z</time>
      </trkpt>
      <trkpt lat="44.13155" lon="5.87156">
        <ele>1012</ele>
        <time>2021-06-01T10:08:43.643Z</time>
      </trkpt>
      <trkpt lat="44.13155" lon="5.87156">
        <ele>1012</ele>
        <time>2021-06-01T10:08:44.643Z</time>
      </trkpt>
      <trkpt lat="44.13155" lon="5.87155">
        <ele>1012</ele>
        <time>2021-06-01T10:08:45.643Z</time>
      </trkpt>
      <trkpt lat="44.13156" lon="5.87155">
        <ele>1012</ele>
        <time>2021-06-01T10:08:46.643Z</time>
      </trkpt>
      <trkpt lat="44.13157" lon="5.87155">
        <ele>1013</ele>
        <time>2021-06-01T10:08:47.643Z</time>
      </trkpt>
      <trkpt lat="44.13157" lon="5.87155">
        <ele>1013</ele>
        <time>2021-06-01T10:08:48.643Z</time>
      </trkpt>
      <trkpt lat="44.13157" lon="5.87155">
        <ele>1013</ele>
        <time>2021-06-01T10:08:49.643Z</time>
      </trkpt>
      <trkpt lat="44.13158" lon="5.87155">
        <ele>1013</ele>
        <time>2021-06-01T10:08:50.643Z</time>
      </trkpt>
      <trkpt lat="44.13158" lon="5.87155">
        <ele>1013</ele>
        <time>2021-06-01T10:08:51.643Z</time>
      </trkpt>
      <trkpt lat="44.13159" lon="5.87154">
        <ele>1013</ele>
        <time>2021-06-01T10:08:52.643Z</time>
      </trkpt>
      <trkpt lat="44.13159" lon="5.87154">
        <ele>1014</ele>
        <time>2021-06-01T10:08:53.643Z</time>
      </trkpt>
      <trkpt lat="44.13159" lon="5.87154">
        <ele>1014</ele>
        <time>2021-06-01T10:08:54.643Z</time>
      </trkpt>
      <trkpt lat="44.1316" lon="5.87153">
        <ele>1014</ele>
        <time>2021-06-01T10:08:55.643Z</time>
      </trkpt>
      <trkpt lat="44.1316" lon="5.87153">
        <ele>1014</ele>
        <time>2021-06-01T10:08:56.643Z</time>
      </trkpt>
      <trkpt lat="44.13161" lon="5.87153">
        <ele>1014</ele>
        <time>2021-06-01T10:08:57.643Z</time>
      </trkpt>
      <trkpt lat="44.13161" lon="5.87153">
        <ele>1015</ele>
        <time>2021-06-01T10:08:58.643Z</time>
      </trkpt>
      <trkpt lat="44.13161" lon="5.87152">
        <ele>1015</ele>
        <time>2021-06-01T10:08:59.643Z</time>
      </trkpt>
      <trkpt lat="44.13161" lon="5.87152">
        <ele>1015</ele>
        <time>2021-06-01T10:09:00.643Z</time>
      </trkpt>
      <trkpt lat="44.13162" lon="5.87152">
        <ele>1015</ele>
        <time>2021-06-01T10:09:01.643Z</time>
      </trkpt>
      <trkpt lat="44.13162" lon="5.87151">
        <ele>1015</ele>
        <time>2021-06-01T10:09:02.643Z</time>
      </trkpt>
      <trkpt lat="44.13163" lon="5.87151">
        <ele>1016</ele>
        <time>2021-06-01T10:09:03.643Z</time>
      </trkpt>
      <trkpt lat="44.13163" lon="5.87151">
        <ele>1016</ele>
        <time>2021-06-01T10:09:04.643Z</time>
      </trkpt>
      <trkpt lat="44.13164" lon="5.87151">
        <ele>1016</ele>
        <time>2021-06-01T10:09:05.643Z</time>
      </trkpt>
      <trkpt lat="44.13164" lon="5.87151">
        <ele>1016</ele>
        <time>2021-06-01T10:09:06.643Z</time>
      </trkpt>
      <trkpt lat="44.13164" lon="5.87151">
        <ele>1017</ele>
        <time>2021-06-01T10:09:07.643Z</time>
      </trkpt>
      <trkpt lat="44.13164" lon="5.87151">
        <ele>1017</ele>
        <time>2021-06-01T10:09:08.643Z</time>
      </trkpt>
      <trkpt lat="44.13164" lon="5.87151">
        <ele>1017</ele>
        <time>2021-06-01T10:09:09.643Z</time>
      </trkpt>
      <trkpt lat="44.13164" lon="5.87151">
        <ele>1017</ele>
        <time>2021-06-01T10:09:10.643Z</time>
      </trkpt>
      <trkpt lat="44.13164" lon="5.87151">
        <ele>1017</ele>
        <time>2021-06-01T10:09:11.643Z</time>
      </trkpt>
      <trkpt lat="44.13164" lon="5.87151">
        <ele>1017</ele>
        <time>2021-06-01T10:09:12.643Z</time>
      </trkpt>
      <trkpt lat="44.13164" lon="5.87151">
        <ele>1017</ele>
        <time>2021-06-01T10:09:13.643Z</time>
      </trkpt>
      <trkpt lat="44.13164" lon="5.87151">
        <ele>1017</ele>
        <time>2021-06-01T10:09:14.643Z</time>
      </trkpt>
      <trkpt lat="44.13164" lon="5.87151">
        <ele>1017</ele>
        <time>2021-06-01T10:09:15.643Z</time>
      </trkpt>
      <trkpt lat="44.13164" lon="5.87151">
        <ele>1017</ele>
        <time>2021-06-01T10:09:16.643Z</time>
      </trkpt>
      <trkpt lat="44.13164" lon="5.87151">
        <ele>1017</ele>
        <time>2021-06-01T10:09:17.643Z</time>
      </trkpt>
      <trkpt lat="44.13164" lon="5.87151">
        <ele>1017</ele>
        <time>2021-06-01T10:09:18.643Z</time>
      </trkpt>
      <trkpt lat="44.13164" lon="5.87151">
        <ele>1017</ele>
        <time>2021-06-01T10:09:19.643Z</time>
      </trkpt>
      <trkpt lat="44.13164" lon="5.8715">
        <ele>1017</ele>
        <time>2021-06-01T10:09:20.643Z</time>
      </trkpt>
      <trkpt lat="44.13164" lon="5.8715">
        <ele>1017</ele>
        <time>2021-06-01T10:09:21.643Z</time>
      </trkpt>
      <trkpt lat="44.13164" lon="5.8715">
        <ele>1017</ele>
        <time>2021-06-01T10:09:22.643Z</time>
      </trkpt>
      <trkpt lat="44.13164" lon="5.8715">
        <ele>1017</ele>
        <time>2021-06-01T10:09:23.643Z</time>
      </trkpt>
      <trkpt lat="44.13164" lon="5.8715">
        <ele>1017</ele>
        <time>2021-06-01T10:09:24.643Z</time>
      </trkpt>
      <trkpt lat="44.13164" lon="5.8715">
        <ele>1017</ele>
        <time>2021-06-01T10:09:25.643Z</time>
      </trkpt>
      <trkpt lat="44.13164" lon="5.8715">
        <ele>1017</ele>
        <time>2021-06-01T10:09:26.643Z</time>
      </trkpt>
      <trkpt lat="44.13164" lon="5.8715">
        <ele>1017</ele>
        <time>2021-06-01T10:09:27.643Z</time>
      </trkpt>
      <trkpt lat="44.13164" lon="5.8715">
        <ele>1017</ele>
        <time>2021-06-01T10:09:28.643Z</time>
      </trkpt>
      <trkpt lat="44.13164" lon="5.8715">
        <ele>1017</ele>
        <time>2021-06-01T10:09:29.643Z</time>
      </trkpt>
      <trkpt lat="44.13164" lon="5.8715">
        <ele>1017</ele>
        <time>2021-06-01T10:09:30.643Z</time>
      </trkpt>
      <trkpt lat="44.13164" lon="5.8715">
        <ele>1017</ele>
        <time>2021-06-01T10:09:31.643Z</time>
      </trkpt>
      <trkpt lat="44.13164" lon="5.8715">
        <ele>1017</ele>
        <time>2021-06-01T10:09:32.643Z</time>
      </trkpt>
      <trkpt lat="44.13164" lon="5.8715">
        <ele>1017</ele>
        <time>2021-06-01T10:09:33.643Z</time>
      </trkpt>
      <trkpt lat="44.13164" lon="5.8715">
        <ele>1017</ele>
        <time>2021-06-01T10:09:34.643Z</time>
      </trkpt>
      <trkpt lat="44.13164" lon="5.8715">
        <ele>1017</ele>
        <time>2021-06-01T10:09:35.643Z</time>
      </trkpt>
      <trkpt lat="44.13164" lon="5.8715">
        <ele>1017</ele>
        <time>2021-06-01T10:09:36.643Z</time>
      </trkpt>
      <trkpt lat="44.13164" lon="5.8715">
        <ele>1017</ele>
        <time>2021-06-01T10:09:37.643Z</time>
      </trkpt>
      <trkpt lat="44.13164" lon="5.8715">
        <ele>1017</ele>
        <time>2021-06-01T10:09:38.643Z</time>
      </trkpt>
      <trkpt lat="44.13164" lon="5.8715">
        <ele>1017</ele>
        <time>2021-06-01T10:09:39.643Z</time>
      </trkpt>
      <trkpt lat="44.13164" lon="5.8715">
        <ele>1017</ele>
        <time>2021-06-01T10:09:40.643Z</time>
      </trkpt>
      <trkpt lat="44.13164" lon="5.8715">
        <ele>1017</ele>
        <time>2021-06-01T10:09:41.643Z</time>
      </trkpt>
      <trkpt lat="44.13164" lon="5.8715">
        <ele>1017</ele>
        <time>2021-06-01T10:09:42.643Z</time>
      </trkpt>
      <trkpt lat="44.13164" lon="5.8715">
        <ele>1017</ele>
        <time>2021-06-01T10:09:43.643Z</time>
      </trkpt>
      <trkpt lat="44.13164" lon="5.8715">
        <ele>1017</ele>
        <time>2021-06-01T10:09:44.643Z</time>
      </trkpt>
      <trkpt lat="44.13164" lon="5.8715">
        <ele>1017</ele>
        <time>2021-06-01T10:09:45.643Z</time>
      </trkpt>
      <trkpt lat="44.13164" lon="5.8715">
        <ele>1017</ele>
        <time>2021-06-01T10:09:46.643Z</time>
      </trkpt>
      <trkpt lat="44.13164" lon="5.8715">
        <ele>1017</ele>
        <time>2021-06-01T10:09:47.643Z</time>
      </trkpt>
      <trkpt lat="44.13164" lon="5.8715">
        <ele>1017</ele>
        <time>2021-06-01T10:09:48.643Z</time>
      </trkpt>
      <trkpt lat="44.13164" lon="5.8715">
        <ele>1018</ele>
        <time>2021-06-01T10:09:49.643Z</time>
      </trkpt>
      <trkpt lat="44.13164" lon="5.8715">
        <ele>1018</ele>
        <time>2021-06-01T10:09:50.643Z</time>
      </trkpt>
      <trkpt lat="44.13164" lon="5.8715">
        <ele>1018</ele>
        <time>2021-06-01T10:09:51.643Z</time>
      </trkpt>
      <trkpt lat="44.13164" lon="5.8715">
        <ele>1018</ele>
        <time>2021-06-01T10:09:52.643Z</time>
      </trkpt>
      <trkpt lat="44.13164" lon="5.8715">
        <ele>1018</ele>
        <time>2021-06-01T10:09:53.643Z</time>
      </trkpt>
      <trkpt lat="44.13164" lon="5.8715">
        <ele>1018</ele>
        <time>2021-06-01T10:09:54.643Z</time>
      </trkpt>
      <trkpt lat="44.13164" lon="5.8715">
        <ele>1018</ele>
        <time>2021-06-01T10:09:55.643Z</time>
      </trkpt>
      <trkpt lat="44.13164" lon="5.8715">
        <ele>1018</ele>
        <time>2021-06-01T10:09:56.643Z</time>
      </trkpt>
      <trkpt lat="44.13164" lon="5.8715">
        <ele>1018</ele>
        <time>2021-06-01T10:09:57.643Z</time>
      </trkpt>
      <trkpt lat="44.13164" lon="5.8715">
        <ele>1018</ele>
        <time>2021-06-01T10:09:58.643Z</time>
      </trkpt>
      <trkpt lat="44.13164" lon="5.8715">
        <ele>1018</ele>
        <time>2021-06-01T10:09:59.643Z</time>
      </trkpt>
      <trkpt lat="44.13164" lon="5.8715">
        <ele>1018</ele>
        <time>2021-06-01T10:10:00.643Z</time>
      </trkpt>
      <trkpt lat="44.13164" lon="5.8715">
        <ele>1018</ele>
        <time>2021-06-01T10:10:01.643Z</time>
      </trkpt>
      <trkpt lat="44.13164" lon="5.8715">
        <ele>1018</ele>
        <time>2021-06-01T10:10:02.643Z</time>
      </trkpt>
      <trkpt lat="44.13164" lon="5.8715">
        <ele>1018</ele>
        <time>2021-06-01T10:10:03.643Z</time>
      </trkpt>
      <trkpt lat="44.13164" lon="5.8715">
        <ele>1018</ele>
        <time>2021-06-01T10:10:04.643Z</time>
      </trkpt>
      <trkpt lat="44.13164" lon="5.8715">
        <ele>1018</ele>
        <time>2021-06-01T10:10:05.643Z</time>
      </trkpt>
      <trkpt lat="44.13164" lon="5.8715">
        <ele>1018</ele>
        <time>2021-06-01T10:10:06.643Z</time>
      </trkpt>
      <trkpt lat="44.13164" lon="5.8715">
        <ele>1018</ele>
        <time>2021-06-01T10:10:07.643Z</time>
      </trkpt>
      <trkpt lat="44.13164" lon="5.8715">
        <ele>1018</ele>
        <time>2021-06-01T10:10:08.643Z</time>
      </trkpt>
      <trkpt lat="44.13164" lon="5.8715">
        <ele>1018</ele>
        <time>2021-06-01T10:10:09.643Z</time>
      </trkpt>
      <trkpt lat="44.13164" lon="5.8715">
        <ele>1018</ele>
        <time>2021-06-01T10:10:10.643Z</time>
      </trkpt>
      <trkpt lat="44.13164" lon="5.8715">
        <ele>1018</ele>
        <time>2021-06-01T10:10:11.643Z</time>
      </trkpt>
      <trkpt lat="44.13164" lon="5.8715">
        <ele>1018</ele>
        <time>2021-06-01T10:10:12.643Z</time>
      </trkpt>
      <trkpt lat="44.13164" lon="5.8715">
        <ele>1018</ele>
        <time>2021-06-01T10:10:13.643Z</time>
      </trkpt>
      <trkpt lat="44.13164" lon="5.8715">
        <ele>1018</ele>
        <time>2021-06-01T10:10:14.643Z</time>
      </trkpt>
      <trkpt lat="44.13164" lon="5.8715">
        <ele>1018</ele>
        <time>2021-06-01T10:10:15.643Z</time>
      </trkpt>
      <trkpt lat="44.13164" lon="5.8715">
        <ele>1018</ele>
        <time>2021-06-01T10:10:16.643Z</time>
      </trkpt>
      <trkpt lat="44.13164" lon="5.8715">
        <ele>1018</ele>
        <time>2021-06-01T10:10:17.643Z</time>
      </trkpt>
      <trkpt lat="44.13164" lon="5.8715">
        <ele>1018</ele>
        <time>2021-06-01T10:10:18.643Z</time>
      </trkpt>
      <trkpt lat="44.13164" lon="5.8715">
        <ele>1018</ele>
        <time>2021-06-01T10:10:19.643Z</time>
      </trkpt>
      <trkpt lat="44.13164" lon="5.8715">
        <ele>1018</ele>
        <time>2021-06-01T10:10:20.643Z</time>
      </trkpt>
      <trkpt lat="44.13164" lon="5.8715">
        <ele>1018</ele>
        <time>2021-06-01T10:10:21.643Z</time>
      </trkpt>
      <trkpt lat="44.13164" lon="5.8715">
        <ele>1018</ele>
        <time>2021-06-01T10:10:22.643Z</time>
      </trkpt>
      <trkpt lat="44.13164" lon="5.8715">
        <ele>1018</ele>
        <time>2021-06-01T10:10:23.643Z</time>
      </trkpt>
      <trkpt lat="44.13164" lon="5.8715">
        <ele>1018</ele>
        <time>2021-06-01T10:10:24.643Z</time>
      </trkpt>
      <trkpt lat="44.13164" lon="5.8715">
        <ele>1018</ele>
        <time>2021-06-01T10:10:25.643Z</time>
      </trkpt>
      <trkpt lat="44.13164" lon="5.8715">
        <ele>1018</ele>
        <time>2021-06-01T10:10:26.643Z</time>
      </trkpt>
      <trkpt lat="44.13164" lon="5.8715">
        <ele>1018</ele>
        <time>2021-06-01T10:10:27.643Z</time>
      </trkpt>
      <trkpt lat="44.13164" lon="5.8715">
        <ele>1018</ele>
        <time>2021-06-01T10:10:28.643Z</time>
      </trkpt>
      <trkpt lat="44.13164" lon="5.8715">
        <ele>1018</ele>
        <time>2021-06-01T10:10:29.643Z</time>
      </trkpt>
      <trkpt lat="44.13164" lon="5.8715">
        <ele>1018</ele>
        <time>2021-06-01T10:10:30.643Z</time>
      </trkpt>
      <trkpt lat="44.13165" lon="5.87149">
        <ele>1018</ele>
        <time>2021-06-01T10:10:31.643Z</time>
      </trkpt>
      <trkpt lat="44.13165" lon="5.87149">
        <ele>1018</ele>
        <time>2021-06-01T10:10:32.643Z</time>
      </trkpt>
      <trkpt lat="44.13165" lon="5.87149">
        <ele>1018</ele>
        <time>2021-06-01T10:10:33.643Z</time>
      </trkpt>
      <trkpt lat="44.13166" lon="5.87149">
        <ele>1018</ele>
        <time>2021-06-01T10:10:34.643Z</time>
      </trkpt>
      <trkpt lat="44.13166" lon="5.87149">
        <ele>1018</ele>
        <time>2021-06-01T10:10:35.643Z</time>
      </trkpt>
      <trkpt lat="44.13167" lon="5.87149">
        <ele>1018</ele>
        <time>2021-06-01T10:10:36.643Z</time>
      </trkpt>
      <trkpt lat="44.13167" lon="5.87148">
        <ele>1019</ele>
        <time>2021-06-01T10:10:37.643Z</time>
      </trkpt>
      <trkpt lat="44.13168" lon="5.87148">
        <ele>1019</ele>
        <time>2021-06-01T10:10:38.643Z</time>
      </trkpt>
      <trkpt lat="44.13169" lon="5.87148">
        <ele>1019</ele>
        <time>2021-06-01T10:10:39.643Z</time>
      </trkpt>
      <trkpt lat="44.13169" lon="5.87148">
        <ele>1019</ele>
        <time>2021-06-01T10:10:40.643Z</time>
      </trkpt>
      <trkpt lat="44.1317" lon="5.87148">
        <ele>1019</ele>
        <time>2021-06-01T10:10:41.643Z</time>
      </trkpt>
      <trkpt lat="44.1317" lon="5.87148">
        <ele>1019</ele>
        <time>2021-06-01T10:10:42.643Z</time>
      </trkpt>
      <trkpt lat="44.13171" lon="5.87149">
        <ele>1020</ele>
        <time>2021-06-01T10:10:43.643Z</time>
      </trkpt>
      <trkpt lat="44.13171" lon="5.87149">
        <ele>1020</ele>
        <time>2021-06-01T10:10:44.643Z</time>
      </trkpt>
      <trkpt lat="44.13171" lon="5.87149">
        <ele>1020</ele>
        <time>2021-06-01T10:10:45.643Z</time>
      </trkpt>
      <trkpt lat="44.13172" lon="5.87149">
        <ele>1020</ele>
        <time>2021-06-01T10:10:46.643Z</time>
      </trkpt>
      <trkpt lat="44.13172" lon="5.87149">
        <ele>1020</ele>
        <time>2021-06-01T10:10:47.643Z</time>
      </trkpt>
      <trkpt lat="44.13172" lon="5.87149">
        <ele>1020</ele>
        <time>2021-06-01T10:10:48.643Z</time>
      </trkpt>
      <trkpt lat="44.13173" lon="5.87149">
        <ele>1020</ele>
        <time>2021-06-01T10:10:49.643Z</time>
      </trkpt>
      <trkpt lat="44.13173" lon="5.87148">
        <ele>1020</ele>
        <time>2021-06-01T10:10:50.643Z</time>
      </trkpt>
      <trkpt lat="44.13174" lon="5.87148">
        <ele>1020</ele>
        <time>2021-06-01T10:10:51.643Z</time>
      </trkpt>
      <trkpt lat="44.13174" lon="5.87147">
        <ele>1021</ele>
        <time>2021-06-01T10:10:52.643Z</time>
      </trkpt>
      <trkpt lat="44.13174" lon="5.87147">
        <ele>1021</ele>
        <time>2021-06-01T10:10:53.643Z</time>
      </trkpt>
      <trkpt lat="44.13175" lon="5.87146">
        <ele>1021</ele>
        <time>2021-06-01T10:10:54.643Z</time>
      </trkpt>
      <trkpt lat="44.13175" lon="5.87145">
        <ele>1021</ele>
        <time>2021-06-01T10:10:55.643Z</time>
      </trkpt>
      <trkpt lat="44.13176" lon="5.87145">
        <ele>1021</ele>
        <time>2021-06-01T10:10:56.643Z</time>
      </trkpt>
      <trkpt lat="44.13176" lon="5.87144">
        <ele>1021</ele>
        <time>2021-06-01T10:10:57.643Z</time>
      </trkpt>
      <trkpt lat="44.13176" lon="5.87144">
        <ele>1021</ele>
        <time>2021-06-01T10:10:58.643Z</time>
      </trkpt>
      <trkpt lat="44.13177" lon="5.87143">
        <ele>1021</ele>
        <time>2021-06-01T10:10:59.643Z</time>
      </trkpt>
      <trkpt lat="44.13177" lon="5.87143">
        <ele>1022</ele>
        <time>2021-06-01T10:11:00.643Z</time>
      </trkpt>
      <trkpt lat="44.13178" lon="5.87142">
        <ele>1022</ele>
        <time>2021-06-01T10:11:01.643Z</time>
      </trkpt>
      <trkpt lat="44.13178" lon="5.87142">
        <ele>1022</ele>
        <time>2021-06-01T10:11:02.643Z</time>
      </trkpt>
      <trkpt lat="44.13179" lon="5.87142">
        <ele>1022</ele>
        <time>2021-06-01T10:11:03.643Z</time>
      </trkpt>
      <trkpt lat="44.13179" lon="5.87141">
        <ele>1022</ele>
        <time>2021-06-01T10:11:04.643Z</time>
      </trkpt>
      <trkpt lat="44.1318" lon="5.87141">
        <ele>1022</ele>
        <time>2021-06-01T10:11:05.643Z</time>
      </trkpt>
      <trkpt lat="44.1318" lon="5.87141">
        <ele>1022</ele>
        <time>2021-06-01T10:11:06.643Z</time>
      </trkpt>
      <trkpt lat="44.13181" lon="5.8714">
        <ele>1023</ele>
        <time>2021-06-01T10:11:07.643Z</time>
      </trkpt>
      <trkpt lat="44.13181" lon="5.8714">
        <ele>1023</ele>
        <time>2021-06-01T10:11:08.643Z</time>
      </trkpt>
      <trkpt lat="44.13182" lon="5.8714">
        <ele>1023</ele>
        <time>2021-06-01T10:11:09.643Z</time>
      </trkpt>
      <trkpt lat="44.13182" lon="5.87139">
        <ele>1023</ele>
        <time>2021-06-01T10:11:10.643Z</time>
      </trkpt>
      <trkpt lat="44.13183" lon="5.8714">
        <ele>1023</ele>
        <time>2021-06-01T10:11:11.643Z</time>
      </trkpt>
      <trkpt lat="44.13183" lon="5.8714">
        <ele>1024</ele>
        <time>2021-06-01T10:11:12.643Z</time>
      </trkpt>
      <trkpt lat="44.13184" lon="5.8714">
        <ele>1024</ele>
        <time>2021-06-01T10:11:13.643Z</time>
      </trkpt>
      <trkpt lat="44.13184" lon="5.8714">
        <ele>1024</ele>
        <time>2021-06-01T10:11:14.643Z</time>
      </trkpt>
      <trkpt lat="44.13185" lon="5.87141">
        <ele>1024</ele>
        <time>2021-06-01T10:11:15.643Z</time>
      </trkpt>
      <trkpt lat="44.13185" lon="5.87142">
        <ele>1024</ele>
        <time>2021-06-01T10:11:16.643Z</time>
      </trkpt>
      <trkpt lat="44.13185" lon="5.87142">
        <ele>1024</ele>
        <time>2021-06-01T10:11:17.643Z</time>
      </trkpt>
      <trkpt lat="44.13185" lon="5.87143">
        <ele>1024</ele>
        <time>2021-06-01T10:11:18.643Z</time>
      </trkpt>
      <trkpt lat="44.13186" lon="5.87143">
        <ele>1025</ele>
        <time>2021-06-01T10:11:19.643Z</time>
      </trkpt>
      <trkpt lat="44.13186" lon="5.87144">
        <ele>1025</ele>
        <time>2021-06-01T10:11:20.643Z</time>
      </trkpt>
      <trkpt lat="44.13186" lon="5.87144">
        <ele>1025</ele>
        <time>2021-06-01T10:11:21.643Z</time>
      </trkpt>
      <trkpt lat="44.13186" lon="5.87145">
        <ele>1025</ele>
        <time>2021-06-01T10:11:22.643Z</time>
      </trkpt>
      <trkpt lat="44.13187" lon="5.87145">
        <ele>1025</ele>
        <time>2021-06-01T10:11:23.643Z</time>
      </trkpt>
      <trkpt lat="44.13187" lon="5.87145">
        <ele>1025</ele>
        <time>2021-06-01T10:11:24.643Z</time>
      </trkpt>
      <trkpt lat="44.13187" lon="5.87146">
        <ele>1025</ele>
        <time>2021-06-01T10:11:25.643Z</time>
      </trkpt>
      <trkpt lat="44.13188" lon="5.87146">
        <ele>1026</ele>
        <time>2021-06-01T10:11:26.643Z</time>
      </trkpt>
      <trkpt lat="44.13188" lon="5.87147">
        <ele>1026</ele>
        <time>2021-06-01T10:11:27.643Z</time>
      </trkpt>
      <trkpt lat="44.13188" lon="5.87147">
        <ele>1026</ele>
        <time>2021-06-01T10:11:28.643Z</time>
      </trkpt>
      <trkpt lat="44.13188" lon="5.87148">
        <ele>1026</ele>
        <time>2021-06-01T10:11:29.643Z</time>
      </trkpt>
      <trkpt lat="44.13189" lon="5.87148">
        <ele>1026</ele>
        <time>2021-06-01T10:11:30.643Z</time>
      </trkpt>
      <trkpt lat="44.13189" lon="5.87149">
        <ele>1026</ele>
        <time>2021-06-01T10:11:31.643Z</time>
      </trkpt>
      <trkpt lat="44.13189" lon="5.87149">
        <ele>1027</ele>
        <time>2021-06-01T10:11:32.643Z</time>
      </trkpt>
      <trkpt lat="44.1319" lon="5.8715">
        <ele>1027</ele>
        <time>2021-06-01T10:11:33.643Z</time>
      </trkpt>
      <trkpt lat="44.1319" lon="5.87151">
        <ele>1027</ele>
        <time>2021-06-01T10:11:34.643Z</time>
      </trkpt>
      <trkpt lat="44.1319" lon="5.87151">
        <ele>1027</ele>
        <time>2021-06-01T10:11:35.643Z</time>
      </trkpt>
      <trkpt lat="44.1319" lon="5.87152">
        <ele>1027</ele>
        <time>2021-06-01T10:11:36.643Z</time>
      </trkpt>
      <trkpt lat="44.1319" lon="5.87153">
        <ele>1027</ele>
        <time>2021-06-01T10:11:37.643Z</time>
      </trkpt>
      <trkpt lat="44.1319" lon="5.87153">
        <ele>1027</ele>
        <time>2021-06-01T10:11:38.643Z</time>
      </trkpt>
      <trkpt lat="44.13191" lon="5.87154">
        <ele>1028</ele>
        <time>2021-06-01T10:11:39.643Z</time>
      </trkpt>
      <trkpt lat="44.13191" lon="5.87155">
        <ele>1028</ele>
        <time>2021-06-01T10:11:40.643Z</time>
      </trkpt>
      <trkpt lat="44.13191" lon="5.87155">
        <ele>1028</ele>
        <time>2021-06-01T10:11:41.643Z</time>
      </trkpt>
      <trkpt lat="44.13191" lon="5.87156">
        <ele>1028</ele>
        <time>2021-06-01T10:11:42.643Z</time>
      </trkpt>
      <trkpt lat="44.13192" lon="5.87156">
        <ele>1028</ele>
        <time>2021-06-01T10:11:43.643Z</time>
      </trkpt>
      <trkpt lat="44.13192" lon="5.87157">
        <ele>1028</ele>
        <time>2021-06-01T10:11:44.643Z</time>
      </trkpt>
      <trkpt lat="44.13192" lon="5.87158">
        <ele>1028</ele>
        <time>2021-06-01T10:11:45.643Z</time>
      </trkpt>
      <trkpt lat="44.13193" lon="5.87158">
        <ele>1028</ele>
        <time>2021-06-01T10:11:46.643Z</time>
      </trkpt>
      <trkpt lat="44.13193" lon="5.87159">
        <ele>1029</ele>
        <time>2021-06-01T10:11:47.643Z</time>
      </trkpt>
      <trkpt lat="44.13194" lon="5.87159">
        <ele>1029</ele>
        <time>2021-06-01T10:11:48.643Z</time>
      </trkpt>
      <trkpt lat="44.13194" lon="5.8716">
        <ele>1029</ele>
        <time>2021-06-01T10:11:49.643Z</time>
      </trkpt>
      <trkpt lat="44.13195" lon="5.8716">
        <ele>1029</ele>
        <time>2021-06-01T10:11:50.643Z</time>
      </trkpt>
      <trkpt lat="44.13195" lon="5.87161">
        <ele>1029</ele>
        <time>2021-06-01T10:11:51.643Z</time>
      </trkpt>
      <trkpt lat="44.13195" lon="5.87162">
        <ele>1029</ele>
        <time>2021-06-01T10:11:52.643Z</time>
      </trkpt>
      <trkpt lat="44.13195" lon="5.87163">
        <ele>1030</ele>
        <time>2021-06-01T10:11:53.643Z</time>
      </trkpt>
      <trkpt lat="44.13196" lon="5.87163">
        <ele>1030</ele>
        <time>2021-06-01T10:11:54.643Z</time>
      </trkpt>
      <trkpt lat="44.13196" lon="5.87164">
        <ele>1030</ele>
        <time>2021-06-01T10:11:55.643Z</time>
      </trkpt>
      <trkpt lat="44.13196" lon="5.87165">
        <ele>1030</ele>
        <time>2021-06-01T10:11:56.643Z</time>
      </trkpt>
      <trkpt lat="44.13196" lon="5.87165">
        <ele>1030</ele>
        <time>2021-06-01T10:11:57.643Z</time>
      </trkpt>
      <trkpt lat="44.13196" lon="5.87166">
        <ele>1030</ele>
        <time>2021-06-01T10:11:58.643Z</time>
      </trkpt>
      <trkpt lat="44.13197" lon="5.87166">
        <ele>1031</ele>
        <time>2021-06-01T10:11:59.643Z</time>
      </trkpt>
      <trkpt lat="44.13197" lon="5.87167">
        <ele>1031</ele>
        <time>2021-06-01T10:12:00.643Z</time>
      </trkpt>
      <trkpt lat="44.13197" lon="5.87167">
        <ele>1031</ele>
        <time>2021-06-01T10:12:01.643Z</time>
      </trkpt>
      <trkpt lat="44.13198" lon="5.87167">
        <ele>1031</ele>
        <time>2021-06-01T10:12:02.643Z</time>
      </trkpt>
      <trkpt lat="44.13198" lon="5.87166">
        <ele>1031</ele>
        <time>2021-06-01T10:12:03.643Z</time>
      </trkpt>
      <trkpt lat="44.13199" lon="5.87166">
        <ele>1031</ele>
        <time>2021-06-01T10:12:04.643Z</time>
      </trkpt>
      <trkpt lat="44.13199" lon="5.87166">
        <ele>1031</ele>
        <time>2021-06-01T10:12:05.643Z</time>
      </trkpt>
      <trkpt lat="44.132" lon="5.87166">
        <ele>1032</ele>
        <time>2021-06-01T10:12:06.643Z</time>
      </trkpt>
      <trkpt lat="44.132" lon="5.87165">
        <ele>1032</ele>
        <time>2021-06-01T10:12:07.643Z</time>
      </trkpt>
      <trkpt lat="44.13201" lon="5.87165">
        <ele>1032</ele>
        <time>2021-06-01T10:12:08.643Z</time>
      </trkpt>
      <trkpt lat="44.13201" lon="5.87165">
        <ele>1032</ele>
        <time>2021-06-01T10:12:09.643Z</time>
      </trkpt>
      <trkpt lat="44.13202" lon="5.87165">
        <ele>1032</ele>
        <time>2021-06-01T10:12:10.643Z</time>
      </trkpt>
      <trkpt lat="44.13202" lon="5.87165">
        <ele>1032</ele>
        <time>2021-06-01T10:12:11.643Z</time>
      </trkpt>
      <trkpt lat="44.13202" lon="5.87164">
        <ele>1032</ele>
        <time>2021-06-01T10:12:12.643Z</time>
      </trkpt>
      <trkpt lat="44.13203" lon="5.87164">
        <ele>1032</ele>
        <time>2021-06-01T10:12:13.643Z</time>
      </trkpt>
      <trkpt lat="44.13203" lon="5.87164">
        <ele>1032</ele>
        <time>2021-06-01T10:12:14.643Z</time>
      </trkpt>
      <trkpt lat="44.13204" lon="5.87164">
        <ele>1032</ele>
        <time>2021-06-01T10:12:15.643Z</time>
      </trkpt>
      <trkpt lat="44.13204" lon="5.87163">
        <ele>1033</ele>
        <time>2021-06-01T10:12:16.643Z</time>
      </trkpt>
      <trkpt lat="44.13205" lon="5.87163">
        <ele>1033</ele>
        <time>2021-06-01T10:12:17.643Z</time>
      </trkpt>
      <trkpt lat="44.13205" lon="5.87163">
        <ele>1033</ele>
        <time>2021-06-01T10:12:18.643Z</time>
      </trkpt>
      <trkpt lat="44.13205" lon="5.87162">
        <ele>1033</ele>
        <time>2021-06-01T10:12:19.643Z</time>
      </trkpt>
      <trkpt lat="44.13206" lon="5.87162">
        <ele>1033</ele>
        <time>2021-06-01T10:12:20.643Z</time>
      </trkpt>
      <trkpt lat="44.13206" lon="5.87161">
        <ele>1033</ele>
        <time>2021-06-01T10:12:21.643Z</time>
      </trkpt>
      <trkpt lat="44.13207" lon="5.87161">
        <ele>1033</ele>
        <time>2021-06-01T10:12:22.643Z</time>
      </trkpt>
      <trkpt lat="44.13207" lon="5.8716">
        <ele>1034</ele>
        <time>2021-06-01T10:12:23.643Z</time>
      </trkpt>
      <trkpt lat="44.13207" lon="5.8716">
        <ele>1034</ele>
        <time>2021-06-01T10:12:24.643Z</time>
      </trkpt>
      <trkpt lat="44.13208" lon="5.87159">
        <ele>1034</ele>
        <time>2021-06-01T10:12:25.643Z</time>
      </trkpt>
      <trkpt lat="44.13208" lon="5.87159">
        <ele>1034</ele>
        <time>2021-06-01T10:12:26.643Z</time>
      </trkpt>
      <trkpt lat="44.13209" lon="5.87158">
        <ele>1034</ele>
        <time>2021-06-01T10:12:27.643Z</time>
      </trkpt>
      <trkpt lat="44.13209" lon="5.87157">
        <ele>1034</ele>
        <time>2021-06-01T10:12:28.643Z</time>
      </trkpt>
      <trkpt lat="44.13209" lon="5.87157">
        <ele>1034</ele>
        <time>2021-06-01T10:12:29.643Z</time>
      </trkpt>
      <trkpt lat="44.13209" lon="5.87156">
        <ele>1034</ele>
        <time>2021-06-01T10:12:30.643Z</time>
      </trkpt>
      <trkpt lat="44.1321" lon="5.87156">
        <ele>1034</ele>
        <time>2021-06-01T10:12:31.643Z</time>
      </trkpt>
      <trkpt lat="44.1321" lon="5.87155">
        <ele>1034</ele>
        <time>2021-06-01T10:12:32.643Z</time>
      </trkpt>
      <trkpt lat="44.13211" lon="5.87155">
        <ele>1034</ele>
        <time>2021-06-01T10:12:33.643Z</time>
      </trkpt>
      <trkpt lat="44.13211" lon="5.87154">
        <ele>1034</ele>
        <time>2021-06-01T10:12:34.643Z</time>
      </trkpt>
      <trkpt lat="44.13212" lon="5.87154">
        <ele>1034</ele>
        <time>2021-06-01T10:12:35.643Z</time>
      </trkpt>
      <trkpt lat="44.13212" lon="5.87154">
        <ele>1034</ele>
        <time>2021-06-01T10:12:36.643Z</time>
      </trkpt>
      <trkpt lat="44.13213" lon="5.87154">
        <ele>1034</ele>
        <time>2021-06-01T10:12:37.643Z</time>
      </trkpt>
      <trkpt lat="44.13213" lon="5.87154">
        <ele>1035</ele>
        <time>2021-06-01T10:12:38.643Z</time>
      </trkpt>
      <trkpt lat="44.13214" lon="5.87154">
        <ele>1035</ele>
        <time>2021-06-01T10:12:39.643Z</time>
      </trkpt>
      <trkpt lat="44.13214" lon="5.87154">
        <ele>1035</ele>
        <time>2021-06-01T10:12:40.643Z</time>
      </trkpt>
      <trkpt lat="44.13215" lon="5.87154">
        <ele>1035</ele>
        <time>2021-06-01T10:12:41.643Z</time>
      </trkpt>
      <trkpt lat="44.13215" lon="5.87155">
        <ele>1035</ele>
        <time>2021-06-01T10:12:42.643Z</time>
      </trkpt>
      <trkpt lat="44.13215" lon="5.87155">
        <ele>1035</ele>
        <time>2021-06-01T10:12:43.643Z</time>
      </trkpt>
      <trkpt lat="44.13216" lon="5.87155">
        <ele>1035</ele>
        <time>2021-06-01T10:12:44.643Z</time>
      </trkpt>
      <trkpt lat="44.13216" lon="5.87155">
        <ele>1035</ele>
        <time>2021-06-01T10:12:45.643Z</time>
      </trkpt>
      <trkpt lat="44.13216" lon="5.87155">
        <ele>1035</ele>
        <time>2021-06-01T10:12:46.643Z</time>
      </trkpt>
      <trkpt lat="44.13217" lon="5.87155">
        <ele>1036</ele>
        <time>2021-06-01T10:12:47.643Z</time>
      </trkpt>
      <trkpt lat="44.13217" lon="5.87155">
        <ele>1036</ele>
        <time>2021-06-01T10:12:48.643Z</time>
      </trkpt>
      <trkpt lat="44.13218" lon="5.87156">
        <ele>1036</ele>
        <time>2021-06-01T10:12:49.643Z</time>
      </trkpt>
      <trkpt lat="44.13218" lon="5.87156">
        <ele>1036</ele>
        <time>2021-06-01T10:12:50.643Z</time>
      </trkpt>
      <trkpt lat="44.13218" lon="5.87157">
        <ele>1036</ele>
        <time>2021-06-01T10:12:51.643Z</time>
      </trkpt>
      <trkpt lat="44.13218" lon="5.87157">
        <ele>1036</ele>
        <time>2021-06-01T10:12:52.643Z</time>
      </trkpt>
      <trkpt lat="44.13218" lon="5.87157">
        <ele>1036</ele>
        <time>2021-06-01T10:12:53.643Z</time>
      </trkpt>
      <trkpt lat="44.13219" lon="5.87157">
        <ele>1036</ele>
        <time>2021-06-01T10:12:54.643Z</time>
      </trkpt>
      <trkpt lat="44.13219" lon="5.87157">
        <ele>1036</ele>
        <time>2021-06-01T10:12:55.643Z</time>
      </trkpt>
      <trkpt lat="44.1322" lon="5.87157">
        <ele>1036</ele>
        <time>2021-06-01T10:12:56.643Z</time>
      </trkpt>
      <trkpt lat="44.1322" lon="5.87157">
        <ele>1036</ele>
        <time>2021-06-01T10:12:57.643Z</time>
      </trkpt>
      <trkpt lat="44.13221" lon="5.87157">
        <ele>1036</ele>
        <time>2021-06-01T10:12:58.643Z</time>
      </trkpt>
      <trkpt lat="44.13221" lon="5.87156">
        <ele>1036</ele>
        <time>2021-06-01T10:12:59.643Z</time>
      </trkpt>
      <trkpt lat="44.13221" lon="5.87156">
        <ele>1036</ele>
        <time>2021-06-01T10:13:00.643Z</time>
      </trkpt>
      <trkpt lat="44.13222" lon="5.87156">
        <ele>1036</ele>
        <time>2021-06-01T10:13:01.643Z</time>
      </trkpt>
      <trkpt lat="44.13222" lon="5.87155">
        <ele>1036</ele>
        <time>2021-06-01T10:13:02.643Z</time>
      </trkpt>
      <trkpt lat="44.13223" lon="5.87155">
        <ele>1036</ele>
        <time>2021-06-01T10:13:03.643Z</time>
      </trkpt>
      <trkpt lat="44.13224" lon="5.87155">
        <ele>1036</ele>
        <time>2021-06-01T10:13:04.643Z</time>
      </trkpt>
      <trkpt lat="44.13224" lon="5.87154">
        <ele>1036</ele>
        <time>2021-06-01T10:13:05.643Z</time>
      </trkpt>
      <trkpt lat="44.13224" lon="5.87154">
        <ele>1036</ele>
        <time>2021-06-01T10:13:06.643Z</time>
      </trkpt>
      <trkpt lat="44.13225" lon="5.87154">
        <ele>1036</ele>
        <time>2021-06-01T10:13:07.643Z</time>
      </trkpt>
      <trkpt lat="44.13226" lon="5.87154">
        <ele>1036</ele>
        <time>2021-06-01T10:13:08.643Z</time>
      </trkpt>
      <trkpt lat="44.13226" lon="5.87153">
        <ele>1036</ele>
        <time>2021-06-01T10:13:09.643Z</time>
      </trkpt>
      <trkpt lat="44.13227" lon="5.87153">
        <ele>1036</ele>
        <time>2021-06-01T10:13:10.643Z</time>
      </trkpt>
      <trkpt lat="44.13227" lon="5.87153">
        <ele>1036</ele>
        <time>2021-06-01T10:13:11.643Z</time>
      </trkpt>
      <trkpt lat="44.13227" lon="5.87153">
        <ele>1036</ele>
        <time>2021-06-01T10:13:12.643Z</time>
      </trkpt>
      <trkpt lat="44.13227" lon="5.87153">
        <ele>1036</ele>
        <time>2021-06-01T10:13:13.643Z</time>
      </trkpt>
      <trkpt lat="44.13227" lon="5.87153">
        <ele>1036</ele>
        <time>2021-06-01T10:13:14.643Z</time>
      </trkpt>
      <trkpt lat="44.13228" lon="5.87153">
        <ele>1036</ele>
        <time>2021-06-01T10:13:15.643Z</time>
      </trkpt>
      <trkpt lat="44.13228" lon="5.87152">
        <ele>1036</ele>
        <time>2021-06-01T10:13:16.643Z</time>
      </trkpt>
      <trkpt lat="44.13228" lon="5.87152">
        <ele>1036</ele>
        <time>2021-06-01T10:13:17.643Z</time>
      </trkpt>
      <trkpt lat="44.13228" lon="5.87152">
        <ele>1036</ele>
        <time>2021-06-01T10:13:18.643Z</time>
      </trkpt>
      <trkpt lat="44.13228" lon="5.87152">
        <ele>1036</ele>
        <time>2021-06-01T10:13:19.643Z</time>
      </trkpt>
      <trkpt lat="44.13228" lon="5.87152">
        <ele>1036</ele>
        <time>2021-06-01T10:13:20.643Z</time>
      </trkpt>
      <trkpt lat="44.13228" lon="5.87152">
        <ele>1036</ele>
        <time>2021-06-01T10:13:21.643Z</time>
      </trkpt>
      <trkpt lat="44.13228" lon="5.87152">
        <ele>1036</ele>
        <time>2021-06-01T10:13:22.643Z</time>
      </trkpt>
      <trkpt lat="44.13228" lon="5.87152">
        <ele>1036</ele>
        <time>2021-06-01T10:13:23.643Z</time>
      </trkpt>
      <trkpt lat="44.13228" lon="5.87152">
        <ele>1036</ele>
        <time>2021-06-01T10:13:24.643Z</time>
      </trkpt>
      <trkpt lat="44.13228" lon="5.87152">
        <ele>1036</ele>
        <time>2021-06-01T10:13:25.643Z</time>
      </trkpt>
      <trkpt lat="44.13228" lon="5.87152">
        <ele>1036</ele>
        <time>2021-06-01T10:13:26.643Z</time>
      </trkpt>
      <trkpt lat="44.13228" lon="5.87152">
        <ele>1036</ele>
        <time>2021-06-01T10:13:27.643Z</time>
      </trkpt>
      <trkpt lat="44.13228" lon="5.87152">
        <ele>1036</ele>
        <time>2021-06-01T10:13:28.643Z</time>
      </trkpt>
      <trkpt lat="44.13228" lon="5.87152">
        <ele>1036</ele>
        <time>2021-06-01T10:13:29.643Z</time>
      </trkpt>
      <trkpt lat="44.13228" lon="5.87151">
        <ele>1036</ele>
        <time>2021-06-01T10:13:30.643Z</time>
      </trkpt>
      <trkpt lat="44.13228" lon="5.87151">
        <ele>1036</ele>
        <time>2021-06-01T10:13:31.643Z</time>
      </trkpt>
      <trkpt lat="44.13228" lon="5.87151">
        <ele>1036</ele>
        <time>2021-06-01T10:13:32.643Z</time>
      </trkpt>
      <trkpt lat="44.13228" lon="5.87151">
        <ele>1036</ele>
        <time>2021-06-01T10:13:33.643Z</time>
      </trkpt>
      <trkpt lat="44.13228" lon="5.87151">
        <ele>1036</ele>
        <time>2021-06-01T10:13:34.643Z</time>
      </trkpt>
      <trkpt lat="44.13228" lon="5.87151">
        <ele>1036</ele>
        <time>2021-06-01T10:13:35.643Z</time>
      </trkpt>
      <trkpt lat="44.13228" lon="5.87151">
        <ele>1036</ele>
        <time>2021-06-01T10:13:36.643Z</time>
      </trkpt>
      <trkpt lat="44.13228" lon="5.87151">
        <ele>1036</ele>
        <time>2021-06-01T10:13:37.643Z</time>
      </trkpt>
      <trkpt lat="44.13228" lon="5.87151">
        <ele>1036</ele>
        <time>2021-06-01T10:13:38.643Z</time>
      </trkpt>
      <trkpt lat="44.13228" lon="5.87151">
        <ele>1036</ele>
        <time>2021-06-01T10:13:39.643Z</time>
      </trkpt>
      <trkpt lat="44.13228" lon="5.87151">
        <ele>1036</ele>
        <time>2021-06-01T10:13:40.643Z</time>
      </trkpt>
      <trkpt lat="44.13228" lon="5.87151">
        <ele>1036</ele>
        <time>2021-06-01T10:13:41.643Z</time>
      </trkpt>
      <trkpt lat="44.13228" lon="5.87151">
        <ele>1036</ele>
        <time>2021-06-01T10:13:42.643Z</time>
      </trkpt>
      <trkpt lat="44.13228" lon="5.87151">
        <ele>1036</ele>
        <time>2021-06-01T10:13:43.643Z</time>
      </trkpt>
      <trkpt lat="44.13228" lon="5.87151">
        <ele>1036</ele>
        <time>2021-06-01T10:13:44.643Z</time>
      </trkpt>
      <trkpt lat="44.13228" lon="5.87151">
        <ele>1036</ele>
        <time>2021-06-01T10:13:45.643Z</time>
      </trkpt>
      <trkpt lat="44.13228" lon="5.87151">
        <ele>1036</ele>
        <time>2021-06-01T10:13:46.643Z</time>
      </trkpt>
      <trkpt lat="44.13228" lon="5.87151">
        <ele>1036</ele>
        <time>2021-06-01T10:13:47.643Z</time>
      </trkpt>
      <trkpt lat="44.13228" lon="5.87151">
        <ele>1036</ele>
        <time>2021-06-01T10:13:48.643Z</time>
      </trkpt>
      <trkpt lat="44.13228" lon="5.87151">
        <ele>1036</ele>
        <time>2021-06-01T10:13:49.643Z</time>
      </trkpt>
      <trkpt lat="44.13228" lon="5.87151">
        <ele>1036</ele>
        <time>2021-06-01T10:13:50.643Z</time>
      </trkpt>
      <trkpt lat="44.13228" lon="5.87151">
        <ele>1036</ele>
        <time>2021-06-01T10:13:51.643Z</time>
      </trkpt>
      <trkpt lat="44.13228" lon="5.87151">
        <ele>1036</ele>
        <time>2021-06-01T10:13:52.643Z</time>
      </trkpt>
      <trkpt lat="44.13228" lon="5.87151">
        <ele>1036</ele>
        <time>2021-06-01T10:13:53.643Z</time>
      </trkpt>
      <trkpt lat="44.13228" lon="5.87151">
        <ele>1036</ele>
        <time>2021-06-01T10:13:54.643Z</time>
      </trkpt>
      <trkpt lat="44.13228" lon="5.87151">
        <ele>1036</ele>
        <time>2021-06-01T10:13:55.643Z</time>
      </trkpt>
      <trkpt lat="44.13228" lon="5.8715">
        <ele>1036</ele>
        <time>2021-06-01T10:13:56.643Z</time>
      </trkpt>
      <trkpt lat="44.13228" lon="5.8715">
        <ele>1036</ele>
        <time>2021-06-01T10:13:57.643Z</time>
      </trkpt>
      <trkpt lat="44.13228" lon="5.8715">
        <ele>1036</ele>
        <time>2021-06-01T10:13:58.643Z</time>
      </trkpt>
      <trkpt lat="44.13229" lon="5.8715">
        <ele>1036</ele>
        <time>2021-06-01T10:13:59.643Z</time>
      </trkpt>
      <trkpt lat="44.13229" lon="5.87151">
        <ele>1036</ele>
        <time>2021-06-01T10:14:00.643Z</time>
      </trkpt>
      <trkpt lat="44.13229" lon="5.87151">
        <ele>1036</ele>
        <time>2021-06-01T10:14:01.643Z</time>
      </trkpt>
      <trkpt lat="44.1323" lon="5.87152">
        <ele>1037</ele>
        <time>2021-06-01T10:14:02.643Z</time>
      </trkpt>
      <trkpt lat="44.1323" lon="5.87152">
        <ele>1037</ele>
        <time>2021-06-01T10:14:03.643Z</time>
      </trkpt>
      <trkpt lat="44.13231" lon="5.87153">
        <ele>1037</ele>
        <time>2021-06-01T10:14:04.643Z</time>
      </trkpt>
      <trkpt lat="44.13231" lon="5.87154">
        <ele>1037</ele>
        <time>2021-06-01T10:14:05.643Z</time>
      </trkpt>
      <trkpt lat="44.13231" lon="5.87154">
        <ele>1037</ele>
        <time>2021-06-01T10:14:06.643Z</time>
      </trkpt>
      <trkpt lat="44.13231" lon="5.87155">
        <ele>1037</ele>
        <time>2021-06-01T10:14:07.643Z</time>
      </trkpt>
      <trkpt lat="44.13232" lon="5.87156">
        <ele>1037</ele>
        <time>2021-06-01T10:14:08.643Z</time>
      </trkpt>
      <trkpt lat="44.13233" lon="5.87156">
        <ele>1038</ele>
        <time>2021-06-01T10:14:09.643Z</time>
      </trkpt>
      <trkpt lat="44.13233" lon="5.87157">
        <ele>1038</ele>
        <time>2021-06-01T10:14:10.643Z</time>
      </trkpt>
      <trkpt lat="44.13233" lon="5.87157">
        <ele>1038</ele>
        <time>2021-06-01T10:14:11.643Z</time>
      </trkpt>
      <trkpt lat="44.13234" lon="5.87158">
        <ele>1038</ele>
        <time>2021-06-01T10:14:12.643Z</time>
      </trkpt>
      <trkpt lat="44.13234" lon="5.87159">
        <ele>1038</ele>
        <time>2021-06-01T10:14:13.643Z</time>
      </trkpt>
      <trkpt lat="44.13235" lon="5.87159">
        <ele>1039</ele>
        <time>2021-06-01T10:14:14.643Z</time>
      </trkpt>
      <trkpt lat="44.13235" lon="5.8716">
        <ele>1039</ele>
        <time>2021-06-01T10:14:15.643Z</time>
      </trkpt>
      <trkpt lat="44.13236" lon="5.8716">
        <ele>1039</ele>
        <time>2021-06-01T10:14:16.643Z</time>
      </trkpt>
      <trkpt lat="44.13236" lon="5.87161">
        <ele>1039</ele>
        <time>2021-06-01T10:14:17.643Z</time>
      </trkpt>
      <trkpt lat="44.13237" lon="5.87162">
        <ele>1040</ele>
        <time>2021-06-01T10:14:18.643Z</time>
      </trkpt>
      <trkpt lat="44.13237" lon="5.87162">
        <ele>1040</ele>
        <time>2021-06-01T10:14:19.643Z</time>
      </trkpt>
      <trkpt lat="44.13238" lon="5.87163">
        <ele>1040</ele>
        <time>2021-06-01T10:14:20.643Z</time>
      </trkpt>
      <trkpt lat="44.13238" lon="5.87163">
        <ele>1040</ele>
        <time>2021-06-01T10:14:21.643Z</time>
      </trkpt>
      <trkpt lat="44.13238" lon="5.87163">
        <ele>1041</ele>
        <time>2021-06-01T10:14:22.643Z</time>
      </trkpt>
      <trkpt lat="44.13239" lon="5.87163">
        <ele>1041</ele>
        <time>2021-06-01T10:14:23.643Z</time>
      </trkpt>
      <trkpt lat="44.13239" lon="5.87163">
        <ele>1041</ele>
        <time>2021-06-01T10:14:24.643Z</time>
      </trkpt>
      <trkpt lat="44.13239" lon="5.87164">
        <ele>1042</ele>
        <time>2021-06-01T10:14:25.643Z</time>
      </trkpt>
      <trkpt lat="44.1324" lon="5.87164">
        <ele>1042</ele>
        <time>2021-06-01T10:14:26.643Z</time>
      </trkpt>
      <trkpt lat="44.1324" lon="5.87164">
        <ele>1042</ele>
        <time>2021-06-01T10:14:27.643Z</time>
      </trkpt>
      <trkpt lat="44.13241" lon="5.87164">
        <ele>1042</ele>
        <time>2021-06-01T10:14:28.643Z</time>
      </trkpt>
      <trkpt lat="44.13241" lon="5.87164">
        <ele>1042</ele>
        <time>2021-06-01T10:14:29.643Z</time>
      </trkpt>
      <trkpt lat="44.13242" lon="5.87164">
        <ele>1042</ele>
        <time>2021-06-01T10:14:30.643Z</time>
      </trkpt>
      <trkpt lat="44.13242" lon="5.87163">
        <ele>1042</ele>
        <time>2021-06-01T10:14:31.643Z</time>
      </trkpt>
      <trkpt lat="44.13243" lon="5.87164">
        <ele>1042</ele>
        <time>2021-06-01T10:14:32.643Z</time>
      </trkpt>
      <trkpt lat="44.13243" lon="5.87163">
        <ele>1042</ele>
        <time>2021-06-01T10:14:33.643Z</time>
      </trkpt>
      <trkpt lat="44.13243" lon="5.87164">
        <ele>1043</ele>
        <time>2021-06-01T10:14:34.643Z</time>
      </trkpt>
      <trkpt lat="44.13244" lon="5.87164">
        <ele>1043</ele>
        <time>2021-06-01T10:14:35.643Z</time>
      </trkpt>
      <trkpt lat="44.13245" lon="5.87164">
        <ele>1043</ele>
        <time>2021-06-01T10:14:36.643Z</time>
      </trkpt>
      <trkpt lat="44.13245" lon="5.87164">
        <ele>1043</ele>
        <time>2021-06-01T10:14:37.643Z</time>
      </trkpt>
      <trkpt lat="44.13246" lon="5.87164">
        <ele>1043</ele>
        <time>2021-06-01T10:14:38.643Z</time>
      </trkpt>
      <trkpt lat="44.13247" lon="5.87164">
        <ele>1043</ele>
        <time>2021-06-01T10:14:39.643Z</time>
      </trkpt>
      <trkpt lat="44.13247" lon="5.87164">
        <ele>1043</ele>
        <time>2021-06-01T10:14:40.643Z</time>
      </trkpt>
      <trkpt lat="44.13248" lon="5.87164">
        <ele>1043</ele>
        <time>2021-06-01T10:14:41.643Z</time>
      </trkpt>
      <trkpt lat="44.13248" lon="5.87164">
        <ele>1043</ele>
        <time>2021-06-01T10:14:42.643Z</time>
      </trkpt>
      <trkpt lat="44.13249" lon="5.87164">
        <ele>1043</ele>
        <time>2021-06-01T10:14:43.643Z</time>
      </trkpt>
      <trkpt lat="44.13249" lon="5.87163">
        <ele>1043</ele>
        <time>2021-06-01T10:14:44.643Z</time>
      </trkpt>
      <trkpt lat="44.13249" lon="5.87163">
        <ele>1043</ele>
        <time>2021-06-01T10:14:45.643Z</time>
      </trkpt>
      <trkpt lat="44.1325" lon="5.87163">
        <ele>1043</ele>
        <time>2021-06-01T10:14:46.643Z</time>
      </trkpt>
      <trkpt lat="44.1325" lon="5.87162">
        <ele>1043</ele>
        <time>2021-06-01T10:14:47.643Z</time>
      </trkpt>
      <trkpt lat="44.1325" lon="5.87162">
        <ele>1043</ele>
        <time>2021-06-01T10:14:48.643Z</time>
      </trkpt>
      <trkpt lat="44.13251" lon="5.87161">
        <ele>1043</ele>
        <time>2021-06-01T10:14:49.643Z</time>
      </trkpt>
      <trkpt lat="44.13251" lon="5.87161">
        <ele>1043</ele>
        <time>2021-06-01T10:14:50.643Z</time>
      </trkpt>
      <trkpt lat="44.13251" lon="5.8716">
        <ele>1043</ele>
        <time>2021-06-01T10:14:51.643Z</time>
      </trkpt>
      <trkpt lat="44.13251" lon="5.87159">
        <ele>1043</ele>
        <time>2021-06-01T10:14:52.643Z</time>
      </trkpt>
      <trkpt lat="44.13251" lon="5.87158">
        <ele>1043</ele>
        <time>2021-06-01T10:14:53.643Z</time>
      </trkpt>
      <trkpt lat="44.13252" lon="5.87158">
        <ele>1043</ele>
        <time>2021-06-01T10:14:54.643Z</time>
      </trkpt>
      <trkpt lat="44.13252" lon="5.87157">
        <ele>1043</ele>
        <time>2021-06-01T10:14:55.643Z</time>
      </trkpt>
      <trkpt lat="44.13253" lon="5.87157">
        <ele>1043</ele>
        <time>2021-06-01T10:14:56.643Z</time>
      </trkpt>
      <trkpt lat="44.13253" lon="5.87157">
        <ele>1044</ele>
        <time>2021-06-01T10:14:57.643Z</time>
      </trkpt>
      <trkpt lat="44.13254" lon="5.87157">
        <ele>1044</ele>
        <time>2021-06-01T10:14:58.643Z</time>
      </trkpt>
      <trkpt lat="44.13255" lon="5.87156">
        <ele>1044</ele>
        <time>2021-06-01T10:14:59.643Z</time>
      </trkpt>
      <trkpt lat="44.13255" lon="5.87156">
        <ele>1044</ele>
        <time>2021-06-01T10:15:00.643Z</time>
      </trkpt>
      <trkpt lat="44.13256" lon="5.87156">
        <ele>1044</ele>
        <time>2021-06-01T10:15:01.643Z</time>
      </trkpt>
      <trkpt lat="44.13256" lon="5.87156">
        <ele>1044</ele>
        <time>2021-06-01T10:15:02.643Z</time>
      </trkpt>
      <trkpt lat="44.13256" lon="5.87155">
        <ele>1044</ele>
        <time>2021-06-01T10:15:03.643Z</time>
      </trkpt>
      <trkpt lat="44.13257" lon="5.87155">
        <ele>1044</ele>
        <time>2021-06-01T10:15:04.643Z</time>
      </trkpt>
      <trkpt lat="44.13257" lon="5.87155">
        <ele>1045</ele>
        <time>2021-06-01T10:15:05.643Z</time>
      </trkpt>
      <trkpt lat="44.13258" lon="5.87154">
        <ele>1045</ele>
        <time>2021-06-01T10:15:06.643Z</time>
      </trkpt>
      <trkpt lat="44.13258" lon="5.87154">
        <ele>1045</ele>
        <time>2021-06-01T10:15:07.643Z</time>
      </trkpt>
      <trkpt lat="44.13259" lon="5.87154">
        <ele>1045</ele>
        <time>2021-06-01T10:15:08.643Z</time>
      </trkpt>
      <trkpt lat="44.1326" lon="5.87153">
        <ele>1045</ele>
        <time>2021-06-01T10:15:09.643Z</time>
      </trkpt>
      <trkpt lat="44.1326" lon="5.87153">
        <ele>1045</ele>
        <time>2021-06-01T10:15:10.643Z</time>
      </trkpt>
      <trkpt lat="44.13261" lon="5.87152">
        <ele>1045</ele>
        <time>2021-06-01T10:15:11.643Z</time>
      </trkpt>
      <trkpt lat="44.13261" lon="5.87152">
        <ele>1045</ele>
        <time>2021-06-01T10:15:12.643Z</time>
      </trkpt>
      <trkpt lat="44.13262" lon="5.87151">
        <ele>1045</ele>
        <time>2021-06-01T10:15:13.643Z</time>
      </trkpt>
      <trkpt lat="44.13262" lon="5.87151">
        <ele>1045</ele>
        <time>2021-06-01T10:15:14.643Z</time>
      </trkpt>
      <trkpt lat="44.13263" lon="5.8715">
        <ele>1046</ele>
        <time>2021-06-01T10:15:15.643Z</time>
      </trkpt>
      <trkpt lat="44.13263" lon="5.87149">
        <ele>1046</ele>
        <time>2021-06-01T10:15:16.643Z</time>
      </trkpt>
      <trkpt lat="44.13264" lon="5.87148">
        <ele>1046</ele>
        <time>2021-06-01T10:15:17.643Z</time>
      </trkpt>
      <trkpt lat="44.13264" lon="5.87148">
        <ele>1046</ele>
        <time>2021-06-01T10:15:18.643Z</time>
      </trkpt>
      <trkpt lat="44.13265" lon="5.87147">
        <ele>1046</ele>
        <time>2021-06-01T10:15:19.643Z</time>
      </trkpt>
      <trkpt lat="44.13265" lon="5.87146">
        <ele>1046</ele>
        <time>2021-06-01T10:15:20.643Z</time>
      </trkpt>
      <trkpt lat="44.13266" lon="5.87145">
        <ele>1046</ele>
        <time>2021-06-01T10:15:21.643Z</time>
      </trkpt>
      <trkpt lat="44.13266" lon="5.87145">
        <ele>1046</ele>
        <time>2021-06-01T10:15:22.643Z</time>
      </trkpt>
      <trkpt lat="44.13266" lon="5.87145">
        <ele>1046</ele>
        <time>2021-06-01T10:15:23.643Z</time>
      </trkpt>
      <trkpt lat="44.13266" lon="5.87145">
        <ele>1046</ele>
        <time>2021-06-01T10:15:24.643Z</time>
      </trkpt>
      <trkpt lat="44.13267" lon="5.87145">
        <ele>1046</ele>
        <time>2021-06-01T10:15:25.643Z</time>
      </trkpt>
      <trkpt lat="44.13267" lon="5.87145">
        <ele>1047</ele>
        <time>2021-06-01T10:15:26.643Z</time>
      </trkpt>
      <trkpt lat="44.13267" lon="5.87145">
        <ele>1047</ele>
        <time>2021-06-01T10:15:27.643Z</time>
      </trkpt>
      <trkpt lat="44.13267" lon="5.87145">
        <ele>1047</ele>
        <time>2021-06-01T10:15:28.643Z</time>
      </trkpt>
      <trkpt lat="44.13267" lon="5.87145">
        <ele>1048</ele>
        <time>2021-06-01T10:15:29.643Z</time>
      </trkpt>
      <trkpt lat="44.13267" lon="5.87145">
        <ele>1048</ele>
        <time>2021-06-01T10:15:30.643Z</time>
      </trkpt>
      <trkpt lat="44.13267" lon="5.87145">
        <ele>1048</ele>
        <time>2021-06-01T10:15:31.643Z</time>
      </trkpt>
      <trkpt lat="44.13267" lon="5.87145">
        <ele>1048</ele>
        <time>2021-06-01T10:15:32.643Z</time>
      </trkpt>
      <trkpt lat="44.13267" lon="5.87145">
        <ele>1049</ele>
        <time>2021-06-01T10:15:33.643Z</time>
      </trkpt>
      <trkpt lat="44.13268" lon="5.87145">
        <ele>1049</ele>
        <time>2021-06-01T10:15:34.643Z</time>
      </trkpt>
      <trkpt lat="44.13268" lon="5.87145">
        <ele>1049</ele>
        <time>2021-06-01T10:15:35.643Z</time>
      </trkpt>
      <trkpt lat="44.13268" lon="5.87146">
        <ele>1049</ele>
        <time>2021-06-01T10:15:36.643Z</time>
      </trkpt>
      <trkpt lat="44.13268" lon="5.87146">
        <ele>1049</ele>
        <time>2021-06-01T10:15:37.643Z</time>
      </trkpt>
      <trkpt lat="44.13268" lon="5.87146">
        <ele>1050</ele>
        <time>2021-06-01T10:15:38.643Z</time>
      </trkpt>
      <trkpt lat="44.13268" lon="5.87145">
        <ele>1050</ele>
        <time>2021-06-01T10:15:39.643Z</time>
      </trkpt>
      <trkpt lat="44.13268" lon="5.87145">
        <ele>1050</ele>
        <time>2021-06-01T10:15:40.643Z</time>
      </trkpt>
      <trkpt lat="44.13269" lon="5.87145">
        <ele>1050</ele>
        <time>2021-06-01T10:15:41.643Z</time>
      </trkpt>
      <trkpt lat="44.13269" lon="5.87145">
        <ele>1050</ele>
        <time>2021-06-01T10:15:42.643Z</time>
      </trkpt>
      <trkpt lat="44.13269" lon="5.87145">
        <ele>1050</ele>
        <time>2021-06-01T10:15:43.643Z</time>
      </trkpt>
      <trkpt lat="44.13269" lon="5.87145">
        <ele>1050</ele>
        <time>2021-06-01T10:15:44.643Z</time>
      </trkpt>
      <trkpt lat="44.13269" lon="5.87146">
        <ele>1050</ele>
        <time>2021-06-01T10:15:45.643Z</time>
      </trkpt>
      <trkpt lat="44.13269" lon="5.87146">
        <ele>1051</ele>
        <time>2021-06-01T10:15:46.643Z</time>
      </trkpt>
      <trkpt lat="44.13269" lon="5.87146">
        <ele>1051</ele>
        <time>2021-06-01T10:15:47.643Z</time>
      </trkpt>
      <trkpt lat="44.13269" lon="5.87146">
        <ele>1051</ele>
        <time>2021-06-01T10:15:48.643Z</time>
      </trkpt>
      <trkpt lat="44.1327" lon="5.87146">
        <ele>1051</ele>
        <time>2021-06-01T10:15:49.643Z</time>
      </trkpt>
      <trkpt lat="44.1327" lon="5.87146">
        <ele>1051</ele>
        <time>2021-06-01T10:15:50.643Z</time>
      </trkpt>
      <trkpt lat="44.1327" lon="5.87146">
        <ele>1051</ele>
        <time>2021-06-01T10:15:51.643Z</time>
      </trkpt>
      <trkpt lat="44.1327" lon="5.87146">
        <ele>1051</ele>
        <time>2021-06-01T10:15:52.643Z</time>
      </trkpt>
      <trkpt lat="44.1327" lon="5.87146">
        <ele>1051</ele>
        <time>2021-06-01T10:15:53.643Z</time>
      </trkpt>
      <trkpt lat="44.1327" lon="5.87146">
        <ele>1051</ele>
        <time>2021-06-01T10:15:54.643Z</time>
      </trkpt>
      <trkpt lat="44.1327" lon="5.87146">
        <ele>1051</ele>
        <time>2021-06-01T10:15:55.643Z</time>
      </trkpt>
      <trkpt lat="44.1327" lon="5.87146">
        <ele>1051</ele>
        <time>2021-06-01T10:15:56.643Z</time>
      </trkpt>
      <trkpt lat="44.1327" lon="5.87146">
        <ele>1051</ele>
        <time>2021-06-01T10:15:57.643Z</time>
      </trkpt>
      <trkpt lat="44.1327" lon="5.87146">
        <ele>1052</ele>
        <time>2021-06-01T10:15:58.643Z</time>
      </trkpt>
      <trkpt lat="44.1327" lon="5.87146">
        <ele>1052</ele>
        <time>2021-06-01T10:15:59.643Z</time>
      </trkpt>
      <trkpt lat="44.1327" lon="5.87146">
        <ele>1052</ele>
        <time>2021-06-01T10:16:00.643Z</time>
      </trkpt>
      <trkpt lat="44.1327" lon="5.87146">
        <ele>1052</ele>
        <time>2021-06-01T10:16:01.643Z</time>
      </trkpt>
      <trkpt lat="44.1327" lon="5.87146">
        <ele>1052</ele>
        <time>2021-06-01T10:16:02.643Z</time>
      </trkpt>
      <trkpt lat="44.1327" lon="5.87146">
        <ele>1052</ele>
        <time>2021-06-01T10:16:03.643Z</time>
      </trkpt>
      <trkpt lat="44.1327" lon="5.87146">
        <ele>1052</ele>
        <time>2021-06-01T10:16:04.643Z</time>
      </trkpt>
      <trkpt lat="44.1327" lon="5.87146">
        <ele>1053</ele>
        <time>2021-06-01T10:16:05.643Z</time>
      </trkpt>
      <trkpt lat="44.1327" lon="5.87145">
        <ele>1053</ele>
        <time>2021-06-01T10:16:06.643Z</time>
      </trkpt>
      <trkpt lat="44.13271" lon="5.87145">
        <ele>1053</ele>
        <time>2021-06-01T10:16:07.643Z</time>
      </trkpt>
      <trkpt lat="44.13271" lon="5.87145">
        <ele>1053</ele>
        <time>2021-06-01T10:16:08.643Z</time>
      </trkpt>
      <trkpt lat="44.13271" lon="5.87145">
        <ele>1053</ele>
        <time>2021-06-01T10:16:09.643Z</time>
      </trkpt>
      <trkpt lat="44.13271" lon="5.87145">
        <ele>1053</ele>
        <time>2021-06-01T10:16:10.643Z</time>
      </trkpt>
      <trkpt lat="44.13271" lon="5.87145">
        <ele>1053</ele>
        <time>2021-06-01T10:16:11.643Z</time>
      </trkpt>
      <trkpt lat="44.13271" lon="5.87145">
        <ele>1053</ele>
        <time>2021-06-01T10:16:12.643Z</time>
      </trkpt>
      <trkpt lat="44.13271" lon="5.87145">
        <ele>1053</ele>
        <time>2021-06-01T10:16:13.643Z</time>
      </trkpt>
      <trkpt lat="44.13271" lon="5.87145">
        <ele>1053</ele>
        <time>2021-06-01T10:16:14.643Z</time>
      </trkpt>
      <trkpt lat="44.13271" lon="5.87144">
        <ele>1054</ele>
        <time>2021-06-01T10:16:15.643Z</time>
      </trkpt>
      <trkpt lat="44.13271" lon="5.87144">
        <ele>1054</ele>
        <time>2021-06-01T10:16:16.643Z</time>
      </trkpt>
      <trkpt lat="44.13271" lon="5.87145">
        <ele>1054</ele>
        <time>2021-06-01T10:16:17.643Z</time>
      </trkpt>
      <trkpt lat="44.13271" lon="5.87145">
        <ele>1054</ele>
        <time>2021-06-01T10:16:18.643Z</time>
      </trkpt>
      <trkpt lat="44.13271" lon="5.87144">
        <ele>1054</ele>
        <time>2021-06-01T10:16:19.643Z</time>
      </trkpt>
      <trkpt lat="44.13271" lon="5.87144">
        <ele>1054</ele>
        <time>2021-06-01T10:16:20.643Z</time>
      </trkpt>
      <trkpt lat="44.13271" lon="5.87144">
        <ele>1054</ele>
        <time>2021-06-01T10:16:21.643Z</time>
      </trkpt>
      <trkpt lat="44.13271" lon="5.87144">
        <ele>1054</ele>
        <time>2021-06-01T10:16:22.643Z</time>
      </trkpt>
      <trkpt lat="44.13271" lon="5.87144">
        <ele>1054</ele>
        <time>2021-06-01T10:16:23.643Z</time>
      </trkpt>
      <trkpt lat="44.13271" lon="5.87144">
        <ele>1054</ele>
        <time>2021-06-01T10:16:24.643Z</time>
      </trkpt>
      <trkpt lat="44.13271" lon="5.87143">
        <ele>1054</ele>
        <time>2021-06-01T10:16:25.643Z</time>
      </trkpt>
      <trkpt lat="44.13271" lon="5.87143">
        <ele>1055</ele>
        <time>2021-06-01T10:16:26.643Z</time>
      </trkpt>
      <trkpt lat="44.13271" lon="5.87143">
        <ele>1055</ele>
        <time>2021-06-01T10:16:27.643Z</time>
      </trkpt>
      <trkpt lat="44.13272" lon="5.87143">
        <ele>1055</ele>
        <time>2021-06-01T10:16:28.643Z</time>
      </trkpt>
      <trkpt lat="44.13272" lon="5.87143">
        <ele>1055</ele>
        <time>2021-06-01T10:16:29.643Z</time>
      </trkpt>
      <trkpt lat="44.13272" lon="5.87143">
        <ele>1055</ele>
        <time>2021-06-01T10:16:30.643Z</time>
      </trkpt>
      <trkpt lat="44.13272" lon="5.87142">
        <ele>1055</ele>
        <time>2021-06-01T10:16:31.643Z</time>
      </trkpt>
      <trkpt lat="44.13272" lon="5.87142">
        <ele>1055</ele>
        <time>2021-06-01T10:16:32.643Z</time>
      </trkpt>
      <trkpt lat="44.13272" lon="5.87142">
        <ele>1055</ele>
        <time>2021-06-01T10:16:33.643Z</time>
      </trkpt>
      <trkpt lat="44.13272" lon="5.87142">
        <ele>1055</ele>
        <time>2021-06-01T10:16:34.643Z</time>
      </trkpt>
      <trkpt lat="44.13272" lon="5.87142">
        <ele>1055</ele>
        <time>2021-06-01T10:16:35.643Z</time>
      </trkpt>
      <trkpt lat="44.13272" lon="5.87142">
        <ele>1055</ele>
        <time>2021-06-01T10:16:36.643Z</time>
      </trkpt>
      <trkpt lat="44.13272" lon="5.87142">
        <ele>1055</ele>
        <time>2021-06-01T10:16:37.643Z</time>
      </trkpt>
      <trkpt lat="44.13272" lon="5.87142">
        <ele>1055</ele>
        <time>2021-06-01T10:16:38.643Z</time>
      </trkpt>
      <trkpt lat="44.13272" lon="5.87142">
        <ele>1055</ele>
        <time>2021-06-01T10:16:39.643Z</time>
      </trkpt>
      <trkpt lat="44.13272" lon="5.87142">
        <ele>1055</ele>
        <time>2021-06-01T10:16:40.643Z</time>
      </trkpt>
      <trkpt lat="44.13272" lon="5.87142">
        <ele>1055</ele>
        <time>2021-06-01T10:16:41.643Z</time>
      </trkpt>
      <trkpt lat="44.13272" lon="5.87142">
        <ele>1056</ele>
        <time>2021-06-01T10:16:42.643Z</time>
      </trkpt>
      <trkpt lat="44.13272" lon="5.87142">
        <ele>1056</ele>
        <time>2021-06-01T10:16:43.643Z</time>
      </trkpt>
      <trkpt lat="44.13272" lon="5.87142">
        <ele>1056</ele>
        <time>2021-06-01T10:16:44.643Z</time>
      </trkpt>
      <trkpt lat="44.13272" lon="5.87142">
        <ele>1056</ele>
        <time>2021-06-01T10:16:45.643Z</time>
      </trkpt>
      <trkpt lat="44.13272" lon="5.87142">
        <ele>1056</ele>
        <time>2021-06-01T10:16:46.643Z</time>
      </trkpt>
      <trkpt lat="44.13272" lon="5.87142">
        <ele>1056</ele>
        <time>2021-06-01T10:16:47.643Z</time>
      </trkpt>
      <trkpt lat="44.13273" lon="5.87142">
        <ele>1056</ele>
        <time>2021-06-01T10:16:48.643Z</time>
      </trkpt>
      <trkpt lat="44.13273" lon="5.87141">
        <ele>1056</ele>
        <time>2021-06-01T10:16:49.643Z</time>
      </trkpt>
      <trkpt lat="44.13273" lon="5.87141">
        <ele>1056</ele>
        <time>2021-06-01T10:16:50.643Z</time>
      </trkpt>
      <trkpt lat="44.13273" lon="5.8714">
        <ele>1056</ele>
        <time>2021-06-01T10:16:51.643Z</time>
      </trkpt>
      <trkpt lat="44.13273" lon="5.8714">
        <ele>1056</ele>
        <time>2021-06-01T10:16:52.643Z</time>
      </trkpt>
      <trkpt lat="44.13273" lon="5.87139">
        <ele>1056</ele>
        <time>2021-06-01T10:16:53.643Z</time>
      </trkpt>
      <trkpt lat="44.13273" lon="5.87138">
        <ele>1056</ele>
        <time>2021-06-01T10:16:54.643Z</time>
      </trkpt>
      <trkpt lat="44.13274" lon="5.87137">
        <ele>1055</ele>
        <time>2021-06-01T10:16:55.643Z</time>
      </trkpt>
      <trkpt lat="44.13274" lon="5.87136">
        <ele>1055</ele>
        <time>2021-06-01T10:16:56.643Z</time>
      </trkpt>
      <trkpt lat="44.13274" lon="5.87135">
        <ele>1055</ele>
        <time>2021-06-01T10:16:57.643Z</time>
      </trkpt>
      <trkpt lat="44.13274" lon="5.87134">
        <ele>1055</ele>
        <time>2021-06-01T10:16:58.643Z</time>
      </trkpt>
      <trkpt lat="44.13274" lon="5.87133">
        <ele>1055</ele>
        <time>2021-06-01T10:16:59.643Z</time>
      </trkpt>
      <trkpt lat="44.13275" lon="5.87133">
        <ele>1055</ele>
        <time>2021-06-01T10:17:00.643Z</time>
      </trkpt>
      <trkpt lat="44.13275" lon="5.87132">
        <ele>1055</ele>
        <time>2021-06-01T10:17:01.643Z</time>
      </trkpt>
      <trkpt lat="44.13275" lon="5.87131">
        <ele>1055</ele>
        <time>2021-06-01T10:17:02.643Z</time>
      </trkpt>
      <trkpt lat="44.13276" lon="5.8713">
        <ele>1055</ele>
        <time>2021-06-01T10:17:03.643Z</time>
      </trkpt>
      <trkpt lat="44.13276" lon="5.87129">
        <ele>1055</ele>
        <time>2021-06-01T10:17:04.643Z</time>
      </trkpt>
      <trkpt lat="44.13276" lon="5.87128">
        <ele>1055</ele>
        <time>2021-06-01T10:17:05.643Z</time>
      </trkpt>
      <trkpt lat="44.13276" lon="5.87127">
        <ele>1055</ele>
        <time>2021-06-01T10:17:06.643Z</time>
      </trkpt>
      <trkpt lat="44.13276" lon="5.87125">
        <ele>1055</ele>
        <time>2021-06-01T10:17:07.643Z</time>
      </trkpt>
      <trkpt lat="44.13276" lon="5.87124">
        <ele>1055</ele>
        <time>2021-06-01T10:17:08.643Z</time>
      </trkpt>
      <trkpt lat="44.13276" lon="5.87122">
        <ele>1055</ele>
        <time>2021-06-01T10:17:09.643Z</time>
      </trkpt>
      <trkpt lat="44.13276" lon="5.87121">
        <ele>1055</ele>
        <time>2021-06-01T10:17:10.643Z</time>
      </trkpt>
      <trkpt lat="44.13277" lon="5.87119">
        <ele>1055</ele>
        <time>2021-06-01T10:17:11.643Z</time>
      </trkpt>
      <trkpt lat="44.13277" lon="5.87118">
        <ele>1055</ele>
        <time>2021-06-01T10:17:12.643Z</time>
      </trkpt>
      <trkpt lat="44.13277" lon="5.87117">
        <ele>1055</ele>
        <time>2021-06-01T10:17:13.643Z</time>
      </trkpt>
      <trkpt lat="44.13277" lon="5.87116">
        <ele>1055</ele>
        <time>2021-06-01T10:17:14.643Z</time>
      </trkpt>
      <trkpt lat="44.13278" lon="5.87115">
        <ele>1055</ele>
        <time>2021-06-01T10:17:15.643Z</time>
      </trkpt>
      <trkpt lat="44.13278" lon="5.87114">
        <ele>1055</ele>
        <time>2021-06-01T10:17:16.643Z</time>
      </trkpt>
      <trkpt lat="44.13279" lon="5.87113">
        <ele>1055</ele>
        <time>2021-06-01T10:17:17.643Z</time>
      </trkpt>
      <trkpt lat="44.13279" lon="5.87112">
        <ele>1055</ele>
        <time>2021-06-01T10:17:18.643Z</time>
      </trkpt>
      <trkpt lat="44.13279" lon="5.87111">
        <ele>1055</ele>
        <time>2021-06-01T10:17:19.643Z</time>
      </trkpt>
      <trkpt lat="44.1328" lon="5.8711">
        <ele>1055</ele>
        <time>2021-06-01T10:17:20.643Z</time>
      </trkpt>
      <trkpt lat="44.1328" lon="5.87109">
        <ele>1055</ele>
        <time>2021-06-01T10:17:21.643Z</time>
      </trkpt>
      <trkpt lat="44.13281" lon="5.87109">
        <ele>1055</ele>
        <time>2021-06-01T10:17:22.643Z</time>
      </trkpt>
      <trkpt lat="44.13281" lon="5.87108">
        <ele>1055</ele>
        <time>2021-06-01T10:17:23.643Z</time>
      </trkpt>
      <trkpt lat="44.13282" lon="5.87108">
        <ele>1055</ele>
        <time>2021-06-01T10:17:24.643Z</time>
      </trkpt>
      <trkpt lat="44.13282" lon="5.87107">
        <ele>1055</ele>
        <time>2021-06-01T10:17:25.643Z</time>
      </trkpt>
      <trkpt lat="44.13283" lon="5.87107">
        <ele>1055</ele>
        <time>2021-06-01T10:17:26.643Z</time>
      </trkpt>
      <trkpt lat="44.13284" lon="5.87106">
        <ele>1055</ele>
        <time>2021-06-01T10:17:27.643Z</time>
      </trkpt>
      <trkpt lat="44.13284" lon="5.87105">
        <ele>1055</ele>
        <time>2021-06-01T10:17:28.643Z</time>
      </trkpt>
      <trkpt lat="44.13285" lon="5.87105">
        <ele>1055</ele>
        <time>2021-06-01T10:17:29.643Z</time>
      </trkpt>
      <trkpt lat="44.13285" lon="5.87104">
        <ele>1055</ele>
        <time>2021-06-01T10:17:30.643Z</time>
      </trkpt>
      <trkpt lat="44.13286" lon="5.87103">
        <ele>1055</ele>
        <time>2021-06-01T10:17:31.643Z</time>
      </trkpt>
      <trkpt lat="44.13286" lon="5.87102">
        <ele>1055</ele>
        <time>2021-06-01T10:17:32.643Z</time>
      </trkpt>
      <trkpt lat="44.13287" lon="5.87101">
        <ele>1055</ele>
        <time>2021-06-01T10:17:33.643Z</time>
      </trkpt>
      <trkpt lat="44.13287" lon="5.871">
        <ele>1056</ele>
        <time>2021-06-01T10:17:34.643Z</time>
      </trkpt>
      <trkpt lat="44.13287" lon="5.871">
        <ele>1056</ele>
        <time>2021-06-01T10:17:35.643Z</time>
      </trkpt>
      <trkpt lat="44.13288" lon="5.87099">
        <ele>1056</ele>
        <time>2021-06-01T10:17:36.643Z</time>
      </trkpt>
      <trkpt lat="44.13288" lon="5.87099">
        <ele>1056</ele>
        <time>2021-06-01T10:17:37.643Z</time>
      </trkpt>
      <trkpt lat="44.13289" lon="5.87098">
        <ele>1056</ele>
        <time>2021-06-01T10:17:38.643Z</time>
      </trkpt>
      <trkpt lat="44.13289" lon="5.87098">
        <ele>1056</ele>
        <time>2021-06-01T10:17:39.643Z</time>
      </trkpt>
      <trkpt lat="44.13289" lon="5.87097">
        <ele>1056</ele>
        <time>2021-06-01T10:17:40.643Z</time>
      </trkpt>
      <trkpt lat="44.1329" lon="5.87096">
        <ele>1056</ele>
        <time>2021-06-01T10:17:41.643Z</time>
      </trkpt>
      <trkpt lat="44.1329" lon="5.87096">
        <ele>1056</ele>
        <time>2021-06-01T10:17:42.643Z</time>
      </trkpt>
      <trkpt lat="44.13291" lon="5.87095">
        <ele>1056</ele>
        <time>2021-06-01T10:17:43.643Z</time>
      </trkpt>
      <trkpt lat="44.13292" lon="5.87094">
        <ele>1056</ele>
        <time>2021-06-01T10:17:44.643Z</time>
      </trkpt>
      <trkpt lat="44.13292" lon="5.87094">
        <ele>1056</ele>
        <time>2021-06-01T10:17:45.643Z</time>
      </trkpt>
      <trkpt lat="44.13293" lon="5.87093">
        <ele>1056</ele>
        <time>2021-06-01T10:17:46.643Z</time>
      </trkpt>
      <trkpt lat="44.13293" lon="5.87093">
        <ele>1056</ele>
        <time>2021-06-01T10:17:47.643Z</time>
      </trkpt>
      <trkpt lat="44.13293" lon="5.87093">
        <ele>1056</ele>
        <time>2021-06-01T10:17:48.643Z</time>
      </trkpt>
      <trkpt lat="44.13293" lon="5.87093">
        <ele>1057</ele>
        <time>2021-06-01T10:17:49.643Z</time>
      </trkpt>
      <trkpt lat="44.13293" lon="5.87093">
        <ele>1057</ele>
        <time>2021-06-01T10:17:50.643Z</time>
      </trkpt>
      <trkpt lat="44.13293" lon="5.87093">
        <ele>1057</ele>
        <time>2021-06-01T10:17:51.643Z</time>
      </trkpt>
      <trkpt lat="44.13294" lon="5.87092">
        <ele>1057</ele>
        <time>2021-06-01T10:17:52.643Z</time>
      </trkpt>
      <trkpt lat="44.13294" lon="5.87092">
        <ele>1057</ele>
        <time>2021-06-01T10:17:53.643Z</time>
      </trkpt>
      <trkpt lat="44.13294" lon="5.87092">
        <ele>1057</ele>
        <time>2021-06-01T10:17:54.643Z</time>
      </trkpt>
      <trkpt lat="44.13294" lon="5.87092">
        <ele>1057</ele>
        <time>2021-06-01T10:17:55.643Z</time>
      </trkpt>
      <trkpt lat="44.13294" lon="5.87092">
        <ele>1057</ele>
        <time>2021-06-01T10:17:56.643Z</time>
      </trkpt>
      <trkpt lat="44.13294" lon="5.87091">
        <ele>1057</ele>
        <time>2021-06-01T10:17:57.643Z</time>
      </trkpt>
      <trkpt lat="44.13294" lon="5.87091">
        <ele>1057</ele>
        <time>2021-06-01T10:17:58.643Z</time>
      </trkpt>
      <trkpt lat="44.13294" lon="5.87091">
        <ele>1057</ele>
        <time>2021-06-01T10:17:59.643Z</time>
      </trkpt>
      <trkpt lat="44.13295" lon="5.87091">
        <ele>1057</ele>
        <time>2021-06-01T10:18:00.643Z</time>
      </trkpt>
      <trkpt lat="44.13295" lon="5.87091">
        <ele>1057</ele>
        <time>2021-06-01T10:18:01.643Z</time>
      </trkpt>
      <trkpt lat="44.13295" lon="5.87091">
        <ele>1057</ele>
        <time>2021-06-01T10:18:02.643Z</time>
      </trkpt>
      <trkpt lat="44.13295" lon="5.8709">
        <ele>1057</ele>
        <time>2021-06-01T10:18:03.643Z</time>
      </trkpt>
      <trkpt lat="44.13295" lon="5.8709">
        <ele>1057</ele>
        <time>2021-06-01T10:18:04.643Z</time>
      </trkpt>
      <trkpt lat="44.13295" lon="5.8709">
        <ele>1057</ele>
        <time>2021-06-01T10:18:05.643Z</time>
      </trkpt>
      <trkpt lat="44.13295" lon="5.8709">
        <ele>1058</ele>
        <time>2021-06-01T10:18:06.643Z</time>
      </trkpt>
      <trkpt lat="44.13295" lon="5.8709">
        <ele>1058</ele>
        <time>2021-06-01T10:18:07.643Z</time>
      </trkpt>
      <trkpt lat="44.13295" lon="5.8709">
        <ele>1058</ele>
        <time>2021-06-01T10:18:08.643Z</time>
      </trkpt>
      <trkpt lat="44.13295" lon="5.87089">
        <ele>1058</ele>
        <time>2021-06-01T10:18:09.643Z</time>
      </trkpt>
      <trkpt lat="44.13295" lon="5.87089">
        <ele>1058</ele>
        <time>2021-06-01T10:18:10.643Z</time>
      </trkpt>
      <trkpt lat="44.13295" lon="5.87089">
        <ele>1059</ele>
        <time>2021-06-01T10:18:11.643Z</time>
      </trkpt>
      <trkpt lat="44.13295" lon="5.87089">
        <ele>1059</ele>
        <time>2021-06-01T10:18:12.643Z</time>
      </trkpt>
      <trkpt lat="44.13295" lon="5.87089">
        <ele>1059</ele>
        <time>2021-06-01T10:18:13.643Z</time>
      </trkpt>
      <trkpt lat="44.13295" lon="5.87089">
        <ele>1059</ele>
        <time>2021-06-01T10:18:14.643Z</time>
      </trkpt>
      <trkpt lat="44.13296" lon="5.87089">
        <ele>1059</ele>
        <time>2021-06-01T10:18:15.643Z</time>
      </trkpt>
      <trkpt lat="44.13296" lon="5.87089">
        <ele>1059</ele>
        <time>2021-06-01T10:18:16.643Z</time>
      </trkpt>
      <trkpt lat="44.13296" lon="5.87089">
        <ele>1059</ele>
        <time>2021-06-01T10:18:17.643Z</time>
      </trkpt>
      <trkpt lat="44.13296" lon="5.87089">
        <ele>1059</ele>
        <time>2021-06-01T10:18:18.643Z</time>
      </trkpt>
      <trkpt lat="44.13296" lon="5.87089">
        <ele>1059</ele>
        <time>2021-06-01T10:18:19.643Z</time>
      </trkpt>
      <trkpt lat="44.13296" lon="5.87088">
        <ele>1059</ele>
        <time>2021-06-01T10:18:20.643Z</time>
      </trkpt>
      <trkpt lat="44.13296" lon="5.87088">
        <ele>1059</ele>
        <time>2021-06-01T10:18:21.643Z</time>
      </trkpt>
      <trkpt lat="44.13296" lon="5.87088">
        <ele>1060</ele>
        <time>2021-06-01T10:18:22.643Z</time>
      </trkpt>
      <trkpt lat="44.13296" lon="5.87088">
        <ele>1060</ele>
        <time>2021-06-01T10:18:23.643Z</time>
      </trkpt>
      <trkpt lat="44.13296" lon="5.87088">
        <ele>1060</ele>
        <time>2021-06-01T10:18:24.643Z</time>
      </trkpt>
      <trkpt lat="44.13296" lon="5.87088">
        <ele>1060</ele>
        <time>2021-06-01T10:18:25.643Z</time>
      </trkpt>
      <trkpt lat="44.13296" lon="5.87088">
        <ele>1060</ele>
        <time>2021-06-01T10:18:26.643Z</time>
      </trkpt>
      <trkpt lat="44.13296" lon="5.87088">
        <ele>1060</ele>
        <time>2021-06-01T10:18:27.643Z</time>
      </trkpt>
      <trkpt lat="44.13296" lon="5.87088">
        <ele>1060</ele>
        <time>2021-06-01T10:18:28.643Z</time>
      </trkpt>
      <trkpt lat="44.13296" lon="5.87088">
        <ele>1060</ele>
        <time>2021-06-01T10:18:29.643Z</time>
      </trkpt>
      <trkpt lat="44.13296" lon="5.87088">
        <ele>1060</ele>
        <time>2021-06-01T10:18:30.643Z</time>
      </trkpt>
      <trkpt lat="44.13296" lon="5.87088">
        <ele>1060</ele>
        <time>2021-06-01T10:18:31.643Z</time>
      </trkpt>
      <trkpt lat="44.13296" lon="5.87088">
        <ele>1060</ele>
        <time>2021-06-01T10:18:32.643Z</time>
      </trkpt>
      <trkpt lat="44.13296" lon="5.87088">
        <ele>1060</ele>
        <time>2021-06-01T10:18:33.643Z</time>
      </trkpt>
      <trkpt lat="44.13296" lon="5.87088">
        <ele>1060</ele>
        <time>2021-06-01T10:18:34.643Z</time>
      </trkpt>
      <trkpt lat="44.13296" lon="5.87088">
        <ele>1060</ele>
        <time>2021-06-01T10:18:35.643Z</time>
      </trkpt>
      <trkpt lat="44.13296" lon="5.87088">
        <ele>1060</ele>
        <time>2021-06-01T10:18:36.643Z</time>
      </trkpt>
      <trkpt lat="44.13297" lon="5.87088">
        <ele>1060</ele>
        <time>2021-06-01T10:18:37.643Z</time>
      </trkpt>
      <trkpt lat="44.13297" lon="5.87087">
        <ele>1060</ele>
        <time>2021-06-01T10:18:38.643Z</time>
      </trkpt>
      <trkpt lat="44.13297" lon="5.87086">
        <ele>1060</ele>
        <time>2021-06-01T10:18:39.643Z</time>
      </trkpt>
      <trkpt lat="44.13298" lon="5.87085">
        <ele>1060</ele>
        <time>2021-06-01T10:18:40.643Z</time>
      </trkpt>
      <trkpt lat="44.13298" lon="5.87084">
        <ele>1060</ele>
        <time>2021-06-01T10:18:41.643Z</time>
      </trkpt>
      <trkpt lat="44.13299" lon="5.87083">
        <ele>1060</ele>
        <time>2021-06-01T10:18:42.643Z</time>
      </trkpt>
      <trkpt lat="44.13299" lon="5.87082">
        <ele>1061</ele>
        <time>2021-06-01T10:18:43.643Z</time>
      </trkpt>
      <trkpt lat="44.13299" lon="5.87081">
        <ele>1061</ele>
        <time>2021-06-01T10:18:44.643Z</time>
      </trkpt>
      <trkpt lat="44.133" lon="5.87079">
        <ele>1061</ele>
        <time>2021-06-01T10:18:45.643Z</time>
      </trkpt>
      <trkpt lat="44.133" lon="5.87078">
        <ele>1061</ele>
        <time>2021-06-01T10:18:46.643Z</time>
      </trkpt>
      <trkpt lat="44.133" lon="5.87076">
        <ele>1061</ele>
        <time>2021-06-01T10:18:47.643Z</time>
      </trkpt>
      <trkpt lat="44.13301" lon="5.87075">
        <ele>1061</ele>
        <time>2021-06-01T10:18:48.643Z</time>
      </trkpt>
      <trkpt lat="44.13301" lon="5.87074">
        <ele>1061</ele>
        <time>2021-06-01T10:18:49.643Z</time>
      </trkpt>
      <trkpt lat="44.13302" lon="5.87073">
        <ele>1061</ele>
        <time>2021-06-01T10:18:50.643Z</time>
      </trkpt>
      <trkpt lat="44.13302" lon="5.87072">
        <ele>1061</ele>
        <time>2021-06-01T10:18:51.643Z</time>
      </trkpt>
      <trkpt lat="44.13303" lon="5.87071">
        <ele>1062</ele>
        <time>2021-06-01T10:18:52.643Z</time>
      </trkpt>
      <trkpt lat="44.13303" lon="5.8707">
        <ele>1062</ele>
        <time>2021-06-01T10:18:53.643Z</time>
      </trkpt>
      <trkpt lat="44.13304" lon="5.87069">
        <ele>1062</ele>
        <time>2021-06-01T10:18:54.643Z</time>
      </trkpt>
      <trkpt lat="44.13304" lon="5.87068">
        <ele>1062</ele>
        <time>2021-06-01T10:18:55.643Z</time>
      </trkpt>
      <trkpt lat="44.13305" lon="5.87067">
        <ele>1062</ele>
        <time>2021-06-01T10:18:56.643Z</time>
      </trkpt>
      <trkpt lat="44.13305" lon="5.87066">
        <ele>1063</ele>
        <time>2021-06-01T10:18:57.643Z</time>
      </trkpt>
      <trkpt lat="44.13306" lon="5.87065">
        <ele>1063</ele>
        <time>2021-06-01T10:18:58.643Z</time>
      </trkpt>
      <trkpt lat="44.13306" lon="5.87064">
        <ele>1063</ele>
        <time>2021-06-01T10:18:59.643Z</time>
      </trkpt>
      <trkpt lat="44.13307" lon="5.87063">
        <ele>1063</ele>
        <time>2021-06-01T10:19:00.643Z</time>
      </trkpt>
      <trkpt lat="44.13307" lon="5.87062">
        <ele>1063</ele>
        <time>2021-06-01T10:19:01.643Z</time>
      </trkpt>
      <trkpt lat="44.13308" lon="5.87061">
        <ele>1063</ele>
        <time>2021-06-01T10:19:02.643Z</time>
      </trkpt>
      <trkpt lat="44.13308" lon="5.8706">
        <ele>1064</ele>
        <time>2021-06-01T10:19:03.643Z</time>
      </trkpt>
      <trkpt lat="44.13309" lon="5.87059">
        <ele>1064</ele>
        <time>2021-06-01T10:19:04.643Z</time>
      </trkpt>
      <trkpt lat="44.13309" lon="5.87058">
        <ele>1064</ele>
        <time>2021-06-01T10:19:05.643Z</time>
      </trkpt>
      <trkpt lat="44.13309" lon="5.87057">
        <ele>1064</ele>
        <time>2021-06-01T10:19:06.643Z</time>
      </trkpt>
      <trkpt lat="44.1331" lon="5.87057">
        <ele>1064</ele>
        <time>2021-06-01T10:19:07.643Z</time>
      </trkpt>
      <trkpt lat="44.1331" lon="5.87056">
        <ele>1064</ele>
        <time>2021-06-01T10:19:08.643Z</time>
      </trkpt>
      <trkpt lat="44.1331" lon="5.87056">
        <ele>1064</ele>
        <time>2021-06-01T10:19:09.643Z</time>
      </trkpt>
      <trkpt lat="44.13311" lon="5.87055">
        <ele>1065</ele>
        <time>2021-06-01T10:19:10.643Z</time>
      </trkpt>
      <trkpt lat="44.13311" lon="5.87055">
        <ele>1065</ele>
        <time>2021-06-01T10:19:11.643Z</time>
      </trkpt>
      <trkpt lat="44.13311" lon="5.87054">
        <ele>1065</ele>
        <time>2021-06-01T10:19:12.643Z</time>
      </trkpt>
      <trkpt lat="44.13312" lon="5.87053">
        <ele>1065</ele>
        <time>2021-06-01T10:19:13.643Z</time>
      </trkpt>
      <trkpt lat="44.13312" lon="5.87052">
        <ele>1065</ele>
        <time>2021-06-01T10:19:14.643Z</time>
      </trkpt>
      <trkpt lat="44.13313" lon="5.87052">
        <ele>1065</ele>
        <time>2021-06-01T10:19:15.643Z</time>
      </trkpt>
      <trkpt lat="44.13313" lon="5.87051">
        <ele>1065</ele>
        <time>2021-06-01T10:19:16.643Z</time>
      </trkpt>
      <trkpt lat="44.13314" lon="5.8705">
        <ele>1066</ele>
        <time>2021-06-01T10:19:17.643Z</time>
      </trkpt>
      <trkpt lat="44.13314" lon="5.87049">
        <ele>1066</ele>
        <time>2021-06-01T10:19:18.643Z</time>
      </trkpt>
      <trkpt lat="44.13314" lon="5.87048">
        <ele>1066</ele>
        <time>2021-06-01T10:19:19.643Z</time>
      </trkpt>
      <trkpt lat="44.13314" lon="5.87047">
        <ele>1066</ele>
        <time>2021-06-01T10:19:20.643Z</time>
      </trkpt>
      <trkpt lat="44.13314" lon="5.87046">
        <ele>1066</ele>
        <time>2021-06-01T10:19:21.643Z</time>
      </trkpt>
      <trkpt lat="44.13314" lon="5.87045">
        <ele>1067</ele>
        <time>2021-06-01T10:19:22.643Z</time>
      </trkpt>
      <trkpt lat="44.13315" lon="5.87044">
        <ele>1067</ele>
        <time>2021-06-01T10:19:23.643Z</time>
      </trkpt>
      <trkpt lat="44.13315" lon="5.87043">
        <ele>1067</ele>
        <time>2021-06-01T10:19:24.643Z</time>
      </trkpt>
      <trkpt lat="44.13315" lon="5.87042">
        <ele>1067</ele>
        <time>2021-06-01T10:19:25.643Z</time>
      </trkpt>
      <trkpt lat="44.13315" lon="5.8704">
        <ele>1067</ele>
        <time>2021-06-01T10:19:26.643Z</time>
      </trkpt>
      <trkpt lat="44.13316" lon="5.87039">
        <ele>1067</ele>
        <time>2021-06-01T10:19:27.643Z</time>
      </trkpt>
      <trkpt lat="44.13316" lon="5.87038">
        <ele>1068</ele>
        <time>2021-06-01T10:19:28.643Z</time>
      </trkpt>
      <trkpt lat="44.13316" lon="5.87038">
        <ele>1068</ele>
        <time>2021-06-01T10:19:29.643Z</time>
      </trkpt>
      <trkpt lat="44.13316" lon="5.87037">
        <ele>1068</ele>
        <time>2021-06-01T10:19:30.643Z</time>
      </trkpt>
      <trkpt lat="44.13316" lon="5.87035">
        <ele>1068</ele>
        <time>2021-06-01T10:19:31.643Z</time>
      </trkpt>
      <trkpt lat="44.13317" lon="5.87034">
        <ele>1068</ele>
        <time>2021-06-01T10:19:32.643Z</time>
      </trkpt>
      <trkpt lat="44.13317" lon="5.87033">
        <ele>1068</ele>
        <time>2021-06-01T10:19:33.643Z</time>
      </trkpt>
      <trkpt lat="44.13317" lon="5.87033">
        <ele>1069</ele>
        <time>2021-06-01T10:19:34.643Z</time>
      </trkpt>
      <trkpt lat="44.13317" lon="5.87032">
        <ele>1069</ele>
        <time>2021-06-01T10:19:35.643Z</time>
      </trkpt>
      <trkpt lat="44.13318" lon="5.87031">
        <ele>1069</ele>
        <time>2021-06-01T10:19:36.643Z</time>
      </trkpt>
      <trkpt lat="44.13318" lon="5.8703">
        <ele>1069</ele>
        <time>2021-06-01T10:19:37.643Z</time>
      </trkpt>
      <trkpt lat="44.13318" lon="5.87029">
        <ele>1069</ele>
        <time>2021-06-01T10:19:38.643Z</time>
      </trkpt>
      <trkpt lat="44.13319" lon="5.87028">
        <ele>1069</ele>
        <time>2021-06-01T10:19:39.643Z</time>
      </trkpt>
      <trkpt lat="44.13319" lon="5.87027">
        <ele>1070</ele>
        <time>2021-06-01T10:19:40.643Z</time>
      </trkpt>
      <trkpt lat="44.13319" lon="5.87025">
        <ele>1070</ele>
        <time>2021-06-01T10:19:41.643Z</time>
      </trkpt>
      <trkpt lat="44.13319" lon="5.87024">
        <ele>1070</ele>
        <time>2021-06-01T10:19:42.643Z</time>
      </trkpt>
      <trkpt lat="44.13319" lon="5.87022">
        <ele>1070</ele>
        <time>2021-06-01T10:19:43.643Z</time>
      </trkpt>
      <trkpt lat="44.1332" lon="5.87021">
        <ele>1070</ele>
        <time>2021-06-01T10:19:44.643Z</time>
      </trkpt>
      <trkpt lat="44.1332" lon="5.8702">
        <ele>1070</ele>
        <time>2021-06-01T10:19:45.643Z</time>
      </trkpt>
      <trkpt lat="44.1332" lon="5.87019">
        <ele>1070</ele>
        <time>2021-06-01T10:19:46.643Z</time>
      </trkpt>
      <trkpt lat="44.1332" lon="5.87017">
        <ele>1070</ele>
        <time>2021-06-01T10:19:47.643Z</time>
      </trkpt>
      <trkpt lat="44.13321" lon="5.87016">
        <ele>1070</ele>
        <time>2021-06-01T10:19:48.643Z</time>
      </trkpt>
      <trkpt lat="44.13321" lon="5.87015">
        <ele>1071</ele>
        <time>2021-06-01T10:19:49.643Z</time>
      </trkpt>
      <trkpt lat="44.13321" lon="5.87014">
        <ele>1071</ele>
        <time>2021-06-01T10:19:50.643Z</time>
      </trkpt>
      <trkpt lat="44.13321" lon="5.87012">
        <ele>1071</ele>
        <time>2021-06-01T10:19:51.643Z</time>
      </trkpt>
      <trkpt lat="44.13321" lon="5.87011">
        <ele>1071</ele>
        <time>2021-06-01T10:19:52.643Z</time>
      </trkpt>
      <trkpt lat="44.13321" lon="5.8701">
        <ele>1071</ele>
        <time>2021-06-01T10:19:53.643Z</time>
      </trkpt>
      <trkpt lat="44.13321" lon="5.87008">
        <ele>1071</ele>
        <time>2021-06-01T10:19:54.643Z</time>
      </trkpt>
      <trkpt lat="44.13321" lon="5.87007">
        <ele>1071</ele>
        <time>2021-06-01T10:19:55.643Z</time>
      </trkpt>
      <trkpt lat="44.13321" lon="5.87006">
        <ele>1071</ele>
        <time>2021-06-01T10:19:56.643Z</time>
      </trkpt>
      <trkpt lat="44.13321" lon="5.87004">
        <ele>1071</ele>
        <time>2021-06-01T10:19:57.643Z</time>
      </trkpt>
      <trkpt lat="44.13321" lon="5.87003">
        <ele>1071</ele>
        <time>2021-06-01T10:19:58.643Z</time>
      </trkpt>
      <trkpt lat="44.13322" lon="5.87002">
        <ele>1071</ele>
        <time>2021-06-01T10:19:59.643Z</time>
      </trkpt>
      <trkpt lat="44.13322" lon="5.87001">
        <ele>1071</ele>
        <time>2021-06-01T10:20:00.643Z</time>
      </trkpt>
      <trkpt lat="44.13321" lon="5.86999">
        <ele>1071</ele>
        <time>2021-06-01T10:20:01.643Z</time>
      </trkpt>
      <trkpt lat="44.13321" lon="5.86998">
        <ele>1071</ele>
        <time>2021-06-01T10:20:02.643Z</time>
      </trkpt>
      <trkpt lat="44.13321" lon="5.86997">
        <ele>1071</ele>
        <time>2021-06-01T10:20:03.643Z</time>
      </trkpt>
      <trkpt lat="44.13321" lon="5.86995">
        <ele>1072</ele>
        <time>2021-06-01T10:20:04.643Z</time>
      </trkpt>
      <trkpt lat="44.13321" lon="5.86994">
        <ele>1072</ele>
        <time>2021-06-01T10:20:05.643Z</time>
      </trkpt>
      <trkpt lat="44.13321" lon="5.86993">
        <ele>1072</ele>
        <time>2021-06-01T10:20:06.643Z</time>
      </trkpt>
      <trkpt lat="44.13321" lon="5.86992">
        <ele>1072</ele>
        <time>2021-06-01T10:20:07.643Z</time>
      </trkpt>
      <trkpt lat="44.13321" lon="5.86991">
        <ele>1072</ele>
        <time>2021-06-01T10:20:08.643Z</time>
      </trkpt>
      <trkpt lat="44.13321" lon="5.86989">
        <ele>1072</ele>
        <time>2021-06-01T10:20:09.643Z</time>
      </trkpt>
      <trkpt lat="44.13321" lon="5.86988">
        <ele>1072</ele>
        <time>2021-06-01T10:20:10.643Z</time>
      </trkpt>
      <trkpt lat="44.13321" lon="5.86987">
        <ele>1072</ele>
        <time>2021-06-01T10:20:11.643Z</time>
      </trkpt>
      <trkpt lat="44.13321" lon="5.86986">
        <ele>1072</ele>
        <time>2021-06-01T10:20:12.643Z</time>
      </trkpt>
      <trkpt lat="44.13321" lon="5.86984">
        <ele>1072</ele>
        <time>2021-06-01T10:20:13.643Z</time>
      </trkpt>
      <trkpt lat="44.13321" lon="5.86983">
        <ele>1072</ele>
        <time>2021-06-01T10:20:14.643Z</time>
      </trkpt>
      <trkpt lat="44.13321" lon="5.86982">
        <ele>1072</ele>
        <time>2021-06-01T10:20:15.643Z</time>
      </trkpt>
      <trkpt lat="44.1332" lon="5.86981">
        <ele>1072</ele>
        <time>2021-06-01T10:20:16.643Z</time>
      </trkpt>
      <trkpt lat="44.1332" lon="5.8698">
        <ele>1073</ele>
        <time>2021-06-01T10:20:17.643Z</time>
      </trkpt>
      <trkpt lat="44.1332" lon="5.86978">
        <ele>1073</ele>
        <time>2021-06-01T10:20:18.643Z</time>
      </trkpt>
      <trkpt lat="44.1332" lon="5.86977">
        <ele>1073</ele>
        <time>2021-06-01T10:20:19.643Z</time>
      </trkpt>
      <trkpt lat="44.13319" lon="5.86976">
        <ele>1073</ele>
        <time>2021-06-01T10:20:20.643Z</time>
      </trkpt>
      <trkpt lat="44.13319" lon="5.86975">
        <ele>1073</ele>
        <time>2021-06-01T10:20:21.643Z</time>
      </trkpt>
      <trkpt lat="44.13319" lon="5.86974">
        <ele>1073</ele>
        <time>2021-06-01T10:20:22.643Z</time>
      </trkpt>
      <trkpt lat="44.13318" lon="5.86973">
        <ele>1073</ele>
        <time>2021-06-01T10:20:23.643Z</time>
      </trkpt>
      <trkpt lat="44.13318" lon="5.86972">
        <ele>1074</ele>
        <time>2021-06-01T10:20:24.643Z</time>
      </trkpt>
      <trkpt lat="44.13318" lon="5.86971">
        <ele>1074</ele>
        <time>2021-06-01T10:20:25.643Z</time>
      </trkpt>
      <trkpt lat="44.13317" lon="5.86969">
        <ele>1074</ele>
        <time>2021-06-01T10:20:26.643Z</time>
      </trkpt>
      <trkpt lat="44.13317" lon="5.86968">
        <ele>1074</ele>
        <time>2021-06-01T10:20:27.643Z</time>
      </trkpt>
      <trkpt lat="44.13317" lon="5.86967">
        <ele>1074</ele>
        <time>2021-06-01T10:20:28.643Z</time>
      </trkpt>
      <trkpt lat="44.13316" lon="5.86966">
        <ele>1074</ele>
        <time>2021-06-01T10:20:29.643Z</time>
      </trkpt>
      <trkpt lat="44.13316" lon="5.86965">
        <ele>1074</ele>
        <time>2021-06-01T10:20:30.643Z</time>
      </trkpt>
      <trkpt lat="44.13316" lon="5.86963">
        <ele>1074</ele>
        <time>2021-06-01T10:20:31.643Z</time>
      </trkpt>
      <trkpt lat="44.13315" lon="5.86962">
        <ele>1074</ele>
        <time>2021-06-01T10:20:32.643Z</time>
      </trkpt>
      <trkpt lat="44.13315" lon="5.86961">
        <ele>1074</ele>
        <time>2021-06-01T10:20:33.643Z</time>
      </trkpt>
      <trkpt lat="44.13315" lon="5.8696">
        <ele>1075</ele>
        <time>2021-06-01T10:20:34.643Z</time>
      </trkpt>
      <trkpt lat="44.13314" lon="5.86959">
        <ele>1075</ele>
        <time>2021-06-01T10:20:35.643Z</time>
      </trkpt>
      <trkpt lat="44.13314" lon="5.86958">
        <ele>1075</ele>
        <time>2021-06-01T10:20:36.643Z</time>
      </trkpt>
      <trkpt lat="44.13314" lon="5.86957">
        <ele>1075</ele>
        <time>2021-06-01T10:20:37.643Z</time>
      </trkpt>
      <trkpt lat="44.13313" lon="5.86955">
        <ele>1075</ele>
        <time>2021-06-01T10:20:38.643Z</time>
      </trkpt>
      <trkpt lat="44.13313" lon="5.86954">
        <ele>1075</ele>
        <time>2021-06-01T10:20:39.643Z</time>
      </trkpt>
      <trkpt lat="44.13313" lon="5.86953">
        <ele>1075</ele>
        <time>2021-06-01T10:20:40.643Z</time>
      </trkpt>
      <trkpt lat="44.13313" lon="5.86952">
        <ele>1075</ele>
        <time>2021-06-01T10:20:41.643Z</time>
      </trkpt>
      <trkpt lat="44.13313" lon="5.86951">
        <ele>1076</ele>
        <time>2021-06-01T10:20:42.643Z</time>
      </trkpt>
      <trkpt lat="44.13313" lon="5.8695">
        <ele>1076</ele>
        <time>2021-06-01T10:20:43.643Z</time>
      </trkpt>
      <trkpt lat="44.13312" lon="5.86949">
        <ele>1076</ele>
        <time>2021-06-01T10:20:44.643Z</time>
      </trkpt>
      <trkpt lat="44.13312" lon="5.86948">
        <ele>1076</ele>
        <time>2021-06-01T10:20:45.643Z</time>
      </trkpt>
      <trkpt lat="44.13312" lon="5.86947">
        <ele>1076</ele>
        <time>2021-06-01T10:20:46.643Z</time>
      </trkpt>
      <trkpt lat="44.13312" lon="5.86946">
        <ele>1076</ele>
        <time>2021-06-01T10:20:47.643Z</time>
      </trkpt>
      <trkpt lat="44.13311" lon="5.86944">
        <ele>1076</ele>
        <time>2021-06-01T10:20:48.643Z</time>
      </trkpt>
      <trkpt lat="44.13311" lon="5.86943">
        <ele>1077</ele>
        <time>2021-06-01T10:20:49.643Z</time>
      </trkpt>
      <trkpt lat="44.13311" lon="5.86942">
        <ele>1077</ele>
        <time>2021-06-01T10:20:50.643Z</time>
      </trkpt>
      <trkpt lat="44.1331" lon="5.86941">
        <ele>1077</ele>
        <time>2021-06-01T10:20:51.643Z</time>
      </trkpt>
      <trkpt lat="44.1331" lon="5.86939">
        <ele>1077</ele>
        <time>2021-06-01T10:20:52.643Z</time>
      </trkpt>
      <trkpt lat="44.1331" lon="5.86938">
        <ele>1077</ele>
        <time>2021-06-01T10:20:53.643Z</time>
      </trkpt>
      <trkpt lat="44.1331" lon="5.86937">
        <ele>1077</ele>
        <time>2021-06-01T10:20:54.643Z</time>
      </trkpt>
      <trkpt lat="44.13309" lon="5.86936">
        <ele>1077</ele>
        <time>2021-06-01T10:20:55.643Z</time>
      </trkpt>
      <trkpt lat="44.13309" lon="5.86934">
        <ele>1077</ele>
        <time>2021-06-01T10:20:56.643Z</time>
      </trkpt>
      <trkpt lat="44.13309" lon="5.86933">
        <ele>1077</ele>
        <time>2021-06-01T10:20:57.643Z</time>
      </trkpt>
      <trkpt lat="44.13309" lon="5.86932">
        <ele>1078</ele>
        <time>2021-06-01T10:20:58.643Z</time>
      </trkpt>
      <trkpt lat="44.13308" lon="5.86931">
        <ele>1078</ele>
        <time>2021-06-01T10:20:59.643Z</time>
      </trkpt>
      <trkpt lat="44.13308" lon="5.86929">
        <ele>1078</ele>
        <time>2021-06-01T10:21:00.643Z</time>
      </trkpt>
      <trkpt lat="44.13308" lon="5.86928">
        <ele>1078</ele>
        <time>2021-06-01T10:21:01.643Z</time>
      </trkpt>
      <trkpt lat="44.13308" lon="5.86927">
        <ele>1078</ele>
        <time>2021-06-01T10:21:02.643Z</time>
      </trkpt>
      <trkpt lat="44.13307" lon="5.86925">
        <ele>1078</ele>
        <time>2021-06-01T10:21:03.643Z</time>
      </trkpt>
      <trkpt lat="44.13307" lon="5.86924">
        <ele>1078</ele>
        <time>2021-06-01T10:21:04.643Z</time>
      </trkpt>
      <trkpt lat="44.13307" lon="5.86923">
        <ele>1078</ele>
        <time>2021-06-01T10:21:05.643Z</time>
      </trkpt>
      <trkpt lat="44.13307" lon="5.86922">
        <ele>1078</ele>
        <time>2021-06-01T10:21:06.643Z</time>
      </trkpt>
      <trkpt lat="44.13307" lon="5.8692">
        <ele>1078</ele>
        <time>2021-06-01T10:21:07.643Z</time>
      </trkpt>
      <trkpt lat="44.13307" lon="5.86919">
        <ele>1078</ele>
        <time>2021-06-01T10:21:08.643Z</time>
      </trkpt>
      <trkpt lat="44.13306" lon="5.86918">
        <ele>1078</ele>
        <time>2021-06-01T10:21:09.643Z</time>
      </trkpt>
      <trkpt lat="44.13306" lon="5.86917">
        <ele>1079</ele>
        <time>2021-06-01T10:21:10.643Z</time>
      </trkpt>
      <trkpt lat="44.13306" lon="5.86915">
        <ele>1079</ele>
        <time>2021-06-01T10:21:11.643Z</time>
      </trkpt>
      <trkpt lat="44.13306" lon="5.86914">
        <ele>1079</ele>
        <time>2021-06-01T10:21:12.643Z</time>
      </trkpt>
      <trkpt lat="44.13306" lon="5.86912">
        <ele>1079</ele>
        <time>2021-06-01T10:21:13.643Z</time>
      </trkpt>
      <trkpt lat="44.13306" lon="5.86911">
        <ele>1079</ele>
        <time>2021-06-01T10:21:14.643Z</time>
      </trkpt>
      <trkpt lat="44.13306" lon="5.8691">
        <ele>1079</ele>
        <time>2021-06-01T10:21:15.643Z</time>
      </trkpt>
      <trkpt lat="44.13306" lon="5.86909">
        <ele>1079</ele>
        <time>2021-06-01T10:21:16.643Z</time>
      </trkpt>
      <trkpt lat="44.13305" lon="5.86908">
        <ele>1079</ele>
        <time>2021-06-01T10:21:17.643Z</time>
      </trkpt>
      <trkpt lat="44.13305" lon="5.86907">
        <ele>1079</ele>
        <time>2021-06-01T10:21:18.643Z</time>
      </trkpt>
      <trkpt lat="44.13305" lon="5.86905">
        <ele>1079</ele>
        <time>2021-06-01T10:21:19.643Z</time>
      </trkpt>
      <trkpt lat="44.13305" lon="5.86904">
        <ele>1079</ele>
        <time>2021-06-01T10:21:20.643Z</time>
      </trkpt>
      <trkpt lat="44.13305" lon="5.86902">
        <ele>1079</ele>
        <time>2021-06-01T10:21:21.643Z</time>
      </trkpt>
      <trkpt lat="44.13305" lon="5.86901">
        <ele>1079</ele>
        <time>2021-06-01T10:21:22.643Z</time>
      </trkpt>
      <trkpt lat="44.13304" lon="5.869">
        <ele>1079</ele>
        <time>2021-06-01T10:21:23.643Z</time>
      </trkpt>
      <trkpt lat="44.13304" lon="5.86899">
        <ele>1079</ele>
        <time>2021-06-01T10:21:24.643Z</time>
      </trkpt>
      <trkpt lat="44.13305" lon="5.86897">
        <ele>1079</ele>
        <time>2021-06-01T10:21:25.643Z</time>
      </trkpt>
      <trkpt lat="44.13305" lon="5.86896">
        <ele>1079</ele>
        <time>2021-06-01T10:21:26.643Z</time>
      </trkpt>
      <trkpt lat="44.13305" lon="5.86895">
        <ele>1079</ele>
        <time>2021-06-01T10:21:27.643Z</time>
      </trkpt>
      <trkpt lat="44.13305" lon="5.86894">
        <ele>1079</ele>
        <time>2021-06-01T10:21:28.643Z</time>
      </trkpt>
      <trkpt lat="44.13305" lon="5.86893">
        <ele>1079</ele>
        <time>2021-06-01T10:21:29.643Z</time>
      </trkpt>
      <trkpt lat="44.13305" lon="5.86892">
        <ele>1079</ele>
        <time>2021-06-01T10:21:30.643Z</time>
      </trkpt>
      <trkpt lat="44.13305" lon="5.8689">
        <ele>1079</ele>
        <time>2021-06-01T10:21:31.643Z</time>
      </trkpt>
      <trkpt lat="44.13304" lon="5.86889">
        <ele>1079</ele>
        <time>2021-06-01T10:21:32.643Z</time>
      </trkpt>
      <trkpt lat="44.13304" lon="5.86888">
        <ele>1079</ele>
        <time>2021-06-01T10:21:33.643Z</time>
      </trkpt>
      <trkpt lat="44.13304" lon="5.86887">
        <ele>1079</ele>
        <time>2021-06-01T10:21:34.643Z</time>
      </trkpt>
      <trkpt lat="44.13304" lon="5.86885">
        <ele>1079</ele>
        <time>2021-06-01T10:21:35.643Z</time>
      </trkpt>
      <trkpt lat="44.13304" lon="5.86884">
        <ele>1079</ele>
        <time>2021-06-01T10:21:36.643Z</time>
      </trkpt>
      <trkpt lat="44.13304" lon="5.86882">
        <ele>1080</ele>
        <time>2021-06-01T10:21:37.643Z</time>
      </trkpt>
      <trkpt lat="44.13304" lon="5.86881">
        <ele>1080</ele>
        <time>2021-06-01T10:21:38.643Z</time>
      </trkpt>
      <trkpt lat="44.13304" lon="5.8688">
        <ele>1080</ele>
        <time>2021-06-01T10:21:39.643Z</time>
      </trkpt>
      <trkpt lat="44.13303" lon="5.86879">
        <ele>1080</ele>
        <time>2021-06-01T10:21:40.643Z</time>
      </trkpt>
      <trkpt lat="44.13303" lon="5.86877">
        <ele>1080</ele>
        <time>2021-06-01T10:21:41.643Z</time>
      </trkpt>
      <trkpt lat="44.13304" lon="5.86876">
        <ele>1080</ele>
        <time>2021-06-01T10:21:42.643Z</time>
      </trkpt>
      <trkpt lat="44.13303" lon="5.86875">
        <ele>1080</ele>
        <time>2021-06-01T10:21:43.643Z</time>
      </trkpt>
      <trkpt lat="44.13303" lon="5.86873">
        <ele>1080</ele>
        <time>2021-06-01T10:21:44.643Z</time>
      </trkpt>
      <trkpt lat="44.13303" lon="5.86872">
        <ele>1080</ele>
        <time>2021-06-01T10:21:45.643Z</time>
      </trkpt>
      <trkpt lat="44.13304" lon="5.86871">
        <ele>1080</ele>
        <time>2021-06-01T10:21:46.643Z</time>
      </trkpt>
      <trkpt lat="44.13303" lon="5.8687">
        <ele>1080</ele>
        <time>2021-06-01T10:21:47.643Z</time>
      </trkpt>
      <trkpt lat="44.13304" lon="5.86868">
        <ele>1080</ele>
        <time>2021-06-01T10:21:48.643Z</time>
      </trkpt>
      <trkpt lat="44.13303" lon="5.86867">
        <ele>1081</ele>
        <time>2021-06-01T10:21:49.643Z</time>
      </trkpt>
      <trkpt lat="44.13303" lon="5.86866">
        <ele>1081</ele>
        <time>2021-06-01T10:21:50.643Z</time>
      </trkpt>
      <trkpt lat="44.13303" lon="5.86864">
        <ele>1081</ele>
        <time>2021-06-01T10:21:51.643Z</time>
      </trkpt>
      <trkpt lat="44.13303" lon="5.86863">
        <ele>1081</ele>
        <time>2021-06-01T10:21:52.643Z</time>
      </trkpt>
      <trkpt lat="44.13303" lon="5.86862">
        <ele>1081</ele>
        <time>2021-06-01T10:21:53.643Z</time>
      </trkpt>
      <trkpt lat="44.13303" lon="5.86861">
        <ele>1081</ele>
        <time>2021-06-01T10:21:54.643Z</time>
      </trkpt>
      <trkpt lat="44.13303" lon="5.8686">
        <ele>1081</ele>
        <time>2021-06-01T10:21:55.643Z</time>
      </trkpt>
      <trkpt lat="44.13303" lon="5.86859">
        <ele>1082</ele>
        <time>2021-06-01T10:21:56.643Z</time>
      </trkpt>
      <trkpt lat="44.13304" lon="5.86857">
        <ele>1082</ele>
        <time>2021-06-01T10:21:57.643Z</time>
      </trkpt>
      <trkpt lat="44.13304" lon="5.86856">
        <ele>1082</ele>
        <time>2021-06-01T10:21:58.643Z</time>
      </trkpt>
      <trkpt lat="44.13304" lon="5.86855">
        <ele>1082</ele>
        <time>2021-06-01T10:21:59.643Z</time>
      </trkpt>
      <trkpt lat="44.13304" lon="5.86853">
        <ele>1082</ele>
        <time>2021-06-01T10:22:00.643Z</time>
      </trkpt>
      <trkpt lat="44.13304" lon="5.86852">
        <ele>1082</ele>
        <time>2021-06-01T10:22:01.643Z</time>
      </trkpt>
      <trkpt lat="44.13304" lon="5.86851">
        <ele>1083</ele>
        <time>2021-06-01T10:22:02.643Z</time>
      </trkpt>
      <trkpt lat="44.13304" lon="5.8685">
        <ele>1083</ele>
        <time>2021-06-01T10:22:03.643Z</time>
      </trkpt>
      <trkpt lat="44.13304" lon="5.86848">
        <ele>1083</ele>
        <time>2021-06-01T10:22:04.643Z</time>
      </trkpt>
      <trkpt lat="44.13304" lon="5.86847">
        <ele>1083</ele>
        <time>2021-06-01T10:22:05.643Z</time>
      </trkpt>
      <trkpt lat="44.13304" lon="5.86846">
        <ele>1083</ele>
        <time>2021-06-01T10:22:06.643Z</time>
      </trkpt>
      <trkpt lat="44.13304" lon="5.86844">
        <ele>1083</ele>
        <time>2021-06-01T10:22:07.643Z</time>
      </trkpt>
      <trkpt lat="44.13304" lon="5.86843">
        <ele>1083</ele>
        <time>2021-06-01T10:22:08.643Z</time>
      </trkpt>
      <trkpt lat="44.13304" lon="5.86842">
        <ele>1084</ele>
        <time>2021-06-01T10:22:09.643Z</time>
      </trkpt>
      <trkpt lat="44.13304" lon="5.8684">
        <ele>1084</ele>
        <time>2021-06-01T10:22:10.643Z</time>
      </trkpt>
      <trkpt lat="44.13304" lon="5.86839">
        <ele>1084</ele>
        <time>2021-06-01T10:22:11.643Z</time>
      </trkpt>
      <trkpt lat="44.13304" lon="5.86838">
        <ele>1084</ele>
        <time>2021-06-01T10:22:12.643Z</time>
      </trkpt>
      <trkpt lat="44.13304" lon="5.86837">
        <ele>1084</ele>
        <time>2021-06-01T10:22:13.643Z</time>
      </trkpt>
      <trkpt lat="44.13304" lon="5.86835">
        <ele>1084</ele>
        <time>2021-06-01T10:22:14.643Z</time>
      </trkpt>
      <trkpt lat="44.13304" lon="5.86834">
        <ele>1084</ele>
        <time>2021-06-01T10:22:15.643Z</time>
      </trkpt>
      <trkpt lat="44.13303" lon="5.86833">
        <ele>1085</ele>
        <time>2021-06-01T10:22:16.643Z</time>
      </trkpt>
      <trkpt lat="44.13303" lon="5.86831">
        <ele>1085</ele>
        <time>2021-06-01T10:22:17.643Z</time>
      </trkpt>
      <trkpt lat="44.13303" lon="5.8683">
        <ele>1085</ele>
        <time>2021-06-01T10:22:18.643Z</time>
      </trkpt>
      <trkpt lat="44.13303" lon="5.86829">
        <ele>1085</ele>
        <time>2021-06-01T10:22:19.643Z</time>
      </trkpt>
      <trkpt lat="44.13303" lon="5.86828">
        <ele>1085</ele>
        <time>2021-06-01T10:22:20.643Z</time>
      </trkpt>
      <trkpt lat="44.13302" lon="5.86827">
        <ele>1085</ele>
        <time>2021-06-01T10:22:21.643Z</time>
      </trkpt>
      <trkpt lat="44.13302" lon="5.86825">
        <ele>1085</ele>
        <time>2021-06-01T10:22:22.643Z</time>
      </trkpt>
      <trkpt lat="44.13302" lon="5.86824">
        <ele>1085</ele>
        <time>2021-06-01T10:22:23.643Z</time>
      </trkpt>
      <trkpt lat="44.13302" lon="5.86823">
        <ele>1085</ele>
        <time>2021-06-01T10:22:24.643Z</time>
      </trkpt>
      <trkpt lat="44.13302" lon="5.86822">
        <ele>1085</ele>
        <time>2021-06-01T10:22:25.643Z</time>
      </trkpt>
      <trkpt lat="44.13302" lon="5.8682">
        <ele>1085</ele>
        <time>2021-06-01T10:22:26.643Z</time>
      </trkpt>
      <trkpt lat="44.13302" lon="5.86819">
        <ele>1085</ele>
        <time>2021-06-01T10:22:27.643Z</time>
      </trkpt>
      <trkpt lat="44.13302" lon="5.86818">
        <ele>1085</ele>
        <time>2021-06-01T10:22:28.643Z</time>
      </trkpt>
      <trkpt lat="44.13302" lon="5.86816">
        <ele>1085</ele>
        <time>2021-06-01T10:22:29.643Z</time>
      </trkpt>
      <trkpt lat="44.13302" lon="5.86815">
        <ele>1085</ele>
        <time>2021-06-01T10:22:30.643Z</time>
      </trkpt>
      <trkpt lat="44.13302" lon="5.86814">
        <ele>1086</ele>
        <time>2021-06-01T10:22:31.643Z</time>
      </trkpt>
      <trkpt lat="44.13302" lon="5.86813">
        <ele>1086</ele>
        <time>2021-06-01T10:22:32.643Z</time>
      </trkpt>
      <trkpt lat="44.13302" lon="5.86811">
        <ele>1086</ele>
        <time>2021-06-01T10:22:33.643Z</time>
      </trkpt>
      <trkpt lat="44.13303" lon="5.8681">
        <ele>1086</ele>
        <time>2021-06-01T10:22:34.643Z</time>
      </trkpt>
      <trkpt lat="44.13303" lon="5.86809">
        <ele>1086</ele>
        <time>2021-06-01T10:22:35.643Z</time>
      </trkpt>
      <trkpt lat="44.13303" lon="5.86808">
        <ele>1086</ele>
        <time>2021-06-01T10:22:36.643Z</time>
      </trkpt>
      <trkpt lat="44.13303" lon="5.86806">
        <ele>1086</ele>
        <time>2021-06-01T10:22:37.643Z</time>
      </trkpt>
      <trkpt lat="44.13303" lon="5.86805">
        <ele>1086</ele>
        <time>2021-06-01T10:22:38.643Z</time>
      </trkpt>
      <trkpt lat="44.13303" lon="5.86804">
        <ele>1086</ele>
        <time>2021-06-01T10:22:39.643Z</time>
      </trkpt>
      <trkpt lat="44.13303" lon="5.86803">
        <ele>1086</ele>
        <time>2021-06-01T10:22:40.643Z</time>
      </trkpt>
      <trkpt lat="44.13303" lon="5.86801">
        <ele>1086</ele>
        <time>2021-06-01T10:22:41.643Z</time>
      </trkpt>
      <trkpt lat="44.13303" lon="5.868">
        <ele>1086</ele>
        <time>2021-06-01T10:22:42.643Z</time>
      </trkpt>
      <trkpt lat="44.13303" lon="5.86799">
        <ele>1086</ele>
        <time>2021-06-01T10:22:43.643Z</time>
      </trkpt>
      <trkpt lat="44.13303" lon="5.86798">
        <ele>1087</ele>
        <time>2021-06-01T10:22:44.643Z</time>
      </trkpt>
      <trkpt lat="44.13303" lon="5.86797">
        <ele>1087</ele>
        <time>2021-06-01T10:22:45.643Z</time>
      </trkpt>
      <trkpt lat="44.13303" lon="5.86795">
        <ele>1087</ele>
        <time>2021-06-01T10:22:46.643Z</time>
      </trkpt>
      <trkpt lat="44.13303" lon="5.86794">
        <ele>1087</ele>
        <time>2021-06-01T10:22:47.643Z</time>
      </trkpt>
      <trkpt lat="44.13303" lon="5.86793">
        <ele>1087</ele>
        <time>2021-06-01T10:22:48.643Z</time>
      </trkpt>
      <trkpt lat="44.13304" lon="5.86792">
        <ele>1087</ele>
        <time>2021-06-01T10:22:49.643Z</time>
      </trkpt>
      <trkpt lat="44.13304" lon="5.8679">
        <ele>1087</ele>
        <time>2021-06-01T10:22:50.643Z</time>
      </trkpt>
      <trkpt lat="44.13304" lon="5.86789">
        <ele>1087</ele>
        <time>2021-06-01T10:22:51.643Z</time>
      </trkpt>
      <trkpt lat="44.13305" lon="5.86788">
        <ele>1087</ele>
        <time>2021-06-01T10:22:52.643Z</time>
      </trkpt>
      <trkpt lat="44.13305" lon="5.86787">
        <ele>1087</ele>
        <time>2021-06-01T10:22:53.643Z</time>
      </trkpt>
      <trkpt lat="44.13305" lon="5.86785">
        <ele>1087</ele>
        <time>2021-06-01T10:22:54.643Z</time>
      </trkpt>
      <trkpt lat="44.13305" lon="5.86784">
        <ele>1087</ele>
        <time>2021-06-01T10:22:55.643Z</time>
      </trkpt>
      <trkpt lat="44.13305" lon="5.86783">
        <ele>1087</ele>
        <time>2021-06-01T10:22:56.643Z</time>
      </trkpt>
      <trkpt lat="44.13305" lon="5.86782">
        <ele>1088</ele>
        <time>2021-06-01T10:22:57.643Z</time>
      </trkpt>
      <trkpt lat="44.13304" lon="5.86781">
        <ele>1088</ele>
        <time>2021-06-01T10:22:58.643Z</time>
      </trkpt>
      <trkpt lat="44.13304" lon="5.8678">
        <ele>1088</ele>
        <time>2021-06-01T10:22:59.643Z</time>
      </trkpt>
      <trkpt lat="44.13303" lon="5.86779">
        <ele>1088</ele>
        <time>2021-06-01T10:23:00.643Z</time>
      </trkpt>
      <trkpt lat="44.13303" lon="5.86778">
        <ele>1088</ele>
        <time>2021-06-01T10:23:01.643Z</time>
      </trkpt>
      <trkpt lat="44.13302" lon="5.86777">
        <ele>1088</ele>
        <time>2021-06-01T10:23:02.643Z</time>
      </trkpt>
      <trkpt lat="44.13302" lon="5.86776">
        <ele>1088</ele>
        <time>2021-06-01T10:23:03.643Z</time>
      </trkpt>
      <trkpt lat="44.13301" lon="5.86775">
        <ele>1088</ele>
        <time>2021-06-01T10:23:04.643Z</time>
      </trkpt>
      <trkpt lat="44.133" lon="5.86775">
        <ele>1088</ele>
        <time>2021-06-01T10:23:05.643Z</time>
      </trkpt>
      <trkpt lat="44.13299" lon="5.86774">
        <ele>1088</ele>
        <time>2021-06-01T10:23:06.643Z</time>
      </trkpt>
      <trkpt lat="44.13299" lon="5.86774">
        <ele>1088</ele>
        <time>2021-06-01T10:23:07.643Z</time>
      </trkpt>
      <trkpt lat="44.13298" lon="5.86773">
        <ele>1088</ele>
        <time>2021-06-01T10:23:08.643Z</time>
      </trkpt>
      <trkpt lat="44.13297" lon="5.86772">
        <ele>1088</ele>
        <time>2021-06-01T10:23:09.643Z</time>
      </trkpt>
      <trkpt lat="44.13297" lon="5.86771">
        <ele>1088</ele>
        <time>2021-06-01T10:23:10.643Z</time>
      </trkpt>
      <trkpt lat="44.13296" lon="5.8677">
        <ele>1089</ele>
        <time>2021-06-01T10:23:11.643Z</time>
      </trkpt>
      <trkpt lat="44.13296" lon="5.86769">
        <ele>1089</ele>
        <time>2021-06-01T10:23:12.643Z</time>
      </trkpt>
      <trkpt lat="44.13296" lon="5.86768">
        <ele>1089</ele>
        <time>2021-06-01T10:23:13.643Z</time>
      </trkpt>
      <trkpt lat="44.13295" lon="5.86767">
        <ele>1089</ele>
        <time>2021-06-01T10:23:14.643Z</time>
      </trkpt>
      <trkpt lat="44.13295" lon="5.86765">
        <ele>1089</ele>
        <time>2021-06-01T10:23:15.643Z</time>
      </trkpt>
      <trkpt lat="44.13295" lon="5.86764">
        <ele>1089</ele>
        <time>2021-06-01T10:23:16.643Z</time>
      </trkpt>
      <trkpt lat="44.13294" lon="5.86763">
        <ele>1089</ele>
        <time>2021-06-01T10:23:17.643Z</time>
      </trkpt>
      <trkpt lat="44.13294" lon="5.86762">
        <ele>1089</ele>
        <time>2021-06-01T10:23:18.643Z</time>
      </trkpt>
      <trkpt lat="44.13294" lon="5.86761">
        <ele>1090</ele>
        <time>2021-06-01T10:23:19.643Z</time>
      </trkpt>
      <trkpt lat="44.13293" lon="5.8676">
        <ele>1090</ele>
        <time>2021-06-01T10:23:20.643Z</time>
      </trkpt>
      <trkpt lat="44.13293" lon="5.86759">
        <ele>1090</ele>
        <time>2021-06-01T10:23:21.643Z</time>
      </trkpt>
      <trkpt lat="44.13292" lon="5.86758">
        <ele>1090</ele>
        <time>2021-06-01T10:23:22.643Z</time>
      </trkpt>
      <trkpt lat="44.13292" lon="5.86757">
        <ele>1090</ele>
        <time>2021-06-01T10:23:23.643Z</time>
      </trkpt>
      <trkpt lat="44.13292" lon="5.86756">
        <ele>1090</ele>
        <time>2021-06-01T10:23:24.643Z</time>
      </trkpt>
      <trkpt lat="44.13291" lon="5.86755">
        <ele>1090</ele>
        <time>2021-06-01T10:23:25.643Z</time>
      </trkpt>
      <trkpt lat="44.13291" lon="5.86754">
        <ele>1091</ele>
        <time>2021-06-01T10:23:26.643Z</time>
      </trkpt>
      <trkpt lat="44.13291" lon="5.86753">
        <ele>1091</ele>
        <time>2021-06-01T10:23:27.643Z</time>
      </trkpt>
      <trkpt lat="44.1329" lon="5.86752">
        <ele>1091</ele>
        <time>2021-06-01T10:23:28.643Z</time>
      </trkpt>
      <trkpt lat="44.1329" lon="5.86751">
        <ele>1091</ele>
        <time>2021-06-01T10:23:29.643Z</time>
      </trkpt>
      <trkpt lat="44.13289" lon="5.8675">
        <ele>1091</ele>
        <time>2021-06-01T10:23:30.643Z</time>
      </trkpt>
      <trkpt lat="44.13289" lon="5.86748">
        <ele>1091</ele>
        <time>2021-06-01T10:23:31.643Z</time>
      </trkpt>
      <trkpt lat="44.13289" lon="5.86747">
        <ele>1091</ele>
        <time>2021-06-01T10:23:32.643Z</time>
      </trkpt>
      <trkpt lat="44.13288" lon="5.86746">
        <ele>1091</ele>
        <time>2021-06-01T10:23:33.643Z</time>
      </trkpt>
      <trkpt lat="44.13288" lon="5.86745">
        <ele>1091</ele>
        <time>2021-06-01T10:23:34.643Z</time>
      </trkpt>
      <trkpt lat="44.13288" lon="5.86744">
        <ele>1091</ele>
        <time>2021-06-01T10:23:35.643Z</time>
      </trkpt>
      <trkpt lat="44.13287" lon="5.86743">
        <ele>1092</ele>
        <time>2021-06-01T10:23:36.643Z</time>
      </trkpt>
      <trkpt lat="44.13287" lon="5.86742">
        <ele>1092</ele>
        <time>2021-06-01T10:23:37.643Z</time>
      </trkpt>
      <trkpt lat="44.13287" lon="5.8674">
        <ele>1092</ele>
        <time>2021-06-01T10:23:38.643Z</time>
      </trkpt>
      <trkpt lat="44.13286" lon="5.86739">
        <ele>1092</ele>
        <time>2021-06-01T10:23:39.643Z</time>
      </trkpt>
      <trkpt lat="44.13286" lon="5.86738">
        <ele>1092</ele>
        <time>2021-06-01T10:23:40.643Z</time>
      </trkpt>
      <trkpt lat="44.13286" lon="5.86737">
        <ele>1092</ele>
        <time>2021-06-01T10:23:41.643Z</time>
      </trkpt>
      <trkpt lat="44.13285" lon="5.86736">
        <ele>1092</ele>
        <time>2021-06-01T10:23:42.643Z</time>
      </trkpt>
      <trkpt lat="44.13285" lon="5.86735">
        <ele>1092</ele>
        <time>2021-06-01T10:23:43.643Z</time>
      </trkpt>
      <trkpt lat="44.13285" lon="5.86734">
        <ele>1093</ele>
        <time>2021-06-01T10:23:44.643Z</time>
      </trkpt>
      <trkpt lat="44.13285" lon="5.86733">
        <ele>1093</ele>
        <time>2021-06-01T10:23:45.643Z</time>
      </trkpt>
      <trkpt lat="44.13284" lon="5.86732">
        <ele>1093</ele>
        <time>2021-06-01T10:23:46.643Z</time>
      </trkpt>
      <trkpt lat="44.13284" lon="5.8673">
        <ele>1093</ele>
        <time>2021-06-01T10:23:47.643Z</time>
      </trkpt>
      <trkpt lat="44.13284" lon="5.86729">
        <ele>1093</ele>
        <time>2021-06-01T10:23:48.643Z</time>
      </trkpt>
      <trkpt lat="44.13284" lon="5.86728">
        <ele>1093</ele>
        <time>2021-06-01T10:23:49.643Z</time>
      </trkpt>
      <trkpt lat="44.13283" lon="5.86727">
        <ele>1093</ele>
        <time>2021-06-01T10:23:50.643Z</time>
      </trkpt>
      <trkpt lat="44.13283" lon="5.86726">
        <ele>1093</ele>
        <time>2021-06-01T10:23:51.643Z</time>
      </trkpt>
      <trkpt lat="44.13283" lon="5.86725">
        <ele>1093</ele>
        <time>2021-06-01T10:23:52.643Z</time>
      </trkpt>
      <trkpt lat="44.13282" lon="5.86724">
        <ele>1093</ele>
        <time>2021-06-01T10:23:53.643Z</time>
      </trkpt>
      <trkpt lat="44.13282" lon="5.86723">
        <ele>1094</ele>
        <time>2021-06-01T10:23:54.643Z</time>
      </trkpt>
      <trkpt lat="44.13282" lon="5.86722">
        <ele>1094</ele>
        <time>2021-06-01T10:23:55.643Z</time>
      </trkpt>
      <trkpt lat="44.13281" lon="5.86721">
        <ele>1094</ele>
        <time>2021-06-01T10:23:56.643Z</time>
      </trkpt>
      <trkpt lat="44.13281" lon="5.86719">
        <ele>1094</ele>
        <time>2021-06-01T10:23:57.643Z</time>
      </trkpt>
      <trkpt lat="44.13281" lon="5.86718">
        <ele>1094</ele>
        <time>2021-06-01T10:23:58.643Z</time>
      </trkpt>
      <trkpt lat="44.13281" lon="5.86717">
        <ele>1094</ele>
        <time>2021-06-01T10:23:59.643Z</time>
      </trkpt>
      <trkpt lat="44.1328" lon="5.86716">
        <ele>1094</ele>
        <time>2021-06-01T10:24:00.643Z</time>
      </trkpt>
      <trkpt lat="44.1328" lon="5.86715">
        <ele>1094</ele>
        <time>2021-06-01T10:24:01.643Z</time>
      </trkpt>
      <trkpt lat="44.1328" lon="5.86714">
        <ele>1094</ele>
        <time>2021-06-01T10:24:02.643Z</time>
      </trkpt>
      <trkpt lat="44.13279" lon="5.86713">
        <ele>1094</ele>
        <time>2021-06-01T10:24:03.643Z</time>
      </trkpt>
      <trkpt lat="44.13279" lon="5.86712">
        <ele>1095</ele>
        <time>2021-06-01T10:24:04.643Z</time>
      </trkpt>
      <trkpt lat="44.13279" lon="5.86711">
        <ele>1095</ele>
        <time>2021-06-01T10:24:05.643Z</time>
      </trkpt>
      <trkpt lat="44.13279" lon="5.8671">
        <ele>1095</ele>
        <time>2021-06-01T10:24:06.643Z</time>
      </trkpt>
      <trkpt lat="44.13278" lon="5.86709">
        <ele>1095</ele>
        <time>2021-06-01T10:24:07.643Z</time>
      </trkpt>
      <trkpt lat="44.13278" lon="5.86708">
        <ele>1095</ele>
        <time>2021-06-01T10:24:08.643Z</time>
      </trkpt>
      <trkpt lat="44.13278" lon="5.86707">
        <ele>1095</ele>
        <time>2021-06-01T10:24:09.643Z</time>
      </trkpt>
      <trkpt lat="44.13278" lon="5.86705">
        <ele>1096</ele>
        <time>2021-06-01T10:24:10.643Z</time>
      </trkpt>
      <trkpt lat="44.13277" lon="5.86704">
        <ele>1096</ele>
        <time>2021-06-01T10:24:11.643Z</time>
      </trkpt>
      <trkpt lat="44.13277" lon="5.86703">
        <ele>1096</ele>
        <time>2021-06-01T10:24:12.643Z</time>
      </trkpt>
      <trkpt lat="44.13277" lon="5.86702">
        <ele>1096</ele>
        <time>2021-06-01T10:24:13.643Z</time>
      </trkpt>
      <trkpt lat="44.13277" lon="5.86701">
        <ele>1096</ele>
        <time>2021-06-01T10:24:14.643Z</time>
      </trkpt>
      <trkpt lat="44.13276" lon="5.867">
        <ele>1096</ele>
        <time>2021-06-01T10:24:15.643Z</time>
      </trkpt>
      <trkpt lat="44.13276" lon="5.86698">
        <ele>1096</ele>
        <time>2021-06-01T10:24:16.643Z</time>
      </trkpt>
      <trkpt lat="44.13276" lon="5.86697">
        <ele>1096</ele>
        <time>2021-06-01T10:24:17.643Z</time>
      </trkpt>
      <trkpt lat="44.13276" lon="5.86696">
        <ele>1097</ele>
        <time>2021-06-01T10:24:18.643Z</time>
      </trkpt>
      <trkpt lat="44.13276" lon="5.86695">
        <ele>1097</ele>
        <time>2021-06-01T10:24:19.643Z</time>
      </trkpt>
      <trkpt lat="44.13275" lon="5.86694">
        <ele>1097</ele>
        <time>2021-06-01T10:24:20.643Z</time>
      </trkpt>
      <trkpt lat="44.13275" lon="5.86693">
        <ele>1097</ele>
        <time>2021-06-01T10:24:21.643Z</time>
      </trkpt>
      <trkpt lat="44.13275" lon="5.86692">
        <ele>1097</ele>
        <time>2021-06-01T10:24:22.643Z</time>
      </trkpt>
      <trkpt lat="44.13274" lon="5.8669">
        <ele>1097</ele>
        <time>2021-06-01T10:24:23.643Z</time>
      </trkpt>
      <trkpt lat="44.13274" lon="5.86689">
        <ele>1097</ele>
        <time>2021-06-01T10:24:24.643Z</time>
      </trkpt>
      <trkpt lat="44.13274" lon="5.86688">
        <ele>1097</ele>
        <time>2021-06-01T10:24:25.643Z</time>
      </trkpt>
      <trkpt lat="44.13274" lon="5.86687">
        <ele>1097</ele>
        <time>2021-06-01T10:24:26.643Z</time>
      </trkpt>
      <trkpt lat="44.13274" lon="5.86686">
        <ele>1098</ele>
        <time>2021-06-01T10:24:27.643Z</time>
      </trkpt>
      <trkpt lat="44.13274" lon="5.86685">
        <ele>1098</ele>
        <time>2021-06-01T10:24:28.643Z</time>
      </trkpt>
      <trkpt lat="44.13274" lon="5.86683">
        <ele>1098</ele>
        <time>2021-06-01T10:24:29.643Z</time>
      </trkpt>
      <trkpt lat="44.13273" lon="5.86682">
        <ele>1098</ele>
        <time>2021-06-01T10:24:30.643Z</time>
      </trkpt>
      <trkpt lat="44.13273" lon="5.86681">
        <ele>1098</ele>
        <time>2021-06-01T10:24:31.643Z</time>
      </trkpt>
      <trkpt lat="44.13273" lon="5.8668">
        <ele>1098</ele>
        <time>2021-06-01T10:24:32.643Z</time>
      </trkpt>
      <trkpt lat="44.13273" lon="5.86679">
        <ele>1098</ele>
        <time>2021-06-01T10:24:33.643Z</time>
      </trkpt>
      <trkpt lat="44.13273" lon="5.86678">
        <ele>1099</ele>
        <time>2021-06-01T10:24:34.643Z</time>
      </trkpt>
      <trkpt lat="44.13273" lon="5.86677">
        <ele>1099</ele>
        <time>2021-06-01T10:24:35.643Z</time>
      </trkpt>
      <trkpt lat="44.13272" lon="5.86675">
        <ele>1099</ele>
        <time>2021-06-01T10:24:36.643Z</time>
      </trkpt>
      <trkpt lat="44.13272" lon="5.86674">
        <ele>1099</ele>
        <time>2021-06-01T10:24:37.643Z</time>
      </trkpt>
      <trkpt lat="44.13272" lon="5.86673">
        <ele>1099</ele>
        <time>2021-06-01T10:24:38.643Z</time>
      </trkpt>
      <trkpt lat="44.13272" lon="5.86672">
        <ele>1099</ele>
        <time>2021-06-01T10:24:39.643Z</time>
      </trkpt>
      <trkpt lat="44.13272" lon="5.86671">
        <ele>1100</ele>
        <time>2021-06-01T10:24:40.643Z</time>
      </trkpt>
      <trkpt lat="44.13271" lon="5.86669">
        <ele>1100</ele>
        <time>2021-06-01T10:24:41.643Z</time>
      </trkpt>
      <trkpt lat="44.13271" lon="5.86668">
        <ele>1100</ele>
        <time>2021-06-01T10:24:42.643Z</time>
      </trkpt>
      <trkpt lat="44.13271" lon="5.86667">
        <ele>1100</ele>
        <time>2021-06-01T10:24:43.643Z</time>
      </trkpt>
      <trkpt lat="44.13271" lon="5.86666">
        <ele>1100</ele>
        <time>2021-06-01T10:24:44.643Z</time>
      </trkpt>
      <trkpt lat="44.13271" lon="5.86665">
        <ele>1100</ele>
        <time>2021-06-01T10:24:45.643Z</time>
      </trkpt>
      <trkpt lat="44.13271" lon="5.86664">
        <ele>1101</ele>
        <time>2021-06-01T10:24:46.643Z</time>
      </trkpt>
      <trkpt lat="44.13271" lon="5.86662">
        <ele>1101</ele>
        <time>2021-06-01T10:24:47.643Z</time>
      </trkpt>
      <trkpt lat="44.1327" lon="5.86661">
        <ele>1101</ele>
        <time>2021-06-01T10:24:48.643Z</time>
      </trkpt>
      <trkpt lat="44.1327" lon="5.8666">
        <ele>1101</ele>
        <time>2021-06-01T10:24:49.643Z</time>
      </trkpt>
      <trkpt lat="44.1327" lon="5.86659">
        <ele>1101</ele>
        <time>2021-06-01T10:24:50.643Z</time>
      </trkpt>
      <trkpt lat="44.1327" lon="5.86657">
        <ele>1101</ele>
        <time>2021-06-01T10:24:51.643Z</time>
      </trkpt>
      <trkpt lat="44.13269" lon="5.86656">
        <ele>1101</ele>
        <time>2021-06-01T10:24:52.643Z</time>
      </trkpt>
      <trkpt lat="44.13269" lon="5.86655">
        <ele>1101</ele>
        <time>2021-06-01T10:24:53.643Z</time>
      </trkpt>
      <trkpt lat="44.13269" lon="5.86654">
        <ele>1101</ele>
        <time>2021-06-01T10:24:54.643Z</time>
      </trkpt>
      <trkpt lat="44.13269" lon="5.86653">
        <ele>1101</ele>
        <time>2021-06-01T10:24:55.643Z</time>
      </trkpt>
      <trkpt lat="44.13268" lon="5.86652">
        <ele>1101</ele>
        <time>2021-06-01T10:24:56.643Z</time>
      </trkpt>
      <trkpt lat="44.13268" lon="5.8665">
        <ele>1101</ele>
        <time>2021-06-01T10:24:57.643Z</time>
      </trkpt>
      <trkpt lat="44.13268" lon="5.86649">
        <ele>1101</ele>
        <time>2021-06-01T10:24:58.643Z</time>
      </trkpt>
      <trkpt lat="44.13268" lon="5.86648">
        <ele>1101</ele>
        <time>2021-06-01T10:24:59.643Z</time>
      </trkpt>
      <trkpt lat="44.13268" lon="5.86647">
        <ele>1101</ele>
        <time>2021-06-01T10:25:00.643Z</time>
      </trkpt>
      <trkpt lat="44.13268" lon="5.86645">
        <ele>1102</ele>
        <time>2021-06-01T10:25:01.643Z</time>
      </trkpt>
      <trkpt lat="44.13267" lon="5.86644">
        <ele>1102</ele>
        <time>2021-06-01T10:25:02.643Z</time>
      </trkpt>
      <trkpt lat="44.13267" lon="5.86643">
        <ele>1102</ele>
        <time>2021-06-01T10:25:03.643Z</time>
      </trkpt>
      <trkpt lat="44.13267" lon="5.86642">
        <ele>1102</ele>
        <time>2021-06-01T10:25:04.643Z</time>
      </trkpt>
      <trkpt lat="44.13267" lon="5.86641">
        <ele>1102</ele>
        <time>2021-06-01T10:25:05.643Z</time>
      </trkpt>
      <trkpt lat="44.13267" lon="5.86639">
        <ele>1102</ele>
        <time>2021-06-01T10:25:06.643Z</time>
      </trkpt>
      <trkpt lat="44.13266" lon="5.86638">
        <ele>1102</ele>
        <time>2021-06-01T10:25:07.643Z</time>
      </trkpt>
      <trkpt lat="44.13266" lon="5.86637">
        <ele>1102</ele>
        <time>2021-06-01T10:25:08.643Z</time>
      </trkpt>
      <trkpt lat="44.13266" lon="5.86636">
        <ele>1102</ele>
        <time>2021-06-01T10:25:09.643Z</time>
      </trkpt>
      <trkpt lat="44.13266" lon="5.86635">
        <ele>1102</ele>
        <time>2021-06-01T10:25:10.643Z</time>
      </trkpt>
      <trkpt lat="44.13265" lon="5.86634">
        <ele>1102</ele>
        <time>2021-06-01T10:25:11.643Z</time>
      </trkpt>
      <trkpt lat="44.13265" lon="5.86632">
        <ele>1103</ele>
        <time>2021-06-01T10:25:12.643Z</time>
      </trkpt>
      <trkpt lat="44.13265" lon="5.86631">
        <ele>1103</ele>
        <time>2021-06-01T10:25:13.643Z</time>
      </trkpt>
      <trkpt lat="44.13265" lon="5.8663">
        <ele>1103</ele>
        <time>2021-06-01T10:25:14.643Z</time>
      </trkpt>
      <trkpt lat="44.13265" lon="5.86629">
        <ele>1103</ele>
        <time>2021-06-01T10:25:15.643Z</time>
      </trkpt>
      <trkpt lat="44.13265" lon="5.86627">
        <ele>1103</ele>
        <time>2021-06-01T10:25:16.643Z</time>
      </trkpt>
      <trkpt lat="44.13265" lon="5.86626">
        <ele>1103</ele>
        <time>2021-06-01T10:25:17.643Z</time>
      </trkpt>
      <trkpt lat="44.13265" lon="5.86625">
        <ele>1103</ele>
        <time>2021-06-01T10:25:18.643Z</time>
      </trkpt>
      <trkpt lat="44.13266" lon="5.86624">
        <ele>1103</ele>
        <time>2021-06-01T10:25:19.643Z</time>
      </trkpt>
      <trkpt lat="44.13266" lon="5.86623">
        <ele>1103</ele>
        <time>2021-06-01T10:25:20.643Z</time>
      </trkpt>
      <trkpt lat="44.13267" lon="5.86623">
        <ele>1103</ele>
        <time>2021-06-01T10:25:21.643Z</time>
      </trkpt>
      <trkpt lat="44.13268" lon="5.86624">
        <ele>1103</ele>
        <time>2021-06-01T10:25:22.643Z</time>
      </trkpt>
      <trkpt lat="44.13268" lon="5.86624">
        <ele>1103</ele>
        <time>2021-06-01T10:25:23.643Z</time>
      </trkpt>
      <trkpt lat="44.13269" lon="5.86625">
        <ele>1103</ele>
        <time>2021-06-01T10:25:24.643Z</time>
      </trkpt>
      <trkpt lat="44.1327" lon="5.86627">
        <ele>1103</ele>
        <time>2021-06-01T10:25:25.643Z</time>
      </trkpt>
      <trkpt lat="44.1327" lon="5.86628">
        <ele>1103</ele>
        <time>2021-06-01T10:25:26.643Z</time>
      </trkpt>
      <trkpt lat="44.1327" lon="5.86629">
        <ele>1103</ele>
        <time>2021-06-01T10:25:27.643Z</time>
      </trkpt>
      <trkpt lat="44.13271" lon="5.8663">
        <ele>1103</ele>
        <time>2021-06-01T10:25:28.643Z</time>
      </trkpt>
      <trkpt lat="44.13271" lon="5.86631">
        <ele>1103</ele>
        <time>2021-06-01T10:25:29.643Z</time>
      </trkpt>
      <trkpt lat="44.13271" lon="5.86632">
        <ele>1103</ele>
        <time>2021-06-01T10:25:30.643Z</time>
      </trkpt>
      <trkpt lat="44.13272" lon="5.86634">
        <ele>1103</ele>
        <time>2021-06-01T10:25:31.643Z</time>
      </trkpt>
      <trkpt lat="44.13272" lon="5.86635">
        <ele>1103</ele>
        <time>2021-06-01T10:25:32.643Z</time>
      </trkpt>
      <trkpt lat="44.13273" lon="5.86636">
        <ele>1103</ele>
        <time>2021-06-01T10:25:33.643Z</time>
      </trkpt>
      <trkpt lat="44.13273" lon="5.86637">
        <ele>1103</ele>
        <time>2021-06-01T10:25:34.643Z</time>
      </trkpt>
      <trkpt lat="44.13273" lon="5.86638">
        <ele>1103</ele>
        <time>2021-06-01T10:25:35.643Z</time>
      </trkpt>
      <trkpt lat="44.13274" lon="5.8664">
        <ele>1103</ele>
        <time>2021-06-01T10:25:36.643Z</time>
      </trkpt>
      <trkpt lat="44.13274" lon="5.86641">
        <ele>1104</ele>
        <time>2021-06-01T10:25:37.643Z</time>
      </trkpt>
      <trkpt lat="44.13275" lon="5.86642">
        <ele>1104</ele>
        <time>2021-06-01T10:25:38.643Z</time>
      </trkpt>
      <trkpt lat="44.13275" lon="5.86643">
        <ele>1104</ele>
        <time>2021-06-01T10:25:39.643Z</time>
      </trkpt>
      <trkpt lat="44.13275" lon="5.86644">
        <ele>1104</ele>
        <time>2021-06-01T10:25:40.643Z</time>
      </trkpt>
      <trkpt lat="44.13276" lon="5.86645">
        <ele>1104</ele>
        <time>2021-06-01T10:25:41.643Z</time>
      </trkpt>
      <trkpt lat="44.13276" lon="5.86646">
        <ele>1104</ele>
        <time>2021-06-01T10:25:42.643Z</time>
      </trkpt>
      <trkpt lat="44.13277" lon="5.86647">
        <ele>1104</ele>
        <time>2021-06-01T10:25:43.643Z</time>
      </trkpt>
      <trkpt lat="44.13277" lon="5.86648">
        <ele>1104</ele>
        <time>2021-06-01T10:25:44.643Z</time>
      </trkpt>
      <trkpt lat="44.13278" lon="5.86649">
        <ele>1104</ele>
        <time>2021-06-01T10:25:45.643Z</time>
      </trkpt>
      <trkpt lat="44.13278" lon="5.86649">
        <ele>1104</ele>
        <time>2021-06-01T10:25:46.643Z</time>
      </trkpt>
      <trkpt lat="44.13278" lon="5.86649">
        <ele>1104</ele>
        <time>2021-06-01T10:25:47.643Z</time>
      </trkpt>
      <trkpt lat="44.13278" lon="5.86649">
        <ele>1104</ele>
        <time>2021-06-01T10:25:48.643Z</time>
      </trkpt>
      <trkpt lat="44.13278" lon="5.86649">
        <ele>1104</ele>
        <time>2021-06-01T10:25:49.643Z</time>
      </trkpt>
      <trkpt lat="44.13278" lon="5.86649">
        <ele>1104</ele>
        <time>2021-06-01T10:25:50.643Z</time>
      </trkpt>
      <trkpt lat="44.13278" lon="5.86649">
        <ele>1104</ele>
        <time>2021-06-01T10:25:51.643Z</time>
      </trkpt>
      <trkpt lat="44.13278" lon="5.86649">
        <ele>1104</ele>
        <time>2021-06-01T10:25:52.643Z</time>
      </trkpt>
      <trkpt lat="44.13278" lon="5.86649">
        <ele>1104</ele>
        <time>2021-06-01T10:25:53.643Z</time>
      </trkpt>
      <trkpt lat="44.13278" lon="5.86649">
        <ele>1104</ele>
        <time>2021-06-01T10:25:54.643Z</time>
      </trkpt>
      <trkpt lat="44.13278" lon="5.86649">
        <ele>1104</ele>
        <time>2021-06-01T10:25:55.643Z</time>
      </trkpt>
      <trkpt lat="44.13278" lon="5.86649">
        <ele>1104</ele>
        <time>2021-06-01T10:25:56.643Z</time>
      </trkpt>
      <trkpt lat="44.13278" lon="5.86649">
        <ele>1104</ele>
        <time>2021-06-01T10:25:57.643Z</time>
      </trkpt>
      <trkpt lat="44.13278" lon="5.86649">
        <ele>1104</ele>
        <time>2021-06-01T10:25:58.643Z</time>
      </trkpt>
      <trkpt lat="44.13278" lon="5.86649">
        <ele>1104</ele>
        <time>2021-06-01T10:25:59.643Z</time>
      </trkpt>
      <trkpt lat="44.13278" lon="5.86649">
        <ele>1104</ele>
        <time>2021-06-01T10:26:00.643Z</time>
      </trkpt>
      <trkpt lat="44.13278" lon="5.86649">
        <ele>1104</ele>
        <time>2021-06-01T10:26:01.643Z</time>
      </trkpt>
      <trkpt lat="44.13278" lon="5.86649">
        <ele>1104</ele>
        <time>2021-06-01T10:26:02.643Z</time>
      </trkpt>
      <trkpt lat="44.13278" lon="5.86649">
        <ele>1104</ele>
        <time>2021-06-01T10:26:03.643Z</time>
      </trkpt>
      <trkpt lat="44.13278" lon="5.86649">
        <ele>1104</ele>
        <time>2021-06-01T10:26:04.643Z</time>
      </trkpt>
      <trkpt lat="44.13278" lon="5.86649">
        <ele>1104</ele>
        <time>2021-06-01T10:26:05.643Z</time>
      </trkpt>
      <trkpt lat="44.13278" lon="5.86649">
        <ele>1104</ele>
        <time>2021-06-01T10:26:06.643Z</time>
      </trkpt>
      <trkpt lat="44.13278" lon="5.86649">
        <ele>1104</ele>
        <time>2021-06-01T10:26:07.643Z</time>
      </trkpt>
      <trkpt lat="44.13278" lon="5.86649">
        <ele>1104</ele>
        <time>2021-06-01T10:26:08.643Z</time>
      </trkpt>
      <trkpt lat="44.13278" lon="5.86649">
        <ele>1104</ele>
        <time>2021-06-01T10:26:09.643Z</time>
      </trkpt>
      <trkpt lat="44.13278" lon="5.86649">
        <ele>1104</ele>
        <time>2021-06-01T10:26:10.643Z</time>
      </trkpt>
      <trkpt lat="44.13278" lon="5.86649">
        <ele>1104</ele>
        <time>2021-06-01T10:26:11.643Z</time>
      </trkpt>
      <trkpt lat="44.13278" lon="5.86649">
        <ele>1104</ele>
        <time>2021-06-01T10:26:12.643Z</time>
      </trkpt>
      <trkpt lat="44.13278" lon="5.86649">
        <ele>1104</ele>
        <time>2021-06-01T10:26:13.643Z</time>
      </trkpt>
      <trkpt lat="44.13278" lon="5.86649">
        <ele>1104</ele>
        <time>2021-06-01T10:26:14.643Z</time>
      </trkpt>
      <trkpt lat="44.13278" lon="5.86649">
        <ele>1104</ele>
        <time>2021-06-01T10:26:15.643Z</time>
      </trkpt>
      <trkpt lat="44.13278" lon="5.86649">
        <ele>1104</ele>
        <time>2021-06-01T10:26:16.643Z</time>
      </trkpt>
      <trkpt lat="44.13278" lon="5.86649">
        <ele>1104</ele>
        <time>2021-06-01T10:26:17.643Z</time>
      </trkpt>
      <trkpt lat="44.13278" lon="5.86649">
        <ele>1104</ele>
        <time>2021-06-01T10:26:18.643Z</time>
      </trkpt>
      <trkpt lat="44.13278" lon="5.86649">
        <ele>1104</ele>
        <time>2021-06-01T10:26:19.643Z</time>
      </trkpt>
      <trkpt lat="44.13278" lon="5.86649">
        <ele>1104</ele>
        <time>2021-06-01T10:26:20.643Z</time>
      </trkpt>
      <trkpt lat="44.13278" lon="5.86649">
        <ele>1104</ele>
        <time>2021-06-01T10:26:21.643Z</time>
      </trkpt>
      <trkpt lat="44.13278" lon="5.86649">
        <ele>1104</ele>
        <time>2021-06-01T10:26:22.643Z</time>
      </trkpt>
      <trkpt lat="44.13278" lon="5.86649">
        <ele>1104</ele>
        <time>2021-06-01T10:26:23.643Z</time>
      </trkpt>
      <trkpt lat="44.13278" lon="5.86649">
        <ele>1104</ele>
        <time>2021-06-01T10:26:24.643Z</time>
      </trkpt>
      <trkpt lat="44.13278" lon="5.86649">
        <ele>1104</ele>
        <time>2021-06-01T10:26:25.643Z</time>
      </trkpt>
      <trkpt lat="44.13278" lon="5.86649">
        <ele>1104</ele>
        <time>2021-06-01T10:26:26.643Z</time>
      </trkpt>
      <trkpt lat="44.13278" lon="5.86649">
        <ele>1104</ele>
        <time>2021-06-01T10:26:27.643Z</time>
      </trkpt>
      <trkpt lat="44.13278" lon="5.86649">
        <ele>1104</ele>
        <time>2021-06-01T10:26:28.643Z</time>
      </trkpt>
      <trkpt lat="44.13278" lon="5.86649">
        <ele>1104</ele>
        <time>2021-06-01T10:26:29.643Z</time>
      </trkpt>
      <trkpt lat="44.13278" lon="5.86649">
        <ele>1104</ele>
        <time>2021-06-01T10:26:30.643Z</time>
      </trkpt>
      <trkpt lat="44.13279" lon="5.8665">
        <ele>1104</ele>
        <time>2021-06-01T10:26:31.643Z</time>
      </trkpt>
      <trkpt lat="44.13279" lon="5.86651">
        <ele>1104</ele>
        <time>2021-06-01T10:26:32.643Z</time>
      </trkpt>
      <trkpt lat="44.1328" lon="5.86652">
        <ele>1104</ele>
        <time>2021-06-01T10:26:33.643Z</time>
      </trkpt>
      <trkpt lat="44.1328" lon="5.86653">
        <ele>1104</ele>
        <time>2021-06-01T10:26:34.643Z</time>
      </trkpt>
      <trkpt lat="44.13281" lon="5.86654">
        <ele>1104</ele>
        <time>2021-06-01T10:26:35.643Z</time>
      </trkpt>
      <trkpt lat="44.13282" lon="5.86655">
        <ele>1104</ele>
        <time>2021-06-01T10:26:36.643Z</time>
      </trkpt>
      <trkpt lat="44.13282" lon="5.86657">
        <ele>1103</ele>
        <time>2021-06-01T10:26:37.643Z</time>
      </trkpt>
      <trkpt lat="44.13283" lon="5.86657">
        <ele>1103</ele>
        <time>2021-06-01T10:26:38.643Z</time>
      </trkpt>
      <trkpt lat="44.13284" lon="5.86658">
        <ele>1104</ele>
        <time>2021-06-01T10:26:39.643Z</time>
      </trkpt>
      <trkpt lat="44.13285" lon="5.86659">
        <ele>1104</ele>
        <time>2021-06-01T10:26:40.643Z</time>
      </trkpt>
      <trkpt lat="44.13285" lon="5.8666">
        <ele>1104</ele>
        <time>2021-06-01T10:26:41.643Z</time>
      </trkpt>
      <trkpt lat="44.13286" lon="5.86661">
        <ele>1104</ele>
        <time>2021-06-01T10:26:42.643Z</time>
      </trkpt>
      <trkpt lat="44.13287" lon="5.86662">
        <ele>1104</ele>
        <time>2021-06-01T10:26:43.643Z</time>
      </trkpt>
      <trkpt lat="44.13288" lon="5.86663">
        <ele>1104</ele>
        <time>2021-06-01T10:26:44.643Z</time>
      </trkpt>
      <trkpt lat="44.13288" lon="5.86664">
        <ele>1104</ele>
        <time>2021-06-01T10:26:45.643Z</time>
      </trkpt>
      <trkpt lat="44.13289" lon="5.86665">
        <ele>1104</ele>
        <time>2021-06-01T10:26:46.643Z</time>
      </trkpt>
      <trkpt lat="44.1329" lon="5.86666">
        <ele>1104</ele>
        <time>2021-06-01T10:26:47.643Z</time>
      </trkpt>
      <trkpt lat="44.13291" lon="5.86667">
        <ele>1104</ele>
        <time>2021-06-01T10:26:48.643Z</time>
      </trkpt>
      <trkpt lat="44.13292" lon="5.86667">
        <ele>1104</ele>
        <time>2021-06-01T10:26:49.643Z</time>
      </trkpt>
      <trkpt lat="44.13293" lon="5.86668">
        <ele>1105</ele>
        <time>2021-06-01T10:26:50.643Z</time>
      </trkpt>
      <trkpt lat="44.13293" lon="5.86669">
        <ele>1105</ele>
        <time>2021-06-01T10:26:51.643Z</time>
      </trkpt>
      <trkpt lat="44.13294" lon="5.86669">
        <ele>1105</ele>
        <time>2021-06-01T10:26:52.643Z</time>
      </trkpt>
      <trkpt lat="44.13295" lon="5.8667">
        <ele>1105</ele>
        <time>2021-06-01T10:26:53.643Z</time>
      </trkpt>
      <trkpt lat="44.13296" lon="5.8667">
        <ele>1105</ele>
        <time>2021-06-01T10:26:54.643Z</time>
      </trkpt>
      <trkpt lat="44.13297" lon="5.86671">
        <ele>1105</ele>
        <time>2021-06-01T10:26:55.643Z</time>
      </trkpt>
      <trkpt lat="44.13298" lon="5.86671">
        <ele>1105</ele>
        <time>2021-06-01T10:26:56.643Z</time>
      </trkpt>
      <trkpt lat="44.13299" lon="5.86672">
        <ele>1105</ele>
        <time>2021-06-01T10:26:57.643Z</time>
      </trkpt>
      <trkpt lat="44.133" lon="5.86672">
        <ele>1105</ele>
        <time>2021-06-01T10:26:58.643Z</time>
      </trkpt>
      <trkpt lat="44.133" lon="5.86673">
        <ele>1105</ele>
        <time>2021-06-01T10:26:59.643Z</time>
      </trkpt>
      <trkpt lat="44.13301" lon="5.86673">
        <ele>1106</ele>
        <time>2021-06-01T10:27:00.643Z</time>
      </trkpt>
      <trkpt lat="44.13302" lon="5.86674">
        <ele>1106</ele>
        <time>2021-06-01T10:27:01.643Z</time>
      </trkpt>
      <trkpt lat="44.13303" lon="5.86675">
        <ele>1106</ele>
        <time>2021-06-01T10:27:02.643Z</time>
      </trkpt>
      <trkpt lat="44.13304" lon="5.86675">
        <ele>1106</ele>
        <time>2021-06-01T10:27:03.643Z</time>
      </trkpt>
      <trkpt lat="44.13305" lon="5.86676">
        <ele>1106</ele>
        <time>2021-06-01T10:27:04.643Z</time>
      </trkpt>
      <trkpt lat="44.13306" lon="5.86676">
        <ele>1106</ele>
        <time>2021-06-01T10:27:05.643Z</time>
      </trkpt>
      <trkpt lat="44.13307" lon="5.86676">
        <ele>1106</ele>
        <time>2021-06-01T10:27:06.643Z</time>
      </trkpt>
      <trkpt lat="44.13308" lon="5.86676">
        <ele>1106</ele>
        <time>2021-06-01T10:27:07.643Z</time>
      </trkpt>
      <trkpt lat="44.13309" lon="5.86677">
        <ele>1106</ele>
        <time>2021-06-01T10:27:08.643Z</time>
      </trkpt>
      <trkpt lat="44.1331" lon="5.86677">
        <ele>1106</ele>
        <time>2021-06-01T10:27:09.643Z</time>
      </trkpt>
      <trkpt lat="44.1331" lon="5.86677">
        <ele>1106</ele>
        <time>2021-06-01T10:27:10.643Z</time>
      </trkpt>
      <trkpt lat="44.13311" lon="5.86678">
        <ele>1106</ele>
        <time>2021-06-01T10:27:11.643Z</time>
      </trkpt>
      <trkpt lat="44.13312" lon="5.86678">
        <ele>1107</ele>
        <time>2021-06-01T10:27:12.643Z</time>
      </trkpt>
      <trkpt lat="44.13313" lon="5.86678">
        <ele>1107</ele>
        <time>2021-06-01T10:27:13.643Z</time>
      </trkpt>
      <trkpt lat="44.13314" lon="5.86678">
        <ele>1107</ele>
        <time>2021-06-01T10:27:14.643Z</time>
      </trkpt>
      <trkpt lat="44.13315" lon="5.86678">
        <ele>1107</ele>
        <time>2021-06-01T10:27:15.643Z</time>
      </trkpt>
      <trkpt lat="44.13316" lon="5.86678">
        <ele>1107</ele>
        <time>2021-06-01T10:27:16.643Z</time>
      </trkpt>
      <trkpt lat="44.13317" lon="5.86678">
        <ele>1107</ele>
        <time>2021-06-01T10:27:17.643Z</time>
      </trkpt>
      <trkpt lat="44.13318" lon="5.86678">
        <ele>1107</ele>
        <time>2021-06-01T10:27:18.643Z</time>
      </trkpt>
      <trkpt lat="44.13318" lon="5.86678">
        <ele>1107</ele>
        <time>2021-06-01T10:27:19.643Z</time>
      </trkpt>
      <trkpt lat="44.13319" lon="5.86678">
        <ele>1107</ele>
        <time>2021-06-01T10:27:20.643Z</time>
      </trkpt>
      <trkpt lat="44.1332" lon="5.86678">
        <ele>1107</ele>
        <time>2021-06-01T10:27:21.643Z</time>
      </trkpt>
      <trkpt lat="44.13321" lon="5.86678">
        <ele>1107</ele>
        <time>2021-06-01T10:27:22.643Z</time>
      </trkpt>
      <trkpt lat="44.13322" lon="5.86678">
        <ele>1108</ele>
        <time>2021-06-01T10:27:23.643Z</time>
      </trkpt>
      <trkpt lat="44.13323" lon="5.86678">
        <ele>1108</ele>
        <time>2021-06-01T10:27:24.643Z</time>
      </trkpt>
      <trkpt lat="44.13324" lon="5.86677">
        <ele>1108</ele>
        <time>2021-06-01T10:27:25.643Z</time>
      </trkpt>
      <trkpt lat="44.13325" lon="5.86677">
        <ele>1108</ele>
        <time>2021-06-01T10:27:26.643Z</time>
      </trkpt>
      <trkpt lat="44.13325" lon="5.86676">
        <ele>1108</ele>
        <time>2021-06-01T10:27:27.643Z</time>
      </trkpt>
      <trkpt lat="44.13326" lon="5.86676">
        <ele>1108</ele>
        <time>2021-06-01T10:27:28.643Z</time>
      </trkpt>
      <trkpt lat="44.13327" lon="5.86676">
        <ele>1108</ele>
        <time>2021-06-01T10:27:29.643Z</time>
      </trkpt>
      <trkpt lat="44.13328" lon="5.86675">
        <ele>1108</ele>
        <time>2021-06-01T10:27:30.643Z</time>
      </trkpt>
      <trkpt lat="44.13329" lon="5.86675">
        <ele>1108</ele>
        <time>2021-06-01T10:27:31.643Z</time>
      </trkpt>
      <trkpt lat="44.1333" lon="5.86675">
        <ele>1108</ele>
        <time>2021-06-01T10:27:32.643Z</time>
      </trkpt>
      <trkpt lat="44.13331" lon="5.86674">
        <ele>1108</ele>
        <time>2021-06-01T10:27:33.643Z</time>
      </trkpt>
      <trkpt lat="44.13332" lon="5.86674">
        <ele>1108</ele>
        <time>2021-06-01T10:27:34.643Z</time>
      </trkpt>
      <trkpt lat="44.13332" lon="5.86674">
        <ele>1108</ele>
        <time>2021-06-01T10:27:35.643Z</time>
      </trkpt>
      <trkpt lat="44.13333" lon="5.86674">
        <ele>1108</ele>
        <time>2021-06-01T10:27:36.643Z</time>
      </trkpt>
      <trkpt lat="44.13334" lon="5.86673">
        <ele>1108</ele>
        <time>2021-06-01T10:27:37.643Z</time>
      </trkpt>
      <trkpt lat="44.13335" lon="5.86673">
        <ele>1108</ele>
        <time>2021-06-01T10:27:38.643Z</time>
      </trkpt>
      <trkpt lat="44.13336" lon="5.86673">
        <ele>1108</ele>
        <time>2021-06-01T10:27:39.643Z</time>
      </trkpt>
      <trkpt lat="44.13337" lon="5.86672">
        <ele>1108</ele>
        <time>2021-06-01T10:27:40.643Z</time>
      </trkpt>
      <trkpt lat="44.13337" lon="5.86672">
        <ele>1109</ele>
        <time>2021-06-01T10:27:41.643Z</time>
      </trkpt>
      <trkpt lat="44.13338" lon="5.86672">
        <ele>1109</ele>
        <time>2021-06-01T10:27:42.643Z</time>
      </trkpt>
      <trkpt lat="44.13339" lon="5.86671">
        <ele>1109</ele>
        <time>2021-06-01T10:27:43.643Z</time>
      </trkpt>
      <trkpt lat="44.1334" lon="5.86671">
        <ele>1109</ele>
        <time>2021-06-01T10:27:44.643Z</time>
      </trkpt>
      <trkpt lat="44.13341" lon="5.86671">
        <ele>1109</ele>
        <time>2021-06-01T10:27:45.643Z</time>
      </trkpt>
      <trkpt lat="44.13342" lon="5.8667">
        <ele>1109</ele>
        <time>2021-06-01T10:27:46.643Z</time>
      </trkpt>
      <trkpt lat="44.13343" lon="5.8667">
        <ele>1109</ele>
        <time>2021-06-01T10:27:47.643Z</time>
      </trkpt>
      <trkpt lat="44.13344" lon="5.8667">
        <ele>1109</ele>
        <time>2021-06-01T10:27:48.643Z</time>
      </trkpt>
      <trkpt lat="44.13344" lon="5.86669">
        <ele>1109</ele>
        <time>2021-06-01T10:27:49.643Z</time>
      </trkpt>
      <trkpt lat="44.13345" lon="5.86669">
        <ele>1110</ele>
        <time>2021-06-01T10:27:50.643Z</time>
      </trkpt>
      <trkpt lat="44.13346" lon="5.86669">
        <ele>1110</ele>
        <time>2021-06-01T10:27:51.643Z</time>
      </trkpt>
      <trkpt lat="44.13347" lon="5.86669">
        <ele>1110</ele>
        <time>2021-06-01T10:27:52.643Z</time>
      </trkpt>
      <trkpt lat="44.13348" lon="5.86668">
        <ele>1110</ele>
        <time>2021-06-01T10:27:53.643Z</time>
      </trkpt>
      <trkpt lat="44.13349" lon="5.86668">
        <ele>1110</ele>
        <time>2021-06-01T10:27:54.643Z</time>
      </trkpt>
      <trkpt lat="44.1335" lon="5.86668">
        <ele>1110</ele>
        <time>2021-06-01T10:27:55.643Z</time>
      </trkpt>
      <trkpt lat="44.13351" lon="5.86668">
        <ele>1110</ele>
        <time>2021-06-01T10:27:56.643Z</time>
      </trkpt>
      <trkpt lat="44.13351" lon="5.86667">
        <ele>1110</ele>
        <time>2021-06-01T10:27:57.643Z</time>
      </trkpt>
      <trkpt lat="44.13352" lon="5.86667">
        <ele>1110</ele>
        <time>2021-06-01T10:27:58.643Z</time>
      </trkpt>
      <trkpt lat="44.13353" lon="5.86667">
        <ele>1110</ele>
        <time>2021-06-01T10:27:59.643Z</time>
      </trkpt>
      <trkpt lat="44.13354" lon="5.86667">
        <ele>1110</ele>
        <time>2021-06-01T10:28:00.643Z</time>
      </trkpt>
      <trkpt lat="44.13355" lon="5.86667">
        <ele>1111</ele>
        <time>2021-06-01T10:28:01.643Z</time>
      </trkpt>
      <trkpt lat="44.13356" lon="5.86667">
        <ele>1111</ele>
        <time>2021-06-01T10:28:02.643Z</time>
      </trkpt>
      <trkpt lat="44.13357" lon="5.86668">
        <ele>1111</ele>
        <time>2021-06-01T10:28:03.643Z</time>
      </trkpt>
      <trkpt lat="44.13357" lon="5.86668">
        <ele>1111</ele>
        <time>2021-06-01T10:28:04.643Z</time>
      </trkpt>
      <trkpt lat="44.13358" lon="5.86669">
        <ele>1111</ele>
        <time>2021-06-01T10:28:05.643Z</time>
      </trkpt>
      <trkpt lat="44.13359" lon="5.8667">
        <ele>1111</ele>
        <time>2021-06-01T10:28:06.643Z</time>
      </trkpt>
      <trkpt lat="44.13359" lon="5.86671">
        <ele>1111</ele>
        <time>2021-06-01T10:28:07.643Z</time>
      </trkpt>
      <trkpt lat="44.1336" lon="5.86673">
        <ele>1111</ele>
        <time>2021-06-01T10:28:08.643Z</time>
      </trkpt>
      <trkpt lat="44.1336" lon="5.86674">
        <ele>1111</ele>
        <time>2021-06-01T10:28:09.643Z</time>
      </trkpt>
      <trkpt lat="44.1336" lon="5.86675">
        <ele>1111</ele>
        <time>2021-06-01T10:28:10.643Z</time>
      </trkpt>
      <trkpt lat="44.13361" lon="5.86676">
        <ele>1111</ele>
        <time>2021-06-01T10:28:11.643Z</time>
      </trkpt>
      <trkpt lat="44.13361" lon="5.86677">
        <ele>1111</ele>
        <time>2021-06-01T10:28:12.643Z</time>
      </trkpt>
      <trkpt lat="44.13362" lon="5.86678">
        <ele>1111</ele>
        <time>2021-06-01T10:28:13.643Z</time>
      </trkpt>
      <trkpt lat="44.13362" lon="5.8668">
        <ele>1112</ele>
        <time>2021-06-01T10:28:14.643Z</time>
      </trkpt>
      <trkpt lat="44.13363" lon="5.86681">
        <ele>1112</ele>
        <time>2021-06-01T10:28:15.643Z</time>
      </trkpt>
      <trkpt lat="44.13363" lon="5.86682">
        <ele>1112</ele>
        <time>2021-06-01T10:28:16.643Z</time>
      </trkpt>
      <trkpt lat="44.13364" lon="5.86683">
        <ele>1112</ele>
        <time>2021-06-01T10:28:17.643Z</time>
      </trkpt>
      <trkpt lat="44.13364" lon="5.86683">
        <ele>1112</ele>
        <time>2021-06-01T10:28:18.643Z</time>
      </trkpt>
      <trkpt lat="44.13365" lon="5.86685">
        <ele>1113</ele>
        <time>2021-06-01T10:28:19.643Z</time>
      </trkpt>
      <trkpt lat="44.13366" lon="5.86686">
        <ele>1113</ele>
        <time>2021-06-01T10:28:20.643Z</time>
      </trkpt>
      <trkpt lat="44.13366" lon="5.86687">
        <ele>1113</ele>
        <time>2021-06-01T10:28:21.643Z</time>
      </trkpt>
      <trkpt lat="44.13367" lon="5.86688">
        <ele>1113</ele>
        <time>2021-06-01T10:28:22.643Z</time>
      </trkpt>
      <trkpt lat="44.13368" lon="5.86689">
        <ele>1113</ele>
        <time>2021-06-01T10:28:23.643Z</time>
      </trkpt>
      <trkpt lat="44.13368" lon="5.8669">
        <ele>1113</ele>
        <time>2021-06-01T10:28:24.643Z</time>
      </trkpt>
      <trkpt lat="44.13369" lon="5.86691">
        <ele>1113</ele>
        <time>2021-06-01T10:28:25.643Z</time>
      </trkpt>
      <trkpt lat="44.1337" lon="5.86692">
        <ele>1114</ele>
        <time>2021-06-01T10:28:26.643Z</time>
      </trkpt>
      <trkpt lat="44.1337" lon="5.86693">
        <ele>1114</ele>
        <time>2021-06-01T10:28:27.643Z</time>
      </trkpt>
      <trkpt lat="44.1337" lon="5.86695">
        <ele>1114</ele>
        <time>2021-06-01T10:28:28.643Z</time>
      </trkpt>
      <trkpt lat="44.1337" lon="5.86696">
        <ele>1114</ele>
        <time>2021-06-01T10:28:29.643Z</time>
      </trkpt>
      <trkpt lat="44.13371" lon="5.86697">
        <ele>1114</ele>
        <time>2021-06-01T10:28:30.643Z</time>
      </trkpt>
      <trkpt lat="44.13371" lon="5.86698">
        <ele>1114</ele>
        <time>2021-06-01T10:28:31.643Z</time>
      </trkpt>
      <trkpt lat="44.13371" lon="5.86699">
        <ele>1114</ele>
        <time>2021-06-01T10:28:32.643Z</time>
      </trkpt>
      <trkpt lat="44.13372" lon="5.867">
        <ele>1114</ele>
        <time>2021-06-01T10:28:33.643Z</time>
      </trkpt>
      <trkpt lat="44.13372" lon="5.86701">
        <ele>1114</ele>
        <time>2021-06-01T10:28:34.643Z</time>
      </trkpt>
      <trkpt lat="44.13373" lon="5.86702">
        <ele>1115</ele>
        <time>2021-06-01T10:28:35.643Z</time>
      </trkpt>
      <trkpt lat="44.13373" lon="5.86703">
        <ele>1115</ele>
        <time>2021-06-01T10:28:36.643Z</time>
      </trkpt>
      <trkpt lat="44.13374" lon="5.86705">
        <ele>1115</ele>
        <time>2021-06-01T10:28:37.643Z</time>
      </trkpt>
      <trkpt lat="44.13374" lon="5.86706">
        <ele>1115</ele>
        <time>2021-06-01T10:28:38.643Z</time>
      </trkpt>
      <trkpt lat="44.13375" lon="5.86707">
        <ele>1115</ele>
        <time>2021-06-01T10:28:39.643Z</time>
      </trkpt>
      <trkpt lat="44.13376" lon="5.86708">
        <ele>1115</ele>
        <time>2021-06-01T10:28:40.643Z</time>
      </trkpt>
      <trkpt lat="44.13376" lon="5.86709">
        <ele>1115</ele>
        <time>2021-06-01T10:28:41.643Z</time>
      </trkpt>
      <trkpt lat="44.13377" lon="5.8671">
        <ele>1115</ele>
        <time>2021-06-01T10:28:42.643Z</time>
      </trkpt>
      <trkpt lat="44.13377" lon="5.86711">
        <ele>1115</ele>
        <time>2021-06-01T10:28:43.643Z</time>
      </trkpt>
      <trkpt lat="44.13378" lon="5.86712">
        <ele>1115</ele>
        <time>2021-06-01T10:28:44.643Z</time>
      </trkpt>
      <trkpt lat="44.13378" lon="5.86713">
        <ele>1116</ele>
        <time>2021-06-01T10:28:45.643Z</time>
      </trkpt>
      <trkpt lat="44.13379" lon="5.86714">
        <ele>1116</ele>
        <time>2021-06-01T10:28:46.643Z</time>
      </trkpt>
      <trkpt lat="44.1338" lon="5.86715">
        <ele>1116</ele>
        <time>2021-06-01T10:28:47.643Z</time>
      </trkpt>
      <trkpt lat="44.1338" lon="5.86716">
        <ele>1116</ele>
        <time>2021-06-01T10:28:48.643Z</time>
      </trkpt>
      <trkpt lat="44.13381" lon="5.86717">
        <ele>1116</ele>
        <time>2021-06-01T10:28:49.643Z</time>
      </trkpt>
      <trkpt lat="44.13381" lon="5.86718">
        <ele>1116</ele>
        <time>2021-06-01T10:28:50.643Z</time>
      </trkpt>
      <trkpt lat="44.13382" lon="5.8672">
        <ele>1116</ele>
        <time>2021-06-01T10:28:51.643Z</time>
      </trkpt>
      <trkpt lat="44.13382" lon="5.86721">
        <ele>1116</ele>
        <time>2021-06-01T10:28:52.643Z</time>
      </trkpt>
      <trkpt lat="44.13383" lon="5.86722">
        <ele>1116</ele>
        <time>2021-06-01T10:28:53.643Z</time>
      </trkpt>
      <trkpt lat="44.13383" lon="5.86723">
        <ele>1116</ele>
        <time>2021-06-01T10:28:54.643Z</time>
      </trkpt>
      <trkpt lat="44.13384" lon="5.86724">
        <ele>1117</ele>
        <time>2021-06-01T10:28:55.643Z</time>
      </trkpt>
      <trkpt lat="44.13384" lon="5.86725">
        <ele>1117</ele>
        <time>2021-06-01T10:28:56.643Z</time>
      </trkpt>
      <trkpt lat="44.13385" lon="5.86726">
        <ele>1117</ele>
        <time>2021-06-01T10:28:57.643Z</time>
      </trkpt>
      <trkpt lat="44.13385" lon="5.86727">
        <ele>1117</ele>
        <time>2021-06-01T10:28:58.643Z</time>
      </trkpt>
      <trkpt lat="44.13386" lon="5.86728">
        <ele>1117</ele>
        <time>2021-06-01T10:28:59.643Z</time>
      </trkpt>
      <trkpt lat="44.13386" lon="5.86729">
        <ele>1117</ele>
        <time>2021-06-01T10:29:00.643Z</time>
      </trkpt>
      <trkpt lat="44.13387" lon="5.8673">
        <ele>1117</ele>
        <time>2021-06-01T10:29:01.643Z</time>
      </trkpt>
      <trkpt lat="44.13388" lon="5.86731">
        <ele>1117</ele>
        <time>2021-06-01T10:29:02.643Z</time>
      </trkpt>
      <trkpt lat="44.13388" lon="5.86732">
        <ele>1118</ele>
        <time>2021-06-01T10:29:03.643Z</time>
      </trkpt>
      <trkpt lat="44.13389" lon="5.86733">
        <ele>1118</ele>
        <time>2021-06-01T10:29:04.643Z</time>
      </trkpt>
      <trkpt lat="44.13389" lon="5.86734">
        <ele>1118</ele>
        <time>2021-06-01T10:29:05.643Z</time>
      </trkpt>
      <trkpt lat="44.1339" lon="5.86734">
        <ele>1118</ele>
        <time>2021-06-01T10:29:06.643Z</time>
      </trkpt>
      <trkpt lat="44.1339" lon="5.86735">
        <ele>1118</ele>
        <time>2021-06-01T10:29:07.643Z</time>
      </trkpt>
      <trkpt lat="44.13391" lon="5.86736">
        <ele>1118</ele>
        <time>2021-06-01T10:29:08.643Z</time>
      </trkpt>
      <trkpt lat="44.13391" lon="5.86737">
        <ele>1118</ele>
        <time>2021-06-01T10:29:09.643Z</time>
      </trkpt>
      <trkpt lat="44.13392" lon="5.86738">
        <ele>1118</ele>
        <time>2021-06-01T10:29:10.643Z</time>
      </trkpt>
      <trkpt lat="44.13392" lon="5.86739">
        <ele>1118</ele>
        <time>2021-06-01T10:29:11.643Z</time>
      </trkpt>
      <trkpt lat="44.13393" lon="5.8674">
        <ele>1118</ele>
        <time>2021-06-01T10:29:12.643Z</time>
      </trkpt>
      <trkpt lat="44.13394" lon="5.86741">
        <ele>1118</ele>
        <time>2021-06-01T10:29:13.643Z</time>
      </trkpt>
      <trkpt lat="44.13394" lon="5.86742">
        <ele>1118</ele>
        <time>2021-06-01T10:29:14.643Z</time>
      </trkpt>
      <trkpt lat="44.13395" lon="5.86743">
        <ele>1118</ele>
        <time>2021-06-01T10:29:15.643Z</time>
      </trkpt>
      <trkpt lat="44.13395" lon="5.86744">
        <ele>1118</ele>
        <time>2021-06-01T10:29:16.643Z</time>
      </trkpt>
      <trkpt lat="44.13396" lon="5.86745">
        <ele>1118</ele>
        <time>2021-06-01T10:29:17.643Z</time>
      </trkpt>
      <trkpt lat="44.13397" lon="5.86746">
        <ele>1119</ele>
        <time>2021-06-01T10:29:18.643Z</time>
      </trkpt>
      <trkpt lat="44.13397" lon="5.86747">
        <ele>1119</ele>
        <time>2021-06-01T10:29:19.643Z</time>
      </trkpt>
      <trkpt lat="44.13398" lon="5.86748">
        <ele>1119</ele>
        <time>2021-06-01T10:29:20.643Z</time>
      </trkpt>
      <trkpt lat="44.13398" lon="5.86749">
        <ele>1119</ele>
        <time>2021-06-01T10:29:21.643Z</time>
      </trkpt>
      <trkpt lat="44.13399" lon="5.8675">
        <ele>1119</ele>
        <time>2021-06-01T10:29:22.643Z</time>
      </trkpt>
      <trkpt lat="44.13399" lon="5.86751">
        <ele>1119</ele>
        <time>2021-06-01T10:29:23.643Z</time>
      </trkpt>
      <trkpt lat="44.134" lon="5.86752">
        <ele>1119</ele>
        <time>2021-06-01T10:29:24.643Z</time>
      </trkpt>
      <trkpt lat="44.134" lon="5.86753">
        <ele>1119</ele>
        <time>2021-06-01T10:29:25.643Z</time>
      </trkpt>
      <trkpt lat="44.13401" lon="5.86753">
        <ele>1120</ele>
        <time>2021-06-01T10:29:26.643Z</time>
      </trkpt>
      <trkpt lat="44.13401" lon="5.86754">
        <ele>1120</ele>
        <time>2021-06-01T10:29:27.643Z</time>
      </trkpt>
      <trkpt lat="44.13402" lon="5.86755">
        <ele>1120</ele>
        <time>2021-06-01T10:29:28.643Z</time>
      </trkpt>
      <trkpt lat="44.13402" lon="5.86756">
        <ele>1120</ele>
        <time>2021-06-01T10:29:29.643Z</time>
      </trkpt>
      <trkpt lat="44.13403" lon="5.86757">
        <ele>1120</ele>
        <time>2021-06-01T10:29:30.643Z</time>
      </trkpt>
      <trkpt lat="44.13403" lon="5.86758">
        <ele>1120</ele>
        <time>2021-06-01T10:29:31.643Z</time>
      </trkpt>
      <trkpt lat="44.13404" lon="5.86759">
        <ele>1120</ele>
        <time>2021-06-01T10:29:32.643Z</time>
      </trkpt>
      <trkpt lat="44.13404" lon="5.8676">
        <ele>1120</ele>
        <time>2021-06-01T10:29:33.643Z</time>
      </trkpt>
      <trkpt lat="44.13405" lon="5.86761">
        <ele>1120</ele>
        <time>2021-06-01T10:29:34.643Z</time>
      </trkpt>
      <trkpt lat="44.13405" lon="5.86762">
        <ele>1120</ele>
        <time>2021-06-01T10:29:35.643Z</time>
      </trkpt>
      <trkpt lat="44.13406" lon="5.86763">
        <ele>1120</ele>
        <time>2021-06-01T10:29:36.643Z</time>
      </trkpt>
      <trkpt lat="44.13406" lon="5.86764">
        <ele>1120</ele>
        <time>2021-06-01T10:29:37.643Z</time>
      </trkpt>
      <trkpt lat="44.13407" lon="5.86765">
        <ele>1120</ele>
        <time>2021-06-01T10:29:38.643Z</time>
      </trkpt>
      <trkpt lat="44.13408" lon="5.86765">
        <ele>1120</ele>
        <time>2021-06-01T10:29:39.643Z</time>
      </trkpt>
      <trkpt lat="44.13408" lon="5.86766">
        <ele>1120</ele>
        <time>2021-06-01T10:29:40.643Z</time>
      </trkpt>
      <trkpt lat="44.13409" lon="5.86766">
        <ele>1121</ele>
        <time>2021-06-01T10:29:41.643Z</time>
      </trkpt>
      <trkpt lat="44.1341" lon="5.86767">
        <ele>1121</ele>
        <time>2021-06-01T10:29:42.643Z</time>
      </trkpt>
      <trkpt lat="44.1341" lon="5.86768">
        <ele>1121</ele>
        <time>2021-06-01T10:29:43.643Z</time>
      </trkpt>
      <trkpt lat="44.13411" lon="5.86769">
        <ele>1121</ele>
        <time>2021-06-01T10:29:44.643Z</time>
      </trkpt>
      <trkpt lat="44.13411" lon="5.8677">
        <ele>1121</ele>
        <time>2021-06-01T10:29:45.643Z</time>
      </trkpt>
      <trkpt lat="44.13412" lon="5.86771">
        <ele>1121</ele>
        <time>2021-06-01T10:29:46.643Z</time>
      </trkpt>
      <trkpt lat="44.13412" lon="5.86772">
        <ele>1121</ele>
        <time>2021-06-01T10:29:47.643Z</time>
      </trkpt>
      <trkpt lat="44.13413" lon="5.86773">
        <ele>1121</ele>
        <time>2021-06-01T10:29:48.643Z</time>
      </trkpt>
      <trkpt lat="44.13414" lon="5.86774">
        <ele>1121</ele>
        <time>2021-06-01T10:29:49.643Z</time>
      </trkpt>
      <trkpt lat="44.13414" lon="5.86775">
        <ele>1121</ele>
        <time>2021-06-01T10:29:50.643Z</time>
      </trkpt>
      <trkpt lat="44.13415" lon="5.86775">
        <ele>1121</ele>
        <time>2021-06-01T10:29:51.643Z</time>
      </trkpt>
      <trkpt lat="44.13416" lon="5.86776">
        <ele>1121</ele>
        <time>2021-06-01T10:29:52.643Z</time>
      </trkpt>
      <trkpt lat="44.13416" lon="5.86777">
        <ele>1121</ele>
        <time>2021-06-01T10:29:53.643Z</time>
      </trkpt>
      <trkpt lat="44.13417" lon="5.86778">
        <ele>1121</ele>
        <time>2021-06-01T10:29:54.643Z</time>
      </trkpt>
      <trkpt lat="44.13418" lon="5.86779">
        <ele>1121</ele>
        <time>2021-06-01T10:29:55.643Z</time>
      </trkpt>
      <trkpt lat="44.13418" lon="5.8678">
        <ele>1121</ele>
        <time>2021-06-01T10:29:56.643Z</time>
      </trkpt>
      <trkpt lat="44.13419" lon="5.8678">
        <ele>1121</ele>
        <time>2021-06-01T10:29:57.643Z</time>
      </trkpt>
      <trkpt lat="44.13419" lon="5.86781">
        <ele>1121</ele>
        <time>2021-06-01T10:29:58.643Z</time>
      </trkpt>
      <trkpt lat="44.13419" lon="5.86783">
        <ele>1121</ele>
        <time>2021-06-01T10:29:59.643Z</time>
      </trkpt>
      <trkpt lat="44.1342" lon="5.86784">
        <ele>1121</ele>
        <time>2021-06-01T10:30:00.643Z</time>
      </trkpt>
      <trkpt lat="44.1342" lon="5.86785">
        <ele>1121</ele>
        <time>2021-06-01T10:30:01.643Z</time>
      </trkpt>
      <trkpt lat="44.13421" lon="5.86786">
        <ele>1121</ele>
        <time>2021-06-01T10:30:02.643Z</time>
      </trkpt>
      <trkpt lat="44.13421" lon="5.86786">
        <ele>1121</ele>
        <time>2021-06-01T10:30:03.643Z</time>
      </trkpt>
      <trkpt lat="44.13422" lon="5.86787">
        <ele>1121</ele>
        <time>2021-06-01T10:30:04.643Z</time>
      </trkpt>
      <trkpt lat="44.13422" lon="5.86788">
        <ele>1121</ele>
        <time>2021-06-01T10:30:05.643Z</time>
      </trkpt>
      <trkpt lat="44.13423" lon="5.86789">
        <ele>1121</ele>
        <time>2021-06-01T10:30:06.643Z</time>
      </trkpt>
      <trkpt lat="44.13424" lon="5.8679">
        <ele>1121</ele>
        <time>2021-06-01T10:30:07.643Z</time>
      </trkpt>
      <trkpt lat="44.13424" lon="5.86791">
        <ele>1121</ele>
        <time>2021-06-01T10:30:08.643Z</time>
      </trkpt>
      <trkpt lat="44.13425" lon="5.86792">
        <ele>1121</ele>
        <time>2021-06-01T10:30:09.643Z</time>
      </trkpt>
      <trkpt lat="44.13425" lon="5.86793">
        <ele>1121</ele>
        <time>2021-06-01T10:30:10.643Z</time>
      </trkpt>
      <trkpt lat="44.13425" lon="5.86794">
        <ele>1122</ele>
        <time>2021-06-01T10:30:11.643Z</time>
      </trkpt>
      <trkpt lat="44.13426" lon="5.86795">
        <ele>1122</ele>
        <time>2021-06-01T10:30:12.643Z</time>
      </trkpt>
      <trkpt lat="44.13426" lon="5.86796">
        <ele>1122</ele>
        <time>2021-06-01T10:30:13.643Z</time>
      </trkpt>
      <trkpt lat="44.13427" lon="5.86797">
        <ele>1122</ele>
        <time>2021-06-01T10:30:14.643Z</time>
      </trkpt>
      <trkpt lat="44.13427" lon="5.86797">
        <ele>1122</ele>
        <time>2021-06-01T10:30:15.643Z</time>
      </trkpt>
      <trkpt lat="44.13428" lon="5.86798">
        <ele>1122</ele>
        <time>2021-06-01T10:30:16.643Z</time>
      </trkpt>
      <trkpt lat="44.13429" lon="5.86799">
        <ele>1122</ele>
        <time>2021-06-01T10:30:17.643Z</time>
      </trkpt>
      <trkpt lat="44.13429" lon="5.868">
        <ele>1122</ele>
        <time>2021-06-01T10:30:18.643Z</time>
      </trkpt>
      <trkpt lat="44.1343" lon="5.86801">
        <ele>1122</ele>
        <time>2021-06-01T10:30:19.643Z</time>
      </trkpt>
      <trkpt lat="44.1343" lon="5.86802">
        <ele>1122</ele>
        <time>2021-06-01T10:30:20.643Z</time>
      </trkpt>
      <trkpt lat="44.13431" lon="5.86803">
        <ele>1122</ele>
        <time>2021-06-01T10:30:21.643Z</time>
      </trkpt>
      <trkpt lat="44.13432" lon="5.86803">
        <ele>1122</ele>
        <time>2021-06-01T10:30:22.643Z</time>
      </trkpt>
      <trkpt lat="44.13432" lon="5.86804">
        <ele>1123</ele>
        <time>2021-06-01T10:30:23.643Z</time>
      </trkpt>
      <trkpt lat="44.13433" lon="5.86805">
        <ele>1123</ele>
        <time>2021-06-01T10:30:24.643Z</time>
      </trkpt>
      <trkpt lat="44.13433" lon="5.86806">
        <ele>1123</ele>
        <time>2021-06-01T10:30:25.643Z</time>
      </trkpt>
      <trkpt lat="44.13434" lon="5.86807">
        <ele>1123</ele>
        <time>2021-06-01T10:30:26.643Z</time>
      </trkpt>
      <trkpt lat="44.13435" lon="5.86808">
        <ele>1123</ele>
        <time>2021-06-01T10:30:27.643Z</time>
      </trkpt>
      <trkpt lat="44.13435" lon="5.86809">
        <ele>1123</ele>
        <time>2021-06-01T10:30:28.643Z</time>
      </trkpt>
      <trkpt lat="44.13436" lon="5.8681">
        <ele>1123</ele>
        <time>2021-06-01T10:30:29.643Z</time>
      </trkpt>
      <trkpt lat="44.13436" lon="5.86811">
        <ele>1123</ele>
        <time>2021-06-01T10:30:30.643Z</time>
      </trkpt>
      <trkpt lat="44.13437" lon="5.86812">
        <ele>1123</ele>
        <time>2021-06-01T10:30:31.643Z</time>
      </trkpt>
      <trkpt lat="44.13437" lon="5.86813">
        <ele>1124</ele>
        <time>2021-06-01T10:30:32.643Z</time>
      </trkpt>
      <trkpt lat="44.13438" lon="5.86814">
        <ele>1124</ele>
        <time>2021-06-01T10:30:33.643Z</time>
      </trkpt>
      <trkpt lat="44.13439" lon="5.86815">
        <ele>1124</ele>
        <time>2021-06-01T10:30:34.643Z</time>
      </trkpt>
      <trkpt lat="44.13439" lon="5.86816">
        <ele>1124</ele>
        <time>2021-06-01T10:30:35.643Z</time>
      </trkpt>
      <trkpt lat="44.1344" lon="5.86817">
        <ele>1124</ele>
        <time>2021-06-01T10:30:36.643Z</time>
      </trkpt>
      <trkpt lat="44.1344" lon="5.86818">
        <ele>1124</ele>
        <time>2021-06-01T10:30:37.643Z</time>
      </trkpt>
      <trkpt lat="44.13441" lon="5.86819">
        <ele>1125</ele>
        <time>2021-06-01T10:30:38.643Z</time>
      </trkpt>
      <trkpt lat="44.13442" lon="5.86819">
        <ele>1125</ele>
        <time>2021-06-01T10:30:39.643Z</time>
      </trkpt>
      <trkpt lat="44.13442" lon="5.8682">
        <ele>1125</ele>
        <time>2021-06-01T10:30:40.643Z</time>
      </trkpt>
      <trkpt lat="44.13443" lon="5.86821">
        <ele>1125</ele>
        <time>2021-06-01T10:30:41.643Z</time>
      </trkpt>
      <trkpt lat="44.13443" lon="5.86822">
        <ele>1125</ele>
        <time>2021-06-01T10:30:42.643Z</time>
      </trkpt>
      <trkpt lat="44.13444" lon="5.86823">
        <ele>1125</ele>
        <time>2021-06-01T10:30:43.643Z</time>
      </trkpt>
      <trkpt lat="44.13444" lon="5.86824">
        <ele>1125</ele>
        <time>2021-06-01T10:30:44.643Z</time>
      </trkpt>
      <trkpt lat="44.13445" lon="5.86825">
        <ele>1125</ele>
        <time>2021-06-01T10:30:45.643Z</time>
      </trkpt>
      <trkpt lat="44.13445" lon="5.86826">
        <ele>1125</ele>
        <time>2021-06-01T10:30:46.643Z</time>
      </trkpt>
      <trkpt lat="44.13446" lon="5.86826">
        <ele>1125</ele>
        <time>2021-06-01T10:30:47.643Z</time>
      </trkpt>
      <trkpt lat="44.13446" lon="5.86827">
        <ele>1125</ele>
        <time>2021-06-01T10:30:48.643Z</time>
      </trkpt>
      <trkpt lat="44.13447" lon="5.86828">
        <ele>1125</ele>
        <time>2021-06-01T10:30:49.643Z</time>
      </trkpt>
      <trkpt lat="44.13447" lon="5.86829">
        <ele>1125</ele>
        <time>2021-06-01T10:30:50.643Z</time>
      </trkpt>
      <trkpt lat="44.13448" lon="5.8683">
        <ele>1125</ele>
        <time>2021-06-01T10:30:51.643Z</time>
      </trkpt>
      <trkpt lat="44.13448" lon="5.86831">
        <ele>1125</ele>
        <time>2021-06-01T10:30:52.643Z</time>
      </trkpt>
      <trkpt lat="44.13449" lon="5.86832">
        <ele>1125</ele>
        <time>2021-06-01T10:30:53.643Z</time>
      </trkpt>
      <trkpt lat="44.13449" lon="5.86833">
        <ele>1126</ele>
        <time>2021-06-01T10:30:54.643Z</time>
      </trkpt>
      <trkpt lat="44.1345" lon="5.86834">
        <ele>1126</ele>
        <time>2021-06-01T10:30:55.643Z</time>
      </trkpt>
      <trkpt lat="44.13451" lon="5.86835">
        <ele>1126</ele>
        <time>2021-06-01T10:30:56.643Z</time>
      </trkpt>
      <trkpt lat="44.13451" lon="5.86836">
        <ele>1126</ele>
        <time>2021-06-01T10:30:57.643Z</time>
      </trkpt>
      <trkpt lat="44.13452" lon="5.86836">
        <ele>1126</ele>
        <time>2021-06-01T10:30:58.643Z</time>
      </trkpt>
      <trkpt lat="44.13452" lon="5.86837">
        <ele>1126</ele>
        <time>2021-06-01T10:30:59.643Z</time>
      </trkpt>
      <trkpt lat="44.13453" lon="5.86838">
        <ele>1126</ele>
        <time>2021-06-01T10:31:00.643Z</time>
      </trkpt>
      <trkpt lat="44.13453" lon="5.86839">
        <ele>1126</ele>
        <time>2021-06-01T10:31:01.643Z</time>
      </trkpt>
      <trkpt lat="44.13454" lon="5.8684">
        <ele>1126</ele>
        <time>2021-06-01T10:31:02.643Z</time>
      </trkpt>
      <trkpt lat="44.13454" lon="5.86841">
        <ele>1127</ele>
        <time>2021-06-01T10:31:03.643Z</time>
      </trkpt>
      <trkpt lat="44.13455" lon="5.86841">
        <ele>1127</ele>
        <time>2021-06-01T10:31:04.643Z</time>
      </trkpt>
      <trkpt lat="44.13455" lon="5.86842">
        <ele>1127</ele>
        <time>2021-06-01T10:31:05.643Z</time>
      </trkpt>
      <trkpt lat="44.13456" lon="5.86843">
        <ele>1127</ele>
        <time>2021-06-01T10:31:06.643Z</time>
      </trkpt>
      <trkpt lat="44.13457" lon="5.86844">
        <ele>1127</ele>
        <time>2021-06-01T10:31:07.643Z</time>
      </trkpt>
      <trkpt lat="44.13457" lon="5.86845">
        <ele>1127</ele>
        <time>2021-06-01T10:31:08.643Z</time>
      </trkpt>
      <trkpt lat="44.13458" lon="5.86846">
        <ele>1127</ele>
        <time>2021-06-01T10:31:09.643Z</time>
      </trkpt>
      <trkpt lat="44.13458" lon="5.86847">
        <ele>1127</ele>
        <time>2021-06-01T10:31:10.643Z</time>
      </trkpt>
      <trkpt lat="44.13459" lon="5.86848">
        <ele>1127</ele>
        <time>2021-06-01T10:31:11.643Z</time>
      </trkpt>
      <trkpt lat="44.13459" lon="5.86849">
        <ele>1128</ele>
        <time>2021-06-01T10:31:12.643Z</time>
      </trkpt>
      <trkpt lat="44.1346" lon="5.8685">
        <ele>1128</ele>
        <time>2021-06-01T10:31:13.643Z</time>
      </trkpt>
      <trkpt lat="44.13461" lon="5.86851">
        <ele>1128</ele>
        <time>2021-06-01T10:31:14.643Z</time>
      </trkpt>
      <trkpt lat="44.13461" lon="5.86852">
        <ele>1128</ele>
        <time>2021-06-01T10:31:15.643Z</time>
      </trkpt>
      <trkpt lat="44.13462" lon="5.86852">
        <ele>1128</ele>
        <time>2021-06-01T10:31:16.643Z</time>
      </trkpt>
      <trkpt lat="44.13462" lon="5.86853">
        <ele>1128</ele>
        <time>2021-06-01T10:31:17.643Z</time>
      </trkpt>
      <trkpt lat="44.13463" lon="5.86854">
        <ele>1128</ele>
        <time>2021-06-01T10:31:18.643Z</time>
      </trkpt>
      <trkpt lat="44.13464" lon="5.86855">
        <ele>1128</ele>
        <time>2021-06-01T10:31:19.643Z</time>
      </trkpt>
      <trkpt lat="44.13464" lon="5.86856">
        <ele>1128</ele>
        <time>2021-06-01T10:31:20.643Z</time>
      </trkpt>
      <trkpt lat="44.13465" lon="5.86856">
        <ele>1129</ele>
        <time>2021-06-01T10:31:21.643Z</time>
      </trkpt>
      <trkpt lat="44.13465" lon="5.86858">
        <ele>1129</ele>
        <time>2021-06-01T10:31:22.643Z</time>
      </trkpt>
      <trkpt lat="44.13466" lon="5.86859">
        <ele>1129</ele>
        <time>2021-06-01T10:31:23.643Z</time>
      </trkpt>
      <trkpt lat="44.13467" lon="5.8686">
        <ele>1129</ele>
        <time>2021-06-01T10:31:24.643Z</time>
      </trkpt>
      <trkpt lat="44.13467" lon="5.86861">
        <ele>1129</ele>
        <time>2021-06-01T10:31:25.643Z</time>
      </trkpt>
      <trkpt lat="44.13468" lon="5.86862">
        <ele>1130</ele>
        <time>2021-06-01T10:31:26.643Z</time>
      </trkpt>
      <trkpt lat="44.13468" lon="5.86863">
        <ele>1130</ele>
        <time>2021-06-01T10:31:27.643Z</time>
      </trkpt>
      <trkpt lat="44.13469" lon="5.86864">
        <ele>1130</ele>
        <time>2021-06-01T10:31:28.643Z</time>
      </trkpt>
      <trkpt lat="44.13469" lon="5.86864">
        <ele>1130</ele>
        <time>2021-06-01T10:31:29.643Z</time>
      </trkpt>
      <trkpt lat="44.1347" lon="5.86865">
        <ele>1130</ele>
        <time>2021-06-01T10:31:30.643Z</time>
      </trkpt>
      <trkpt lat="44.13471" lon="5.86866">
        <ele>1130</ele>
        <time>2021-06-01T10:31:31.643Z</time>
      </trkpt>
      <trkpt lat="44.13471" lon="5.86867">
        <ele>1130</ele>
        <time>2021-06-01T10:31:32.643Z</time>
      </trkpt>
      <trkpt lat="44.13472" lon="5.86868">
        <ele>1130</ele>
        <time>2021-06-01T10:31:33.643Z</time>
      </trkpt>
      <trkpt lat="44.13472" lon="5.86869">
        <ele>1131</ele>
        <time>2021-06-01T10:31:34.643Z</time>
      </trkpt>
      <trkpt lat="44.13473" lon="5.8687">
        <ele>1131</ele>
        <time>2021-06-01T10:31:35.643Z</time>
      </trkpt>
      <trkpt lat="44.13473" lon="5.86871">
        <ele>1131</ele>
        <time>2021-06-01T10:31:36.643Z</time>
      </trkpt>
      <trkpt lat="44.13474" lon="5.86872">
        <ele>1131</ele>
        <time>2021-06-01T10:31:37.643Z</time>
      </trkpt>
      <trkpt lat="44.13474" lon="5.86873">
        <ele>1131</ele>
        <time>2021-06-01T10:31:38.643Z</time>
      </trkpt>
      <trkpt lat="44.13475" lon="5.86874">
        <ele>1131</ele>
        <time>2021-06-01T10:31:39.643Z</time>
      </trkpt>
      <trkpt lat="44.13476" lon="5.86874">
        <ele>1131</ele>
        <time>2021-06-01T10:31:40.643Z</time>
      </trkpt>
      <trkpt lat="44.13476" lon="5.86875">
        <ele>1131</ele>
        <time>2021-06-01T10:31:41.643Z</time>
      </trkpt>
      <trkpt lat="44.13477" lon="5.86876">
        <ele>1131</ele>
        <time>2021-06-01T10:31:42.643Z</time>
      </trkpt>
      <trkpt lat="44.13478" lon="5.86877">
        <ele>1131</ele>
        <time>2021-06-01T10:31:43.643Z</time>
      </trkpt>
      <trkpt lat="44.13479" lon="5.86878">
        <ele>1132</ele>
        <time>2021-06-01T10:31:44.643Z</time>
      </trkpt>
      <trkpt lat="44.13479" lon="5.86879">
        <ele>1132</ele>
        <time>2021-06-01T10:31:45.643Z</time>
      </trkpt>
      <trkpt lat="44.1348" lon="5.8688">
        <ele>1132</ele>
        <time>2021-06-01T10:31:46.643Z</time>
      </trkpt>
      <trkpt lat="44.1348" lon="5.86881">
        <ele>1132</ele>
        <time>2021-06-01T10:31:47.643Z</time>
      </trkpt>
      <trkpt lat="44.13481" lon="5.86882">
        <ele>1132</ele>
        <time>2021-06-01T10:31:48.643Z</time>
      </trkpt>
      <trkpt lat="44.13481" lon="5.86883">
        <ele>1132</ele>
        <time>2021-06-01T10:31:49.643Z</time>
      </trkpt>
      <trkpt lat="44.13482" lon="5.86884">
        <ele>1132</ele>
        <time>2021-06-01T10:31:50.643Z</time>
      </trkpt>
      <trkpt lat="44.13482" lon="5.86885">
        <ele>1132</ele>
        <time>2021-06-01T10:31:51.643Z</time>
      </trkpt>
      <trkpt lat="44.13483" lon="5.86886">
        <ele>1132</ele>
        <time>2021-06-01T10:31:52.643Z</time>
      </trkpt>
      <trkpt lat="44.13483" lon="5.86887">
        <ele>1132</ele>
        <time>2021-06-01T10:31:53.643Z</time>
      </trkpt>
      <trkpt lat="44.13484" lon="5.86888">
        <ele>1132</ele>
        <time>2021-06-01T10:31:54.643Z</time>
      </trkpt>
      <trkpt lat="44.13484" lon="5.86889">
        <ele>1133</ele>
        <time>2021-06-01T10:31:55.643Z</time>
      </trkpt>
      <trkpt lat="44.13485" lon="5.8689">
        <ele>1133</ele>
        <time>2021-06-01T10:31:56.643Z</time>
      </trkpt>
      <trkpt lat="44.13485" lon="5.86891">
        <ele>1133</ele>
        <time>2021-06-01T10:31:57.643Z</time>
      </trkpt>
      <trkpt lat="44.13486" lon="5.86892">
        <ele>1133</ele>
        <time>2021-06-01T10:31:58.643Z</time>
      </trkpt>
      <trkpt lat="44.13487" lon="5.86893">
        <ele>1133</ele>
        <time>2021-06-01T10:31:59.643Z</time>
      </trkpt>
      <trkpt lat="44.13487" lon="5.86894">
        <ele>1133</ele>
        <time>2021-06-01T10:32:00.643Z</time>
      </trkpt>
      <trkpt lat="44.13488" lon="5.86895">
        <ele>1133</ele>
        <time>2021-06-01T10:32:01.643Z</time>
      </trkpt>
      <trkpt lat="44.13488" lon="5.86896">
        <ele>1133</ele>
        <time>2021-06-01T10:32:02.643Z</time>
      </trkpt>
      <trkpt lat="44.13489" lon="5.86897">
        <ele>1133</ele>
        <time>2021-06-01T10:32:03.643Z</time>
      </trkpt>
      <trkpt lat="44.13489" lon="5.86898">
        <ele>1133</ele>
        <time>2021-06-01T10:32:04.643Z</time>
      </trkpt>
      <trkpt lat="44.1349" lon="5.86899">
        <ele>1133</ele>
        <time>2021-06-01T10:32:05.643Z</time>
      </trkpt>
      <trkpt lat="44.1349" lon="5.869">
        <ele>1134</ele>
        <time>2021-06-01T10:32:06.643Z</time>
      </trkpt>
      <trkpt lat="44.13491" lon="5.86901">
        <ele>1134</ele>
        <time>2021-06-01T10:32:07.643Z</time>
      </trkpt>
      <trkpt lat="44.13491" lon="5.86902">
        <ele>1134</ele>
        <time>2021-06-01T10:32:08.643Z</time>
      </trkpt>
      <trkpt lat="44.13492" lon="5.86903">
        <ele>1134</ele>
        <time>2021-06-01T10:32:09.643Z</time>
      </trkpt>
      <trkpt lat="44.13492" lon="5.86904">
        <ele>1134</ele>
        <time>2021-06-01T10:32:10.643Z</time>
      </trkpt>
      <trkpt lat="44.13493" lon="5.86905">
        <ele>1134</ele>
        <time>2021-06-01T10:32:11.643Z</time>
      </trkpt>
      <trkpt lat="44.13494" lon="5.86906">
        <ele>1134</ele>
        <time>2021-06-01T10:32:12.643Z</time>
      </trkpt>
      <trkpt lat="44.13494" lon="5.86907">
        <ele>1134</ele>
        <time>2021-06-01T10:32:13.643Z</time>
      </trkpt>
      <trkpt lat="44.13495" lon="5.86908">
        <ele>1134</ele>
        <time>2021-06-01T10:32:14.643Z</time>
      </trkpt>
      <trkpt lat="44.13495" lon="5.86909">
        <ele>1135</ele>
        <time>2021-06-01T10:32:15.643Z</time>
      </trkpt>
      <trkpt lat="44.13496" lon="5.8691">
        <ele>1135</ele>
        <time>2021-06-01T10:32:16.643Z</time>
      </trkpt>
      <trkpt lat="44.13496" lon="5.86911">
        <ele>1135</ele>
        <time>2021-06-01T10:32:17.643Z</time>
      </trkpt>
      <trkpt lat="44.13497" lon="5.86912">
        <ele>1135</ele>
        <time>2021-06-01T10:32:18.643Z</time>
      </trkpt>
      <trkpt lat="44.13497" lon="5.86913">
        <ele>1135</ele>
        <time>2021-06-01T10:32:19.643Z</time>
      </trkpt>
      <trkpt lat="44.13498" lon="5.86914">
        <ele>1135</ele>
        <time>2021-06-01T10:32:20.643Z</time>
      </trkpt>
      <trkpt lat="44.13499" lon="5.86915">
        <ele>1135</ele>
        <time>2021-06-01T10:32:21.643Z</time>
      </trkpt>
      <trkpt lat="44.13499" lon="5.86916">
        <ele>1135</ele>
        <time>2021-06-01T10:32:22.643Z</time>
      </trkpt>
      <trkpt lat="44.135" lon="5.86917">
        <ele>1135</ele>
        <time>2021-06-01T10:32:23.643Z</time>
      </trkpt>
      <trkpt lat="44.135" lon="5.86918">
        <ele>1135</ele>
        <time>2021-06-01T10:32:24.643Z</time>
      </trkpt>
      <trkpt lat="44.13501" lon="5.86919">
        <ele>1135</ele>
        <time>2021-06-01T10:32:25.643Z</time>
      </trkpt>
      <trkpt lat="44.13501" lon="5.8692">
        <ele>1135</ele>
        <time>2021-06-01T10:32:26.643Z</time>
      </trkpt>
      <trkpt lat="44.13502" lon="5.86921">
        <ele>1136</ele>
        <time>2021-06-01T10:32:27.643Z</time>
      </trkpt>
      <trkpt lat="44.13502" lon="5.86922">
        <ele>1136</ele>
        <time>2021-06-01T10:32:28.643Z</time>
      </trkpt>
      <trkpt lat="44.13502" lon="5.86923">
        <ele>1136</ele>
        <time>2021-06-01T10:32:29.643Z</time>
      </trkpt>
      <trkpt lat="44.13503" lon="5.86924">
        <ele>1136</ele>
        <time>2021-06-01T10:32:30.643Z</time>
      </trkpt>
      <trkpt lat="44.13503" lon="5.86925">
        <ele>1136</ele>
        <time>2021-06-01T10:32:31.643Z</time>
      </trkpt>
      <trkpt lat="44.13504" lon="5.86926">
        <ele>1136</ele>
        <time>2021-06-01T10:32:32.643Z</time>
      </trkpt>
      <trkpt lat="44.13504" lon="5.86927">
        <ele>1136</ele>
        <time>2021-06-01T10:32:33.643Z</time>
      </trkpt>
      <trkpt lat="44.13504" lon="5.86928">
        <ele>1136</ele>
        <time>2021-06-01T10:32:34.643Z</time>
      </trkpt>
      <trkpt lat="44.13505" lon="5.86929">
        <ele>1136</ele>
        <time>2021-06-01T10:32:35.643Z</time>
      </trkpt>
      <trkpt lat="44.13505" lon="5.86931">
        <ele>1136</ele>
        <time>2021-06-01T10:32:36.643Z</time>
      </trkpt>
      <trkpt lat="44.13506" lon="5.86932">
        <ele>1136</ele>
        <time>2021-06-01T10:32:37.643Z</time>
      </trkpt>
      <trkpt lat="44.13506" lon="5.86933">
        <ele>1136</ele>
        <time>2021-06-01T10:32:38.643Z</time>
      </trkpt>
      <trkpt lat="44.13506" lon="5.86934">
        <ele>1136</ele>
        <time>2021-06-01T10:32:39.643Z</time>
      </trkpt>
      <trkpt lat="44.13507" lon="5.86935">
        <ele>1136</ele>
        <time>2021-06-01T10:32:40.643Z</time>
      </trkpt>
      <trkpt lat="44.13507" lon="5.86936">
        <ele>1136</ele>
        <time>2021-06-01T10:32:41.643Z</time>
      </trkpt>
      <trkpt lat="44.13508" lon="5.86936">
        <ele>1136</ele>
        <time>2021-06-01T10:32:42.643Z</time>
      </trkpt>
      <trkpt lat="44.13509" lon="5.86936">
        <ele>1136</ele>
        <time>2021-06-01T10:32:43.643Z</time>
      </trkpt>
      <trkpt lat="44.13509" lon="5.86936">
        <ele>1137</ele>
        <time>2021-06-01T10:32:44.643Z</time>
      </trkpt>
      <trkpt lat="44.1351" lon="5.86936">
        <ele>1137</ele>
        <time>2021-06-01T10:32:45.643Z</time>
      </trkpt>
      <trkpt lat="44.1351" lon="5.86935">
        <ele>1137</ele>
        <time>2021-06-01T10:32:46.643Z</time>
      </trkpt>
      <trkpt lat="44.13511" lon="5.86935">
        <ele>1137</ele>
        <time>2021-06-01T10:32:47.643Z</time>
      </trkpt>
      <trkpt lat="44.13511" lon="5.86933">
        <ele>1137</ele>
        <time>2021-06-01T10:32:48.643Z</time>
      </trkpt>
      <trkpt lat="44.13511" lon="5.86932">
        <ele>1137</ele>
        <time>2021-06-01T10:32:49.643Z</time>
      </trkpt>
      <trkpt lat="44.13511" lon="5.86931">
        <ele>1137</ele>
        <time>2021-06-01T10:32:50.643Z</time>
      </trkpt>
      <trkpt lat="44.13511" lon="5.8693">
        <ele>1137</ele>
        <time>2021-06-01T10:32:51.643Z</time>
      </trkpt>
      <trkpt lat="44.13511" lon="5.86929">
        <ele>1137</ele>
        <time>2021-06-01T10:32:52.643Z</time>
      </trkpt>
      <trkpt lat="44.13511" lon="5.86928">
        <ele>1137</ele>
        <time>2021-06-01T10:32:53.643Z</time>
      </trkpt>
      <trkpt lat="44.13511" lon="5.86926">
        <ele>1137</ele>
        <time>2021-06-01T10:32:54.643Z</time>
      </trkpt>
      <trkpt lat="44.13511" lon="5.86925">
        <ele>1137</ele>
        <time>2021-06-01T10:32:55.643Z</time>
      </trkpt>
      <trkpt lat="44.1351" lon="5.86924">
        <ele>1137</ele>
        <time>2021-06-01T10:32:56.643Z</time>
      </trkpt>
      <trkpt lat="44.1351" lon="5.86923">
        <ele>1137</ele>
        <time>2021-06-01T10:32:57.643Z</time>
      </trkpt>
      <trkpt lat="44.13509" lon="5.86922">
        <ele>1137</ele>
        <time>2021-06-01T10:32:58.643Z</time>
      </trkpt>
      <trkpt lat="44.13509" lon="5.8692">
        <ele>1137</ele>
        <time>2021-06-01T10:32:59.643Z</time>
      </trkpt>
      <trkpt lat="44.13509" lon="5.86919">
        <ele>1137</ele>
        <time>2021-06-01T10:33:00.643Z</time>
      </trkpt>
      <trkpt lat="44.13509" lon="5.86918">
        <ele>1138</ele>
        <time>2021-06-01T10:33:01.643Z</time>
      </trkpt>
      <trkpt lat="44.13508" lon="5.86917">
        <ele>1138</ele>
        <time>2021-06-01T10:33:02.643Z</time>
      </trkpt>
      <trkpt lat="44.13508" lon="5.86916">
        <ele>1138</ele>
        <time>2021-06-01T10:33:03.643Z</time>
      </trkpt>
      <trkpt lat="44.13508" lon="5.86914">
        <ele>1138</ele>
        <time>2021-06-01T10:33:04.643Z</time>
      </trkpt>
      <trkpt lat="44.13508" lon="5.86913">
        <ele>1138</ele>
        <time>2021-06-01T10:33:05.643Z</time>
      </trkpt>
      <trkpt lat="44.13508" lon="5.86912">
        <ele>1138</ele>
        <time>2021-06-01T10:33:06.643Z</time>
      </trkpt>
      <trkpt lat="44.13508" lon="5.86911">
        <ele>1138</ele>
        <time>2021-06-01T10:33:07.643Z</time>
      </trkpt>
      <trkpt lat="44.13508" lon="5.8691">
        <ele>1138</ele>
        <time>2021-06-01T10:33:08.643Z</time>
      </trkpt>
      <trkpt lat="44.13508" lon="5.86909">
        <ele>1138</ele>
        <time>2021-06-01T10:33:09.643Z</time>
      </trkpt>
      <trkpt lat="44.13508" lon="5.86908">
        <ele>1138</ele>
        <time>2021-06-01T10:33:10.643Z</time>
      </trkpt>
      <trkpt lat="44.13508" lon="5.86908">
        <ele>1138</ele>
        <time>2021-06-01T10:33:11.643Z</time>
      </trkpt>
      <trkpt lat="44.13508" lon="5.86907">
        <ele>1138</ele>
        <time>2021-06-01T10:33:12.643Z</time>
      </trkpt>
      <trkpt lat="44.13508" lon="5.86907">
        <ele>1138</ele>
        <time>2021-06-01T10:33:13.643Z</time>
      </trkpt>
      <trkpt lat="44.13508" lon="5.86907">
        <ele>1138</ele>
        <time>2021-06-01T10:33:14.643Z</time>
      </trkpt>
      <trkpt lat="44.13508" lon="5.86907">
        <ele>1138</ele>
        <time>2021-06-01T10:33:15.643Z</time>
      </trkpt>
      <trkpt lat="44.13508" lon="5.86907">
        <ele>1138</ele>
        <time>2021-06-01T10:33:16.643Z</time>
      </trkpt>
      <trkpt lat="44.13509" lon="5.86907">
        <ele>1138</ele>
        <time>2021-06-01T10:33:17.643Z</time>
      </trkpt>
      <trkpt lat="44.13509" lon="5.86907">
        <ele>1138</ele>
        <time>2021-06-01T10:33:18.643Z</time>
      </trkpt>
      <trkpt lat="44.13509" lon="5.86907">
        <ele>1138</ele>
        <time>2021-06-01T10:33:19.643Z</time>
      </trkpt>
      <trkpt lat="44.13508" lon="5.86907">
        <ele>1138</ele>
        <time>2021-06-01T10:33:20.643Z</time>
      </trkpt>
      <trkpt lat="44.13509" lon="5.86906">
        <ele>1138</ele>
        <time>2021-06-01T10:33:21.643Z</time>
      </trkpt>
      <trkpt lat="44.13508" lon="5.86906">
        <ele>1138</ele>
        <time>2021-06-01T10:33:22.643Z</time>
      </trkpt>
      <trkpt lat="44.13508" lon="5.86905">
        <ele>1138</ele>
        <time>2021-06-01T10:33:23.643Z</time>
      </trkpt>
      <trkpt lat="44.13508" lon="5.86904">
        <ele>1138</ele>
        <time>2021-06-01T10:33:24.643Z</time>
      </trkpt>
      <trkpt lat="44.13508" lon="5.86904">
        <ele>1138</ele>
        <time>2021-06-01T10:33:25.643Z</time>
      </trkpt>
      <trkpt lat="44.13508" lon="5.86903">
        <ele>1138</ele>
        <time>2021-06-01T10:33:26.643Z</time>
      </trkpt>
      <trkpt lat="44.13508" lon="5.86902">
        <ele>1138</ele>
        <time>2021-06-01T10:33:27.643Z</time>
      </trkpt>
      <trkpt lat="44.13508" lon="5.86902">
        <ele>1138</ele>
        <time>2021-06-01T10:33:28.643Z</time>
      </trkpt>
      <trkpt lat="44.13508" lon="5.86902">
        <ele>1138</ele>
        <time>2021-06-01T10:33:29.643Z</time>
      </trkpt>
      <trkpt lat="44.13508" lon="5.86902">
        <ele>1138</ele>
        <time>2021-06-01T10:33:30.643Z</time>
      </trkpt>
      <trkpt lat="44.13508" lon="5.86902">
        <ele>1138</ele>
        <time>2021-06-01T10:33:31.643Z</time>
      </trkpt>
      <trkpt lat="44.13508" lon="5.86902">
        <ele>1138</ele>
        <time>2021-06-01T10:33:32.643Z</time>
      </trkpt>
      <trkpt lat="44.13508" lon="5.86902">
        <ele>1138</ele>
        <time>2021-06-01T10:33:33.643Z</time>
      </trkpt>
      <trkpt lat="44.13508" lon="5.86901">
        <ele>1138</ele>
        <time>2021-06-01T10:33:34.643Z</time>
      </trkpt>
      <trkpt lat="44.13509" lon="5.86901">
        <ele>1138</ele>
        <time>2021-06-01T10:33:35.643Z</time>
      </trkpt>
      <trkpt lat="44.13509" lon="5.869">
        <ele>1138</ele>
        <time>2021-06-01T10:33:36.643Z</time>
      </trkpt>
      <trkpt lat="44.13508" lon="5.86899">
        <ele>1138</ele>
        <time>2021-06-01T10:33:37.643Z</time>
      </trkpt>
      <trkpt lat="44.13508" lon="5.86898">
        <ele>1139</ele>
        <time>2021-06-01T10:33:38.643Z</time>
      </trkpt>
      <trkpt lat="44.13508" lon="5.86897">
        <ele>1139</ele>
        <time>2021-06-01T10:33:39.643Z</time>
      </trkpt>
      <trkpt lat="44.13508" lon="5.86896">
        <ele>1139</ele>
        <time>2021-06-01T10:33:40.643Z</time>
      </trkpt>
      <trkpt lat="44.13508" lon="5.86895">
        <ele>1139</ele>
        <time>2021-06-01T10:33:41.643Z</time>
      </trkpt>
      <trkpt lat="44.13507" lon="5.86894">
        <ele>1139</ele>
        <time>2021-06-01T10:33:42.643Z</time>
      </trkpt>
      <trkpt lat="44.13507" lon="5.86892">
        <ele>1139</ele>
        <time>2021-06-01T10:33:43.643Z</time>
      </trkpt>
      <trkpt lat="44.13508" lon="5.86891">
        <ele>1139</ele>
        <time>2021-06-01T10:33:44.643Z</time>
      </trkpt>
      <trkpt lat="44.13508" lon="5.8689">
        <ele>1139</ele>
        <time>2021-06-01T10:33:45.643Z</time>
      </trkpt>
      <trkpt lat="44.13508" lon="5.86889">
        <ele>1139</ele>
        <time>2021-06-01T10:33:46.643Z</time>
      </trkpt>
      <trkpt lat="44.13508" lon="5.86888">
        <ele>1140</ele>
        <time>2021-06-01T10:33:47.643Z</time>
      </trkpt>
      <trkpt lat="44.13508" lon="5.86886">
        <ele>1140</ele>
        <time>2021-06-01T10:33:48.643Z</time>
      </trkpt>
      <trkpt lat="44.13507" lon="5.86885">
        <ele>1140</ele>
        <time>2021-06-01T10:33:49.643Z</time>
      </trkpt>
      <trkpt lat="44.13507" lon="5.86884">
        <ele>1140</ele>
        <time>2021-06-01T10:33:50.643Z</time>
      </trkpt>
      <trkpt lat="44.13507" lon="5.86883">
        <ele>1140</ele>
        <time>2021-06-01T10:33:51.643Z</time>
      </trkpt>
      <trkpt lat="44.13507" lon="5.86882">
        <ele>1140</ele>
        <time>2021-06-01T10:33:52.643Z</time>
      </trkpt>
      <trkpt lat="44.13507" lon="5.86881">
        <ele>1140</ele>
        <time>2021-06-01T10:33:53.643Z</time>
      </trkpt>
      <trkpt lat="44.13507" lon="5.8688">
        <ele>1140</ele>
        <time>2021-06-01T10:33:54.643Z</time>
      </trkpt>
      <trkpt lat="44.13507" lon="5.86879">
        <ele>1140</ele>
        <time>2021-06-01T10:33:55.643Z</time>
      </trkpt>
      <trkpt lat="44.13507" lon="5.86878">
        <ele>1140</ele>
        <time>2021-06-01T10:33:56.643Z</time>
      </trkpt>
      <trkpt lat="44.13507" lon="5.86877">
        <ele>1140</ele>
        <time>2021-06-01T10:33:57.643Z</time>
      </trkpt>
      <trkpt lat="44.13507" lon="5.86875">
        <ele>1140</ele>
        <time>2021-06-01T10:33:58.643Z</time>
      </trkpt>
      <trkpt lat="44.13507" lon="5.86874">
        <ele>1140</ele>
        <time>2021-06-01T10:33:59.643Z</time>
      </trkpt>
      <trkpt lat="44.13507" lon="5.86873">
        <ele>1140</ele>
        <time>2021-06-01T10:34:00.643Z</time>
      </trkpt>
      <trkpt lat="44.13507" lon="5.86872">
        <ele>1141</ele>
        <time>2021-06-01T10:34:01.643Z</time>
      </trkpt>
      <trkpt lat="44.13507" lon="5.8687">
        <ele>1141</ele>
        <time>2021-06-01T10:34:02.643Z</time>
      </trkpt>
      <trkpt lat="44.13507" lon="5.86869">
        <ele>1141</ele>
        <time>2021-06-01T10:34:03.643Z</time>
      </trkpt>
      <trkpt lat="44.13506" lon="5.86868">
        <ele>1141</ele>
        <time>2021-06-01T10:34:04.643Z</time>
      </trkpt>
      <trkpt lat="44.13506" lon="5.86867">
        <ele>1141</ele>
        <time>2021-06-01T10:34:05.643Z</time>
      </trkpt>
      <trkpt lat="44.13506" lon="5.86865">
        <ele>1141</ele>
        <time>2021-06-01T10:34:06.643Z</time>
      </trkpt>
      <trkpt lat="44.13506" lon="5.86864">
        <ele>1141</ele>
        <time>2021-06-01T10:34:07.643Z</time>
      </trkpt>
      <trkpt lat="44.13506" lon="5.86863">
        <ele>1141</ele>
        <time>2021-06-01T10:34:08.643Z</time>
      </trkpt>
      <trkpt lat="44.13506" lon="5.86862">
        <ele>1141</ele>
        <time>2021-06-01T10:34:09.643Z</time>
      </trkpt>
      <trkpt lat="44.13506" lon="5.8686">
        <ele>1141</ele>
        <time>2021-06-01T10:34:10.643Z</time>
      </trkpt>
      <trkpt lat="44.13506" lon="5.86859">
        <ele>1141</ele>
        <time>2021-06-01T10:34:11.643Z</time>
      </trkpt>
      <trkpt lat="44.13506" lon="5.86858">
        <ele>1141</ele>
        <time>2021-06-01T10:34:12.643Z</time>
      </trkpt>
      <trkpt lat="44.13506" lon="5.86857">
        <ele>1141</ele>
        <time>2021-06-01T10:34:13.643Z</time>
      </trkpt>
      <trkpt lat="44.13506" lon="5.86856">
        <ele>1141</ele>
        <time>2021-06-01T10:34:14.643Z</time>
      </trkpt>
      <trkpt lat="44.13506" lon="5.86855">
        <ele>1141</ele>
        <time>2021-06-01T10:34:15.643Z</time>
      </trkpt>
      <trkpt lat="44.13505" lon="5.86854">
        <ele>1141</ele>
        <time>2021-06-01T10:34:16.643Z</time>
      </trkpt>
      <trkpt lat="44.13505" lon="5.86852">
        <ele>1141</ele>
        <time>2021-06-01T10:34:17.643Z</time>
      </trkpt>
      <trkpt lat="44.13505" lon="5.86851">
        <ele>1141</ele>
        <time>2021-06-01T10:34:18.643Z</time>
      </trkpt>
      <trkpt lat="44.13504" lon="5.8685">
        <ele>1141</ele>
        <time>2021-06-01T10:34:19.643Z</time>
      </trkpt>
      <trkpt lat="44.13504" lon="5.86848">
        <ele>1141</ele>
        <time>2021-06-01T10:34:20.643Z</time>
      </trkpt>
      <trkpt lat="44.13504" lon="5.86847">
        <ele>1141</ele>
        <time>2021-06-01T10:34:21.643Z</time>
      </trkpt>
      <trkpt lat="44.13504" lon="5.86846">
        <ele>1141</ele>
        <time>2021-06-01T10:34:22.643Z</time>
      </trkpt>
      <trkpt lat="44.13505" lon="5.86844">
        <ele>1141</ele>
        <time>2021-06-01T10:34:23.643Z</time>
      </trkpt>
      <trkpt lat="44.13504" lon="5.86843">
        <ele>1141</ele>
        <time>2021-06-01T10:34:24.643Z</time>
      </trkpt>
      <trkpt lat="44.13504" lon="5.86841">
        <ele>1141</ele>
        <time>2021-06-01T10:34:25.643Z</time>
      </trkpt>
      <trkpt lat="44.13504" lon="5.8684">
        <ele>1141</ele>
        <time>2021-06-01T10:34:26.643Z</time>
      </trkpt>
      <trkpt lat="44.13504" lon="5.86839">
        <ele>1141</ele>
        <time>2021-06-01T10:34:27.643Z</time>
      </trkpt>
      <trkpt lat="44.13504" lon="5.86837">
        <ele>1141</ele>
        <time>2021-06-01T10:34:28.643Z</time>
      </trkpt>
      <trkpt lat="44.13504" lon="5.86836">
        <ele>1142</ele>
        <time>2021-06-01T10:34:29.643Z</time>
      </trkpt>
      <trkpt lat="44.13504" lon="5.86834">
        <ele>1142</ele>
        <time>2021-06-01T10:34:30.643Z</time>
      </trkpt>
      <trkpt lat="44.13504" lon="5.86833">
        <ele>1142</ele>
        <time>2021-06-01T10:34:31.643Z</time>
      </trkpt>
      <trkpt lat="44.13504" lon="5.86832">
        <ele>1142</ele>
        <time>2021-06-01T10:34:32.643Z</time>
      </trkpt>
      <trkpt lat="44.13504" lon="5.8683">
        <ele>1142</ele>
        <time>2021-06-01T10:34:33.643Z</time>
      </trkpt>
      <trkpt lat="44.13504" lon="5.86829">
        <ele>1142</ele>
        <time>2021-06-01T10:34:34.643Z</time>
      </trkpt>
      <trkpt lat="44.13504" lon="5.86827">
        <ele>1142</ele>
        <time>2021-06-01T10:34:35.643Z</time>
      </trkpt>
      <trkpt lat="44.13503" lon="5.86826">
        <ele>1143</ele>
        <time>2021-06-01T10:34:36.643Z</time>
      </trkpt>
      <trkpt lat="44.13503" lon="5.86825">
        <ele>1143</ele>
        <time>2021-06-01T10:34:37.643Z</time>
      </trkpt>
      <trkpt lat="44.13503" lon="5.86823">
        <ele>1143</ele>
        <time>2021-06-01T10:34:38.643Z</time>
      </trkpt>
      <trkpt lat="44.13503" lon="5.86822">
        <ele>1143</ele>
        <time>2021-06-01T10:34:39.643Z</time>
      </trkpt>
      <trkpt lat="44.13503" lon="5.86821">
        <ele>1143</ele>
        <time>2021-06-01T10:34:40.643Z</time>
      </trkpt>
      <trkpt lat="44.13503" lon="5.86819">
        <ele>1144</ele>
        <time>2021-06-01T10:34:41.643Z</time>
      </trkpt>
      <trkpt lat="44.13502" lon="5.86818">
        <ele>1144</ele>
        <time>2021-06-01T10:34:42.643Z</time>
      </trkpt>
      <trkpt lat="44.13502" lon="5.86816">
        <ele>1144</ele>
        <time>2021-06-01T10:34:43.643Z</time>
      </trkpt>
      <trkpt lat="44.13502" lon="5.86815">
        <ele>1144</ele>
        <time>2021-06-01T10:34:44.643Z</time>
      </trkpt>
      <trkpt lat="44.13502" lon="5.86814">
        <ele>1144</ele>
        <time>2021-06-01T10:34:45.643Z</time>
      </trkpt>
      <trkpt lat="44.13502" lon="5.86812">
        <ele>1144</ele>
        <time>2021-06-01T10:34:46.643Z</time>
      </trkpt>
      <trkpt lat="44.13502" lon="5.86811">
        <ele>1145</ele>
        <time>2021-06-01T10:34:47.643Z</time>
      </trkpt>
      <trkpt lat="44.13502" lon="5.8681">
        <ele>1145</ele>
        <time>2021-06-01T10:34:48.643Z</time>
      </trkpt>
      <trkpt lat="44.13502" lon="5.86808">
        <ele>1145</ele>
        <time>2021-06-01T10:34:49.643Z</time>
      </trkpt>
      <trkpt lat="44.13501" lon="5.86807">
        <ele>1145</ele>
        <time>2021-06-01T10:34:50.643Z</time>
      </trkpt>
      <trkpt lat="44.13501" lon="5.86806">
        <ele>1145</ele>
        <time>2021-06-01T10:34:51.643Z</time>
      </trkpt>
      <trkpt lat="44.13501" lon="5.86804">
        <ele>1145</ele>
        <time>2021-06-01T10:34:52.643Z</time>
      </trkpt>
      <trkpt lat="44.13501" lon="5.86803">
        <ele>1145</ele>
        <time>2021-06-01T10:34:53.643Z</time>
      </trkpt>
      <trkpt lat="44.13501" lon="5.86802">
        <ele>1146</ele>
        <time>2021-06-01T10:34:54.643Z</time>
      </trkpt>
      <trkpt lat="44.13501" lon="5.868">
        <ele>1146</ele>
        <time>2021-06-01T10:34:55.643Z</time>
      </trkpt>
      <trkpt lat="44.13501" lon="5.86799">
        <ele>1146</ele>
        <time>2021-06-01T10:34:56.643Z</time>
      </trkpt>
      <trkpt lat="44.13502" lon="5.86798">
        <ele>1146</ele>
        <time>2021-06-01T10:34:57.643Z</time>
      </trkpt>
      <trkpt lat="44.13502" lon="5.86796">
        <ele>1146</ele>
        <time>2021-06-01T10:34:58.643Z</time>
      </trkpt>
      <trkpt lat="44.13501" lon="5.86795">
        <ele>1146</ele>
        <time>2021-06-01T10:34:59.643Z</time>
      </trkpt>
      <trkpt lat="44.13501" lon="5.86794">
        <ele>1146</ele>
        <time>2021-06-01T10:35:00.643Z</time>
      </trkpt>
      <trkpt lat="44.13501" lon="5.86792">
        <ele>1146</ele>
        <time>2021-06-01T10:35:01.643Z</time>
      </trkpt>
      <trkpt lat="44.13502" lon="5.86791">
        <ele>1146</ele>
        <time>2021-06-01T10:35:02.643Z</time>
      </trkpt>
      <trkpt lat="44.13502" lon="5.8679">
        <ele>1146</ele>
        <time>2021-06-01T10:35:03.643Z</time>
      </trkpt>
      <trkpt lat="44.13503" lon="5.86789">
        <ele>1147</ele>
        <time>2021-06-01T10:35:04.643Z</time>
      </trkpt>
      <trkpt lat="44.13503" lon="5.86788">
        <ele>1147</ele>
        <time>2021-06-01T10:35:05.643Z</time>
      </trkpt>
      <trkpt lat="44.13503" lon="5.86787">
        <ele>1147</ele>
        <time>2021-06-01T10:35:06.643Z</time>
      </trkpt>
      <trkpt lat="44.13503" lon="5.86785">
        <ele>1147</ele>
        <time>2021-06-01T10:35:07.643Z</time>
      </trkpt>
      <trkpt lat="44.13503" lon="5.86784">
        <ele>1147</ele>
        <time>2021-06-01T10:35:08.643Z</time>
      </trkpt>
      <trkpt lat="44.13503" lon="5.86783">
        <ele>1147</ele>
        <time>2021-06-01T10:35:09.643Z</time>
      </trkpt>
      <trkpt lat="44.13502" lon="5.86781">
        <ele>1147</ele>
        <time>2021-06-01T10:35:10.643Z</time>
      </trkpt>
      <trkpt lat="44.13502" lon="5.8678">
        <ele>1147</ele>
        <time>2021-06-01T10:35:11.643Z</time>
      </trkpt>
      <trkpt lat="44.13502" lon="5.86779">
        <ele>1147</ele>
        <time>2021-06-01T10:35:12.643Z</time>
      </trkpt>
      <trkpt lat="44.13502" lon="5.86777">
        <ele>1147</ele>
        <time>2021-06-01T10:35:13.643Z</time>
      </trkpt>
      <trkpt lat="44.13502" lon="5.86776">
        <ele>1147</ele>
        <time>2021-06-01T10:35:14.643Z</time>
      </trkpt>
      <trkpt lat="44.13502" lon="5.86775">
        <ele>1148</ele>
        <time>2021-06-01T10:35:15.643Z</time>
      </trkpt>
      <trkpt lat="44.13502" lon="5.86773">
        <ele>1148</ele>
        <time>2021-06-01T10:35:16.643Z</time>
      </trkpt>
      <trkpt lat="44.13502" lon="5.86772">
        <ele>1148</ele>
        <time>2021-06-01T10:35:17.643Z</time>
      </trkpt>
      <trkpt lat="44.13502" lon="5.86771">
        <ele>1148</ele>
        <time>2021-06-01T10:35:18.643Z</time>
      </trkpt>
      <trkpt lat="44.13502" lon="5.8677">
        <ele>1148</ele>
        <time>2021-06-01T10:35:19.643Z</time>
      </trkpt>
      <trkpt lat="44.13502" lon="5.86768">
        <ele>1148</ele>
        <time>2021-06-01T10:35:20.643Z</time>
      </trkpt>
      <trkpt lat="44.13502" lon="5.86767">
        <ele>1148</ele>
        <time>2021-06-01T10:35:21.643Z</time>
      </trkpt>
      <trkpt lat="44.13502" lon="5.86766">
        <ele>1149</ele>
        <time>2021-06-01T10:35:22.643Z</time>
      </trkpt>
      <trkpt lat="44.13502" lon="5.86764">
        <ele>1149</ele>
        <time>2021-06-01T10:35:23.643Z</time>
      </trkpt>
      <trkpt lat="44.13502" lon="5.86763">
        <ele>1149</ele>
        <time>2021-06-01T10:35:24.643Z</time>
      </trkpt>
      <trkpt lat="44.13502" lon="5.86762">
        <ele>1149</ele>
        <time>2021-06-01T10:35:25.643Z</time>
      </trkpt>
      <trkpt lat="44.13501" lon="5.8676">
        <ele>1149</ele>
        <time>2021-06-01T10:35:26.643Z</time>
      </trkpt>
      <trkpt lat="44.13501" lon="5.86759">
        <ele>1149</ele>
        <time>2021-06-01T10:35:27.643Z</time>
      </trkpt>
      <trkpt lat="44.13501" lon="5.86758">
        <ele>1149</ele>
        <time>2021-06-01T10:35:28.643Z</time>
      </trkpt>
      <trkpt lat="44.13501" lon="5.86757">
        <ele>1149</ele>
        <time>2021-06-01T10:35:29.643Z</time>
      </trkpt>
      <trkpt lat="44.13501" lon="5.86755">
        <ele>1149</ele>
        <time>2021-06-01T10:35:30.643Z</time>
      </trkpt>
      <trkpt lat="44.13501" lon="5.86754">
        <ele>1149</ele>
        <time>2021-06-01T10:35:31.643Z</time>
      </trkpt>
      <trkpt lat="44.13501" lon="5.86753">
        <ele>1149</ele>
        <time>2021-06-01T10:35:32.643Z</time>
      </trkpt>
      <trkpt lat="44.13501" lon="5.86751">
        <ele>1150</ele>
        <time>2021-06-01T10:35:33.643Z</time>
      </trkpt>
      <trkpt lat="44.13501" lon="5.8675">
        <ele>1150</ele>
        <time>2021-06-01T10:35:34.643Z</time>
      </trkpt>
      <trkpt lat="44.135" lon="5.86749">
        <ele>1150</ele>
        <time>2021-06-01T10:35:35.643Z</time>
      </trkpt>
      <trkpt lat="44.135" lon="5.86747">
        <ele>1150</ele>
        <time>2021-06-01T10:35:36.643Z</time>
      </trkpt>
      <trkpt lat="44.135" lon="5.86746">
        <ele>1150</ele>
        <time>2021-06-01T10:35:37.643Z</time>
      </trkpt>
      <trkpt lat="44.135" lon="5.86745">
        <ele>1150</ele>
        <time>2021-06-01T10:35:38.643Z</time>
      </trkpt>
      <trkpt lat="44.135" lon="5.86744">
        <ele>1150</ele>
        <time>2021-06-01T10:35:39.643Z</time>
      </trkpt>
      <trkpt lat="44.135" lon="5.86742">
        <ele>1150</ele>
        <time>2021-06-01T10:35:40.643Z</time>
      </trkpt>
      <trkpt lat="44.13499" lon="5.86741">
        <ele>1151</ele>
        <time>2021-06-01T10:35:41.643Z</time>
      </trkpt>
      <trkpt lat="44.13499" lon="5.8674">
        <ele>1151</ele>
        <time>2021-06-01T10:35:42.643Z</time>
      </trkpt>
      <trkpt lat="44.13499" lon="5.86738">
        <ele>1151</ele>
        <time>2021-06-01T10:35:43.643Z</time>
      </trkpt>
      <trkpt lat="44.13499" lon="5.86737">
        <ele>1151</ele>
        <time>2021-06-01T10:35:44.643Z</time>
      </trkpt>
      <trkpt lat="44.13499" lon="5.86736">
        <ele>1151</ele>
        <time>2021-06-01T10:35:45.643Z</time>
      </trkpt>
      <trkpt lat="44.13499" lon="5.86734">
        <ele>1151</ele>
        <time>2021-06-01T10:35:46.643Z</time>
      </trkpt>
      <trkpt lat="44.13499" lon="5.86733">
        <ele>1151</ele>
        <time>2021-06-01T10:35:47.643Z</time>
      </trkpt>
      <trkpt lat="44.13499" lon="5.86732">
        <ele>1151</ele>
        <time>2021-06-01T10:35:48.643Z</time>
      </trkpt>
      <trkpt lat="44.13499" lon="5.8673">
        <ele>1151</ele>
        <time>2021-06-01T10:35:49.643Z</time>
      </trkpt>
      <trkpt lat="44.13498" lon="5.86729">
        <ele>1152</ele>
        <time>2021-06-01T10:35:50.643Z</time>
      </trkpt>
      <trkpt lat="44.13498" lon="5.86728">
        <ele>1152</ele>
        <time>2021-06-01T10:35:51.643Z</time>
      </trkpt>
      <trkpt lat="44.13498" lon="5.86726">
        <ele>1152</ele>
        <time>2021-06-01T10:35:52.643Z</time>
      </trkpt>
      <trkpt lat="44.13498" lon="5.86725">
        <ele>1152</ele>
        <time>2021-06-01T10:35:53.643Z</time>
      </trkpt>
      <trkpt lat="44.13497" lon="5.86724">
        <ele>1152</ele>
        <time>2021-06-01T10:35:54.643Z</time>
      </trkpt>
      <trkpt lat="44.13497" lon="5.86723">
        <ele>1152</ele>
        <time>2021-06-01T10:35:55.643Z</time>
      </trkpt>
      <trkpt lat="44.13496" lon="5.86722">
        <ele>1152</ele>
        <time>2021-06-01T10:35:56.643Z</time>
      </trkpt>
      <trkpt lat="44.13496" lon="5.8672">
        <ele>1152</ele>
        <time>2021-06-01T10:35:57.643Z</time>
      </trkpt>
      <trkpt lat="44.13496" lon="5.86719">
        <ele>1152</ele>
        <time>2021-06-01T10:35:58.643Z</time>
      </trkpt>
      <trkpt lat="44.13496" lon="5.86718">
        <ele>1152</ele>
        <time>2021-06-01T10:35:59.643Z</time>
      </trkpt>
      <trkpt lat="44.13496" lon="5.86717">
        <ele>1152</ele>
        <time>2021-06-01T10:36:00.643Z</time>
      </trkpt>
      <trkpt lat="44.13495" lon="5.86715">
        <ele>1152</ele>
        <time>2021-06-01T10:36:01.643Z</time>
      </trkpt>
      <trkpt lat="44.13495" lon="5.86714">
        <ele>1153</ele>
        <time>2021-06-01T10:36:02.643Z</time>
      </trkpt>
      <trkpt lat="44.13495" lon="5.86713">
        <ele>1153</ele>
        <time>2021-06-01T10:36:03.643Z</time>
      </trkpt>
      <trkpt lat="44.13495" lon="5.86712">
        <ele>1153</ele>
        <time>2021-06-01T10:36:04.643Z</time>
      </trkpt>
      <trkpt lat="44.13495" lon="5.8671">
        <ele>1153</ele>
        <time>2021-06-01T10:36:05.643Z</time>
      </trkpt>
      <trkpt lat="44.13495" lon="5.86709">
        <ele>1153</ele>
        <time>2021-06-01T10:36:06.643Z</time>
      </trkpt>
      <trkpt lat="44.13494" lon="5.86708">
        <ele>1153</ele>
        <time>2021-06-01T10:36:07.643Z</time>
      </trkpt>
      <trkpt lat="44.13494" lon="5.86706">
        <ele>1153</ele>
        <time>2021-06-01T10:36:08.643Z</time>
      </trkpt>
      <trkpt lat="44.13494" lon="5.86705">
        <ele>1153</ele>
        <time>2021-06-01T10:36:09.643Z</time>
      </trkpt>
      <trkpt lat="44.13494" lon="5.86704">
        <ele>1153</ele>
        <time>2021-06-01T10:36:10.643Z</time>
      </trkpt>
      <trkpt lat="44.13494" lon="5.86703">
        <ele>1154</ele>
        <time>2021-06-01T10:36:11.643Z</time>
      </trkpt>
      <trkpt lat="44.13494" lon="5.86701">
        <ele>1154</ele>
        <time>2021-06-01T10:36:12.643Z</time>
      </trkpt>
      <trkpt lat="44.13493" lon="5.867">
        <ele>1154</ele>
        <time>2021-06-01T10:36:13.643Z</time>
      </trkpt>
      <trkpt lat="44.13493" lon="5.86699">
        <ele>1154</ele>
        <time>2021-06-01T10:36:14.643Z</time>
      </trkpt>
      <trkpt lat="44.13493" lon="5.86698">
        <ele>1154</ele>
        <time>2021-06-01T10:36:15.643Z</time>
      </trkpt>
      <trkpt lat="44.13493" lon="5.86696">
        <ele>1154</ele>
        <time>2021-06-01T10:36:16.643Z</time>
      </trkpt>
      <trkpt lat="44.13493" lon="5.86695">
        <ele>1154</ele>
        <time>2021-06-01T10:36:17.643Z</time>
      </trkpt>
      <trkpt lat="44.13493" lon="5.86694">
        <ele>1154</ele>
        <time>2021-06-01T10:36:18.643Z</time>
      </trkpt>
      <trkpt lat="44.13494" lon="5.86693">
        <ele>1154</ele>
        <time>2021-06-01T10:36:19.643Z</time>
      </trkpt>
      <trkpt lat="44.13494" lon="5.86692">
        <ele>1154</ele>
        <time>2021-06-01T10:36:20.643Z</time>
      </trkpt>
      <trkpt lat="44.13493" lon="5.86691">
        <ele>1155</ele>
        <time>2021-06-01T10:36:21.643Z</time>
      </trkpt>
      <trkpt lat="44.13493" lon="5.86689">
        <ele>1155</ele>
        <time>2021-06-01T10:36:22.643Z</time>
      </trkpt>
      <trkpt lat="44.13493" lon="5.86688">
        <ele>1155</ele>
        <time>2021-06-01T10:36:23.643Z</time>
      </trkpt>
      <trkpt lat="44.13493" lon="5.86687">
        <ele>1155</ele>
        <time>2021-06-01T10:36:24.643Z</time>
      </trkpt>
      <trkpt lat="44.13493" lon="5.86686">
        <ele>1155</ele>
        <time>2021-06-01T10:36:25.643Z</time>
      </trkpt>
      <trkpt lat="44.13493" lon="5.86684">
        <ele>1156</ele>
        <time>2021-06-01T10:36:26.643Z</time>
      </trkpt>
      <trkpt lat="44.13493" lon="5.86683">
        <ele>1156</ele>
        <time>2021-06-01T10:36:27.643Z</time>
      </trkpt>
      <trkpt lat="44.13493" lon="5.86682">
        <ele>1156</ele>
        <time>2021-06-01T10:36:28.643Z</time>
      </trkpt>
      <trkpt lat="44.13493" lon="5.86681">
        <ele>1156</ele>
        <time>2021-06-01T10:36:29.643Z</time>
      </trkpt>
      <trkpt lat="44.13493" lon="5.8668">
        <ele>1156</ele>
        <time>2021-06-01T10:36:30.643Z</time>
      </trkpt>
      <trkpt lat="44.13492" lon="5.86678">
        <ele>1157</ele>
        <time>2021-06-01T10:36:31.643Z</time>
      </trkpt>
      <trkpt lat="44.13492" lon="5.86677">
        <ele>1157</ele>
        <time>2021-06-01T10:36:32.643Z</time>
      </trkpt>
      <trkpt lat="44.13492" lon="5.86676">
        <ele>1157</ele>
        <time>2021-06-01T10:36:33.643Z</time>
      </trkpt>
      <trkpt lat="44.13491" lon="5.86675">
        <ele>1157</ele>
        <time>2021-06-01T10:36:34.643Z</time>
      </trkpt>
      <trkpt lat="44.13491" lon="5.86673">
        <ele>1157</ele>
        <time>2021-06-01T10:36:35.643Z</time>
      </trkpt>
      <trkpt lat="44.13491" lon="5.86672">
        <ele>1157</ele>
        <time>2021-06-01T10:36:36.643Z</time>
      </trkpt>
      <trkpt lat="44.13491" lon="5.86671">
        <ele>1157</ele>
        <time>2021-06-01T10:36:37.643Z</time>
      </trkpt>
      <trkpt lat="44.13491" lon="5.8667">
        <ele>1158</ele>
        <time>2021-06-01T10:36:38.643Z</time>
      </trkpt>
      <trkpt lat="44.13491" lon="5.86668">
        <ele>1158</ele>
        <time>2021-06-01T10:36:39.643Z</time>
      </trkpt>
      <trkpt lat="44.1349" lon="5.86667">
        <ele>1158</ele>
        <time>2021-06-01T10:36:40.643Z</time>
      </trkpt>
      <trkpt lat="44.1349" lon="5.86666">
        <ele>1158</ele>
        <time>2021-06-01T10:36:41.643Z</time>
      </trkpt>
      <trkpt lat="44.1349" lon="5.86665">
        <ele>1158</ele>
        <time>2021-06-01T10:36:42.643Z</time>
      </trkpt>
      <trkpt lat="44.13489" lon="5.86664">
        <ele>1158</ele>
        <time>2021-06-01T10:36:43.643Z</time>
      </trkpt>
      <trkpt lat="44.13489" lon="5.86663">
        <ele>1158</ele>
        <time>2021-06-01T10:36:44.643Z</time>
      </trkpt>
      <trkpt lat="44.13489" lon="5.86661">
        <ele>1158</ele>
        <time>2021-06-01T10:36:45.643Z</time>
      </trkpt>
      <trkpt lat="44.13489" lon="5.8666">
        <ele>1158</ele>
        <time>2021-06-01T10:36:46.643Z</time>
      </trkpt>
      <trkpt lat="44.13489" lon="5.86659">
        <ele>1159</ele>
        <time>2021-06-01T10:36:47.643Z</time>
      </trkpt>
      <trkpt lat="44.13489" lon="5.86658">
        <ele>1159</ele>
        <time>2021-06-01T10:36:48.643Z</time>
      </trkpt>
      <trkpt lat="44.13489" lon="5.86656">
        <ele>1159</ele>
        <time>2021-06-01T10:36:49.643Z</time>
      </trkpt>
      <trkpt lat="44.13489" lon="5.86655">
        <ele>1159</ele>
        <time>2021-06-01T10:36:50.643Z</time>
      </trkpt>
      <trkpt lat="44.13488" lon="5.86654">
        <ele>1159</ele>
        <time>2021-06-01T10:36:51.643Z</time>
      </trkpt>
      <trkpt lat="44.13488" lon="5.86652">
        <ele>1159</ele>
        <time>2021-06-01T10:36:52.643Z</time>
      </trkpt>
      <trkpt lat="44.13488" lon="5.86651">
        <ele>1159</ele>
        <time>2021-06-01T10:36:53.643Z</time>
      </trkpt>
      <trkpt lat="44.13488" lon="5.8665">
        <ele>1159</ele>
        <time>2021-06-01T10:36:54.643Z</time>
      </trkpt>
      <trkpt lat="44.13487" lon="5.86649">
        <ele>1159</ele>
        <time>2021-06-01T10:36:55.643Z</time>
      </trkpt>
      <trkpt lat="44.13487" lon="5.86647">
        <ele>1159</ele>
        <time>2021-06-01T10:36:56.643Z</time>
      </trkpt>
      <trkpt lat="44.13487" lon="5.86646">
        <ele>1159</ele>
        <time>2021-06-01T10:36:57.643Z</time>
      </trkpt>
      <trkpt lat="44.13487" lon="5.86645">
        <ele>1159</ele>
        <time>2021-06-01T10:36:58.643Z</time>
      </trkpt>
      <trkpt lat="44.13486" lon="5.86644">
        <ele>1159</ele>
        <time>2021-06-01T10:36:59.643Z</time>
      </trkpt>
      <trkpt lat="44.13486" lon="5.86642">
        <ele>1159</ele>
        <time>2021-06-01T10:37:00.643Z</time>
      </trkpt>
      <trkpt lat="44.13486" lon="5.86641">
        <ele>1159</ele>
        <time>2021-06-01T10:37:01.643Z</time>
      </trkpt>
      <trkpt lat="44.13485" lon="5.8664">
        <ele>1159</ele>
        <time>2021-06-01T10:37:02.643Z</time>
      </trkpt>
      <trkpt lat="44.13485" lon="5.86639">
        <ele>1160</ele>
        <time>2021-06-01T10:37:03.643Z</time>
      </trkpt>
      <trkpt lat="44.13485" lon="5.86638">
        <ele>1160</ele>
        <time>2021-06-01T10:37:04.643Z</time>
      </trkpt>
      <trkpt lat="44.13485" lon="5.86636">
        <ele>1160</ele>
        <time>2021-06-01T10:37:05.643Z</time>
      </trkpt>
      <trkpt lat="44.13484" lon="5.86635">
        <ele>1160</ele>
        <time>2021-06-01T10:37:06.643Z</time>
      </trkpt>
      <trkpt lat="44.13484" lon="5.86634">
        <ele>1160</ele>
        <time>2021-06-01T10:37:07.643Z</time>
      </trkpt>
      <trkpt lat="44.13484" lon="5.86633">
        <ele>1160</ele>
        <time>2021-06-01T10:37:08.643Z</time>
      </trkpt>
      <trkpt lat="44.13484" lon="5.86631">
        <ele>1160</ele>
        <time>2021-06-01T10:37:09.643Z</time>
      </trkpt>
      <trkpt lat="44.13484" lon="5.8663">
        <ele>1160</ele>
        <time>2021-06-01T10:37:10.643Z</time>
      </trkpt>
      <trkpt lat="44.13484" lon="5.86629">
        <ele>1160</ele>
        <time>2021-06-01T10:37:11.643Z</time>
      </trkpt>
      <trkpt lat="44.13485" lon="5.86628">
        <ele>1160</ele>
        <time>2021-06-01T10:37:12.643Z</time>
      </trkpt>
      <trkpt lat="44.13485" lon="5.86627">
        <ele>1160</ele>
        <time>2021-06-01T10:37:13.643Z</time>
      </trkpt>
      <trkpt lat="44.13484" lon="5.86626">
        <ele>1160</ele>
        <time>2021-06-01T10:37:14.643Z</time>
      </trkpt>
      <trkpt lat="44.13484" lon="5.86624">
        <ele>1160</ele>
        <time>2021-06-01T10:37:15.643Z</time>
      </trkpt>
      <trkpt lat="44.13484" lon="5.86623">
        <ele>1161</ele>
        <time>2021-06-01T10:37:16.643Z</time>
      </trkpt>
      <trkpt lat="44.13484" lon="5.86622">
        <ele>1161</ele>
        <time>2021-06-01T10:37:17.643Z</time>
      </trkpt>
      <trkpt lat="44.13484" lon="5.86621">
        <ele>1161</ele>
        <time>2021-06-01T10:37:18.643Z</time>
      </trkpt>
      <trkpt lat="44.13483" lon="5.86619">
        <ele>1161</ele>
        <time>2021-06-01T10:37:19.643Z</time>
      </trkpt>
      <trkpt lat="44.13483" lon="5.86618">
        <ele>1161</ele>
        <time>2021-06-01T10:37:20.643Z</time>
      </trkpt>
      <trkpt lat="44.13483" lon="5.86617">
        <ele>1161</ele>
        <time>2021-06-01T10:37:21.643Z</time>
      </trkpt>
      <trkpt lat="44.13483" lon="5.86616">
        <ele>1161</ele>
        <time>2021-06-01T10:37:22.643Z</time>
      </trkpt>
      <trkpt lat="44.13483" lon="5.86614">
        <ele>1162</ele>
        <time>2021-06-01T10:37:23.643Z</time>
      </trkpt>
      <trkpt lat="44.13483" lon="5.86613">
        <ele>1162</ele>
        <time>2021-06-01T10:37:24.643Z</time>
      </trkpt>
      <trkpt lat="44.13483" lon="5.86612">
        <ele>1162</ele>
        <time>2021-06-01T10:37:25.643Z</time>
      </trkpt>
      <trkpt lat="44.13483" lon="5.86611">
        <ele>1162</ele>
        <time>2021-06-01T10:37:26.643Z</time>
      </trkpt>
      <trkpt lat="44.13483" lon="5.86609">
        <ele>1162</ele>
        <time>2021-06-01T10:37:27.643Z</time>
      </trkpt>
      <trkpt lat="44.13483" lon="5.86608">
        <ele>1162</ele>
        <time>2021-06-01T10:37:28.643Z</time>
      </trkpt>
      <trkpt lat="44.13483" lon="5.86607">
        <ele>1163</ele>
        <time>2021-06-01T10:37:29.643Z</time>
      </trkpt>
      <trkpt lat="44.13483" lon="5.86606">
        <ele>1163</ele>
        <time>2021-06-01T10:37:30.643Z</time>
      </trkpt>
      <trkpt lat="44.13483" lon="5.86605">
        <ele>1163</ele>
        <time>2021-06-01T10:37:31.643Z</time>
      </trkpt>
      <trkpt lat="44.13484" lon="5.86604">
        <ele>1163</ele>
        <time>2021-06-01T10:37:32.643Z</time>
      </trkpt>
      <trkpt lat="44.13484" lon="5.86603">
        <ele>1163</ele>
        <time>2021-06-01T10:37:33.643Z</time>
      </trkpt>
      <trkpt lat="44.13483" lon="5.86602">
        <ele>1164</ele>
        <time>2021-06-01T10:37:34.643Z</time>
      </trkpt>
      <trkpt lat="44.13483" lon="5.866">
        <ele>1164</ele>
        <time>2021-06-01T10:37:35.643Z</time>
      </trkpt>
      <trkpt lat="44.13484" lon="5.86599">
        <ele>1164</ele>
        <time>2021-06-01T10:37:36.643Z</time>
      </trkpt>
      <trkpt lat="44.13483" lon="5.86598">
        <ele>1164</ele>
        <time>2021-06-01T10:37:37.643Z</time>
      </trkpt>
      <trkpt lat="44.13483" lon="5.86597">
        <ele>1164</ele>
        <time>2021-06-01T10:37:38.643Z</time>
      </trkpt>
      <trkpt lat="44.13483" lon="5.86595">
        <ele>1164</ele>
        <time>2021-06-01T10:37:39.643Z</time>
      </trkpt>
      <trkpt lat="44.13483" lon="5.86594">
        <ele>1164</ele>
        <time>2021-06-01T10:37:40.643Z</time>
      </trkpt>
      <trkpt lat="44.13483" lon="5.86593">
        <ele>1165</ele>
        <time>2021-06-01T10:37:41.643Z</time>
      </trkpt>
      <trkpt lat="44.13482" lon="5.86592">
        <ele>1165</ele>
        <time>2021-06-01T10:37:42.643Z</time>
      </trkpt>
      <trkpt lat="44.13482" lon="5.86591">
        <ele>1165</ele>
        <time>2021-06-01T10:37:43.643Z</time>
      </trkpt>
      <trkpt lat="44.13482" lon="5.8659">
        <ele>1165</ele>
        <time>2021-06-01T10:37:44.643Z</time>
      </trkpt>
      <trkpt lat="44.13481" lon="5.86589">
        <ele>1165</ele>
        <time>2021-06-01T10:37:45.643Z</time>
      </trkpt>
      <trkpt lat="44.13481" lon="5.86587">
        <ele>1165</ele>
        <time>2021-06-01T10:37:46.643Z</time>
      </trkpt>
      <trkpt lat="44.13481" lon="5.86586">
        <ele>1165</ele>
        <time>2021-06-01T10:37:47.643Z</time>
      </trkpt>
      <trkpt lat="44.13481" lon="5.86585">
        <ele>1166</ele>
        <time>2021-06-01T10:37:48.643Z</time>
      </trkpt>
      <trkpt lat="44.13481" lon="5.86584">
        <ele>1166</ele>
        <time>2021-06-01T10:37:49.643Z</time>
      </trkpt>
      <trkpt lat="44.13481" lon="5.86582">
        <ele>1166</ele>
        <time>2021-06-01T10:37:50.643Z</time>
      </trkpt>
      <trkpt lat="44.13481" lon="5.86581">
        <ele>1166</ele>
        <time>2021-06-01T10:37:51.643Z</time>
      </trkpt>
      <trkpt lat="44.13481" lon="5.8658">
        <ele>1166</ele>
        <time>2021-06-01T10:37:52.643Z</time>
      </trkpt>
      <trkpt lat="44.13481" lon="5.86579">
        <ele>1166</ele>
        <time>2021-06-01T10:37:53.643Z</time>
      </trkpt>
      <trkpt lat="44.13481" lon="5.86578">
        <ele>1166</ele>
        <time>2021-06-01T10:37:54.643Z</time>
      </trkpt>
      <trkpt lat="44.1348" lon="5.86576">
        <ele>1167</ele>
        <time>2021-06-01T10:37:55.643Z</time>
      </trkpt>
      <trkpt lat="44.1348" lon="5.86575">
        <ele>1167</ele>
        <time>2021-06-01T10:37:56.643Z</time>
      </trkpt>
      <trkpt lat="44.1348" lon="5.86574">
        <ele>1167</ele>
        <time>2021-06-01T10:37:57.643Z</time>
      </trkpt>
      <trkpt lat="44.1348" lon="5.86572">
        <ele>1167</ele>
        <time>2021-06-01T10:37:58.643Z</time>
      </trkpt>
      <trkpt lat="44.1348" lon="5.86571">
        <ele>1167</ele>
        <time>2021-06-01T10:37:59.643Z</time>
      </trkpt>
      <trkpt lat="44.1348" lon="5.8657">
        <ele>1167</ele>
        <time>2021-06-01T10:38:00.643Z</time>
      </trkpt>
      <trkpt lat="44.1348" lon="5.86569">
        <ele>1167</ele>
        <time>2021-06-01T10:38:01.643Z</time>
      </trkpt>
      <trkpt lat="44.13479" lon="5.86568">
        <ele>1167</ele>
        <time>2021-06-01T10:38:02.643Z</time>
      </trkpt>
      <trkpt lat="44.13479" lon="5.86566">
        <ele>1167</ele>
        <time>2021-06-01T10:38:03.643Z</time>
      </trkpt>
      <trkpt lat="44.13479" lon="5.86565">
        <ele>1167</ele>
        <time>2021-06-01T10:38:04.643Z</time>
      </trkpt>
      <trkpt lat="44.13479" lon="5.86564">
        <ele>1168</ele>
        <time>2021-06-01T10:38:05.643Z</time>
      </trkpt>
      <trkpt lat="44.13479" lon="5.86563">
        <ele>1168</ele>
        <time>2021-06-01T10:38:06.643Z</time>
      </trkpt>
      <trkpt lat="44.13479" lon="5.86562">
        <ele>1167</ele>
        <time>2021-06-01T10:38:07.643Z</time>
      </trkpt>
      <trkpt lat="44.13479" lon="5.86561">
        <ele>1167</ele>
        <time>2021-06-01T10:38:08.643Z</time>
      </trkpt>
      <trkpt lat="44.13479" lon="5.86559">
        <ele>1167</ele>
        <time>2021-06-01T10:38:09.643Z</time>
      </trkpt>
      <trkpt lat="44.13479" lon="5.86558">
        <ele>1167</ele>
        <time>2021-06-01T10:38:10.643Z</time>
      </trkpt>
      <trkpt lat="44.1348" lon="5.86557">
        <ele>1167</ele>
        <time>2021-06-01T10:38:11.643Z</time>
      </trkpt>
      <trkpt lat="44.1348" lon="5.86556">
        <ele>1168</ele>
        <time>2021-06-01T10:38:12.643Z</time>
      </trkpt>
      <trkpt lat="44.13481" lon="5.86555">
        <ele>1168</ele>
        <time>2021-06-01T10:38:13.643Z</time>
      </trkpt>
      <trkpt lat="44.13481" lon="5.86554">
        <ele>1168</ele>
        <time>2021-06-01T10:38:14.643Z</time>
      </trkpt>
      <trkpt lat="44.13482" lon="5.86554">
        <ele>1168</ele>
        <time>2021-06-01T10:38:15.643Z</time>
      </trkpt>
      <trkpt lat="44.13483" lon="5.86554">
        <ele>1168</ele>
        <time>2021-06-01T10:38:16.643Z</time>
      </trkpt>
      <trkpt lat="44.13484" lon="5.86555">
        <ele>1168</ele>
        <time>2021-06-01T10:38:17.643Z</time>
      </trkpt>
      <trkpt lat="44.13484" lon="5.86555">
        <ele>1168</ele>
        <time>2021-06-01T10:38:18.643Z</time>
      </trkpt>
      <trkpt lat="44.13485" lon="5.86556">
        <ele>1168</ele>
        <time>2021-06-01T10:38:19.643Z</time>
      </trkpt>
      <trkpt lat="44.13486" lon="5.86557">
        <ele>1168</ele>
        <time>2021-06-01T10:38:20.643Z</time>
      </trkpt>
      <trkpt lat="44.13486" lon="5.86558">
        <ele>1168</ele>
        <time>2021-06-01T10:38:21.643Z</time>
      </trkpt>
      <trkpt lat="44.13486" lon="5.86559">
        <ele>1168</ele>
        <time>2021-06-01T10:38:22.643Z</time>
      </trkpt>
      <trkpt lat="44.13487" lon="5.8656">
        <ele>1168</ele>
        <time>2021-06-01T10:38:23.643Z</time>
      </trkpt>
      <trkpt lat="44.13487" lon="5.86562">
        <ele>1168</ele>
        <time>2021-06-01T10:38:24.643Z</time>
      </trkpt>
      <trkpt lat="44.13487" lon="5.86563">
        <ele>1168</ele>
        <time>2021-06-01T10:38:25.643Z</time>
      </trkpt>
      <trkpt lat="44.13488" lon="5.86564">
        <ele>1168</ele>
        <time>2021-06-01T10:38:26.643Z</time>
      </trkpt>
      <trkpt lat="44.13488" lon="5.86565">
        <ele>1168</ele>
        <time>2021-06-01T10:38:27.643Z</time>
      </trkpt>
      <trkpt lat="44.13489" lon="5.86566">
        <ele>1168</ele>
        <time>2021-06-01T10:38:28.643Z</time>
      </trkpt>
      <trkpt lat="44.13489" lon="5.86567">
        <ele>1168</ele>
        <time>2021-06-01T10:38:29.643Z</time>
      </trkpt>
      <trkpt lat="44.13489" lon="5.86568">
        <ele>1168</ele>
        <time>2021-06-01T10:38:30.643Z</time>
      </trkpt>
      <trkpt lat="44.13489" lon="5.86568">
        <ele>1168</ele>
        <time>2021-06-01T10:38:31.643Z</time>
      </trkpt>
      <trkpt lat="44.13489" lon="5.86568">
        <ele>1168</ele>
        <time>2021-06-01T10:38:32.643Z</time>
      </trkpt>
      <trkpt lat="44.13489" lon="5.86568">
        <ele>1169</ele>
        <time>2021-06-01T10:38:33.643Z</time>
      </trkpt>
      <trkpt lat="44.13489" lon="5.86568">
        <ele>1169</ele>
        <time>2021-06-01T10:38:34.643Z</time>
      </trkpt>
      <trkpt lat="44.1349" lon="5.86568">
        <ele>1169</ele>
        <time>2021-06-01T10:38:35.643Z</time>
      </trkpt>
      <trkpt lat="44.1349" lon="5.86568">
        <ele>1169</ele>
        <time>2021-06-01T10:38:36.643Z</time>
      </trkpt>
      <trkpt lat="44.1349" lon="5.86568">
        <ele>1169</ele>
        <time>2021-06-01T10:38:37.643Z</time>
      </trkpt>
      <trkpt lat="44.1349" lon="5.86568">
        <ele>1169</ele>
        <time>2021-06-01T10:38:38.643Z</time>
      </trkpt>
      <trkpt lat="44.1349" lon="5.86568">
        <ele>1169</ele>
        <time>2021-06-01T10:38:39.643Z</time>
      </trkpt>
      <trkpt lat="44.1349" lon="5.86568">
        <ele>1169</ele>
        <time>2021-06-01T10:38:40.643Z</time>
      </trkpt>
      <trkpt lat="44.1349" lon="5.86568">
        <ele>1169</ele>
        <time>2021-06-01T10:38:41.643Z</time>
      </trkpt>
      <trkpt lat="44.1349" lon="5.86568">
        <ele>1169</ele>
        <time>2021-06-01T10:38:42.643Z</time>
      </trkpt>
      <trkpt lat="44.1349" lon="5.86568">
        <ele>1169</ele>
        <time>2021-06-01T10:38:43.643Z</time>
      </trkpt>
      <trkpt lat="44.1349" lon="5.86568">
        <ele>1169</ele>
        <time>2021-06-01T10:38:44.643Z</time>
      </trkpt>
      <trkpt lat="44.1349" lon="5.86568">
        <ele>1169</ele>
        <time>2021-06-01T10:38:45.643Z</time>
      </trkpt>
      <trkpt lat="44.1349" lon="5.86568">
        <ele>1169</ele>
        <time>2021-06-01T10:38:46.643Z</time>
      </trkpt>
      <trkpt lat="44.1349" lon="5.86568">
        <ele>1169</ele>
        <time>2021-06-01T10:38:47.643Z</time>
      </trkpt>
      <trkpt lat="44.1349" lon="5.86568">
        <ele>1169</ele>
        <time>2021-06-01T10:38:48.643Z</time>
      </trkpt>
      <trkpt lat="44.1349" lon="5.86568">
        <ele>1169</ele>
        <time>2021-06-01T10:38:49.643Z</time>
      </trkpt>
      <trkpt lat="44.1349" lon="5.86568">
        <ele>1169</ele>
        <time>2021-06-01T10:38:50.643Z</time>
      </trkpt>
      <trkpt lat="44.1349" lon="5.86568">
        <ele>1169</ele>
        <time>2021-06-01T10:38:51.643Z</time>
      </trkpt>
      <trkpt lat="44.1349" lon="5.86568">
        <ele>1169</ele>
        <time>2021-06-01T10:38:52.643Z</time>
      </trkpt>
      <trkpt lat="44.1349" lon="5.86568">
        <ele>1169</ele>
        <time>2021-06-01T10:38:53.643Z</time>
      </trkpt>
      <trkpt lat="44.1349" lon="5.86568">
        <ele>1169</ele>
        <time>2021-06-01T10:38:54.643Z</time>
      </trkpt>
      <trkpt lat="44.1349" lon="5.86568">
        <ele>1169</ele>
        <time>2021-06-01T10:38:55.643Z</time>
      </trkpt>
      <trkpt lat="44.1349" lon="5.86568">
        <ele>1169</ele>
        <time>2021-06-01T10:38:56.643Z</time>
      </trkpt>
      <trkpt lat="44.1349" lon="5.86568">
        <ele>1169</ele>
        <time>2021-06-01T10:38:57.643Z</time>
      </trkpt>
      <trkpt lat="44.1349" lon="5.86568">
        <ele>1169</ele>
        <time>2021-06-01T10:38:58.643Z</time>
      </trkpt>
      <trkpt lat="44.1349" lon="5.86568">
        <ele>1169</ele>
        <time>2021-06-01T10:38:59.643Z</time>
      </trkpt>
      <trkpt lat="44.1349" lon="5.86568">
        <ele>1169</ele>
        <time>2021-06-01T10:39:00.643Z</time>
      </trkpt>
      <trkpt lat="44.1349" lon="5.86568">
        <ele>1169</ele>
        <time>2021-06-01T10:39:01.643Z</time>
      </trkpt>
      <trkpt lat="44.13491" lon="5.86568">
        <ele>1169</ele>
        <time>2021-06-01T10:39:02.643Z</time>
      </trkpt>
      <trkpt lat="44.13491" lon="5.86569">
        <ele>1169</ele>
        <time>2021-06-01T10:39:03.643Z</time>
      </trkpt>
      <trkpt lat="44.13491" lon="5.86569">
        <ele>1169</ele>
        <time>2021-06-01T10:39:04.643Z</time>
      </trkpt>
      <trkpt lat="44.13491" lon="5.86569">
        <ele>1169</ele>
        <time>2021-06-01T10:39:05.643Z</time>
      </trkpt>
      <trkpt lat="44.13491" lon="5.86568">
        <ele>1169</ele>
        <time>2021-06-01T10:39:06.643Z</time>
      </trkpt>
      <trkpt lat="44.13491" lon="5.86568">
        <ele>1169</ele>
        <time>2021-06-01T10:39:07.643Z</time>
      </trkpt>
      <trkpt lat="44.13491" lon="5.86568">
        <ele>1169</ele>
        <time>2021-06-01T10:39:08.643Z</time>
      </trkpt>
      <trkpt lat="44.13491" lon="5.86568">
        <ele>1169</ele>
        <time>2021-06-01T10:39:09.643Z</time>
      </trkpt>
      <trkpt lat="44.13491" lon="5.86568">
        <ele>1169</ele>
        <time>2021-06-01T10:39:10.643Z</time>
      </trkpt>
      <trkpt lat="44.13491" lon="5.86568">
        <ele>1169</ele>
        <time>2021-06-01T10:39:11.643Z</time>
      </trkpt>
      <trkpt lat="44.13491" lon="5.86568">
        <ele>1169</ele>
        <time>2021-06-01T10:39:12.643Z</time>
      </trkpt>
      <trkpt lat="44.13491" lon="5.86568">
        <ele>1169</ele>
        <time>2021-06-01T10:39:13.643Z</time>
      </trkpt>
      <trkpt lat="44.13491" lon="5.86568">
        <ele>1169</ele>
        <time>2021-06-01T10:39:14.643Z</time>
      </trkpt>
      <trkpt lat="44.13491" lon="5.86568">
        <ele>1169</ele>
        <time>2021-06-01T10:39:15.643Z</time>
      </trkpt>
      <trkpt lat="44.13491" lon="5.86568">
        <ele>1169</ele>
        <time>2021-06-01T10:39:16.643Z</time>
      </trkpt>
      <trkpt lat="44.13491" lon="5.86568">
        <ele>1169</ele>
        <time>2021-06-01T10:39:17.643Z</time>
      </trkpt>
      <trkpt lat="44.13491" lon="5.86568">
        <ele>1169</ele>
        <time>2021-06-01T10:39:18.643Z</time>
      </trkpt>
      <trkpt lat="44.13491" lon="5.86568">
        <ele>1169</ele>
        <time>2021-06-01T10:39:19.643Z</time>
      </trkpt>
      <trkpt lat="44.13491" lon="5.86568">
        <ele>1169</ele>
        <time>2021-06-01T10:39:20.643Z</time>
      </trkpt>
      <trkpt lat="44.13491" lon="5.86568">
        <ele>1169</ele>
        <time>2021-06-01T10:39:21.643Z</time>
      </trkpt>
      <trkpt lat="44.13491" lon="5.86568">
        <ele>1169</ele>
        <time>2021-06-01T10:39:22.643Z</time>
      </trkpt>
      <trkpt lat="44.13491" lon="5.86568">
        <ele>1169</ele>
        <time>2021-06-01T10:39:23.643Z</time>
      </trkpt>
      <trkpt lat="44.13491" lon="5.86568">
        <ele>1169</ele>
        <time>2021-06-01T10:39:24.643Z</time>
      </trkpt>
      <trkpt lat="44.13491" lon="5.86568">
        <ele>1169</ele>
        <time>2021-06-01T10:39:25.643Z</time>
      </trkpt>
      <trkpt lat="44.13491" lon="5.86568">
        <ele>1169</ele>
        <time>2021-06-01T10:39:26.643Z</time>
      </trkpt>
      <trkpt lat="44.13491" lon="5.86569">
        <ele>1169</ele>
        <time>2021-06-01T10:39:27.643Z</time>
      </trkpt>
      <trkpt lat="44.13492" lon="5.8657">
        <ele>1169</ele>
        <time>2021-06-01T10:39:28.643Z</time>
      </trkpt>
      <trkpt lat="44.13492" lon="5.8657">
        <ele>1169</ele>
        <time>2021-06-01T10:39:29.643Z</time>
      </trkpt>
      <trkpt lat="44.13492" lon="5.86571">
        <ele>1169</ele>
        <time>2021-06-01T10:39:30.643Z</time>
      </trkpt>
      <trkpt lat="44.13493" lon="5.86572">
        <ele>1169</ele>
        <time>2021-06-01T10:39:31.643Z</time>
      </trkpt>
      <trkpt lat="44.13494" lon="5.86574">
        <ele>1169</ele>
        <time>2021-06-01T10:39:32.643Z</time>
      </trkpt>
      <trkpt lat="44.13494" lon="5.86575">
        <ele>1169</ele>
        <time>2021-06-01T10:39:33.643Z</time>
      </trkpt>
      <trkpt lat="44.13495" lon="5.86576">
        <ele>1169</ele>
        <time>2021-06-01T10:39:34.643Z</time>
      </trkpt>
      <trkpt lat="44.13495" lon="5.86577">
        <ele>1169</ele>
        <time>2021-06-01T10:39:35.643Z</time>
      </trkpt>
      <trkpt lat="44.13496" lon="5.86578">
        <ele>1169</ele>
        <time>2021-06-01T10:39:36.643Z</time>
      </trkpt>
      <trkpt lat="44.13497" lon="5.86579">
        <ele>1169</ele>
        <time>2021-06-01T10:39:37.643Z</time>
      </trkpt>
      <trkpt lat="44.13497" lon="5.8658">
        <ele>1170</ele>
        <time>2021-06-01T10:39:38.643Z</time>
      </trkpt>
      <trkpt lat="44.13498" lon="5.86581">
        <ele>1170</ele>
        <time>2021-06-01T10:39:39.643Z</time>
      </trkpt>
      <trkpt lat="44.13498" lon="5.86582">
        <ele>1170</ele>
        <time>2021-06-01T10:39:40.643Z</time>
      </trkpt>
      <trkpt lat="44.13499" lon="5.86584">
        <ele>1170</ele>
        <time>2021-06-01T10:39:41.643Z</time>
      </trkpt>
      <trkpt lat="44.135" lon="5.86585">
        <ele>1170</ele>
        <time>2021-06-01T10:39:42.643Z</time>
      </trkpt>
      <trkpt lat="44.135" lon="5.86586">
        <ele>1170</ele>
        <time>2021-06-01T10:39:43.643Z</time>
      </trkpt>
      <trkpt lat="44.13501" lon="5.86587">
        <ele>1170</ele>
        <time>2021-06-01T10:39:44.643Z</time>
      </trkpt>
      <trkpt lat="44.13502" lon="5.86588">
        <ele>1170</ele>
        <time>2021-06-01T10:39:45.643Z</time>
      </trkpt>
      <trkpt lat="44.13502" lon="5.86589">
        <ele>1170</ele>
        <time>2021-06-01T10:39:46.643Z</time>
      </trkpt>
      <trkpt lat="44.13503" lon="5.8659">
        <ele>1170</ele>
        <time>2021-06-01T10:39:47.643Z</time>
      </trkpt>
      <trkpt lat="44.13504" lon="5.86591">
        <ele>1170</ele>
        <time>2021-06-01T10:39:48.643Z</time>
      </trkpt>
      <trkpt lat="44.13504" lon="5.86591">
        <ele>1171</ele>
        <time>2021-06-01T10:39:49.643Z</time>
      </trkpt>
      <trkpt lat="44.13505" lon="5.86592">
        <ele>1171</ele>
        <time>2021-06-01T10:39:50.643Z</time>
      </trkpt>
      <trkpt lat="44.13506" lon="5.86592">
        <ele>1171</ele>
        <time>2021-06-01T10:39:51.643Z</time>
      </trkpt>
      <trkpt lat="44.13506" lon="5.86593">
        <ele>1171</ele>
        <time>2021-06-01T10:39:52.643Z</time>
      </trkpt>
      <trkpt lat="44.13507" lon="5.86594">
        <ele>1171</ele>
        <time>2021-06-01T10:39:53.643Z</time>
      </trkpt>
      <trkpt lat="44.13508" lon="5.86595">
        <ele>1171</ele>
        <time>2021-06-01T10:39:54.643Z</time>
      </trkpt>
      <trkpt lat="44.13508" lon="5.86596">
        <ele>1171</ele>
        <time>2021-06-01T10:39:55.643Z</time>
      </trkpt>
      <trkpt lat="44.13508" lon="5.86596">
        <ele>1171</ele>
        <time>2021-06-01T10:39:56.643Z</time>
      </trkpt>
      <trkpt lat="44.13509" lon="5.86597">
        <ele>1171</ele>
        <time>2021-06-01T10:39:57.643Z</time>
      </trkpt>
      <trkpt lat="44.13509" lon="5.86597">
        <ele>1171</ele>
        <time>2021-06-01T10:39:58.643Z</time>
      </trkpt>
      <trkpt lat="44.13509" lon="5.86598">
        <ele>1171</ele>
        <time>2021-06-01T10:39:59.643Z</time>
      </trkpt>
      <trkpt lat="44.1351" lon="5.86598">
        <ele>1171</ele>
        <time>2021-06-01T10:40:00.643Z</time>
      </trkpt>
      <trkpt lat="44.1351" lon="5.86599">
        <ele>1171</ele>
        <time>2021-06-01T10:40:01.643Z</time>
      </trkpt>
      <trkpt lat="44.13511" lon="5.866">
        <ele>1171</ele>
        <time>2021-06-01T10:40:02.643Z</time>
      </trkpt>
      <trkpt lat="44.13512" lon="5.86601">
        <ele>1171</ele>
        <time>2021-06-01T10:40:03.643Z</time>
      </trkpt>
      <trkpt lat="44.13512" lon="5.86602">
        <ele>1171</ele>
        <time>2021-06-01T10:40:04.643Z</time>
      </trkpt>
      <trkpt lat="44.13513" lon="5.86603">
        <ele>1171</ele>
        <time>2021-06-01T10:40:05.643Z</time>
      </trkpt>
      <trkpt lat="44.13514" lon="5.86604">
        <ele>1171</ele>
        <time>2021-06-01T10:40:06.643Z</time>
      </trkpt>
      <trkpt lat="44.13514" lon="5.86605">
        <ele>1171</ele>
        <time>2021-06-01T10:40:07.643Z</time>
      </trkpt>
      <trkpt lat="44.13515" lon="5.86606">
        <ele>1171</ele>
        <time>2021-06-01T10:40:08.643Z</time>
      </trkpt>
      <trkpt lat="44.13515" lon="5.86607">
        <ele>1171</ele>
        <time>2021-06-01T10:40:09.643Z</time>
      </trkpt>
      <trkpt lat="44.13516" lon="5.86608">
        <ele>1171</ele>
        <time>2021-06-01T10:40:10.643Z</time>
      </trkpt>
      <trkpt lat="44.13517" lon="5.86609">
        <ele>1171</ele>
        <time>2021-06-01T10:40:11.643Z</time>
      </trkpt>
      <trkpt lat="44.13517" lon="5.8661">
        <ele>1171</ele>
        <time>2021-06-01T10:40:12.643Z</time>
      </trkpt>
      <trkpt lat="44.13518" lon="5.86611">
        <ele>1171</ele>
        <time>2021-06-01T10:40:13.643Z</time>
      </trkpt>
      <trkpt lat="44.13519" lon="5.86612">
        <ele>1172</ele>
        <time>2021-06-01T10:40:14.643Z</time>
      </trkpt>
      <trkpt lat="44.13519" lon="5.86613">
        <ele>1172</ele>
        <time>2021-06-01T10:40:15.643Z</time>
      </trkpt>
      <trkpt lat="44.1352" lon="5.86614">
        <ele>1172</ele>
        <time>2021-06-01T10:40:16.643Z</time>
      </trkpt>
      <trkpt lat="44.13521" lon="5.86615">
        <ele>1172</ele>
        <time>2021-06-01T10:40:17.643Z</time>
      </trkpt>
      <trkpt lat="44.13521" lon="5.86615">
        <ele>1172</ele>
        <time>2021-06-01T10:40:18.643Z</time>
      </trkpt>
      <trkpt lat="44.13521" lon="5.86616">
        <ele>1172</ele>
        <time>2021-06-01T10:40:19.643Z</time>
      </trkpt>
      <trkpt lat="44.13522" lon="5.86617">
        <ele>1172</ele>
        <time>2021-06-01T10:40:20.643Z</time>
      </trkpt>
      <trkpt lat="44.13522" lon="5.86618">
        <ele>1172</ele>
        <time>2021-06-01T10:40:21.643Z</time>
      </trkpt>
      <trkpt lat="44.13523" lon="5.86619">
        <ele>1172</ele>
        <time>2021-06-01T10:40:22.643Z</time>
      </trkpt>
      <trkpt lat="44.13523" lon="5.86619">
        <ele>1172</ele>
        <time>2021-06-01T10:40:23.643Z</time>
      </trkpt>
      <trkpt lat="44.13523" lon="5.86619">
        <ele>1172</ele>
        <time>2021-06-01T10:40:24.643Z</time>
      </trkpt>
      <trkpt lat="44.13523" lon="5.86619">
        <ele>1172</ele>
        <time>2021-06-01T10:40:25.643Z</time>
      </trkpt>
      <trkpt lat="44.13523" lon="5.86619">
        <ele>1172</ele>
        <time>2021-06-01T10:40:26.643Z</time>
      </trkpt>
      <trkpt lat="44.13523" lon="5.86619">
        <ele>1172</ele>
        <time>2021-06-01T10:40:27.643Z</time>
      </trkpt>
      <trkpt lat="44.13523" lon="5.86619">
        <ele>1172</ele>
        <time>2021-06-01T10:40:28.643Z</time>
      </trkpt>
      <trkpt lat="44.13523" lon="5.86619">
        <ele>1172</ele>
        <time>2021-06-01T10:40:29.643Z</time>
      </trkpt>
      <trkpt lat="44.13523" lon="5.86619">
        <ele>1172</ele>
        <time>2021-06-01T10:40:30.643Z</time>
      </trkpt>
      <trkpt lat="44.13523" lon="5.86619">
        <ele>1172</ele>
        <time>2021-06-01T10:40:31.643Z</time>
      </trkpt>
      <trkpt lat="44.13523" lon="5.86619">
        <ele>1172</ele>
        <time>2021-06-01T10:40:32.643Z</time>
      </trkpt>
      <trkpt lat="44.13523" lon="5.86619">
        <ele>1172</ele>
        <time>2021-06-01T10:40:33.643Z</time>
      </trkpt>
      <trkpt lat="44.13523" lon="5.86619">
        <ele>1172</ele>
        <time>2021-06-01T10:40:34.643Z</time>
      </trkpt>
      <trkpt lat="44.13523" lon="5.86619">
        <ele>1172</ele>
        <time>2021-06-01T10:40:35.643Z</time>
      </trkpt>
      <trkpt lat="44.13524" lon="5.86619">
        <ele>1172</ele>
        <time>2021-06-01T10:40:36.643Z</time>
      </trkpt>
      <trkpt lat="44.13524" lon="5.86619">
        <ele>1172</ele>
        <time>2021-06-01T10:40:37.643Z</time>
      </trkpt>
      <trkpt lat="44.13524" lon="5.86619">
        <ele>1172</ele>
        <time>2021-06-01T10:40:38.643Z</time>
      </trkpt>
      <trkpt lat="44.13524" lon="5.86619">
        <ele>1172</ele>
        <time>2021-06-01T10:40:39.643Z</time>
      </trkpt>
      <trkpt lat="44.13524" lon="5.8662">
        <ele>1172</ele>
        <time>2021-06-01T10:40:40.643Z</time>
      </trkpt>
      <trkpt lat="44.13524" lon="5.8662">
        <ele>1172</ele>
        <time>2021-06-01T10:40:41.643Z</time>
      </trkpt>
      <trkpt lat="44.13524" lon="5.8662">
        <ele>1172</ele>
        <time>2021-06-01T10:40:42.643Z</time>
      </trkpt>
      <trkpt lat="44.13524" lon="5.8662">
        <ele>1172</ele>
        <time>2021-06-01T10:40:43.643Z</time>
      </trkpt>
      <trkpt lat="44.13524" lon="5.8662">
        <ele>1172</ele>
        <time>2021-06-01T10:40:44.643Z</time>
      </trkpt>
      <trkpt lat="44.13524" lon="5.8662">
        <ele>1172</ele>
        <time>2021-06-01T10:40:45.643Z</time>
      </trkpt>
      <trkpt lat="44.13524" lon="5.8662">
        <ele>1172</ele>
        <time>2021-06-01T10:40:46.643Z</time>
      </trkpt>
      <trkpt lat="44.13524" lon="5.8662">
        <ele>1172</ele>
        <time>2021-06-01T10:40:47.643Z</time>
      </trkpt>
      <trkpt lat="44.13524" lon="5.8662">
        <ele>1172</ele>
        <time>2021-06-01T10:40:48.643Z</time>
      </trkpt>
      <trkpt lat="44.13524" lon="5.8662">
        <ele>1172</ele>
        <time>2021-06-01T10:40:49.643Z</time>
      </trkpt>
      <trkpt lat="44.13524" lon="5.8662">
        <ele>1172</ele>
        <time>2021-06-01T10:40:50.643Z</time>
      </trkpt>
      <trkpt lat="44.13524" lon="5.8662">
        <ele>1172</ele>
        <time>2021-06-01T10:40:51.643Z</time>
      </trkpt>
      <trkpt lat="44.13524" lon="5.8662">
        <ele>1173</ele>
        <time>2021-06-01T10:40:52.643Z</time>
      </trkpt>
      <trkpt lat="44.13524" lon="5.8662">
        <ele>1173</ele>
        <time>2021-06-01T10:40:53.643Z</time>
      </trkpt>
      <trkpt lat="44.13524" lon="5.8662">
        <ele>1173</ele>
        <time>2021-06-01T10:40:54.643Z</time>
      </trkpt>
      <trkpt lat="44.13524" lon="5.8662">
        <ele>1173</ele>
        <time>2021-06-01T10:40:55.643Z</time>
      </trkpt>
      <trkpt lat="44.13524" lon="5.8662">
        <ele>1173</ele>
        <time>2021-06-01T10:40:56.643Z</time>
      </trkpt>
      <trkpt lat="44.13524" lon="5.8662">
        <ele>1172</ele>
        <time>2021-06-01T10:40:57.643Z</time>
      </trkpt>
      <trkpt lat="44.13524" lon="5.8662">
        <ele>1172</ele>
        <time>2021-06-01T10:40:58.643Z</time>
      </trkpt>
      <trkpt lat="44.13524" lon="5.8662">
        <ele>1172</ele>
        <time>2021-06-01T10:40:59.643Z</time>
      </trkpt>
      <trkpt lat="44.13524" lon="5.8662">
        <ele>1172</ele>
        <time>2021-06-01T10:41:00.643Z</time>
      </trkpt>
      <trkpt lat="44.13524" lon="5.8662">
        <ele>1173</ele>
        <time>2021-06-01T10:41:01.643Z</time>
      </trkpt>
      <trkpt lat="44.13524" lon="5.8662">
        <ele>1173</ele>
        <time>2021-06-01T10:41:02.643Z</time>
      </trkpt>
      <trkpt lat="44.13524" lon="5.8662">
        <ele>1173</ele>
        <time>2021-06-01T10:41:03.643Z</time>
      </trkpt>
      <trkpt lat="44.13524" lon="5.8662">
        <ele>1173</ele>
        <time>2021-06-01T10:41:04.643Z</time>
      </trkpt>
      <trkpt lat="44.13524" lon="5.8662">
        <ele>1173</ele>
        <time>2021-06-01T10:41:05.643Z</time>
      </trkpt>
      <trkpt lat="44.13524" lon="5.8662">
        <ele>1173</ele>
        <time>2021-06-01T10:41:06.643Z</time>
      </trkpt>
      <trkpt lat="44.13524" lon="5.8662">
        <ele>1173</ele>
        <time>2021-06-01T10:41:07.643Z</time>
      </trkpt>
      <trkpt lat="44.13524" lon="5.8662">
        <ele>1173</ele>
        <time>2021-06-01T10:41:08.643Z</time>
      </trkpt>
      <trkpt lat="44.13524" lon="5.8662">
        <ele>1173</ele>
        <time>2021-06-01T10:41:09.643Z</time>
      </trkpt>
      <trkpt lat="44.13524" lon="5.8662">
        <ele>1173</ele>
        <time>2021-06-01T10:41:10.643Z</time>
      </trkpt>
      <trkpt lat="44.13524" lon="5.8662">
        <ele>1173</ele>
        <time>2021-06-01T10:41:11.643Z</time>
      </trkpt>
      <trkpt lat="44.13524" lon="5.8662">
        <ele>1173</ele>
        <time>2021-06-01T10:41:12.643Z</time>
      </trkpt>
      <trkpt lat="44.13524" lon="5.8662">
        <ele>1173</ele>
        <time>2021-06-01T10:41:13.643Z</time>
      </trkpt>
      <trkpt lat="44.13524" lon="5.8662">
        <ele>1173</ele>
        <time>2021-06-01T10:41:14.643Z</time>
      </trkpt>
      <trkpt lat="44.13524" lon="5.8662">
        <ele>1173</ele>
        <time>2021-06-01T10:41:15.643Z</time>
      </trkpt>
      <trkpt lat="44.13524" lon="5.8662">
        <ele>1173</ele>
        <time>2021-06-01T10:41:16.643Z</time>
      </trkpt>
      <trkpt lat="44.13524" lon="5.8662">
        <ele>1173</ele>
        <time>2021-06-01T10:41:17.643Z</time>
      </trkpt>
      <trkpt lat="44.13524" lon="5.8662">
        <ele>1173</ele>
        <time>2021-06-01T10:41:18.643Z</time>
      </trkpt>
      <trkpt lat="44.13524" lon="5.8662">
        <ele>1173</ele>
        <time>2021-06-01T10:41:19.643Z</time>
      </trkpt>
      <trkpt lat="44.13524" lon="5.8662">
        <ele>1173</ele>
        <time>2021-06-01T10:41:20.643Z</time>
      </trkpt>
      <trkpt lat="44.13524" lon="5.8662">
        <ele>1173</ele>
        <time>2021-06-01T10:41:21.643Z</time>
      </trkpt>
      <trkpt lat="44.13524" lon="5.8662">
        <ele>1173</ele>
        <time>2021-06-01T10:41:22.643Z</time>
      </trkpt>
      <trkpt lat="44.13524" lon="5.8662">
        <ele>1173</ele>
        <time>2021-06-01T10:41:23.643Z</time>
      </trkpt>
      <trkpt lat="44.13524" lon="5.8662">
        <ele>1173</ele>
        <time>2021-06-01T10:41:24.643Z</time>
      </trkpt>
      <trkpt lat="44.13524" lon="5.8662">
        <ele>1173</ele>
        <time>2021-06-01T10:41:25.643Z</time>
      </trkpt>
      <trkpt lat="44.13524" lon="5.8662">
        <ele>1173</ele>
        <time>2021-06-01T10:41:26.643Z</time>
      </trkpt>
      <trkpt lat="44.13524" lon="5.8662">
        <ele>1173</ele>
        <time>2021-06-01T10:41:27.643Z</time>
      </trkpt>
      <trkpt lat="44.13524" lon="5.8662">
        <ele>1173</ele>
        <time>2021-06-01T10:41:28.643Z</time>
      </trkpt>
      <trkpt lat="44.13524" lon="5.8662">
        <ele>1173</ele>
        <time>2021-06-01T10:41:29.643Z</time>
      </trkpt>
      <trkpt lat="44.13524" lon="5.8662">
        <ele>1173</ele>
        <time>2021-06-01T10:41:30.643Z</time>
      </trkpt>
      <trkpt lat="44.13524" lon="5.8662">
        <ele>1173</ele>
        <time>2021-06-01T10:41:31.643Z</time>
      </trkpt>
      <trkpt lat="44.13524" lon="5.8662">
        <ele>1173</ele>
        <time>2021-06-01T10:41:32.643Z</time>
      </trkpt>
      <trkpt lat="44.13524" lon="5.8662">
        <ele>1173</ele>
        <time>2021-06-01T10:41:33.643Z</time>
      </trkpt>
      <trkpt lat="44.13524" lon="5.8662">
        <ele>1173</ele>
        <time>2021-06-01T10:41:34.643Z</time>
      </trkpt>
      <trkpt lat="44.13524" lon="5.8662">
        <ele>1173</ele>
        <time>2021-06-01T10:41:35.643Z</time>
      </trkpt>
      <trkpt lat="44.13524" lon="5.8662">
        <ele>1173</ele>
        <time>2021-06-01T10:41:36.643Z</time>
      </trkpt>
      <trkpt lat="44.13524" lon="5.8662">
        <ele>1173</ele>
        <time>2021-06-01T10:41:37.643Z</time>
      </trkpt>
      <trkpt lat="44.13524" lon="5.8662">
        <ele>1173</ele>
        <time>2021-06-01T10:41:38.643Z</time>
      </trkpt>
      <trkpt lat="44.13524" lon="5.8662">
        <ele>1173</ele>
        <time>2021-06-01T10:41:39.643Z</time>
      </trkpt>
      <trkpt lat="44.13524" lon="5.8662">
        <ele>1173</ele>
        <time>2021-06-01T10:41:40.643Z</time>
      </trkpt>
      <trkpt lat="44.13524" lon="5.8662">
        <ele>1173</ele>
        <time>2021-06-01T10:41:41.643Z</time>
      </trkpt>
      <trkpt lat="44.13524" lon="5.8662">
        <ele>1173</ele>
        <time>2021-06-01T10:41:42.643Z</time>
      </trkpt>
      <trkpt lat="44.13524" lon="5.8662">
        <ele>1173</ele>
        <time>2021-06-01T10:41:43.643Z</time>
      </trkpt>
      <trkpt lat="44.13524" lon="5.8662">
        <ele>1173</ele>
        <time>2021-06-01T10:41:44.643Z</time>
      </trkpt>
      <trkpt lat="44.13524" lon="5.8662">
        <ele>1173</ele>
        <time>2021-06-01T10:41:45.643Z</time>
      </trkpt>
      <trkpt lat="44.13525" lon="5.86621">
        <ele>1173</ele>
        <time>2021-06-01T10:41:46.643Z</time>
      </trkpt>
      <trkpt lat="44.13525" lon="5.86621">
        <ele>1173</ele>
        <time>2021-06-01T10:41:47.643Z</time>
      </trkpt>
      <trkpt lat="44.13526" lon="5.86623">
        <ele>1173</ele>
        <time>2021-06-01T10:41:48.643Z</time>
      </trkpt>
      <trkpt lat="44.13527" lon="5.86624">
        <ele>1173</ele>
        <time>2021-06-01T10:41:49.643Z</time>
      </trkpt>
      <trkpt lat="44.13527" lon="5.86625">
        <ele>1173</ele>
        <time>2021-06-01T10:41:50.643Z</time>
      </trkpt>
      <trkpt lat="44.13528" lon="5.86626">
        <ele>1173</ele>
        <time>2021-06-01T10:41:51.643Z</time>
      </trkpt>
      <trkpt lat="44.13529" lon="5.86627">
        <ele>1173</ele>
        <time>2021-06-01T10:41:52.643Z</time>
      </trkpt>
      <trkpt lat="44.1353" lon="5.86628">
        <ele>1173</ele>
        <time>2021-06-01T10:41:53.643Z</time>
      </trkpt>
      <trkpt lat="44.13531" lon="5.86629">
        <ele>1173</ele>
        <time>2021-06-01T10:41:54.643Z</time>
      </trkpt>
      <trkpt lat="44.13531" lon="5.8663">
        <ele>1174</ele>
        <time>2021-06-01T10:41:55.643Z</time>
      </trkpt>
      <trkpt lat="44.13532" lon="5.86631">
        <ele>1174</ele>
        <time>2021-06-01T10:41:56.643Z</time>
      </trkpt>
      <trkpt lat="44.13533" lon="5.86632">
        <ele>1174</ele>
        <time>2021-06-01T10:41:57.643Z</time>
      </trkpt>
      <trkpt lat="44.13533" lon="5.86633">
        <ele>1174</ele>
        <time>2021-06-01T10:41:58.643Z</time>
      </trkpt>
      <trkpt lat="44.13534" lon="5.86634">
        <ele>1174</ele>
        <time>2021-06-01T10:41:59.643Z</time>
      </trkpt>
      <trkpt lat="44.13535" lon="5.86635">
        <ele>1174</ele>
        <time>2021-06-01T10:42:00.643Z</time>
      </trkpt>
      <trkpt lat="44.13536" lon="5.86636">
        <ele>1174</ele>
        <time>2021-06-01T10:42:01.643Z</time>
      </trkpt>
      <trkpt lat="44.13537" lon="5.86637">
        <ele>1174</ele>
        <time>2021-06-01T10:42:02.643Z</time>
      </trkpt>
      <trkpt lat="44.13537" lon="5.86638">
        <ele>1174</ele>
        <time>2021-06-01T10:42:03.643Z</time>
      </trkpt>
      <trkpt lat="44.13538" lon="5.86639">
        <ele>1174</ele>
        <time>2021-06-01T10:42:04.643Z</time>
      </trkpt>
      <trkpt lat="44.13539" lon="5.8664">
        <ele>1174</ele>
        <time>2021-06-01T10:42:05.643Z</time>
      </trkpt>
      <trkpt lat="44.1354" lon="5.86641">
        <ele>1174</ele>
        <time>2021-06-01T10:42:06.643Z</time>
      </trkpt>
      <trkpt lat="44.13541" lon="5.86642">
        <ele>1175</ele>
        <time>2021-06-01T10:42:07.643Z</time>
      </trkpt>
      <trkpt lat="44.13541" lon="5.86643">
        <ele>1175</ele>
        <time>2021-06-01T10:42:08.643Z</time>
      </trkpt>
      <trkpt lat="44.13542" lon="5.86644">
        <ele>1175</ele>
        <time>2021-06-01T10:42:09.643Z</time>
      </trkpt>
      <trkpt lat="44.13543" lon="5.86645">
        <ele>1175</ele>
        <time>2021-06-01T10:42:10.643Z</time>
      </trkpt>
      <trkpt lat="44.13543" lon="5.86646">
        <ele>1175</ele>
        <time>2021-06-01T10:42:11.643Z</time>
      </trkpt>
      <trkpt lat="44.13544" lon="5.86647">
        <ele>1175</ele>
        <time>2021-06-01T10:42:12.643Z</time>
      </trkpt>
      <trkpt lat="44.13545" lon="5.86648">
        <ele>1175</ele>
        <time>2021-06-01T10:42:13.643Z</time>
      </trkpt>
      <trkpt lat="44.13546" lon="5.86649">
        <ele>1175</ele>
        <time>2021-06-01T10:42:14.643Z</time>
      </trkpt>
      <trkpt lat="44.13546" lon="5.8665">
        <ele>1175</ele>
        <time>2021-06-01T10:42:15.643Z</time>
      </trkpt>
      <trkpt lat="44.13547" lon="5.86651">
        <ele>1175</ele>
        <time>2021-06-01T10:42:16.643Z</time>
      </trkpt>
      <trkpt lat="44.13548" lon="5.86652">
        <ele>1175</ele>
        <time>2021-06-01T10:42:17.643Z</time>
      </trkpt>
      <trkpt lat="44.13548" lon="5.86653">
        <ele>1175</ele>
        <time>2021-06-01T10:42:18.643Z</time>
      </trkpt>
      <trkpt lat="44.13549" lon="5.86654">
        <ele>1175</ele>
        <time>2021-06-01T10:42:19.643Z</time>
      </trkpt>
      <trkpt lat="44.1355" lon="5.86655">
        <ele>1175</ele>
        <time>2021-06-01T10:42:20.643Z</time>
      </trkpt>
      <trkpt lat="44.13551" lon="5.86656">
        <ele>1176</ele>
        <time>2021-06-01T10:42:21.643Z</time>
      </trkpt>
      <trkpt lat="44.13551" lon="5.86657">
        <ele>1176</ele>
        <time>2021-06-01T10:42:22.643Z</time>
      </trkpt>
      <trkpt lat="44.13552" lon="5.86658">
        <ele>1176</ele>
        <time>2021-06-01T10:42:23.643Z</time>
      </trkpt>
      <trkpt lat="44.13553" lon="5.86659">
        <ele>1176</ele>
        <time>2021-06-01T10:42:24.643Z</time>
      </trkpt>
      <trkpt lat="44.13553" lon="5.8666">
        <ele>1176</ele>
        <time>2021-06-01T10:42:25.643Z</time>
      </trkpt>
      <trkpt lat="44.13554" lon="5.8666">
        <ele>1176</ele>
        <time>2021-06-01T10:42:26.643Z</time>
      </trkpt>
      <trkpt lat="44.13555" lon="5.86661">
        <ele>1176</ele>
        <time>2021-06-01T10:42:27.643Z</time>
      </trkpt>
      <trkpt lat="44.13556" lon="5.86662">
        <ele>1176</ele>
        <time>2021-06-01T10:42:28.643Z</time>
      </trkpt>
      <trkpt lat="44.13556" lon="5.86663">
        <ele>1176</ele>
        <time>2021-06-01T10:42:29.643Z</time>
      </trkpt>
      <trkpt lat="44.13557" lon="5.86664">
        <ele>1177</ele>
        <time>2021-06-01T10:42:30.643Z</time>
      </trkpt>
      <trkpt lat="44.13558" lon="5.86665">
        <ele>1177</ele>
        <time>2021-06-01T10:42:31.643Z</time>
      </trkpt>
      <trkpt lat="44.13559" lon="5.86666">
        <ele>1177</ele>
        <time>2021-06-01T10:42:32.643Z</time>
      </trkpt>
      <trkpt lat="44.13559" lon="5.86667">
        <ele>1177</ele>
        <time>2021-06-01T10:42:33.643Z</time>
      </trkpt>
      <trkpt lat="44.1356" lon="5.86668">
        <ele>1177</ele>
        <time>2021-06-01T10:42:34.643Z</time>
      </trkpt>
      <trkpt lat="44.13561" lon="5.86669">
        <ele>1177</ele>
        <time>2021-06-01T10:42:35.643Z</time>
      </trkpt>
      <trkpt lat="44.13561" lon="5.8667">
        <ele>1177</ele>
        <time>2021-06-01T10:42:36.643Z</time>
      </trkpt>
      <trkpt lat="44.13562" lon="5.86671">
        <ele>1177</ele>
        <time>2021-06-01T10:42:37.643Z</time>
      </trkpt>
      <trkpt lat="44.13563" lon="5.86672">
        <ele>1178</ele>
        <time>2021-06-01T10:42:38.643Z</time>
      </trkpt>
      <trkpt lat="44.13564" lon="5.86673">
        <ele>1178</ele>
        <time>2021-06-01T10:42:39.643Z</time>
      </trkpt>
      <trkpt lat="44.13564" lon="5.86674">
        <ele>1178</ele>
        <time>2021-06-01T10:42:40.643Z</time>
      </trkpt>
      <trkpt lat="44.13565" lon="5.86675">
        <ele>1178</ele>
        <time>2021-06-01T10:42:41.643Z</time>
      </trkpt>
      <trkpt lat="44.13566" lon="5.86676">
        <ele>1178</ele>
        <time>2021-06-01T10:42:42.643Z</time>
      </trkpt>
      <trkpt lat="44.13566" lon="5.86677">
        <ele>1178</ele>
        <time>2021-06-01T10:42:43.643Z</time>
      </trkpt>
      <trkpt lat="44.13567" lon="5.86677">
        <ele>1178</ele>
        <time>2021-06-01T10:42:44.643Z</time>
      </trkpt>
      <trkpt lat="44.13567" lon="5.86679">
        <ele>1179</ele>
        <time>2021-06-01T10:42:45.643Z</time>
      </trkpt>
      <trkpt lat="44.13568" lon="5.8668">
        <ele>1179</ele>
        <time>2021-06-01T10:42:46.643Z</time>
      </trkpt>
      <trkpt lat="44.13569" lon="5.86681">
        <ele>1179</ele>
        <time>2021-06-01T10:42:47.643Z</time>
      </trkpt>
      <trkpt lat="44.13569" lon="5.86682">
        <ele>1179</ele>
        <time>2021-06-01T10:42:48.643Z</time>
      </trkpt>
      <trkpt lat="44.1357" lon="5.86682">
        <ele>1179</ele>
        <time>2021-06-01T10:42:49.643Z</time>
      </trkpt>
      <trkpt lat="44.1357" lon="5.86683">
        <ele>1179</ele>
        <time>2021-06-01T10:42:50.643Z</time>
      </trkpt>
      <trkpt lat="44.13571" lon="5.86684">
        <ele>1179</ele>
        <time>2021-06-01T10:42:51.643Z</time>
      </trkpt>
      <trkpt lat="44.13572" lon="5.86685">
        <ele>1179</ele>
        <time>2021-06-01T10:42:52.643Z</time>
      </trkpt>
      <trkpt lat="44.13573" lon="5.86686">
        <ele>1179</ele>
        <time>2021-06-01T10:42:53.643Z</time>
      </trkpt>
      <trkpt lat="44.13573" lon="5.86687">
        <ele>1180</ele>
        <time>2021-06-01T10:42:54.643Z</time>
      </trkpt>
      <trkpt lat="44.13574" lon="5.86688">
        <ele>1180</ele>
        <time>2021-06-01T10:42:55.643Z</time>
      </trkpt>
      <trkpt lat="44.13574" lon="5.86689">
        <ele>1180</ele>
        <time>2021-06-01T10:42:56.643Z</time>
      </trkpt>
      <trkpt lat="44.13575" lon="5.8669">
        <ele>1180</ele>
        <time>2021-06-01T10:42:57.643Z</time>
      </trkpt>
      <trkpt lat="44.13576" lon="5.86691">
        <ele>1180</ele>
        <time>2021-06-01T10:42:58.643Z</time>
      </trkpt>
      <trkpt lat="44.13576" lon="5.86692">
        <ele>1180</ele>
        <time>2021-06-01T10:42:59.643Z</time>
      </trkpt>
      <trkpt lat="44.13577" lon="5.86693">
        <ele>1180</ele>
        <time>2021-06-01T10:43:00.643Z</time>
      </trkpt>
      <trkpt lat="44.13578" lon="5.86694">
        <ele>1180</ele>
        <time>2021-06-01T10:43:01.643Z</time>
      </trkpt>
      <trkpt lat="44.13579" lon="5.86695">
        <ele>1180</ele>
        <time>2021-06-01T10:43:02.643Z</time>
      </trkpt>
      <trkpt lat="44.13579" lon="5.86696">
        <ele>1180</ele>
        <time>2021-06-01T10:43:03.643Z</time>
      </trkpt>
      <trkpt lat="44.1358" lon="5.86697">
        <ele>1180</ele>
        <time>2021-06-01T10:43:04.643Z</time>
      </trkpt>
      <trkpt lat="44.13581" lon="5.86698">
        <ele>1181</ele>
        <time>2021-06-01T10:43:05.643Z</time>
      </trkpt>
      <trkpt lat="44.13581" lon="5.86699">
        <ele>1181</ele>
        <time>2021-06-01T10:43:06.643Z</time>
      </trkpt>
      <trkpt lat="44.13582" lon="5.867">
        <ele>1181</ele>
        <time>2021-06-01T10:43:07.643Z</time>
      </trkpt>
      <trkpt lat="44.13583" lon="5.86701">
        <ele>1181</ele>
        <time>2021-06-01T10:43:08.643Z</time>
      </trkpt>
      <trkpt lat="44.13583" lon="5.86702">
        <ele>1181</ele>
        <time>2021-06-01T10:43:09.643Z</time>
      </trkpt>
      <trkpt lat="44.13584" lon="5.86703">
        <ele>1181</ele>
        <time>2021-06-01T10:43:10.643Z</time>
      </trkpt>
      <trkpt lat="44.13585" lon="5.86704">
        <ele>1181</ele>
        <time>2021-06-01T10:43:11.643Z</time>
      </trkpt>
      <trkpt lat="44.13585" lon="5.86705">
        <ele>1181</ele>
        <time>2021-06-01T10:43:12.643Z</time>
      </trkpt>
      <trkpt lat="44.13586" lon="5.86706">
        <ele>1181</ele>
        <time>2021-06-01T10:43:13.643Z</time>
      </trkpt>
      <trkpt lat="44.13587" lon="5.86707">
        <ele>1182</ele>
        <time>2021-06-01T10:43:14.643Z</time>
      </trkpt>
      <trkpt lat="44.13587" lon="5.86707">
        <ele>1182</ele>
        <time>2021-06-01T10:43:15.643Z</time>
      </trkpt>
      <trkpt lat="44.13588" lon="5.86708">
        <ele>1182</ele>
        <time>2021-06-01T10:43:16.643Z</time>
      </trkpt>
      <trkpt lat="44.13589" lon="5.86709">
        <ele>1182</ele>
        <time>2021-06-01T10:43:17.643Z</time>
      </trkpt>
      <trkpt lat="44.1359" lon="5.8671">
        <ele>1182</ele>
        <time>2021-06-01T10:43:18.643Z</time>
      </trkpt>
      <trkpt lat="44.1359" lon="5.86711">
        <ele>1182</ele>
        <time>2021-06-01T10:43:19.643Z</time>
      </trkpt>
      <trkpt lat="44.13591" lon="5.86712">
        <ele>1182</ele>
        <time>2021-06-01T10:43:20.643Z</time>
      </trkpt>
      <trkpt lat="44.13592" lon="5.86713">
        <ele>1182</ele>
        <time>2021-06-01T10:43:21.643Z</time>
      </trkpt>
      <trkpt lat="44.13592" lon="5.86714">
        <ele>1182</ele>
        <time>2021-06-01T10:43:22.643Z</time>
      </trkpt>
      <trkpt lat="44.13593" lon="5.86715">
        <ele>1182</ele>
        <time>2021-06-01T10:43:23.643Z</time>
      </trkpt>
      <trkpt lat="44.13594" lon="5.86716">
        <ele>1182</ele>
        <time>2021-06-01T10:43:24.643Z</time>
      </trkpt>
      <trkpt lat="44.13594" lon="5.86717">
        <ele>1182</ele>
        <time>2021-06-01T10:43:25.643Z</time>
      </trkpt>
      <trkpt lat="44.13595" lon="5.86718">
        <ele>1182</ele>
        <time>2021-06-01T10:43:26.643Z</time>
      </trkpt>
      <trkpt lat="44.13596" lon="5.86719">
        <ele>1183</ele>
        <time>2021-06-01T10:43:27.643Z</time>
      </trkpt>
      <trkpt lat="44.13596" lon="5.8672">
        <ele>1183</ele>
        <time>2021-06-01T10:43:28.643Z</time>
      </trkpt>
      <trkpt lat="44.13597" lon="5.86721">
        <ele>1183</ele>
        <time>2021-06-01T10:43:29.643Z</time>
      </trkpt>
      <trkpt lat="44.13598" lon="5.86722">
        <ele>1183</ele>
        <time>2021-06-01T10:43:30.643Z</time>
      </trkpt>
      <trkpt lat="44.13598" lon="5.86723">
        <ele>1183</ele>
        <time>2021-06-01T10:43:31.643Z</time>
      </trkpt>
      <trkpt lat="44.13599" lon="5.86725">
        <ele>1183</ele>
        <time>2021-06-01T10:43:32.643Z</time>
      </trkpt>
      <trkpt lat="44.136" lon="5.86726">
        <ele>1183</ele>
        <time>2021-06-01T10:43:33.643Z</time>
      </trkpt>
      <trkpt lat="44.136" lon="5.86727">
        <ele>1183</ele>
        <time>2021-06-01T10:43:34.643Z</time>
      </trkpt>
      <trkpt lat="44.13601" lon="5.86728">
        <ele>1183</ele>
        <time>2021-06-01T10:43:35.643Z</time>
      </trkpt>
      <trkpt lat="44.13602" lon="5.86729">
        <ele>1183</ele>
        <time>2021-06-01T10:43:36.643Z</time>
      </trkpt>
      <trkpt lat="44.13602" lon="5.8673">
        <ele>1183</ele>
        <time>2021-06-01T10:43:37.643Z</time>
      </trkpt>
      <trkpt lat="44.13603" lon="5.86731">
        <ele>1183</ele>
        <time>2021-06-01T10:43:38.643Z</time>
      </trkpt>
      <trkpt lat="44.13604" lon="5.86732">
        <ele>1183</ele>
        <time>2021-06-01T10:43:39.643Z</time>
      </trkpt>
      <trkpt lat="44.13605" lon="5.86732">
        <ele>1183</ele>
        <time>2021-06-01T10:43:40.643Z</time>
      </trkpt>
      <trkpt lat="44.13605" lon="5.86733">
        <ele>1183</ele>
        <time>2021-06-01T10:43:41.643Z</time>
      </trkpt>
      <trkpt lat="44.13606" lon="5.86734">
        <ele>1184</ele>
        <time>2021-06-01T10:43:42.643Z</time>
      </trkpt>
      <trkpt lat="44.13606" lon="5.86735">
        <ele>1184</ele>
        <time>2021-06-01T10:43:43.643Z</time>
      </trkpt>
      <trkpt lat="44.13607" lon="5.86736">
        <ele>1184</ele>
        <time>2021-06-01T10:43:44.643Z</time>
      </trkpt>
      <trkpt lat="44.13608" lon="5.86737">
        <ele>1184</ele>
        <time>2021-06-01T10:43:45.643Z</time>
      </trkpt>
      <trkpt lat="44.13608" lon="5.86738">
        <ele>1184</ele>
        <time>2021-06-01T10:43:46.643Z</time>
      </trkpt>
      <trkpt lat="44.13609" lon="5.8674">
        <ele>1184</ele>
        <time>2021-06-01T10:43:47.643Z</time>
      </trkpt>
      <trkpt lat="44.1361" lon="5.86741">
        <ele>1184</ele>
        <time>2021-06-01T10:43:48.643Z</time>
      </trkpt>
      <trkpt lat="44.13611" lon="5.86742">
        <ele>1184</ele>
        <time>2021-06-01T10:43:49.643Z</time>
      </trkpt>
      <trkpt lat="44.13611" lon="5.86743">
        <ele>1184</ele>
        <time>2021-06-01T10:43:50.643Z</time>
      </trkpt>
      <trkpt lat="44.13612" lon="5.86744">
        <ele>1184</ele>
        <time>2021-06-01T10:43:51.643Z</time>
      </trkpt>
      <trkpt lat="44.13613" lon="5.86745">
        <ele>1184</ele>
        <time>2021-06-01T10:43:52.643Z</time>
      </trkpt>
      <trkpt lat="44.13614" lon="5.86746">
        <ele>1184</ele>
        <time>2021-06-01T10:43:53.643Z</time>
      </trkpt>
      <trkpt lat="44.13614" lon="5.86747">
        <ele>1184</ele>
        <time>2021-06-01T10:43:54.643Z</time>
      </trkpt>
      <trkpt lat="44.13615" lon="5.86748">
        <ele>1184</ele>
        <time>2021-06-01T10:43:55.643Z</time>
      </trkpt>
      <trkpt lat="44.13616" lon="5.86749">
        <ele>1185</ele>
        <time>2021-06-01T10:43:56.643Z</time>
      </trkpt>
      <trkpt lat="44.13616" lon="5.8675">
        <ele>1185</ele>
        <time>2021-06-01T10:43:57.643Z</time>
      </trkpt>
      <trkpt lat="44.13617" lon="5.86751">
        <ele>1185</ele>
        <time>2021-06-01T10:43:58.643Z</time>
      </trkpt>
      <trkpt lat="44.13618" lon="5.86752">
        <ele>1185</ele>
        <time>2021-06-01T10:43:59.643Z</time>
      </trkpt>
      <trkpt lat="44.13618" lon="5.86753">
        <ele>1185</ele>
        <time>2021-06-01T10:44:00.643Z</time>
      </trkpt>
      <trkpt lat="44.13619" lon="5.86753">
        <ele>1185</ele>
        <time>2021-06-01T10:44:01.643Z</time>
      </trkpt>
      <trkpt lat="44.1362" lon="5.86754">
        <ele>1185</ele>
        <time>2021-06-01T10:44:02.643Z</time>
      </trkpt>
      <trkpt lat="44.1362" lon="5.86755">
        <ele>1185</ele>
        <time>2021-06-01T10:44:03.643Z</time>
      </trkpt>
      <trkpt lat="44.13621" lon="5.86756">
        <ele>1185</ele>
        <time>2021-06-01T10:44:04.643Z</time>
      </trkpt>
      <trkpt lat="44.13622" lon="5.86758">
        <ele>1185</ele>
        <time>2021-06-01T10:44:05.643Z</time>
      </trkpt>
      <trkpt lat="44.13622" lon="5.86758">
        <ele>1185</ele>
        <time>2021-06-01T10:44:06.643Z</time>
      </trkpt>
      <trkpt lat="44.13623" lon="5.86759">
        <ele>1185</ele>
        <time>2021-06-01T10:44:07.643Z</time>
      </trkpt>
      <trkpt lat="44.13624" lon="5.8676">
        <ele>1185</ele>
        <time>2021-06-01T10:44:08.643Z</time>
      </trkpt>
      <trkpt lat="44.13625" lon="5.86761">
        <ele>1185</ele>
        <time>2021-06-01T10:44:09.643Z</time>
      </trkpt>
      <trkpt lat="44.13625" lon="5.86762">
        <ele>1185</ele>
        <time>2021-06-01T10:44:10.643Z</time>
      </trkpt>
      <trkpt lat="44.13626" lon="5.86763">
        <ele>1185</ele>
        <time>2021-06-01T10:44:11.643Z</time>
      </trkpt>
      <trkpt lat="44.13626" lon="5.86764">
        <ele>1185</ele>
        <time>2021-06-01T10:44:12.643Z</time>
      </trkpt>
      <trkpt lat="44.13627" lon="5.86765">
        <ele>1185</ele>
        <time>2021-06-01T10:44:13.643Z</time>
      </trkpt>
      <trkpt lat="44.13628" lon="5.86766">
        <ele>1186</ele>
        <time>2021-06-01T10:44:14.643Z</time>
      </trkpt>
      <trkpt lat="44.13628" lon="5.86767">
        <ele>1186</ele>
        <time>2021-06-01T10:44:15.643Z</time>
      </trkpt>
      <trkpt lat="44.13629" lon="5.86768">
        <ele>1186</ele>
        <time>2021-06-01T10:44:16.643Z</time>
      </trkpt>
      <trkpt lat="44.13629" lon="5.86769">
        <ele>1186</ele>
        <time>2021-06-01T10:44:17.643Z</time>
      </trkpt>
      <trkpt lat="44.1363" lon="5.8677">
        <ele>1186</ele>
        <time>2021-06-01T10:44:18.643Z</time>
      </trkpt>
      <trkpt lat="44.13631" lon="5.86771">
        <ele>1186</ele>
        <time>2021-06-01T10:44:19.643Z</time>
      </trkpt>
      <trkpt lat="44.13631" lon="5.86772">
        <ele>1186</ele>
        <time>2021-06-01T10:44:20.643Z</time>
      </trkpt>
      <trkpt lat="44.13632" lon="5.86773">
        <ele>1186</ele>
        <time>2021-06-01T10:44:21.643Z</time>
      </trkpt>
      <trkpt lat="44.13632" lon="5.86774">
        <ele>1186</ele>
        <time>2021-06-01T10:44:22.643Z</time>
      </trkpt>
      <trkpt lat="44.13633" lon="5.86775">
        <ele>1187</ele>
        <time>2021-06-01T10:44:23.643Z</time>
      </trkpt>
      <trkpt lat="44.13634" lon="5.86776">
        <ele>1187</ele>
        <time>2021-06-01T10:44:24.643Z</time>
      </trkpt>
      <trkpt lat="44.13634" lon="5.86777">
        <ele>1187</ele>
        <time>2021-06-01T10:44:25.643Z</time>
      </trkpt>
      <trkpt lat="44.13635" lon="5.86778">
        <ele>1187</ele>
        <time>2021-06-01T10:44:26.643Z</time>
      </trkpt>
      <trkpt lat="44.13636" lon="5.86779">
        <ele>1187</ele>
        <time>2021-06-01T10:44:27.643Z</time>
      </trkpt>
      <trkpt lat="44.13636" lon="5.8678">
        <ele>1187</ele>
        <time>2021-06-01T10:44:28.643Z</time>
      </trkpt>
      <trkpt lat="44.13637" lon="5.86781">
        <ele>1187</ele>
        <time>2021-06-01T10:44:29.643Z</time>
      </trkpt>
      <trkpt lat="44.13637" lon="5.86782">
        <ele>1187</ele>
        <time>2021-06-01T10:44:30.643Z</time>
      </trkpt>
      <trkpt lat="44.13638" lon="5.86783">
        <ele>1188</ele>
        <time>2021-06-01T10:44:31.643Z</time>
      </trkpt>
      <trkpt lat="44.13639" lon="5.86784">
        <ele>1188</ele>
        <time>2021-06-01T10:44:32.643Z</time>
      </trkpt>
      <trkpt lat="44.1364" lon="5.86785">
        <ele>1188</ele>
        <time>2021-06-01T10:44:33.643Z</time>
      </trkpt>
      <trkpt lat="44.13641" lon="5.86786">
        <ele>1188</ele>
        <time>2021-06-01T10:44:34.643Z</time>
      </trkpt>
      <trkpt lat="44.13641" lon="5.86787">
        <ele>1188</ele>
        <time>2021-06-01T10:44:35.643Z</time>
      </trkpt>
      <trkpt lat="44.13642" lon="5.86788">
        <ele>1188</ele>
        <time>2021-06-01T10:44:36.643Z</time>
      </trkpt>
      <trkpt lat="44.13642" lon="5.86789">
        <ele>1188</ele>
        <time>2021-06-01T10:44:37.643Z</time>
      </trkpt>
      <trkpt lat="44.13643" lon="5.8679">
        <ele>1188</ele>
        <time>2021-06-01T10:44:38.643Z</time>
      </trkpt>
      <trkpt lat="44.13644" lon="5.86791">
        <ele>1188</ele>
        <time>2021-06-01T10:44:39.643Z</time>
      </trkpt>
      <trkpt lat="44.13645" lon="5.86792">
        <ele>1189</ele>
        <time>2021-06-01T10:44:40.643Z</time>
      </trkpt>
      <trkpt lat="44.13645" lon="5.86792">
        <ele>1189</ele>
        <time>2021-06-01T10:44:41.643Z</time>
      </trkpt>
      <trkpt lat="44.13646" lon="5.86793">
        <ele>1189</ele>
        <time>2021-06-01T10:44:42.643Z</time>
      </trkpt>
      <trkpt lat="44.13647" lon="5.86794">
        <ele>1189</ele>
        <time>2021-06-01T10:44:43.643Z</time>
      </trkpt>
      <trkpt lat="44.13647" lon="5.86795">
        <ele>1189</ele>
        <time>2021-06-01T10:44:44.643Z</time>
      </trkpt>
      <trkpt lat="44.13648" lon="5.86796">
        <ele>1189</ele>
        <time>2021-06-01T10:44:45.643Z</time>
      </trkpt>
      <trkpt lat="44.13649" lon="5.86797">
        <ele>1189</ele>
        <time>2021-06-01T10:44:46.643Z</time>
      </trkpt>
      <trkpt lat="44.1365" lon="5.86798">
        <ele>1189</ele>
        <time>2021-06-01T10:44:47.643Z</time>
      </trkpt>
      <trkpt lat="44.1365" lon="5.86799">
        <ele>1190</ele>
        <time>2021-06-01T10:44:48.643Z</time>
      </trkpt>
      <trkpt lat="44.13651" lon="5.868">
        <ele>1190</ele>
        <time>2021-06-01T10:44:49.643Z</time>
      </trkpt>
      <trkpt lat="44.13652" lon="5.86801">
        <ele>1190</ele>
        <time>2021-06-01T10:44:50.643Z</time>
      </trkpt>
      <trkpt lat="44.13653" lon="5.86801">
        <ele>1190</ele>
        <time>2021-06-01T10:44:51.643Z</time>
      </trkpt>
      <trkpt lat="44.13653" lon="5.86802">
        <ele>1190</ele>
        <time>2021-06-01T10:44:52.643Z</time>
      </trkpt>
      <trkpt lat="44.13654" lon="5.86803">
        <ele>1190</ele>
        <time>2021-06-01T10:44:53.643Z</time>
      </trkpt>
      <trkpt lat="44.13655" lon="5.86804">
        <ele>1190</ele>
        <time>2021-06-01T10:44:54.643Z</time>
      </trkpt>
      <trkpt lat="44.13656" lon="5.86805">
        <ele>1190</ele>
        <time>2021-06-01T10:44:55.643Z</time>
      </trkpt>
      <trkpt lat="44.13656" lon="5.86805">
        <ele>1190</ele>
        <time>2021-06-01T10:44:56.643Z</time>
      </trkpt>
      <trkpt lat="44.13657" lon="5.86806">
        <ele>1190</ele>
        <time>2021-06-01T10:44:57.643Z</time>
      </trkpt>
      <trkpt lat="44.13658" lon="5.86807">
        <ele>1190</ele>
        <time>2021-06-01T10:44:58.643Z</time>
      </trkpt>
      <trkpt lat="44.13659" lon="5.86808">
        <ele>1190</ele>
        <time>2021-06-01T10:44:59.643Z</time>
      </trkpt>
      <trkpt lat="44.1366" lon="5.86808">
        <ele>1190</ele>
        <time>2021-06-01T10:45:00.643Z</time>
      </trkpt>
      <trkpt lat="44.1366" lon="5.86809">
        <ele>1191</ele>
        <time>2021-06-01T10:45:01.643Z</time>
      </trkpt>
      <trkpt lat="44.13661" lon="5.8681">
        <ele>1191</ele>
        <time>2021-06-01T10:45:02.643Z</time>
      </trkpt>
      <trkpt lat="44.13662" lon="5.8681">
        <ele>1191</ele>
        <time>2021-06-01T10:45:03.643Z</time>
      </trkpt>
      <trkpt lat="44.13663" lon="5.86811">
        <ele>1191</ele>
        <time>2021-06-01T10:45:04.643Z</time>
      </trkpt>
      <trkpt lat="44.13664" lon="5.86811">
        <ele>1191</ele>
        <time>2021-06-01T10:45:05.643Z</time>
      </trkpt>
      <trkpt lat="44.13665" lon="5.86812">
        <ele>1191</ele>
        <time>2021-06-01T10:45:06.643Z</time>
      </trkpt>
      <trkpt lat="44.13665" lon="5.86812">
        <ele>1191</ele>
        <time>2021-06-01T10:45:07.643Z</time>
      </trkpt>
      <trkpt lat="44.13666" lon="5.86813">
        <ele>1192</ele>
        <time>2021-06-01T10:45:08.643Z</time>
      </trkpt>
      <trkpt lat="44.13667" lon="5.86813">
        <ele>1192</ele>
        <time>2021-06-01T10:45:09.643Z</time>
      </trkpt>
      <trkpt lat="44.13668" lon="5.86813">
        <ele>1192</ele>
        <time>2021-06-01T10:45:10.643Z</time>
      </trkpt>
      <trkpt lat="44.13669" lon="5.86813">
        <ele>1192</ele>
        <time>2021-06-01T10:45:11.643Z</time>
      </trkpt>
      <trkpt lat="44.1367" lon="5.86814">
        <ele>1192</ele>
        <time>2021-06-01T10:45:12.643Z</time>
      </trkpt>
      <trkpt lat="44.1367" lon="5.86814">
        <ele>1192</ele>
        <time>2021-06-01T10:45:13.643Z</time>
      </trkpt>
      <trkpt lat="44.13671" lon="5.86814">
        <ele>1192</ele>
        <time>2021-06-01T10:45:14.643Z</time>
      </trkpt>
      <trkpt lat="44.13672" lon="5.86814">
        <ele>1192</ele>
        <time>2021-06-01T10:45:15.643Z</time>
      </trkpt>
      <trkpt lat="44.13673" lon="5.86814">
        <ele>1193</ele>
        <time>2021-06-01T10:45:16.643Z</time>
      </trkpt>
      <trkpt lat="44.13674" lon="5.86815">
        <ele>1193</ele>
        <time>2021-06-01T10:45:17.643Z</time>
      </trkpt>
      <trkpt lat="44.13675" lon="5.86815">
        <ele>1193</ele>
        <time>2021-06-01T10:45:18.643Z</time>
      </trkpt>
      <trkpt lat="44.13676" lon="5.86815">
        <ele>1193</ele>
        <time>2021-06-01T10:45:19.643Z</time>
      </trkpt>
      <trkpt lat="44.13676" lon="5.86815">
        <ele>1193</ele>
        <time>2021-06-01T10:45:20.643Z</time>
      </trkpt>
      <trkpt lat="44.13677" lon="5.86815">
        <ele>1193</ele>
        <time>2021-06-01T10:45:21.643Z</time>
      </trkpt>
      <trkpt lat="44.13678" lon="5.86814">
        <ele>1193</ele>
        <time>2021-06-01T10:45:22.643Z</time>
      </trkpt>
      <trkpt lat="44.13678" lon="5.86814">
        <ele>1193</ele>
        <time>2021-06-01T10:45:23.643Z</time>
      </trkpt>
      <trkpt lat="44.13679" lon="5.86813">
        <ele>1193</ele>
        <time>2021-06-01T10:45:24.643Z</time>
      </trkpt>
      <trkpt lat="44.13679" lon="5.86812">
        <ele>1194</ele>
        <time>2021-06-01T10:45:25.643Z</time>
      </trkpt>
      <trkpt lat="44.13679" lon="5.86811">
        <ele>1194</ele>
        <time>2021-06-01T10:45:26.643Z</time>
      </trkpt>
      <trkpt lat="44.1368" lon="5.86809">
        <ele>1194</ele>
        <time>2021-06-01T10:45:27.643Z</time>
      </trkpt>
      <trkpt lat="44.1368" lon="5.86808">
        <ele>1195</ele>
        <time>2021-06-01T10:45:28.643Z</time>
      </trkpt>
      <trkpt lat="44.1368" lon="5.86807">
        <ele>1195</ele>
        <time>2021-06-01T10:45:29.643Z</time>
      </trkpt>
      <trkpt lat="44.1368" lon="5.86806">
        <ele>1195</ele>
        <time>2021-06-01T10:45:30.643Z</time>
      </trkpt>
      <trkpt lat="44.1368" lon="5.86804">
        <ele>1195</ele>
        <time>2021-06-01T10:45:31.643Z</time>
      </trkpt>
      <trkpt lat="44.13679" lon="5.86803">
        <ele>1195</ele>
        <time>2021-06-01T10:45:32.643Z</time>
      </trkpt>
      <trkpt lat="44.13679" lon="5.86802">
        <ele>1196</ele>
        <time>2021-06-01T10:45:33.643Z</time>
      </trkpt>
      <trkpt lat="44.13679" lon="5.86801">
        <ele>1196</ele>
        <time>2021-06-01T10:45:34.643Z</time>
      </trkpt>
      <trkpt lat="44.13679" lon="5.86799">
        <ele>1196</ele>
        <time>2021-06-01T10:45:35.643Z</time>
      </trkpt>
      <trkpt lat="44.13679" lon="5.86798">
        <ele>1196</ele>
        <time>2021-06-01T10:45:36.643Z</time>
      </trkpt>
      <trkpt lat="44.13678" lon="5.86797">
        <ele>1196</ele>
        <time>2021-06-01T10:45:37.643Z</time>
      </trkpt>
      <trkpt lat="44.13678" lon="5.86796">
        <ele>1196</ele>
        <time>2021-06-01T10:45:38.643Z</time>
      </trkpt>
      <trkpt lat="44.13678" lon="5.86794">
        <ele>1197</ele>
        <time>2021-06-01T10:45:39.643Z</time>
      </trkpt>
      <trkpt lat="44.13678" lon="5.86793">
        <ele>1197</ele>
        <time>2021-06-01T10:45:40.643Z</time>
      </trkpt>
      <trkpt lat="44.13678" lon="5.86791">
        <ele>1197</ele>
        <time>2021-06-01T10:45:41.643Z</time>
      </trkpt>
      <trkpt lat="44.13678" lon="5.8679">
        <ele>1197</ele>
        <time>2021-06-01T10:45:42.643Z</time>
      </trkpt>
      <trkpt lat="44.13678" lon="5.86789">
        <ele>1197</ele>
        <time>2021-06-01T10:45:43.643Z</time>
      </trkpt>
      <trkpt lat="44.13678" lon="5.86787">
        <ele>1197</ele>
        <time>2021-06-01T10:45:44.643Z</time>
      </trkpt>
      <trkpt lat="44.13677" lon="5.86786">
        <ele>1197</ele>
        <time>2021-06-01T10:45:45.643Z</time>
      </trkpt>
      <trkpt lat="44.13677" lon="5.86785">
        <ele>1198</ele>
        <time>2021-06-01T10:45:46.643Z</time>
      </trkpt>
      <trkpt lat="44.13677" lon="5.86784">
        <ele>1198</ele>
        <time>2021-06-01T10:45:47.643Z</time>
      </trkpt>
      <trkpt lat="44.13677" lon="5.86782">
        <ele>1198</ele>
        <time>2021-06-01T10:45:48.643Z</time>
      </trkpt>
      <trkpt lat="44.13676" lon="5.86781">
        <ele>1198</ele>
        <time>2021-06-01T10:45:49.643Z</time>
      </trkpt>
      <trkpt lat="44.13676" lon="5.8678">
        <ele>1198</ele>
        <time>2021-06-01T10:45:50.643Z</time>
      </trkpt>
      <trkpt lat="44.13675" lon="5.86779">
        <ele>1199</ele>
        <time>2021-06-01T10:45:51.643Z</time>
      </trkpt>
      <trkpt lat="44.13675" lon="5.86777">
        <ele>1199</ele>
        <time>2021-06-01T10:45:52.643Z</time>
      </trkpt>
      <trkpt lat="44.13675" lon="5.86776">
        <ele>1199</ele>
        <time>2021-06-01T10:45:53.643Z</time>
      </trkpt>
      <trkpt lat="44.13674" lon="5.86775">
        <ele>1199</ele>
        <time>2021-06-01T10:45:54.643Z</time>
      </trkpt>
      <trkpt lat="44.13674" lon="5.86773">
        <ele>1199</ele>
        <time>2021-06-01T10:45:55.643Z</time>
      </trkpt>
      <trkpt lat="44.13674" lon="5.86772">
        <ele>1199</ele>
        <time>2021-06-01T10:45:56.643Z</time>
      </trkpt>
      <trkpt lat="44.13674" lon="5.86771">
        <ele>1199</ele>
        <time>2021-06-01T10:45:57.643Z</time>
      </trkpt>
      <trkpt lat="44.13673" lon="5.8677">
        <ele>1199</ele>
        <time>2021-06-01T10:45:58.643Z</time>
      </trkpt>
      <trkpt lat="44.13673" lon="5.86768">
        <ele>1199</ele>
        <time>2021-06-01T10:45:59.643Z</time>
      </trkpt>
      <trkpt lat="44.13673" lon="5.86767">
        <ele>1199</ele>
        <time>2021-06-01T10:46:00.643Z</time>
      </trkpt>
      <trkpt lat="44.13673" lon="5.86766">
        <ele>1200</ele>
        <time>2021-06-01T10:46:01.643Z</time>
      </trkpt>
      <trkpt lat="44.13673" lon="5.86764">
        <ele>1200</ele>
        <time>2021-06-01T10:46:02.643Z</time>
      </trkpt>
      <trkpt lat="44.13673" lon="5.86763">
        <ele>1200</ele>
        <time>2021-06-01T10:46:03.643Z</time>
      </trkpt>
      <trkpt lat="44.13672" lon="5.86762">
        <ele>1200</ele>
        <time>2021-06-01T10:46:04.643Z</time>
      </trkpt>
      <trkpt lat="44.13672" lon="5.8676">
        <ele>1200</ele>
        <time>2021-06-01T10:46:05.643Z</time>
      </trkpt>
      <trkpt lat="44.13672" lon="5.86759">
        <ele>1200</ele>
        <time>2021-06-01T10:46:06.643Z</time>
      </trkpt>
      <trkpt lat="44.13671" lon="5.86758">
        <ele>1200</ele>
        <time>2021-06-01T10:46:07.643Z</time>
      </trkpt>
      <trkpt lat="44.13671" lon="5.86756">
        <ele>1200</ele>
        <time>2021-06-01T10:46:08.643Z</time>
      </trkpt>
      <trkpt lat="44.13671" lon="5.86755">
        <ele>1200</ele>
        <time>2021-06-01T10:46:09.643Z</time>
      </trkpt>
      <trkpt lat="44.13671" lon="5.86754">
        <ele>1200</ele>
        <time>2021-06-01T10:46:10.643Z</time>
      </trkpt>
      <trkpt lat="44.1367" lon="5.86752">
        <ele>1201</ele>
        <time>2021-06-01T10:46:11.643Z</time>
      </trkpt>
      <trkpt lat="44.1367" lon="5.86751">
        <ele>1201</ele>
        <time>2021-06-01T10:46:12.643Z</time>
      </trkpt>
      <trkpt lat="44.1367" lon="5.8675">
        <ele>1201</ele>
        <time>2021-06-01T10:46:13.643Z</time>
      </trkpt>
      <trkpt lat="44.1367" lon="5.86749">
        <ele>1201</ele>
        <time>2021-06-01T10:46:14.643Z</time>
      </trkpt>
      <trkpt lat="44.13669" lon="5.86747">
        <ele>1201</ele>
        <time>2021-06-01T10:46:15.643Z</time>
      </trkpt>
      <trkpt lat="44.13669" lon="5.86746">
        <ele>1201</ele>
        <time>2021-06-01T10:46:16.643Z</time>
      </trkpt>
      <trkpt lat="44.13669" lon="5.86745">
        <ele>1201</ele>
        <time>2021-06-01T10:46:17.643Z</time>
      </trkpt>
      <trkpt lat="44.13669" lon="5.86743">
        <ele>1201</ele>
        <time>2021-06-01T10:46:18.643Z</time>
      </trkpt>
      <trkpt lat="44.13668" lon="5.86742">
        <ele>1202</ele>
        <time>2021-06-01T10:46:19.643Z</time>
      </trkpt>
      <trkpt lat="44.13668" lon="5.86741">
        <ele>1202</ele>
        <time>2021-06-01T10:46:20.643Z</time>
      </trkpt>
      <trkpt lat="44.13668" lon="5.8674">
        <ele>1202</ele>
        <time>2021-06-01T10:46:21.643Z</time>
      </trkpt>
      <trkpt lat="44.13667" lon="5.86738">
        <ele>1202</ele>
        <time>2021-06-01T10:46:22.643Z</time>
      </trkpt>
      <trkpt lat="44.13667" lon="5.86737">
        <ele>1202</ele>
        <time>2021-06-01T10:46:23.643Z</time>
      </trkpt>
      <trkpt lat="44.13667" lon="5.86736">
        <ele>1202</ele>
        <time>2021-06-01T10:46:24.643Z</time>
      </trkpt>
      <trkpt lat="44.13666" lon="5.86735">
        <ele>1202</ele>
        <time>2021-06-01T10:46:25.643Z</time>
      </trkpt>
      <trkpt lat="44.13666" lon="5.86733">
        <ele>1202</ele>
        <time>2021-06-01T10:46:26.643Z</time>
      </trkpt>
      <trkpt lat="44.13666" lon="5.86732">
        <ele>1202</ele>
        <time>2021-06-01T10:46:27.643Z</time>
      </trkpt>
      <trkpt lat="44.13665" lon="5.86731">
        <ele>1202</ele>
        <time>2021-06-01T10:46:28.643Z</time>
      </trkpt>
      <trkpt lat="44.13665" lon="5.8673">
        <ele>1203</ele>
        <time>2021-06-01T10:46:29.643Z</time>
      </trkpt>
      <trkpt lat="44.13665" lon="5.86728">
        <ele>1203</ele>
        <time>2021-06-01T10:46:30.643Z</time>
      </trkpt>
      <trkpt lat="44.13664" lon="5.86727">
        <ele>1203</ele>
        <time>2021-06-01T10:46:31.643Z</time>
      </trkpt>
      <trkpt lat="44.13664" lon="5.86726">
        <ele>1203</ele>
        <time>2021-06-01T10:46:32.643Z</time>
      </trkpt>
      <trkpt lat="44.13664" lon="5.86724">
        <ele>1203</ele>
        <time>2021-06-01T10:46:33.643Z</time>
      </trkpt>
      <trkpt lat="44.13663" lon="5.86723">
        <ele>1203</ele>
        <time>2021-06-01T10:46:34.643Z</time>
      </trkpt>
      <trkpt lat="44.13663" lon="5.86722">
        <ele>1203</ele>
        <time>2021-06-01T10:46:35.643Z</time>
      </trkpt>
      <trkpt lat="44.13663" lon="5.86721">
        <ele>1203</ele>
        <time>2021-06-01T10:46:36.643Z</time>
      </trkpt>
      <trkpt lat="44.13663" lon="5.8672">
        <ele>1203</ele>
        <time>2021-06-01T10:46:37.643Z</time>
      </trkpt>
      <trkpt lat="44.13663" lon="5.86718">
        <ele>1203</ele>
        <time>2021-06-01T10:46:38.643Z</time>
      </trkpt>
      <trkpt lat="44.13662" lon="5.86717">
        <ele>1203</ele>
        <time>2021-06-01T10:46:39.643Z</time>
      </trkpt>
      <trkpt lat="44.13662" lon="5.86716">
        <ele>1204</ele>
        <time>2021-06-01T10:46:40.643Z</time>
      </trkpt>
      <trkpt lat="44.13662" lon="5.86715">
        <ele>1204</ele>
        <time>2021-06-01T10:46:41.643Z</time>
      </trkpt>
      <trkpt lat="44.13661" lon="5.86713">
        <ele>1204</ele>
        <time>2021-06-01T10:46:42.643Z</time>
      </trkpt>
      <trkpt lat="44.13661" lon="5.86712">
        <ele>1204</ele>
        <time>2021-06-01T10:46:43.643Z</time>
      </trkpt>
      <trkpt lat="44.13661" lon="5.86711">
        <ele>1204</ele>
        <time>2021-06-01T10:46:44.643Z</time>
      </trkpt>
      <trkpt lat="44.1366" lon="5.8671">
        <ele>1204</ele>
        <time>2021-06-01T10:46:45.643Z</time>
      </trkpt>
      <trkpt lat="44.1366" lon="5.86708">
        <ele>1204</ele>
        <time>2021-06-01T10:46:46.643Z</time>
      </trkpt>
      <trkpt lat="44.1366" lon="5.86707">
        <ele>1204</ele>
        <time>2021-06-01T10:46:47.643Z</time>
      </trkpt>
      <trkpt lat="44.13659" lon="5.86706">
        <ele>1204</ele>
        <time>2021-06-01T10:46:48.643Z</time>
      </trkpt>
      <trkpt lat="44.13659" lon="5.86704">
        <ele>1204</ele>
        <time>2021-06-01T10:46:49.643Z</time>
      </trkpt>
      <trkpt lat="44.13659" lon="5.86703">
        <ele>1204</ele>
        <time>2021-06-01T10:46:50.643Z</time>
      </trkpt>
      <trkpt lat="44.13658" lon="5.86702">
        <ele>1204</ele>
        <time>2021-06-01T10:46:51.643Z</time>
      </trkpt>
      <trkpt lat="44.13658" lon="5.867">
        <ele>1204</ele>
        <time>2021-06-01T10:46:52.643Z</time>
      </trkpt>
      <trkpt lat="44.13658" lon="5.86699">
        <ele>1204</ele>
        <time>2021-06-01T10:46:53.643Z</time>
      </trkpt>
      <trkpt lat="44.13657" lon="5.86698">
        <ele>1204</ele>
        <time>2021-06-01T10:46:54.643Z</time>
      </trkpt>
      <trkpt lat="44.13657" lon="5.86697">
        <ele>1204</ele>
        <time>2021-06-01T10:46:55.643Z</time>
      </trkpt>
      <trkpt lat="44.13657" lon="5.86695">
        <ele>1205</ele>
        <time>2021-06-01T10:46:56.643Z</time>
      </trkpt>
      <trkpt lat="44.13657" lon="5.86694">
        <ele>1205</ele>
        <time>2021-06-01T10:46:57.643Z</time>
      </trkpt>
      <trkpt lat="44.13656" lon="5.86693">
        <ele>1205</ele>
        <time>2021-06-01T10:46:58.643Z</time>
      </trkpt>
      <trkpt lat="44.13656" lon="5.86692">
        <ele>1205</ele>
        <time>2021-06-01T10:46:59.643Z</time>
      </trkpt>
      <trkpt lat="44.13656" lon="5.86691">
        <ele>1205</ele>
        <time>2021-06-01T10:47:00.643Z</time>
      </trkpt>
      <trkpt lat="44.13656" lon="5.86691">
        <ele>1205</ele>
        <time>2021-06-01T10:47:01.643Z</time>
      </trkpt>
      <trkpt lat="44.13656" lon="5.86691">
        <ele>1205</ele>
        <time>2021-06-01T10:47:02.643Z</time>
      </trkpt>
      <trkpt lat="44.13655" lon="5.8669">
        <ele>1205</ele>
        <time>2021-06-01T10:47:03.643Z</time>
      </trkpt>
      <trkpt lat="44.13655" lon="5.86689">
        <ele>1205</ele>
        <time>2021-06-01T10:47:04.643Z</time>
      </trkpt>
      <trkpt lat="44.13655" lon="5.86687">
        <ele>1205</ele>
        <time>2021-06-01T10:47:05.643Z</time>
      </trkpt>
      <trkpt lat="44.13655" lon="5.86686">
        <ele>1205</ele>
        <time>2021-06-01T10:47:06.643Z</time>
      </trkpt>
      <trkpt lat="44.13654" lon="5.86685">
        <ele>1205</ele>
        <time>2021-06-01T10:47:07.643Z</time>
      </trkpt>
      <trkpt lat="44.13654" lon="5.86683">
        <ele>1205</ele>
        <time>2021-06-01T10:47:08.643Z</time>
      </trkpt>
      <trkpt lat="44.13654" lon="5.86682">
        <ele>1205</ele>
        <time>2021-06-01T10:47:09.643Z</time>
      </trkpt>
      <trkpt lat="44.13653" lon="5.86681">
        <ele>1205</ele>
        <time>2021-06-01T10:47:10.643Z</time>
      </trkpt>
      <trkpt lat="44.13653" lon="5.8668">
        <ele>1205</ele>
        <time>2021-06-01T10:47:11.643Z</time>
      </trkpt>
      <trkpt lat="44.13653" lon="5.86678">
        <ele>1205</ele>
        <time>2021-06-01T10:47:12.643Z</time>
      </trkpt>
      <trkpt lat="44.13652" lon="5.86677">
        <ele>1206</ele>
        <time>2021-06-01T10:47:13.643Z</time>
      </trkpt>
      <trkpt lat="44.13652" lon="5.86676">
        <ele>1206</ele>
        <time>2021-06-01T10:47:14.643Z</time>
      </trkpt>
      <trkpt lat="44.13652" lon="5.86675">
        <ele>1206</ele>
        <time>2021-06-01T10:47:15.643Z</time>
      </trkpt>
      <trkpt lat="44.13651" lon="5.86673">
        <ele>1206</ele>
        <time>2021-06-01T10:47:16.643Z</time>
      </trkpt>
      <trkpt lat="44.13651" lon="5.86672">
        <ele>1206</ele>
        <time>2021-06-01T10:47:17.643Z</time>
      </trkpt>
      <trkpt lat="44.13651" lon="5.86671">
        <ele>1206</ele>
        <time>2021-06-01T10:47:18.643Z</time>
      </trkpt>
      <trkpt lat="44.1365" lon="5.8667">
        <ele>1207</ele>
        <time>2021-06-01T10:47:19.643Z</time>
      </trkpt>
      <trkpt lat="44.1365" lon="5.86668">
        <ele>1207</ele>
        <time>2021-06-01T10:47:20.643Z</time>
      </trkpt>
      <trkpt lat="44.1365" lon="5.86667">
        <ele>1207</ele>
        <time>2021-06-01T10:47:21.643Z</time>
      </trkpt>
      <trkpt lat="44.1365" lon="5.86666">
        <ele>1207</ele>
        <time>2021-06-01T10:47:22.643Z</time>
      </trkpt>
      <trkpt lat="44.13649" lon="5.86665">
        <ele>1207</ele>
        <time>2021-06-01T10:47:23.643Z</time>
      </trkpt>
      <trkpt lat="44.13649" lon="5.86664">
        <ele>1207</ele>
        <time>2021-06-01T10:47:24.643Z</time>
      </trkpt>
      <trkpt lat="44.13649" lon="5.86662">
        <ele>1207</ele>
        <time>2021-06-01T10:47:25.643Z</time>
      </trkpt>
      <trkpt lat="44.13649" lon="5.86661">
        <ele>1207</ele>
        <time>2021-06-01T10:47:26.643Z</time>
      </trkpt>
      <trkpt lat="44.13648" lon="5.8666">
        <ele>1208</ele>
        <time>2021-06-01T10:47:27.643Z</time>
      </trkpt>
      <trkpt lat="44.13648" lon="5.86659">
        <ele>1208</ele>
        <time>2021-06-01T10:47:28.643Z</time>
      </trkpt>
      <trkpt lat="44.13648" lon="5.86657">
        <ele>1208</ele>
        <time>2021-06-01T10:47:29.643Z</time>
      </trkpt>
      <trkpt lat="44.13647" lon="5.86656">
        <ele>1208</ele>
        <time>2021-06-01T10:47:30.643Z</time>
      </trkpt>
      <trkpt lat="44.13647" lon="5.86655">
        <ele>1208</ele>
        <time>2021-06-01T10:47:31.643Z</time>
      </trkpt>
      <trkpt lat="44.13646" lon="5.86654">
        <ele>1208</ele>
        <time>2021-06-01T10:47:32.643Z</time>
      </trkpt>
      <trkpt lat="44.13646" lon="5.86653">
        <ele>1208</ele>
        <time>2021-06-01T10:47:33.643Z</time>
      </trkpt>
      <trkpt lat="44.13646" lon="5.86651">
        <ele>1208</ele>
        <time>2021-06-01T10:47:34.643Z</time>
      </trkpt>
      <trkpt lat="44.13645" lon="5.8665">
        <ele>1208</ele>
        <time>2021-06-01T10:47:35.643Z</time>
      </trkpt>
      <trkpt lat="44.13645" lon="5.86649">
        <ele>1209</ele>
        <time>2021-06-01T10:47:36.643Z</time>
      </trkpt>
      <trkpt lat="44.13645" lon="5.86647">
        <ele>1209</ele>
        <time>2021-06-01T10:47:37.643Z</time>
      </trkpt>
      <trkpt lat="44.13644" lon="5.86646">
        <ele>1209</ele>
        <time>2021-06-01T10:47:38.643Z</time>
      </trkpt>
      <trkpt lat="44.13644" lon="5.86645">
        <ele>1209</ele>
        <time>2021-06-01T10:47:39.643Z</time>
      </trkpt>
      <trkpt lat="44.13644" lon="5.86643">
        <ele>1209</ele>
        <time>2021-06-01T10:47:40.643Z</time>
      </trkpt>
      <trkpt lat="44.13643" lon="5.86642">
        <ele>1209</ele>
        <time>2021-06-01T10:47:41.643Z</time>
      </trkpt>
      <trkpt lat="44.13643" lon="5.86641">
        <ele>1209</ele>
        <time>2021-06-01T10:47:42.643Z</time>
      </trkpt>
      <trkpt lat="44.13643" lon="5.8664">
        <ele>1209</ele>
        <time>2021-06-01T10:47:43.643Z</time>
      </trkpt>
      <trkpt lat="44.13642" lon="5.86638">
        <ele>1209</ele>
        <time>2021-06-01T10:47:44.643Z</time>
      </trkpt>
      <trkpt lat="44.13642" lon="5.86637">
        <ele>1209</ele>
        <time>2021-06-01T10:47:45.643Z</time>
      </trkpt>
      <trkpt lat="44.13642" lon="5.86636">
        <ele>1209</ele>
        <time>2021-06-01T10:47:46.643Z</time>
      </trkpt>
      <trkpt lat="44.13642" lon="5.86635">
        <ele>1210</ele>
        <time>2021-06-01T10:47:47.643Z</time>
      </trkpt>
      <trkpt lat="44.13642" lon="5.86633">
        <ele>1210</ele>
        <time>2021-06-01T10:47:48.643Z</time>
      </trkpt>
      <trkpt lat="44.13642" lon="5.86632">
        <ele>1210</ele>
        <time>2021-06-01T10:47:49.643Z</time>
      </trkpt>
      <trkpt lat="44.13641" lon="5.86631">
        <ele>1210</ele>
        <time>2021-06-01T10:47:50.643Z</time>
      </trkpt>
      <trkpt lat="44.13641" lon="5.8663">
        <ele>1210</ele>
        <time>2021-06-01T10:47:51.643Z</time>
      </trkpt>
      <trkpt lat="44.13641" lon="5.86628">
        <ele>1210</ele>
        <time>2021-06-01T10:47:52.643Z</time>
      </trkpt>
      <trkpt lat="44.1364" lon="5.86627">
        <ele>1210</ele>
        <time>2021-06-01T10:47:53.643Z</time>
      </trkpt>
      <trkpt lat="44.1364" lon="5.86626">
        <ele>1211</ele>
        <time>2021-06-01T10:47:54.643Z</time>
      </trkpt>
      <trkpt lat="44.1364" lon="5.86625">
        <ele>1211</ele>
        <time>2021-06-01T10:47:55.643Z</time>
      </trkpt>
      <trkpt lat="44.1364" lon="5.86623">
        <ele>1211</ele>
        <time>2021-06-01T10:47:56.643Z</time>
      </trkpt>
      <trkpt lat="44.13639" lon="5.86622">
        <ele>1211</ele>
        <time>2021-06-01T10:47:57.643Z</time>
      </trkpt>
      <trkpt lat="44.13639" lon="5.86621">
        <ele>1211</ele>
        <time>2021-06-01T10:47:58.643Z</time>
      </trkpt>
      <trkpt lat="44.13639" lon="5.86619">
        <ele>1211</ele>
        <time>2021-06-01T10:47:59.643Z</time>
      </trkpt>
      <trkpt lat="44.13638" lon="5.86618">
        <ele>1211</ele>
        <time>2021-06-01T10:48:00.643Z</time>
      </trkpt>
      <trkpt lat="44.13638" lon="5.86617">
        <ele>1211</ele>
        <time>2021-06-01T10:48:01.643Z</time>
      </trkpt>
      <trkpt lat="44.13638" lon="5.86616">
        <ele>1211</ele>
        <time>2021-06-01T10:48:02.643Z</time>
      </trkpt>
      <trkpt lat="44.13638" lon="5.86614">
        <ele>1211</ele>
        <time>2021-06-01T10:48:03.643Z</time>
      </trkpt>
      <trkpt lat="44.13637" lon="5.86613">
        <ele>1212</ele>
        <time>2021-06-01T10:48:04.643Z</time>
      </trkpt>
      <trkpt lat="44.13637" lon="5.86612">
        <ele>1212</ele>
        <time>2021-06-01T10:48:05.643Z</time>
      </trkpt>
      <trkpt lat="44.13637" lon="5.86611">
        <ele>1212</ele>
        <time>2021-06-01T10:48:06.643Z</time>
      </trkpt>
      <trkpt lat="44.13637" lon="5.86609">
        <ele>1212</ele>
        <time>2021-06-01T10:48:07.643Z</time>
      </trkpt>
      <trkpt lat="44.13636" lon="5.86608">
        <ele>1212</ele>
        <time>2021-06-01T10:48:08.643Z</time>
      </trkpt>
      <trkpt lat="44.13636" lon="5.86607">
        <ele>1212</ele>
        <time>2021-06-01T10:48:09.643Z</time>
      </trkpt>
      <trkpt lat="44.13636" lon="5.86606">
        <ele>1212</ele>
        <time>2021-06-01T10:48:10.643Z</time>
      </trkpt>
      <trkpt lat="44.13635" lon="5.86604">
        <ele>1212</ele>
        <time>2021-06-01T10:48:11.643Z</time>
      </trkpt>
      <trkpt lat="44.13635" lon="5.86603">
        <ele>1212</ele>
        <time>2021-06-01T10:48:12.643Z</time>
      </trkpt>
      <trkpt lat="44.13635" lon="5.86602">
        <ele>1212</ele>
        <time>2021-06-01T10:48:13.643Z</time>
      </trkpt>
      <trkpt lat="44.13635" lon="5.866">
        <ele>1212</ele>
        <time>2021-06-01T10:48:14.643Z</time>
      </trkpt>
      <trkpt lat="44.13634" lon="5.86599">
        <ele>1212</ele>
        <time>2021-06-01T10:48:15.643Z</time>
      </trkpt>
      <trkpt lat="44.13634" lon="5.86598">
        <ele>1212</ele>
        <time>2021-06-01T10:48:16.643Z</time>
      </trkpt>
      <trkpt lat="44.13634" lon="5.86597">
        <ele>1212</ele>
        <time>2021-06-01T10:48:17.643Z</time>
      </trkpt>
      <trkpt lat="44.13633" lon="5.86595">
        <ele>1213</ele>
        <time>2021-06-01T10:48:18.643Z</time>
      </trkpt>
      <trkpt lat="44.13633" lon="5.86594">
        <ele>1213</ele>
        <time>2021-06-01T10:48:19.643Z</time>
      </trkpt>
      <trkpt lat="44.13632" lon="5.86593">
        <ele>1213</ele>
        <time>2021-06-01T10:48:20.643Z</time>
      </trkpt>
      <trkpt lat="44.13632" lon="5.86592">
        <ele>1213</ele>
        <time>2021-06-01T10:48:21.643Z</time>
      </trkpt>
      <trkpt lat="44.13631" lon="5.86591">
        <ele>1212</ele>
        <time>2021-06-01T10:48:22.643Z</time>
      </trkpt>
      <trkpt lat="44.13631" lon="5.8659">
        <ele>1212</ele>
        <time>2021-06-01T10:48:23.643Z</time>
      </trkpt>
      <trkpt lat="44.1363" lon="5.86588">
        <ele>1212</ele>
        <time>2021-06-01T10:48:24.643Z</time>
      </trkpt>
      <trkpt lat="44.1363" lon="5.86587">
        <ele>1212</ele>
        <time>2021-06-01T10:48:25.643Z</time>
      </trkpt>
      <trkpt lat="44.1363" lon="5.86586">
        <ele>1212</ele>
        <time>2021-06-01T10:48:26.643Z</time>
      </trkpt>
      <trkpt lat="44.1363" lon="5.86584">
        <ele>1212</ele>
        <time>2021-06-01T10:48:27.643Z</time>
      </trkpt>
      <trkpt lat="44.1363" lon="5.86583">
        <ele>1212</ele>
        <time>2021-06-01T10:48:28.643Z</time>
      </trkpt>
      <trkpt lat="44.1363" lon="5.86582">
        <ele>1212</ele>
        <time>2021-06-01T10:48:29.643Z</time>
      </trkpt>
      <trkpt lat="44.1363" lon="5.86581">
        <ele>1212</ele>
        <time>2021-06-01T10:48:30.643Z</time>
      </trkpt>
      <trkpt lat="44.13629" lon="5.8658">
        <ele>1213</ele>
        <time>2021-06-01T10:48:31.643Z</time>
      </trkpt>
      <trkpt lat="44.13629" lon="5.86578">
        <ele>1213</ele>
        <time>2021-06-01T10:48:32.643Z</time>
      </trkpt>
      <trkpt lat="44.13629" lon="5.86577">
        <ele>1213</ele>
        <time>2021-06-01T10:48:33.643Z</time>
      </trkpt>
      <trkpt lat="44.13629" lon="5.86576">
        <ele>1213</ele>
        <time>2021-06-01T10:48:34.643Z</time>
      </trkpt>
      <trkpt lat="44.13629" lon="5.86575">
        <ele>1213</ele>
        <time>2021-06-01T10:48:35.643Z</time>
      </trkpt>
      <trkpt lat="44.13629" lon="5.86573">
        <ele>1213</ele>
        <time>2021-06-01T10:48:36.643Z</time>
      </trkpt>
      <trkpt lat="44.13629" lon="5.86572">
        <ele>1213</ele>
        <time>2021-06-01T10:48:37.643Z</time>
      </trkpt>
      <trkpt lat="44.13629" lon="5.86571">
        <ele>1213</ele>
        <time>2021-06-01T10:48:38.643Z</time>
      </trkpt>
      <trkpt lat="44.13628" lon="5.8657">
        <ele>1213</ele>
        <time>2021-06-01T10:48:39.643Z</time>
      </trkpt>
      <trkpt lat="44.13628" lon="5.86568">
        <ele>1213</ele>
        <time>2021-06-01T10:48:40.643Z</time>
      </trkpt>
      <trkpt lat="44.13628" lon="5.86567">
        <ele>1213</ele>
        <time>2021-06-01T10:48:41.643Z</time>
      </trkpt>
      <trkpt lat="44.13628" lon="5.86566">
        <ele>1213</ele>
        <time>2021-06-01T10:48:42.643Z</time>
      </trkpt>
      <trkpt lat="44.13628" lon="5.86565">
        <ele>1213</ele>
        <time>2021-06-01T10:48:43.643Z</time>
      </trkpt>
      <trkpt lat="44.13628" lon="5.86563">
        <ele>1214</ele>
        <time>2021-06-01T10:48:44.643Z</time>
      </trkpt>
      <trkpt lat="44.13628" lon="5.86562">
        <ele>1214</ele>
        <time>2021-06-01T10:48:45.643Z</time>
      </trkpt>
      <trkpt lat="44.13628" lon="5.86561">
        <ele>1214</ele>
        <time>2021-06-01T10:48:46.643Z</time>
      </trkpt>
      <trkpt lat="44.13627" lon="5.86559">
        <ele>1214</ele>
        <time>2021-06-01T10:48:47.643Z</time>
      </trkpt>
      <trkpt lat="44.13627" lon="5.86558">
        <ele>1214</ele>
        <time>2021-06-01T10:48:48.643Z</time>
      </trkpt>
      <trkpt lat="44.13627" lon="5.86557">
        <ele>1214</ele>
        <time>2021-06-01T10:48:49.643Z</time>
      </trkpt>
      <trkpt lat="44.13627" lon="5.86555">
        <ele>1214</ele>
        <time>2021-06-01T10:48:50.643Z</time>
      </trkpt>
      <trkpt lat="44.13627" lon="5.86554">
        <ele>1214</ele>
        <time>2021-06-01T10:48:51.643Z</time>
      </trkpt>
      <trkpt lat="44.13627" lon="5.86552">
        <ele>1214</ele>
        <time>2021-06-01T10:48:52.643Z</time>
      </trkpt>
      <trkpt lat="44.13627" lon="5.86551">
        <ele>1214</ele>
        <time>2021-06-01T10:48:53.643Z</time>
      </trkpt>
      <trkpt lat="44.13626" lon="5.86549">
        <ele>1214</ele>
        <time>2021-06-01T10:48:54.643Z</time>
      </trkpt>
      <trkpt lat="44.13626" lon="5.86548">
        <ele>1215</ele>
        <time>2021-06-01T10:48:55.643Z</time>
      </trkpt>
      <trkpt lat="44.13626" lon="5.86546">
        <ele>1215</ele>
        <time>2021-06-01T10:48:56.643Z</time>
      </trkpt>
      <trkpt lat="44.13626" lon="5.86545">
        <ele>1215</ele>
        <time>2021-06-01T10:48:57.643Z</time>
      </trkpt>
      <trkpt lat="44.13626" lon="5.86544">
        <ele>1215</ele>
        <time>2021-06-01T10:48:58.643Z</time>
      </trkpt>
      <trkpt lat="44.13626" lon="5.86542">
        <ele>1215</ele>
        <time>2021-06-01T10:48:59.643Z</time>
      </trkpt>
      <trkpt lat="44.13626" lon="5.86541">
        <ele>1215</ele>
        <time>2021-06-01T10:49:00.643Z</time>
      </trkpt>
      <trkpt lat="44.13626" lon="5.86539">
        <ele>1215</ele>
        <time>2021-06-01T10:49:01.643Z</time>
      </trkpt>
      <trkpt lat="44.13626" lon="5.86538">
        <ele>1216</ele>
        <time>2021-06-01T10:49:02.643Z</time>
      </trkpt>
      <trkpt lat="44.13625" lon="5.86537">
        <ele>1216</ele>
        <time>2021-06-01T10:49:03.643Z</time>
      </trkpt>
      <trkpt lat="44.13625" lon="5.86535">
        <ele>1216</ele>
        <time>2021-06-01T10:49:04.643Z</time>
      </trkpt>
      <trkpt lat="44.13625" lon="5.86534">
        <ele>1216</ele>
        <time>2021-06-01T10:49:05.643Z</time>
      </trkpt>
      <trkpt lat="44.13625" lon="5.86533">
        <ele>1216</ele>
        <time>2021-06-01T10:49:06.643Z</time>
      </trkpt>
      <trkpt lat="44.13625" lon="5.86531">
        <ele>1216</ele>
        <time>2021-06-01T10:49:07.643Z</time>
      </trkpt>
      <trkpt lat="44.13625" lon="5.8653">
        <ele>1216</ele>
        <time>2021-06-01T10:49:08.643Z</time>
      </trkpt>
      <trkpt lat="44.13624" lon="5.86529">
        <ele>1217</ele>
        <time>2021-06-01T10:49:09.643Z</time>
      </trkpt>
      <trkpt lat="44.13624" lon="5.86527">
        <ele>1217</ele>
        <time>2021-06-01T10:49:10.643Z</time>
      </trkpt>
      <trkpt lat="44.13624" lon="5.86526">
        <ele>1217</ele>
        <time>2021-06-01T10:49:11.643Z</time>
      </trkpt>
      <trkpt lat="44.13624" lon="5.86524">
        <ele>1217</ele>
        <time>2021-06-01T10:49:12.643Z</time>
      </trkpt>
      <trkpt lat="44.13624" lon="5.86523">
        <ele>1217</ele>
        <time>2021-06-01T10:49:13.643Z</time>
      </trkpt>
      <trkpt lat="44.13623" lon="5.86522">
        <ele>1217</ele>
        <time>2021-06-01T10:49:14.643Z</time>
      </trkpt>
      <trkpt lat="44.13623" lon="5.86521">
        <ele>1217</ele>
        <time>2021-06-01T10:49:15.643Z</time>
      </trkpt>
      <trkpt lat="44.13623" lon="5.86519">
        <ele>1217</ele>
        <time>2021-06-01T10:49:16.643Z</time>
      </trkpt>
      <trkpt lat="44.13623" lon="5.86518">
        <ele>1217</ele>
        <time>2021-06-01T10:49:17.643Z</time>
      </trkpt>
      <trkpt lat="44.13623" lon="5.86517">
        <ele>1217</ele>
        <time>2021-06-01T10:49:18.643Z</time>
      </trkpt>
      <trkpt lat="44.13623" lon="5.86515">
        <ele>1217</ele>
        <time>2021-06-01T10:49:19.643Z</time>
      </trkpt>
      <trkpt lat="44.13622" lon="5.86514">
        <ele>1217</ele>
        <time>2021-06-01T10:49:20.643Z</time>
      </trkpt>
      <trkpt lat="44.13622" lon="5.86513">
        <ele>1218</ele>
        <time>2021-06-01T10:49:21.643Z</time>
      </trkpt>
      <trkpt lat="44.13622" lon="5.86511">
        <ele>1218</ele>
        <time>2021-06-01T10:49:22.643Z</time>
      </trkpt>
      <trkpt lat="44.13622" lon="5.8651">
        <ele>1218</ele>
        <time>2021-06-01T10:49:23.643Z</time>
      </trkpt>
      <trkpt lat="44.13622" lon="5.86509">
        <ele>1218</ele>
        <time>2021-06-01T10:49:24.643Z</time>
      </trkpt>
      <trkpt lat="44.13622" lon="5.86507">
        <ele>1218</ele>
        <time>2021-06-01T10:49:25.643Z</time>
      </trkpt>
      <trkpt lat="44.13622" lon="5.86506">
        <ele>1218</ele>
        <time>2021-06-01T10:49:26.643Z</time>
      </trkpt>
      <trkpt lat="44.13622" lon="5.86505">
        <ele>1218</ele>
        <time>2021-06-01T10:49:27.643Z</time>
      </trkpt>
      <trkpt lat="44.13621" lon="5.86503">
        <ele>1219</ele>
        <time>2021-06-01T10:49:28.643Z</time>
      </trkpt>
      <trkpt lat="44.13621" lon="5.86502">
        <ele>1219</ele>
        <time>2021-06-01T10:49:29.643Z</time>
      </trkpt>
      <trkpt lat="44.13621" lon="5.86501">
        <ele>1219</ele>
        <time>2021-06-01T10:49:30.643Z</time>
      </trkpt>
      <trkpt lat="44.13621" lon="5.86499">
        <ele>1219</ele>
        <time>2021-06-01T10:49:31.643Z</time>
      </trkpt>
      <trkpt lat="44.13621" lon="5.86498">
        <ele>1219</ele>
        <time>2021-06-01T10:49:32.643Z</time>
      </trkpt>
      <trkpt lat="44.13621" lon="5.86497">
        <ele>1219</ele>
        <time>2021-06-01T10:49:33.643Z</time>
      </trkpt>
      <trkpt lat="44.13621" lon="5.86496">
        <ele>1219</ele>
        <time>2021-06-01T10:49:34.643Z</time>
      </trkpt>
      <trkpt lat="44.13621" lon="5.86494">
        <ele>1220</ele>
        <time>2021-06-01T10:49:35.643Z</time>
      </trkpt>
      <trkpt lat="44.13621" lon="5.86493">
        <ele>1220</ele>
        <time>2021-06-01T10:49:36.643Z</time>
      </trkpt>
      <trkpt lat="44.13621" lon="5.86492">
        <ele>1220</ele>
        <time>2021-06-01T10:49:37.643Z</time>
      </trkpt>
      <trkpt lat="44.13621" lon="5.8649">
        <ele>1220</ele>
        <time>2021-06-01T10:49:38.643Z</time>
      </trkpt>
      <trkpt lat="44.13621" lon="5.86489">
        <ele>1220</ele>
        <time>2021-06-01T10:49:39.643Z</time>
      </trkpt>
      <trkpt lat="44.13621" lon="5.86488">
        <ele>1220</ele>
        <time>2021-06-01T10:49:40.643Z</time>
      </trkpt>
      <trkpt lat="44.13621" lon="5.86486">
        <ele>1220</ele>
        <time>2021-06-01T10:49:41.643Z</time>
      </trkpt>
      <trkpt lat="44.13621" lon="5.86485">
        <ele>1220</ele>
        <time>2021-06-01T10:49:42.643Z</time>
      </trkpt>
      <trkpt lat="44.1362" lon="5.86484">
        <ele>1221</ele>
        <time>2021-06-01T10:49:43.643Z</time>
      </trkpt>
      <trkpt lat="44.1362" lon="5.86482">
        <ele>1221</ele>
        <time>2021-06-01T10:49:44.643Z</time>
      </trkpt>
      <trkpt lat="44.1362" lon="5.86481">
        <ele>1221</ele>
        <time>2021-06-01T10:49:45.643Z</time>
      </trkpt>
      <trkpt lat="44.1362" lon="5.8648">
        <ele>1221</ele>
        <time>2021-06-01T10:49:46.643Z</time>
      </trkpt>
      <trkpt lat="44.1362" lon="5.86478">
        <ele>1221</ele>
        <time>2021-06-01T10:49:47.643Z</time>
      </trkpt>
      <trkpt lat="44.1362" lon="5.86477">
        <ele>1221</ele>
        <time>2021-06-01T10:49:48.643Z</time>
      </trkpt>
      <trkpt lat="44.1362" lon="5.86476">
        <ele>1221</ele>
        <time>2021-06-01T10:49:49.643Z</time>
      </trkpt>
      <trkpt lat="44.1362" lon="5.86475">
        <ele>1222</ele>
        <time>2021-06-01T10:49:50.643Z</time>
      </trkpt>
      <trkpt lat="44.1362" lon="5.86473">
        <ele>1222</ele>
        <time>2021-06-01T10:49:51.643Z</time>
      </trkpt>
      <trkpt lat="44.1362" lon="5.86472">
        <ele>1222</ele>
        <time>2021-06-01T10:49:52.643Z</time>
      </trkpt>
      <trkpt lat="44.1362" lon="5.86471">
        <ele>1222</ele>
        <time>2021-06-01T10:49:53.643Z</time>
      </trkpt>
      <trkpt lat="44.1362" lon="5.86469">
        <ele>1222</ele>
        <time>2021-06-01T10:49:54.643Z</time>
      </trkpt>
      <trkpt lat="44.1362" lon="5.86468">
        <ele>1222</ele>
        <time>2021-06-01T10:49:55.643Z</time>
      </trkpt>
      <trkpt lat="44.1362" lon="5.86467">
        <ele>1222</ele>
        <time>2021-06-01T10:49:56.643Z</time>
      </trkpt>
      <trkpt lat="44.1362" lon="5.86465">
        <ele>1222</ele>
        <time>2021-06-01T10:49:57.643Z</time>
      </trkpt>
      <trkpt lat="44.1362" lon="5.86464">
        <ele>1222</ele>
        <time>2021-06-01T10:49:58.643Z</time>
      </trkpt>
      <trkpt lat="44.1362" lon="5.86462">
        <ele>1222</ele>
        <time>2021-06-01T10:49:59.643Z</time>
      </trkpt>
      <trkpt lat="44.1362" lon="5.86461">
        <ele>1223</ele>
        <time>2021-06-01T10:50:00.643Z</time>
      </trkpt>
      <trkpt lat="44.1362" lon="5.8646">
        <ele>1223</ele>
        <time>2021-06-01T10:50:01.643Z</time>
      </trkpt>
      <trkpt lat="44.1362" lon="5.86459">
        <ele>1223</ele>
        <time>2021-06-01T10:50:02.643Z</time>
      </trkpt>
      <trkpt lat="44.1362" lon="5.86457">
        <ele>1223</ele>
        <time>2021-06-01T10:50:03.643Z</time>
      </trkpt>
      <trkpt lat="44.1362" lon="5.86456">
        <ele>1223</ele>
        <time>2021-06-01T10:50:04.643Z</time>
      </trkpt>
      <trkpt lat="44.1362" lon="5.86455">
        <ele>1223</ele>
        <time>2021-06-01T10:50:05.643Z</time>
      </trkpt>
      <trkpt lat="44.1362" lon="5.86454">
        <ele>1223</ele>
        <time>2021-06-01T10:50:06.643Z</time>
      </trkpt>
      <trkpt lat="44.1362" lon="5.86452">
        <ele>1223</ele>
        <time>2021-06-01T10:50:07.643Z</time>
      </trkpt>
      <trkpt lat="44.1362" lon="5.86451">
        <ele>1223</ele>
        <time>2021-06-01T10:50:08.643Z</time>
      </trkpt>
      <trkpt lat="44.1362" lon="5.8645">
        <ele>1223</ele>
        <time>2021-06-01T10:50:09.643Z</time>
      </trkpt>
      <trkpt lat="44.1362" lon="5.86448">
        <ele>1223</ele>
        <time>2021-06-01T10:50:10.643Z</time>
      </trkpt>
      <trkpt lat="44.1362" lon="5.86447">
        <ele>1223</ele>
        <time>2021-06-01T10:50:11.643Z</time>
      </trkpt>
      <trkpt lat="44.1362" lon="5.86446">
        <ele>1223</ele>
        <time>2021-06-01T10:50:12.643Z</time>
      </trkpt>
      <trkpt lat="44.1362" lon="5.86445">
        <ele>1223</ele>
        <time>2021-06-01T10:50:13.643Z</time>
      </trkpt>
      <trkpt lat="44.1362" lon="5.86444">
        <ele>1223</ele>
        <time>2021-06-01T10:50:14.643Z</time>
      </trkpt>
      <trkpt lat="44.1362" lon="5.86443">
        <ele>1223</ele>
        <time>2021-06-01T10:50:15.643Z</time>
      </trkpt>
      <trkpt lat="44.1362" lon="5.86441">
        <ele>1223</ele>
        <time>2021-06-01T10:50:16.643Z</time>
      </trkpt>
      <trkpt lat="44.13619" lon="5.8644">
        <ele>1223</ele>
        <time>2021-06-01T10:50:17.643Z</time>
      </trkpt>
      <trkpt lat="44.13619" lon="5.86439">
        <ele>1223</ele>
        <time>2021-06-01T10:50:18.643Z</time>
      </trkpt>
      <trkpt lat="44.13619" lon="5.86438">
        <ele>1223</ele>
        <time>2021-06-01T10:50:19.643Z</time>
      </trkpt>
      <trkpt lat="44.13619" lon="5.86437">
        <ele>1223</ele>
        <time>2021-06-01T10:50:20.643Z</time>
      </trkpt>
      <trkpt lat="44.13619" lon="5.86435">
        <ele>1223</ele>
        <time>2021-06-01T10:50:21.643Z</time>
      </trkpt>
      <trkpt lat="44.1362" lon="5.86434">
        <ele>1223</ele>
        <time>2021-06-01T10:50:22.643Z</time>
      </trkpt>
      <trkpt lat="44.1362" lon="5.86433">
        <ele>1223</ele>
        <time>2021-06-01T10:50:23.643Z</time>
      </trkpt>
      <trkpt lat="44.1362" lon="5.86431">
        <ele>1223</ele>
        <time>2021-06-01T10:50:24.643Z</time>
      </trkpt>
      <trkpt lat="44.1362" lon="5.8643">
        <ele>1223</ele>
        <time>2021-06-01T10:50:25.643Z</time>
      </trkpt>
      <trkpt lat="44.1362" lon="5.86428">
        <ele>1223</ele>
        <time>2021-06-01T10:50:26.643Z</time>
      </trkpt>
      <trkpt lat="44.1362" lon="5.86427">
        <ele>1223</ele>
        <time>2021-06-01T10:50:27.643Z</time>
      </trkpt>
      <trkpt lat="44.1362" lon="5.86426">
        <ele>1223</ele>
        <time>2021-06-01T10:50:28.643Z</time>
      </trkpt>
      <trkpt lat="44.1362" lon="5.86424">
        <ele>1223</ele>
        <time>2021-06-01T10:50:29.643Z</time>
      </trkpt>
      <trkpt lat="44.1362" lon="5.86423">
        <ele>1223</ele>
        <time>2021-06-01T10:50:30.643Z</time>
      </trkpt>
      <trkpt lat="44.1362" lon="5.86422">
        <ele>1224</ele>
        <time>2021-06-01T10:50:31.643Z</time>
      </trkpt>
      <trkpt lat="44.1362" lon="5.8642">
        <ele>1224</ele>
        <time>2021-06-01T10:50:32.643Z</time>
      </trkpt>
      <trkpt lat="44.13621" lon="5.86419">
        <ele>1224</ele>
        <time>2021-06-01T10:50:33.643Z</time>
      </trkpt>
      <trkpt lat="44.1362" lon="5.86418">
        <ele>1224</ele>
        <time>2021-06-01T10:50:34.643Z</time>
      </trkpt>
      <trkpt lat="44.1362" lon="5.86417">
        <ele>1224</ele>
        <time>2021-06-01T10:50:35.643Z</time>
      </trkpt>
      <trkpt lat="44.1362" lon="5.86415">
        <ele>1224</ele>
        <time>2021-06-01T10:50:36.643Z</time>
      </trkpt>
      <trkpt lat="44.1362" lon="5.86414">
        <ele>1224</ele>
        <time>2021-06-01T10:50:37.643Z</time>
      </trkpt>
      <trkpt lat="44.1362" lon="5.86413">
        <ele>1224</ele>
        <time>2021-06-01T10:50:38.643Z</time>
      </trkpt>
      <trkpt lat="44.1362" lon="5.86411">
        <ele>1225</ele>
        <time>2021-06-01T10:50:39.643Z</time>
      </trkpt>
      <trkpt lat="44.1362" lon="5.8641">
        <ele>1225</ele>
        <time>2021-06-01T10:50:40.643Z</time>
      </trkpt>
      <trkpt lat="44.1362" lon="5.86409">
        <ele>1225</ele>
        <time>2021-06-01T10:50:41.643Z</time>
      </trkpt>
      <trkpt lat="44.1362" lon="5.86407">
        <ele>1225</ele>
        <time>2021-06-01T10:50:42.643Z</time>
      </trkpt>
      <trkpt lat="44.1362" lon="5.86406">
        <ele>1225</ele>
        <time>2021-06-01T10:50:43.643Z</time>
      </trkpt>
      <trkpt lat="44.1362" lon="5.86405">
        <ele>1225</ele>
        <time>2021-06-01T10:50:44.643Z</time>
      </trkpt>
      <trkpt lat="44.1362" lon="5.86404">
        <ele>1225</ele>
        <time>2021-06-01T10:50:45.643Z</time>
      </trkpt>
      <trkpt lat="44.1362" lon="5.86403">
        <ele>1225</ele>
        <time>2021-06-01T10:50:46.643Z</time>
      </trkpt>
      <trkpt lat="44.1362" lon="5.86401">
        <ele>1226</ele>
        <time>2021-06-01T10:50:47.643Z</time>
      </trkpt>
      <trkpt lat="44.13619" lon="5.864">
        <ele>1226</ele>
        <time>2021-06-01T10:50:48.643Z</time>
      </trkpt>
      <trkpt lat="44.13619" lon="5.86399">
        <ele>1226</ele>
        <time>2021-06-01T10:50:49.643Z</time>
      </trkpt>
      <trkpt lat="44.13619" lon="5.86398">
        <ele>1226</ele>
        <time>2021-06-01T10:50:50.643Z</time>
      </trkpt>
      <trkpt lat="44.13619" lon="5.86397">
        <ele>1226</ele>
        <time>2021-06-01T10:50:51.643Z</time>
      </trkpt>
      <trkpt lat="44.13619" lon="5.86395">
        <ele>1226</ele>
        <time>2021-06-01T10:50:52.643Z</time>
      </trkpt>
      <trkpt lat="44.13619" lon="5.86394">
        <ele>1226</ele>
        <time>2021-06-01T10:50:53.643Z</time>
      </trkpt>
      <trkpt lat="44.13619" lon="5.86393">
        <ele>1226</ele>
        <time>2021-06-01T10:50:54.643Z</time>
      </trkpt>
      <trkpt lat="44.13619" lon="5.86392">
        <ele>1226</ele>
        <time>2021-06-01T10:50:55.643Z</time>
      </trkpt>
      <trkpt lat="44.13619" lon="5.8639">
        <ele>1226</ele>
        <time>2021-06-01T10:50:56.643Z</time>
      </trkpt>
      <trkpt lat="44.13619" lon="5.86389">
        <ele>1226</ele>
        <time>2021-06-01T10:50:57.643Z</time>
      </trkpt>
      <trkpt lat="44.13618" lon="5.86388">
        <ele>1226</ele>
        <time>2021-06-01T10:50:58.643Z</time>
      </trkpt>
      <trkpt lat="44.13618" lon="5.86387">
        <ele>1226</ele>
        <time>2021-06-01T10:50:59.643Z</time>
      </trkpt>
      <trkpt lat="44.13618" lon="5.86385">
        <ele>1226</ele>
        <time>2021-06-01T10:51:00.643Z</time>
      </trkpt>
      <trkpt lat="44.13618" lon="5.86384">
        <ele>1226</ele>
        <time>2021-06-01T10:51:01.643Z</time>
      </trkpt>
      <trkpt lat="44.13618" lon="5.86383">
        <ele>1227</ele>
        <time>2021-06-01T10:51:02.643Z</time>
      </trkpt>
      <trkpt lat="44.13617" lon="5.86381">
        <ele>1227</ele>
        <time>2021-06-01T10:51:03.643Z</time>
      </trkpt>
      <trkpt lat="44.13617" lon="5.8638">
        <ele>1227</ele>
        <time>2021-06-01T10:51:04.643Z</time>
      </trkpt>
      <trkpt lat="44.13617" lon="5.86379">
        <ele>1227</ele>
        <time>2021-06-01T10:51:05.643Z</time>
      </trkpt>
      <trkpt lat="44.13617" lon="5.86377">
        <ele>1227</ele>
        <time>2021-06-01T10:51:06.643Z</time>
      </trkpt>
      <trkpt lat="44.13616" lon="5.86376">
        <ele>1227</ele>
        <time>2021-06-01T10:51:07.643Z</time>
      </trkpt>
      <trkpt lat="44.13616" lon="5.86375">
        <ele>1227</ele>
        <time>2021-06-01T10:51:08.643Z</time>
      </trkpt>
      <trkpt lat="44.13616" lon="5.86374">
        <ele>1227</ele>
        <time>2021-06-01T10:51:09.643Z</time>
      </trkpt>
      <trkpt lat="44.13616" lon="5.86373">
        <ele>1227</ele>
        <time>2021-06-01T10:51:10.643Z</time>
      </trkpt>
      <trkpt lat="44.13616" lon="5.86372">
        <ele>1227</ele>
        <time>2021-06-01T10:51:11.643Z</time>
      </trkpt>
      <trkpt lat="44.13616" lon="5.86371">
        <ele>1227</ele>
        <time>2021-06-01T10:51:12.643Z</time>
      </trkpt>
      <trkpt lat="44.13615" lon="5.86369">
        <ele>1228</ele>
        <time>2021-06-01T10:51:13.643Z</time>
      </trkpt>
      <trkpt lat="44.13615" lon="5.86368">
        <ele>1228</ele>
        <time>2021-06-01T10:51:14.643Z</time>
      </trkpt>
      <trkpt lat="44.13615" lon="5.86367">
        <ele>1228</ele>
        <time>2021-06-01T10:51:15.643Z</time>
      </trkpt>
      <trkpt lat="44.13615" lon="5.86366">
        <ele>1228</ele>
        <time>2021-06-01T10:51:16.643Z</time>
      </trkpt>
      <trkpt lat="44.13614" lon="5.86365">
        <ele>1228</ele>
        <time>2021-06-01T10:51:17.643Z</time>
      </trkpt>
      <trkpt lat="44.13614" lon="5.86364">
        <ele>1228</ele>
        <time>2021-06-01T10:51:18.643Z</time>
      </trkpt>
      <trkpt lat="44.13614" lon="5.86363">
        <ele>1228</ele>
        <time>2021-06-01T10:51:19.643Z</time>
      </trkpt>
      <trkpt lat="44.13614" lon="5.86361">
        <ele>1228</ele>
        <time>2021-06-01T10:51:20.643Z</time>
      </trkpt>
      <trkpt lat="44.13614" lon="5.8636">
        <ele>1228</ele>
        <time>2021-06-01T10:51:21.643Z</time>
      </trkpt>
      <trkpt lat="44.13613" lon="5.86359">
        <ele>1228</ele>
        <time>2021-06-01T10:51:22.643Z</time>
      </trkpt>
      <trkpt lat="44.13613" lon="5.86358">
        <ele>1228</ele>
        <time>2021-06-01T10:51:23.643Z</time>
      </trkpt>
      <trkpt lat="44.13613" lon="5.86356">
        <ele>1228</ele>
        <time>2021-06-01T10:51:24.643Z</time>
      </trkpt>
      <trkpt lat="44.13613" lon="5.86355">
        <ele>1228</ele>
        <time>2021-06-01T10:51:25.643Z</time>
      </trkpt>
      <trkpt lat="44.13612" lon="5.86354">
        <ele>1228</ele>
        <time>2021-06-01T10:51:26.643Z</time>
      </trkpt>
      <trkpt lat="44.13612" lon="5.86353">
        <ele>1228</ele>
        <time>2021-06-01T10:51:27.643Z</time>
      </trkpt>
      <trkpt lat="44.13611" lon="5.86351">
        <ele>1228</ele>
        <time>2021-06-01T10:51:28.643Z</time>
      </trkpt>
      <trkpt lat="44.13611" lon="5.8635">
        <ele>1228</ele>
        <time>2021-06-01T10:51:29.643Z</time>
      </trkpt>
      <trkpt lat="44.1361" lon="5.86349">
        <ele>1228</ele>
        <time>2021-06-01T10:51:30.643Z</time>
      </trkpt>
      <trkpt lat="44.1361" lon="5.86348">
        <ele>1228</ele>
        <time>2021-06-01T10:51:31.643Z</time>
      </trkpt>
      <trkpt lat="44.1361" lon="5.86347">
        <ele>1228</ele>
        <time>2021-06-01T10:51:32.643Z</time>
      </trkpt>
      <trkpt lat="44.13609" lon="5.86346">
        <ele>1229</ele>
        <time>2021-06-01T10:51:33.643Z</time>
      </trkpt>
      <trkpt lat="44.13609" lon="5.86344">
        <ele>1229</ele>
        <time>2021-06-01T10:51:34.643Z</time>
      </trkpt>
      <trkpt lat="44.13608" lon="5.86343">
        <ele>1229</ele>
        <time>2021-06-01T10:51:35.643Z</time>
      </trkpt>
      <trkpt lat="44.13608" lon="5.86342">
        <ele>1229</ele>
        <time>2021-06-01T10:51:36.643Z</time>
      </trkpt>
      <trkpt lat="44.13608" lon="5.86341">
        <ele>1229</ele>
        <time>2021-06-01T10:51:37.643Z</time>
      </trkpt>
      <trkpt lat="44.13608" lon="5.86339">
        <ele>1229</ele>
        <time>2021-06-01T10:51:38.643Z</time>
      </trkpt>
      <trkpt lat="44.13607" lon="5.86338">
        <ele>1229</ele>
        <time>2021-06-01T10:51:39.643Z</time>
      </trkpt>
      <trkpt lat="44.13607" lon="5.86337">
        <ele>1229</ele>
        <time>2021-06-01T10:51:40.643Z</time>
      </trkpt>
      <trkpt lat="44.13607" lon="5.86335">
        <ele>1229</ele>
        <time>2021-06-01T10:51:41.643Z</time>
      </trkpt>
      <trkpt lat="44.13607" lon="5.86334">
        <ele>1229</ele>
        <time>2021-06-01T10:51:42.643Z</time>
      </trkpt>
      <trkpt lat="44.13606" lon="5.86333">
        <ele>1229</ele>
        <time>2021-06-01T10:51:43.643Z</time>
      </trkpt>
      <trkpt lat="44.13605" lon="5.86332">
        <ele>1229</ele>
        <time>2021-06-01T10:51:44.643Z</time>
      </trkpt>
      <trkpt lat="44.13605" lon="5.86331">
        <ele>1229</ele>
        <time>2021-06-01T10:51:45.643Z</time>
      </trkpt>
      <trkpt lat="44.13604" lon="5.86329">
        <ele>1229</ele>
        <time>2021-06-01T10:51:46.643Z</time>
      </trkpt>
      <trkpt lat="44.13604" lon="5.86328">
        <ele>1229</ele>
        <time>2021-06-01T10:51:47.643Z</time>
      </trkpt>
      <trkpt lat="44.13603" lon="5.86327">
        <ele>1229</ele>
        <time>2021-06-01T10:51:48.643Z</time>
      </trkpt>
      <trkpt lat="44.13603" lon="5.86326">
        <ele>1229</ele>
        <time>2021-06-01T10:51:49.643Z</time>
      </trkpt>
      <trkpt lat="44.13603" lon="5.86325">
        <ele>1229</ele>
        <time>2021-06-01T10:51:50.643Z</time>
      </trkpt>
      <trkpt lat="44.13602" lon="5.86323">
        <ele>1229</ele>
        <time>2021-06-01T10:51:51.643Z</time>
      </trkpt>
      <trkpt lat="44.13602" lon="5.86322">
        <ele>1229</ele>
        <time>2021-06-01T10:51:52.643Z</time>
      </trkpt>
      <trkpt lat="44.13601" lon="5.86321">
        <ele>1229</ele>
        <time>2021-06-01T10:51:53.643Z</time>
      </trkpt>
      <trkpt lat="44.13601" lon="5.86319">
        <ele>1229</ele>
        <time>2021-06-01T10:51:54.643Z</time>
      </trkpt>
      <trkpt lat="44.13601" lon="5.86318">
        <ele>1229</ele>
        <time>2021-06-01T10:51:55.643Z</time>
      </trkpt>
      <trkpt lat="44.136" lon="5.86317">
        <ele>1229</ele>
        <time>2021-06-01T10:51:56.643Z</time>
      </trkpt>
      <trkpt lat="44.136" lon="5.86316">
        <ele>1229</ele>
        <time>2021-06-01T10:51:57.643Z</time>
      </trkpt>
      <trkpt lat="44.136" lon="5.86315">
        <ele>1229</ele>
        <time>2021-06-01T10:51:58.643Z</time>
      </trkpt>
      <trkpt lat="44.13599" lon="5.86314">
        <ele>1229</ele>
        <time>2021-06-01T10:51:59.643Z</time>
      </trkpt>
      <trkpt lat="44.13599" lon="5.86313">
        <ele>1230</ele>
        <time>2021-06-01T10:52:00.643Z</time>
      </trkpt>
      <trkpt lat="44.13598" lon="5.86311">
        <ele>1230</ele>
        <time>2021-06-01T10:52:01.643Z</time>
      </trkpt>
      <trkpt lat="44.13598" lon="5.8631">
        <ele>1230</ele>
        <time>2021-06-01T10:52:02.643Z</time>
      </trkpt>
      <trkpt lat="44.13598" lon="5.86309">
        <ele>1230</ele>
        <time>2021-06-01T10:52:03.643Z</time>
      </trkpt>
      <trkpt lat="44.13597" lon="5.86308">
        <ele>1230</ele>
        <time>2021-06-01T10:52:04.643Z</time>
      </trkpt>
      <trkpt lat="44.13597" lon="5.86307">
        <ele>1230</ele>
        <time>2021-06-01T10:52:05.643Z</time>
      </trkpt>
      <trkpt lat="44.13597" lon="5.86306">
        <ele>1230</ele>
        <time>2021-06-01T10:52:06.643Z</time>
      </trkpt>
      <trkpt lat="44.13596" lon="5.86304">
        <ele>1230</ele>
        <time>2021-06-01T10:52:07.643Z</time>
      </trkpt>
      <trkpt lat="44.13595" lon="5.86303">
        <ele>1230</ele>
        <time>2021-06-01T10:52:08.643Z</time>
      </trkpt>
      <trkpt lat="44.13595" lon="5.86302">
        <ele>1230</ele>
        <time>2021-06-01T10:52:09.643Z</time>
      </trkpt>
      <trkpt lat="44.13595" lon="5.86301">
        <ele>1230</ele>
        <time>2021-06-01T10:52:10.643Z</time>
      </trkpt>
      <trkpt lat="44.13595" lon="5.86299">
        <ele>1230</ele>
        <time>2021-06-01T10:52:11.643Z</time>
      </trkpt>
      <trkpt lat="44.13594" lon="5.86298">
        <ele>1230</ele>
        <time>2021-06-01T10:52:12.643Z</time>
      </trkpt>
      <trkpt lat="44.13594" lon="5.86297">
        <ele>1230</ele>
        <time>2021-06-01T10:52:13.643Z</time>
      </trkpt>
      <trkpt lat="44.13594" lon="5.86296">
        <ele>1230</ele>
        <time>2021-06-01T10:52:14.643Z</time>
      </trkpt>
      <trkpt lat="44.13593" lon="5.86295">
        <ele>1230</ele>
        <time>2021-06-01T10:52:15.643Z</time>
      </trkpt>
      <trkpt lat="44.13593" lon="5.86294">
        <ele>1231</ele>
        <time>2021-06-01T10:52:16.643Z</time>
      </trkpt>
      <trkpt lat="44.13593" lon="5.86293">
        <ele>1231</ele>
        <time>2021-06-01T10:52:17.643Z</time>
      </trkpt>
      <trkpt lat="44.13592" lon="5.86291">
        <ele>1231</ele>
        <time>2021-06-01T10:52:18.643Z</time>
      </trkpt>
      <trkpt lat="44.13592" lon="5.8629">
        <ele>1231</ele>
        <time>2021-06-01T10:52:19.643Z</time>
      </trkpt>
      <trkpt lat="44.13592" lon="5.86288">
        <ele>1231</ele>
        <time>2021-06-01T10:52:20.643Z</time>
      </trkpt>
      <trkpt lat="44.13591" lon="5.86287">
        <ele>1231</ele>
        <time>2021-06-01T10:52:21.643Z</time>
      </trkpt>
      <trkpt lat="44.13591" lon="5.86286">
        <ele>1231</ele>
        <time>2021-06-01T10:52:22.643Z</time>
      </trkpt>
      <trkpt lat="44.1359" lon="5.86285">
        <ele>1231</ele>
        <time>2021-06-01T10:52:23.643Z</time>
      </trkpt>
      <trkpt lat="44.1359" lon="5.86284">
        <ele>1231</ele>
        <time>2021-06-01T10:52:24.643Z</time>
      </trkpt>
      <trkpt lat="44.13589" lon="5.86282">
        <ele>1231</ele>
        <time>2021-06-01T10:52:25.643Z</time>
      </trkpt>
      <trkpt lat="44.13589" lon="5.86281">
        <ele>1231</ele>
        <time>2021-06-01T10:52:26.643Z</time>
      </trkpt>
      <trkpt lat="44.13588" lon="5.8628">
        <ele>1231</ele>
        <time>2021-06-01T10:52:27.643Z</time>
      </trkpt>
      <trkpt lat="44.13588" lon="5.86279">
        <ele>1231</ele>
        <time>2021-06-01T10:52:28.643Z</time>
      </trkpt>
      <trkpt lat="44.13587" lon="5.86278">
        <ele>1231</ele>
        <time>2021-06-01T10:52:29.643Z</time>
      </trkpt>
      <trkpt lat="44.13586" lon="5.86276">
        <ele>1231</ele>
        <time>2021-06-01T10:52:30.643Z</time>
      </trkpt>
      <trkpt lat="44.13586" lon="5.86275">
        <ele>1232</ele>
        <time>2021-06-01T10:52:31.643Z</time>
      </trkpt>
      <trkpt lat="44.13585" lon="5.86274">
        <ele>1232</ele>
        <time>2021-06-01T10:52:32.643Z</time>
      </trkpt>
      <trkpt lat="44.13585" lon="5.86273">
        <ele>1232</ele>
        <time>2021-06-01T10:52:33.643Z</time>
      </trkpt>
      <trkpt lat="44.13585" lon="5.86272">
        <ele>1232</ele>
        <time>2021-06-01T10:52:34.643Z</time>
      </trkpt>
      <trkpt lat="44.13584" lon="5.86271">
        <ele>1232</ele>
        <time>2021-06-01T10:52:35.643Z</time>
      </trkpt>
      <trkpt lat="44.13584" lon="5.8627">
        <ele>1232</ele>
        <time>2021-06-01T10:52:36.643Z</time>
      </trkpt>
      <trkpt lat="44.13583" lon="5.86269">
        <ele>1232</ele>
        <time>2021-06-01T10:52:37.643Z</time>
      </trkpt>
      <trkpt lat="44.13583" lon="5.86267">
        <ele>1232</ele>
        <time>2021-06-01T10:52:38.643Z</time>
      </trkpt>
      <trkpt lat="44.13582" lon="5.86266">
        <ele>1233</ele>
        <time>2021-06-01T10:52:39.643Z</time>
      </trkpt>
      <trkpt lat="44.13582" lon="5.86265">
        <ele>1233</ele>
        <time>2021-06-01T10:52:40.643Z</time>
      </trkpt>
      <trkpt lat="44.13581" lon="5.86264">
        <ele>1233</ele>
        <time>2021-06-01T10:52:41.643Z</time>
      </trkpt>
      <trkpt lat="44.13581" lon="5.86263">
        <ele>1233</ele>
        <time>2021-06-01T10:52:42.643Z</time>
      </trkpt>
      <trkpt lat="44.1358" lon="5.86262">
        <ele>1233</ele>
        <time>2021-06-01T10:52:43.643Z</time>
      </trkpt>
      <trkpt lat="44.1358" lon="5.86261">
        <ele>1233</ele>
        <time>2021-06-01T10:52:44.643Z</time>
      </trkpt>
      <trkpt lat="44.1358" lon="5.8626">
        <ele>1233</ele>
        <time>2021-06-01T10:52:45.643Z</time>
      </trkpt>
      <trkpt lat="44.1358" lon="5.86259">
        <ele>1233</ele>
        <time>2021-06-01T10:52:46.643Z</time>
      </trkpt>
      <trkpt lat="44.1358" lon="5.86259">
        <ele>1233</ele>
        <time>2021-06-01T10:52:47.643Z</time>
      </trkpt>
      <trkpt lat="44.1358" lon="5.86259">
        <ele>1234</ele>
        <time>2021-06-01T10:52:48.643Z</time>
      </trkpt>
      <trkpt lat="44.1358" lon="5.86259">
        <ele>1234</ele>
        <time>2021-06-01T10:52:49.643Z</time>
      </trkpt>
      <trkpt lat="44.1358" lon="5.86259">
        <ele>1234</ele>
        <time>2021-06-01T10:52:50.643Z</time>
      </trkpt>
      <trkpt lat="44.1358" lon="5.86259">
        <ele>1234</ele>
        <time>2021-06-01T10:52:51.643Z</time>
      </trkpt>
      <trkpt lat="44.1358" lon="5.86259">
        <ele>1234</ele>
        <time>2021-06-01T10:52:52.643Z</time>
      </trkpt>
      <trkpt lat="44.1358" lon="5.8626">
        <ele>1234</ele>
        <time>2021-06-01T10:52:53.643Z</time>
      </trkpt>
      <trkpt lat="44.1358" lon="5.8626">
        <ele>1234</ele>
        <time>2021-06-01T10:52:54.643Z</time>
      </trkpt>
      <trkpt lat="44.1358" lon="5.8626">
        <ele>1234</ele>
        <time>2021-06-01T10:52:55.643Z</time>
      </trkpt>
      <trkpt lat="44.1358" lon="5.86259">
        <ele>1234</ele>
        <time>2021-06-01T10:52:56.643Z</time>
      </trkpt>
      <trkpt lat="44.1358" lon="5.86259">
        <ele>1234</ele>
        <time>2021-06-01T10:52:57.643Z</time>
      </trkpt>
      <trkpt lat="44.1358" lon="5.86259">
        <ele>1234</ele>
        <time>2021-06-01T10:52:58.643Z</time>
      </trkpt>
      <trkpt lat="44.13579" lon="5.86259">
        <ele>1234</ele>
        <time>2021-06-01T10:52:59.643Z</time>
      </trkpt>
      <trkpt lat="44.13579" lon="5.86259">
        <ele>1234</ele>
        <time>2021-06-01T10:53:00.643Z</time>
      </trkpt>
      <trkpt lat="44.13579" lon="5.86259">
        <ele>1234</ele>
        <time>2021-06-01T10:53:01.643Z</time>
      </trkpt>
      <trkpt lat="44.13579" lon="5.86259">
        <ele>1234</ele>
        <time>2021-06-01T10:53:02.643Z</time>
      </trkpt>
      <trkpt lat="44.13579" lon="5.86259">
        <ele>1235</ele>
        <time>2021-06-01T10:53:03.643Z</time>
      </trkpt>
      <trkpt lat="44.13579" lon="5.86259">
        <ele>1235</ele>
        <time>2021-06-01T10:53:04.643Z</time>
      </trkpt>
      <trkpt lat="44.13579" lon="5.86259">
        <ele>1235</ele>
        <time>2021-06-01T10:53:05.643Z</time>
      </trkpt>
      <trkpt lat="44.13579" lon="5.86259">
        <ele>1235</ele>
        <time>2021-06-01T10:53:06.643Z</time>
      </trkpt>
      <trkpt lat="44.13579" lon="5.86259">
        <ele>1235</ele>
        <time>2021-06-01T10:53:07.643Z</time>
      </trkpt>
      <trkpt lat="44.13579" lon="5.86259">
        <ele>1235</ele>
        <time>2021-06-01T10:53:08.643Z</time>
      </trkpt>
      <trkpt lat="44.13579" lon="5.86259">
        <ele>1235</ele>
        <time>2021-06-01T10:53:09.643Z</time>
      </trkpt>
      <trkpt lat="44.13579" lon="5.86259">
        <ele>1235</ele>
        <time>2021-06-01T10:53:10.643Z</time>
      </trkpt>
      <trkpt lat="44.13579" lon="5.86259">
        <ele>1235</ele>
        <time>2021-06-01T10:53:11.643Z</time>
      </trkpt>
      <trkpt lat="44.13579" lon="5.86259">
        <ele>1235</ele>
        <time>2021-06-01T10:53:12.643Z</time>
      </trkpt>
      <trkpt lat="44.13579" lon="5.86259">
        <ele>1235</ele>
        <time>2021-06-01T10:53:13.643Z</time>
      </trkpt>
      <trkpt lat="44.13579" lon="5.86259">
        <ele>1235</ele>
        <time>2021-06-01T10:53:14.643Z</time>
      </trkpt>
      <trkpt lat="44.13579" lon="5.86259">
        <ele>1235</ele>
        <time>2021-06-01T10:53:15.643Z</time>
      </trkpt>
      <trkpt lat="44.13579" lon="5.86259">
        <ele>1235</ele>
        <time>2021-06-01T10:53:16.643Z</time>
      </trkpt>
      <trkpt lat="44.13579" lon="5.86259">
        <ele>1235</ele>
        <time>2021-06-01T10:53:17.643Z</time>
      </trkpt>
      <trkpt lat="44.13579" lon="5.86259">
        <ele>1235</ele>
        <time>2021-06-01T10:53:18.643Z</time>
      </trkpt>
      <trkpt lat="44.13579" lon="5.86259">
        <ele>1235</ele>
        <time>2021-06-01T10:53:19.643Z</time>
      </trkpt>
      <trkpt lat="44.13579" lon="5.86259">
        <ele>1235</ele>
        <time>2021-06-01T10:53:20.643Z</time>
      </trkpt>
      <trkpt lat="44.13579" lon="5.86259">
        <ele>1235</ele>
        <time>2021-06-01T10:53:21.643Z</time>
      </trkpt>
      <trkpt lat="44.13579" lon="5.86259">
        <ele>1235</ele>
        <time>2021-06-01T10:53:22.643Z</time>
      </trkpt>
      <trkpt lat="44.13579" lon="5.86259">
        <ele>1235</ele>
        <time>2021-06-01T10:53:23.643Z</time>
      </trkpt>
      <trkpt lat="44.13579" lon="5.86259">
        <ele>1235</ele>
        <time>2021-06-01T10:53:24.643Z</time>
      </trkpt>
      <trkpt lat="44.13579" lon="5.86258">
        <ele>1235</ele>
        <time>2021-06-01T10:53:25.643Z</time>
      </trkpt>
      <trkpt lat="44.13579" lon="5.86258">
        <ele>1236</ele>
        <time>2021-06-01T10:53:26.643Z</time>
      </trkpt>
      <trkpt lat="44.13579" lon="5.86258">
        <ele>1236</ele>
        <time>2021-06-01T10:53:27.643Z</time>
      </trkpt>
      <trkpt lat="44.13579" lon="5.86258">
        <ele>1236</ele>
        <time>2021-06-01T10:53:28.643Z</time>
      </trkpt>
      <trkpt lat="44.13579" lon="5.86259">
        <ele>1236</ele>
        <time>2021-06-01T10:53:29.643Z</time>
      </trkpt>
      <trkpt lat="44.13579" lon="5.86258">
        <ele>1236</ele>
        <time>2021-06-01T10:53:30.643Z</time>
      </trkpt>
      <trkpt lat="44.13578" lon="5.86257">
        <ele>1236</ele>
        <time>2021-06-01T10:53:31.643Z</time>
      </trkpt>
      <trkpt lat="44.13577" lon="5.86256">
        <ele>1236</ele>
        <time>2021-06-01T10:53:32.643Z</time>
      </trkpt>
      <trkpt lat="44.13577" lon="5.86255">
        <ele>1236</ele>
        <time>2021-06-01T10:53:33.643Z</time>
      </trkpt>
      <trkpt lat="44.13576" lon="5.86253">
        <ele>1236</ele>
        <time>2021-06-01T10:53:34.643Z</time>
      </trkpt>
      <trkpt lat="44.13576" lon="5.86252">
        <ele>1236</ele>
        <time>2021-06-01T10:53:35.643Z</time>
      </trkpt>
      <trkpt lat="44.13575" lon="5.8625">
        <ele>1236</ele>
        <time>2021-06-01T10:53:36.643Z</time>
      </trkpt>
      <trkpt lat="44.13574" lon="5.86249">
        <ele>1236</ele>
        <time>2021-06-01T10:53:37.643Z</time>
      </trkpt>
      <trkpt lat="44.13574" lon="5.86248">
        <ele>1236</ele>
        <time>2021-06-01T10:53:38.643Z</time>
      </trkpt>
      <trkpt lat="44.13573" lon="5.86247">
        <ele>1236</ele>
        <time>2021-06-01T10:53:39.643Z</time>
      </trkpt>
      <trkpt lat="44.13573" lon="5.86246">
        <ele>1236</ele>
        <time>2021-06-01T10:53:40.643Z</time>
      </trkpt>
      <trkpt lat="44.13572" lon="5.86245">
        <ele>1236</ele>
        <time>2021-06-01T10:53:41.643Z</time>
      </trkpt>
      <trkpt lat="44.13571" lon="5.86244">
        <ele>1236</ele>
        <time>2021-06-01T10:53:42.643Z</time>
      </trkpt>
      <trkpt lat="44.13571" lon="5.86243">
        <ele>1236</ele>
        <time>2021-06-01T10:53:43.643Z</time>
      </trkpt>
      <trkpt lat="44.1357" lon="5.86242">
        <ele>1236</ele>
        <time>2021-06-01T10:53:44.643Z</time>
      </trkpt>
      <trkpt lat="44.1357" lon="5.8624">
        <ele>1236</ele>
        <time>2021-06-01T10:53:45.643Z</time>
      </trkpt>
      <trkpt lat="44.13569" lon="5.86239">
        <ele>1236</ele>
        <time>2021-06-01T10:53:46.643Z</time>
      </trkpt>
      <trkpt lat="44.13568" lon="5.86238">
        <ele>1236</ele>
        <time>2021-06-01T10:53:47.643Z</time>
      </trkpt>
      <trkpt lat="44.13568" lon="5.86237">
        <ele>1236</ele>
        <time>2021-06-01T10:53:48.643Z</time>
      </trkpt>
      <trkpt lat="44.13568" lon="5.86235">
        <ele>1236</ele>
        <time>2021-06-01T10:53:49.643Z</time>
      </trkpt>
      <trkpt lat="44.13567" lon="5.86234">
        <ele>1236</ele>
        <time>2021-06-01T10:53:50.643Z</time>
      </trkpt>
      <trkpt lat="44.13567" lon="5.86233">
        <ele>1236</ele>
        <time>2021-06-01T10:53:51.643Z</time>
      </trkpt>
      <trkpt lat="44.13566" lon="5.86232">
        <ele>1236</ele>
        <time>2021-06-01T10:53:52.643Z</time>
      </trkpt>
      <trkpt lat="44.13565" lon="5.86231">
        <ele>1236</ele>
        <time>2021-06-01T10:53:53.643Z</time>
      </trkpt>
      <trkpt lat="44.13565" lon="5.86229">
        <ele>1236</ele>
        <time>2021-06-01T10:53:54.643Z</time>
      </trkpt>
      <trkpt lat="44.13564" lon="5.86228">
        <ele>1237</ele>
        <time>2021-06-01T10:53:55.643Z</time>
      </trkpt>
      <trkpt lat="44.13564" lon="5.86226">
        <ele>1237</ele>
        <time>2021-06-01T10:53:56.643Z</time>
      </trkpt>
      <trkpt lat="44.13564" lon="5.86225">
        <ele>1237</ele>
        <time>2021-06-01T10:53:57.643Z</time>
      </trkpt>
      <trkpt lat="44.13563" lon="5.86223">
        <ele>1237</ele>
        <time>2021-06-01T10:53:58.643Z</time>
      </trkpt>
      <trkpt lat="44.13563" lon="5.86222">
        <ele>1237</ele>
        <time>2021-06-01T10:53:59.643Z</time>
      </trkpt>
      <trkpt lat="44.13562" lon="5.86221">
        <ele>1237</ele>
        <time>2021-06-01T10:54:00.643Z</time>
      </trkpt>
      <trkpt lat="44.13562" lon="5.86219">
        <ele>1237</ele>
        <time>2021-06-01T10:54:01.643Z</time>
      </trkpt>
      <trkpt lat="44.13561" lon="5.86218">
        <ele>1238</ele>
        <time>2021-06-01T10:54:02.643Z</time>
      </trkpt>
      <trkpt lat="44.13561" lon="5.86216">
        <ele>1238</ele>
        <time>2021-06-01T10:54:03.643Z</time>
      </trkpt>
      <trkpt lat="44.1356" lon="5.86215">
        <ele>1238</ele>
        <time>2021-06-01T10:54:04.643Z</time>
      </trkpt>
      <trkpt lat="44.1356" lon="5.86214">
        <ele>1238</ele>
        <time>2021-06-01T10:54:05.643Z</time>
      </trkpt>
      <trkpt lat="44.13559" lon="5.86213">
        <ele>1238</ele>
        <time>2021-06-01T10:54:06.643Z</time>
      </trkpt>
      <trkpt lat="44.13559" lon="5.86211">
        <ele>1238</ele>
        <time>2021-06-01T10:54:07.643Z</time>
      </trkpt>
      <trkpt lat="44.13558" lon="5.8621">
        <ele>1238</ele>
        <time>2021-06-01T10:54:08.643Z</time>
      </trkpt>
      <trkpt lat="44.13558" lon="5.86209">
        <ele>1238</ele>
        <time>2021-06-01T10:54:09.643Z</time>
      </trkpt>
      <trkpt lat="44.13557" lon="5.86207">
        <ele>1239</ele>
        <time>2021-06-01T10:54:10.643Z</time>
      </trkpt>
      <trkpt lat="44.13557" lon="5.86206">
        <ele>1239</ele>
        <time>2021-06-01T10:54:11.643Z</time>
      </trkpt>
      <trkpt lat="44.13556" lon="5.86205">
        <ele>1239</ele>
        <time>2021-06-01T10:54:12.643Z</time>
      </trkpt>
      <trkpt lat="44.13556" lon="5.86203">
        <ele>1239</ele>
        <time>2021-06-01T10:54:13.643Z</time>
      </trkpt>
      <trkpt lat="44.13556" lon="5.86202">
        <ele>1239</ele>
        <time>2021-06-01T10:54:14.643Z</time>
      </trkpt>
      <trkpt lat="44.13555" lon="5.862">
        <ele>1239</ele>
        <time>2021-06-01T10:54:15.643Z</time>
      </trkpt>
      <trkpt lat="44.13555" lon="5.86199">
        <ele>1239</ele>
        <time>2021-06-01T10:54:16.643Z</time>
      </trkpt>
      <trkpt lat="44.13554" lon="5.86198">
        <ele>1239</ele>
        <time>2021-06-01T10:54:17.643Z</time>
      </trkpt>
      <trkpt lat="44.13554" lon="5.86196">
        <ele>1239</ele>
        <time>2021-06-01T10:54:18.643Z</time>
      </trkpt>
      <trkpt lat="44.13554" lon="5.86195">
        <ele>1239</ele>
        <time>2021-06-01T10:54:19.643Z</time>
      </trkpt>
      <trkpt lat="44.13553" lon="5.86193">
        <ele>1239</ele>
        <time>2021-06-01T10:54:20.643Z</time>
      </trkpt>
      <trkpt lat="44.13553" lon="5.86192">
        <ele>1240</ele>
        <time>2021-06-01T10:54:21.643Z</time>
      </trkpt>
      <trkpt lat="44.13553" lon="5.8619">
        <ele>1240</ele>
        <time>2021-06-01T10:54:22.643Z</time>
      </trkpt>
      <trkpt lat="44.13552" lon="5.86189">
        <ele>1240</ele>
        <time>2021-06-01T10:54:23.643Z</time>
      </trkpt>
      <trkpt lat="44.13552" lon="5.86187">
        <ele>1240</ele>
        <time>2021-06-01T10:54:24.643Z</time>
      </trkpt>
      <trkpt lat="44.13552" lon="5.86186">
        <ele>1240</ele>
        <time>2021-06-01T10:54:25.643Z</time>
      </trkpt>
      <trkpt lat="44.13551" lon="5.86185">
        <ele>1240</ele>
        <time>2021-06-01T10:54:26.643Z</time>
      </trkpt>
      <trkpt lat="44.13551" lon="5.86184">
        <ele>1240</ele>
        <time>2021-06-01T10:54:27.643Z</time>
      </trkpt>
      <trkpt lat="44.1355" lon="5.86183">
        <ele>1240</ele>
        <time>2021-06-01T10:54:28.643Z</time>
      </trkpt>
      <trkpt lat="44.1355" lon="5.86181">
        <ele>1241</ele>
        <time>2021-06-01T10:54:29.643Z</time>
      </trkpt>
      <trkpt lat="44.1355" lon="5.8618">
        <ele>1241</ele>
        <time>2021-06-01T10:54:30.643Z</time>
      </trkpt>
      <trkpt lat="44.13549" lon="5.86179">
        <ele>1241</ele>
        <time>2021-06-01T10:54:31.643Z</time>
      </trkpt>
      <trkpt lat="44.13549" lon="5.86177">
        <ele>1241</ele>
        <time>2021-06-01T10:54:32.643Z</time>
      </trkpt>
      <trkpt lat="44.13549" lon="5.86176">
        <ele>1241</ele>
        <time>2021-06-01T10:54:33.643Z</time>
      </trkpt>
      <trkpt lat="44.13548" lon="5.86175">
        <ele>1241</ele>
        <time>2021-06-01T10:54:34.643Z</time>
      </trkpt>
      <trkpt lat="44.13548" lon="5.86174">
        <ele>1241</ele>
        <time>2021-06-01T10:54:35.643Z</time>
      </trkpt>
      <trkpt lat="44.13548" lon="5.86172">
        <ele>1241</ele>
        <time>2021-06-01T10:54:36.643Z</time>
      </trkpt>
      <trkpt lat="44.13547" lon="5.86171">
        <ele>1242</ele>
        <time>2021-06-01T10:54:37.643Z</time>
      </trkpt>
      <trkpt lat="44.13547" lon="5.86169">
        <ele>1242</ele>
        <time>2021-06-01T10:54:38.643Z</time>
      </trkpt>
      <trkpt lat="44.13547" lon="5.86168">
        <ele>1242</ele>
        <time>2021-06-01T10:54:39.643Z</time>
      </trkpt>
      <trkpt lat="44.13546" lon="5.86167">
        <ele>1242</ele>
        <time>2021-06-01T10:54:40.643Z</time>
      </trkpt>
      <trkpt lat="44.13546" lon="5.86165">
        <ele>1242</ele>
        <time>2021-06-01T10:54:41.643Z</time>
      </trkpt>
      <trkpt lat="44.13546" lon="5.86164">
        <ele>1242</ele>
        <time>2021-06-01T10:54:42.643Z</time>
      </trkpt>
      <trkpt lat="44.13546" lon="5.86162">
        <ele>1242</ele>
        <time>2021-06-01T10:54:43.643Z</time>
      </trkpt>
      <trkpt lat="44.13545" lon="5.86161">
        <ele>1242</ele>
        <time>2021-06-01T10:54:44.643Z</time>
      </trkpt>
      <trkpt lat="44.13545" lon="5.8616">
        <ele>1242</ele>
        <time>2021-06-01T10:54:45.643Z</time>
      </trkpt>
      <trkpt lat="44.13545" lon="5.86158">
        <ele>1243</ele>
        <time>2021-06-01T10:54:46.643Z</time>
      </trkpt>
      <trkpt lat="44.13545" lon="5.86157">
        <ele>1243</ele>
        <time>2021-06-01T10:54:47.643Z</time>
      </trkpt>
      <trkpt lat="44.13545" lon="5.86155">
        <ele>1243</ele>
        <time>2021-06-01T10:54:48.643Z</time>
      </trkpt>
      <trkpt lat="44.13545" lon="5.86154">
        <ele>1243</ele>
        <time>2021-06-01T10:54:49.643Z</time>
      </trkpt>
      <trkpt lat="44.13544" lon="5.86153">
        <ele>1243</ele>
        <time>2021-06-01T10:54:50.643Z</time>
      </trkpt>
      <trkpt lat="44.13544" lon="5.86151">
        <ele>1243</ele>
        <time>2021-06-01T10:54:51.643Z</time>
      </trkpt>
      <trkpt lat="44.13544" lon="5.8615">
        <ele>1243</ele>
        <time>2021-06-01T10:54:52.643Z</time>
      </trkpt>
      <trkpt lat="44.13544" lon="5.86149">
        <ele>1243</ele>
        <time>2021-06-01T10:54:53.643Z</time>
      </trkpt>
      <trkpt lat="44.13544" lon="5.86148">
        <ele>1244</ele>
        <time>2021-06-01T10:54:54.643Z</time>
      </trkpt>
      <trkpt lat="44.13544" lon="5.86146">
        <ele>1244</ele>
        <time>2021-06-01T10:54:55.643Z</time>
      </trkpt>
      <trkpt lat="44.13544" lon="5.86145">
        <ele>1244</ele>
        <time>2021-06-01T10:54:56.643Z</time>
      </trkpt>
      <trkpt lat="44.13543" lon="5.86144">
        <ele>1244</ele>
        <time>2021-06-01T10:54:57.643Z</time>
      </trkpt>
      <trkpt lat="44.13543" lon="5.86142">
        <ele>1244</ele>
        <time>2021-06-01T10:54:58.643Z</time>
      </trkpt>
      <trkpt lat="44.13543" lon="5.86141">
        <ele>1244</ele>
        <time>2021-06-01T10:54:59.643Z</time>
      </trkpt>
      <trkpt lat="44.13543" lon="5.8614">
        <ele>1244</ele>
        <time>2021-06-01T10:55:00.643Z</time>
      </trkpt>
      <trkpt lat="44.13542" lon="5.86138">
        <ele>1244</ele>
        <time>2021-06-01T10:55:01.643Z</time>
      </trkpt>
      <trkpt lat="44.13542" lon="5.86137">
        <ele>1244</ele>
        <time>2021-06-01T10:55:02.643Z</time>
      </trkpt>
      <trkpt lat="44.13542" lon="5.86136">
        <ele>1244</ele>
        <time>2021-06-01T10:55:03.643Z</time>
      </trkpt>
      <trkpt lat="44.13542" lon="5.86134">
        <ele>1244</ele>
        <time>2021-06-01T10:55:04.643Z</time>
      </trkpt>
      <trkpt lat="44.13542" lon="5.86132">
        <ele>1244</ele>
        <time>2021-06-01T10:55:05.643Z</time>
      </trkpt>
      <trkpt lat="44.13541" lon="5.86131">
        <ele>1245</ele>
        <time>2021-06-01T10:55:06.643Z</time>
      </trkpt>
      <trkpt lat="44.13541" lon="5.8613">
        <ele>1245</ele>
        <time>2021-06-01T10:55:07.643Z</time>
      </trkpt>
      <trkpt lat="44.13541" lon="5.86128">
        <ele>1245</ele>
        <time>2021-06-01T10:55:08.643Z</time>
      </trkpt>
      <trkpt lat="44.13541" lon="5.86127">
        <ele>1245</ele>
        <time>2021-06-01T10:55:09.643Z</time>
      </trkpt>
      <trkpt lat="44.13541" lon="5.86126">
        <ele>1245</ele>
        <time>2021-06-01T10:55:10.643Z</time>
      </trkpt>
      <trkpt lat="44.13541" lon="5.86124">
        <ele>1245</ele>
        <time>2021-06-01T10:55:11.643Z</time>
      </trkpt>
      <trkpt lat="44.13541" lon="5.86123">
        <ele>1245</ele>
        <time>2021-06-01T10:55:12.643Z</time>
      </trkpt>
      <trkpt lat="44.13541" lon="5.86121">
        <ele>1245</ele>
        <time>2021-06-01T10:55:13.643Z</time>
      </trkpt>
      <trkpt lat="44.13541" lon="5.8612">
        <ele>1245</ele>
        <time>2021-06-01T10:55:14.643Z</time>
      </trkpt>
      <trkpt lat="44.13541" lon="5.86118">
        <ele>1246</ele>
        <time>2021-06-01T10:55:15.643Z</time>
      </trkpt>
      <trkpt lat="44.13541" lon="5.86117">
        <ele>1246</ele>
        <time>2021-06-01T10:55:16.643Z</time>
      </trkpt>
      <trkpt lat="44.13541" lon="5.86116">
        <ele>1246</ele>
        <time>2021-06-01T10:55:17.643Z</time>
      </trkpt>
      <trkpt lat="44.13541" lon="5.86115">
        <ele>1246</ele>
        <time>2021-06-01T10:55:18.643Z</time>
      </trkpt>
      <trkpt lat="44.13541" lon="5.86113">
        <ele>1246</ele>
        <time>2021-06-01T10:55:19.643Z</time>
      </trkpt>
      <trkpt lat="44.13541" lon="5.86112">
        <ele>1246</ele>
        <time>2021-06-01T10:55:20.643Z</time>
      </trkpt>
      <trkpt lat="44.1354" lon="5.86111">
        <ele>1246</ele>
        <time>2021-06-01T10:55:21.643Z</time>
      </trkpt>
      <trkpt lat="44.1354" lon="5.86109">
        <ele>1246</ele>
        <time>2021-06-01T10:55:22.643Z</time>
      </trkpt>
      <trkpt lat="44.1354" lon="5.86108">
        <ele>1246</ele>
        <time>2021-06-01T10:55:23.643Z</time>
      </trkpt>
      <trkpt lat="44.1354" lon="5.86106">
        <ele>1246</ele>
        <time>2021-06-01T10:55:24.643Z</time>
      </trkpt>
      <trkpt lat="44.1354" lon="5.86105">
        <ele>1246</ele>
        <time>2021-06-01T10:55:25.643Z</time>
      </trkpt>
      <trkpt lat="44.1354" lon="5.86104">
        <ele>1246</ele>
        <time>2021-06-01T10:55:26.643Z</time>
      </trkpt>
      <trkpt lat="44.1354" lon="5.86102">
        <ele>1246</ele>
        <time>2021-06-01T10:55:27.643Z</time>
      </trkpt>
      <trkpt lat="44.1354" lon="5.86101">
        <ele>1246</ele>
        <time>2021-06-01T10:55:28.643Z</time>
      </trkpt>
      <trkpt lat="44.1354" lon="5.861">
        <ele>1246</ele>
        <time>2021-06-01T10:55:29.643Z</time>
      </trkpt>
      <trkpt lat="44.1354" lon="5.86098">
        <ele>1247</ele>
        <time>2021-06-01T10:55:30.643Z</time>
      </trkpt>
      <trkpt lat="44.1354" lon="5.86096">
        <ele>1247</ele>
        <time>2021-06-01T10:55:31.643Z</time>
      </trkpt>
      <trkpt lat="44.1354" lon="5.86095">
        <ele>1247</ele>
        <time>2021-06-01T10:55:32.643Z</time>
      </trkpt>
      <trkpt lat="44.13539" lon="5.86094">
        <ele>1247</ele>
        <time>2021-06-01T10:55:33.643Z</time>
      </trkpt>
      <trkpt lat="44.13539" lon="5.86092">
        <ele>1247</ele>
        <time>2021-06-01T10:55:34.643Z</time>
      </trkpt>
      <trkpt lat="44.13538" lon="5.86091">
        <ele>1247</ele>
        <time>2021-06-01T10:55:35.643Z</time>
      </trkpt>
      <trkpt lat="44.13538" lon="5.8609">
        <ele>1248</ele>
        <time>2021-06-01T10:55:36.643Z</time>
      </trkpt>
      <trkpt lat="44.13538" lon="5.86088">
        <ele>1248</ele>
        <time>2021-06-01T10:55:37.643Z</time>
      </trkpt>
      <trkpt lat="44.13538" lon="5.86087">
        <ele>1248</ele>
        <time>2021-06-01T10:55:38.643Z</time>
      </trkpt>
      <trkpt lat="44.13538" lon="5.86086">
        <ele>1248</ele>
        <time>2021-06-01T10:55:39.643Z</time>
      </trkpt>
      <trkpt lat="44.13537" lon="5.86085">
        <ele>1248</ele>
        <time>2021-06-01T10:55:40.643Z</time>
      </trkpt>
      <trkpt lat="44.13537" lon="5.86083">
        <ele>1248</ele>
        <time>2021-06-01T10:55:41.643Z</time>
      </trkpt>
      <trkpt lat="44.13537" lon="5.86082">
        <ele>1248</ele>
        <time>2021-06-01T10:55:42.643Z</time>
      </trkpt>
      <trkpt lat="44.13536" lon="5.8608">
        <ele>1248</ele>
        <time>2021-06-01T10:55:43.643Z</time>
      </trkpt>
      <trkpt lat="44.13536" lon="5.86079">
        <ele>1248</ele>
        <time>2021-06-01T10:55:44.643Z</time>
      </trkpt>
      <trkpt lat="44.13536" lon="5.86077">
        <ele>1248</ele>
        <time>2021-06-01T10:55:45.643Z</time>
      </trkpt>
      <trkpt lat="44.13536" lon="5.86076">
        <ele>1249</ele>
        <time>2021-06-01T10:55:46.643Z</time>
      </trkpt>
      <trkpt lat="44.13535" lon="5.86074">
        <ele>1249</ele>
        <time>2021-06-01T10:55:47.643Z</time>
      </trkpt>
      <trkpt lat="44.13535" lon="5.86073">
        <ele>1249</ele>
        <time>2021-06-01T10:55:48.643Z</time>
      </trkpt>
      <trkpt lat="44.13534" lon="5.86072">
        <ele>1249</ele>
        <time>2021-06-01T10:55:49.643Z</time>
      </trkpt>
      <trkpt lat="44.13534" lon="5.86071">
        <ele>1249</ele>
        <time>2021-06-01T10:55:50.643Z</time>
      </trkpt>
      <trkpt lat="44.13533" lon="5.8607">
        <ele>1249</ele>
        <time>2021-06-01T10:55:51.643Z</time>
      </trkpt>
      <trkpt lat="44.13533" lon="5.86068">
        <ele>1249</ele>
        <time>2021-06-01T10:55:52.643Z</time>
      </trkpt>
      <trkpt lat="44.13532" lon="5.86067">
        <ele>1249</ele>
        <time>2021-06-01T10:55:53.643Z</time>
      </trkpt>
      <trkpt lat="44.13532" lon="5.86066">
        <ele>1250</ele>
        <time>2021-06-01T10:55:54.643Z</time>
      </trkpt>
      <trkpt lat="44.13531" lon="5.86065">
        <ele>1250</ele>
        <time>2021-06-01T10:55:55.643Z</time>
      </trkpt>
      <trkpt lat="44.13531" lon="5.86064">
        <ele>1250</ele>
        <time>2021-06-01T10:55:56.643Z</time>
      </trkpt>
      <trkpt lat="44.1353" lon="5.86063">
        <ele>1250</ele>
        <time>2021-06-01T10:55:57.643Z</time>
      </trkpt>
      <trkpt lat="44.1353" lon="5.86062">
        <ele>1250</ele>
        <time>2021-06-01T10:55:58.643Z</time>
      </trkpt>
      <trkpt lat="44.1353" lon="5.8606">
        <ele>1250</ele>
        <time>2021-06-01T10:55:59.643Z</time>
      </trkpt>
      <trkpt lat="44.13529" lon="5.86059">
        <ele>1250</ele>
        <time>2021-06-01T10:56:00.643Z</time>
      </trkpt>
      <trkpt lat="44.13529" lon="5.86058">
        <ele>1251</ele>
        <time>2021-06-01T10:56:01.643Z</time>
      </trkpt>
      <trkpt lat="44.13529" lon="5.86057">
        <ele>1251</ele>
        <time>2021-06-01T10:56:02.643Z</time>
      </trkpt>
      <trkpt lat="44.13529" lon="5.86056">
        <ele>1251</ele>
        <time>2021-06-01T10:56:03.643Z</time>
      </trkpt>
      <trkpt lat="44.1353" lon="5.86055">
        <ele>1251</ele>
        <time>2021-06-01T10:56:04.643Z</time>
      </trkpt>
      <trkpt lat="44.1353" lon="5.86054">
        <ele>1251</ele>
        <time>2021-06-01T10:56:05.643Z</time>
      </trkpt>
      <trkpt lat="44.13531" lon="5.86054">
        <ele>1251</ele>
        <time>2021-06-01T10:56:06.643Z</time>
      </trkpt>
      <trkpt lat="44.13531" lon="5.86054">
        <ele>1251</ele>
        <time>2021-06-01T10:56:07.643Z</time>
      </trkpt>
      <trkpt lat="44.13531" lon="5.86054">
        <ele>1251</ele>
        <time>2021-06-01T10:56:08.643Z</time>
      </trkpt>
      <trkpt lat="44.13531" lon="5.86054">
        <ele>1251</ele>
        <time>2021-06-01T10:56:09.643Z</time>
      </trkpt>
      <trkpt lat="44.13531" lon="5.86054">
        <ele>1251</ele>
        <time>2021-06-01T10:56:10.643Z</time>
      </trkpt>
      <trkpt lat="44.13531" lon="5.86054">
        <ele>1251</ele>
        <time>2021-06-01T10:56:11.643Z</time>
      </trkpt>
      <trkpt lat="44.13531" lon="5.86054">
        <ele>1251</ele>
        <time>2021-06-01T10:56:12.643Z</time>
      </trkpt>
      <trkpt lat="44.13531" lon="5.86054">
        <ele>1251</ele>
        <time>2021-06-01T10:56:13.643Z</time>
      </trkpt>
      <trkpt lat="44.13531" lon="5.86054">
        <ele>1251</ele>
        <time>2021-06-01T10:56:14.643Z</time>
      </trkpt>
      <trkpt lat="44.13531" lon="5.86054">
        <ele>1251</ele>
        <time>2021-06-01T10:56:15.643Z</time>
      </trkpt>
      <trkpt lat="44.13531" lon="5.86054">
        <ele>1251</ele>
        <time>2021-06-01T10:56:16.643Z</time>
      </trkpt>
      <trkpt lat="44.1353" lon="5.86054">
        <ele>1251</ele>
        <time>2021-06-01T10:56:17.643Z</time>
      </trkpt>
      <trkpt lat="44.13531" lon="5.86054">
        <ele>1251</ele>
        <time>2021-06-01T10:56:18.643Z</time>
      </trkpt>
      <trkpt lat="44.13531" lon="5.86053">
        <ele>1251</ele>
        <time>2021-06-01T10:56:19.643Z</time>
      </trkpt>
      <trkpt lat="44.13531" lon="5.86053">
        <ele>1251</ele>
        <time>2021-06-01T10:56:20.643Z</time>
      </trkpt>
      <trkpt lat="44.13531" lon="5.86053">
        <ele>1251</ele>
        <time>2021-06-01T10:56:21.643Z</time>
      </trkpt>
      <trkpt lat="44.13531" lon="5.86053">
        <ele>1251</ele>
        <time>2021-06-01T10:56:22.643Z</time>
      </trkpt>
      <trkpt lat="44.13531" lon="5.86053">
        <ele>1251</ele>
        <time>2021-06-01T10:56:23.643Z</time>
      </trkpt>
      <trkpt lat="44.13531" lon="5.86053">
        <ele>1251</ele>
        <time>2021-06-01T10:56:24.643Z</time>
      </trkpt>
      <trkpt lat="44.13531" lon="5.86053">
        <ele>1251</ele>
        <time>2021-06-01T10:56:25.643Z</time>
      </trkpt>
      <trkpt lat="44.13531" lon="5.86053">
        <ele>1251</ele>
        <time>2021-06-01T10:56:26.643Z</time>
      </trkpt>
      <trkpt lat="44.13531" lon="5.86053">
        <ele>1251</ele>
        <time>2021-06-01T10:56:27.643Z</time>
      </trkpt>
      <trkpt lat="44.13531" lon="5.86053">
        <ele>1251</ele>
        <time>2021-06-01T10:56:28.643Z</time>
      </trkpt>
      <trkpt lat="44.13531" lon="5.86053">
        <ele>1251</ele>
        <time>2021-06-01T10:56:29.643Z</time>
      </trkpt>
      <trkpt lat="44.13531" lon="5.86053">
        <ele>1251</ele>
        <time>2021-06-01T10:56:30.643Z</time>
      </trkpt>
      <trkpt lat="44.13531" lon="5.86053">
        <ele>1251</ele>
        <time>2021-06-01T10:56:31.643Z</time>
      </trkpt>
      <trkpt lat="44.13531" lon="5.86053">
        <ele>1251</ele>
        <time>2021-06-01T10:56:32.643Z</time>
      </trkpt>
      <trkpt lat="44.13531" lon="5.86053">
        <ele>1251</ele>
        <time>2021-06-01T10:56:33.643Z</time>
      </trkpt>
      <trkpt lat="44.13531" lon="5.86053">
        <ele>1251</ele>
        <time>2021-06-01T10:56:34.643Z</time>
      </trkpt>
      <trkpt lat="44.13531" lon="5.86053">
        <ele>1251</ele>
        <time>2021-06-01T10:56:35.643Z</time>
      </trkpt>
      <trkpt lat="44.13531" lon="5.86053">
        <ele>1251</ele>
        <time>2021-06-01T10:56:36.643Z</time>
      </trkpt>
      <trkpt lat="44.13531" lon="5.86053">
        <ele>1251</ele>
        <time>2021-06-01T10:56:37.643Z</time>
      </trkpt>
      <trkpt lat="44.13531" lon="5.86053">
        <ele>1251</ele>
        <time>2021-06-01T10:56:38.643Z</time>
      </trkpt>
      <trkpt lat="44.13531" lon="5.86053">
        <ele>1251</ele>
        <time>2021-06-01T10:56:39.643Z</time>
      </trkpt>
      <trkpt lat="44.13531" lon="5.86053">
        <ele>1251</ele>
        <time>2021-06-01T10:56:40.643Z</time>
      </trkpt>
      <trkpt lat="44.13531" lon="5.86053">
        <ele>1251</ele>
        <time>2021-06-01T10:56:41.643Z</time>
      </trkpt>
      <trkpt lat="44.13531" lon="5.86053">
        <ele>1251</ele>
        <time>2021-06-01T10:56:42.643Z</time>
      </trkpt>
      <trkpt lat="44.13531" lon="5.86053">
        <ele>1251</ele>
        <time>2021-06-01T10:56:43.643Z</time>
      </trkpt>
      <trkpt lat="44.13531" lon="5.86053">
        <ele>1251</ele>
        <time>2021-06-01T10:56:44.643Z</time>
      </trkpt>
      <trkpt lat="44.13531" lon="5.86053">
        <ele>1251</ele>
        <time>2021-06-01T10:56:45.643Z</time>
      </trkpt>
      <trkpt lat="44.13531" lon="5.86053">
        <ele>1251</ele>
        <time>2021-06-01T10:56:46.643Z</time>
      </trkpt>
      <trkpt lat="44.13531" lon="5.86053">
        <ele>1251</ele>
        <time>2021-06-01T10:56:47.643Z</time>
      </trkpt>
      <trkpt lat="44.13531" lon="5.86053">
        <ele>1251</ele>
        <time>2021-06-01T10:56:48.643Z</time>
      </trkpt>
      <trkpt lat="44.13531" lon="5.86053">
        <ele>1251</ele>
        <time>2021-06-01T10:56:49.643Z</time>
      </trkpt>
      <trkpt lat="44.13532" lon="5.86053">
        <ele>1251</ele>
        <time>2021-06-01T10:56:50.643Z</time>
      </trkpt>
      <trkpt lat="44.13532" lon="5.86053">
        <ele>1251</ele>
        <time>2021-06-01T10:56:51.643Z</time>
      </trkpt>
      <trkpt lat="44.13532" lon="5.86053">
        <ele>1251</ele>
        <time>2021-06-01T10:56:52.643Z</time>
      </trkpt>
      <trkpt lat="44.13532" lon="5.86053">
        <ele>1251</ele>
        <time>2021-06-01T10:56:53.643Z</time>
      </trkpt>
      <trkpt lat="44.13532" lon="5.86053">
        <ele>1251</ele>
        <time>2021-06-01T10:56:54.643Z</time>
      </trkpt>
      <trkpt lat="44.13532" lon="5.86053">
        <ele>1251</ele>
        <time>2021-06-01T10:56:55.643Z</time>
      </trkpt>
      <trkpt lat="44.13532" lon="5.86053">
        <ele>1251</ele>
        <time>2021-06-01T10:56:56.643Z</time>
      </trkpt>
      <trkpt lat="44.13532" lon="5.86053">
        <ele>1251</ele>
        <time>2021-06-01T10:56:57.643Z</time>
      </trkpt>
      <trkpt lat="44.13532" lon="5.86053">
        <ele>1251</ele>
        <time>2021-06-01T10:56:58.643Z</time>
      </trkpt>
      <trkpt lat="44.13532" lon="5.86053">
        <ele>1251</ele>
        <time>2021-06-01T10:56:59.643Z</time>
      </trkpt>
      <trkpt lat="44.13531" lon="5.86053">
        <ele>1251</ele>
        <time>2021-06-01T10:57:00.643Z</time>
      </trkpt>
      <trkpt lat="44.13532" lon="5.86053">
        <ele>1251</ele>
        <time>2021-06-01T10:57:01.643Z</time>
      </trkpt>
      <trkpt lat="44.13532" lon="5.86053">
        <ele>1251</ele>
        <time>2021-06-01T10:57:02.643Z</time>
      </trkpt>
      <trkpt lat="44.13532" lon="5.86053">
        <ele>1251</ele>
        <time>2021-06-01T10:57:03.643Z</time>
      </trkpt>
      <trkpt lat="44.13532" lon="5.86053">
        <ele>1251</ele>
        <time>2021-06-01T10:57:04.643Z</time>
      </trkpt>
      <trkpt lat="44.13532" lon="5.86053">
        <ele>1251</ele>
        <time>2021-06-01T10:57:05.643Z</time>
      </trkpt>
      <trkpt lat="44.13532" lon="5.86053">
        <ele>1251</ele>
        <time>2021-06-01T10:57:06.643Z</time>
      </trkpt>
      <trkpt lat="44.13532" lon="5.86053">
        <ele>1251</ele>
        <time>2021-06-01T10:57:07.643Z</time>
      </trkpt>
      <trkpt lat="44.13532" lon="5.86053">
        <ele>1251</ele>
        <time>2021-06-01T10:57:08.643Z</time>
      </trkpt>
      <trkpt lat="44.13532" lon="5.86053">
        <ele>1251</ele>
        <time>2021-06-01T10:57:09.643Z</time>
      </trkpt>
      <trkpt lat="44.13532" lon="5.86053">
        <ele>1251</ele>
        <time>2021-06-01T10:57:10.643Z</time>
      </trkpt>
      <trkpt lat="44.13532" lon="5.86053">
        <ele>1251</ele>
        <time>2021-06-01T10:57:11.643Z</time>
      </trkpt>
      <trkpt lat="44.13532" lon="5.86053">
        <ele>1251</ele>
        <time>2021-06-01T10:57:12.643Z</time>
      </trkpt>
      <trkpt lat="44.13532" lon="5.86053">
        <ele>1251</ele>
        <time>2021-06-01T10:57:13.643Z</time>
      </trkpt>
      <trkpt lat="44.13532" lon="5.86053">
        <ele>1251</ele>
        <time>2021-06-01T10:57:14.643Z</time>
      </trkpt>
      <trkpt lat="44.13532" lon="5.86052">
        <ele>1251</ele>
        <time>2021-06-01T10:57:15.643Z</time>
      </trkpt>
      <trkpt lat="44.13532" lon="5.86052">
        <ele>1251</ele>
        <time>2021-06-01T10:57:16.643Z</time>
      </trkpt>
      <trkpt lat="44.13532" lon="5.86053">
        <ele>1251</ele>
        <time>2021-06-01T10:57:17.643Z</time>
      </trkpt>
      <trkpt lat="44.13532" lon="5.86052">
        <ele>1251</ele>
        <time>2021-06-01T10:57:18.643Z</time>
      </trkpt>
      <trkpt lat="44.13532" lon="5.86052">
        <ele>1251</ele>
        <time>2021-06-01T10:57:19.643Z</time>
      </trkpt>
      <trkpt lat="44.13532" lon="5.86052">
        <ele>1251</ele>
        <time>2021-06-01T10:57:20.643Z</time>
      </trkpt>
      <trkpt lat="44.13532" lon="5.86052">
        <ele>1251</ele>
        <time>2021-06-01T10:57:21.643Z</time>
      </trkpt>
      <trkpt lat="44.13532" lon="5.86052">
        <ele>1251</ele>
        <time>2021-06-01T10:57:22.643Z</time>
      </trkpt>
      <trkpt lat="44.13532" lon="5.86053">
        <ele>1251</ele>
        <time>2021-06-01T10:57:23.643Z</time>
      </trkpt>
      <trkpt lat="44.13532" lon="5.86053">
        <ele>1251</ele>
        <time>2021-06-01T10:57:24.643Z</time>
      </trkpt>
      <trkpt lat="44.13532" lon="5.86053">
        <ele>1251</ele>
        <time>2021-06-01T10:57:25.643Z</time>
      </trkpt>
      <trkpt lat="44.13532" lon="5.86053">
        <ele>1251</ele>
        <time>2021-06-01T10:57:26.643Z</time>
      </trkpt>
      <trkpt lat="44.13532" lon="5.86053">
        <ele>1251</ele>
        <time>2021-06-01T10:57:27.643Z</time>
      </trkpt>
      <trkpt lat="44.13532" lon="5.86053">
        <ele>1251</ele>
        <time>2021-06-01T10:57:28.643Z</time>
      </trkpt>
      <trkpt lat="44.13532" lon="5.86053">
        <ele>1251</ele>
        <time>2021-06-01T10:57:29.643Z</time>
      </trkpt>
      <trkpt lat="44.13532" lon="5.86053">
        <ele>1251</ele>
        <time>2021-06-01T10:57:30.643Z</time>
      </trkpt>
      <trkpt lat="44.13532" lon="5.86053">
        <ele>1251</ele>
        <time>2021-06-01T10:57:31.643Z</time>
      </trkpt>
      <trkpt lat="44.13532" lon="5.86053">
        <ele>1251</ele>
        <time>2021-06-01T10:57:32.643Z</time>
      </trkpt>
      <trkpt lat="44.13532" lon="5.86053">
        <ele>1251</ele>
        <time>2021-06-01T10:57:33.643Z</time>
      </trkpt>
      <trkpt lat="44.13532" lon="5.86053">
        <ele>1251</ele>
        <time>2021-06-01T10:57:34.643Z</time>
      </trkpt>
      <trkpt lat="44.13532" lon="5.86053">
        <ele>1251</ele>
        <time>2021-06-01T10:57:35.643Z</time>
      </trkpt>
      <trkpt lat="44.13532" lon="5.86053">
        <ele>1251</ele>
        <time>2021-06-01T10:57:36.643Z</time>
      </trkpt>
      <trkpt lat="44.13532" lon="5.86053">
        <ele>1251</ele>
        <time>2021-06-01T10:57:37.643Z</time>
      </trkpt>
      <trkpt lat="44.13532" lon="5.86053">
        <ele>1251</ele>
        <time>2021-06-01T10:57:38.643Z</time>
      </trkpt>
      <trkpt lat="44.13532" lon="5.86053">
        <ele>1251</ele>
        <time>2021-06-01T10:57:39.643Z</time>
      </trkpt>
      <trkpt lat="44.13532" lon="5.86053">
        <ele>1251</ele>
        <time>2021-06-01T10:57:40.643Z</time>
      </trkpt>
      <trkpt lat="44.13532" lon="5.86053">
        <ele>1251</ele>
        <time>2021-06-01T10:57:41.643Z</time>
      </trkpt>
      <trkpt lat="44.13532" lon="5.86053">
        <ele>1251</ele>
        <time>2021-06-01T10:57:42.643Z</time>
      </trkpt>
      <trkpt lat="44.13532" lon="5.86053">
        <ele>1251</ele>
        <time>2021-06-01T10:57:43.643Z</time>
      </trkpt>
      <trkpt lat="44.13533" lon="5.86053">
        <ele>1251</ele>
        <time>2021-06-01T10:57:44.643Z</time>
      </trkpt>
      <trkpt lat="44.13533" lon="5.86054">
        <ele>1251</ele>
        <time>2021-06-01T10:57:45.643Z</time>
      </trkpt>
      <trkpt lat="44.13534" lon="5.86054">
        <ele>1251</ele>
        <time>2021-06-01T10:57:46.643Z</time>
      </trkpt>
      <trkpt lat="44.13535" lon="5.86055">
        <ele>1251</ele>
        <time>2021-06-01T10:57:47.643Z</time>
      </trkpt>
      <trkpt lat="44.13535" lon="5.86056">
        <ele>1251</ele>
        <time>2021-06-01T10:57:48.643Z</time>
      </trkpt>
      <trkpt lat="44.13536" lon="5.86057">
        <ele>1251</ele>
        <time>2021-06-01T10:57:49.643Z</time>
      </trkpt>
      <trkpt lat="44.13537" lon="5.86058">
        <ele>1251</ele>
        <time>2021-06-01T10:57:50.643Z</time>
      </trkpt>
      <trkpt lat="44.13537" lon="5.86059">
        <ele>1252</ele>
        <time>2021-06-01T10:57:51.643Z</time>
      </trkpt>
      <trkpt lat="44.13538" lon="5.86059">
        <ele>1252</ele>
        <time>2021-06-01T10:57:52.643Z</time>
      </trkpt>
      <trkpt lat="44.13539" lon="5.8606">
        <ele>1252</ele>
        <time>2021-06-01T10:57:53.643Z</time>
      </trkpt>
      <trkpt lat="44.13539" lon="5.86061">
        <ele>1252</ele>
        <time>2021-06-01T10:57:54.643Z</time>
      </trkpt>
      <trkpt lat="44.1354" lon="5.86062">
        <ele>1252</ele>
        <time>2021-06-01T10:57:55.643Z</time>
      </trkpt>
      <trkpt lat="44.13541" lon="5.86063">
        <ele>1252</ele>
        <time>2021-06-01T10:57:56.643Z</time>
      </trkpt>
      <trkpt lat="44.13541" lon="5.86064">
        <ele>1252</ele>
        <time>2021-06-01T10:57:57.643Z</time>
      </trkpt>
      <trkpt lat="44.13542" lon="5.86065">
        <ele>1252</ele>
        <time>2021-06-01T10:57:58.643Z</time>
      </trkpt>
      <trkpt lat="44.13543" lon="5.86065">
        <ele>1252</ele>
        <time>2021-06-01T10:57:59.643Z</time>
      </trkpt>
      <trkpt lat="44.13544" lon="5.86066">
        <ele>1252</ele>
        <time>2021-06-01T10:58:00.643Z</time>
      </trkpt>
      <trkpt lat="44.13544" lon="5.86066">
        <ele>1252</ele>
        <time>2021-06-01T10:58:01.643Z</time>
      </trkpt>
      <trkpt lat="44.13545" lon="5.86067">
        <ele>1252</ele>
        <time>2021-06-01T10:58:02.643Z</time>
      </trkpt>
      <trkpt lat="44.13546" lon="5.86068">
        <ele>1252</ele>
        <time>2021-06-01T10:58:03.643Z</time>
      </trkpt>
      <trkpt lat="44.13547" lon="5.86068">
        <ele>1252</ele>
        <time>2021-06-01T10:58:04.643Z</time>
      </trkpt>
      <trkpt lat="44.13548" lon="5.86069">
        <ele>1252</ele>
        <time>2021-06-01T10:58:05.643Z</time>
      </trkpt>
      <trkpt lat="44.13549" lon="5.8607">
        <ele>1252</ele>
        <time>2021-06-01T10:58:06.643Z</time>
      </trkpt>
      <trkpt lat="44.1355" lon="5.8607">
        <ele>1252</ele>
        <time>2021-06-01T10:58:07.643Z</time>
      </trkpt>
      <trkpt lat="44.13551" lon="5.86071">
        <ele>1252</ele>
        <time>2021-06-01T10:58:08.643Z</time>
      </trkpt>
      <trkpt lat="44.13552" lon="5.86071">
        <ele>1252</ele>
        <time>2021-06-01T10:58:09.643Z</time>
      </trkpt>
      <trkpt lat="44.13552" lon="5.86072">
        <ele>1253</ele>
        <time>2021-06-01T10:58:10.643Z</time>
      </trkpt>
      <trkpt lat="44.13553" lon="5.86072">
        <ele>1253</ele>
        <time>2021-06-01T10:58:11.643Z</time>
      </trkpt>
      <trkpt lat="44.13554" lon="5.86073">
        <ele>1253</ele>
        <time>2021-06-01T10:58:12.643Z</time>
      </trkpt>
      <trkpt lat="44.13555" lon="5.86073">
        <ele>1253</ele>
        <time>2021-06-01T10:58:13.643Z</time>
      </trkpt>
      <trkpt lat="44.13556" lon="5.86074">
        <ele>1253</ele>
        <time>2021-06-01T10:58:14.643Z</time>
      </trkpt>
      <trkpt lat="44.13557" lon="5.86074">
        <ele>1253</ele>
        <time>2021-06-01T10:58:15.643Z</time>
      </trkpt>
      <trkpt lat="44.13558" lon="5.86075">
        <ele>1253</ele>
        <time>2021-06-01T10:58:16.643Z</time>
      </trkpt>
      <trkpt lat="44.13559" lon="5.86075">
        <ele>1253</ele>
        <time>2021-06-01T10:58:17.643Z</time>
      </trkpt>
      <trkpt lat="44.1356" lon="5.86076">
        <ele>1253</ele>
        <time>2021-06-01T10:58:18.643Z</time>
      </trkpt>
      <trkpt lat="44.1356" lon="5.86077">
        <ele>1253</ele>
        <time>2021-06-01T10:58:19.643Z</time>
      </trkpt>
      <trkpt lat="44.13561" lon="5.86077">
        <ele>1253</ele>
        <time>2021-06-01T10:58:20.643Z</time>
      </trkpt>
      <trkpt lat="44.13562" lon="5.86078">
        <ele>1253</ele>
        <time>2021-06-01T10:58:21.643Z</time>
      </trkpt>
      <trkpt lat="44.13563" lon="5.86079">
        <ele>1253</ele>
        <time>2021-06-01T10:58:22.643Z</time>
      </trkpt>
      <trkpt lat="44.13564" lon="5.8608">
        <ele>1253</ele>
        <time>2021-06-01T10:58:23.643Z</time>
      </trkpt>
      <trkpt lat="44.13564" lon="5.8608">
        <ele>1253</ele>
        <time>2021-06-01T10:58:24.643Z</time>
      </trkpt>
      <trkpt lat="44.13565" lon="5.86081">
        <ele>1253</ele>
        <time>2021-06-01T10:58:25.643Z</time>
      </trkpt>
      <trkpt lat="44.13566" lon="5.86082">
        <ele>1253</ele>
        <time>2021-06-01T10:58:26.643Z</time>
      </trkpt>
      <trkpt lat="44.13567" lon="5.86083">
        <ele>1253</ele>
        <time>2021-06-01T10:58:27.643Z</time>
      </trkpt>
      <trkpt lat="44.13568" lon="5.86083">
        <ele>1253</ele>
        <time>2021-06-01T10:58:28.643Z</time>
      </trkpt>
      <trkpt lat="44.13569" lon="5.86084">
        <ele>1253</ele>
        <time>2021-06-01T10:58:29.643Z</time>
      </trkpt>
      <trkpt lat="44.1357" lon="5.86084">
        <ele>1253</ele>
        <time>2021-06-01T10:58:30.643Z</time>
      </trkpt>
      <trkpt lat="44.1357" lon="5.86085">
        <ele>1253</ele>
        <time>2021-06-01T10:58:31.643Z</time>
      </trkpt>
      <trkpt lat="44.13571" lon="5.86085">
        <ele>1253</ele>
        <time>2021-06-01T10:58:32.643Z</time>
      </trkpt>
      <trkpt lat="44.13572" lon="5.86086">
        <ele>1253</ele>
        <time>2021-06-01T10:58:33.643Z</time>
      </trkpt>
      <trkpt lat="44.13573" lon="5.86087">
        <ele>1254</ele>
        <time>2021-06-01T10:58:34.643Z</time>
      </trkpt>
      <trkpt lat="44.13574" lon="5.86087">
        <ele>1254</ele>
        <time>2021-06-01T10:58:35.643Z</time>
      </trkpt>
      <trkpt lat="44.13575" lon="5.86088">
        <ele>1254</ele>
        <time>2021-06-01T10:58:36.643Z</time>
      </trkpt>
      <trkpt lat="44.13576" lon="5.86089">
        <ele>1254</ele>
        <time>2021-06-01T10:58:37.643Z</time>
      </trkpt>
      <trkpt lat="44.13577" lon="5.86089">
        <ele>1254</ele>
        <time>2021-06-01T10:58:38.643Z</time>
      </trkpt>
      <trkpt lat="44.13577" lon="5.8609">
        <ele>1254</ele>
        <time>2021-06-01T10:58:39.643Z</time>
      </trkpt>
      <trkpt lat="44.13578" lon="5.86091">
        <ele>1254</ele>
        <time>2021-06-01T10:58:40.643Z</time>
      </trkpt>
      <trkpt lat="44.13579" lon="5.86091">
        <ele>1254</ele>
        <time>2021-06-01T10:58:41.643Z</time>
      </trkpt>
      <trkpt lat="44.1358" lon="5.86092">
        <ele>1254</ele>
        <time>2021-06-01T10:58:42.643Z</time>
      </trkpt>
      <trkpt lat="44.13581" lon="5.86092">
        <ele>1254</ele>
        <time>2021-06-01T10:58:43.643Z</time>
      </trkpt>
      <trkpt lat="44.13582" lon="5.86093">
        <ele>1254</ele>
        <time>2021-06-01T10:58:44.643Z</time>
      </trkpt>
      <trkpt lat="44.13583" lon="5.86094">
        <ele>1254</ele>
        <time>2021-06-01T10:58:45.643Z</time>
      </trkpt>
      <trkpt lat="44.13583" lon="5.86094">
        <ele>1254</ele>
        <time>2021-06-01T10:58:46.643Z</time>
      </trkpt>
      <trkpt lat="44.13584" lon="5.86095">
        <ele>1254</ele>
        <time>2021-06-01T10:58:47.643Z</time>
      </trkpt>
      <trkpt lat="44.13585" lon="5.86095">
        <ele>1254</ele>
        <time>2021-06-01T10:58:48.643Z</time>
      </trkpt>
      <trkpt lat="44.13586" lon="5.86096">
        <ele>1254</ele>
        <time>2021-06-01T10:58:49.643Z</time>
      </trkpt>
      <trkpt lat="44.13587" lon="5.86096">
        <ele>1254</ele>
        <time>2021-06-01T10:58:50.643Z</time>
      </trkpt>
      <trkpt lat="44.13588" lon="5.86096">
        <ele>1254</ele>
        <time>2021-06-01T10:58:51.643Z</time>
      </trkpt>
      <trkpt lat="44.13589" lon="5.86097">
        <ele>1254</ele>
        <time>2021-06-01T10:58:52.643Z</time>
      </trkpt>
      <trkpt lat="44.1359" lon="5.86097">
        <ele>1253</ele>
        <time>2021-06-01T10:58:53.643Z</time>
      </trkpt>
      <trkpt lat="44.13591" lon="5.86098">
        <ele>1253</ele>
        <time>2021-06-01T10:58:54.643Z</time>
      </trkpt>
      <trkpt lat="44.13592" lon="5.86098">
        <ele>1253</ele>
        <time>2021-06-01T10:58:55.643Z</time>
      </trkpt>
      <trkpt lat="44.13593" lon="5.86098">
        <ele>1253</ele>
        <time>2021-06-01T10:58:56.643Z</time>
      </trkpt>
      <trkpt lat="44.13594" lon="5.86099">
        <ele>1253</ele>
        <time>2021-06-01T10:58:57.643Z</time>
      </trkpt>
      <trkpt lat="44.13595" lon="5.86099">
        <ele>1253</ele>
        <time>2021-06-01T10:58:58.643Z</time>
      </trkpt>
      <trkpt lat="44.13596" lon="5.86099">
        <ele>1253</ele>
        <time>2021-06-01T10:58:59.643Z</time>
      </trkpt>
      <trkpt lat="44.13597" lon="5.86099">
        <ele>1253</ele>
        <time>2021-06-01T10:59:00.643Z</time>
      </trkpt>
      <trkpt lat="44.13598" lon="5.861">
        <ele>1253</ele>
        <time>2021-06-01T10:59:01.643Z</time>
      </trkpt>
      <trkpt lat="44.13599" lon="5.861">
        <ele>1253</ele>
        <time>2021-06-01T10:59:02.643Z</time>
      </trkpt>
      <trkpt lat="44.136" lon="5.861">
        <ele>1253</ele>
        <time>2021-06-01T10:59:03.643Z</time>
      </trkpt>
      <trkpt lat="44.13601" lon="5.861">
        <ele>1253</ele>
        <time>2021-06-01T10:59:04.643Z</time>
      </trkpt>
      <trkpt lat="44.13602" lon="5.861">
        <ele>1253</ele>
        <time>2021-06-01T10:59:05.643Z</time>
      </trkpt>
      <trkpt lat="44.13603" lon="5.861">
        <ele>1253</ele>
        <time>2021-06-01T10:59:06.643Z</time>
      </trkpt>
      <trkpt lat="44.13604" lon="5.861">
        <ele>1253</ele>
        <time>2021-06-01T10:59:07.643Z</time>
      </trkpt>
      <trkpt lat="44.13605" lon="5.86101">
        <ele>1253</ele>
        <time>2021-06-01T10:59:08.643Z</time>
      </trkpt>
      <trkpt lat="44.13606" lon="5.86101">
        <ele>1254</ele>
        <time>2021-06-01T10:59:09.643Z</time>
      </trkpt>
      <trkpt lat="44.13608" lon="5.86101">
        <ele>1254</ele>
        <time>2021-06-01T10:59:10.643Z</time>
      </trkpt>
      <trkpt lat="44.13608" lon="5.86101">
        <ele>1254</ele>
        <time>2021-06-01T10:59:11.643Z</time>
      </trkpt>
      <trkpt lat="44.1361" lon="5.86101">
        <ele>1254</ele>
        <time>2021-06-01T10:59:12.643Z</time>
      </trkpt>
      <trkpt lat="44.13611" lon="5.86101">
        <ele>1254</ele>
        <time>2021-06-01T10:59:13.643Z</time>
      </trkpt>
      <trkpt lat="44.13612" lon="5.86101">
        <ele>1254</ele>
        <time>2021-06-01T10:59:14.643Z</time>
      </trkpt>
      <trkpt lat="44.13613" lon="5.86101">
        <ele>1254</ele>
        <time>2021-06-01T10:59:15.643Z</time>
      </trkpt>
      <trkpt lat="44.13613" lon="5.86101">
        <ele>1254</ele>
        <time>2021-06-01T10:59:16.643Z</time>
      </trkpt>
      <trkpt lat="44.13614" lon="5.86101">
        <ele>1254</ele>
        <time>2021-06-01T10:59:17.643Z</time>
      </trkpt>
      <trkpt lat="44.13615" lon="5.86101">
        <ele>1254</ele>
        <time>2021-06-01T10:59:18.643Z</time>
      </trkpt>
      <trkpt lat="44.13617" lon="5.86101">
        <ele>1254</ele>
        <time>2021-06-01T10:59:19.643Z</time>
      </trkpt>
      <trkpt lat="44.13618" lon="5.86101">
        <ele>1254</ele>
        <time>2021-06-01T10:59:20.643Z</time>
      </trkpt>
      <trkpt lat="44.13619" lon="5.86101">
        <ele>1254</ele>
        <time>2021-06-01T10:59:21.643Z</time>
      </trkpt>
      <trkpt lat="44.1362" lon="5.86101">
        <ele>1255</ele>
        <time>2021-06-01T10:59:22.643Z</time>
      </trkpt>
      <trkpt lat="44.13621" lon="5.86101">
        <ele>1255</ele>
        <time>2021-06-01T10:59:23.643Z</time>
      </trkpt>
      <trkpt lat="44.13622" lon="5.86101">
        <ele>1255</ele>
        <time>2021-06-01T10:59:24.643Z</time>
      </trkpt>
      <trkpt lat="44.13623" lon="5.86101">
        <ele>1255</ele>
        <time>2021-06-01T10:59:25.643Z</time>
      </trkpt>
      <trkpt lat="44.13624" lon="5.86101">
        <ele>1255</ele>
        <time>2021-06-01T10:59:26.643Z</time>
      </trkpt>
      <trkpt lat="44.13625" lon="5.86101">
        <ele>1255</ele>
        <time>2021-06-01T10:59:27.643Z</time>
      </trkpt>
      <trkpt lat="44.13626" lon="5.86101">
        <ele>1255</ele>
        <time>2021-06-01T10:59:28.643Z</time>
      </trkpt>
      <trkpt lat="44.13627" lon="5.86101">
        <ele>1256</ele>
        <time>2021-06-01T10:59:29.643Z</time>
      </trkpt>
      <trkpt lat="44.13628" lon="5.86101">
        <ele>1256</ele>
        <time>2021-06-01T10:59:30.643Z</time>
      </trkpt>
      <trkpt lat="44.13629" lon="5.86101">
        <ele>1256</ele>
        <time>2021-06-01T10:59:31.643Z</time>
      </trkpt>
      <trkpt lat="44.1363" lon="5.86101">
        <ele>1256</ele>
        <time>2021-06-01T10:59:32.643Z</time>
      </trkpt>
      <trkpt lat="44.13631" lon="5.86101">
        <ele>1256</ele>
        <time>2021-06-01T10:59:33.643Z</time>
      </trkpt>
      <trkpt lat="44.13632" lon="5.86101">
        <ele>1256</ele>
        <time>2021-06-01T10:59:34.643Z</time>
      </trkpt>
      <trkpt lat="44.13633" lon="5.86102">
        <ele>1256</ele>
        <time>2021-06-01T10:59:35.643Z</time>
      </trkpt>
      <trkpt lat="44.13634" lon="5.86101">
        <ele>1256</ele>
        <time>2021-06-01T10:59:36.643Z</time>
      </trkpt>
      <trkpt lat="44.13635" lon="5.86101">
        <ele>1256</ele>
        <time>2021-06-01T10:59:37.643Z</time>
      </trkpt>
      <trkpt lat="44.13636" lon="5.86101">
        <ele>1256</ele>
        <time>2021-06-01T10:59:38.643Z</time>
      </trkpt>
      <trkpt lat="44.13637" lon="5.86101">
        <ele>1256</ele>
        <time>2021-06-01T10:59:39.643Z</time>
      </trkpt>
      <trkpt lat="44.13638" lon="5.86101">
        <ele>1256</ele>
        <time>2021-06-01T10:59:40.643Z</time>
      </trkpt>
      <trkpt lat="44.13639" lon="5.86101">
        <ele>1256</ele>
        <time>2021-06-01T10:59:41.643Z</time>
      </trkpt>
      <trkpt lat="44.1364" lon="5.86101">
        <ele>1256</ele>
        <time>2021-06-01T10:59:42.643Z</time>
      </trkpt>
      <trkpt lat="44.13641" lon="5.86101">
        <ele>1257</ele>
        <time>2021-06-01T10:59:43.643Z</time>
      </trkpt>
      <trkpt lat="44.13642" lon="5.86101">
        <ele>1257</ele>
        <time>2021-06-01T10:59:44.643Z</time>
      </trkpt>
      <trkpt lat="44.13643" lon="5.86101">
        <ele>1257</ele>
        <time>2021-06-01T10:59:45.643Z</time>
      </trkpt>
      <trkpt lat="44.13644" lon="5.86101">
        <ele>1257</ele>
        <time>2021-06-01T10:59:46.643Z</time>
      </trkpt>
      <trkpt lat="44.13645" lon="5.86101">
        <ele>1257</ele>
        <time>2021-06-01T10:59:47.643Z</time>
      </trkpt>
      <trkpt lat="44.13646" lon="5.861">
        <ele>1257</ele>
        <time>2021-06-01T10:59:48.643Z</time>
      </trkpt>
      <trkpt lat="44.13647" lon="5.861">
        <ele>1257</ele>
        <time>2021-06-01T10:59:49.643Z</time>
      </trkpt>
      <trkpt lat="44.13648" lon="5.861">
        <ele>1257</ele>
        <time>2021-06-01T10:59:50.643Z</time>
      </trkpt>
      <trkpt lat="44.13649" lon="5.861">
        <ele>1257</ele>
        <time>2021-06-01T10:59:51.643Z</time>
      </trkpt>
      <trkpt lat="44.1365" lon="5.861">
        <ele>1257</ele>
        <time>2021-06-01T10:59:52.643Z</time>
      </trkpt>
      <trkpt lat="44.13651" lon="5.861">
        <ele>1257</ele>
        <time>2021-06-01T10:59:53.643Z</time>
      </trkpt>
      <trkpt lat="44.13652" lon="5.861">
        <ele>1257</ele>
        <time>2021-06-01T10:59:54.643Z</time>
      </trkpt>
      <trkpt lat="44.13653" lon="5.861">
        <ele>1257</ele>
        <time>2021-06-01T10:59:55.643Z</time>
      </trkpt>
      <trkpt lat="44.13654" lon="5.861">
        <ele>1257</ele>
        <time>2021-06-01T10:59:56.643Z</time>
      </trkpt>
      <trkpt lat="44.13655" lon="5.861">
        <ele>1257</ele>
        <time>2021-06-01T10:59:57.643Z</time>
      </trkpt>
      <trkpt lat="44.13656" lon="5.861">
        <ele>1257</ele>
        <time>2021-06-01T10:59:58.643Z</time>
      </trkpt>
      <trkpt lat="44.13657" lon="5.861">
        <ele>1257</ele>
        <time>2021-06-01T10:59:59.643Z</time>
      </trkpt>
      <trkpt lat="44.13658" lon="5.861">
        <ele>1257</ele>
        <time>2021-06-01T11:00:00.643Z</time>
      </trkpt>
      <trkpt lat="44.13659" lon="5.861">
        <ele>1257</ele>
        <time>2021-06-01T11:00:01.643Z</time>
      </trkpt>
      <trkpt lat="44.1366" lon="5.861">
        <ele>1257</ele>
        <time>2021-06-01T11:00:02.643Z</time>
      </trkpt>
      <trkpt lat="44.13661" lon="5.861">
        <ele>1257</ele>
        <time>2021-06-01T11:00:03.643Z</time>
      </trkpt>
      <trkpt lat="44.13662" lon="5.861">
        <ele>1257</ele>
        <time>2021-06-01T11:00:04.643Z</time>
      </trkpt>
      <trkpt lat="44.13663" lon="5.861">
        <ele>1258</ele>
        <time>2021-06-01T11:00:05.643Z</time>
      </trkpt>
      <trkpt lat="44.13664" lon="5.861">
        <ele>1258</ele>
        <time>2021-06-01T11:00:06.643Z</time>
      </trkpt>
      <trkpt lat="44.13665" lon="5.861">
        <ele>1258</ele>
        <time>2021-06-01T11:00:07.643Z</time>
      </trkpt>
      <trkpt lat="44.13665" lon="5.861">
        <ele>1258</ele>
        <time>2021-06-01T11:00:08.643Z</time>
      </trkpt>
      <trkpt lat="44.13666" lon="5.861">
        <ele>1258</ele>
        <time>2021-06-01T11:00:09.643Z</time>
      </trkpt>
      <trkpt lat="44.13667" lon="5.861">
        <ele>1259</ele>
        <time>2021-06-01T11:00:10.643Z</time>
      </trkpt>
      <trkpt lat="44.13668" lon="5.861">
        <ele>1259</ele>
        <time>2021-06-01T11:00:11.643Z</time>
      </trkpt>
      <trkpt lat="44.13669" lon="5.861">
        <ele>1259</ele>
        <time>2021-06-01T11:00:12.643Z</time>
      </trkpt>
      <trkpt lat="44.1367" lon="5.861">
        <ele>1259</ele>
        <time>2021-06-01T11:00:13.643Z</time>
      </trkpt>
      <trkpt lat="44.13671" lon="5.86099">
        <ele>1259</ele>
        <time>2021-06-01T11:00:14.643Z</time>
      </trkpt>
      <trkpt lat="44.13672" lon="5.86099">
        <ele>1260</ele>
        <time>2021-06-01T11:00:15.643Z</time>
      </trkpt>
      <trkpt lat="44.13673" lon="5.86099">
        <ele>1260</ele>
        <time>2021-06-01T11:00:16.643Z</time>
      </trkpt>
      <trkpt lat="44.13673" lon="5.86099">
        <ele>1260</ele>
        <time>2021-06-01T11:00:17.643Z</time>
      </trkpt>
      <trkpt lat="44.13674" lon="5.86098">
        <ele>1260</ele>
        <time>2021-06-01T11:00:18.643Z</time>
      </trkpt>
      <trkpt lat="44.13675" lon="5.86098">
        <ele>1260</ele>
        <time>2021-06-01T11:00:19.643Z</time>
      </trkpt>
      <trkpt lat="44.13676" lon="5.86098">
        <ele>1260</ele>
        <time>2021-06-01T11:00:20.643Z</time>
      </trkpt>
      <trkpt lat="44.13677" lon="5.86097">
        <ele>1261</ele>
        <time>2021-06-01T11:00:21.643Z</time>
      </trkpt>
      <trkpt lat="44.13678" lon="5.86097">
        <ele>1261</ele>
        <time>2021-06-01T11:00:22.643Z</time>
      </trkpt>
      <trkpt lat="44.13679" lon="5.86097">
        <ele>1261</ele>
        <time>2021-06-01T11:00:23.643Z</time>
      </trkpt>
      <trkpt lat="44.13679" lon="5.86097">
        <ele>1261</ele>
        <time>2021-06-01T11:00:24.643Z</time>
      </trkpt>
      <trkpt lat="44.13679" lon="5.86097">
        <ele>1261</ele>
        <time>2021-06-01T11:00:25.643Z</time>
      </trkpt>
      <trkpt lat="44.13679" lon="5.86097">
        <ele>1261</ele>
        <time>2021-06-01T11:00:26.643Z</time>
      </trkpt>
      <trkpt lat="44.13679" lon="5.86097">
        <ele>1261</ele>
        <time>2021-06-01T11:00:27.643Z</time>
      </trkpt>
      <trkpt lat="44.13679" lon="5.86097">
        <ele>1261</ele>
        <time>2021-06-01T11:00:28.643Z</time>
      </trkpt>
      <trkpt lat="44.1368" lon="5.86097">
        <ele>1261</ele>
        <time>2021-06-01T11:00:29.643Z</time>
      </trkpt>
      <trkpt lat="44.1368" lon="5.86097">
        <ele>1261</ele>
        <time>2021-06-01T11:00:30.643Z</time>
      </trkpt>
      <trkpt lat="44.1368" lon="5.86097">
        <ele>1261</ele>
        <time>2021-06-01T11:00:31.643Z</time>
      </trkpt>
      <trkpt lat="44.1368" lon="5.86097">
        <ele>1261</ele>
        <time>2021-06-01T11:00:32.643Z</time>
      </trkpt>
      <trkpt lat="44.1368" lon="5.86096">
        <ele>1261</ele>
        <time>2021-06-01T11:00:33.643Z</time>
      </trkpt>
      <trkpt lat="44.1368" lon="5.86096">
        <ele>1261</ele>
        <time>2021-06-01T11:00:34.643Z</time>
      </trkpt>
      <trkpt lat="44.1368" lon="5.86096">
        <ele>1261</ele>
        <time>2021-06-01T11:00:35.643Z</time>
      </trkpt>
      <trkpt lat="44.1368" lon="5.86096">
        <ele>1261</ele>
        <time>2021-06-01T11:00:36.643Z</time>
      </trkpt>
      <trkpt lat="44.1368" lon="5.86097">
        <ele>1261</ele>
        <time>2021-06-01T11:00:37.643Z</time>
      </trkpt>
      <trkpt lat="44.1368" lon="5.86097">
        <ele>1261</ele>
        <time>2021-06-01T11:00:38.643Z</time>
      </trkpt>
      <trkpt lat="44.13681" lon="5.86097">
        <ele>1261</ele>
        <time>2021-06-01T11:00:39.643Z</time>
      </trkpt>
      <trkpt lat="44.13681" lon="5.86098">
        <ele>1261</ele>
        <time>2021-06-01T11:00:40.643Z</time>
      </trkpt>
      <trkpt lat="44.13682" lon="5.86098">
        <ele>1261</ele>
        <time>2021-06-01T11:00:41.643Z</time>
      </trkpt>
      <trkpt lat="44.13682" lon="5.86099">
        <ele>1261</ele>
        <time>2021-06-01T11:00:42.643Z</time>
      </trkpt>
      <trkpt lat="44.13683" lon="5.86099">
        <ele>1261</ele>
        <time>2021-06-01T11:00:43.643Z</time>
      </trkpt>
      <trkpt lat="44.13683" lon="5.861">
        <ele>1261</ele>
        <time>2021-06-01T11:00:44.643Z</time>
      </trkpt>
      <trkpt lat="44.13683" lon="5.861">
        <ele>1261</ele>
        <time>2021-06-01T11:00:45.643Z</time>
      </trkpt>
      <trkpt lat="44.13683" lon="5.86101">
        <ele>1262</ele>
        <time>2021-06-01T11:00:46.643Z</time>
      </trkpt>
      <trkpt lat="44.13684" lon="5.86101">
        <ele>1262</ele>
        <time>2021-06-01T11:00:47.643Z</time>
      </trkpt>
      <trkpt lat="44.13684" lon="5.86101">
        <ele>1262</ele>
        <time>2021-06-01T11:00:48.643Z</time>
      </trkpt>
      <trkpt lat="44.13684" lon="5.86101">
        <ele>1262</ele>
        <time>2021-06-01T11:00:49.643Z</time>
      </trkpt>
      <trkpt lat="44.13684" lon="5.861">
        <ele>1262</ele>
        <time>2021-06-01T11:00:50.643Z</time>
      </trkpt>
      <trkpt lat="44.13684" lon="5.861">
        <ele>1262</ele>
        <time>2021-06-01T11:00:51.643Z</time>
      </trkpt>
      <trkpt lat="44.13684" lon="5.861">
        <ele>1262</ele>
        <time>2021-06-01T11:00:52.643Z</time>
      </trkpt>
      <trkpt lat="44.13684" lon="5.861">
        <ele>1262</ele>
        <time>2021-06-01T11:00:53.643Z</time>
      </trkpt>
      <trkpt lat="44.13685" lon="5.86101">
        <ele>1262</ele>
        <time>2021-06-01T11:00:54.643Z</time>
      </trkpt>
      <trkpt lat="44.13685" lon="5.86102">
        <ele>1262</ele>
        <time>2021-06-01T11:00:55.643Z</time>
      </trkpt>
      <trkpt lat="44.13686" lon="5.86103">
        <ele>1262</ele>
        <time>2021-06-01T11:00:56.643Z</time>
      </trkpt>
      <trkpt lat="44.13687" lon="5.86103">
        <ele>1262</ele>
        <time>2021-06-01T11:00:57.643Z</time>
      </trkpt>
      <trkpt lat="44.13688" lon="5.86104">
        <ele>1262</ele>
        <time>2021-06-01T11:00:58.643Z</time>
      </trkpt>
      <trkpt lat="44.13688" lon="5.86106">
        <ele>1262</ele>
        <time>2021-06-01T11:00:59.643Z</time>
      </trkpt>
      <trkpt lat="44.13689" lon="5.86106">
        <ele>1262</ele>
        <time>2021-06-01T11:01:00.643Z</time>
      </trkpt>
      <trkpt lat="44.1369" lon="5.86107">
        <ele>1262</ele>
        <time>2021-06-01T11:01:01.643Z</time>
      </trkpt>
      <trkpt lat="44.13691" lon="5.86108">
        <ele>1262</ele>
        <time>2021-06-01T11:01:02.643Z</time>
      </trkpt>
      <trkpt lat="44.13692" lon="5.86109">
        <ele>1262</ele>
        <time>2021-06-01T11:01:03.643Z</time>
      </trkpt>
      <trkpt lat="44.13693" lon="5.86109">
        <ele>1262</ele>
        <time>2021-06-01T11:01:04.643Z</time>
      </trkpt>
      <trkpt lat="44.13694" lon="5.8611">
        <ele>1262</ele>
        <time>2021-06-01T11:01:05.643Z</time>
      </trkpt>
      <trkpt lat="44.13695" lon="5.86111">
        <ele>1262</ele>
        <time>2021-06-01T11:01:06.643Z</time>
      </trkpt>
      <trkpt lat="44.13696" lon="5.86111">
        <ele>1262</ele>
        <time>2021-06-01T11:01:07.643Z</time>
      </trkpt>
      <trkpt lat="44.13697" lon="5.86112">
        <ele>1262</ele>
        <time>2021-06-01T11:01:08.643Z</time>
      </trkpt>
      <trkpt lat="44.13698" lon="5.86113">
        <ele>1262</ele>
        <time>2021-06-01T11:01:09.643Z</time>
      </trkpt>
      <trkpt lat="44.13699" lon="5.86114">
        <ele>1262</ele>
        <time>2021-06-01T11:01:10.643Z</time>
      </trkpt>
      <trkpt lat="44.13699" lon="5.86114">
        <ele>1262</ele>
        <time>2021-06-01T11:01:11.643Z</time>
      </trkpt>
      <trkpt lat="44.137" lon="5.86116">
        <ele>1262</ele>
        <time>2021-06-01T11:01:12.643Z</time>
      </trkpt>
      <trkpt lat="44.13701" lon="5.86116">
        <ele>1262</ele>
        <time>2021-06-01T11:01:13.643Z</time>
      </trkpt>
      <trkpt lat="44.13701" lon="5.86118">
        <ele>1262</ele>
        <time>2021-06-01T11:01:14.643Z</time>
      </trkpt>
      <trkpt lat="44.13702" lon="5.86119">
        <ele>1262</ele>
        <time>2021-06-01T11:01:15.643Z</time>
      </trkpt>
      <trkpt lat="44.13703" lon="5.86119">
        <ele>1262</ele>
        <time>2021-06-01T11:01:16.643Z</time>
      </trkpt>
      <trkpt lat="44.13704" lon="5.8612">
        <ele>1262</ele>
        <time>2021-06-01T11:01:17.643Z</time>
      </trkpt>
      <trkpt lat="44.13704" lon="5.86121">
        <ele>1262</ele>
        <time>2021-06-01T11:01:18.643Z</time>
      </trkpt>
      <trkpt lat="44.13705" lon="5.86122">
        <ele>1262</ele>
        <time>2021-06-01T11:01:19.643Z</time>
      </trkpt>
      <trkpt lat="44.13706" lon="5.86123">
        <ele>1262</ele>
        <time>2021-06-01T11:01:20.643Z</time>
      </trkpt>
      <trkpt lat="44.13706" lon="5.86124">
        <ele>1261</ele>
        <time>2021-06-01T11:01:21.643Z</time>
      </trkpt>
      <trkpt lat="44.13707" lon="5.86125">
        <ele>1261</ele>
        <time>2021-06-01T11:01:22.643Z</time>
      </trkpt>
      <trkpt lat="44.13708" lon="5.86126">
        <ele>1261</ele>
        <time>2021-06-01T11:01:23.643Z</time>
      </trkpt>
      <trkpt lat="44.13708" lon="5.86127">
        <ele>1261</ele>
        <time>2021-06-01T11:01:24.643Z</time>
      </trkpt>
      <trkpt lat="44.13709" lon="5.86128">
        <ele>1261</ele>
        <time>2021-06-01T11:01:25.643Z</time>
      </trkpt>
      <trkpt lat="44.13709" lon="5.86129">
        <ele>1261</ele>
        <time>2021-06-01T11:01:26.643Z</time>
      </trkpt>
      <trkpt lat="44.1371" lon="5.8613">
        <ele>1261</ele>
        <time>2021-06-01T11:01:27.643Z</time>
      </trkpt>
      <trkpt lat="44.13711" lon="5.86131">
        <ele>1261</ele>
        <time>2021-06-01T11:01:28.643Z</time>
      </trkpt>
      <trkpt lat="44.13712" lon="5.86132">
        <ele>1261</ele>
        <time>2021-06-01T11:01:29.643Z</time>
      </trkpt>
      <trkpt lat="44.13713" lon="5.86133">
        <ele>1261</ele>
        <time>2021-06-01T11:01:30.643Z</time>
      </trkpt>
      <trkpt lat="44.13713" lon="5.86134">
        <ele>1261</ele>
        <time>2021-06-01T11:01:31.643Z</time>
      </trkpt>
      <trkpt lat="44.13714" lon="5.86134">
        <ele>1261</ele>
        <time>2021-06-01T11:01:32.643Z</time>
      </trkpt>
      <trkpt lat="44.13715" lon="5.86135">
        <ele>1261</ele>
        <time>2021-06-01T11:01:33.643Z</time>
      </trkpt>
      <trkpt lat="44.13716" lon="5.86136">
        <ele>1261</ele>
        <time>2021-06-01T11:01:34.643Z</time>
      </trkpt>
      <trkpt lat="44.13717" lon="5.86137">
        <ele>1261</ele>
        <time>2021-06-01T11:01:35.643Z</time>
      </trkpt>
      <trkpt lat="44.13718" lon="5.86137">
        <ele>1261</ele>
        <time>2021-06-01T11:01:36.643Z</time>
      </trkpt>
      <trkpt lat="44.13718" lon="5.86138">
        <ele>1261</ele>
        <time>2021-06-01T11:01:37.643Z</time>
      </trkpt>
      <trkpt lat="44.13719" lon="5.86139">
        <ele>1261</ele>
        <time>2021-06-01T11:01:38.643Z</time>
      </trkpt>
      <trkpt lat="44.1372" lon="5.8614">
        <ele>1261</ele>
        <time>2021-06-01T11:01:39.643Z</time>
      </trkpt>
      <trkpt lat="44.13721" lon="5.86141">
        <ele>1261</ele>
        <time>2021-06-01T11:01:40.643Z</time>
      </trkpt>
      <trkpt lat="44.13721" lon="5.86142">
        <ele>1261</ele>
        <time>2021-06-01T11:01:41.643Z</time>
      </trkpt>
      <trkpt lat="44.13722" lon="5.86142">
        <ele>1261</ele>
        <time>2021-06-01T11:01:42.643Z</time>
      </trkpt>
      <trkpt lat="44.13723" lon="5.86143">
        <ele>1261</ele>
        <time>2021-06-01T11:01:43.643Z</time>
      </trkpt>
      <trkpt lat="44.13723" lon="5.86145">
        <ele>1261</ele>
        <time>2021-06-01T11:01:44.643Z</time>
      </trkpt>
      <trkpt lat="44.13724" lon="5.86146">
        <ele>1261</ele>
        <time>2021-06-01T11:01:45.643Z</time>
      </trkpt>
      <trkpt lat="44.13725" lon="5.86147">
        <ele>1261</ele>
        <time>2021-06-01T11:01:46.643Z</time>
      </trkpt>
      <trkpt lat="44.13726" lon="5.86148">
        <ele>1261</ele>
        <time>2021-06-01T11:01:47.643Z</time>
      </trkpt>
      <trkpt lat="44.13726" lon="5.86149">
        <ele>1261</ele>
        <time>2021-06-01T11:01:48.643Z</time>
      </trkpt>
      <trkpt lat="44.13727" lon="5.8615">
        <ele>1261</ele>
        <time>2021-06-01T11:01:49.643Z</time>
      </trkpt>
      <trkpt lat="44.13728" lon="5.86151">
        <ele>1261</ele>
        <time>2021-06-01T11:01:50.643Z</time>
      </trkpt>
      <trkpt lat="44.13728" lon="5.86152">
        <ele>1260</ele>
        <time>2021-06-01T11:01:51.643Z</time>
      </trkpt>
      <trkpt lat="44.13729" lon="5.86153">
        <ele>1260</ele>
        <time>2021-06-01T11:01:52.643Z</time>
      </trkpt>
      <trkpt lat="44.1373" lon="5.86153">
        <ele>1260</ele>
        <time>2021-06-01T11:01:53.643Z</time>
      </trkpt>
      <trkpt lat="44.13731" lon="5.86154">
        <ele>1260</ele>
        <time>2021-06-01T11:01:54.643Z</time>
      </trkpt>
      <trkpt lat="44.13732" lon="5.86155">
        <ele>1260</ele>
        <time>2021-06-01T11:01:55.643Z</time>
      </trkpt>
      <trkpt lat="44.13733" lon="5.86156">
        <ele>1260</ele>
        <time>2021-06-01T11:01:56.643Z</time>
      </trkpt>
      <trkpt lat="44.13733" lon="5.86157">
        <ele>1260</ele>
        <time>2021-06-01T11:01:57.643Z</time>
      </trkpt>
      <trkpt lat="44.13734" lon="5.86158">
        <ele>1260</ele>
        <time>2021-06-01T11:01:58.643Z</time>
      </trkpt>
      <trkpt lat="44.13735" lon="5.86159">
        <ele>1260</ele>
        <time>2021-06-01T11:01:59.643Z</time>
      </trkpt>
      <trkpt lat="44.13736" lon="5.8616">
        <ele>1260</ele>
        <time>2021-06-01T11:02:00.643Z</time>
      </trkpt>
      <trkpt lat="44.13736" lon="5.86161">
        <ele>1260</ele>
        <time>2021-06-01T11:02:01.643Z</time>
      </trkpt>
      <trkpt lat="44.13737" lon="5.86162">
        <ele>1260</ele>
        <time>2021-06-01T11:02:02.643Z</time>
      </trkpt>
      <trkpt lat="44.13738" lon="5.86163">
        <ele>1260</ele>
        <time>2021-06-01T11:02:03.643Z</time>
      </trkpt>
      <trkpt lat="44.13738" lon="5.86165">
        <ele>1260</ele>
        <time>2021-06-01T11:02:04.643Z</time>
      </trkpt>
      <trkpt lat="44.13739" lon="5.86166">
        <ele>1260</ele>
        <time>2021-06-01T11:02:05.643Z</time>
      </trkpt>
      <trkpt lat="44.13739" lon="5.86167">
        <ele>1260</ele>
        <time>2021-06-01T11:02:06.643Z</time>
      </trkpt>
      <trkpt lat="44.1374" lon="5.86168">
        <ele>1260</ele>
        <time>2021-06-01T11:02:07.643Z</time>
      </trkpt>
      <trkpt lat="44.13741" lon="5.86169">
        <ele>1260</ele>
        <time>2021-06-01T11:02:08.643Z</time>
      </trkpt>
      <trkpt lat="44.13741" lon="5.86169">
        <ele>1260</ele>
        <time>2021-06-01T11:02:09.643Z</time>
      </trkpt>
      <trkpt lat="44.13741" lon="5.86169">
        <ele>1260</ele>
        <time>2021-06-01T11:02:10.643Z</time>
      </trkpt>
      <trkpt lat="44.13741" lon="5.86169">
        <ele>1261</ele>
        <time>2021-06-01T11:02:11.643Z</time>
      </trkpt>
      <trkpt lat="44.13741" lon="5.86169">
        <ele>1261</ele>
        <time>2021-06-01T11:02:12.643Z</time>
      </trkpt>
      <trkpt lat="44.13741" lon="5.86169">
        <ele>1261</ele>
        <time>2021-06-01T11:02:13.643Z</time>
      </trkpt>
      <trkpt lat="44.13742" lon="5.8617">
        <ele>1261</ele>
        <time>2021-06-01T11:02:14.643Z</time>
      </trkpt>
      <trkpt lat="44.13742" lon="5.8617">
        <ele>1261</ele>
        <time>2021-06-01T11:02:15.643Z</time>
      </trkpt>
      <trkpt lat="44.13742" lon="5.8617">
        <ele>1261</ele>
        <time>2021-06-01T11:02:16.643Z</time>
      </trkpt>
      <trkpt lat="44.13742" lon="5.8617">
        <ele>1261</ele>
        <time>2021-06-01T11:02:17.643Z</time>
      </trkpt>
      <trkpt lat="44.13742" lon="5.8617">
        <ele>1261</ele>
        <time>2021-06-01T11:02:18.643Z</time>
      </trkpt>
      <trkpt lat="44.13742" lon="5.86171">
        <ele>1261</ele>
        <time>2021-06-01T11:02:19.643Z</time>
      </trkpt>
      <trkpt lat="44.13742" lon="5.86172">
        <ele>1261</ele>
        <time>2021-06-01T11:02:20.643Z</time>
      </trkpt>
      <trkpt lat="44.13743" lon="5.86173">
        <ele>1261</ele>
        <time>2021-06-01T11:02:21.643Z</time>
      </trkpt>
      <trkpt lat="44.13743" lon="5.86174">
        <ele>1261</ele>
        <time>2021-06-01T11:02:22.643Z</time>
      </trkpt>
      <trkpt lat="44.13744" lon="5.86175">
        <ele>1261</ele>
        <time>2021-06-01T11:02:23.643Z</time>
      </trkpt>
      <trkpt lat="44.13745" lon="5.86176">
        <ele>1261</ele>
        <time>2021-06-01T11:02:24.643Z</time>
      </trkpt>
      <trkpt lat="44.13745" lon="5.86178">
        <ele>1261</ele>
        <time>2021-06-01T11:02:25.643Z</time>
      </trkpt>
      <trkpt lat="44.13745" lon="5.86179">
        <ele>1261</ele>
        <time>2021-06-01T11:02:26.643Z</time>
      </trkpt>
      <trkpt lat="44.13746" lon="5.8618">
        <ele>1261</ele>
        <time>2021-06-01T11:02:27.643Z</time>
      </trkpt>
      <trkpt lat="44.13747" lon="5.86181">
        <ele>1261</ele>
        <time>2021-06-01T11:02:28.643Z</time>
      </trkpt>
      <trkpt lat="44.13747" lon="5.86182">
        <ele>1261</ele>
        <time>2021-06-01T11:02:29.643Z</time>
      </trkpt>
      <trkpt lat="44.13748" lon="5.86184">
        <ele>1261</ele>
        <time>2021-06-01T11:02:30.643Z</time>
      </trkpt>
      <trkpt lat="44.13748" lon="5.86185">
        <ele>1261</ele>
        <time>2021-06-01T11:02:31.643Z</time>
      </trkpt>
      <trkpt lat="44.13748" lon="5.86186">
        <ele>1261</ele>
        <time>2021-06-01T11:02:32.643Z</time>
      </trkpt>
      <trkpt lat="44.13749" lon="5.86188">
        <ele>1261</ele>
        <time>2021-06-01T11:02:33.643Z</time>
      </trkpt>
      <trkpt lat="44.13749" lon="5.86189">
        <ele>1261</ele>
        <time>2021-06-01T11:02:34.643Z</time>
      </trkpt>
      <trkpt lat="44.1375" lon="5.8619">
        <ele>1261</ele>
        <time>2021-06-01T11:02:35.643Z</time>
      </trkpt>
      <trkpt lat="44.1375" lon="5.86192">
        <ele>1261</ele>
        <time>2021-06-01T11:02:36.643Z</time>
      </trkpt>
      <trkpt lat="44.13751" lon="5.86193">
        <ele>1261</ele>
        <time>2021-06-01T11:02:37.643Z</time>
      </trkpt>
      <trkpt lat="44.13751" lon="5.86194">
        <ele>1261</ele>
        <time>2021-06-01T11:02:38.643Z</time>
      </trkpt>
      <trkpt lat="44.13752" lon="5.86195">
        <ele>1261</ele>
        <time>2021-06-01T11:02:39.643Z</time>
      </trkpt>
      <trkpt lat="44.13752" lon="5.86197">
        <ele>1261</ele>
        <time>2021-06-01T11:02:40.643Z</time>
      </trkpt>
      <trkpt lat="44.13753" lon="5.86198">
        <ele>1261</ele>
        <time>2021-06-01T11:02:41.643Z</time>
      </trkpt>
      <trkpt lat="44.13754" lon="5.86199">
        <ele>1261</ele>
        <time>2021-06-01T11:02:42.643Z</time>
      </trkpt>
      <trkpt lat="44.13754" lon="5.862">
        <ele>1261</ele>
        <time>2021-06-01T11:02:43.643Z</time>
      </trkpt>
      <trkpt lat="44.13755" lon="5.86201">
        <ele>1261</ele>
        <time>2021-06-01T11:02:44.643Z</time>
      </trkpt>
      <trkpt lat="44.13756" lon="5.86203">
        <ele>1261</ele>
        <time>2021-06-01T11:02:45.643Z</time>
      </trkpt>
      <trkpt lat="44.13756" lon="5.86204">
        <ele>1261</ele>
        <time>2021-06-01T11:02:46.643Z</time>
      </trkpt>
      <trkpt lat="44.13757" lon="5.86205">
        <ele>1261</ele>
        <time>2021-06-01T11:02:47.643Z</time>
      </trkpt>
      <trkpt lat="44.13758" lon="5.86207">
        <ele>1261</ele>
        <time>2021-06-01T11:02:48.643Z</time>
      </trkpt>
      <trkpt lat="44.13758" lon="5.86208">
        <ele>1261</ele>
        <time>2021-06-01T11:02:49.643Z</time>
      </trkpt>
      <trkpt lat="44.13759" lon="5.86209">
        <ele>1261</ele>
        <time>2021-06-01T11:02:50.643Z</time>
      </trkpt>
      <trkpt lat="44.13759" lon="5.8621">
        <ele>1261</ele>
        <time>2021-06-01T11:02:51.643Z</time>
      </trkpt>
      <trkpt lat="44.1376" lon="5.86211">
        <ele>1262</ele>
        <time>2021-06-01T11:02:52.643Z</time>
      </trkpt>
      <trkpt lat="44.13761" lon="5.86213">
        <ele>1262</ele>
        <time>2021-06-01T11:02:53.643Z</time>
      </trkpt>
      <trkpt lat="44.13761" lon="5.86214">
        <ele>1262</ele>
        <time>2021-06-01T11:02:54.643Z</time>
      </trkpt>
      <trkpt lat="44.13762" lon="5.86215">
        <ele>1262</ele>
        <time>2021-06-01T11:02:55.643Z</time>
      </trkpt>
      <trkpt lat="44.13763" lon="5.86216">
        <ele>1262</ele>
        <time>2021-06-01T11:02:56.643Z</time>
      </trkpt>
      <trkpt lat="44.13764" lon="5.86217">
        <ele>1262</ele>
        <time>2021-06-01T11:02:57.643Z</time>
      </trkpt>
      <trkpt lat="44.13765" lon="5.86218">
        <ele>1262</ele>
        <time>2021-06-01T11:02:58.643Z</time>
      </trkpt>
      <trkpt lat="44.13765" lon="5.86218">
        <ele>1262</ele>
        <time>2021-06-01T11:02:59.643Z</time>
      </trkpt>
      <trkpt lat="44.13766" lon="5.86219">
        <ele>1262</ele>
        <time>2021-06-01T11:03:00.643Z</time>
      </trkpt>
      <trkpt lat="44.13767" lon="5.86221">
        <ele>1262</ele>
        <time>2021-06-01T11:03:01.643Z</time>
      </trkpt>
      <trkpt lat="44.13767" lon="5.86222">
        <ele>1262</ele>
        <time>2021-06-01T11:03:02.643Z</time>
      </trkpt>
      <trkpt lat="44.13768" lon="5.86223">
        <ele>1263</ele>
        <time>2021-06-01T11:03:03.643Z</time>
      </trkpt>
      <trkpt lat="44.13769" lon="5.86224">
        <ele>1263</ele>
        <time>2021-06-01T11:03:04.643Z</time>
      </trkpt>
      <trkpt lat="44.13769" lon="5.86225">
        <ele>1263</ele>
        <time>2021-06-01T11:03:05.643Z</time>
      </trkpt>
      <trkpt lat="44.1377" lon="5.86226">
        <ele>1263</ele>
        <time>2021-06-01T11:03:06.643Z</time>
      </trkpt>
      <trkpt lat="44.13771" lon="5.86227">
        <ele>1263</ele>
        <time>2021-06-01T11:03:07.643Z</time>
      </trkpt>
      <trkpt lat="44.13771" lon="5.86228">
        <ele>1263</ele>
        <time>2021-06-01T11:03:08.643Z</time>
      </trkpt>
      <trkpt lat="44.13772" lon="5.86229">
        <ele>1263</ele>
        <time>2021-06-01T11:03:09.643Z</time>
      </trkpt>
      <trkpt lat="44.13773" lon="5.8623">
        <ele>1263</ele>
        <time>2021-06-01T11:03:10.643Z</time>
      </trkpt>
      <trkpt lat="44.13774" lon="5.86231">
        <ele>1263</ele>
        <time>2021-06-01T11:03:11.643Z</time>
      </trkpt>
      <trkpt lat="44.13774" lon="5.86232">
        <ele>1263</ele>
        <time>2021-06-01T11:03:12.643Z</time>
      </trkpt>
      <trkpt lat="44.13775" lon="5.86233">
        <ele>1263</ele>
        <time>2021-06-01T11:03:13.643Z</time>
      </trkpt>
      <trkpt lat="44.13776" lon="5.86234">
        <ele>1264</ele>
        <time>2021-06-01T11:03:14.643Z</time>
      </trkpt>
      <trkpt lat="44.13776" lon="5.86235">
        <ele>1264</ele>
        <time>2021-06-01T11:03:15.643Z</time>
      </trkpt>
      <trkpt lat="44.13777" lon="5.86236">
        <ele>1264</ele>
        <time>2021-06-01T11:03:16.643Z</time>
      </trkpt>
      <trkpt lat="44.13778" lon="5.86237">
        <ele>1264</ele>
        <time>2021-06-01T11:03:17.643Z</time>
      </trkpt>
      <trkpt lat="44.13778" lon="5.86238">
        <ele>1264</ele>
        <time>2021-06-01T11:03:18.643Z</time>
      </trkpt>
      <trkpt lat="44.13779" lon="5.86239">
        <ele>1264</ele>
        <time>2021-06-01T11:03:19.643Z</time>
      </trkpt>
      <trkpt lat="44.1378" lon="5.8624">
        <ele>1264</ele>
        <time>2021-06-01T11:03:20.643Z</time>
      </trkpt>
      <trkpt lat="44.1378" lon="5.86242">
        <ele>1264</ele>
        <time>2021-06-01T11:03:21.643Z</time>
      </trkpt>
      <trkpt lat="44.13781" lon="5.86243">
        <ele>1265</ele>
        <time>2021-06-01T11:03:22.643Z</time>
      </trkpt>
      <trkpt lat="44.13781" lon="5.86244">
        <ele>1265</ele>
        <time>2021-06-01T11:03:23.643Z</time>
      </trkpt>
      <trkpt lat="44.13782" lon="5.86245">
        <ele>1265</ele>
        <time>2021-06-01T11:03:24.643Z</time>
      </trkpt>
      <trkpt lat="44.13783" lon="5.86246">
        <ele>1265</ele>
        <time>2021-06-01T11:03:25.643Z</time>
      </trkpt>
      <trkpt lat="44.13783" lon="5.86248">
        <ele>1265</ele>
        <time>2021-06-01T11:03:26.643Z</time>
      </trkpt>
      <trkpt lat="44.13784" lon="5.86248">
        <ele>1265</ele>
        <time>2021-06-01T11:03:27.643Z</time>
      </trkpt>
      <trkpt lat="44.13785" lon="5.86249">
        <ele>1265</ele>
        <time>2021-06-01T11:03:28.643Z</time>
      </trkpt>
      <trkpt lat="44.13785" lon="5.8625">
        <ele>1265</ele>
        <time>2021-06-01T11:03:29.643Z</time>
      </trkpt>
      <trkpt lat="44.13786" lon="5.86251">
        <ele>1266</ele>
        <time>2021-06-01T11:03:30.643Z</time>
      </trkpt>
      <trkpt lat="44.13787" lon="5.86252">
        <ele>1266</ele>
        <time>2021-06-01T11:03:31.643Z</time>
      </trkpt>
      <trkpt lat="44.13787" lon="5.86253">
        <ele>1266</ele>
        <time>2021-06-01T11:03:32.643Z</time>
      </trkpt>
      <trkpt lat="44.13788" lon="5.86255">
        <ele>1266</ele>
        <time>2021-06-01T11:03:33.643Z</time>
      </trkpt>
      <trkpt lat="44.13789" lon="5.86256">
        <ele>1266</ele>
        <time>2021-06-01T11:03:34.643Z</time>
      </trkpt>
      <trkpt lat="44.13789" lon="5.86257">
        <ele>1266</ele>
        <time>2021-06-01T11:03:35.643Z</time>
      </trkpt>
      <trkpt lat="44.1379" lon="5.86258">
        <ele>1266</ele>
        <time>2021-06-01T11:03:36.643Z</time>
      </trkpt>
      <trkpt lat="44.13791" lon="5.86259">
        <ele>1266</ele>
        <time>2021-06-01T11:03:37.643Z</time>
      </trkpt>
      <trkpt lat="44.13791" lon="5.8626">
        <ele>1266</ele>
        <time>2021-06-01T11:03:38.643Z</time>
      </trkpt>
      <trkpt lat="44.13792" lon="5.86261">
        <ele>1266</ele>
        <time>2021-06-01T11:03:39.643Z</time>
      </trkpt>
      <trkpt lat="44.13793" lon="5.86262">
        <ele>1267</ele>
        <time>2021-06-01T11:03:40.643Z</time>
      </trkpt>
      <trkpt lat="44.13793" lon="5.86264">
        <ele>1267</ele>
        <time>2021-06-01T11:03:41.643Z</time>
      </trkpt>
      <trkpt lat="44.13793" lon="5.86265">
        <ele>1267</ele>
        <time>2021-06-01T11:03:42.643Z</time>
      </trkpt>
      <trkpt lat="44.13794" lon="5.86266">
        <ele>1267</ele>
        <time>2021-06-01T11:03:43.643Z</time>
      </trkpt>
      <trkpt lat="44.13795" lon="5.86267">
        <ele>1267</ele>
        <time>2021-06-01T11:03:44.643Z</time>
      </trkpt>
      <trkpt lat="44.13795" lon="5.86268">
        <ele>1267</ele>
        <time>2021-06-01T11:03:45.643Z</time>
      </trkpt>
      <trkpt lat="44.13796" lon="5.86269">
        <ele>1267</ele>
        <time>2021-06-01T11:03:46.643Z</time>
      </trkpt>
      <trkpt lat="44.13797" lon="5.8627">
        <ele>1267</ele>
        <time>2021-06-01T11:03:47.643Z</time>
      </trkpt>
      <trkpt lat="44.13797" lon="5.86271">
        <ele>1267</ele>
        <time>2021-06-01T11:03:48.643Z</time>
      </trkpt>
      <trkpt lat="44.13798" lon="5.86272">
        <ele>1267</ele>
        <time>2021-06-01T11:03:49.643Z</time>
      </trkpt>
      <trkpt lat="44.13799" lon="5.86273">
        <ele>1267</ele>
        <time>2021-06-01T11:03:50.643Z</time>
      </trkpt>
      <trkpt lat="44.13799" lon="5.86274">
        <ele>1267</ele>
        <time>2021-06-01T11:03:51.643Z</time>
      </trkpt>
      <trkpt lat="44.138" lon="5.86275">
        <ele>1267</ele>
        <time>2021-06-01T11:03:52.643Z</time>
      </trkpt>
      <trkpt lat="44.13801" lon="5.86276">
        <ele>1267</ele>
        <time>2021-06-01T11:03:53.643Z</time>
      </trkpt>
      <trkpt lat="44.13801" lon="5.86277">
        <ele>1267</ele>
        <time>2021-06-01T11:03:54.643Z</time>
      </trkpt>
      <trkpt lat="44.13802" lon="5.86278">
        <ele>1267</ele>
        <time>2021-06-01T11:03:55.643Z</time>
      </trkpt>
      <trkpt lat="44.13803" lon="5.86279">
        <ele>1267</ele>
        <time>2021-06-01T11:03:56.643Z</time>
      </trkpt>
      <trkpt lat="44.13803" lon="5.8628">
        <ele>1268</ele>
        <time>2021-06-01T11:03:57.643Z</time>
      </trkpt>
      <trkpt lat="44.13804" lon="5.86281">
        <ele>1268</ele>
        <time>2021-06-01T11:03:58.643Z</time>
      </trkpt>
      <trkpt lat="44.13805" lon="5.86282">
        <ele>1268</ele>
        <time>2021-06-01T11:03:59.643Z</time>
      </trkpt>
      <trkpt lat="44.13806" lon="5.86283">
        <ele>1268</ele>
        <time>2021-06-01T11:04:00.643Z</time>
      </trkpt>
      <trkpt lat="44.13806" lon="5.86284">
        <ele>1268</ele>
        <time>2021-06-01T11:04:01.643Z</time>
      </trkpt>
      <trkpt lat="44.13807" lon="5.86285">
        <ele>1268</ele>
        <time>2021-06-01T11:04:02.643Z</time>
      </trkpt>
      <trkpt lat="44.13808" lon="5.86285">
        <ele>1268</ele>
        <time>2021-06-01T11:04:03.643Z</time>
      </trkpt>
      <trkpt lat="44.13809" lon="5.86286">
        <ele>1268</ele>
        <time>2021-06-01T11:04:04.643Z</time>
      </trkpt>
      <trkpt lat="44.1381" lon="5.86287">
        <ele>1268</ele>
        <time>2021-06-01T11:04:05.643Z</time>
      </trkpt>
      <trkpt lat="44.1381" lon="5.86288">
        <ele>1268</ele>
        <time>2021-06-01T11:04:06.643Z</time>
      </trkpt>
      <trkpt lat="44.13811" lon="5.86289">
        <ele>1268</ele>
        <time>2021-06-01T11:04:07.643Z</time>
      </trkpt>
      <trkpt lat="44.13812" lon="5.86289">
        <ele>1268</ele>
        <time>2021-06-01T11:04:08.643Z</time>
      </trkpt>
      <trkpt lat="44.13812" lon="5.8629">
        <ele>1268</ele>
        <time>2021-06-01T11:04:09.643Z</time>
      </trkpt>
      <trkpt lat="44.13813" lon="5.86291">
        <ele>1268</ele>
        <time>2021-06-01T11:04:10.643Z</time>
      </trkpt>
      <trkpt lat="44.13814" lon="5.86292">
        <ele>1268</ele>
        <time>2021-06-01T11:04:11.643Z</time>
      </trkpt>
      <trkpt lat="44.13814" lon="5.86293">
        <ele>1268</ele>
        <time>2021-06-01T11:04:12.643Z</time>
      </trkpt>
      <trkpt lat="44.13815" lon="5.86293">
        <ele>1268</ele>
        <time>2021-06-01T11:04:13.643Z</time>
      </trkpt>
      <trkpt lat="44.13816" lon="5.86294">
        <ele>1268</ele>
        <time>2021-06-01T11:04:14.643Z</time>
      </trkpt>
      <trkpt lat="44.13816" lon="5.86294">
        <ele>1268</ele>
        <time>2021-06-01T11:04:15.643Z</time>
      </trkpt>
      <trkpt lat="44.13817" lon="5.86295">
        <ele>1268</ele>
        <time>2021-06-01T11:04:16.643Z</time>
      </trkpt>
      <trkpt lat="44.13817" lon="5.86296">
        <ele>1268</ele>
        <time>2021-06-01T11:04:17.643Z</time>
      </trkpt>
      <trkpt lat="44.13818" lon="5.86296">
        <ele>1268</ele>
        <time>2021-06-01T11:04:18.643Z</time>
      </trkpt>
      <trkpt lat="44.13819" lon="5.86296">
        <ele>1268</ele>
        <time>2021-06-01T11:04:19.643Z</time>
      </trkpt>
      <trkpt lat="44.13819" lon="5.86296">
        <ele>1268</ele>
        <time>2021-06-01T11:04:20.643Z</time>
      </trkpt>
      <trkpt lat="44.1382" lon="5.86296">
        <ele>1268</ele>
        <time>2021-06-01T11:04:21.643Z</time>
      </trkpt>
      <trkpt lat="44.1382" lon="5.86296">
        <ele>1268</ele>
        <time>2021-06-01T11:04:22.643Z</time>
      </trkpt>
      <trkpt lat="44.1382" lon="5.86297">
        <ele>1268</ele>
        <time>2021-06-01T11:04:23.643Z</time>
      </trkpt>
      <trkpt lat="44.1382" lon="5.86297">
        <ele>1268</ele>
        <time>2021-06-01T11:04:24.643Z</time>
      </trkpt>
      <trkpt lat="44.1382" lon="5.86297">
        <ele>1268</ele>
        <time>2021-06-01T11:04:25.643Z</time>
      </trkpt>
      <trkpt lat="44.1382" lon="5.86297">
        <ele>1268</ele>
        <time>2021-06-01T11:04:26.643Z</time>
      </trkpt>
      <trkpt lat="44.1382" lon="5.86297">
        <ele>1268</ele>
        <time>2021-06-01T11:04:27.643Z</time>
      </trkpt>
      <trkpt lat="44.1382" lon="5.86296">
        <ele>1268</ele>
        <time>2021-06-01T11:04:28.643Z</time>
      </trkpt>
      <trkpt lat="44.1382" lon="5.86296">
        <ele>1268</ele>
        <time>2021-06-01T11:04:29.643Z</time>
      </trkpt>
      <trkpt lat="44.1382" lon="5.86296">
        <ele>1268</ele>
        <time>2021-06-01T11:04:30.643Z</time>
      </trkpt>
      <trkpt lat="44.1382" lon="5.86296">
        <ele>1268</ele>
        <time>2021-06-01T11:04:31.643Z</time>
      </trkpt>
      <trkpt lat="44.1382" lon="5.86296">
        <ele>1268</ele>
        <time>2021-06-01T11:04:32.643Z</time>
      </trkpt>
      <trkpt lat="44.1382" lon="5.86296">
        <ele>1268</ele>
        <time>2021-06-01T11:04:33.643Z</time>
      </trkpt>
      <trkpt lat="44.1382" lon="5.86296">
        <ele>1268</ele>
        <time>2021-06-01T11:04:34.643Z</time>
      </trkpt>
      <trkpt lat="44.1382" lon="5.86296">
        <ele>1268</ele>
        <time>2021-06-01T11:04:35.643Z</time>
      </trkpt>
      <trkpt lat="44.1382" lon="5.86296">
        <ele>1268</ele>
        <time>2021-06-01T11:04:36.643Z</time>
      </trkpt>
      <trkpt lat="44.1382" lon="5.86296">
        <ele>1268</ele>
        <time>2021-06-01T11:04:37.643Z</time>
      </trkpt>
      <trkpt lat="44.1382" lon="5.86296">
        <ele>1268</ele>
        <time>2021-06-01T11:04:38.643Z</time>
      </trkpt>
      <trkpt lat="44.1382" lon="5.86296">
        <ele>1268</ele>
        <time>2021-06-01T11:04:39.643Z</time>
      </trkpt>
      <trkpt lat="44.1382" lon="5.86296">
        <ele>1268</ele>
        <time>2021-06-01T11:04:40.643Z</time>
      </trkpt>
      <trkpt lat="44.1382" lon="5.86296">
        <ele>1268</ele>
        <time>2021-06-01T11:04:41.643Z</time>
      </trkpt>
      <trkpt lat="44.1382" lon="5.86296">
        <ele>1268</ele>
        <time>2021-06-01T11:04:42.643Z</time>
      </trkpt>
      <trkpt lat="44.1382" lon="5.86296">
        <ele>1268</ele>
        <time>2021-06-01T11:04:43.643Z</time>
      </trkpt>
      <trkpt lat="44.1382" lon="5.86296">
        <ele>1268</ele>
        <time>2021-06-01T11:04:44.643Z</time>
      </trkpt>
      <trkpt lat="44.1382" lon="5.86296">
        <ele>1268</ele>
        <time>2021-06-01T11:04:45.643Z</time>
      </trkpt>
      <trkpt lat="44.1382" lon="5.86296">
        <ele>1268</ele>
        <time>2021-06-01T11:04:46.643Z</time>
      </trkpt>
      <trkpt lat="44.1382" lon="5.86296">
        <ele>1268</ele>
        <time>2021-06-01T11:04:47.643Z</time>
      </trkpt>
      <trkpt lat="44.1382" lon="5.86296">
        <ele>1268</ele>
        <time>2021-06-01T11:04:48.643Z</time>
      </trkpt>
      <trkpt lat="44.1382" lon="5.86296">
        <ele>1268</ele>
        <time>2021-06-01T11:04:49.643Z</time>
      </trkpt>
      <trkpt lat="44.1382" lon="5.86296">
        <ele>1268</ele>
        <time>2021-06-01T11:04:50.643Z</time>
      </trkpt>
      <trkpt lat="44.1382" lon="5.86296">
        <ele>1268</ele>
        <time>2021-06-01T11:04:51.643Z</time>
      </trkpt>
      <trkpt lat="44.13821" lon="5.86296">
        <ele>1268</ele>
        <time>2021-06-01T11:04:52.643Z</time>
      </trkpt>
      <trkpt lat="44.13821" lon="5.86296">
        <ele>1268</ele>
        <time>2021-06-01T11:04:53.643Z</time>
      </trkpt>
      <trkpt lat="44.1382" lon="5.86296">
        <ele>1268</ele>
        <time>2021-06-01T11:04:54.643Z</time>
      </trkpt>
      <trkpt lat="44.1382" lon="5.86296">
        <ele>1268</ele>
        <time>2021-06-01T11:04:55.643Z</time>
      </trkpt>
      <trkpt lat="44.1382" lon="5.86296">
        <ele>1268</ele>
        <time>2021-06-01T11:04:56.643Z</time>
      </trkpt>
      <trkpt lat="44.1382" lon="5.86296">
        <ele>1268</ele>
        <time>2021-06-01T11:04:57.643Z</time>
      </trkpt>
      <trkpt lat="44.1382" lon="5.86296">
        <ele>1268</ele>
        <time>2021-06-01T11:04:58.643Z</time>
      </trkpt>
      <trkpt lat="44.1382" lon="5.86296">
        <ele>1268</ele>
        <time>2021-06-01T11:04:59.643Z</time>
      </trkpt>
      <trkpt lat="44.1382" lon="5.86296">
        <ele>1268</ele>
        <time>2021-06-01T11:05:00.643Z</time>
      </trkpt>
      <trkpt lat="44.1382" lon="5.86296">
        <ele>1268</ele>
        <time>2021-06-01T11:05:01.643Z</time>
      </trkpt>
      <trkpt lat="44.1382" lon="5.86296">
        <ele>1268</ele>
        <time>2021-06-01T11:05:02.643Z</time>
      </trkpt>
      <trkpt lat="44.1382" lon="5.86296">
        <ele>1268</ele>
        <time>2021-06-01T11:05:03.643Z</time>
      </trkpt>
      <trkpt lat="44.1382" lon="5.86296">
        <ele>1268</ele>
        <time>2021-06-01T11:05:04.643Z</time>
      </trkpt>
      <trkpt lat="44.1382" lon="5.86296">
        <ele>1268</ele>
        <time>2021-06-01T11:05:05.643Z</time>
      </trkpt>
      <trkpt lat="44.1382" lon="5.86296">
        <ele>1268</ele>
        <time>2021-06-01T11:05:06.643Z</time>
      </trkpt>
      <trkpt lat="44.1382" lon="5.86296">
        <ele>1268</ele>
        <time>2021-06-01T11:05:07.643Z</time>
      </trkpt>
      <trkpt lat="44.1382" lon="5.86296">
        <ele>1268</ele>
        <time>2021-06-01T11:05:08.643Z</time>
      </trkpt>
      <trkpt lat="44.1382" lon="5.86296">
        <ele>1268</ele>
        <time>2021-06-01T11:05:09.643Z</time>
      </trkpt>
      <trkpt lat="44.1382" lon="5.86296">
        <ele>1268</ele>
        <time>2021-06-01T11:05:10.643Z</time>
      </trkpt>
      <trkpt lat="44.1382" lon="5.86296">
        <ele>1268</ele>
        <time>2021-06-01T11:05:11.643Z</time>
      </trkpt>
      <trkpt lat="44.1382" lon="5.86296">
        <ele>1268</ele>
        <time>2021-06-01T11:05:12.643Z</time>
      </trkpt>
      <trkpt lat="44.1382" lon="5.86296">
        <ele>1268</ele>
        <time>2021-06-01T11:05:13.643Z</time>
      </trkpt>
      <trkpt lat="44.1382" lon="5.86296">
        <ele>1268</ele>
        <time>2021-06-01T11:05:14.643Z</time>
      </trkpt>
      <trkpt lat="44.1382" lon="5.86296">
        <ele>1268</ele>
        <time>2021-06-01T11:05:15.643Z</time>
      </trkpt>
      <trkpt lat="44.1382" lon="5.86296">
        <ele>1268</ele>
        <time>2021-06-01T11:05:16.643Z</time>
      </trkpt>
      <trkpt lat="44.1382" lon="5.86296">
        <ele>1268</ele>
        <time>2021-06-01T11:05:17.643Z</time>
      </trkpt>
      <trkpt lat="44.1382" lon="5.86296">
        <ele>1268</ele>
        <time>2021-06-01T11:05:18.643Z</time>
      </trkpt>
      <trkpt lat="44.1382" lon="5.86296">
        <ele>1268</ele>
        <time>2021-06-01T11:05:19.643Z</time>
      </trkpt>
      <trkpt lat="44.1382" lon="5.86296">
        <ele>1268</ele>
        <time>2021-06-01T11:05:20.643Z</time>
      </trkpt>
      <trkpt lat="44.1382" lon="5.86296">
        <ele>1268</ele>
        <time>2021-06-01T11:05:21.643Z</time>
      </trkpt>
      <trkpt lat="44.1382" lon="5.86296">
        <ele>1268</ele>
        <time>2021-06-01T11:05:22.643Z</time>
      </trkpt>
      <trkpt lat="44.1382" lon="5.86296">
        <ele>1268</ele>
        <time>2021-06-01T11:05:23.643Z</time>
      </trkpt>
      <trkpt lat="44.1382" lon="5.86296">
        <ele>1268</ele>
        <time>2021-06-01T11:05:24.643Z</time>
      </trkpt>
      <trkpt lat="44.13821" lon="5.86296">
        <ele>1268</ele>
        <time>2021-06-01T11:05:25.643Z</time>
      </trkpt>
      <trkpt lat="44.13821" lon="5.86296">
        <ele>1268</ele>
        <time>2021-06-01T11:05:26.643Z</time>
      </trkpt>
      <trkpt lat="44.13821" lon="5.86296">
        <ele>1268</ele>
        <time>2021-06-01T11:05:27.643Z</time>
      </trkpt>
      <trkpt lat="44.13821" lon="5.86296">
        <ele>1268</ele>
        <time>2021-06-01T11:05:28.643Z</time>
      </trkpt>
      <trkpt lat="44.13821" lon="5.86296">
        <ele>1268</ele>
        <time>2021-06-01T11:05:29.643Z</time>
      </trkpt>
      <trkpt lat="44.13821" lon="5.86296">
        <ele>1268</ele>
        <time>2021-06-01T11:05:30.643Z</time>
      </trkpt>
      <trkpt lat="44.13821" lon="5.86296">
        <ele>1268</ele>
        <time>2021-06-01T11:05:31.643Z</time>
      </trkpt>
      <trkpt lat="44.13821" lon="5.86296">
        <ele>1268</ele>
        <time>2021-06-01T11:05:32.643Z</time>
      </trkpt>
      <trkpt lat="44.13821" lon="5.86295">
        <ele>1268</ele>
        <time>2021-06-01T11:05:33.643Z</time>
      </trkpt>
      <trkpt lat="44.13821" lon="5.86296">
        <ele>1268</ele>
        <time>2021-06-01T11:05:34.643Z</time>
      </trkpt>
      <trkpt lat="44.13821" lon="5.86296">
        <ele>1268</ele>
        <time>2021-06-01T11:05:35.643Z</time>
      </trkpt>
      <trkpt lat="44.13821" lon="5.86295">
        <ele>1268</ele>
        <time>2021-06-01T11:05:36.643Z</time>
      </trkpt>
      <trkpt lat="44.13821" lon="5.86295">
        <ele>1268</ele>
        <time>2021-06-01T11:05:37.643Z</time>
      </trkpt>
      <trkpt lat="44.13821" lon="5.86295">
        <ele>1268</ele>
        <time>2021-06-01T11:05:38.643Z</time>
      </trkpt>
      <trkpt lat="44.13821" lon="5.86295">
        <ele>1268</ele>
        <time>2021-06-01T11:05:39.643Z</time>
      </trkpt>
      <trkpt lat="44.13821" lon="5.86295">
        <ele>1268</ele>
        <time>2021-06-01T11:05:40.643Z</time>
      </trkpt>
      <trkpt lat="44.13821" lon="5.86295">
        <ele>1268</ele>
        <time>2021-06-01T11:05:41.643Z</time>
      </trkpt>
      <trkpt lat="44.13821" lon="5.86295">
        <ele>1268</ele>
        <time>2021-06-01T11:05:42.643Z</time>
      </trkpt>
      <trkpt lat="44.13821" lon="5.86295">
        <ele>1268</ele>
        <time>2021-06-01T11:05:43.643Z</time>
      </trkpt>
      <trkpt lat="44.13821" lon="5.86295">
        <ele>1268</ele>
        <time>2021-06-01T11:05:44.643Z</time>
      </trkpt>
      <trkpt lat="44.13821" lon="5.86295">
        <ele>1268</ele>
        <time>2021-06-01T11:05:45.643Z</time>
      </trkpt>
      <trkpt lat="44.13821" lon="5.86295">
        <ele>1268</ele>
        <time>2021-06-01T11:05:46.643Z</time>
      </trkpt>
      <trkpt lat="44.13821" lon="5.86295">
        <ele>1268</ele>
        <time>2021-06-01T11:05:47.643Z</time>
      </trkpt>
      <trkpt lat="44.13821" lon="5.86295">
        <ele>1268</ele>
        <time>2021-06-01T11:05:48.643Z</time>
      </trkpt>
      <trkpt lat="44.13821" lon="5.86295">
        <ele>1268</ele>
        <time>2021-06-01T11:05:49.643Z</time>
      </trkpt>
      <trkpt lat="44.13821" lon="5.86295">
        <ele>1268</ele>
        <time>2021-06-01T11:05:50.643Z</time>
      </trkpt>
      <trkpt lat="44.13821" lon="5.86295">
        <ele>1268</ele>
        <time>2021-06-01T11:05:51.643Z</time>
      </trkpt>
      <trkpt lat="44.13821" lon="5.86295">
        <ele>1268</ele>
        <time>2021-06-01T11:05:52.643Z</time>
      </trkpt>
      <trkpt lat="44.13821" lon="5.86295">
        <ele>1268</ele>
        <time>2021-06-01T11:05:53.643Z</time>
      </trkpt>
      <trkpt lat="44.13821" lon="5.86295">
        <ele>1268</ele>
        <time>2021-06-01T11:05:54.643Z</time>
      </trkpt>
      <trkpt lat="44.13821" lon="5.86295">
        <ele>1268</ele>
        <time>2021-06-01T11:05:55.643Z</time>
      </trkpt>
      <trkpt lat="44.13821" lon="5.86295">
        <ele>1268</ele>
        <time>2021-06-01T11:05:56.643Z</time>
      </trkpt>
      <trkpt lat="44.13821" lon="5.86295">
        <ele>1268</ele>
        <time>2021-06-01T11:05:57.643Z</time>
      </trkpt>
      <trkpt lat="44.13821" lon="5.86295">
        <ele>1268</ele>
        <time>2021-06-01T11:05:58.643Z</time>
      </trkpt>
      <trkpt lat="44.13821" lon="5.86295">
        <ele>1268</ele>
        <time>2021-06-01T11:05:59.643Z</time>
      </trkpt>
      <trkpt lat="44.13821" lon="5.86295">
        <ele>1268</ele>
        <time>2021-06-01T11:06:00.643Z</time>
      </trkpt>
      <trkpt lat="44.13821" lon="5.86295">
        <ele>1268</ele>
        <time>2021-06-01T11:06:01.643Z</time>
      </trkpt>
      <trkpt lat="44.13821" lon="5.86295">
        <ele>1268</ele>
        <time>2021-06-01T11:06:02.643Z</time>
      </trkpt>
      <trkpt lat="44.13821" lon="5.86296">
        <ele>1268</ele>
        <time>2021-06-01T11:06:03.643Z</time>
      </trkpt>
      <trkpt lat="44.13821" lon="5.86296">
        <ele>1268</ele>
        <time>2021-06-01T11:06:04.643Z</time>
      </trkpt>
      <trkpt lat="44.13821" lon="5.86296">
        <ele>1268</ele>
        <time>2021-06-01T11:06:05.643Z</time>
      </trkpt>
      <trkpt lat="44.13821" lon="5.86296">
        <ele>1268</ele>
        <time>2021-06-01T11:06:06.643Z</time>
      </trkpt>
      <trkpt lat="44.13821" lon="5.86296">
        <ele>1268</ele>
        <time>2021-06-01T11:06:07.643Z</time>
      </trkpt>
      <trkpt lat="44.13821" lon="5.86296">
        <ele>1268</ele>
        <time>2021-06-01T11:06:08.643Z</time>
      </trkpt>
      <trkpt lat="44.13821" lon="5.86296">
        <ele>1268</ele>
        <time>2021-06-01T11:06:09.643Z</time>
      </trkpt>
      <trkpt lat="44.13821" lon="5.86296">
        <ele>1268</ele>
        <time>2021-06-01T11:06:10.643Z</time>
      </trkpt>
      <trkpt lat="44.13821" lon="5.86296">
        <ele>1268</ele>
        <time>2021-06-01T11:06:11.643Z</time>
      </trkpt>
      <trkpt lat="44.13821" lon="5.86295">
        <ele>1268</ele>
        <time>2021-06-01T11:06:12.643Z</time>
      </trkpt>
      <trkpt lat="44.13821" lon="5.86295">
        <ele>1268</ele>
        <time>2021-06-01T11:06:13.643Z</time>
      </trkpt>
      <trkpt lat="44.13821" lon="5.86295">
        <ele>1268</ele>
        <time>2021-06-01T11:06:14.643Z</time>
      </trkpt>
      <trkpt lat="44.13821" lon="5.86295">
        <ele>1268</ele>
        <time>2021-06-01T11:06:15.643Z</time>
      </trkpt>
      <trkpt lat="44.13821" lon="5.86295">
        <ele>1268</ele>
        <time>2021-06-01T11:06:16.643Z</time>
      </trkpt>
      <trkpt lat="44.13821" lon="5.86295">
        <ele>1268</ele>
        <time>2021-06-01T11:06:17.643Z</time>
      </trkpt>
      <trkpt lat="44.13821" lon="5.86296">
        <ele>1268</ele>
        <time>2021-06-01T11:06:18.643Z</time>
      </trkpt>
      <trkpt lat="44.13821" lon="5.86296">
        <ele>1268</ele>
        <time>2021-06-01T11:06:19.643Z</time>
      </trkpt>
      <trkpt lat="44.13821" lon="5.86295">
        <ele>1268</ele>
        <time>2021-06-01T11:06:20.643Z</time>
      </trkpt>
      <trkpt lat="44.13821" lon="5.86295">
        <ele>1268</ele>
        <time>2021-06-01T11:06:21.643Z</time>
      </trkpt>
      <trkpt lat="44.13821" lon="5.86296">
        <ele>1268</ele>
        <time>2021-06-01T11:06:22.643Z</time>
      </trkpt>
      <trkpt lat="44.13821" lon="5.86296">
        <ele>1268</ele>
        <time>2021-06-01T11:06:23.643Z</time>
      </trkpt>
      <trkpt lat="44.13821" lon="5.86296">
        <ele>1268</ele>
        <time>2021-06-01T11:06:24.643Z</time>
      </trkpt>
      <trkpt lat="44.13821" lon="5.86296">
        <ele>1268</ele>
        <time>2021-06-01T11:06:25.643Z</time>
      </trkpt>
      <trkpt lat="44.13821" lon="5.86296">
        <ele>1268</ele>
        <time>2021-06-01T11:06:26.643Z</time>
      </trkpt>
      <trkpt lat="44.13821" lon="5.86296">
        <ele>1268</ele>
        <time>2021-06-01T11:06:27.643Z</time>
      </trkpt>
      <trkpt lat="44.13821" lon="5.86296">
        <ele>1268</ele>
        <time>2021-06-01T11:06:28.643Z</time>
      </trkpt>
      <trkpt lat="44.13821" lon="5.86296">
        <ele>1268</ele>
        <time>2021-06-01T11:06:29.643Z</time>
      </trkpt>
      <trkpt lat="44.13821" lon="5.86296">
        <ele>1268</ele>
        <time>2021-06-01T11:06:30.643Z</time>
      </trkpt>
      <trkpt lat="44.13821" lon="5.86296">
        <ele>1268</ele>
        <time>2021-06-01T11:06:31.643Z</time>
      </trkpt>
      <trkpt lat="44.13821" lon="5.86296">
        <ele>1268</ele>
        <time>2021-06-01T11:06:32.643Z</time>
      </trkpt>
      <trkpt lat="44.13821" lon="5.86296">
        <ele>1268</ele>
        <time>2021-06-01T11:06:33.643Z</time>
      </trkpt>
      <trkpt lat="44.13821" lon="5.86295">
        <ele>1268</ele>
        <time>2021-06-01T11:06:34.643Z</time>
      </trkpt>
      <trkpt lat="44.13821" lon="5.86296">
        <ele>1268</ele>
        <time>2021-06-01T11:06:35.643Z</time>
      </trkpt>
      <trkpt lat="44.13821" lon="5.86296">
        <ele>1268</ele>
        <time>2021-06-01T11:06:36.643Z</time>
      </trkpt>
      <trkpt lat="44.13821" lon="5.86295">
        <ele>1268</ele>
        <time>2021-06-01T11:06:37.643Z</time>
      </trkpt>
      <trkpt lat="44.13821" lon="5.86296">
        <ele>1268</ele>
        <time>2021-06-01T11:06:38.643Z</time>
      </trkpt>
      <trkpt lat="44.13821" lon="5.86296">
        <ele>1268</ele>
        <time>2021-06-01T11:06:39.643Z</time>
      </trkpt>
      <trkpt lat="44.13821" lon="5.86296">
        <ele>1268</ele>
        <time>2021-06-01T11:06:40.643Z</time>
      </trkpt>
      <trkpt lat="44.13821" lon="5.86296">
        <ele>1268</ele>
        <time>2021-06-01T11:06:41.643Z</time>
      </trkpt>
      <trkpt lat="44.13821" lon="5.86295">
        <ele>1268</ele>
        <time>2021-06-01T11:06:42.643Z</time>
      </trkpt>
      <trkpt lat="44.13821" lon="5.86295">
        <ele>1268</ele>
        <time>2021-06-01T11:06:43.643Z</time>
      </trkpt>
      <trkpt lat="44.13821" lon="5.86295">
        <ele>1268</ele>
        <time>2021-06-01T11:06:44.643Z</time>
      </trkpt>
      <trkpt lat="44.13821" lon="5.86295">
        <ele>1267</ele>
        <time>2021-06-01T11:06:45.643Z</time>
      </trkpt>
      <trkpt lat="44.13821" lon="5.86295">
        <ele>1267</ele>
        <time>2021-06-01T11:06:46.643Z</time>
      </trkpt>
      <trkpt lat="44.13821" lon="5.86295">
        <ele>1267</ele>
        <time>2021-06-01T11:06:47.643Z</time>
      </trkpt>
      <trkpt lat="44.13821" lon="5.86295">
        <ele>1267</ele>
        <time>2021-06-01T11:06:48.643Z</time>
      </trkpt>
      <trkpt lat="44.13821" lon="5.86295">
        <ele>1267</ele>
        <time>2021-06-01T11:06:49.643Z</time>
      </trkpt>
      <trkpt lat="44.13821" lon="5.86295">
        <ele>1267</ele>
        <time>2021-06-01T11:06:50.643Z</time>
      </trkpt>
      <trkpt lat="44.13821" lon="5.86295">
        <ele>1267</ele>
        <time>2021-06-01T11:06:51.643Z</time>
      </trkpt>
      <trkpt lat="44.13821" lon="5.86295">
        <ele>1267</ele>
        <time>2021-06-01T11:06:52.643Z</time>
      </trkpt>
      <trkpt lat="44.13821" lon="5.86295">
        <ele>1267</ele>
        <time>2021-06-01T11:06:53.643Z</time>
      </trkpt>
      <trkpt lat="44.13821" lon="5.86295">
        <ele>1267</ele>
        <time>2021-06-01T11:06:54.643Z</time>
      </trkpt>
      <trkpt lat="44.13821" lon="5.86295">
        <ele>1267</ele>
        <time>2021-06-01T11:06:55.643Z</time>
      </trkpt>
      <trkpt lat="44.13821" lon="5.86295">
        <ele>1267</ele>
        <time>2021-06-01T11:06:56.643Z</time>
      </trkpt>
      <trkpt lat="44.13821" lon="5.86295">
        <ele>1267</ele>
        <time>2021-06-01T11:06:57.643Z</time>
      </trkpt>
      <trkpt lat="44.13821" lon="5.86295">
        <ele>1267</ele>
        <time>2021-06-01T11:06:58.643Z</time>
      </trkpt>
      <trkpt lat="44.13821" lon="5.86295">
        <ele>1267</ele>
        <time>2021-06-01T11:06:59.643Z</time>
      </trkpt>
      <trkpt lat="44.13821" lon="5.86295">
        <ele>1267</ele>
        <time>2021-06-01T11:07:00.643Z</time>
      </trkpt>
      <trkpt lat="44.13821" lon="5.86295">
        <ele>1267</ele>
        <time>2021-06-01T11:07:01.643Z</time>
      </trkpt>
      <trkpt lat="44.13821" lon="5.86295">
        <ele>1267</ele>
        <time>2021-06-01T11:07:02.643Z</time>
      </trkpt>
      <trkpt lat="44.13821" lon="5.86295">
        <ele>1267</ele>
        <time>2021-06-01T11:07:03.643Z</time>
      </trkpt>
      <trkpt lat="44.13821" lon="5.86295">
        <ele>1267</ele>
        <time>2021-06-01T11:07:04.643Z</time>
      </trkpt>
      <trkpt lat="44.1382" lon="5.86295">
        <ele>1267</ele>
        <time>2021-06-01T11:07:05.643Z</time>
      </trkpt>
      <trkpt lat="44.1382" lon="5.86294">
        <ele>1267</ele>
        <time>2021-06-01T11:07:06.643Z</time>
      </trkpt>
      <trkpt lat="44.1382" lon="5.86293">
        <ele>1267</ele>
        <time>2021-06-01T11:07:07.643Z</time>
      </trkpt>
      <trkpt lat="44.13819" lon="5.86293">
        <ele>1268</ele>
        <time>2021-06-01T11:07:08.643Z</time>
      </trkpt>
      <trkpt lat="44.13819" lon="5.86293">
        <ele>1268</ele>
        <time>2021-06-01T11:07:09.643Z</time>
      </trkpt>
      <trkpt lat="44.13819" lon="5.86292">
        <ele>1268</ele>
        <time>2021-06-01T11:07:10.643Z</time>
      </trkpt>
      <trkpt lat="44.13819" lon="5.86293">
        <ele>1268</ele>
        <time>2021-06-01T11:07:11.643Z</time>
      </trkpt>
      <trkpt lat="44.13819" lon="5.86293">
        <ele>1268</ele>
        <time>2021-06-01T11:07:12.643Z</time>
      </trkpt>
      <trkpt lat="44.13819" lon="5.86293">
        <ele>1268</ele>
        <time>2021-06-01T11:07:13.643Z</time>
      </trkpt>
      <trkpt lat="44.13819" lon="5.86293">
        <ele>1268</ele>
        <time>2021-06-01T11:07:14.643Z</time>
      </trkpt>
      <trkpt lat="44.13819" lon="5.86293">
        <ele>1268</ele>
        <time>2021-06-01T11:07:15.643Z</time>
      </trkpt>
      <trkpt lat="44.13819" lon="5.86293">
        <ele>1268</ele>
        <time>2021-06-01T11:07:16.643Z</time>
      </trkpt>
      <trkpt lat="44.13819" lon="5.86293">
        <ele>1268</ele>
        <time>2021-06-01T11:07:17.643Z</time>
      </trkpt>
      <trkpt lat="44.13819" lon="5.86293">
        <ele>1268</ele>
        <time>2021-06-01T11:07:18.643Z</time>
      </trkpt>
      <trkpt lat="44.13819" lon="5.86292">
        <ele>1268</ele>
        <time>2021-06-01T11:07:19.643Z</time>
      </trkpt>
      <trkpt lat="44.13819" lon="5.86292">
        <ele>1268</ele>
        <time>2021-06-01T11:07:20.643Z</time>
      </trkpt>
      <trkpt lat="44.13819" lon="5.86292">
        <ele>1268</ele>
        <time>2021-06-01T11:07:21.643Z</time>
      </trkpt>
      <trkpt lat="44.13819" lon="5.86292">
        <ele>1268</ele>
        <time>2021-06-01T11:07:22.643Z</time>
      </trkpt>
      <trkpt lat="44.13819" lon="5.86292">
        <ele>1268</ele>
        <time>2021-06-01T11:07:26.316Z</time>
      </trkpt>
      <trkpt lat="44.13819" lon="5.86292">
        <ele>1268</ele>
        <time>2021-06-01T11:07:27.316Z</time>
      </trkpt>
      <trkpt lat="44.13819" lon="5.86292">
        <ele>1268</ele>
        <time>2021-06-01T11:07:28.316Z</time>
      </trkpt>
      <trkpt lat="44.13819" lon="5.86291">
        <ele>1268</ele>
        <time>2021-06-01T11:07:29.316Z</time>
      </trkpt>
      <trkpt lat="44.13819" lon="5.8629">
        <ele>1268</ele>
        <time>2021-06-01T11:07:30.316Z</time>
      </trkpt>
      <trkpt lat="44.1382" lon="5.8629">
        <ele>1268</ele>
        <time>2021-06-01T11:07:31.316Z</time>
      </trkpt>
      <trkpt lat="44.1382" lon="5.86289">
        <ele>1268</ele>
        <time>2021-06-01T11:07:32.316Z</time>
      </trkpt>
      <trkpt lat="44.13819" lon="5.86288">
        <ele>1268</ele>
        <time>2021-06-01T11:07:33.316Z</time>
      </trkpt>
      <trkpt lat="44.13819" lon="5.86289">
        <ele>1268</ele>
        <time>2021-06-01T11:07:34.316Z</time>
      </trkpt>
      <trkpt lat="44.13819" lon="5.86289">
        <ele>1268</ele>
        <time>2021-06-01T11:07:35.316Z</time>
      </trkpt>
      <trkpt lat="44.13819" lon="5.86289">
        <ele>1268</ele>
        <time>2021-06-01T11:07:36.316Z</time>
      </trkpt>
      <trkpt lat="44.13819" lon="5.86289">
        <ele>1268</ele>
        <time>2021-06-01T11:07:37.316Z</time>
      </trkpt>
      <trkpt lat="44.13819" lon="5.86288">
        <ele>1268</ele>
        <time>2021-06-01T11:07:38.316Z</time>
      </trkpt>
      <trkpt lat="44.13819" lon="5.86288">
        <ele>1268</ele>
        <time>2021-06-01T11:07:39.316Z</time>
      </trkpt>
      <trkpt lat="44.13819" lon="5.86288">
        <ele>1268</ele>
        <time>2021-06-01T11:07:40.316Z</time>
      </trkpt>
      <trkpt lat="44.13819" lon="5.86288">
        <ele>1268</ele>
        <time>2021-06-01T11:07:41.316Z</time>
      </trkpt>
      <trkpt lat="44.13819" lon="5.86288">
        <ele>1268</ele>
        <time>2021-06-01T11:07:42.316Z</time>
      </trkpt>
      <trkpt lat="44.13819" lon="5.86288">
        <ele>1268</ele>
        <time>2021-06-01T11:07:43.316Z</time>
      </trkpt>
      <trkpt lat="44.13819" lon="5.86288">
        <ele>1268</ele>
        <time>2021-06-01T11:07:44.316Z</time>
      </trkpt>
      <trkpt lat="44.13819" lon="5.86288">
        <ele>1268</ele>
        <time>2021-06-01T11:07:45.316Z</time>
      </trkpt>
      <trkpt lat="44.13819" lon="5.86288">
        <ele>1268</ele>
        <time>2021-06-01T11:07:46.316Z</time>
      </trkpt>
      <trkpt lat="44.13819" lon="5.86288">
        <ele>1268</ele>
        <time>2021-06-01T11:07:47.316Z</time>
      </trkpt>
      <trkpt lat="44.13819" lon="5.86288">
        <ele>1268</ele>
        <time>2021-06-01T11:07:48.316Z</time>
      </trkpt>
      <trkpt lat="44.13819" lon="5.86288">
        <ele>1268</ele>
        <time>2021-06-01T11:07:49.316Z</time>
      </trkpt>
      <trkpt lat="44.13819" lon="5.86288">
        <ele>1268</ele>
        <time>2021-06-01T11:07:50.316Z</time>
      </trkpt>
      <trkpt lat="44.13819" lon="5.86288">
        <ele>1268</ele>
        <time>2021-06-01T11:07:51.316Z</time>
      </trkpt>
      <trkpt lat="44.13819" lon="5.86288">
        <ele>1268</ele>
        <time>2021-06-01T11:07:52.316Z</time>
      </trkpt>
      <trkpt lat="44.13819" lon="5.86288">
        <ele>1268</ele>
        <time>2021-06-01T11:07:53.316Z</time>
      </trkpt>
      <trkpt lat="44.13819" lon="5.86289">
        <ele>1268</ele>
        <time>2021-06-01T11:07:54.316Z</time>
      </trkpt>
      <trkpt lat="44.13819" lon="5.86289">
        <ele>1268</ele>
        <time>2021-06-01T11:07:55.316Z</time>
      </trkpt>
      <trkpt lat="44.13819" lon="5.86289">
        <ele>1269</ele>
        <time>2021-06-01T11:07:56.316Z</time>
      </trkpt>
      <trkpt lat="44.13819" lon="5.86289">
        <ele>1269</ele>
        <time>2021-06-01T11:07:57.316Z</time>
      </trkpt>
      <trkpt lat="44.13819" lon="5.86289">
        <ele>1269</ele>
        <time>2021-06-01T11:07:58.316Z</time>
      </trkpt>
      <trkpt lat="44.13819" lon="5.86289">
        <ele>1269</ele>
        <time>2021-06-01T11:07:59.316Z</time>
      </trkpt>
      <trkpt lat="44.13819" lon="5.86289">
        <ele>1269</ele>
        <time>2021-06-01T11:08:00.316Z</time>
      </trkpt>
      <trkpt lat="44.13819" lon="5.86289">
        <ele>1269</ele>
        <time>2021-06-01T11:08:01.316Z</time>
      </trkpt>
      <trkpt lat="44.13819" lon="5.86289">
        <ele>1269</ele>
        <time>2021-06-01T11:08:02.316Z</time>
      </trkpt>
      <trkpt lat="44.13819" lon="5.86289">
        <ele>1268</ele>
        <time>2021-06-01T11:08:03.316Z</time>
      </trkpt>
      <trkpt lat="44.13819" lon="5.86289">
        <ele>1268</ele>
        <time>2021-06-01T11:08:04.316Z</time>
      </trkpt>
      <trkpt lat="44.13819" lon="5.86289">
        <ele>1268</ele>
        <time>2021-06-01T11:08:05.316Z</time>
      </trkpt>
      <trkpt lat="44.13819" lon="5.86289">
        <ele>1268</ele>
        <time>2021-06-01T11:08:06.316Z</time>
      </trkpt>
      <trkpt lat="44.13819" lon="5.86289">
        <ele>1268</ele>
        <time>2021-06-01T11:08:07.316Z</time>
      </trkpt>
      <trkpt lat="44.13819" lon="5.86289">
        <ele>1268</ele>
        <time>2021-06-01T11:08:08.316Z</time>
      </trkpt>
      <trkpt lat="44.13819" lon="5.86289">
        <ele>1268</ele>
        <time>2021-06-01T11:08:09.316Z</time>
      </trkpt>
      <trkpt lat="44.13819" lon="5.86289">
        <ele>1268</ele>
        <time>2021-06-01T11:08:10.316Z</time>
      </trkpt>
      <trkpt lat="44.13819" lon="5.86289">
        <ele>1269</ele>
        <time>2021-06-01T11:08:11.316Z</time>
      </trkpt>
      <trkpt lat="44.13819" lon="5.86289">
        <ele>1269</ele>
        <time>2021-06-01T11:08:12.316Z</time>
      </trkpt>
      <trkpt lat="44.13819" lon="5.86289">
        <ele>1268</ele>
        <time>2021-06-01T11:08:13.316Z</time>
      </trkpt>
      <trkpt lat="44.13819" lon="5.86289">
        <ele>1268</ele>
        <time>2021-06-01T11:08:14.316Z</time>
      </trkpt>
      <trkpt lat="44.13819" lon="5.86289">
        <ele>1268</ele>
        <time>2021-06-01T11:08:15.316Z</time>
      </trkpt>
      <trkpt lat="44.13819" lon="5.86289">
        <ele>1268</ele>
        <time>2021-06-01T11:08:16.316Z</time>
      </trkpt>
      <trkpt lat="44.13819" lon="5.86289">
        <ele>1268</ele>
        <time>2021-06-01T11:08:17.316Z</time>
      </trkpt>
      <trkpt lat="44.13819" lon="5.86289">
        <ele>1269</ele>
        <time>2021-06-01T11:08:18.316Z</time>
      </trkpt>
      <trkpt lat="44.13819" lon="5.86289">
        <ele>1269</ele>
        <time>2021-06-01T11:08:19.316Z</time>
      </trkpt>
      <trkpt lat="44.13819" lon="5.86289">
        <ele>1268</ele>
        <time>2021-06-01T11:08:20.316Z</time>
      </trkpt>
      <trkpt lat="44.13819" lon="5.86289">
        <ele>1268</ele>
        <time>2021-06-01T11:08:21.316Z</time>
      </trkpt>
      <trkpt lat="44.13819" lon="5.86289">
        <ele>1268</ele>
        <time>2021-06-01T11:08:22.316Z</time>
      </trkpt>
      <trkpt lat="44.13819" lon="5.86289">
        <ele>1268</ele>
        <time>2021-06-01T11:08:23.316Z</time>
      </trkpt>
      <trkpt lat="44.13819" lon="5.86289">
        <ele>1268</ele>
        <time>2021-06-01T11:08:24.316Z</time>
      </trkpt>
      <trkpt lat="44.13819" lon="5.86289">
        <ele>1268</ele>
        <time>2021-06-01T11:08:25.316Z</time>
      </trkpt>
      <trkpt lat="44.13819" lon="5.86289">
        <ele>1268</ele>
        <time>2021-06-01T11:08:26.316Z</time>
      </trkpt>
      <trkpt lat="44.13819" lon="5.86289">
        <ele>1268</ele>
        <time>2021-06-01T11:08:27.316Z</time>
      </trkpt>
      <trkpt lat="44.13819" lon="5.86289">
        <ele>1268</ele>
        <time>2021-06-01T11:08:28.316Z</time>
      </trkpt>
      <trkpt lat="44.13819" lon="5.86289">
        <ele>1268</ele>
        <time>2021-06-01T11:08:29.316Z</time>
      </trkpt>
      <trkpt lat="44.13819" lon="5.86289">
        <ele>1268</ele>
        <time>2021-06-01T11:08:30.316Z</time>
      </trkpt>
      <trkpt lat="44.13819" lon="5.86289">
        <ele>1268</ele>
        <time>2021-06-01T11:08:31.316Z</time>
      </trkpt>
      <trkpt lat="44.13819" lon="5.86289">
        <ele>1268</ele>
        <time>2021-06-01T11:08:32.316Z</time>
      </trkpt>
      <trkpt lat="44.13819" lon="5.86289">
        <ele>1268</ele>
        <time>2021-06-01T11:08:33.316Z</time>
      </trkpt>
      <trkpt lat="44.13819" lon="5.86289">
        <ele>1268</ele>
        <time>2021-06-01T11:08:34.316Z</time>
      </trkpt>
      <trkpt lat="44.13819" lon="5.86289">
        <ele>1268</ele>
        <time>2021-06-01T11:08:35.316Z</time>
      </trkpt>
      <trkpt lat="44.13819" lon="5.86289">
        <ele>1268</ele>
        <time>2021-06-01T11:08:36.316Z</time>
      </trkpt>
      <trkpt lat="44.13819" lon="5.86289">
        <ele>1268</ele>
        <time>2021-06-01T11:08:37.316Z</time>
      </trkpt>
      <trkpt lat="44.13819" lon="5.86289">
        <ele>1268</ele>
        <time>2021-06-01T11:08:38.316Z</time>
      </trkpt>
      <trkpt lat="44.13819" lon="5.86289">
        <ele>1268</ele>
        <time>2021-06-01T11:08:39.316Z</time>
      </trkpt>
      <trkpt lat="44.13819" lon="5.86289">
        <ele>1268</ele>
        <time>2021-06-01T11:08:40.316Z</time>
      </trkpt>
      <trkpt lat="44.13819" lon="5.86289">
        <ele>1268</ele>
        <time>2021-06-01T11:08:41.316Z</time>
      </trkpt>
      <trkpt lat="44.13819" lon="5.86289">
        <ele>1268</ele>
        <time>2021-06-01T11:08:42.316Z</time>
      </trkpt>
      <trkpt lat="44.13819" lon="5.86289">
        <ele>1268</ele>
        <time>2021-06-01T11:08:43.316Z</time>
      </trkpt>
      <trkpt lat="44.13819" lon="5.86289">
        <ele>1268</ele>
        <time>2021-06-01T11:08:44.316Z</time>
      </trkpt>
      <trkpt lat="44.13819" lon="5.86289">
        <ele>1268</ele>
        <time>2021-06-01T11:08:45.316Z</time>
      </trkpt>
      <trkpt lat="44.13819" lon="5.86289">
        <ele>1268</ele>
        <time>2021-06-01T11:08:46.316Z</time>
      </trkpt>
      <trkpt lat="44.13819" lon="5.86289">
        <ele>1268</ele>
        <time>2021-06-01T11:08:47.316Z</time>
      </trkpt>
      <trkpt lat="44.13819" lon="5.86289">
        <ele>1268</ele>
        <time>2021-06-01T11:08:48.316Z</time>
      </trkpt>
      <trkpt lat="44.13819" lon="5.86289">
        <ele>1268</ele>
        <time>2021-06-01T11:08:49.316Z</time>
      </trkpt>
      <trkpt lat="44.13819" lon="5.86289">
        <ele>1268</ele>
        <time>2021-06-01T11:08:50.316Z</time>
      </trkpt>
      <trkpt lat="44.13819" lon="5.86289">
        <ele>1268</ele>
        <time>2021-06-01T11:08:51.316Z</time>
      </trkpt>
      <trkpt lat="44.13819" lon="5.86289">
        <ele>1268</ele>
        <time>2021-06-01T11:08:52.316Z</time>
      </trkpt>
      <trkpt lat="44.13819" lon="5.86289">
        <ele>1268</ele>
        <time>2021-06-01T11:08:53.316Z</time>
      </trkpt>
      <trkpt lat="44.13819" lon="5.86289">
        <ele>1268</ele>
        <time>2021-06-01T11:08:54.316Z</time>
      </trkpt>
      <trkpt lat="44.13819" lon="5.86289">
        <ele>1268</ele>
        <time>2021-06-01T11:08:55.316Z</time>
      </trkpt>
      <trkpt lat="44.13819" lon="5.86289">
        <ele>1268</ele>
        <time>2021-06-01T11:08:56.316Z</time>
      </trkpt>
      <trkpt lat="44.13819" lon="5.86289">
        <ele>1268</ele>
        <time>2021-06-01T11:08:57.316Z</time>
      </trkpt>
      <trkpt lat="44.13819" lon="5.86289">
        <ele>1268</ele>
        <time>2021-06-01T11:08:58.316Z</time>
      </trkpt>
      <trkpt lat="44.13819" lon="5.86289">
        <ele>1268</ele>
        <time>2021-06-01T11:08:59.316Z</time>
      </trkpt>
      <trkpt lat="44.13819" lon="5.86289">
        <ele>1268</ele>
        <time>2021-06-01T11:09:00.316Z</time>
      </trkpt>
      <trkpt lat="44.13819" lon="5.86289">
        <ele>1268</ele>
        <time>2021-06-01T11:09:01.316Z</time>
      </trkpt>
      <trkpt lat="44.13819" lon="5.86289">
        <ele>1268</ele>
        <time>2021-06-01T11:09:02.316Z</time>
      </trkpt>
      <trkpt lat="44.13819" lon="5.86289">
        <ele>1268</ele>
        <time>2021-06-01T11:09:03.316Z</time>
      </trkpt>
      <trkpt lat="44.13819" lon="5.86289">
        <ele>1268</ele>
        <time>2021-06-01T11:09:04.316Z</time>
      </trkpt>
      <trkpt lat="44.13819" lon="5.86289">
        <ele>1268</ele>
        <time>2021-06-01T11:09:05.316Z</time>
      </trkpt>
      <trkpt lat="44.13819" lon="5.86289">
        <ele>1268</ele>
        <time>2021-06-01T11:09:06.316Z</time>
      </trkpt>
      <trkpt lat="44.13819" lon="5.86289">
        <ele>1268</ele>
        <time>2021-06-01T11:09:07.316Z</time>
      </trkpt>
      <trkpt lat="44.13819" lon="5.86289">
        <ele>1268</ele>
        <time>2021-06-01T11:09:08.316Z</time>
      </trkpt>
      <trkpt lat="44.13819" lon="5.86289">
        <ele>1268</ele>
        <time>2021-06-01T11:09:09.316Z</time>
      </trkpt>
      <trkpt lat="44.13819" lon="5.86289">
        <ele>1268</ele>
        <time>2021-06-01T11:09:10.316Z</time>
      </trkpt>
      <trkpt lat="44.13819" lon="5.86289">
        <ele>1268</ele>
        <time>2021-06-01T11:09:11.316Z</time>
      </trkpt>
      <trkpt lat="44.13819" lon="5.86289">
        <ele>1268</ele>
        <time>2021-06-01T11:09:12.316Z</time>
      </trkpt>
      <trkpt lat="44.13819" lon="5.86289">
        <ele>1268</ele>
        <time>2021-06-01T11:09:13.316Z</time>
      </trkpt>
      <trkpt lat="44.13819" lon="5.86289">
        <ele>1268</ele>
        <time>2021-06-01T11:09:14.316Z</time>
      </trkpt>
      <trkpt lat="44.13819" lon="5.86289">
        <ele>1268</ele>
        <time>2021-06-01T11:09:15.316Z</time>
      </trkpt>
      <trkpt lat="44.13819" lon="5.86289">
        <ele>1268</ele>
        <time>2021-06-01T11:09:16.316Z</time>
      </trkpt>
      <trkpt lat="44.13819" lon="5.86289">
        <ele>1268</ele>
        <time>2021-06-01T11:09:17.316Z</time>
      </trkpt>
      <trkpt lat="44.13819" lon="5.86289">
        <ele>1268</ele>
        <time>2021-06-01T11:09:18.316Z</time>
      </trkpt>
      <trkpt lat="44.13819" lon="5.86288">
        <ele>1269</ele>
        <time>2021-06-01T11:09:19.316Z</time>
      </trkpt>
      <trkpt lat="44.1382" lon="5.86288">
        <ele>1269</ele>
        <time>2021-06-01T11:09:20.316Z</time>
      </trkpt>
      <trkpt lat="44.13821" lon="5.86289">
        <ele>1269</ele>
        <time>2021-06-01T11:09:21.316Z</time>
      </trkpt>
      <trkpt lat="44.13821" lon="5.86289">
        <ele>1269</ele>
        <time>2021-06-01T11:09:22.316Z</time>
      </trkpt>
      <trkpt lat="44.13822" lon="5.8629">
        <ele>1268</ele>
        <time>2021-06-01T11:09:23.316Z</time>
      </trkpt>
      <trkpt lat="44.13822" lon="5.86291">
        <ele>1268</ele>
        <time>2021-06-01T11:09:24.316Z</time>
      </trkpt>
      <trkpt lat="44.13822" lon="5.86292">
        <ele>1268</ele>
        <time>2021-06-01T11:09:25.316Z</time>
      </trkpt>
      <trkpt lat="44.13822" lon="5.86292">
        <ele>1268</ele>
        <time>2021-06-01T11:09:26.316Z</time>
      </trkpt>
      <trkpt lat="44.13822" lon="5.86292">
        <ele>1268</ele>
        <time>2021-06-01T11:09:27.316Z</time>
      </trkpt>
      <trkpt lat="44.13822" lon="5.86292">
        <ele>1268</ele>
        <time>2021-06-01T11:09:28.316Z</time>
      </trkpt>
      <trkpt lat="44.13822" lon="5.86292">
        <ele>1268</ele>
        <time>2021-06-01T11:09:29.316Z</time>
      </trkpt>
      <trkpt lat="44.13822" lon="5.86292">
        <ele>1268</ele>
        <time>2021-06-01T11:09:30.316Z</time>
      </trkpt>
      <trkpt lat="44.13822" lon="5.86292">
        <ele>1268</ele>
        <time>2021-06-01T11:09:31.316Z</time>
      </trkpt>
      <trkpt lat="44.13822" lon="5.86292">
        <ele>1268</ele>
        <time>2021-06-01T11:09:32.316Z</time>
      </trkpt>
      <trkpt lat="44.13822" lon="5.86292">
        <ele>1268</ele>
        <time>2021-06-01T11:09:33.316Z</time>
      </trkpt>
      <trkpt lat="44.13822" lon="5.86292">
        <ele>1268</ele>
        <time>2021-06-01T11:09:34.316Z</time>
      </trkpt>
      <trkpt lat="44.13822" lon="5.86292">
        <ele>1268</ele>
        <time>2021-06-01T11:09:35.316Z</time>
      </trkpt>
      <trkpt lat="44.13822" lon="5.86292">
        <ele>1268</ele>
        <time>2021-06-01T11:09:36.316Z</time>
      </trkpt>
      <trkpt lat="44.13822" lon="5.86292">
        <ele>1268</ele>
        <time>2021-06-01T11:09:37.316Z</time>
      </trkpt>
      <trkpt lat="44.13822" lon="5.86292">
        <ele>1268</ele>
        <time>2021-06-01T11:09:38.316Z</time>
      </trkpt>
      <trkpt lat="44.13822" lon="5.86292">
        <ele>1268</ele>
        <time>2021-06-01T11:09:39.316Z</time>
      </trkpt>
      <trkpt lat="44.13822" lon="5.86292">
        <ele>1268</ele>
        <time>2021-06-01T11:09:40.316Z</time>
      </trkpt>
      <trkpt lat="44.13821" lon="5.86292">
        <ele>1268</ele>
        <time>2021-06-01T11:09:41.316Z</time>
      </trkpt>
      <trkpt lat="44.13821" lon="5.86292">
        <ele>1268</ele>
        <time>2021-06-01T11:09:42.316Z</time>
      </trkpt>
      <trkpt lat="44.13821" lon="5.86292">
        <ele>1268</ele>
        <time>2021-06-01T11:09:43.316Z</time>
      </trkpt>
      <trkpt lat="44.13821" lon="5.86292">
        <ele>1268</ele>
        <time>2021-06-01T11:09:44.316Z</time>
      </trkpt>
      <trkpt lat="44.13821" lon="5.86292">
        <ele>1268</ele>
        <time>2021-06-01T11:09:45.316Z</time>
      </trkpt>
      <trkpt lat="44.13821" lon="5.86292">
        <ele>1268</ele>
        <time>2021-06-01T11:09:46.316Z</time>
      </trkpt>
      <trkpt lat="44.13821" lon="5.86292">
        <ele>1268</ele>
        <time>2021-06-01T11:09:47.316Z</time>
      </trkpt>
      <trkpt lat="44.13821" lon="5.86292">
        <ele>1268</ele>
        <time>2021-06-01T11:09:48.316Z</time>
      </trkpt>
      <trkpt lat="44.13821" lon="5.86292">
        <ele>1268</ele>
        <time>2021-06-01T11:09:49.316Z</time>
      </trkpt>
      <trkpt lat="44.13821" lon="5.86292">
        <ele>1268</ele>
        <time>2021-06-01T11:09:50.316Z</time>
      </trkpt>
      <trkpt lat="44.13821" lon="5.86292">
        <ele>1268</ele>
        <time>2021-06-01T11:09:51.316Z</time>
      </trkpt>
      <trkpt lat="44.13821" lon="5.86292">
        <ele>1268</ele>
        <time>2021-06-01T11:09:52.316Z</time>
      </trkpt>
      <trkpt lat="44.13821" lon="5.86292">
        <ele>1268</ele>
        <time>2021-06-01T11:09:53.316Z</time>
      </trkpt>
      <trkpt lat="44.13821" lon="5.86292">
        <ele>1268</ele>
        <time>2021-06-01T11:09:54.316Z</time>
      </trkpt>
      <trkpt lat="44.13821" lon="5.86292">
        <ele>1268</ele>
        <time>2021-06-01T11:09:55.316Z</time>
      </trkpt>
      <trkpt lat="44.13821" lon="5.86292">
        <ele>1268</ele>
        <time>2021-06-01T11:09:56.316Z</time>
      </trkpt>
      <trkpt lat="44.13821" lon="5.86292">
        <ele>1268</ele>
        <time>2021-06-01T11:09:57.316Z</time>
      </trkpt>
      <trkpt lat="44.13821" lon="5.86292">
        <ele>1268</ele>
        <time>2021-06-01T11:09:58.316Z</time>
      </trkpt>
      <trkpt lat="44.13821" lon="5.86292">
        <ele>1268</ele>
        <time>2021-06-01T11:09:59.316Z</time>
      </trkpt>
      <trkpt lat="44.13821" lon="5.86292">
        <ele>1268</ele>
        <time>2021-06-01T11:10:00.316Z</time>
      </trkpt>
      <trkpt lat="44.13821" lon="5.86292">
        <ele>1268</ele>
        <time>2021-06-01T11:10:01.316Z</time>
      </trkpt>
      <trkpt lat="44.13821" lon="5.86292">
        <ele>1268</ele>
        <time>2021-06-01T11:10:02.316Z</time>
      </trkpt>
      <trkpt lat="44.13821" lon="5.86292">
        <ele>1268</ele>
        <time>2021-06-01T11:10:03.316Z</time>
      </trkpt>
      <trkpt lat="44.13821" lon="5.86292">
        <ele>1268</ele>
        <time>2021-06-01T11:10:04.316Z</time>
      </trkpt>
      <trkpt lat="44.13821" lon="5.86292">
        <ele>1268</ele>
        <time>2021-06-01T11:10:05.316Z</time>
      </trkpt>
      <trkpt lat="44.13821" lon="5.86292">
        <ele>1268</ele>
        <time>2021-06-01T11:10:06.316Z</time>
      </trkpt>
      <trkpt lat="44.13821" lon="5.86292">
        <ele>1268</ele>
        <time>2021-06-01T11:10:07.316Z</time>
      </trkpt>
      <trkpt lat="44.13821" lon="5.86292">
        <ele>1268</ele>
        <time>2021-06-01T11:10:08.316Z</time>
      </trkpt>
      <trkpt lat="44.13821" lon="5.86292">
        <ele>1268</ele>
        <time>2021-06-01T11:10:09.316Z</time>
      </trkpt>
      <trkpt lat="44.13821" lon="5.86292">
        <ele>1268</ele>
        <time>2021-06-01T11:10:10.316Z</time>
      </trkpt>
      <trkpt lat="44.13821" lon="5.86292">
        <ele>1268</ele>
        <time>2021-06-01T11:10:11.316Z</time>
      </trkpt>
      <trkpt lat="44.13821" lon="5.86292">
        <ele>1268</ele>
        <time>2021-06-01T11:10:12.316Z</time>
      </trkpt>
      <trkpt lat="44.13821" lon="5.86292">
        <ele>1268</ele>
        <time>2021-06-01T11:10:13.316Z</time>
      </trkpt>
      <trkpt lat="44.13821" lon="5.86292">
        <ele>1268</ele>
        <time>2021-06-01T11:10:14.316Z</time>
      </trkpt>
      <trkpt lat="44.13821" lon="5.86292">
        <ele>1268</ele>
        <time>2021-06-01T11:10:15.316Z</time>
      </trkpt>
      <trkpt lat="44.13821" lon="5.86292">
        <ele>1268</ele>
        <time>2021-06-01T11:10:16.316Z</time>
      </trkpt>
      <trkpt lat="44.13821" lon="5.86292">
        <ele>1268</ele>
        <time>2021-06-01T11:10:17.316Z</time>
      </trkpt>
      <trkpt lat="44.13821" lon="5.86292">
        <ele>1268</ele>
        <time>2021-06-01T11:10:18.316Z</time>
      </trkpt>
      <trkpt lat="44.13821" lon="5.86292">
        <ele>1268</ele>
        <time>2021-06-01T11:10:19.316Z</time>
      </trkpt>
      <trkpt lat="44.13821" lon="5.86292">
        <ele>1268</ele>
        <time>2021-06-01T11:10:20.316Z</time>
      </trkpt>
      <trkpt lat="44.13821" lon="5.86292">
        <ele>1268</ele>
        <time>2021-06-01T11:10:21.316Z</time>
      </trkpt>
      <trkpt lat="44.13821" lon="5.86292">
        <ele>1268</ele>
        <time>2021-06-01T11:10:22.316Z</time>
      </trkpt>
      <trkpt lat="44.13821" lon="5.86292">
        <ele>1268</ele>
        <time>2021-06-01T11:10:23.316Z</time>
      </trkpt>
      <trkpt lat="44.13821" lon="5.86292">
        <ele>1268</ele>
        <time>2021-06-01T11:10:24.316Z</time>
      </trkpt>
      <trkpt lat="44.13821" lon="5.86292">
        <ele>1268</ele>
        <time>2021-06-01T11:10:25.316Z</time>
      </trkpt>
      <trkpt lat="44.13821" lon="5.86292">
        <ele>1268</ele>
        <time>2021-06-01T11:10:26.316Z</time>
      </trkpt>
      <trkpt lat="44.13821" lon="5.86292">
        <ele>1268</ele>
        <time>2021-06-01T11:10:27.316Z</time>
      </trkpt>
      <trkpt lat="44.13821" lon="5.86292">
        <ele>1268</ele>
        <time>2021-06-01T11:10:28.316Z</time>
      </trkpt>
      <trkpt lat="44.13821" lon="5.86292">
        <ele>1268</ele>
        <time>2021-06-01T11:10:29.316Z</time>
      </trkpt>
      <trkpt lat="44.13821" lon="5.86292">
        <ele>1268</ele>
        <time>2021-06-01T11:10:30.316Z</time>
      </trkpt>
      <trkpt lat="44.13821" lon="5.86292">
        <ele>1268</ele>
        <time>2021-06-01T11:10:31.316Z</time>
      </trkpt>
      <trkpt lat="44.13821" lon="5.86292">
        <ele>1268</ele>
        <time>2021-06-01T11:10:32.316Z</time>
      </trkpt>
      <trkpt lat="44.13821" lon="5.86292">
        <ele>1268</ele>
        <time>2021-06-01T11:10:33.316Z</time>
      </trkpt>
      <trkpt lat="44.13821" lon="5.86292">
        <ele>1268</ele>
        <time>2021-06-01T11:10:34.316Z</time>
      </trkpt>
      <trkpt lat="44.13821" lon="5.86292">
        <ele>1268</ele>
        <time>2021-06-01T11:10:35.316Z</time>
      </trkpt>
      <trkpt lat="44.13821" lon="5.86292">
        <ele>1268</ele>
        <time>2021-06-01T11:10:36.316Z</time>
      </trkpt>
      <trkpt lat="44.13821" lon="5.86292">
        <ele>1268</ele>
        <time>2021-06-01T11:10:37.316Z</time>
      </trkpt>
      <trkpt lat="44.1382" lon="5.86292">
        <ele>1268</ele>
        <time>2021-06-01T11:10:38.316Z</time>
      </trkpt>
      <trkpt lat="44.1382" lon="5.86292">
        <ele>1268</ele>
        <time>2021-06-01T11:10:39.316Z</time>
      </trkpt>
      <trkpt lat="44.13819" lon="5.86292">
        <ele>1268</ele>
        <time>2021-06-01T11:10:40.316Z</time>
      </trkpt>
      <trkpt lat="44.13818" lon="5.86292">
        <ele>1268</ele>
        <time>2021-06-01T11:10:41.316Z</time>
      </trkpt>
      <trkpt lat="44.13818" lon="5.86292">
        <ele>1268</ele>
        <time>2021-06-01T11:10:42.316Z</time>
      </trkpt>
      <trkpt lat="44.13817" lon="5.86291">
        <ele>1268</ele>
        <time>2021-06-01T11:10:43.316Z</time>
      </trkpt>
      <trkpt lat="44.13817" lon="5.86291">
        <ele>1268</ele>
        <time>2021-06-01T11:10:44.316Z</time>
      </trkpt>
      <trkpt lat="44.13817" lon="5.86291">
        <ele>1268</ele>
        <time>2021-06-01T11:10:45.316Z</time>
      </trkpt>
      <trkpt lat="44.13817" lon="5.86291">
        <ele>1268</ele>
        <time>2021-06-01T11:10:46.316Z</time>
      </trkpt>
      <trkpt lat="44.13817" lon="5.86291">
        <ele>1268</ele>
        <time>2021-06-01T11:10:47.316Z</time>
      </trkpt>
      <trkpt lat="44.13817" lon="5.86291">
        <ele>1268</ele>
        <time>2021-06-01T11:10:48.316Z</time>
      </trkpt>
      <trkpt lat="44.13817" lon="5.86291">
        <ele>1268</ele>
        <time>2021-06-01T11:10:49.316Z</time>
      </trkpt>
      <trkpt lat="44.13817" lon="5.86291">
        <ele>1268</ele>
        <time>2021-06-01T11:10:50.316Z</time>
      </trkpt>
      <trkpt lat="44.13817" lon="5.86291">
        <ele>1268</ele>
        <time>2021-06-01T11:10:51.316Z</time>
      </trkpt>
      <trkpt lat="44.13817" lon="5.86291">
        <ele>1268</ele>
        <time>2021-06-01T11:10:52.316Z</time>
      </trkpt>
      <trkpt lat="44.13816" lon="5.8629">
        <ele>1268</ele>
        <time>2021-06-01T11:10:53.316Z</time>
      </trkpt>
      <trkpt lat="44.13816" lon="5.86289">
        <ele>1268</ele>
        <time>2021-06-01T11:10:54.316Z</time>
      </trkpt>
      <trkpt lat="44.13815" lon="5.86288">
        <ele>1268</ele>
        <time>2021-06-01T11:10:55.316Z</time>
      </trkpt>
      <trkpt lat="44.13815" lon="5.86287">
        <ele>1269</ele>
        <time>2021-06-01T11:10:56.316Z</time>
      </trkpt>
      <trkpt lat="44.13814" lon="5.86287">
        <ele>1269</ele>
        <time>2021-06-01T11:10:57.316Z</time>
      </trkpt>
      <trkpt lat="44.13814" lon="5.86287">
        <ele>1269</ele>
        <time>2021-06-01T11:10:58.316Z</time>
      </trkpt>
      <trkpt lat="44.13814" lon="5.86288">
        <ele>1269</ele>
        <time>2021-06-01T11:10:59.316Z</time>
      </trkpt>
      <trkpt lat="44.13813" lon="5.86288">
        <ele>1269</ele>
        <time>2021-06-01T11:11:00.316Z</time>
      </trkpt>
      <trkpt lat="44.13813" lon="5.86288">
        <ele>1269</ele>
        <time>2021-06-01T11:11:01.316Z</time>
      </trkpt>
      <trkpt lat="44.13813" lon="5.86288">
        <ele>1269</ele>
        <time>2021-06-01T11:11:02.316Z</time>
      </trkpt>
      <trkpt lat="44.13813" lon="5.86288">
        <ele>1269</ele>
        <time>2021-06-01T11:11:03.316Z</time>
      </trkpt>
      <trkpt lat="44.13813" lon="5.86288">
        <ele>1269</ele>
        <time>2021-06-01T11:11:04.316Z</time>
      </trkpt>
      <trkpt lat="44.13813" lon="5.86288">
        <ele>1269</ele>
        <time>2021-06-01T11:11:05.316Z</time>
      </trkpt>
      <trkpt lat="44.13813" lon="5.86288">
        <ele>1269</ele>
        <time>2021-06-01T11:11:06.316Z</time>
      </trkpt>
      <trkpt lat="44.13813" lon="5.86288">
        <ele>1269</ele>
        <time>2021-06-01T11:11:07.316Z</time>
      </trkpt>
      <trkpt lat="44.13813" lon="5.86288">
        <ele>1269</ele>
        <time>2021-06-01T11:11:08.316Z</time>
      </trkpt>
      <trkpt lat="44.13813" lon="5.86288">
        <ele>1269</ele>
        <time>2021-06-01T11:11:09.316Z</time>
      </trkpt>
      <trkpt lat="44.13813" lon="5.86288">
        <ele>1269</ele>
        <time>2021-06-01T11:11:10.316Z</time>
      </trkpt>
      <trkpt lat="44.13812" lon="5.86288">
        <ele>1268</ele>
        <time>2021-06-01T11:11:11.316Z</time>
      </trkpt>
      <trkpt lat="44.13812" lon="5.86288">
        <ele>1268</ele>
        <time>2021-06-01T11:11:12.316Z</time>
      </trkpt>
      <trkpt lat="44.13812" lon="5.86288">
        <ele>1268</ele>
        <time>2021-06-01T11:11:13.316Z</time>
      </trkpt>
      <trkpt lat="44.13812" lon="5.86288">
        <ele>1268</ele>
        <time>2021-06-01T11:11:14.316Z</time>
      </trkpt>
      <trkpt lat="44.13812" lon="5.86288">
        <ele>1268</ele>
        <time>2021-06-01T11:11:15.316Z</time>
      </trkpt>
      <trkpt lat="44.13811" lon="5.86288">
        <ele>1268</ele>
        <time>2021-06-01T11:11:16.316Z</time>
      </trkpt>
      <trkpt lat="44.13811" lon="5.86287">
        <ele>1268</ele>
        <time>2021-06-01T11:11:17.316Z</time>
      </trkpt>
      <trkpt lat="44.13811" lon="5.86287">
        <ele>1268</ele>
        <time>2021-06-01T11:11:18.316Z</time>
      </trkpt>
      <trkpt lat="44.13811" lon="5.86287">
        <ele>1268</ele>
        <time>2021-06-01T11:11:19.316Z</time>
      </trkpt>
      <trkpt lat="44.13811" lon="5.86287">
        <ele>1268</ele>
        <time>2021-06-01T11:11:20.316Z</time>
      </trkpt>
      <trkpt lat="44.13811" lon="5.86287">
        <ele>1268</ele>
        <time>2021-06-01T11:11:21.316Z</time>
      </trkpt>
      <trkpt lat="44.13811" lon="5.86288">
        <ele>1268</ele>
        <time>2021-06-01T11:11:22.316Z</time>
      </trkpt>
      <trkpt lat="44.13811" lon="5.86288">
        <ele>1268</ele>
        <time>2021-06-01T11:11:23.316Z</time>
      </trkpt>
      <trkpt lat="44.13811" lon="5.86289">
        <ele>1268</ele>
        <time>2021-06-01T11:11:24.316Z</time>
      </trkpt>
      <trkpt lat="44.13811" lon="5.8629">
        <ele>1268</ele>
        <time>2021-06-01T11:11:25.316Z</time>
      </trkpt>
      <trkpt lat="44.1381" lon="5.8629">
        <ele>1269</ele>
        <time>2021-06-01T11:11:26.316Z</time>
      </trkpt>
      <trkpt lat="44.1381" lon="5.86291">
        <ele>1269</ele>
        <time>2021-06-01T11:11:27.316Z</time>
      </trkpt>
      <trkpt lat="44.1381" lon="5.86291">
        <ele>1269</ele>
        <time>2021-06-01T11:11:28.316Z</time>
      </trkpt>
      <trkpt lat="44.1381" lon="5.86291">
        <ele>1269</ele>
        <time>2021-06-01T11:11:29.316Z</time>
      </trkpt>
      <trkpt lat="44.13809" lon="5.86292">
        <ele>1269</ele>
        <time>2021-06-01T11:11:30.316Z</time>
      </trkpt>
      <trkpt lat="44.13809" lon="5.86292">
        <ele>1269</ele>
        <time>2021-06-01T11:11:31.316Z</time>
      </trkpt>
      <trkpt lat="44.13809" lon="5.86293">
        <ele>1269</ele>
        <time>2021-06-01T11:11:32.316Z</time>
      </trkpt>
      <trkpt lat="44.13809" lon="5.86293">
        <ele>1268</ele>
        <time>2021-06-01T11:11:33.316Z</time>
      </trkpt>
      <trkpt lat="44.13809" lon="5.86293">
        <ele>1268</ele>
        <time>2021-06-01T11:11:34.316Z</time>
      </trkpt>
      <trkpt lat="44.13809" lon="5.86293">
        <ele>1268</ele>
        <time>2021-06-01T11:11:35.316Z</time>
      </trkpt>
      <trkpt lat="44.13809" lon="5.86294">
        <ele>1269</ele>
        <time>2021-06-01T11:11:36.316Z</time>
      </trkpt>
      <trkpt lat="44.13809" lon="5.86293">
        <ele>1269</ele>
        <time>2021-06-01T11:11:37.316Z</time>
      </trkpt>
      <trkpt lat="44.13809" lon="5.86293">
        <ele>1269</ele>
        <time>2021-06-01T11:11:38.316Z</time>
      </trkpt>
      <trkpt lat="44.13809" lon="5.86293">
        <ele>1269</ele>
        <time>2021-06-01T11:11:39.316Z</time>
      </trkpt>
      <trkpt lat="44.13809" lon="5.86293">
        <ele>1269</ele>
        <time>2021-06-01T11:11:40.316Z</time>
      </trkpt>
      <trkpt lat="44.13809" lon="5.86293">
        <ele>1269</ele>
        <time>2021-06-01T11:11:41.316Z</time>
      </trkpt>
      <trkpt lat="44.13809" lon="5.86293">
        <ele>1269</ele>
        <time>2021-06-01T11:11:42.316Z</time>
      </trkpt>
      <trkpt lat="44.13809" lon="5.86293">
        <ele>1269</ele>
        <time>2021-06-01T11:11:43.316Z</time>
      </trkpt>
      <trkpt lat="44.13809" lon="5.86293">
        <ele>1269</ele>
        <time>2021-06-01T11:11:44.316Z</time>
      </trkpt>
      <trkpt lat="44.13809" lon="5.86293">
        <ele>1269</ele>
        <time>2021-06-01T11:11:45.316Z</time>
      </trkpt>
      <trkpt lat="44.13809" lon="5.86293">
        <ele>1269</ele>
        <time>2021-06-01T11:11:46.316Z</time>
      </trkpt>
      <trkpt lat="44.13809" lon="5.86293">
        <ele>1269</ele>
        <time>2021-06-01T11:11:47.316Z</time>
      </trkpt>
      <trkpt lat="44.13809" lon="5.86293">
        <ele>1269</ele>
        <time>2021-06-01T11:11:48.316Z</time>
      </trkpt>
      <trkpt lat="44.13809" lon="5.86293">
        <ele>1269</ele>
        <time>2021-06-01T11:11:49.316Z</time>
      </trkpt>
      <trkpt lat="44.13809" lon="5.86293">
        <ele>1269</ele>
        <time>2021-06-01T11:11:50.316Z</time>
      </trkpt>
      <trkpt lat="44.13809" lon="5.86293">
        <ele>1269</ele>
        <time>2021-06-01T11:11:51.316Z</time>
      </trkpt>
      <trkpt lat="44.13809" lon="5.86293">
        <ele>1269</ele>
        <time>2021-06-01T11:11:52.316Z</time>
      </trkpt>
      <trkpt lat="44.13809" lon="5.86293">
        <ele>1269</ele>
        <time>2021-06-01T11:11:53.316Z</time>
      </trkpt>
      <trkpt lat="44.13809" lon="5.86293">
        <ele>1269</ele>
        <time>2021-06-01T11:11:54.316Z</time>
      </trkpt>
      <trkpt lat="44.13809" lon="5.86293">
        <ele>1269</ele>
        <time>2021-06-01T11:11:55.316Z</time>
      </trkpt>
      <trkpt lat="44.13809" lon="5.86293">
        <ele>1269</ele>
        <time>2021-06-01T11:11:56.316Z</time>
      </trkpt>
      <trkpt lat="44.13809" lon="5.86293">
        <ele>1269</ele>
        <time>2021-06-01T11:11:57.316Z</time>
      </trkpt>
      <trkpt lat="44.13809" lon="5.86293">
        <ele>1269</ele>
        <time>2021-06-01T11:11:58.316Z</time>
      </trkpt>
      <trkpt lat="44.13809" lon="5.86293">
        <ele>1269</ele>
        <time>2021-06-01T11:11:59.316Z</time>
      </trkpt>
      <trkpt lat="44.13809" lon="5.86293">
        <ele>1269</ele>
        <time>2021-06-01T11:12:00.316Z</time>
      </trkpt>
      <trkpt lat="44.13809" lon="5.86293">
        <ele>1269</ele>
        <time>2021-06-01T11:12:01.316Z</time>
      </trkpt>
      <trkpt lat="44.13809" lon="5.86293">
        <ele>1269</ele>
        <time>2021-06-01T11:12:02.316Z</time>
      </trkpt>
      <trkpt lat="44.13809" lon="5.86293">
        <ele>1269</ele>
        <time>2021-06-01T11:12:03.316Z</time>
      </trkpt>
      <trkpt lat="44.13809" lon="5.86293">
        <ele>1269</ele>
        <time>2021-06-01T11:12:04.316Z</time>
      </trkpt>
      <trkpt lat="44.13809" lon="5.86292">
        <ele>1269</ele>
        <time>2021-06-01T11:12:05.316Z</time>
      </trkpt>
      <trkpt lat="44.13809" lon="5.86291">
        <ele>1269</ele>
        <time>2021-06-01T11:12:06.316Z</time>
      </trkpt>
      <trkpt lat="44.13809" lon="5.86291">
        <ele>1269</ele>
        <time>2021-06-01T11:12:07.316Z</time>
      </trkpt>
      <trkpt lat="44.13809" lon="5.86291">
        <ele>1269</ele>
        <time>2021-06-01T11:12:08.316Z</time>
      </trkpt>
      <trkpt lat="44.13809" lon="5.86291">
        <ele>1269</ele>
        <time>2021-06-01T11:12:09.316Z</time>
      </trkpt>
      <trkpt lat="44.13809" lon="5.86292">
        <ele>1269</ele>
        <time>2021-06-01T11:12:10.316Z</time>
      </trkpt>
      <trkpt lat="44.1381" lon="5.86293">
        <ele>1269</ele>
        <time>2021-06-01T11:12:11.316Z</time>
      </trkpt>
      <trkpt lat="44.13809" lon="5.86292">
        <ele>1269</ele>
        <time>2021-06-01T11:12:12.316Z</time>
      </trkpt>
      <trkpt lat="44.13809" lon="5.86292">
        <ele>1269</ele>
        <time>2021-06-01T11:12:13.316Z</time>
      </trkpt>
      <trkpt lat="44.13808" lon="5.8629">
        <ele>1269</ele>
        <time>2021-06-01T11:12:14.316Z</time>
      </trkpt>
      <trkpt lat="44.13808" lon="5.86289">
        <ele>1269</ele>
        <time>2021-06-01T11:12:15.316Z</time>
      </trkpt>
      <trkpt lat="44.13808" lon="5.86287">
        <ele>1269</ele>
        <time>2021-06-01T11:12:16.316Z</time>
      </trkpt>
      <trkpt lat="44.13808" lon="5.86286">
        <ele>1269</ele>
        <time>2021-06-01T11:12:17.316Z</time>
      </trkpt>
      <trkpt lat="44.13807" lon="5.86284">
        <ele>1269</ele>
        <time>2021-06-01T11:12:18.316Z</time>
      </trkpt>
      <trkpt lat="44.13807" lon="5.86283">
        <ele>1269</ele>
        <time>2021-06-01T11:12:19.316Z</time>
      </trkpt>
      <trkpt lat="44.13807" lon="5.86282">
        <ele>1269</ele>
        <time>2021-06-01T11:12:20.316Z</time>
      </trkpt>
      <trkpt lat="44.13807" lon="5.86282">
        <ele>1269</ele>
        <time>2021-06-01T11:12:21.316Z</time>
      </trkpt>
      <trkpt lat="44.13807" lon="5.86281">
        <ele>1269</ele>
        <time>2021-06-01T11:12:22.316Z</time>
      </trkpt>
      <trkpt lat="44.13807" lon="5.8628">
        <ele>1269</ele>
        <time>2021-06-01T11:12:23.316Z</time>
      </trkpt>
      <trkpt lat="44.13806" lon="5.86279">
        <ele>1269</ele>
        <time>2021-06-01T11:12:24.316Z</time>
      </trkpt>
      <trkpt lat="44.13806" lon="5.86277">
        <ele>1269</ele>
        <time>2021-06-01T11:12:25.316Z</time>
      </trkpt>
      <trkpt lat="44.13806" lon="5.86276">
        <ele>1269</ele>
        <time>2021-06-01T11:12:26.316Z</time>
      </trkpt>
      <trkpt lat="44.13805" lon="5.86275">
        <ele>1269</ele>
        <time>2021-06-01T11:12:27.316Z</time>
      </trkpt>
      <trkpt lat="44.13805" lon="5.86273">
        <ele>1269</ele>
        <time>2021-06-01T11:12:28.316Z</time>
      </trkpt>
      <trkpt lat="44.13804" lon="5.86272">
        <ele>1269</ele>
        <time>2021-06-01T11:12:29.316Z</time>
      </trkpt>
      <trkpt lat="44.13804" lon="5.8627">
        <ele>1269</ele>
        <time>2021-06-01T11:12:30.316Z</time>
      </trkpt>
      <trkpt lat="44.13803" lon="5.86269">
        <ele>1269</ele>
        <time>2021-06-01T11:12:31.316Z</time>
      </trkpt>
      <trkpt lat="44.13803" lon="5.86267">
        <ele>1269</ele>
        <time>2021-06-01T11:12:32.316Z</time>
      </trkpt>
      <trkpt lat="44.13802" lon="5.86266">
        <ele>1269</ele>
        <time>2021-06-01T11:12:33.316Z</time>
      </trkpt>
      <trkpt lat="44.13802" lon="5.86265">
        <ele>1269</ele>
        <time>2021-06-01T11:12:34.316Z</time>
      </trkpt>
      <trkpt lat="44.13802" lon="5.86264">
        <ele>1269</ele>
        <time>2021-06-01T11:12:35.316Z</time>
      </trkpt>
      <trkpt lat="44.13801" lon="5.86263">
        <ele>1269</ele>
        <time>2021-06-01T11:12:36.316Z</time>
      </trkpt>
      <trkpt lat="44.13801" lon="5.86263">
        <ele>1269</ele>
        <time>2021-06-01T11:12:37.316Z</time>
      </trkpt>
      <trkpt lat="44.13801" lon="5.86262">
        <ele>1269</ele>
        <time>2021-06-01T11:12:38.316Z</time>
      </trkpt>
      <trkpt lat="44.138" lon="5.86261">
        <ele>1269</ele>
        <time>2021-06-01T11:12:39.316Z</time>
      </trkpt>
      <trkpt lat="44.138" lon="5.8626">
        <ele>1269</ele>
        <time>2021-06-01T11:12:40.316Z</time>
      </trkpt>
      <trkpt lat="44.13799" lon="5.8626">
        <ele>1269</ele>
        <time>2021-06-01T11:12:41.316Z</time>
      </trkpt>
      <trkpt lat="44.13799" lon="5.86259">
        <ele>1269</ele>
        <time>2021-06-01T11:12:42.316Z</time>
      </trkpt>
      <trkpt lat="44.13798" lon="5.86259">
        <ele>1269</ele>
        <time>2021-06-01T11:12:43.316Z</time>
      </trkpt>
      <trkpt lat="44.13798" lon="5.86258">
        <ele>1269</ele>
        <time>2021-06-01T11:12:44.316Z</time>
      </trkpt>
      <trkpt lat="44.13797" lon="5.86257">
        <ele>1269</ele>
        <time>2021-06-01T11:12:45.316Z</time>
      </trkpt>
      <trkpt lat="44.13797" lon="5.86256">
        <ele>1269</ele>
        <time>2021-06-01T11:12:46.316Z</time>
      </trkpt>
      <trkpt lat="44.13796" lon="5.86256">
        <ele>1269</ele>
        <time>2021-06-01T11:12:47.316Z</time>
      </trkpt>
      <trkpt lat="44.13796" lon="5.86254">
        <ele>1268</ele>
        <time>2021-06-01T11:12:48.316Z</time>
      </trkpt>
      <trkpt lat="44.13795" lon="5.86253">
        <ele>1268</ele>
        <time>2021-06-01T11:12:49.316Z</time>
      </trkpt>
      <trkpt lat="44.13795" lon="5.86252">
        <ele>1268</ele>
        <time>2021-06-01T11:12:50.316Z</time>
      </trkpt>
      <trkpt lat="44.13795" lon="5.86251">
        <ele>1268</ele>
        <time>2021-06-01T11:12:51.316Z</time>
      </trkpt>
      <trkpt lat="44.13795" lon="5.8625">
        <ele>1268</ele>
        <time>2021-06-01T11:12:52.316Z</time>
      </trkpt>
      <trkpt lat="44.13795" lon="5.86248">
        <ele>1268</ele>
        <time>2021-06-01T11:12:53.316Z</time>
      </trkpt>
      <trkpt lat="44.13794" lon="5.86247">
        <ele>1268</ele>
        <time>2021-06-01T11:12:54.316Z</time>
      </trkpt>
      <trkpt lat="44.13794" lon="5.86246">
        <ele>1268</ele>
        <time>2021-06-01T11:12:55.316Z</time>
      </trkpt>
      <trkpt lat="44.13793" lon="5.86245">
        <ele>1268</ele>
        <time>2021-06-01T11:12:56.316Z</time>
      </trkpt>
      <trkpt lat="44.13792" lon="5.86245">
        <ele>1268</ele>
        <time>2021-06-01T11:12:57.316Z</time>
      </trkpt>
      <trkpt lat="44.13792" lon="5.86244">
        <ele>1268</ele>
        <time>2021-06-01T11:12:58.316Z</time>
      </trkpt>
      <trkpt lat="44.13791" lon="5.86243">
        <ele>1268</ele>
        <time>2021-06-01T11:12:59.316Z</time>
      </trkpt>
      <trkpt lat="44.1379" lon="5.86242">
        <ele>1268</ele>
        <time>2021-06-01T11:13:00.316Z</time>
      </trkpt>
      <trkpt lat="44.1379" lon="5.86241">
        <ele>1268</ele>
        <time>2021-06-01T11:13:01.316Z</time>
      </trkpt>
      <trkpt lat="44.13789" lon="5.86241">
        <ele>1268</ele>
        <time>2021-06-01T11:13:02.316Z</time>
      </trkpt>
      <trkpt lat="44.13788" lon="5.8624">
        <ele>1268</ele>
        <time>2021-06-01T11:13:03.316Z</time>
      </trkpt>
      <trkpt lat="44.13788" lon="5.8624">
        <ele>1268</ele>
        <time>2021-06-01T11:13:04.316Z</time>
      </trkpt>
      <trkpt lat="44.13787" lon="5.86239">
        <ele>1268</ele>
        <time>2021-06-01T11:13:05.316Z</time>
      </trkpt>
      <trkpt lat="44.13786" lon="5.86238">
        <ele>1268</ele>
        <time>2021-06-01T11:13:06.316Z</time>
      </trkpt>
      <trkpt lat="44.13786" lon="5.86238">
        <ele>1268</ele>
        <time>2021-06-01T11:13:07.316Z</time>
      </trkpt>
      <trkpt lat="44.13785" lon="5.86237">
        <ele>1268</ele>
        <time>2021-06-01T11:13:08.316Z</time>
      </trkpt>
      <trkpt lat="44.13784" lon="5.86236">
        <ele>1267</ele>
        <time>2021-06-01T11:13:09.316Z</time>
      </trkpt>
      <trkpt lat="44.13783" lon="5.86235">
        <ele>1267</ele>
        <time>2021-06-01T11:13:10.316Z</time>
      </trkpt>
      <trkpt lat="44.13783" lon="5.86234">
        <ele>1267</ele>
        <time>2021-06-01T11:13:11.316Z</time>
      </trkpt>
      <trkpt lat="44.13782" lon="5.86233">
        <ele>1267</ele>
        <time>2021-06-01T11:13:12.316Z</time>
      </trkpt>
      <trkpt lat="44.13782" lon="5.86232">
        <ele>1267</ele>
        <time>2021-06-01T11:13:13.316Z</time>
      </trkpt>
      <trkpt lat="44.13782" lon="5.86231">
        <ele>1267</ele>
        <time>2021-06-01T11:13:14.316Z</time>
      </trkpt>
      <trkpt lat="44.13781" lon="5.86229">
        <ele>1267</ele>
        <time>2021-06-01T11:13:15.316Z</time>
      </trkpt>
      <trkpt lat="44.13781" lon="5.86228">
        <ele>1267</ele>
        <time>2021-06-01T11:13:16.316Z</time>
      </trkpt>
      <trkpt lat="44.13781" lon="5.86227">
        <ele>1267</ele>
        <time>2021-06-01T11:13:17.316Z</time>
      </trkpt>
      <trkpt lat="44.13781" lon="5.86226">
        <ele>1267</ele>
        <time>2021-06-01T11:13:18.316Z</time>
      </trkpt>
      <trkpt lat="44.13781" lon="5.86226">
        <ele>1267</ele>
        <time>2021-06-01T11:13:19.316Z</time>
      </trkpt>
      <trkpt lat="44.1378" lon="5.86225">
        <ele>1267</ele>
        <time>2021-06-01T11:13:20.316Z</time>
      </trkpt>
      <trkpt lat="44.13779" lon="5.86224">
        <ele>1267</ele>
        <time>2021-06-01T11:13:21.316Z</time>
      </trkpt>
      <trkpt lat="44.13779" lon="5.86224">
        <ele>1267</ele>
        <time>2021-06-01T11:13:22.316Z</time>
      </trkpt>
      <trkpt lat="44.13778" lon="5.86224">
        <ele>1267</ele>
        <time>2021-06-01T11:13:23.316Z</time>
      </trkpt>
      <trkpt lat="44.13777" lon="5.86224">
        <ele>1267</ele>
        <time>2021-06-01T11:13:24.316Z</time>
      </trkpt>
      <trkpt lat="44.13776" lon="5.86223">
        <ele>1267</ele>
        <time>2021-06-01T11:13:25.316Z</time>
      </trkpt>
      <trkpt lat="44.13775" lon="5.86223">
        <ele>1267</ele>
        <time>2021-06-01T11:13:26.316Z</time>
      </trkpt>
      <trkpt lat="44.13774" lon="5.86222">
        <ele>1267</ele>
        <time>2021-06-01T11:13:27.316Z</time>
      </trkpt>
      <trkpt lat="44.13773" lon="5.86221">
        <ele>1266</ele>
        <time>2021-06-01T11:13:28.316Z</time>
      </trkpt>
      <trkpt lat="44.13772" lon="5.8622">
        <ele>1266</ele>
        <time>2021-06-01T11:13:29.316Z</time>
      </trkpt>
      <trkpt lat="44.13771" lon="5.86219">
        <ele>1266</ele>
        <time>2021-06-01T11:13:30.316Z</time>
      </trkpt>
      <trkpt lat="44.1377" lon="5.86218">
        <ele>1266</ele>
        <time>2021-06-01T11:13:31.316Z</time>
      </trkpt>
      <trkpt lat="44.13769" lon="5.86217">
        <ele>1266</ele>
        <time>2021-06-01T11:13:32.316Z</time>
      </trkpt>
      <trkpt lat="44.13769" lon="5.86216">
        <ele>1266</ele>
        <time>2021-06-01T11:13:33.316Z</time>
      </trkpt>
      <trkpt lat="44.13768" lon="5.86215">
        <ele>1266</ele>
        <time>2021-06-01T11:13:34.316Z</time>
      </trkpt>
      <trkpt lat="44.13767" lon="5.86214">
        <ele>1266</ele>
        <time>2021-06-01T11:13:35.316Z</time>
      </trkpt>
      <trkpt lat="44.13766" lon="5.86214">
        <ele>1266</ele>
        <time>2021-06-01T11:13:36.316Z</time>
      </trkpt>
      <trkpt lat="44.13765" lon="5.86213">
        <ele>1266</ele>
        <time>2021-06-01T11:13:37.316Z</time>
      </trkpt>
      <trkpt lat="44.13764" lon="5.86212">
        <ele>1266</ele>
        <time>2021-06-01T11:13:38.316Z</time>
      </trkpt>
      <trkpt lat="44.13763" lon="5.86212">
        <ele>1266</ele>
        <time>2021-06-01T11:13:39.316Z</time>
      </trkpt>
      <trkpt lat="44.13763" lon="5.86211">
        <ele>1266</ele>
        <time>2021-06-01T11:13:40.316Z</time>
      </trkpt>
      <trkpt lat="44.13762" lon="5.86209">
        <ele>1266</ele>
        <time>2021-06-01T11:13:41.316Z</time>
      </trkpt>
      <trkpt lat="44.13761" lon="5.86208">
        <ele>1266</ele>
        <time>2021-06-01T11:13:42.316Z</time>
      </trkpt>
      <trkpt lat="44.1376" lon="5.86207">
        <ele>1266</ele>
        <time>2021-06-01T11:13:43.316Z</time>
      </trkpt>
      <trkpt lat="44.1376" lon="5.86206">
        <ele>1265</ele>
        <time>2021-06-01T11:13:44.316Z</time>
      </trkpt>
      <trkpt lat="44.13759" lon="5.86205">
        <ele>1265</ele>
        <time>2021-06-01T11:13:45.316Z</time>
      </trkpt>
      <trkpt lat="44.13758" lon="5.86204">
        <ele>1265</ele>
        <time>2021-06-01T11:13:46.316Z</time>
      </trkpt>
      <trkpt lat="44.13757" lon="5.86203">
        <ele>1265</ele>
        <time>2021-06-01T11:13:47.316Z</time>
      </trkpt>
      <trkpt lat="44.13757" lon="5.86202">
        <ele>1265</ele>
        <time>2021-06-01T11:13:48.316Z</time>
      </trkpt>
      <trkpt lat="44.13756" lon="5.86201">
        <ele>1265</ele>
        <time>2021-06-01T11:13:49.316Z</time>
      </trkpt>
      <trkpt lat="44.13756" lon="5.862">
        <ele>1265</ele>
        <time>2021-06-01T11:13:50.316Z</time>
      </trkpt>
      <trkpt lat="44.13755" lon="5.86199">
        <ele>1265</ele>
        <time>2021-06-01T11:13:51.316Z</time>
      </trkpt>
      <trkpt lat="44.13755" lon="5.86198">
        <ele>1265</ele>
        <time>2021-06-01T11:13:52.316Z</time>
      </trkpt>
      <trkpt lat="44.13754" lon="5.86196">
        <ele>1265</ele>
        <time>2021-06-01T11:13:53.316Z</time>
      </trkpt>
      <trkpt lat="44.13754" lon="5.86195">
        <ele>1265</ele>
        <time>2021-06-01T11:13:54.316Z</time>
      </trkpt>
      <trkpt lat="44.13753" lon="5.86194">
        <ele>1265</ele>
        <time>2021-06-01T11:13:55.316Z</time>
      </trkpt>
      <trkpt lat="44.13753" lon="5.86193">
        <ele>1265</ele>
        <time>2021-06-01T11:13:56.316Z</time>
      </trkpt>
      <trkpt lat="44.13753" lon="5.86192">
        <ele>1265</ele>
        <time>2021-06-01T11:13:57.316Z</time>
      </trkpt>
      <trkpt lat="44.13752" lon="5.86191">
        <ele>1265</ele>
        <time>2021-06-01T11:13:58.316Z</time>
      </trkpt>
      <trkpt lat="44.13752" lon="5.8619">
        <ele>1265</ele>
        <time>2021-06-01T11:13:59.316Z</time>
      </trkpt>
      <trkpt lat="44.13751" lon="5.86189">
        <ele>1265</ele>
        <time>2021-06-01T11:14:00.316Z</time>
      </trkpt>
      <trkpt lat="44.13751" lon="5.86188">
        <ele>1265</ele>
        <time>2021-06-01T11:14:01.316Z</time>
      </trkpt>
      <trkpt lat="44.13751" lon="5.86188">
        <ele>1265</ele>
        <time>2021-06-01T11:14:02.316Z</time>
      </trkpt>
      <trkpt lat="44.1375" lon="5.86187">
        <ele>1265</ele>
        <time>2021-06-01T11:14:03.316Z</time>
      </trkpt>
      <trkpt lat="44.1375" lon="5.86186">
        <ele>1266</ele>
        <time>2021-06-01T11:14:04.316Z</time>
      </trkpt>
      <trkpt lat="44.13749" lon="5.86185">
        <ele>1266</ele>
        <time>2021-06-01T11:14:05.316Z</time>
      </trkpt>
      <trkpt lat="44.13749" lon="5.86184">
        <ele>1265</ele>
        <time>2021-06-01T11:14:06.316Z</time>
      </trkpt>
      <trkpt lat="44.13749" lon="5.86183">
        <ele>1266</ele>
        <time>2021-06-01T11:14:07.316Z</time>
      </trkpt>
      <trkpt lat="44.13748" lon="5.86182">
        <ele>1266</ele>
        <time>2021-06-01T11:14:08.316Z</time>
      </trkpt>
      <trkpt lat="44.13748" lon="5.86181">
        <ele>1266</ele>
        <time>2021-06-01T11:14:09.316Z</time>
      </trkpt>
      <trkpt lat="44.13748" lon="5.8618">
        <ele>1266</ele>
        <time>2021-06-01T11:14:10.316Z</time>
      </trkpt>
      <trkpt lat="44.13747" lon="5.86179">
        <ele>1266</ele>
        <time>2021-06-01T11:14:11.316Z</time>
      </trkpt>
      <trkpt lat="44.13747" lon="5.86178">
        <ele>1266</ele>
        <time>2021-06-01T11:14:12.316Z</time>
      </trkpt>
      <trkpt lat="44.13747" lon="5.86177">
        <ele>1266</ele>
        <time>2021-06-01T11:14:13.316Z</time>
      </trkpt>
      <trkpt lat="44.13746" lon="5.86176">
        <ele>1266</ele>
        <time>2021-06-01T11:14:14.316Z</time>
      </trkpt>
      <trkpt lat="44.13746" lon="5.86175">
        <ele>1266</ele>
        <time>2021-06-01T11:14:15.316Z</time>
      </trkpt>
      <trkpt lat="44.13746" lon="5.86174">
        <ele>1266</ele>
        <time>2021-06-01T11:14:16.316Z</time>
      </trkpt>
      <trkpt lat="44.13746" lon="5.86173">
        <ele>1266</ele>
        <time>2021-06-01T11:14:17.316Z</time>
      </trkpt>
      <trkpt lat="44.13745" lon="5.86172">
        <ele>1266</ele>
        <time>2021-06-01T11:14:18.316Z</time>
      </trkpt>
      <trkpt lat="44.13745" lon="5.86171">
        <ele>1266</ele>
        <time>2021-06-01T11:14:19.316Z</time>
      </trkpt>
      <trkpt lat="44.13745" lon="5.8617">
        <ele>1266</ele>
        <time>2021-06-01T11:14:20.316Z</time>
      </trkpt>
      <trkpt lat="44.13745" lon="5.86169">
        <ele>1266</ele>
        <time>2021-06-01T11:14:21.316Z</time>
      </trkpt>
      <trkpt lat="44.13745" lon="5.86168">
        <ele>1266</ele>
        <time>2021-06-01T11:14:22.316Z</time>
      </trkpt>
      <trkpt lat="44.13745" lon="5.86167">
        <ele>1266</ele>
        <time>2021-06-01T11:14:23.316Z</time>
      </trkpt>
      <trkpt lat="44.13745" lon="5.86166">
        <ele>1266</ele>
        <time>2021-06-01T11:14:24.316Z</time>
      </trkpt>
      <trkpt lat="44.13745" lon="5.86166">
        <ele>1266</ele>
        <time>2021-06-01T11:14:25.316Z</time>
      </trkpt>
      <trkpt lat="44.13745" lon="5.86165">
        <ele>1266</ele>
        <time>2021-06-01T11:14:26.316Z</time>
      </trkpt>
      <trkpt lat="44.13746" lon="5.86165">
        <ele>1267</ele>
        <time>2021-06-01T11:14:27.316Z</time>
      </trkpt>
      <trkpt lat="44.13747" lon="5.86165">
        <ele>1267</ele>
        <time>2021-06-01T11:14:28.316Z</time>
      </trkpt>
      <trkpt lat="44.13747" lon="5.86165">
        <ele>1267</ele>
        <time>2021-06-01T11:14:29.316Z</time>
      </trkpt>
      <trkpt lat="44.13748" lon="5.86164">
        <ele>1266</ele>
        <time>2021-06-01T11:14:30.316Z</time>
      </trkpt>
      <trkpt lat="44.13749" lon="5.86165">
        <ele>1266</ele>
        <time>2021-06-01T11:14:31.316Z</time>
      </trkpt>
      <trkpt lat="44.1375" lon="5.86164">
        <ele>1266</ele>
        <time>2021-06-01T11:14:32.316Z</time>
      </trkpt>
      <trkpt lat="44.13751" lon="5.86164">
        <ele>1266</ele>
        <time>2021-06-01T11:14:33.316Z</time>
      </trkpt>
      <trkpt lat="44.13751" lon="5.86163">
        <ele>1266</ele>
        <time>2021-06-01T11:14:34.316Z</time>
      </trkpt>
      <trkpt lat="44.13752" lon="5.86163">
        <ele>1266</ele>
        <time>2021-06-01T11:14:35.316Z</time>
      </trkpt>
      <trkpt lat="44.13753" lon="5.86163">
        <ele>1266</ele>
        <time>2021-06-01T11:14:36.316Z</time>
      </trkpt>
      <trkpt lat="44.13753" lon="5.86163">
        <ele>1266</ele>
        <time>2021-06-01T11:14:37.316Z</time>
      </trkpt>
      <trkpt lat="44.13754" lon="5.86162">
        <ele>1266</ele>
        <time>2021-06-01T11:14:38.316Z</time>
      </trkpt>
      <trkpt lat="44.13755" lon="5.86162">
        <ele>1266</ele>
        <time>2021-06-01T11:14:39.316Z</time>
      </trkpt>
      <trkpt lat="44.13755" lon="5.86162">
        <ele>1266</ele>
        <time>2021-06-01T11:14:40.316Z</time>
      </trkpt>
      <trkpt lat="44.13755" lon="5.86161">
        <ele>1265</ele>
        <time>2021-06-01T11:14:41.316Z</time>
      </trkpt>
      <trkpt lat="44.13756" lon="5.86161">
        <ele>1265</ele>
        <time>2021-06-01T11:14:42.316Z</time>
      </trkpt>
      <trkpt lat="44.13756" lon="5.8616">
        <ele>1265</ele>
        <time>2021-06-01T11:14:43.316Z</time>
      </trkpt>
      <trkpt lat="44.13757" lon="5.8616">
        <ele>1265</ele>
        <time>2021-06-01T11:14:44.316Z</time>
      </trkpt>
      <trkpt lat="44.13758" lon="5.86159">
        <ele>1264</ele>
        <time>2021-06-01T11:14:45.316Z</time>
      </trkpt>
      <trkpt lat="44.13759" lon="5.86159">
        <ele>1264</ele>
        <time>2021-06-01T11:14:46.316Z</time>
      </trkpt>
      <trkpt lat="44.13759" lon="5.86159">
        <ele>1264</ele>
        <time>2021-06-01T11:14:47.316Z</time>
      </trkpt>
      <trkpt lat="44.1376" lon="5.86159">
        <ele>1264</ele>
        <time>2021-06-01T11:14:48.316Z</time>
      </trkpt>
      <trkpt lat="44.13761" lon="5.86158">
        <ele>1264</ele>
        <time>2021-06-01T11:14:49.316Z</time>
      </trkpt>
      <trkpt lat="44.13761" lon="5.86158">
        <ele>1264</ele>
        <time>2021-06-01T11:14:50.316Z</time>
      </trkpt>
      <trkpt lat="44.13762" lon="5.86158">
        <ele>1264</ele>
        <time>2021-06-01T11:14:51.316Z</time>
      </trkpt>
      <trkpt lat="44.13762" lon="5.86158">
        <ele>1264</ele>
        <time>2021-06-01T11:14:52.316Z</time>
      </trkpt>
      <trkpt lat="44.13763" lon="5.86158">
        <ele>1264</ele>
        <time>2021-06-01T11:14:53.316Z</time>
      </trkpt>
      <trkpt lat="44.13763" lon="5.86158">
        <ele>1264</ele>
        <time>2021-06-01T11:14:54.316Z</time>
      </trkpt>
      <trkpt lat="44.13764" lon="5.86158">
        <ele>1264</ele>
        <time>2021-06-01T11:14:55.316Z</time>
      </trkpt>
      <trkpt lat="44.13764" lon="5.86157">
        <ele>1263</ele>
        <time>2021-06-01T11:14:56.316Z</time>
      </trkpt>
      <trkpt lat="44.13765" lon="5.86157">
        <ele>1263</ele>
        <time>2021-06-01T11:14:57.316Z</time>
      </trkpt>
      <trkpt lat="44.13765" lon="5.86156">
        <ele>1263</ele>
        <time>2021-06-01T11:14:58.316Z</time>
      </trkpt>
      <trkpt lat="44.13766" lon="5.86156">
        <ele>1263</ele>
        <time>2021-06-01T11:14:59.316Z</time>
      </trkpt>
      <trkpt lat="44.13767" lon="5.86155">
        <ele>1263</ele>
        <time>2021-06-01T11:15:00.316Z</time>
      </trkpt>
      <trkpt lat="44.13768" lon="5.86155">
        <ele>1263</ele>
        <time>2021-06-01T11:15:01.316Z</time>
      </trkpt>
      <trkpt lat="44.13768" lon="5.86154">
        <ele>1263</ele>
        <time>2021-06-01T11:15:02.316Z</time>
      </trkpt>
      <trkpt lat="44.13769" lon="5.86154">
        <ele>1263</ele>
        <time>2021-06-01T11:15:03.316Z</time>
      </trkpt>
      <trkpt lat="44.1377" lon="5.86154">
        <ele>1262</ele>
        <time>2021-06-01T11:15:04.316Z</time>
      </trkpt>
      <trkpt lat="44.13771" lon="5.86154">
        <ele>1262</ele>
        <time>2021-06-01T11:15:05.316Z</time>
      </trkpt>
      <trkpt lat="44.13772" lon="5.86154">
        <ele>1262</ele>
        <time>2021-06-01T11:15:06.316Z</time>
      </trkpt>
      <trkpt lat="44.13773" lon="5.86153">
        <ele>1262</ele>
        <time>2021-06-01T11:15:07.316Z</time>
      </trkpt>
      <trkpt lat="44.13774" lon="5.86153">
        <ele>1262</ele>
        <time>2021-06-01T11:15:08.316Z</time>
      </trkpt>
      <trkpt lat="44.13775" lon="5.86153">
        <ele>1261</ele>
        <time>2021-06-01T11:15:09.316Z</time>
      </trkpt>
      <trkpt lat="44.13776" lon="5.86153">
        <ele>1261</ele>
        <time>2021-06-01T11:15:10.316Z</time>
      </trkpt>
      <trkpt lat="44.13777" lon="5.86152">
        <ele>1261</ele>
        <time>2021-06-01T11:15:11.316Z</time>
      </trkpt>
      <trkpt lat="44.13778" lon="5.86152">
        <ele>1261</ele>
        <time>2021-06-01T11:15:12.316Z</time>
      </trkpt>
      <trkpt lat="44.13778" lon="5.86152">
        <ele>1260</ele>
        <time>2021-06-01T11:15:13.316Z</time>
      </trkpt>
      <trkpt lat="44.13779" lon="5.86152">
        <ele>1260</ele>
        <time>2021-06-01T11:15:14.316Z</time>
      </trkpt>
      <trkpt lat="44.1378" lon="5.86151">
        <ele>1260</ele>
        <time>2021-06-01T11:15:15.316Z</time>
      </trkpt>
      <trkpt lat="44.13781" lon="5.86151">
        <ele>1260</ele>
        <time>2021-06-01T11:15:16.316Z</time>
      </trkpt>
      <trkpt lat="44.13782" lon="5.86151">
        <ele>1260</ele>
        <time>2021-06-01T11:15:17.316Z</time>
      </trkpt>
      <trkpt lat="44.13783" lon="5.8615">
        <ele>1259</ele>
        <time>2021-06-01T11:15:18.316Z</time>
      </trkpt>
      <trkpt lat="44.13784" lon="5.8615">
        <ele>1259</ele>
        <time>2021-06-01T11:15:19.316Z</time>
      </trkpt>
      <trkpt lat="44.13785" lon="5.8615">
        <ele>1259</ele>
        <time>2021-06-01T11:15:20.316Z</time>
      </trkpt>
      <trkpt lat="44.13786" lon="5.8615">
        <ele>1259</ele>
        <time>2021-06-01T11:15:21.316Z</time>
      </trkpt>
      <trkpt lat="44.13787" lon="5.8615">
        <ele>1259</ele>
        <time>2021-06-01T11:15:22.316Z</time>
      </trkpt>
      <trkpt lat="44.13789" lon="5.8615">
        <ele>1258</ele>
        <time>2021-06-01T11:15:23.316Z</time>
      </trkpt>
      <trkpt lat="44.1379" lon="5.8615">
        <ele>1258</ele>
        <time>2021-06-01T11:15:24.316Z</time>
      </trkpt>
      <trkpt lat="44.13791" lon="5.86149">
        <ele>1258</ele>
        <time>2021-06-01T11:15:25.316Z</time>
      </trkpt>
      <trkpt lat="44.13792" lon="5.86149">
        <ele>1258</ele>
        <time>2021-06-01T11:15:26.316Z</time>
      </trkpt>
      <trkpt lat="44.13793" lon="5.86148">
        <ele>1257</ele>
        <time>2021-06-01T11:15:27.316Z</time>
      </trkpt>
      <trkpt lat="44.13794" lon="5.86148">
        <ele>1257</ele>
        <time>2021-06-01T11:15:28.316Z</time>
      </trkpt>
      <trkpt lat="44.13794" lon="5.86148">
        <ele>1257</ele>
        <time>2021-06-01T11:15:29.316Z</time>
      </trkpt>
      <trkpt lat="44.13795" lon="5.86148">
        <ele>1257</ele>
        <time>2021-06-01T11:15:30.316Z</time>
      </trkpt>
      <trkpt lat="44.13795" lon="5.86147">
        <ele>1257</ele>
        <time>2021-06-01T11:15:31.316Z</time>
      </trkpt>
      <trkpt lat="44.13795" lon="5.86147">
        <ele>1257</ele>
        <time>2021-06-01T11:15:32.316Z</time>
      </trkpt>
      <trkpt lat="44.13796" lon="5.86146">
        <ele>1257</ele>
        <time>2021-06-01T11:15:33.316Z</time>
      </trkpt>
      <trkpt lat="44.13796" lon="5.86146">
        <ele>1257</ele>
        <time>2021-06-01T11:15:34.316Z</time>
      </trkpt>
      <trkpt lat="44.13797" lon="5.86145">
        <ele>1256</ele>
        <time>2021-06-01T11:15:35.316Z</time>
      </trkpt>
      <trkpt lat="44.13798" lon="5.86145">
        <ele>1256</ele>
        <time>2021-06-01T11:15:36.316Z</time>
      </trkpt>
      <trkpt lat="44.13799" lon="5.86145">
        <ele>1256</ele>
        <time>2021-06-01T11:15:37.316Z</time>
      </trkpt>
      <trkpt lat="44.138" lon="5.86145">
        <ele>1256</ele>
        <time>2021-06-01T11:15:38.316Z</time>
      </trkpt>
      <trkpt lat="44.13801" lon="5.86145">
        <ele>1256</ele>
        <time>2021-06-01T11:15:39.316Z</time>
      </trkpt>
      <trkpt lat="44.13802" lon="5.86146">
        <ele>1256</ele>
        <time>2021-06-01T11:15:40.316Z</time>
      </trkpt>
      <trkpt lat="44.13803" lon="5.86146">
        <ele>1256</ele>
        <time>2021-06-01T11:15:41.316Z</time>
      </trkpt>
      <trkpt lat="44.13804" lon="5.86146">
        <ele>1255</ele>
        <time>2021-06-01T11:15:42.316Z</time>
      </trkpt>
      <trkpt lat="44.13805" lon="5.86146">
        <ele>1255</ele>
        <time>2021-06-01T11:15:43.316Z</time>
      </trkpt>
      <trkpt lat="44.13806" lon="5.86146">
        <ele>1255</ele>
        <time>2021-06-01T11:15:44.316Z</time>
      </trkpt>
      <trkpt lat="44.13807" lon="5.86146">
        <ele>1255</ele>
        <time>2021-06-01T11:15:45.316Z</time>
      </trkpt>
      <trkpt lat="44.13808" lon="5.86147">
        <ele>1254</ele>
        <time>2021-06-01T11:15:46.316Z</time>
      </trkpt>
      <trkpt lat="44.13809" lon="5.86146">
        <ele>1254</ele>
        <time>2021-06-01T11:15:47.316Z</time>
      </trkpt>
      <trkpt lat="44.1381" lon="5.86146">
        <ele>1254</ele>
        <time>2021-06-01T11:15:48.316Z</time>
      </trkpt>
      <trkpt lat="44.13811" lon="5.86147">
        <ele>1254</ele>
        <time>2021-06-01T11:15:49.316Z</time>
      </trkpt>
      <trkpt lat="44.13812" lon="5.86147">
        <ele>1254</ele>
        <time>2021-06-01T11:15:50.316Z</time>
      </trkpt>
      <trkpt lat="44.13812" lon="5.86147">
        <ele>1254</ele>
        <time>2021-06-01T11:15:51.316Z</time>
      </trkpt>
      <trkpt lat="44.13813" lon="5.86147">
        <ele>1253</ele>
        <time>2021-06-01T11:15:52.316Z</time>
      </trkpt>
      <trkpt lat="44.13814" lon="5.86146">
        <ele>1253</ele>
        <time>2021-06-01T11:15:53.316Z</time>
      </trkpt>
      <trkpt lat="44.13815" lon="5.86147">
        <ele>1253</ele>
        <time>2021-06-01T11:15:54.316Z</time>
      </trkpt>
      <trkpt lat="44.13816" lon="5.86147">
        <ele>1253</ele>
        <time>2021-06-01T11:15:55.316Z</time>
      </trkpt>
      <trkpt lat="44.13817" lon="5.86146">
        <ele>1253</ele>
        <time>2021-06-01T11:15:56.316Z</time>
      </trkpt>
      <trkpt lat="44.13818" lon="5.86146">
        <ele>1253</ele>
        <time>2021-06-01T11:15:57.316Z</time>
      </trkpt>
      <trkpt lat="44.13819" lon="5.86147">
        <ele>1253</ele>
        <time>2021-06-01T11:15:58.316Z</time>
      </trkpt>
      <trkpt lat="44.13821" lon="5.86147">
        <ele>1253</ele>
        <time>2021-06-01T11:15:59.316Z</time>
      </trkpt>
      <trkpt lat="44.13822" lon="5.86147">
        <ele>1253</ele>
        <time>2021-06-01T11:16:00.316Z</time>
      </trkpt>
      <trkpt lat="44.13823" lon="5.86147">
        <ele>1253</ele>
        <time>2021-06-01T11:16:01.316Z</time>
      </trkpt>
      <trkpt lat="44.13824" lon="5.86147">
        <ele>1252</ele>
        <time>2021-06-01T11:16:02.316Z</time>
      </trkpt>
      <trkpt lat="44.13825" lon="5.86147">
        <ele>1252</ele>
        <time>2021-06-01T11:16:03.316Z</time>
      </trkpt>
      <trkpt lat="44.13826" lon="5.86146">
        <ele>1252</ele>
        <time>2021-06-01T11:16:04.316Z</time>
      </trkpt>
      <trkpt lat="44.13827" lon="5.86146">
        <ele>1252</ele>
        <time>2021-06-01T11:16:05.316Z</time>
      </trkpt>
      <trkpt lat="44.13828" lon="5.86146">
        <ele>1252</ele>
        <time>2021-06-01T11:16:06.316Z</time>
      </trkpt>
      <trkpt lat="44.13829" lon="5.86147">
        <ele>1252</ele>
        <time>2021-06-01T11:16:07.316Z</time>
      </trkpt>
      <trkpt lat="44.1383" lon="5.86147">
        <ele>1252</ele>
        <time>2021-06-01T11:16:08.316Z</time>
      </trkpt>
      <trkpt lat="44.13831" lon="5.86148">
        <ele>1252</ele>
        <time>2021-06-01T11:16:09.316Z</time>
      </trkpt>
      <trkpt lat="44.13832" lon="5.86148">
        <ele>1252</ele>
        <time>2021-06-01T11:16:10.316Z</time>
      </trkpt>
      <trkpt lat="44.13833" lon="5.86149">
        <ele>1251</ele>
        <time>2021-06-01T11:16:11.316Z</time>
      </trkpt>
      <trkpt lat="44.13834" lon="5.86149">
        <ele>1251</ele>
        <time>2021-06-01T11:16:12.316Z</time>
      </trkpt>
      <trkpt lat="44.13835" lon="5.8615">
        <ele>1251</ele>
        <time>2021-06-01T11:16:13.316Z</time>
      </trkpt>
      <trkpt lat="44.13836" lon="5.86151">
        <ele>1251</ele>
        <time>2021-06-01T11:16:14.316Z</time>
      </trkpt>
      <trkpt lat="44.13837" lon="5.86151">
        <ele>1251</ele>
        <time>2021-06-01T11:16:15.316Z</time>
      </trkpt>
      <trkpt lat="44.13838" lon="5.86151">
        <ele>1251</ele>
        <time>2021-06-01T11:16:16.316Z</time>
      </trkpt>
      <trkpt lat="44.13839" lon="5.86151">
        <ele>1251</ele>
        <time>2021-06-01T11:16:17.316Z</time>
      </trkpt>
      <trkpt lat="44.1384" lon="5.86151">
        <ele>1251</ele>
        <time>2021-06-01T11:16:18.316Z</time>
      </trkpt>
      <trkpt lat="44.1384" lon="5.8615">
        <ele>1251</ele>
        <time>2021-06-01T11:16:19.316Z</time>
      </trkpt>
      <trkpt lat="44.13841" lon="5.8615">
        <ele>1250</ele>
        <time>2021-06-01T11:16:20.316Z</time>
      </trkpt>
      <trkpt lat="44.13842" lon="5.8615">
        <ele>1250</ele>
        <time>2021-06-01T11:16:21.316Z</time>
      </trkpt>
      <trkpt lat="44.13842" lon="5.8615">
        <ele>1250</ele>
        <time>2021-06-01T11:16:22.316Z</time>
      </trkpt>
      <trkpt lat="44.13843" lon="5.8615">
        <ele>1250</ele>
        <time>2021-06-01T11:16:23.316Z</time>
      </trkpt>
      <trkpt lat="44.13844" lon="5.8615">
        <ele>1250</ele>
        <time>2021-06-01T11:16:24.316Z</time>
      </trkpt>
      <trkpt lat="44.13844" lon="5.8615">
        <ele>1250</ele>
        <time>2021-06-01T11:16:25.316Z</time>
      </trkpt>
      <trkpt lat="44.13845" lon="5.8615">
        <ele>1250</ele>
        <time>2021-06-01T11:16:26.316Z</time>
      </trkpt>
      <trkpt lat="44.13845" lon="5.8615">
        <ele>1249</ele>
        <time>2021-06-01T11:16:27.316Z</time>
      </trkpt>
      <trkpt lat="44.13846" lon="5.8615">
        <ele>1249</ele>
        <time>2021-06-01T11:16:28.316Z</time>
      </trkpt>
      <trkpt lat="44.13846" lon="5.8615">
        <ele>1249</ele>
        <time>2021-06-01T11:16:29.316Z</time>
      </trkpt>
      <trkpt lat="44.13846" lon="5.86149">
        <ele>1249</ele>
        <time>2021-06-01T11:16:30.316Z</time>
      </trkpt>
      <trkpt lat="44.13847" lon="5.86149">
        <ele>1249</ele>
        <time>2021-06-01T11:16:31.316Z</time>
      </trkpt>
      <trkpt lat="44.13847" lon="5.86149">
        <ele>1249</ele>
        <time>2021-06-01T11:16:32.316Z</time>
      </trkpt>
      <trkpt lat="44.13847" lon="5.86149">
        <ele>1249</ele>
        <time>2021-06-01T11:16:33.316Z</time>
      </trkpt>
      <trkpt lat="44.13848" lon="5.86149">
        <ele>1249</ele>
        <time>2021-06-01T11:16:34.316Z</time>
      </trkpt>
      <trkpt lat="44.13848" lon="5.86149">
        <ele>1249</ele>
        <time>2021-06-01T11:16:35.316Z</time>
      </trkpt>
      <trkpt lat="44.13849" lon="5.86148">
        <ele>1248</ele>
        <time>2021-06-01T11:16:36.316Z</time>
      </trkpt>
      <trkpt lat="44.1385" lon="5.86147">
        <ele>1248</ele>
        <time>2021-06-01T11:16:37.316Z</time>
      </trkpt>
      <trkpt lat="44.13851" lon="5.86147">
        <ele>1248</ele>
        <time>2021-06-01T11:16:38.316Z</time>
      </trkpt>
      <trkpt lat="44.13851" lon="5.86147">
        <ele>1248</ele>
        <time>2021-06-01T11:16:39.316Z</time>
      </trkpt>
      <trkpt lat="44.13852" lon="5.86147">
        <ele>1248</ele>
        <time>2021-06-01T11:16:40.316Z</time>
      </trkpt>
      <trkpt lat="44.13853" lon="5.86147">
        <ele>1248</ele>
        <time>2021-06-01T11:16:41.316Z</time>
      </trkpt>
      <trkpt lat="44.13854" lon="5.86146">
        <ele>1248</ele>
        <time>2021-06-01T11:16:42.316Z</time>
      </trkpt>
      <trkpt lat="44.13855" lon="5.86146">
        <ele>1247</ele>
        <time>2021-06-01T11:16:43.316Z</time>
      </trkpt>
      <trkpt lat="44.13855" lon="5.86146">
        <ele>1247</ele>
        <time>2021-06-01T11:16:44.316Z</time>
      </trkpt>
      <trkpt lat="44.13856" lon="5.86145">
        <ele>1247</ele>
        <time>2021-06-01T11:16:45.316Z</time>
      </trkpt>
      <trkpt lat="44.13857" lon="5.86145">
        <ele>1247</ele>
        <time>2021-06-01T11:16:46.316Z</time>
      </trkpt>
      <trkpt lat="44.13858" lon="5.86145">
        <ele>1247</ele>
        <time>2021-06-01T11:16:47.316Z</time>
      </trkpt>
      <trkpt lat="44.13859" lon="5.86144">
        <ele>1247</ele>
        <time>2021-06-01T11:16:48.316Z</time>
      </trkpt>
      <trkpt lat="44.1386" lon="5.86145">
        <ele>1246</ele>
        <time>2021-06-01T11:16:49.316Z</time>
      </trkpt>
      <trkpt lat="44.1386" lon="5.86145">
        <ele>1246</ele>
        <time>2021-06-01T11:16:50.316Z</time>
      </trkpt>
      <trkpt lat="44.13861" lon="5.86146">
        <ele>1246</ele>
        <time>2021-06-01T11:16:51.316Z</time>
      </trkpt>
      <trkpt lat="44.13861" lon="5.86146">
        <ele>1246</ele>
        <time>2021-06-01T11:16:52.316Z</time>
      </trkpt>
      <trkpt lat="44.13862" lon="5.86146">
        <ele>1246</ele>
        <time>2021-06-01T11:16:53.316Z</time>
      </trkpt>
      <trkpt lat="44.13863" lon="5.86146">
        <ele>1246</ele>
        <time>2021-06-01T11:16:54.316Z</time>
      </trkpt>
      <trkpt lat="44.13864" lon="5.86146">
        <ele>1246</ele>
        <time>2021-06-01T11:16:55.316Z</time>
      </trkpt>
      <trkpt lat="44.13864" lon="5.86146">
        <ele>1246</ele>
        <time>2021-06-01T11:16:56.316Z</time>
      </trkpt>
      <trkpt lat="44.13865" lon="5.86146">
        <ele>1246</ele>
        <time>2021-06-01T11:16:57.316Z</time>
      </trkpt>
      <trkpt lat="44.13865" lon="5.86146">
        <ele>1246</ele>
        <time>2021-06-01T11:16:58.316Z</time>
      </trkpt>
      <trkpt lat="44.13866" lon="5.86146">
        <ele>1245</ele>
        <time>2021-06-01T11:16:59.316Z</time>
      </trkpt>
      <trkpt lat="44.13867" lon="5.86146">
        <ele>1245</ele>
        <time>2021-06-01T11:17:00.316Z</time>
      </trkpt>
      <trkpt lat="44.13868" lon="5.86147">
        <ele>1245</ele>
        <time>2021-06-01T11:17:01.316Z</time>
      </trkpt>
      <trkpt lat="44.13869" lon="5.86147">
        <ele>1245</ele>
        <time>2021-06-01T11:17:02.316Z</time>
      </trkpt>
      <trkpt lat="44.1387" lon="5.86148">
        <ele>1245</ele>
        <time>2021-06-01T11:17:03.316Z</time>
      </trkpt>
      <trkpt lat="44.13871" lon="5.86148">
        <ele>1245</ele>
        <time>2021-06-01T11:17:04.316Z</time>
      </trkpt>
      <trkpt lat="44.13872" lon="5.86148">
        <ele>1244</ele>
        <time>2021-06-01T11:17:05.316Z</time>
      </trkpt>
      <trkpt lat="44.13873" lon="5.86149">
        <ele>1244</ele>
        <time>2021-06-01T11:17:06.316Z</time>
      </trkpt>
      <trkpt lat="44.13874" lon="5.86149">
        <ele>1244</ele>
        <time>2021-06-01T11:17:07.316Z</time>
      </trkpt>
      <trkpt lat="44.13874" lon="5.86149">
        <ele>1244</ele>
        <time>2021-06-01T11:17:08.316Z</time>
      </trkpt>
      <trkpt lat="44.13874" lon="5.86149">
        <ele>1244</ele>
        <time>2021-06-01T11:17:09.316Z</time>
      </trkpt>
      <trkpt lat="44.13875" lon="5.86149">
        <ele>1244</ele>
        <time>2021-06-01T11:17:10.316Z</time>
      </trkpt>
      <trkpt lat="44.13875" lon="5.86149">
        <ele>1244</ele>
        <time>2021-06-01T11:17:11.316Z</time>
      </trkpt>
      <trkpt lat="44.13876" lon="5.86149">
        <ele>1244</ele>
        <time>2021-06-01T11:17:12.316Z</time>
      </trkpt>
      <trkpt lat="44.13877" lon="5.86149">
        <ele>1243</ele>
        <time>2021-06-01T11:17:13.316Z</time>
      </trkpt>
      <trkpt lat="44.13877" lon="5.8615">
        <ele>1243</ele>
        <time>2021-06-01T11:17:14.316Z</time>
      </trkpt>
      <trkpt lat="44.13878" lon="5.86151">
        <ele>1243</ele>
        <time>2021-06-01T11:17:15.316Z</time>
      </trkpt>
      <trkpt lat="44.13879" lon="5.86151">
        <ele>1243</ele>
        <time>2021-06-01T11:17:16.316Z</time>
      </trkpt>
      <trkpt lat="44.1388" lon="5.86151">
        <ele>1243</ele>
        <time>2021-06-01T11:17:17.316Z</time>
      </trkpt>
      <trkpt lat="44.13881" lon="5.86151">
        <ele>1243</ele>
        <time>2021-06-01T11:17:18.316Z</time>
      </trkpt>
      <trkpt lat="44.13881" lon="5.86151">
        <ele>1242</ele>
        <time>2021-06-01T11:17:19.316Z</time>
      </trkpt>
      <trkpt lat="44.13882" lon="5.86151">
        <ele>1242</ele>
        <time>2021-06-01T11:17:20.316Z</time>
      </trkpt>
      <trkpt lat="44.13883" lon="5.86151">
        <ele>1242</ele>
        <time>2021-06-01T11:17:21.316Z</time>
      </trkpt>
      <trkpt lat="44.13884" lon="5.8615">
        <ele>1241</ele>
        <time>2021-06-01T11:17:22.316Z</time>
      </trkpt>
      <trkpt lat="44.13884" lon="5.8615">
        <ele>1241</ele>
        <time>2021-06-01T11:17:23.316Z</time>
      </trkpt>
      <trkpt lat="44.13885" lon="5.8615">
        <ele>1241</ele>
        <time>2021-06-01T11:17:24.316Z</time>
      </trkpt>
      <trkpt lat="44.13886" lon="5.86151">
        <ele>1241</ele>
        <time>2021-06-01T11:17:25.316Z</time>
      </trkpt>
      <trkpt lat="44.13886" lon="5.86151">
        <ele>1240</ele>
        <time>2021-06-01T11:17:26.316Z</time>
      </trkpt>
      <trkpt lat="44.13887" lon="5.86151">
        <ele>1240</ele>
        <time>2021-06-01T11:17:27.316Z</time>
      </trkpt>
      <trkpt lat="44.13887" lon="5.86152">
        <ele>1240</ele>
        <time>2021-06-01T11:17:28.316Z</time>
      </trkpt>
      <trkpt lat="44.13888" lon="5.86152">
        <ele>1239</ele>
        <time>2021-06-01T11:17:29.316Z</time>
      </trkpt>
      <trkpt lat="44.13889" lon="5.86152">
        <ele>1239</ele>
        <time>2021-06-01T11:17:30.316Z</time>
      </trkpt>
      <trkpt lat="44.13889" lon="5.86153">
        <ele>1239</ele>
        <time>2021-06-01T11:17:31.316Z</time>
      </trkpt>
      <trkpt lat="44.1389" lon="5.86153">
        <ele>1239</ele>
        <time>2021-06-01T11:17:32.316Z</time>
      </trkpt>
      <trkpt lat="44.1389" lon="5.86153">
        <ele>1239</ele>
        <time>2021-06-01T11:17:33.316Z</time>
      </trkpt>
      <trkpt lat="44.1389" lon="5.86153">
        <ele>1239</ele>
        <time>2021-06-01T11:17:34.316Z</time>
      </trkpt>
      <trkpt lat="44.13891" lon="5.86153">
        <ele>1239</ele>
        <time>2021-06-01T11:17:35.316Z</time>
      </trkpt>
      <trkpt lat="44.13891" lon="5.86154">
        <ele>1239</ele>
        <time>2021-06-01T11:17:36.316Z</time>
      </trkpt>
      <trkpt lat="44.13891" lon="5.86154">
        <ele>1238</ele>
        <time>2021-06-01T11:17:37.316Z</time>
      </trkpt>
      <trkpt lat="44.13892" lon="5.86154">
        <ele>1238</ele>
        <time>2021-06-01T11:17:38.316Z</time>
      </trkpt>
      <trkpt lat="44.13892" lon="5.86154">
        <ele>1238</ele>
        <time>2021-06-01T11:17:39.316Z</time>
      </trkpt>
      <trkpt lat="44.13892" lon="5.86154">
        <ele>1238</ele>
        <time>2021-06-01T11:17:40.316Z</time>
      </trkpt>
      <trkpt lat="44.13893" lon="5.86155">
        <ele>1237</ele>
        <time>2021-06-01T11:17:41.316Z</time>
      </trkpt>
      <trkpt lat="44.13893" lon="5.86155">
        <ele>1237</ele>
        <time>2021-06-01T11:17:42.316Z</time>
      </trkpt>
      <trkpt lat="44.13893" lon="5.86155">
        <ele>1237</ele>
        <time>2021-06-01T11:17:43.316Z</time>
      </trkpt>
      <trkpt lat="44.13894" lon="5.86156">
        <ele>1237</ele>
        <time>2021-06-01T11:17:44.316Z</time>
      </trkpt>
      <trkpt lat="44.13894" lon="5.86156">
        <ele>1237</ele>
        <time>2021-06-01T11:17:45.316Z</time>
      </trkpt>
      <trkpt lat="44.13894" lon="5.86156">
        <ele>1236</ele>
        <time>2021-06-01T11:17:46.316Z</time>
      </trkpt>
      <trkpt lat="44.13894" lon="5.86156">
        <ele>1236</ele>
        <time>2021-06-01T11:17:47.316Z</time>
      </trkpt>
      <trkpt lat="44.13895" lon="5.86156">
        <ele>1236</ele>
        <time>2021-06-01T11:17:48.316Z</time>
      </trkpt>
      <trkpt lat="44.13896" lon="5.86156">
        <ele>1236</ele>
        <time>2021-06-01T11:17:49.316Z</time>
      </trkpt>
      <trkpt lat="44.13896" lon="5.86156">
        <ele>1236</ele>
        <time>2021-06-01T11:17:50.316Z</time>
      </trkpt>
      <trkpt lat="44.13897" lon="5.86157">
        <ele>1236</ele>
        <time>2021-06-01T11:17:51.316Z</time>
      </trkpt>
      <trkpt lat="44.13897" lon="5.86157">
        <ele>1236</ele>
        <time>2021-06-01T11:17:52.316Z</time>
      </trkpt>
      <trkpt lat="44.13897" lon="5.86157">
        <ele>1236</ele>
        <time>2021-06-01T11:17:53.316Z</time>
      </trkpt>
      <trkpt lat="44.13897" lon="5.86157">
        <ele>1236</ele>
        <time>2021-06-01T11:17:54.316Z</time>
      </trkpt>
      <trkpt lat="44.13897" lon="5.86157">
        <ele>1235</ele>
        <time>2021-06-01T11:17:55.316Z</time>
      </trkpt>
      <trkpt lat="44.13898" lon="5.86157">
        <ele>1235</ele>
        <time>2021-06-01T11:17:56.316Z</time>
      </trkpt>
      <trkpt lat="44.13898" lon="5.86157">
        <ele>1235</ele>
        <time>2021-06-01T11:17:57.316Z</time>
      </trkpt>
      <trkpt lat="44.13898" lon="5.86157">
        <ele>1235</ele>
        <time>2021-06-01T11:17:58.316Z</time>
      </trkpt>
      <trkpt lat="44.13898" lon="5.86157">
        <ele>1235</ele>
        <time>2021-06-01T11:17:59.316Z</time>
      </trkpt>
      <trkpt lat="44.13898" lon="5.86157">
        <ele>1235</ele>
        <time>2021-06-01T11:18:00.316Z</time>
      </trkpt>
      <trkpt lat="44.13898" lon="5.86157">
        <ele>1235</ele>
        <time>2021-06-01T11:18:01.316Z</time>
      </trkpt>
      <trkpt lat="44.13898" lon="5.86157">
        <ele>1235</ele>
        <time>2021-06-01T11:18:02.316Z</time>
      </trkpt>
      <trkpt lat="44.13898" lon="5.86158">
        <ele>1235</ele>
        <time>2021-06-01T11:18:03.316Z</time>
      </trkpt>
      <trkpt lat="44.13898" lon="5.86157">
        <ele>1235</ele>
        <time>2021-06-01T11:18:04.316Z</time>
      </trkpt>
      <trkpt lat="44.13899" lon="5.86158">
        <ele>1235</ele>
        <time>2021-06-01T11:18:05.316Z</time>
      </trkpt>
      <trkpt lat="44.13899" lon="5.86158">
        <ele>1235</ele>
        <time>2021-06-01T11:18:06.316Z</time>
      </trkpt>
      <trkpt lat="44.13899" lon="5.86158">
        <ele>1235</ele>
        <time>2021-06-01T11:18:07.316Z</time>
      </trkpt>
      <trkpt lat="44.139" lon="5.86158">
        <ele>1235</ele>
        <time>2021-06-01T11:18:08.316Z</time>
      </trkpt>
      <trkpt lat="44.139" lon="5.86159">
        <ele>1235</ele>
        <time>2021-06-01T11:18:09.316Z</time>
      </trkpt>
      <trkpt lat="44.13901" lon="5.86159">
        <ele>1235</ele>
        <time>2021-06-01T11:18:10.316Z</time>
      </trkpt>
      <trkpt lat="44.13902" lon="5.8616">
        <ele>1234</ele>
        <time>2021-06-01T11:18:11.316Z</time>
      </trkpt>
      <trkpt lat="44.13902" lon="5.8616">
        <ele>1234</ele>
        <time>2021-06-01T11:18:12.316Z</time>
      </trkpt>
      <trkpt lat="44.13902" lon="5.8616">
        <ele>1234</ele>
        <time>2021-06-01T11:18:13.316Z</time>
      </trkpt>
      <trkpt lat="44.13903" lon="5.86161">
        <ele>1234</ele>
        <time>2021-06-01T11:18:14.316Z</time>
      </trkpt>
      <trkpt lat="44.13903" lon="5.86162">
        <ele>1234</ele>
        <time>2021-06-01T11:18:15.316Z</time>
      </trkpt>
      <trkpt lat="44.13903" lon="5.86162">
        <ele>1234</ele>
        <time>2021-06-01T11:18:16.316Z</time>
      </trkpt>
      <trkpt lat="44.13903" lon="5.86162">
        <ele>1234</ele>
        <time>2021-06-01T11:18:17.316Z</time>
      </trkpt>
      <trkpt lat="44.13903" lon="5.86163">
        <ele>1233</ele>
        <time>2021-06-01T11:18:18.316Z</time>
      </trkpt>
      <trkpt lat="44.13904" lon="5.86163">
        <ele>1233</ele>
        <time>2021-06-01T11:18:19.316Z</time>
      </trkpt>
      <trkpt lat="44.13905" lon="5.86163">
        <ele>1233</ele>
        <time>2021-06-01T11:18:20.316Z</time>
      </trkpt>
      <trkpt lat="44.13905" lon="5.86164">
        <ele>1233</ele>
        <time>2021-06-01T11:18:21.316Z</time>
      </trkpt>
      <trkpt lat="44.13906" lon="5.86164">
        <ele>1233</ele>
        <time>2021-06-01T11:18:22.316Z</time>
      </trkpt>
      <trkpt lat="44.13906" lon="5.86164">
        <ele>1232</ele>
        <time>2021-06-01T11:18:23.316Z</time>
      </trkpt>
      <trkpt lat="44.13907" lon="5.86165">
        <ele>1232</ele>
        <time>2021-06-01T11:18:24.316Z</time>
      </trkpt>
      <trkpt lat="44.13908" lon="5.86165">
        <ele>1232</ele>
        <time>2021-06-01T11:18:25.316Z</time>
      </trkpt>
      <trkpt lat="44.13908" lon="5.86165">
        <ele>1232</ele>
        <time>2021-06-01T11:18:26.316Z</time>
      </trkpt>
      <trkpt lat="44.13908" lon="5.86165">
        <ele>1232</ele>
        <time>2021-06-01T11:18:27.316Z</time>
      </trkpt>
      <trkpt lat="44.13909" lon="5.86166">
        <ele>1231</ele>
        <time>2021-06-01T11:18:28.316Z</time>
      </trkpt>
      <trkpt lat="44.13909" lon="5.86166">
        <ele>1231</ele>
        <time>2021-06-01T11:18:29.316Z</time>
      </trkpt>
      <trkpt lat="44.1391" lon="5.86166">
        <ele>1231</ele>
        <time>2021-06-01T11:18:30.316Z</time>
      </trkpt>
      <trkpt lat="44.1391" lon="5.86165">
        <ele>1231</ele>
        <time>2021-06-01T11:18:31.316Z</time>
      </trkpt>
      <trkpt lat="44.1391" lon="5.86165">
        <ele>1231</ele>
        <time>2021-06-01T11:18:32.316Z</time>
      </trkpt>
      <trkpt lat="44.1391" lon="5.86164">
        <ele>1231</ele>
        <time>2021-06-01T11:18:33.316Z</time>
      </trkpt>
      <trkpt lat="44.1391" lon="5.86163">
        <ele>1230</ele>
        <time>2021-06-01T11:18:34.316Z</time>
      </trkpt>
      <trkpt lat="44.1391" lon="5.86163">
        <ele>1230</ele>
        <time>2021-06-01T11:18:35.316Z</time>
      </trkpt>
      <trkpt lat="44.1391" lon="5.86162">
        <ele>1230</ele>
        <time>2021-06-01T11:18:36.316Z</time>
      </trkpt>
      <trkpt lat="44.13911" lon="5.86161">
        <ele>1230</ele>
        <time>2021-06-01T11:18:37.316Z</time>
      </trkpt>
      <trkpt lat="44.13911" lon="5.8616">
        <ele>1230</ele>
        <time>2021-06-01T11:18:38.316Z</time>
      </trkpt>
      <trkpt lat="44.13911" lon="5.8616">
        <ele>1230</ele>
        <time>2021-06-01T11:18:39.316Z</time>
      </trkpt>
      <trkpt lat="44.13911" lon="5.86159">
        <ele>1229</ele>
        <time>2021-06-01T11:18:40.316Z</time>
      </trkpt>
      <trkpt lat="44.13911" lon="5.86158">
        <ele>1229</ele>
        <time>2021-06-01T11:18:41.316Z</time>
      </trkpt>
      <trkpt lat="44.13911" lon="5.86158">
        <ele>1229</ele>
        <time>2021-06-01T11:18:42.316Z</time>
      </trkpt>
      <trkpt lat="44.13911" lon="5.86157">
        <ele>1229</ele>
        <time>2021-06-01T11:18:43.316Z</time>
      </trkpt>
      <trkpt lat="44.13911" lon="5.86157">
        <ele>1229</ele>
        <time>2021-06-01T11:18:44.316Z</time>
      </trkpt>
      <trkpt lat="44.13911" lon="5.86156">
        <ele>1228</ele>
        <time>2021-06-01T11:18:45.316Z</time>
      </trkpt>
      <trkpt lat="44.1391" lon="5.86155">
        <ele>1228</ele>
        <time>2021-06-01T11:18:46.316Z</time>
      </trkpt>
      <trkpt lat="44.1391" lon="5.86155">
        <ele>1228</ele>
        <time>2021-06-01T11:18:47.316Z</time>
      </trkpt>
      <trkpt lat="44.1391" lon="5.86154">
        <ele>1228</ele>
        <time>2021-06-01T11:18:48.316Z</time>
      </trkpt>
      <trkpt lat="44.1391" lon="5.86154">
        <ele>1227</ele>
        <time>2021-06-01T11:18:49.316Z</time>
      </trkpt>
      <trkpt lat="44.13909" lon="5.86153">
        <ele>1227</ele>
        <time>2021-06-01T11:18:50.316Z</time>
      </trkpt>
      <trkpt lat="44.13909" lon="5.86153">
        <ele>1227</ele>
        <time>2021-06-01T11:18:51.316Z</time>
      </trkpt>
      <trkpt lat="44.13908" lon="5.86153">
        <ele>1227</ele>
        <time>2021-06-01T11:18:52.316Z</time>
      </trkpt>
      <trkpt lat="44.13908" lon="5.86152">
        <ele>1227</ele>
        <time>2021-06-01T11:18:53.316Z</time>
      </trkpt>
      <trkpt lat="44.13908" lon="5.86152">
        <ele>1227</ele>
        <time>2021-06-01T11:18:54.316Z</time>
      </trkpt>
      <trkpt lat="44.13908" lon="5.86152">
        <ele>1227</ele>
        <time>2021-06-01T11:18:55.316Z</time>
      </trkpt>
      <trkpt lat="44.13907" lon="5.86152">
        <ele>1227</ele>
        <time>2021-06-01T11:18:56.316Z</time>
      </trkpt>
      <trkpt lat="44.13907" lon="5.86151">
        <ele>1227</ele>
        <time>2021-06-01T11:18:57.316Z</time>
      </trkpt>
      <trkpt lat="44.13906" lon="5.86151">
        <ele>1227</ele>
        <time>2021-06-01T11:18:58.316Z</time>
      </trkpt>
      <trkpt lat="44.13906" lon="5.8615">
        <ele>1227</ele>
        <time>2021-06-01T11:18:59.316Z</time>
      </trkpt>
      <trkpt lat="44.13906" lon="5.86149">
        <ele>1226</ele>
        <time>2021-06-01T11:19:00.316Z</time>
      </trkpt>
      <trkpt lat="44.13905" lon="5.86149">
        <ele>1226</ele>
        <time>2021-06-01T11:19:01.316Z</time>
      </trkpt>
      <trkpt lat="44.13905" lon="5.86148">
        <ele>1226</ele>
        <time>2021-06-01T11:19:02.316Z</time>
      </trkpt>
      <trkpt lat="44.13905" lon="5.86148">
        <ele>1226</ele>
        <time>2021-06-01T11:19:03.316Z</time>
      </trkpt>
      <trkpt lat="44.13905" lon="5.86147">
        <ele>1226</ele>
        <time>2021-06-01T11:19:04.316Z</time>
      </trkpt>
      <trkpt lat="44.13905" lon="5.86147">
        <ele>1226</ele>
        <time>2021-06-01T11:19:05.316Z</time>
      </trkpt>
      <trkpt lat="44.13905" lon="5.86147">
        <ele>1226</ele>
        <time>2021-06-01T11:19:06.316Z</time>
      </trkpt>
      <trkpt lat="44.13905" lon="5.86146">
        <ele>1226</ele>
        <time>2021-06-01T11:19:07.316Z</time>
      </trkpt>
      <trkpt lat="44.13905" lon="5.86146">
        <ele>1226</ele>
        <time>2021-06-01T11:19:08.316Z</time>
      </trkpt>
      <trkpt lat="44.13904" lon="5.86146">
        <ele>1226</ele>
        <time>2021-06-01T11:19:09.316Z</time>
      </trkpt>
      <trkpt lat="44.13904" lon="5.86146">
        <ele>1226</ele>
        <time>2021-06-01T11:19:10.316Z</time>
      </trkpt>
      <trkpt lat="44.13904" lon="5.86146">
        <ele>1226</ele>
        <time>2021-06-01T11:19:11.316Z</time>
      </trkpt>
      <trkpt lat="44.13904" lon="5.86145">
        <ele>1226</ele>
        <time>2021-06-01T11:19:12.316Z</time>
      </trkpt>
      <trkpt lat="44.13904" lon="5.86146">
        <ele>1226</ele>
        <time>2021-06-01T11:19:13.316Z</time>
      </trkpt>
      <trkpt lat="44.13904" lon="5.86146">
        <ele>1226</ele>
        <time>2021-06-01T11:19:14.316Z</time>
      </trkpt>
      <trkpt lat="44.13905" lon="5.86146">
        <ele>1226</ele>
        <time>2021-06-01T11:19:15.316Z</time>
      </trkpt>
      <trkpt lat="44.13905" lon="5.86146">
        <ele>1226</ele>
        <time>2021-06-01T11:19:16.316Z</time>
      </trkpt>
      <trkpt lat="44.13904" lon="5.86146">
        <ele>1226</ele>
        <time>2021-06-01T11:19:17.316Z</time>
      </trkpt>
      <trkpt lat="44.13904" lon="5.86146">
        <ele>1226</ele>
        <time>2021-06-01T11:19:18.316Z</time>
      </trkpt>
      <trkpt lat="44.13904" lon="5.86146">
        <ele>1226</ele>
        <time>2021-06-01T11:19:19.316Z</time>
      </trkpt>
      <trkpt lat="44.13904" lon="5.86146">
        <ele>1226</ele>
        <time>2021-06-01T11:19:20.316Z</time>
      </trkpt>
      <trkpt lat="44.13904" lon="5.86145">
        <ele>1226</ele>
        <time>2021-06-01T11:19:21.316Z</time>
      </trkpt>
      <trkpt lat="44.13904" lon="5.86145">
        <ele>1226</ele>
        <time>2021-06-01T11:19:22.316Z</time>
      </trkpt>
      <trkpt lat="44.13904" lon="5.86145">
        <ele>1226</ele>
        <time>2021-06-01T11:19:23.316Z</time>
      </trkpt>
      <trkpt lat="44.13904" lon="5.86145">
        <ele>1226</ele>
        <time>2021-06-01T11:19:24.316Z</time>
      </trkpt>
      <trkpt lat="44.13904" lon="5.86145">
        <ele>1226</ele>
        <time>2021-06-01T11:19:25.316Z</time>
      </trkpt>
      <trkpt lat="44.13904" lon="5.86145">
        <ele>1226</ele>
        <time>2021-06-01T11:19:26.316Z</time>
      </trkpt>
      <trkpt lat="44.13904" lon="5.86145">
        <ele>1226</ele>
        <time>2021-06-01T11:19:27.316Z</time>
      </trkpt>
      <trkpt lat="44.13904" lon="5.86145">
        <ele>1226</ele>
        <time>2021-06-01T11:19:28.316Z</time>
      </trkpt>
      <trkpt lat="44.13904" lon="5.86145">
        <ele>1226</ele>
        <time>2021-06-01T11:19:29.316Z</time>
      </trkpt>
      <trkpt lat="44.13905" lon="5.86145">
        <ele>1226</ele>
        <time>2021-06-01T11:19:30.316Z</time>
      </trkpt>
      <trkpt lat="44.13905" lon="5.86144">
        <ele>1226</ele>
        <time>2021-06-01T11:19:31.316Z</time>
      </trkpt>
      <trkpt lat="44.13905" lon="5.86145">
        <ele>1226</ele>
        <time>2021-06-01T11:19:32.316Z</time>
      </trkpt>
      <trkpt lat="44.13905" lon="5.86145">
        <ele>1226</ele>
        <time>2021-06-01T11:19:33.316Z</time>
      </trkpt>
      <trkpt lat="44.13906" lon="5.86145">
        <ele>1226</ele>
        <time>2021-06-01T11:19:34.316Z</time>
      </trkpt>
      <trkpt lat="44.13906" lon="5.86145">
        <ele>1226</ele>
        <time>2021-06-01T11:19:35.316Z</time>
      </trkpt>
      <trkpt lat="44.13906" lon="5.86144">
        <ele>1226</ele>
        <time>2021-06-01T11:19:36.316Z</time>
      </trkpt>
      <trkpt lat="44.13907" lon="5.86145">
        <ele>1226</ele>
        <time>2021-06-01T11:19:37.316Z</time>
      </trkpt>
      <trkpt lat="44.13907" lon="5.86145">
        <ele>1226</ele>
        <time>2021-06-01T11:19:38.316Z</time>
      </trkpt>
      <trkpt lat="44.13907" lon="5.86145">
        <ele>1226</ele>
        <time>2021-06-01T11:19:39.316Z</time>
      </trkpt>
      <trkpt lat="44.13907" lon="5.86144">
        <ele>1226</ele>
        <time>2021-06-01T11:19:40.316Z</time>
      </trkpt>
      <trkpt lat="44.13907" lon="5.86144">
        <ele>1226</ele>
        <time>2021-06-01T11:19:41.316Z</time>
      </trkpt>
      <trkpt lat="44.13907" lon="5.86145">
        <ele>1226</ele>
        <time>2021-06-01T11:19:42.316Z</time>
      </trkpt>
      <trkpt lat="44.13907" lon="5.86145">
        <ele>1226</ele>
        <time>2021-06-01T11:19:43.316Z</time>
      </trkpt>
      <trkpt lat="44.13907" lon="5.86145">
        <ele>1226</ele>
        <time>2021-06-01T11:19:44.316Z</time>
      </trkpt>
      <trkpt lat="44.13907" lon="5.86145">
        <ele>1226</ele>
        <time>2021-06-01T11:19:45.316Z</time>
      </trkpt>
      <trkpt lat="44.13907" lon="5.86145">
        <ele>1226</ele>
        <time>2021-06-01T11:19:46.316Z</time>
      </trkpt>
      <trkpt lat="44.13907" lon="5.86145">
        <ele>1226</ele>
        <time>2021-06-01T11:19:47.316Z</time>
      </trkpt>
      <trkpt lat="44.13907" lon="5.86144">
        <ele>1225</ele>
        <time>2021-06-01T11:19:48.316Z</time>
      </trkpt>
      <trkpt lat="44.13907" lon="5.86145">
        <ele>1225</ele>
        <time>2021-06-01T11:19:49.316Z</time>
      </trkpt>
      <trkpt lat="44.13907" lon="5.86144">
        <ele>1225</ele>
        <time>2021-06-01T11:19:50.316Z</time>
      </trkpt>
      <trkpt lat="44.13908" lon="5.86144">
        <ele>1225</ele>
        <time>2021-06-01T11:19:51.316Z</time>
      </trkpt>
      <trkpt lat="44.13908" lon="5.86144">
        <ele>1225</ele>
        <time>2021-06-01T11:19:52.316Z</time>
      </trkpt>
      <trkpt lat="44.13908" lon="5.86144">
        <ele>1225</ele>
        <time>2021-06-01T11:19:53.316Z</time>
      </trkpt>
      <trkpt lat="44.13908" lon="5.86144">
        <ele>1225</ele>
        <time>2021-06-01T11:19:54.316Z</time>
      </trkpt>
      <trkpt lat="44.13909" lon="5.86144">
        <ele>1225</ele>
        <time>2021-06-01T11:19:55.316Z</time>
      </trkpt>
      <trkpt lat="44.13909" lon="5.86144">
        <ele>1225</ele>
        <time>2021-06-01T11:19:56.316Z</time>
      </trkpt>
      <trkpt lat="44.13909" lon="5.86145">
        <ele>1225</ele>
        <time>2021-06-01T11:19:57.316Z</time>
      </trkpt>
      <trkpt lat="44.13909" lon="5.86145">
        <ele>1225</ele>
        <time>2021-06-01T11:19:58.316Z</time>
      </trkpt>
      <trkpt lat="44.13909" lon="5.86145">
        <ele>1225</ele>
        <time>2021-06-01T11:19:59.316Z</time>
      </trkpt>
      <trkpt lat="44.13909" lon="5.86145">
        <ele>1225</ele>
        <time>2021-06-01T11:20:00.316Z</time>
      </trkpt>
      <trkpt lat="44.13909" lon="5.86145">
        <ele>1225</ele>
        <time>2021-06-01T11:20:01.316Z</time>
      </trkpt>
      <trkpt lat="44.13909" lon="5.86145">
        <ele>1225</ele>
        <time>2021-06-01T11:20:02.316Z</time>
      </trkpt>
      <trkpt lat="44.13909" lon="5.86145">
        <ele>1225</ele>
        <time>2021-06-01T11:20:03.316Z</time>
      </trkpt>
      <trkpt lat="44.13909" lon="5.86145">
        <ele>1225</ele>
        <time>2021-06-01T11:20:04.316Z</time>
      </trkpt>
      <trkpt lat="44.1391" lon="5.86145">
        <ele>1225</ele>
        <time>2021-06-01T11:20:05.316Z</time>
      </trkpt>
      <trkpt lat="44.13909" lon="5.86146">
        <ele>1225</ele>
        <time>2021-06-01T11:20:06.316Z</time>
      </trkpt>
      <trkpt lat="44.13909" lon="5.86146">
        <ele>1225</ele>
        <time>2021-06-01T11:20:07.316Z</time>
      </trkpt>
      <trkpt lat="44.1391" lon="5.86147">
        <ele>1225</ele>
        <time>2021-06-01T11:20:08.316Z</time>
      </trkpt>
      <trkpt lat="44.1391" lon="5.86147">
        <ele>1225</ele>
        <time>2021-06-01T11:20:09.316Z</time>
      </trkpt>
      <trkpt lat="44.1391" lon="5.86147">
        <ele>1225</ele>
        <time>2021-06-01T11:20:10.316Z</time>
      </trkpt>
      <trkpt lat="44.1391" lon="5.86147">
        <ele>1225</ele>
        <time>2021-06-01T11:20:11.316Z</time>
      </trkpt>
      <trkpt lat="44.1391" lon="5.86147">
        <ele>1225</ele>
        <time>2021-06-01T11:20:12.316Z</time>
      </trkpt>
      <trkpt lat="44.1391" lon="5.86147">
        <ele>1225</ele>
        <time>2021-06-01T11:20:13.316Z</time>
      </trkpt>
      <trkpt lat="44.13911" lon="5.86147">
        <ele>1225</ele>
        <time>2021-06-01T11:20:14.316Z</time>
      </trkpt>
      <trkpt lat="44.13911" lon="5.86147">
        <ele>1224</ele>
        <time>2021-06-01T11:20:15.316Z</time>
      </trkpt>
      <trkpt lat="44.13911" lon="5.86147">
        <ele>1224</ele>
        <time>2021-06-01T11:20:16.316Z</time>
      </trkpt>
      <trkpt lat="44.13911" lon="5.86147">
        <ele>1224</ele>
        <time>2021-06-01T11:20:17.316Z</time>
      </trkpt>
      <trkpt lat="44.13911" lon="5.86147">
        <ele>1224</ele>
        <time>2021-06-01T11:20:18.316Z</time>
      </trkpt>
      <trkpt lat="44.13911" lon="5.86147">
        <ele>1224</ele>
        <time>2021-06-01T11:20:19.316Z</time>
      </trkpt>
      <trkpt lat="44.13911" lon="5.86147">
        <ele>1224</ele>
        <time>2021-06-01T11:20:20.316Z</time>
      </trkpt>
      <trkpt lat="44.13911" lon="5.86147">
        <ele>1224</ele>
        <time>2021-06-01T11:20:21.316Z</time>
      </trkpt>
      <trkpt lat="44.13911" lon="5.86147">
        <ele>1224</ele>
        <time>2021-06-01T11:20:22.316Z</time>
      </trkpt>
      <trkpt lat="44.13911" lon="5.86147">
        <ele>1224</ele>
        <time>2021-06-01T11:20:23.316Z</time>
      </trkpt>
      <trkpt lat="44.13911" lon="5.86147">
        <ele>1224</ele>
        <time>2021-06-01T11:20:24.316Z</time>
      </trkpt>
      <trkpt lat="44.13911" lon="5.86147">
        <ele>1224</ele>
        <time>2021-06-01T11:20:25.316Z</time>
      </trkpt>
      <trkpt lat="44.13911" lon="5.86147">
        <ele>1224</ele>
        <time>2021-06-01T11:20:26.316Z</time>
      </trkpt>
      <trkpt lat="44.13912" lon="5.86147">
        <ele>1224</ele>
        <time>2021-06-01T11:20:27.316Z</time>
      </trkpt>
      <trkpt lat="44.13912" lon="5.86147">
        <ele>1224</ele>
        <time>2021-06-01T11:20:28.316Z</time>
      </trkpt>
      <trkpt lat="44.13912" lon="5.86147">
        <ele>1224</ele>
        <time>2021-06-01T11:20:29.316Z</time>
      </trkpt>
      <trkpt lat="44.13912" lon="5.86147">
        <ele>1224</ele>
        <time>2021-06-01T11:20:30.316Z</time>
      </trkpt>
      <trkpt lat="44.13912" lon="5.86147">
        <ele>1224</ele>
        <time>2021-06-01T11:20:31.316Z</time>
      </trkpt>
      <trkpt lat="44.13912" lon="5.86147">
        <ele>1223</ele>
        <time>2021-06-01T11:20:32.316Z</time>
      </trkpt>
      <trkpt lat="44.13912" lon="5.86146">
        <ele>1223</ele>
        <time>2021-06-01T11:20:33.316Z</time>
      </trkpt>
      <trkpt lat="44.13912" lon="5.86146">
        <ele>1223</ele>
        <time>2021-06-01T11:20:34.316Z</time>
      </trkpt>
      <trkpt lat="44.13912" lon="5.86146">
        <ele>1223</ele>
        <time>2021-06-01T11:20:35.316Z</time>
      </trkpt>
      <trkpt lat="44.13912" lon="5.86146">
        <ele>1223</ele>
        <time>2021-06-01T11:20:36.316Z</time>
      </trkpt>
      <trkpt lat="44.13912" lon="5.86146">
        <ele>1223</ele>
        <time>2021-06-01T11:20:37.316Z</time>
      </trkpt>
      <trkpt lat="44.13913" lon="5.86146">
        <ele>1223</ele>
        <time>2021-06-01T11:20:38.316Z</time>
      </trkpt>
      <trkpt lat="44.13913" lon="5.86146">
        <ele>1223</ele>
        <time>2021-06-01T11:20:39.316Z</time>
      </trkpt>
      <trkpt lat="44.13913" lon="5.86146">
        <ele>1223</ele>
        <time>2021-06-01T11:20:40.316Z</time>
      </trkpt>
      <trkpt lat="44.13913" lon="5.86146">
        <ele>1223</ele>
        <time>2021-06-01T11:20:41.316Z</time>
      </trkpt>
      <trkpt lat="44.13914" lon="5.86146">
        <ele>1223</ele>
        <time>2021-06-01T11:20:42.316Z</time>
      </trkpt>
      <trkpt lat="44.13914" lon="5.86146">
        <ele>1223</ele>
        <time>2021-06-01T11:20:43.316Z</time>
      </trkpt>
      <trkpt lat="44.13914" lon="5.86146">
        <ele>1223</ele>
        <time>2021-06-01T11:20:44.316Z</time>
      </trkpt>
      <trkpt lat="44.13914" lon="5.86146">
        <ele>1223</ele>
        <time>2021-06-01T11:20:45.316Z</time>
      </trkpt>
      <trkpt lat="44.13914" lon="5.86146">
        <ele>1223</ele>
        <time>2021-06-01T11:20:46.316Z</time>
      </trkpt>
      <trkpt lat="44.13914" lon="5.86146">
        <ele>1223</ele>
        <time>2021-06-01T11:20:47.316Z</time>
      </trkpt>
      <trkpt lat="44.13914" lon="5.86146">
        <ele>1223</ele>
        <time>2021-06-01T11:20:48.316Z</time>
      </trkpt>
      <trkpt lat="44.13915" lon="5.86146">
        <ele>1223</ele>
        <time>2021-06-01T11:20:49.316Z</time>
      </trkpt>
      <trkpt lat="44.13915" lon="5.86146">
        <ele>1223</ele>
        <time>2021-06-01T11:20:50.316Z</time>
      </trkpt>
      <trkpt lat="44.13915" lon="5.86146">
        <ele>1223</ele>
        <time>2021-06-01T11:20:51.316Z</time>
      </trkpt>
      <trkpt lat="44.13915" lon="5.86145">
        <ele>1223</ele>
        <time>2021-06-01T11:20:52.316Z</time>
      </trkpt>
      <trkpt lat="44.13915" lon="5.86145">
        <ele>1223</ele>
        <time>2021-06-01T11:20:53.316Z</time>
      </trkpt>
      <trkpt lat="44.13915" lon="5.86145">
        <ele>1223</ele>
        <time>2021-06-01T11:20:54.316Z</time>
      </trkpt>
      <trkpt lat="44.13915" lon="5.86145">
        <ele>1223</ele>
        <time>2021-06-01T11:20:55.316Z</time>
      </trkpt>
      <trkpt lat="44.13915" lon="5.86145">
        <ele>1223</ele>
        <time>2021-06-01T11:20:56.316Z</time>
      </trkpt>
      <trkpt lat="44.13916" lon="5.86145">
        <ele>1223</ele>
        <time>2021-06-01T11:20:57.316Z</time>
      </trkpt>
      <trkpt lat="44.13916" lon="5.86145">
        <ele>1223</ele>
        <time>2021-06-01T11:20:58.316Z</time>
      </trkpt>
      <trkpt lat="44.13916" lon="5.86145">
        <ele>1223</ele>
        <time>2021-06-01T11:20:59.316Z</time>
      </trkpt>
      <trkpt lat="44.13917" lon="5.86145">
        <ele>1223</ele>
        <time>2021-06-01T11:21:00.316Z</time>
      </trkpt>
      <trkpt lat="44.13917" lon="5.86145">
        <ele>1223</ele>
        <time>2021-06-01T11:21:01.316Z</time>
      </trkpt>
      <trkpt lat="44.13917" lon="5.86146">
        <ele>1223</ele>
        <time>2021-06-01T11:21:02.316Z</time>
      </trkpt>
      <trkpt lat="44.13917" lon="5.86146">
        <ele>1223</ele>
        <time>2021-06-01T11:21:03.316Z</time>
      </trkpt>
      <trkpt lat="44.13918" lon="5.86146">
        <ele>1223</ele>
        <time>2021-06-01T11:21:04.316Z</time>
      </trkpt>
      <trkpt lat="44.13918" lon="5.86146">
        <ele>1222</ele>
        <time>2021-06-01T11:21:05.316Z</time>
      </trkpt>
      <trkpt lat="44.13918" lon="5.86146">
        <ele>1222</ele>
        <time>2021-06-01T11:21:06.316Z</time>
      </trkpt>
      <trkpt lat="44.13918" lon="5.86146">
        <ele>1222</ele>
        <time>2021-06-01T11:21:07.316Z</time>
      </trkpt>
      <trkpt lat="44.13918" lon="5.86146">
        <ele>1222</ele>
        <time>2021-06-01T11:21:08.316Z</time>
      </trkpt>
      <trkpt lat="44.13918" lon="5.86146">
        <ele>1222</ele>
        <time>2021-06-01T11:21:09.316Z</time>
      </trkpt>
      <trkpt lat="44.13919" lon="5.86146">
        <ele>1222</ele>
        <time>2021-06-01T11:21:10.316Z</time>
      </trkpt>
      <trkpt lat="44.13919" lon="5.86146">
        <ele>1222</ele>
        <time>2021-06-01T11:21:11.316Z</time>
      </trkpt>
      <trkpt lat="44.13919" lon="5.86146">
        <ele>1222</ele>
        <time>2021-06-01T11:21:12.316Z</time>
      </trkpt>
      <trkpt lat="44.1392" lon="5.86146">
        <ele>1222</ele>
        <time>2021-06-01T11:21:13.316Z</time>
      </trkpt>
      <trkpt lat="44.1392" lon="5.86146">
        <ele>1221</ele>
        <time>2021-06-01T11:21:14.316Z</time>
      </trkpt>
      <trkpt lat="44.1392" lon="5.86147">
        <ele>1221</ele>
        <time>2021-06-01T11:21:15.316Z</time>
      </trkpt>
      <trkpt lat="44.1392" lon="5.86147">
        <ele>1221</ele>
        <time>2021-06-01T11:21:16.316Z</time>
      </trkpt>
      <trkpt lat="44.1392" lon="5.86147">
        <ele>1221</ele>
        <time>2021-06-01T11:21:17.316Z</time>
      </trkpt>
      <trkpt lat="44.1392" lon="5.86147">
        <ele>1221</ele>
        <time>2021-06-01T11:21:18.316Z</time>
      </trkpt>
      <trkpt lat="44.1392" lon="5.86147">
        <ele>1221</ele>
        <time>2021-06-01T11:21:19.316Z</time>
      </trkpt>
      <trkpt lat="44.1392" lon="5.86147">
        <ele>1220</ele>
        <time>2021-06-01T11:21:20.316Z</time>
      </trkpt>
      <trkpt lat="44.1392" lon="5.86147">
        <ele>1220</ele>
        <time>2021-06-01T11:21:21.316Z</time>
      </trkpt>
      <trkpt lat="44.1392" lon="5.86148">
        <ele>1220</ele>
        <time>2021-06-01T11:21:22.316Z</time>
      </trkpt>
      <trkpt lat="44.1392" lon="5.86148">
        <ele>1220</ele>
        <time>2021-06-01T11:21:23.316Z</time>
      </trkpt>
      <trkpt lat="44.1392" lon="5.86148">
        <ele>1220</ele>
        <time>2021-06-01T11:21:24.316Z</time>
      </trkpt>
      <trkpt lat="44.1392" lon="5.86148">
        <ele>1220</ele>
        <time>2021-06-01T11:21:25.316Z</time>
      </trkpt>
      <trkpt lat="44.1392" lon="5.86148">
        <ele>1220</ele>
        <time>2021-06-01T11:21:26.316Z</time>
      </trkpt>
      <trkpt lat="44.1392" lon="5.86148">
        <ele>1220</ele>
        <time>2021-06-01T11:21:27.316Z</time>
      </trkpt>
      <trkpt lat="44.13921" lon="5.86148">
        <ele>1219</ele>
        <time>2021-06-01T11:21:28.316Z</time>
      </trkpt>
      <trkpt lat="44.13921" lon="5.86148">
        <ele>1219</ele>
        <time>2021-06-01T11:21:29.316Z</time>
      </trkpt>
      <trkpt lat="44.13921" lon="5.86148">
        <ele>1219</ele>
        <time>2021-06-01T11:21:30.316Z</time>
      </trkpt>
      <trkpt lat="44.13921" lon="5.86148">
        <ele>1219</ele>
        <time>2021-06-01T11:21:31.316Z</time>
      </trkpt>
      <trkpt lat="44.13921" lon="5.86148">
        <ele>1219</ele>
        <time>2021-06-01T11:21:32.316Z</time>
      </trkpt>
      <trkpt lat="44.13921" lon="5.86148">
        <ele>1219</ele>
        <time>2021-06-01T11:21:33.316Z</time>
      </trkpt>
      <trkpt lat="44.13921" lon="5.86148">
        <ele>1219</ele>
        <time>2021-06-01T11:21:34.316Z</time>
      </trkpt>
      <trkpt lat="44.13921" lon="5.86148">
        <ele>1219</ele>
        <time>2021-06-01T11:21:35.316Z</time>
      </trkpt>
      <trkpt lat="44.13922" lon="5.86148">
        <ele>1219</ele>
        <time>2021-06-01T11:21:36.316Z</time>
      </trkpt>
      <trkpt lat="44.13922" lon="5.86147">
        <ele>1219</ele>
        <time>2021-06-01T11:21:37.316Z</time>
      </trkpt>
      <trkpt lat="44.13922" lon="5.86147">
        <ele>1219</ele>
        <time>2021-06-01T11:21:38.316Z</time>
      </trkpt>
      <trkpt lat="44.13922" lon="5.86146">
        <ele>1219</ele>
        <time>2021-06-01T11:21:39.316Z</time>
      </trkpt>
      <trkpt lat="44.13922" lon="5.86146">
        <ele>1219</ele>
        <time>2021-06-01T11:21:40.316Z</time>
      </trkpt>
      <trkpt lat="44.13923" lon="5.86146">
        <ele>1219</ele>
        <time>2021-06-01T11:21:41.316Z</time>
      </trkpt>
      <trkpt lat="44.13923" lon="5.86146">
        <ele>1218</ele>
        <time>2021-06-01T11:21:42.316Z</time>
      </trkpt>
      <trkpt lat="44.13923" lon="5.86147">
        <ele>1218</ele>
        <time>2021-06-01T11:21:43.316Z</time>
      </trkpt>
      <trkpt lat="44.13923" lon="5.86147">
        <ele>1218</ele>
        <time>2021-06-01T11:21:44.316Z</time>
      </trkpt>
      <trkpt lat="44.13923" lon="5.86147">
        <ele>1218</ele>
        <time>2021-06-01T11:21:45.316Z</time>
      </trkpt>
      <trkpt lat="44.13923" lon="5.86148">
        <ele>1218</ele>
        <time>2021-06-01T11:21:46.316Z</time>
      </trkpt>
      <trkpt lat="44.13923" lon="5.86148">
        <ele>1218</ele>
        <time>2021-06-01T11:21:47.316Z</time>
      </trkpt>
      <trkpt lat="44.13923" lon="5.86148">
        <ele>1218</ele>
        <time>2021-06-01T11:21:48.316Z</time>
      </trkpt>
      <trkpt lat="44.13923" lon="5.86148">
        <ele>1218</ele>
        <time>2021-06-01T11:21:49.316Z</time>
      </trkpt>
      <trkpt lat="44.13924" lon="5.86148">
        <ele>1218</ele>
        <time>2021-06-01T11:21:50.316Z</time>
      </trkpt>
      <trkpt lat="44.13924" lon="5.86148">
        <ele>1217</ele>
        <time>2021-06-01T11:21:51.316Z</time>
      </trkpt>
      <trkpt lat="44.13924" lon="5.86148">
        <ele>1217</ele>
        <time>2021-06-01T11:21:52.316Z</time>
      </trkpt>
      <trkpt lat="44.13924" lon="5.86148">
        <ele>1217</ele>
        <time>2021-06-01T11:21:53.316Z</time>
      </trkpt>
      <trkpt lat="44.13924" lon="5.86148">
        <ele>1217</ele>
        <time>2021-06-01T11:21:54.316Z</time>
      </trkpt>
      <trkpt lat="44.13924" lon="5.86148">
        <ele>1217</ele>
        <time>2021-06-01T11:21:55.316Z</time>
      </trkpt>
      <trkpt lat="44.13924" lon="5.86149">
        <ele>1217</ele>
        <time>2021-06-01T11:21:56.316Z</time>
      </trkpt>
      <trkpt lat="44.13924" lon="5.86149">
        <ele>1217</ele>
        <time>2021-06-01T11:21:57.316Z</time>
      </trkpt>
      <trkpt lat="44.13924" lon="5.86149">
        <ele>1217</ele>
        <time>2021-06-01T11:21:58.316Z</time>
      </trkpt>
      <trkpt lat="44.13925" lon="5.86149">
        <ele>1216</ele>
        <time>2021-06-01T11:21:59.316Z</time>
      </trkpt>
      <trkpt lat="44.13925" lon="5.86149">
        <ele>1216</ele>
        <time>2021-06-01T11:22:00.316Z</time>
      </trkpt>
      <trkpt lat="44.13925" lon="5.86149">
        <ele>1216</ele>
        <time>2021-06-01T11:22:01.316Z</time>
      </trkpt>
      <trkpt lat="44.13925" lon="5.86149">
        <ele>1216</ele>
        <time>2021-06-01T11:22:02.316Z</time>
      </trkpt>
      <trkpt lat="44.13925" lon="5.86149">
        <ele>1216</ele>
        <time>2021-06-01T11:22:03.316Z</time>
      </trkpt>
      <trkpt lat="44.13925" lon="5.86149">
        <ele>1216</ele>
        <time>2021-06-01T11:22:04.316Z</time>
      </trkpt>
      <trkpt lat="44.13925" lon="5.86149">
        <ele>1216</ele>
        <time>2021-06-01T11:22:05.316Z</time>
      </trkpt>
      <trkpt lat="44.13925" lon="5.86149">
        <ele>1216</ele>
        <time>2021-06-01T11:22:06.316Z</time>
      </trkpt>
      <trkpt lat="44.13926" lon="5.86149">
        <ele>1215</ele>
        <time>2021-06-01T11:22:07.316Z</time>
      </trkpt>
      <trkpt lat="44.13926" lon="5.86149">
        <ele>1215</ele>
        <time>2021-06-01T11:22:08.316Z</time>
      </trkpt>
      <trkpt lat="44.13926" lon="5.86149">
        <ele>1215</ele>
        <time>2021-06-01T11:22:09.316Z</time>
      </trkpt>
      <trkpt lat="44.13926" lon="5.86149">
        <ele>1215</ele>
        <time>2021-06-01T11:22:10.316Z</time>
      </trkpt>
      <trkpt lat="44.13926" lon="5.86149">
        <ele>1215</ele>
        <time>2021-06-01T11:22:11.316Z</time>
      </trkpt>
      <trkpt lat="44.13926" lon="5.86148">
        <ele>1215</ele>
        <time>2021-06-01T11:22:12.316Z</time>
      </trkpt>
      <trkpt lat="44.13926" lon="5.86148">
        <ele>1215</ele>
        <time>2021-06-01T11:22:13.316Z</time>
      </trkpt>
      <trkpt lat="44.13927" lon="5.86148">
        <ele>1214</ele>
        <time>2021-06-01T11:22:14.316Z</time>
      </trkpt>
      <trkpt lat="44.13927" lon="5.86148">
        <ele>1214</ele>
        <time>2021-06-01T11:22:15.316Z</time>
      </trkpt>
      <trkpt lat="44.13927" lon="5.86148">
        <ele>1214</ele>
        <time>2021-06-01T11:22:16.316Z</time>
      </trkpt>
      <trkpt lat="44.13928" lon="5.86148">
        <ele>1214</ele>
        <time>2021-06-01T11:22:17.316Z</time>
      </trkpt>
      <trkpt lat="44.13928" lon="5.86148">
        <ele>1214</ele>
        <time>2021-06-01T11:22:18.316Z</time>
      </trkpt>
      <trkpt lat="44.13927" lon="5.86148">
        <ele>1214</ele>
        <time>2021-06-01T11:22:19.316Z</time>
      </trkpt>
      <trkpt lat="44.13927" lon="5.86148">
        <ele>1214</ele>
        <time>2021-06-01T11:22:20.316Z</time>
      </trkpt>
      <trkpt lat="44.13927" lon="5.86148">
        <ele>1214</ele>
        <time>2021-06-01T11:22:21.316Z</time>
      </trkpt>
      <trkpt lat="44.13927" lon="5.86148">
        <ele>1213</ele>
        <time>2021-06-01T11:22:22.316Z</time>
      </trkpt>
      <trkpt lat="44.13927" lon="5.86148">
        <ele>1213</ele>
        <time>2021-06-01T11:22:23.316Z</time>
      </trkpt>
      <trkpt lat="44.13928" lon="5.86149">
        <ele>1213</ele>
        <time>2021-06-01T11:22:24.316Z</time>
      </trkpt>
      <trkpt lat="44.13928" lon="5.86148">
        <ele>1213</ele>
        <time>2021-06-01T11:22:25.316Z</time>
      </trkpt>
      <trkpt lat="44.13928" lon="5.86149">
        <ele>1213</ele>
        <time>2021-06-01T11:22:26.316Z</time>
      </trkpt>
      <trkpt lat="44.13928" lon="5.86149">
        <ele>1213</ele>
        <time>2021-06-01T11:22:27.316Z</time>
      </trkpt>
      <trkpt lat="44.13928" lon="5.86149">
        <ele>1213</ele>
        <time>2021-06-01T11:22:28.316Z</time>
      </trkpt>
      <trkpt lat="44.13928" lon="5.86149">
        <ele>1213</ele>
        <time>2021-06-01T11:22:29.316Z</time>
      </trkpt>
      <trkpt lat="44.13928" lon="5.86149">
        <ele>1212</ele>
        <time>2021-06-01T11:22:30.316Z</time>
      </trkpt>
      <trkpt lat="44.13928" lon="5.86149">
        <ele>1212</ele>
        <time>2021-06-01T11:22:31.316Z</time>
      </trkpt>
      <trkpt lat="44.13928" lon="5.86149">
        <ele>1212</ele>
        <time>2021-06-01T11:22:32.316Z</time>
      </trkpt>
      <trkpt lat="44.13929" lon="5.86149">
        <ele>1212</ele>
        <time>2021-06-01T11:22:33.316Z</time>
      </trkpt>
      <trkpt lat="44.13929" lon="5.86149">
        <ele>1212</ele>
        <time>2021-06-01T11:22:34.316Z</time>
      </trkpt>
      <trkpt lat="44.13929" lon="5.86149">
        <ele>1212</ele>
        <time>2021-06-01T11:22:35.316Z</time>
      </trkpt>
      <trkpt lat="44.1393" lon="5.86149">
        <ele>1212</ele>
        <time>2021-06-01T11:22:36.316Z</time>
      </trkpt>
      <trkpt lat="44.1393" lon="5.86149">
        <ele>1211</ele>
        <time>2021-06-01T11:22:37.316Z</time>
      </trkpt>
      <trkpt lat="44.13931" lon="5.86148">
        <ele>1211</ele>
        <time>2021-06-01T11:22:38.316Z</time>
      </trkpt>
      <trkpt lat="44.13931" lon="5.86148">
        <ele>1211</ele>
        <time>2021-06-01T11:22:39.316Z</time>
      </trkpt>
      <trkpt lat="44.13932" lon="5.86148">
        <ele>1211</ele>
        <time>2021-06-01T11:22:40.316Z</time>
      </trkpt>
      <trkpt lat="44.13932" lon="5.86148">
        <ele>1211</ele>
        <time>2021-06-01T11:22:41.316Z</time>
      </trkpt>
      <trkpt lat="44.13933" lon="5.86148">
        <ele>1211</ele>
        <time>2021-06-01T11:22:42.316Z</time>
      </trkpt>
      <trkpt lat="44.13933" lon="5.86148">
        <ele>1211</ele>
        <time>2021-06-01T11:22:43.316Z</time>
      </trkpt>
      <trkpt lat="44.13934" lon="5.86148">
        <ele>1210</ele>
        <time>2021-06-01T11:22:44.316Z</time>
      </trkpt>
      <trkpt lat="44.13934" lon="5.86147">
        <ele>1210</ele>
        <time>2021-06-01T11:22:45.316Z</time>
      </trkpt>
      <trkpt lat="44.13935" lon="5.86147">
        <ele>1210</ele>
        <time>2021-06-01T11:22:46.316Z</time>
      </trkpt>
      <trkpt lat="44.13935" lon="5.86146">
        <ele>1210</ele>
        <time>2021-06-01T11:22:47.316Z</time>
      </trkpt>
      <trkpt lat="44.13935" lon="5.86146">
        <ele>1210</ele>
        <time>2021-06-01T11:22:48.316Z</time>
      </trkpt>
      <trkpt lat="44.13936" lon="5.86146">
        <ele>1210</ele>
        <time>2021-06-01T11:22:49.316Z</time>
      </trkpt>
      <trkpt lat="44.13936" lon="5.86146">
        <ele>1210</ele>
        <time>2021-06-01T11:22:50.316Z</time>
      </trkpt>
      <trkpt lat="44.13937" lon="5.86145">
        <ele>1210</ele>
        <time>2021-06-01T11:22:51.316Z</time>
      </trkpt>
      <trkpt lat="44.13938" lon="5.86145">
        <ele>1210</ele>
        <time>2021-06-01T11:22:52.316Z</time>
      </trkpt>
      <trkpt lat="44.13938" lon="5.86145">
        <ele>1210</ele>
        <time>2021-06-01T11:22:53.316Z</time>
      </trkpt>
      <trkpt lat="44.13939" lon="5.86144">
        <ele>1210</ele>
        <time>2021-06-01T11:22:54.316Z</time>
      </trkpt>
      <trkpt lat="44.1394" lon="5.86144">
        <ele>1209</ele>
        <time>2021-06-01T11:22:55.316Z</time>
      </trkpt>
      <trkpt lat="44.1394" lon="5.86142">
        <ele>1209</ele>
        <time>2021-06-01T11:22:56.316Z</time>
      </trkpt>
      <trkpt lat="44.13941" lon="5.86141">
        <ele>1208</ele>
        <time>2021-06-01T11:22:57.316Z</time>
      </trkpt>
      <trkpt lat="44.13941" lon="5.8614">
        <ele>1208</ele>
        <time>2021-06-01T11:22:58.316Z</time>
      </trkpt>
      <trkpt lat="44.13941" lon="5.86138">
        <ele>1208</ele>
        <time>2021-06-01T11:22:59.316Z</time>
      </trkpt>
      <trkpt lat="44.13941" lon="5.86136">
        <ele>1207</ele>
        <time>2021-06-01T11:23:00.316Z</time>
      </trkpt>
      <trkpt lat="44.13941" lon="5.86135">
        <ele>1207</ele>
        <time>2021-06-01T11:23:01.316Z</time>
      </trkpt>
      <trkpt lat="44.13941" lon="5.86133">
        <ele>1206</ele>
        <time>2021-06-01T11:23:02.316Z</time>
      </trkpt>
      <trkpt lat="44.13941" lon="5.86131">
        <ele>1206</ele>
        <time>2021-06-01T11:23:03.316Z</time>
      </trkpt>
      <trkpt lat="44.13941" lon="5.8613">
        <ele>1205</ele>
        <time>2021-06-01T11:23:04.316Z</time>
      </trkpt>
      <trkpt lat="44.13941" lon="5.86129">
        <ele>1205</ele>
        <time>2021-06-01T11:23:05.316Z</time>
      </trkpt>
      <trkpt lat="44.13941" lon="5.86128">
        <ele>1204</ele>
        <time>2021-06-01T11:23:06.316Z</time>
      </trkpt>
      <trkpt lat="44.13941" lon="5.86127">
        <ele>1204</ele>
        <time>2021-06-01T11:23:07.316Z</time>
      </trkpt>
      <trkpt lat="44.13941" lon="5.86127">
        <ele>1204</ele>
        <time>2021-06-01T11:23:08.316Z</time>
      </trkpt>
      <trkpt lat="44.13941" lon="5.86126">
        <ele>1204</ele>
        <time>2021-06-01T11:23:09.316Z</time>
      </trkpt>
      <trkpt lat="44.1394" lon="5.86126">
        <ele>1203</ele>
        <time>2021-06-01T11:23:10.316Z</time>
      </trkpt>
      <trkpt lat="44.1394" lon="5.86126">
        <ele>1203</ele>
        <time>2021-06-01T11:23:11.316Z</time>
      </trkpt>
      <trkpt lat="44.1394" lon="5.86126">
        <ele>1203</ele>
        <time>2021-06-01T11:23:12.316Z</time>
      </trkpt>
      <trkpt lat="44.1394" lon="5.86125">
        <ele>1203</ele>
        <time>2021-06-01T11:23:13.316Z</time>
      </trkpt>
      <trkpt lat="44.1394" lon="5.86125">
        <ele>1203</ele>
        <time>2021-06-01T11:23:14.316Z</time>
      </trkpt>
      <trkpt lat="44.1394" lon="5.86125">
        <ele>1202</ele>
        <time>2021-06-01T11:23:15.316Z</time>
      </trkpt>
      <trkpt lat="44.1394" lon="5.86125">
        <ele>1202</ele>
        <time>2021-06-01T11:23:16.316Z</time>
      </trkpt>
      <trkpt lat="44.1394" lon="5.86125">
        <ele>1202</ele>
        <time>2021-06-01T11:23:17.316Z</time>
      </trkpt>
      <trkpt lat="44.1394" lon="5.86124">
        <ele>1202</ele>
        <time>2021-06-01T11:23:18.316Z</time>
      </trkpt>
      <trkpt lat="44.1394" lon="5.86124">
        <ele>1202</ele>
        <time>2021-06-01T11:23:19.316Z</time>
      </trkpt>
      <trkpt lat="44.1394" lon="5.86124">
        <ele>1202</ele>
        <time>2021-06-01T11:23:20.316Z</time>
      </trkpt>
      <trkpt lat="44.1394" lon="5.86124">
        <ele>1202</ele>
        <time>2021-06-01T11:23:21.316Z</time>
      </trkpt>
      <trkpt lat="44.1394" lon="5.86124">
        <ele>1202</ele>
        <time>2021-06-01T11:23:22.316Z</time>
      </trkpt>
      <trkpt lat="44.1394" lon="5.86124">
        <ele>1202</ele>
        <time>2021-06-01T11:23:23.316Z</time>
      </trkpt>
      <trkpt lat="44.1394" lon="5.86124">
        <ele>1201</ele>
        <time>2021-06-01T11:23:24.316Z</time>
      </trkpt>
      <trkpt lat="44.1394" lon="5.86123">
        <ele>1201</ele>
        <time>2021-06-01T11:23:25.316Z</time>
      </trkpt>
      <trkpt lat="44.1394" lon="5.86123">
        <ele>1201</ele>
        <time>2021-06-01T11:23:26.316Z</time>
      </trkpt>
      <trkpt lat="44.1394" lon="5.86123">
        <ele>1201</ele>
        <time>2021-06-01T11:23:27.316Z</time>
      </trkpt>
      <trkpt lat="44.1394" lon="5.86123">
        <ele>1201</ele>
        <time>2021-06-01T11:23:28.316Z</time>
      </trkpt>
      <trkpt lat="44.1394" lon="5.86123">
        <ele>1201</ele>
        <time>2021-06-01T11:23:29.316Z</time>
      </trkpt>
      <trkpt lat="44.1394" lon="5.86123">
        <ele>1201</ele>
        <time>2021-06-01T11:23:30.316Z</time>
      </trkpt>
      <trkpt lat="44.1394" lon="5.86123">
        <ele>1201</ele>
        <time>2021-06-01T11:23:31.316Z</time>
      </trkpt>
      <trkpt lat="44.13939" lon="5.86123">
        <ele>1201</ele>
        <time>2021-06-01T11:23:32.316Z</time>
      </trkpt>
      <trkpt lat="44.13939" lon="5.86123">
        <ele>1201</ele>
        <time>2021-06-01T11:23:33.316Z</time>
      </trkpt>
      <trkpt lat="44.13939" lon="5.86122">
        <ele>1201</ele>
        <time>2021-06-01T11:23:34.316Z</time>
      </trkpt>
      <trkpt lat="44.13939" lon="5.86122">
        <ele>1201</ele>
        <time>2021-06-01T11:23:35.316Z</time>
      </trkpt>
      <trkpt lat="44.13939" lon="5.86121">
        <ele>1201</ele>
        <time>2021-06-01T11:23:36.316Z</time>
      </trkpt>
      <trkpt lat="44.13939" lon="5.86121">
        <ele>1201</ele>
        <time>2021-06-01T11:23:37.316Z</time>
      </trkpt>
      <trkpt lat="44.13939" lon="5.8612">
        <ele>1201</ele>
        <time>2021-06-01T11:23:38.316Z</time>
      </trkpt>
      <trkpt lat="44.13939" lon="5.8612">
        <ele>1201</ele>
        <time>2021-06-01T11:23:39.316Z</time>
      </trkpt>
      <trkpt lat="44.13939" lon="5.86119">
        <ele>1200</ele>
        <time>2021-06-01T11:23:40.316Z</time>
      </trkpt>
      <trkpt lat="44.13939" lon="5.86119">
        <ele>1200</ele>
        <time>2021-06-01T11:23:41.316Z</time>
      </trkpt>
      <trkpt lat="44.1394" lon="5.86118">
        <ele>1200</ele>
        <time>2021-06-01T11:23:42.316Z</time>
      </trkpt>
      <trkpt lat="44.1394" lon="5.86118">
        <ele>1200</ele>
        <time>2021-06-01T11:23:43.316Z</time>
      </trkpt>
      <trkpt lat="44.1394" lon="5.86118">
        <ele>1200</ele>
        <time>2021-06-01T11:23:44.316Z</time>
      </trkpt>
      <trkpt lat="44.1394" lon="5.86118">
        <ele>1199</ele>
        <time>2021-06-01T11:23:45.316Z</time>
      </trkpt>
      <trkpt lat="44.1394" lon="5.86117">
        <ele>1199</ele>
        <time>2021-06-01T11:23:46.316Z</time>
      </trkpt>
      <trkpt lat="44.13939" lon="5.86117">
        <ele>1199</ele>
        <time>2021-06-01T11:23:47.316Z</time>
      </trkpt>
      <trkpt lat="44.13939" lon="5.86117">
        <ele>1199</ele>
        <time>2021-06-01T11:23:48.316Z</time>
      </trkpt>
      <trkpt lat="44.1394" lon="5.86117">
        <ele>1199</ele>
        <time>2021-06-01T11:23:49.316Z</time>
      </trkpt>
      <trkpt lat="44.1394" lon="5.86116">
        <ele>1199</ele>
        <time>2021-06-01T11:23:50.316Z</time>
      </trkpt>
      <trkpt lat="44.1394" lon="5.86115">
        <ele>1199</ele>
        <time>2021-06-01T11:23:51.316Z</time>
      </trkpt>
      <trkpt lat="44.1394" lon="5.86115">
        <ele>1199</ele>
        <time>2021-06-01T11:23:52.316Z</time>
      </trkpt>
      <trkpt lat="44.1394" lon="5.86114">
        <ele>1198</ele>
        <time>2021-06-01T11:23:53.316Z</time>
      </trkpt>
      <trkpt lat="44.1394" lon="5.86114">
        <ele>1198</ele>
        <time>2021-06-01T11:23:54.316Z</time>
      </trkpt>
      <trkpt lat="44.1394" lon="5.86113">
        <ele>1198</ele>
        <time>2021-06-01T11:23:55.316Z</time>
      </trkpt>
      <trkpt lat="44.1394" lon="5.86112">
        <ele>1198</ele>
        <time>2021-06-01T11:23:56.316Z</time>
      </trkpt>
      <trkpt lat="44.1394" lon="5.86112">
        <ele>1198</ele>
        <time>2021-06-01T11:23:57.316Z</time>
      </trkpt>
      <trkpt lat="44.13941" lon="5.86111">
        <ele>1198</ele>
        <time>2021-06-01T11:23:58.316Z</time>
      </trkpt>
      <trkpt lat="44.13941" lon="5.86111">
        <ele>1198</ele>
        <time>2021-06-01T11:23:59.316Z</time>
      </trkpt>
      <trkpt lat="44.13941" lon="5.8611">
        <ele>1198</ele>
        <time>2021-06-01T11:24:00.316Z</time>
      </trkpt>
      <trkpt lat="44.13941" lon="5.86109">
        <ele>1198</ele>
        <time>2021-06-01T11:24:01.316Z</time>
      </trkpt>
      <trkpt lat="44.13942" lon="5.86108">
        <ele>1198</ele>
        <time>2021-06-01T11:24:02.316Z</time>
      </trkpt>
      <trkpt lat="44.13942" lon="5.86107">
        <ele>1198</ele>
        <time>2021-06-01T11:24:03.316Z</time>
      </trkpt>
      <trkpt lat="44.13942" lon="5.86106">
        <ele>1198</ele>
        <time>2021-06-01T11:24:04.316Z</time>
      </trkpt>
      <trkpt lat="44.13943" lon="5.86105">
        <ele>1198</ele>
        <time>2021-06-01T11:24:05.316Z</time>
      </trkpt>
      <trkpt lat="44.13943" lon="5.86104">
        <ele>1197</ele>
        <time>2021-06-01T11:24:06.316Z</time>
      </trkpt>
      <trkpt lat="44.13943" lon="5.86103">
        <ele>1197</ele>
        <time>2021-06-01T11:24:07.316Z</time>
      </trkpt>
      <trkpt lat="44.13944" lon="5.86102">
        <ele>1197</ele>
        <time>2021-06-01T11:24:08.316Z</time>
      </trkpt>
      <trkpt lat="44.13944" lon="5.86101">
        <ele>1197</ele>
        <time>2021-06-01T11:24:09.316Z</time>
      </trkpt>
      <trkpt lat="44.13944" lon="5.861">
        <ele>1197</ele>
        <time>2021-06-01T11:24:10.316Z</time>
      </trkpt>
      <trkpt lat="44.13944" lon="5.861">
        <ele>1197</ele>
        <time>2021-06-01T11:24:11.316Z</time>
      </trkpt>
      <trkpt lat="44.13944" lon="5.86099">
        <ele>1197</ele>
        <time>2021-06-01T11:24:12.316Z</time>
      </trkpt>
      <trkpt lat="44.13943" lon="5.86098">
        <ele>1197</ele>
        <time>2021-06-01T11:24:13.316Z</time>
      </trkpt>
      <trkpt lat="44.13943" lon="5.86097">
        <ele>1197</ele>
        <time>2021-06-01T11:24:14.316Z</time>
      </trkpt>
      <trkpt lat="44.13942" lon="5.86096">
        <ele>1197</ele>
        <time>2021-06-01T11:24:15.316Z</time>
      </trkpt>
      <trkpt lat="44.13942" lon="5.86094">
        <ele>1196</ele>
        <time>2021-06-01T11:24:16.316Z</time>
      </trkpt>
      <trkpt lat="44.13942" lon="5.86093">
        <ele>1196</ele>
        <time>2021-06-01T11:24:17.316Z</time>
      </trkpt>
      <trkpt lat="44.13942" lon="5.86092">
        <ele>1196</ele>
        <time>2021-06-01T11:24:18.316Z</time>
      </trkpt>
      <trkpt lat="44.13942" lon="5.86091">
        <ele>1196</ele>
        <time>2021-06-01T11:24:19.316Z</time>
      </trkpt>
      <trkpt lat="44.13942" lon="5.86091">
        <ele>1196</ele>
        <time>2021-06-01T11:24:20.316Z</time>
      </trkpt>
      <trkpt lat="44.13942" lon="5.8609">
        <ele>1196</ele>
        <time>2021-06-01T11:24:21.316Z</time>
      </trkpt>
      <trkpt lat="44.13942" lon="5.86089">
        <ele>1196</ele>
        <time>2021-06-01T11:24:22.316Z</time>
      </trkpt>
      <trkpt lat="44.13942" lon="5.86088">
        <ele>1196</ele>
        <time>2021-06-01T11:24:23.316Z</time>
      </trkpt>
      <trkpt lat="44.13941" lon="5.86088">
        <ele>1196</ele>
        <time>2021-06-01T11:24:24.316Z</time>
      </trkpt>
      <trkpt lat="44.13941" lon="5.86088">
        <ele>1196</ele>
        <time>2021-06-01T11:24:25.316Z</time>
      </trkpt>
      <trkpt lat="44.13941" lon="5.86087">
        <ele>1196</ele>
        <time>2021-06-01T11:24:26.316Z</time>
      </trkpt>
      <trkpt lat="44.13941" lon="5.86087">
        <ele>1196</ele>
        <time>2021-06-01T11:24:27.316Z</time>
      </trkpt>
      <trkpt lat="44.13941" lon="5.86086">
        <ele>1196</ele>
        <time>2021-06-01T11:24:28.316Z</time>
      </trkpt>
      <trkpt lat="44.13941" lon="5.86086">
        <ele>1196</ele>
        <time>2021-06-01T11:24:29.316Z</time>
      </trkpt>
      <trkpt lat="44.13941" lon="5.86085">
        <ele>1196</ele>
        <time>2021-06-01T11:24:30.316Z</time>
      </trkpt>
      <trkpt lat="44.13942" lon="5.86085">
        <ele>1195</ele>
        <time>2021-06-01T11:24:31.316Z</time>
      </trkpt>
      <trkpt lat="44.13942" lon="5.86084">
        <ele>1195</ele>
        <time>2021-06-01T11:24:32.316Z</time>
      </trkpt>
      <trkpt lat="44.13941" lon="5.86084">
        <ele>1195</ele>
        <time>2021-06-01T11:24:33.316Z</time>
      </trkpt>
      <trkpt lat="44.13941" lon="5.86083">
        <ele>1195</ele>
        <time>2021-06-01T11:24:34.316Z</time>
      </trkpt>
      <trkpt lat="44.13941" lon="5.86083">
        <ele>1195</ele>
        <time>2021-06-01T11:24:35.316Z</time>
      </trkpt>
      <trkpt lat="44.13941" lon="5.86083">
        <ele>1195</ele>
        <time>2021-06-01T11:24:36.316Z</time>
      </trkpt>
      <trkpt lat="44.13941" lon="5.86083">
        <ele>1195</ele>
        <time>2021-06-01T11:24:37.316Z</time>
      </trkpt>
      <trkpt lat="44.13941" lon="5.86082">
        <ele>1195</ele>
        <time>2021-06-01T11:24:38.316Z</time>
      </trkpt>
      <trkpt lat="44.1394" lon="5.86082">
        <ele>1195</ele>
        <time>2021-06-01T11:24:39.316Z</time>
      </trkpt>
      <trkpt lat="44.1394" lon="5.86082">
        <ele>1195</ele>
        <time>2021-06-01T11:24:40.316Z</time>
      </trkpt>
      <trkpt lat="44.1394" lon="5.86081">
        <ele>1195</ele>
        <time>2021-06-01T11:24:41.316Z</time>
      </trkpt>
      <trkpt lat="44.1394" lon="5.86081">
        <ele>1195</ele>
        <time>2021-06-01T11:24:42.316Z</time>
      </trkpt>
      <trkpt lat="44.1394" lon="5.86081">
        <ele>1195</ele>
        <time>2021-06-01T11:24:43.316Z</time>
      </trkpt>
      <trkpt lat="44.1394" lon="5.86081">
        <ele>1195</ele>
        <time>2021-06-01T11:24:44.316Z</time>
      </trkpt>
      <trkpt lat="44.1394" lon="5.8608">
        <ele>1195</ele>
        <time>2021-06-01T11:24:45.316Z</time>
      </trkpt>
      <trkpt lat="44.1394" lon="5.8608">
        <ele>1195</ele>
        <time>2021-06-01T11:24:46.316Z</time>
      </trkpt>
      <trkpt lat="44.1394" lon="5.86079">
        <ele>1195</ele>
        <time>2021-06-01T11:24:47.316Z</time>
      </trkpt>
      <trkpt lat="44.1394" lon="5.86079">
        <ele>1195</ele>
        <time>2021-06-01T11:24:48.316Z</time>
      </trkpt>
      <trkpt lat="44.1394" lon="5.86078">
        <ele>1195</ele>
        <time>2021-06-01T11:24:49.316Z</time>
      </trkpt>
      <trkpt lat="44.1394" lon="5.86078">
        <ele>1195</ele>
        <time>2021-06-01T11:24:50.316Z</time>
      </trkpt>
      <trkpt lat="44.1394" lon="5.86078">
        <ele>1195</ele>
        <time>2021-06-01T11:24:51.316Z</time>
      </trkpt>
      <trkpt lat="44.1394" lon="5.86078">
        <ele>1195</ele>
        <time>2021-06-01T11:24:52.316Z</time>
      </trkpt>
      <trkpt lat="44.1394" lon="5.86077">
        <ele>1195</ele>
        <time>2021-06-01T11:24:53.316Z</time>
      </trkpt>
      <trkpt lat="44.1394" lon="5.86077">
        <ele>1195</ele>
        <time>2021-06-01T11:24:54.316Z</time>
      </trkpt>
      <trkpt lat="44.13941" lon="5.86077">
        <ele>1195</ele>
        <time>2021-06-01T11:24:55.316Z</time>
      </trkpt>
      <trkpt lat="44.13941" lon="5.86076">
        <ele>1195</ele>
        <time>2021-06-01T11:24:56.316Z</time>
      </trkpt>
      <trkpt lat="44.13941" lon="5.86076">
        <ele>1195</ele>
        <time>2021-06-01T11:24:57.316Z</time>
      </trkpt>
      <trkpt lat="44.13941" lon="5.86075">
        <ele>1195</ele>
        <time>2021-06-01T11:24:58.316Z</time>
      </trkpt>
      <trkpt lat="44.13941" lon="5.86074">
        <ele>1195</ele>
        <time>2021-06-01T11:24:59.316Z</time>
      </trkpt>
      <trkpt lat="44.13941" lon="5.86073">
        <ele>1195</ele>
        <time>2021-06-01T11:25:00.316Z</time>
      </trkpt>
      <trkpt lat="44.13941" lon="5.86072">
        <ele>1195</ele>
        <time>2021-06-01T11:25:01.316Z</time>
      </trkpt>
      <trkpt lat="44.13941" lon="5.86071">
        <ele>1194</ele>
        <time>2021-06-01T11:25:02.316Z</time>
      </trkpt>
      <trkpt lat="44.13942" lon="5.8607">
        <ele>1194</ele>
        <time>2021-06-01T11:25:03.316Z</time>
      </trkpt>
      <trkpt lat="44.13942" lon="5.86069">
        <ele>1194</ele>
        <time>2021-06-01T11:25:04.316Z</time>
      </trkpt>
      <trkpt lat="44.13941" lon="5.86068">
        <ele>1194</ele>
        <time>2021-06-01T11:25:05.316Z</time>
      </trkpt>
      <trkpt lat="44.13941" lon="5.86067">
        <ele>1194</ele>
        <time>2021-06-01T11:25:06.316Z</time>
      </trkpt>
      <trkpt lat="44.13941" lon="5.86066">
        <ele>1194</ele>
        <time>2021-06-01T11:25:07.316Z</time>
      </trkpt>
      <trkpt lat="44.13941" lon="5.86066">
        <ele>1194</ele>
        <time>2021-06-01T11:25:08.316Z</time>
      </trkpt>
      <trkpt lat="44.13941" lon="5.86066">
        <ele>1194</ele>
        <time>2021-06-01T11:25:09.316Z</time>
      </trkpt>
      <trkpt lat="44.13941" lon="5.86066">
        <ele>1194</ele>
        <time>2021-06-01T11:25:10.316Z</time>
      </trkpt>
      <trkpt lat="44.13941" lon="5.86065">
        <ele>1194</ele>
        <time>2021-06-01T11:25:11.316Z</time>
      </trkpt>
      <trkpt lat="44.13941" lon="5.86065">
        <ele>1194</ele>
        <time>2021-06-01T11:25:12.316Z</time>
      </trkpt>
      <trkpt lat="44.13941" lon="5.86065">
        <ele>1194</ele>
        <time>2021-06-01T11:25:13.316Z</time>
      </trkpt>
      <trkpt lat="44.13941" lon="5.86065">
        <ele>1194</ele>
        <time>2021-06-01T11:25:14.316Z</time>
      </trkpt>
      <trkpt lat="44.13941" lon="5.86064">
        <ele>1194</ele>
        <time>2021-06-01T11:25:15.316Z</time>
      </trkpt>
      <trkpt lat="44.13941" lon="5.86064">
        <ele>1194</ele>
        <time>2021-06-01T11:25:16.316Z</time>
      </trkpt>
      <trkpt lat="44.13941" lon="5.86064">
        <ele>1194</ele>
        <time>2021-06-01T11:25:17.316Z</time>
      </trkpt>
      <trkpt lat="44.13941" lon="5.86063">
        <ele>1194</ele>
        <time>2021-06-01T11:25:18.316Z</time>
      </trkpt>
      <trkpt lat="44.13941" lon="5.86063">
        <ele>1194</ele>
        <time>2021-06-01T11:25:19.316Z</time>
      </trkpt>
      <trkpt lat="44.13941" lon="5.86062">
        <ele>1194</ele>
        <time>2021-06-01T11:25:20.316Z</time>
      </trkpt>
      <trkpt lat="44.13941" lon="5.86062">
        <ele>1194</ele>
        <time>2021-06-01T11:25:21.316Z</time>
      </trkpt>
      <trkpt lat="44.13941" lon="5.86062">
        <ele>1194</ele>
        <time>2021-06-01T11:25:22.316Z</time>
      </trkpt>
      <trkpt lat="44.13941" lon="5.86062">
        <ele>1194</ele>
        <time>2021-06-01T11:25:23.316Z</time>
      </trkpt>
      <trkpt lat="44.13941" lon="5.86061">
        <ele>1193</ele>
        <time>2021-06-01T11:25:24.316Z</time>
      </trkpt>
      <trkpt lat="44.13942" lon="5.86061">
        <ele>1193</ele>
        <time>2021-06-01T11:25:25.316Z</time>
      </trkpt>
      <trkpt lat="44.13942" lon="5.86061">
        <ele>1193</ele>
        <time>2021-06-01T11:25:26.316Z</time>
      </trkpt>
      <trkpt lat="44.13942" lon="5.86061">
        <ele>1193</ele>
        <time>2021-06-01T11:25:27.316Z</time>
      </trkpt>
      <trkpt lat="44.13942" lon="5.8606">
        <ele>1193</ele>
        <time>2021-06-01T11:25:28.316Z</time>
      </trkpt>
      <trkpt lat="44.13943" lon="5.8606">
        <ele>1193</ele>
        <time>2021-06-01T11:25:29.316Z</time>
      </trkpt>
      <trkpt lat="44.13943" lon="5.8606">
        <ele>1193</ele>
        <time>2021-06-01T11:25:30.316Z</time>
      </trkpt>
      <trkpt lat="44.13943" lon="5.8606">
        <ele>1193</ele>
        <time>2021-06-01T11:25:31.316Z</time>
      </trkpt>
      <trkpt lat="44.13943" lon="5.86059">
        <ele>1193</ele>
        <time>2021-06-01T11:25:32.316Z</time>
      </trkpt>
      <trkpt lat="44.13943" lon="5.86059">
        <ele>1192</ele>
        <time>2021-06-01T11:25:33.316Z</time>
      </trkpt>
      <trkpt lat="44.13943" lon="5.86057">
        <ele>1192</ele>
        <time>2021-06-01T11:25:34.316Z</time>
      </trkpt>
      <trkpt lat="44.13943" lon="5.86056">
        <ele>1192</ele>
        <time>2021-06-01T11:25:35.316Z</time>
      </trkpt>
      <trkpt lat="44.13944" lon="5.86055">
        <ele>1192</ele>
        <time>2021-06-01T11:25:36.316Z</time>
      </trkpt>
      <trkpt lat="44.13944" lon="5.86053">
        <ele>1192</ele>
        <time>2021-06-01T11:25:37.316Z</time>
      </trkpt>
      <trkpt lat="44.13944" lon="5.86053">
        <ele>1192</ele>
        <time>2021-06-01T11:25:38.316Z</time>
      </trkpt>
      <trkpt lat="44.13944" lon="5.86052">
        <ele>1192</ele>
        <time>2021-06-01T11:25:39.316Z</time>
      </trkpt>
      <trkpt lat="44.13945" lon="5.86052">
        <ele>1192</ele>
        <time>2021-06-01T11:25:40.316Z</time>
      </trkpt>
      <trkpt lat="44.13945" lon="5.86051">
        <ele>1192</ele>
        <time>2021-06-01T11:25:41.316Z</time>
      </trkpt>
      <trkpt lat="44.13945" lon="5.8605">
        <ele>1192</ele>
        <time>2021-06-01T11:25:42.316Z</time>
      </trkpt>
      <trkpt lat="44.13945" lon="5.86049">
        <ele>1192</ele>
        <time>2021-06-01T11:25:43.316Z</time>
      </trkpt>
      <trkpt lat="44.13945" lon="5.86049">
        <ele>1192</ele>
        <time>2021-06-01T11:25:44.316Z</time>
      </trkpt>
      <trkpt lat="44.13945" lon="5.86048">
        <ele>1192</ele>
        <time>2021-06-01T11:25:45.316Z</time>
      </trkpt>
      <trkpt lat="44.13945" lon="5.86048">
        <ele>1192</ele>
        <time>2021-06-01T11:25:46.316Z</time>
      </trkpt>
      <trkpt lat="44.13945" lon="5.86047">
        <ele>1192</ele>
        <time>2021-06-01T11:25:47.316Z</time>
      </trkpt>
      <trkpt lat="44.13945" lon="5.86047">
        <ele>1192</ele>
        <time>2021-06-01T11:25:48.316Z</time>
      </trkpt>
      <trkpt lat="44.13945" lon="5.86046">
        <ele>1192</ele>
        <time>2021-06-01T11:25:49.316Z</time>
      </trkpt>
      <trkpt lat="44.13945" lon="5.86045">
        <ele>1193</ele>
        <time>2021-06-01T11:25:50.316Z</time>
      </trkpt>
      <trkpt lat="44.13945" lon="5.86045">
        <ele>1193</ele>
        <time>2021-06-01T11:25:51.316Z</time>
      </trkpt>
      <trkpt lat="44.13945" lon="5.86044">
        <ele>1193</ele>
        <time>2021-06-01T11:25:52.316Z</time>
      </trkpt>
      <trkpt lat="44.13945" lon="5.86044">
        <ele>1193</ele>
        <time>2021-06-01T11:25:53.316Z</time>
      </trkpt>
      <trkpt lat="44.13945" lon="5.86043">
        <ele>1193</ele>
        <time>2021-06-01T11:25:54.316Z</time>
      </trkpt>
      <trkpt lat="44.13945" lon="5.86043">
        <ele>1193</ele>
        <time>2021-06-01T11:25:55.316Z</time>
      </trkpt>
      <trkpt lat="44.13946" lon="5.86043">
        <ele>1193</ele>
        <time>2021-06-01T11:25:56.316Z</time>
      </trkpt>
      <trkpt lat="44.13946" lon="5.86042">
        <ele>1193</ele>
        <time>2021-06-01T11:25:57.316Z</time>
      </trkpt>
      <trkpt lat="44.13946" lon="5.86042">
        <ele>1193</ele>
        <time>2021-06-01T11:25:58.316Z</time>
      </trkpt>
      <trkpt lat="44.13946" lon="5.86041">
        <ele>1192</ele>
        <time>2021-06-01T11:25:59.316Z</time>
      </trkpt>
      <trkpt lat="44.13946" lon="5.86041">
        <ele>1192</ele>
        <time>2021-06-01T11:26:00.316Z</time>
      </trkpt>
      <trkpt lat="44.13946" lon="5.86041">
        <ele>1192</ele>
        <time>2021-06-01T11:26:01.316Z</time>
      </trkpt>
      <trkpt lat="44.13946" lon="5.8604">
        <ele>1192</ele>
        <time>2021-06-01T11:26:02.316Z</time>
      </trkpt>
      <trkpt lat="44.13946" lon="5.86039">
        <ele>1192</ele>
        <time>2021-06-01T11:26:03.316Z</time>
      </trkpt>
      <trkpt lat="44.13946" lon="5.86037">
        <ele>1192</ele>
        <time>2021-06-01T11:26:04.316Z</time>
      </trkpt>
      <trkpt lat="44.13947" lon="5.86036">
        <ele>1192</ele>
        <time>2021-06-01T11:26:05.316Z</time>
      </trkpt>
      <trkpt lat="44.13947" lon="5.86035">
        <ele>1192</ele>
        <time>2021-06-01T11:26:06.316Z</time>
      </trkpt>
      <trkpt lat="44.13947" lon="5.86034">
        <ele>1192</ele>
        <time>2021-06-01T11:26:07.316Z</time>
      </trkpt>
      <trkpt lat="44.13947" lon="5.86033">
        <ele>1192</ele>
        <time>2021-06-01T11:26:08.316Z</time>
      </trkpt>
      <trkpt lat="44.13948" lon="5.86032">
        <ele>1192</ele>
        <time>2021-06-01T11:26:09.316Z</time>
      </trkpt>
      <trkpt lat="44.13948" lon="5.86031">
        <ele>1192</ele>
        <time>2021-06-01T11:26:10.316Z</time>
      </trkpt>
      <trkpt lat="44.13948" lon="5.8603">
        <ele>1192</ele>
        <time>2021-06-01T11:26:11.316Z</time>
      </trkpt>
      <trkpt lat="44.13948" lon="5.86029">
        <ele>1192</ele>
        <time>2021-06-01T11:26:12.316Z</time>
      </trkpt>
      <trkpt lat="44.13948" lon="5.86028">
        <ele>1192</ele>
        <time>2021-06-01T11:26:13.316Z</time>
      </trkpt>
      <trkpt lat="44.13948" lon="5.86028">
        <ele>1192</ele>
        <time>2021-06-01T11:26:14.316Z</time>
      </trkpt>
      <trkpt lat="44.13948" lon="5.86027">
        <ele>1192</ele>
        <time>2021-06-01T11:26:15.316Z</time>
      </trkpt>
      <trkpt lat="44.13948" lon="5.86026">
        <ele>1192</ele>
        <time>2021-06-01T11:26:16.316Z</time>
      </trkpt>
      <trkpt lat="44.13948" lon="5.86026">
        <ele>1192</ele>
        <time>2021-06-01T11:26:17.316Z</time>
      </trkpt>
      <trkpt lat="44.13948" lon="5.86025">
        <ele>1192</ele>
        <time>2021-06-01T11:26:18.316Z</time>
      </trkpt>
      <trkpt lat="44.13948" lon="5.86023">
        <ele>1192</ele>
        <time>2021-06-01T11:26:19.316Z</time>
      </trkpt>
      <trkpt lat="44.13948" lon="5.86022">
        <ele>1192</ele>
        <time>2021-06-01T11:26:20.316Z</time>
      </trkpt>
      <trkpt lat="44.13948" lon="5.86021">
        <ele>1192</ele>
        <time>2021-06-01T11:26:21.316Z</time>
      </trkpt>
      <trkpt lat="44.13948" lon="5.8602">
        <ele>1192</ele>
        <time>2021-06-01T11:26:22.316Z</time>
      </trkpt>
      <trkpt lat="44.13948" lon="5.86019">
        <ele>1192</ele>
        <time>2021-06-01T11:26:23.316Z</time>
      </trkpt>
      <trkpt lat="44.13948" lon="5.86018">
        <ele>1192</ele>
        <time>2021-06-01T11:26:24.316Z</time>
      </trkpt>
      <trkpt lat="44.13948" lon="5.86017">
        <ele>1192</ele>
        <time>2021-06-01T11:26:25.316Z</time>
      </trkpt>
      <trkpt lat="44.13948" lon="5.86016">
        <ele>1193</ele>
        <time>2021-06-01T11:26:26.316Z</time>
      </trkpt>
      <trkpt lat="44.13948" lon="5.86016">
        <ele>1193</ele>
        <time>2021-06-01T11:26:27.316Z</time>
      </trkpt>
      <trkpt lat="44.13948" lon="5.86015">
        <ele>1193</ele>
        <time>2021-06-01T11:26:28.316Z</time>
      </trkpt>
      <trkpt lat="44.13948" lon="5.86014">
        <ele>1193</ele>
        <time>2021-06-01T11:26:29.316Z</time>
      </trkpt>
      <trkpt lat="44.13948" lon="5.86013">
        <ele>1193</ele>
        <time>2021-06-01T11:26:30.316Z</time>
      </trkpt>
      <trkpt lat="44.13948" lon="5.86013">
        <ele>1193</ele>
        <time>2021-06-01T11:26:31.316Z</time>
      </trkpt>
      <trkpt lat="44.13948" lon="5.86012">
        <ele>1193</ele>
        <time>2021-06-01T11:26:32.316Z</time>
      </trkpt>
      <trkpt lat="44.13948" lon="5.86011">
        <ele>1194</ele>
        <time>2021-06-01T11:26:33.316Z</time>
      </trkpt>
      <trkpt lat="44.13948" lon="5.86011">
        <ele>1194</ele>
        <time>2021-06-01T11:26:34.316Z</time>
      </trkpt>
      <trkpt lat="44.13948" lon="5.8601">
        <ele>1194</ele>
        <time>2021-06-01T11:26:35.316Z</time>
      </trkpt>
      <trkpt lat="44.13948" lon="5.8601">
        <ele>1194</ele>
        <time>2021-06-01T11:26:36.316Z</time>
      </trkpt>
      <trkpt lat="44.13948" lon="5.8601">
        <ele>1194</ele>
        <time>2021-06-01T11:26:37.316Z</time>
      </trkpt>
      <trkpt lat="44.13948" lon="5.8601">
        <ele>1194</ele>
        <time>2021-06-01T11:26:38.316Z</time>
      </trkpt>
      <trkpt lat="44.13948" lon="5.8601">
        <ele>1194</ele>
        <time>2021-06-01T11:26:39.316Z</time>
      </trkpt>
      <trkpt lat="44.13948" lon="5.86009">
        <ele>1194</ele>
        <time>2021-06-01T11:26:40.316Z</time>
      </trkpt>
      <trkpt lat="44.13948" lon="5.86009">
        <ele>1194</ele>
        <time>2021-06-01T11:26:41.316Z</time>
      </trkpt>
      <trkpt lat="44.13948" lon="5.86009">
        <ele>1194</ele>
        <time>2021-06-01T11:26:42.316Z</time>
      </trkpt>
      <trkpt lat="44.13948" lon="5.86009">
        <ele>1194</ele>
        <time>2021-06-01T11:26:43.316Z</time>
      </trkpt>
      <trkpt lat="44.13948" lon="5.86009">
        <ele>1194</ele>
        <time>2021-06-01T11:26:44.316Z</time>
      </trkpt>
      <trkpt lat="44.13948" lon="5.86008">
        <ele>1194</ele>
        <time>2021-06-01T11:26:45.316Z</time>
      </trkpt>
      <trkpt lat="44.13948" lon="5.86007">
        <ele>1194</ele>
        <time>2021-06-01T11:26:46.316Z</time>
      </trkpt>
      <trkpt lat="44.13947" lon="5.86007">
        <ele>1194</ele>
        <time>2021-06-01T11:26:47.316Z</time>
      </trkpt>
      <trkpt lat="44.13947" lon="5.86006">
        <ele>1194</ele>
        <time>2021-06-01T11:26:48.316Z</time>
      </trkpt>
      <trkpt lat="44.13948" lon="5.86006">
        <ele>1194</ele>
        <time>2021-06-01T11:26:49.316Z</time>
      </trkpt>
      <trkpt lat="44.13948" lon="5.86006">
        <ele>1194</ele>
        <time>2021-06-01T11:26:50.316Z</time>
      </trkpt>
      <trkpt lat="44.13948" lon="5.86005">
        <ele>1194</ele>
        <time>2021-06-01T11:26:51.316Z</time>
      </trkpt>
      <trkpt lat="44.13948" lon="5.86005">
        <ele>1195</ele>
        <time>2021-06-01T11:26:52.316Z</time>
      </trkpt>
      <trkpt lat="44.13948" lon="5.86004">
        <ele>1195</ele>
        <time>2021-06-01T11:26:53.316Z</time>
      </trkpt>
      <trkpt lat="44.13948" lon="5.86003">
        <ele>1195</ele>
        <time>2021-06-01T11:26:54.316Z</time>
      </trkpt>
      <trkpt lat="44.13948" lon="5.86003">
        <ele>1195</ele>
        <time>2021-06-01T11:26:55.316Z</time>
      </trkpt>
      <trkpt lat="44.13948" lon="5.86003">
        <ele>1195</ele>
        <time>2021-06-01T11:26:56.316Z</time>
      </trkpt>
      <trkpt lat="44.13948" lon="5.86002">
        <ele>1195</ele>
        <time>2021-06-01T11:26:57.316Z</time>
      </trkpt>
      <trkpt lat="44.13949" lon="5.86001">
        <ele>1195</ele>
        <time>2021-06-01T11:26:58.316Z</time>
      </trkpt>
      <trkpt lat="44.13949" lon="5.86001">
        <ele>1195</ele>
        <time>2021-06-01T11:26:59.316Z</time>
      </trkpt>
      <trkpt lat="44.13949" lon="5.86">
        <ele>1196</ele>
        <time>2021-06-01T11:27:00.316Z</time>
      </trkpt>
      <trkpt lat="44.13949" lon="5.86">
        <ele>1196</ele>
        <time>2021-06-01T11:27:01.316Z</time>
      </trkpt>
      <trkpt lat="44.13949" lon="5.86">
        <ele>1196</ele>
        <time>2021-06-01T11:27:02.316Z</time>
      </trkpt>
      <trkpt lat="44.13949" lon="5.86">
        <ele>1196</ele>
        <time>2021-06-01T11:27:03.316Z</time>
      </trkpt>
      <trkpt lat="44.13949" lon="5.85999">
        <ele>1196</ele>
        <time>2021-06-01T11:27:04.316Z</time>
      </trkpt>
      <trkpt lat="44.13949" lon="5.85999">
        <ele>1196</ele>
        <time>2021-06-01T11:27:05.316Z</time>
      </trkpt>
      <trkpt lat="44.13949" lon="5.85998">
        <ele>1196</ele>
        <time>2021-06-01T11:27:06.316Z</time>
      </trkpt>
      <trkpt lat="44.1395" lon="5.85998">
        <ele>1196</ele>
        <time>2021-06-01T11:27:07.316Z</time>
      </trkpt>
      <trkpt lat="44.1395" lon="5.85997">
        <ele>1196</ele>
        <time>2021-06-01T11:27:08.316Z</time>
      </trkpt>
      <trkpt lat="44.1395" lon="5.85997">
        <ele>1196</ele>
        <time>2021-06-01T11:27:09.316Z</time>
      </trkpt>
      <trkpt lat="44.1395" lon="5.85996">
        <ele>1196</ele>
        <time>2021-06-01T11:27:10.316Z</time>
      </trkpt>
      <trkpt lat="44.1395" lon="5.85996">
        <ele>1197</ele>
        <time>2021-06-01T11:27:11.316Z</time>
      </trkpt>
      <trkpt lat="44.1395" lon="5.85996">
        <ele>1197</ele>
        <time>2021-06-01T11:27:12.316Z</time>
      </trkpt>
      <trkpt lat="44.1395" lon="5.85996">
        <ele>1197</ele>
        <time>2021-06-01T11:27:13.316Z</time>
      </trkpt>
      <trkpt lat="44.1395" lon="5.85995">
        <ele>1197</ele>
        <time>2021-06-01T11:27:14.316Z</time>
      </trkpt>
      <trkpt lat="44.13949" lon="5.85995">
        <ele>1197</ele>
        <time>2021-06-01T11:27:15.316Z</time>
      </trkpt>
      <trkpt lat="44.13949" lon="5.85994">
        <ele>1197</ele>
        <time>2021-06-01T11:27:16.316Z</time>
      </trkpt>
      <trkpt lat="44.13949" lon="5.85994">
        <ele>1197</ele>
        <time>2021-06-01T11:27:17.316Z</time>
      </trkpt>
      <trkpt lat="44.13949" lon="5.85994">
        <ele>1197</ele>
        <time>2021-06-01T11:27:18.316Z</time>
      </trkpt>
      <trkpt lat="44.13948" lon="5.85993">
        <ele>1198</ele>
        <time>2021-06-01T11:27:19.316Z</time>
      </trkpt>
      <trkpt lat="44.13948" lon="5.85993">
        <ele>1198</ele>
        <time>2021-06-01T11:27:20.316Z</time>
      </trkpt>
      <trkpt lat="44.13947" lon="5.85993">
        <ele>1198</ele>
        <time>2021-06-01T11:27:21.316Z</time>
      </trkpt>
      <trkpt lat="44.13947" lon="5.85992">
        <ele>1198</ele>
        <time>2021-06-01T11:27:22.316Z</time>
      </trkpt>
      <trkpt lat="44.13947" lon="5.85991">
        <ele>1198</ele>
        <time>2021-06-01T11:27:23.316Z</time>
      </trkpt>
      <trkpt lat="44.13947" lon="5.85991">
        <ele>1198</ele>
        <time>2021-06-01T11:27:24.316Z</time>
      </trkpt>
      <trkpt lat="44.13947" lon="5.85991">
        <ele>1198</ele>
        <time>2021-06-01T11:27:25.316Z</time>
      </trkpt>
      <trkpt lat="44.13946" lon="5.8599">
        <ele>1198</ele>
        <time>2021-06-01T11:27:26.316Z</time>
      </trkpt>
      <trkpt lat="44.13946" lon="5.85989">
        <ele>1198</ele>
        <time>2021-06-01T11:27:27.316Z</time>
      </trkpt>
      <trkpt lat="44.13946" lon="5.85989">
        <ele>1198</ele>
        <time>2021-06-01T11:27:28.316Z</time>
      </trkpt>
      <trkpt lat="44.13946" lon="5.85989">
        <ele>1198</ele>
        <time>2021-06-01T11:27:29.316Z</time>
      </trkpt>
      <trkpt lat="44.13946" lon="5.85989">
        <ele>1199</ele>
        <time>2021-06-01T11:27:30.316Z</time>
      </trkpt>
      <trkpt lat="44.13945" lon="5.85989">
        <ele>1199</ele>
        <time>2021-06-01T11:27:31.316Z</time>
      </trkpt>
      <trkpt lat="44.13945" lon="5.85988">
        <ele>1199</ele>
        <time>2021-06-01T11:27:32.316Z</time>
      </trkpt>
      <trkpt lat="44.13945" lon="5.85988">
        <ele>1199</ele>
        <time>2021-06-01T11:27:33.316Z</time>
      </trkpt>
      <trkpt lat="44.13945" lon="5.85988">
        <ele>1199</ele>
        <time>2021-06-01T11:27:34.316Z</time>
      </trkpt>
      <trkpt lat="44.13945" lon="5.85988">
        <ele>1199</ele>
        <time>2021-06-01T11:27:35.316Z</time>
      </trkpt>
      <trkpt lat="44.13945" lon="5.85987">
        <ele>1199</ele>
        <time>2021-06-01T11:27:36.316Z</time>
      </trkpt>
      <trkpt lat="44.13945" lon="5.85987">
        <ele>1200</ele>
        <time>2021-06-01T11:27:37.316Z</time>
      </trkpt>
      <trkpt lat="44.13945" lon="5.85987">
        <ele>1200</ele>
        <time>2021-06-01T11:27:38.316Z</time>
      </trkpt>
      <trkpt lat="44.13945" lon="5.85987">
        <ele>1200</ele>
        <time>2021-06-01T11:27:39.316Z</time>
      </trkpt>
      <trkpt lat="44.13945" lon="5.85986">
        <ele>1200</ele>
        <time>2021-06-01T11:27:40.316Z</time>
      </trkpt>
      <trkpt lat="44.13945" lon="5.85986">
        <ele>1200</ele>
        <time>2021-06-01T11:27:41.316Z</time>
      </trkpt>
      <trkpt lat="44.13944" lon="5.85986">
        <ele>1201</ele>
        <time>2021-06-01T11:27:42.316Z</time>
      </trkpt>
      <trkpt lat="44.13944" lon="5.85986">
        <ele>1201</ele>
        <time>2021-06-01T11:27:43.316Z</time>
      </trkpt>
      <trkpt lat="44.13944" lon="5.85986">
        <ele>1201</ele>
        <time>2021-06-01T11:27:44.316Z</time>
      </trkpt>
      <trkpt lat="44.13944" lon="5.85986">
        <ele>1201</ele>
        <time>2021-06-01T11:27:45.316Z</time>
      </trkpt>
      <trkpt lat="44.13944" lon="5.85986">
        <ele>1201</ele>
        <time>2021-06-01T11:27:46.316Z</time>
      </trkpt>
      <trkpt lat="44.13944" lon="5.85986">
        <ele>1201</ele>
        <time>2021-06-01T11:27:47.316Z</time>
      </trkpt>
      <trkpt lat="44.13944" lon="5.85986">
        <ele>1201</ele>
        <time>2021-06-01T11:27:48.316Z</time>
      </trkpt>
      <trkpt lat="44.13944" lon="5.85986">
        <ele>1201</ele>
        <time>2021-06-01T11:27:49.316Z</time>
      </trkpt>
      <trkpt lat="44.13943" lon="5.85986">
        <ele>1201</ele>
        <time>2021-06-01T11:27:50.316Z</time>
      </trkpt>
      <trkpt lat="44.13943" lon="5.85985">
        <ele>1201</ele>
        <time>2021-06-01T11:27:51.316Z</time>
      </trkpt>
      <trkpt lat="44.13943" lon="5.85985">
        <ele>1201</ele>
        <time>2021-06-01T11:27:52.316Z</time>
      </trkpt>
      <trkpt lat="44.13943" lon="5.85985">
        <ele>1202</ele>
        <time>2021-06-01T11:27:53.316Z</time>
      </trkpt>
      <trkpt lat="44.13942" lon="5.85985">
        <ele>1202</ele>
        <time>2021-06-01T11:27:54.316Z</time>
      </trkpt>
      <trkpt lat="44.13951" lon="5.85987">
        <ele>1223</ele>
        <time>2021-06-01T11:27:55.316Z</time>
      </trkpt>
      <trkpt lat="44.1395" lon="5.85988">
        <ele>1223</ele>
        <time>2021-06-01T11:27:56.316Z</time>
      </trkpt>
      <trkpt lat="44.1395" lon="5.85987">
        <ele>1223</ele>
        <time>2021-06-01T11:27:57.316Z</time>
      </trkpt>
      <trkpt lat="44.1395" lon="5.85987">
        <ele>1223</ele>
        <time>2021-06-01T11:27:58.316Z</time>
      </trkpt>
      <trkpt lat="44.1395" lon="5.85986">
        <ele>1223</ele>
        <time>2021-06-01T11:27:59.316Z</time>
      </trkpt>
      <trkpt lat="44.1395" lon="5.85986">
        <ele>1223</ele>
        <time>2021-06-01T11:28:00.316Z</time>
      </trkpt>
      <trkpt lat="44.13949" lon="5.85985">
        <ele>1224</ele>
        <time>2021-06-01T11:28:01.316Z</time>
      </trkpt>
      <trkpt lat="44.13949" lon="5.85985">
        <ele>1224</ele>
        <time>2021-06-01T11:28:02.316Z</time>
      </trkpt>
      <trkpt lat="44.13949" lon="5.85985">
        <ele>1224</ele>
        <time>2021-06-01T11:28:03.316Z</time>
      </trkpt>
      <trkpt lat="44.13949" lon="5.85984">
        <ele>1224</ele>
        <time>2021-06-01T11:28:04.316Z</time>
      </trkpt>
      <trkpt lat="44.13949" lon="5.85984">
        <ele>1224</ele>
        <time>2021-06-01T11:28:05.316Z</time>
      </trkpt>
      <trkpt lat="44.13949" lon="5.85984">
        <ele>1225</ele>
        <time>2021-06-01T11:28:06.316Z</time>
      </trkpt>
      <trkpt lat="44.1395" lon="5.85984">
        <ele>1225</ele>
        <time>2021-06-01T11:28:07.316Z</time>
      </trkpt>
      <trkpt lat="44.1395" lon="5.85983">
        <ele>1225</ele>
        <time>2021-06-01T11:28:08.316Z</time>
      </trkpt>
      <trkpt lat="44.1395" lon="5.85983">
        <ele>1225</ele>
        <time>2021-06-01T11:28:09.316Z</time>
      </trkpt>
      <trkpt lat="44.1395" lon="5.85983">
        <ele>1225</ele>
        <time>2021-06-01T11:28:10.316Z</time>
      </trkpt>
      <trkpt lat="44.1395" lon="5.85983">
        <ele>1225</ele>
        <time>2021-06-01T11:28:11.316Z</time>
      </trkpt>
      <trkpt lat="44.1395" lon="5.85983">
        <ele>1225</ele>
        <time>2021-06-01T11:28:12.316Z</time>
      </trkpt>
      <trkpt lat="44.1395" lon="5.85984">
        <ele>1225</ele>
        <time>2021-06-01T11:28:13.316Z</time>
      </trkpt>
      <trkpt lat="44.1395" lon="5.85984">
        <ele>1225</ele>
        <time>2021-06-01T11:28:14.316Z</time>
      </trkpt>
      <trkpt lat="44.1395" lon="5.85983">
        <ele>1225</ele>
        <time>2021-06-01T11:28:15.316Z</time>
      </trkpt>
      <trkpt lat="44.1395" lon="5.85983">
        <ele>1225</ele>
        <time>2021-06-01T11:28:16.316Z</time>
      </trkpt>
      <trkpt lat="44.13949" lon="5.85983">
        <ele>1225</ele>
        <time>2021-06-01T11:28:17.316Z</time>
      </trkpt>
      <trkpt lat="44.1395" lon="5.85983">
        <ele>1225</ele>
        <time>2021-06-01T11:28:18.316Z</time>
      </trkpt>
      <trkpt lat="44.1395" lon="5.85983">
        <ele>1225</ele>
        <time>2021-06-01T11:28:19.316Z</time>
      </trkpt>
      <trkpt lat="44.1395" lon="5.85983">
        <ele>1225</ele>
        <time>2021-06-01T11:28:20.316Z</time>
      </trkpt>
      <trkpt lat="44.13951" lon="5.85983">
        <ele>1226</ele>
        <time>2021-06-01T11:28:21.316Z</time>
      </trkpt>
      <trkpt lat="44.13952" lon="5.85982">
        <ele>1226</ele>
        <time>2021-06-01T11:28:22.316Z</time>
      </trkpt>
      <trkpt lat="44.13952" lon="5.85982">
        <ele>1225</ele>
        <time>2021-06-01T11:28:23.316Z</time>
      </trkpt>
      <trkpt lat="44.13953" lon="5.85982">
        <ele>1225</ele>
        <time>2021-06-01T11:28:24.316Z</time>
      </trkpt>
      <trkpt lat="44.13953" lon="5.85982">
        <ele>1225</ele>
        <time>2021-06-01T11:28:25.316Z</time>
      </trkpt>
      <trkpt lat="44.13953" lon="5.85982">
        <ele>1225</ele>
        <time>2021-06-01T11:28:26.316Z</time>
      </trkpt>
      <trkpt lat="44.13954" lon="5.85982">
        <ele>1225</ele>
        <time>2021-06-01T11:28:27.316Z</time>
      </trkpt>
      <trkpt lat="44.13954" lon="5.85982">
        <ele>1225</ele>
        <time>2021-06-01T11:28:28.316Z</time>
      </trkpt>
      <trkpt lat="44.13954" lon="5.85982">
        <ele>1225</ele>
        <time>2021-06-01T11:28:29.316Z</time>
      </trkpt>
      <trkpt lat="44.13954" lon="5.85982">
        <ele>1225</ele>
        <time>2021-06-01T11:28:30.316Z</time>
      </trkpt>
      <trkpt lat="44.13954" lon="5.85982">
        <ele>1225</ele>
        <time>2021-06-01T11:28:31.316Z</time>
      </trkpt>
      <trkpt lat="44.13954" lon="5.85982">
        <ele>1225</ele>
        <time>2021-06-01T11:28:32.316Z</time>
      </trkpt>
      <trkpt lat="44.13953" lon="5.85982">
        <ele>1225</ele>
        <time>2021-06-01T11:28:33.316Z</time>
      </trkpt>
      <trkpt lat="44.13953" lon="5.85983">
        <ele>1225</ele>
        <time>2021-06-01T11:28:34.316Z</time>
      </trkpt>
      <trkpt lat="44.13953" lon="5.85983">
        <ele>1225</ele>
        <time>2021-06-01T11:28:35.316Z</time>
      </trkpt>
      <trkpt lat="44.13953" lon="5.85983">
        <ele>1225</ele>
        <time>2021-06-01T11:28:36.316Z</time>
      </trkpt>
      <trkpt lat="44.13952" lon="5.85983">
        <ele>1225</ele>
        <time>2021-06-01T11:28:37.316Z</time>
      </trkpt>
      <trkpt lat="44.13952" lon="5.85983">
        <ele>1225</ele>
        <time>2021-06-01T11:28:38.316Z</time>
      </trkpt>
      <trkpt lat="44.13952" lon="5.85983">
        <ele>1224</ele>
        <time>2021-06-01T11:28:39.316Z</time>
      </trkpt>
      <trkpt lat="44.13952" lon="5.85983">
        <ele>1224</ele>
        <time>2021-06-01T11:28:40.316Z</time>
      </trkpt>
      <trkpt lat="44.13952" lon="5.85983">
        <ele>1224</ele>
        <time>2021-06-01T11:28:41.316Z</time>
      </trkpt>
      <trkpt lat="44.13953" lon="5.85984">
        <ele>1224</ele>
        <time>2021-06-01T11:28:42.316Z</time>
      </trkpt>
      <trkpt lat="44.13952" lon="5.85984">
        <ele>1224</ele>
        <time>2021-06-01T11:28:43.316Z</time>
      </trkpt>
      <trkpt lat="44.13952" lon="5.85985">
        <ele>1224</ele>
        <time>2021-06-01T11:28:44.316Z</time>
      </trkpt>
      <trkpt lat="44.13951" lon="5.85985">
        <ele>1224</ele>
        <time>2021-06-01T11:28:45.316Z</time>
      </trkpt>
      <trkpt lat="44.13951" lon="5.85986">
        <ele>1224</ele>
        <time>2021-06-01T11:28:46.316Z</time>
      </trkpt>
      <trkpt lat="44.1395" lon="5.85986">
        <ele>1224</ele>
        <time>2021-06-01T11:28:47.316Z</time>
      </trkpt>
      <trkpt lat="44.1395" lon="5.85986">
        <ele>1224</ele>
        <time>2021-06-01T11:28:48.316Z</time>
      </trkpt>
      <trkpt lat="44.13949" lon="5.85986">
        <ele>1224</ele>
        <time>2021-06-01T11:28:49.316Z</time>
      </trkpt>
      <trkpt lat="44.13949" lon="5.85987">
        <ele>1224</ele>
        <time>2021-06-01T11:28:50.316Z</time>
      </trkpt>
      <trkpt lat="44.13949" lon="5.85987">
        <ele>1224</ele>
        <time>2021-06-01T11:28:51.316Z</time>
      </trkpt>
      <trkpt lat="44.13949" lon="5.85987">
        <ele>1224</ele>
        <time>2021-06-01T11:28:52.316Z</time>
      </trkpt>
      <trkpt lat="44.13949" lon="5.85988">
        <ele>1224</ele>
        <time>2021-06-01T11:28:53.316Z</time>
      </trkpt>
      <trkpt lat="44.1395" lon="5.85989">
        <ele>1224</ele>
        <time>2021-06-01T11:28:54.316Z</time>
      </trkpt>
      <trkpt lat="44.1395" lon="5.85989">
        <ele>1224</ele>
        <time>2021-06-01T11:28:55.316Z</time>
      </trkpt>
      <trkpt lat="44.1395" lon="5.85989">
        <ele>1224</ele>
        <time>2021-06-01T11:28:56.316Z</time>
      </trkpt>
      <trkpt lat="44.13949" lon="5.85989">
        <ele>1224</ele>
        <time>2021-06-01T11:28:57.316Z</time>
      </trkpt>
      <trkpt lat="44.13949" lon="5.85989">
        <ele>1224</ele>
        <time>2021-06-01T11:28:58.316Z</time>
      </trkpt>
      <trkpt lat="44.13949" lon="5.85989">
        <ele>1224</ele>
        <time>2021-06-01T11:28:59.316Z</time>
      </trkpt>
      <trkpt lat="44.13948" lon="5.85989">
        <ele>1224</ele>
        <time>2021-06-01T11:29:00.316Z</time>
      </trkpt>
      <trkpt lat="44.13948" lon="5.85989">
        <ele>1224</ele>
        <time>2021-06-01T11:29:01.316Z</time>
      </trkpt>
      <trkpt lat="44.13948" lon="5.85989">
        <ele>1224</ele>
        <time>2021-06-01T11:29:02.316Z</time>
      </trkpt>
      <trkpt lat="44.13949" lon="5.8599">
        <ele>1224</ele>
        <time>2021-06-01T11:29:03.316Z</time>
      </trkpt>
      <trkpt lat="44.13949" lon="5.85991">
        <ele>1224</ele>
        <time>2021-06-01T11:29:04.316Z</time>
      </trkpt>
      <trkpt lat="44.13949" lon="5.85991">
        <ele>1224</ele>
        <time>2021-06-01T11:29:05.316Z</time>
      </trkpt>
      <trkpt lat="44.1395" lon="5.85991">
        <ele>1224</ele>
        <time>2021-06-01T11:29:06.316Z</time>
      </trkpt>
      <trkpt lat="44.1395" lon="5.85991">
        <ele>1224</ele>
        <time>2021-06-01T11:29:07.316Z</time>
      </trkpt>
      <trkpt lat="44.1395" lon="5.85992">
        <ele>1224</ele>
        <time>2021-06-01T11:29:08.316Z</time>
      </trkpt>
      <trkpt lat="44.13951" lon="5.85992">
        <ele>1224</ele>
        <time>2021-06-01T11:29:09.316Z</time>
      </trkpt>
      <trkpt lat="44.13951" lon="5.85992">
        <ele>1224</ele>
        <time>2021-06-01T11:29:10.316Z</time>
      </trkpt>
      <trkpt lat="44.13952" lon="5.85992">
        <ele>1224</ele>
        <time>2021-06-01T11:29:11.316Z</time>
      </trkpt>
      <trkpt lat="44.13952" lon="5.85992">
        <ele>1224</ele>
        <time>2021-06-01T11:29:12.316Z</time>
      </trkpt>
      <trkpt lat="44.13952" lon="5.85992">
        <ele>1224</ele>
        <time>2021-06-01T11:29:13.316Z</time>
      </trkpt>
      <trkpt lat="44.13952" lon="5.85991">
        <ele>1224</ele>
        <time>2021-06-01T11:29:14.316Z</time>
      </trkpt>
      <trkpt lat="44.13953" lon="5.85991">
        <ele>1224</ele>
        <time>2021-06-01T11:29:15.316Z</time>
      </trkpt>
      <trkpt lat="44.13953" lon="5.85991">
        <ele>1224</ele>
        <time>2021-06-01T11:29:16.316Z</time>
      </trkpt>
      <trkpt lat="44.13953" lon="5.85991">
        <ele>1224</ele>
        <time>2021-06-01T11:29:17.316Z</time>
      </trkpt>
      <trkpt lat="44.13954" lon="5.85991">
        <ele>1224</ele>
        <time>2021-06-01T11:29:18.316Z</time>
      </trkpt>
      <trkpt lat="44.13954" lon="5.85991">
        <ele>1224</ele>
        <time>2021-06-01T11:29:19.316Z</time>
      </trkpt>
      <trkpt lat="44.13954" lon="5.85991">
        <ele>1224</ele>
        <time>2021-06-01T11:29:20.316Z</time>
      </trkpt>
      <trkpt lat="44.13954" lon="5.85991">
        <ele>1224</ele>
        <time>2021-06-01T11:29:21.316Z</time>
      </trkpt>
      <trkpt lat="44.13954" lon="5.85991">
        <ele>1224</ele>
        <time>2021-06-01T11:29:22.316Z</time>
      </trkpt>
      <trkpt lat="44.13955" lon="5.85991">
        <ele>1224</ele>
        <time>2021-06-01T11:29:23.316Z</time>
      </trkpt>
      <trkpt lat="44.13955" lon="5.85991">
        <ele>1224</ele>
        <time>2021-06-01T11:29:24.316Z</time>
      </trkpt>
      <trkpt lat="44.13955" lon="5.85991">
        <ele>1224</ele>
        <time>2021-06-01T11:29:25.316Z</time>
      </trkpt>
      <trkpt lat="44.13954" lon="5.8599">
        <ele>1224</ele>
        <time>2021-06-01T11:29:26.316Z</time>
      </trkpt>
      <trkpt lat="44.13954" lon="5.8599">
        <ele>1224</ele>
        <time>2021-06-01T11:29:27.316Z</time>
      </trkpt>
      <trkpt lat="44.13954" lon="5.8599">
        <ele>1224</ele>
        <time>2021-06-01T11:29:28.316Z</time>
      </trkpt>
      <trkpt lat="44.13953" lon="5.8599">
        <ele>1224</ele>
        <time>2021-06-01T11:29:29.316Z</time>
      </trkpt>
      <trkpt lat="44.13953" lon="5.8599">
        <ele>1224</ele>
        <time>2021-06-01T11:29:30.316Z</time>
      </trkpt>
      <trkpt lat="44.13953" lon="5.8599">
        <ele>1224</ele>
        <time>2021-06-01T11:29:31.316Z</time>
      </trkpt>
      <trkpt lat="44.13953" lon="5.8599">
        <ele>1225</ele>
        <time>2021-06-01T11:29:32.316Z</time>
      </trkpt>
      <trkpt lat="44.13953" lon="5.8599">
        <ele>1225</ele>
        <time>2021-06-01T11:29:33.316Z</time>
      </trkpt>
      <trkpt lat="44.13953" lon="5.8599">
        <ele>1225</ele>
        <time>2021-06-01T11:29:34.316Z</time>
      </trkpt>
      <trkpt lat="44.13953" lon="5.8599">
        <ele>1225</ele>
        <time>2021-06-01T11:29:35.316Z</time>
      </trkpt>
      <trkpt lat="44.13954" lon="5.8599">
        <ele>1225</ele>
        <time>2021-06-01T11:29:36.316Z</time>
      </trkpt>
      <trkpt lat="44.13954" lon="5.8599">
        <ele>1225</ele>
        <time>2021-06-01T11:29:37.316Z</time>
      </trkpt>
      <trkpt lat="44.13953" lon="5.8599">
        <ele>1225</ele>
        <time>2021-06-01T11:29:38.316Z</time>
      </trkpt>
      <trkpt lat="44.13953" lon="5.85989">
        <ele>1225</ele>
        <time>2021-06-01T11:29:39.316Z</time>
      </trkpt>
      <trkpt lat="44.13953" lon="5.85989">
        <ele>1225</ele>
        <time>2021-06-01T11:29:40.316Z</time>
      </trkpt>
      <trkpt lat="44.13952" lon="5.85989">
        <ele>1225</ele>
        <time>2021-06-01T11:29:41.316Z</time>
      </trkpt>
      <trkpt lat="44.13952" lon="5.85989">
        <ele>1225</ele>
        <time>2021-06-01T11:29:42.316Z</time>
      </trkpt>
      <trkpt lat="44.13951" lon="5.85988">
        <ele>1225</ele>
        <time>2021-06-01T11:29:43.316Z</time>
      </trkpt>
      <trkpt lat="44.13951" lon="5.85988">
        <ele>1225</ele>
        <time>2021-06-01T11:29:44.316Z</time>
      </trkpt>
      <trkpt lat="44.13951" lon="5.85987">
        <ele>1225</ele>
        <time>2021-06-01T11:29:45.316Z</time>
      </trkpt>
      <trkpt lat="44.13951" lon="5.85987">
        <ele>1225</ele>
        <time>2021-06-01T11:29:46.316Z</time>
      </trkpt>
      <trkpt lat="44.1395" lon="5.85987">
        <ele>1225</ele>
        <time>2021-06-01T11:29:47.316Z</time>
      </trkpt>
      <trkpt lat="44.1395" lon="5.85986">
        <ele>1225</ele>
        <time>2021-06-01T11:29:48.316Z</time>
      </trkpt>
      <trkpt lat="44.13949" lon="5.85986">
        <ele>1225</ele>
        <time>2021-06-01T11:29:49.316Z</time>
      </trkpt>
      <trkpt lat="44.13949" lon="5.85987">
        <ele>1225</ele>
        <time>2021-06-01T11:29:50.316Z</time>
      </trkpt>
      <trkpt lat="44.13949" lon="5.85987">
        <ele>1226</ele>
        <time>2021-06-01T11:29:51.316Z</time>
      </trkpt>
      <trkpt lat="44.13949" lon="5.85987">
        <ele>1226</ele>
        <time>2021-06-01T11:29:52.316Z</time>
      </trkpt>
      <trkpt lat="44.13948" lon="5.85986">
        <ele>1226</ele>
        <time>2021-06-01T11:29:53.316Z</time>
      </trkpt>
      <trkpt lat="44.13948" lon="5.85986">
        <ele>1226</ele>
        <time>2021-06-01T11:29:54.316Z</time>
      </trkpt>
      <trkpt lat="44.13948" lon="5.85986">
        <ele>1226</ele>
        <time>2021-06-01T11:29:55.316Z</time>
      </trkpt>
      <trkpt lat="44.13948" lon="5.85986">
        <ele>1226</ele>
        <time>2021-06-01T11:29:56.316Z</time>
      </trkpt>
      <trkpt lat="44.13948" lon="5.85986">
        <ele>1226</ele>
        <time>2021-06-01T11:29:57.316Z</time>
      </trkpt>
      <trkpt lat="44.13949" lon="5.85987">
        <ele>1226</ele>
        <time>2021-06-01T11:29:58.316Z</time>
      </trkpt>
      <trkpt lat="44.13949" lon="5.85987">
        <ele>1226</ele>
        <time>2021-06-01T11:29:59.316Z</time>
      </trkpt>
      <trkpt lat="44.13949" lon="5.85987">
        <ele>1226</ele>
        <time>2021-06-01T11:30:00.316Z</time>
      </trkpt>
      <trkpt lat="44.13949" lon="5.85987">
        <ele>1226</ele>
        <time>2021-06-01T11:30:01.316Z</time>
      </trkpt>
      <trkpt lat="44.13949" lon="5.85987">
        <ele>1226</ele>
        <time>2021-06-01T11:30:02.316Z</time>
      </trkpt>
      <trkpt lat="44.13949" lon="5.85986">
        <ele>1226</ele>
        <time>2021-06-01T11:30:03.316Z</time>
      </trkpt>
      <trkpt lat="44.13949" lon="5.85986">
        <ele>1226</ele>
        <time>2021-06-01T11:30:04.316Z</time>
      </trkpt>
      <trkpt lat="44.13949" lon="5.85986">
        <ele>1226</ele>
        <time>2021-06-01T11:30:05.316Z</time>
      </trkpt>
      <trkpt lat="44.13949" lon="5.85986">
        <ele>1226</ele>
        <time>2021-06-01T11:30:06.316Z</time>
      </trkpt>
      <trkpt lat="44.13949" lon="5.85986">
        <ele>1226</ele>
        <time>2021-06-01T11:30:07.316Z</time>
      </trkpt>
      <trkpt lat="44.13949" lon="5.85986">
        <ele>1226</ele>
        <time>2021-06-01T11:30:08.316Z</time>
      </trkpt>
      <trkpt lat="44.13949" lon="5.85986">
        <ele>1226</ele>
        <time>2021-06-01T11:30:09.316Z</time>
      </trkpt>
      <trkpt lat="44.13948" lon="5.85987">
        <ele>1226</ele>
        <time>2021-06-01T11:30:10.316Z</time>
      </trkpt>
      <trkpt lat="44.13948" lon="5.85986">
        <ele>1226</ele>
        <time>2021-06-01T11:30:11.316Z</time>
      </trkpt>
      <trkpt lat="44.13948" lon="5.85986">
        <ele>1226</ele>
        <time>2021-06-01T11:30:12.316Z</time>
      </trkpt>
      <trkpt lat="44.13948" lon="5.85986">
        <ele>1226</ele>
        <time>2021-06-01T11:30:13.316Z</time>
      </trkpt>
      <trkpt lat="44.13948" lon="5.85985">
        <ele>1226</ele>
        <time>2021-06-01T11:30:14.316Z</time>
      </trkpt>
      <trkpt lat="44.13948" lon="5.85985">
        <ele>1226</ele>
        <time>2021-06-01T11:30:15.316Z</time>
      </trkpt>
      <trkpt lat="44.13948" lon="5.85985">
        <ele>1226</ele>
        <time>2021-06-01T11:30:16.316Z</time>
      </trkpt>
      <trkpt lat="44.13948" lon="5.85984">
        <ele>1226</ele>
        <time>2021-06-01T11:30:17.316Z</time>
      </trkpt>
      <trkpt lat="44.13948" lon="5.85984">
        <ele>1226</ele>
        <time>2021-06-01T11:30:18.316Z</time>
      </trkpt>
      <trkpt lat="44.13948" lon="5.85983">
        <ele>1226</ele>
        <time>2021-06-01T11:30:19.316Z</time>
      </trkpt>
      <trkpt lat="44.13948" lon="5.85983">
        <ele>1226</ele>
        <time>2021-06-01T11:30:20.316Z</time>
      </trkpt>
      <trkpt lat="44.13948" lon="5.85983">
        <ele>1226</ele>
        <time>2021-06-01T11:30:21.316Z</time>
      </trkpt>
      <trkpt lat="44.13948" lon="5.85983">
        <ele>1225</ele>
        <time>2021-06-01T11:30:22.316Z</time>
      </trkpt>
      <trkpt lat="44.13948" lon="5.85983">
        <ele>1225</ele>
        <time>2021-06-01T11:30:23.316Z</time>
      </trkpt>
      <trkpt lat="44.13948" lon="5.85983">
        <ele>1225</ele>
        <time>2021-06-01T11:30:24.316Z</time>
      </trkpt>
      <trkpt lat="44.13948" lon="5.85983">
        <ele>1225</ele>
        <time>2021-06-01T11:30:25.316Z</time>
      </trkpt>
      <trkpt lat="44.13948" lon="5.85983">
        <ele>1225</ele>
        <time>2021-06-01T11:30:26.316Z</time>
      </trkpt>
      <trkpt lat="44.13948" lon="5.85983">
        <ele>1225</ele>
        <time>2021-06-01T11:30:27.316Z</time>
      </trkpt>
      <trkpt lat="44.13949" lon="5.85983">
        <ele>1225</ele>
        <time>2021-06-01T11:30:28.316Z</time>
      </trkpt>
      <trkpt lat="44.13949" lon="5.85983">
        <ele>1225</ele>
        <time>2021-06-01T11:30:29.316Z</time>
      </trkpt>
      <trkpt lat="44.13949" lon="5.85983">
        <ele>1225</ele>
        <time>2021-06-01T11:30:30.316Z</time>
      </trkpt>
      <trkpt lat="44.13949" lon="5.85983">
        <ele>1225</ele>
        <time>2021-06-01T11:30:31.316Z</time>
      </trkpt>
      <trkpt lat="44.13949" lon="5.85983">
        <ele>1225</ele>
        <time>2021-06-01T11:30:32.316Z</time>
      </trkpt>
      <trkpt lat="44.13949" lon="5.85982">
        <ele>1225</ele>
        <time>2021-06-01T11:30:33.316Z</time>
      </trkpt>
      <trkpt lat="44.13949" lon="5.85982">
        <ele>1225</ele>
        <time>2021-06-01T11:30:34.316Z</time>
      </trkpt>
      <trkpt lat="44.13949" lon="5.85982">
        <ele>1225</ele>
        <time>2021-06-01T11:30:35.316Z</time>
      </trkpt>
      <trkpt lat="44.13949" lon="5.85982">
        <ele>1225</ele>
        <time>2021-06-01T11:30:36.316Z</time>
      </trkpt>
      <trkpt lat="44.13949" lon="5.85982">
        <ele>1225</ele>
        <time>2021-06-01T11:30:37.316Z</time>
      </trkpt>
      <trkpt lat="44.13949" lon="5.85981">
        <ele>1224</ele>
        <time>2021-06-01T11:30:38.316Z</time>
      </trkpt>
      <trkpt lat="44.13949" lon="5.85981">
        <ele>1224</ele>
        <time>2021-06-01T11:30:39.316Z</time>
      </trkpt>
      <trkpt lat="44.13949" lon="5.85981">
        <ele>1224</ele>
        <time>2021-06-01T11:30:40.316Z</time>
      </trkpt>
      <trkpt lat="44.13949" lon="5.85981">
        <ele>1224</ele>
        <time>2021-06-01T11:30:41.316Z</time>
      </trkpt>
      <trkpt lat="44.13949" lon="5.85981">
        <ele>1224</ele>
        <time>2021-06-01T11:30:42.316Z</time>
      </trkpt>
      <trkpt lat="44.13949" lon="5.85981">
        <ele>1224</ele>
        <time>2021-06-01T11:30:43.316Z</time>
      </trkpt>
      <trkpt lat="44.13949" lon="5.85981">
        <ele>1224</ele>
        <time>2021-06-01T11:30:44.316Z</time>
      </trkpt>
      <trkpt lat="44.13949" lon="5.85981">
        <ele>1224</ele>
        <time>2021-06-01T11:30:45.316Z</time>
      </trkpt>
      <trkpt lat="44.13949" lon="5.85982">
        <ele>1224</ele>
        <time>2021-06-01T11:30:46.316Z</time>
      </trkpt>
      <trkpt lat="44.13949" lon="5.85982">
        <ele>1224</ele>
        <time>2021-06-01T11:30:47.316Z</time>
      </trkpt>
      <trkpt lat="44.13949" lon="5.85982">
        <ele>1224</ele>
        <time>2021-06-01T11:30:48.316Z</time>
      </trkpt>
      <trkpt lat="44.13949" lon="5.85982">
        <ele>1224</ele>
        <time>2021-06-01T11:30:49.316Z</time>
      </trkpt>
      <trkpt lat="44.13949" lon="5.85982">
        <ele>1224</ele>
        <time>2021-06-01T11:30:50.316Z</time>
      </trkpt>
      <trkpt lat="44.1395" lon="5.85983">
        <ele>1224</ele>
        <time>2021-06-01T11:30:51.316Z</time>
      </trkpt>
      <trkpt lat="44.13951" lon="5.85983">
        <ele>1224</ele>
        <time>2021-06-01T11:30:52.316Z</time>
      </trkpt>
      <trkpt lat="44.13951" lon="5.85982">
        <ele>1224</ele>
        <time>2021-06-01T11:30:53.316Z</time>
      </trkpt>
      <trkpt lat="44.13952" lon="5.85982">
        <ele>1224</ele>
        <time>2021-06-01T11:30:54.316Z</time>
      </trkpt>
      <trkpt lat="44.13952" lon="5.85983">
        <ele>1224</ele>
        <time>2021-06-01T11:30:55.316Z</time>
      </trkpt>
      <trkpt lat="44.13952" lon="5.85983">
        <ele>1224</ele>
        <time>2021-06-01T11:30:56.316Z</time>
      </trkpt>
      <trkpt lat="44.13952" lon="5.85983">
        <ele>1223</ele>
        <time>2021-06-01T11:30:57.316Z</time>
      </trkpt>
      <trkpt lat="44.13952" lon="5.85983">
        <ele>1223</ele>
        <time>2021-06-01T11:30:58.316Z</time>
      </trkpt>
      <trkpt lat="44.13951" lon="5.85984">
        <ele>1223</ele>
        <time>2021-06-01T11:30:59.316Z</time>
      </trkpt>
      <trkpt lat="44.13951" lon="5.85984">
        <ele>1223</ele>
        <time>2021-06-01T11:31:00.316Z</time>
      </trkpt>
      <trkpt lat="44.13951" lon="5.85984">
        <ele>1223</ele>
        <time>2021-06-01T11:31:01.316Z</time>
      </trkpt>
      <trkpt lat="44.13951" lon="5.85984">
        <ele>1222</ele>
        <time>2021-06-01T11:31:02.316Z</time>
      </trkpt>
      <trkpt lat="44.13951" lon="5.85985">
        <ele>1222</ele>
        <time>2021-06-01T11:31:03.316Z</time>
      </trkpt>
      <trkpt lat="44.1395" lon="5.85985">
        <ele>1222</ele>
        <time>2021-06-01T11:31:04.316Z</time>
      </trkpt>
      <trkpt lat="44.1395" lon="5.85985">
        <ele>1222</ele>
        <time>2021-06-01T11:31:05.316Z</time>
      </trkpt>
      <trkpt lat="44.1395" lon="5.85985">
        <ele>1221</ele>
        <time>2021-06-01T11:31:06.316Z</time>
      </trkpt>
      <trkpt lat="44.1395" lon="5.85985">
        <ele>1221</ele>
        <time>2021-06-01T11:31:07.316Z</time>
      </trkpt>
      <trkpt lat="44.1395" lon="5.85985">
        <ele>1221</ele>
        <time>2021-06-01T11:31:08.316Z</time>
      </trkpt>
      <trkpt lat="44.1395" lon="5.85985">
        <ele>1221</ele>
        <time>2021-06-01T11:31:09.316Z</time>
      </trkpt>
      <trkpt lat="44.1395" lon="5.85985">
        <ele>1220</ele>
        <time>2021-06-01T11:31:10.316Z</time>
      </trkpt>
      <trkpt lat="44.1395" lon="5.85985">
        <ele>1220</ele>
        <time>2021-06-01T11:31:11.316Z</time>
      </trkpt>
      <trkpt lat="44.1395" lon="5.85985">
        <ele>1220</ele>
        <time>2021-06-01T11:31:12.316Z</time>
      </trkpt>
      <trkpt lat="44.1395" lon="5.85985">
        <ele>1220</ele>
        <time>2021-06-01T11:31:13.316Z</time>
      </trkpt>
      <trkpt lat="44.1395" lon="5.85985">
        <ele>1220</ele>
        <time>2021-06-01T11:31:14.316Z</time>
      </trkpt>
      <trkpt lat="44.1395" lon="5.85985">
        <ele>1219</ele>
        <time>2021-06-01T11:31:15.316Z</time>
      </trkpt>
      <trkpt lat="44.13949" lon="5.85986">
        <ele>1219</ele>
        <time>2021-06-01T11:31:16.316Z</time>
      </trkpt>
      <trkpt lat="44.13949" lon="5.85986">
        <ele>1219</ele>
        <time>2021-06-01T11:31:17.316Z</time>
      </trkpt>
      <trkpt lat="44.13949" lon="5.85986">
        <ele>1219</ele>
        <time>2021-06-01T11:31:18.316Z</time>
      </trkpt>
      <trkpt lat="44.13949" lon="5.85986">
        <ele>1219</ele>
        <time>2021-06-01T11:31:19.316Z</time>
      </trkpt>
      <trkpt lat="44.13948" lon="5.85986">
        <ele>1219</ele>
        <time>2021-06-01T11:31:20.316Z</time>
      </trkpt>
      <trkpt lat="44.13948" lon="5.85986">
        <ele>1219</ele>
        <time>2021-06-01T11:31:21.316Z</time>
      </trkpt>
      <trkpt lat="44.13948" lon="5.85986">
        <ele>1219</ele>
        <time>2021-06-01T11:31:22.316Z</time>
      </trkpt>
      <trkpt lat="44.13948" lon="5.85986">
        <ele>1219</ele>
        <time>2021-06-01T11:31:23.316Z</time>
      </trkpt>
      <trkpt lat="44.13947" lon="5.85986">
        <ele>1219</ele>
        <time>2021-06-01T11:31:24.316Z</time>
      </trkpt>
      <trkpt lat="44.13947" lon="5.85986">
        <ele>1219</ele>
        <time>2021-06-01T11:31:25.316Z</time>
      </trkpt>
      <trkpt lat="44.13947" lon="5.85986">
        <ele>1219</ele>
        <time>2021-06-01T11:31:26.316Z</time>
      </trkpt>
      <trkpt lat="44.13946" lon="5.85986">
        <ele>1219</ele>
        <time>2021-06-01T11:31:27.316Z</time>
      </trkpt>
      <trkpt lat="44.13946" lon="5.85986">
        <ele>1218</ele>
        <time>2021-06-01T11:31:28.316Z</time>
      </trkpt>
      <trkpt lat="44.13946" lon="5.85986">
        <ele>1218</ele>
        <time>2021-06-01T11:31:29.316Z</time>
      </trkpt>
      <trkpt lat="44.13946" lon="5.85986">
        <ele>1218</ele>
        <time>2021-06-01T11:31:30.316Z</time>
      </trkpt>
      <trkpt lat="44.13945" lon="5.85986">
        <ele>1218</ele>
        <time>2021-06-01T11:31:31.316Z</time>
      </trkpt>
      <trkpt lat="44.13945" lon="5.85986">
        <ele>1218</ele>
        <time>2021-06-01T11:31:32.316Z</time>
      </trkpt>
      <trkpt lat="44.13945" lon="5.85987">
        <ele>1218</ele>
        <time>2021-06-01T11:31:33.316Z</time>
      </trkpt>
      <trkpt lat="44.13945" lon="5.85987">
        <ele>1218</ele>
        <time>2021-06-01T11:31:34.316Z</time>
      </trkpt>
      <trkpt lat="44.13945" lon="5.85987">
        <ele>1218</ele>
        <time>2021-06-01T11:31:35.316Z</time>
      </trkpt>
      <trkpt lat="44.13944" lon="5.85986">
        <ele>1218</ele>
        <time>2021-06-01T11:31:36.316Z</time>
      </trkpt>
      <trkpt lat="44.13944" lon="5.85987">
        <ele>1218</ele>
        <time>2021-06-01T11:31:37.316Z</time>
      </trkpt>
      <trkpt lat="44.13944" lon="5.85986">
        <ele>1218</ele>
        <time>2021-06-01T11:31:38.316Z</time>
      </trkpt>
      <trkpt lat="44.13944" lon="5.85986">
        <ele>1217</ele>
        <time>2021-06-01T11:31:39.316Z</time>
      </trkpt>
      <trkpt lat="44.13944" lon="5.85986">
        <ele>1217</ele>
        <time>2021-06-01T11:31:40.316Z</time>
      </trkpt>
      <trkpt lat="44.13944" lon="5.85986">
        <ele>1217</ele>
        <time>2021-06-01T11:31:41.316Z</time>
      </trkpt>
      <trkpt lat="44.13944" lon="5.85986">
        <ele>1217</ele>
        <time>2021-06-01T11:31:42.316Z</time>
      </trkpt>
      <trkpt lat="44.13944" lon="5.85986">
        <ele>1217</ele>
        <time>2021-06-01T11:31:43.316Z</time>
      </trkpt>
      <trkpt lat="44.13944" lon="5.85986">
        <ele>1217</ele>
        <time>2021-06-01T11:31:44.316Z</time>
      </trkpt>
      <trkpt lat="44.13944" lon="5.85986">
        <ele>1217</ele>
        <time>2021-06-01T11:31:45.316Z</time>
      </trkpt>
      <trkpt lat="44.13944" lon="5.85986">
        <ele>1217</ele>
        <time>2021-06-01T11:31:46.316Z</time>
      </trkpt>
      <trkpt lat="44.13944" lon="5.85986">
        <ele>1217</ele>
        <time>2021-06-01T11:31:47.316Z</time>
      </trkpt>
      <trkpt lat="44.13944" lon="5.85986">
        <ele>1217</ele>
        <time>2021-06-01T11:31:48.316Z</time>
      </trkpt>
      <trkpt lat="44.13944" lon="5.85986">
        <ele>1217</ele>
        <time>2021-06-01T11:31:49.316Z</time>
      </trkpt>
      <trkpt lat="44.13944" lon="5.85987">
        <ele>1217</ele>
        <time>2021-06-01T11:31:50.316Z</time>
      </trkpt>
      <trkpt lat="44.13944" lon="5.85987">
        <ele>1217</ele>
        <time>2021-06-01T11:31:51.316Z</time>
      </trkpt>
      <trkpt lat="44.13944" lon="5.85987">
        <ele>1217</ele>
        <time>2021-06-01T11:31:52.316Z</time>
      </trkpt>
      <trkpt lat="44.13944" lon="5.85987">
        <ele>1217</ele>
        <time>2021-06-01T11:31:53.316Z</time>
      </trkpt>
      <trkpt lat="44.13944" lon="5.85987">
        <ele>1217</ele>
        <time>2021-06-01T11:31:54.316Z</time>
      </trkpt>
      <trkpt lat="44.13945" lon="5.85987">
        <ele>1217</ele>
        <time>2021-06-01T11:31:55.316Z</time>
      </trkpt>
      <trkpt lat="44.13945" lon="5.85987">
        <ele>1217</ele>
        <time>2021-06-01T11:31:56.316Z</time>
      </trkpt>
      <trkpt lat="44.13945" lon="5.85987">
        <ele>1217</ele>
        <time>2021-06-01T11:31:57.316Z</time>
      </trkpt>
      <trkpt lat="44.13945" lon="5.85987">
        <ele>1216</ele>
        <time>2021-06-01T11:31:58.316Z</time>
      </trkpt>
      <trkpt lat="44.13945" lon="5.85988">
        <ele>1216</ele>
        <time>2021-06-01T11:31:59.316Z</time>
      </trkpt>
      <trkpt lat="44.13945" lon="5.85988">
        <ele>1216</ele>
        <time>2021-06-01T11:32:00.316Z</time>
      </trkpt>
      <trkpt lat="44.13945" lon="5.85988">
        <ele>1216</ele>
        <time>2021-06-01T11:32:01.316Z</time>
      </trkpt>
      <trkpt lat="44.13945" lon="5.85988">
        <ele>1216</ele>
        <time>2021-06-01T11:32:02.316Z</time>
      </trkpt>
      <trkpt lat="44.13945" lon="5.85988">
        <ele>1216</ele>
        <time>2021-06-01T11:32:03.316Z</time>
      </trkpt>
      <trkpt lat="44.13945" lon="5.85987">
        <ele>1216</ele>
        <time>2021-06-01T11:32:04.316Z</time>
      </trkpt>
      <trkpt lat="44.13946" lon="5.85987">
        <ele>1216</ele>
        <time>2021-06-01T11:32:05.316Z</time>
      </trkpt>
      <trkpt lat="44.13946" lon="5.85987">
        <ele>1216</ele>
        <time>2021-06-01T11:32:06.316Z</time>
      </trkpt>
      <trkpt lat="44.13946" lon="5.85987">
        <ele>1216</ele>
        <time>2021-06-01T11:32:07.316Z</time>
      </trkpt>
      <trkpt lat="44.13945" lon="5.85987">
        <ele>1216</ele>
        <time>2021-06-01T11:32:08.316Z</time>
      </trkpt>
      <trkpt lat="44.13945" lon="5.85987">
        <ele>1216</ele>
        <time>2021-06-01T11:32:09.316Z</time>
      </trkpt>
      <trkpt lat="44.13945" lon="5.85987">
        <ele>1216</ele>
        <time>2021-06-01T11:32:10.316Z</time>
      </trkpt>
      <trkpt lat="44.13944" lon="5.85987">
        <ele>1216</ele>
        <time>2021-06-01T11:32:11.316Z</time>
      </trkpt>
      <trkpt lat="44.13944" lon="5.85987">
        <ele>1216</ele>
        <time>2021-06-01T11:32:12.316Z</time>
      </trkpt>
      <trkpt lat="44.13944" lon="5.85987">
        <ele>1216</ele>
        <time>2021-06-01T11:32:13.316Z</time>
      </trkpt>
      <trkpt lat="44.13943" lon="5.85986">
        <ele>1216</ele>
        <time>2021-06-01T11:32:14.316Z</time>
      </trkpt>
      <trkpt lat="44.13943" lon="5.85986">
        <ele>1216</ele>
        <time>2021-06-01T11:32:15.316Z</time>
      </trkpt>
      <trkpt lat="44.13943" lon="5.85986">
        <ele>1216</ele>
        <time>2021-06-01T11:32:16.316Z</time>
      </trkpt>
      <trkpt lat="44.13943" lon="5.85986">
        <ele>1216</ele>
        <time>2021-06-01T11:32:17.316Z</time>
      </trkpt>
      <trkpt lat="44.13943" lon="5.85986">
        <ele>1215</ele>
        <time>2021-06-01T11:32:18.316Z</time>
      </trkpt>
      <trkpt lat="44.13943" lon="5.85986">
        <ele>1215</ele>
        <time>2021-06-01T11:32:19.316Z</time>
      </trkpt>
      <trkpt lat="44.13943" lon="5.85985">
        <ele>1215</ele>
        <time>2021-06-01T11:32:20.316Z</time>
      </trkpt>
      <trkpt lat="44.13942" lon="5.85985">
        <ele>1215</ele>
        <time>2021-06-01T11:32:21.316Z</time>
      </trkpt>
      <trkpt lat="44.13942" lon="5.85985">
        <ele>1215</ele>
        <time>2021-06-01T11:32:22.316Z</time>
      </trkpt>
      <trkpt lat="44.13942" lon="5.85985">
        <ele>1215</ele>
        <time>2021-06-01T11:32:23.316Z</time>
      </trkpt>
      <trkpt lat="44.13942" lon="5.85985">
        <ele>1215</ele>
        <time>2021-06-01T11:32:24.316Z</time>
      </trkpt>
      <trkpt lat="44.13942" lon="5.85985">
        <ele>1215</ele>
        <time>2021-06-01T11:32:25.316Z</time>
      </trkpt>
      <trkpt lat="44.13942" lon="5.85985">
        <ele>1215</ele>
        <time>2021-06-01T11:32:26.316Z</time>
      </trkpt>
      <trkpt lat="44.13942" lon="5.85985">
        <ele>1215</ele>
        <time>2021-06-01T11:32:27.316Z</time>
      </trkpt>
      <trkpt lat="44.13942" lon="5.85985">
        <ele>1215</ele>
        <time>2021-06-01T11:32:28.316Z</time>
      </trkpt>
      <trkpt lat="44.13942" lon="5.85985">
        <ele>1215</ele>
        <time>2021-06-01T11:32:29.316Z</time>
      </trkpt>
      <trkpt lat="44.13942" lon="5.85985">
        <ele>1215</ele>
        <time>2021-06-01T11:32:30.316Z</time>
      </trkpt>
      <trkpt lat="44.13942" lon="5.85985">
        <ele>1215</ele>
        <time>2021-06-01T11:32:31.316Z</time>
      </trkpt>
      <trkpt lat="44.13942" lon="5.85985">
        <ele>1215</ele>
        <time>2021-06-01T11:32:32.316Z</time>
      </trkpt>
      <trkpt lat="44.13942" lon="5.85986">
        <ele>1215</ele>
        <time>2021-06-01T11:32:33.316Z</time>
      </trkpt>
      <trkpt lat="44.13942" lon="5.85986">
        <ele>1215</ele>
        <time>2021-06-01T11:32:34.316Z</time>
      </trkpt>
      <trkpt lat="44.13942" lon="5.85986">
        <ele>1215</ele>
        <time>2021-06-01T11:32:35.316Z</time>
      </trkpt>
      <trkpt lat="44.13942" lon="5.85986">
        <ele>1215</ele>
        <time>2021-06-01T11:32:36.316Z</time>
      </trkpt>
      <trkpt lat="44.13942" lon="5.85986">
        <ele>1215</ele>
        <time>2021-06-01T11:32:37.316Z</time>
      </trkpt>
      <trkpt lat="44.13942" lon="5.85986">
        <ele>1215</ele>
        <time>2021-06-01T11:32:38.316Z</time>
      </trkpt>
      <trkpt lat="44.13943" lon="5.85986">
        <ele>1215</ele>
        <time>2021-06-01T11:32:39.316Z</time>
      </trkpt>
      <trkpt lat="44.13943" lon="5.85986">
        <ele>1215</ele>
        <time>2021-06-01T11:32:40.316Z</time>
      </trkpt>
      <trkpt lat="44.13943" lon="5.85986">
        <ele>1215</ele>
        <time>2021-06-01T11:32:41.316Z</time>
      </trkpt>
      <trkpt lat="44.13943" lon="5.85987">
        <ele>1215</ele>
        <time>2021-06-01T11:32:42.316Z</time>
      </trkpt>
      <trkpt lat="44.13944" lon="5.85987">
        <ele>1215</ele>
        <time>2021-06-01T11:32:43.316Z</time>
      </trkpt>
      <trkpt lat="44.13944" lon="5.85987">
        <ele>1215</ele>
        <time>2021-06-01T11:32:44.316Z</time>
      </trkpt>
      <trkpt lat="44.13944" lon="5.85987">
        <ele>1215</ele>
        <time>2021-06-01T11:32:45.316Z</time>
      </trkpt>
      <trkpt lat="44.13944" lon="5.85987">
        <ele>1214</ele>
        <time>2021-06-01T11:32:46.316Z</time>
      </trkpt>
      <trkpt lat="44.13944" lon="5.85987">
        <ele>1214</ele>
        <time>2021-06-01T11:32:47.316Z</time>
      </trkpt>
      <trkpt lat="44.13944" lon="5.85987">
        <ele>1214</ele>
        <time>2021-06-01T11:32:48.316Z</time>
      </trkpt>
      <trkpt lat="44.13944" lon="5.85987">
        <ele>1214</ele>
        <time>2021-06-01T11:32:49.316Z</time>
      </trkpt>
      <trkpt lat="44.13945" lon="5.85987">
        <ele>1214</ele>
        <time>2021-06-01T11:32:50.316Z</time>
      </trkpt>
      <trkpt lat="44.13945" lon="5.85987">
        <ele>1214</ele>
        <time>2021-06-01T11:32:51.316Z</time>
      </trkpt>
      <trkpt lat="44.13945" lon="5.85987">
        <ele>1214</ele>
        <time>2021-06-01T11:32:52.316Z</time>
      </trkpt>
      <trkpt lat="44.13946" lon="5.85987">
        <ele>1214</ele>
        <time>2021-06-01T11:32:53.316Z</time>
      </trkpt>
      <trkpt lat="44.13946" lon="5.85987">
        <ele>1214</ele>
        <time>2021-06-01T11:32:54.316Z</time>
      </trkpt>
      <trkpt lat="44.13947" lon="5.85987">
        <ele>1214</ele>
        <time>2021-06-01T11:32:55.316Z</time>
      </trkpt>
      <trkpt lat="44.13947" lon="5.85987">
        <ele>1214</ele>
        <time>2021-06-01T11:32:56.316Z</time>
      </trkpt>
      <trkpt lat="44.13947" lon="5.85987">
        <ele>1214</ele>
        <time>2021-06-01T11:32:57.316Z</time>
      </trkpt>
      <trkpt lat="44.13947" lon="5.85987">
        <ele>1214</ele>
        <time>2021-06-01T11:32:58.316Z</time>
      </trkpt>
      <trkpt lat="44.13948" lon="5.85987">
        <ele>1214</ele>
        <time>2021-06-01T11:32:59.316Z</time>
      </trkpt>
      <trkpt lat="44.13948" lon="5.85987">
        <ele>1214</ele>
        <time>2021-06-01T11:33:00.316Z</time>
      </trkpt>
      <trkpt lat="44.13948" lon="5.85987">
        <ele>1214</ele>
        <time>2021-06-01T11:33:01.316Z</time>
      </trkpt>
      <trkpt lat="44.13949" lon="5.85987">
        <ele>1214</ele>
        <time>2021-06-01T11:33:02.316Z</time>
      </trkpt>
      <trkpt lat="44.13949" lon="5.85987">
        <ele>1214</ele>
        <time>2021-06-01T11:33:03.316Z</time>
      </trkpt>
      <trkpt lat="44.13949" lon="5.85988">
        <ele>1214</ele>
        <time>2021-06-01T11:33:04.316Z</time>
      </trkpt>
      <trkpt lat="44.13949" lon="5.85988">
        <ele>1213</ele>
        <time>2021-06-01T11:33:05.316Z</time>
      </trkpt>
      <trkpt lat="44.13949" lon="5.85989">
        <ele>1213</ele>
        <time>2021-06-01T11:33:06.316Z</time>
      </trkpt>
      <trkpt lat="44.13949" lon="5.85989">
        <ele>1213</ele>
        <time>2021-06-01T11:33:07.316Z</time>
      </trkpt>
      <trkpt lat="44.1395" lon="5.8599">
        <ele>1213</ele>
        <time>2021-06-01T11:33:08.316Z</time>
      </trkpt>
      <trkpt lat="44.1395" lon="5.8599">
        <ele>1213</ele>
        <time>2021-06-01T11:33:09.316Z</time>
      </trkpt>
      <trkpt lat="44.1395" lon="5.8599">
        <ele>1213</ele>
        <time>2021-06-01T11:33:10.316Z</time>
      </trkpt>
      <trkpt lat="44.1395" lon="5.85991">
        <ele>1213</ele>
        <time>2021-06-01T11:33:11.316Z</time>
      </trkpt>
      <trkpt lat="44.1395" lon="5.85991">
        <ele>1213</ele>
        <time>2021-06-01T11:33:12.316Z</time>
      </trkpt>
      <trkpt lat="44.1395" lon="5.85991">
        <ele>1213</ele>
        <time>2021-06-01T11:33:13.316Z</time>
      </trkpt>
      <trkpt lat="44.1395" lon="5.85991">
        <ele>1213</ele>
        <time>2021-06-01T11:33:14.316Z</time>
      </trkpt>
      <trkpt lat="44.1395" lon="5.85991">
        <ele>1213</ele>
        <time>2021-06-01T11:33:15.316Z</time>
      </trkpt>
      <trkpt lat="44.1395" lon="5.85992">
        <ele>1213</ele>
        <time>2021-06-01T11:33:16.316Z</time>
      </trkpt>
      <trkpt lat="44.1395" lon="5.85992">
        <ele>1213</ele>
        <time>2021-06-01T11:33:17.316Z</time>
      </trkpt>
      <trkpt lat="44.1395" lon="5.85992">
        <ele>1212</ele>
        <time>2021-06-01T11:33:18.316Z</time>
      </trkpt>
      <trkpt lat="44.1395" lon="5.85993">
        <ele>1212</ele>
        <time>2021-06-01T11:33:19.316Z</time>
      </trkpt>
      <trkpt lat="44.1395" lon="5.85994">
        <ele>1212</ele>
        <time>2021-06-01T11:33:20.316Z</time>
      </trkpt>
      <trkpt lat="44.1395" lon="5.85994">
        <ele>1212</ele>
        <time>2021-06-01T11:33:21.316Z</time>
      </trkpt>
      <trkpt lat="44.13949" lon="5.85995">
        <ele>1212</ele>
        <time>2021-06-01T11:33:22.316Z</time>
      </trkpt>
      <trkpt lat="44.13949" lon="5.85995">
        <ele>1212</ele>
        <time>2021-06-01T11:33:23.316Z</time>
      </trkpt>
      <trkpt lat="44.1395" lon="5.85996">
        <ele>1211</ele>
        <time>2021-06-01T11:33:24.316Z</time>
      </trkpt>
      <trkpt lat="44.1395" lon="5.85997">
        <ele>1211</ele>
        <time>2021-06-01T11:33:25.316Z</time>
      </trkpt>
      <trkpt lat="44.1395" lon="5.85997">
        <ele>1211</ele>
        <time>2021-06-01T11:33:26.316Z</time>
      </trkpt>
      <trkpt lat="44.13949" lon="5.85998">
        <ele>1211</ele>
        <time>2021-06-01T11:33:27.316Z</time>
      </trkpt>
      <trkpt lat="44.1395" lon="5.85998">
        <ele>1211</ele>
        <time>2021-06-01T11:33:28.316Z</time>
      </trkpt>
      <trkpt lat="44.1395" lon="5.85999">
        <ele>1211</ele>
        <time>2021-06-01T11:33:29.316Z</time>
      </trkpt>
      <trkpt lat="44.1395" lon="5.86">
        <ele>1211</ele>
        <time>2021-06-01T11:33:30.316Z</time>
      </trkpt>
      <trkpt lat="44.1395" lon="5.86">
        <ele>1210</ele>
        <time>2021-06-01T11:33:31.316Z</time>
      </trkpt>
      <trkpt lat="44.1395" lon="5.86">
        <ele>1210</ele>
        <time>2021-06-01T11:33:32.316Z</time>
      </trkpt>
      <trkpt lat="44.1395" lon="5.86001">
        <ele>1210</ele>
        <time>2021-06-01T11:33:33.316Z</time>
      </trkpt>
      <trkpt lat="44.1395" lon="5.86001">
        <ele>1210</ele>
        <time>2021-06-01T11:33:34.316Z</time>
      </trkpt>
      <trkpt lat="44.1395" lon="5.86002">
        <ele>1210</ele>
        <time>2021-06-01T11:33:35.316Z</time>
      </trkpt>
      <trkpt lat="44.1395" lon="5.86002">
        <ele>1210</ele>
        <time>2021-06-01T11:33:36.316Z</time>
      </trkpt>
      <trkpt lat="44.1395" lon="5.86002">
        <ele>1209</ele>
        <time>2021-06-01T11:33:37.316Z</time>
      </trkpt>
      <trkpt lat="44.13949" lon="5.86003">
        <ele>1209</ele>
        <time>2021-06-01T11:33:38.316Z</time>
      </trkpt>
      <trkpt lat="44.13949" lon="5.86003">
        <ele>1209</ele>
        <time>2021-06-01T11:33:39.316Z</time>
      </trkpt>
      <trkpt lat="44.1395" lon="5.86004">
        <ele>1209</ele>
        <time>2021-06-01T11:33:40.316Z</time>
      </trkpt>
      <trkpt lat="44.1395" lon="5.86005">
        <ele>1209</ele>
        <time>2021-06-01T11:33:41.316Z</time>
      </trkpt>
      <trkpt lat="44.1395" lon="5.86006">
        <ele>1209</ele>
        <time>2021-06-01T11:33:42.316Z</time>
      </trkpt>
      <trkpt lat="44.1395" lon="5.86007">
        <ele>1209</ele>
        <time>2021-06-01T11:33:43.316Z</time>
      </trkpt>
      <trkpt lat="44.1395" lon="5.86007">
        <ele>1209</ele>
        <time>2021-06-01T11:33:44.316Z</time>
      </trkpt>
      <trkpt lat="44.1395" lon="5.86007">
        <ele>1209</ele>
        <time>2021-06-01T11:33:45.316Z</time>
      </trkpt>
      <trkpt lat="44.1395" lon="5.86007">
        <ele>1208</ele>
        <time>2021-06-01T11:33:46.316Z</time>
      </trkpt>
      <trkpt lat="44.1395" lon="5.86007">
        <ele>1208</ele>
        <time>2021-06-01T11:33:47.316Z</time>
      </trkpt>
      <trkpt lat="44.1395" lon="5.86007">
        <ele>1208</ele>
        <time>2021-06-01T11:33:48.316Z</time>
      </trkpt>
      <trkpt lat="44.1395" lon="5.86007">
        <ele>1208</ele>
        <time>2021-06-01T11:33:49.316Z</time>
      </trkpt>
      <trkpt lat="44.1395" lon="5.86007">
        <ele>1208</ele>
        <time>2021-06-01T11:33:50.316Z</time>
      </trkpt>
      <trkpt lat="44.1395" lon="5.86007">
        <ele>1208</ele>
        <time>2021-06-01T11:33:51.316Z</time>
      </trkpt>
      <trkpt lat="44.13951" lon="5.86008">
        <ele>1208</ele>
        <time>2021-06-01T11:33:52.316Z</time>
      </trkpt>
      <trkpt lat="44.13951" lon="5.86008">
        <ele>1208</ele>
        <time>2021-06-01T11:33:53.316Z</time>
      </trkpt>
      <trkpt lat="44.13951" lon="5.86009">
        <ele>1207</ele>
        <time>2021-06-01T11:33:54.316Z</time>
      </trkpt>
      <trkpt lat="44.13951" lon="5.86009">
        <ele>1207</ele>
        <time>2021-06-01T11:33:55.316Z</time>
      </trkpt>
      <trkpt lat="44.13951" lon="5.8601">
        <ele>1207</ele>
        <time>2021-06-01T11:33:56.316Z</time>
      </trkpt>
      <trkpt lat="44.13952" lon="5.86011">
        <ele>1207</ele>
        <time>2021-06-01T11:33:57.316Z</time>
      </trkpt>
      <trkpt lat="44.13952" lon="5.86012">
        <ele>1207</ele>
        <time>2021-06-01T11:33:58.316Z</time>
      </trkpt>
      <trkpt lat="44.13952" lon="5.86013">
        <ele>1206</ele>
        <time>2021-06-01T11:33:59.316Z</time>
      </trkpt>
      <trkpt lat="44.13953" lon="5.86014">
        <ele>1206</ele>
        <time>2021-06-01T11:34:00.316Z</time>
      </trkpt>
      <trkpt lat="44.13953" lon="5.86016">
        <ele>1205</ele>
        <time>2021-06-01T11:34:01.316Z</time>
      </trkpt>
      <trkpt lat="44.13953" lon="5.86017">
        <ele>1205</ele>
        <time>2021-06-01T11:34:02.316Z</time>
      </trkpt>
      <trkpt lat="44.13953" lon="5.86018">
        <ele>1205</ele>
        <time>2021-06-01T11:34:03.316Z</time>
      </trkpt>
      <trkpt lat="44.13953" lon="5.86019">
        <ele>1204</ele>
        <time>2021-06-01T11:34:04.316Z</time>
      </trkpt>
      <trkpt lat="44.13954" lon="5.86021">
        <ele>1204</ele>
        <time>2021-06-01T11:34:05.316Z</time>
      </trkpt>
      <trkpt lat="44.13954" lon="5.86022">
        <ele>1203</ele>
        <time>2021-06-01T11:34:06.316Z</time>
      </trkpt>
      <trkpt lat="44.13954" lon="5.86023">
        <ele>1203</ele>
        <time>2021-06-01T11:34:07.316Z</time>
      </trkpt>
      <trkpt lat="44.13954" lon="5.86024">
        <ele>1202</ele>
        <time>2021-06-01T11:34:08.316Z</time>
      </trkpt>
      <trkpt lat="44.13954" lon="5.86025">
        <ele>1202</ele>
        <time>2021-06-01T11:34:09.316Z</time>
      </trkpt>
      <trkpt lat="44.13954" lon="5.86025">
        <ele>1202</ele>
        <time>2021-06-01T11:34:10.316Z</time>
      </trkpt>
      <trkpt lat="44.13954" lon="5.86026">
        <ele>1201</ele>
        <time>2021-06-01T11:34:11.316Z</time>
      </trkpt>
      <trkpt lat="44.13954" lon="5.86027">
        <ele>1201</ele>
        <time>2021-06-01T11:34:12.316Z</time>
      </trkpt>
      <trkpt lat="44.13953" lon="5.86029">
        <ele>1201</ele>
        <time>2021-06-01T11:34:13.316Z</time>
      </trkpt>
      <trkpt lat="44.13953" lon="5.86031">
        <ele>1200</ele>
        <time>2021-06-01T11:34:14.316Z</time>
      </trkpt>
      <trkpt lat="44.13953" lon="5.86032">
        <ele>1200</ele>
        <time>2021-06-01T11:34:15.316Z</time>
      </trkpt>
      <trkpt lat="44.13953" lon="5.86033">
        <ele>1200</ele>
        <time>2021-06-01T11:34:16.316Z</time>
      </trkpt>
      <trkpt lat="44.13952" lon="5.86034">
        <ele>1200</ele>
        <time>2021-06-01T11:34:17.316Z</time>
      </trkpt>
      <trkpt lat="44.13952" lon="5.86036">
        <ele>1200</ele>
        <time>2021-06-01T11:34:18.316Z</time>
      </trkpt>
      <trkpt lat="44.13951" lon="5.86037">
        <ele>1200</ele>
        <time>2021-06-01T11:34:19.316Z</time>
      </trkpt>
      <trkpt lat="44.13951" lon="5.86038">
        <ele>1200</ele>
        <time>2021-06-01T11:34:20.316Z</time>
      </trkpt>
      <trkpt lat="44.13951" lon="5.86039">
        <ele>1199</ele>
        <time>2021-06-01T11:34:21.316Z</time>
      </trkpt>
      <trkpt lat="44.1395" lon="5.8604">
        <ele>1199</ele>
        <time>2021-06-01T11:34:22.316Z</time>
      </trkpt>
      <trkpt lat="44.1395" lon="5.86042">
        <ele>1199</ele>
        <time>2021-06-01T11:34:23.316Z</time>
      </trkpt>
      <trkpt lat="44.1395" lon="5.86042">
        <ele>1199</ele>
        <time>2021-06-01T11:34:24.316Z</time>
      </trkpt>
      <trkpt lat="44.1395" lon="5.86043">
        <ele>1199</ele>
        <time>2021-06-01T11:34:25.316Z</time>
      </trkpt>
      <trkpt lat="44.1395" lon="5.86044">
        <ele>1199</ele>
        <time>2021-06-01T11:34:26.316Z</time>
      </trkpt>
      <trkpt lat="44.1395" lon="5.86045">
        <ele>1199</ele>
        <time>2021-06-01T11:34:27.316Z</time>
      </trkpt>
      <trkpt lat="44.1395" lon="5.86046">
        <ele>1199</ele>
        <time>2021-06-01T11:34:28.316Z</time>
      </trkpt>
      <trkpt lat="44.1395" lon="5.86046">
        <ele>1199</ele>
        <time>2021-06-01T11:34:29.316Z</time>
      </trkpt>
      <trkpt lat="44.1395" lon="5.86046">
        <ele>1199</ele>
        <time>2021-06-01T11:34:30.316Z</time>
      </trkpt>
      <trkpt lat="44.1395" lon="5.86047">
        <ele>1199</ele>
        <time>2021-06-01T11:34:31.316Z</time>
      </trkpt>
      <trkpt lat="44.1395" lon="5.86047">
        <ele>1199</ele>
        <time>2021-06-01T11:34:32.316Z</time>
      </trkpt>
      <trkpt lat="44.13949" lon="5.86049">
        <ele>1199</ele>
        <time>2021-06-01T11:34:33.316Z</time>
      </trkpt>
      <trkpt lat="44.13949" lon="5.86049">
        <ele>1199</ele>
        <time>2021-06-01T11:34:34.316Z</time>
      </trkpt>
      <trkpt lat="44.13949" lon="5.8605">
        <ele>1199</ele>
        <time>2021-06-01T11:34:35.316Z</time>
      </trkpt>
      <trkpt lat="44.13949" lon="5.86051">
        <ele>1199</ele>
        <time>2021-06-01T11:34:36.316Z</time>
      </trkpt>
      <trkpt lat="44.13949" lon="5.86052">
        <ele>1199</ele>
        <time>2021-06-01T11:34:37.316Z</time>
      </trkpt>
      <trkpt lat="44.13949" lon="5.86053">
        <ele>1199</ele>
        <time>2021-06-01T11:34:38.316Z</time>
      </trkpt>
      <trkpt lat="44.13949" lon="5.86054">
        <ele>1199</ele>
        <time>2021-06-01T11:34:39.316Z</time>
      </trkpt>
      <trkpt lat="44.13949" lon="5.86054">
        <ele>1199</ele>
        <time>2021-06-01T11:34:40.316Z</time>
      </trkpt>
      <trkpt lat="44.13949" lon="5.86055">
        <ele>1199</ele>
        <time>2021-06-01T11:34:41.316Z</time>
      </trkpt>
      <trkpt lat="44.13949" lon="5.86055">
        <ele>1198</ele>
        <time>2021-06-01T11:34:42.316Z</time>
      </trkpt>
      <trkpt lat="44.13948" lon="5.86056">
        <ele>1198</ele>
        <time>2021-06-01T11:34:43.316Z</time>
      </trkpt>
      <trkpt lat="44.13948" lon="5.86056">
        <ele>1198</ele>
        <time>2021-06-01T11:34:44.316Z</time>
      </trkpt>
      <trkpt lat="44.13948" lon="5.86057">
        <ele>1198</ele>
        <time>2021-06-01T11:34:45.316Z</time>
      </trkpt>
      <trkpt lat="44.13948" lon="5.86058">
        <ele>1198</ele>
        <time>2021-06-01T11:34:46.316Z</time>
      </trkpt>
      <trkpt lat="44.13948" lon="5.86059">
        <ele>1198</ele>
        <time>2021-06-01T11:34:47.316Z</time>
      </trkpt>
      <trkpt lat="44.13948" lon="5.8606">
        <ele>1198</ele>
        <time>2021-06-01T11:34:48.316Z</time>
      </trkpt>
      <trkpt lat="44.13948" lon="5.86061">
        <ele>1198</ele>
        <time>2021-06-01T11:34:49.316Z</time>
      </trkpt>
      <trkpt lat="44.13948" lon="5.86062">
        <ele>1198</ele>
        <time>2021-06-01T11:34:50.316Z</time>
      </trkpt>
      <trkpt lat="44.13948" lon="5.86063">
        <ele>1198</ele>
        <time>2021-06-01T11:34:51.316Z</time>
      </trkpt>
      <trkpt lat="44.13948" lon="5.86065">
        <ele>1198</ele>
        <time>2021-06-01T11:34:52.316Z</time>
      </trkpt>
      <trkpt lat="44.13947" lon="5.86066">
        <ele>1198</ele>
        <time>2021-06-01T11:34:53.316Z</time>
      </trkpt>
      <trkpt lat="44.13947" lon="5.86067">
        <ele>1198</ele>
        <time>2021-06-01T11:34:54.316Z</time>
      </trkpt>
      <trkpt lat="44.13947" lon="5.86068">
        <ele>1198</ele>
        <time>2021-06-01T11:34:55.316Z</time>
      </trkpt>
      <trkpt lat="44.13946" lon="5.86069">
        <ele>1198</ele>
        <time>2021-06-01T11:34:56.316Z</time>
      </trkpt>
      <trkpt lat="44.13946" lon="5.8607">
        <ele>1198</ele>
        <time>2021-06-01T11:34:57.316Z</time>
      </trkpt>
      <trkpt lat="44.13946" lon="5.8607">
        <ele>1198</ele>
        <time>2021-06-01T11:34:58.316Z</time>
      </trkpt>
      <trkpt lat="44.13946" lon="5.86071">
        <ele>1198</ele>
        <time>2021-06-01T11:34:59.316Z</time>
      </trkpt>
      <trkpt lat="44.13945" lon="5.86072">
        <ele>1198</ele>
        <time>2021-06-01T11:35:00.316Z</time>
      </trkpt>
      <trkpt lat="44.13945" lon="5.86072">
        <ele>1198</ele>
        <time>2021-06-01T11:35:01.316Z</time>
      </trkpt>
      <trkpt lat="44.13945" lon="5.86073">
        <ele>1197</ele>
        <time>2021-06-01T11:35:02.316Z</time>
      </trkpt>
      <trkpt lat="44.13945" lon="5.86074">
        <ele>1197</ele>
        <time>2021-06-01T11:35:03.316Z</time>
      </trkpt>
      <trkpt lat="44.13945" lon="5.86074">
        <ele>1197</ele>
        <time>2021-06-01T11:35:04.316Z</time>
      </trkpt>
      <trkpt lat="44.13945" lon="5.86075">
        <ele>1197</ele>
        <time>2021-06-01T11:35:05.316Z</time>
      </trkpt>
      <trkpt lat="44.13944" lon="5.86075">
        <ele>1197</ele>
        <time>2021-06-01T11:35:06.316Z</time>
      </trkpt>
      <trkpt lat="44.13944" lon="5.86076">
        <ele>1197</ele>
        <time>2021-06-01T11:35:07.316Z</time>
      </trkpt>
      <trkpt lat="44.13944" lon="5.86076">
        <ele>1197</ele>
        <time>2021-06-01T11:35:08.316Z</time>
      </trkpt>
      <trkpt lat="44.13944" lon="5.86077">
        <ele>1197</ele>
        <time>2021-06-01T11:35:09.316Z</time>
      </trkpt>
      <trkpt lat="44.13944" lon="5.86078">
        <ele>1197</ele>
        <time>2021-06-01T11:35:10.316Z</time>
      </trkpt>
      <trkpt lat="44.13944" lon="5.86079">
        <ele>1197</ele>
        <time>2021-06-01T11:35:11.316Z</time>
      </trkpt>
      <trkpt lat="44.13944" lon="5.8608">
        <ele>1197</ele>
        <time>2021-06-01T11:35:12.316Z</time>
      </trkpt>
      <trkpt lat="44.13944" lon="5.86081">
        <ele>1197</ele>
        <time>2021-06-01T11:35:13.316Z</time>
      </trkpt>
      <trkpt lat="44.13944" lon="5.86082">
        <ele>1197</ele>
        <time>2021-06-01T11:35:14.316Z</time>
      </trkpt>
      <trkpt lat="44.13944" lon="5.86083">
        <ele>1197</ele>
        <time>2021-06-01T11:35:15.316Z</time>
      </trkpt>
      <trkpt lat="44.13944" lon="5.86084">
        <ele>1197</ele>
        <time>2021-06-01T11:35:16.316Z</time>
      </trkpt>
      <trkpt lat="44.13944" lon="5.86085">
        <ele>1197</ele>
        <time>2021-06-01T11:35:17.316Z</time>
      </trkpt>
      <trkpt lat="44.13943" lon="5.86086">
        <ele>1197</ele>
        <time>2021-06-01T11:35:18.316Z</time>
      </trkpt>
      <trkpt lat="44.13944" lon="5.86087">
        <ele>1197</ele>
        <time>2021-06-01T11:35:19.316Z</time>
      </trkpt>
      <trkpt lat="44.13944" lon="5.86088">
        <ele>1197</ele>
        <time>2021-06-01T11:35:20.316Z</time>
      </trkpt>
      <trkpt lat="44.13944" lon="5.86089">
        <ele>1197</ele>
        <time>2021-06-01T11:35:21.316Z</time>
      </trkpt>
      <trkpt lat="44.13944" lon="5.8609">
        <ele>1197</ele>
        <time>2021-06-01T11:35:22.316Z</time>
      </trkpt>
      <trkpt lat="44.13944" lon="5.86092">
        <ele>1197</ele>
        <time>2021-06-01T11:35:23.316Z</time>
      </trkpt>
      <trkpt lat="44.13943" lon="5.86093">
        <ele>1197</ele>
        <time>2021-06-01T11:35:24.316Z</time>
      </trkpt>
      <trkpt lat="44.13943" lon="5.86095">
        <ele>1197</ele>
        <time>2021-06-01T11:35:25.316Z</time>
      </trkpt>
      <trkpt lat="44.13943" lon="5.86096">
        <ele>1197</ele>
        <time>2021-06-01T11:35:26.316Z</time>
      </trkpt>
      <trkpt lat="44.13943" lon="5.86097">
        <ele>1196</ele>
        <time>2021-06-01T11:35:27.316Z</time>
      </trkpt>
      <trkpt lat="44.13942" lon="5.86099">
        <ele>1196</ele>
        <time>2021-06-01T11:35:28.316Z</time>
      </trkpt>
      <trkpt lat="44.13942" lon="5.861">
        <ele>1196</ele>
        <time>2021-06-01T11:35:29.316Z</time>
      </trkpt>
      <trkpt lat="44.13942" lon="5.86101">
        <ele>1196</ele>
        <time>2021-06-01T11:35:30.316Z</time>
      </trkpt>
      <trkpt lat="44.13942" lon="5.86102">
        <ele>1196</ele>
        <time>2021-06-01T11:35:31.316Z</time>
      </trkpt>
      <trkpt lat="44.13941" lon="5.86103">
        <ele>1196</ele>
        <time>2021-06-01T11:35:32.316Z</time>
      </trkpt>
      <trkpt lat="44.13941" lon="5.86104">
        <ele>1196</ele>
        <time>2021-06-01T11:35:33.316Z</time>
      </trkpt>
      <trkpt lat="44.13941" lon="5.86105">
        <ele>1196</ele>
        <time>2021-06-01T11:35:34.316Z</time>
      </trkpt>
      <trkpt lat="44.13941" lon="5.86106">
        <ele>1196</ele>
        <time>2021-06-01T11:35:35.316Z</time>
      </trkpt>
      <trkpt lat="44.13941" lon="5.86107">
        <ele>1196</ele>
        <time>2021-06-01T11:35:36.316Z</time>
      </trkpt>
      <trkpt lat="44.13941" lon="5.86107">
        <ele>1196</ele>
        <time>2021-06-01T11:35:37.316Z</time>
      </trkpt>
      <trkpt lat="44.13941" lon="5.86108">
        <ele>1196</ele>
        <time>2021-06-01T11:35:38.316Z</time>
      </trkpt>
      <trkpt lat="44.13941" lon="5.86109">
        <ele>1196</ele>
        <time>2021-06-01T11:35:39.316Z</time>
      </trkpt>
      <trkpt lat="44.13941" lon="5.8611">
        <ele>1196</ele>
        <time>2021-06-01T11:35:40.316Z</time>
      </trkpt>
      <trkpt lat="44.13941" lon="5.86111">
        <ele>1196</ele>
        <time>2021-06-01T11:35:41.316Z</time>
      </trkpt>
      <trkpt lat="44.13942" lon="5.86111">
        <ele>1196</ele>
        <time>2021-06-01T11:35:42.316Z</time>
      </trkpt>
      <trkpt lat="44.13941" lon="5.86112">
        <ele>1196</ele>
        <time>2021-06-01T11:35:43.316Z</time>
      </trkpt>
      <trkpt lat="44.13942" lon="5.86113">
        <ele>1196</ele>
        <time>2021-06-01T11:35:44.316Z</time>
      </trkpt>
      <trkpt lat="44.13942" lon="5.86114">
        <ele>1196</ele>
        <time>2021-06-01T11:35:45.316Z</time>
      </trkpt>
      <trkpt lat="44.13942" lon="5.86114">
        <ele>1196</ele>
        <time>2021-06-01T11:35:46.316Z</time>
      </trkpt>
      <trkpt lat="44.13942" lon="5.86116">
        <ele>1196</ele>
        <time>2021-06-01T11:35:47.316Z</time>
      </trkpt>
      <trkpt lat="44.13943" lon="5.86117">
        <ele>1196</ele>
        <time>2021-06-01T11:35:48.316Z</time>
      </trkpt>
      <trkpt lat="44.13943" lon="5.86118">
        <ele>1196</ele>
        <time>2021-06-01T11:35:49.316Z</time>
      </trkpt>
      <trkpt lat="44.13942" lon="5.8612">
        <ele>1196</ele>
        <time>2021-06-01T11:35:50.316Z</time>
      </trkpt>
      <trkpt lat="44.13942" lon="5.86122">
        <ele>1196</ele>
        <time>2021-06-01T11:35:51.316Z</time>
      </trkpt>
      <trkpt lat="44.13941" lon="5.86123">
        <ele>1196</ele>
        <time>2021-06-01T11:35:52.316Z</time>
      </trkpt>
      <trkpt lat="44.13941" lon="5.86124">
        <ele>1196</ele>
        <time>2021-06-01T11:35:53.316Z</time>
      </trkpt>
      <trkpt lat="44.1394" lon="5.86125">
        <ele>1196</ele>
        <time>2021-06-01T11:35:54.316Z</time>
      </trkpt>
      <trkpt lat="44.1394" lon="5.86126">
        <ele>1196</ele>
        <time>2021-06-01T11:35:55.316Z</time>
      </trkpt>
      <trkpt lat="44.1394" lon="5.86128">
        <ele>1196</ele>
        <time>2021-06-01T11:35:56.316Z</time>
      </trkpt>
      <trkpt lat="44.1394" lon="5.86129">
        <ele>1196</ele>
        <time>2021-06-01T11:35:57.316Z</time>
      </trkpt>
      <trkpt lat="44.1394" lon="5.8613">
        <ele>1196</ele>
        <time>2021-06-01T11:35:58.316Z</time>
      </trkpt>
      <trkpt lat="44.1394" lon="5.86131">
        <ele>1196</ele>
        <time>2021-06-01T11:35:59.316Z</time>
      </trkpt>
      <trkpt lat="44.1394" lon="5.86132">
        <ele>1196</ele>
        <time>2021-06-01T11:36:00.316Z</time>
      </trkpt>
      <trkpt lat="44.1394" lon="5.86134">
        <ele>1196</ele>
        <time>2021-06-01T11:36:01.316Z</time>
      </trkpt>
      <trkpt lat="44.1394" lon="5.86135">
        <ele>1196</ele>
        <time>2021-06-01T11:36:02.316Z</time>
      </trkpt>
      <trkpt lat="44.1394" lon="5.86136">
        <ele>1196</ele>
        <time>2021-06-01T11:36:03.316Z</time>
      </trkpt>
      <trkpt lat="44.13939" lon="5.86136">
        <ele>1196</ele>
        <time>2021-06-01T11:36:04.316Z</time>
      </trkpt>
      <trkpt lat="44.13939" lon="5.86137">
        <ele>1196</ele>
        <time>2021-06-01T11:36:05.316Z</time>
      </trkpt>
      <trkpt lat="44.13938" lon="5.86137">
        <ele>1196</ele>
        <time>2021-06-01T11:36:06.316Z</time>
      </trkpt>
      <trkpt lat="44.13938" lon="5.86138">
        <ele>1196</ele>
        <time>2021-06-01T11:36:07.316Z</time>
      </trkpt>
      <trkpt lat="44.13937" lon="5.86138">
        <ele>1196</ele>
        <time>2021-06-01T11:36:08.316Z</time>
      </trkpt>
      <trkpt lat="44.13937" lon="5.86138">
        <ele>1196</ele>
        <time>2021-06-01T11:36:09.316Z</time>
      </trkpt>
      <trkpt lat="44.13937" lon="5.86139">
        <ele>1196</ele>
        <time>2021-06-01T11:36:10.316Z</time>
      </trkpt>
      <trkpt lat="44.13937" lon="5.86139">
        <ele>1196</ele>
        <time>2021-06-01T11:36:11.316Z</time>
      </trkpt>
      <trkpt lat="44.13936" lon="5.86139">
        <ele>1195</ele>
        <time>2021-06-01T11:36:12.316Z</time>
      </trkpt>
      <trkpt lat="44.13936" lon="5.8614">
        <ele>1195</ele>
        <time>2021-06-01T11:36:13.316Z</time>
      </trkpt>
      <trkpt lat="44.13935" lon="5.8614">
        <ele>1195</ele>
        <time>2021-06-01T11:36:14.316Z</time>
      </trkpt>
      <trkpt lat="44.13934" lon="5.86141">
        <ele>1195</ele>
        <time>2021-06-01T11:36:15.316Z</time>
      </trkpt>
      <trkpt lat="44.13934" lon="5.86141">
        <ele>1195</ele>
        <time>2021-06-01T11:36:16.316Z</time>
      </trkpt>
      <trkpt lat="44.13933" lon="5.86141">
        <ele>1195</ele>
        <time>2021-06-01T11:36:17.316Z</time>
      </trkpt>
      <trkpt lat="44.13932" lon="5.86141">
        <ele>1195</ele>
        <time>2021-06-01T11:36:18.316Z</time>
      </trkpt>
      <trkpt lat="44.13932" lon="5.86142">
        <ele>1196</ele>
        <time>2021-06-01T11:36:19.316Z</time>
      </trkpt>
      <trkpt lat="44.13931" lon="5.86142">
        <ele>1196</ele>
        <time>2021-06-01T11:36:20.316Z</time>
      </trkpt>
      <trkpt lat="44.1393" lon="5.86142">
        <ele>1196</ele>
        <time>2021-06-01T11:36:21.316Z</time>
      </trkpt>
      <trkpt lat="44.1393" lon="5.86143">
        <ele>1196</ele>
        <time>2021-06-01T11:36:22.316Z</time>
      </trkpt>
      <trkpt lat="44.1393" lon="5.86143">
        <ele>1196</ele>
        <time>2021-06-01T11:36:23.316Z</time>
      </trkpt>
      <trkpt lat="44.13929" lon="5.86143">
        <ele>1196</ele>
        <time>2021-06-01T11:36:24.316Z</time>
      </trkpt>
      <trkpt lat="44.13929" lon="5.86143">
        <ele>1196</ele>
        <time>2021-06-01T11:36:25.316Z</time>
      </trkpt>
      <trkpt lat="44.13928" lon="5.86143">
        <ele>1196</ele>
        <time>2021-06-01T11:36:26.316Z</time>
      </trkpt>
      <trkpt lat="44.13928" lon="5.86142">
        <ele>1196</ele>
        <time>2021-06-01T11:36:27.316Z</time>
      </trkpt>
      <trkpt lat="44.13927" lon="5.86142">
        <ele>1196</ele>
        <time>2021-06-01T11:36:28.316Z</time>
      </trkpt>
      <trkpt lat="44.13927" lon="5.86142">
        <ele>1196</ele>
        <time>2021-06-01T11:36:29.316Z</time>
      </trkpt>
      <trkpt lat="44.13927" lon="5.86142">
        <ele>1196</ele>
        <time>2021-06-01T11:36:30.316Z</time>
      </trkpt>
      <trkpt lat="44.13926" lon="5.86142">
        <ele>1196</ele>
        <time>2021-06-01T11:36:31.316Z</time>
      </trkpt>
      <trkpt lat="44.13926" lon="5.86142">
        <ele>1196</ele>
        <time>2021-06-01T11:36:32.316Z</time>
      </trkpt>
      <trkpt lat="44.13926" lon="5.86142">
        <ele>1197</ele>
        <time>2021-06-01T11:36:33.316Z</time>
      </trkpt>
      <trkpt lat="44.13926" lon="5.86142">
        <ele>1197</ele>
        <time>2021-06-01T11:36:34.316Z</time>
      </trkpt>
      <trkpt lat="44.13925" lon="5.86142">
        <ele>1197</ele>
        <time>2021-06-01T11:36:35.316Z</time>
      </trkpt>
      <trkpt lat="44.13925" lon="5.86142">
        <ele>1197</ele>
        <time>2021-06-01T11:36:36.316Z</time>
      </trkpt>
      <trkpt lat="44.13924" lon="5.86141">
        <ele>1197</ele>
        <time>2021-06-01T11:36:37.316Z</time>
      </trkpt>
      <trkpt lat="44.13924" lon="5.86141">
        <ele>1197</ele>
        <time>2021-06-01T11:36:38.316Z</time>
      </trkpt>
      <trkpt lat="44.13923" lon="5.86141">
        <ele>1197</ele>
        <time>2021-06-01T11:36:39.316Z</time>
      </trkpt>
      <trkpt lat="44.13923" lon="5.86141">
        <ele>1197</ele>
        <time>2021-06-01T11:36:40.316Z</time>
      </trkpt>
      <trkpt lat="44.13923" lon="5.86141">
        <ele>1197</ele>
        <time>2021-06-01T11:36:41.316Z</time>
      </trkpt>
      <trkpt lat="44.13923" lon="5.86141">
        <ele>1197</ele>
        <time>2021-06-01T11:36:42.316Z</time>
      </trkpt>
      <trkpt lat="44.13923" lon="5.86141">
        <ele>1197</ele>
        <time>2021-06-01T11:36:43.316Z</time>
      </trkpt>
      <trkpt lat="44.13923" lon="5.86141">
        <ele>1197</ele>
        <time>2021-06-01T11:36:44.316Z</time>
      </trkpt>
      <trkpt lat="44.13923" lon="5.86142">
        <ele>1197</ele>
        <time>2021-06-01T11:36:45.316Z</time>
      </trkpt>
      <trkpt lat="44.13922" lon="5.86142">
        <ele>1197</ele>
        <time>2021-06-01T11:36:46.316Z</time>
      </trkpt>
      <trkpt lat="44.13922" lon="5.86142">
        <ele>1197</ele>
        <time>2021-06-01T11:36:47.316Z</time>
      </trkpt>
      <trkpt lat="44.13922" lon="5.86143">
        <ele>1197</ele>
        <time>2021-06-01T11:36:48.316Z</time>
      </trkpt>
      <trkpt lat="44.13921" lon="5.86143">
        <ele>1197</ele>
        <time>2021-06-01T11:36:49.316Z</time>
      </trkpt>
      <trkpt lat="44.13921" lon="5.86142">
        <ele>1197</ele>
        <time>2021-06-01T11:36:50.316Z</time>
      </trkpt>
      <trkpt lat="44.1392" lon="5.86142">
        <ele>1198</ele>
        <time>2021-06-01T11:36:51.316Z</time>
      </trkpt>
      <trkpt lat="44.1392" lon="5.86142">
        <ele>1198</ele>
        <time>2021-06-01T11:36:52.316Z</time>
      </trkpt>
      <trkpt lat="44.1392" lon="5.86142">
        <ele>1198</ele>
        <time>2021-06-01T11:36:53.316Z</time>
      </trkpt>
      <trkpt lat="44.13919" lon="5.86142">
        <ele>1198</ele>
        <time>2021-06-01T11:36:54.316Z</time>
      </trkpt>
      <trkpt lat="44.13919" lon="5.86142">
        <ele>1198</ele>
        <time>2021-06-01T11:36:55.316Z</time>
      </trkpt>
      <trkpt lat="44.13919" lon="5.86142">
        <ele>1198</ele>
        <time>2021-06-01T11:36:56.316Z</time>
      </trkpt>
      <trkpt lat="44.13918" lon="5.86142">
        <ele>1198</ele>
        <time>2021-06-01T11:36:57.316Z</time>
      </trkpt>
      <trkpt lat="44.13917" lon="5.86142">
        <ele>1198</ele>
        <time>2021-06-01T11:36:58.316Z</time>
      </trkpt>
      <trkpt lat="44.13917" lon="5.86142">
        <ele>1198</ele>
        <time>2021-06-01T11:36:59.316Z</time>
      </trkpt>
      <trkpt lat="44.13916" lon="5.86142">
        <ele>1198</ele>
        <time>2021-06-01T11:37:00.316Z</time>
      </trkpt>
      <trkpt lat="44.13916" lon="5.86142">
        <ele>1198</ele>
        <time>2021-06-01T11:37:01.316Z</time>
      </trkpt>
      <trkpt lat="44.13916" lon="5.86142">
        <ele>1198</ele>
        <time>2021-06-01T11:37:02.316Z</time>
      </trkpt>
      <trkpt lat="44.13916" lon="5.86143">
        <ele>1198</ele>
        <time>2021-06-01T11:37:03.316Z</time>
      </trkpt>
      <trkpt lat="44.13916" lon="5.86143">
        <ele>1198</ele>
        <time>2021-06-01T11:37:04.316Z</time>
      </trkpt>
      <trkpt lat="44.13916" lon="5.86143">
        <ele>1198</ele>
        <time>2021-06-01T11:37:05.316Z</time>
      </trkpt>
      <trkpt lat="44.13916" lon="5.86143">
        <ele>1198</ele>
        <time>2021-06-01T11:37:06.316Z</time>
      </trkpt>
      <trkpt lat="44.13917" lon="5.86144">
        <ele>1198</ele>
        <time>2021-06-01T11:37:07.316Z</time>
      </trkpt>
      <trkpt lat="44.13917" lon="5.86145">
        <ele>1198</ele>
        <time>2021-06-01T11:37:08.316Z</time>
      </trkpt>
      <trkpt lat="44.13917" lon="5.86145">
        <ele>1199</ele>
        <time>2021-06-01T11:37:09.316Z</time>
      </trkpt>
      <trkpt lat="44.13917" lon="5.86146">
        <ele>1199</ele>
        <time>2021-06-01T11:37:10.316Z</time>
      </trkpt>
      <trkpt lat="44.13917" lon="5.86146">
        <ele>1199</ele>
        <time>2021-06-01T11:37:11.316Z</time>
      </trkpt>
      <trkpt lat="44.13917" lon="5.86145">
        <ele>1199</ele>
        <time>2021-06-01T11:37:12.316Z</time>
      </trkpt>
      <trkpt lat="44.13917" lon="5.86145">
        <ele>1199</ele>
        <time>2021-06-01T11:37:13.316Z</time>
      </trkpt>
      <trkpt lat="44.13916" lon="5.86145">
        <ele>1199</ele>
        <time>2021-06-01T11:37:14.316Z</time>
      </trkpt>
      <trkpt lat="44.13916" lon="5.86145">
        <ele>1199</ele>
        <time>2021-06-01T11:37:15.316Z</time>
      </trkpt>
      <trkpt lat="44.13916" lon="5.86146">
        <ele>1199</ele>
        <time>2021-06-01T11:37:16.316Z</time>
      </trkpt>
      <trkpt lat="44.13916" lon="5.86145">
        <ele>1199</ele>
        <time>2021-06-01T11:37:17.316Z</time>
      </trkpt>
      <trkpt lat="44.13916" lon="5.86145">
        <ele>1199</ele>
        <time>2021-06-01T11:37:18.316Z</time>
      </trkpt>
      <trkpt lat="44.13916" lon="5.86145">
        <ele>1199</ele>
        <time>2021-06-01T11:37:19.316Z</time>
      </trkpt>
      <trkpt lat="44.13916" lon="5.86144">
        <ele>1199</ele>
        <time>2021-06-01T11:37:20.316Z</time>
      </trkpt>
      <trkpt lat="44.13916" lon="5.86144">
        <ele>1199</ele>
        <time>2021-06-01T11:37:21.316Z</time>
      </trkpt>
      <trkpt lat="44.13916" lon="5.86144">
        <ele>1199</ele>
        <time>2021-06-01T11:37:22.316Z</time>
      </trkpt>
      <trkpt lat="44.13916" lon="5.86145">
        <ele>1199</ele>
        <time>2021-06-01T11:37:23.316Z</time>
      </trkpt>
      <trkpt lat="44.13916" lon="5.86145">
        <ele>1199</ele>
        <time>2021-06-01T11:37:24.316Z</time>
      </trkpt>
      <trkpt lat="44.13916" lon="5.86145">
        <ele>1199</ele>
        <time>2021-06-01T11:37:25.316Z</time>
      </trkpt>
      <trkpt lat="44.13916" lon="5.86146">
        <ele>1199</ele>
        <time>2021-06-01T11:37:26.316Z</time>
      </trkpt>
      <trkpt lat="44.13915" lon="5.86146">
        <ele>1199</ele>
        <time>2021-06-01T11:37:27.316Z</time>
      </trkpt>
      <trkpt lat="44.13915" lon="5.86146">
        <ele>1200</ele>
        <time>2021-06-01T11:37:28.316Z</time>
      </trkpt>
      <trkpt lat="44.13915" lon="5.86147">
        <ele>1200</ele>
        <time>2021-06-01T11:37:29.316Z</time>
      </trkpt>
      <trkpt lat="44.13914" lon="5.86146">
        <ele>1200</ele>
        <time>2021-06-01T11:37:30.316Z</time>
      </trkpt>
      <trkpt lat="44.13914" lon="5.86146">
        <ele>1200</ele>
        <time>2021-06-01T11:37:31.316Z</time>
      </trkpt>
      <trkpt lat="44.13914" lon="5.86146">
        <ele>1200</ele>
        <time>2021-06-01T11:37:32.316Z</time>
      </trkpt>
      <trkpt lat="44.13914" lon="5.86146">
        <ele>1200</ele>
        <time>2021-06-01T11:37:33.316Z</time>
      </trkpt>
      <trkpt lat="44.13914" lon="5.86146">
        <ele>1200</ele>
        <time>2021-06-01T11:37:34.316Z</time>
      </trkpt>
      <trkpt lat="44.13914" lon="5.86146">
        <ele>1200</ele>
        <time>2021-06-01T11:37:35.316Z</time>
      </trkpt>
      <trkpt lat="44.13914" lon="5.86146">
        <ele>1200</ele>
        <time>2021-06-01T11:37:36.316Z</time>
      </trkpt>
      <trkpt lat="44.13914" lon="5.86146">
        <ele>1200</ele>
        <time>2021-06-01T11:37:37.316Z</time>
      </trkpt>
      <trkpt lat="44.13914" lon="5.86146">
        <ele>1200</ele>
        <time>2021-06-01T11:37:38.316Z</time>
      </trkpt>
      <trkpt lat="44.13914" lon="5.86146">
        <ele>1200</ele>
        <time>2021-06-01T11:37:39.316Z</time>
      </trkpt>
      <trkpt lat="44.13914" lon="5.86146">
        <ele>1200</ele>
        <time>2021-06-01T11:37:40.316Z</time>
      </trkpt>
      <trkpt lat="44.13914" lon="5.86146">
        <ele>1200</ele>
        <time>2021-06-01T11:37:41.316Z</time>
      </trkpt>
      <trkpt lat="44.13914" lon="5.86146">
        <ele>1200</ele>
        <time>2021-06-01T11:37:42.316Z</time>
      </trkpt>
      <trkpt lat="44.13914" lon="5.86146">
        <ele>1200</ele>
        <time>2021-06-01T11:37:43.316Z</time>
      </trkpt>
      <trkpt lat="44.13914" lon="5.86146">
        <ele>1200</ele>
        <time>2021-06-01T11:37:44.316Z</time>
      </trkpt>
      <trkpt lat="44.13913" lon="5.86146">
        <ele>1200</ele>
        <time>2021-06-01T11:37:45.316Z</time>
      </trkpt>
      <trkpt lat="44.13913" lon="5.86146">
        <ele>1200</ele>
        <time>2021-06-01T11:37:46.316Z</time>
      </trkpt>
      <trkpt lat="44.13913" lon="5.86146">
        <ele>1200</ele>
        <time>2021-06-01T11:37:47.316Z</time>
      </trkpt>
      <trkpt lat="44.13913" lon="5.86146">
        <ele>1200</ele>
        <time>2021-06-01T11:37:48.316Z</time>
      </trkpt>
      <trkpt lat="44.13913" lon="5.86146">
        <ele>1200</ele>
        <time>2021-06-01T11:37:49.316Z</time>
      </trkpt>
      <trkpt lat="44.13913" lon="5.86146">
        <ele>1201</ele>
        <time>2021-06-01T11:37:50.316Z</time>
      </trkpt>
      <trkpt lat="44.13913" lon="5.86146">
        <ele>1201</ele>
        <time>2021-06-01T11:37:51.316Z</time>
      </trkpt>
      <trkpt lat="44.13913" lon="5.86147">
        <ele>1201</ele>
        <time>2021-06-01T11:37:52.316Z</time>
      </trkpt>
      <trkpt lat="44.13913" lon="5.86147">
        <ele>1201</ele>
        <time>2021-06-01T11:37:53.316Z</time>
      </trkpt>
      <trkpt lat="44.13913" lon="5.86147">
        <ele>1201</ele>
        <time>2021-06-01T11:37:54.316Z</time>
      </trkpt>
      <trkpt lat="44.13913" lon="5.86147">
        <ele>1201</ele>
        <time>2021-06-01T11:37:55.316Z</time>
      </trkpt>
      <trkpt lat="44.13913" lon="5.86147">
        <ele>1201</ele>
        <time>2021-06-01T11:37:56.316Z</time>
      </trkpt>
      <trkpt lat="44.13913" lon="5.86147">
        <ele>1202</ele>
        <time>2021-06-01T11:37:57.316Z</time>
      </trkpt>
      <trkpt lat="44.13913" lon="5.86147">
        <ele>1202</ele>
        <time>2021-06-01T11:37:58.316Z</time>
      </trkpt>
      <trkpt lat="44.13913" lon="5.86147">
        <ele>1202</ele>
        <time>2021-06-01T11:37:59.316Z</time>
      </trkpt>
      <trkpt lat="44.13913" lon="5.86147">
        <ele>1202</ele>
        <time>2021-06-01T11:38:00.316Z</time>
      </trkpt>
      <trkpt lat="44.13913" lon="5.86147">
        <ele>1202</ele>
        <time>2021-06-01T11:38:01.316Z</time>
      </trkpt>
      <trkpt lat="44.13913" lon="5.86147">
        <ele>1202</ele>
        <time>2021-06-01T11:38:02.316Z</time>
      </trkpt>
      <trkpt lat="44.13913" lon="5.86147">
        <ele>1202</ele>
        <time>2021-06-01T11:38:03.316Z</time>
      </trkpt>
      <trkpt lat="44.13913" lon="5.86147">
        <ele>1202</ele>
        <time>2021-06-01T11:38:04.316Z</time>
      </trkpt>
      <trkpt lat="44.13913" lon="5.86147">
        <ele>1202</ele>
        <time>2021-06-01T11:38:05.316Z</time>
      </trkpt>
      <trkpt lat="44.13913" lon="5.86147">
        <ele>1202</ele>
        <time>2021-06-01T11:38:06.316Z</time>
      </trkpt>
      <trkpt lat="44.13912" lon="5.86146">
        <ele>1202</ele>
        <time>2021-06-01T11:38:07.316Z</time>
      </trkpt>
      <trkpt lat="44.13912" lon="5.86146">
        <ele>1202</ele>
        <time>2021-06-01T11:38:08.316Z</time>
      </trkpt>
      <trkpt lat="44.13912" lon="5.86146">
        <ele>1202</ele>
        <time>2021-06-01T11:38:09.316Z</time>
      </trkpt>
      <trkpt lat="44.13912" lon="5.86146">
        <ele>1203</ele>
        <time>2021-06-01T11:38:10.316Z</time>
      </trkpt>
      <trkpt lat="44.13912" lon="5.86146">
        <ele>1203</ele>
        <time>2021-06-01T11:38:11.316Z</time>
      </trkpt>
      <trkpt lat="44.13912" lon="5.86146">
        <ele>1203</ele>
        <time>2021-06-01T11:38:12.316Z</time>
      </trkpt>
      <trkpt lat="44.13912" lon="5.86146">
        <ele>1203</ele>
        <time>2021-06-01T11:38:13.316Z</time>
      </trkpt>
      <trkpt lat="44.13912" lon="5.86146">
        <ele>1203</ele>
        <time>2021-06-01T11:38:14.316Z</time>
      </trkpt>
      <trkpt lat="44.13912" lon="5.86146">
        <ele>1203</ele>
        <time>2021-06-01T11:38:15.316Z</time>
      </trkpt>
      <trkpt lat="44.13912" lon="5.86146">
        <ele>1203</ele>
        <time>2021-06-01T11:38:16.316Z</time>
      </trkpt>
      <trkpt lat="44.13912" lon="5.86145">
        <ele>1203</ele>
        <time>2021-06-01T11:38:17.316Z</time>
      </trkpt>
      <trkpt lat="44.13912" lon="5.86145">
        <ele>1203</ele>
        <time>2021-06-01T11:38:18.316Z</time>
      </trkpt>
      <trkpt lat="44.13912" lon="5.86145">
        <ele>1203</ele>
        <time>2021-06-01T11:38:19.316Z</time>
      </trkpt>
      <trkpt lat="44.13912" lon="5.86145">
        <ele>1203</ele>
        <time>2021-06-01T11:38:20.316Z</time>
      </trkpt>
      <trkpt lat="44.13912" lon="5.86145">
        <ele>1203</ele>
        <time>2021-06-01T11:38:21.316Z</time>
      </trkpt>
      <trkpt lat="44.13912" lon="5.86145">
        <ele>1203</ele>
        <time>2021-06-01T11:38:22.316Z</time>
      </trkpt>
      <trkpt lat="44.13912" lon="5.86145">
        <ele>1203</ele>
        <time>2021-06-01T11:38:23.316Z</time>
      </trkpt>
      <trkpt lat="44.13912" lon="5.86145">
        <ele>1203</ele>
        <time>2021-06-01T11:38:24.316Z</time>
      </trkpt>
      <trkpt lat="44.13912" lon="5.86145">
        <ele>1203</ele>
        <time>2021-06-01T11:38:25.316Z</time>
      </trkpt>
      <trkpt lat="44.13912" lon="5.86145">
        <ele>1203</ele>
        <time>2021-06-01T11:38:26.316Z</time>
      </trkpt>
      <trkpt lat="44.13912" lon="5.86145">
        <ele>1203</ele>
        <time>2021-06-01T11:38:27.316Z</time>
      </trkpt>
      <trkpt lat="44.13912" lon="5.86145">
        <ele>1203</ele>
        <time>2021-06-01T11:38:28.316Z</time>
      </trkpt>
      <trkpt lat="44.13912" lon="5.86145">
        <ele>1203</ele>
        <time>2021-06-01T11:38:29.316Z</time>
      </trkpt>
      <trkpt lat="44.13912" lon="5.86145">
        <ele>1203</ele>
        <time>2021-06-01T11:38:30.316Z</time>
      </trkpt>
      <trkpt lat="44.13912" lon="5.86145">
        <ele>1203</ele>
        <time>2021-06-01T11:38:31.316Z</time>
      </trkpt>
      <trkpt lat="44.13912" lon="5.86145">
        <ele>1203</ele>
        <time>2021-06-01T11:38:32.316Z</time>
      </trkpt>
      <trkpt lat="44.13912" lon="5.86145">
        <ele>1203</ele>
        <time>2021-06-01T11:38:33.316Z</time>
      </trkpt>
      <trkpt lat="44.13912" lon="5.86145">
        <ele>1203</ele>
        <time>2021-06-01T11:38:34.316Z</time>
      </trkpt>
      <trkpt lat="44.13912" lon="5.86144">
        <ele>1203</ele>
        <time>2021-06-01T11:38:35.316Z</time>
      </trkpt>
      <trkpt lat="44.13912" lon="5.86144">
        <ele>1203</ele>
        <time>2021-06-01T11:38:36.316Z</time>
      </trkpt>
      <trkpt lat="44.13912" lon="5.86144">
        <ele>1203</ele>
        <time>2021-06-01T11:38:37.316Z</time>
      </trkpt>
      <trkpt lat="44.13912" lon="5.86144">
        <ele>1203</ele>
        <time>2021-06-01T11:38:38.316Z</time>
      </trkpt>
      <trkpt lat="44.13912" lon="5.86144">
        <ele>1203</ele>
        <time>2021-06-01T11:38:39.316Z</time>
      </trkpt>
      <trkpt lat="44.13912" lon="5.86144">
        <ele>1203</ele>
        <time>2021-06-01T11:38:40.316Z</time>
      </trkpt>
      <trkpt lat="44.13912" lon="5.86144">
        <ele>1203</ele>
        <time>2021-06-01T11:38:41.316Z</time>
      </trkpt>
      <trkpt lat="44.13912" lon="5.86144">
        <ele>1203</ele>
        <time>2021-06-01T11:38:42.316Z</time>
      </trkpt>
      <trkpt lat="44.13912" lon="5.86144">
        <ele>1203</ele>
        <time>2021-06-01T11:38:43.316Z</time>
      </trkpt>
      <trkpt lat="44.13912" lon="5.86144">
        <ele>1203</ele>
        <time>2021-06-01T11:38:44.316Z</time>
      </trkpt>
      <trkpt lat="44.13912" lon="5.86144">
        <ele>1203</ele>
        <time>2021-06-01T11:38:45.316Z</time>
      </trkpt>
      <trkpt lat="44.13912" lon="5.86144">
        <ele>1203</ele>
        <time>2021-06-01T11:38:46.316Z</time>
      </trkpt>
      <trkpt lat="44.13912" lon="5.86144">
        <ele>1203</ele>
        <time>2021-06-01T11:38:47.316Z</time>
      </trkpt>
      <trkpt lat="44.13912" lon="5.86144">
        <ele>1203</ele>
        <time>2021-06-01T11:38:48.316Z</time>
      </trkpt>
      <trkpt lat="44.13912" lon="5.86144">
        <ele>1203</ele>
        <time>2021-06-01T11:38:49.316Z</time>
      </trkpt>
      <trkpt lat="44.13912" lon="5.86144">
        <ele>1203</ele>
        <time>2021-06-01T11:38:50.316Z</time>
      </trkpt>
      <trkpt lat="44.13912" lon="5.86144">
        <ele>1203</ele>
        <time>2021-06-01T11:38:51.316Z</time>
      </trkpt>
      <trkpt lat="44.13912" lon="5.86143">
        <ele>1203</ele>
        <time>2021-06-01T11:38:52.316Z</time>
      </trkpt>
      <trkpt lat="44.13912" lon="5.86143">
        <ele>1203</ele>
        <time>2021-06-01T11:38:53.316Z</time>
      </trkpt>
      <trkpt lat="44.13912" lon="5.86143">
        <ele>1203</ele>
        <time>2021-06-01T11:38:54.316Z</time>
      </trkpt>
      <trkpt lat="44.13912" lon="5.86143">
        <ele>1203</ele>
        <time>2021-06-01T11:38:55.316Z</time>
      </trkpt>
      <trkpt lat="44.13912" lon="5.86143">
        <ele>1203</ele>
        <time>2021-06-01T11:38:56.316Z</time>
      </trkpt>
      <trkpt lat="44.13912" lon="5.86143">
        <ele>1203</ele>
        <time>2021-06-01T11:38:57.316Z</time>
      </trkpt>
      <trkpt lat="44.13912" lon="5.86143">
        <ele>1203</ele>
        <time>2021-06-01T11:38:58.316Z</time>
      </trkpt>
      <trkpt lat="44.13912" lon="5.86143">
        <ele>1203</ele>
        <time>2021-06-01T11:38:59.316Z</time>
      </trkpt>
      <trkpt lat="44.13912" lon="5.86143">
        <ele>1203</ele>
        <time>2021-06-01T11:39:00.316Z</time>
      </trkpt>
      <trkpt lat="44.13912" lon="5.86143">
        <ele>1203</ele>
        <time>2021-06-01T11:39:01.316Z</time>
      </trkpt>
      <trkpt lat="44.13912" lon="5.86143">
        <ele>1203</ele>
        <time>2021-06-01T11:39:02.316Z</time>
      </trkpt>
      <trkpt lat="44.13912" lon="5.86143">
        <ele>1203</ele>
        <time>2021-06-01T11:39:03.316Z</time>
      </trkpt>
      <trkpt lat="44.13912" lon="5.86143">
        <ele>1203</ele>
        <time>2021-06-01T11:39:04.316Z</time>
      </trkpt>
      <trkpt lat="44.13912" lon="5.86143">
        <ele>1203</ele>
        <time>2021-06-01T11:39:05.316Z</time>
      </trkpt>
      <trkpt lat="44.13912" lon="5.86143">
        <ele>1203</ele>
        <time>2021-06-01T11:39:06.316Z</time>
      </trkpt>
      <trkpt lat="44.13912" lon="5.86143">
        <ele>1203</ele>
        <time>2021-06-01T11:39:07.316Z</time>
      </trkpt>
      <trkpt lat="44.13911" lon="5.86143">
        <ele>1203</ele>
        <time>2021-06-01T11:39:08.316Z</time>
      </trkpt>
      <trkpt lat="44.13911" lon="5.86143">
        <ele>1203</ele>
        <time>2021-06-01T11:39:09.316Z</time>
      </trkpt>
      <trkpt lat="44.13911" lon="5.86143">
        <ele>1203</ele>
        <time>2021-06-01T11:39:10.316Z</time>
      </trkpt>
      <trkpt lat="44.13911" lon="5.86143">
        <ele>1203</ele>
        <time>2021-06-01T11:39:11.316Z</time>
      </trkpt>
      <trkpt lat="44.13911" lon="5.86144">
        <ele>1203</ele>
        <time>2021-06-01T11:39:12.316Z</time>
      </trkpt>
      <trkpt lat="44.13911" lon="5.86144">
        <ele>1203</ele>
        <time>2021-06-01T11:39:13.316Z</time>
      </trkpt>
      <trkpt lat="44.1391" lon="5.86144">
        <ele>1204</ele>
        <time>2021-06-01T11:39:14.316Z</time>
      </trkpt>
      <trkpt lat="44.1391" lon="5.86144">
        <ele>1204</ele>
        <time>2021-06-01T11:39:15.316Z</time>
      </trkpt>
      <trkpt lat="44.1391" lon="5.86144">
        <ele>1204</ele>
        <time>2021-06-01T11:39:16.316Z</time>
      </trkpt>
      <trkpt lat="44.1391" lon="5.86144">
        <ele>1204</ele>
        <time>2021-06-01T11:39:17.316Z</time>
      </trkpt>
      <trkpt lat="44.1391" lon="5.86144">
        <ele>1204</ele>
        <time>2021-06-01T11:39:18.316Z</time>
      </trkpt>
      <trkpt lat="44.13909" lon="5.86144">
        <ele>1204</ele>
        <time>2021-06-01T11:39:19.316Z</time>
      </trkpt>
      <trkpt lat="44.13909" lon="5.86144">
        <ele>1204</ele>
        <time>2021-06-01T11:39:20.316Z</time>
      </trkpt>
      <trkpt lat="44.13909" lon="5.86144">
        <ele>1204</ele>
        <time>2021-06-01T11:39:21.316Z</time>
      </trkpt>
      <trkpt lat="44.13909" lon="5.86144">
        <ele>1204</ele>
        <time>2021-06-01T11:39:22.316Z</time>
      </trkpt>
      <trkpt lat="44.13909" lon="5.86144">
        <ele>1204</ele>
        <time>2021-06-01T11:39:23.316Z</time>
      </trkpt>
      <trkpt lat="44.13909" lon="5.86144">
        <ele>1204</ele>
        <time>2021-06-01T11:39:24.316Z</time>
      </trkpt>
      <trkpt lat="44.13909" lon="5.86144">
        <ele>1204</ele>
        <time>2021-06-01T11:39:25.316Z</time>
      </trkpt>
      <trkpt lat="44.13909" lon="5.86144">
        <ele>1204</ele>
        <time>2021-06-01T11:39:26.316Z</time>
      </trkpt>
      <trkpt lat="44.13909" lon="5.86144">
        <ele>1204</ele>
        <time>2021-06-01T11:39:27.316Z</time>
      </trkpt>
      <trkpt lat="44.13909" lon="5.86144">
        <ele>1204</ele>
        <time>2021-06-01T11:39:28.316Z</time>
      </trkpt>
      <trkpt lat="44.13909" lon="5.86145">
        <ele>1204</ele>
        <time>2021-06-01T11:39:29.316Z</time>
      </trkpt>
      <trkpt lat="44.13908" lon="5.86145">
        <ele>1205</ele>
        <time>2021-06-01T11:39:30.316Z</time>
      </trkpt>
      <trkpt lat="44.13908" lon="5.86145">
        <ele>1205</ele>
        <time>2021-06-01T11:39:31.316Z</time>
      </trkpt>
      <trkpt lat="44.13908" lon="5.86145">
        <ele>1205</ele>
        <time>2021-06-01T11:39:32.316Z</time>
      </trkpt>
      <trkpt lat="44.13908" lon="5.86145">
        <ele>1205</ele>
        <time>2021-06-01T11:39:33.316Z</time>
      </trkpt>
      <trkpt lat="44.13908" lon="5.86145">
        <ele>1205</ele>
        <time>2021-06-01T11:39:34.316Z</time>
      </trkpt>
      <trkpt lat="44.13907" lon="5.86146">
        <ele>1205</ele>
        <time>2021-06-01T11:39:35.316Z</time>
      </trkpt>
      <trkpt lat="44.13907" lon="5.86146">
        <ele>1205</ele>
        <time>2021-06-01T11:39:36.316Z</time>
      </trkpt>
      <trkpt lat="44.13907" lon="5.86147">
        <ele>1205</ele>
        <time>2021-06-01T11:39:37.316Z</time>
      </trkpt>
      <trkpt lat="44.13907" lon="5.86147">
        <ele>1205</ele>
        <time>2021-06-01T11:39:38.316Z</time>
      </trkpt>
      <trkpt lat="44.13907" lon="5.86147">
        <ele>1206</ele>
        <time>2021-06-01T11:39:39.316Z</time>
      </trkpt>
      <trkpt lat="44.13906" lon="5.86147">
        <ele>1206</ele>
        <time>2021-06-01T11:39:40.316Z</time>
      </trkpt>
      <trkpt lat="44.13906" lon="5.86147">
        <ele>1206</ele>
        <time>2021-06-01T11:39:41.316Z</time>
      </trkpt>
      <trkpt lat="44.13906" lon="5.86147">
        <ele>1206</ele>
        <time>2021-06-01T11:39:42.316Z</time>
      </trkpt>
      <trkpt lat="44.13906" lon="5.86147">
        <ele>1206</ele>
        <time>2021-06-01T11:39:43.316Z</time>
      </trkpt>
      <trkpt lat="44.13906" lon="5.86147">
        <ele>1206</ele>
        <time>2021-06-01T11:39:44.316Z</time>
      </trkpt>
      <trkpt lat="44.13906" lon="5.86147">
        <ele>1206</ele>
        <time>2021-06-01T11:39:45.316Z</time>
      </trkpt>
      <trkpt lat="44.13906" lon="5.86147">
        <ele>1206</ele>
        <time>2021-06-01T11:39:46.316Z</time>
      </trkpt>
      <trkpt lat="44.13906" lon="5.86148">
        <ele>1206</ele>
        <time>2021-06-01T11:39:47.316Z</time>
      </trkpt>
      <trkpt lat="44.13906" lon="5.86148">
        <ele>1206</ele>
        <time>2021-06-01T11:39:48.316Z</time>
      </trkpt>
      <trkpt lat="44.13905" lon="5.86148">
        <ele>1206</ele>
        <time>2021-06-01T11:39:49.316Z</time>
      </trkpt>
      <trkpt lat="44.13905" lon="5.86148">
        <ele>1207</ele>
        <time>2021-06-01T11:39:50.316Z</time>
      </trkpt>
      <trkpt lat="44.13905" lon="5.86148">
        <ele>1207</ele>
        <time>2021-06-01T11:39:51.316Z</time>
      </trkpt>
      <trkpt lat="44.13905" lon="5.86149">
        <ele>1207</ele>
        <time>2021-06-01T11:39:52.316Z</time>
      </trkpt>
      <trkpt lat="44.13905" lon="5.86149">
        <ele>1207</ele>
        <time>2021-06-01T11:39:53.316Z</time>
      </trkpt>
      <trkpt lat="44.13905" lon="5.86149">
        <ele>1207</ele>
        <time>2021-06-01T11:39:54.316Z</time>
      </trkpt>
      <trkpt lat="44.13906" lon="5.86149">
        <ele>1207</ele>
        <time>2021-06-01T11:39:55.316Z</time>
      </trkpt>
      <trkpt lat="44.13906" lon="5.86149">
        <ele>1207</ele>
        <time>2021-06-01T11:39:56.316Z</time>
      </trkpt>
      <trkpt lat="44.13906" lon="5.86149">
        <ele>1207</ele>
        <time>2021-06-01T11:39:57.316Z</time>
      </trkpt>
      <trkpt lat="44.13906" lon="5.86149">
        <ele>1208</ele>
        <time>2021-06-01T11:39:58.316Z</time>
      </trkpt>
      <trkpt lat="44.13906" lon="5.86149">
        <ele>1208</ele>
        <time>2021-06-01T11:39:59.316Z</time>
      </trkpt>
      <trkpt lat="44.13906" lon="5.86149">
        <ele>1208</ele>
        <time>2021-06-01T11:40:00.316Z</time>
      </trkpt>
      <trkpt lat="44.13905" lon="5.86149">
        <ele>1208</ele>
        <time>2021-06-01T11:40:01.316Z</time>
      </trkpt>
      <trkpt lat="44.13905" lon="5.86149">
        <ele>1208</ele>
        <time>2021-06-01T11:40:02.316Z</time>
      </trkpt>
      <trkpt lat="44.13905" lon="5.86148">
        <ele>1208</ele>
        <time>2021-06-01T11:40:03.316Z</time>
      </trkpt>
      <trkpt lat="44.13905" lon="5.86148">
        <ele>1208</ele>
        <time>2021-06-01T11:40:04.316Z</time>
      </trkpt>
      <trkpt lat="44.13904" lon="5.86148">
        <ele>1208</ele>
        <time>2021-06-01T11:40:05.316Z</time>
      </trkpt>
      <trkpt lat="44.13904" lon="5.86148">
        <ele>1208</ele>
        <time>2021-06-01T11:40:06.316Z</time>
      </trkpt>
      <trkpt lat="44.13904" lon="5.86148">
        <ele>1208</ele>
        <time>2021-06-01T11:40:07.316Z</time>
      </trkpt>
      <trkpt lat="44.13904" lon="5.86148">
        <ele>1208</ele>
        <time>2021-06-01T11:40:08.316Z</time>
      </trkpt>
      <trkpt lat="44.13904" lon="5.86148">
        <ele>1209</ele>
        <time>2021-06-01T11:40:09.316Z</time>
      </trkpt>
      <trkpt lat="44.13904" lon="5.86148">
        <ele>1209</ele>
        <time>2021-06-01T11:40:10.316Z</time>
      </trkpt>
      <trkpt lat="44.13904" lon="5.86148">
        <ele>1209</ele>
        <time>2021-06-01T11:40:11.316Z</time>
      </trkpt>
      <trkpt lat="44.13904" lon="5.86148">
        <ele>1209</ele>
        <time>2021-06-01T11:40:12.316Z</time>
      </trkpt>
      <trkpt lat="44.13904" lon="5.86148">
        <ele>1209</ele>
        <time>2021-06-01T11:40:13.316Z</time>
      </trkpt>
      <trkpt lat="44.13904" lon="5.86147">
        <ele>1209</ele>
        <time>2021-06-01T11:40:14.316Z</time>
      </trkpt>
      <trkpt lat="44.13904" lon="5.86147">
        <ele>1209</ele>
        <time>2021-06-01T11:40:15.316Z</time>
      </trkpt>
      <trkpt lat="44.13904" lon="5.86147">
        <ele>1209</ele>
        <time>2021-06-01T11:40:16.316Z</time>
      </trkpt>
      <trkpt lat="44.13904" lon="5.86147">
        <ele>1209</ele>
        <time>2021-06-01T11:40:17.316Z</time>
      </trkpt>
      <trkpt lat="44.13904" lon="5.86147">
        <ele>1209</ele>
        <time>2021-06-01T11:40:18.316Z</time>
      </trkpt>
      <trkpt lat="44.13903" lon="5.86147">
        <ele>1209</ele>
        <time>2021-06-01T11:40:19.316Z</time>
      </trkpt>
      <trkpt lat="44.13903" lon="5.86147">
        <ele>1210</ele>
        <time>2021-06-01T11:40:20.316Z</time>
      </trkpt>
      <trkpt lat="44.13903" lon="5.86147">
        <ele>1210</ele>
        <time>2021-06-01T11:40:21.316Z</time>
      </trkpt>
      <trkpt lat="44.13903" lon="5.86147">
        <ele>1210</ele>
        <time>2021-06-01T11:40:22.316Z</time>
      </trkpt>
      <trkpt lat="44.13903" lon="5.86146">
        <ele>1210</ele>
        <time>2021-06-01T11:40:23.316Z</time>
      </trkpt>
      <trkpt lat="44.13903" lon="5.86146">
        <ele>1210</ele>
        <time>2021-06-01T11:40:24.316Z</time>
      </trkpt>
      <trkpt lat="44.13902" lon="5.86146">
        <ele>1210</ele>
        <time>2021-06-01T11:40:25.316Z</time>
      </trkpt>
      <trkpt lat="44.13902" lon="5.86146">
        <ele>1210</ele>
        <time>2021-06-01T11:40:26.316Z</time>
      </trkpt>
      <trkpt lat="44.13902" lon="5.86147">
        <ele>1210</ele>
        <time>2021-06-01T11:40:27.316Z</time>
      </trkpt>
      <trkpt lat="44.13902" lon="5.86147">
        <ele>1210</ele>
        <time>2021-06-01T11:40:28.316Z</time>
      </trkpt>
      <trkpt lat="44.13903" lon="5.86147">
        <ele>1210</ele>
        <time>2021-06-01T11:40:29.316Z</time>
      </trkpt>
      <trkpt lat="44.13903" lon="5.86147">
        <ele>1210</ele>
        <time>2021-06-01T11:40:30.316Z</time>
      </trkpt>
      <trkpt lat="44.13903" lon="5.86147">
        <ele>1210</ele>
        <time>2021-06-01T11:40:31.316Z</time>
      </trkpt>
      <trkpt lat="44.13903" lon="5.86146">
        <ele>1210</ele>
        <time>2021-06-01T11:40:32.316Z</time>
      </trkpt>
      <trkpt lat="44.13903" lon="5.86146">
        <ele>1211</ele>
        <time>2021-06-01T11:40:33.316Z</time>
      </trkpt>
      <trkpt lat="44.13903" lon="5.86146">
        <ele>1211</ele>
        <time>2021-06-01T11:40:34.316Z</time>
      </trkpt>
      <trkpt lat="44.13902" lon="5.86146">
        <ele>1211</ele>
        <time>2021-06-01T11:40:35.316Z</time>
      </trkpt>
      <trkpt lat="44.13902" lon="5.86145">
        <ele>1211</ele>
        <time>2021-06-01T11:40:36.316Z</time>
      </trkpt>
      <trkpt lat="44.13902" lon="5.86145">
        <ele>1211</ele>
        <time>2021-06-01T11:40:37.316Z</time>
      </trkpt>
      <trkpt lat="44.13902" lon="5.86145">
        <ele>1211</ele>
        <time>2021-06-01T11:40:38.316Z</time>
      </trkpt>
      <trkpt lat="44.13902" lon="5.86145">
        <ele>1211</ele>
        <time>2021-06-01T11:40:39.316Z</time>
      </trkpt>
      <trkpt lat="44.13902" lon="5.86144">
        <ele>1211</ele>
        <time>2021-06-01T11:40:40.316Z</time>
      </trkpt>
      <trkpt lat="44.13901" lon="5.86144">
        <ele>1211</ele>
        <time>2021-06-01T11:40:41.316Z</time>
      </trkpt>
      <trkpt lat="44.13901" lon="5.86144">
        <ele>1212</ele>
        <time>2021-06-01T11:40:42.316Z</time>
      </trkpt>
      <trkpt lat="44.13901" lon="5.86144">
        <ele>1212</ele>
        <time>2021-06-01T11:40:43.316Z</time>
      </trkpt>
      <trkpt lat="44.13901" lon="5.86143">
        <ele>1212</ele>
        <time>2021-06-01T11:40:44.316Z</time>
      </trkpt>
      <trkpt lat="44.13901" lon="5.86143">
        <ele>1212</ele>
        <time>2021-06-01T11:40:45.316Z</time>
      </trkpt>
      <trkpt lat="44.13901" lon="5.86143">
        <ele>1212</ele>
        <time>2021-06-01T11:40:46.316Z</time>
      </trkpt>
      <trkpt lat="44.13901" lon="5.86143">
        <ele>1212</ele>
        <time>2021-06-01T11:40:47.316Z</time>
      </trkpt>
      <trkpt lat="44.13901" lon="5.86143">
        <ele>1212</ele>
        <time>2021-06-01T11:40:48.316Z</time>
      </trkpt>
      <trkpt lat="44.13901" lon="5.86142">
        <ele>1212</ele>
        <time>2021-06-01T11:40:49.316Z</time>
      </trkpt>
      <trkpt lat="44.139" lon="5.86142">
        <ele>1212</ele>
        <time>2021-06-01T11:40:50.316Z</time>
      </trkpt>
      <trkpt lat="44.139" lon="5.86142">
        <ele>1212</ele>
        <time>2021-06-01T11:40:51.316Z</time>
      </trkpt>
      <trkpt lat="44.139" lon="5.86142">
        <ele>1212</ele>
        <time>2021-06-01T11:40:52.316Z</time>
      </trkpt>
      <trkpt lat="44.139" lon="5.86142">
        <ele>1212</ele>
        <time>2021-06-01T11:40:53.316Z</time>
      </trkpt>
      <trkpt lat="44.139" lon="5.86142">
        <ele>1212</ele>
        <time>2021-06-01T11:40:54.316Z</time>
      </trkpt>
      <trkpt lat="44.13899" lon="5.86142">
        <ele>1213</ele>
        <time>2021-06-01T11:40:55.316Z</time>
      </trkpt>
      <trkpt lat="44.13899" lon="5.86142">
        <ele>1213</ele>
        <time>2021-06-01T11:40:56.316Z</time>
      </trkpt>
      <trkpt lat="44.13899" lon="5.86143">
        <ele>1213</ele>
        <time>2021-06-01T11:40:57.316Z</time>
      </trkpt>
      <trkpt lat="44.13899" lon="5.86143">
        <ele>1213</ele>
        <time>2021-06-01T11:40:58.316Z</time>
      </trkpt>
      <trkpt lat="44.13899" lon="5.86143">
        <ele>1213</ele>
        <time>2021-06-01T11:40:59.316Z</time>
      </trkpt>
      <trkpt lat="44.139" lon="5.86144">
        <ele>1213</ele>
        <time>2021-06-01T11:41:00.316Z</time>
      </trkpt>
      <trkpt lat="44.139" lon="5.86144">
        <ele>1213</ele>
        <time>2021-06-01T11:41:01.316Z</time>
      </trkpt>
      <trkpt lat="44.139" lon="5.86144">
        <ele>1214</ele>
        <time>2021-06-01T11:41:02.316Z</time>
      </trkpt>
      <trkpt lat="44.139" lon="5.86145">
        <ele>1214</ele>
        <time>2021-06-01T11:41:03.316Z</time>
      </trkpt>
      <trkpt lat="44.139" lon="5.86145">
        <ele>1214</ele>
        <time>2021-06-01T11:41:04.316Z</time>
      </trkpt>
      <trkpt lat="44.139" lon="5.86145">
        <ele>1214</ele>
        <time>2021-06-01T11:41:05.316Z</time>
      </trkpt>
      <trkpt lat="44.139" lon="5.86145">
        <ele>1214</ele>
        <time>2021-06-01T11:41:06.316Z</time>
      </trkpt>
      <trkpt lat="44.139" lon="5.86145">
        <ele>1214</ele>
        <time>2021-06-01T11:41:07.316Z</time>
      </trkpt>
      <trkpt lat="44.139" lon="5.86145">
        <ele>1214</ele>
        <time>2021-06-01T11:41:08.316Z</time>
      </trkpt>
      <trkpt lat="44.139" lon="5.86145">
        <ele>1215</ele>
        <time>2021-06-01T11:41:09.316Z</time>
      </trkpt>
      <trkpt lat="44.139" lon="5.86145">
        <ele>1215</ele>
        <time>2021-06-01T11:41:10.316Z</time>
      </trkpt>
      <trkpt lat="44.139" lon="5.86144">
        <ele>1215</ele>
        <time>2021-06-01T11:41:11.316Z</time>
      </trkpt>
      <trkpt lat="44.139" lon="5.86145">
        <ele>1215</ele>
        <time>2021-06-01T11:41:12.316Z</time>
      </trkpt>
      <trkpt lat="44.139" lon="5.86145">
        <ele>1215</ele>
        <time>2021-06-01T11:41:13.316Z</time>
      </trkpt>
      <trkpt lat="44.139" lon="5.86144">
        <ele>1215</ele>
        <time>2021-06-01T11:41:14.316Z</time>
      </trkpt>
      <trkpt lat="44.139" lon="5.86144">
        <ele>1215</ele>
        <time>2021-06-01T11:41:15.316Z</time>
      </trkpt>
      <trkpt lat="44.139" lon="5.86144">
        <ele>1215</ele>
        <time>2021-06-01T11:41:16.316Z</time>
      </trkpt>
      <trkpt lat="44.139" lon="5.86144">
        <ele>1215</ele>
        <time>2021-06-01T11:41:17.316Z</time>
      </trkpt>
      <trkpt lat="44.139" lon="5.86144">
        <ele>1216</ele>
        <time>2021-06-01T11:41:18.316Z</time>
      </trkpt>
      <trkpt lat="44.139" lon="5.86144">
        <ele>1216</ele>
        <time>2021-06-01T11:41:19.316Z</time>
      </trkpt>
      <trkpt lat="44.139" lon="5.86144">
        <ele>1216</ele>
        <time>2021-06-01T11:41:20.316Z</time>
      </trkpt>
      <trkpt lat="44.139" lon="5.86144">
        <ele>1216</ele>
        <time>2021-06-01T11:41:21.316Z</time>
      </trkpt>
      <trkpt lat="44.139" lon="5.86144">
        <ele>1216</ele>
        <time>2021-06-01T11:41:22.316Z</time>
      </trkpt>
      <trkpt lat="44.139" lon="5.86144">
        <ele>1216</ele>
        <time>2021-06-01T11:41:23.316Z</time>
      </trkpt>
      <trkpt lat="44.139" lon="5.86144">
        <ele>1216</ele>
        <time>2021-06-01T11:41:24.316Z</time>
      </trkpt>
      <trkpt lat="44.139" lon="5.86144">
        <ele>1216</ele>
        <time>2021-06-01T11:41:25.316Z</time>
      </trkpt>
      <trkpt lat="44.13901" lon="5.86144">
        <ele>1216</ele>
        <time>2021-06-01T11:41:26.316Z</time>
      </trkpt>
      <trkpt lat="44.13901" lon="5.86145">
        <ele>1217</ele>
        <time>2021-06-01T11:41:27.316Z</time>
      </trkpt>
      <trkpt lat="44.13901" lon="5.86145">
        <ele>1217</ele>
        <time>2021-06-01T11:41:28.316Z</time>
      </trkpt>
      <trkpt lat="44.13901" lon="5.86146">
        <ele>1217</ele>
        <time>2021-06-01T11:41:29.316Z</time>
      </trkpt>
      <trkpt lat="44.13901" lon="5.86146">
        <ele>1217</ele>
        <time>2021-06-01T11:41:30.316Z</time>
      </trkpt>
      <trkpt lat="44.13901" lon="5.86146">
        <ele>1217</ele>
        <time>2021-06-01T11:41:31.316Z</time>
      </trkpt>
      <trkpt lat="44.13901" lon="5.86146">
        <ele>1217</ele>
        <time>2021-06-01T11:41:32.316Z</time>
      </trkpt>
      <trkpt lat="44.13901" lon="5.86146">
        <ele>1217</ele>
        <time>2021-06-01T11:41:33.316Z</time>
      </trkpt>
      <trkpt lat="44.13901" lon="5.86147">
        <ele>1217</ele>
        <time>2021-06-01T11:41:34.316Z</time>
      </trkpt>
      <trkpt lat="44.13902" lon="5.86147">
        <ele>1217</ele>
        <time>2021-06-01T11:41:35.316Z</time>
      </trkpt>
      <trkpt lat="44.13902" lon="5.86147">
        <ele>1218</ele>
        <time>2021-06-01T11:41:36.316Z</time>
      </trkpt>
      <trkpt lat="44.13902" lon="5.86148">
        <ele>1218</ele>
        <time>2021-06-01T11:41:37.316Z</time>
      </trkpt>
      <trkpt lat="44.13902" lon="5.86148">
        <ele>1218</ele>
        <time>2021-06-01T11:41:38.316Z</time>
      </trkpt>
      <trkpt lat="44.13903" lon="5.86149">
        <ele>1218</ele>
        <time>2021-06-01T11:41:39.316Z</time>
      </trkpt>
      <trkpt lat="44.13903" lon="5.8615">
        <ele>1218</ele>
        <time>2021-06-01T11:41:40.316Z</time>
      </trkpt>
      <trkpt lat="44.13903" lon="5.8615">
        <ele>1218</ele>
        <time>2021-06-01T11:41:41.316Z</time>
      </trkpt>
      <trkpt lat="44.13903" lon="5.86151">
        <ele>1218</ele>
        <time>2021-06-01T11:41:42.316Z</time>
      </trkpt>
      <trkpt lat="44.13904" lon="5.86152">
        <ele>1218</ele>
        <time>2021-06-01T11:41:43.316Z</time>
      </trkpt>
      <trkpt lat="44.13904" lon="5.86153">
        <ele>1218</ele>
        <time>2021-06-01T11:41:44.316Z</time>
      </trkpt>
      <trkpt lat="44.13905" lon="5.86153">
        <ele>1218</ele>
        <time>2021-06-01T11:41:45.316Z</time>
      </trkpt>
      <trkpt lat="44.13905" lon="5.86154">
        <ele>1218</ele>
        <time>2021-06-01T11:41:46.316Z</time>
      </trkpt>
      <trkpt lat="44.13905" lon="5.86155">
        <ele>1218</ele>
        <time>2021-06-01T11:41:47.316Z</time>
      </trkpt>
      <trkpt lat="44.13905" lon="5.86156">
        <ele>1218</ele>
        <time>2021-06-01T11:41:48.316Z</time>
      </trkpt>
      <trkpt lat="44.13906" lon="5.86157">
        <ele>1218</ele>
        <time>2021-06-01T11:41:49.316Z</time>
      </trkpt>
      <trkpt lat="44.13906" lon="5.86158">
        <ele>1218</ele>
        <time>2021-06-01T11:41:50.316Z</time>
      </trkpt>
      <trkpt lat="44.13906" lon="5.86159">
        <ele>1218</ele>
        <time>2021-06-01T11:41:51.316Z</time>
      </trkpt>
      <trkpt lat="44.13907" lon="5.8616">
        <ele>1218</ele>
        <time>2021-06-01T11:41:52.316Z</time>
      </trkpt>
      <trkpt lat="44.13907" lon="5.86161">
        <ele>1218</ele>
        <time>2021-06-01T11:41:53.316Z</time>
      </trkpt>
      <trkpt lat="44.13907" lon="5.86162">
        <ele>1218</ele>
        <time>2021-06-01T11:41:54.316Z</time>
      </trkpt>
      <trkpt lat="44.13907" lon="5.86163">
        <ele>1218</ele>
        <time>2021-06-01T11:41:55.316Z</time>
      </trkpt>
      <trkpt lat="44.13907" lon="5.86163">
        <ele>1219</ele>
        <time>2021-06-01T11:41:56.316Z</time>
      </trkpt>
      <trkpt lat="44.13907" lon="5.86164">
        <ele>1219</ele>
        <time>2021-06-01T11:41:57.316Z</time>
      </trkpt>
      <trkpt lat="44.13907" lon="5.86164">
        <ele>1219</ele>
        <time>2021-06-01T11:41:58.316Z</time>
      </trkpt>
      <trkpt lat="44.13907" lon="5.86164">
        <ele>1219</ele>
        <time>2021-06-01T11:41:59.316Z</time>
      </trkpt>
      <trkpt lat="44.13907" lon="5.86164">
        <ele>1219</ele>
        <time>2021-06-01T11:42:00.316Z</time>
      </trkpt>
      <trkpt lat="44.13907" lon="5.86164">
        <ele>1219</ele>
        <time>2021-06-01T11:42:01.316Z</time>
      </trkpt>
      <trkpt lat="44.13907" lon="5.86164">
        <ele>1219</ele>
        <time>2021-06-01T11:42:02.316Z</time>
      </trkpt>
      <trkpt lat="44.13908" lon="5.86164">
        <ele>1219</ele>
        <time>2021-06-01T11:42:03.316Z</time>
      </trkpt>
      <trkpt lat="44.13908" lon="5.86165">
        <ele>1219</ele>
        <time>2021-06-01T11:42:04.316Z</time>
      </trkpt>
      <trkpt lat="44.13908" lon="5.86166">
        <ele>1219</ele>
        <time>2021-06-01T11:42:05.316Z</time>
      </trkpt>
      <trkpt lat="44.13908" lon="5.86168">
        <ele>1219</ele>
        <time>2021-06-01T11:42:06.316Z</time>
      </trkpt>
      <trkpt lat="44.13908" lon="5.86169">
        <ele>1219</ele>
        <time>2021-06-01T11:42:07.316Z</time>
      </trkpt>
      <trkpt lat="44.13909" lon="5.8617">
        <ele>1219</ele>
        <time>2021-06-01T11:42:08.316Z</time>
      </trkpt>
      <trkpt lat="44.13909" lon="5.86171">
        <ele>1219</ele>
        <time>2021-06-01T11:42:09.316Z</time>
      </trkpt>
      <trkpt lat="44.1391" lon="5.86172">
        <ele>1219</ele>
        <time>2021-06-01T11:42:10.316Z</time>
      </trkpt>
      <trkpt lat="44.13911" lon="5.86173">
        <ele>1219</ele>
        <time>2021-06-01T11:42:11.316Z</time>
      </trkpt>
      <trkpt lat="44.13911" lon="5.86174">
        <ele>1219</ele>
        <time>2021-06-01T11:42:12.316Z</time>
      </trkpt>
      <trkpt lat="44.13912" lon="5.86176">
        <ele>1219</ele>
        <time>2021-06-01T11:42:13.316Z</time>
      </trkpt>
      <trkpt lat="44.13913" lon="5.86178">
        <ele>1219</ele>
        <time>2021-06-01T11:42:14.316Z</time>
      </trkpt>
      <trkpt lat="44.13913" lon="5.8618">
        <ele>1219</ele>
        <time>2021-06-01T11:42:15.316Z</time>
      </trkpt>
      <trkpt lat="44.13913" lon="5.86181">
        <ele>1219</ele>
        <time>2021-06-01T11:42:16.316Z</time>
      </trkpt>
      <trkpt lat="44.13913" lon="5.86182">
        <ele>1219</ele>
        <time>2021-06-01T11:42:17.316Z</time>
      </trkpt>
      <trkpt lat="44.13914" lon="5.86183">
        <ele>1219</ele>
        <time>2021-06-01T11:42:18.316Z</time>
      </trkpt>
      <trkpt lat="44.13914" lon="5.86184">
        <ele>1219</ele>
        <time>2021-06-01T11:42:19.316Z</time>
      </trkpt>
      <trkpt lat="44.13915" lon="5.86185">
        <ele>1219</ele>
        <time>2021-06-01T11:42:20.316Z</time>
      </trkpt>
      <trkpt lat="44.13915" lon="5.86186">
        <ele>1219</ele>
        <time>2021-06-01T11:42:21.316Z</time>
      </trkpt>
      <trkpt lat="44.13915" lon="5.86187">
        <ele>1219</ele>
        <time>2021-06-01T11:42:22.316Z</time>
      </trkpt>
      <trkpt lat="44.13915" lon="5.86188">
        <ele>1219</ele>
        <time>2021-06-01T11:42:23.316Z</time>
      </trkpt>
      <trkpt lat="44.13916" lon="5.86189">
        <ele>1219</ele>
        <time>2021-06-01T11:42:24.316Z</time>
      </trkpt>
      <trkpt lat="44.13916" lon="5.8619">
        <ele>1219</ele>
        <time>2021-06-01T11:42:25.316Z</time>
      </trkpt>
      <trkpt lat="44.13916" lon="5.86191">
        <ele>1220</ele>
        <time>2021-06-01T11:42:26.316Z</time>
      </trkpt>
      <trkpt lat="44.13916" lon="5.86191">
        <ele>1220</ele>
        <time>2021-06-01T11:42:27.316Z</time>
      </trkpt>
      <trkpt lat="44.13916" lon="5.86191">
        <ele>1220</ele>
        <time>2021-06-01T11:42:28.316Z</time>
      </trkpt>
      <trkpt lat="44.13916" lon="5.86191">
        <ele>1220</ele>
        <time>2021-06-01T11:42:29.316Z</time>
      </trkpt>
      <trkpt lat="44.13917" lon="5.86192">
        <ele>1220</ele>
        <time>2021-06-01T11:42:30.316Z</time>
      </trkpt>
      <trkpt lat="44.13917" lon="5.86191">
        <ele>1220</ele>
        <time>2021-06-01T11:42:31.316Z</time>
      </trkpt>
      <trkpt lat="44.13917" lon="5.86191">
        <ele>1220</ele>
        <time>2021-06-01T11:42:32.316Z</time>
      </trkpt>
      <trkpt lat="44.13916" lon="5.86191">
        <ele>1220</ele>
        <time>2021-06-01T11:42:33.316Z</time>
      </trkpt>
      <trkpt lat="44.13917" lon="5.86192">
        <ele>1220</ele>
        <time>2021-06-01T11:42:34.316Z</time>
      </trkpt>
      <trkpt lat="44.13917" lon="5.86192">
        <ele>1220</ele>
        <time>2021-06-01T11:42:35.316Z</time>
      </trkpt>
      <trkpt lat="44.13917" lon="5.86192">
        <ele>1220</ele>
        <time>2021-06-01T11:42:36.316Z</time>
      </trkpt>
      <trkpt lat="44.13917" lon="5.86192">
        <ele>1220</ele>
        <time>2021-06-01T11:42:37.316Z</time>
      </trkpt>
      <trkpt lat="44.13917" lon="5.86192">
        <ele>1220</ele>
        <time>2021-06-01T11:42:38.316Z</time>
      </trkpt>
      <trkpt lat="44.13917" lon="5.86192">
        <ele>1220</ele>
        <time>2021-06-01T11:42:39.316Z</time>
      </trkpt>
      <trkpt lat="44.13917" lon="5.86192">
        <ele>1220</ele>
        <time>2021-06-01T11:42:40.316Z</time>
      </trkpt>
      <trkpt lat="44.13917" lon="5.86192">
        <ele>1220</ele>
        <time>2021-06-01T11:42:41.316Z</time>
      </trkpt>
      <trkpt lat="44.13917" lon="5.86192">
        <ele>1220</ele>
        <time>2021-06-01T11:42:42.316Z</time>
      </trkpt>
      <trkpt lat="44.13917" lon="5.86192">
        <ele>1220</ele>
        <time>2021-06-01T11:42:43.316Z</time>
      </trkpt>
      <trkpt lat="44.13917" lon="5.86191">
        <ele>1220</ele>
        <time>2021-06-01T11:42:44.316Z</time>
      </trkpt>
      <trkpt lat="44.13917" lon="5.86191">
        <ele>1220</ele>
        <time>2021-06-01T11:42:45.316Z</time>
      </trkpt>
      <trkpt lat="44.13917" lon="5.86191">
        <ele>1221</ele>
        <time>2021-06-01T11:42:46.316Z</time>
      </trkpt>
      <trkpt lat="44.13916" lon="5.86191">
        <ele>1221</ele>
        <time>2021-06-01T11:42:47.316Z</time>
      </trkpt>
      <trkpt lat="44.13916" lon="5.86191">
        <ele>1221</ele>
        <time>2021-06-01T11:42:48.316Z</time>
      </trkpt>
      <trkpt lat="44.13916" lon="5.86191">
        <ele>1221</ele>
        <time>2021-06-01T11:42:49.316Z</time>
      </trkpt>
      <trkpt lat="44.13916" lon="5.86191">
        <ele>1221</ele>
        <time>2021-06-01T11:42:50.316Z</time>
      </trkpt>
      <trkpt lat="44.13916" lon="5.86191">
        <ele>1221</ele>
        <time>2021-06-01T11:42:51.316Z</time>
      </trkpt>
      <trkpt lat="44.13916" lon="5.86191">
        <ele>1221</ele>
        <time>2021-06-01T11:42:52.316Z</time>
      </trkpt>
      <trkpt lat="44.13916" lon="5.86191">
        <ele>1221</ele>
        <time>2021-06-01T11:42:53.316Z</time>
      </trkpt>
      <trkpt lat="44.13916" lon="5.86191">
        <ele>1221</ele>
        <time>2021-06-01T11:42:54.316Z</time>
      </trkpt>
      <trkpt lat="44.13917" lon="5.86191">
        <ele>1221</ele>
        <time>2021-06-01T11:42:55.316Z</time>
      </trkpt>
      <trkpt lat="44.13917" lon="5.86191">
        <ele>1221</ele>
        <time>2021-06-01T11:42:56.316Z</time>
      </trkpt>
      <trkpt lat="44.13917" lon="5.86191">
        <ele>1221</ele>
        <time>2021-06-01T11:42:57.316Z</time>
      </trkpt>
      <trkpt lat="44.13917" lon="5.86191">
        <ele>1221</ele>
        <time>2021-06-01T11:42:58.316Z</time>
      </trkpt>
      <trkpt lat="44.13917" lon="5.86191">
        <ele>1221</ele>
        <time>2021-06-01T11:42:59.316Z</time>
      </trkpt>
      <trkpt lat="44.13917" lon="5.86191">
        <ele>1221</ele>
        <time>2021-06-01T11:43:00.316Z</time>
      </trkpt>
      <trkpt lat="44.13917" lon="5.86191">
        <ele>1221</ele>
        <time>2021-06-01T11:43:01.316Z</time>
      </trkpt>
      <trkpt lat="44.13917" lon="5.86191">
        <ele>1221</ele>
        <time>2021-06-01T11:43:02.316Z</time>
      </trkpt>
      <trkpt lat="44.13917" lon="5.86191">
        <ele>1221</ele>
        <time>2021-06-01T11:43:03.316Z</time>
      </trkpt>
      <trkpt lat="44.13917" lon="5.86192">
        <ele>1221</ele>
        <time>2021-06-01T11:43:04.316Z</time>
      </trkpt>
      <trkpt lat="44.13917" lon="5.86191">
        <ele>1221</ele>
        <time>2021-06-01T11:43:05.316Z</time>
      </trkpt>
      <trkpt lat="44.13917" lon="5.86191">
        <ele>1221</ele>
        <time>2021-06-01T11:43:06.316Z</time>
      </trkpt>
      <trkpt lat="44.13917" lon="5.86192">
        <ele>1221</ele>
        <time>2021-06-01T11:43:07.316Z</time>
      </trkpt>
      <trkpt lat="44.13916" lon="5.86192">
        <ele>1221</ele>
        <time>2021-06-01T11:43:08.316Z</time>
      </trkpt>
      <trkpt lat="44.13916" lon="5.86192">
        <ele>1221</ele>
        <time>2021-06-01T11:43:09.316Z</time>
      </trkpt>
      <trkpt lat="44.13916" lon="5.86192">
        <ele>1221</ele>
        <time>2021-06-01T11:43:10.316Z</time>
      </trkpt>
      <trkpt lat="44.13916" lon="5.86191">
        <ele>1221</ele>
        <time>2021-06-01T11:43:11.316Z</time>
      </trkpt>
      <trkpt lat="44.13916" lon="5.86191">
        <ele>1221</ele>
        <time>2021-06-01T11:43:12.316Z</time>
      </trkpt>
      <trkpt lat="44.13916" lon="5.86192">
        <ele>1221</ele>
        <time>2021-06-01T11:43:13.316Z</time>
      </trkpt>
      <trkpt lat="44.13916" lon="5.86192">
        <ele>1221</ele>
        <time>2021-06-01T11:43:14.316Z</time>
      </trkpt>
      <trkpt lat="44.13916" lon="5.86191">
        <ele>1222</ele>
        <time>2021-06-01T11:43:15.316Z</time>
      </trkpt>
      <trkpt lat="44.13916" lon="5.86191">
        <ele>1222</ele>
        <time>2021-06-01T11:43:16.316Z</time>
      </trkpt>
      <trkpt lat="44.13916" lon="5.86191">
        <ele>1222</ele>
        <time>2021-06-01T11:43:17.316Z</time>
      </trkpt>
      <trkpt lat="44.13916" lon="5.86191">
        <ele>1222</ele>
        <time>2021-06-01T11:43:18.316Z</time>
      </trkpt>
      <trkpt lat="44.13916" lon="5.86191">
        <ele>1222</ele>
        <time>2021-06-01T11:43:19.316Z</time>
      </trkpt>
      <trkpt lat="44.13916" lon="5.86191">
        <ele>1222</ele>
        <time>2021-06-01T11:43:20.316Z</time>
      </trkpt>
      <trkpt lat="44.13916" lon="5.86191">
        <ele>1222</ele>
        <time>2021-06-01T11:43:21.316Z</time>
      </trkpt>
      <trkpt lat="44.13916" lon="5.86191">
        <ele>1222</ele>
        <time>2021-06-01T11:43:22.316Z</time>
      </trkpt>
      <trkpt lat="44.13916" lon="5.86191">
        <ele>1222</ele>
        <time>2021-06-01T11:43:23.316Z</time>
      </trkpt>
      <trkpt lat="44.13916" lon="5.86191">
        <ele>1222</ele>
        <time>2021-06-01T11:43:24.316Z</time>
      </trkpt>
      <trkpt lat="44.13916" lon="5.86191">
        <ele>1222</ele>
        <time>2021-06-01T11:43:25.316Z</time>
      </trkpt>
      <trkpt lat="44.13916" lon="5.86192">
        <ele>1222</ele>
        <time>2021-06-01T11:43:26.316Z</time>
      </trkpt>
      <trkpt lat="44.13916" lon="5.86192">
        <ele>1222</ele>
        <time>2021-06-01T11:43:27.316Z</time>
      </trkpt>
      <trkpt lat="44.13916" lon="5.86191">
        <ele>1222</ele>
        <time>2021-06-01T11:43:28.316Z</time>
      </trkpt>
      <trkpt lat="44.13916" lon="5.86191">
        <ele>1222</ele>
        <time>2021-06-01T11:43:29.316Z</time>
      </trkpt>
      <trkpt lat="44.13917" lon="5.86191">
        <ele>1222</ele>
        <time>2021-06-01T11:43:30.316Z</time>
      </trkpt>
      <trkpt lat="44.13917" lon="5.86191">
        <ele>1222</ele>
        <time>2021-06-01T11:43:31.316Z</time>
      </trkpt>
      <trkpt lat="44.13917" lon="5.86191">
        <ele>1222</ele>
        <time>2021-06-01T11:43:32.316Z</time>
      </trkpt>
      <trkpt lat="44.13917" lon="5.86191">
        <ele>1222</ele>
        <time>2021-06-01T11:43:33.316Z</time>
      </trkpt>
      <trkpt lat="44.13917" lon="5.86191">
        <ele>1222</ele>
        <time>2021-06-01T11:43:34.316Z</time>
      </trkpt>
      <trkpt lat="44.13917" lon="5.86191">
        <ele>1222</ele>
        <time>2021-06-01T11:43:35.316Z</time>
      </trkpt>
      <trkpt lat="44.13917" lon="5.86191">
        <ele>1221</ele>
        <time>2021-06-01T11:43:36.316Z</time>
      </trkpt>
      <trkpt lat="44.13917" lon="5.86191">
        <ele>1221</ele>
        <time>2021-06-01T11:43:37.316Z</time>
      </trkpt>
      <trkpt lat="44.13917" lon="5.86191">
        <ele>1221</ele>
        <time>2021-06-01T11:43:38.316Z</time>
      </trkpt>
      <trkpt lat="44.13917" lon="5.86191">
        <ele>1221</ele>
        <time>2021-06-01T11:43:39.316Z</time>
      </trkpt>
      <trkpt lat="44.13917" lon="5.86191">
        <ele>1221</ele>
        <time>2021-06-01T11:43:40.316Z</time>
      </trkpt>
      <trkpt lat="44.13917" lon="5.86191">
        <ele>1221</ele>
        <time>2021-06-01T11:43:41.316Z</time>
      </trkpt>
      <trkpt lat="44.13917" lon="5.86192">
        <ele>1221</ele>
        <time>2021-06-01T11:43:42.316Z</time>
      </trkpt>
      <trkpt lat="44.13917" lon="5.86192">
        <ele>1221</ele>
        <time>2021-06-01T11:43:43.316Z</time>
      </trkpt>
      <trkpt lat="44.13917" lon="5.86192">
        <ele>1221</ele>
        <time>2021-06-01T11:43:44.316Z</time>
      </trkpt>
      <trkpt lat="44.13917" lon="5.86192">
        <ele>1221</ele>
        <time>2021-06-01T11:43:45.316Z</time>
      </trkpt>
      <trkpt lat="44.13917" lon="5.86192">
        <ele>1221</ele>
        <time>2021-06-01T11:43:46.316Z</time>
      </trkpt>
      <trkpt lat="44.13917" lon="5.86192">
        <ele>1221</ele>
        <time>2021-06-01T11:43:47.316Z</time>
      </trkpt>
      <trkpt lat="44.13916" lon="5.86191">
        <ele>1221</ele>
        <time>2021-06-01T11:43:48.316Z</time>
      </trkpt>
      <trkpt lat="44.13916" lon="5.86191">
        <ele>1221</ele>
        <time>2021-06-01T11:43:49.316Z</time>
      </trkpt>
      <trkpt lat="44.13917" lon="5.86191">
        <ele>1222</ele>
        <time>2021-06-01T11:43:50.316Z</time>
      </trkpt>
      <trkpt lat="44.13917" lon="5.86192">
        <ele>1222</ele>
        <time>2021-06-01T11:43:51.316Z</time>
      </trkpt>
      <trkpt lat="44.13917" lon="5.86192">
        <ele>1222</ele>
        <time>2021-06-01T11:43:52.316Z</time>
      </trkpt>
      <trkpt lat="44.13917" lon="5.86191">
        <ele>1222</ele>
        <time>2021-06-01T11:43:53.316Z</time>
      </trkpt>
      <trkpt lat="44.13917" lon="5.86191">
        <ele>1222</ele>
        <time>2021-06-01T11:43:54.316Z</time>
      </trkpt>
      <trkpt lat="44.13917" lon="5.86191">
        <ele>1222</ele>
        <time>2021-06-01T11:43:55.316Z</time>
      </trkpt>
      <trkpt lat="44.13917" lon="5.86191">
        <ele>1222</ele>
        <time>2021-06-01T11:43:56.316Z</time>
      </trkpt>
      <trkpt lat="44.13917" lon="5.86191">
        <ele>1222</ele>
        <time>2021-06-01T11:43:57.316Z</time>
      </trkpt>
      <trkpt lat="44.13917" lon="5.86191">
        <ele>1222</ele>
        <time>2021-06-01T11:43:58.316Z</time>
      </trkpt>
      <trkpt lat="44.13917" lon="5.86191">
        <ele>1222</ele>
        <time>2021-06-01T11:43:59.316Z</time>
      </trkpt>
      <trkpt lat="44.13917" lon="5.86191">
        <ele>1222</ele>
        <time>2021-06-01T11:44:00.316Z</time>
      </trkpt>
      <trkpt lat="44.13917" lon="5.86191">
        <ele>1222</ele>
        <time>2021-06-01T11:44:01.316Z</time>
      </trkpt>
      <trkpt lat="44.13917" lon="5.86191">
        <ele>1222</ele>
        <time>2021-06-01T11:44:02.316Z</time>
      </trkpt>
      <trkpt lat="44.13916" lon="5.86191">
        <ele>1222</ele>
        <time>2021-06-01T11:44:03.316Z</time>
      </trkpt>
      <trkpt lat="44.13916" lon="5.86191">
        <ele>1222</ele>
        <time>2021-06-01T11:44:04.316Z</time>
      </trkpt>
      <trkpt lat="44.13916" lon="5.86191">
        <ele>1222</ele>
        <time>2021-06-01T11:44:05.316Z</time>
      </trkpt>
      <trkpt lat="44.13916" lon="5.86191">
        <ele>1222</ele>
        <time>2021-06-01T11:44:06.316Z</time>
      </trkpt>
      <trkpt lat="44.13916" lon="5.86191">
        <ele>1222</ele>
        <time>2021-06-01T11:44:07.316Z</time>
      </trkpt>
      <trkpt lat="44.13916" lon="5.86191">
        <ele>1222</ele>
        <time>2021-06-01T11:44:08.316Z</time>
      </trkpt>
      <trkpt lat="44.13916" lon="5.86191">
        <ele>1222</ele>
        <time>2021-06-01T11:44:09.316Z</time>
      </trkpt>
      <trkpt lat="44.13916" lon="5.86191">
        <ele>1222</ele>
        <time>2021-06-01T11:44:10.316Z</time>
      </trkpt>
      <trkpt lat="44.13916" lon="5.86191">
        <ele>1222</ele>
        <time>2021-06-01T11:44:11.316Z</time>
      </trkpt>
      <trkpt lat="44.13916" lon="5.86191">
        <ele>1222</ele>
        <time>2021-06-01T11:44:12.316Z</time>
      </trkpt>
      <trkpt lat="44.13916" lon="5.86191">
        <ele>1222</ele>
        <time>2021-06-01T11:44:13.316Z</time>
      </trkpt>
      <trkpt lat="44.13916" lon="5.86191">
        <ele>1222</ele>
        <time>2021-06-01T11:44:14.316Z</time>
      </trkpt>
      <trkpt lat="44.13916" lon="5.86191">
        <ele>1222</ele>
        <time>2021-06-01T11:44:15.316Z</time>
      </trkpt>
      <trkpt lat="44.13916" lon="5.86191">
        <ele>1222</ele>
        <time>2021-06-01T11:44:16.316Z</time>
      </trkpt>
      <trkpt lat="44.13916" lon="5.86191">
        <ele>1222</ele>
        <time>2021-06-01T11:44:17.316Z</time>
      </trkpt>
      <trkpt lat="44.13916" lon="5.86191">
        <ele>1222</ele>
        <time>2021-06-01T11:44:18.316Z</time>
      </trkpt>
      <trkpt lat="44.13916" lon="5.86191">
        <ele>1222</ele>
        <time>2021-06-01T11:44:19.316Z</time>
      </trkpt>
      <trkpt lat="44.13916" lon="5.86191">
        <ele>1222</ele>
        <time>2021-06-01T11:44:20.316Z</time>
      </trkpt>
      <trkpt lat="44.13916" lon="5.86191">
        <ele>1222</ele>
        <time>2021-06-01T11:44:21.316Z</time>
      </trkpt>
      <trkpt lat="44.13916" lon="5.86191">
        <ele>1222</ele>
        <time>2021-06-01T11:44:22.316Z</time>
      </trkpt>
      <trkpt lat="44.13916" lon="5.86191">
        <ele>1222</ele>
        <time>2021-06-01T11:44:23.316Z</time>
      </trkpt>
      <trkpt lat="44.13916" lon="5.86191">
        <ele>1222</ele>
        <time>2021-06-01T11:44:24.316Z</time>
      </trkpt>
      <trkpt lat="44.13916" lon="5.86191">
        <ele>1222</ele>
        <time>2021-06-01T11:44:25.316Z</time>
      </trkpt>
      <trkpt lat="44.13916" lon="5.86191">
        <ele>1222</ele>
        <time>2021-06-01T11:44:26.316Z</time>
      </trkpt>
      <trkpt lat="44.13916" lon="5.86191">
        <ele>1222</ele>
        <time>2021-06-01T11:44:27.316Z</time>
      </trkpt>
      <trkpt lat="44.13916" lon="5.86191">
        <ele>1222</ele>
        <time>2021-06-01T11:44:28.316Z</time>
      </trkpt>
      <trkpt lat="44.13916" lon="5.86191">
        <ele>1222</ele>
        <time>2021-06-01T11:44:29.316Z</time>
      </trkpt>
      <trkpt lat="44.13916" lon="5.86191">
        <ele>1222</ele>
        <time>2021-06-01T11:44:30.316Z</time>
      </trkpt>
      <trkpt lat="44.13916" lon="5.86191">
        <ele>1222</ele>
        <time>2021-06-01T11:44:31.316Z</time>
      </trkpt>
      <trkpt lat="44.13916" lon="5.86191">
        <ele>1222</ele>
        <time>2021-06-01T11:44:32.316Z</time>
      </trkpt>
      <trkpt lat="44.13916" lon="5.86191">
        <ele>1222</ele>
        <time>2021-06-01T11:44:33.316Z</time>
      </trkpt>
      <trkpt lat="44.13916" lon="5.86191">
        <ele>1222</ele>
        <time>2021-06-01T11:44:34.316Z</time>
      </trkpt>
      <trkpt lat="44.13916" lon="5.86191">
        <ele>1222</ele>
        <time>2021-06-01T11:44:35.316Z</time>
      </trkpt>
      <trkpt lat="44.13916" lon="5.86191">
        <ele>1222</ele>
        <time>2021-06-01T11:44:36.316Z</time>
      </trkpt>
      <trkpt lat="44.13916" lon="5.86191">
        <ele>1222</ele>
        <time>2021-06-01T11:44:37.316Z</time>
      </trkpt>
      <trkpt lat="44.13916" lon="5.86191">
        <ele>1222</ele>
        <time>2021-06-01T11:44:38.316Z</time>
      </trkpt>
      <trkpt lat="44.13916" lon="5.86191">
        <ele>1222</ele>
        <time>2021-06-01T11:44:39.316Z</time>
      </trkpt>
      <trkpt lat="44.13916" lon="5.86191">
        <ele>1222</ele>
        <time>2021-06-01T11:44:40.316Z</time>
      </trkpt>
      <trkpt lat="44.13916" lon="5.86191">
        <ele>1222</ele>
        <time>2021-06-01T11:44:41.316Z</time>
      </trkpt>
      <trkpt lat="44.13916" lon="5.86191">
        <ele>1222</ele>
        <time>2021-06-01T11:44:42.316Z</time>
      </trkpt>
      <trkpt lat="44.13915" lon="5.86191">
        <ele>1222</ele>
        <time>2021-06-01T11:44:43.316Z</time>
      </trkpt>
      <trkpt lat="44.13915" lon="5.86191">
        <ele>1222</ele>
        <time>2021-06-01T11:44:44.316Z</time>
      </trkpt>
      <trkpt lat="44.13916" lon="5.86191">
        <ele>1222</ele>
        <time>2021-06-01T11:44:45.316Z</time>
      </trkpt>
      <trkpt lat="44.13916" lon="5.86191">
        <ele>1222</ele>
        <time>2021-06-01T11:44:46.316Z</time>
      </trkpt>
      <trkpt lat="44.13916" lon="5.86191">
        <ele>1222</ele>
        <time>2021-06-01T11:44:47.316Z</time>
      </trkpt>
      <trkpt lat="44.13916" lon="5.86191">
        <ele>1222</ele>
        <time>2021-06-01T11:44:48.316Z</time>
      </trkpt>
      <trkpt lat="44.13916" lon="5.86191">
        <ele>1222</ele>
        <time>2021-06-01T11:44:49.316Z</time>
      </trkpt>
      <trkpt lat="44.13915" lon="5.86192">
        <ele>1222</ele>
        <time>2021-06-01T11:44:50.316Z</time>
      </trkpt>
      <trkpt lat="44.13915" lon="5.86192">
        <ele>1222</ele>
        <time>2021-06-01T11:44:51.316Z</time>
      </trkpt>
      <trkpt lat="44.13915" lon="5.86192">
        <ele>1222</ele>
        <time>2021-06-01T11:44:52.316Z</time>
      </trkpt>
      <trkpt lat="44.13915" lon="5.86192">
        <ele>1222</ele>
        <time>2021-06-01T11:44:53.316Z</time>
      </trkpt>
      <trkpt lat="44.13915" lon="5.86191">
        <ele>1222</ele>
        <time>2021-06-01T11:44:54.316Z</time>
      </trkpt>
      <trkpt lat="44.13915" lon="5.86191">
        <ele>1222</ele>
        <time>2021-06-01T11:44:55.316Z</time>
      </trkpt>
      <trkpt lat="44.13915" lon="5.86191">
        <ele>1222</ele>
        <time>2021-06-01T11:44:56.316Z</time>
      </trkpt>
      <trkpt lat="44.13915" lon="5.86191">
        <ele>1222</ele>
        <time>2021-06-01T11:44:57.316Z</time>
      </trkpt>
      <trkpt lat="44.13915" lon="5.8619">
        <ele>1222</ele>
        <time>2021-06-01T11:44:58.316Z</time>
      </trkpt>
      <trkpt lat="44.13915" lon="5.8619">
        <ele>1222</ele>
        <time>2021-06-01T11:44:59.316Z</time>
      </trkpt>
      <trkpt lat="44.13915" lon="5.8619">
        <ele>1222</ele>
        <time>2021-06-01T11:45:00.316Z</time>
      </trkpt>
      <trkpt lat="44.13915" lon="5.8619">
        <ele>1222</ele>
        <time>2021-06-01T11:45:01.316Z</time>
      </trkpt>
      <trkpt lat="44.13915" lon="5.8619">
        <ele>1222</ele>
        <time>2021-06-01T11:45:02.316Z</time>
      </trkpt>
      <trkpt lat="44.13915" lon="5.8619">
        <ele>1222</ele>
        <time>2021-06-01T11:45:03.316Z</time>
      </trkpt>
      <trkpt lat="44.13915" lon="5.8619">
        <ele>1222</ele>
        <time>2021-06-01T11:45:04.316Z</time>
      </trkpt>
      <trkpt lat="44.13915" lon="5.8619">
        <ele>1222</ele>
        <time>2021-06-01T11:45:05.316Z</time>
      </trkpt>
      <trkpt lat="44.13914" lon="5.8619">
        <ele>1222</ele>
        <time>2021-06-01T11:45:06.316Z</time>
      </trkpt>
      <trkpt lat="44.13914" lon="5.8619">
        <ele>1222</ele>
        <time>2021-06-01T11:45:07.316Z</time>
      </trkpt>
      <trkpt lat="44.13914" lon="5.8619">
        <ele>1222</ele>
        <time>2021-06-01T11:45:08.316Z</time>
      </trkpt>
      <trkpt lat="44.13915" lon="5.8619">
        <ele>1222</ele>
        <time>2021-06-01T11:45:09.316Z</time>
      </trkpt>
      <trkpt lat="44.13915" lon="5.8619">
        <ele>1222</ele>
        <time>2021-06-01T11:45:10.316Z</time>
      </trkpt>
      <trkpt lat="44.13915" lon="5.8619">
        <ele>1222</ele>
        <time>2021-06-01T11:45:11.316Z</time>
      </trkpt>
      <trkpt lat="44.13915" lon="5.8619">
        <ele>1222</ele>
        <time>2021-06-01T11:45:12.316Z</time>
      </trkpt>
      <trkpt lat="44.13915" lon="5.8619">
        <ele>1222</ele>
        <time>2021-06-01T11:45:13.316Z</time>
      </trkpt>
      <trkpt lat="44.13915" lon="5.8619">
        <ele>1222</ele>
        <time>2021-06-01T11:45:14.316Z</time>
      </trkpt>
      <trkpt lat="44.13915" lon="5.8619">
        <ele>1222</ele>
        <time>2021-06-01T11:45:15.316Z</time>
      </trkpt>
      <trkpt lat="44.13915" lon="5.86191">
        <ele>1222</ele>
        <time>2021-06-01T11:45:16.316Z</time>
      </trkpt>
      <trkpt lat="44.13915" lon="5.86191">
        <ele>1222</ele>
        <time>2021-06-01T11:45:17.316Z</time>
      </trkpt>
      <trkpt lat="44.13915" lon="5.86191">
        <ele>1222</ele>
        <time>2021-06-01T11:45:18.316Z</time>
      </trkpt>
      <trkpt lat="44.13915" lon="5.8619">
        <ele>1222</ele>
        <time>2021-06-01T11:45:19.316Z</time>
      </trkpt>
      <trkpt lat="44.13915" lon="5.86191">
        <ele>1222</ele>
        <time>2021-06-01T11:45:20.316Z</time>
      </trkpt>
      <trkpt lat="44.13915" lon="5.86191">
        <ele>1222</ele>
        <time>2021-06-01T11:45:21.316Z</time>
      </trkpt>
      <trkpt lat="44.13914" lon="5.86191">
        <ele>1222</ele>
        <time>2021-06-01T11:45:22.316Z</time>
      </trkpt>
      <trkpt lat="44.13914" lon="5.86191">
        <ele>1222</ele>
        <time>2021-06-01T11:45:23.316Z</time>
      </trkpt>
      <trkpt lat="44.13915" lon="5.86191">
        <ele>1222</ele>
        <time>2021-06-01T11:45:24.316Z</time>
      </trkpt>
      <trkpt lat="44.13915" lon="5.86191">
        <ele>1222</ele>
        <time>2021-06-01T11:45:25.316Z</time>
      </trkpt>
      <trkpt lat="44.13915" lon="5.86191">
        <ele>1222</ele>
        <time>2021-06-01T11:45:26.316Z</time>
      </trkpt>
      <trkpt lat="44.13915" lon="5.86192">
        <ele>1222</ele>
        <time>2021-06-01T11:45:27.316Z</time>
      </trkpt>
      <trkpt lat="44.13915" lon="5.86192">
        <ele>1222</ele>
        <time>2021-06-01T11:45:28.316Z</time>
      </trkpt>
      <trkpt lat="44.13915" lon="5.86192">
        <ele>1222</ele>
        <time>2021-06-01T11:45:29.316Z</time>
      </trkpt>
      <trkpt lat="44.13915" lon="5.86192">
        <ele>1222</ele>
        <time>2021-06-01T11:45:30.316Z</time>
      </trkpt>
      <trkpt lat="44.13915" lon="5.86192">
        <ele>1222</ele>
        <time>2021-06-01T11:45:31.316Z</time>
      </trkpt>
      <trkpt lat="44.13915" lon="5.86192">
        <ele>1222</ele>
        <time>2021-06-01T11:45:32.316Z</time>
      </trkpt>
      <trkpt lat="44.13915" lon="5.86192">
        <ele>1222</ele>
        <time>2021-06-01T11:45:33.316Z</time>
      </trkpt>
      <trkpt lat="44.13915" lon="5.86192">
        <ele>1222</ele>
        <time>2021-06-01T11:45:34.316Z</time>
      </trkpt>
      <trkpt lat="44.13914" lon="5.86191">
        <ele>1222</ele>
        <time>2021-06-01T11:45:35.316Z</time>
      </trkpt>
      <trkpt lat="44.13914" lon="5.8619">
        <ele>1222</ele>
        <time>2021-06-01T11:45:36.316Z</time>
      </trkpt>
      <trkpt lat="44.13914" lon="5.8619">
        <ele>1222</ele>
        <time>2021-06-01T11:45:37.316Z</time>
      </trkpt>
      <trkpt lat="44.13914" lon="5.8619">
        <ele>1222</ele>
        <time>2021-06-01T11:45:38.316Z</time>
      </trkpt>
      <trkpt lat="44.13914" lon="5.8619">
        <ele>1222</ele>
        <time>2021-06-01T11:45:39.316Z</time>
      </trkpt>
      <trkpt lat="44.13914" lon="5.86189">
        <ele>1222</ele>
        <time>2021-06-01T11:45:40.316Z</time>
      </trkpt>
      <trkpt lat="44.13914" lon="5.86189">
        <ele>1222</ele>
        <time>2021-06-01T11:45:41.316Z</time>
      </trkpt>
      <trkpt lat="44.13914" lon="5.86189">
        <ele>1222</ele>
        <time>2021-06-01T11:45:42.316Z</time>
      </trkpt>
      <trkpt lat="44.13914" lon="5.86189">
        <ele>1222</ele>
        <time>2021-06-01T11:45:43.316Z</time>
      </trkpt>
      <trkpt lat="44.13914" lon="5.86188">
        <ele>1222</ele>
        <time>2021-06-01T11:45:44.316Z</time>
      </trkpt>
      <trkpt lat="44.13915" lon="5.86187">
        <ele>1222</ele>
        <time>2021-06-01T11:45:45.316Z</time>
      </trkpt>
      <trkpt lat="44.13916" lon="5.86186">
        <ele>1222</ele>
        <time>2021-06-01T11:45:46.316Z</time>
      </trkpt>
      <trkpt lat="44.13916" lon="5.86185">
        <ele>1222</ele>
        <time>2021-06-01T11:45:47.316Z</time>
      </trkpt>
      <trkpt lat="44.13916" lon="5.86185">
        <ele>1222</ele>
        <time>2021-06-01T11:45:48.316Z</time>
      </trkpt>
      <trkpt lat="44.13916" lon="5.86185">
        <ele>1222</ele>
        <time>2021-06-01T11:45:49.316Z</time>
      </trkpt>
      <trkpt lat="44.13916" lon="5.86184">
        <ele>1222</ele>
        <time>2021-06-01T11:45:50.316Z</time>
      </trkpt>
      <trkpt lat="44.13915" lon="5.86184">
        <ele>1222</ele>
        <time>2021-06-01T11:45:51.316Z</time>
      </trkpt>
      <trkpt lat="44.13915" lon="5.86182">
        <ele>1222</ele>
        <time>2021-06-01T11:45:52.316Z</time>
      </trkpt>
      <trkpt lat="44.13914" lon="5.86181">
        <ele>1222</ele>
        <time>2021-06-01T11:45:53.316Z</time>
      </trkpt>
      <trkpt lat="44.13914" lon="5.86179">
        <ele>1222</ele>
        <time>2021-06-01T11:45:54.316Z</time>
      </trkpt>
      <trkpt lat="44.13913" lon="5.86178">
        <ele>1222</ele>
        <time>2021-06-01T11:45:55.316Z</time>
      </trkpt>
      <trkpt lat="44.13912" lon="5.86177">
        <ele>1222</ele>
        <time>2021-06-01T11:45:56.316Z</time>
      </trkpt>
      <trkpt lat="44.13912" lon="5.86176">
        <ele>1222</ele>
        <time>2021-06-01T11:45:57.316Z</time>
      </trkpt>
      <trkpt lat="44.13911" lon="5.86174">
        <ele>1222</ele>
        <time>2021-06-01T11:45:58.316Z</time>
      </trkpt>
      <trkpt lat="44.1391" lon="5.86173">
        <ele>1222</ele>
        <time>2021-06-01T11:45:59.316Z</time>
      </trkpt>
      <trkpt lat="44.13909" lon="5.86172">
        <ele>1222</ele>
        <time>2021-06-01T11:46:00.316Z</time>
      </trkpt>
      <trkpt lat="44.13909" lon="5.86172">
        <ele>1222</ele>
        <time>2021-06-01T11:46:01.316Z</time>
      </trkpt>
      <trkpt lat="44.13909" lon="5.86171">
        <ele>1222</ele>
        <time>2021-06-01T11:46:02.316Z</time>
      </trkpt>
      <trkpt lat="44.13908" lon="5.8617">
        <ele>1222</ele>
        <time>2021-06-01T11:46:03.316Z</time>
      </trkpt>
      <trkpt lat="44.13908" lon="5.8617">
        <ele>1222</ele>
        <time>2021-06-01T11:46:04.316Z</time>
      </trkpt>
      <trkpt lat="44.13908" lon="5.8617">
        <ele>1222</ele>
        <time>2021-06-01T11:46:05.316Z</time>
      </trkpt>
      <trkpt lat="44.13907" lon="5.8617">
        <ele>1222</ele>
        <time>2021-06-01T11:46:06.316Z</time>
      </trkpt>
      <trkpt lat="44.13907" lon="5.8617">
        <ele>1222</ele>
        <time>2021-06-01T11:46:07.316Z</time>
      </trkpt>
      <trkpt lat="44.13906" lon="5.86169">
        <ele>1222</ele>
        <time>2021-06-01T11:46:08.316Z</time>
      </trkpt>
      <trkpt lat="44.13905" lon="5.86169">
        <ele>1222</ele>
        <time>2021-06-01T11:46:09.316Z</time>
      </trkpt>
      <trkpt lat="44.13904" lon="5.86168">
        <ele>1222</ele>
        <time>2021-06-01T11:46:10.316Z</time>
      </trkpt>
      <trkpt lat="44.13904" lon="5.86168">
        <ele>1222</ele>
        <time>2021-06-01T11:46:11.316Z</time>
      </trkpt>
      <trkpt lat="44.13903" lon="5.86167">
        <ele>1222</ele>
        <time>2021-06-01T11:46:12.316Z</time>
      </trkpt>
      <trkpt lat="44.13903" lon="5.86167">
        <ele>1222</ele>
        <time>2021-06-01T11:46:13.316Z</time>
      </trkpt>
      <trkpt lat="44.13902" lon="5.86166">
        <ele>1222</ele>
        <time>2021-06-01T11:46:14.316Z</time>
      </trkpt>
      <trkpt lat="44.13901" lon="5.86166">
        <ele>1222</ele>
        <time>2021-06-01T11:46:15.316Z</time>
      </trkpt>
      <trkpt lat="44.13901" lon="5.86166">
        <ele>1223</ele>
        <time>2021-06-01T11:46:16.316Z</time>
      </trkpt>
      <trkpt lat="44.13901" lon="5.86166">
        <ele>1223</ele>
        <time>2021-06-01T11:46:17.316Z</time>
      </trkpt>
      <trkpt lat="44.13901" lon="5.86166">
        <ele>1223</ele>
        <time>2021-06-01T11:46:18.316Z</time>
      </trkpt>
      <trkpt lat="44.13901" lon="5.86166">
        <ele>1223</ele>
        <time>2021-06-01T11:46:19.316Z</time>
      </trkpt>
      <trkpt lat="44.13901" lon="5.86165">
        <ele>1223</ele>
        <time>2021-06-01T11:46:20.316Z</time>
      </trkpt>
      <trkpt lat="44.139" lon="5.86165">
        <ele>1223</ele>
        <time>2021-06-01T11:46:21.316Z</time>
      </trkpt>
      <trkpt lat="44.139" lon="5.86165">
        <ele>1223</ele>
        <time>2021-06-01T11:46:22.316Z</time>
      </trkpt>
      <trkpt lat="44.139" lon="5.86165">
        <ele>1223</ele>
        <time>2021-06-01T11:46:23.316Z</time>
      </trkpt>
      <trkpt lat="44.139" lon="5.86164">
        <ele>1223</ele>
        <time>2021-06-01T11:46:24.316Z</time>
      </trkpt>
      <trkpt lat="44.13899" lon="5.86164">
        <ele>1223</ele>
        <time>2021-06-01T11:46:25.316Z</time>
      </trkpt>
      <trkpt lat="44.13898" lon="5.86164">
        <ele>1223</ele>
        <time>2021-06-01T11:46:26.316Z</time>
      </trkpt>
      <trkpt lat="44.13898" lon="5.86164">
        <ele>1223</ele>
        <time>2021-06-01T11:46:27.316Z</time>
      </trkpt>
      <trkpt lat="44.13898" lon="5.86164">
        <ele>1223</ele>
        <time>2021-06-01T11:46:28.316Z</time>
      </trkpt>
      <trkpt lat="44.13897" lon="5.86163">
        <ele>1223</ele>
        <time>2021-06-01T11:46:29.316Z</time>
      </trkpt>
      <trkpt lat="44.13897" lon="5.86163">
        <ele>1223</ele>
        <time>2021-06-01T11:46:30.316Z</time>
      </trkpt>
      <trkpt lat="44.13897" lon="5.86163">
        <ele>1223</ele>
        <time>2021-06-01T11:46:31.316Z</time>
      </trkpt>
      <trkpt lat="44.13896" lon="5.86162">
        <ele>1223</ele>
        <time>2021-06-01T11:46:32.316Z</time>
      </trkpt>
      <trkpt lat="44.13896" lon="5.86162">
        <ele>1223</ele>
        <time>2021-06-01T11:46:33.316Z</time>
      </trkpt>
      <trkpt lat="44.13896" lon="5.86162">
        <ele>1223</ele>
        <time>2021-06-01T11:46:34.316Z</time>
      </trkpt>
      <trkpt lat="44.13896" lon="5.86162">
        <ele>1223</ele>
        <time>2021-06-01T11:46:35.316Z</time>
      </trkpt>
      <trkpt lat="44.13896" lon="5.86162">
        <ele>1223</ele>
        <time>2021-06-01T11:46:36.316Z</time>
      </trkpt>
      <trkpt lat="44.13895" lon="5.86162">
        <ele>1224</ele>
        <time>2021-06-01T11:46:37.316Z</time>
      </trkpt>
      <trkpt lat="44.13895" lon="5.86161">
        <ele>1224</ele>
        <time>2021-06-01T11:46:38.316Z</time>
      </trkpt>
      <trkpt lat="44.13895" lon="5.86161">
        <ele>1224</ele>
        <time>2021-06-01T11:46:39.316Z</time>
      </trkpt>
      <trkpt lat="44.13894" lon="5.86161">
        <ele>1224</ele>
        <time>2021-06-01T11:46:40.316Z</time>
      </trkpt>
      <trkpt lat="44.13894" lon="5.8616">
        <ele>1224</ele>
        <time>2021-06-01T11:46:41.316Z</time>
      </trkpt>
      <trkpt lat="44.13894" lon="5.8616">
        <ele>1224</ele>
        <time>2021-06-01T11:46:42.316Z</time>
      </trkpt>
      <trkpt lat="44.13894" lon="5.8616">
        <ele>1224</ele>
        <time>2021-06-01T11:46:43.316Z</time>
      </trkpt>
      <trkpt lat="44.13894" lon="5.8616">
        <ele>1224</ele>
        <time>2021-06-01T11:46:44.316Z</time>
      </trkpt>
      <trkpt lat="44.13893" lon="5.8616">
        <ele>1224</ele>
        <time>2021-06-01T11:46:45.316Z</time>
      </trkpt>
      <trkpt lat="44.13893" lon="5.8616">
        <ele>1224</ele>
        <time>2021-06-01T11:46:46.316Z</time>
      </trkpt>
      <trkpt lat="44.13893" lon="5.86159">
        <ele>1224</ele>
        <time>2021-06-01T11:46:47.316Z</time>
      </trkpt>
      <trkpt lat="44.13892" lon="5.86159">
        <ele>1224</ele>
        <time>2021-06-01T11:46:48.316Z</time>
      </trkpt>
      <trkpt lat="44.13892" lon="5.86158">
        <ele>1224</ele>
        <time>2021-06-01T11:46:49.316Z</time>
      </trkpt>
      <trkpt lat="44.13891" lon="5.86158">
        <ele>1224</ele>
        <time>2021-06-01T11:46:50.316Z</time>
      </trkpt>
      <trkpt lat="44.13891" lon="5.86157">
        <ele>1224</ele>
        <time>2021-06-01T11:46:51.316Z</time>
      </trkpt>
      <trkpt lat="44.13891" lon="5.86157">
        <ele>1224</ele>
        <time>2021-06-01T11:46:52.316Z</time>
      </trkpt>
      <trkpt lat="44.1389" lon="5.86156">
        <ele>1224</ele>
        <time>2021-06-01T11:46:53.316Z</time>
      </trkpt>
      <trkpt lat="44.1389" lon="5.86156">
        <ele>1224</ele>
        <time>2021-06-01T11:46:54.316Z</time>
      </trkpt>
      <trkpt lat="44.1389" lon="5.86155">
        <ele>1224</ele>
        <time>2021-06-01T11:46:55.316Z</time>
      </trkpt>
      <trkpt lat="44.13889" lon="5.86155">
        <ele>1224</ele>
        <time>2021-06-01T11:46:56.316Z</time>
      </trkpt>
      <trkpt lat="44.13889" lon="5.86155">
        <ele>1224</ele>
        <time>2021-06-01T11:46:57.316Z</time>
      </trkpt>
      <trkpt lat="44.13888" lon="5.86154">
        <ele>1224</ele>
        <time>2021-06-01T11:46:58.316Z</time>
      </trkpt>
      <trkpt lat="44.13888" lon="5.86154">
        <ele>1224</ele>
        <time>2021-06-01T11:46:59.316Z</time>
      </trkpt>
      <trkpt lat="44.13888" lon="5.86153">
        <ele>1224</ele>
        <time>2021-06-01T11:47:00.316Z</time>
      </trkpt>
      <trkpt lat="44.13887" lon="5.86153">
        <ele>1225</ele>
        <time>2021-06-01T11:47:01.316Z</time>
      </trkpt>
      <trkpt lat="44.13887" lon="5.86153">
        <ele>1225</ele>
        <time>2021-06-01T11:47:02.316Z</time>
      </trkpt>
      <trkpt lat="44.13886" lon="5.86152">
        <ele>1225</ele>
        <time>2021-06-01T11:47:03.316Z</time>
      </trkpt>
      <trkpt lat="44.13886" lon="5.86152">
        <ele>1225</ele>
        <time>2021-06-01T11:47:04.316Z</time>
      </trkpt>
      <trkpt lat="44.13885" lon="5.86152">
        <ele>1225</ele>
        <time>2021-06-01T11:47:05.316Z</time>
      </trkpt>
      <trkpt lat="44.13885" lon="5.86152">
        <ele>1225</ele>
        <time>2021-06-01T11:47:06.316Z</time>
      </trkpt>
      <trkpt lat="44.13885" lon="5.86152">
        <ele>1225</ele>
        <time>2021-06-01T11:47:07.316Z</time>
      </trkpt>
      <trkpt lat="44.13884" lon="5.86152">
        <ele>1225</ele>
        <time>2021-06-01T11:47:08.316Z</time>
      </trkpt>
      <trkpt lat="44.13884" lon="5.86152">
        <ele>1226</ele>
        <time>2021-06-01T11:47:09.316Z</time>
      </trkpt>
      <trkpt lat="44.13884" lon="5.86153">
        <ele>1226</ele>
        <time>2021-06-01T11:47:10.316Z</time>
      </trkpt>
      <trkpt lat="44.13883" lon="5.86153">
        <ele>1226</ele>
        <time>2021-06-01T11:47:11.316Z</time>
      </trkpt>
      <trkpt lat="44.13883" lon="5.86153">
        <ele>1226</ele>
        <time>2021-06-01T11:47:12.316Z</time>
      </trkpt>
      <trkpt lat="44.13883" lon="5.86153">
        <ele>1226</ele>
        <time>2021-06-01T11:47:13.316Z</time>
      </trkpt>
      <trkpt lat="44.13882" lon="5.86153">
        <ele>1226</ele>
        <time>2021-06-01T11:47:14.316Z</time>
      </trkpt>
      <trkpt lat="44.13881" lon="5.86153">
        <ele>1227</ele>
        <time>2021-06-01T11:47:15.316Z</time>
      </trkpt>
      <trkpt lat="44.13881" lon="5.86153">
        <ele>1227</ele>
        <time>2021-06-01T11:47:16.316Z</time>
      </trkpt>
      <trkpt lat="44.13881" lon="5.86152">
        <ele>1227</ele>
        <time>2021-06-01T11:47:17.316Z</time>
      </trkpt>
      <trkpt lat="44.1388" lon="5.86151">
        <ele>1227</ele>
        <time>2021-06-01T11:47:18.316Z</time>
      </trkpt>
      <trkpt lat="44.1388" lon="5.86151">
        <ele>1227</ele>
        <time>2021-06-01T11:47:19.316Z</time>
      </trkpt>
      <trkpt lat="44.13879" lon="5.8615">
        <ele>1228</ele>
        <time>2021-06-01T11:47:20.316Z</time>
      </trkpt>
      <trkpt lat="44.13879" lon="5.8615">
        <ele>1228</ele>
        <time>2021-06-01T11:47:21.316Z</time>
      </trkpt>
      <trkpt lat="44.13878" lon="5.8615">
        <ele>1228</ele>
        <time>2021-06-01T11:47:22.316Z</time>
      </trkpt>
      <trkpt lat="44.13877" lon="5.8615">
        <ele>1228</ele>
        <time>2021-06-01T11:47:23.316Z</time>
      </trkpt>
      <trkpt lat="44.13877" lon="5.86149">
        <ele>1228</ele>
        <time>2021-06-01T11:47:24.316Z</time>
      </trkpt>
      <trkpt lat="44.13876" lon="5.86149">
        <ele>1228</ele>
        <time>2021-06-01T11:47:25.316Z</time>
      </trkpt>
      <trkpt lat="44.13876" lon="5.86149">
        <ele>1229</ele>
        <time>2021-06-01T11:47:26.316Z</time>
      </trkpt>
      <trkpt lat="44.13875" lon="5.86148">
        <ele>1229</ele>
        <time>2021-06-01T11:47:27.316Z</time>
      </trkpt>
      <trkpt lat="44.13875" lon="5.86148">
        <ele>1229</ele>
        <time>2021-06-01T11:47:28.316Z</time>
      </trkpt>
      <trkpt lat="44.13874" lon="5.86147">
        <ele>1229</ele>
        <time>2021-06-01T11:47:29.316Z</time>
      </trkpt>
      <trkpt lat="44.13873" lon="5.86147">
        <ele>1229</ele>
        <time>2021-06-01T11:47:30.316Z</time>
      </trkpt>
      <trkpt lat="44.13873" lon="5.86147">
        <ele>1229</ele>
        <time>2021-06-01T11:47:31.316Z</time>
      </trkpt>
      <trkpt lat="44.13872" lon="5.86147">
        <ele>1229</ele>
        <time>2021-06-01T11:47:32.316Z</time>
      </trkpt>
      <trkpt lat="44.13872" lon="5.86146">
        <ele>1230</ele>
        <time>2021-06-01T11:47:33.316Z</time>
      </trkpt>
      <trkpt lat="44.13871" lon="5.86146">
        <ele>1230</ele>
        <time>2021-06-01T11:47:34.316Z</time>
      </trkpt>
      <trkpt lat="44.1387" lon="5.86145">
        <ele>1230</ele>
        <time>2021-06-01T11:47:35.316Z</time>
      </trkpt>
      <trkpt lat="44.13869" lon="5.86145">
        <ele>1230</ele>
        <time>2021-06-01T11:47:36.316Z</time>
      </trkpt>
      <trkpt lat="44.13869" lon="5.86145">
        <ele>1230</ele>
        <time>2021-06-01T11:47:37.316Z</time>
      </trkpt>
      <trkpt lat="44.13869" lon="5.86145">
        <ele>1230</ele>
        <time>2021-06-01T11:47:38.316Z</time>
      </trkpt>
      <trkpt lat="44.13868" lon="5.86145">
        <ele>1230</ele>
        <time>2021-06-01T11:47:39.316Z</time>
      </trkpt>
      <trkpt lat="44.13868" lon="5.86145">
        <ele>1230</ele>
        <time>2021-06-01T11:47:40.316Z</time>
      </trkpt>
      <trkpt lat="44.13867" lon="5.86145">
        <ele>1230</ele>
        <time>2021-06-01T11:47:41.316Z</time>
      </trkpt>
      <trkpt lat="44.13867" lon="5.86144">
        <ele>1231</ele>
        <time>2021-06-01T11:47:42.316Z</time>
      </trkpt>
      <trkpt lat="44.13866" lon="5.86144">
        <ele>1231</ele>
        <time>2021-06-01T11:47:43.316Z</time>
      </trkpt>
      <trkpt lat="44.13866" lon="5.86144">
        <ele>1231</ele>
        <time>2021-06-01T11:47:44.316Z</time>
      </trkpt>
      <trkpt lat="44.13865" lon="5.86144">
        <ele>1231</ele>
        <time>2021-06-01T11:47:45.316Z</time>
      </trkpt>
      <trkpt lat="44.13865" lon="5.86144">
        <ele>1231</ele>
        <time>2021-06-01T11:47:46.316Z</time>
      </trkpt>
      <trkpt lat="44.13864" lon="5.86144">
        <ele>1231</ele>
        <time>2021-06-01T11:47:47.316Z</time>
      </trkpt>
      <trkpt lat="44.13864" lon="5.86144">
        <ele>1232</ele>
        <time>2021-06-01T11:47:48.316Z</time>
      </trkpt>
      <trkpt lat="44.13863" lon="5.86143">
        <ele>1232</ele>
        <time>2021-06-01T11:47:49.316Z</time>
      </trkpt>
      <trkpt lat="44.13863" lon="5.86143">
        <ele>1232</ele>
        <time>2021-06-01T11:47:50.316Z</time>
      </trkpt>
      <trkpt lat="44.13862" lon="5.86143">
        <ele>1232</ele>
        <time>2021-06-01T11:47:51.316Z</time>
      </trkpt>
      <trkpt lat="44.13862" lon="5.86143">
        <ele>1232</ele>
        <time>2021-06-01T11:47:52.316Z</time>
      </trkpt>
      <trkpt lat="44.13862" lon="5.86143">
        <ele>1232</ele>
        <time>2021-06-01T11:47:53.316Z</time>
      </trkpt>
      <trkpt lat="44.13862" lon="5.86143">
        <ele>1232</ele>
        <time>2021-06-01T11:47:54.316Z</time>
      </trkpt>
      <trkpt lat="44.13862" lon="5.86143">
        <ele>1232</ele>
        <time>2021-06-01T11:47:55.316Z</time>
      </trkpt>
      <trkpt lat="44.13862" lon="5.86143">
        <ele>1232</ele>
        <time>2021-06-01T11:47:56.316Z</time>
      </trkpt>
      <trkpt lat="44.13862" lon="5.86143">
        <ele>1232</ele>
        <time>2021-06-01T11:47:57.316Z</time>
      </trkpt>
      <trkpt lat="44.13862" lon="5.86143">
        <ele>1233</ele>
        <time>2021-06-01T11:47:58.316Z</time>
      </trkpt>
      <trkpt lat="44.13862" lon="5.86142">
        <ele>1233</ele>
        <time>2021-06-01T11:47:59.316Z</time>
      </trkpt>
      <trkpt lat="44.13862" lon="5.86142">
        <ele>1233</ele>
        <time>2021-06-01T11:48:00.316Z</time>
      </trkpt>
      <trkpt lat="44.13861" lon="5.86142">
        <ele>1233</ele>
        <time>2021-06-01T11:48:01.316Z</time>
      </trkpt>
      <trkpt lat="44.13861" lon="5.86142">
        <ele>1233</ele>
        <time>2021-06-01T11:48:02.316Z</time>
      </trkpt>
      <trkpt lat="44.13861" lon="5.86142">
        <ele>1233</ele>
        <time>2021-06-01T11:48:03.316Z</time>
      </trkpt>
      <trkpt lat="44.13861" lon="5.86142">
        <ele>1233</ele>
        <time>2021-06-01T11:48:04.316Z</time>
      </trkpt>
      <trkpt lat="44.13861" lon="5.86142">
        <ele>1233</ele>
        <time>2021-06-01T11:48:05.316Z</time>
      </trkpt>
      <trkpt lat="44.13861" lon="5.86142">
        <ele>1233</ele>
        <time>2021-06-01T11:48:06.316Z</time>
      </trkpt>
      <trkpt lat="44.1386" lon="5.86142">
        <ele>1233</ele>
        <time>2021-06-01T11:48:07.316Z</time>
      </trkpt>
      <trkpt lat="44.1386" lon="5.86142">
        <ele>1233</ele>
        <time>2021-06-01T11:48:08.316Z</time>
      </trkpt>
      <trkpt lat="44.13859" lon="5.86142">
        <ele>1233</ele>
        <time>2021-06-01T11:48:09.316Z</time>
      </trkpt>
      <trkpt lat="44.13859" lon="5.86143">
        <ele>1233</ele>
        <time>2021-06-01T11:48:10.316Z</time>
      </trkpt>
      <trkpt lat="44.13858" lon="5.86143">
        <ele>1233</ele>
        <time>2021-06-01T11:48:11.316Z</time>
      </trkpt>
      <trkpt lat="44.13858" lon="5.86143">
        <ele>1233</ele>
        <time>2021-06-01T11:48:12.316Z</time>
      </trkpt>
      <trkpt lat="44.13857" lon="5.86144">
        <ele>1233</ele>
        <time>2021-06-01T11:48:13.316Z</time>
      </trkpt>
      <trkpt lat="44.13856" lon="5.86144">
        <ele>1233</ele>
        <time>2021-06-01T11:48:14.316Z</time>
      </trkpt>
      <trkpt lat="44.13856" lon="5.86144">
        <ele>1234</ele>
        <time>2021-06-01T11:48:15.316Z</time>
      </trkpt>
      <trkpt lat="44.13855" lon="5.86144">
        <ele>1234</ele>
        <time>2021-06-01T11:48:16.316Z</time>
      </trkpt>
      <trkpt lat="44.13855" lon="5.86144">
        <ele>1234</ele>
        <time>2021-06-01T11:48:17.316Z</time>
      </trkpt>
      <trkpt lat="44.13854" lon="5.86143">
        <ele>1234</ele>
        <time>2021-06-01T11:48:18.316Z</time>
      </trkpt>
      <trkpt lat="44.13853" lon="5.86144">
        <ele>1234</ele>
        <time>2021-06-01T11:48:19.316Z</time>
      </trkpt>
      <trkpt lat="44.13853" lon="5.86144">
        <ele>1234</ele>
        <time>2021-06-01T11:48:20.316Z</time>
      </trkpt>
      <trkpt lat="44.13852" lon="5.86144">
        <ele>1234</ele>
        <time>2021-06-01T11:48:21.316Z</time>
      </trkpt>
      <trkpt lat="44.13852" lon="5.86145">
        <ele>1234</ele>
        <time>2021-06-01T11:48:22.316Z</time>
      </trkpt>
      <trkpt lat="44.13851" lon="5.86145">
        <ele>1234</ele>
        <time>2021-06-01T11:48:23.316Z</time>
      </trkpt>
      <trkpt lat="44.1385" lon="5.86146">
        <ele>1234</ele>
        <time>2021-06-01T11:48:24.316Z</time>
      </trkpt>
      <trkpt lat="44.1385" lon="5.86147">
        <ele>1235</ele>
        <time>2021-06-01T11:48:25.316Z</time>
      </trkpt>
      <trkpt lat="44.13849" lon="5.86147">
        <ele>1235</ele>
        <time>2021-06-01T11:48:26.316Z</time>
      </trkpt>
      <trkpt lat="44.13849" lon="5.86147">
        <ele>1235</ele>
        <time>2021-06-01T11:48:27.316Z</time>
      </trkpt>
      <trkpt lat="44.13848" lon="5.86147">
        <ele>1235</ele>
        <time>2021-06-01T11:48:28.316Z</time>
      </trkpt>
      <trkpt lat="44.13848" lon="5.86147">
        <ele>1235</ele>
        <time>2021-06-01T11:48:29.316Z</time>
      </trkpt>
      <trkpt lat="44.13847" lon="5.86147">
        <ele>1235</ele>
        <time>2021-06-01T11:48:30.316Z</time>
      </trkpt>
      <trkpt lat="44.13846" lon="5.86147">
        <ele>1235</ele>
        <time>2021-06-01T11:48:31.316Z</time>
      </trkpt>
      <trkpt lat="44.13846" lon="5.86148">
        <ele>1235</ele>
        <time>2021-06-01T11:48:32.316Z</time>
      </trkpt>
      <trkpt lat="44.13846" lon="5.86147">
        <ele>1236</ele>
        <time>2021-06-01T11:48:33.316Z</time>
      </trkpt>
      <trkpt lat="44.13845" lon="5.86148">
        <ele>1236</ele>
        <time>2021-06-01T11:48:34.316Z</time>
      </trkpt>
      <trkpt lat="44.13845" lon="5.86147">
        <ele>1236</ele>
        <time>2021-06-01T11:48:35.316Z</time>
      </trkpt>
      <trkpt lat="44.13844" lon="5.86148">
        <ele>1236</ele>
        <time>2021-06-01T11:48:36.316Z</time>
      </trkpt>
      <trkpt lat="44.13843" lon="5.86148">
        <ele>1236</ele>
        <time>2021-06-01T11:48:37.316Z</time>
      </trkpt>
      <trkpt lat="44.13843" lon="5.86148">
        <ele>1237</ele>
        <time>2021-06-01T11:48:38.316Z</time>
      </trkpt>
      <trkpt lat="44.13842" lon="5.86148">
        <ele>1237</ele>
        <time>2021-06-01T11:48:39.316Z</time>
      </trkpt>
      <trkpt lat="44.13842" lon="5.86149">
        <ele>1237</ele>
        <time>2021-06-01T11:48:40.316Z</time>
      </trkpt>
      <trkpt lat="44.13841" lon="5.86149">
        <ele>1237</ele>
        <time>2021-06-01T11:48:41.316Z</time>
      </trkpt>
      <trkpt lat="44.13841" lon="5.86149">
        <ele>1237</ele>
        <time>2021-06-01T11:48:42.316Z</time>
      </trkpt>
      <trkpt lat="44.13841" lon="5.86149">
        <ele>1237</ele>
        <time>2021-06-01T11:48:43.316Z</time>
      </trkpt>
      <trkpt lat="44.1384" lon="5.86149">
        <ele>1237</ele>
        <time>2021-06-01T11:48:44.316Z</time>
      </trkpt>
      <trkpt lat="44.1384" lon="5.86148">
        <ele>1237</ele>
        <time>2021-06-01T11:48:45.316Z</time>
      </trkpt>
      <trkpt lat="44.13839" lon="5.86148">
        <ele>1238</ele>
        <time>2021-06-01T11:48:46.316Z</time>
      </trkpt>
      <trkpt lat="44.13838" lon="5.86148">
        <ele>1238</ele>
        <time>2021-06-01T11:48:47.316Z</time>
      </trkpt>
      <trkpt lat="44.13837" lon="5.86147">
        <ele>1238</ele>
        <time>2021-06-01T11:48:48.316Z</time>
      </trkpt>
      <trkpt lat="44.13837" lon="5.86147">
        <ele>1238</ele>
        <time>2021-06-01T11:48:49.316Z</time>
      </trkpt>
      <trkpt lat="44.13836" lon="5.86146">
        <ele>1238</ele>
        <time>2021-06-01T11:48:50.316Z</time>
      </trkpt>
      <trkpt lat="44.13835" lon="5.86146">
        <ele>1238</ele>
        <time>2021-06-01T11:48:51.316Z</time>
      </trkpt>
      <trkpt lat="44.13834" lon="5.86145">
        <ele>1239</ele>
        <time>2021-06-01T11:48:52.316Z</time>
      </trkpt>
      <trkpt lat="44.13834" lon="5.86145">
        <ele>1239</ele>
        <time>2021-06-01T11:48:53.316Z</time>
      </trkpt>
      <trkpt lat="44.13833" lon="5.86145">
        <ele>1239</ele>
        <time>2021-06-01T11:48:54.316Z</time>
      </trkpt>
      <trkpt lat="44.13832" lon="5.86145">
        <ele>1239</ele>
        <time>2021-06-01T11:48:55.316Z</time>
      </trkpt>
      <trkpt lat="44.13832" lon="5.86145">
        <ele>1240</ele>
        <time>2021-06-01T11:48:56.316Z</time>
      </trkpt>
      <trkpt lat="44.13831" lon="5.86145">
        <ele>1240</ele>
        <time>2021-06-01T11:48:57.316Z</time>
      </trkpt>
      <trkpt lat="44.1383" lon="5.86144">
        <ele>1240</ele>
        <time>2021-06-01T11:48:58.316Z</time>
      </trkpt>
      <trkpt lat="44.1383" lon="5.86145">
        <ele>1240</ele>
        <time>2021-06-01T11:48:59.316Z</time>
      </trkpt>
      <trkpt lat="44.13829" lon="5.86145">
        <ele>1240</ele>
        <time>2021-06-01T11:49:00.316Z</time>
      </trkpt>
      <trkpt lat="44.13828" lon="5.86145">
        <ele>1240</ele>
        <time>2021-06-01T11:49:01.316Z</time>
      </trkpt>
      <trkpt lat="44.13828" lon="5.86144">
        <ele>1240</ele>
        <time>2021-06-01T11:49:02.316Z</time>
      </trkpt>
      <trkpt lat="44.13827" lon="5.86145">
        <ele>1241</ele>
        <time>2021-06-01T11:49:03.316Z</time>
      </trkpt>
      <trkpt lat="44.13827" lon="5.86144">
        <ele>1241</ele>
        <time>2021-06-01T11:49:04.316Z</time>
      </trkpt>
      <trkpt lat="44.13826" lon="5.86144">
        <ele>1241</ele>
        <time>2021-06-01T11:49:05.316Z</time>
      </trkpt>
      <trkpt lat="44.13825" lon="5.86144">
        <ele>1241</ele>
        <time>2021-06-01T11:49:06.316Z</time>
      </trkpt>
      <trkpt lat="44.13825" lon="5.86144">
        <ele>1241</ele>
        <time>2021-06-01T11:49:07.316Z</time>
      </trkpt>
      <trkpt lat="44.13825" lon="5.86144">
        <ele>1241</ele>
        <time>2021-06-01T11:49:08.316Z</time>
      </trkpt>
      <trkpt lat="44.13824" lon="5.86144">
        <ele>1241</ele>
        <time>2021-06-01T11:49:09.316Z</time>
      </trkpt>
      <trkpt lat="44.13824" lon="5.86144">
        <ele>1241</ele>
        <time>2021-06-01T11:49:10.316Z</time>
      </trkpt>
      <trkpt lat="44.13824" lon="5.86144">
        <ele>1242</ele>
        <time>2021-06-01T11:49:11.316Z</time>
      </trkpt>
      <trkpt lat="44.13823" lon="5.86144">
        <ele>1242</ele>
        <time>2021-06-01T11:49:12.316Z</time>
      </trkpt>
      <trkpt lat="44.13822" lon="5.86144">
        <ele>1242</ele>
        <time>2021-06-01T11:49:13.316Z</time>
      </trkpt>
      <trkpt lat="44.13822" lon="5.86144">
        <ele>1242</ele>
        <time>2021-06-01T11:49:14.316Z</time>
      </trkpt>
      <trkpt lat="44.13821" lon="5.86144">
        <ele>1242</ele>
        <time>2021-06-01T11:49:15.316Z</time>
      </trkpt>
      <trkpt lat="44.13821" lon="5.86144">
        <ele>1242</ele>
        <time>2021-06-01T11:49:16.316Z</time>
      </trkpt>
      <trkpt lat="44.1382" lon="5.86144">
        <ele>1242</ele>
        <time>2021-06-01T11:49:17.316Z</time>
      </trkpt>
      <trkpt lat="44.1382" lon="5.86144">
        <ele>1243</ele>
        <time>2021-06-01T11:49:18.316Z</time>
      </trkpt>
      <trkpt lat="44.1382" lon="5.86145">
        <ele>1243</ele>
        <time>2021-06-01T11:49:19.316Z</time>
      </trkpt>
      <trkpt lat="44.13819" lon="5.86145">
        <ele>1243</ele>
        <time>2021-06-01T11:49:20.316Z</time>
      </trkpt>
      <trkpt lat="44.13819" lon="5.86145">
        <ele>1243</ele>
        <time>2021-06-01T11:49:21.316Z</time>
      </trkpt>
      <trkpt lat="44.13819" lon="5.86145">
        <ele>1243</ele>
        <time>2021-06-01T11:49:22.316Z</time>
      </trkpt>
      <trkpt lat="44.13819" lon="5.86145">
        <ele>1243</ele>
        <time>2021-06-01T11:49:23.316Z</time>
      </trkpt>
      <trkpt lat="44.13818" lon="5.86145">
        <ele>1244</ele>
        <time>2021-06-01T11:49:24.316Z</time>
      </trkpt>
      <trkpt lat="44.13818" lon="5.86145">
        <ele>1244</ele>
        <time>2021-06-01T11:49:25.316Z</time>
      </trkpt>
      <trkpt lat="44.13818" lon="5.86145">
        <ele>1244</ele>
        <time>2021-06-01T11:49:26.316Z</time>
      </trkpt>
      <trkpt lat="44.13818" lon="5.86145">
        <ele>1244</ele>
        <time>2021-06-01T11:49:27.316Z</time>
      </trkpt>
      <trkpt lat="44.13818" lon="5.86145">
        <ele>1244</ele>
        <time>2021-06-01T11:49:28.316Z</time>
      </trkpt>
      <trkpt lat="44.13817" lon="5.86145">
        <ele>1244</ele>
        <time>2021-06-01T11:49:29.316Z</time>
      </trkpt>
      <trkpt lat="44.13817" lon="5.86145">
        <ele>1244</ele>
        <time>2021-06-01T11:49:30.316Z</time>
      </trkpt>
      <trkpt lat="44.13817" lon="5.86145">
        <ele>1244</ele>
        <time>2021-06-01T11:49:31.316Z</time>
      </trkpt>
      <trkpt lat="44.13817" lon="5.86145">
        <ele>1245</ele>
        <time>2021-06-01T11:49:32.316Z</time>
      </trkpt>
      <trkpt lat="44.13817" lon="5.86145">
        <ele>1245</ele>
        <time>2021-06-01T11:49:33.316Z</time>
      </trkpt>
      <trkpt lat="44.13817" lon="5.86145">
        <ele>1245</ele>
        <time>2021-06-01T11:49:34.316Z</time>
      </trkpt>
      <trkpt lat="44.13817" lon="5.86146">
        <ele>1245</ele>
        <time>2021-06-01T11:49:35.316Z</time>
      </trkpt>
      <trkpt lat="44.13817" lon="5.86146">
        <ele>1245</ele>
        <time>2021-06-01T11:49:36.316Z</time>
      </trkpt>
      <trkpt lat="44.13816" lon="5.86146">
        <ele>1245</ele>
        <time>2021-06-01T11:49:37.316Z</time>
      </trkpt>
      <trkpt lat="44.13816" lon="5.86146">
        <ele>1245</ele>
        <time>2021-06-01T11:49:38.316Z</time>
      </trkpt>
      <trkpt lat="44.13815" lon="5.86146">
        <ele>1245</ele>
        <time>2021-06-01T11:49:39.316Z</time>
      </trkpt>
      <trkpt lat="44.13815" lon="5.86146">
        <ele>1245</ele>
        <time>2021-06-01T11:49:40.316Z</time>
      </trkpt>
      <trkpt lat="44.13814" lon="5.86146">
        <ele>1245</ele>
        <time>2021-06-01T11:49:41.316Z</time>
      </trkpt>
      <trkpt lat="44.13814" lon="5.86145">
        <ele>1245</ele>
        <time>2021-06-01T11:49:42.316Z</time>
      </trkpt>
      <trkpt lat="44.13813" lon="5.86145">
        <ele>1246</ele>
        <time>2021-06-01T11:49:43.316Z</time>
      </trkpt>
      <trkpt lat="44.13812" lon="5.86145">
        <ele>1246</ele>
        <time>2021-06-01T11:49:44.316Z</time>
      </trkpt>
      <trkpt lat="44.13812" lon="5.86145">
        <ele>1246</ele>
        <time>2021-06-01T11:49:45.316Z</time>
      </trkpt>
      <trkpt lat="44.13811" lon="5.86145">
        <ele>1246</ele>
        <time>2021-06-01T11:49:46.316Z</time>
      </trkpt>
      <trkpt lat="44.1381" lon="5.86145">
        <ele>1246</ele>
        <time>2021-06-01T11:49:47.316Z</time>
      </trkpt>
      <trkpt lat="44.13809" lon="5.86145">
        <ele>1246</ele>
        <time>2021-06-01T11:49:48.316Z</time>
      </trkpt>
      <trkpt lat="44.13809" lon="5.86145">
        <ele>1246</ele>
        <time>2021-06-01T11:49:49.316Z</time>
      </trkpt>
      <trkpt lat="44.13808" lon="5.86145">
        <ele>1246</ele>
        <time>2021-06-01T11:49:50.316Z</time>
      </trkpt>
      <trkpt lat="44.13808" lon="5.86145">
        <ele>1246</ele>
        <time>2021-06-01T11:49:51.316Z</time>
      </trkpt>
      <trkpt lat="44.13807" lon="5.86144">
        <ele>1246</ele>
        <time>2021-06-01T11:49:52.316Z</time>
      </trkpt>
      <trkpt lat="44.13807" lon="5.86144">
        <ele>1246</ele>
        <time>2021-06-01T11:49:53.316Z</time>
      </trkpt>
      <trkpt lat="44.13806" lon="5.86144">
        <ele>1246</ele>
        <time>2021-06-01T11:49:54.316Z</time>
      </trkpt>
      <trkpt lat="44.13805" lon="5.86144">
        <ele>1247</ele>
        <time>2021-06-01T11:49:55.316Z</time>
      </trkpt>
      <trkpt lat="44.13805" lon="5.86145">
        <ele>1247</ele>
        <time>2021-06-01T11:49:56.316Z</time>
      </trkpt>
      <trkpt lat="44.13804" lon="5.86145">
        <ele>1247</ele>
        <time>2021-06-01T11:49:57.316Z</time>
      </trkpt>
      <trkpt lat="44.13804" lon="5.86145">
        <ele>1247</ele>
        <time>2021-06-01T11:49:58.316Z</time>
      </trkpt>
      <trkpt lat="44.13803" lon="5.86146">
        <ele>1247</ele>
        <time>2021-06-01T11:49:59.316Z</time>
      </trkpt>
      <trkpt lat="44.13803" lon="5.86146">
        <ele>1247</ele>
        <time>2021-06-01T11:50:00.316Z</time>
      </trkpt>
      <trkpt lat="44.13802" lon="5.86147">
        <ele>1247</ele>
        <time>2021-06-01T11:50:01.316Z</time>
      </trkpt>
      <trkpt lat="44.13801" lon="5.86147">
        <ele>1248</ele>
        <time>2021-06-01T11:50:02.316Z</time>
      </trkpt>
      <trkpt lat="44.13801" lon="5.86147">
        <ele>1248</ele>
        <time>2021-06-01T11:50:03.316Z</time>
      </trkpt>
      <trkpt lat="44.138" lon="5.86147">
        <ele>1248</ele>
        <time>2021-06-01T11:50:04.316Z</time>
      </trkpt>
      <trkpt lat="44.13799" lon="5.86147">
        <ele>1248</ele>
        <time>2021-06-01T11:50:05.316Z</time>
      </trkpt>
      <trkpt lat="44.13798" lon="5.86147">
        <ele>1248</ele>
        <time>2021-06-01T11:50:06.316Z</time>
      </trkpt>
      <trkpt lat="44.13797" lon="5.86147">
        <ele>1248</ele>
        <time>2021-06-01T11:50:07.316Z</time>
      </trkpt>
      <trkpt lat="44.13797" lon="5.86147">
        <ele>1248</ele>
        <time>2021-06-01T11:50:08.316Z</time>
      </trkpt>
      <trkpt lat="44.13796" lon="5.86147">
        <ele>1248</ele>
        <time>2021-06-01T11:50:09.316Z</time>
      </trkpt>
      <trkpt lat="44.13796" lon="5.86147">
        <ele>1249</ele>
        <time>2021-06-01T11:50:10.316Z</time>
      </trkpt>
      <trkpt lat="44.13795" lon="5.86147">
        <ele>1249</ele>
        <time>2021-06-01T11:50:11.316Z</time>
      </trkpt>
      <trkpt lat="44.13795" lon="5.86147">
        <ele>1249</ele>
        <time>2021-06-01T11:50:12.316Z</time>
      </trkpt>
      <trkpt lat="44.13794" lon="5.86147">
        <ele>1249</ele>
        <time>2021-06-01T11:50:13.316Z</time>
      </trkpt>
      <trkpt lat="44.13793" lon="5.86148">
        <ele>1249</ele>
        <time>2021-06-01T11:50:14.316Z</time>
      </trkpt>
      <trkpt lat="44.13793" lon="5.86148">
        <ele>1249</ele>
        <time>2021-06-01T11:50:15.316Z</time>
      </trkpt>
      <trkpt lat="44.13792" lon="5.86148">
        <ele>1249</ele>
        <time>2021-06-01T11:50:16.316Z</time>
      </trkpt>
      <trkpt lat="44.13791" lon="5.86148">
        <ele>1249</ele>
        <time>2021-06-01T11:50:17.316Z</time>
      </trkpt>
      <trkpt lat="44.1379" lon="5.86148">
        <ele>1249</ele>
        <time>2021-06-01T11:50:18.316Z</time>
      </trkpt>
      <trkpt lat="44.13789" lon="5.86149">
        <ele>1249</ele>
        <time>2021-06-01T11:50:19.316Z</time>
      </trkpt>
      <trkpt lat="44.13788" lon="5.86148">
        <ele>1249</ele>
        <time>2021-06-01T11:50:20.316Z</time>
      </trkpt>
      <trkpt lat="44.13787" lon="5.86148">
        <ele>1249</ele>
        <time>2021-06-01T11:50:21.316Z</time>
      </trkpt>
      <trkpt lat="44.13786" lon="5.86148">
        <ele>1249</ele>
        <time>2021-06-01T11:50:22.316Z</time>
      </trkpt>
      <trkpt lat="44.13786" lon="5.86149">
        <ele>1249</ele>
        <time>2021-06-01T11:50:23.316Z</time>
      </trkpt>
      <trkpt lat="44.13785" lon="5.86149">
        <ele>1249</ele>
        <time>2021-06-01T11:50:24.316Z</time>
      </trkpt>
      <trkpt lat="44.13784" lon="5.86149">
        <ele>1249</ele>
        <time>2021-06-01T11:50:25.316Z</time>
      </trkpt>
      <trkpt lat="44.13784" lon="5.86149">
        <ele>1249</ele>
        <time>2021-06-01T11:50:26.316Z</time>
      </trkpt>
      <trkpt lat="44.13783" lon="5.8615">
        <ele>1249</ele>
        <time>2021-06-01T11:50:27.316Z</time>
      </trkpt>
      <trkpt lat="44.13783" lon="5.8615">
        <ele>1249</ele>
        <time>2021-06-01T11:50:28.316Z</time>
      </trkpt>
      <trkpt lat="44.13782" lon="5.8615">
        <ele>1249</ele>
        <time>2021-06-01T11:50:29.316Z</time>
      </trkpt>
      <trkpt lat="44.13781" lon="5.86151">
        <ele>1250</ele>
        <time>2021-06-01T11:50:30.316Z</time>
      </trkpt>
      <trkpt lat="44.1378" lon="5.86151">
        <ele>1250</ele>
        <time>2021-06-01T11:50:31.316Z</time>
      </trkpt>
      <trkpt lat="44.13779" lon="5.86151">
        <ele>1250</ele>
        <time>2021-06-01T11:50:32.316Z</time>
      </trkpt>
      <trkpt lat="44.13779" lon="5.86152">
        <ele>1250</ele>
        <time>2021-06-01T11:50:33.316Z</time>
      </trkpt>
      <trkpt lat="44.13778" lon="5.86152">
        <ele>1250</ele>
        <time>2021-06-01T11:50:34.316Z</time>
      </trkpt>
      <trkpt lat="44.13777" lon="5.86152">
        <ele>1250</ele>
        <time>2021-06-01T11:50:35.316Z</time>
      </trkpt>
      <trkpt lat="44.13776" lon="5.86152">
        <ele>1250</ele>
        <time>2021-06-01T11:50:36.316Z</time>
      </trkpt>
      <trkpt lat="44.13776" lon="5.86152">
        <ele>1250</ele>
        <time>2021-06-01T11:50:37.316Z</time>
      </trkpt>
      <trkpt lat="44.13775" lon="5.86152">
        <ele>1250</ele>
        <time>2021-06-01T11:50:38.316Z</time>
      </trkpt>
      <trkpt lat="44.13774" lon="5.86152">
        <ele>1250</ele>
        <time>2021-06-01T11:50:39.316Z</time>
      </trkpt>
      <trkpt lat="44.13774" lon="5.86152">
        <ele>1250</ele>
        <time>2021-06-01T11:50:40.316Z</time>
      </trkpt>
      <trkpt lat="44.13773" lon="5.86153">
        <ele>1250</ele>
        <time>2021-06-01T11:50:41.316Z</time>
      </trkpt>
      <trkpt lat="44.13772" lon="5.86153">
        <ele>1250</ele>
        <time>2021-06-01T11:50:42.316Z</time>
      </trkpt>
      <trkpt lat="44.13772" lon="5.86153">
        <ele>1250</ele>
        <time>2021-06-01T11:50:43.316Z</time>
      </trkpt>
      <trkpt lat="44.13771" lon="5.86154">
        <ele>1250</ele>
        <time>2021-06-01T11:50:44.316Z</time>
      </trkpt>
      <trkpt lat="44.13771" lon="5.86154">
        <ele>1250</ele>
        <time>2021-06-01T11:50:45.316Z</time>
      </trkpt>
      <trkpt lat="44.1377" lon="5.86155">
        <ele>1251</ele>
        <time>2021-06-01T11:50:46.316Z</time>
      </trkpt>
      <trkpt lat="44.13769" lon="5.86155">
        <ele>1251</ele>
        <time>2021-06-01T11:50:47.316Z</time>
      </trkpt>
      <trkpt lat="44.13768" lon="5.86156">
        <ele>1251</ele>
        <time>2021-06-01T11:50:48.316Z</time>
      </trkpt>
      <trkpt lat="44.13768" lon="5.86156">
        <ele>1251</ele>
        <time>2021-06-01T11:50:49.316Z</time>
      </trkpt>
      <trkpt lat="44.13767" lon="5.86157">
        <ele>1251</ele>
        <time>2021-06-01T11:50:50.316Z</time>
      </trkpt>
      <trkpt lat="44.13766" lon="5.86157">
        <ele>1251</ele>
        <time>2021-06-01T11:50:51.316Z</time>
      </trkpt>
      <trkpt lat="44.13765" lon="5.86157">
        <ele>1251</ele>
        <time>2021-06-01T11:50:52.316Z</time>
      </trkpt>
      <trkpt lat="44.13764" lon="5.86157">
        <ele>1251</ele>
        <time>2021-06-01T11:50:53.316Z</time>
      </trkpt>
      <trkpt lat="44.13764" lon="5.86158">
        <ele>1251</ele>
        <time>2021-06-01T11:50:54.316Z</time>
      </trkpt>
      <trkpt lat="44.13764" lon="5.86158">
        <ele>1251</ele>
        <time>2021-06-01T11:50:55.316Z</time>
      </trkpt>
      <trkpt lat="44.13763" lon="5.86158">
        <ele>1251</ele>
        <time>2021-06-01T11:50:56.316Z</time>
      </trkpt>
      <trkpt lat="44.13763" lon="5.86158">
        <ele>1251</ele>
        <time>2021-06-01T11:50:57.316Z</time>
      </trkpt>
      <trkpt lat="44.13763" lon="5.86158">
        <ele>1251</ele>
        <time>2021-06-01T11:50:58.316Z</time>
      </trkpt>
      <trkpt lat="44.13763" lon="5.86158">
        <ele>1251</ele>
        <time>2021-06-01T11:50:59.316Z</time>
      </trkpt>
      <trkpt lat="44.13763" lon="5.86158">
        <ele>1251</ele>
        <time>2021-06-01T11:51:00.316Z</time>
      </trkpt>
      <trkpt lat="44.13762" lon="5.86158">
        <ele>1251</ele>
        <time>2021-06-01T11:51:01.316Z</time>
      </trkpt>
      <trkpt lat="44.13762" lon="5.86158">
        <ele>1252</ele>
        <time>2021-06-01T11:51:02.316Z</time>
      </trkpt>
      <trkpt lat="44.13762" lon="5.86158">
        <ele>1252</ele>
        <time>2021-06-01T11:51:03.316Z</time>
      </trkpt>
      <trkpt lat="44.13762" lon="5.86158">
        <ele>1252</ele>
        <time>2021-06-01T11:51:04.316Z</time>
      </trkpt>
      <trkpt lat="44.13762" lon="5.86158">
        <ele>1252</ele>
        <time>2021-06-01T11:51:05.316Z</time>
      </trkpt>
      <trkpt lat="44.13762" lon="5.86158">
        <ele>1252</ele>
        <time>2021-06-01T11:51:06.316Z</time>
      </trkpt>
      <trkpt lat="44.13762" lon="5.86158">
        <ele>1252</ele>
        <time>2021-06-01T11:51:07.316Z</time>
      </trkpt>
      <trkpt lat="44.13761" lon="5.86158">
        <ele>1252</ele>
        <time>2021-06-01T11:51:08.316Z</time>
      </trkpt>
      <trkpt lat="44.13761" lon="5.86158">
        <ele>1252</ele>
        <time>2021-06-01T11:51:09.316Z</time>
      </trkpt>
      <trkpt lat="44.13761" lon="5.86158">
        <ele>1252</ele>
        <time>2021-06-01T11:51:10.316Z</time>
      </trkpt>
      <trkpt lat="44.13761" lon="5.86158">
        <ele>1252</ele>
        <time>2021-06-01T11:51:11.316Z</time>
      </trkpt>
      <trkpt lat="44.13761" lon="5.86158">
        <ele>1252</ele>
        <time>2021-06-01T11:51:12.316Z</time>
      </trkpt>
      <trkpt lat="44.13761" lon="5.86158">
        <ele>1252</ele>
        <time>2021-06-01T11:51:13.316Z</time>
      </trkpt>
      <trkpt lat="44.13761" lon="5.86158">
        <ele>1252</ele>
        <time>2021-06-01T11:51:14.316Z</time>
      </trkpt>
      <trkpt lat="44.13761" lon="5.86158">
        <ele>1252</ele>
        <time>2021-06-01T11:51:15.316Z</time>
      </trkpt>
      <trkpt lat="44.13761" lon="5.86158">
        <ele>1252</ele>
        <time>2021-06-01T11:51:16.316Z</time>
      </trkpt>
      <trkpt lat="44.13761" lon="5.86158">
        <ele>1252</ele>
        <time>2021-06-01T11:51:17.316Z</time>
      </trkpt>
      <trkpt lat="44.13761" lon="5.86158">
        <ele>1252</ele>
        <time>2021-06-01T11:51:18.316Z</time>
      </trkpt>
      <trkpt lat="44.13761" lon="5.86158">
        <ele>1252</ele>
        <time>2021-06-01T11:51:19.316Z</time>
      </trkpt>
      <trkpt lat="44.13761" lon="5.86158">
        <ele>1252</ele>
        <time>2021-06-01T11:51:20.316Z</time>
      </trkpt>
      <trkpt lat="44.13761" lon="5.86158">
        <ele>1252</ele>
        <time>2021-06-01T11:51:21.316Z</time>
      </trkpt>
      <trkpt lat="44.13761" lon="5.86158">
        <ele>1252</ele>
        <time>2021-06-01T11:51:22.316Z</time>
      </trkpt>
      <trkpt lat="44.13761" lon="5.86158">
        <ele>1252</ele>
        <time>2021-06-01T11:51:23.316Z</time>
      </trkpt>
      <trkpt lat="44.13761" lon="5.86158">
        <ele>1252</ele>
        <time>2021-06-01T11:51:24.316Z</time>
      </trkpt>
      <trkpt lat="44.13761" lon="5.86158">
        <ele>1252</ele>
        <time>2021-06-01T11:51:25.316Z</time>
      </trkpt>
      <trkpt lat="44.13761" lon="5.86158">
        <ele>1252</ele>
        <time>2021-06-01T11:51:26.316Z</time>
      </trkpt>
      <trkpt lat="44.1376" lon="5.86158">
        <ele>1252</ele>
        <time>2021-06-01T11:51:27.316Z</time>
      </trkpt>
      <trkpt lat="44.1376" lon="5.86158">
        <ele>1252</ele>
        <time>2021-06-01T11:51:28.316Z</time>
      </trkpt>
      <trkpt lat="44.1376" lon="5.86158">
        <ele>1252</ele>
        <time>2021-06-01T11:51:29.316Z</time>
      </trkpt>
      <trkpt lat="44.1376" lon="5.86158">
        <ele>1252</ele>
        <time>2021-06-01T11:51:30.316Z</time>
      </trkpt>
      <trkpt lat="44.1376" lon="5.86158">
        <ele>1252</ele>
        <time>2021-06-01T11:51:31.316Z</time>
      </trkpt>
      <trkpt lat="44.1376" lon="5.86158">
        <ele>1252</ele>
        <time>2021-06-01T11:51:32.316Z</time>
      </trkpt>
      <trkpt lat="44.1376" lon="5.86158">
        <ele>1252</ele>
        <time>2021-06-01T11:51:33.316Z</time>
      </trkpt>
      <trkpt lat="44.1376" lon="5.86158">
        <ele>1252</ele>
        <time>2021-06-01T11:51:34.316Z</time>
      </trkpt>
      <trkpt lat="44.1376" lon="5.86158">
        <ele>1252</ele>
        <time>2021-06-01T11:51:35.316Z</time>
      </trkpt>
      <trkpt lat="44.1376" lon="5.86158">
        <ele>1252</ele>
        <time>2021-06-01T11:51:36.316Z</time>
      </trkpt>
      <trkpt lat="44.1376" lon="5.86158">
        <ele>1252</ele>
        <time>2021-06-01T11:51:37.316Z</time>
      </trkpt>
      <trkpt lat="44.1376" lon="5.86158">
        <ele>1252</ele>
        <time>2021-06-01T11:51:38.316Z</time>
      </trkpt>
      <trkpt lat="44.1376" lon="5.86158">
        <ele>1252</ele>
        <time>2021-06-01T11:51:39.316Z</time>
      </trkpt>
      <trkpt lat="44.1376" lon="5.86158">
        <ele>1252</ele>
        <time>2021-06-01T11:51:40.316Z</time>
      </trkpt>
      <trkpt lat="44.1376" lon="5.86158">
        <ele>1252</ele>
        <time>2021-06-01T11:51:41.316Z</time>
      </trkpt>
      <trkpt lat="44.1376" lon="5.86158">
        <ele>1252</ele>
        <time>2021-06-01T11:51:42.316Z</time>
      </trkpt>
      <trkpt lat="44.1376" lon="5.86158">
        <ele>1252</ele>
        <time>2021-06-01T11:51:43.316Z</time>
      </trkpt>
      <trkpt lat="44.1376" lon="5.86158">
        <ele>1252</ele>
        <time>2021-06-01T11:51:44.316Z</time>
      </trkpt>
      <trkpt lat="44.1376" lon="5.86158">
        <ele>1252</ele>
        <time>2021-06-01T11:51:45.316Z</time>
      </trkpt>
      <trkpt lat="44.1376" lon="5.86158">
        <ele>1252</ele>
        <time>2021-06-01T11:51:46.316Z</time>
      </trkpt>
      <trkpt lat="44.1376" lon="5.86158">
        <ele>1252</ele>
        <time>2021-06-01T11:51:47.316Z</time>
      </trkpt>
      <trkpt lat="44.1376" lon="5.86158">
        <ele>1252</ele>
        <time>2021-06-01T11:51:48.316Z</time>
      </trkpt>
      <trkpt lat="44.1376" lon="5.86158">
        <ele>1252</ele>
        <time>2021-06-01T11:51:49.316Z</time>
      </trkpt>
      <trkpt lat="44.1376" lon="5.86158">
        <ele>1252</ele>
        <time>2021-06-01T11:51:50.316Z</time>
      </trkpt>
      <trkpt lat="44.1376" lon="5.86158">
        <ele>1252</ele>
        <time>2021-06-01T11:51:51.316Z</time>
      </trkpt>
      <trkpt lat="44.1376" lon="5.86158">
        <ele>1252</ele>
        <time>2021-06-01T11:51:52.316Z</time>
      </trkpt>
      <trkpt lat="44.1376" lon="5.86159">
        <ele>1252</ele>
        <time>2021-06-01T11:51:53.316Z</time>
      </trkpt>
      <trkpt lat="44.1376" lon="5.86159">
        <ele>1252</ele>
        <time>2021-06-01T11:51:54.316Z</time>
      </trkpt>
      <trkpt lat="44.1376" lon="5.86159">
        <ele>1252</ele>
        <time>2021-06-01T11:51:55.316Z</time>
      </trkpt>
      <trkpt lat="44.1376" lon="5.8616">
        <ele>1251</ele>
        <time>2021-06-01T11:51:56.316Z</time>
      </trkpt>
      <trkpt lat="44.13759" lon="5.8616">
        <ele>1251</ele>
        <time>2021-06-01T11:51:57.316Z</time>
      </trkpt>
      <trkpt lat="44.13759" lon="5.8616">
        <ele>1251</ele>
        <time>2021-06-01T11:51:58.316Z</time>
      </trkpt>
      <trkpt lat="44.13758" lon="5.8616">
        <ele>1251</ele>
        <time>2021-06-01T11:51:59.316Z</time>
      </trkpt>
      <trkpt lat="44.13758" lon="5.8616">
        <ele>1251</ele>
        <time>2021-06-01T11:52:00.316Z</time>
      </trkpt>
      <trkpt lat="44.13757" lon="5.8616">
        <ele>1251</ele>
        <time>2021-06-01T11:52:01.316Z</time>
      </trkpt>
      <trkpt lat="44.13757" lon="5.86161">
        <ele>1251</ele>
        <time>2021-06-01T11:52:02.316Z</time>
      </trkpt>
      <trkpt lat="44.13756" lon="5.86161">
        <ele>1251</ele>
        <time>2021-06-01T11:52:03.316Z</time>
      </trkpt>
      <trkpt lat="44.13755" lon="5.86162">
        <ele>1251</ele>
        <time>2021-06-01T11:52:04.316Z</time>
      </trkpt>
      <trkpt lat="44.13754" lon="5.86162">
        <ele>1251</ele>
        <time>2021-06-01T11:52:05.316Z</time>
      </trkpt>
      <trkpt lat="44.13753" lon="5.86162">
        <ele>1252</ele>
        <time>2021-06-01T11:52:06.316Z</time>
      </trkpt>
      <trkpt lat="44.13753" lon="5.86163">
        <ele>1252</ele>
        <time>2021-06-01T11:52:07.316Z</time>
      </trkpt>
      <trkpt lat="44.13752" lon="5.86164">
        <ele>1252</ele>
        <time>2021-06-01T11:52:08.316Z</time>
      </trkpt>
      <trkpt lat="44.13752" lon="5.86165">
        <ele>1252</ele>
        <time>2021-06-01T11:52:09.316Z</time>
      </trkpt>
      <trkpt lat="44.13751" lon="5.86166">
        <ele>1252</ele>
        <time>2021-06-01T11:52:10.316Z</time>
      </trkpt>
      <trkpt lat="44.13751" lon="5.86166">
        <ele>1252</ele>
        <time>2021-06-01T11:52:11.316Z</time>
      </trkpt>
      <trkpt lat="44.13751" lon="5.86166">
        <ele>1253</ele>
        <time>2021-06-01T11:52:12.316Z</time>
      </trkpt>
      <trkpt lat="44.13751" lon="5.86166">
        <ele>1253</ele>
        <time>2021-06-01T11:52:13.316Z</time>
      </trkpt>
      <trkpt lat="44.13751" lon="5.86166">
        <ele>1253</ele>
        <time>2021-06-01T11:52:14.316Z</time>
      </trkpt>
      <trkpt lat="44.13751" lon="5.86166">
        <ele>1253</ele>
        <time>2021-06-01T11:52:15.316Z</time>
      </trkpt>
      <trkpt lat="44.13751" lon="5.86166">
        <ele>1254</ele>
        <time>2021-06-01T11:52:16.316Z</time>
      </trkpt>
      <trkpt lat="44.13751" lon="5.86166">
        <ele>1254</ele>
        <time>2021-06-01T11:52:17.316Z</time>
      </trkpt>
      <trkpt lat="44.13751" lon="5.86166">
        <ele>1254</ele>
        <time>2021-06-01T11:52:18.316Z</time>
      </trkpt>
      <trkpt lat="44.13751" lon="5.86166">
        <ele>1254</ele>
        <time>2021-06-01T11:52:19.316Z</time>
      </trkpt>
      <trkpt lat="44.1375" lon="5.86167">
        <ele>1254</ele>
        <time>2021-06-01T11:52:20.316Z</time>
      </trkpt>
      <trkpt lat="44.1375" lon="5.86167">
        <ele>1254</ele>
        <time>2021-06-01T11:52:21.316Z</time>
      </trkpt>
      <trkpt lat="44.1375" lon="5.86167">
        <ele>1254</ele>
        <time>2021-06-01T11:52:22.316Z</time>
      </trkpt>
      <trkpt lat="44.1375" lon="5.86167">
        <ele>1254</ele>
        <time>2021-06-01T11:52:23.316Z</time>
      </trkpt>
      <trkpt lat="44.1375" lon="5.86167">
        <ele>1255</ele>
        <time>2021-06-01T11:52:24.316Z</time>
      </trkpt>
      <trkpt lat="44.1375" lon="5.86167">
        <ele>1255</ele>
        <time>2021-06-01T11:52:25.316Z</time>
      </trkpt>
      <trkpt lat="44.1375" lon="5.86167">
        <ele>1255</ele>
        <time>2021-06-01T11:52:26.316Z</time>
      </trkpt>
      <trkpt lat="44.1375" lon="5.86167">
        <ele>1255</ele>
        <time>2021-06-01T11:52:27.316Z</time>
      </trkpt>
      <trkpt lat="44.1375" lon="5.86167">
        <ele>1255</ele>
        <time>2021-06-01T11:52:28.316Z</time>
      </trkpt>
      <trkpt lat="44.1375" lon="5.86167">
        <ele>1255</ele>
        <time>2021-06-01T11:52:29.316Z</time>
      </trkpt>
      <trkpt lat="44.1375" lon="5.86167">
        <ele>1255</ele>
        <time>2021-06-01T11:52:30.316Z</time>
      </trkpt>
      <trkpt lat="44.1375" lon="5.86167">
        <ele>1255</ele>
        <time>2021-06-01T11:52:31.316Z</time>
      </trkpt>
      <trkpt lat="44.1375" lon="5.86167">
        <ele>1255</ele>
        <time>2021-06-01T11:52:32.316Z</time>
      </trkpt>
      <trkpt lat="44.1375" lon="5.86167">
        <ele>1255</ele>
        <time>2021-06-01T11:52:33.316Z</time>
      </trkpt>
      <trkpt lat="44.1375" lon="5.86167">
        <ele>1255</ele>
        <time>2021-06-01T11:52:34.316Z</time>
      </trkpt>
      <trkpt lat="44.1375" lon="5.86167">
        <ele>1255</ele>
        <time>2021-06-01T11:52:35.316Z</time>
      </trkpt>
      <trkpt lat="44.1375" lon="5.86167">
        <ele>1255</ele>
        <time>2021-06-01T11:52:36.316Z</time>
      </trkpt>
      <trkpt lat="44.1375" lon="5.86167">
        <ele>1256</ele>
        <time>2021-06-01T11:52:37.316Z</time>
      </trkpt>
      <trkpt lat="44.1375" lon="5.86167">
        <ele>1256</ele>
        <time>2021-06-01T11:52:38.316Z</time>
      </trkpt>
      <trkpt lat="44.1375" lon="5.86167">
        <ele>1256</ele>
        <time>2021-06-01T11:52:39.316Z</time>
      </trkpt>
      <trkpt lat="44.1375" lon="5.86167">
        <ele>1256</ele>
        <time>2021-06-01T11:52:40.316Z</time>
      </trkpt>
      <trkpt lat="44.1375" lon="5.86167">
        <ele>1256</ele>
        <time>2021-06-01T11:52:41.316Z</time>
      </trkpt>
      <trkpt lat="44.13749" lon="5.86166">
        <ele>1256</ele>
        <time>2021-06-01T11:52:42.316Z</time>
      </trkpt>
      <trkpt lat="44.13748" lon="5.86166">
        <ele>1256</ele>
        <time>2021-06-01T11:52:43.316Z</time>
      </trkpt>
      <trkpt lat="44.13747" lon="5.86166">
        <ele>1256</ele>
        <time>2021-06-01T11:52:44.316Z</time>
      </trkpt>
      <trkpt lat="44.13746" lon="5.86165">
        <ele>1256</ele>
        <time>2021-06-01T11:52:45.316Z</time>
      </trkpt>
      <trkpt lat="44.13745" lon="5.86165">
        <ele>1256</ele>
        <time>2021-06-01T11:52:46.316Z</time>
      </trkpt>
      <trkpt lat="44.13744" lon="5.86164">
        <ele>1256</ele>
        <time>2021-06-01T11:52:47.316Z</time>
      </trkpt>
      <trkpt lat="44.13744" lon="5.86164">
        <ele>1256</ele>
        <time>2021-06-01T11:52:48.316Z</time>
      </trkpt>
      <trkpt lat="44.13743" lon="5.86163">
        <ele>1256</ele>
        <time>2021-06-01T11:52:49.316Z</time>
      </trkpt>
      <trkpt lat="44.13742" lon="5.86163">
        <ele>1256</ele>
        <time>2021-06-01T11:52:50.316Z</time>
      </trkpt>
      <trkpt lat="44.13741" lon="5.86163">
        <ele>1257</ele>
        <time>2021-06-01T11:52:51.316Z</time>
      </trkpt>
      <trkpt lat="44.13741" lon="5.86162">
        <ele>1257</ele>
        <time>2021-06-01T11:52:52.316Z</time>
      </trkpt>
      <trkpt lat="44.1374" lon="5.86162">
        <ele>1257</ele>
        <time>2021-06-01T11:52:53.316Z</time>
      </trkpt>
      <trkpt lat="44.1374" lon="5.86161">
        <ele>1257</ele>
        <time>2021-06-01T11:52:54.316Z</time>
      </trkpt>
      <trkpt lat="44.13739" lon="5.86161">
        <ele>1257</ele>
        <time>2021-06-01T11:52:55.316Z</time>
      </trkpt>
      <trkpt lat="44.13738" lon="5.8616">
        <ele>1257</ele>
        <time>2021-06-01T11:52:56.316Z</time>
      </trkpt>
      <trkpt lat="44.13738" lon="5.86159">
        <ele>1257</ele>
        <time>2021-06-01T11:52:57.316Z</time>
      </trkpt>
      <trkpt lat="44.13737" lon="5.86158">
        <ele>1257</ele>
        <time>2021-06-01T11:52:58.316Z</time>
      </trkpt>
      <trkpt lat="44.13736" lon="5.86157">
        <ele>1258</ele>
        <time>2021-06-01T11:52:59.316Z</time>
      </trkpt>
      <trkpt lat="44.13736" lon="5.86156">
        <ele>1258</ele>
        <time>2021-06-01T11:53:00.316Z</time>
      </trkpt>
      <trkpt lat="44.13735" lon="5.86156">
        <ele>1258</ele>
        <time>2021-06-01T11:53:01.316Z</time>
      </trkpt>
      <trkpt lat="44.13735" lon="5.86156">
        <ele>1258</ele>
        <time>2021-06-01T11:53:02.316Z</time>
      </trkpt>
      <trkpt lat="44.13735" lon="5.86156">
        <ele>1258</ele>
        <time>2021-06-01T11:53:03.316Z</time>
      </trkpt>
      <trkpt lat="44.13735" lon="5.86156">
        <ele>1258</ele>
        <time>2021-06-01T11:53:04.316Z</time>
      </trkpt>
      <trkpt lat="44.13735" lon="5.86156">
        <ele>1258</ele>
        <time>2021-06-01T11:53:05.316Z</time>
      </trkpt>
      <trkpt lat="44.13735" lon="5.86156">
        <ele>1258</ele>
        <time>2021-06-01T11:53:06.316Z</time>
      </trkpt>
      <trkpt lat="44.13735" lon="5.86156">
        <ele>1258</ele>
        <time>2021-06-01T11:53:07.316Z</time>
      </trkpt>
      <trkpt lat="44.13735" lon="5.86156">
        <ele>1258</ele>
        <time>2021-06-01T11:53:08.316Z</time>
      </trkpt>
      <trkpt lat="44.13735" lon="5.86156">
        <ele>1258</ele>
        <time>2021-06-01T11:53:09.316Z</time>
      </trkpt>
      <trkpt lat="44.13735" lon="5.86156">
        <ele>1258</ele>
        <time>2021-06-01T11:53:10.316Z</time>
      </trkpt>
      <trkpt lat="44.13735" lon="5.86156">
        <ele>1259</ele>
        <time>2021-06-01T11:53:11.316Z</time>
      </trkpt>
      <trkpt lat="44.13735" lon="5.86156">
        <ele>1259</ele>
        <time>2021-06-01T11:53:12.316Z</time>
      </trkpt>
      <trkpt lat="44.13735" lon="5.86156">
        <ele>1259</ele>
        <time>2021-06-01T11:53:13.316Z</time>
      </trkpt>
      <trkpt lat="44.13735" lon="5.86156">
        <ele>1259</ele>
        <time>2021-06-01T11:53:14.316Z</time>
      </trkpt>
      <trkpt lat="44.13735" lon="5.86156">
        <ele>1259</ele>
        <time>2021-06-01T11:53:15.316Z</time>
      </trkpt>
      <trkpt lat="44.13735" lon="5.86156">
        <ele>1259</ele>
        <time>2021-06-01T11:53:16.316Z</time>
      </trkpt>
      <trkpt lat="44.13735" lon="5.86156">
        <ele>1259</ele>
        <time>2021-06-01T11:53:17.316Z</time>
      </trkpt>
      <trkpt lat="44.13735" lon="5.86156">
        <ele>1259</ele>
        <time>2021-06-01T11:53:18.316Z</time>
      </trkpt>
      <trkpt lat="44.13735" lon="5.86156">
        <ele>1259</ele>
        <time>2021-06-01T11:53:19.316Z</time>
      </trkpt>
      <trkpt lat="44.13735" lon="5.86156">
        <ele>1259</ele>
        <time>2021-06-01T11:53:20.316Z</time>
      </trkpt>
      <trkpt lat="44.13735" lon="5.86156">
        <ele>1259</ele>
        <time>2021-06-01T11:53:21.316Z</time>
      </trkpt>
      <trkpt lat="44.13734" lon="5.86155">
        <ele>1259</ele>
        <time>2021-06-01T11:53:22.316Z</time>
      </trkpt>
      <trkpt lat="44.13734" lon="5.86154">
        <ele>1259</ele>
        <time>2021-06-01T11:53:23.316Z</time>
      </trkpt>
      <trkpt lat="44.13733" lon="5.86154">
        <ele>1259</ele>
        <time>2021-06-01T11:53:24.316Z</time>
      </trkpt>
      <trkpt lat="44.13733" lon="5.86153">
        <ele>1259</ele>
        <time>2021-06-01T11:53:25.316Z</time>
      </trkpt>
      <trkpt lat="44.13732" lon="5.86152">
        <ele>1259</ele>
        <time>2021-06-01T11:53:26.316Z</time>
      </trkpt>
      <trkpt lat="44.13731" lon="5.86152">
        <ele>1260</ele>
        <time>2021-06-01T11:53:27.316Z</time>
      </trkpt>
      <trkpt lat="44.1373" lon="5.86151">
        <ele>1260</ele>
        <time>2021-06-01T11:53:28.316Z</time>
      </trkpt>
      <trkpt lat="44.1373" lon="5.8615">
        <ele>1260</ele>
        <time>2021-06-01T11:53:29.316Z</time>
      </trkpt>
      <trkpt lat="44.13729" lon="5.8615">
        <ele>1260</ele>
        <time>2021-06-01T11:53:30.316Z</time>
      </trkpt>
      <trkpt lat="44.13729" lon="5.86149">
        <ele>1260</ele>
        <time>2021-06-01T11:53:31.316Z</time>
      </trkpt>
      <trkpt lat="44.13729" lon="5.86149">
        <ele>1260</ele>
        <time>2021-06-01T11:53:32.316Z</time>
      </trkpt>
      <trkpt lat="44.13728" lon="5.86148">
        <ele>1260</ele>
        <time>2021-06-01T11:53:33.316Z</time>
      </trkpt>
      <trkpt lat="44.13728" lon="5.86147">
        <ele>1260</ele>
        <time>2021-06-01T11:53:34.316Z</time>
      </trkpt>
      <trkpt lat="44.13727" lon="5.86146">
        <ele>1260</ele>
        <time>2021-06-01T11:53:35.316Z</time>
      </trkpt>
      <trkpt lat="44.13726" lon="5.86146">
        <ele>1260</ele>
        <time>2021-06-01T11:53:36.316Z</time>
      </trkpt>
      <trkpt lat="44.13726" lon="5.86145">
        <ele>1260</ele>
        <time>2021-06-01T11:53:37.316Z</time>
      </trkpt>
      <trkpt lat="44.13725" lon="5.86145">
        <ele>1260</ele>
        <time>2021-06-01T11:53:38.316Z</time>
      </trkpt>
      <trkpt lat="44.13724" lon="5.86143">
        <ele>1260</ele>
        <time>2021-06-01T11:53:39.316Z</time>
      </trkpt>
      <trkpt lat="44.13723" lon="5.86143">
        <ele>1260</ele>
        <time>2021-06-01T11:53:40.316Z</time>
      </trkpt>
      <trkpt lat="44.13723" lon="5.86142">
        <ele>1261</ele>
        <time>2021-06-01T11:53:41.316Z</time>
      </trkpt>
      <trkpt lat="44.13722" lon="5.86141">
        <ele>1261</ele>
        <time>2021-06-01T11:53:42.316Z</time>
      </trkpt>
      <trkpt lat="44.13721" lon="5.8614">
        <ele>1261</ele>
        <time>2021-06-01T11:53:43.316Z</time>
      </trkpt>
      <trkpt lat="44.1372" lon="5.86139">
        <ele>1261</ele>
        <time>2021-06-01T11:53:44.316Z</time>
      </trkpt>
      <trkpt lat="44.13719" lon="5.86139">
        <ele>1261</ele>
        <time>2021-06-01T11:53:45.316Z</time>
      </trkpt>
      <trkpt lat="44.13718" lon="5.86138">
        <ele>1261</ele>
        <time>2021-06-01T11:53:46.316Z</time>
      </trkpt>
      <trkpt lat="44.13718" lon="5.86138">
        <ele>1261</ele>
        <time>2021-06-01T11:53:47.316Z</time>
      </trkpt>
      <trkpt lat="44.13717" lon="5.86137">
        <ele>1261</ele>
        <time>2021-06-01T11:53:48.316Z</time>
      </trkpt>
      <trkpt lat="44.13716" lon="5.86136">
        <ele>1261</ele>
        <time>2021-06-01T11:53:49.316Z</time>
      </trkpt>
      <trkpt lat="44.13715" lon="5.86135">
        <ele>1261</ele>
        <time>2021-06-01T11:53:50.316Z</time>
      </trkpt>
      <trkpt lat="44.13715" lon="5.86134">
        <ele>1261</ele>
        <time>2021-06-01T11:53:51.316Z</time>
      </trkpt>
      <trkpt lat="44.13714" lon="5.86133">
        <ele>1261</ele>
        <time>2021-06-01T11:53:52.316Z</time>
      </trkpt>
      <trkpt lat="44.13713" lon="5.86133">
        <ele>1261</ele>
        <time>2021-06-01T11:53:53.316Z</time>
      </trkpt>
      <trkpt lat="44.13712" lon="5.86132">
        <ele>1261</ele>
        <time>2021-06-01T11:53:54.316Z</time>
      </trkpt>
      <trkpt lat="44.13712" lon="5.86131">
        <ele>1261</ele>
        <time>2021-06-01T11:53:55.316Z</time>
      </trkpt>
      <trkpt lat="44.13711" lon="5.8613">
        <ele>1261</ele>
        <time>2021-06-01T11:53:56.316Z</time>
      </trkpt>
      <trkpt lat="44.13711" lon="5.86129">
        <ele>1261</ele>
        <time>2021-06-01T11:53:57.316Z</time>
      </trkpt>
      <trkpt lat="44.1371" lon="5.86128">
        <ele>1261</ele>
        <time>2021-06-01T11:53:58.316Z</time>
      </trkpt>
      <trkpt lat="44.1371" lon="5.86127">
        <ele>1261</ele>
        <time>2021-06-01T11:53:59.316Z</time>
      </trkpt>
      <trkpt lat="44.13709" lon="5.86126">
        <ele>1261</ele>
        <time>2021-06-01T11:54:00.316Z</time>
      </trkpt>
      <trkpt lat="44.13708" lon="5.86125">
        <ele>1261</ele>
        <time>2021-06-01T11:54:01.316Z</time>
      </trkpt>
      <trkpt lat="44.13707" lon="5.86124">
        <ele>1261</ele>
        <time>2021-06-01T11:54:02.316Z</time>
      </trkpt>
      <trkpt lat="44.13707" lon="5.86123">
        <ele>1261</ele>
        <time>2021-06-01T11:54:03.316Z</time>
      </trkpt>
      <trkpt lat="44.13706" lon="5.86122">
        <ele>1261</ele>
        <time>2021-06-01T11:54:04.316Z</time>
      </trkpt>
      <trkpt lat="44.13706" lon="5.86121">
        <ele>1261</ele>
        <time>2021-06-01T11:54:05.316Z</time>
      </trkpt>
      <trkpt lat="44.13705" lon="5.8612">
        <ele>1261</ele>
        <time>2021-06-01T11:54:06.316Z</time>
      </trkpt>
      <trkpt lat="44.13704" lon="5.86119">
        <ele>1261</ele>
        <time>2021-06-01T11:54:07.316Z</time>
      </trkpt>
      <trkpt lat="44.13704" lon="5.86118">
        <ele>1261</ele>
        <time>2021-06-01T11:54:08.316Z</time>
      </trkpt>
      <trkpt lat="44.13703" lon="5.86117">
        <ele>1261</ele>
        <time>2021-06-01T11:54:09.316Z</time>
      </trkpt>
      <trkpt lat="44.13703" lon="5.86116">
        <ele>1262</ele>
        <time>2021-06-01T11:54:10.316Z</time>
      </trkpt>
      <trkpt lat="44.13703" lon="5.86114">
        <ele>1262</ele>
        <time>2021-06-01T11:54:11.316Z</time>
      </trkpt>
      <trkpt lat="44.13702" lon="5.86113">
        <ele>1262</ele>
        <time>2021-06-01T11:54:12.316Z</time>
      </trkpt>
      <trkpt lat="44.13702" lon="5.86112">
        <ele>1262</ele>
        <time>2021-06-01T11:54:13.316Z</time>
      </trkpt>
      <trkpt lat="44.13701" lon="5.86111">
        <ele>1262</ele>
        <time>2021-06-01T11:54:14.316Z</time>
      </trkpt>
      <trkpt lat="44.137" lon="5.86111">
        <ele>1262</ele>
        <time>2021-06-01T11:54:15.316Z</time>
      </trkpt>
      <trkpt lat="44.13699" lon="5.8611">
        <ele>1262</ele>
        <time>2021-06-01T11:54:16.316Z</time>
      </trkpt>
      <trkpt lat="44.13698" lon="5.8611">
        <ele>1263</ele>
        <time>2021-06-01T11:54:17.316Z</time>
      </trkpt>
      <trkpt lat="44.13698" lon="5.86109">
        <ele>1263</ele>
        <time>2021-06-01T11:54:18.316Z</time>
      </trkpt>
      <trkpt lat="44.13697" lon="5.86108">
        <ele>1263</ele>
        <time>2021-06-01T11:54:19.316Z</time>
      </trkpt>
      <trkpt lat="44.13696" lon="5.86108">
        <ele>1263</ele>
        <time>2021-06-01T11:54:20.316Z</time>
      </trkpt>
      <trkpt lat="44.13695" lon="5.86107">
        <ele>1263</ele>
        <time>2021-06-01T11:54:21.316Z</time>
      </trkpt>
      <trkpt lat="44.13694" lon="5.86106">
        <ele>1263</ele>
        <time>2021-06-01T11:54:22.316Z</time>
      </trkpt>
      <trkpt lat="44.13693" lon="5.86106">
        <ele>1263</ele>
        <time>2021-06-01T11:54:23.316Z</time>
      </trkpt>
      <trkpt lat="44.13693" lon="5.86105">
        <ele>1264</ele>
        <time>2021-06-01T11:54:24.316Z</time>
      </trkpt>
      <trkpt lat="44.13692" lon="5.86104">
        <ele>1264</ele>
        <time>2021-06-01T11:54:25.316Z</time>
      </trkpt>
      <trkpt lat="44.13691" lon="5.86104">
        <ele>1264</ele>
        <time>2021-06-01T11:54:26.316Z</time>
      </trkpt>
      <trkpt lat="44.1369" lon="5.86103">
        <ele>1264</ele>
        <time>2021-06-01T11:54:27.316Z</time>
      </trkpt>
      <trkpt lat="44.13689" lon="5.86102">
        <ele>1264</ele>
        <time>2021-06-01T11:54:28.316Z</time>
      </trkpt>
      <trkpt lat="44.13689" lon="5.86102">
        <ele>1264</ele>
        <time>2021-06-01T11:54:29.316Z</time>
      </trkpt>
      <trkpt lat="44.13688" lon="5.86101">
        <ele>1264</ele>
        <time>2021-06-01T11:54:30.316Z</time>
      </trkpt>
      <trkpt lat="44.13687" lon="5.861">
        <ele>1264</ele>
        <time>2021-06-01T11:54:31.316Z</time>
      </trkpt>
      <trkpt lat="44.13687" lon="5.86099">
        <ele>1264</ele>
        <time>2021-06-01T11:54:32.316Z</time>
      </trkpt>
      <trkpt lat="44.13687" lon="5.86098">
        <ele>1264</ele>
        <time>2021-06-01T11:54:33.316Z</time>
      </trkpt>
      <trkpt lat="44.13686" lon="5.86098">
        <ele>1264</ele>
        <time>2021-06-01T11:54:34.316Z</time>
      </trkpt>
      <trkpt lat="44.13686" lon="5.86097">
        <ele>1264</ele>
        <time>2021-06-01T11:54:35.316Z</time>
      </trkpt>
      <trkpt lat="44.13685" lon="5.86097">
        <ele>1264</ele>
        <time>2021-06-01T11:54:36.316Z</time>
      </trkpt>
      <trkpt lat="44.13684" lon="5.86097">
        <ele>1264</ele>
        <time>2021-06-01T11:54:37.316Z</time>
      </trkpt>
      <trkpt lat="44.13684" lon="5.86098">
        <ele>1264</ele>
        <time>2021-06-01T11:54:38.316Z</time>
      </trkpt>
      <trkpt lat="44.13683" lon="5.86098">
        <ele>1264</ele>
        <time>2021-06-01T11:54:39.316Z</time>
      </trkpt>
      <trkpt lat="44.13683" lon="5.86098">
        <ele>1264</ele>
        <time>2021-06-01T11:54:40.316Z</time>
      </trkpt>
      <trkpt lat="44.13682" lon="5.86098">
        <ele>1264</ele>
        <time>2021-06-01T11:54:41.316Z</time>
      </trkpt>
      <trkpt lat="44.13681" lon="5.86098">
        <ele>1264</ele>
        <time>2021-06-01T11:54:42.316Z</time>
      </trkpt>
      <trkpt lat="44.1368" lon="5.86098">
        <ele>1264</ele>
        <time>2021-06-01T11:54:43.316Z</time>
      </trkpt>
      <trkpt lat="44.13679" lon="5.86098">
        <ele>1264</ele>
        <time>2021-06-01T11:54:44.316Z</time>
      </trkpt>
      <trkpt lat="44.13678" lon="5.86098">
        <ele>1264</ele>
        <time>2021-06-01T11:54:45.316Z</time>
      </trkpt>
      <trkpt lat="44.13677" lon="5.86098">
        <ele>1264</ele>
        <time>2021-06-01T11:54:46.316Z</time>
      </trkpt>
      <trkpt lat="44.13676" lon="5.86098">
        <ele>1264</ele>
        <time>2021-06-01T11:54:47.316Z</time>
      </trkpt>
      <trkpt lat="44.13675" lon="5.86098">
        <ele>1264</ele>
        <time>2021-06-01T11:54:48.316Z</time>
      </trkpt>
      <trkpt lat="44.13674" lon="5.86099">
        <ele>1264</ele>
        <time>2021-06-01T11:54:49.316Z</time>
      </trkpt>
      <trkpt lat="44.13673" lon="5.86099">
        <ele>1264</ele>
        <time>2021-06-01T11:54:50.316Z</time>
      </trkpt>
      <trkpt lat="44.13672" lon="5.86099">
        <ele>1264</ele>
        <time>2021-06-01T11:54:51.316Z</time>
      </trkpt>
      <trkpt lat="44.13671" lon="5.861">
        <ele>1264</ele>
        <time>2021-06-01T11:54:52.316Z</time>
      </trkpt>
      <trkpt lat="44.1367" lon="5.861">
        <ele>1264</ele>
        <time>2021-06-01T11:54:53.316Z</time>
      </trkpt>
      <trkpt lat="44.13669" lon="5.861">
        <ele>1264</ele>
        <time>2021-06-01T11:54:54.316Z</time>
      </trkpt>
      <trkpt lat="44.13668" lon="5.861">
        <ele>1264</ele>
        <time>2021-06-01T11:54:55.316Z</time>
      </trkpt>
      <trkpt lat="44.13667" lon="5.861">
        <ele>1264</ele>
        <time>2021-06-01T11:54:56.316Z</time>
      </trkpt>
      <trkpt lat="44.13666" lon="5.861">
        <ele>1264</ele>
        <time>2021-06-01T11:54:57.316Z</time>
      </trkpt>
      <trkpt lat="44.13666" lon="5.86101">
        <ele>1264</ele>
        <time>2021-06-01T11:54:58.316Z</time>
      </trkpt>
      <trkpt lat="44.13665" lon="5.86101">
        <ele>1264</ele>
        <time>2021-06-01T11:54:59.316Z</time>
      </trkpt>
      <trkpt lat="44.13664" lon="5.86101">
        <ele>1264</ele>
        <time>2021-06-01T11:55:00.316Z</time>
      </trkpt>
      <trkpt lat="44.13663" lon="5.86101">
        <ele>1264</ele>
        <time>2021-06-01T11:55:01.316Z</time>
      </trkpt>
      <trkpt lat="44.13663" lon="5.86101">
        <ele>1264</ele>
        <time>2021-06-01T11:55:02.316Z</time>
      </trkpt>
      <trkpt lat="44.13662" lon="5.86101">
        <ele>1264</ele>
        <time>2021-06-01T11:55:03.316Z</time>
      </trkpt>
      <trkpt lat="44.13661" lon="5.86101">
        <ele>1264</ele>
        <time>2021-06-01T11:55:04.316Z</time>
      </trkpt>
      <trkpt lat="44.13661" lon="5.86101">
        <ele>1264</ele>
        <time>2021-06-01T11:55:05.316Z</time>
      </trkpt>
      <trkpt lat="44.1366" lon="5.86102">
        <ele>1264</ele>
        <time>2021-06-01T11:55:06.316Z</time>
      </trkpt>
      <trkpt lat="44.1366" lon="5.86102">
        <ele>1264</ele>
        <time>2021-06-01T11:55:07.316Z</time>
      </trkpt>
      <trkpt lat="44.13659" lon="5.86102">
        <ele>1264</ele>
        <time>2021-06-01T11:55:08.316Z</time>
      </trkpt>
      <trkpt lat="44.13658" lon="5.86102">
        <ele>1264</ele>
        <time>2021-06-01T11:55:09.316Z</time>
      </trkpt>
      <trkpt lat="44.13657" lon="5.86102">
        <ele>1264</ele>
        <time>2021-06-01T11:55:10.316Z</time>
      </trkpt>
      <trkpt lat="44.13656" lon="5.86102">
        <ele>1264</ele>
        <time>2021-06-01T11:55:11.316Z</time>
      </trkpt>
      <trkpt lat="44.13655" lon="5.86102">
        <ele>1264</ele>
        <time>2021-06-01T11:55:12.316Z</time>
      </trkpt>
      <trkpt lat="44.13654" lon="5.86102">
        <ele>1264</ele>
        <time>2021-06-01T11:55:13.316Z</time>
      </trkpt>
      <trkpt lat="44.13653" lon="5.86102">
        <ele>1264</ele>
        <time>2021-06-01T11:55:14.316Z</time>
      </trkpt>
      <trkpt lat="44.13652" lon="5.86102">
        <ele>1264</ele>
        <time>2021-06-01T11:55:15.316Z</time>
      </trkpt>
      <trkpt lat="44.13651" lon="5.86102">
        <ele>1264</ele>
        <time>2021-06-01T11:55:16.316Z</time>
      </trkpt>
      <trkpt lat="44.1365" lon="5.86102">
        <ele>1264</ele>
        <time>2021-06-01T11:55:17.316Z</time>
      </trkpt>
      <trkpt lat="44.13649" lon="5.86102">
        <ele>1264</ele>
        <time>2021-06-01T11:55:18.316Z</time>
      </trkpt>
      <trkpt lat="44.13648" lon="5.86103">
        <ele>1264</ele>
        <time>2021-06-01T11:55:19.316Z</time>
      </trkpt>
      <trkpt lat="44.13646" lon="5.86103">
        <ele>1264</ele>
        <time>2021-06-01T11:55:20.316Z</time>
      </trkpt>
      <trkpt lat="44.13645" lon="5.86103">
        <ele>1264</ele>
        <time>2021-06-01T11:55:21.316Z</time>
      </trkpt>
      <trkpt lat="44.13644" lon="5.86102">
        <ele>1264</ele>
        <time>2021-06-01T11:55:22.316Z</time>
      </trkpt>
      <trkpt lat="44.13643" lon="5.86102">
        <ele>1264</ele>
        <time>2021-06-01T11:55:23.316Z</time>
      </trkpt>
      <trkpt lat="44.13642" lon="5.86102">
        <ele>1264</ele>
        <time>2021-06-01T11:55:24.316Z</time>
      </trkpt>
      <trkpt lat="44.13641" lon="5.86102">
        <ele>1264</ele>
        <time>2021-06-01T11:55:25.316Z</time>
      </trkpt>
      <trkpt lat="44.1364" lon="5.86102">
        <ele>1264</ele>
        <time>2021-06-01T11:55:26.316Z</time>
      </trkpt>
      <trkpt lat="44.13639" lon="5.86102">
        <ele>1264</ele>
        <time>2021-06-01T11:55:27.316Z</time>
      </trkpt>
      <trkpt lat="44.13638" lon="5.86102">
        <ele>1264</ele>
        <time>2021-06-01T11:55:28.316Z</time>
      </trkpt>
      <trkpt lat="44.13637" lon="5.86102">
        <ele>1264</ele>
        <time>2021-06-01T11:55:29.316Z</time>
      </trkpt>
      <trkpt lat="44.13635" lon="5.86102">
        <ele>1264</ele>
        <time>2021-06-01T11:55:30.316Z</time>
      </trkpt>
      <trkpt lat="44.13635" lon="5.86101">
        <ele>1264</ele>
        <time>2021-06-01T11:55:31.316Z</time>
      </trkpt>
      <trkpt lat="44.13634" lon="5.86101">
        <ele>1264</ele>
        <time>2021-06-01T11:55:32.316Z</time>
      </trkpt>
      <trkpt lat="44.13633" lon="5.86101">
        <ele>1264</ele>
        <time>2021-06-01T11:55:33.316Z</time>
      </trkpt>
      <trkpt lat="44.13632" lon="5.86101">
        <ele>1264</ele>
        <time>2021-06-01T11:55:34.316Z</time>
      </trkpt>
      <trkpt lat="44.13631" lon="5.86101">
        <ele>1264</ele>
        <time>2021-06-01T11:55:35.316Z</time>
      </trkpt>
      <trkpt lat="44.1363" lon="5.861">
        <ele>1264</ele>
        <time>2021-06-01T11:55:36.316Z</time>
      </trkpt>
      <trkpt lat="44.13629" lon="5.861">
        <ele>1264</ele>
        <time>2021-06-01T11:55:37.316Z</time>
      </trkpt>
      <trkpt lat="44.13628" lon="5.861">
        <ele>1264</ele>
        <time>2021-06-01T11:55:38.316Z</time>
      </trkpt>
      <trkpt lat="44.13627" lon="5.861">
        <ele>1264</ele>
        <time>2021-06-01T11:55:39.316Z</time>
      </trkpt>
      <trkpt lat="44.13626" lon="5.86101">
        <ele>1264</ele>
        <time>2021-06-01T11:55:40.316Z</time>
      </trkpt>
      <trkpt lat="44.13625" lon="5.86101">
        <ele>1264</ele>
        <time>2021-06-01T11:55:41.316Z</time>
      </trkpt>
      <trkpt lat="44.13624" lon="5.86101">
        <ele>1264</ele>
        <time>2021-06-01T11:55:42.316Z</time>
      </trkpt>
      <trkpt lat="44.13623" lon="5.86101">
        <ele>1264</ele>
        <time>2021-06-01T11:55:43.316Z</time>
      </trkpt>
      <trkpt lat="44.13622" lon="5.86101">
        <ele>1264</ele>
        <time>2021-06-01T11:55:44.316Z</time>
      </trkpt>
      <trkpt lat="44.1362" lon="5.86101">
        <ele>1264</ele>
        <time>2021-06-01T11:55:45.316Z</time>
      </trkpt>
      <trkpt lat="44.13619" lon="5.86101">
        <ele>1264</ele>
        <time>2021-06-01T11:55:46.316Z</time>
      </trkpt>
      <trkpt lat="44.13618" lon="5.86101">
        <ele>1264</ele>
        <time>2021-06-01T11:55:47.316Z</time>
      </trkpt>
      <trkpt lat="44.13617" lon="5.86101">
        <ele>1264</ele>
        <time>2021-06-01T11:55:48.316Z</time>
      </trkpt>
      <trkpt lat="44.13616" lon="5.86101">
        <ele>1264</ele>
        <time>2021-06-01T11:55:49.316Z</time>
      </trkpt>
      <trkpt lat="44.13615" lon="5.861">
        <ele>1264</ele>
        <time>2021-06-01T11:55:50.316Z</time>
      </trkpt>
      <trkpt lat="44.13614" lon="5.861">
        <ele>1264</ele>
        <time>2021-06-01T11:55:51.316Z</time>
      </trkpt>
      <trkpt lat="44.13613" lon="5.861">
        <ele>1264</ele>
        <time>2021-06-01T11:55:52.316Z</time>
      </trkpt>
      <trkpt lat="44.13612" lon="5.861">
        <ele>1264</ele>
        <time>2021-06-01T11:55:53.316Z</time>
      </trkpt>
      <trkpt lat="44.13611" lon="5.861">
        <ele>1264</ele>
        <time>2021-06-01T11:55:54.316Z</time>
      </trkpt>
      <trkpt lat="44.1361" lon="5.861">
        <ele>1264</ele>
        <time>2021-06-01T11:55:55.316Z</time>
      </trkpt>
      <trkpt lat="44.13609" lon="5.861">
        <ele>1264</ele>
        <time>2021-06-01T11:55:56.316Z</time>
      </trkpt>
      <trkpt lat="44.13608" lon="5.861">
        <ele>1264</ele>
        <time>2021-06-01T11:55:57.316Z</time>
      </trkpt>
      <trkpt lat="44.13607" lon="5.861">
        <ele>1264</ele>
        <time>2021-06-01T11:55:58.316Z</time>
      </trkpt>
      <trkpt lat="44.13606" lon="5.861">
        <ele>1264</ele>
        <time>2021-06-01T11:55:59.316Z</time>
      </trkpt>
      <trkpt lat="44.13605" lon="5.861">
        <ele>1264</ele>
        <time>2021-06-01T11:56:00.316Z</time>
      </trkpt>
      <trkpt lat="44.13604" lon="5.861">
        <ele>1264</ele>
        <time>2021-06-01T11:56:01.316Z</time>
      </trkpt>
      <trkpt lat="44.13603" lon="5.861">
        <ele>1264</ele>
        <time>2021-06-01T11:56:02.316Z</time>
      </trkpt>
      <trkpt lat="44.13602" lon="5.86099">
        <ele>1264</ele>
        <time>2021-06-01T11:56:03.316Z</time>
      </trkpt>
      <trkpt lat="44.13601" lon="5.86099">
        <ele>1264</ele>
        <time>2021-06-01T11:56:04.316Z</time>
      </trkpt>
      <trkpt lat="44.136" lon="5.86099">
        <ele>1264</ele>
        <time>2021-06-01T11:56:05.316Z</time>
      </trkpt>
      <trkpt lat="44.13599" lon="5.86099">
        <ele>1264</ele>
        <time>2021-06-01T11:56:06.316Z</time>
      </trkpt>
      <trkpt lat="44.13598" lon="5.86099">
        <ele>1264</ele>
        <time>2021-06-01T11:56:07.316Z</time>
      </trkpt>
      <trkpt lat="44.13597" lon="5.86099">
        <ele>1264</ele>
        <time>2021-06-01T11:56:08.316Z</time>
      </trkpt>
      <trkpt lat="44.13596" lon="5.86098">
        <ele>1264</ele>
        <time>2021-06-01T11:56:09.316Z</time>
      </trkpt>
      <trkpt lat="44.13595" lon="5.86098">
        <ele>1264</ele>
        <time>2021-06-01T11:56:10.316Z</time>
      </trkpt>
      <trkpt lat="44.13594" lon="5.86097">
        <ele>1264</ele>
        <time>2021-06-01T11:56:11.316Z</time>
      </trkpt>
      <trkpt lat="44.13593" lon="5.86097">
        <ele>1264</ele>
        <time>2021-06-01T11:56:12.316Z</time>
      </trkpt>
      <trkpt lat="44.13592" lon="5.86096">
        <ele>1264</ele>
        <time>2021-06-01T11:56:13.316Z</time>
      </trkpt>
      <trkpt lat="44.13591" lon="5.86096">
        <ele>1264</ele>
        <time>2021-06-01T11:56:14.316Z</time>
      </trkpt>
      <trkpt lat="44.1359" lon="5.86096">
        <ele>1264</ele>
        <time>2021-06-01T11:56:15.316Z</time>
      </trkpt>
      <trkpt lat="44.13589" lon="5.86095">
        <ele>1264</ele>
        <time>2021-06-01T11:56:16.316Z</time>
      </trkpt>
      <trkpt lat="44.13588" lon="5.86095">
        <ele>1264</ele>
        <time>2021-06-01T11:56:17.316Z</time>
      </trkpt>
      <trkpt lat="44.13587" lon="5.86094">
        <ele>1264</ele>
        <time>2021-06-01T11:56:18.316Z</time>
      </trkpt>
      <trkpt lat="44.13586" lon="5.86093">
        <ele>1264</ele>
        <time>2021-06-01T11:56:19.316Z</time>
      </trkpt>
      <trkpt lat="44.13585" lon="5.86093">
        <ele>1264</ele>
        <time>2021-06-01T11:56:20.316Z</time>
      </trkpt>
      <trkpt lat="44.13584" lon="5.86092">
        <ele>1264</ele>
        <time>2021-06-01T11:56:21.316Z</time>
      </trkpt>
      <trkpt lat="44.13583" lon="5.86092">
        <ele>1264</ele>
        <time>2021-06-01T11:56:22.316Z</time>
      </trkpt>
      <trkpt lat="44.13582" lon="5.86091">
        <ele>1264</ele>
        <time>2021-06-01T11:56:23.316Z</time>
      </trkpt>
      <trkpt lat="44.13581" lon="5.86091">
        <ele>1264</ele>
        <time>2021-06-01T11:56:24.316Z</time>
      </trkpt>
      <trkpt lat="44.1358" lon="5.8609">
        <ele>1264</ele>
        <time>2021-06-01T11:56:25.316Z</time>
      </trkpt>
      <trkpt lat="44.13579" lon="5.86089">
        <ele>1264</ele>
        <time>2021-06-01T11:56:26.316Z</time>
      </trkpt>
      <trkpt lat="44.13578" lon="5.86089">
        <ele>1264</ele>
        <time>2021-06-01T11:56:27.316Z</time>
      </trkpt>
      <trkpt lat="44.13577" lon="5.86088">
        <ele>1264</ele>
        <time>2021-06-01T11:56:28.316Z</time>
      </trkpt>
      <trkpt lat="44.13576" lon="5.86087">
        <ele>1264</ele>
        <time>2021-06-01T11:56:29.316Z</time>
      </trkpt>
      <trkpt lat="44.13575" lon="5.86087">
        <ele>1264</ele>
        <time>2021-06-01T11:56:30.316Z</time>
      </trkpt>
      <trkpt lat="44.13574" lon="5.86086">
        <ele>1264</ele>
        <time>2021-06-01T11:56:31.316Z</time>
      </trkpt>
      <trkpt lat="44.13573" lon="5.86086">
        <ele>1264</ele>
        <time>2021-06-01T11:56:32.316Z</time>
      </trkpt>
      <trkpt lat="44.13572" lon="5.86085">
        <ele>1264</ele>
        <time>2021-06-01T11:56:33.316Z</time>
      </trkpt>
      <trkpt lat="44.13571" lon="5.86084">
        <ele>1264</ele>
        <time>2021-06-01T11:56:34.316Z</time>
      </trkpt>
      <trkpt lat="44.1357" lon="5.86084">
        <ele>1264</ele>
        <time>2021-06-01T11:56:35.316Z</time>
      </trkpt>
      <trkpt lat="44.13569" lon="5.86083">
        <ele>1264</ele>
        <time>2021-06-01T11:56:36.316Z</time>
      </trkpt>
      <trkpt lat="44.13568" lon="5.86082">
        <ele>1263</ele>
        <time>2021-06-01T11:56:37.316Z</time>
      </trkpt>
      <trkpt lat="44.13567" lon="5.86082">
        <ele>1263</ele>
        <time>2021-06-01T11:56:38.316Z</time>
      </trkpt>
      <trkpt lat="44.13566" lon="5.86081">
        <ele>1263</ele>
        <time>2021-06-01T11:56:39.316Z</time>
      </trkpt>
      <trkpt lat="44.13565" lon="5.8608">
        <ele>1263</ele>
        <time>2021-06-01T11:56:40.316Z</time>
      </trkpt>
      <trkpt lat="44.13564" lon="5.8608">
        <ele>1263</ele>
        <time>2021-06-01T11:56:41.316Z</time>
      </trkpt>
      <trkpt lat="44.13564" lon="5.86079">
        <ele>1263</ele>
        <time>2021-06-01T11:56:42.316Z</time>
      </trkpt>
      <trkpt lat="44.13563" lon="5.86078">
        <ele>1263</ele>
        <time>2021-06-01T11:56:43.316Z</time>
      </trkpt>
      <trkpt lat="44.13562" lon="5.86077">
        <ele>1262</ele>
        <time>2021-06-01T11:56:44.316Z</time>
      </trkpt>
      <trkpt lat="44.1356" lon="5.86077">
        <ele>1262</ele>
        <time>2021-06-01T11:56:45.316Z</time>
      </trkpt>
      <trkpt lat="44.13559" lon="5.86076">
        <ele>1262</ele>
        <time>2021-06-01T11:56:46.316Z</time>
      </trkpt>
      <trkpt lat="44.13558" lon="5.86075">
        <ele>1262</ele>
        <time>2021-06-01T11:56:47.316Z</time>
      </trkpt>
      <trkpt lat="44.13557" lon="5.86075">
        <ele>1262</ele>
        <time>2021-06-01T11:56:48.316Z</time>
      </trkpt>
      <trkpt lat="44.13556" lon="5.86074">
        <ele>1262</ele>
        <time>2021-06-01T11:56:49.316Z</time>
      </trkpt>
      <trkpt lat="44.13555" lon="5.86073">
        <ele>1261</ele>
        <time>2021-06-01T11:56:50.316Z</time>
      </trkpt>
      <trkpt lat="44.13554" lon="5.86073">
        <ele>1261</ele>
        <time>2021-06-01T11:56:51.316Z</time>
      </trkpt>
      <trkpt lat="44.13553" lon="5.86072">
        <ele>1261</ele>
        <time>2021-06-01T11:56:52.316Z</time>
      </trkpt>
      <trkpt lat="44.13552" lon="5.86071">
        <ele>1261</ele>
        <time>2021-06-01T11:56:53.316Z</time>
      </trkpt>
      <trkpt lat="44.13551" lon="5.8607">
        <ele>1261</ele>
        <time>2021-06-01T11:56:54.316Z</time>
      </trkpt>
      <trkpt lat="44.1355" lon="5.86069">
        <ele>1261</ele>
        <time>2021-06-01T11:56:55.316Z</time>
      </trkpt>
      <trkpt lat="44.13549" lon="5.86069">
        <ele>1261</ele>
        <time>2021-06-01T11:56:56.316Z</time>
      </trkpt>
      <trkpt lat="44.13548" lon="5.86068">
        <ele>1261</ele>
        <time>2021-06-01T11:56:57.316Z</time>
      </trkpt>
      <trkpt lat="44.13547" lon="5.86068">
        <ele>1260</ele>
        <time>2021-06-01T11:56:58.316Z</time>
      </trkpt>
      <trkpt lat="44.13546" lon="5.86067">
        <ele>1260</ele>
        <time>2021-06-01T11:56:59.316Z</time>
      </trkpt>
      <trkpt lat="44.13545" lon="5.86067">
        <ele>1260</ele>
        <time>2021-06-01T11:57:00.316Z</time>
      </trkpt>
      <trkpt lat="44.13544" lon="5.86066">
        <ele>1260</ele>
        <time>2021-06-01T11:57:01.316Z</time>
      </trkpt>
      <trkpt lat="44.13543" lon="5.86065">
        <ele>1260</ele>
        <time>2021-06-01T11:57:02.316Z</time>
      </trkpt>
      <trkpt lat="44.13542" lon="5.86064">
        <ele>1260</ele>
        <time>2021-06-01T11:57:03.316Z</time>
      </trkpt>
      <trkpt lat="44.13541" lon="5.86063">
        <ele>1260</ele>
        <time>2021-06-01T11:57:04.316Z</time>
      </trkpt>
      <trkpt lat="44.1354" lon="5.86062">
        <ele>1259</ele>
        <time>2021-06-01T11:57:05.316Z</time>
      </trkpt>
      <trkpt lat="44.1354" lon="5.86061">
        <ele>1259</ele>
        <time>2021-06-01T11:57:06.316Z</time>
      </trkpt>
      <trkpt lat="44.13539" lon="5.8606">
        <ele>1259</ele>
        <time>2021-06-01T11:57:07.316Z</time>
      </trkpt>
      <trkpt lat="44.13538" lon="5.86059">
        <ele>1259</ele>
        <time>2021-06-01T11:57:08.316Z</time>
      </trkpt>
      <trkpt lat="44.13537" lon="5.86058">
        <ele>1259</ele>
        <time>2021-06-01T11:57:09.316Z</time>
      </trkpt>
      <trkpt lat="44.13536" lon="5.86057">
        <ele>1259</ele>
        <time>2021-06-01T11:57:10.316Z</time>
      </trkpt>
      <trkpt lat="44.13535" lon="5.86057">
        <ele>1258</ele>
        <time>2021-06-01T11:57:11.316Z</time>
      </trkpt>
      <trkpt lat="44.13534" lon="5.86056">
        <ele>1258</ele>
        <time>2021-06-01T11:57:12.316Z</time>
      </trkpt>
      <trkpt lat="44.13533" lon="5.86056">
        <ele>1258</ele>
        <time>2021-06-01T11:57:13.316Z</time>
      </trkpt>
      <trkpt lat="44.13532" lon="5.86058">
        <ele>1258</ele>
        <time>2021-06-01T11:57:14.316Z</time>
      </trkpt>
      <trkpt lat="44.13532" lon="5.86059">
        <ele>1257</ele>
        <time>2021-06-01T11:57:15.316Z</time>
      </trkpt>
      <trkpt lat="44.13532" lon="5.8606">
        <ele>1257</ele>
        <time>2021-06-01T11:57:16.316Z</time>
      </trkpt>
      <trkpt lat="44.13532" lon="5.86062">
        <ele>1257</ele>
        <time>2021-06-01T11:57:17.316Z</time>
      </trkpt>
      <trkpt lat="44.13533" lon="5.86063">
        <ele>1257</ele>
        <time>2021-06-01T11:57:18.316Z</time>
      </trkpt>
      <trkpt lat="44.13533" lon="5.86064">
        <ele>1256</ele>
        <time>2021-06-01T11:57:19.316Z</time>
      </trkpt>
      <trkpt lat="44.13534" lon="5.86066">
        <ele>1256</ele>
        <time>2021-06-01T11:57:20.316Z</time>
      </trkpt>
      <trkpt lat="44.13534" lon="5.86066">
        <ele>1255</ele>
        <time>2021-06-01T11:57:21.316Z</time>
      </trkpt>
      <trkpt lat="44.13535" lon="5.86067">
        <ele>1255</ele>
        <time>2021-06-01T11:57:22.316Z</time>
      </trkpt>
      <trkpt lat="44.13535" lon="5.86067">
        <ele>1255</ele>
        <time>2021-06-01T11:57:23.316Z</time>
      </trkpt>
      <trkpt lat="44.13535" lon="5.86067">
        <ele>1254</ele>
        <time>2021-06-01T11:57:24.316Z</time>
      </trkpt>
      <trkpt lat="44.13535" lon="5.86067">
        <ele>1254</ele>
        <time>2021-06-01T11:57:25.316Z</time>
      </trkpt>
      <trkpt lat="44.13535" lon="5.86068">
        <ele>1254</ele>
        <time>2021-06-01T11:57:26.316Z</time>
      </trkpt>
      <trkpt lat="44.13535" lon="5.86068">
        <ele>1253</ele>
        <time>2021-06-01T11:57:27.316Z</time>
      </trkpt>
      <trkpt lat="44.13536" lon="5.8607">
        <ele>1253</ele>
        <time>2021-06-01T11:57:28.316Z</time>
      </trkpt>
      <trkpt lat="44.13536" lon="5.86071">
        <ele>1253</ele>
        <time>2021-06-01T11:57:29.316Z</time>
      </trkpt>
      <trkpt lat="44.13537" lon="5.86072">
        <ele>1252</ele>
        <time>2021-06-01T11:57:30.316Z</time>
      </trkpt>
      <trkpt lat="44.13537" lon="5.86073">
        <ele>1252</ele>
        <time>2021-06-01T11:57:31.316Z</time>
      </trkpt>
      <trkpt lat="44.13537" lon="5.86075">
        <ele>1252</ele>
        <time>2021-06-01T11:57:32.316Z</time>
      </trkpt>
      <trkpt lat="44.13538" lon="5.86076">
        <ele>1252</ele>
        <time>2021-06-01T11:57:33.316Z</time>
      </trkpt>
      <trkpt lat="44.13538" lon="5.86077">
        <ele>1252</ele>
        <time>2021-06-01T11:57:34.316Z</time>
      </trkpt>
      <trkpt lat="44.13538" lon="5.86078">
        <ele>1251</ele>
        <time>2021-06-01T11:57:35.316Z</time>
      </trkpt>
      <trkpt lat="44.13539" lon="5.86079">
        <ele>1251</ele>
        <time>2021-06-01T11:57:36.316Z</time>
      </trkpt>
      <trkpt lat="44.13539" lon="5.86081">
        <ele>1251</ele>
        <time>2021-06-01T11:57:37.316Z</time>
      </trkpt>
      <trkpt lat="44.13539" lon="5.86082">
        <ele>1251</ele>
        <time>2021-06-01T11:57:38.316Z</time>
      </trkpt>
      <trkpt lat="44.13539" lon="5.86083">
        <ele>1251</ele>
        <time>2021-06-01T11:57:39.316Z</time>
      </trkpt>
      <trkpt lat="44.1354" lon="5.86084">
        <ele>1251</ele>
        <time>2021-06-01T11:57:40.316Z</time>
      </trkpt>
      <trkpt lat="44.1354" lon="5.86086">
        <ele>1251</ele>
        <time>2021-06-01T11:57:41.316Z</time>
      </trkpt>
      <trkpt lat="44.1354" lon="5.86087">
        <ele>1250</ele>
        <time>2021-06-01T11:57:42.316Z</time>
      </trkpt>
      <trkpt lat="44.1354" lon="5.86089">
        <ele>1250</ele>
        <time>2021-06-01T11:57:43.316Z</time>
      </trkpt>
      <trkpt lat="44.1354" lon="5.8609">
        <ele>1250</ele>
        <time>2021-06-01T11:57:44.316Z</time>
      </trkpt>
      <trkpt lat="44.1354" lon="5.86091">
        <ele>1250</ele>
        <time>2021-06-01T11:57:45.316Z</time>
      </trkpt>
      <trkpt lat="44.1354" lon="5.86093">
        <ele>1250</ele>
        <time>2021-06-01T11:57:46.316Z</time>
      </trkpt>
      <trkpt lat="44.13541" lon="5.86095">
        <ele>1250</ele>
        <time>2021-06-01T11:57:47.316Z</time>
      </trkpt>
      <trkpt lat="44.1354" lon="5.86096">
        <ele>1250</ele>
        <time>2021-06-01T11:57:48.316Z</time>
      </trkpt>
      <trkpt lat="44.1354" lon="5.86097">
        <ele>1250</ele>
        <time>2021-06-01T11:57:49.316Z</time>
      </trkpt>
      <trkpt lat="44.1354" lon="5.86099">
        <ele>1250</ele>
        <time>2021-06-01T11:57:50.316Z</time>
      </trkpt>
      <trkpt lat="44.1354" lon="5.861">
        <ele>1250</ele>
        <time>2021-06-01T11:57:51.316Z</time>
      </trkpt>
      <trkpt lat="44.1354" lon="5.86101">
        <ele>1250</ele>
        <time>2021-06-01T11:57:52.316Z</time>
      </trkpt>
      <trkpt lat="44.1354" lon="5.86103">
        <ele>1250</ele>
        <time>2021-06-01T11:57:53.316Z</time>
      </trkpt>
      <trkpt lat="44.1354" lon="5.86104">
        <ele>1250</ele>
        <time>2021-06-01T11:57:54.316Z</time>
      </trkpt>
      <trkpt lat="44.13541" lon="5.86106">
        <ele>1250</ele>
        <time>2021-06-01T11:57:55.316Z</time>
      </trkpt>
      <trkpt lat="44.13541" lon="5.86107">
        <ele>1250</ele>
        <time>2021-06-01T11:57:56.316Z</time>
      </trkpt>
      <trkpt lat="44.13541" lon="5.86109">
        <ele>1250</ele>
        <time>2021-06-01T11:57:57.316Z</time>
      </trkpt>
      <trkpt lat="44.13541" lon="5.8611">
        <ele>1250</ele>
        <time>2021-06-01T11:57:58.316Z</time>
      </trkpt>
      <trkpt lat="44.13541" lon="5.86111">
        <ele>1250</ele>
        <time>2021-06-01T11:57:59.316Z</time>
      </trkpt>
      <trkpt lat="44.13541" lon="5.86113">
        <ele>1250</ele>
        <time>2021-06-01T11:58:00.316Z</time>
      </trkpt>
      <trkpt lat="44.13541" lon="5.86114">
        <ele>1250</ele>
        <time>2021-06-01T11:58:01.316Z</time>
      </trkpt>
      <trkpt lat="44.13542" lon="5.86116">
        <ele>1250</ele>
        <time>2021-06-01T11:58:02.316Z</time>
      </trkpt>
      <trkpt lat="44.13542" lon="5.86117">
        <ele>1250</ele>
        <time>2021-06-01T11:58:03.316Z</time>
      </trkpt>
      <trkpt lat="44.13542" lon="5.86118">
        <ele>1250</ele>
        <time>2021-06-01T11:58:04.316Z</time>
      </trkpt>
      <trkpt lat="44.13542" lon="5.86119">
        <ele>1250</ele>
        <time>2021-06-01T11:58:05.316Z</time>
      </trkpt>
      <trkpt lat="44.13542" lon="5.86121">
        <ele>1250</ele>
        <time>2021-06-01T11:58:06.316Z</time>
      </trkpt>
      <trkpt lat="44.13543" lon="5.86122">
        <ele>1250</ele>
        <time>2021-06-01T11:58:07.316Z</time>
      </trkpt>
      <trkpt lat="44.13543" lon="5.86123">
        <ele>1250</ele>
        <time>2021-06-01T11:58:08.316Z</time>
      </trkpt>
      <trkpt lat="44.13543" lon="5.86124">
        <ele>1250</ele>
        <time>2021-06-01T11:58:09.316Z</time>
      </trkpt>
      <trkpt lat="44.13543" lon="5.86126">
        <ele>1250</ele>
        <time>2021-06-01T11:58:10.316Z</time>
      </trkpt>
      <trkpt lat="44.13543" lon="5.86127">
        <ele>1250</ele>
        <time>2021-06-01T11:58:11.316Z</time>
      </trkpt>
      <trkpt lat="44.13544" lon="5.86129">
        <ele>1250</ele>
        <time>2021-06-01T11:58:12.316Z</time>
      </trkpt>
      <trkpt lat="44.13544" lon="5.86131">
        <ele>1250</ele>
        <time>2021-06-01T11:58:13.316Z</time>
      </trkpt>
      <trkpt lat="44.13544" lon="5.86132">
        <ele>1250</ele>
        <time>2021-06-01T11:58:14.316Z</time>
      </trkpt>
      <trkpt lat="44.13544" lon="5.86134">
        <ele>1250</ele>
        <time>2021-06-01T11:58:15.316Z</time>
      </trkpt>
      <trkpt lat="44.13544" lon="5.86135">
        <ele>1250</ele>
        <time>2021-06-01T11:58:16.316Z</time>
      </trkpt>
      <trkpt lat="44.13545" lon="5.86136">
        <ele>1250</ele>
        <time>2021-06-01T11:58:17.316Z</time>
      </trkpt>
      <trkpt lat="44.13545" lon="5.86137">
        <ele>1250</ele>
        <time>2021-06-01T11:58:18.316Z</time>
      </trkpt>
      <trkpt lat="44.13545" lon="5.86139">
        <ele>1250</ele>
        <time>2021-06-01T11:58:19.316Z</time>
      </trkpt>
      <trkpt lat="44.13545" lon="5.86139">
        <ele>1250</ele>
        <time>2021-06-01T11:58:20.316Z</time>
      </trkpt>
      <trkpt lat="44.13546" lon="5.8614">
        <ele>1250</ele>
        <time>2021-06-01T11:58:21.316Z</time>
      </trkpt>
      <trkpt lat="44.13546" lon="5.8614">
        <ele>1250</ele>
        <time>2021-06-01T11:58:22.316Z</time>
      </trkpt>
      <trkpt lat="44.13546" lon="5.86141">
        <ele>1250</ele>
        <time>2021-06-01T11:58:23.316Z</time>
      </trkpt>
      <trkpt lat="44.13546" lon="5.86142">
        <ele>1250</ele>
        <time>2021-06-01T11:58:24.316Z</time>
      </trkpt>
      <trkpt lat="44.13547" lon="5.86143">
        <ele>1250</ele>
        <time>2021-06-01T11:58:25.316Z</time>
      </trkpt>
      <trkpt lat="44.13547" lon="5.86145">
        <ele>1250</ele>
        <time>2021-06-01T11:58:26.316Z</time>
      </trkpt>
      <trkpt lat="44.13547" lon="5.86146">
        <ele>1250</ele>
        <time>2021-06-01T11:58:27.316Z</time>
      </trkpt>
      <trkpt lat="44.13547" lon="5.86147">
        <ele>1250</ele>
        <time>2021-06-01T11:58:28.316Z</time>
      </trkpt>
      <trkpt lat="44.13547" lon="5.86148">
        <ele>1250</ele>
        <time>2021-06-01T11:58:29.316Z</time>
      </trkpt>
      <trkpt lat="44.13547" lon="5.86149">
        <ele>1250</ele>
        <time>2021-06-01T11:58:30.316Z</time>
      </trkpt>
      <trkpt lat="44.13547" lon="5.86151">
        <ele>1250</ele>
        <time>2021-06-01T11:58:31.316Z</time>
      </trkpt>
      <trkpt lat="44.13548" lon="5.86152">
        <ele>1250</ele>
        <time>2021-06-01T11:58:32.316Z</time>
      </trkpt>
      <trkpt lat="44.13548" lon="5.86153">
        <ele>1250</ele>
        <time>2021-06-01T11:58:33.316Z</time>
      </trkpt>
      <trkpt lat="44.13548" lon="5.86154">
        <ele>1250</ele>
        <time>2021-06-01T11:58:34.316Z</time>
      </trkpt>
      <trkpt lat="44.13548" lon="5.86156">
        <ele>1250</ele>
        <time>2021-06-01T11:58:35.316Z</time>
      </trkpt>
      <trkpt lat="44.13548" lon="5.86157">
        <ele>1250</ele>
        <time>2021-06-01T11:58:36.316Z</time>
      </trkpt>
      <trkpt lat="44.13549" lon="5.86158">
        <ele>1250</ele>
        <time>2021-06-01T11:58:37.316Z</time>
      </trkpt>
      <trkpt lat="44.13549" lon="5.86159">
        <ele>1250</ele>
        <time>2021-06-01T11:58:38.316Z</time>
      </trkpt>
      <trkpt lat="44.13549" lon="5.86161">
        <ele>1250</ele>
        <time>2021-06-01T11:58:39.316Z</time>
      </trkpt>
      <trkpt lat="44.1355" lon="5.86162">
        <ele>1250</ele>
        <time>2021-06-01T11:58:40.316Z</time>
      </trkpt>
      <trkpt lat="44.1355" lon="5.86163">
        <ele>1250</ele>
        <time>2021-06-01T11:58:41.316Z</time>
      </trkpt>
      <trkpt lat="44.13551" lon="5.86165">
        <ele>1250</ele>
        <time>2021-06-01T11:58:42.316Z</time>
      </trkpt>
      <trkpt lat="44.13551" lon="5.86166">
        <ele>1250</ele>
        <time>2021-06-01T11:58:43.316Z</time>
      </trkpt>
      <trkpt lat="44.13551" lon="5.86167">
        <ele>1250</ele>
        <time>2021-06-01T11:58:44.316Z</time>
      </trkpt>
      <trkpt lat="44.13551" lon="5.86169">
        <ele>1250</ele>
        <time>2021-06-01T11:58:45.316Z</time>
      </trkpt>
      <trkpt lat="44.13552" lon="5.8617">
        <ele>1250</ele>
        <time>2021-06-01T11:58:46.316Z</time>
      </trkpt>
      <trkpt lat="44.13552" lon="5.86171">
        <ele>1250</ele>
        <time>2021-06-01T11:58:47.316Z</time>
      </trkpt>
      <trkpt lat="44.13552" lon="5.86173">
        <ele>1250</ele>
        <time>2021-06-01T11:58:48.316Z</time>
      </trkpt>
      <trkpt lat="44.13553" lon="5.86174">
        <ele>1250</ele>
        <time>2021-06-01T11:58:49.316Z</time>
      </trkpt>
      <trkpt lat="44.13553" lon="5.86175">
        <ele>1250</ele>
        <time>2021-06-01T11:58:50.316Z</time>
      </trkpt>
      <trkpt lat="44.13553" lon="5.86177">
        <ele>1250</ele>
        <time>2021-06-01T11:58:51.316Z</time>
      </trkpt>
      <trkpt lat="44.13554" lon="5.86178">
        <ele>1250</ele>
        <time>2021-06-01T11:58:52.316Z</time>
      </trkpt>
      <trkpt lat="44.13554" lon="5.86179">
        <ele>1250</ele>
        <time>2021-06-01T11:58:53.316Z</time>
      </trkpt>
      <trkpt lat="44.13555" lon="5.86181">
        <ele>1250</ele>
        <time>2021-06-01T11:58:54.316Z</time>
      </trkpt>
      <trkpt lat="44.13555" lon="5.86182">
        <ele>1250</ele>
        <time>2021-06-01T11:58:55.316Z</time>
      </trkpt>
      <trkpt lat="44.13556" lon="5.86183">
        <ele>1250</ele>
        <time>2021-06-01T11:58:56.316Z</time>
      </trkpt>
      <trkpt lat="44.13556" lon="5.86185">
        <ele>1250</ele>
        <time>2021-06-01T11:58:57.316Z</time>
      </trkpt>
      <trkpt lat="44.13556" lon="5.86186">
        <ele>1250</ele>
        <time>2021-06-01T11:58:58.316Z</time>
      </trkpt>
      <trkpt lat="44.13557" lon="5.86188">
        <ele>1250</ele>
        <time>2021-06-01T11:58:59.316Z</time>
      </trkpt>
      <trkpt lat="44.13557" lon="5.86189">
        <ele>1250</ele>
        <time>2021-06-01T11:59:00.316Z</time>
      </trkpt>
      <trkpt lat="44.13557" lon="5.8619">
        <ele>1250</ele>
        <time>2021-06-01T11:59:01.316Z</time>
      </trkpt>
      <trkpt lat="44.13558" lon="5.86192">
        <ele>1250</ele>
        <time>2021-06-01T11:59:02.316Z</time>
      </trkpt>
      <trkpt lat="44.13558" lon="5.86193">
        <ele>1250</ele>
        <time>2021-06-01T11:59:03.316Z</time>
      </trkpt>
      <trkpt lat="44.13558" lon="5.86194">
        <ele>1250</ele>
        <time>2021-06-01T11:59:04.316Z</time>
      </trkpt>
      <trkpt lat="44.13559" lon="5.86196">
        <ele>1249</ele>
        <time>2021-06-01T11:59:05.316Z</time>
      </trkpt>
      <trkpt lat="44.13559" lon="5.86197">
        <ele>1249</ele>
        <time>2021-06-01T11:59:06.316Z</time>
      </trkpt>
      <trkpt lat="44.13559" lon="5.86199">
        <ele>1249</ele>
        <time>2021-06-01T11:59:07.316Z</time>
      </trkpt>
      <trkpt lat="44.13559" lon="5.862">
        <ele>1249</ele>
        <time>2021-06-01T11:59:08.316Z</time>
      </trkpt>
      <trkpt lat="44.1356" lon="5.86201">
        <ele>1249</ele>
        <time>2021-06-01T11:59:09.316Z</time>
      </trkpt>
      <trkpt lat="44.1356" lon="5.86202">
        <ele>1249</ele>
        <time>2021-06-01T11:59:10.316Z</time>
      </trkpt>
      <trkpt lat="44.13561" lon="5.86202">
        <ele>1248</ele>
        <time>2021-06-01T11:59:11.316Z</time>
      </trkpt>
      <trkpt lat="44.13561" lon="5.86203">
        <ele>1248</ele>
        <time>2021-06-01T11:59:12.316Z</time>
      </trkpt>
      <trkpt lat="44.13561" lon="5.86204">
        <ele>1248</ele>
        <time>2021-06-01T11:59:13.316Z</time>
      </trkpt>
      <trkpt lat="44.13561" lon="5.86205">
        <ele>1248</ele>
        <time>2021-06-01T11:59:14.316Z</time>
      </trkpt>
      <trkpt lat="44.13562" lon="5.86206">
        <ele>1248</ele>
        <time>2021-06-01T11:59:15.316Z</time>
      </trkpt>
      <trkpt lat="44.13562" lon="5.86208">
        <ele>1248</ele>
        <time>2021-06-01T11:59:16.316Z</time>
      </trkpt>
      <trkpt lat="44.13562" lon="5.86209">
        <ele>1247</ele>
        <time>2021-06-01T11:59:17.316Z</time>
      </trkpt>
      <trkpt lat="44.13563" lon="5.8621">
        <ele>1247</ele>
        <time>2021-06-01T11:59:18.316Z</time>
      </trkpt>
      <trkpt lat="44.13563" lon="5.86212">
        <ele>1247</ele>
        <time>2021-06-01T11:59:19.316Z</time>
      </trkpt>
      <trkpt lat="44.13564" lon="5.86213">
        <ele>1247</ele>
        <time>2021-06-01T11:59:20.316Z</time>
      </trkpt>
      <trkpt lat="44.13564" lon="5.86214">
        <ele>1247</ele>
        <time>2021-06-01T11:59:21.316Z</time>
      </trkpt>
      <trkpt lat="44.13564" lon="5.86215">
        <ele>1247</ele>
        <time>2021-06-01T11:59:22.316Z</time>
      </trkpt>
      <trkpt lat="44.13565" lon="5.86217">
        <ele>1247</ele>
        <time>2021-06-01T11:59:23.316Z</time>
      </trkpt>
      <trkpt lat="44.13565" lon="5.86218">
        <ele>1247</ele>
        <time>2021-06-01T11:59:24.316Z</time>
      </trkpt>
      <trkpt lat="44.13566" lon="5.86218">
        <ele>1247</ele>
        <time>2021-06-01T11:59:25.316Z</time>
      </trkpt>
      <trkpt lat="44.13566" lon="5.86219">
        <ele>1246</ele>
        <time>2021-06-01T11:59:26.316Z</time>
      </trkpt>
      <trkpt lat="44.13566" lon="5.8622">
        <ele>1246</ele>
        <time>2021-06-01T11:59:27.316Z</time>
      </trkpt>
      <trkpt lat="44.13567" lon="5.86222">
        <ele>1246</ele>
        <time>2021-06-01T11:59:28.316Z</time>
      </trkpt>
      <trkpt lat="44.13567" lon="5.86223">
        <ele>1246</ele>
        <time>2021-06-01T11:59:29.316Z</time>
      </trkpt>
      <trkpt lat="44.13568" lon="5.86224">
        <ele>1246</ele>
        <time>2021-06-01T11:59:30.316Z</time>
      </trkpt>
      <trkpt lat="44.13568" lon="5.86225">
        <ele>1246</ele>
        <time>2021-06-01T11:59:31.316Z</time>
      </trkpt>
      <trkpt lat="44.13569" lon="5.86227">
        <ele>1246</ele>
        <time>2021-06-01T11:59:32.316Z</time>
      </trkpt>
      <trkpt lat="44.13569" lon="5.86228">
        <ele>1246</ele>
        <time>2021-06-01T11:59:33.316Z</time>
      </trkpt>
      <trkpt lat="44.13569" lon="5.86229">
        <ele>1246</ele>
        <time>2021-06-01T11:59:34.316Z</time>
      </trkpt>
      <trkpt lat="44.1357" lon="5.86231">
        <ele>1246</ele>
        <time>2021-06-01T11:59:35.316Z</time>
      </trkpt>
      <trkpt lat="44.13571" lon="5.86232">
        <ele>1246</ele>
        <time>2021-06-01T11:59:36.316Z</time>
      </trkpt>
      <trkpt lat="44.13571" lon="5.86233">
        <ele>1246</ele>
        <time>2021-06-01T11:59:37.316Z</time>
      </trkpt>
      <trkpt lat="44.13572" lon="5.86234">
        <ele>1246</ele>
        <time>2021-06-01T11:59:38.316Z</time>
      </trkpt>
      <trkpt lat="44.13572" lon="5.86236">
        <ele>1246</ele>
        <time>2021-06-01T11:59:39.316Z</time>
      </trkpt>
      <trkpt lat="44.13573" lon="5.86237">
        <ele>1246</ele>
        <time>2021-06-01T11:59:40.316Z</time>
      </trkpt>
      <trkpt lat="44.13573" lon="5.86238">
        <ele>1246</ele>
        <time>2021-06-01T11:59:41.316Z</time>
      </trkpt>
      <trkpt lat="44.13574" lon="5.8624">
        <ele>1246</ele>
        <time>2021-06-01T11:59:42.316Z</time>
      </trkpt>
      <trkpt lat="44.13574" lon="5.86241">
        <ele>1246</ele>
        <time>2021-06-01T11:59:43.316Z</time>
      </trkpt>
      <trkpt lat="44.13575" lon="5.86242">
        <ele>1246</ele>
        <time>2021-06-01T11:59:44.316Z</time>
      </trkpt>
      <trkpt lat="44.13576" lon="5.86243">
        <ele>1246</ele>
        <time>2021-06-01T11:59:45.316Z</time>
      </trkpt>
      <trkpt lat="44.13576" lon="5.86244">
        <ele>1245</ele>
        <time>2021-06-01T11:59:46.316Z</time>
      </trkpt>
      <trkpt lat="44.13577" lon="5.86245">
        <ele>1245</ele>
        <time>2021-06-01T11:59:47.316Z</time>
      </trkpt>
      <trkpt lat="44.13577" lon="5.86246">
        <ele>1245</ele>
        <time>2021-06-01T11:59:48.316Z</time>
      </trkpt>
      <trkpt lat="44.13578" lon="5.86246">
        <ele>1245</ele>
        <time>2021-06-01T11:59:49.316Z</time>
      </trkpt>
      <trkpt lat="44.13578" lon="5.86247">
        <ele>1245</ele>
        <time>2021-06-01T11:59:50.316Z</time>
      </trkpt>
      <trkpt lat="44.13579" lon="5.86249">
        <ele>1245</ele>
        <time>2021-06-01T11:59:51.316Z</time>
      </trkpt>
      <trkpt lat="44.1358" lon="5.8625">
        <ele>1245</ele>
        <time>2021-06-01T11:59:52.316Z</time>
      </trkpt>
      <trkpt lat="44.1358" lon="5.86251">
        <ele>1245</ele>
        <time>2021-06-01T11:59:53.316Z</time>
      </trkpt>
      <trkpt lat="44.13581" lon="5.86252">
        <ele>1245</ele>
        <time>2021-06-01T11:59:54.316Z</time>
      </trkpt>
      <trkpt lat="44.13582" lon="5.86253">
        <ele>1245</ele>
        <time>2021-06-01T11:59:55.316Z</time>
      </trkpt>
      <trkpt lat="44.13582" lon="5.86255">
        <ele>1245</ele>
        <time>2021-06-01T11:59:56.316Z</time>
      </trkpt>
      <trkpt lat="44.13583" lon="5.86256">
        <ele>1245</ele>
        <time>2021-06-01T11:59:57.316Z</time>
      </trkpt>
      <trkpt lat="44.13583" lon="5.86257">
        <ele>1245</ele>
        <time>2021-06-01T11:59:58.316Z</time>
      </trkpt>
      <trkpt lat="44.13584" lon="5.86258">
        <ele>1245</ele>
        <time>2021-06-01T11:59:59.316Z</time>
      </trkpt>
      <trkpt lat="44.13584" lon="5.86259">
        <ele>1245</ele>
        <time>2021-06-01T12:00:00.316Z</time>
      </trkpt>
      <trkpt lat="44.13584" lon="5.8626">
        <ele>1245</ele>
        <time>2021-06-01T12:00:01.316Z</time>
      </trkpt>
      <trkpt lat="44.13585" lon="5.86262">
        <ele>1245</ele>
        <time>2021-06-01T12:00:02.316Z</time>
      </trkpt>
      <trkpt lat="44.13586" lon="5.86263">
        <ele>1245</ele>
        <time>2021-06-01T12:00:03.316Z</time>
      </trkpt>
      <trkpt lat="44.13586" lon="5.86264">
        <ele>1244</ele>
        <time>2021-06-01T12:00:04.316Z</time>
      </trkpt>
      <trkpt lat="44.13587" lon="5.86265">
        <ele>1244</ele>
        <time>2021-06-01T12:00:05.316Z</time>
      </trkpt>
      <trkpt lat="44.13587" lon="5.86266">
        <ele>1244</ele>
        <time>2021-06-01T12:00:06.316Z</time>
      </trkpt>
      <trkpt lat="44.13588" lon="5.86267">
        <ele>1244</ele>
        <time>2021-06-01T12:00:07.316Z</time>
      </trkpt>
      <trkpt lat="44.13588" lon="5.86268">
        <ele>1244</ele>
        <time>2021-06-01T12:00:08.316Z</time>
      </trkpt>
      <trkpt lat="44.13588" lon="5.8627">
        <ele>1244</ele>
        <time>2021-06-01T12:00:09.316Z</time>
      </trkpt>
      <trkpt lat="44.13589" lon="5.86271">
        <ele>1244</ele>
        <time>2021-06-01T12:00:10.316Z</time>
      </trkpt>
      <trkpt lat="44.13589" lon="5.86272">
        <ele>1244</ele>
        <time>2021-06-01T12:00:11.316Z</time>
      </trkpt>
      <trkpt lat="44.1359" lon="5.86273">
        <ele>1244</ele>
        <time>2021-06-01T12:00:12.316Z</time>
      </trkpt>
      <trkpt lat="44.13591" lon="5.86274">
        <ele>1244</ele>
        <time>2021-06-01T12:00:13.316Z</time>
      </trkpt>
      <trkpt lat="44.13591" lon="5.86276">
        <ele>1244</ele>
        <time>2021-06-01T12:00:14.316Z</time>
      </trkpt>
      <trkpt lat="44.13592" lon="5.86277">
        <ele>1244</ele>
        <time>2021-06-01T12:00:15.316Z</time>
      </trkpt>
      <trkpt lat="44.13592" lon="5.86278">
        <ele>1244</ele>
        <time>2021-06-01T12:00:16.316Z</time>
      </trkpt>
      <trkpt lat="44.13592" lon="5.86279">
        <ele>1243</ele>
        <time>2021-06-01T12:00:17.316Z</time>
      </trkpt>
      <trkpt lat="44.13593" lon="5.86281">
        <ele>1243</ele>
        <time>2021-06-01T12:00:18.316Z</time>
      </trkpt>
      <trkpt lat="44.13593" lon="5.86282">
        <ele>1243</ele>
        <time>2021-06-01T12:00:19.316Z</time>
      </trkpt>
      <trkpt lat="44.13594" lon="5.86283">
        <ele>1243</ele>
        <time>2021-06-01T12:00:20.316Z</time>
      </trkpt>
      <trkpt lat="44.13594" lon="5.86284">
        <ele>1243</ele>
        <time>2021-06-01T12:00:21.316Z</time>
      </trkpt>
      <trkpt lat="44.13595" lon="5.86285">
        <ele>1243</ele>
        <time>2021-06-01T12:00:22.316Z</time>
      </trkpt>
      <trkpt lat="44.13595" lon="5.86286">
        <ele>1243</ele>
        <time>2021-06-01T12:00:23.316Z</time>
      </trkpt>
      <trkpt lat="44.13596" lon="5.86288">
        <ele>1243</ele>
        <time>2021-06-01T12:00:24.316Z</time>
      </trkpt>
      <trkpt lat="44.13597" lon="5.86289">
        <ele>1243</ele>
        <time>2021-06-01T12:00:25.316Z</time>
      </trkpt>
      <trkpt lat="44.13597" lon="5.8629">
        <ele>1243</ele>
        <time>2021-06-01T12:00:26.316Z</time>
      </trkpt>
      <trkpt lat="44.13597" lon="5.86291">
        <ele>1243</ele>
        <time>2021-06-01T12:00:27.316Z</time>
      </trkpt>
      <trkpt lat="44.13598" lon="5.86292">
        <ele>1243</ele>
        <time>2021-06-01T12:00:28.316Z</time>
      </trkpt>
      <trkpt lat="44.13598" lon="5.86294">
        <ele>1243</ele>
        <time>2021-06-01T12:00:29.316Z</time>
      </trkpt>
      <trkpt lat="44.13599" lon="5.86295">
        <ele>1242</ele>
        <time>2021-06-01T12:00:30.316Z</time>
      </trkpt>
      <trkpt lat="44.136" lon="5.86296">
        <ele>1242</ele>
        <time>2021-06-01T12:00:31.316Z</time>
      </trkpt>
      <trkpt lat="44.136" lon="5.86297">
        <ele>1242</ele>
        <time>2021-06-01T12:00:32.316Z</time>
      </trkpt>
      <trkpt lat="44.13601" lon="5.86298">
        <ele>1242</ele>
        <time>2021-06-01T12:00:33.316Z</time>
      </trkpt>
      <trkpt lat="44.13601" lon="5.86299">
        <ele>1242</ele>
        <time>2021-06-01T12:00:34.316Z</time>
      </trkpt>
      <trkpt lat="44.13601" lon="5.863">
        <ele>1242</ele>
        <time>2021-06-01T12:00:35.316Z</time>
      </trkpt>
      <trkpt lat="44.13602" lon="5.86302">
        <ele>1242</ele>
        <time>2021-06-01T12:00:36.316Z</time>
      </trkpt>
      <trkpt lat="44.13602" lon="5.86303">
        <ele>1242</ele>
        <time>2021-06-01T12:00:37.316Z</time>
      </trkpt>
      <trkpt lat="44.13602" lon="5.86304">
        <ele>1242</ele>
        <time>2021-06-01T12:00:38.316Z</time>
      </trkpt>
      <trkpt lat="44.13603" lon="5.86306">
        <ele>1242</ele>
        <time>2021-06-01T12:00:39.316Z</time>
      </trkpt>
      <trkpt lat="44.13603" lon="5.86307">
        <ele>1242</ele>
        <time>2021-06-01T12:00:40.316Z</time>
      </trkpt>
      <trkpt lat="44.13604" lon="5.86308">
        <ele>1242</ele>
        <time>2021-06-01T12:00:41.316Z</time>
      </trkpt>
      <trkpt lat="44.13604" lon="5.8631">
        <ele>1241</ele>
        <time>2021-06-01T12:00:42.316Z</time>
      </trkpt>
      <trkpt lat="44.13604" lon="5.86311">
        <ele>1241</ele>
        <time>2021-06-01T12:00:43.316Z</time>
      </trkpt>
      <trkpt lat="44.13604" lon="5.86312">
        <ele>1241</ele>
        <time>2021-06-01T12:00:44.316Z</time>
      </trkpt>
      <trkpt lat="44.13605" lon="5.86313">
        <ele>1241</ele>
        <time>2021-06-01T12:00:45.316Z</time>
      </trkpt>
      <trkpt lat="44.13605" lon="5.86315">
        <ele>1241</ele>
        <time>2021-06-01T12:00:46.316Z</time>
      </trkpt>
      <trkpt lat="44.13606" lon="5.86316">
        <ele>1241</ele>
        <time>2021-06-01T12:00:47.316Z</time>
      </trkpt>
      <trkpt lat="44.13606" lon="5.86317">
        <ele>1241</ele>
        <time>2021-06-01T12:00:48.316Z</time>
      </trkpt>
      <trkpt lat="44.13607" lon="5.86318">
        <ele>1241</ele>
        <time>2021-06-01T12:00:49.316Z</time>
      </trkpt>
      <trkpt lat="44.13607" lon="5.8632">
        <ele>1241</ele>
        <time>2021-06-01T12:00:50.316Z</time>
      </trkpt>
      <trkpt lat="44.13608" lon="5.86321">
        <ele>1241</ele>
        <time>2021-06-01T12:00:51.316Z</time>
      </trkpt>
      <trkpt lat="44.13608" lon="5.86323">
        <ele>1241</ele>
        <time>2021-06-01T12:00:52.316Z</time>
      </trkpt>
      <trkpt lat="44.13608" lon="5.86324">
        <ele>1241</ele>
        <time>2021-06-01T12:00:53.316Z</time>
      </trkpt>
      <trkpt lat="44.13609" lon="5.86325">
        <ele>1241</ele>
        <time>2021-06-01T12:00:54.316Z</time>
      </trkpt>
      <trkpt lat="44.13609" lon="5.86327">
        <ele>1241</ele>
        <time>2021-06-01T12:00:55.316Z</time>
      </trkpt>
      <trkpt lat="44.1361" lon="5.86328">
        <ele>1240</ele>
        <time>2021-06-01T12:00:56.316Z</time>
      </trkpt>
      <trkpt lat="44.13611" lon="5.86329">
        <ele>1240</ele>
        <time>2021-06-01T12:00:57.316Z</time>
      </trkpt>
      <trkpt lat="44.13611" lon="5.8633">
        <ele>1240</ele>
        <time>2021-06-01T12:00:58.316Z</time>
      </trkpt>
      <trkpt lat="44.13611" lon="5.86331">
        <ele>1240</ele>
        <time>2021-06-01T12:00:59.316Z</time>
      </trkpt>
      <trkpt lat="44.13612" lon="5.86332">
        <ele>1240</ele>
        <time>2021-06-01T12:01:00.316Z</time>
      </trkpt>
      <trkpt lat="44.13612" lon="5.86334">
        <ele>1240</ele>
        <time>2021-06-01T12:01:01.316Z</time>
      </trkpt>
      <trkpt lat="44.13613" lon="5.86335">
        <ele>1240</ele>
        <time>2021-06-01T12:01:02.316Z</time>
      </trkpt>
      <trkpt lat="44.13613" lon="5.86337">
        <ele>1240</ele>
        <time>2021-06-01T12:01:03.316Z</time>
      </trkpt>
      <trkpt lat="44.13613" lon="5.86338">
        <ele>1240</ele>
        <time>2021-06-01T12:01:04.316Z</time>
      </trkpt>
      <trkpt lat="44.13613" lon="5.86339">
        <ele>1240</ele>
        <time>2021-06-01T12:01:05.316Z</time>
      </trkpt>
      <trkpt lat="44.13613" lon="5.8634">
        <ele>1240</ele>
        <time>2021-06-01T12:01:06.316Z</time>
      </trkpt>
      <trkpt lat="44.13614" lon="5.86342">
        <ele>1240</ele>
        <time>2021-06-01T12:01:07.316Z</time>
      </trkpt>
      <trkpt lat="44.13614" lon="5.86343">
        <ele>1240</ele>
        <time>2021-06-01T12:01:08.316Z</time>
      </trkpt>
      <trkpt lat="44.13614" lon="5.86344">
        <ele>1240</ele>
        <time>2021-06-01T12:01:09.316Z</time>
      </trkpt>
      <trkpt lat="44.13615" lon="5.86346">
        <ele>1240</ele>
        <time>2021-06-01T12:01:10.316Z</time>
      </trkpt>
      <trkpt lat="44.13615" lon="5.86347">
        <ele>1240</ele>
        <time>2021-06-01T12:01:11.316Z</time>
      </trkpt>
      <trkpt lat="44.13616" lon="5.86348">
        <ele>1240</ele>
        <time>2021-06-01T12:01:12.316Z</time>
      </trkpt>
      <trkpt lat="44.13616" lon="5.8635">
        <ele>1240</ele>
        <time>2021-06-01T12:01:13.316Z</time>
      </trkpt>
      <trkpt lat="44.13616" lon="5.86351">
        <ele>1240</ele>
        <time>2021-06-01T12:01:14.316Z</time>
      </trkpt>
      <trkpt lat="44.13617" lon="5.86352">
        <ele>1240</ele>
        <time>2021-06-01T12:01:15.316Z</time>
      </trkpt>
      <trkpt lat="44.13617" lon="5.86353">
        <ele>1240</ele>
        <time>2021-06-01T12:01:16.316Z</time>
      </trkpt>
      <trkpt lat="44.13618" lon="5.86355">
        <ele>1240</ele>
        <time>2021-06-01T12:01:17.316Z</time>
      </trkpt>
      <trkpt lat="44.13618" lon="5.86356">
        <ele>1240</ele>
        <time>2021-06-01T12:01:18.316Z</time>
      </trkpt>
      <trkpt lat="44.13618" lon="5.86357">
        <ele>1240</ele>
        <time>2021-06-01T12:01:19.316Z</time>
      </trkpt>
      <trkpt lat="44.13619" lon="5.86358">
        <ele>1240</ele>
        <time>2021-06-01T12:01:20.316Z</time>
      </trkpt>
      <trkpt lat="44.13619" lon="5.8636">
        <ele>1240</ele>
        <time>2021-06-01T12:01:21.316Z</time>
      </trkpt>
      <trkpt lat="44.1362" lon="5.86361">
        <ele>1240</ele>
        <time>2021-06-01T12:01:22.316Z</time>
      </trkpt>
      <trkpt lat="44.1362" lon="5.86362">
        <ele>1240</ele>
        <time>2021-06-01T12:01:23.316Z</time>
      </trkpt>
      <trkpt lat="44.1362" lon="5.86364">
        <ele>1240</ele>
        <time>2021-06-01T12:01:24.316Z</time>
      </trkpt>
      <trkpt lat="44.1362" lon="5.86365">
        <ele>1240</ele>
        <time>2021-06-01T12:01:25.316Z</time>
      </trkpt>
      <trkpt lat="44.13621" lon="5.86366">
        <ele>1240</ele>
        <time>2021-06-01T12:01:26.316Z</time>
      </trkpt>
      <trkpt lat="44.13621" lon="5.86368">
        <ele>1240</ele>
        <time>2021-06-01T12:01:27.316Z</time>
      </trkpt>
      <trkpt lat="44.13621" lon="5.86369">
        <ele>1240</ele>
        <time>2021-06-01T12:01:28.316Z</time>
      </trkpt>
      <trkpt lat="44.13621" lon="5.8637">
        <ele>1240</ele>
        <time>2021-06-01T12:01:29.316Z</time>
      </trkpt>
      <trkpt lat="44.13621" lon="5.86372">
        <ele>1240</ele>
        <time>2021-06-01T12:01:30.316Z</time>
      </trkpt>
      <trkpt lat="44.13622" lon="5.86373">
        <ele>1239</ele>
        <time>2021-06-01T12:01:31.316Z</time>
      </trkpt>
      <trkpt lat="44.13622" lon="5.86374">
        <ele>1239</ele>
        <time>2021-06-01T12:01:32.316Z</time>
      </trkpt>
      <trkpt lat="44.13622" lon="5.86376">
        <ele>1239</ele>
        <time>2021-06-01T12:01:33.316Z</time>
      </trkpt>
      <trkpt lat="44.13622" lon="5.86377">
        <ele>1239</ele>
        <time>2021-06-01T12:01:34.316Z</time>
      </trkpt>
      <trkpt lat="44.13622" lon="5.86379">
        <ele>1239</ele>
        <time>2021-06-01T12:01:35.316Z</time>
      </trkpt>
      <trkpt lat="44.13623" lon="5.8638">
        <ele>1239</ele>
        <time>2021-06-01T12:01:36.316Z</time>
      </trkpt>
      <trkpt lat="44.13623" lon="5.86381">
        <ele>1239</ele>
        <time>2021-06-01T12:01:37.316Z</time>
      </trkpt>
      <trkpt lat="44.13623" lon="5.86383">
        <ele>1239</ele>
        <time>2021-06-01T12:01:38.316Z</time>
      </trkpt>
      <trkpt lat="44.13624" lon="5.86384">
        <ele>1239</ele>
        <time>2021-06-01T12:01:39.316Z</time>
      </trkpt>
      <trkpt lat="44.13624" lon="5.86386">
        <ele>1239</ele>
        <time>2021-06-01T12:01:40.316Z</time>
      </trkpt>
      <trkpt lat="44.13624" lon="5.86387">
        <ele>1239</ele>
        <time>2021-06-01T12:01:41.316Z</time>
      </trkpt>
      <trkpt lat="44.13624" lon="5.86388">
        <ele>1239</ele>
        <time>2021-06-01T12:01:42.316Z</time>
      </trkpt>
      <trkpt lat="44.13625" lon="5.8639">
        <ele>1239</ele>
        <time>2021-06-01T12:01:43.316Z</time>
      </trkpt>
      <trkpt lat="44.13625" lon="5.86391">
        <ele>1239</ele>
        <time>2021-06-01T12:01:44.316Z</time>
      </trkpt>
      <trkpt lat="44.13625" lon="5.86393">
        <ele>1238</ele>
        <time>2021-06-01T12:01:45.316Z</time>
      </trkpt>
      <trkpt lat="44.13625" lon="5.86394">
        <ele>1238</ele>
        <time>2021-06-01T12:01:46.316Z</time>
      </trkpt>
      <trkpt lat="44.13625" lon="5.86396">
        <ele>1238</ele>
        <time>2021-06-01T12:01:47.316Z</time>
      </trkpt>
      <trkpt lat="44.13625" lon="5.86397">
        <ele>1238</ele>
        <time>2021-06-01T12:01:48.316Z</time>
      </trkpt>
      <trkpt lat="44.13625" lon="5.86398">
        <ele>1238</ele>
        <time>2021-06-01T12:01:49.316Z</time>
      </trkpt>
      <trkpt lat="44.13625" lon="5.86399">
        <ele>1238</ele>
        <time>2021-06-01T12:01:50.316Z</time>
      </trkpt>
      <trkpt lat="44.13625" lon="5.86401">
        <ele>1237</ele>
        <time>2021-06-01T12:01:51.316Z</time>
      </trkpt>
      <trkpt lat="44.13625" lon="5.86402">
        <ele>1237</ele>
        <time>2021-06-01T12:01:52.316Z</time>
      </trkpt>
      <trkpt lat="44.13625" lon="5.86404">
        <ele>1237</ele>
        <time>2021-06-01T12:01:53.316Z</time>
      </trkpt>
      <trkpt lat="44.13625" lon="5.86405">
        <ele>1237</ele>
        <time>2021-06-01T12:01:54.316Z</time>
      </trkpt>
      <trkpt lat="44.13625" lon="5.86406">
        <ele>1237</ele>
        <time>2021-06-01T12:01:55.316Z</time>
      </trkpt>
      <trkpt lat="44.13625" lon="5.86408">
        <ele>1237</ele>
        <time>2021-06-01T12:01:56.316Z</time>
      </trkpt>
      <trkpt lat="44.13625" lon="5.86409">
        <ele>1237</ele>
        <time>2021-06-01T12:01:57.316Z</time>
      </trkpt>
      <trkpt lat="44.13626" lon="5.86411">
        <ele>1236</ele>
        <time>2021-06-01T12:01:58.316Z</time>
      </trkpt>
      <trkpt lat="44.13625" lon="5.86412">
        <ele>1236</ele>
        <time>2021-06-01T12:01:59.316Z</time>
      </trkpt>
      <trkpt lat="44.13625" lon="5.86413">
        <ele>1236</ele>
        <time>2021-06-01T12:02:00.316Z</time>
      </trkpt>
      <trkpt lat="44.13625" lon="5.86415">
        <ele>1236</ele>
        <time>2021-06-01T12:02:01.316Z</time>
      </trkpt>
      <trkpt lat="44.13625" lon="5.86416">
        <ele>1235</ele>
        <time>2021-06-01T12:02:02.316Z</time>
      </trkpt>
      <trkpt lat="44.13626" lon="5.86418">
        <ele>1235</ele>
        <time>2021-06-01T12:02:03.316Z</time>
      </trkpt>
      <trkpt lat="44.13626" lon="5.86419">
        <ele>1235</ele>
        <time>2021-06-01T12:02:04.316Z</time>
      </trkpt>
      <trkpt lat="44.13626" lon="5.8642">
        <ele>1235</ele>
        <time>2021-06-01T12:02:05.316Z</time>
      </trkpt>
      <trkpt lat="44.13626" lon="5.86422">
        <ele>1235</ele>
        <time>2021-06-01T12:02:06.316Z</time>
      </trkpt>
      <trkpt lat="44.13626" lon="5.86423">
        <ele>1234</ele>
        <time>2021-06-01T12:02:07.316Z</time>
      </trkpt>
      <trkpt lat="44.13626" lon="5.86425">
        <ele>1234</ele>
        <time>2021-06-01T12:02:08.316Z</time>
      </trkpt>
      <trkpt lat="44.13625" lon="5.86426">
        <ele>1233</ele>
        <time>2021-06-01T12:02:09.316Z</time>
      </trkpt>
      <trkpt lat="44.13625" lon="5.86427">
        <ele>1232</ele>
        <time>2021-06-01T12:02:10.316Z</time>
      </trkpt>
      <trkpt lat="44.13625" lon="5.86429">
        <ele>1232</ele>
        <time>2021-06-01T12:02:11.316Z</time>
      </trkpt>
      <trkpt lat="44.13625" lon="5.8643">
        <ele>1231</ele>
        <time>2021-06-01T12:02:12.316Z</time>
      </trkpt>
      <trkpt lat="44.13625" lon="5.86431">
        <ele>1231</ele>
        <time>2021-06-01T12:02:13.316Z</time>
      </trkpt>
      <trkpt lat="44.13625" lon="5.86432">
        <ele>1230</ele>
        <time>2021-06-01T12:02:14.316Z</time>
      </trkpt>
      <trkpt lat="44.13625" lon="5.86434">
        <ele>1230</ele>
        <time>2021-06-01T12:02:15.316Z</time>
      </trkpt>
      <trkpt lat="44.13625" lon="5.86435">
        <ele>1229</ele>
        <time>2021-06-01T12:02:16.316Z</time>
      </trkpt>
      <trkpt lat="44.13625" lon="5.86436">
        <ele>1229</ele>
        <time>2021-06-01T12:02:17.316Z</time>
      </trkpt>
      <trkpt lat="44.13625" lon="5.86437">
        <ele>1229</ele>
        <time>2021-06-01T12:02:18.316Z</time>
      </trkpt>
      <trkpt lat="44.13625" lon="5.86439">
        <ele>1228</ele>
        <time>2021-06-01T12:02:19.316Z</time>
      </trkpt>
      <trkpt lat="44.13625" lon="5.8644">
        <ele>1228</ele>
        <time>2021-06-01T12:02:20.316Z</time>
      </trkpt>
      <trkpt lat="44.13625" lon="5.86442">
        <ele>1227</ele>
        <time>2021-06-01T12:02:21.316Z</time>
      </trkpt>
      <trkpt lat="44.13625" lon="5.86443">
        <ele>1227</ele>
        <time>2021-06-01T12:02:22.316Z</time>
      </trkpt>
      <trkpt lat="44.13625" lon="5.86444">
        <ele>1227</ele>
        <time>2021-06-01T12:02:23.316Z</time>
      </trkpt>
      <trkpt lat="44.13625" lon="5.86445">
        <ele>1227</ele>
        <time>2021-06-01T12:02:24.316Z</time>
      </trkpt>
      <trkpt lat="44.13625" lon="5.86446">
        <ele>1226</ele>
        <time>2021-06-01T12:02:25.316Z</time>
      </trkpt>
      <trkpt lat="44.13625" lon="5.86447">
        <ele>1226</ele>
        <time>2021-06-01T12:02:26.316Z</time>
      </trkpt>
      <trkpt lat="44.13625" lon="5.86448">
        <ele>1226</ele>
        <time>2021-06-01T12:02:27.316Z</time>
      </trkpt>
      <trkpt lat="44.13625" lon="5.86449">
        <ele>1225</ele>
        <time>2021-06-01T12:02:28.316Z</time>
      </trkpt>
      <trkpt lat="44.13625" lon="5.8645">
        <ele>1225</ele>
        <time>2021-06-01T12:02:29.316Z</time>
      </trkpt>
      <trkpt lat="44.13625" lon="5.86451">
        <ele>1225</ele>
        <time>2021-06-01T12:02:30.316Z</time>
      </trkpt>
      <trkpt lat="44.13625" lon="5.86453">
        <ele>1224</ele>
        <time>2021-06-01T12:02:31.316Z</time>
      </trkpt>
      <trkpt lat="44.13625" lon="5.86454">
        <ele>1224</ele>
        <time>2021-06-01T12:02:32.316Z</time>
      </trkpt>
      <trkpt lat="44.13625" lon="5.86456">
        <ele>1223</ele>
        <time>2021-06-01T12:02:33.316Z</time>
      </trkpt>
      <trkpt lat="44.13625" lon="5.86457">
        <ele>1223</ele>
        <time>2021-06-01T12:02:34.316Z</time>
      </trkpt>
      <trkpt lat="44.13625" lon="5.86459">
        <ele>1223</ele>
        <time>2021-06-01T12:02:35.316Z</time>
      </trkpt>
      <trkpt lat="44.13625" lon="5.8646">
        <ele>1223</ele>
        <time>2021-06-01T12:02:36.316Z</time>
      </trkpt>
      <trkpt lat="44.13625" lon="5.86461">
        <ele>1222</ele>
        <time>2021-06-01T12:02:37.316Z</time>
      </trkpt>
      <trkpt lat="44.13625" lon="5.86463">
        <ele>1222</ele>
        <time>2021-06-01T12:02:38.316Z</time>
      </trkpt>
      <trkpt lat="44.13625" lon="5.86464">
        <ele>1222</ele>
        <time>2021-06-01T12:02:39.316Z</time>
      </trkpt>
      <trkpt lat="44.13625" lon="5.86466">
        <ele>1222</ele>
        <time>2021-06-01T12:02:40.316Z</time>
      </trkpt>
      <trkpt lat="44.13625" lon="5.86467">
        <ele>1222</ele>
        <time>2021-06-01T12:02:41.316Z</time>
      </trkpt>
      <trkpt lat="44.13625" lon="5.86468">
        <ele>1221</ele>
        <time>2021-06-01T12:02:42.316Z</time>
      </trkpt>
      <trkpt lat="44.13625" lon="5.86469">
        <ele>1221</ele>
        <time>2021-06-01T12:02:43.316Z</time>
      </trkpt>
      <trkpt lat="44.13625" lon="5.86471">
        <ele>1221</ele>
        <time>2021-06-01T12:02:44.316Z</time>
      </trkpt>
      <trkpt lat="44.13625" lon="5.86472">
        <ele>1221</ele>
        <time>2021-06-01T12:02:45.316Z</time>
      </trkpt>
      <trkpt lat="44.13625" lon="5.86474">
        <ele>1221</ele>
        <time>2021-06-01T12:02:46.316Z</time>
      </trkpt>
      <trkpt lat="44.13625" lon="5.86475">
        <ele>1221</ele>
        <time>2021-06-01T12:02:47.316Z</time>
      </trkpt>
      <trkpt lat="44.13625" lon="5.86476">
        <ele>1220</ele>
        <time>2021-06-01T12:02:48.316Z</time>
      </trkpt>
      <trkpt lat="44.13625" lon="5.86478">
        <ele>1220</ele>
        <time>2021-06-01T12:02:49.316Z</time>
      </trkpt>
      <trkpt lat="44.13624" lon="5.86479">
        <ele>1220</ele>
        <time>2021-06-01T12:02:50.316Z</time>
      </trkpt>
      <trkpt lat="44.13625" lon="5.86481">
        <ele>1220</ele>
        <time>2021-06-01T12:02:51.316Z</time>
      </trkpt>
      <trkpt lat="44.13625" lon="5.86482">
        <ele>1220</ele>
        <time>2021-06-01T12:02:52.316Z</time>
      </trkpt>
      <trkpt lat="44.13625" lon="5.86484">
        <ele>1220</ele>
        <time>2021-06-01T12:02:53.316Z</time>
      </trkpt>
      <trkpt lat="44.13625" lon="5.86485">
        <ele>1220</ele>
        <time>2021-06-01T12:02:54.316Z</time>
      </trkpt>
      <trkpt lat="44.13625" lon="5.86487">
        <ele>1219</ele>
        <time>2021-06-01T12:02:55.316Z</time>
      </trkpt>
      <trkpt lat="44.13625" lon="5.86488">
        <ele>1219</ele>
        <time>2021-06-01T12:02:56.316Z</time>
      </trkpt>
      <trkpt lat="44.13625" lon="5.86489">
        <ele>1219</ele>
        <time>2021-06-01T12:02:57.316Z</time>
      </trkpt>
      <trkpt lat="44.13625" lon="5.86491">
        <ele>1219</ele>
        <time>2021-06-01T12:02:58.316Z</time>
      </trkpt>
      <trkpt lat="44.13625" lon="5.86492">
        <ele>1219</ele>
        <time>2021-06-01T12:02:59.316Z</time>
      </trkpt>
      <trkpt lat="44.13625" lon="5.86494">
        <ele>1219</ele>
        <time>2021-06-01T12:03:00.316Z</time>
      </trkpt>
      <trkpt lat="44.13625" lon="5.86495">
        <ele>1219</ele>
        <time>2021-06-01T12:03:01.316Z</time>
      </trkpt>
      <trkpt lat="44.13626" lon="5.86496">
        <ele>1219</ele>
        <time>2021-06-01T12:03:02.316Z</time>
      </trkpt>
      <trkpt lat="44.13626" lon="5.86498">
        <ele>1218</ele>
        <time>2021-06-01T12:03:03.316Z</time>
      </trkpt>
      <trkpt lat="44.13626" lon="5.86499">
        <ele>1218</ele>
        <time>2021-06-01T12:03:04.316Z</time>
      </trkpt>
      <trkpt lat="44.13626" lon="5.865">
        <ele>1218</ele>
        <time>2021-06-01T12:03:05.316Z</time>
      </trkpt>
      <trkpt lat="44.13626" lon="5.86502">
        <ele>1218</ele>
        <time>2021-06-01T12:03:06.316Z</time>
      </trkpt>
      <trkpt lat="44.13626" lon="5.86503">
        <ele>1218</ele>
        <time>2021-06-01T12:03:07.316Z</time>
      </trkpt>
      <trkpt lat="44.13626" lon="5.86505">
        <ele>1218</ele>
        <time>2021-06-01T12:03:08.316Z</time>
      </trkpt>
      <trkpt lat="44.13626" lon="5.86506">
        <ele>1218</ele>
        <time>2021-06-01T12:03:09.316Z</time>
      </trkpt>
      <trkpt lat="44.13626" lon="5.86508">
        <ele>1218</ele>
        <time>2021-06-01T12:03:10.316Z</time>
      </trkpt>
      <trkpt lat="44.13626" lon="5.86509">
        <ele>1218</ele>
        <time>2021-06-01T12:03:11.316Z</time>
      </trkpt>
      <trkpt lat="44.13626" lon="5.8651">
        <ele>1217</ele>
        <time>2021-06-01T12:03:12.316Z</time>
      </trkpt>
      <trkpt lat="44.13627" lon="5.86512">
        <ele>1217</ele>
        <time>2021-06-01T12:03:13.316Z</time>
      </trkpt>
      <trkpt lat="44.13627" lon="5.86514">
        <ele>1217</ele>
        <time>2021-06-01T12:03:14.316Z</time>
      </trkpt>
      <trkpt lat="44.13627" lon="5.86515">
        <ele>1217</ele>
        <time>2021-06-01T12:03:15.316Z</time>
      </trkpt>
      <trkpt lat="44.13627" lon="5.86516">
        <ele>1217</ele>
        <time>2021-06-01T12:03:16.316Z</time>
      </trkpt>
      <trkpt lat="44.13627" lon="5.86518">
        <ele>1217</ele>
        <time>2021-06-01T12:03:17.316Z</time>
      </trkpt>
      <trkpt lat="44.13627" lon="5.86519">
        <ele>1217</ele>
        <time>2021-06-01T12:03:18.316Z</time>
      </trkpt>
      <trkpt lat="44.13627" lon="5.86521">
        <ele>1217</ele>
        <time>2021-06-01T12:03:19.316Z</time>
      </trkpt>
      <trkpt lat="44.13627" lon="5.86522">
        <ele>1216</ele>
        <time>2021-06-01T12:03:20.316Z</time>
      </trkpt>
      <trkpt lat="44.13628" lon="5.86524">
        <ele>1216</ele>
        <time>2021-06-01T12:03:21.316Z</time>
      </trkpt>
      <trkpt lat="44.13628" lon="5.86525">
        <ele>1216</ele>
        <time>2021-06-01T12:03:22.316Z</time>
      </trkpt>
      <trkpt lat="44.13628" lon="5.86526">
        <ele>1216</ele>
        <time>2021-06-01T12:03:23.316Z</time>
      </trkpt>
      <trkpt lat="44.13628" lon="5.86528">
        <ele>1216</ele>
        <time>2021-06-01T12:03:24.316Z</time>
      </trkpt>
      <trkpt lat="44.13628" lon="5.86529">
        <ele>1216</ele>
        <time>2021-06-01T12:03:25.316Z</time>
      </trkpt>
      <trkpt lat="44.13628" lon="5.86531">
        <ele>1216</ele>
        <time>2021-06-01T12:03:26.316Z</time>
      </trkpt>
      <trkpt lat="44.13629" lon="5.86532">
        <ele>1216</ele>
        <time>2021-06-01T12:03:27.316Z</time>
      </trkpt>
      <trkpt lat="44.13629" lon="5.86534">
        <ele>1215</ele>
        <time>2021-06-01T12:03:28.316Z</time>
      </trkpt>
      <trkpt lat="44.13629" lon="5.86535">
        <ele>1215</ele>
        <time>2021-06-01T12:03:29.316Z</time>
      </trkpt>
      <trkpt lat="44.13629" lon="5.86537">
        <ele>1215</ele>
        <time>2021-06-01T12:03:30.316Z</time>
      </trkpt>
      <trkpt lat="44.13629" lon="5.86538">
        <ele>1215</ele>
        <time>2021-06-01T12:03:31.316Z</time>
      </trkpt>
      <trkpt lat="44.13629" lon="5.8654">
        <ele>1215</ele>
        <time>2021-06-01T12:03:32.316Z</time>
      </trkpt>
      <trkpt lat="44.1363" lon="5.86541">
        <ele>1215</ele>
        <time>2021-06-01T12:03:33.316Z</time>
      </trkpt>
      <trkpt lat="44.1363" lon="5.86542">
        <ele>1215</ele>
        <time>2021-06-01T12:03:34.316Z</time>
      </trkpt>
      <trkpt lat="44.1363" lon="5.86544">
        <ele>1214</ele>
        <time>2021-06-01T12:03:35.316Z</time>
      </trkpt>
      <trkpt lat="44.1363" lon="5.86546">
        <ele>1214</ele>
        <time>2021-06-01T12:03:36.316Z</time>
      </trkpt>
      <trkpt lat="44.1363" lon="5.86547">
        <ele>1214</ele>
        <time>2021-06-01T12:03:37.316Z</time>
      </trkpt>
      <trkpt lat="44.1363" lon="5.86549">
        <ele>1214</ele>
        <time>2021-06-01T12:03:38.316Z</time>
      </trkpt>
      <trkpt lat="44.1363" lon="5.8655">
        <ele>1214</ele>
        <time>2021-06-01T12:03:39.316Z</time>
      </trkpt>
      <trkpt lat="44.1363" lon="5.86551">
        <ele>1213</ele>
        <time>2021-06-01T12:03:40.316Z</time>
      </trkpt>
      <trkpt lat="44.13631" lon="5.86553">
        <ele>1213</ele>
        <time>2021-06-01T12:03:41.316Z</time>
      </trkpt>
      <trkpt lat="44.13631" lon="5.86555">
        <ele>1213</ele>
        <time>2021-06-01T12:03:42.316Z</time>
      </trkpt>
      <trkpt lat="44.13631" lon="5.86556">
        <ele>1213</ele>
        <time>2021-06-01T12:03:43.316Z</time>
      </trkpt>
      <trkpt lat="44.13631" lon="5.86558">
        <ele>1213</ele>
        <time>2021-06-01T12:03:44.316Z</time>
      </trkpt>
      <trkpt lat="44.13631" lon="5.86559">
        <ele>1213</ele>
        <time>2021-06-01T12:03:45.316Z</time>
      </trkpt>
      <trkpt lat="44.13631" lon="5.8656">
        <ele>1213</ele>
        <time>2021-06-01T12:03:46.316Z</time>
      </trkpt>
      <trkpt lat="44.13631" lon="5.86562">
        <ele>1213</ele>
        <time>2021-06-01T12:03:47.316Z</time>
      </trkpt>
      <trkpt lat="44.13632" lon="5.86565">
        <ele>1212</ele>
        <time>2021-06-01T12:03:48.316Z</time>
      </trkpt>
      <trkpt lat="44.13632" lon="5.86567">
        <ele>1212</ele>
        <time>2021-06-01T12:03:49.316Z</time>
      </trkpt>
      <trkpt lat="44.13632" lon="5.86568">
        <ele>1212</ele>
        <time>2021-06-01T12:03:50.316Z</time>
      </trkpt>
      <trkpt lat="44.13632" lon="5.8657">
        <ele>1212</ele>
        <time>2021-06-01T12:03:51.316Z</time>
      </trkpt>
      <trkpt lat="44.13632" lon="5.86571">
        <ele>1212</ele>
        <time>2021-06-01T12:03:52.316Z</time>
      </trkpt>
      <trkpt lat="44.13632" lon="5.86573">
        <ele>1212</ele>
        <time>2021-06-01T12:03:53.316Z</time>
      </trkpt>
      <trkpt lat="44.13633" lon="5.86574">
        <ele>1212</ele>
        <time>2021-06-01T12:03:54.316Z</time>
      </trkpt>
      <trkpt lat="44.13633" lon="5.86576">
        <ele>1212</ele>
        <time>2021-06-01T12:03:55.316Z</time>
      </trkpt>
      <trkpt lat="44.13633" lon="5.86577">
        <ele>1212</ele>
        <time>2021-06-01T12:03:56.316Z</time>
      </trkpt>
      <trkpt lat="44.13633" lon="5.86578">
        <ele>1211</ele>
        <time>2021-06-01T12:03:57.316Z</time>
      </trkpt>
      <trkpt lat="44.13633" lon="5.8658">
        <ele>1211</ele>
        <time>2021-06-01T12:03:58.316Z</time>
      </trkpt>
      <trkpt lat="44.13633" lon="5.86582">
        <ele>1211</ele>
        <time>2021-06-01T12:03:59.316Z</time>
      </trkpt>
      <trkpt lat="44.13634" lon="5.86583">
        <ele>1211</ele>
        <time>2021-06-01T12:04:00.316Z</time>
      </trkpt>
      <trkpt lat="44.13634" lon="5.86585">
        <ele>1211</ele>
        <time>2021-06-01T12:04:01.316Z</time>
      </trkpt>
      <trkpt lat="44.13634" lon="5.86586">
        <ele>1211</ele>
        <time>2021-06-01T12:04:02.316Z</time>
      </trkpt>
      <trkpt lat="44.13634" lon="5.86587">
        <ele>1211</ele>
        <time>2021-06-01T12:04:03.316Z</time>
      </trkpt>
      <trkpt lat="44.13634" lon="5.86589">
        <ele>1211</ele>
        <time>2021-06-01T12:04:04.316Z</time>
      </trkpt>
      <trkpt lat="44.13634" lon="5.8659">
        <ele>1211</ele>
        <time>2021-06-01T12:04:05.316Z</time>
      </trkpt>
      <trkpt lat="44.13635" lon="5.86592">
        <ele>1211</ele>
        <time>2021-06-01T12:04:06.316Z</time>
      </trkpt>
      <trkpt lat="44.13635" lon="5.86594">
        <ele>1211</ele>
        <time>2021-06-01T12:04:07.316Z</time>
      </trkpt>
      <trkpt lat="44.13635" lon="5.86595">
        <ele>1210</ele>
        <time>2021-06-01T12:04:08.316Z</time>
      </trkpt>
      <trkpt lat="44.13636" lon="5.86597">
        <ele>1210</ele>
        <time>2021-06-01T12:04:09.316Z</time>
      </trkpt>
      <trkpt lat="44.13636" lon="5.86598">
        <ele>1210</ele>
        <time>2021-06-01T12:04:10.316Z</time>
      </trkpt>
      <trkpt lat="44.13636" lon="5.866">
        <ele>1210</ele>
        <time>2021-06-01T12:04:11.316Z</time>
      </trkpt>
      <trkpt lat="44.13636" lon="5.86601">
        <ele>1210</ele>
        <time>2021-06-01T12:04:12.316Z</time>
      </trkpt>
      <trkpt lat="44.13637" lon="5.86603">
        <ele>1210</ele>
        <time>2021-06-01T12:04:13.316Z</time>
      </trkpt>
      <trkpt lat="44.13637" lon="5.86604">
        <ele>1210</ele>
        <time>2021-06-01T12:04:14.316Z</time>
      </trkpt>
      <trkpt lat="44.13637" lon="5.86606">
        <ele>1210</ele>
        <time>2021-06-01T12:04:15.316Z</time>
      </trkpt>
      <trkpt lat="44.13638" lon="5.86607">
        <ele>1210</ele>
        <time>2021-06-01T12:04:16.316Z</time>
      </trkpt>
      <trkpt lat="44.13638" lon="5.86609">
        <ele>1210</ele>
        <time>2021-06-01T12:04:17.316Z</time>
      </trkpt>
      <trkpt lat="44.13638" lon="5.8661">
        <ele>1209</ele>
        <time>2021-06-01T12:04:18.316Z</time>
      </trkpt>
      <trkpt lat="44.13639" lon="5.86612">
        <ele>1209</ele>
        <time>2021-06-01T12:04:19.316Z</time>
      </trkpt>
      <trkpt lat="44.13639" lon="5.86613">
        <ele>1209</ele>
        <time>2021-06-01T12:04:20.316Z</time>
      </trkpt>
      <trkpt lat="44.1364" lon="5.86615">
        <ele>1209</ele>
        <time>2021-06-01T12:04:21.316Z</time>
      </trkpt>
      <trkpt lat="44.1364" lon="5.86616">
        <ele>1209</ele>
        <time>2021-06-01T12:04:22.316Z</time>
      </trkpt>
      <trkpt lat="44.1364" lon="5.86618">
        <ele>1209</ele>
        <time>2021-06-01T12:04:23.316Z</time>
      </trkpt>
      <trkpt lat="44.13641" lon="5.86619">
        <ele>1209</ele>
        <time>2021-06-01T12:04:24.316Z</time>
      </trkpt>
      <trkpt lat="44.13641" lon="5.86621">
        <ele>1209</ele>
        <time>2021-06-01T12:04:25.316Z</time>
      </trkpt>
      <trkpt lat="44.13641" lon="5.86622">
        <ele>1209</ele>
        <time>2021-06-01T12:04:26.316Z</time>
      </trkpt>
      <trkpt lat="44.13642" lon="5.86624">
        <ele>1209</ele>
        <time>2021-06-01T12:04:27.316Z</time>
      </trkpt>
      <trkpt lat="44.13642" lon="5.86625">
        <ele>1209</ele>
        <time>2021-06-01T12:04:28.316Z</time>
      </trkpt>
      <trkpt lat="44.13643" lon="5.86626">
        <ele>1208</ele>
        <time>2021-06-01T12:04:29.316Z</time>
      </trkpt>
      <trkpt lat="44.13643" lon="5.86628">
        <ele>1208</ele>
        <time>2021-06-01T12:04:30.316Z</time>
      </trkpt>
      <trkpt lat="44.13644" lon="5.86629">
        <ele>1208</ele>
        <time>2021-06-01T12:04:31.316Z</time>
      </trkpt>
      <trkpt lat="44.13644" lon="5.86631">
        <ele>1208</ele>
        <time>2021-06-01T12:04:32.316Z</time>
      </trkpt>
      <trkpt lat="44.13644" lon="5.86633">
        <ele>1208</ele>
        <time>2021-06-01T12:04:33.316Z</time>
      </trkpt>
      <trkpt lat="44.13645" lon="5.86634">
        <ele>1208</ele>
        <time>2021-06-01T12:04:34.316Z</time>
      </trkpt>
      <trkpt lat="44.13645" lon="5.86636">
        <ele>1208</ele>
        <time>2021-06-01T12:04:35.316Z</time>
      </trkpt>
      <trkpt lat="44.13645" lon="5.86637">
        <ele>1208</ele>
        <time>2021-06-01T12:04:36.316Z</time>
      </trkpt>
      <trkpt lat="44.13645" lon="5.86639">
        <ele>1208</ele>
        <time>2021-06-01T12:04:37.316Z</time>
      </trkpt>
      <trkpt lat="44.13646" lon="5.8664">
        <ele>1208</ele>
        <time>2021-06-01T12:04:38.316Z</time>
      </trkpt>
      <trkpt lat="44.13646" lon="5.86642">
        <ele>1208</ele>
        <time>2021-06-01T12:04:39.316Z</time>
      </trkpt>
      <trkpt lat="44.13646" lon="5.86643">
        <ele>1207</ele>
        <time>2021-06-01T12:04:40.316Z</time>
      </trkpt>
      <trkpt lat="44.13647" lon="5.86644">
        <ele>1207</ele>
        <time>2021-06-01T12:04:41.316Z</time>
      </trkpt>
      <trkpt lat="44.13647" lon="5.86646">
        <ele>1207</ele>
        <time>2021-06-01T12:04:42.316Z</time>
      </trkpt>
      <trkpt lat="44.13647" lon="5.86647">
        <ele>1207</ele>
        <time>2021-06-01T12:04:43.316Z</time>
      </trkpt>
      <trkpt lat="44.13648" lon="5.86649">
        <ele>1207</ele>
        <time>2021-06-01T12:04:44.316Z</time>
      </trkpt>
      <trkpt lat="44.13648" lon="5.8665">
        <ele>1207</ele>
        <time>2021-06-01T12:04:45.316Z</time>
      </trkpt>
      <trkpt lat="44.13648" lon="5.86651">
        <ele>1207</ele>
        <time>2021-06-01T12:04:46.316Z</time>
      </trkpt>
      <trkpt lat="44.13648" lon="5.86651">
        <ele>1207</ele>
        <time>2021-06-01T12:04:47.316Z</time>
      </trkpt>
      <trkpt lat="44.13648" lon="5.86651">
        <ele>1207</ele>
        <time>2021-06-01T12:04:48.316Z</time>
      </trkpt>
      <trkpt lat="44.13648" lon="5.86651">
        <ele>1206</ele>
        <time>2021-06-01T12:04:49.316Z</time>
      </trkpt>
      <trkpt lat="44.13648" lon="5.86652">
        <ele>1206</ele>
        <time>2021-06-01T12:04:50.316Z</time>
      </trkpt>
      <trkpt lat="44.13649" lon="5.86653">
        <ele>1206</ele>
        <time>2021-06-01T12:04:51.316Z</time>
      </trkpt>
      <trkpt lat="44.13649" lon="5.86654">
        <ele>1206</ele>
        <time>2021-06-01T12:04:52.316Z</time>
      </trkpt>
      <trkpt lat="44.13649" lon="5.86655">
        <ele>1206</ele>
        <time>2021-06-01T12:04:53.316Z</time>
      </trkpt>
      <trkpt lat="44.1365" lon="5.86656">
        <ele>1206</ele>
        <time>2021-06-01T12:04:54.316Z</time>
      </trkpt>
      <trkpt lat="44.1365" lon="5.86657">
        <ele>1206</ele>
        <time>2021-06-01T12:04:55.316Z</time>
      </trkpt>
      <trkpt lat="44.1365" lon="5.86659">
        <ele>1206</ele>
        <time>2021-06-01T12:04:56.316Z</time>
      </trkpt>
      <trkpt lat="44.13651" lon="5.8666">
        <ele>1206</ele>
        <time>2021-06-01T12:04:57.316Z</time>
      </trkpt>
      <trkpt lat="44.13651" lon="5.86661">
        <ele>1206</ele>
        <time>2021-06-01T12:04:58.316Z</time>
      </trkpt>
      <trkpt lat="44.13651" lon="5.86663">
        <ele>1206</ele>
        <time>2021-06-01T12:04:59.316Z</time>
      </trkpt>
      <trkpt lat="44.13651" lon="5.86664">
        <ele>1206</ele>
        <time>2021-06-01T12:05:00.316Z</time>
      </trkpt>
      <trkpt lat="44.13651" lon="5.86665">
        <ele>1206</ele>
        <time>2021-06-01T12:05:01.316Z</time>
      </trkpt>
      <trkpt lat="44.13652" lon="5.86666">
        <ele>1205</ele>
        <time>2021-06-01T12:05:02.316Z</time>
      </trkpt>
      <trkpt lat="44.13652" lon="5.86668">
        <ele>1205</ele>
        <time>2021-06-01T12:05:03.316Z</time>
      </trkpt>
      <trkpt lat="44.13653" lon="5.86669">
        <ele>1205</ele>
        <time>2021-06-01T12:05:04.316Z</time>
      </trkpt>
      <trkpt lat="44.13653" lon="5.8667">
        <ele>1205</ele>
        <time>2021-06-01T12:05:05.316Z</time>
      </trkpt>
      <trkpt lat="44.13653" lon="5.86672">
        <ele>1205</ele>
        <time>2021-06-01T12:05:06.316Z</time>
      </trkpt>
      <trkpt lat="44.13654" lon="5.86673">
        <ele>1205</ele>
        <time>2021-06-01T12:05:07.316Z</time>
      </trkpt>
      <trkpt lat="44.13655" lon="5.86674">
        <ele>1205</ele>
        <time>2021-06-01T12:05:08.316Z</time>
      </trkpt>
      <trkpt lat="44.13655" lon="5.86676">
        <ele>1205</ele>
        <time>2021-06-01T12:05:09.316Z</time>
      </trkpt>
      <trkpt lat="44.13655" lon="5.86678">
        <ele>1205</ele>
        <time>2021-06-01T12:05:10.316Z</time>
      </trkpt>
      <trkpt lat="44.13655" lon="5.86679">
        <ele>1205</ele>
        <time>2021-06-01T12:05:11.316Z</time>
      </trkpt>
      <trkpt lat="44.13656" lon="5.8668">
        <ele>1205</ele>
        <time>2021-06-01T12:05:12.316Z</time>
      </trkpt>
      <trkpt lat="44.13656" lon="5.86682">
        <ele>1205</ele>
        <time>2021-06-01T12:05:13.316Z</time>
      </trkpt>
      <trkpt lat="44.13657" lon="5.86683">
        <ele>1205</ele>
        <time>2021-06-01T12:05:14.316Z</time>
      </trkpt>
      <trkpt lat="44.13657" lon="5.86684">
        <ele>1205</ele>
        <time>2021-06-01T12:05:15.316Z</time>
      </trkpt>
      <trkpt lat="44.13658" lon="5.86685">
        <ele>1205</ele>
        <time>2021-06-01T12:05:16.316Z</time>
      </trkpt>
      <trkpt lat="44.13658" lon="5.86687">
        <ele>1205</ele>
        <time>2021-06-01T12:05:17.316Z</time>
      </trkpt>
      <trkpt lat="44.13658" lon="5.86688">
        <ele>1204</ele>
        <time>2021-06-01T12:05:18.316Z</time>
      </trkpt>
      <trkpt lat="44.13659" lon="5.8669">
        <ele>1204</ele>
        <time>2021-06-01T12:05:19.316Z</time>
      </trkpt>
      <trkpt lat="44.13659" lon="5.86691">
        <ele>1204</ele>
        <time>2021-06-01T12:05:20.316Z</time>
      </trkpt>
      <trkpt lat="44.13659" lon="5.86693">
        <ele>1204</ele>
        <time>2021-06-01T12:05:21.316Z</time>
      </trkpt>
      <trkpt lat="44.13659" lon="5.86694">
        <ele>1204</ele>
        <time>2021-06-01T12:05:22.316Z</time>
      </trkpt>
      <trkpt lat="44.1366" lon="5.86695">
        <ele>1204</ele>
        <time>2021-06-01T12:05:23.316Z</time>
      </trkpt>
      <trkpt lat="44.1366" lon="5.86696">
        <ele>1204</ele>
        <time>2021-06-01T12:05:24.316Z</time>
      </trkpt>
      <trkpt lat="44.13661" lon="5.86698">
        <ele>1204</ele>
        <time>2021-06-01T12:05:25.316Z</time>
      </trkpt>
      <trkpt lat="44.13661" lon="5.86699">
        <ele>1204</ele>
        <time>2021-06-01T12:05:26.316Z</time>
      </trkpt>
      <trkpt lat="44.13661" lon="5.86701">
        <ele>1203</ele>
        <time>2021-06-01T12:05:27.316Z</time>
      </trkpt>
      <trkpt lat="44.13662" lon="5.86702">
        <ele>1203</ele>
        <time>2021-06-01T12:05:28.316Z</time>
      </trkpt>
      <trkpt lat="44.13662" lon="5.86703">
        <ele>1203</ele>
        <time>2021-06-01T12:05:29.316Z</time>
      </trkpt>
      <trkpt lat="44.13663" lon="5.86705">
        <ele>1203</ele>
        <time>2021-06-01T12:05:30.316Z</time>
      </trkpt>
      <trkpt lat="44.13663" lon="5.86706">
        <ele>1203</ele>
        <time>2021-06-01T12:05:31.316Z</time>
      </trkpt>
      <trkpt lat="44.13663" lon="5.86708">
        <ele>1203</ele>
        <time>2021-06-01T12:05:32.316Z</time>
      </trkpt>
      <trkpt lat="44.13663" lon="5.86709">
        <ele>1203</ele>
        <time>2021-06-01T12:05:33.316Z</time>
      </trkpt>
      <trkpt lat="44.13664" lon="5.86711">
        <ele>1202</ele>
        <time>2021-06-01T12:05:34.316Z</time>
      </trkpt>
      <trkpt lat="44.13664" lon="5.86712">
        <ele>1202</ele>
        <time>2021-06-01T12:05:35.316Z</time>
      </trkpt>
      <trkpt lat="44.13664" lon="5.86713">
        <ele>1202</ele>
        <time>2021-06-01T12:05:36.316Z</time>
      </trkpt>
      <trkpt lat="44.13665" lon="5.86715">
        <ele>1202</ele>
        <time>2021-06-01T12:05:37.316Z</time>
      </trkpt>
      <trkpt lat="44.13665" lon="5.86716">
        <ele>1202</ele>
        <time>2021-06-01T12:05:38.316Z</time>
      </trkpt>
      <trkpt lat="44.13665" lon="5.86718">
        <ele>1201</ele>
        <time>2021-06-01T12:05:39.316Z</time>
      </trkpt>
      <trkpt lat="44.13666" lon="5.86719">
        <ele>1201</ele>
        <time>2021-06-01T12:05:40.316Z</time>
      </trkpt>
      <trkpt lat="44.13666" lon="5.86721">
        <ele>1201</ele>
        <time>2021-06-01T12:05:41.316Z</time>
      </trkpt>
      <trkpt lat="44.13667" lon="5.86722">
        <ele>1201</ele>
        <time>2021-06-01T12:05:42.316Z</time>
      </trkpt>
      <trkpt lat="44.13667" lon="5.86723">
        <ele>1201</ele>
        <time>2021-06-01T12:05:43.316Z</time>
      </trkpt>
      <trkpt lat="44.13667" lon="5.86725">
        <ele>1201</ele>
        <time>2021-06-01T12:05:44.316Z</time>
      </trkpt>
      <trkpt lat="44.13667" lon="5.86727">
        <ele>1200</ele>
        <time>2021-06-01T12:05:45.316Z</time>
      </trkpt>
      <trkpt lat="44.13668" lon="5.86728">
        <ele>1200</ele>
        <time>2021-06-01T12:05:46.316Z</time>
      </trkpt>
      <trkpt lat="44.13668" lon="5.8673">
        <ele>1200</ele>
        <time>2021-06-01T12:05:47.316Z</time>
      </trkpt>
      <trkpt lat="44.13668" lon="5.86731">
        <ele>1200</ele>
        <time>2021-06-01T12:05:48.316Z</time>
      </trkpt>
      <trkpt lat="44.13668" lon="5.86732">
        <ele>1200</ele>
        <time>2021-06-01T12:05:49.316Z</time>
      </trkpt>
      <trkpt lat="44.13669" lon="5.86734">
        <ele>1199</ele>
        <time>2021-06-01T12:05:50.316Z</time>
      </trkpt>
      <trkpt lat="44.13669" lon="5.86735">
        <ele>1199</ele>
        <time>2021-06-01T12:05:51.316Z</time>
      </trkpt>
      <trkpt lat="44.1367" lon="5.86737">
        <ele>1199</ele>
        <time>2021-06-01T12:05:52.316Z</time>
      </trkpt>
      <trkpt lat="44.1367" lon="5.86738">
        <ele>1199</ele>
        <time>2021-06-01T12:05:53.316Z</time>
      </trkpt>
      <trkpt lat="44.1367" lon="5.86739">
        <ele>1199</ele>
        <time>2021-06-01T12:05:54.316Z</time>
      </trkpt>
      <trkpt lat="44.13671" lon="5.86741">
        <ele>1199</ele>
        <time>2021-06-01T12:05:55.316Z</time>
      </trkpt>
      <trkpt lat="44.13671" lon="5.86743">
        <ele>1199</ele>
        <time>2021-06-01T12:05:56.316Z</time>
      </trkpt>
      <trkpt lat="44.13671" lon="5.86744">
        <ele>1199</ele>
        <time>2021-06-01T12:05:57.316Z</time>
      </trkpt>
      <trkpt lat="44.13671" lon="5.86746">
        <ele>1199</ele>
        <time>2021-06-01T12:05:58.316Z</time>
      </trkpt>
      <trkpt lat="44.13672" lon="5.86747">
        <ele>1199</ele>
        <time>2021-06-01T12:05:59.316Z</time>
      </trkpt>
      <trkpt lat="44.13672" lon="5.86748">
        <ele>1199</ele>
        <time>2021-06-01T12:06:00.316Z</time>
      </trkpt>
      <trkpt lat="44.13672" lon="5.8675">
        <ele>1199</ele>
        <time>2021-06-01T12:06:01.316Z</time>
      </trkpt>
      <trkpt lat="44.13673" lon="5.86752">
        <ele>1198</ele>
        <time>2021-06-01T12:06:02.316Z</time>
      </trkpt>
      <trkpt lat="44.13673" lon="5.86753">
        <ele>1198</ele>
        <time>2021-06-01T12:06:03.316Z</time>
      </trkpt>
      <trkpt lat="44.13673" lon="5.86755">
        <ele>1198</ele>
        <time>2021-06-01T12:06:04.316Z</time>
      </trkpt>
      <trkpt lat="44.13673" lon="5.86756">
        <ele>1198</ele>
        <time>2021-06-01T12:06:05.316Z</time>
      </trkpt>
      <trkpt lat="44.13674" lon="5.86758">
        <ele>1198</ele>
        <time>2021-06-01T12:06:06.316Z</time>
      </trkpt>
      <trkpt lat="44.13674" lon="5.86759">
        <ele>1198</ele>
        <time>2021-06-01T12:06:07.316Z</time>
      </trkpt>
      <trkpt lat="44.13674" lon="5.86761">
        <ele>1198</ele>
        <time>2021-06-01T12:06:08.316Z</time>
      </trkpt>
      <trkpt lat="44.13675" lon="5.86762">
        <ele>1198</ele>
        <time>2021-06-01T12:06:09.316Z</time>
      </trkpt>
      <trkpt lat="44.13675" lon="5.86764">
        <ele>1198</ele>
        <time>2021-06-01T12:06:10.316Z</time>
      </trkpt>
      <trkpt lat="44.13675" lon="5.86766">
        <ele>1197</ele>
        <time>2021-06-01T12:06:11.316Z</time>
      </trkpt>
      <trkpt lat="44.13675" lon="5.86767">
        <ele>1197</ele>
        <time>2021-06-01T12:06:12.316Z</time>
      </trkpt>
      <trkpt lat="44.13676" lon="5.86769">
        <ele>1197</ele>
        <time>2021-06-01T12:06:13.316Z</time>
      </trkpt>
      <trkpt lat="44.13676" lon="5.8677">
        <ele>1197</ele>
        <time>2021-06-01T12:06:14.316Z</time>
      </trkpt>
      <trkpt lat="44.13676" lon="5.86772">
        <ele>1197</ele>
        <time>2021-06-01T12:06:15.316Z</time>
      </trkpt>
      <trkpt lat="44.13676" lon="5.86773">
        <ele>1197</ele>
        <time>2021-06-01T12:06:16.316Z</time>
      </trkpt>
      <trkpt lat="44.13677" lon="5.86775">
        <ele>1197</ele>
        <time>2021-06-01T12:06:17.316Z</time>
      </trkpt>
      <trkpt lat="44.13677" lon="5.86776">
        <ele>1196</ele>
        <time>2021-06-01T12:06:18.316Z</time>
      </trkpt>
      <trkpt lat="44.13677" lon="5.86778">
        <ele>1196</ele>
        <time>2021-06-01T12:06:19.316Z</time>
      </trkpt>
      <trkpt lat="44.13677" lon="5.86779">
        <ele>1196</ele>
        <time>2021-06-01T12:06:20.316Z</time>
      </trkpt>
      <trkpt lat="44.13677" lon="5.86781">
        <ele>1196</ele>
        <time>2021-06-01T12:06:21.316Z</time>
      </trkpt>
      <trkpt lat="44.13678" lon="5.86782">
        <ele>1196</ele>
        <time>2021-06-01T12:06:22.316Z</time>
      </trkpt>
      <trkpt lat="44.13678" lon="5.86784">
        <ele>1196</ele>
        <time>2021-06-01T12:06:23.316Z</time>
      </trkpt>
      <trkpt lat="44.13678" lon="5.86785">
        <ele>1196</ele>
        <time>2021-06-01T12:06:24.316Z</time>
      </trkpt>
      <trkpt lat="44.13679" lon="5.86787">
        <ele>1196</ele>
        <time>2021-06-01T12:06:25.316Z</time>
      </trkpt>
      <trkpt lat="44.13679" lon="5.86788">
        <ele>1195</ele>
        <time>2021-06-01T12:06:26.316Z</time>
      </trkpt>
      <trkpt lat="44.13679" lon="5.8679">
        <ele>1195</ele>
        <time>2021-06-01T12:06:27.316Z</time>
      </trkpt>
      <trkpt lat="44.13679" lon="5.86792">
        <ele>1195</ele>
        <time>2021-06-01T12:06:28.316Z</time>
      </trkpt>
      <trkpt lat="44.1368" lon="5.86793">
        <ele>1195</ele>
        <time>2021-06-01T12:06:29.316Z</time>
      </trkpt>
      <trkpt lat="44.1368" lon="5.86795">
        <ele>1195</ele>
        <time>2021-06-01T12:06:30.316Z</time>
      </trkpt>
      <trkpt lat="44.1368" lon="5.86796">
        <ele>1195</ele>
        <time>2021-06-01T12:06:31.316Z</time>
      </trkpt>
      <trkpt lat="44.13681" lon="5.86797">
        <ele>1195</ele>
        <time>2021-06-01T12:06:32.316Z</time>
      </trkpt>
      <trkpt lat="44.13681" lon="5.86799">
        <ele>1195</ele>
        <time>2021-06-01T12:06:33.316Z</time>
      </trkpt>
      <trkpt lat="44.13681" lon="5.86801">
        <ele>1195</ele>
        <time>2021-06-01T12:06:34.316Z</time>
      </trkpt>
      <trkpt lat="44.13682" lon="5.86802">
        <ele>1194</ele>
        <time>2021-06-01T12:06:35.316Z</time>
      </trkpt>
      <trkpt lat="44.13682" lon="5.86804">
        <ele>1194</ele>
        <time>2021-06-01T12:06:36.316Z</time>
      </trkpt>
      <trkpt lat="44.13682" lon="5.86805">
        <ele>1194</ele>
        <time>2021-06-01T12:06:37.316Z</time>
      </trkpt>
      <trkpt lat="44.13682" lon="5.86806">
        <ele>1194</ele>
        <time>2021-06-01T12:06:38.316Z</time>
      </trkpt>
      <trkpt lat="44.13682" lon="5.86808">
        <ele>1194</ele>
        <time>2021-06-01T12:06:39.316Z</time>
      </trkpt>
      <trkpt lat="44.13683" lon="5.8681">
        <ele>1194</ele>
        <time>2021-06-01T12:06:40.316Z</time>
      </trkpt>
      <trkpt lat="44.13682" lon="5.86811">
        <ele>1194</ele>
        <time>2021-06-01T12:06:41.316Z</time>
      </trkpt>
      <trkpt lat="44.13681" lon="5.86813">
        <ele>1194</ele>
        <time>2021-06-01T12:06:42.316Z</time>
      </trkpt>
      <trkpt lat="44.13681" lon="5.86813">
        <ele>1193</ele>
        <time>2021-06-01T12:06:43.316Z</time>
      </trkpt>
      <trkpt lat="44.1368" lon="5.86814">
        <ele>1193</ele>
        <time>2021-06-01T12:06:44.316Z</time>
      </trkpt>
      <trkpt lat="44.13678" lon="5.86815">
        <ele>1193</ele>
        <time>2021-06-01T12:06:45.316Z</time>
      </trkpt>
      <trkpt lat="44.13677" lon="5.86815">
        <ele>1193</ele>
        <time>2021-06-01T12:06:46.316Z</time>
      </trkpt>
      <trkpt lat="44.13676" lon="5.86815">
        <ele>1193</ele>
        <time>2021-06-01T12:06:47.316Z</time>
      </trkpt>
      <trkpt lat="44.13675" lon="5.86815">
        <ele>1193</ele>
        <time>2021-06-01T12:06:48.316Z</time>
      </trkpt>
      <trkpt lat="44.13673" lon="5.86815">
        <ele>1193</ele>
        <time>2021-06-01T12:06:49.316Z</time>
      </trkpt>
      <trkpt lat="44.13672" lon="5.86815">
        <ele>1193</ele>
        <time>2021-06-01T12:06:50.316Z</time>
      </trkpt>
      <trkpt lat="44.13671" lon="5.86815">
        <ele>1193</ele>
        <time>2021-06-01T12:06:51.316Z</time>
      </trkpt>
      <trkpt lat="44.1367" lon="5.86815">
        <ele>1193</ele>
        <time>2021-06-01T12:06:52.316Z</time>
      </trkpt>
      <trkpt lat="44.13669" lon="5.86815">
        <ele>1193</ele>
        <time>2021-06-01T12:06:53.316Z</time>
      </trkpt>
      <trkpt lat="44.13668" lon="5.86814">
        <ele>1193</ele>
        <time>2021-06-01T12:06:54.316Z</time>
      </trkpt>
      <trkpt lat="44.13667" lon="5.86813">
        <ele>1192</ele>
        <time>2021-06-01T12:06:55.316Z</time>
      </trkpt>
      <trkpt lat="44.13666" lon="5.86813">
        <ele>1192</ele>
        <time>2021-06-01T12:06:56.316Z</time>
      </trkpt>
      <trkpt lat="44.13665" lon="5.86812">
        <ele>1192</ele>
        <time>2021-06-01T12:06:57.316Z</time>
      </trkpt>
      <trkpt lat="44.13664" lon="5.86812">
        <ele>1192</ele>
        <time>2021-06-01T12:06:58.316Z</time>
      </trkpt>
      <trkpt lat="44.13663" lon="5.86811">
        <ele>1192</ele>
        <time>2021-06-01T12:06:59.316Z</time>
      </trkpt>
      <trkpt lat="44.13662" lon="5.8681">
        <ele>1192</ele>
        <time>2021-06-01T12:07:00.316Z</time>
      </trkpt>
      <trkpt lat="44.13661" lon="5.8681">
        <ele>1192</ele>
        <time>2021-06-01T12:07:01.316Z</time>
      </trkpt>
      <trkpt lat="44.1366" lon="5.86809">
        <ele>1192</ele>
        <time>2021-06-01T12:07:02.316Z</time>
      </trkpt>
      <trkpt lat="44.13659" lon="5.86809">
        <ele>1192</ele>
        <time>2021-06-01T12:07:03.316Z</time>
      </trkpt>
      <trkpt lat="44.13658" lon="5.86808">
        <ele>1192</ele>
        <time>2021-06-01T12:07:04.316Z</time>
      </trkpt>
      <trkpt lat="44.13657" lon="5.86807">
        <ele>1192</ele>
        <time>2021-06-01T12:07:05.316Z</time>
      </trkpt>
      <trkpt lat="44.13656" lon="5.86806">
        <ele>1191</ele>
        <time>2021-06-01T12:07:06.316Z</time>
      </trkpt>
      <trkpt lat="44.13655" lon="5.86805">
        <ele>1191</ele>
        <time>2021-06-01T12:07:07.316Z</time>
      </trkpt>
      <trkpt lat="44.13655" lon="5.86804">
        <ele>1191</ele>
        <time>2021-06-01T12:07:08.316Z</time>
      </trkpt>
      <trkpt lat="44.13654" lon="5.86803">
        <ele>1191</ele>
        <time>2021-06-01T12:07:09.316Z</time>
      </trkpt>
      <trkpt lat="44.13653" lon="5.86802">
        <ele>1191</ele>
        <time>2021-06-01T12:07:10.316Z</time>
      </trkpt>
      <trkpt lat="44.13652" lon="5.86801">
        <ele>1191</ele>
        <time>2021-06-01T12:07:11.316Z</time>
      </trkpt>
      <trkpt lat="44.13651" lon="5.868">
        <ele>1191</ele>
        <time>2021-06-01T12:07:12.316Z</time>
      </trkpt>
      <trkpt lat="44.13651" lon="5.86799">
        <ele>1191</ele>
        <time>2021-06-01T12:07:13.316Z</time>
      </trkpt>
      <trkpt lat="44.1365" lon="5.86798">
        <ele>1191</ele>
        <time>2021-06-01T12:07:14.316Z</time>
      </trkpt>
      <trkpt lat="44.13649" lon="5.86797">
        <ele>1191</ele>
        <time>2021-06-01T12:07:15.316Z</time>
      </trkpt>
      <trkpt lat="44.13648" lon="5.86796">
        <ele>1191</ele>
        <time>2021-06-01T12:07:16.316Z</time>
      </trkpt>
      <trkpt lat="44.13648" lon="5.86795">
        <ele>1191</ele>
        <time>2021-06-01T12:07:17.316Z</time>
      </trkpt>
      <trkpt lat="44.13647" lon="5.86793">
        <ele>1191</ele>
        <time>2021-06-01T12:07:18.316Z</time>
      </trkpt>
      <trkpt lat="44.13646" lon="5.86792">
        <ele>1191</ele>
        <time>2021-06-01T12:07:19.316Z</time>
      </trkpt>
      <trkpt lat="44.13645" lon="5.86791">
        <ele>1191</ele>
        <time>2021-06-01T12:07:20.316Z</time>
      </trkpt>
      <trkpt lat="44.13645" lon="5.8679">
        <ele>1191</ele>
        <time>2021-06-01T12:07:21.316Z</time>
      </trkpt>
      <trkpt lat="44.13644" lon="5.86789">
        <ele>1191</ele>
        <time>2021-06-01T12:07:22.316Z</time>
      </trkpt>
      <trkpt lat="44.13643" lon="5.86788">
        <ele>1191</ele>
        <time>2021-06-01T12:07:23.316Z</time>
      </trkpt>
      <trkpt lat="44.13643" lon="5.86787">
        <ele>1191</ele>
        <time>2021-06-01T12:07:24.316Z</time>
      </trkpt>
      <trkpt lat="44.13643" lon="5.86787">
        <ele>1190</ele>
        <time>2021-06-01T12:07:25.316Z</time>
      </trkpt>
      <trkpt lat="44.13643" lon="5.86786">
        <ele>1190</ele>
        <time>2021-06-01T12:07:26.316Z</time>
      </trkpt>
      <trkpt lat="44.13642" lon="5.86785">
        <ele>1190</ele>
        <time>2021-06-01T12:07:27.316Z</time>
      </trkpt>
      <trkpt lat="44.13641" lon="5.86784">
        <ele>1190</ele>
        <time>2021-06-01T12:07:28.316Z</time>
      </trkpt>
      <trkpt lat="44.1364" lon="5.86783">
        <ele>1190</ele>
        <time>2021-06-01T12:07:29.316Z</time>
      </trkpt>
      <trkpt lat="44.1364" lon="5.86782">
        <ele>1190</ele>
        <time>2021-06-01T12:07:30.316Z</time>
      </trkpt>
      <trkpt lat="44.13639" lon="5.86781">
        <ele>1190</ele>
        <time>2021-06-01T12:07:31.316Z</time>
      </trkpt>
      <trkpt lat="44.13638" lon="5.8678">
        <ele>1190</ele>
        <time>2021-06-01T12:07:32.316Z</time>
      </trkpt>
      <trkpt lat="44.13638" lon="5.86779">
        <ele>1190</ele>
        <time>2021-06-01T12:07:33.316Z</time>
      </trkpt>
      <trkpt lat="44.13637" lon="5.86778">
        <ele>1190</ele>
        <time>2021-06-01T12:07:34.316Z</time>
      </trkpt>
      <trkpt lat="44.13637" lon="5.86778">
        <ele>1190</ele>
        <time>2021-06-01T12:07:35.316Z</time>
      </trkpt>
      <trkpt lat="44.13636" lon="5.86778">
        <ele>1190</ele>
        <time>2021-06-01T12:07:36.316Z</time>
      </trkpt>
      <trkpt lat="44.13636" lon="5.86777">
        <ele>1190</ele>
        <time>2021-06-01T12:07:37.316Z</time>
      </trkpt>
      <trkpt lat="44.13635" lon="5.86776">
        <ele>1190</ele>
        <time>2021-06-01T12:07:38.316Z</time>
      </trkpt>
      <trkpt lat="44.13634" lon="5.86775">
        <ele>1190</ele>
        <time>2021-06-01T12:07:39.316Z</time>
      </trkpt>
      <trkpt lat="44.13634" lon="5.86774">
        <ele>1190</ele>
        <time>2021-06-01T12:07:40.316Z</time>
      </trkpt>
      <trkpt lat="44.13633" lon="5.86773">
        <ele>1190</ele>
        <time>2021-06-01T12:07:41.316Z</time>
      </trkpt>
      <trkpt lat="44.13632" lon="5.86772">
        <ele>1190</ele>
        <time>2021-06-01T12:07:42.316Z</time>
      </trkpt>
      <trkpt lat="44.13631" lon="5.86771">
        <ele>1190</ele>
        <time>2021-06-01T12:07:43.316Z</time>
      </trkpt>
      <trkpt lat="44.13631" lon="5.8677">
        <ele>1190</ele>
        <time>2021-06-01T12:07:44.316Z</time>
      </trkpt>
      <trkpt lat="44.1363" lon="5.86768">
        <ele>1190</ele>
        <time>2021-06-01T12:07:45.316Z</time>
      </trkpt>
      <trkpt lat="44.13629" lon="5.86767">
        <ele>1190</ele>
        <time>2021-06-01T12:07:46.316Z</time>
      </trkpt>
      <trkpt lat="44.13629" lon="5.86766">
        <ele>1190</ele>
        <time>2021-06-01T12:07:47.316Z</time>
      </trkpt>
      <trkpt lat="44.13628" lon="5.86765">
        <ele>1189</ele>
        <time>2021-06-01T12:07:48.316Z</time>
      </trkpt>
      <trkpt lat="44.13627" lon="5.86764">
        <ele>1189</ele>
        <time>2021-06-01T12:07:49.316Z</time>
      </trkpt>
      <trkpt lat="44.13626" lon="5.86763">
        <ele>1189</ele>
        <time>2021-06-01T12:07:50.316Z</time>
      </trkpt>
      <trkpt lat="44.13625" lon="5.86763">
        <ele>1189</ele>
        <time>2021-06-01T12:07:51.316Z</time>
      </trkpt>
      <trkpt lat="44.13625" lon="5.86762">
        <ele>1189</ele>
        <time>2021-06-01T12:07:52.316Z</time>
      </trkpt>
      <trkpt lat="44.13624" lon="5.86761">
        <ele>1189</ele>
        <time>2021-06-01T12:07:53.316Z</time>
      </trkpt>
      <trkpt lat="44.13623" lon="5.8676">
        <ele>1189</ele>
        <time>2021-06-01T12:07:54.316Z</time>
      </trkpt>
      <trkpt lat="44.13622" lon="5.86759">
        <ele>1189</ele>
        <time>2021-06-01T12:07:55.316Z</time>
      </trkpt>
      <trkpt lat="44.13622" lon="5.86757">
        <ele>1189</ele>
        <time>2021-06-01T12:07:56.316Z</time>
      </trkpt>
      <trkpt lat="44.13621" lon="5.86756">
        <ele>1189</ele>
        <time>2021-06-01T12:07:57.316Z</time>
      </trkpt>
      <trkpt lat="44.1362" lon="5.86755">
        <ele>1189</ele>
        <time>2021-06-01T12:07:58.316Z</time>
      </trkpt>
      <trkpt lat="44.1362" lon="5.86754">
        <ele>1189</ele>
        <time>2021-06-01T12:07:59.316Z</time>
      </trkpt>
      <trkpt lat="44.13619" lon="5.86753">
        <ele>1189</ele>
        <time>2021-06-01T12:08:00.316Z</time>
      </trkpt>
      <trkpt lat="44.13618" lon="5.86752">
        <ele>1189</ele>
        <time>2021-06-01T12:08:01.316Z</time>
      </trkpt>
      <trkpt lat="44.13618" lon="5.86751">
        <ele>1188</ele>
        <time>2021-06-01T12:08:02.316Z</time>
      </trkpt>
      <trkpt lat="44.13617" lon="5.8675">
        <ele>1188</ele>
        <time>2021-06-01T12:08:03.316Z</time>
      </trkpt>
      <trkpt lat="44.13616" lon="5.86749">
        <ele>1188</ele>
        <time>2021-06-01T12:08:04.316Z</time>
      </trkpt>
      <trkpt lat="44.13615" lon="5.86748">
        <ele>1188</ele>
        <time>2021-06-01T12:08:05.316Z</time>
      </trkpt>
      <trkpt lat="44.13615" lon="5.86747">
        <ele>1188</ele>
        <time>2021-06-01T12:08:06.316Z</time>
      </trkpt>
      <trkpt lat="44.13614" lon="5.86746">
        <ele>1188</ele>
        <time>2021-06-01T12:08:07.316Z</time>
      </trkpt>
      <trkpt lat="44.13613" lon="5.86745">
        <ele>1188</ele>
        <time>2021-06-01T12:08:08.316Z</time>
      </trkpt>
      <trkpt lat="44.13613" lon="5.86744">
        <ele>1188</ele>
        <time>2021-06-01T12:08:09.316Z</time>
      </trkpt>
      <trkpt lat="44.13612" lon="5.86743">
        <ele>1188</ele>
        <time>2021-06-01T12:08:10.316Z</time>
      </trkpt>
      <trkpt lat="44.13611" lon="5.86742">
        <ele>1188</ele>
        <time>2021-06-01T12:08:11.316Z</time>
      </trkpt>
      <trkpt lat="44.13611" lon="5.86741">
        <ele>1188</ele>
        <time>2021-06-01T12:08:12.316Z</time>
      </trkpt>
      <trkpt lat="44.1361" lon="5.8674">
        <ele>1188</ele>
        <time>2021-06-01T12:08:13.316Z</time>
      </trkpt>
      <trkpt lat="44.13609" lon="5.86739">
        <ele>1188</ele>
        <time>2021-06-01T12:08:14.316Z</time>
      </trkpt>
      <trkpt lat="44.13609" lon="5.86738">
        <ele>1188</ele>
        <time>2021-06-01T12:08:15.316Z</time>
      </trkpt>
      <trkpt lat="44.13608" lon="5.86737">
        <ele>1187</ele>
        <time>2021-06-01T12:08:16.316Z</time>
      </trkpt>
      <trkpt lat="44.13607" lon="5.86736">
        <ele>1187</ele>
        <time>2021-06-01T12:08:17.316Z</time>
      </trkpt>
      <trkpt lat="44.13607" lon="5.86735">
        <ele>1187</ele>
        <time>2021-06-01T12:08:18.316Z</time>
      </trkpt>
      <trkpt lat="44.13606" lon="5.86734">
        <ele>1187</ele>
        <time>2021-06-01T12:08:19.316Z</time>
      </trkpt>
      <trkpt lat="44.13605" lon="5.86732">
        <ele>1187</ele>
        <time>2021-06-01T12:08:20.316Z</time>
      </trkpt>
      <trkpt lat="44.13605" lon="5.86731">
        <ele>1187</ele>
        <time>2021-06-01T12:08:21.316Z</time>
      </trkpt>
      <trkpt lat="44.13604" lon="5.8673">
        <ele>1187</ele>
        <time>2021-06-01T12:08:22.316Z</time>
      </trkpt>
      <trkpt lat="44.13603" lon="5.86729">
        <ele>1187</ele>
        <time>2021-06-01T12:08:23.316Z</time>
      </trkpt>
      <trkpt lat="44.13602" lon="5.86728">
        <ele>1187</ele>
        <time>2021-06-01T12:08:24.316Z</time>
      </trkpt>
      <trkpt lat="44.13602" lon="5.86727">
        <ele>1187</ele>
        <time>2021-06-01T12:08:25.316Z</time>
      </trkpt>
      <trkpt lat="44.13601" lon="5.86726">
        <ele>1186</ele>
        <time>2021-06-01T12:08:26.316Z</time>
      </trkpt>
      <trkpt lat="44.136" lon="5.86725">
        <ele>1186</ele>
        <time>2021-06-01T12:08:27.316Z</time>
      </trkpt>
      <trkpt lat="44.136" lon="5.86724">
        <ele>1186</ele>
        <time>2021-06-01T12:08:28.316Z</time>
      </trkpt>
      <trkpt lat="44.13599" lon="5.86722">
        <ele>1186</ele>
        <time>2021-06-01T12:08:29.316Z</time>
      </trkpt>
      <trkpt lat="44.13598" lon="5.86721">
        <ele>1186</ele>
        <time>2021-06-01T12:08:30.316Z</time>
      </trkpt>
      <trkpt lat="44.13598" lon="5.8672">
        <ele>1186</ele>
        <time>2021-06-01T12:08:31.316Z</time>
      </trkpt>
      <trkpt lat="44.13597" lon="5.86719">
        <ele>1186</ele>
        <time>2021-06-01T12:08:32.316Z</time>
      </trkpt>
      <trkpt lat="44.13596" lon="5.86718">
        <ele>1186</ele>
        <time>2021-06-01T12:08:33.316Z</time>
      </trkpt>
      <trkpt lat="44.13596" lon="5.86717">
        <ele>1185</ele>
        <time>2021-06-01T12:08:34.316Z</time>
      </trkpt>
      <trkpt lat="44.13595" lon="5.86716">
        <ele>1185</ele>
        <time>2021-06-01T12:08:35.316Z</time>
      </trkpt>
      <trkpt lat="44.13594" lon="5.86715">
        <ele>1185</ele>
        <time>2021-06-01T12:08:36.316Z</time>
      </trkpt>
      <trkpt lat="44.13594" lon="5.86714">
        <ele>1185</ele>
        <time>2021-06-01T12:08:37.316Z</time>
      </trkpt>
      <trkpt lat="44.13593" lon="5.86712">
        <ele>1185</ele>
        <time>2021-06-01T12:08:38.316Z</time>
      </trkpt>
      <trkpt lat="44.13592" lon="5.86711">
        <ele>1185</ele>
        <time>2021-06-01T12:08:39.316Z</time>
      </trkpt>
      <trkpt lat="44.13591" lon="5.8671">
        <ele>1185</ele>
        <time>2021-06-01T12:08:40.316Z</time>
      </trkpt>
      <trkpt lat="44.13591" lon="5.86709">
        <ele>1185</ele>
        <time>2021-06-01T12:08:41.316Z</time>
      </trkpt>
      <trkpt lat="44.1359" lon="5.86708">
        <ele>1184</ele>
        <time>2021-06-01T12:08:42.316Z</time>
      </trkpt>
      <trkpt lat="44.13589" lon="5.86707">
        <ele>1184</ele>
        <time>2021-06-01T12:08:43.316Z</time>
      </trkpt>
      <trkpt lat="44.13588" lon="5.86706">
        <ele>1184</ele>
        <time>2021-06-01T12:08:44.316Z</time>
      </trkpt>
      <trkpt lat="44.13587" lon="5.86705">
        <ele>1184</ele>
        <time>2021-06-01T12:08:45.316Z</time>
      </trkpt>
      <trkpt lat="44.13587" lon="5.86704">
        <ele>1184</ele>
        <time>2021-06-01T12:08:46.316Z</time>
      </trkpt>
      <trkpt lat="44.13586" lon="5.86703">
        <ele>1184</ele>
        <time>2021-06-01T12:08:47.316Z</time>
      </trkpt>
      <trkpt lat="44.13585" lon="5.86701">
        <ele>1184</ele>
        <time>2021-06-01T12:08:48.316Z</time>
      </trkpt>
      <trkpt lat="44.13585" lon="5.867">
        <ele>1184</ele>
        <time>2021-06-01T12:08:49.316Z</time>
      </trkpt>
      <trkpt lat="44.13584" lon="5.86699">
        <ele>1184</ele>
        <time>2021-06-01T12:08:50.316Z</time>
      </trkpt>
      <trkpt lat="44.13583" lon="5.86698">
        <ele>1184</ele>
        <time>2021-06-01T12:08:51.316Z</time>
      </trkpt>
      <trkpt lat="44.13582" lon="5.86697">
        <ele>1184</ele>
        <time>2021-06-01T12:08:52.316Z</time>
      </trkpt>
      <trkpt lat="44.13582" lon="5.86696">
        <ele>1184</ele>
        <time>2021-06-01T12:08:53.316Z</time>
      </trkpt>
      <trkpt lat="44.13581" lon="5.86694">
        <ele>1184</ele>
        <time>2021-06-01T12:08:54.316Z</time>
      </trkpt>
      <trkpt lat="44.1358" lon="5.86693">
        <ele>1184</ele>
        <time>2021-06-01T12:08:55.316Z</time>
      </trkpt>
      <trkpt lat="44.1358" lon="5.86692">
        <ele>1184</ele>
        <time>2021-06-01T12:08:56.316Z</time>
      </trkpt>
      <trkpt lat="44.13579" lon="5.86691">
        <ele>1184</ele>
        <time>2021-06-01T12:08:57.316Z</time>
      </trkpt>
      <trkpt lat="44.13578" lon="5.8669">
        <ele>1184</ele>
        <time>2021-06-01T12:08:58.316Z</time>
      </trkpt>
      <trkpt lat="44.13577" lon="5.86689">
        <ele>1184</ele>
        <time>2021-06-01T12:08:59.316Z</time>
      </trkpt>
      <trkpt lat="44.13577" lon="5.86688">
        <ele>1184</ele>
        <time>2021-06-01T12:09:00.316Z</time>
      </trkpt>
      <trkpt lat="44.13576" lon="5.86686">
        <ele>1184</ele>
        <time>2021-06-01T12:09:01.316Z</time>
      </trkpt>
      <trkpt lat="44.13575" lon="5.86685">
        <ele>1184</ele>
        <time>2021-06-01T12:09:02.316Z</time>
      </trkpt>
      <trkpt lat="44.13574" lon="5.86684">
        <ele>1184</ele>
        <time>2021-06-01T12:09:03.316Z</time>
      </trkpt>
      <trkpt lat="44.13574" lon="5.86683">
        <ele>1183</ele>
        <time>2021-06-01T12:09:04.316Z</time>
      </trkpt>
      <trkpt lat="44.13573" lon="5.86682">
        <ele>1183</ele>
        <time>2021-06-01T12:09:05.316Z</time>
      </trkpt>
      <trkpt lat="44.13572" lon="5.86681">
        <ele>1183</ele>
        <time>2021-06-01T12:09:06.316Z</time>
      </trkpt>
      <trkpt lat="44.13571" lon="5.8668">
        <ele>1183</ele>
        <time>2021-06-01T12:09:07.316Z</time>
      </trkpt>
      <trkpt lat="44.1357" lon="5.86679">
        <ele>1183</ele>
        <time>2021-06-01T12:09:08.316Z</time>
      </trkpt>
      <trkpt lat="44.1357" lon="5.86678">
        <ele>1183</ele>
        <time>2021-06-01T12:09:09.316Z</time>
      </trkpt>
      <trkpt lat="44.13569" lon="5.86677">
        <ele>1183</ele>
        <time>2021-06-01T12:09:10.316Z</time>
      </trkpt>
      <trkpt lat="44.13568" lon="5.86676">
        <ele>1183</ele>
        <time>2021-06-01T12:09:11.316Z</time>
      </trkpt>
      <trkpt lat="44.13567" lon="5.86675">
        <ele>1182</ele>
        <time>2021-06-01T12:09:12.316Z</time>
      </trkpt>
      <trkpt lat="44.13567" lon="5.86673">
        <ele>1182</ele>
        <time>2021-06-01T12:09:13.316Z</time>
      </trkpt>
      <trkpt lat="44.13566" lon="5.86673">
        <ele>1182</ele>
        <time>2021-06-01T12:09:14.316Z</time>
      </trkpt>
      <trkpt lat="44.13565" lon="5.86672">
        <ele>1182</ele>
        <time>2021-06-01T12:09:15.316Z</time>
      </trkpt>
      <trkpt lat="44.13565" lon="5.8667">
        <ele>1182</ele>
        <time>2021-06-01T12:09:16.316Z</time>
      </trkpt>
      <trkpt lat="44.13564" lon="5.86669">
        <ele>1182</ele>
        <time>2021-06-01T12:09:17.316Z</time>
      </trkpt>
      <trkpt lat="44.13563" lon="5.86668">
        <ele>1181</ele>
        <time>2021-06-01T12:09:18.316Z</time>
      </trkpt>
      <trkpt lat="44.13562" lon="5.86667">
        <ele>1181</ele>
        <time>2021-06-01T12:09:19.316Z</time>
      </trkpt>
      <trkpt lat="44.13561" lon="5.86667">
        <ele>1181</ele>
        <time>2021-06-01T12:09:20.316Z</time>
      </trkpt>
      <trkpt lat="44.1356" lon="5.86666">
        <ele>1181</ele>
        <time>2021-06-01T12:09:21.316Z</time>
      </trkpt>
      <trkpt lat="44.1356" lon="5.86665">
        <ele>1181</ele>
        <time>2021-06-01T12:09:22.316Z</time>
      </trkpt>
      <trkpt lat="44.13559" lon="5.86664">
        <ele>1181</ele>
        <time>2021-06-01T12:09:23.316Z</time>
      </trkpt>
      <trkpt lat="44.13558" lon="5.86663">
        <ele>1181</ele>
        <time>2021-06-01T12:09:24.316Z</time>
      </trkpt>
      <trkpt lat="44.13557" lon="5.86662">
        <ele>1181</ele>
        <time>2021-06-01T12:09:25.316Z</time>
      </trkpt>
      <trkpt lat="44.13556" lon="5.86661">
        <ele>1181</ele>
        <time>2021-06-01T12:09:26.316Z</time>
      </trkpt>
      <trkpt lat="44.13556" lon="5.8666">
        <ele>1181</ele>
        <time>2021-06-01T12:09:27.316Z</time>
      </trkpt>
      <trkpt lat="44.13555" lon="5.86659">
        <ele>1181</ele>
        <time>2021-06-01T12:09:28.316Z</time>
      </trkpt>
      <trkpt lat="44.13554" lon="5.86658">
        <ele>1180</ele>
        <time>2021-06-01T12:09:29.316Z</time>
      </trkpt>
      <trkpt lat="44.13553" lon="5.86657">
        <ele>1180</ele>
        <time>2021-06-01T12:09:30.316Z</time>
      </trkpt>
      <trkpt lat="44.13552" lon="5.86656">
        <ele>1180</ele>
        <time>2021-06-01T12:09:31.316Z</time>
      </trkpt>
      <trkpt lat="44.13552" lon="5.86655">
        <ele>1180</ele>
        <time>2021-06-01T12:09:32.316Z</time>
      </trkpt>
      <trkpt lat="44.13551" lon="5.86653">
        <ele>1180</ele>
        <time>2021-06-01T12:09:33.316Z</time>
      </trkpt>
      <trkpt lat="44.1355" lon="5.86652">
        <ele>1180</ele>
        <time>2021-06-01T12:09:34.316Z</time>
      </trkpt>
      <trkpt lat="44.13549" lon="5.86651">
        <ele>1180</ele>
        <time>2021-06-01T12:09:35.316Z</time>
      </trkpt>
      <trkpt lat="44.13548" lon="5.8665">
        <ele>1180</ele>
        <time>2021-06-01T12:09:36.316Z</time>
      </trkpt>
      <trkpt lat="44.13548" lon="5.86649">
        <ele>1180</ele>
        <time>2021-06-01T12:09:37.316Z</time>
      </trkpt>
      <trkpt lat="44.13547" lon="5.86648">
        <ele>1180</ele>
        <time>2021-06-01T12:09:38.316Z</time>
      </trkpt>
      <trkpt lat="44.13546" lon="5.86647">
        <ele>1180</ele>
        <time>2021-06-01T12:09:39.316Z</time>
      </trkpt>
      <trkpt lat="44.13545" lon="5.86646">
        <ele>1180</ele>
        <time>2021-06-01T12:09:40.316Z</time>
      </trkpt>
      <trkpt lat="44.13545" lon="5.86645">
        <ele>1179</ele>
        <time>2021-06-01T12:09:41.316Z</time>
      </trkpt>
      <trkpt lat="44.13544" lon="5.86644">
        <ele>1179</ele>
        <time>2021-06-01T12:09:42.316Z</time>
      </trkpt>
      <trkpt lat="44.13543" lon="5.86643">
        <ele>1179</ele>
        <time>2021-06-01T12:09:43.316Z</time>
      </trkpt>
      <trkpt lat="44.13542" lon="5.86641">
        <ele>1179</ele>
        <time>2021-06-01T12:09:44.316Z</time>
      </trkpt>
      <trkpt lat="44.13542" lon="5.8664">
        <ele>1179</ele>
        <time>2021-06-01T12:09:45.316Z</time>
      </trkpt>
      <trkpt lat="44.13541" lon="5.86639">
        <ele>1179</ele>
        <time>2021-06-01T12:09:46.316Z</time>
      </trkpt>
      <trkpt lat="44.1354" lon="5.86639">
        <ele>1179</ele>
        <time>2021-06-01T12:09:47.316Z</time>
      </trkpt>
      <trkpt lat="44.13539" lon="5.86638">
        <ele>1179</ele>
        <time>2021-06-01T12:09:48.316Z</time>
      </trkpt>
      <trkpt lat="44.13538" lon="5.86637">
        <ele>1179</ele>
        <time>2021-06-01T12:09:49.316Z</time>
      </trkpt>
      <trkpt lat="44.13537" lon="5.86636">
        <ele>1179</ele>
        <time>2021-06-01T12:09:50.316Z</time>
      </trkpt>
      <trkpt lat="44.13537" lon="5.86635">
        <ele>1178</ele>
        <time>2021-06-01T12:09:51.316Z</time>
      </trkpt>
      <trkpt lat="44.13536" lon="5.86634">
        <ele>1178</ele>
        <time>2021-06-01T12:09:52.316Z</time>
      </trkpt>
      <trkpt lat="44.13535" lon="5.86633">
        <ele>1178</ele>
        <time>2021-06-01T12:09:53.316Z</time>
      </trkpt>
      <trkpt lat="44.13534" lon="5.86632">
        <ele>1178</ele>
        <time>2021-06-01T12:09:54.316Z</time>
      </trkpt>
      <trkpt lat="44.13534" lon="5.86631">
        <ele>1178</ele>
        <time>2021-06-01T12:09:55.316Z</time>
      </trkpt>
      <trkpt lat="44.13533" lon="5.86629">
        <ele>1178</ele>
        <time>2021-06-01T12:09:56.316Z</time>
      </trkpt>
      <trkpt lat="44.13532" lon="5.86628">
        <ele>1178</ele>
        <time>2021-06-01T12:09:57.316Z</time>
      </trkpt>
      <trkpt lat="44.13531" lon="5.86627">
        <ele>1178</ele>
        <time>2021-06-01T12:09:58.316Z</time>
      </trkpt>
      <trkpt lat="44.1353" lon="5.86626">
        <ele>1178</ele>
        <time>2021-06-01T12:09:59.316Z</time>
      </trkpt>
      <trkpt lat="44.1353" lon="5.86625">
        <ele>1178</ele>
        <time>2021-06-01T12:10:00.316Z</time>
      </trkpt>
      <trkpt lat="44.13529" lon="5.86624">
        <ele>1178</ele>
        <time>2021-06-01T12:10:01.316Z</time>
      </trkpt>
      <trkpt lat="44.13528" lon="5.86623">
        <ele>1178</ele>
        <time>2021-06-01T12:10:02.316Z</time>
      </trkpt>
      <trkpt lat="44.13527" lon="5.86622">
        <ele>1178</ele>
        <time>2021-06-01T12:10:03.316Z</time>
      </trkpt>
      <trkpt lat="44.13526" lon="5.86621">
        <ele>1177</ele>
        <time>2021-06-01T12:10:04.316Z</time>
      </trkpt>
      <trkpt lat="44.13526" lon="5.8662">
        <ele>1177</ele>
        <time>2021-06-01T12:10:05.316Z</time>
      </trkpt>
      <trkpt lat="44.13525" lon="5.86619">
        <ele>1177</ele>
        <time>2021-06-01T12:10:06.316Z</time>
      </trkpt>
      <trkpt lat="44.13524" lon="5.86618">
        <ele>1177</ele>
        <time>2021-06-01T12:10:07.316Z</time>
      </trkpt>
      <trkpt lat="44.13523" lon="5.86617">
        <ele>1177</ele>
        <time>2021-06-01T12:10:08.316Z</time>
      </trkpt>
      <trkpt lat="44.13522" lon="5.86616">
        <ele>1177</ele>
        <time>2021-06-01T12:10:09.316Z</time>
      </trkpt>
      <trkpt lat="44.13522" lon="5.86615">
        <ele>1177</ele>
        <time>2021-06-01T12:10:10.316Z</time>
      </trkpt>
      <trkpt lat="44.13521" lon="5.86614">
        <ele>1177</ele>
        <time>2021-06-01T12:10:11.316Z</time>
      </trkpt>
      <trkpt lat="44.1352" lon="5.86613">
        <ele>1177</ele>
        <time>2021-06-01T12:10:12.316Z</time>
      </trkpt>
      <trkpt lat="44.13519" lon="5.86612">
        <ele>1177</ele>
        <time>2021-06-01T12:10:13.316Z</time>
      </trkpt>
      <trkpt lat="44.13519" lon="5.8661">
        <ele>1177</ele>
        <time>2021-06-01T12:10:14.316Z</time>
      </trkpt>
      <trkpt lat="44.13518" lon="5.86609">
        <ele>1177</ele>
        <time>2021-06-01T12:10:15.316Z</time>
      </trkpt>
      <trkpt lat="44.13517" lon="5.86608">
        <ele>1177</ele>
        <time>2021-06-01T12:10:16.316Z</time>
      </trkpt>
      <trkpt lat="44.13516" lon="5.86607">
        <ele>1177</ele>
        <time>2021-06-01T12:10:17.316Z</time>
      </trkpt>
      <trkpt lat="44.13516" lon="5.86606">
        <ele>1176</ele>
        <time>2021-06-01T12:10:18.316Z</time>
      </trkpt>
      <trkpt lat="44.13515" lon="5.86605">
        <ele>1176</ele>
        <time>2021-06-01T12:10:19.316Z</time>
      </trkpt>
      <trkpt lat="44.13514" lon="5.86604">
        <ele>1176</ele>
        <time>2021-06-01T12:10:20.316Z</time>
      </trkpt>
      <trkpt lat="44.13514" lon="5.86602">
        <ele>1176</ele>
        <time>2021-06-01T12:10:21.316Z</time>
      </trkpt>
      <trkpt lat="44.13513" lon="5.86601">
        <ele>1176</ele>
        <time>2021-06-01T12:10:22.316Z</time>
      </trkpt>
      <trkpt lat="44.13512" lon="5.866">
        <ele>1176</ele>
        <time>2021-06-01T12:10:23.316Z</time>
      </trkpt>
      <trkpt lat="44.13511" lon="5.86599">
        <ele>1176</ele>
        <time>2021-06-01T12:10:24.316Z</time>
      </trkpt>
      <trkpt lat="44.13511" lon="5.86598">
        <ele>1176</ele>
        <time>2021-06-01T12:10:25.316Z</time>
      </trkpt>
      <trkpt lat="44.1351" lon="5.86597">
        <ele>1176</ele>
        <time>2021-06-01T12:10:26.316Z</time>
      </trkpt>
      <trkpt lat="44.13509" lon="5.86596">
        <ele>1176</ele>
        <time>2021-06-01T12:10:27.316Z</time>
      </trkpt>
      <trkpt lat="44.13508" lon="5.86595">
        <ele>1175</ele>
        <time>2021-06-01T12:10:28.316Z</time>
      </trkpt>
      <trkpt lat="44.13508" lon="5.86594">
        <ele>1175</ele>
        <time>2021-06-01T12:10:29.316Z</time>
      </trkpt>
      <trkpt lat="44.13508" lon="5.86593">
        <ele>1175</ele>
        <time>2021-06-01T12:10:30.316Z</time>
      </trkpt>
      <trkpt lat="44.13507" lon="5.86593">
        <ele>1175</ele>
        <time>2021-06-01T12:10:31.316Z</time>
      </trkpt>
      <trkpt lat="44.13507" lon="5.86592">
        <ele>1175</ele>
        <time>2021-06-01T12:10:32.316Z</time>
      </trkpt>
      <trkpt lat="44.13506" lon="5.86591">
        <ele>1175</ele>
        <time>2021-06-01T12:10:33.316Z</time>
      </trkpt>
      <trkpt lat="44.13506" lon="5.8659">
        <ele>1175</ele>
        <time>2021-06-01T12:10:34.316Z</time>
      </trkpt>
      <trkpt lat="44.13505" lon="5.8659">
        <ele>1175</ele>
        <time>2021-06-01T12:10:35.316Z</time>
      </trkpt>
      <trkpt lat="44.13504" lon="5.86588">
        <ele>1175</ele>
        <time>2021-06-01T12:10:36.316Z</time>
      </trkpt>
      <trkpt lat="44.13503" lon="5.86587">
        <ele>1174</ele>
        <time>2021-06-01T12:10:37.316Z</time>
      </trkpt>
      <trkpt lat="44.13502" lon="5.86586">
        <ele>1174</ele>
        <time>2021-06-01T12:10:38.316Z</time>
      </trkpt>
      <trkpt lat="44.13502" lon="5.86585">
        <ele>1174</ele>
        <time>2021-06-01T12:10:39.316Z</time>
      </trkpt>
      <trkpt lat="44.13501" lon="5.86583">
        <ele>1174</ele>
        <time>2021-06-01T12:10:40.316Z</time>
      </trkpt>
      <trkpt lat="44.135" lon="5.86582">
        <ele>1174</ele>
        <time>2021-06-01T12:10:41.316Z</time>
      </trkpt>
      <trkpt lat="44.13499" lon="5.86581">
        <ele>1174</ele>
        <time>2021-06-01T12:10:42.316Z</time>
      </trkpt>
      <trkpt lat="44.13498" lon="5.8658">
        <ele>1174</ele>
        <time>2021-06-01T12:10:43.316Z</time>
      </trkpt>
      <trkpt lat="44.13498" lon="5.86579">
        <ele>1173</ele>
        <time>2021-06-01T12:10:44.316Z</time>
      </trkpt>
      <trkpt lat="44.13497" lon="5.86577">
        <ele>1173</ele>
        <time>2021-06-01T12:10:45.316Z</time>
      </trkpt>
      <trkpt lat="44.13496" lon="5.86576">
        <ele>1173</ele>
        <time>2021-06-01T12:10:46.316Z</time>
      </trkpt>
      <trkpt lat="44.13496" lon="5.86575">
        <ele>1173</ele>
        <time>2021-06-01T12:10:47.316Z</time>
      </trkpt>
      <trkpt lat="44.13495" lon="5.86574">
        <ele>1173</ele>
        <time>2021-06-01T12:10:48.316Z</time>
      </trkpt>
      <trkpt lat="44.13494" lon="5.86572">
        <ele>1173</ele>
        <time>2021-06-01T12:10:49.316Z</time>
      </trkpt>
      <trkpt lat="44.13494" lon="5.86571">
        <ele>1172</ele>
        <time>2021-06-01T12:10:50.316Z</time>
      </trkpt>
      <trkpt lat="44.13493" lon="5.86569">
        <ele>1172</ele>
        <time>2021-06-01T12:10:51.316Z</time>
      </trkpt>
      <trkpt lat="44.13493" lon="5.86568">
        <ele>1172</ele>
        <time>2021-06-01T12:10:52.316Z</time>
      </trkpt>
      <trkpt lat="44.13492" lon="5.86566">
        <ele>1172</ele>
        <time>2021-06-01T12:10:53.316Z</time>
      </trkpt>
      <trkpt lat="44.13492" lon="5.86565">
        <ele>1172</ele>
        <time>2021-06-01T12:10:54.316Z</time>
      </trkpt>
      <trkpt lat="44.13491" lon="5.86564">
        <ele>1171</ele>
        <time>2021-06-01T12:10:55.316Z</time>
      </trkpt>
      <trkpt lat="44.13491" lon="5.86562">
        <ele>1171</ele>
        <time>2021-06-01T12:10:56.316Z</time>
      </trkpt>
      <trkpt lat="44.1349" lon="5.86561">
        <ele>1171</ele>
        <time>2021-06-01T12:10:57.316Z</time>
      </trkpt>
      <trkpt lat="44.1349" lon="5.86559">
        <ele>1171</ele>
        <time>2021-06-01T12:10:58.316Z</time>
      </trkpt>
      <trkpt lat="44.13489" lon="5.86558">
        <ele>1170</ele>
        <time>2021-06-01T12:10:59.316Z</time>
      </trkpt>
      <trkpt lat="44.13488" lon="5.86557">
        <ele>1170</ele>
        <time>2021-06-01T12:11:00.316Z</time>
      </trkpt>
      <trkpt lat="44.13487" lon="5.86556">
        <ele>1170</ele>
        <time>2021-06-01T12:11:01.316Z</time>
      </trkpt>
      <trkpt lat="44.13487" lon="5.86555">
        <ele>1170</ele>
        <time>2021-06-01T12:11:02.316Z</time>
      </trkpt>
      <trkpt lat="44.13486" lon="5.86555">
        <ele>1170</ele>
        <time>2021-06-01T12:11:03.316Z</time>
      </trkpt>
      <trkpt lat="44.13485" lon="5.86555">
        <ele>1170</ele>
        <time>2021-06-01T12:11:04.316Z</time>
      </trkpt>
      <trkpt lat="44.13484" lon="5.86556">
        <ele>1170</ele>
        <time>2021-06-01T12:11:05.316Z</time>
      </trkpt>
      <trkpt lat="44.13483" lon="5.86557">
        <ele>1170</ele>
        <time>2021-06-01T12:11:06.316Z</time>
      </trkpt>
      <trkpt lat="44.13482" lon="5.86558">
        <ele>1170</ele>
        <time>2021-06-01T12:11:07.316Z</time>
      </trkpt>
      <trkpt lat="44.13482" lon="5.86559">
        <ele>1170</ele>
        <time>2021-06-01T12:11:08.316Z</time>
      </trkpt>
      <trkpt lat="44.13482" lon="5.8656">
        <ele>1170</ele>
        <time>2021-06-01T12:11:09.316Z</time>
      </trkpt>
      <trkpt lat="44.13482" lon="5.86561">
        <ele>1170</ele>
        <time>2021-06-01T12:11:10.316Z</time>
      </trkpt>
      <trkpt lat="44.13482" lon="5.86562">
        <ele>1169</ele>
        <time>2021-06-01T12:11:11.316Z</time>
      </trkpt>
      <trkpt lat="44.13482" lon="5.86564">
        <ele>1169</ele>
        <time>2021-06-01T12:11:12.316Z</time>
      </trkpt>
      <trkpt lat="44.13482" lon="5.86566">
        <ele>1169</ele>
        <time>2021-06-01T12:11:13.316Z</time>
      </trkpt>
      <trkpt lat="44.13482" lon="5.86567">
        <ele>1169</ele>
        <time>2021-06-01T12:11:14.316Z</time>
      </trkpt>
      <trkpt lat="44.13483" lon="5.86569">
        <ele>1169</ele>
        <time>2021-06-01T12:11:15.316Z</time>
      </trkpt>
      <trkpt lat="44.13483" lon="5.8657">
        <ele>1169</ele>
        <time>2021-06-01T12:11:16.316Z</time>
      </trkpt>
      <trkpt lat="44.13483" lon="5.86572">
        <ele>1169</ele>
        <time>2021-06-01T12:11:17.316Z</time>
      </trkpt>
      <trkpt lat="44.13483" lon="5.86573">
        <ele>1169</ele>
        <time>2021-06-01T12:11:18.316Z</time>
      </trkpt>
      <trkpt lat="44.13483" lon="5.86575">
        <ele>1168</ele>
        <time>2021-06-01T12:11:19.316Z</time>
      </trkpt>
      <trkpt lat="44.13484" lon="5.86576">
        <ele>1168</ele>
        <time>2021-06-01T12:11:20.316Z</time>
      </trkpt>
      <trkpt lat="44.13484" lon="5.86578">
        <ele>1168</ele>
        <time>2021-06-01T12:11:21.316Z</time>
      </trkpt>
      <trkpt lat="44.13484" lon="5.86579">
        <ele>1168</ele>
        <time>2021-06-01T12:11:22.316Z</time>
      </trkpt>
      <trkpt lat="44.13484" lon="5.86581">
        <ele>1168</ele>
        <time>2021-06-01T12:11:23.316Z</time>
      </trkpt>
      <trkpt lat="44.13484" lon="5.86583">
        <ele>1168</ele>
        <time>2021-06-01T12:11:24.316Z</time>
      </trkpt>
      <trkpt lat="44.13484" lon="5.86584">
        <ele>1168</ele>
        <time>2021-06-01T12:11:25.316Z</time>
      </trkpt>
      <trkpt lat="44.13484" lon="5.86586">
        <ele>1168</ele>
        <time>2021-06-01T12:11:26.316Z</time>
      </trkpt>
      <trkpt lat="44.13485" lon="5.86587">
        <ele>1167</ele>
        <time>2021-06-01T12:11:27.316Z</time>
      </trkpt>
      <trkpt lat="44.13485" lon="5.86589">
        <ele>1167</ele>
        <time>2021-06-01T12:11:28.316Z</time>
      </trkpt>
      <trkpt lat="44.13485" lon="5.8659">
        <ele>1167</ele>
        <time>2021-06-01T12:11:29.316Z</time>
      </trkpt>
      <trkpt lat="44.13485" lon="5.86591">
        <ele>1167</ele>
        <time>2021-06-01T12:11:30.316Z</time>
      </trkpt>
      <trkpt lat="44.13485" lon="5.86593">
        <ele>1167</ele>
        <time>2021-06-01T12:11:31.316Z</time>
      </trkpt>
      <trkpt lat="44.13485" lon="5.86594">
        <ele>1167</ele>
        <time>2021-06-01T12:11:32.316Z</time>
      </trkpt>
      <trkpt lat="44.13485" lon="5.86596">
        <ele>1167</ele>
        <time>2021-06-01T12:11:33.316Z</time>
      </trkpt>
      <trkpt lat="44.13485" lon="5.86597">
        <ele>1167</ele>
        <time>2021-06-01T12:11:34.316Z</time>
      </trkpt>
      <trkpt lat="44.13485" lon="5.86599">
        <ele>1166</ele>
        <time>2021-06-01T12:11:35.316Z</time>
      </trkpt>
      <trkpt lat="44.13485" lon="5.866">
        <ele>1166</ele>
        <time>2021-06-01T12:11:36.316Z</time>
      </trkpt>
      <trkpt lat="44.13486" lon="5.86602">
        <ele>1166</ele>
        <time>2021-06-01T12:11:37.316Z</time>
      </trkpt>
      <trkpt lat="44.13486" lon="5.86603">
        <ele>1166</ele>
        <time>2021-06-01T12:11:38.316Z</time>
      </trkpt>
      <trkpt lat="44.13486" lon="5.86604">
        <ele>1166</ele>
        <time>2021-06-01T12:11:39.316Z</time>
      </trkpt>
      <trkpt lat="44.13486" lon="5.86606">
        <ele>1166</ele>
        <time>2021-06-01T12:11:40.316Z</time>
      </trkpt>
      <trkpt lat="44.13486" lon="5.86607">
        <ele>1166</ele>
        <time>2021-06-01T12:11:41.316Z</time>
      </trkpt>
      <trkpt lat="44.13486" lon="5.86609">
        <ele>1166</ele>
        <time>2021-06-01T12:11:42.316Z</time>
      </trkpt>
      <trkpt lat="44.13486" lon="5.8661">
        <ele>1166</ele>
        <time>2021-06-01T12:11:43.316Z</time>
      </trkpt>
      <trkpt lat="44.13486" lon="5.86612">
        <ele>1166</ele>
        <time>2021-06-01T12:11:44.316Z</time>
      </trkpt>
      <trkpt lat="44.13486" lon="5.86613">
        <ele>1166</ele>
        <time>2021-06-01T12:11:45.316Z</time>
      </trkpt>
      <trkpt lat="44.13486" lon="5.86615">
        <ele>1165</ele>
        <time>2021-06-01T12:11:46.316Z</time>
      </trkpt>
      <trkpt lat="44.13486" lon="5.86616">
        <ele>1165</ele>
        <time>2021-06-01T12:11:47.316Z</time>
      </trkpt>
      <trkpt lat="44.13486" lon="5.86617">
        <ele>1165</ele>
        <time>2021-06-01T12:11:48.316Z</time>
      </trkpt>
      <trkpt lat="44.13487" lon="5.86619">
        <ele>1165</ele>
        <time>2021-06-01T12:11:49.316Z</time>
      </trkpt>
      <trkpt lat="44.13487" lon="5.8662">
        <ele>1165</ele>
        <time>2021-06-01T12:11:50.316Z</time>
      </trkpt>
      <trkpt lat="44.13487" lon="5.86622">
        <ele>1165</ele>
        <time>2021-06-01T12:11:51.316Z</time>
      </trkpt>
      <trkpt lat="44.13487" lon="5.86624">
        <ele>1165</ele>
        <time>2021-06-01T12:11:52.316Z</time>
      </trkpt>
      <trkpt lat="44.13488" lon="5.86625">
        <ele>1165</ele>
        <time>2021-06-01T12:11:53.316Z</time>
      </trkpt>
      <trkpt lat="44.13488" lon="5.86627">
        <ele>1164</ele>
        <time>2021-06-01T12:11:54.316Z</time>
      </trkpt>
      <trkpt lat="44.13488" lon="5.86628">
        <ele>1164</ele>
        <time>2021-06-01T12:11:55.316Z</time>
      </trkpt>
      <trkpt lat="44.13488" lon="5.8663">
        <ele>1164</ele>
        <time>2021-06-01T12:11:56.316Z</time>
      </trkpt>
      <trkpt lat="44.13488" lon="5.86631">
        <ele>1164</ele>
        <time>2021-06-01T12:11:57.316Z</time>
      </trkpt>
      <trkpt lat="44.13489" lon="5.86633">
        <ele>1164</ele>
        <time>2021-06-01T12:11:58.316Z</time>
      </trkpt>
      <trkpt lat="44.13489" lon="5.86635">
        <ele>1164</ele>
        <time>2021-06-01T12:11:59.316Z</time>
      </trkpt>
      <trkpt lat="44.13489" lon="5.86636">
        <ele>1164</ele>
        <time>2021-06-01T12:12:00.316Z</time>
      </trkpt>
      <trkpt lat="44.13489" lon="5.86638">
        <ele>1164</ele>
        <time>2021-06-01T12:12:01.316Z</time>
      </trkpt>
      <trkpt lat="44.13489" lon="5.86639">
        <ele>1164</ele>
        <time>2021-06-01T12:12:02.316Z</time>
      </trkpt>
      <trkpt lat="44.13489" lon="5.86641">
        <ele>1164</ele>
        <time>2021-06-01T12:12:03.316Z</time>
      </trkpt>
      <trkpt lat="44.1349" lon="5.86642">
        <ele>1164</ele>
        <time>2021-06-01T12:12:04.316Z</time>
      </trkpt>
      <trkpt lat="44.1349" lon="5.86644">
        <ele>1163</ele>
        <time>2021-06-01T12:12:05.316Z</time>
      </trkpt>
      <trkpt lat="44.1349" lon="5.86646">
        <ele>1163</ele>
        <time>2021-06-01T12:12:06.316Z</time>
      </trkpt>
      <trkpt lat="44.1349" lon="5.86647">
        <ele>1163</ele>
        <time>2021-06-01T12:12:07.316Z</time>
      </trkpt>
      <trkpt lat="44.13491" lon="5.86648">
        <ele>1163</ele>
        <time>2021-06-01T12:12:08.316Z</time>
      </trkpt>
      <trkpt lat="44.13491" lon="5.8665">
        <ele>1163</ele>
        <time>2021-06-01T12:12:09.316Z</time>
      </trkpt>
      <trkpt lat="44.13491" lon="5.86651">
        <ele>1163</ele>
        <time>2021-06-01T12:12:10.316Z</time>
      </trkpt>
      <trkpt lat="44.13492" lon="5.86653">
        <ele>1163</ele>
        <time>2021-06-01T12:12:11.316Z</time>
      </trkpt>
      <trkpt lat="44.13492" lon="5.86654">
        <ele>1163</ele>
        <time>2021-06-01T12:12:12.316Z</time>
      </trkpt>
      <trkpt lat="44.13492" lon="5.86656">
        <ele>1162</ele>
        <time>2021-06-01T12:12:13.316Z</time>
      </trkpt>
      <trkpt lat="44.13492" lon="5.86658">
        <ele>1162</ele>
        <time>2021-06-01T12:12:14.316Z</time>
      </trkpt>
      <trkpt lat="44.13493" lon="5.86659">
        <ele>1162</ele>
        <time>2021-06-01T12:12:15.316Z</time>
      </trkpt>
      <trkpt lat="44.13493" lon="5.8666">
        <ele>1162</ele>
        <time>2021-06-01T12:12:16.316Z</time>
      </trkpt>
      <trkpt lat="44.13493" lon="5.86662">
        <ele>1162</ele>
        <time>2021-06-01T12:12:17.316Z</time>
      </trkpt>
      <trkpt lat="44.13493" lon="5.86664">
        <ele>1162</ele>
        <time>2021-06-01T12:12:18.316Z</time>
      </trkpt>
      <trkpt lat="44.13494" lon="5.86665">
        <ele>1162</ele>
        <time>2021-06-01T12:12:19.316Z</time>
      </trkpt>
      <trkpt lat="44.13494" lon="5.86667">
        <ele>1162</ele>
        <time>2021-06-01T12:12:20.316Z</time>
      </trkpt>
      <trkpt lat="44.13494" lon="5.86668">
        <ele>1162</ele>
        <time>2021-06-01T12:12:21.316Z</time>
      </trkpt>
      <trkpt lat="44.13494" lon="5.8667">
        <ele>1161</ele>
        <time>2021-06-01T12:12:22.316Z</time>
      </trkpt>
      <trkpt lat="44.13494" lon="5.86671">
        <ele>1161</ele>
        <time>2021-06-01T12:12:23.316Z</time>
      </trkpt>
      <trkpt lat="44.13495" lon="5.86673">
        <ele>1161</ele>
        <time>2021-06-01T12:12:24.316Z</time>
      </trkpt>
      <trkpt lat="44.13495" lon="5.86675">
        <ele>1161</ele>
        <time>2021-06-01T12:12:25.316Z</time>
      </trkpt>
      <trkpt lat="44.13495" lon="5.86676">
        <ele>1161</ele>
        <time>2021-06-01T12:12:26.316Z</time>
      </trkpt>
      <trkpt lat="44.13495" lon="5.86678">
        <ele>1161</ele>
        <time>2021-06-01T12:12:27.316Z</time>
      </trkpt>
      <trkpt lat="44.13496" lon="5.86679">
        <ele>1161</ele>
        <time>2021-06-01T12:12:28.316Z</time>
      </trkpt>
      <trkpt lat="44.13496" lon="5.86681">
        <ele>1160</ele>
        <time>2021-06-01T12:12:29.316Z</time>
      </trkpt>
      <trkpt lat="44.13496" lon="5.86682">
        <ele>1160</ele>
        <time>2021-06-01T12:12:30.316Z</time>
      </trkpt>
      <trkpt lat="44.13496" lon="5.86684">
        <ele>1160</ele>
        <time>2021-06-01T12:12:31.316Z</time>
      </trkpt>
      <trkpt lat="44.13496" lon="5.86685">
        <ele>1160</ele>
        <time>2021-06-01T12:12:32.316Z</time>
      </trkpt>
      <trkpt lat="44.13497" lon="5.86687">
        <ele>1160</ele>
        <time>2021-06-01T12:12:33.316Z</time>
      </trkpt>
      <trkpt lat="44.13497" lon="5.86688">
        <ele>1160</ele>
        <time>2021-06-01T12:12:34.316Z</time>
      </trkpt>
      <trkpt lat="44.13497" lon="5.8669">
        <ele>1160</ele>
        <time>2021-06-01T12:12:35.316Z</time>
      </trkpt>
      <trkpt lat="44.13497" lon="5.86691">
        <ele>1160</ele>
        <time>2021-06-01T12:12:36.316Z</time>
      </trkpt>
      <trkpt lat="44.13498" lon="5.86693">
        <ele>1160</ele>
        <time>2021-06-01T12:12:37.316Z</time>
      </trkpt>
      <trkpt lat="44.13498" lon="5.86695">
        <ele>1160</ele>
        <time>2021-06-01T12:12:38.316Z</time>
      </trkpt>
      <trkpt lat="44.13498" lon="5.86696">
        <ele>1159</ele>
        <time>2021-06-01T12:12:39.316Z</time>
      </trkpt>
      <trkpt lat="44.13498" lon="5.86698">
        <ele>1159</ele>
        <time>2021-06-01T12:12:40.316Z</time>
      </trkpt>
      <trkpt lat="44.13498" lon="5.86699">
        <ele>1159</ele>
        <time>2021-06-01T12:12:41.316Z</time>
      </trkpt>
      <trkpt lat="44.13498" lon="5.86701">
        <ele>1159</ele>
        <time>2021-06-01T12:12:42.316Z</time>
      </trkpt>
      <trkpt lat="44.13498" lon="5.86702">
        <ele>1159</ele>
        <time>2021-06-01T12:12:43.316Z</time>
      </trkpt>
      <trkpt lat="44.13498" lon="5.86704">
        <ele>1159</ele>
        <time>2021-06-01T12:12:44.316Z</time>
      </trkpt>
      <trkpt lat="44.13499" lon="5.86705">
        <ele>1159</ele>
        <time>2021-06-01T12:12:45.316Z</time>
      </trkpt>
      <trkpt lat="44.13499" lon="5.86707">
        <ele>1159</ele>
        <time>2021-06-01T12:12:46.316Z</time>
      </trkpt>
      <trkpt lat="44.13499" lon="5.86708">
        <ele>1158</ele>
        <time>2021-06-01T12:12:47.316Z</time>
      </trkpt>
      <trkpt lat="44.13499" lon="5.8671">
        <ele>1158</ele>
        <time>2021-06-01T12:12:48.316Z</time>
      </trkpt>
      <trkpt lat="44.135" lon="5.86711">
        <ele>1158</ele>
        <time>2021-06-01T12:12:49.316Z</time>
      </trkpt>
      <trkpt lat="44.135" lon="5.86713">
        <ele>1158</ele>
        <time>2021-06-01T12:12:50.316Z</time>
      </trkpt>
      <trkpt lat="44.135" lon="5.86714">
        <ele>1158</ele>
        <time>2021-06-01T12:12:51.316Z</time>
      </trkpt>
      <trkpt lat="44.135" lon="5.86716">
        <ele>1158</ele>
        <time>2021-06-01T12:12:52.316Z</time>
      </trkpt>
      <trkpt lat="44.13501" lon="5.86717">
        <ele>1158</ele>
        <time>2021-06-01T12:12:53.316Z</time>
      </trkpt>
      <trkpt lat="44.13501" lon="5.86719">
        <ele>1158</ele>
        <time>2021-06-01T12:12:54.316Z</time>
      </trkpt>
      <trkpt lat="44.13501" lon="5.8672">
        <ele>1158</ele>
        <time>2021-06-01T12:12:55.316Z</time>
      </trkpt>
      <trkpt lat="44.13502" lon="5.86722">
        <ele>1158</ele>
        <time>2021-06-01T12:12:56.316Z</time>
      </trkpt>
      <trkpt lat="44.13502" lon="5.86723">
        <ele>1158</ele>
        <time>2021-06-01T12:12:57.316Z</time>
      </trkpt>
      <trkpt lat="44.13502" lon="5.86725">
        <ele>1157</ele>
        <time>2021-06-01T12:12:58.316Z</time>
      </trkpt>
      <trkpt lat="44.13502" lon="5.86726">
        <ele>1157</ele>
        <time>2021-06-01T12:12:59.316Z</time>
      </trkpt>
      <trkpt lat="44.13503" lon="5.86728">
        <ele>1157</ele>
        <time>2021-06-01T12:13:00.316Z</time>
      </trkpt>
      <trkpt lat="44.13503" lon="5.8673">
        <ele>1157</ele>
        <time>2021-06-01T12:13:01.316Z</time>
      </trkpt>
      <trkpt lat="44.13503" lon="5.86731">
        <ele>1157</ele>
        <time>2021-06-01T12:13:02.316Z</time>
      </trkpt>
      <trkpt lat="44.13503" lon="5.86733">
        <ele>1157</ele>
        <time>2021-06-01T12:13:03.316Z</time>
      </trkpt>
      <trkpt lat="44.13503" lon="5.86734">
        <ele>1157</ele>
        <time>2021-06-01T12:13:04.316Z</time>
      </trkpt>
      <trkpt lat="44.13503" lon="5.86736">
        <ele>1156</ele>
        <time>2021-06-01T12:13:05.316Z</time>
      </trkpt>
      <trkpt lat="44.13503" lon="5.86737">
        <ele>1156</ele>
        <time>2021-06-01T12:13:06.316Z</time>
      </trkpt>
      <trkpt lat="44.13503" lon="5.86739">
        <ele>1156</ele>
        <time>2021-06-01T12:13:07.316Z</time>
      </trkpt>
      <trkpt lat="44.13503" lon="5.8674">
        <ele>1156</ele>
        <time>2021-06-01T12:13:08.316Z</time>
      </trkpt>
      <trkpt lat="44.13503" lon="5.86742">
        <ele>1156</ele>
        <time>2021-06-01T12:13:09.316Z</time>
      </trkpt>
      <trkpt lat="44.13503" lon="5.86743">
        <ele>1156</ele>
        <time>2021-06-01T12:13:10.316Z</time>
      </trkpt>
      <trkpt lat="44.13503" lon="5.86745">
        <ele>1155</ele>
        <time>2021-06-01T12:13:11.316Z</time>
      </trkpt>
      <trkpt lat="44.13504" lon="5.86747">
        <ele>1155</ele>
        <time>2021-06-01T12:13:12.316Z</time>
      </trkpt>
      <trkpt lat="44.13504" lon="5.86748">
        <ele>1155</ele>
        <time>2021-06-01T12:13:13.316Z</time>
      </trkpt>
      <trkpt lat="44.13504" lon="5.86749">
        <ele>1155</ele>
        <time>2021-06-01T12:13:14.316Z</time>
      </trkpt>
      <trkpt lat="44.13504" lon="5.86751">
        <ele>1155</ele>
        <time>2021-06-01T12:13:15.316Z</time>
      </trkpt>
      <trkpt lat="44.13504" lon="5.86753">
        <ele>1155</ele>
        <time>2021-06-01T12:13:16.316Z</time>
      </trkpt>
      <trkpt lat="44.13504" lon="5.86754">
        <ele>1154</ele>
        <time>2021-06-01T12:13:17.316Z</time>
      </trkpt>
      <trkpt lat="44.13504" lon="5.86756">
        <ele>1154</ele>
        <time>2021-06-01T12:13:18.316Z</time>
      </trkpt>
      <trkpt lat="44.13505" lon="5.86758">
        <ele>1154</ele>
        <time>2021-06-01T12:13:19.316Z</time>
      </trkpt>
      <trkpt lat="44.13505" lon="5.86759">
        <ele>1154</ele>
        <time>2021-06-01T12:13:20.316Z</time>
      </trkpt>
      <trkpt lat="44.13505" lon="5.86761">
        <ele>1154</ele>
        <time>2021-06-01T12:13:21.316Z</time>
      </trkpt>
      <trkpt lat="44.13505" lon="5.86762">
        <ele>1154</ele>
        <time>2021-06-01T12:13:22.316Z</time>
      </trkpt>
      <trkpt lat="44.13505" lon="5.86763">
        <ele>1154</ele>
        <time>2021-06-01T12:13:23.316Z</time>
      </trkpt>
      <trkpt lat="44.13505" lon="5.86765">
        <ele>1154</ele>
        <time>2021-06-01T12:13:24.316Z</time>
      </trkpt>
      <trkpt lat="44.13505" lon="5.86767">
        <ele>1153</ele>
        <time>2021-06-01T12:13:25.316Z</time>
      </trkpt>
      <trkpt lat="44.13505" lon="5.86769">
        <ele>1153</ele>
        <time>2021-06-01T12:13:26.316Z</time>
      </trkpt>
      <trkpt lat="44.13506" lon="5.86771">
        <ele>1153</ele>
        <time>2021-06-01T12:13:27.316Z</time>
      </trkpt>
      <trkpt lat="44.13506" lon="5.86773">
        <ele>1153</ele>
        <time>2021-06-01T12:13:28.316Z</time>
      </trkpt>
      <trkpt lat="44.13506" lon="5.86774">
        <ele>1153</ele>
        <time>2021-06-01T12:13:29.316Z</time>
      </trkpt>
      <trkpt lat="44.13506" lon="5.86776">
        <ele>1153</ele>
        <time>2021-06-01T12:13:30.316Z</time>
      </trkpt>
      <trkpt lat="44.13506" lon="5.86778">
        <ele>1153</ele>
        <time>2021-06-01T12:13:31.316Z</time>
      </trkpt>
      <trkpt lat="44.13506" lon="5.8678">
        <ele>1153</ele>
        <time>2021-06-01T12:13:32.316Z</time>
      </trkpt>
      <trkpt lat="44.13506" lon="5.86782">
        <ele>1152</ele>
        <time>2021-06-01T12:13:33.316Z</time>
      </trkpt>
      <trkpt lat="44.13507" lon="5.86784">
        <ele>1152</ele>
        <time>2021-06-01T12:13:34.316Z</time>
      </trkpt>
      <trkpt lat="44.13507" lon="5.86785">
        <ele>1152</ele>
        <time>2021-06-01T12:13:35.316Z</time>
      </trkpt>
      <trkpt lat="44.13507" lon="5.86787">
        <ele>1152</ele>
        <time>2021-06-01T12:13:36.316Z</time>
      </trkpt>
      <trkpt lat="44.13507" lon="5.86788">
        <ele>1152</ele>
        <time>2021-06-01T12:13:37.316Z</time>
      </trkpt>
      <trkpt lat="44.13507" lon="5.8679">
        <ele>1151</ele>
        <time>2021-06-01T12:13:38.316Z</time>
      </trkpt>
      <trkpt lat="44.13507" lon="5.86792">
        <ele>1151</ele>
        <time>2021-06-01T12:13:39.316Z</time>
      </trkpt>
      <trkpt lat="44.13507" lon="5.86793">
        <ele>1151</ele>
        <time>2021-06-01T12:13:40.316Z</time>
      </trkpt>
      <trkpt lat="44.13507" lon="5.86795">
        <ele>1151</ele>
        <time>2021-06-01T12:13:41.316Z</time>
      </trkpt>
      <trkpt lat="44.13507" lon="5.86796">
        <ele>1151</ele>
        <time>2021-06-01T12:13:42.316Z</time>
      </trkpt>
      <trkpt lat="44.13507" lon="5.86798">
        <ele>1150</ele>
        <time>2021-06-01T12:13:43.316Z</time>
      </trkpt>
      <trkpt lat="44.13507" lon="5.86799">
        <ele>1150</ele>
        <time>2021-06-01T12:13:44.316Z</time>
      </trkpt>
      <trkpt lat="44.13507" lon="5.86801">
        <ele>1150</ele>
        <time>2021-06-01T12:13:45.316Z</time>
      </trkpt>
      <trkpt lat="44.13507" lon="5.86803">
        <ele>1149</ele>
        <time>2021-06-01T12:13:46.316Z</time>
      </trkpt>
      <trkpt lat="44.13507" lon="5.86804">
        <ele>1149</ele>
        <time>2021-06-01T12:13:47.316Z</time>
      </trkpt>
      <trkpt lat="44.13507" lon="5.86806">
        <ele>1149</ele>
        <time>2021-06-01T12:13:48.316Z</time>
      </trkpt>
      <trkpt lat="44.13507" lon="5.86808">
        <ele>1149</ele>
        <time>2021-06-01T12:13:49.316Z</time>
      </trkpt>
      <trkpt lat="44.13507" lon="5.86809">
        <ele>1149</ele>
        <time>2021-06-01T12:13:50.316Z</time>
      </trkpt>
      <trkpt lat="44.13508" lon="5.8681">
        <ele>1149</ele>
        <time>2021-06-01T12:13:51.316Z</time>
      </trkpt>
      <trkpt lat="44.13508" lon="5.86812">
        <ele>1149</ele>
        <time>2021-06-01T12:13:52.316Z</time>
      </trkpt>
      <trkpt lat="44.13508" lon="5.86813">
        <ele>1148</ele>
        <time>2021-06-01T12:13:53.316Z</time>
      </trkpt>
      <trkpt lat="44.13508" lon="5.86815">
        <ele>1148</ele>
        <time>2021-06-01T12:13:54.316Z</time>
      </trkpt>
      <trkpt lat="44.13508" lon="5.86817">
        <ele>1148</ele>
        <time>2021-06-01T12:13:55.316Z</time>
      </trkpt>
      <trkpt lat="44.13508" lon="5.86819">
        <ele>1148</ele>
        <time>2021-06-01T12:13:56.316Z</time>
      </trkpt>
      <trkpt lat="44.13508" lon="5.8682">
        <ele>1148</ele>
        <time>2021-06-01T12:13:57.316Z</time>
      </trkpt>
      <trkpt lat="44.13509" lon="5.86822">
        <ele>1148</ele>
        <time>2021-06-01T12:13:58.316Z</time>
      </trkpt>
      <trkpt lat="44.13509" lon="5.86823">
        <ele>1148</ele>
        <time>2021-06-01T12:13:59.316Z</time>
      </trkpt>
      <trkpt lat="44.13509" lon="5.86825">
        <ele>1147</ele>
        <time>2021-06-01T12:14:00.316Z</time>
      </trkpt>
      <trkpt lat="44.13509" lon="5.86827">
        <ele>1147</ele>
        <time>2021-06-01T12:14:01.316Z</time>
      </trkpt>
      <trkpt lat="44.1351" lon="5.86828">
        <ele>1147</ele>
        <time>2021-06-01T12:14:02.316Z</time>
      </trkpt>
      <trkpt lat="44.1351" lon="5.8683">
        <ele>1147</ele>
        <time>2021-06-01T12:14:03.316Z</time>
      </trkpt>
      <trkpt lat="44.1351" lon="5.86831">
        <ele>1147</ele>
        <time>2021-06-01T12:14:04.316Z</time>
      </trkpt>
      <trkpt lat="44.1351" lon="5.86833">
        <ele>1147</ele>
        <time>2021-06-01T12:14:05.316Z</time>
      </trkpt>
      <trkpt lat="44.1351" lon="5.86834">
        <ele>1147</ele>
        <time>2021-06-01T12:14:06.316Z</time>
      </trkpt>
      <trkpt lat="44.13511" lon="5.86836">
        <ele>1147</ele>
        <time>2021-06-01T12:14:07.316Z</time>
      </trkpt>
      <trkpt lat="44.13511" lon="5.86838">
        <ele>1147</ele>
        <time>2021-06-01T12:14:08.316Z</time>
      </trkpt>
      <trkpt lat="44.13511" lon="5.8684">
        <ele>1147</ele>
        <time>2021-06-01T12:14:09.316Z</time>
      </trkpt>
      <trkpt lat="44.13511" lon="5.86842">
        <ele>1146</ele>
        <time>2021-06-01T12:14:10.316Z</time>
      </trkpt>
      <trkpt lat="44.13511" lon="5.86843">
        <ele>1146</ele>
        <time>2021-06-01T12:14:11.316Z</time>
      </trkpt>
      <trkpt lat="44.13511" lon="5.86845">
        <ele>1146</ele>
        <time>2021-06-01T12:14:12.316Z</time>
      </trkpt>
      <trkpt lat="44.13511" lon="5.86846">
        <ele>1146</ele>
        <time>2021-06-01T12:14:13.316Z</time>
      </trkpt>
      <trkpt lat="44.13511" lon="5.86848">
        <ele>1146</ele>
        <time>2021-06-01T12:14:14.316Z</time>
      </trkpt>
      <trkpt lat="44.13511" lon="5.8685">
        <ele>1146</ele>
        <time>2021-06-01T12:14:15.316Z</time>
      </trkpt>
      <trkpt lat="44.13511" lon="5.86851">
        <ele>1146</ele>
        <time>2021-06-01T12:14:16.316Z</time>
      </trkpt>
      <trkpt lat="44.13512" lon="5.86853">
        <ele>1145</ele>
        <time>2021-06-01T12:14:17.316Z</time>
      </trkpt>
      <trkpt lat="44.13512" lon="5.86854">
        <ele>1145</ele>
        <time>2021-06-01T12:14:18.316Z</time>
      </trkpt>
      <trkpt lat="44.13512" lon="5.86856">
        <ele>1145</ele>
        <time>2021-06-01T12:14:19.316Z</time>
      </trkpt>
      <trkpt lat="44.13512" lon="5.86857">
        <ele>1145</ele>
        <time>2021-06-01T12:14:20.316Z</time>
      </trkpt>
      <trkpt lat="44.13512" lon="5.86859">
        <ele>1145</ele>
        <time>2021-06-01T12:14:21.316Z</time>
      </trkpt>
      <trkpt lat="44.13512" lon="5.86861">
        <ele>1145</ele>
        <time>2021-06-01T12:14:22.316Z</time>
      </trkpt>
      <trkpt lat="44.13512" lon="5.86863">
        <ele>1145</ele>
        <time>2021-06-01T12:14:23.316Z</time>
      </trkpt>
      <trkpt lat="44.13512" lon="5.86865">
        <ele>1145</ele>
        <time>2021-06-01T12:14:24.316Z</time>
      </trkpt>
      <trkpt lat="44.13512" lon="5.86866">
        <ele>1145</ele>
        <time>2021-06-01T12:14:25.316Z</time>
      </trkpt>
      <trkpt lat="44.13512" lon="5.86868">
        <ele>1145</ele>
        <time>2021-06-01T12:14:26.316Z</time>
      </trkpt>
      <trkpt lat="44.13513" lon="5.86869">
        <ele>1144</ele>
        <time>2021-06-01T12:14:27.316Z</time>
      </trkpt>
      <trkpt lat="44.13513" lon="5.8687">
        <ele>1144</ele>
        <time>2021-06-01T12:14:28.316Z</time>
      </trkpt>
      <trkpt lat="44.13513" lon="5.86872">
        <ele>1144</ele>
        <time>2021-06-01T12:14:29.316Z</time>
      </trkpt>
      <trkpt lat="44.13514" lon="5.86874">
        <ele>1144</ele>
        <time>2021-06-01T12:14:30.316Z</time>
      </trkpt>
      <trkpt lat="44.13514" lon="5.86875">
        <ele>1144</ele>
        <time>2021-06-01T12:14:31.316Z</time>
      </trkpt>
      <trkpt lat="44.13514" lon="5.86877">
        <ele>1144</ele>
        <time>2021-06-01T12:14:32.316Z</time>
      </trkpt>
      <trkpt lat="44.13514" lon="5.86878">
        <ele>1144</ele>
        <time>2021-06-01T12:14:33.316Z</time>
      </trkpt>
      <trkpt lat="44.13514" lon="5.8688">
        <ele>1143</ele>
        <time>2021-06-01T12:14:34.316Z</time>
      </trkpt>
      <trkpt lat="44.13514" lon="5.86882">
        <ele>1143</ele>
        <time>2021-06-01T12:14:35.316Z</time>
      </trkpt>
      <trkpt lat="44.13514" lon="5.86883">
        <ele>1143</ele>
        <time>2021-06-01T12:14:36.316Z</time>
      </trkpt>
      <trkpt lat="44.13514" lon="5.86885">
        <ele>1143</ele>
        <time>2021-06-01T12:14:37.316Z</time>
      </trkpt>
      <trkpt lat="44.13514" lon="5.86887">
        <ele>1143</ele>
        <time>2021-06-01T12:14:38.316Z</time>
      </trkpt>
      <trkpt lat="44.13514" lon="5.86888">
        <ele>1143</ele>
        <time>2021-06-01T12:14:39.316Z</time>
      </trkpt>
      <trkpt lat="44.13515" lon="5.8689">
        <ele>1143</ele>
        <time>2021-06-01T12:14:40.316Z</time>
      </trkpt>
      <trkpt lat="44.13515" lon="5.86892">
        <ele>1142</ele>
        <time>2021-06-01T12:14:41.316Z</time>
      </trkpt>
      <trkpt lat="44.13515" lon="5.86893">
        <ele>1142</ele>
        <time>2021-06-01T12:14:42.316Z</time>
      </trkpt>
      <trkpt lat="44.13515" lon="5.86895">
        <ele>1142</ele>
        <time>2021-06-01T12:14:43.316Z</time>
      </trkpt>
      <trkpt lat="44.13515" lon="5.86896">
        <ele>1142</ele>
        <time>2021-06-01T12:14:44.316Z</time>
      </trkpt>
      <trkpt lat="44.13515" lon="5.86898">
        <ele>1142</ele>
        <time>2021-06-01T12:14:45.316Z</time>
      </trkpt>
      <trkpt lat="44.13515" lon="5.869">
        <ele>1142</ele>
        <time>2021-06-01T12:14:46.316Z</time>
      </trkpt>
      <trkpt lat="44.13515" lon="5.86902">
        <ele>1142</ele>
        <time>2021-06-01T12:14:47.316Z</time>
      </trkpt>
      <trkpt lat="44.13514" lon="5.86903">
        <ele>1141</ele>
        <time>2021-06-01T12:14:48.316Z</time>
      </trkpt>
      <trkpt lat="44.13514" lon="5.86905">
        <ele>1141</ele>
        <time>2021-06-01T12:14:49.316Z</time>
      </trkpt>
      <trkpt lat="44.13514" lon="5.86906">
        <ele>1141</ele>
        <time>2021-06-01T12:14:50.316Z</time>
      </trkpt>
      <trkpt lat="44.13514" lon="5.86908">
        <ele>1141</ele>
        <time>2021-06-01T12:14:51.316Z</time>
      </trkpt>
      <trkpt lat="44.13514" lon="5.86909">
        <ele>1141</ele>
        <time>2021-06-01T12:14:52.316Z</time>
      </trkpt>
      <trkpt lat="44.13514" lon="5.86911">
        <ele>1141</ele>
        <time>2021-06-01T12:14:53.316Z</time>
      </trkpt>
      <trkpt lat="44.13515" lon="5.86913">
        <ele>1141</ele>
        <time>2021-06-01T12:14:54.316Z</time>
      </trkpt>
      <trkpt lat="44.13515" lon="5.86914">
        <ele>1141</ele>
        <time>2021-06-01T12:14:55.316Z</time>
      </trkpt>
      <trkpt lat="44.13515" lon="5.86916">
        <ele>1141</ele>
        <time>2021-06-01T12:14:56.316Z</time>
      </trkpt>
      <trkpt lat="44.13515" lon="5.86917">
        <ele>1141</ele>
        <time>2021-06-01T12:14:57.316Z</time>
      </trkpt>
      <trkpt lat="44.13515" lon="5.86918">
        <ele>1140</ele>
        <time>2021-06-01T12:14:58.316Z</time>
      </trkpt>
      <trkpt lat="44.13516" lon="5.8692">
        <ele>1140</ele>
        <time>2021-06-01T12:14:59.316Z</time>
      </trkpt>
      <trkpt lat="44.13516" lon="5.86921">
        <ele>1140</ele>
        <time>2021-06-01T12:15:00.316Z</time>
      </trkpt>
      <trkpt lat="44.13516" lon="5.86922">
        <ele>1140</ele>
        <time>2021-06-01T12:15:01.316Z</time>
      </trkpt>
      <trkpt lat="44.13516" lon="5.86923">
        <ele>1140</ele>
        <time>2021-06-01T12:15:02.316Z</time>
      </trkpt>
      <trkpt lat="44.13516" lon="5.86925">
        <ele>1140</ele>
        <time>2021-06-01T12:15:03.316Z</time>
      </trkpt>
      <trkpt lat="44.13516" lon="5.86926">
        <ele>1140</ele>
        <time>2021-06-01T12:15:04.316Z</time>
      </trkpt>
      <trkpt lat="44.13517" lon="5.86927">
        <ele>1139</ele>
        <time>2021-06-01T12:15:05.316Z</time>
      </trkpt>
      <trkpt lat="44.13517" lon="5.86929">
        <ele>1139</ele>
        <time>2021-06-01T12:15:06.316Z</time>
      </trkpt>
      <trkpt lat="44.13517" lon="5.8693">
        <ele>1139</ele>
        <time>2021-06-01T12:15:07.316Z</time>
      </trkpt>
      <trkpt lat="44.13517" lon="5.86932">
        <ele>1139</ele>
        <time>2021-06-01T12:15:08.316Z</time>
      </trkpt>
      <trkpt lat="44.13517" lon="5.86933">
        <ele>1139</ele>
        <time>2021-06-01T12:15:09.316Z</time>
      </trkpt>
      <trkpt lat="44.13516" lon="5.86935">
        <ele>1139</ele>
        <time>2021-06-01T12:15:10.316Z</time>
      </trkpt>
      <trkpt lat="44.13516" lon="5.86936">
        <ele>1139</ele>
        <time>2021-06-01T12:15:11.316Z</time>
      </trkpt>
      <trkpt lat="44.13515" lon="5.86937">
        <ele>1139</ele>
        <time>2021-06-01T12:15:12.316Z</time>
      </trkpt>
      <trkpt lat="44.13514" lon="5.86938">
        <ele>1139</ele>
        <time>2021-06-01T12:15:13.316Z</time>
      </trkpt>
      <trkpt lat="44.13513" lon="5.86938">
        <ele>1139</ele>
        <time>2021-06-01T12:15:14.316Z</time>
      </trkpt>
      <trkpt lat="44.13512" lon="5.86938">
        <ele>1138</ele>
        <time>2021-06-01T12:15:15.316Z</time>
      </trkpt>
      <trkpt lat="44.13511" lon="5.86937">
        <ele>1138</ele>
        <time>2021-06-01T12:15:16.316Z</time>
      </trkpt>
      <trkpt lat="44.1351" lon="5.86936">
        <ele>1138</ele>
        <time>2021-06-01T12:15:17.316Z</time>
      </trkpt>
      <trkpt lat="44.13509" lon="5.86935">
        <ele>1138</ele>
        <time>2021-06-01T12:15:18.316Z</time>
      </trkpt>
      <trkpt lat="44.13509" lon="5.86933">
        <ele>1138</ele>
        <time>2021-06-01T12:15:19.316Z</time>
      </trkpt>
      <trkpt lat="44.13508" lon="5.86932">
        <ele>1138</ele>
        <time>2021-06-01T12:15:20.316Z</time>
      </trkpt>
      <trkpt lat="44.13507" lon="5.86931">
        <ele>1138</ele>
        <time>2021-06-01T12:15:21.316Z</time>
      </trkpt>
      <trkpt lat="44.13507" lon="5.86929">
        <ele>1138</ele>
        <time>2021-06-01T12:15:22.316Z</time>
      </trkpt>
      <trkpt lat="44.13506" lon="5.86928">
        <ele>1138</ele>
        <time>2021-06-01T12:15:23.316Z</time>
      </trkpt>
      <trkpt lat="44.13506" lon="5.86926">
        <ele>1138</ele>
        <time>2021-06-01T12:15:24.316Z</time>
      </trkpt>
      <trkpt lat="44.13505" lon="5.86925">
        <ele>1137</ele>
        <time>2021-06-01T12:15:25.316Z</time>
      </trkpt>
      <trkpt lat="44.13505" lon="5.86924">
        <ele>1137</ele>
        <time>2021-06-01T12:15:26.316Z</time>
      </trkpt>
      <trkpt lat="44.13504" lon="5.86922">
        <ele>1137</ele>
        <time>2021-06-01T12:15:27.316Z</time>
      </trkpt>
      <trkpt lat="44.13504" lon="5.86921">
        <ele>1137</ele>
        <time>2021-06-01T12:15:28.316Z</time>
      </trkpt>
      <trkpt lat="44.13503" lon="5.8692">
        <ele>1137</ele>
        <time>2021-06-01T12:15:29.316Z</time>
      </trkpt>
      <trkpt lat="44.13502" lon="5.86918">
        <ele>1137</ele>
        <time>2021-06-01T12:15:30.316Z</time>
      </trkpt>
      <trkpt lat="44.13502" lon="5.86917">
        <ele>1137</ele>
        <time>2021-06-01T12:15:31.316Z</time>
      </trkpt>
      <trkpt lat="44.13501" lon="5.86916">
        <ele>1137</ele>
        <time>2021-06-01T12:15:32.316Z</time>
      </trkpt>
      <trkpt lat="44.135" lon="5.86914">
        <ele>1136</ele>
        <time>2021-06-01T12:15:33.316Z</time>
      </trkpt>
      <trkpt lat="44.135" lon="5.86913">
        <ele>1136</ele>
        <time>2021-06-01T12:15:34.316Z</time>
      </trkpt>
      <trkpt lat="44.13499" lon="5.86912">
        <ele>1136</ele>
        <time>2021-06-01T12:15:35.316Z</time>
      </trkpt>
      <trkpt lat="44.13498" lon="5.86911">
        <ele>1136</ele>
        <time>2021-06-01T12:15:36.316Z</time>
      </trkpt>
      <trkpt lat="44.13498" lon="5.8691">
        <ele>1136</ele>
        <time>2021-06-01T12:15:37.316Z</time>
      </trkpt>
      <trkpt lat="44.13497" lon="5.86908">
        <ele>1136</ele>
        <time>2021-06-01T12:15:38.316Z</time>
      </trkpt>
      <trkpt lat="44.13496" lon="5.86907">
        <ele>1136</ele>
        <time>2021-06-01T12:15:39.316Z</time>
      </trkpt>
      <trkpt lat="44.13495" lon="5.86906">
        <ele>1136</ele>
        <time>2021-06-01T12:15:40.316Z</time>
      </trkpt>
      <trkpt lat="44.13495" lon="5.86904">
        <ele>1136</ele>
        <time>2021-06-01T12:15:41.316Z</time>
      </trkpt>
      <trkpt lat="44.13494" lon="5.86903">
        <ele>1136</ele>
        <time>2021-06-01T12:15:42.316Z</time>
      </trkpt>
      <trkpt lat="44.13493" lon="5.86902">
        <ele>1136</ele>
        <time>2021-06-01T12:15:43.316Z</time>
      </trkpt>
      <trkpt lat="44.13492" lon="5.86901">
        <ele>1136</ele>
        <time>2021-06-01T12:15:44.316Z</time>
      </trkpt>
      <trkpt lat="44.13492" lon="5.869">
        <ele>1136</ele>
        <time>2021-06-01T12:15:45.316Z</time>
      </trkpt>
      <trkpt lat="44.13491" lon="5.86898">
        <ele>1136</ele>
        <time>2021-06-01T12:15:46.316Z</time>
      </trkpt>
      <trkpt lat="44.1349" lon="5.86896">
        <ele>1136</ele>
        <time>2021-06-01T12:15:47.316Z</time>
      </trkpt>
      <trkpt lat="44.1349" lon="5.86895">
        <ele>1136</ele>
        <time>2021-06-01T12:15:48.316Z</time>
      </trkpt>
      <trkpt lat="44.13489" lon="5.86894">
        <ele>1136</ele>
        <time>2021-06-01T12:15:49.316Z</time>
      </trkpt>
      <trkpt lat="44.13488" lon="5.86893">
        <ele>1136</ele>
        <time>2021-06-01T12:15:50.316Z</time>
      </trkpt>
      <trkpt lat="44.13487" lon="5.86892">
        <ele>1136</ele>
        <time>2021-06-01T12:15:51.316Z</time>
      </trkpt>
      <trkpt lat="44.13486" lon="5.86891">
        <ele>1136</ele>
        <time>2021-06-01T12:15:52.316Z</time>
      </trkpt>
      <trkpt lat="44.13485" lon="5.86889">
        <ele>1135</ele>
        <time>2021-06-01T12:15:53.316Z</time>
      </trkpt>
      <trkpt lat="44.13484" lon="5.86888">
        <ele>1135</ele>
        <time>2021-06-01T12:15:54.316Z</time>
      </trkpt>
      <trkpt lat="44.13483" lon="5.86887">
        <ele>1135</ele>
        <time>2021-06-01T12:15:55.316Z</time>
      </trkpt>
      <trkpt lat="44.13482" lon="5.86885">
        <ele>1135</ele>
        <time>2021-06-01T12:15:56.316Z</time>
      </trkpt>
      <trkpt lat="44.13481" lon="5.86884">
        <ele>1135</ele>
        <time>2021-06-01T12:15:57.316Z</time>
      </trkpt>
      <trkpt lat="44.13481" lon="5.86883">
        <ele>1135</ele>
        <time>2021-06-01T12:15:58.316Z</time>
      </trkpt>
      <trkpt lat="44.1348" lon="5.86881">
        <ele>1135</ele>
        <time>2021-06-01T12:15:59.316Z</time>
      </trkpt>
      <trkpt lat="44.13479" lon="5.8688">
        <ele>1134</ele>
        <time>2021-06-01T12:16:00.316Z</time>
      </trkpt>
      <trkpt lat="44.13479" lon="5.86879">
        <ele>1134</ele>
        <time>2021-06-01T12:16:01.316Z</time>
      </trkpt>
      <trkpt lat="44.13478" lon="5.86878">
        <ele>1134</ele>
        <time>2021-06-01T12:16:02.316Z</time>
      </trkpt>
      <trkpt lat="44.13477" lon="5.86877">
        <ele>1134</ele>
        <time>2021-06-01T12:16:03.316Z</time>
      </trkpt>
      <trkpt lat="44.13476" lon="5.86875">
        <ele>1134</ele>
        <time>2021-06-01T12:16:04.316Z</time>
      </trkpt>
      <trkpt lat="44.13476" lon="5.86874">
        <ele>1134</ele>
        <time>2021-06-01T12:16:05.316Z</time>
      </trkpt>
      <trkpt lat="44.13475" lon="5.86873">
        <ele>1133</ele>
        <time>2021-06-01T12:16:06.316Z</time>
      </trkpt>
      <trkpt lat="44.13474" lon="5.86871">
        <ele>1133</ele>
        <time>2021-06-01T12:16:07.316Z</time>
      </trkpt>
      <trkpt lat="44.13473" lon="5.8687">
        <ele>1133</ele>
        <time>2021-06-01T12:16:08.316Z</time>
      </trkpt>
      <trkpt lat="44.13472" lon="5.86869">
        <ele>1133</ele>
        <time>2021-06-01T12:16:09.316Z</time>
      </trkpt>
      <trkpt lat="44.13472" lon="5.86868">
        <ele>1133</ele>
        <time>2021-06-01T12:16:10.316Z</time>
      </trkpt>
      <trkpt lat="44.13471" lon="5.86867">
        <ele>1133</ele>
        <time>2021-06-01T12:16:11.316Z</time>
      </trkpt>
      <trkpt lat="44.1347" lon="5.86866">
        <ele>1132</ele>
        <time>2021-06-01T12:16:12.316Z</time>
      </trkpt>
      <trkpt lat="44.13469" lon="5.86865">
        <ele>1132</ele>
        <time>2021-06-01T12:16:13.316Z</time>
      </trkpt>
      <trkpt lat="44.13468" lon="5.86863">
        <ele>1132</ele>
        <time>2021-06-01T12:16:14.316Z</time>
      </trkpt>
      <trkpt lat="44.13468" lon="5.86862">
        <ele>1132</ele>
        <time>2021-06-01T12:16:15.316Z</time>
      </trkpt>
      <trkpt lat="44.13467" lon="5.86861">
        <ele>1132</ele>
        <time>2021-06-01T12:16:16.316Z</time>
      </trkpt>
      <trkpt lat="44.13467" lon="5.86859">
        <ele>1132</ele>
        <time>2021-06-01T12:16:17.316Z</time>
      </trkpt>
      <trkpt lat="44.13466" lon="5.86858">
        <ele>1132</ele>
        <time>2021-06-01T12:16:18.316Z</time>
      </trkpt>
      <trkpt lat="44.13465" lon="5.86857">
        <ele>1132</ele>
        <time>2021-06-01T12:16:19.316Z</time>
      </trkpt>
      <trkpt lat="44.13464" lon="5.86856">
        <ele>1131</ele>
        <time>2021-06-01T12:16:20.316Z</time>
      </trkpt>
      <trkpt lat="44.13463" lon="5.86855">
        <ele>1131</ele>
        <time>2021-06-01T12:16:21.316Z</time>
      </trkpt>
      <trkpt lat="44.13462" lon="5.86853">
        <ele>1131</ele>
        <time>2021-06-01T12:16:22.316Z</time>
      </trkpt>
      <trkpt lat="44.13461" lon="5.86852">
        <ele>1131</ele>
        <time>2021-06-01T12:16:23.316Z</time>
      </trkpt>
      <trkpt lat="44.13461" lon="5.86851">
        <ele>1131</ele>
        <time>2021-06-01T12:16:24.316Z</time>
      </trkpt>
      <trkpt lat="44.1346" lon="5.8685">
        <ele>1131</ele>
        <time>2021-06-01T12:16:25.316Z</time>
      </trkpt>
      <trkpt lat="44.13459" lon="5.86848">
        <ele>1131</ele>
        <time>2021-06-01T12:16:26.316Z</time>
      </trkpt>
      <trkpt lat="44.13459" lon="5.86847">
        <ele>1130</ele>
        <time>2021-06-01T12:16:27.316Z</time>
      </trkpt>
      <trkpt lat="44.13458" lon="5.86846">
        <ele>1130</ele>
        <time>2021-06-01T12:16:28.316Z</time>
      </trkpt>
      <trkpt lat="44.13457" lon="5.86845">
        <ele>1130</ele>
        <time>2021-06-01T12:16:29.316Z</time>
      </trkpt>
      <trkpt lat="44.13456" lon="5.86843">
        <ele>1130</ele>
        <time>2021-06-01T12:16:30.316Z</time>
      </trkpt>
      <trkpt lat="44.13455" lon="5.86842">
        <ele>1130</ele>
        <time>2021-06-01T12:16:31.316Z</time>
      </trkpt>
      <trkpt lat="44.13455" lon="5.86841">
        <ele>1130</ele>
        <time>2021-06-01T12:16:32.316Z</time>
      </trkpt>
      <trkpt lat="44.13454" lon="5.8684">
        <ele>1130</ele>
        <time>2021-06-01T12:16:33.316Z</time>
      </trkpt>
      <trkpt lat="44.13453" lon="5.86839">
        <ele>1130</ele>
        <time>2021-06-01T12:16:34.316Z</time>
      </trkpt>
      <trkpt lat="44.13452" lon="5.86838">
        <ele>1129</ele>
        <time>2021-06-01T12:16:35.316Z</time>
      </trkpt>
      <trkpt lat="44.13452" lon="5.86836">
        <ele>1129</ele>
        <time>2021-06-01T12:16:36.316Z</time>
      </trkpt>
      <trkpt lat="44.13451" lon="5.86835">
        <ele>1129</ele>
        <time>2021-06-01T12:16:37.316Z</time>
      </trkpt>
      <trkpt lat="44.1345" lon="5.86834">
        <ele>1129</ele>
        <time>2021-06-01T12:16:38.316Z</time>
      </trkpt>
      <trkpt lat="44.1345" lon="5.86833">
        <ele>1129</ele>
        <time>2021-06-01T12:16:39.316Z</time>
      </trkpt>
      <trkpt lat="44.13449" lon="5.86831">
        <ele>1129</ele>
        <time>2021-06-01T12:16:40.316Z</time>
      </trkpt>
      <trkpt lat="44.13448" lon="5.8683">
        <ele>1129</ele>
        <time>2021-06-01T12:16:41.316Z</time>
      </trkpt>
      <trkpt lat="44.13447" lon="5.86829">
        <ele>1129</ele>
        <time>2021-06-01T12:16:42.316Z</time>
      </trkpt>
      <trkpt lat="44.13446" lon="5.86828">
        <ele>1128</ele>
        <time>2021-06-01T12:16:43.316Z</time>
      </trkpt>
      <trkpt lat="44.13446" lon="5.86827">
        <ele>1128</ele>
        <time>2021-06-01T12:16:44.316Z</time>
      </trkpt>
      <trkpt lat="44.13445" lon="5.86825">
        <ele>1128</ele>
        <time>2021-06-01T12:16:45.316Z</time>
      </trkpt>
      <trkpt lat="44.13444" lon="5.86824">
        <ele>1128</ele>
        <time>2021-06-01T12:16:46.316Z</time>
      </trkpt>
      <trkpt lat="44.13443" lon="5.86823">
        <ele>1128</ele>
        <time>2021-06-01T12:16:47.316Z</time>
      </trkpt>
      <trkpt lat="44.13443" lon="5.86822">
        <ele>1128</ele>
        <time>2021-06-01T12:16:48.316Z</time>
      </trkpt>
      <trkpt lat="44.13442" lon="5.8682">
        <ele>1128</ele>
        <time>2021-06-01T12:16:49.316Z</time>
      </trkpt>
      <trkpt lat="44.13441" lon="5.86819">
        <ele>1128</ele>
        <time>2021-06-01T12:16:50.316Z</time>
      </trkpt>
      <trkpt lat="44.1344" lon="5.86818">
        <ele>1128</ele>
        <time>2021-06-01T12:16:51.316Z</time>
      </trkpt>
      <trkpt lat="44.13439" lon="5.86816">
        <ele>1127</ele>
        <time>2021-06-01T12:16:52.316Z</time>
      </trkpt>
      <trkpt lat="44.13438" lon="5.86815">
        <ele>1127</ele>
        <time>2021-06-01T12:16:53.316Z</time>
      </trkpt>
      <trkpt lat="44.13438" lon="5.86814">
        <ele>1127</ele>
        <time>2021-06-01T12:16:54.316Z</time>
      </trkpt>
      <trkpt lat="44.13437" lon="5.86813">
        <ele>1127</ele>
        <time>2021-06-01T12:16:55.316Z</time>
      </trkpt>
      <trkpt lat="44.13436" lon="5.86812">
        <ele>1127</ele>
        <time>2021-06-01T12:16:56.316Z</time>
      </trkpt>
      <trkpt lat="44.13436" lon="5.8681">
        <ele>1127</ele>
        <time>2021-06-01T12:16:57.316Z</time>
      </trkpt>
      <trkpt lat="44.13435" lon="5.86809">
        <ele>1127</ele>
        <time>2021-06-01T12:16:58.316Z</time>
      </trkpt>
      <trkpt lat="44.13434" lon="5.86808">
        <ele>1126</ele>
        <time>2021-06-01T12:16:59.316Z</time>
      </trkpt>
      <trkpt lat="44.13433" lon="5.86807">
        <ele>1126</ele>
        <time>2021-06-01T12:17:00.316Z</time>
      </trkpt>
      <trkpt lat="44.13433" lon="5.86805">
        <ele>1126</ele>
        <time>2021-06-01T12:17:01.316Z</time>
      </trkpt>
      <trkpt lat="44.13432" lon="5.86804">
        <ele>1126</ele>
        <time>2021-06-01T12:17:02.316Z</time>
      </trkpt>
      <trkpt lat="44.13431" lon="5.86803">
        <ele>1126</ele>
        <time>2021-06-01T12:17:03.316Z</time>
      </trkpt>
      <trkpt lat="44.13431" lon="5.86802">
        <ele>1125</ele>
        <time>2021-06-01T12:17:04.316Z</time>
      </trkpt>
      <trkpt lat="44.1343" lon="5.86801">
        <ele>1125</ele>
        <time>2021-06-01T12:17:05.316Z</time>
      </trkpt>
      <trkpt lat="44.13429" lon="5.86799">
        <ele>1125</ele>
        <time>2021-06-01T12:17:06.316Z</time>
      </trkpt>
      <trkpt lat="44.13428" lon="5.86798">
        <ele>1125</ele>
        <time>2021-06-01T12:17:07.316Z</time>
      </trkpt>
      <trkpt lat="44.13427" lon="5.86797">
        <ele>1125</ele>
        <time>2021-06-01T12:17:08.316Z</time>
      </trkpt>
      <trkpt lat="44.13426" lon="5.86795">
        <ele>1125</ele>
        <time>2021-06-01T12:17:09.316Z</time>
      </trkpt>
      <trkpt lat="44.13426" lon="5.86794">
        <ele>1125</ele>
        <time>2021-06-01T12:17:10.316Z</time>
      </trkpt>
      <trkpt lat="44.13425" lon="5.86793">
        <ele>1125</ele>
        <time>2021-06-01T12:17:11.316Z</time>
      </trkpt>
      <trkpt lat="44.13424" lon="5.86792">
        <ele>1125</ele>
        <time>2021-06-01T12:17:12.316Z</time>
      </trkpt>
      <trkpt lat="44.13423" lon="5.86791">
        <ele>1125</ele>
        <time>2021-06-01T12:17:13.316Z</time>
      </trkpt>
      <trkpt lat="44.13422" lon="5.86789">
        <ele>1125</ele>
        <time>2021-06-01T12:17:14.316Z</time>
      </trkpt>
      <trkpt lat="44.13421" lon="5.86788">
        <ele>1125</ele>
        <time>2021-06-01T12:17:15.316Z</time>
      </trkpt>
      <trkpt lat="44.13421" lon="5.86787">
        <ele>1124</ele>
        <time>2021-06-01T12:17:16.316Z</time>
      </trkpt>
      <trkpt lat="44.1342" lon="5.86786">
        <ele>1124</ele>
        <time>2021-06-01T12:17:17.316Z</time>
      </trkpt>
      <trkpt lat="44.13419" lon="5.86785">
        <ele>1124</ele>
        <time>2021-06-01T12:17:18.316Z</time>
      </trkpt>
      <trkpt lat="44.13419" lon="5.86784">
        <ele>1124</ele>
        <time>2021-06-01T12:17:19.316Z</time>
      </trkpt>
      <trkpt lat="44.13418" lon="5.86782">
        <ele>1124</ele>
        <time>2021-06-01T12:17:20.316Z</time>
      </trkpt>
      <trkpt lat="44.13417" lon="5.86781">
        <ele>1124</ele>
        <time>2021-06-01T12:17:21.316Z</time>
      </trkpt>
      <trkpt lat="44.13416" lon="5.8678">
        <ele>1124</ele>
        <time>2021-06-01T12:17:22.316Z</time>
      </trkpt>
      <trkpt lat="44.13415" lon="5.86779">
        <ele>1124</ele>
        <time>2021-06-01T12:17:23.316Z</time>
      </trkpt>
      <trkpt lat="44.13414" lon="5.86778">
        <ele>1123</ele>
        <time>2021-06-01T12:17:24.316Z</time>
      </trkpt>
      <trkpt lat="44.13413" lon="5.86776">
        <ele>1123</ele>
        <time>2021-06-01T12:17:25.316Z</time>
      </trkpt>
      <trkpt lat="44.13413" lon="5.86775">
        <ele>1123</ele>
        <time>2021-06-01T12:17:26.316Z</time>
      </trkpt>
      <trkpt lat="44.13412" lon="5.86774">
        <ele>1123</ele>
        <time>2021-06-01T12:17:27.316Z</time>
      </trkpt>
      <trkpt lat="44.13411" lon="5.86772">
        <ele>1123</ele>
        <time>2021-06-01T12:17:28.316Z</time>
      </trkpt>
      <trkpt lat="44.13411" lon="5.86771">
        <ele>1123</ele>
        <time>2021-06-01T12:17:29.316Z</time>
      </trkpt>
      <trkpt lat="44.1341" lon="5.8677">
        <ele>1123</ele>
        <time>2021-06-01T12:17:30.316Z</time>
      </trkpt>
      <trkpt lat="44.13409" lon="5.86768">
        <ele>1122</ele>
        <time>2021-06-01T12:17:31.316Z</time>
      </trkpt>
      <trkpt lat="44.13408" lon="5.86767">
        <ele>1122</ele>
        <time>2021-06-01T12:17:32.316Z</time>
      </trkpt>
      <trkpt lat="44.13407" lon="5.86766">
        <ele>1122</ele>
        <time>2021-06-01T12:17:33.316Z</time>
      </trkpt>
      <trkpt lat="44.13407" lon="5.86764">
        <ele>1122</ele>
        <time>2021-06-01T12:17:34.316Z</time>
      </trkpt>
      <trkpt lat="44.13406" lon="5.86763">
        <ele>1122</ele>
        <time>2021-06-01T12:17:35.316Z</time>
      </trkpt>
      <trkpt lat="44.13405" lon="5.86762">
        <ele>1122</ele>
        <time>2021-06-01T12:17:36.316Z</time>
      </trkpt>
      <trkpt lat="44.13405" lon="5.86761">
        <ele>1122</ele>
        <time>2021-06-01T12:17:37.316Z</time>
      </trkpt>
      <trkpt lat="44.13404" lon="5.86759">
        <ele>1122</ele>
        <time>2021-06-01T12:17:38.316Z</time>
      </trkpt>
      <trkpt lat="44.13403" lon="5.86758">
        <ele>1121</ele>
        <time>2021-06-01T12:17:39.316Z</time>
      </trkpt>
      <trkpt lat="44.13402" lon="5.86756">
        <ele>1121</ele>
        <time>2021-06-01T12:17:40.316Z</time>
      </trkpt>
      <trkpt lat="44.13402" lon="5.86755">
        <ele>1121</ele>
        <time>2021-06-01T12:17:41.316Z</time>
      </trkpt>
      <trkpt lat="44.13401" lon="5.86754">
        <ele>1121</ele>
        <time>2021-06-01T12:17:42.316Z</time>
      </trkpt>
      <trkpt lat="44.134" lon="5.86753">
        <ele>1121</ele>
        <time>2021-06-01T12:17:43.316Z</time>
      </trkpt>
      <trkpt lat="44.13399" lon="5.86751">
        <ele>1121</ele>
        <time>2021-06-01T12:17:44.316Z</time>
      </trkpt>
      <trkpt lat="44.13399" lon="5.8675">
        <ele>1121</ele>
        <time>2021-06-01T12:17:45.316Z</time>
      </trkpt>
      <trkpt lat="44.13398" lon="5.86749">
        <ele>1120</ele>
        <time>2021-06-01T12:17:46.316Z</time>
      </trkpt>
      <trkpt lat="44.13398" lon="5.86747">
        <ele>1120</ele>
        <time>2021-06-01T12:17:47.316Z</time>
      </trkpt>
      <trkpt lat="44.13397" lon="5.86746">
        <ele>1120</ele>
        <time>2021-06-01T12:17:48.316Z</time>
      </trkpt>
      <trkpt lat="44.13396" lon="5.86745">
        <ele>1120</ele>
        <time>2021-06-01T12:17:49.316Z</time>
      </trkpt>
      <trkpt lat="44.13395" lon="5.86743">
        <ele>1119</ele>
        <time>2021-06-01T12:17:50.316Z</time>
      </trkpt>
      <trkpt lat="44.13395" lon="5.86742">
        <ele>1119</ele>
        <time>2021-06-01T12:17:51.316Z</time>
      </trkpt>
      <trkpt lat="44.13394" lon="5.86741">
        <ele>1119</ele>
        <time>2021-06-01T12:17:52.316Z</time>
      </trkpt>
      <trkpt lat="44.13394" lon="5.8674">
        <ele>1119</ele>
        <time>2021-06-01T12:17:53.316Z</time>
      </trkpt>
      <trkpt lat="44.13393" lon="5.86738">
        <ele>1119</ele>
        <time>2021-06-01T12:17:54.316Z</time>
      </trkpt>
      <trkpt lat="44.13392" lon="5.86737">
        <ele>1119</ele>
        <time>2021-06-01T12:17:55.316Z</time>
      </trkpt>
      <trkpt lat="44.13391" lon="5.86736">
        <ele>1118</ele>
        <time>2021-06-01T12:17:56.316Z</time>
      </trkpt>
      <trkpt lat="44.1339" lon="5.86735">
        <ele>1118</ele>
        <time>2021-06-01T12:17:57.316Z</time>
      </trkpt>
      <trkpt lat="44.13389" lon="5.86733">
        <ele>1118</ele>
        <time>2021-06-01T12:17:58.316Z</time>
      </trkpt>
      <trkpt lat="44.13389" lon="5.86732">
        <ele>1118</ele>
        <time>2021-06-01T12:17:59.316Z</time>
      </trkpt>
      <trkpt lat="44.13388" lon="5.86731">
        <ele>1118</ele>
        <time>2021-06-01T12:18:00.316Z</time>
      </trkpt>
      <trkpt lat="44.13387" lon="5.86729">
        <ele>1118</ele>
        <time>2021-06-01T12:18:01.316Z</time>
      </trkpt>
      <trkpt lat="44.13387" lon="5.86728">
        <ele>1118</ele>
        <time>2021-06-01T12:18:02.316Z</time>
      </trkpt>
      <trkpt lat="44.13386" lon="5.86727">
        <ele>1117</ele>
        <time>2021-06-01T12:18:03.316Z</time>
      </trkpt>
      <trkpt lat="44.13385" lon="5.86726">
        <ele>1117</ele>
        <time>2021-06-01T12:18:04.316Z</time>
      </trkpt>
      <trkpt lat="44.13384" lon="5.86724">
        <ele>1117</ele>
        <time>2021-06-01T12:18:05.316Z</time>
      </trkpt>
      <trkpt lat="44.13384" lon="5.86723">
        <ele>1117</ele>
        <time>2021-06-01T12:18:06.316Z</time>
      </trkpt>
      <trkpt lat="44.13383" lon="5.86721">
        <ele>1117</ele>
        <time>2021-06-01T12:18:07.316Z</time>
      </trkpt>
      <trkpt lat="44.13383" lon="5.8672">
        <ele>1117</ele>
        <time>2021-06-01T12:18:08.316Z</time>
      </trkpt>
      <trkpt lat="44.13382" lon="5.86719">
        <ele>1117</ele>
        <time>2021-06-01T12:18:09.316Z</time>
      </trkpt>
      <trkpt lat="44.13381" lon="5.86717">
        <ele>1117</ele>
        <time>2021-06-01T12:18:10.316Z</time>
      </trkpt>
      <trkpt lat="44.13381" lon="5.86716">
        <ele>1117</ele>
        <time>2021-06-01T12:18:11.316Z</time>
      </trkpt>
      <trkpt lat="44.1338" lon="5.86715">
        <ele>1117</ele>
        <time>2021-06-01T12:18:12.316Z</time>
      </trkpt>
      <trkpt lat="44.13379" lon="5.86713">
        <ele>1117</ele>
        <time>2021-06-01T12:18:13.316Z</time>
      </trkpt>
      <trkpt lat="44.13378" lon="5.86712">
        <ele>1116</ele>
        <time>2021-06-01T12:18:14.316Z</time>
      </trkpt>
      <trkpt lat="44.13378" lon="5.86711">
        <ele>1116</ele>
        <time>2021-06-01T12:18:15.316Z</time>
      </trkpt>
      <trkpt lat="44.13377" lon="5.8671">
        <ele>1116</ele>
        <time>2021-06-01T12:18:16.316Z</time>
      </trkpt>
      <trkpt lat="44.13376" lon="5.86708">
        <ele>1116</ele>
        <time>2021-06-01T12:18:17.316Z</time>
      </trkpt>
      <trkpt lat="44.13375" lon="5.86707">
        <ele>1116</ele>
        <time>2021-06-01T12:18:18.316Z</time>
      </trkpt>
      <trkpt lat="44.13375" lon="5.86705">
        <ele>1116</ele>
        <time>2021-06-01T12:18:19.316Z</time>
      </trkpt>
      <trkpt lat="44.13374" lon="5.86704">
        <ele>1116</ele>
        <time>2021-06-01T12:18:20.316Z</time>
      </trkpt>
      <trkpt lat="44.13373" lon="5.86702">
        <ele>1115</ele>
        <time>2021-06-01T12:18:21.316Z</time>
      </trkpt>
      <trkpt lat="44.13373" lon="5.86701">
        <ele>1115</ele>
        <time>2021-06-01T12:18:22.316Z</time>
      </trkpt>
      <trkpt lat="44.13372" lon="5.867">
        <ele>1115</ele>
        <time>2021-06-01T12:18:23.316Z</time>
      </trkpt>
      <trkpt lat="44.13372" lon="5.86698">
        <ele>1115</ele>
        <time>2021-06-01T12:18:24.316Z</time>
      </trkpt>
      <trkpt lat="44.13371" lon="5.86696">
        <ele>1115</ele>
        <time>2021-06-01T12:18:25.316Z</time>
      </trkpt>
      <trkpt lat="44.13371" lon="5.86695">
        <ele>1115</ele>
        <time>2021-06-01T12:18:26.316Z</time>
      </trkpt>
      <trkpt lat="44.1337" lon="5.86693">
        <ele>1115</ele>
        <time>2021-06-01T12:18:27.316Z</time>
      </trkpt>
      <trkpt lat="44.1337" lon="5.86691">
        <ele>1115</ele>
        <time>2021-06-01T12:18:28.316Z</time>
      </trkpt>
      <trkpt lat="44.13369" lon="5.8669">
        <ele>1115</ele>
        <time>2021-06-01T12:18:29.316Z</time>
      </trkpt>
      <trkpt lat="44.13368" lon="5.86689">
        <ele>1115</ele>
        <time>2021-06-01T12:18:30.316Z</time>
      </trkpt>
      <trkpt lat="44.13368" lon="5.86687">
        <ele>1115</ele>
        <time>2021-06-01T12:18:31.316Z</time>
      </trkpt>
      <trkpt lat="44.13367" lon="5.86686">
        <ele>1115</ele>
        <time>2021-06-01T12:18:32.316Z</time>
      </trkpt>
      <trkpt lat="44.13367" lon="5.86684">
        <ele>1115</ele>
        <time>2021-06-01T12:18:33.316Z</time>
      </trkpt>
      <trkpt lat="44.13366" lon="5.86683">
        <ele>1115</ele>
        <time>2021-06-01T12:18:34.316Z</time>
      </trkpt>
      <trkpt lat="44.13366" lon="5.86681">
        <ele>1115</ele>
        <time>2021-06-01T12:18:35.316Z</time>
      </trkpt>
      <trkpt lat="44.13365" lon="5.86679">
        <ele>1115</ele>
        <time>2021-06-01T12:18:36.316Z</time>
      </trkpt>
      <trkpt lat="44.13365" lon="5.86677">
        <ele>1114</ele>
        <time>2021-06-01T12:18:37.316Z</time>
      </trkpt>
      <trkpt lat="44.13364" lon="5.86676">
        <ele>1114</ele>
        <time>2021-06-01T12:18:38.316Z</time>
      </trkpt>
      <trkpt lat="44.13364" lon="5.86675">
        <ele>1114</ele>
        <time>2021-06-01T12:18:39.316Z</time>
      </trkpt>
      <trkpt lat="44.13363" lon="5.86673">
        <ele>1114</ele>
        <time>2021-06-01T12:18:40.316Z</time>
      </trkpt>
      <trkpt lat="44.13363" lon="5.86672">
        <ele>1114</ele>
        <time>2021-06-01T12:18:41.316Z</time>
      </trkpt>
      <trkpt lat="44.13362" lon="5.86671">
        <ele>1114</ele>
        <time>2021-06-01T12:18:42.316Z</time>
      </trkpt>
      <trkpt lat="44.13361" lon="5.8667">
        <ele>1114</ele>
        <time>2021-06-01T12:18:43.316Z</time>
      </trkpt>
      <trkpt lat="44.1336" lon="5.86669">
        <ele>1114</ele>
        <time>2021-06-01T12:18:44.316Z</time>
      </trkpt>
      <trkpt lat="44.13359" lon="5.86669">
        <ele>1114</ele>
        <time>2021-06-01T12:18:45.316Z</time>
      </trkpt>
      <trkpt lat="44.13358" lon="5.86669">
        <ele>1114</ele>
        <time>2021-06-01T12:18:46.316Z</time>
      </trkpt>
      <trkpt lat="44.13357" lon="5.86669">
        <ele>1114</ele>
        <time>2021-06-01T12:18:47.316Z</time>
      </trkpt>
      <trkpt lat="44.13356" lon="5.86669">
        <ele>1114</ele>
        <time>2021-06-01T12:18:48.316Z</time>
      </trkpt>
      <trkpt lat="44.13354" lon="5.86669">
        <ele>1114</ele>
        <time>2021-06-01T12:18:49.316Z</time>
      </trkpt>
      <trkpt lat="44.13353" lon="5.8667">
        <ele>1114</ele>
        <time>2021-06-01T12:18:50.316Z</time>
      </trkpt>
      <trkpt lat="44.13352" lon="5.8667">
        <ele>1114</ele>
        <time>2021-06-01T12:18:51.316Z</time>
      </trkpt>
      <trkpt lat="44.13351" lon="5.8667">
        <ele>1114</ele>
        <time>2021-06-01T12:18:52.316Z</time>
      </trkpt>
      <trkpt lat="44.1335" lon="5.86671">
        <ele>1114</ele>
        <time>2021-06-01T12:18:53.316Z</time>
      </trkpt>
      <trkpt lat="44.13349" lon="5.86671">
        <ele>1114</ele>
        <time>2021-06-01T12:18:54.316Z</time>
      </trkpt>
      <trkpt lat="44.13348" lon="5.86672">
        <ele>1113</ele>
        <time>2021-06-01T12:18:55.316Z</time>
      </trkpt>
      <trkpt lat="44.13346" lon="5.86672">
        <ele>1113</ele>
        <time>2021-06-01T12:18:56.316Z</time>
      </trkpt>
      <trkpt lat="44.13345" lon="5.86672">
        <ele>1113</ele>
        <time>2021-06-01T12:18:57.316Z</time>
      </trkpt>
      <trkpt lat="44.13344" lon="5.86673">
        <ele>1113</ele>
        <time>2021-06-01T12:18:58.316Z</time>
      </trkpt>
      <trkpt lat="44.13343" lon="5.86673">
        <ele>1113</ele>
        <time>2021-06-01T12:18:59.316Z</time>
      </trkpt>
      <trkpt lat="44.13342" lon="5.86674">
        <ele>1113</ele>
        <time>2021-06-01T12:19:00.316Z</time>
      </trkpt>
      <trkpt lat="44.13341" lon="5.86674">
        <ele>1113</ele>
        <time>2021-06-01T12:19:01.316Z</time>
      </trkpt>
      <trkpt lat="44.1334" lon="5.86674">
        <ele>1113</ele>
        <time>2021-06-01T12:19:02.316Z</time>
      </trkpt>
      <trkpt lat="44.13339" lon="5.86674">
        <ele>1113</ele>
        <time>2021-06-01T12:19:03.316Z</time>
      </trkpt>
      <trkpt lat="44.13338" lon="5.86675">
        <ele>1113</ele>
        <time>2021-06-01T12:19:04.316Z</time>
      </trkpt>
      <trkpt lat="44.13337" lon="5.86675">
        <ele>1112</ele>
        <time>2021-06-01T12:19:05.316Z</time>
      </trkpt>
      <trkpt lat="44.13336" lon="5.86675">
        <ele>1112</ele>
        <time>2021-06-01T12:19:06.316Z</time>
      </trkpt>
      <trkpt lat="44.13335" lon="5.86675">
        <ele>1112</ele>
        <time>2021-06-01T12:19:07.316Z</time>
      </trkpt>
      <trkpt lat="44.13334" lon="5.86676">
        <ele>1112</ele>
        <time>2021-06-01T12:19:08.316Z</time>
      </trkpt>
      <trkpt lat="44.13333" lon="5.86676">
        <ele>1112</ele>
        <time>2021-06-01T12:19:09.316Z</time>
      </trkpt>
      <trkpt lat="44.13331" lon="5.86677">
        <ele>1112</ele>
        <time>2021-06-01T12:19:10.316Z</time>
      </trkpt>
      <trkpt lat="44.1333" lon="5.86677">
        <ele>1112</ele>
        <time>2021-06-01T12:19:11.316Z</time>
      </trkpt>
      <trkpt lat="44.13329" lon="5.86677">
        <ele>1111</ele>
        <time>2021-06-01T12:19:12.316Z</time>
      </trkpt>
      <trkpt lat="44.13328" lon="5.86677">
        <ele>1111</ele>
        <time>2021-06-01T12:19:13.316Z</time>
      </trkpt>
      <trkpt lat="44.13327" lon="5.86678">
        <ele>1111</ele>
        <time>2021-06-01T12:19:14.316Z</time>
      </trkpt>
      <trkpt lat="44.13327" lon="5.86678">
        <ele>1111</ele>
        <time>2021-06-01T12:19:15.316Z</time>
      </trkpt>
      <trkpt lat="44.13326" lon="5.86679">
        <ele>1111</ele>
        <time>2021-06-01T12:19:16.316Z</time>
      </trkpt>
      <trkpt lat="44.13325" lon="5.86679">
        <ele>1111</ele>
        <time>2021-06-01T12:19:17.316Z</time>
      </trkpt>
      <trkpt lat="44.13324" lon="5.86679">
        <ele>1111</ele>
        <time>2021-06-01T12:19:18.316Z</time>
      </trkpt>
      <trkpt lat="44.13323" lon="5.86679">
        <ele>1111</ele>
        <time>2021-06-01T12:19:19.316Z</time>
      </trkpt>
      <trkpt lat="44.13322" lon="5.86679">
        <ele>1111</ele>
        <time>2021-06-01T12:19:20.316Z</time>
      </trkpt>
      <trkpt lat="44.13321" lon="5.86679">
        <ele>1110</ele>
        <time>2021-06-01T12:19:21.316Z</time>
      </trkpt>
      <trkpt lat="44.1332" lon="5.86679">
        <ele>1110</ele>
        <time>2021-06-01T12:19:22.316Z</time>
      </trkpt>
      <trkpt lat="44.13319" lon="5.86679">
        <ele>1110</ele>
        <time>2021-06-01T12:19:23.316Z</time>
      </trkpt>
      <trkpt lat="44.13318" lon="5.86679">
        <ele>1110</ele>
        <time>2021-06-01T12:19:24.316Z</time>
      </trkpt>
      <trkpt lat="44.13317" lon="5.86679">
        <ele>1110</ele>
        <time>2021-06-01T12:19:25.316Z</time>
      </trkpt>
      <trkpt lat="44.13316" lon="5.86679">
        <ele>1110</ele>
        <time>2021-06-01T12:19:26.316Z</time>
      </trkpt>
      <trkpt lat="44.13315" lon="5.86678">
        <ele>1110</ele>
        <time>2021-06-01T12:19:27.316Z</time>
      </trkpt>
      <trkpt lat="44.13314" lon="5.86678">
        <ele>1109</ele>
        <time>2021-06-01T12:19:28.316Z</time>
      </trkpt>
      <trkpt lat="44.13313" lon="5.86678">
        <ele>1109</ele>
        <time>2021-06-01T12:19:29.316Z</time>
      </trkpt>
      <trkpt lat="44.13312" lon="5.86678">
        <ele>1109</ele>
        <time>2021-06-01T12:19:30.316Z</time>
      </trkpt>
      <trkpt lat="44.13311" lon="5.86677">
        <ele>1109</ele>
        <time>2021-06-01T12:19:31.316Z</time>
      </trkpt>
      <trkpt lat="44.1331" lon="5.86677">
        <ele>1109</ele>
        <time>2021-06-01T12:19:32.316Z</time>
      </trkpt>
      <trkpt lat="44.13309" lon="5.86676">
        <ele>1109</ele>
        <time>2021-06-01T12:19:33.316Z</time>
      </trkpt>
      <trkpt lat="44.13308" lon="5.86676">
        <ele>1109</ele>
        <time>2021-06-01T12:19:34.316Z</time>
      </trkpt>
      <trkpt lat="44.13307" lon="5.86675">
        <ele>1109</ele>
        <time>2021-06-01T12:19:35.316Z</time>
      </trkpt>
      <trkpt lat="44.13306" lon="5.86675">
        <ele>1109</ele>
        <time>2021-06-01T12:19:36.316Z</time>
      </trkpt>
      <trkpt lat="44.13305" lon="5.86674">
        <ele>1109</ele>
        <time>2021-06-01T12:19:37.316Z</time>
      </trkpt>
      <trkpt lat="44.13304" lon="5.86674">
        <ele>1108</ele>
        <time>2021-06-01T12:19:38.316Z</time>
      </trkpt>
      <trkpt lat="44.13303" lon="5.86673">
        <ele>1108</ele>
        <time>2021-06-01T12:19:39.316Z</time>
      </trkpt>
      <trkpt lat="44.13302" lon="5.86673">
        <ele>1108</ele>
        <time>2021-06-01T12:19:40.316Z</time>
      </trkpt>
      <trkpt lat="44.133" lon="5.86673">
        <ele>1108</ele>
        <time>2021-06-01T12:19:41.316Z</time>
      </trkpt>
      <trkpt lat="44.13299" lon="5.86672">
        <ele>1108</ele>
        <time>2021-06-01T12:19:42.316Z</time>
      </trkpt>
      <trkpt lat="44.13298" lon="5.86672">
        <ele>1108</ele>
        <time>2021-06-01T12:19:43.316Z</time>
      </trkpt>
      <trkpt lat="44.13297" lon="5.86671">
        <ele>1107</ele>
        <time>2021-06-01T12:19:44.316Z</time>
      </trkpt>
      <trkpt lat="44.13296" lon="5.8667">
        <ele>1107</ele>
        <time>2021-06-01T12:19:45.316Z</time>
      </trkpt>
      <trkpt lat="44.13295" lon="5.8667">
        <ele>1107</ele>
        <time>2021-06-01T12:19:46.316Z</time>
      </trkpt>
      <trkpt lat="44.13294" lon="5.86669">
        <ele>1107</ele>
        <time>2021-06-01T12:19:47.316Z</time>
      </trkpt>
      <trkpt lat="44.13293" lon="5.86668">
        <ele>1107</ele>
        <time>2021-06-01T12:19:48.316Z</time>
      </trkpt>
      <trkpt lat="44.13292" lon="5.86668">
        <ele>1107</ele>
        <time>2021-06-01T12:19:49.316Z</time>
      </trkpt>
      <trkpt lat="44.13291" lon="5.86667">
        <ele>1107</ele>
        <time>2021-06-01T12:19:50.316Z</time>
      </trkpt>
      <trkpt lat="44.1329" lon="5.86665">
        <ele>1107</ele>
        <time>2021-06-01T12:19:51.316Z</time>
      </trkpt>
      <trkpt lat="44.13289" lon="5.86665">
        <ele>1106</ele>
        <time>2021-06-01T12:19:52.316Z</time>
      </trkpt>
      <trkpt lat="44.13289" lon="5.86664">
        <ele>1106</ele>
        <time>2021-06-01T12:19:53.316Z</time>
      </trkpt>
      <trkpt lat="44.13288" lon="5.86663">
        <ele>1106</ele>
        <time>2021-06-01T12:19:54.316Z</time>
      </trkpt>
      <trkpt lat="44.13287" lon="5.86661">
        <ele>1106</ele>
        <time>2021-06-01T12:19:55.316Z</time>
      </trkpt>
      <trkpt lat="44.13286" lon="5.8666">
        <ele>1106</ele>
        <time>2021-06-01T12:19:56.316Z</time>
      </trkpt>
      <trkpt lat="44.13285" lon="5.86659">
        <ele>1105</ele>
        <time>2021-06-01T12:19:57.316Z</time>
      </trkpt>
      <trkpt lat="44.13284" lon="5.86658">
        <ele>1105</ele>
        <time>2021-06-01T12:19:58.316Z</time>
      </trkpt>
      <trkpt lat="44.13283" lon="5.86657">
        <ele>1105</ele>
        <time>2021-06-01T12:19:59.316Z</time>
      </trkpt>
      <trkpt lat="44.13283" lon="5.86656">
        <ele>1105</ele>
        <time>2021-06-01T12:20:00.316Z</time>
      </trkpt>
      <trkpt lat="44.13282" lon="5.86654">
        <ele>1105</ele>
        <time>2021-06-01T12:20:01.316Z</time>
      </trkpt>
      <trkpt lat="44.13281" lon="5.86653">
        <ele>1105</ele>
        <time>2021-06-01T12:20:02.316Z</time>
      </trkpt>
      <trkpt lat="44.13281" lon="5.86651">
        <ele>1105</ele>
        <time>2021-06-01T12:20:03.316Z</time>
      </trkpt>
      <trkpt lat="44.13281" lon="5.8665">
        <ele>1105</ele>
        <time>2021-06-01T12:20:04.316Z</time>
      </trkpt>
      <trkpt lat="44.13282" lon="5.86649">
        <ele>1105</ele>
        <time>2021-06-01T12:20:05.316Z</time>
      </trkpt>
      <trkpt lat="44.13282" lon="5.86649">
        <ele>1104</ele>
        <time>2021-06-01T12:20:06.316Z</time>
      </trkpt>
      <trkpt lat="44.13282" lon="5.86649">
        <ele>1104</ele>
        <time>2021-06-01T12:20:07.316Z</time>
      </trkpt>
      <trkpt lat="44.13282" lon="5.86649">
        <ele>1104</ele>
        <time>2021-06-01T12:20:08.316Z</time>
      </trkpt>
      <trkpt lat="44.13282" lon="5.86649">
        <ele>1104</ele>
        <time>2021-06-01T12:20:09.316Z</time>
      </trkpt>
      <trkpt lat="44.13282" lon="5.86649">
        <ele>1104</ele>
        <time>2021-06-01T12:20:10.316Z</time>
      </trkpt>
      <trkpt lat="44.13282" lon="5.86648">
        <ele>1104</ele>
        <time>2021-06-01T12:20:11.316Z</time>
      </trkpt>
      <trkpt lat="44.13282" lon="5.86648">
        <ele>1104</ele>
        <time>2021-06-01T12:20:12.316Z</time>
      </trkpt>
      <trkpt lat="44.13282" lon="5.86648">
        <ele>1104</ele>
        <time>2021-06-01T12:20:13.316Z</time>
      </trkpt>
      <trkpt lat="44.13282" lon="5.86648">
        <ele>1104</ele>
        <time>2021-06-01T12:20:14.316Z</time>
      </trkpt>
      <trkpt lat="44.13282" lon="5.86648">
        <ele>1104</ele>
        <time>2021-06-01T12:20:15.316Z</time>
      </trkpt>
      <trkpt lat="44.13282" lon="5.86648">
        <ele>1104</ele>
        <time>2021-06-01T12:20:16.316Z</time>
      </trkpt>
      <trkpt lat="44.13282" lon="5.86648">
        <ele>1104</ele>
        <time>2021-06-01T12:20:17.316Z</time>
      </trkpt>
      <trkpt lat="44.13282" lon="5.86648">
        <ele>1104</ele>
        <time>2021-06-01T12:20:18.316Z</time>
      </trkpt>
      <trkpt lat="44.13282" lon="5.86648">
        <ele>1104</ele>
        <time>2021-06-01T12:20:19.316Z</time>
      </trkpt>
      <trkpt lat="44.13282" lon="5.86648">
        <ele>1104</ele>
        <time>2021-06-01T12:20:20.316Z</time>
      </trkpt>
      <trkpt lat="44.13282" lon="5.86648">
        <ele>1104</ele>
        <time>2021-06-01T12:20:21.316Z</time>
      </trkpt>
      <trkpt lat="44.13282" lon="5.86648">
        <ele>1104</ele>
        <time>2021-06-01T12:20:22.316Z</time>
      </trkpt>
      <trkpt lat="44.13282" lon="5.86648">
        <ele>1104</ele>
        <time>2021-06-01T12:20:23.316Z</time>
      </trkpt>
      <trkpt lat="44.13282" lon="5.86648">
        <ele>1104</ele>
        <time>2021-06-01T12:20:24.316Z</time>
      </trkpt>
      <trkpt lat="44.13282" lon="5.86648">
        <ele>1104</ele>
        <time>2021-06-01T12:20:25.316Z</time>
      </trkpt>
      <trkpt lat="44.13282" lon="5.86648">
        <ele>1104</ele>
        <time>2021-06-01T12:20:26.316Z</time>
      </trkpt>
      <trkpt lat="44.13282" lon="5.86648">
        <ele>1104</ele>
        <time>2021-06-01T12:20:27.316Z</time>
      </trkpt>
      <trkpt lat="44.13282" lon="5.86648">
        <ele>1104</ele>
        <time>2021-06-01T12:20:28.316Z</time>
      </trkpt>
      <trkpt lat="44.13282" lon="5.86648">
        <ele>1104</ele>
        <time>2021-06-01T12:20:29.316Z</time>
      </trkpt>
      <trkpt lat="44.13282" lon="5.86648">
        <ele>1104</ele>
        <time>2021-06-01T12:20:30.316Z</time>
      </trkpt>
      <trkpt lat="44.13282" lon="5.86649">
        <ele>1104</ele>
        <time>2021-06-01T12:20:31.316Z</time>
      </trkpt>
      <trkpt lat="44.13282" lon="5.86649">
        <ele>1104</ele>
        <time>2021-06-01T12:20:32.316Z</time>
      </trkpt>
      <trkpt lat="44.13282" lon="5.86649">
        <ele>1104</ele>
        <time>2021-06-01T12:20:33.316Z</time>
      </trkpt>
      <trkpt lat="44.13282" lon="5.86649">
        <ele>1104</ele>
        <time>2021-06-01T12:20:34.316Z</time>
      </trkpt>
      <trkpt lat="44.13282" lon="5.86649">
        <ele>1104</ele>
        <time>2021-06-01T12:20:35.316Z</time>
      </trkpt>
      <trkpt lat="44.13282" lon="5.86649">
        <ele>1104</ele>
        <time>2021-06-01T12:20:36.316Z</time>
      </trkpt>
      <trkpt lat="44.13282" lon="5.86649">
        <ele>1104</ele>
        <time>2021-06-01T12:20:37.316Z</time>
      </trkpt>
      <trkpt lat="44.13282" lon="5.86649">
        <ele>1104</ele>
        <time>2021-06-01T12:20:38.316Z</time>
      </trkpt>
      <trkpt lat="44.13282" lon="5.86649">
        <ele>1104</ele>
        <time>2021-06-01T12:20:39.316Z</time>
      </trkpt>
      <trkpt lat="44.13282" lon="5.86649">
        <ele>1104</ele>
        <time>2021-06-01T12:20:40.316Z</time>
      </trkpt>
      <trkpt lat="44.13282" lon="5.86649">
        <ele>1104</ele>
        <time>2021-06-01T12:20:41.316Z</time>
      </trkpt>
      <trkpt lat="44.13282" lon="5.86649">
        <ele>1104</ele>
        <time>2021-06-01T12:20:42.316Z</time>
      </trkpt>
      <trkpt lat="44.13282" lon="5.86649">
        <ele>1104</ele>
        <time>2021-06-01T12:20:43.316Z</time>
      </trkpt>
      <trkpt lat="44.13282" lon="5.86649">
        <ele>1104</ele>
        <time>2021-06-01T12:20:44.316Z</time>
      </trkpt>
      <trkpt lat="44.13282" lon="5.86649">
        <ele>1104</ele>
        <time>2021-06-01T12:20:45.316Z</time>
      </trkpt>
      <trkpt lat="44.13282" lon="5.86649">
        <ele>1104</ele>
        <time>2021-06-01T12:20:46.316Z</time>
      </trkpt>
      <trkpt lat="44.13282" lon="5.86649">
        <ele>1104</ele>
        <time>2021-06-01T12:20:47.316Z</time>
      </trkpt>
      <trkpt lat="44.13282" lon="5.86649">
        <ele>1104</ele>
        <time>2021-06-01T12:20:48.316Z</time>
      </trkpt>
      <trkpt lat="44.13282" lon="5.86649">
        <ele>1104</ele>
        <time>2021-06-01T12:20:49.316Z</time>
      </trkpt>
      <trkpt lat="44.13282" lon="5.8665">
        <ele>1104</ele>
        <time>2021-06-01T12:20:50.316Z</time>
      </trkpt>
      <trkpt lat="44.13282" lon="5.8665">
        <ele>1104</ele>
        <time>2021-06-01T12:20:51.316Z</time>
      </trkpt>
      <trkpt lat="44.13282" lon="5.8665">
        <ele>1104</ele>
        <time>2021-06-01T12:20:52.316Z</time>
      </trkpt>
      <trkpt lat="44.13281" lon="5.8665">
        <ele>1104</ele>
        <time>2021-06-01T12:20:53.316Z</time>
      </trkpt>
      <trkpt lat="44.13281" lon="5.8665">
        <ele>1104</ele>
        <time>2021-06-01T12:20:54.316Z</time>
      </trkpt>
      <trkpt lat="44.13281" lon="5.8665">
        <ele>1104</ele>
        <time>2021-06-01T12:20:55.316Z</time>
      </trkpt>
      <trkpt lat="44.13281" lon="5.86649">
        <ele>1104</ele>
        <time>2021-06-01T12:20:56.316Z</time>
      </trkpt>
      <trkpt lat="44.13281" lon="5.86649">
        <ele>1104</ele>
        <time>2021-06-01T12:20:57.316Z</time>
      </trkpt>
      <trkpt lat="44.13281" lon="5.86649">
        <ele>1104</ele>
        <time>2021-06-01T12:20:58.316Z</time>
      </trkpt>
      <trkpt lat="44.13281" lon="5.86649">
        <ele>1104</ele>
        <time>2021-06-01T12:20:59.316Z</time>
      </trkpt>
      <trkpt lat="44.13281" lon="5.86649">
        <ele>1104</ele>
        <time>2021-06-01T12:21:00.316Z</time>
      </trkpt>
      <trkpt lat="44.13281" lon="5.86649">
        <ele>1104</ele>
        <time>2021-06-01T12:21:01.316Z</time>
      </trkpt>
      <trkpt lat="44.13281" lon="5.86649">
        <ele>1104</ele>
        <time>2021-06-01T12:21:02.316Z</time>
      </trkpt>
      <trkpt lat="44.13281" lon="5.86649">
        <ele>1104</ele>
        <time>2021-06-01T12:21:03.316Z</time>
      </trkpt>
      <trkpt lat="44.13281" lon="5.86649">
        <ele>1104</ele>
        <time>2021-06-01T12:21:04.316Z</time>
      </trkpt>
      <trkpt lat="44.13281" lon="5.86649">
        <ele>1104</ele>
        <time>2021-06-01T12:21:05.316Z</time>
      </trkpt>
      <trkpt lat="44.13281" lon="5.86648">
        <ele>1104</ele>
        <time>2021-06-01T12:21:06.316Z</time>
      </trkpt>
      <trkpt lat="44.13281" lon="5.86648">
        <ele>1104</ele>
        <time>2021-06-01T12:21:07.316Z</time>
      </trkpt>
      <trkpt lat="44.13281" lon="5.86648">
        <ele>1104</ele>
        <time>2021-06-01T12:21:08.316Z</time>
      </trkpt>
      <trkpt lat="44.13281" lon="5.86648">
        <ele>1104</ele>
        <time>2021-06-01T12:21:09.316Z</time>
      </trkpt>
      <trkpt lat="44.13281" lon="5.86649">
        <ele>1104</ele>
        <time>2021-06-01T12:21:10.316Z</time>
      </trkpt>
      <trkpt lat="44.13281" lon="5.86649">
        <ele>1104</ele>
        <time>2021-06-01T12:21:11.316Z</time>
      </trkpt>
      <trkpt lat="44.13281" lon="5.86648">
        <ele>1104</ele>
        <time>2021-06-01T12:21:12.316Z</time>
      </trkpt>
      <trkpt lat="44.13281" lon="5.86649">
        <ele>1104</ele>
        <time>2021-06-01T12:21:13.316Z</time>
      </trkpt>
      <trkpt lat="44.13281" lon="5.86649">
        <ele>1104</ele>
        <time>2021-06-01T12:21:14.316Z</time>
      </trkpt>
      <trkpt lat="44.13281" lon="5.86649">
        <ele>1104</ele>
        <time>2021-06-01T12:21:15.316Z</time>
      </trkpt>
      <trkpt lat="44.13281" lon="5.86649">
        <ele>1104</ele>
        <time>2021-06-01T12:21:16.316Z</time>
      </trkpt>
      <trkpt lat="44.13281" lon="5.86649">
        <ele>1104</ele>
        <time>2021-06-01T12:21:17.316Z</time>
      </trkpt>
      <trkpt lat="44.13281" lon="5.86649">
        <ele>1104</ele>
        <time>2021-06-01T12:21:18.316Z</time>
      </trkpt>
      <trkpt lat="44.13281" lon="5.86649">
        <ele>1104</ele>
        <time>2021-06-01T12:21:19.316Z</time>
      </trkpt>
      <trkpt lat="44.13281" lon="5.86649">
        <ele>1104</ele>
        <time>2021-06-01T12:21:20.316Z</time>
      </trkpt>
      <trkpt lat="44.1328" lon="5.86648">
        <ele>1104</ele>
        <time>2021-06-01T12:21:21.316Z</time>
      </trkpt>
      <trkpt lat="44.1328" lon="5.86647">
        <ele>1104</ele>
        <time>2021-06-01T12:21:22.316Z</time>
      </trkpt>
      <trkpt lat="44.13279" lon="5.86646">
        <ele>1104</ele>
        <time>2021-06-01T12:21:23.316Z</time>
      </trkpt>
      <trkpt lat="44.13279" lon="5.86645">
        <ele>1104</ele>
        <time>2021-06-01T12:21:24.316Z</time>
      </trkpt>
      <trkpt lat="44.13278" lon="5.86644">
        <ele>1104</ele>
        <time>2021-06-01T12:21:25.316Z</time>
      </trkpt>
      <trkpt lat="44.13278" lon="5.86642">
        <ele>1104</ele>
        <time>2021-06-01T12:21:26.316Z</time>
      </trkpt>
      <trkpt lat="44.13277" lon="5.86641">
        <ele>1104</ele>
        <time>2021-06-01T12:21:27.316Z</time>
      </trkpt>
      <trkpt lat="44.13277" lon="5.86639">
        <ele>1104</ele>
        <time>2021-06-01T12:21:28.316Z</time>
      </trkpt>
      <trkpt lat="44.13276" lon="5.86638">
        <ele>1103</ele>
        <time>2021-06-01T12:21:29.316Z</time>
      </trkpt>
      <trkpt lat="44.13276" lon="5.86636">
        <ele>1103</ele>
        <time>2021-06-01T12:21:30.316Z</time>
      </trkpt>
      <trkpt lat="44.13276" lon="5.86635">
        <ele>1103</ele>
        <time>2021-06-01T12:21:31.316Z</time>
      </trkpt>
      <trkpt lat="44.13275" lon="5.86633">
        <ele>1103</ele>
        <time>2021-06-01T12:21:32.316Z</time>
      </trkpt>
      <trkpt lat="44.13275" lon="5.86632">
        <ele>1103</ele>
        <time>2021-06-01T12:21:33.316Z</time>
      </trkpt>
      <trkpt lat="44.13274" lon="5.8663">
        <ele>1103</ele>
        <time>2021-06-01T12:21:34.316Z</time>
      </trkpt>
      <trkpt lat="44.13274" lon="5.86629">
        <ele>1103</ele>
        <time>2021-06-01T12:21:35.316Z</time>
      </trkpt>
      <trkpt lat="44.13273" lon="5.86627">
        <ele>1103</ele>
        <time>2021-06-01T12:21:36.316Z</time>
      </trkpt>
      <trkpt lat="44.13273" lon="5.86626">
        <ele>1103</ele>
        <time>2021-06-01T12:21:37.316Z</time>
      </trkpt>
      <trkpt lat="44.13272" lon="5.86625">
        <ele>1103</ele>
        <time>2021-06-01T12:21:38.316Z</time>
      </trkpt>
      <trkpt lat="44.13272" lon="5.86623">
        <ele>1103</ele>
        <time>2021-06-01T12:21:39.316Z</time>
      </trkpt>
      <trkpt lat="44.13271" lon="5.86622">
        <ele>1103</ele>
        <time>2021-06-01T12:21:40.316Z</time>
      </trkpt>
      <trkpt lat="44.13271" lon="5.86622">
        <ele>1103</ele>
        <time>2021-06-01T12:21:41.316Z</time>
      </trkpt>
      <trkpt lat="44.1327" lon="5.86622">
        <ele>1103</ele>
        <time>2021-06-01T12:21:42.316Z</time>
      </trkpt>
      <trkpt lat="44.13269" lon="5.86622">
        <ele>1103</ele>
        <time>2021-06-01T12:21:43.316Z</time>
      </trkpt>
      <trkpt lat="44.13268" lon="5.86622">
        <ele>1103</ele>
        <time>2021-06-01T12:21:44.316Z</time>
      </trkpt>
      <trkpt lat="44.13268" lon="5.86622">
        <ele>1103</ele>
        <time>2021-06-01T12:21:45.316Z</time>
      </trkpt>
      <trkpt lat="44.13267" lon="5.86623">
        <ele>1103</ele>
        <time>2021-06-01T12:21:46.316Z</time>
      </trkpt>
      <trkpt lat="44.13266" lon="5.86624">
        <ele>1103</ele>
        <time>2021-06-01T12:21:47.316Z</time>
      </trkpt>
      <trkpt lat="44.13266" lon="5.86626">
        <ele>1102</ele>
        <time>2021-06-01T12:21:48.316Z</time>
      </trkpt>
      <trkpt lat="44.13266" lon="5.86627">
        <ele>1102</ele>
        <time>2021-06-01T12:21:49.316Z</time>
      </trkpt>
      <trkpt lat="44.13267" lon="5.86629">
        <ele>1102</ele>
        <time>2021-06-01T12:21:50.316Z</time>
      </trkpt>
      <trkpt lat="44.13267" lon="5.8663">
        <ele>1102</ele>
        <time>2021-06-01T12:21:51.316Z</time>
      </trkpt>
      <trkpt lat="44.13267" lon="5.86632">
        <ele>1102</ele>
        <time>2021-06-01T12:21:52.316Z</time>
      </trkpt>
      <trkpt lat="44.13268" lon="5.86633">
        <ele>1102</ele>
        <time>2021-06-01T12:21:53.316Z</time>
      </trkpt>
      <trkpt lat="44.13268" lon="5.86634">
        <ele>1101</ele>
        <time>2021-06-01T12:21:54.316Z</time>
      </trkpt>
      <trkpt lat="44.13268" lon="5.86636">
        <ele>1101</ele>
        <time>2021-06-01T12:21:55.316Z</time>
      </trkpt>
      <trkpt lat="44.13268" lon="5.86637">
        <ele>1101</ele>
        <time>2021-06-01T12:21:56.316Z</time>
      </trkpt>
      <trkpt lat="44.13269" lon="5.86639">
        <ele>1101</ele>
        <time>2021-06-01T12:21:57.316Z</time>
      </trkpt>
      <trkpt lat="44.13269" lon="5.8664">
        <ele>1101</ele>
        <time>2021-06-01T12:21:58.316Z</time>
      </trkpt>
      <trkpt lat="44.13269" lon="5.86642">
        <ele>1101</ele>
        <time>2021-06-01T12:21:59.316Z</time>
      </trkpt>
      <trkpt lat="44.13269" lon="5.86643">
        <ele>1101</ele>
        <time>2021-06-01T12:22:00.316Z</time>
      </trkpt>
      <trkpt lat="44.1327" lon="5.86645">
        <ele>1101</ele>
        <time>2021-06-01T12:22:01.316Z</time>
      </trkpt>
      <trkpt lat="44.1327" lon="5.86646">
        <ele>1101</ele>
        <time>2021-06-01T12:22:02.316Z</time>
      </trkpt>
      <trkpt lat="44.1327" lon="5.86648">
        <ele>1100</ele>
        <time>2021-06-01T12:22:03.316Z</time>
      </trkpt>
      <trkpt lat="44.1327" lon="5.86649">
        <ele>1100</ele>
        <time>2021-06-01T12:22:04.316Z</time>
      </trkpt>
      <trkpt lat="44.1327" lon="5.8665">
        <ele>1100</ele>
        <time>2021-06-01T12:22:05.316Z</time>
      </trkpt>
      <trkpt lat="44.13271" lon="5.86652">
        <ele>1100</ele>
        <time>2021-06-01T12:22:06.316Z</time>
      </trkpt>
      <trkpt lat="44.13271" lon="5.86653">
        <ele>1100</ele>
        <time>2021-06-01T12:22:07.316Z</time>
      </trkpt>
      <trkpt lat="44.13271" lon="5.86655">
        <ele>1100</ele>
        <time>2021-06-01T12:22:08.316Z</time>
      </trkpt>
      <trkpt lat="44.13271" lon="5.86656">
        <ele>1100</ele>
        <time>2021-06-01T12:22:09.316Z</time>
      </trkpt>
      <trkpt lat="44.13272" lon="5.86658">
        <ele>1100</ele>
        <time>2021-06-01T12:22:10.316Z</time>
      </trkpt>
      <trkpt lat="44.13272" lon="5.86659">
        <ele>1100</ele>
        <time>2021-06-01T12:22:11.316Z</time>
      </trkpt>
      <trkpt lat="44.13272" lon="5.86661">
        <ele>1099</ele>
        <time>2021-06-01T12:22:12.316Z</time>
      </trkpt>
      <trkpt lat="44.13272" lon="5.86662">
        <ele>1099</ele>
        <time>2021-06-01T12:22:13.316Z</time>
      </trkpt>
      <trkpt lat="44.13273" lon="5.86664">
        <ele>1099</ele>
        <time>2021-06-01T12:22:14.316Z</time>
      </trkpt>
      <trkpt lat="44.13273" lon="5.86665">
        <ele>1099</ele>
        <time>2021-06-01T12:22:15.316Z</time>
      </trkpt>
      <trkpt lat="44.13273" lon="5.86667">
        <ele>1099</ele>
        <time>2021-06-01T12:22:16.316Z</time>
      </trkpt>
      <trkpt lat="44.13273" lon="5.86669">
        <ele>1099</ele>
        <time>2021-06-01T12:22:17.316Z</time>
      </trkpt>
      <trkpt lat="44.13273" lon="5.8667">
        <ele>1099</ele>
        <time>2021-06-01T12:22:18.316Z</time>
      </trkpt>
      <trkpt lat="44.13274" lon="5.86671">
        <ele>1099</ele>
        <time>2021-06-01T12:22:19.316Z</time>
      </trkpt>
      <trkpt lat="44.13274" lon="5.86673">
        <ele>1098</ele>
        <time>2021-06-01T12:22:20.316Z</time>
      </trkpt>
      <trkpt lat="44.13274" lon="5.86674">
        <ele>1098</ele>
        <time>2021-06-01T12:22:21.316Z</time>
      </trkpt>
      <trkpt lat="44.13274" lon="5.86676">
        <ele>1098</ele>
        <time>2021-06-01T12:22:22.316Z</time>
      </trkpt>
      <trkpt lat="44.13275" lon="5.86677">
        <ele>1098</ele>
        <time>2021-06-01T12:22:23.316Z</time>
      </trkpt>
      <trkpt lat="44.13275" lon="5.86678">
        <ele>1098</ele>
        <time>2021-06-01T12:22:24.316Z</time>
      </trkpt>
      <trkpt lat="44.13275" lon="5.8668">
        <ele>1098</ele>
        <time>2021-06-01T12:22:25.316Z</time>
      </trkpt>
      <trkpt lat="44.13276" lon="5.86682">
        <ele>1098</ele>
        <time>2021-06-01T12:22:26.316Z</time>
      </trkpt>
      <trkpt lat="44.13276" lon="5.86683">
        <ele>1098</ele>
        <time>2021-06-01T12:22:27.316Z</time>
      </trkpt>
      <trkpt lat="44.13276" lon="5.86684">
        <ele>1098</ele>
        <time>2021-06-01T12:22:28.316Z</time>
      </trkpt>
      <trkpt lat="44.13276" lon="5.86686">
        <ele>1098</ele>
        <time>2021-06-01T12:22:29.316Z</time>
      </trkpt>
      <trkpt lat="44.13276" lon="5.86687">
        <ele>1097</ele>
        <time>2021-06-01T12:22:30.316Z</time>
      </trkpt>
      <trkpt lat="44.13276" lon="5.86689">
        <ele>1097</ele>
        <time>2021-06-01T12:22:31.316Z</time>
      </trkpt>
      <trkpt lat="44.13277" lon="5.8669">
        <ele>1097</ele>
        <time>2021-06-01T12:22:32.316Z</time>
      </trkpt>
      <trkpt lat="44.13277" lon="5.86692">
        <ele>1097</ele>
        <time>2021-06-01T12:22:33.316Z</time>
      </trkpt>
      <trkpt lat="44.13277" lon="5.86693">
        <ele>1097</ele>
        <time>2021-06-01T12:22:34.316Z</time>
      </trkpt>
      <trkpt lat="44.13277" lon="5.86695">
        <ele>1097</ele>
        <time>2021-06-01T12:22:35.316Z</time>
      </trkpt>
      <trkpt lat="44.13278" lon="5.86696">
        <ele>1097</ele>
        <time>2021-06-01T12:22:36.316Z</time>
      </trkpt>
      <trkpt lat="44.13278" lon="5.86697">
        <ele>1097</ele>
        <time>2021-06-01T12:22:37.316Z</time>
      </trkpt>
      <trkpt lat="44.13278" lon="5.86699">
        <ele>1097</ele>
        <time>2021-06-01T12:22:38.316Z</time>
      </trkpt>
      <trkpt lat="44.13279" lon="5.867">
        <ele>1097</ele>
        <time>2021-06-01T12:22:39.316Z</time>
      </trkpt>
      <trkpt lat="44.13279" lon="5.86702">
        <ele>1097</ele>
        <time>2021-06-01T12:22:40.316Z</time>
      </trkpt>
      <trkpt lat="44.13279" lon="5.86703">
        <ele>1097</ele>
        <time>2021-06-01T12:22:41.316Z</time>
      </trkpt>
      <trkpt lat="44.13279" lon="5.86705">
        <ele>1097</ele>
        <time>2021-06-01T12:22:42.316Z</time>
      </trkpt>
      <trkpt lat="44.1328" lon="5.86706">
        <ele>1097</ele>
        <time>2021-06-01T12:22:43.316Z</time>
      </trkpt>
      <trkpt lat="44.1328" lon="5.86708">
        <ele>1097</ele>
        <time>2021-06-01T12:22:44.316Z</time>
      </trkpt>
      <trkpt lat="44.1328" lon="5.8671">
        <ele>1097</ele>
        <time>2021-06-01T12:22:45.316Z</time>
      </trkpt>
      <trkpt lat="44.13281" lon="5.86711">
        <ele>1097</ele>
        <time>2021-06-01T12:22:46.316Z</time>
      </trkpt>
      <trkpt lat="44.13281" lon="5.86713">
        <ele>1096</ele>
        <time>2021-06-01T12:22:47.316Z</time>
      </trkpt>
      <trkpt lat="44.13282" lon="5.86714">
        <ele>1096</ele>
        <time>2021-06-01T12:22:48.316Z</time>
      </trkpt>
      <trkpt lat="44.13282" lon="5.86715">
        <ele>1096</ele>
        <time>2021-06-01T12:22:49.316Z</time>
      </trkpt>
      <trkpt lat="44.13282" lon="5.86717">
        <ele>1096</ele>
        <time>2021-06-01T12:22:50.316Z</time>
      </trkpt>
      <trkpt lat="44.13283" lon="5.86718">
        <ele>1096</ele>
        <time>2021-06-01T12:22:51.316Z</time>
      </trkpt>
      <trkpt lat="44.13283" lon="5.86719">
        <ele>1096</ele>
        <time>2021-06-01T12:22:52.316Z</time>
      </trkpt>
      <trkpt lat="44.13283" lon="5.86721">
        <ele>1096</ele>
        <time>2021-06-01T12:22:53.316Z</time>
      </trkpt>
      <trkpt lat="44.13284" lon="5.86722">
        <ele>1096</ele>
        <time>2021-06-01T12:22:54.316Z</time>
      </trkpt>
      <trkpt lat="44.13284" lon="5.86723">
        <ele>1095</ele>
        <time>2021-06-01T12:22:55.316Z</time>
      </trkpt>
      <trkpt lat="44.13285" lon="5.86725">
        <ele>1095</ele>
        <time>2021-06-01T12:22:56.316Z</time>
      </trkpt>
      <trkpt lat="44.13285" lon="5.86726">
        <ele>1095</ele>
        <time>2021-06-01T12:22:57.316Z</time>
      </trkpt>
      <trkpt lat="44.13286" lon="5.86728">
        <ele>1095</ele>
        <time>2021-06-01T12:22:58.316Z</time>
      </trkpt>
      <trkpt lat="44.13286" lon="5.86729">
        <ele>1095</ele>
        <time>2021-06-01T12:22:59.316Z</time>
      </trkpt>
      <trkpt lat="44.13286" lon="5.8673">
        <ele>1095</ele>
        <time>2021-06-01T12:23:00.316Z</time>
      </trkpt>
      <trkpt lat="44.13287" lon="5.86732">
        <ele>1095</ele>
        <time>2021-06-01T12:23:01.316Z</time>
      </trkpt>
      <trkpt lat="44.13287" lon="5.86733">
        <ele>1094</ele>
        <time>2021-06-01T12:23:02.316Z</time>
      </trkpt>
      <trkpt lat="44.13288" lon="5.86735">
        <ele>1094</ele>
        <time>2021-06-01T12:23:03.316Z</time>
      </trkpt>
      <trkpt lat="44.13288" lon="5.86736">
        <ele>1094</ele>
        <time>2021-06-01T12:23:04.316Z</time>
      </trkpt>
      <trkpt lat="44.13288" lon="5.86738">
        <ele>1094</ele>
        <time>2021-06-01T12:23:05.316Z</time>
      </trkpt>
      <trkpt lat="44.13289" lon="5.86739">
        <ele>1094</ele>
        <time>2021-06-01T12:23:06.316Z</time>
      </trkpt>
      <trkpt lat="44.13289" lon="5.8674">
        <ele>1094</ele>
        <time>2021-06-01T12:23:07.316Z</time>
      </trkpt>
      <trkpt lat="44.13289" lon="5.86742">
        <ele>1094</ele>
        <time>2021-06-01T12:23:08.316Z</time>
      </trkpt>
      <trkpt lat="44.1329" lon="5.86743">
        <ele>1094</ele>
        <time>2021-06-01T12:23:09.316Z</time>
      </trkpt>
      <trkpt lat="44.1329" lon="5.86744">
        <ele>1094</ele>
        <time>2021-06-01T12:23:10.316Z</time>
      </trkpt>
      <trkpt lat="44.13291" lon="5.86746">
        <ele>1093</ele>
        <time>2021-06-01T12:23:11.316Z</time>
      </trkpt>
      <trkpt lat="44.13291" lon="5.86747">
        <ele>1093</ele>
        <time>2021-06-01T12:23:12.316Z</time>
      </trkpt>
      <trkpt lat="44.13292" lon="5.86749">
        <ele>1093</ele>
        <time>2021-06-01T12:23:13.316Z</time>
      </trkpt>
      <trkpt lat="44.13292" lon="5.8675">
        <ele>1093</ele>
        <time>2021-06-01T12:23:14.316Z</time>
      </trkpt>
      <trkpt lat="44.13292" lon="5.86751">
        <ele>1093</ele>
        <time>2021-06-01T12:23:15.316Z</time>
      </trkpt>
      <trkpt lat="44.13293" lon="5.86753">
        <ele>1093</ele>
        <time>2021-06-01T12:23:16.316Z</time>
      </trkpt>
      <trkpt lat="44.13293" lon="5.86754">
        <ele>1093</ele>
        <time>2021-06-01T12:23:17.316Z</time>
      </trkpt>
      <trkpt lat="44.13294" lon="5.86756">
        <ele>1093</ele>
        <time>2021-06-01T12:23:18.316Z</time>
      </trkpt>
      <trkpt lat="44.13294" lon="5.86757">
        <ele>1093</ele>
        <time>2021-06-01T12:23:19.316Z</time>
      </trkpt>
      <trkpt lat="44.13295" lon="5.86758">
        <ele>1092</ele>
        <time>2021-06-01T12:23:20.316Z</time>
      </trkpt>
      <trkpt lat="44.13295" lon="5.8676">
        <ele>1092</ele>
        <time>2021-06-01T12:23:21.316Z</time>
      </trkpt>
      <trkpt lat="44.13296" lon="5.86761">
        <ele>1092</ele>
        <time>2021-06-01T12:23:22.316Z</time>
      </trkpt>
      <trkpt lat="44.13296" lon="5.86762">
        <ele>1092</ele>
        <time>2021-06-01T12:23:23.316Z</time>
      </trkpt>
      <trkpt lat="44.13297" lon="5.86764">
        <ele>1092</ele>
        <time>2021-06-01T12:23:24.316Z</time>
      </trkpt>
      <trkpt lat="44.13297" lon="5.86765">
        <ele>1092</ele>
        <time>2021-06-01T12:23:25.316Z</time>
      </trkpt>
      <trkpt lat="44.13297" lon="5.86766">
        <ele>1092</ele>
        <time>2021-06-01T12:23:26.316Z</time>
      </trkpt>
      <trkpt lat="44.13298" lon="5.86768">
        <ele>1092</ele>
        <time>2021-06-01T12:23:27.316Z</time>
      </trkpt>
      <trkpt lat="44.13298" lon="5.86769">
        <ele>1092</ele>
        <time>2021-06-01T12:23:28.316Z</time>
      </trkpt>
      <trkpt lat="44.13299" lon="5.8677">
        <ele>1092</ele>
        <time>2021-06-01T12:23:29.316Z</time>
      </trkpt>
      <trkpt lat="44.133" lon="5.86771">
        <ele>1092</ele>
        <time>2021-06-01T12:23:30.316Z</time>
      </trkpt>
      <trkpt lat="44.133" lon="5.86772">
        <ele>1091</ele>
        <time>2021-06-01T12:23:31.316Z</time>
      </trkpt>
      <trkpt lat="44.13301" lon="5.86774">
        <ele>1091</ele>
        <time>2021-06-01T12:23:32.316Z</time>
      </trkpt>
      <trkpt lat="44.13302" lon="5.86775">
        <ele>1091</ele>
        <time>2021-06-01T12:23:33.316Z</time>
      </trkpt>
      <trkpt lat="44.13302" lon="5.86776">
        <ele>1091</ele>
        <time>2021-06-01T12:23:34.316Z</time>
      </trkpt>
      <trkpt lat="44.13303" lon="5.86777">
        <ele>1091</ele>
        <time>2021-06-01T12:23:35.316Z</time>
      </trkpt>
      <trkpt lat="44.13304" lon="5.86778">
        <ele>1091</ele>
        <time>2021-06-01T12:23:36.316Z</time>
      </trkpt>
      <trkpt lat="44.13305" lon="5.86779">
        <ele>1091</ele>
        <time>2021-06-01T12:23:37.316Z</time>
      </trkpt>
      <trkpt lat="44.13305" lon="5.8678">
        <ele>1090</ele>
        <time>2021-06-01T12:23:38.316Z</time>
      </trkpt>
      <trkpt lat="44.13306" lon="5.86781">
        <ele>1090</ele>
        <time>2021-06-01T12:23:39.316Z</time>
      </trkpt>
      <trkpt lat="44.13306" lon="5.86782">
        <ele>1090</ele>
        <time>2021-06-01T12:23:40.316Z</time>
      </trkpt>
      <trkpt lat="44.13307" lon="5.86784">
        <ele>1090</ele>
        <time>2021-06-01T12:23:41.316Z</time>
      </trkpt>
      <trkpt lat="44.13307" lon="5.86785">
        <ele>1090</ele>
        <time>2021-06-01T12:23:42.316Z</time>
      </trkpt>
      <trkpt lat="44.13307" lon="5.86787">
        <ele>1090</ele>
        <time>2021-06-01T12:23:43.316Z</time>
      </trkpt>
      <trkpt lat="44.13307" lon="5.86788">
        <ele>1090</ele>
        <time>2021-06-01T12:23:44.316Z</time>
      </trkpt>
      <trkpt lat="44.13307" lon="5.8679">
        <ele>1089</ele>
        <time>2021-06-01T12:23:45.316Z</time>
      </trkpt>
      <trkpt lat="44.13307" lon="5.86791">
        <ele>1089</ele>
        <time>2021-06-01T12:23:46.316Z</time>
      </trkpt>
      <trkpt lat="44.13307" lon="5.86793">
        <ele>1089</ele>
        <time>2021-06-01T12:23:47.316Z</time>
      </trkpt>
      <trkpt lat="44.13307" lon="5.86794">
        <ele>1089</ele>
        <time>2021-06-01T12:23:48.316Z</time>
      </trkpt>
      <trkpt lat="44.13307" lon="5.86796">
        <ele>1089</ele>
        <time>2021-06-01T12:23:49.316Z</time>
      </trkpt>
      <trkpt lat="44.13306" lon="5.86797">
        <ele>1089</ele>
        <time>2021-06-01T12:23:50.316Z</time>
      </trkpt>
      <trkpt lat="44.13306" lon="5.86798">
        <ele>1089</ele>
        <time>2021-06-01T12:23:51.316Z</time>
      </trkpt>
      <trkpt lat="44.13306" lon="5.868">
        <ele>1089</ele>
        <time>2021-06-01T12:23:52.316Z</time>
      </trkpt>
      <trkpt lat="44.13306" lon="5.86801">
        <ele>1088</ele>
        <time>2021-06-01T12:23:53.316Z</time>
      </trkpt>
      <trkpt lat="44.13306" lon="5.86802">
        <ele>1088</ele>
        <time>2021-06-01T12:23:54.316Z</time>
      </trkpt>
      <trkpt lat="44.13306" lon="5.86804">
        <ele>1088</ele>
        <time>2021-06-01T12:23:55.316Z</time>
      </trkpt>
      <trkpt lat="44.13306" lon="5.86805">
        <ele>1088</ele>
        <time>2021-06-01T12:23:56.316Z</time>
      </trkpt>
      <trkpt lat="44.13305" lon="5.86807">
        <ele>1088</ele>
        <time>2021-06-01T12:23:57.316Z</time>
      </trkpt>
      <trkpt lat="44.13305" lon="5.86808">
        <ele>1088</ele>
        <time>2021-06-01T12:23:58.316Z</time>
      </trkpt>
      <trkpt lat="44.13305" lon="5.8681">
        <ele>1088</ele>
        <time>2021-06-01T12:23:59.316Z</time>
      </trkpt>
      <trkpt lat="44.13305" lon="5.86811">
        <ele>1088</ele>
        <time>2021-06-01T12:24:00.316Z</time>
      </trkpt>
      <trkpt lat="44.13305" lon="5.86813">
        <ele>1088</ele>
        <time>2021-06-01T12:24:01.316Z</time>
      </trkpt>
      <trkpt lat="44.13305" lon="5.86814">
        <ele>1088</ele>
        <time>2021-06-01T12:24:02.316Z</time>
      </trkpt>
      <trkpt lat="44.13305" lon="5.86816">
        <ele>1087</ele>
        <time>2021-06-01T12:24:03.316Z</time>
      </trkpt>
      <trkpt lat="44.13305" lon="5.86817">
        <ele>1087</ele>
        <time>2021-06-01T12:24:04.316Z</time>
      </trkpt>
      <trkpt lat="44.13305" lon="5.86819">
        <ele>1087</ele>
        <time>2021-06-01T12:24:05.316Z</time>
      </trkpt>
      <trkpt lat="44.13305" lon="5.8682">
        <ele>1087</ele>
        <time>2021-06-01T12:24:06.316Z</time>
      </trkpt>
      <trkpt lat="44.13305" lon="5.86822">
        <ele>1087</ele>
        <time>2021-06-01T12:24:07.316Z</time>
      </trkpt>
      <trkpt lat="44.13305" lon="5.86823">
        <ele>1087</ele>
        <time>2021-06-01T12:24:08.316Z</time>
      </trkpt>
      <trkpt lat="44.13305" lon="5.86824">
        <ele>1087</ele>
        <time>2021-06-01T12:24:09.316Z</time>
      </trkpt>
      <trkpt lat="44.13305" lon="5.86826">
        <ele>1086</ele>
        <time>2021-06-01T12:24:10.316Z</time>
      </trkpt>
      <trkpt lat="44.13305" lon="5.86827">
        <ele>1086</ele>
        <time>2021-06-01T12:24:11.316Z</time>
      </trkpt>
      <trkpt lat="44.13305" lon="5.86829">
        <ele>1086</ele>
        <time>2021-06-01T12:24:12.316Z</time>
      </trkpt>
      <trkpt lat="44.13305" lon="5.8683">
        <ele>1086</ele>
        <time>2021-06-01T12:24:13.316Z</time>
      </trkpt>
      <trkpt lat="44.13306" lon="5.86832">
        <ele>1086</ele>
        <time>2021-06-01T12:24:14.316Z</time>
      </trkpt>
      <trkpt lat="44.13306" lon="5.86833">
        <ele>1086</ele>
        <time>2021-06-01T12:24:15.316Z</time>
      </trkpt>
      <trkpt lat="44.13306" lon="5.86835">
        <ele>1086</ele>
        <time>2021-06-01T12:24:16.316Z</time>
      </trkpt>
      <trkpt lat="44.13306" lon="5.86836">
        <ele>1086</ele>
        <time>2021-06-01T12:24:17.316Z</time>
      </trkpt>
      <trkpt lat="44.13307" lon="5.86838">
        <ele>1085</ele>
        <time>2021-06-01T12:24:18.316Z</time>
      </trkpt>
      <trkpt lat="44.13307" lon="5.86839">
        <ele>1085</ele>
        <time>2021-06-01T12:24:19.316Z</time>
      </trkpt>
      <trkpt lat="44.13307" lon="5.86841">
        <ele>1085</ele>
        <time>2021-06-01T12:24:20.316Z</time>
      </trkpt>
      <trkpt lat="44.13307" lon="5.86842">
        <ele>1085</ele>
        <time>2021-06-01T12:24:21.316Z</time>
      </trkpt>
      <trkpt lat="44.13307" lon="5.86844">
        <ele>1085</ele>
        <time>2021-06-01T12:24:22.316Z</time>
      </trkpt>
      <trkpt lat="44.13307" lon="5.86846">
        <ele>1085</ele>
        <time>2021-06-01T12:24:23.316Z</time>
      </trkpt>
      <trkpt lat="44.13307" lon="5.86847">
        <ele>1085</ele>
        <time>2021-06-01T12:24:24.316Z</time>
      </trkpt>
      <trkpt lat="44.13307" lon="5.86849">
        <ele>1085</ele>
        <time>2021-06-01T12:24:25.316Z</time>
      </trkpt>
      <trkpt lat="44.13307" lon="5.8685">
        <ele>1085</ele>
        <time>2021-06-01T12:24:26.316Z</time>
      </trkpt>
      <trkpt lat="44.13306" lon="5.86851">
        <ele>1084</ele>
        <time>2021-06-01T12:24:27.316Z</time>
      </trkpt>
      <trkpt lat="44.13306" lon="5.86853">
        <ele>1084</ele>
        <time>2021-06-01T12:24:28.316Z</time>
      </trkpt>
      <trkpt lat="44.13306" lon="5.86854">
        <ele>1084</ele>
        <time>2021-06-01T12:24:29.316Z</time>
      </trkpt>
      <trkpt lat="44.13306" lon="5.86856">
        <ele>1084</ele>
        <time>2021-06-01T12:24:30.316Z</time>
      </trkpt>
      <trkpt lat="44.13306" lon="5.86857">
        <ele>1084</ele>
        <time>2021-06-01T12:24:31.316Z</time>
      </trkpt>
      <trkpt lat="44.13306" lon="5.86859">
        <ele>1084</ele>
        <time>2021-06-01T12:24:32.316Z</time>
      </trkpt>
      <trkpt lat="44.13306" lon="5.8686">
        <ele>1084</ele>
        <time>2021-06-01T12:24:33.316Z</time>
      </trkpt>
      <trkpt lat="44.13306" lon="5.86862">
        <ele>1084</ele>
        <time>2021-06-01T12:24:34.316Z</time>
      </trkpt>
      <trkpt lat="44.13307" lon="5.86863">
        <ele>1083</ele>
        <time>2021-06-01T12:24:35.316Z</time>
      </trkpt>
      <trkpt lat="44.13307" lon="5.86865">
        <ele>1083</ele>
        <time>2021-06-01T12:24:36.316Z</time>
      </trkpt>
      <trkpt lat="44.13307" lon="5.86866">
        <ele>1083</ele>
        <time>2021-06-01T12:24:37.316Z</time>
      </trkpt>
      <trkpt lat="44.13307" lon="5.86867">
        <ele>1083</ele>
        <time>2021-06-01T12:24:38.316Z</time>
      </trkpt>
      <trkpt lat="44.13307" lon="5.86869">
        <ele>1083</ele>
        <time>2021-06-01T12:24:39.316Z</time>
      </trkpt>
      <trkpt lat="44.13307" lon="5.8687">
        <ele>1083</ele>
        <time>2021-06-01T12:24:40.316Z</time>
      </trkpt>
      <trkpt lat="44.13307" lon="5.86872">
        <ele>1083</ele>
        <time>2021-06-01T12:24:41.316Z</time>
      </trkpt>
      <trkpt lat="44.13307" lon="5.86873">
        <ele>1082</ele>
        <time>2021-06-01T12:24:42.316Z</time>
      </trkpt>
      <trkpt lat="44.13307" lon="5.86874">
        <ele>1082</ele>
        <time>2021-06-01T12:24:43.316Z</time>
      </trkpt>
      <trkpt lat="44.13307" lon="5.86876">
        <ele>1082</ele>
        <time>2021-06-01T12:24:44.316Z</time>
      </trkpt>
      <trkpt lat="44.13307" lon="5.86877">
        <ele>1082</ele>
        <time>2021-06-01T12:24:45.316Z</time>
      </trkpt>
      <trkpt lat="44.13307" lon="5.86879">
        <ele>1082</ele>
        <time>2021-06-01T12:24:46.316Z</time>
      </trkpt>
      <trkpt lat="44.13307" lon="5.86881">
        <ele>1082</ele>
        <time>2021-06-01T12:24:47.316Z</time>
      </trkpt>
      <trkpt lat="44.13308" lon="5.86882">
        <ele>1082</ele>
        <time>2021-06-01T12:24:48.316Z</time>
      </trkpt>
      <trkpt lat="44.13308" lon="5.86884">
        <ele>1082</ele>
        <time>2021-06-01T12:24:49.316Z</time>
      </trkpt>
      <trkpt lat="44.13308" lon="5.86885">
        <ele>1082</ele>
        <time>2021-06-01T12:24:50.316Z</time>
      </trkpt>
      <trkpt lat="44.13308" lon="5.86887">
        <ele>1082</ele>
        <time>2021-06-01T12:24:51.316Z</time>
      </trkpt>
      <trkpt lat="44.13309" lon="5.86888">
        <ele>1081</ele>
        <time>2021-06-01T12:24:52.316Z</time>
      </trkpt>
      <trkpt lat="44.13309" lon="5.86889">
        <ele>1081</ele>
        <time>2021-06-01T12:24:53.316Z</time>
      </trkpt>
      <trkpt lat="44.13309" lon="5.86891">
        <ele>1081</ele>
        <time>2021-06-01T12:24:54.316Z</time>
      </trkpt>
      <trkpt lat="44.13309" lon="5.86892">
        <ele>1081</ele>
        <time>2021-06-01T12:24:55.316Z</time>
      </trkpt>
      <trkpt lat="44.13309" lon="5.86894">
        <ele>1081</ele>
        <time>2021-06-01T12:24:56.316Z</time>
      </trkpt>
      <trkpt lat="44.13309" lon="5.86896">
        <ele>1081</ele>
        <time>2021-06-01T12:24:57.316Z</time>
      </trkpt>
      <trkpt lat="44.13309" lon="5.86897">
        <ele>1081</ele>
        <time>2021-06-01T12:24:58.316Z</time>
      </trkpt>
      <trkpt lat="44.1331" lon="5.86899">
        <ele>1081</ele>
        <time>2021-06-01T12:24:59.316Z</time>
      </trkpt>
      <trkpt lat="44.1331" lon="5.869">
        <ele>1081</ele>
        <time>2021-06-01T12:25:00.316Z</time>
      </trkpt>
      <trkpt lat="44.1331" lon="5.86901">
        <ele>1081</ele>
        <time>2021-06-01T12:25:01.316Z</time>
      </trkpt>
      <trkpt lat="44.1331" lon="5.86902">
        <ele>1081</ele>
        <time>2021-06-01T12:25:02.316Z</time>
      </trkpt>
      <trkpt lat="44.1331" lon="5.86903">
        <ele>1081</ele>
        <time>2021-06-01T12:25:03.316Z</time>
      </trkpt>
      <trkpt lat="44.1331" lon="5.86905">
        <ele>1081</ele>
        <time>2021-06-01T12:25:04.316Z</time>
      </trkpt>
      <trkpt lat="44.1331" lon="5.86907">
        <ele>1080</ele>
        <time>2021-06-01T12:25:05.316Z</time>
      </trkpt>
      <trkpt lat="44.1331" lon="5.86908">
        <ele>1080</ele>
        <time>2021-06-01T12:25:06.316Z</time>
      </trkpt>
      <trkpt lat="44.1331" lon="5.86909">
        <ele>1080</ele>
        <time>2021-06-01T12:25:07.316Z</time>
      </trkpt>
      <trkpt lat="44.1331" lon="5.86911">
        <ele>1080</ele>
        <time>2021-06-01T12:25:08.316Z</time>
      </trkpt>
      <trkpt lat="44.1331" lon="5.86912">
        <ele>1080</ele>
        <time>2021-06-01T12:25:09.316Z</time>
      </trkpt>
      <trkpt lat="44.13311" lon="5.86913">
        <ele>1080</ele>
        <time>2021-06-01T12:25:10.316Z</time>
      </trkpt>
      <trkpt lat="44.13311" lon="5.86915">
        <ele>1080</ele>
        <time>2021-06-01T12:25:11.316Z</time>
      </trkpt>
      <trkpt lat="44.13311" lon="5.86916">
        <ele>1080</ele>
        <time>2021-06-01T12:25:12.316Z</time>
      </trkpt>
      <trkpt lat="44.13311" lon="5.86917">
        <ele>1080</ele>
        <time>2021-06-01T12:25:13.316Z</time>
      </trkpt>
      <trkpt lat="44.13311" lon="5.86919">
        <ele>1080</ele>
        <time>2021-06-01T12:25:14.316Z</time>
      </trkpt>
      <trkpt lat="44.13312" lon="5.8692">
        <ele>1080</ele>
        <time>2021-06-01T12:25:15.316Z</time>
      </trkpt>
      <trkpt lat="44.13312" lon="5.86922">
        <ele>1080</ele>
        <time>2021-06-01T12:25:16.316Z</time>
      </trkpt>
      <trkpt lat="44.13312" lon="5.86924">
        <ele>1080</ele>
        <time>2021-06-01T12:25:17.316Z</time>
      </trkpt>
      <trkpt lat="44.13312" lon="5.86925">
        <ele>1080</ele>
        <time>2021-06-01T12:25:18.316Z</time>
      </trkpt>
      <trkpt lat="44.13312" lon="5.86926">
        <ele>1079</ele>
        <time>2021-06-01T12:25:19.316Z</time>
      </trkpt>
      <trkpt lat="44.13313" lon="5.86928">
        <ele>1079</ele>
        <time>2021-06-01T12:25:20.316Z</time>
      </trkpt>
      <trkpt lat="44.13313" lon="5.86929">
        <ele>1079</ele>
        <time>2021-06-01T12:25:21.316Z</time>
      </trkpt>
      <trkpt lat="44.13313" lon="5.8693">
        <ele>1079</ele>
        <time>2021-06-01T12:25:22.316Z</time>
      </trkpt>
      <trkpt lat="44.13313" lon="5.86932">
        <ele>1079</ele>
        <time>2021-06-01T12:25:23.316Z</time>
      </trkpt>
      <trkpt lat="44.13313" lon="5.86933">
        <ele>1079</ele>
        <time>2021-06-01T12:25:24.316Z</time>
      </trkpt>
      <trkpt lat="44.13314" lon="5.86935">
        <ele>1079</ele>
        <time>2021-06-01T12:25:25.316Z</time>
      </trkpt>
      <trkpt lat="44.13314" lon="5.86936">
        <ele>1079</ele>
        <time>2021-06-01T12:25:26.316Z</time>
      </trkpt>
      <trkpt lat="44.13314" lon="5.86938">
        <ele>1079</ele>
        <time>2021-06-01T12:25:27.316Z</time>
      </trkpt>
      <trkpt lat="44.13314" lon="5.8694">
        <ele>1078</ele>
        <time>2021-06-01T12:25:28.316Z</time>
      </trkpt>
      <trkpt lat="44.13315" lon="5.86941">
        <ele>1078</ele>
        <time>2021-06-01T12:25:29.316Z</time>
      </trkpt>
      <trkpt lat="44.13315" lon="5.86942">
        <ele>1078</ele>
        <time>2021-06-01T12:25:30.316Z</time>
      </trkpt>
      <trkpt lat="44.13316" lon="5.86943">
        <ele>1078</ele>
        <time>2021-06-01T12:25:31.316Z</time>
      </trkpt>
      <trkpt lat="44.13316" lon="5.86944">
        <ele>1078</ele>
        <time>2021-06-01T12:25:32.316Z</time>
      </trkpt>
      <trkpt lat="44.13316" lon="5.86946">
        <ele>1078</ele>
        <time>2021-06-01T12:25:33.316Z</time>
      </trkpt>
      <trkpt lat="44.13316" lon="5.86947">
        <ele>1078</ele>
        <time>2021-06-01T12:25:34.316Z</time>
      </trkpt>
      <trkpt lat="44.13316" lon="5.86948">
        <ele>1078</ele>
        <time>2021-06-01T12:25:35.316Z</time>
      </trkpt>
      <trkpt lat="44.13316" lon="5.8695">
        <ele>1078</ele>
        <time>2021-06-01T12:25:36.316Z</time>
      </trkpt>
      <trkpt lat="44.13317" lon="5.86951">
        <ele>1078</ele>
        <time>2021-06-01T12:25:37.316Z</time>
      </trkpt>
      <trkpt lat="44.13317" lon="5.86952">
        <ele>1078</ele>
        <time>2021-06-01T12:25:38.316Z</time>
      </trkpt>
      <trkpt lat="44.13317" lon="5.86953">
        <ele>1078</ele>
        <time>2021-06-01T12:25:39.316Z</time>
      </trkpt>
      <trkpt lat="44.13318" lon="5.86955">
        <ele>1077</ele>
        <time>2021-06-01T12:25:40.316Z</time>
      </trkpt>
      <trkpt lat="44.13318" lon="5.86956">
        <ele>1077</ele>
        <time>2021-06-01T12:25:41.316Z</time>
      </trkpt>
      <trkpt lat="44.13318" lon="5.86957">
        <ele>1077</ele>
        <time>2021-06-01T12:25:42.316Z</time>
      </trkpt>
      <trkpt lat="44.13318" lon="5.86958">
        <ele>1077</ele>
        <time>2021-06-01T12:25:43.316Z</time>
      </trkpt>
      <trkpt lat="44.13318" lon="5.8696">
        <ele>1077</ele>
        <time>2021-06-01T12:25:44.316Z</time>
      </trkpt>
      <trkpt lat="44.13318" lon="5.86961">
        <ele>1077</ele>
        <time>2021-06-01T12:25:45.316Z</time>
      </trkpt>
      <trkpt lat="44.13319" lon="5.86962">
        <ele>1076</ele>
        <time>2021-06-01T12:25:46.316Z</time>
      </trkpt>
      <trkpt lat="44.1332" lon="5.86964">
        <ele>1076</ele>
        <time>2021-06-01T12:25:47.316Z</time>
      </trkpt>
      <trkpt lat="44.1332" lon="5.86965">
        <ele>1076</ele>
        <time>2021-06-01T12:25:48.316Z</time>
      </trkpt>
      <trkpt lat="44.13321" lon="5.86966">
        <ele>1076</ele>
        <time>2021-06-01T12:25:49.316Z</time>
      </trkpt>
      <trkpt lat="44.13321" lon="5.86968">
        <ele>1076</ele>
        <time>2021-06-01T12:25:50.316Z</time>
      </trkpt>
      <trkpt lat="44.13322" lon="5.86969">
        <ele>1076</ele>
        <time>2021-06-01T12:25:51.316Z</time>
      </trkpt>
      <trkpt lat="44.13322" lon="5.86971">
        <ele>1076</ele>
        <time>2021-06-01T12:25:52.316Z</time>
      </trkpt>
      <trkpt lat="44.13322" lon="5.86972">
        <ele>1076</ele>
        <time>2021-06-01T12:25:53.316Z</time>
      </trkpt>
      <trkpt lat="44.13323" lon="5.86974">
        <ele>1076</ele>
        <time>2021-06-01T12:25:54.316Z</time>
      </trkpt>
      <trkpt lat="44.13323" lon="5.86975">
        <ele>1076</ele>
        <time>2021-06-01T12:25:55.316Z</time>
      </trkpt>
      <trkpt lat="44.13323" lon="5.86977">
        <ele>1075</ele>
        <time>2021-06-01T12:25:56.316Z</time>
      </trkpt>
      <trkpt lat="44.13324" lon="5.86979">
        <ele>1075</ele>
        <time>2021-06-01T12:25:57.316Z</time>
      </trkpt>
      <trkpt lat="44.13324" lon="5.8698">
        <ele>1075</ele>
        <time>2021-06-01T12:25:58.316Z</time>
      </trkpt>
      <trkpt lat="44.13324" lon="5.86982">
        <ele>1075</ele>
        <time>2021-06-01T12:25:59.316Z</time>
      </trkpt>
      <trkpt lat="44.13325" lon="5.86983">
        <ele>1075</ele>
        <time>2021-06-01T12:26:00.316Z</time>
      </trkpt>
      <trkpt lat="44.13325" lon="5.86984">
        <ele>1075</ele>
        <time>2021-06-01T12:26:01.316Z</time>
      </trkpt>
      <trkpt lat="44.13325" lon="5.86986">
        <ele>1075</ele>
        <time>2021-06-01T12:26:02.316Z</time>
      </trkpt>
      <trkpt lat="44.13326" lon="5.86987">
        <ele>1074</ele>
        <time>2021-06-01T12:26:03.316Z</time>
      </trkpt>
      <trkpt lat="44.13326" lon="5.86989">
        <ele>1074</ele>
        <time>2021-06-01T12:26:04.316Z</time>
      </trkpt>
      <trkpt lat="44.13326" lon="5.86991">
        <ele>1074</ele>
        <time>2021-06-01T12:26:05.316Z</time>
      </trkpt>
      <trkpt lat="44.13326" lon="5.86992">
        <ele>1074</ele>
        <time>2021-06-01T12:26:06.316Z</time>
      </trkpt>
      <trkpt lat="44.13326" lon="5.86994">
        <ele>1074</ele>
        <time>2021-06-01T12:26:07.316Z</time>
      </trkpt>
      <trkpt lat="44.13326" lon="5.86995">
        <ele>1074</ele>
        <time>2021-06-01T12:26:08.316Z</time>
      </trkpt>
      <trkpt lat="44.13326" lon="5.86997">
        <ele>1074</ele>
        <time>2021-06-01T12:26:09.316Z</time>
      </trkpt>
      <trkpt lat="44.13325" lon="5.86999">
        <ele>1073</ele>
        <time>2021-06-01T12:26:10.316Z</time>
      </trkpt>
      <trkpt lat="44.13325" lon="5.87">
        <ele>1073</ele>
        <time>2021-06-01T12:26:11.316Z</time>
      </trkpt>
      <trkpt lat="44.13325" lon="5.87002">
        <ele>1073</ele>
        <time>2021-06-01T12:26:12.316Z</time>
      </trkpt>
      <trkpt lat="44.13326" lon="5.87003">
        <ele>1073</ele>
        <time>2021-06-01T12:26:13.316Z</time>
      </trkpt>
      <trkpt lat="44.13326" lon="5.87005">
        <ele>1073</ele>
        <time>2021-06-01T12:26:14.316Z</time>
      </trkpt>
      <trkpt lat="44.13326" lon="5.87006">
        <ele>1073</ele>
        <time>2021-06-01T12:26:15.316Z</time>
      </trkpt>
      <trkpt lat="44.13326" lon="5.87008">
        <ele>1073</ele>
        <time>2021-06-01T12:26:16.316Z</time>
      </trkpt>
      <trkpt lat="44.13326" lon="5.8701">
        <ele>1073</ele>
        <time>2021-06-01T12:26:17.316Z</time>
      </trkpt>
      <trkpt lat="44.13326" lon="5.87011">
        <ele>1073</ele>
        <time>2021-06-01T12:26:18.316Z</time>
      </trkpt>
      <trkpt lat="44.13325" lon="5.87013">
        <ele>1073</ele>
        <time>2021-06-01T12:26:19.316Z</time>
      </trkpt>
      <trkpt lat="44.13325" lon="5.87014">
        <ele>1073</ele>
        <time>2021-06-01T12:26:20.316Z</time>
      </trkpt>
      <trkpt lat="44.13325" lon="5.87016">
        <ele>1073</ele>
        <time>2021-06-01T12:26:21.316Z</time>
      </trkpt>
      <trkpt lat="44.13324" lon="5.87017">
        <ele>1073</ele>
        <time>2021-06-01T12:26:22.316Z</time>
      </trkpt>
      <trkpt lat="44.13324" lon="5.87019">
        <ele>1072</ele>
        <time>2021-06-01T12:26:23.316Z</time>
      </trkpt>
      <trkpt lat="44.13325" lon="5.87021">
        <ele>1072</ele>
        <time>2021-06-01T12:26:24.316Z</time>
      </trkpt>
      <trkpt lat="44.13324" lon="5.87023">
        <ele>1072</ele>
        <time>2021-06-01T12:26:25.316Z</time>
      </trkpt>
      <trkpt lat="44.13324" lon="5.87024">
        <ele>1072</ele>
        <time>2021-06-01T12:26:26.316Z</time>
      </trkpt>
      <trkpt lat="44.13324" lon="5.87026">
        <ele>1072</ele>
        <time>2021-06-01T12:26:27.316Z</time>
      </trkpt>
      <trkpt lat="44.13324" lon="5.87027">
        <ele>1072</ele>
        <time>2021-06-01T12:26:28.316Z</time>
      </trkpt>
      <trkpt lat="44.13323" lon="5.87029">
        <ele>1072</ele>
        <time>2021-06-01T12:26:29.316Z</time>
      </trkpt>
      <trkpt lat="44.13323" lon="5.8703">
        <ele>1072</ele>
        <time>2021-06-01T12:26:30.316Z</time>
      </trkpt>
      <trkpt lat="44.13323" lon="5.87031">
        <ele>1072</ele>
        <time>2021-06-01T12:26:31.316Z</time>
      </trkpt>
      <trkpt lat="44.13322" lon="5.87033">
        <ele>1072</ele>
        <time>2021-06-01T12:26:32.316Z</time>
      </trkpt>
      <trkpt lat="44.13322" lon="5.87034">
        <ele>1072</ele>
        <time>2021-06-01T12:26:33.316Z</time>
      </trkpt>
      <trkpt lat="44.13321" lon="5.87035">
        <ele>1072</ele>
        <time>2021-06-01T12:26:34.316Z</time>
      </trkpt>
      <trkpt lat="44.13321" lon="5.87036">
        <ele>1072</ele>
        <time>2021-06-01T12:26:35.316Z</time>
      </trkpt>
      <trkpt lat="44.13321" lon="5.87038">
        <ele>1072</ele>
        <time>2021-06-01T12:26:36.316Z</time>
      </trkpt>
      <trkpt lat="44.13321" lon="5.87039">
        <ele>1072</ele>
        <time>2021-06-01T12:26:37.316Z</time>
      </trkpt>
      <trkpt lat="44.1332" lon="5.8704">
        <ele>1072</ele>
        <time>2021-06-01T12:26:38.316Z</time>
      </trkpt>
      <trkpt lat="44.1332" lon="5.87042">
        <ele>1072</ele>
        <time>2021-06-01T12:26:39.316Z</time>
      </trkpt>
      <trkpt lat="44.1332" lon="5.87043">
        <ele>1072</ele>
        <time>2021-06-01T12:26:40.316Z</time>
      </trkpt>
      <trkpt lat="44.13319" lon="5.87044">
        <ele>1072</ele>
        <time>2021-06-01T12:26:41.316Z</time>
      </trkpt>
      <trkpt lat="44.13319" lon="5.87045">
        <ele>1072</ele>
        <time>2021-06-01T12:26:42.316Z</time>
      </trkpt>
      <trkpt lat="44.13318" lon="5.87046">
        <ele>1072</ele>
        <time>2021-06-01T12:26:43.316Z</time>
      </trkpt>
      <trkpt lat="44.13318" lon="5.87048">
        <ele>1072</ele>
        <time>2021-06-01T12:26:44.316Z</time>
      </trkpt>
      <trkpt lat="44.13317" lon="5.87049">
        <ele>1072</ele>
        <time>2021-06-01T12:26:45.316Z</time>
      </trkpt>
      <trkpt lat="44.13317" lon="5.8705">
        <ele>1072</ele>
        <time>2021-06-01T12:26:46.316Z</time>
      </trkpt>
      <trkpt lat="44.13317" lon="5.87051">
        <ele>1072</ele>
        <time>2021-06-01T12:26:47.316Z</time>
      </trkpt>
      <trkpt lat="44.13316" lon="5.87052">
        <ele>1072</ele>
        <time>2021-06-01T12:26:48.316Z</time>
      </trkpt>
      <trkpt lat="44.13316" lon="5.87054">
        <ele>1072</ele>
        <time>2021-06-01T12:26:49.316Z</time>
      </trkpt>
      <trkpt lat="44.13315" lon="5.87055">
        <ele>1072</ele>
        <time>2021-06-01T12:26:50.316Z</time>
      </trkpt>
      <trkpt lat="44.13315" lon="5.87056">
        <ele>1072</ele>
        <time>2021-06-01T12:26:51.316Z</time>
      </trkpt>
      <trkpt lat="44.13314" lon="5.87056">
        <ele>1072</ele>
        <time>2021-06-01T12:26:52.316Z</time>
      </trkpt>
      <trkpt lat="44.13313" lon="5.87057">
        <ele>1072</ele>
        <time>2021-06-01T12:26:53.316Z</time>
      </trkpt>
      <trkpt lat="44.13313" lon="5.87058">
        <ele>1072</ele>
        <time>2021-06-01T12:26:54.316Z</time>
      </trkpt>
      <trkpt lat="44.13312" lon="5.87059">
        <ele>1072</ele>
        <time>2021-06-01T12:26:55.316Z</time>
      </trkpt>
      <trkpt lat="44.13311" lon="5.8706">
        <ele>1072</ele>
        <time>2021-06-01T12:26:56.316Z</time>
      </trkpt>
      <trkpt lat="44.1331" lon="5.87061">
        <ele>1072</ele>
        <time>2021-06-01T12:26:57.316Z</time>
      </trkpt>
      <trkpt lat="44.13309" lon="5.87062">
        <ele>1072</ele>
        <time>2021-06-01T12:26:58.316Z</time>
      </trkpt>
      <trkpt lat="44.13309" lon="5.87063">
        <ele>1072</ele>
        <time>2021-06-01T12:26:59.316Z</time>
      </trkpt>
      <trkpt lat="44.13308" lon="5.87064">
        <ele>1072</ele>
        <time>2021-06-01T12:27:00.316Z</time>
      </trkpt>
      <trkpt lat="44.13308" lon="5.87066">
        <ele>1072</ele>
        <time>2021-06-01T12:27:01.316Z</time>
      </trkpt>
      <trkpt lat="44.13307" lon="5.87067">
        <ele>1072</ele>
        <time>2021-06-01T12:27:02.316Z</time>
      </trkpt>
      <trkpt lat="44.13307" lon="5.87069">
        <ele>1071</ele>
        <time>2021-06-01T12:27:03.316Z</time>
      </trkpt>
      <trkpt lat="44.13307" lon="5.8707">
        <ele>1071</ele>
        <time>2021-06-01T12:27:04.316Z</time>
      </trkpt>
      <trkpt lat="44.13306" lon="5.87071">
        <ele>1071</ele>
        <time>2021-06-01T12:27:05.316Z</time>
      </trkpt>
      <trkpt lat="44.13305" lon="5.87072">
        <ele>1071</ele>
        <time>2021-06-01T12:27:06.316Z</time>
      </trkpt>
      <trkpt lat="44.13305" lon="5.87074">
        <ele>1071</ele>
        <time>2021-06-01T12:27:07.316Z</time>
      </trkpt>
      <trkpt lat="44.13305" lon="5.87075">
        <ele>1071</ele>
        <time>2021-06-01T12:27:08.316Z</time>
      </trkpt>
      <trkpt lat="44.13304" lon="5.87076">
        <ele>1071</ele>
        <time>2021-06-01T12:27:09.316Z</time>
      </trkpt>
      <trkpt lat="44.13304" lon="5.87077">
        <ele>1071</ele>
        <time>2021-06-01T12:27:10.316Z</time>
      </trkpt>
      <trkpt lat="44.13304" lon="5.87078">
        <ele>1071</ele>
        <time>2021-06-01T12:27:11.316Z</time>
      </trkpt>
      <trkpt lat="44.13303" lon="5.87079">
        <ele>1071</ele>
        <time>2021-06-01T12:27:12.316Z</time>
      </trkpt>
      <trkpt lat="44.13303" lon="5.8708">
        <ele>1070</ele>
        <time>2021-06-01T12:27:13.316Z</time>
      </trkpt>
      <trkpt lat="44.13303" lon="5.87081">
        <ele>1070</ele>
        <time>2021-06-01T12:27:14.316Z</time>
      </trkpt>
      <trkpt lat="44.13303" lon="5.87083">
        <ele>1070</ele>
        <time>2021-06-01T12:27:15.316Z</time>
      </trkpt>
      <trkpt lat="44.13303" lon="5.87084">
        <ele>1070</ele>
        <time>2021-06-01T12:27:16.316Z</time>
      </trkpt>
      <trkpt lat="44.13303" lon="5.87085">
        <ele>1070</ele>
        <time>2021-06-01T12:27:17.316Z</time>
      </trkpt>
      <trkpt lat="44.13303" lon="5.87086">
        <ele>1070</ele>
        <time>2021-06-01T12:27:18.316Z</time>
      </trkpt>
      <trkpt lat="44.13304" lon="5.87087">
        <ele>1070</ele>
        <time>2021-06-01T12:27:19.316Z</time>
      </trkpt>
      <trkpt lat="44.13304" lon="5.87088">
        <ele>1069</ele>
        <time>2021-06-01T12:27:20.316Z</time>
      </trkpt>
      <trkpt lat="44.13304" lon="5.87089">
        <ele>1069</ele>
        <time>2021-06-01T12:27:21.316Z</time>
      </trkpt>
      <trkpt lat="44.13305" lon="5.8709">
        <ele>1069</ele>
        <time>2021-06-01T12:27:22.316Z</time>
      </trkpt>
      <trkpt lat="44.13305" lon="5.87091">
        <ele>1069</ele>
        <time>2021-06-01T12:27:23.316Z</time>
      </trkpt>
      <trkpt lat="44.13306" lon="5.87092">
        <ele>1069</ele>
        <time>2021-06-01T12:27:24.316Z</time>
      </trkpt>
      <trkpt lat="44.13306" lon="5.87093">
        <ele>1069</ele>
        <time>2021-06-01T12:27:25.316Z</time>
      </trkpt>
      <trkpt lat="44.13307" lon="5.87094">
        <ele>1069</ele>
        <time>2021-06-01T12:27:26.316Z</time>
      </trkpt>
      <trkpt lat="44.13307" lon="5.87096">
        <ele>1069</ele>
        <time>2021-06-01T12:27:27.316Z</time>
      </trkpt>
      <trkpt lat="44.13307" lon="5.87097">
        <ele>1069</ele>
        <time>2021-06-01T12:27:28.316Z</time>
      </trkpt>
      <trkpt lat="44.13308" lon="5.87098">
        <ele>1069</ele>
        <time>2021-06-01T12:27:29.316Z</time>
      </trkpt>
      <trkpt lat="44.13308" lon="5.87099">
        <ele>1069</ele>
        <time>2021-06-01T12:27:30.316Z</time>
      </trkpt>
      <trkpt lat="44.13309" lon="5.871">
        <ele>1069</ele>
        <time>2021-06-01T12:27:31.316Z</time>
      </trkpt>
      <trkpt lat="44.13309" lon="5.871">
        <ele>1069</ele>
        <time>2021-06-01T12:27:32.316Z</time>
      </trkpt>
      <trkpt lat="44.1331" lon="5.87101">
        <ele>1069</ele>
        <time>2021-06-01T12:27:33.316Z</time>
      </trkpt>
      <trkpt lat="44.1331" lon="5.87102">
        <ele>1069</ele>
        <time>2021-06-01T12:27:34.316Z</time>
      </trkpt>
      <trkpt lat="44.1331" lon="5.87103">
        <ele>1069</ele>
        <time>2021-06-01T12:27:35.316Z</time>
      </trkpt>
      <trkpt lat="44.13311" lon="5.87104">
        <ele>1069</ele>
        <time>2021-06-01T12:27:36.316Z</time>
      </trkpt>
      <trkpt lat="44.13311" lon="5.87105">
        <ele>1069</ele>
        <time>2021-06-01T12:27:37.316Z</time>
      </trkpt>
      <trkpt lat="44.13311" lon="5.87106">
        <ele>1069</ele>
        <time>2021-06-01T12:27:38.316Z</time>
      </trkpt>
      <trkpt lat="44.13312" lon="5.87107">
        <ele>1069</ele>
        <time>2021-06-01T12:27:39.316Z</time>
      </trkpt>
      <trkpt lat="44.13312" lon="5.87109">
        <ele>1069</ele>
        <time>2021-06-01T12:27:40.316Z</time>
      </trkpt>
      <trkpt lat="44.13312" lon="5.8711">
        <ele>1068</ele>
        <time>2021-06-01T12:27:41.316Z</time>
      </trkpt>
      <trkpt lat="44.13313" lon="5.87111">
        <ele>1068</ele>
        <time>2021-06-01T12:27:42.316Z</time>
      </trkpt>
      <trkpt lat="44.13313" lon="5.87112">
        <ele>1068</ele>
        <time>2021-06-01T12:27:43.316Z</time>
      </trkpt>
      <trkpt lat="44.13314" lon="5.87113">
        <ele>1068</ele>
        <time>2021-06-01T12:27:44.316Z</time>
      </trkpt>
      <trkpt lat="44.13314" lon="5.87114">
        <ele>1068</ele>
        <time>2021-06-01T12:27:45.316Z</time>
      </trkpt>
      <trkpt lat="44.13315" lon="5.87115">
        <ele>1068</ele>
        <time>2021-06-01T12:27:46.316Z</time>
      </trkpt>
      <trkpt lat="44.13315" lon="5.87116">
        <ele>1068</ele>
        <time>2021-06-01T12:27:47.316Z</time>
      </trkpt>
      <trkpt lat="44.13316" lon="5.87117">
        <ele>1068</ele>
        <time>2021-06-01T12:27:48.316Z</time>
      </trkpt>
      <trkpt lat="44.13316" lon="5.87118">
        <ele>1068</ele>
        <time>2021-06-01T12:27:49.316Z</time>
      </trkpt>
      <trkpt lat="44.13316" lon="5.87119">
        <ele>1068</ele>
        <time>2021-06-01T12:27:50.316Z</time>
      </trkpt>
      <trkpt lat="44.13317" lon="5.8712">
        <ele>1068</ele>
        <time>2021-06-01T12:27:51.316Z</time>
      </trkpt>
      <trkpt lat="44.13317" lon="5.87121">
        <ele>1068</ele>
        <time>2021-06-01T12:27:52.316Z</time>
      </trkpt>
      <trkpt lat="44.13317" lon="5.87122">
        <ele>1068</ele>
        <time>2021-06-01T12:27:53.316Z</time>
      </trkpt>
      <trkpt lat="44.13318" lon="5.87123">
        <ele>1068</ele>
        <time>2021-06-01T12:27:54.316Z</time>
      </trkpt>
      <trkpt lat="44.13318" lon="5.87124">
        <ele>1068</ele>
        <time>2021-06-01T12:27:55.316Z</time>
      </trkpt>
      <trkpt lat="44.13319" lon="5.87125">
        <ele>1068</ele>
        <time>2021-06-01T12:27:56.316Z</time>
      </trkpt>
      <trkpt lat="44.13319" lon="5.87126">
        <ele>1067</ele>
        <time>2021-06-01T12:27:57.316Z</time>
      </trkpt>
      <trkpt lat="44.13319" lon="5.87127">
        <ele>1067</ele>
        <time>2021-06-01T12:27:58.316Z</time>
      </trkpt>
      <trkpt lat="44.1332" lon="5.87128">
        <ele>1067</ele>
        <time>2021-06-01T12:27:59.316Z</time>
      </trkpt>
      <trkpt lat="44.1332" lon="5.87128">
        <ele>1067</ele>
        <time>2021-06-01T12:28:00.316Z</time>
      </trkpt>
      <trkpt lat="44.1332" lon="5.87129">
        <ele>1067</ele>
        <time>2021-06-01T12:28:01.316Z</time>
      </trkpt>
      <trkpt lat="44.13321" lon="5.8713">
        <ele>1067</ele>
        <time>2021-06-01T12:28:02.316Z</time>
      </trkpt>
      <trkpt lat="44.13321" lon="5.87131">
        <ele>1067</ele>
        <time>2021-06-01T12:28:03.316Z</time>
      </trkpt>
      <trkpt lat="44.13322" lon="5.87132">
        <ele>1067</ele>
        <time>2021-06-01T12:28:04.316Z</time>
      </trkpt>
      <trkpt lat="44.13323" lon="5.87132">
        <ele>1067</ele>
        <time>2021-06-01T12:28:05.316Z</time>
      </trkpt>
      <trkpt lat="44.13323" lon="5.87133">
        <ele>1067</ele>
        <time>2021-06-01T12:28:06.316Z</time>
      </trkpt>
      <trkpt lat="44.13323" lon="5.87135">
        <ele>1067</ele>
        <time>2021-06-01T12:28:07.316Z</time>
      </trkpt>
      <trkpt lat="44.13324" lon="5.87136">
        <ele>1067</ele>
        <time>2021-06-01T12:28:08.316Z</time>
      </trkpt>
      <trkpt lat="44.13325" lon="5.87137">
        <ele>1067</ele>
        <time>2021-06-01T12:28:09.316Z</time>
      </trkpt>
      <trkpt lat="44.13326" lon="5.87138">
        <ele>1067</ele>
        <time>2021-06-01T12:28:10.316Z</time>
      </trkpt>
      <trkpt lat="44.13326" lon="5.87139">
        <ele>1067</ele>
        <time>2021-06-01T12:28:11.316Z</time>
      </trkpt>
      <trkpt lat="44.13327" lon="5.8714">
        <ele>1067</ele>
        <time>2021-06-01T12:28:12.316Z</time>
      </trkpt>
      <trkpt lat="44.13327" lon="5.87141">
        <ele>1067</ele>
        <time>2021-06-01T12:28:13.316Z</time>
      </trkpt>
      <trkpt lat="44.13328" lon="5.87143">
        <ele>1067</ele>
        <time>2021-06-01T12:28:14.316Z</time>
      </trkpt>
      <trkpt lat="44.13329" lon="5.87144">
        <ele>1067</ele>
        <time>2021-06-01T12:28:15.316Z</time>
      </trkpt>
      <trkpt lat="44.13329" lon="5.87145">
        <ele>1068</ele>
        <time>2021-06-01T12:28:16.316Z</time>
      </trkpt>
      <trkpt lat="44.1333" lon="5.87147">
        <ele>1068</ele>
        <time>2021-06-01T12:28:17.316Z</time>
      </trkpt>
      <trkpt lat="44.1333" lon="5.87148">
        <ele>1068</ele>
        <time>2021-06-01T12:28:18.316Z</time>
      </trkpt>
      <trkpt lat="44.1333" lon="5.87149">
        <ele>1068</ele>
        <time>2021-06-01T12:28:19.316Z</time>
      </trkpt>
      <trkpt lat="44.13331" lon="5.8715">
        <ele>1068</ele>
        <time>2021-06-01T12:28:20.316Z</time>
      </trkpt>
      <trkpt lat="44.13331" lon="5.87152">
        <ele>1068</ele>
        <time>2021-06-01T12:28:21.316Z</time>
      </trkpt>
      <trkpt lat="44.13332" lon="5.87153">
        <ele>1068</ele>
        <time>2021-06-01T12:28:22.316Z</time>
      </trkpt>
      <trkpt lat="44.13332" lon="5.87154">
        <ele>1068</ele>
        <time>2021-06-01T12:28:23.316Z</time>
      </trkpt>
      <trkpt lat="44.13333" lon="5.87155">
        <ele>1068</ele>
        <time>2021-06-01T12:28:24.316Z</time>
      </trkpt>
      <trkpt lat="44.13334" lon="5.87156">
        <ele>1068</ele>
        <time>2021-06-01T12:28:25.316Z</time>
      </trkpt>
      <trkpt lat="44.13334" lon="5.87157">
        <ele>1068</ele>
        <time>2021-06-01T12:28:26.316Z</time>
      </trkpt>
      <trkpt lat="44.13335" lon="5.87158">
        <ele>1069</ele>
        <time>2021-06-01T12:28:27.316Z</time>
      </trkpt>
      <trkpt lat="44.13335" lon="5.87159">
        <ele>1069</ele>
        <time>2021-06-01T12:28:28.316Z</time>
      </trkpt>
      <trkpt lat="44.13336" lon="5.8716">
        <ele>1069</ele>
        <time>2021-06-01T12:28:29.316Z</time>
      </trkpt>
      <trkpt lat="44.13336" lon="5.8716">
        <ele>1069</ele>
        <time>2021-06-01T12:28:30.316Z</time>
      </trkpt>
      <trkpt lat="44.13336" lon="5.87161">
        <ele>1069</ele>
        <time>2021-06-01T12:28:31.316Z</time>
      </trkpt>
      <trkpt lat="44.13337" lon="5.87162">
        <ele>1069</ele>
        <time>2021-06-01T12:28:32.316Z</time>
      </trkpt>
      <trkpt lat="44.13337" lon="5.87163">
        <ele>1069</ele>
        <time>2021-06-01T12:28:33.316Z</time>
      </trkpt>
      <trkpt lat="44.13337" lon="5.87164">
        <ele>1069</ele>
        <time>2021-06-01T12:28:34.316Z</time>
      </trkpt>
      <trkpt lat="44.13338" lon="5.87165">
        <ele>1069</ele>
        <time>2021-06-01T12:28:35.316Z</time>
      </trkpt>
      <trkpt lat="44.13339" lon="5.87166">
        <ele>1069</ele>
        <time>2021-06-01T12:28:36.316Z</time>
      </trkpt>
      <trkpt lat="44.13339" lon="5.87167">
        <ele>1070</ele>
        <time>2021-06-01T12:28:37.316Z</time>
      </trkpt>
      <trkpt lat="44.1334" lon="5.87168">
        <ele>1070</ele>
        <time>2021-06-01T12:28:38.316Z</time>
      </trkpt>
      <trkpt lat="44.13341" lon="5.8717">
        <ele>1070</ele>
        <time>2021-06-01T12:28:39.316Z</time>
      </trkpt>
      <trkpt lat="44.13341" lon="5.87171">
        <ele>1070</ele>
        <time>2021-06-01T12:28:40.316Z</time>
      </trkpt>
      <trkpt lat="44.13342" lon="5.87172">
        <ele>1070</ele>
        <time>2021-06-01T12:28:41.316Z</time>
      </trkpt>
      <trkpt lat="44.13343" lon="5.87173">
        <ele>1070</ele>
        <time>2021-06-01T12:28:42.316Z</time>
      </trkpt>
      <trkpt lat="44.13344" lon="5.87174">
        <ele>1070</ele>
        <time>2021-06-01T12:28:43.316Z</time>
      </trkpt>
      <trkpt lat="44.13345" lon="5.87175">
        <ele>1070</ele>
        <time>2021-06-01T12:28:44.316Z</time>
      </trkpt>
      <trkpt lat="44.13345" lon="5.87176">
        <ele>1070</ele>
        <time>2021-06-01T12:28:45.316Z</time>
      </trkpt>
      <trkpt lat="44.13346" lon="5.87177">
        <ele>1070</ele>
        <time>2021-06-01T12:28:46.316Z</time>
      </trkpt>
      <trkpt lat="44.13347" lon="5.87178">
        <ele>1070</ele>
        <time>2021-06-01T12:28:47.316Z</time>
      </trkpt>
      <trkpt lat="44.13348" lon="5.87178">
        <ele>1070</ele>
        <time>2021-06-01T12:28:48.316Z</time>
      </trkpt>
      <trkpt lat="44.13348" lon="5.87179">
        <ele>1070</ele>
        <time>2021-06-01T12:28:49.316Z</time>
      </trkpt>
      <trkpt lat="44.1335" lon="5.8718">
        <ele>1070</ele>
        <time>2021-06-01T12:28:50.316Z</time>
      </trkpt>
      <trkpt lat="44.13351" lon="5.87181">
        <ele>1070</ele>
        <time>2021-06-01T12:28:51.316Z</time>
      </trkpt>
      <trkpt lat="44.13352" lon="5.87182">
        <ele>1070</ele>
        <time>2021-06-01T12:28:52.316Z</time>
      </trkpt>
      <trkpt lat="44.13352" lon="5.87182">
        <ele>1070</ele>
        <time>2021-06-01T12:28:53.316Z</time>
      </trkpt>
      <trkpt lat="44.13353" lon="5.87183">
        <ele>1070</ele>
        <time>2021-06-01T12:28:54.316Z</time>
      </trkpt>
      <trkpt lat="44.13354" lon="5.87183">
        <ele>1070</ele>
        <time>2021-06-01T12:28:55.316Z</time>
      </trkpt>
      <trkpt lat="44.13355" lon="5.87184">
        <ele>1070</ele>
        <time>2021-06-01T12:28:56.316Z</time>
      </trkpt>
      <trkpt lat="44.13356" lon="5.87185">
        <ele>1070</ele>
        <time>2021-06-01T12:28:57.316Z</time>
      </trkpt>
      <trkpt lat="44.13357" lon="5.87185">
        <ele>1070</ele>
        <time>2021-06-01T12:28:58.316Z</time>
      </trkpt>
      <trkpt lat="44.13358" lon="5.87186">
        <ele>1070</ele>
        <time>2021-06-01T12:28:59.316Z</time>
      </trkpt>
      <trkpt lat="44.13359" lon="5.87188">
        <ele>1071</ele>
        <time>2021-06-01T12:29:00.316Z</time>
      </trkpt>
      <trkpt lat="44.1336" lon="5.87189">
        <ele>1071</ele>
        <time>2021-06-01T12:29:01.316Z</time>
      </trkpt>
      <trkpt lat="44.13361" lon="5.8719">
        <ele>1071</ele>
        <time>2021-06-01T12:29:02.316Z</time>
      </trkpt>
      <trkpt lat="44.13361" lon="5.87191">
        <ele>1071</ele>
        <time>2021-06-01T12:29:03.316Z</time>
      </trkpt>
      <trkpt lat="44.13362" lon="5.87192">
        <ele>1071</ele>
        <time>2021-06-01T12:29:04.316Z</time>
      </trkpt>
      <trkpt lat="44.13363" lon="5.87193">
        <ele>1071</ele>
        <time>2021-06-01T12:29:05.316Z</time>
      </trkpt>
      <trkpt lat="44.13363" lon="5.87195">
        <ele>1071</ele>
        <time>2021-06-01T12:29:06.316Z</time>
      </trkpt>
      <trkpt lat="44.13364" lon="5.87196">
        <ele>1071</ele>
        <time>2021-06-01T12:29:07.316Z</time>
      </trkpt>
      <trkpt lat="44.13365" lon="5.87198">
        <ele>1071</ele>
        <time>2021-06-01T12:29:08.316Z</time>
      </trkpt>
      <trkpt lat="44.13365" lon="5.87199">
        <ele>1071</ele>
        <time>2021-06-01T12:29:09.316Z</time>
      </trkpt>
      <trkpt lat="44.13365" lon="5.872">
        <ele>1071</ele>
        <time>2021-06-01T12:29:10.316Z</time>
      </trkpt>
      <trkpt lat="44.13365" lon="5.87202">
        <ele>1071</ele>
        <time>2021-06-01T12:29:11.316Z</time>
      </trkpt>
      <trkpt lat="44.13366" lon="5.87203">
        <ele>1071</ele>
        <time>2021-06-01T12:29:12.316Z</time>
      </trkpt>
      <trkpt lat="44.13366" lon="5.87204">
        <ele>1071</ele>
        <time>2021-06-01T12:29:13.316Z</time>
      </trkpt>
      <trkpt lat="44.13367" lon="5.87205">
        <ele>1071</ele>
        <time>2021-06-01T12:29:14.316Z</time>
      </trkpt>
      <trkpt lat="44.13367" lon="5.87206">
        <ele>1071</ele>
        <time>2021-06-01T12:29:15.316Z</time>
      </trkpt>
      <trkpt lat="44.13368" lon="5.87207">
        <ele>1071</ele>
        <time>2021-06-01T12:29:16.316Z</time>
      </trkpt>
      <trkpt lat="44.13369" lon="5.87208">
        <ele>1071</ele>
        <time>2021-06-01T12:29:17.316Z</time>
      </trkpt>
      <trkpt lat="44.13369" lon="5.87209">
        <ele>1071</ele>
        <time>2021-06-01T12:29:18.316Z</time>
      </trkpt>
      <trkpt lat="44.1337" lon="5.8721">
        <ele>1071</ele>
        <time>2021-06-01T12:29:19.316Z</time>
      </trkpt>
      <trkpt lat="44.13371" lon="5.87211">
        <ele>1071</ele>
        <time>2021-06-01T12:29:20.316Z</time>
      </trkpt>
      <trkpt lat="44.13371" lon="5.87212">
        <ele>1071</ele>
        <time>2021-06-01T12:29:21.316Z</time>
      </trkpt>
      <trkpt lat="44.13372" lon="5.87213">
        <ele>1072</ele>
        <time>2021-06-01T12:29:22.316Z</time>
      </trkpt>
      <trkpt lat="44.13373" lon="5.87214">
        <ele>1072</ele>
        <time>2021-06-01T12:29:23.316Z</time>
      </trkpt>
      <trkpt lat="44.13374" lon="5.87215">
        <ele>1072</ele>
        <time>2021-06-01T12:29:24.316Z</time>
      </trkpt>
      <trkpt lat="44.13375" lon="5.87216">
        <ele>1072</ele>
        <time>2021-06-01T12:29:25.316Z</time>
      </trkpt>
      <trkpt lat="44.13375" lon="5.87217">
        <ele>1072</ele>
        <time>2021-06-01T12:29:26.316Z</time>
      </trkpt>
      <trkpt lat="44.13376" lon="5.87218">
        <ele>1072</ele>
        <time>2021-06-01T12:29:27.316Z</time>
      </trkpt>
      <trkpt lat="44.13377" lon="5.87218">
        <ele>1072</ele>
        <time>2021-06-01T12:29:28.316Z</time>
      </trkpt>
      <trkpt lat="44.13378" lon="5.87219">
        <ele>1072</ele>
        <time>2021-06-01T12:29:29.316Z</time>
      </trkpt>
      <trkpt lat="44.13379" lon="5.8722">
        <ele>1072</ele>
        <time>2021-06-01T12:29:30.316Z</time>
      </trkpt>
      <trkpt lat="44.1338" lon="5.8722">
        <ele>1072</ele>
        <time>2021-06-01T12:29:31.316Z</time>
      </trkpt>
      <trkpt lat="44.1338" lon="5.87221">
        <ele>1072</ele>
        <time>2021-06-01T12:29:32.316Z</time>
      </trkpt>
      <trkpt lat="44.13381" lon="5.87221">
        <ele>1072</ele>
        <time>2021-06-01T12:29:33.316Z</time>
      </trkpt>
      <trkpt lat="44.13382" lon="5.87221">
        <ele>1072</ele>
        <time>2021-06-01T12:29:34.316Z</time>
      </trkpt>
      <trkpt lat="44.13383" lon="5.87222">
        <ele>1072</ele>
        <time>2021-06-01T12:29:35.316Z</time>
      </trkpt>
      <trkpt lat="44.13383" lon="5.87222">
        <ele>1072</ele>
        <time>2021-06-01T12:29:36.316Z</time>
      </trkpt>
      <trkpt lat="44.13384" lon="5.87223">
        <ele>1072</ele>
        <time>2021-06-01T12:29:37.316Z</time>
      </trkpt>
      <trkpt lat="44.13385" lon="5.87223">
        <ele>1072</ele>
        <time>2021-06-01T12:29:38.316Z</time>
      </trkpt>
      <trkpt lat="44.13385" lon="5.87224">
        <ele>1072</ele>
        <time>2021-06-01T12:29:39.316Z</time>
      </trkpt>
      <trkpt lat="44.13386" lon="5.87224">
        <ele>1072</ele>
        <time>2021-06-01T12:29:40.316Z</time>
      </trkpt>
      <trkpt lat="44.13387" lon="5.87225">
        <ele>1072</ele>
        <time>2021-06-01T12:29:41.316Z</time>
      </trkpt>
      <trkpt lat="44.13388" lon="5.87226">
        <ele>1072</ele>
        <time>2021-06-01T12:29:42.316Z</time>
      </trkpt>
      <trkpt lat="44.13388" lon="5.87227">
        <ele>1072</ele>
        <time>2021-06-01T12:29:43.316Z</time>
      </trkpt>
      <trkpt lat="44.13389" lon="5.87227">
        <ele>1072</ele>
        <time>2021-06-01T12:29:44.316Z</time>
      </trkpt>
      <trkpt lat="44.1339" lon="5.87229">
        <ele>1071</ele>
        <time>2021-06-01T12:29:45.316Z</time>
      </trkpt>
      <trkpt lat="44.13391" lon="5.8723">
        <ele>1071</ele>
        <time>2021-06-01T12:29:46.316Z</time>
      </trkpt>
      <trkpt lat="44.13392" lon="5.87231">
        <ele>1071</ele>
        <time>2021-06-01T12:29:47.316Z</time>
      </trkpt>
      <trkpt lat="44.13393" lon="5.87232">
        <ele>1071</ele>
        <time>2021-06-01T12:29:48.316Z</time>
      </trkpt>
      <trkpt lat="44.13394" lon="5.87233">
        <ele>1071</ele>
        <time>2021-06-01T12:29:49.316Z</time>
      </trkpt>
      <trkpt lat="44.13395" lon="5.87234">
        <ele>1071</ele>
        <time>2021-06-01T12:29:50.316Z</time>
      </trkpt>
      <trkpt lat="44.13396" lon="5.87235">
        <ele>1071</ele>
        <time>2021-06-01T12:29:51.316Z</time>
      </trkpt>
      <trkpt lat="44.13398" lon="5.87237">
        <ele>1070</ele>
        <time>2021-06-01T12:29:52.316Z</time>
      </trkpt>
      <trkpt lat="44.13399" lon="5.87238">
        <ele>1070</ele>
        <time>2021-06-01T12:29:53.316Z</time>
      </trkpt>
      <trkpt lat="44.134" lon="5.87239">
        <ele>1070</ele>
        <time>2021-06-01T12:29:54.316Z</time>
      </trkpt>
      <trkpt lat="44.13401" lon="5.8724">
        <ele>1070</ele>
        <time>2021-06-01T12:29:55.316Z</time>
      </trkpt>
      <trkpt lat="44.13402" lon="5.87242">
        <ele>1070</ele>
        <time>2021-06-01T12:29:56.316Z</time>
      </trkpt>
      <trkpt lat="44.13403" lon="5.87243">
        <ele>1070</ele>
        <time>2021-06-01T12:29:57.316Z</time>
      </trkpt>
      <trkpt lat="44.13404" lon="5.87244">
        <ele>1069</ele>
        <time>2021-06-01T12:29:58.316Z</time>
      </trkpt>
      <trkpt lat="44.13405" lon="5.87246">
        <ele>1069</ele>
        <time>2021-06-01T12:29:59.316Z</time>
      </trkpt>
      <trkpt lat="44.13406" lon="5.87247">
        <ele>1069</ele>
        <time>2021-06-01T12:30:00.316Z</time>
      </trkpt>
      <trkpt lat="44.13407" lon="5.87248">
        <ele>1069</ele>
        <time>2021-06-01T12:30:01.316Z</time>
      </trkpt>
      <trkpt lat="44.13408" lon="5.87248">
        <ele>1069</ele>
        <time>2021-06-01T12:30:02.316Z</time>
      </trkpt>
      <trkpt lat="44.13409" lon="5.87249">
        <ele>1069</ele>
        <time>2021-06-01T12:30:03.316Z</time>
      </trkpt>
      <trkpt lat="44.1341" lon="5.8725">
        <ele>1069</ele>
        <time>2021-06-01T12:30:04.316Z</time>
      </trkpt>
      <trkpt lat="44.13411" lon="5.87251">
        <ele>1069</ele>
        <time>2021-06-01T12:30:05.316Z</time>
      </trkpt>
      <trkpt lat="44.13411" lon="5.87252">
        <ele>1069</ele>
        <time>2021-06-01T12:30:06.316Z</time>
      </trkpt>
      <trkpt lat="44.13412" lon="5.87253">
        <ele>1069</ele>
        <time>2021-06-01T12:30:07.316Z</time>
      </trkpt>
      <trkpt lat="44.13413" lon="5.87253">
        <ele>1068</ele>
        <time>2021-06-01T12:30:08.316Z</time>
      </trkpt>
      <trkpt lat="44.13414" lon="5.87254">
        <ele>1068</ele>
        <time>2021-06-01T12:30:09.316Z</time>
      </trkpt>
      <trkpt lat="44.13415" lon="5.87255">
        <ele>1068</ele>
        <time>2021-06-01T12:30:10.316Z</time>
      </trkpt>
      <trkpt lat="44.13416" lon="5.87256">
        <ele>1068</ele>
        <time>2021-06-01T12:30:11.316Z</time>
      </trkpt>
      <trkpt lat="44.13417" lon="5.87257">
        <ele>1068</ele>
        <time>2021-06-01T12:30:12.316Z</time>
      </trkpt>
      <trkpt lat="44.13418" lon="5.87258">
        <ele>1067</ele>
        <time>2021-06-01T12:30:13.316Z</time>
      </trkpt>
      <trkpt lat="44.13419" lon="5.87259">
        <ele>1067</ele>
        <time>2021-06-01T12:30:14.316Z</time>
      </trkpt>
      <trkpt lat="44.1342" lon="5.87259">
        <ele>1067</ele>
        <time>2021-06-01T12:30:15.316Z</time>
      </trkpt>
      <trkpt lat="44.1342" lon="5.8726">
        <ele>1067</ele>
        <time>2021-06-01T12:30:16.316Z</time>
      </trkpt>
      <trkpt lat="44.13421" lon="5.87261">
        <ele>1067</ele>
        <time>2021-06-01T12:30:17.316Z</time>
      </trkpt>
      <trkpt lat="44.13422" lon="5.87262">
        <ele>1067</ele>
        <time>2021-06-01T12:30:18.316Z</time>
      </trkpt>
      <trkpt lat="44.13423" lon="5.87262">
        <ele>1066</ele>
        <time>2021-06-01T12:30:19.316Z</time>
      </trkpt>
      <trkpt lat="44.13423" lon="5.87263">
        <ele>1066</ele>
        <time>2021-06-01T12:30:20.316Z</time>
      </trkpt>
      <trkpt lat="44.13424" lon="5.87263">
        <ele>1066</ele>
        <time>2021-06-01T12:30:21.316Z</time>
      </trkpt>
      <trkpt lat="44.13425" lon="5.87264">
        <ele>1066</ele>
        <time>2021-06-01T12:30:22.316Z</time>
      </trkpt>
      <trkpt lat="44.13425" lon="5.87264">
        <ele>1066</ele>
        <time>2021-06-01T12:30:23.316Z</time>
      </trkpt>
      <trkpt lat="44.13425" lon="5.87264">
        <ele>1066</ele>
        <time>2021-06-01T12:30:24.316Z</time>
      </trkpt>
      <trkpt lat="44.13426" lon="5.87264">
        <ele>1066</ele>
        <time>2021-06-01T12:30:25.316Z</time>
      </trkpt>
      <trkpt lat="44.13426" lon="5.87265">
        <ele>1066</ele>
        <time>2021-06-01T12:30:26.316Z</time>
      </trkpt>
      <trkpt lat="44.13426" lon="5.87265">
        <ele>1066</ele>
        <time>2021-06-01T12:30:27.316Z</time>
      </trkpt>
      <trkpt lat="44.13427" lon="5.87266">
        <ele>1065</ele>
        <time>2021-06-01T12:30:28.316Z</time>
      </trkpt>
      <trkpt lat="44.13428" lon="5.87266">
        <ele>1065</ele>
        <time>2021-06-01T12:30:29.316Z</time>
      </trkpt>
      <trkpt lat="44.13428" lon="5.87266">
        <ele>1065</ele>
        <time>2021-06-01T12:30:30.316Z</time>
      </trkpt>
      <trkpt lat="44.13429" lon="5.87267">
        <ele>1065</ele>
        <time>2021-06-01T12:30:31.316Z</time>
      </trkpt>
      <trkpt lat="44.13429" lon="5.87267">
        <ele>1065</ele>
        <time>2021-06-01T12:30:32.316Z</time>
      </trkpt>
      <trkpt lat="44.1343" lon="5.87268">
        <ele>1065</ele>
        <time>2021-06-01T12:30:33.316Z</time>
      </trkpt>
      <trkpt lat="44.1343" lon="5.87269">
        <ele>1065</ele>
        <time>2021-06-01T12:30:34.316Z</time>
      </trkpt>
      <trkpt lat="44.13431" lon="5.8727">
        <ele>1065</ele>
        <time>2021-06-01T12:30:35.316Z</time>
      </trkpt>
      <trkpt lat="44.13432" lon="5.8727">
        <ele>1065</ele>
        <time>2021-06-01T12:30:36.316Z</time>
      </trkpt>
      <trkpt lat="44.13432" lon="5.87271">
        <ele>1065</ele>
        <time>2021-06-01T12:30:37.316Z</time>
      </trkpt>
      <trkpt lat="44.13433" lon="5.87271">
        <ele>1064</ele>
        <time>2021-06-01T12:30:38.316Z</time>
      </trkpt>
      <trkpt lat="44.13433" lon="5.87272">
        <ele>1064</ele>
        <time>2021-06-01T12:30:39.316Z</time>
      </trkpt>
      <trkpt lat="44.13434" lon="5.87272">
        <ele>1064</ele>
        <time>2021-06-01T12:30:40.316Z</time>
      </trkpt>
      <trkpt lat="44.13434" lon="5.87273">
        <ele>1064</ele>
        <time>2021-06-01T12:30:41.316Z</time>
      </trkpt>
      <trkpt lat="44.13435" lon="5.87273">
        <ele>1064</ele>
        <time>2021-06-01T12:30:42.316Z</time>
      </trkpt>
      <trkpt lat="44.13435" lon="5.87273">
        <ele>1064</ele>
        <time>2021-06-01T12:30:43.316Z</time>
      </trkpt>
      <trkpt lat="44.13436" lon="5.87273">
        <ele>1064</ele>
        <time>2021-06-01T12:30:44.316Z</time>
      </trkpt>
      <trkpt lat="44.13436" lon="5.87273">
        <ele>1064</ele>
        <time>2021-06-01T12:30:45.316Z</time>
      </trkpt>
      <trkpt lat="44.13437" lon="5.87273">
        <ele>1063</ele>
        <time>2021-06-01T12:30:46.316Z</time>
      </trkpt>
      <trkpt lat="44.13437" lon="5.87273">
        <ele>1063</ele>
        <time>2021-06-01T12:30:47.316Z</time>
      </trkpt>
      <trkpt lat="44.13438" lon="5.87273">
        <ele>1063</ele>
        <time>2021-06-01T12:30:48.316Z</time>
      </trkpt>
      <trkpt lat="44.13438" lon="5.87273">
        <ele>1063</ele>
        <time>2021-06-01T12:30:49.316Z</time>
      </trkpt>
      <trkpt lat="44.13439" lon="5.87273">
        <ele>1063</ele>
        <time>2021-06-01T12:30:50.316Z</time>
      </trkpt>
      <trkpt lat="44.1344" lon="5.87273">
        <ele>1063</ele>
        <time>2021-06-01T12:30:51.316Z</time>
      </trkpt>
      <trkpt lat="44.1344" lon="5.87273">
        <ele>1062</ele>
        <time>2021-06-01T12:30:52.316Z</time>
      </trkpt>
      <trkpt lat="44.13441" lon="5.87273">
        <ele>1062</ele>
        <time>2021-06-01T12:30:53.316Z</time>
      </trkpt>
      <trkpt lat="44.13442" lon="5.87273">
        <ele>1062</ele>
        <time>2021-06-01T12:30:54.316Z</time>
      </trkpt>
      <trkpt lat="44.13442" lon="5.87273">
        <ele>1062</ele>
        <time>2021-06-01T12:30:55.316Z</time>
      </trkpt>
      <trkpt lat="44.13443" lon="5.87273">
        <ele>1062</ele>
        <time>2021-06-01T12:30:56.316Z</time>
      </trkpt>
      <trkpt lat="44.13443" lon="5.87273">
        <ele>1062</ele>
        <time>2021-06-01T12:30:57.316Z</time>
      </trkpt>
      <trkpt lat="44.13444" lon="5.87274">
        <ele>1062</ele>
        <time>2021-06-01T12:30:58.316Z</time>
      </trkpt>
      <trkpt lat="44.13445" lon="5.87275">
        <ele>1062</ele>
        <time>2021-06-01T12:30:59.316Z</time>
      </trkpt>
      <trkpt lat="44.13445" lon="5.87275">
        <ele>1062</ele>
        <time>2021-06-01T12:31:00.316Z</time>
      </trkpt>
      <trkpt lat="44.13445" lon="5.87275">
        <ele>1062</ele>
        <time>2021-06-01T12:31:01.316Z</time>
      </trkpt>
      <trkpt lat="44.13446" lon="5.87276">
        <ele>1062</ele>
        <time>2021-06-01T12:31:02.316Z</time>
      </trkpt>
      <trkpt lat="44.13446" lon="5.87276">
        <ele>1062</ele>
        <time>2021-06-01T12:31:03.316Z</time>
      </trkpt>
      <trkpt lat="44.13446" lon="5.87276">
        <ele>1062</ele>
        <time>2021-06-01T12:31:04.316Z</time>
      </trkpt>
      <trkpt lat="44.13446" lon="5.87276">
        <ele>1061</ele>
        <time>2021-06-01T12:31:05.316Z</time>
      </trkpt>
      <trkpt lat="44.13446" lon="5.87276">
        <ele>1061</ele>
        <time>2021-06-01T12:31:06.316Z</time>
      </trkpt>
      <trkpt lat="44.13447" lon="5.87276">
        <ele>1061</ele>
        <time>2021-06-01T12:31:07.316Z</time>
      </trkpt>
      <trkpt lat="44.13447" lon="5.87276">
        <ele>1061</ele>
        <time>2021-06-01T12:31:08.316Z</time>
      </trkpt>
      <trkpt lat="44.13447" lon="5.87276">
        <ele>1061</ele>
        <time>2021-06-01T12:31:09.316Z</time>
      </trkpt>
      <trkpt lat="44.13447" lon="5.87276">
        <ele>1061</ele>
        <time>2021-06-01T12:31:10.316Z</time>
      </trkpt>
      <trkpt lat="44.13448" lon="5.87277">
        <ele>1061</ele>
        <time>2021-06-01T12:31:11.316Z</time>
      </trkpt>
      <trkpt lat="44.13448" lon="5.87277">
        <ele>1061</ele>
        <time>2021-06-01T12:31:12.316Z</time>
      </trkpt>
      <trkpt lat="44.13448" lon="5.87277">
        <ele>1061</ele>
        <time>2021-06-01T12:31:13.316Z</time>
      </trkpt>
      <trkpt lat="44.13448" lon="5.87277">
        <ele>1061</ele>
        <time>2021-06-01T12:31:14.316Z</time>
      </trkpt>
      <trkpt lat="44.13449" lon="5.87277">
        <ele>1061</ele>
        <time>2021-06-01T12:31:15.316Z</time>
      </trkpt>
      <trkpt lat="44.13449" lon="5.87277">
        <ele>1061</ele>
        <time>2021-06-01T12:31:16.316Z</time>
      </trkpt>
      <trkpt lat="44.13449" lon="5.87277">
        <ele>1061</ele>
        <time>2021-06-01T12:31:17.316Z</time>
      </trkpt>
      <trkpt lat="44.13449" lon="5.87277">
        <ele>1061</ele>
        <time>2021-06-01T12:31:18.316Z</time>
      </trkpt>
      <trkpt lat="44.13449" lon="5.87278">
        <ele>1061</ele>
        <time>2021-06-01T12:31:19.316Z</time>
      </trkpt>
      <trkpt lat="44.1345" lon="5.87278">
        <ele>1061</ele>
        <time>2021-06-01T12:31:20.316Z</time>
      </trkpt>
      <trkpt lat="44.1345" lon="5.87278">
        <ele>1061</ele>
        <time>2021-06-01T12:31:21.316Z</time>
      </trkpt>
      <trkpt lat="44.1345" lon="5.87278">
        <ele>1061</ele>
        <time>2021-06-01T12:31:22.316Z</time>
      </trkpt>
      <trkpt lat="44.1345" lon="5.87278">
        <ele>1061</ele>
        <time>2021-06-01T12:31:23.316Z</time>
      </trkpt>
      <trkpt lat="44.1345" lon="5.87278">
        <ele>1061</ele>
        <time>2021-06-01T12:31:24.316Z</time>
      </trkpt>
      <trkpt lat="44.1345" lon="5.87278">
        <ele>1061</ele>
        <time>2021-06-01T12:31:25.316Z</time>
      </trkpt>
      <trkpt lat="44.1345" lon="5.87278">
        <ele>1061</ele>
        <time>2021-06-01T12:31:26.316Z</time>
      </trkpt>
      <trkpt lat="44.1345" lon="5.87278">
        <ele>1061</ele>
        <time>2021-06-01T12:31:27.316Z</time>
      </trkpt>
      <trkpt lat="44.1345" lon="5.87278">
        <ele>1061</ele>
        <time>2021-06-01T12:31:28.316Z</time>
      </trkpt>
      <trkpt lat="44.1345" lon="5.87278">
        <ele>1061</ele>
        <time>2021-06-01T12:31:29.316Z</time>
      </trkpt>
      <trkpt lat="44.13451" lon="5.87278">
        <ele>1061</ele>
        <time>2021-06-01T12:31:30.316Z</time>
      </trkpt>
      <trkpt lat="44.13451" lon="5.87278">
        <ele>1060</ele>
        <time>2021-06-01T12:31:31.316Z</time>
      </trkpt>
      <trkpt lat="44.13451" lon="5.87278">
        <ele>1060</ele>
        <time>2021-06-01T12:31:32.316Z</time>
      </trkpt>
      <trkpt lat="44.13451" lon="5.87278">
        <ele>1060</ele>
        <time>2021-06-01T12:31:33.316Z</time>
      </trkpt>
      <trkpt lat="44.1345" lon="5.87278">
        <ele>1060</ele>
        <time>2021-06-01T12:31:34.316Z</time>
      </trkpt>
      <trkpt lat="44.1345" lon="5.87279">
        <ele>1060</ele>
        <time>2021-06-01T12:31:35.316Z</time>
      </trkpt>
      <trkpt lat="44.1345" lon="5.87279">
        <ele>1060</ele>
        <time>2021-06-01T12:31:36.316Z</time>
      </trkpt>
      <trkpt lat="44.1345" lon="5.87279">
        <ele>1060</ele>
        <time>2021-06-01T12:31:37.316Z</time>
      </trkpt>
      <trkpt lat="44.1345" lon="5.87279">
        <ele>1060</ele>
        <time>2021-06-01T12:31:38.316Z</time>
      </trkpt>
      <trkpt lat="44.1345" lon="5.87279">
        <ele>1060</ele>
        <time>2021-06-01T12:31:39.316Z</time>
      </trkpt>
      <trkpt lat="44.13451" lon="5.87279">
        <ele>1060</ele>
        <time>2021-06-01T12:31:40.316Z</time>
      </trkpt>
      <trkpt lat="44.13451" lon="5.87279">
        <ele>1060</ele>
        <time>2021-06-01T12:31:41.316Z</time>
      </trkpt>
      <trkpt lat="44.13451" lon="5.87279">
        <ele>1060</ele>
        <time>2021-06-01T12:31:42.316Z</time>
      </trkpt>
      <trkpt lat="44.13451" lon="5.87278">
        <ele>1060</ele>
        <time>2021-06-01T12:31:43.316Z</time>
      </trkpt>
      <trkpt lat="44.13451" lon="5.87279">
        <ele>1060</ele>
        <time>2021-06-01T12:31:44.316Z</time>
      </trkpt>
      <trkpt lat="44.13451" lon="5.87279">
        <ele>1060</ele>
        <time>2021-06-01T12:31:45.316Z</time>
      </trkpt>
      <trkpt lat="44.13451" lon="5.87279">
        <ele>1060</ele>
        <time>2021-06-01T12:31:46.316Z</time>
      </trkpt>
      <trkpt lat="44.13451" lon="5.87279">
        <ele>1060</ele>
        <time>2021-06-01T12:31:47.316Z</time>
      </trkpt>
      <trkpt lat="44.13451" lon="5.87279">
        <ele>1060</ele>
        <time>2021-06-01T12:31:48.316Z</time>
      </trkpt>
      <trkpt lat="44.1345" lon="5.87279">
        <ele>1060</ele>
        <time>2021-06-01T12:31:49.316Z</time>
      </trkpt>
      <trkpt lat="44.1345" lon="5.87279">
        <ele>1060</ele>
        <time>2021-06-01T12:31:50.316Z</time>
      </trkpt>
      <trkpt lat="44.13449" lon="5.87279">
        <ele>1060</ele>
        <time>2021-06-01T12:31:51.316Z</time>
      </trkpt>
      <trkpt lat="44.13448" lon="5.87279">
        <ele>1060</ele>
        <time>2021-06-01T12:31:52.316Z</time>
      </trkpt>
      <trkpt lat="44.13447" lon="5.87279">
        <ele>1060</ele>
        <time>2021-06-01T12:31:53.316Z</time>
      </trkpt>
      <trkpt lat="44.13446" lon="5.87279">
        <ele>1060</ele>
        <time>2021-06-01T12:31:54.316Z</time>
      </trkpt>
      <trkpt lat="44.13445" lon="5.8728">
        <ele>1060</ele>
        <time>2021-06-01T12:31:55.316Z</time>
      </trkpt>
      <trkpt lat="44.13445" lon="5.8728">
        <ele>1060</ele>
        <time>2021-06-01T12:31:56.316Z</time>
      </trkpt>
      <trkpt lat="44.13444" lon="5.8728">
        <ele>1060</ele>
        <time>2021-06-01T12:31:57.316Z</time>
      </trkpt>
      <trkpt lat="44.13443" lon="5.87281">
        <ele>1059</ele>
        <time>2021-06-01T12:31:58.316Z</time>
      </trkpt>
      <trkpt lat="44.13442" lon="5.87281">
        <ele>1059</ele>
        <time>2021-06-01T12:31:59.316Z</time>
      </trkpt>
      <trkpt lat="44.13441" lon="5.8728">
        <ele>1059</ele>
        <time>2021-06-01T12:32:00.316Z</time>
      </trkpt>
      <trkpt lat="44.1344" lon="5.8728">
        <ele>1059</ele>
        <time>2021-06-01T12:32:01.316Z</time>
      </trkpt>
      <trkpt lat="44.1344" lon="5.8728">
        <ele>1059</ele>
        <time>2021-06-01T12:32:02.316Z</time>
      </trkpt>
      <trkpt lat="44.13439" lon="5.87279">
        <ele>1059</ele>
        <time>2021-06-01T12:32:03.316Z</time>
      </trkpt>
      <trkpt lat="44.13438" lon="5.87279">
        <ele>1059</ele>
        <time>2021-06-01T12:32:04.316Z</time>
      </trkpt>
      <trkpt lat="44.13437" lon="5.87279">
        <ele>1059</ele>
        <time>2021-06-01T12:32:05.316Z</time>
      </trkpt>
      <trkpt lat="44.13437" lon="5.87279">
        <ele>1059</ele>
        <time>2021-06-01T12:32:06.316Z</time>
      </trkpt>
      <trkpt lat="44.13436" lon="5.87278">
        <ele>1059</ele>
        <time>2021-06-01T12:32:07.316Z</time>
      </trkpt>
      <trkpt lat="44.13435" lon="5.87278">
        <ele>1059</ele>
        <time>2021-06-01T12:32:08.316Z</time>
      </trkpt>
      <trkpt lat="44.13434" lon="5.87278">
        <ele>1059</ele>
        <time>2021-06-01T12:32:09.316Z</time>
      </trkpt>
      <trkpt lat="44.13433" lon="5.87277">
        <ele>1059</ele>
        <time>2021-06-01T12:32:10.316Z</time>
      </trkpt>
      <trkpt lat="44.13432" lon="5.87277">
        <ele>1059</ele>
        <time>2021-06-01T12:32:11.316Z</time>
      </trkpt>
      <trkpt lat="44.13431" lon="5.87277">
        <ele>1059</ele>
        <time>2021-06-01T12:32:12.316Z</time>
      </trkpt>
      <trkpt lat="44.1343" lon="5.87276">
        <ele>1059</ele>
        <time>2021-06-01T12:32:13.316Z</time>
      </trkpt>
      <trkpt lat="44.13429" lon="5.87276">
        <ele>1059</ele>
        <time>2021-06-01T12:32:14.316Z</time>
      </trkpt>
      <trkpt lat="44.13428" lon="5.87276">
        <ele>1059</ele>
        <time>2021-06-01T12:32:15.316Z</time>
      </trkpt>
      <trkpt lat="44.13427" lon="5.87275">
        <ele>1059</ele>
        <time>2021-06-01T12:32:16.316Z</time>
      </trkpt>
      <trkpt lat="44.13426" lon="5.87275">
        <ele>1059</ele>
        <time>2021-06-01T12:32:17.316Z</time>
      </trkpt>
      <trkpt lat="44.13426" lon="5.87275">
        <ele>1059</ele>
        <time>2021-06-01T12:32:18.316Z</time>
      </trkpt>
      <trkpt lat="44.13425" lon="5.87274">
        <ele>1059</ele>
        <time>2021-06-01T12:32:19.316Z</time>
      </trkpt>
      <trkpt lat="44.13424" lon="5.87273">
        <ele>1059</ele>
        <time>2021-06-01T12:32:20.316Z</time>
      </trkpt>
      <trkpt lat="44.13423" lon="5.87273">
        <ele>1059</ele>
        <time>2021-06-01T12:32:21.316Z</time>
      </trkpt>
      <trkpt lat="44.13423" lon="5.87272">
        <ele>1059</ele>
        <time>2021-06-01T12:32:22.316Z</time>
      </trkpt>
      <trkpt lat="44.13422" lon="5.87271">
        <ele>1059</ele>
        <time>2021-06-01T12:32:23.316Z</time>
      </trkpt>
      <trkpt lat="44.13421" lon="5.87269">
        <ele>1059</ele>
        <time>2021-06-01T12:32:24.316Z</time>
      </trkpt>
      <trkpt lat="44.13421" lon="5.87269">
        <ele>1058</ele>
        <time>2021-06-01T12:32:25.316Z</time>
      </trkpt>
      <trkpt lat="44.13419" lon="5.87268">
        <ele>1058</ele>
        <time>2021-06-01T12:32:26.316Z</time>
      </trkpt>
      <trkpt lat="44.13419" lon="5.87267">
        <ele>1058</ele>
        <time>2021-06-01T12:32:27.316Z</time>
      </trkpt>
      <trkpt lat="44.13418" lon="5.87266">
        <ele>1058</ele>
        <time>2021-06-01T12:32:28.316Z</time>
      </trkpt>
      <trkpt lat="44.13417" lon="5.87265">
        <ele>1058</ele>
        <time>2021-06-01T12:32:29.316Z</time>
      </trkpt>
      <trkpt lat="44.13416" lon="5.87264">
        <ele>1058</ele>
        <time>2021-06-01T12:32:30.316Z</time>
      </trkpt>
      <trkpt lat="44.13415" lon="5.87263">
        <ele>1058</ele>
        <time>2021-06-01T12:32:31.316Z</time>
      </trkpt>
      <trkpt lat="44.13414" lon="5.87262">
        <ele>1058</ele>
        <time>2021-06-01T12:32:32.316Z</time>
      </trkpt>
      <trkpt lat="44.13413" lon="5.87262">
        <ele>1058</ele>
        <time>2021-06-01T12:32:33.316Z</time>
      </trkpt>
      <trkpt lat="44.13412" lon="5.87261">
        <ele>1058</ele>
        <time>2021-06-01T12:32:34.316Z</time>
      </trkpt>
      <trkpt lat="44.13411" lon="5.8726">
        <ele>1058</ele>
        <time>2021-06-01T12:32:35.316Z</time>
      </trkpt>
      <trkpt lat="44.1341" lon="5.87259">
        <ele>1058</ele>
        <time>2021-06-01T12:32:36.316Z</time>
      </trkpt>
      <trkpt lat="44.13409" lon="5.87259">
        <ele>1057</ele>
        <time>2021-06-01T12:32:37.316Z</time>
      </trkpt>
      <trkpt lat="44.13409" lon="5.87257">
        <ele>1057</ele>
        <time>2021-06-01T12:32:38.316Z</time>
      </trkpt>
      <trkpt lat="44.13408" lon="5.87256">
        <ele>1057</ele>
        <time>2021-06-01T12:32:39.316Z</time>
      </trkpt>
      <trkpt lat="44.13407" lon="5.87256">
        <ele>1057</ele>
        <time>2021-06-01T12:32:40.316Z</time>
      </trkpt>
      <trkpt lat="44.13406" lon="5.87255">
        <ele>1057</ele>
        <time>2021-06-01T12:32:41.316Z</time>
      </trkpt>
      <trkpt lat="44.13406" lon="5.87254">
        <ele>1057</ele>
        <time>2021-06-01T12:32:42.316Z</time>
      </trkpt>
      <trkpt lat="44.13405" lon="5.87253">
        <ele>1057</ele>
        <time>2021-06-01T12:32:43.316Z</time>
      </trkpt>
      <trkpt lat="44.13404" lon="5.87252">
        <ele>1057</ele>
        <time>2021-06-01T12:32:44.316Z</time>
      </trkpt>
      <trkpt lat="44.13403" lon="5.87251">
        <ele>1057</ele>
        <time>2021-06-01T12:32:45.316Z</time>
      </trkpt>
      <trkpt lat="44.13403" lon="5.8725">
        <ele>1057</ele>
        <time>2021-06-01T12:32:46.316Z</time>
      </trkpt>
      <trkpt lat="44.13403" lon="5.87249">
        <ele>1057</ele>
        <time>2021-06-01T12:32:47.316Z</time>
      </trkpt>
      <trkpt lat="44.13402" lon="5.87248">
        <ele>1057</ele>
        <time>2021-06-01T12:32:48.316Z</time>
      </trkpt>
      <trkpt lat="44.13401" lon="5.87248">
        <ele>1057</ele>
        <time>2021-06-01T12:32:49.316Z</time>
      </trkpt>
      <trkpt lat="44.13401" lon="5.87247">
        <ele>1057</ele>
        <time>2021-06-01T12:32:50.316Z</time>
      </trkpt>
      <trkpt lat="44.134" lon="5.87246">
        <ele>1058</ele>
        <time>2021-06-01T12:32:51.316Z</time>
      </trkpt>
      <trkpt lat="44.13399" lon="5.87245">
        <ele>1058</ele>
        <time>2021-06-01T12:32:52.316Z</time>
      </trkpt>
      <trkpt lat="44.13398" lon="5.87244">
        <ele>1058</ele>
        <time>2021-06-01T12:32:53.316Z</time>
      </trkpt>
      <trkpt lat="44.13397" lon="5.87243">
        <ele>1058</ele>
        <time>2021-06-01T12:32:54.316Z</time>
      </trkpt>
      <trkpt lat="44.13396" lon="5.87243">
        <ele>1058</ele>
        <time>2021-06-01T12:32:55.316Z</time>
      </trkpt>
      <trkpt lat="44.13395" lon="5.87243">
        <ele>1058</ele>
        <time>2021-06-01T12:32:56.316Z</time>
      </trkpt>
      <trkpt lat="44.13394" lon="5.87242">
        <ele>1058</ele>
        <time>2021-06-01T12:32:57.316Z</time>
      </trkpt>
      <trkpt lat="44.13393" lon="5.87241">
        <ele>1058</ele>
        <time>2021-06-01T12:32:58.316Z</time>
      </trkpt>
      <trkpt lat="44.13392" lon="5.8724">
        <ele>1058</ele>
        <time>2021-06-01T12:32:59.316Z</time>
      </trkpt>
      <trkpt lat="44.13391" lon="5.8724">
        <ele>1059</ele>
        <time>2021-06-01T12:33:00.316Z</time>
      </trkpt>
      <trkpt lat="44.1339" lon="5.87239">
        <ele>1059</ele>
        <time>2021-06-01T12:33:01.316Z</time>
      </trkpt>
      <trkpt lat="44.13388" lon="5.87239">
        <ele>1059</ele>
        <time>2021-06-01T12:33:02.316Z</time>
      </trkpt>
      <trkpt lat="44.13387" lon="5.87238">
        <ele>1059</ele>
        <time>2021-06-01T12:33:03.316Z</time>
      </trkpt>
      <trkpt lat="44.13386" lon="5.87237">
        <ele>1059</ele>
        <time>2021-06-01T12:33:04.316Z</time>
      </trkpt>
      <trkpt lat="44.13385" lon="5.87235">
        <ele>1059</ele>
        <time>2021-06-01T12:33:05.316Z</time>
      </trkpt>
      <trkpt lat="44.13384" lon="5.87234">
        <ele>1059</ele>
        <time>2021-06-01T12:33:06.316Z</time>
      </trkpt>
      <trkpt lat="44.13383" lon="5.87233">
        <ele>1059</ele>
        <time>2021-06-01T12:33:07.316Z</time>
      </trkpt>
      <trkpt lat="44.13382" lon="5.87233">
        <ele>1059</ele>
        <time>2021-06-01T12:33:08.316Z</time>
      </trkpt>
      <trkpt lat="44.13382" lon="5.87232">
        <ele>1059</ele>
        <time>2021-06-01T12:33:09.316Z</time>
      </trkpt>
      <trkpt lat="44.13381" lon="5.87231">
        <ele>1059</ele>
        <time>2021-06-01T12:33:10.316Z</time>
      </trkpt>
      <trkpt lat="44.1338" lon="5.8723">
        <ele>1059</ele>
        <time>2021-06-01T12:33:11.316Z</time>
      </trkpt>
      <trkpt lat="44.13379" lon="5.87228">
        <ele>1060</ele>
        <time>2021-06-01T12:33:12.316Z</time>
      </trkpt>
      <trkpt lat="44.13378" lon="5.87227">
        <ele>1060</ele>
        <time>2021-06-01T12:33:13.316Z</time>
      </trkpt>
      <trkpt lat="44.13378" lon="5.87226">
        <ele>1060</ele>
        <time>2021-06-01T12:33:14.316Z</time>
      </trkpt>
      <trkpt lat="44.13377" lon="5.87225">
        <ele>1060</ele>
        <time>2021-06-01T12:33:15.316Z</time>
      </trkpt>
      <trkpt lat="44.13376" lon="5.87225">
        <ele>1060</ele>
        <time>2021-06-01T12:33:16.316Z</time>
      </trkpt>
      <trkpt lat="44.13375" lon="5.87224">
        <ele>1060</ele>
        <time>2021-06-01T12:33:17.316Z</time>
      </trkpt>
      <trkpt lat="44.13374" lon="5.87223">
        <ele>1060</ele>
        <time>2021-06-01T12:33:18.316Z</time>
      </trkpt>
      <trkpt lat="44.13374" lon="5.87222">
        <ele>1060</ele>
        <time>2021-06-01T12:33:19.316Z</time>
      </trkpt>
      <trkpt lat="44.13373" lon="5.87221">
        <ele>1060</ele>
        <time>2021-06-01T12:33:20.316Z</time>
      </trkpt>
      <trkpt lat="44.13372" lon="5.87219">
        <ele>1061</ele>
        <time>2021-06-01T12:33:21.316Z</time>
      </trkpt>
      <trkpt lat="44.13371" lon="5.87218">
        <ele>1061</ele>
        <time>2021-06-01T12:33:22.316Z</time>
      </trkpt>
      <trkpt lat="44.1337" lon="5.87217">
        <ele>1061</ele>
        <time>2021-06-01T12:33:23.316Z</time>
      </trkpt>
      <trkpt lat="44.13369" lon="5.87216">
        <ele>1061</ele>
        <time>2021-06-01T12:33:24.316Z</time>
      </trkpt>
      <trkpt lat="44.13368" lon="5.87215">
        <ele>1061</ele>
        <time>2021-06-01T12:33:25.316Z</time>
      </trkpt>
      <trkpt lat="44.13367" lon="5.87214">
        <ele>1061</ele>
        <time>2021-06-01T12:33:26.316Z</time>
      </trkpt>
      <trkpt lat="44.13367" lon="5.87213">
        <ele>1061</ele>
        <time>2021-06-01T12:33:27.316Z</time>
      </trkpt>
      <trkpt lat="44.13366" lon="5.87212">
        <ele>1061</ele>
        <time>2021-06-01T12:33:28.316Z</time>
      </trkpt>
      <trkpt lat="44.13365" lon="5.87211">
        <ele>1062</ele>
        <time>2021-06-01T12:33:29.316Z</time>
      </trkpt>
      <trkpt lat="44.13364" lon="5.8721">
        <ele>1062</ele>
        <time>2021-06-01T12:33:30.316Z</time>
      </trkpt>
      <trkpt lat="44.13362" lon="5.87209">
        <ele>1062</ele>
        <time>2021-06-01T12:33:31.316Z</time>
      </trkpt>
      <trkpt lat="44.13361" lon="5.87209">
        <ele>1062</ele>
        <time>2021-06-01T12:33:32.316Z</time>
      </trkpt>
      <trkpt lat="44.1336" lon="5.87208">
        <ele>1062</ele>
        <time>2021-06-01T12:33:33.316Z</time>
      </trkpt>
      <trkpt lat="44.13359" lon="5.87207">
        <ele>1062</ele>
        <time>2021-06-01T12:33:34.316Z</time>
      </trkpt>
      <trkpt lat="44.13358" lon="5.87206">
        <ele>1063</ele>
        <time>2021-06-01T12:33:35.316Z</time>
      </trkpt>
      <trkpt lat="44.13357" lon="5.87205">
        <ele>1063</ele>
        <time>2021-06-01T12:33:36.316Z</time>
      </trkpt>
      <trkpt lat="44.13356" lon="5.87204">
        <ele>1063</ele>
        <time>2021-06-01T12:33:37.316Z</time>
      </trkpt>
      <trkpt lat="44.13355" lon="5.87203">
        <ele>1063</ele>
        <time>2021-06-01T12:33:38.316Z</time>
      </trkpt>
      <trkpt lat="44.13355" lon="5.87202">
        <ele>1063</ele>
        <time>2021-06-01T12:33:39.316Z</time>
      </trkpt>
      <trkpt lat="44.13354" lon="5.872">
        <ele>1063</ele>
        <time>2021-06-01T12:33:40.316Z</time>
      </trkpt>
      <trkpt lat="44.13353" lon="5.87199">
        <ele>1063</ele>
        <time>2021-06-01T12:33:41.316Z</time>
      </trkpt>
      <trkpt lat="44.13352" lon="5.87198">
        <ele>1063</ele>
        <time>2021-06-01T12:33:42.316Z</time>
      </trkpt>
      <trkpt lat="44.13352" lon="5.87196">
        <ele>1064</ele>
        <time>2021-06-01T12:33:43.316Z</time>
      </trkpt>
      <trkpt lat="44.13351" lon="5.87195">
        <ele>1064</ele>
        <time>2021-06-01T12:33:44.316Z</time>
      </trkpt>
      <trkpt lat="44.1335" lon="5.87193">
        <ele>1064</ele>
        <time>2021-06-01T12:33:45.316Z</time>
      </trkpt>
      <trkpt lat="44.13349" lon="5.87192">
        <ele>1064</ele>
        <time>2021-06-01T12:33:46.316Z</time>
      </trkpt>
      <trkpt lat="44.13348" lon="5.87191">
        <ele>1064</ele>
        <time>2021-06-01T12:33:47.316Z</time>
      </trkpt>
      <trkpt lat="44.13347" lon="5.87189">
        <ele>1064</ele>
        <time>2021-06-01T12:33:48.316Z</time>
      </trkpt>
      <trkpt lat="44.13347" lon="5.87188">
        <ele>1064</ele>
        <time>2021-06-01T12:33:49.316Z</time>
      </trkpt>
      <trkpt lat="44.13346" lon="5.87188">
        <ele>1064</ele>
        <time>2021-06-01T12:33:50.316Z</time>
      </trkpt>
      <trkpt lat="44.13345" lon="5.87187">
        <ele>1064</ele>
        <time>2021-06-01T12:33:51.316Z</time>
      </trkpt>
      <trkpt lat="44.13345" lon="5.87186">
        <ele>1064</ele>
        <time>2021-06-01T12:33:52.316Z</time>
      </trkpt>
      <trkpt lat="44.13344" lon="5.87185">
        <ele>1064</ele>
        <time>2021-06-01T12:33:53.316Z</time>
      </trkpt>
      <trkpt lat="44.13343" lon="5.87183">
        <ele>1064</ele>
        <time>2021-06-01T12:33:54.316Z</time>
      </trkpt>
      <trkpt lat="44.13343" lon="5.87182">
        <ele>1064</ele>
        <time>2021-06-01T12:33:55.316Z</time>
      </trkpt>
      <trkpt lat="44.13342" lon="5.8718">
        <ele>1064</ele>
        <time>2021-06-01T12:33:56.316Z</time>
      </trkpt>
      <trkpt lat="44.13342" lon="5.87178">
        <ele>1064</ele>
        <time>2021-06-01T12:33:57.316Z</time>
      </trkpt>
      <trkpt lat="44.13341" lon="5.87177">
        <ele>1064</ele>
        <time>2021-06-01T12:33:58.316Z</time>
      </trkpt>
      <trkpt lat="44.13341" lon="5.87175">
        <ele>1064</ele>
        <time>2021-06-01T12:33:59.316Z</time>
      </trkpt>
      <trkpt lat="44.1334" lon="5.87174">
        <ele>1064</ele>
        <time>2021-06-01T12:34:00.316Z</time>
      </trkpt>
      <trkpt lat="44.13339" lon="5.87173">
        <ele>1064</ele>
        <time>2021-06-01T12:34:01.316Z</time>
      </trkpt>
      <trkpt lat="44.13339" lon="5.87171">
        <ele>1064</ele>
        <time>2021-06-01T12:34:02.316Z</time>
      </trkpt>
      <trkpt lat="44.13338" lon="5.8717">
        <ele>1063</ele>
        <time>2021-06-01T12:34:03.316Z</time>
      </trkpt>
      <trkpt lat="44.13337" lon="5.87169">
        <ele>1063</ele>
        <time>2021-06-01T12:34:04.316Z</time>
      </trkpt>
      <trkpt lat="44.13336" lon="5.87167">
        <ele>1063</ele>
        <time>2021-06-01T12:34:05.316Z</time>
      </trkpt>
      <trkpt lat="44.13336" lon="5.87165">
        <ele>1063</ele>
        <time>2021-06-01T12:34:06.316Z</time>
      </trkpt>
      <trkpt lat="44.13335" lon="5.87164">
        <ele>1063</ele>
        <time>2021-06-01T12:34:07.316Z</time>
      </trkpt>
      <trkpt lat="44.13334" lon="5.87162">
        <ele>1062</ele>
        <time>2021-06-01T12:34:08.316Z</time>
      </trkpt>
      <trkpt lat="44.13333" lon="5.87161">
        <ele>1062</ele>
        <time>2021-06-01T12:34:09.316Z</time>
      </trkpt>
      <trkpt lat="44.13332" lon="5.8716">
        <ele>1062</ele>
        <time>2021-06-01T12:34:10.316Z</time>
      </trkpt>
      <trkpt lat="44.13332" lon="5.87159">
        <ele>1062</ele>
        <time>2021-06-01T12:34:11.316Z</time>
      </trkpt>
      <trkpt lat="44.13331" lon="5.87158">
        <ele>1062</ele>
        <time>2021-06-01T12:34:12.316Z</time>
      </trkpt>
      <trkpt lat="44.1333" lon="5.87157">
        <ele>1062</ele>
        <time>2021-06-01T12:34:13.316Z</time>
      </trkpt>
      <trkpt lat="44.13329" lon="5.87156">
        <ele>1061</ele>
        <time>2021-06-01T12:34:14.316Z</time>
      </trkpt>
      <trkpt lat="44.13328" lon="5.87154">
        <ele>1061</ele>
        <time>2021-06-01T12:34:15.316Z</time>
      </trkpt>
      <trkpt lat="44.13327" lon="5.87153">
        <ele>1061</ele>
        <time>2021-06-01T12:34:16.316Z</time>
      </trkpt>
      <trkpt lat="44.13326" lon="5.87152">
        <ele>1061</ele>
        <time>2021-06-01T12:34:17.316Z</time>
      </trkpt>
      <trkpt lat="44.13326" lon="5.87151">
        <ele>1061</ele>
        <time>2021-06-01T12:34:18.316Z</time>
      </trkpt>
      <trkpt lat="44.13325" lon="5.8715">
        <ele>1060</ele>
        <time>2021-06-01T12:34:19.316Z</time>
      </trkpt>
      <trkpt lat="44.13324" lon="5.87148">
        <ele>1060</ele>
        <time>2021-06-01T12:34:20.316Z</time>
      </trkpt>
      <trkpt lat="44.13323" lon="5.87147">
        <ele>1060</ele>
        <time>2021-06-01T12:34:21.316Z</time>
      </trkpt>
      <trkpt lat="44.13322" lon="5.87146">
        <ele>1060</ele>
        <time>2021-06-01T12:34:22.316Z</time>
      </trkpt>
      <trkpt lat="44.13321" lon="5.87144">
        <ele>1060</ele>
        <time>2021-06-01T12:34:23.316Z</time>
      </trkpt>
      <trkpt lat="44.1332" lon="5.87143">
        <ele>1059</ele>
        <time>2021-06-01T12:34:24.316Z</time>
      </trkpt>
      <trkpt lat="44.1332" lon="5.87141">
        <ele>1059</ele>
        <time>2021-06-01T12:34:25.316Z</time>
      </trkpt>
      <trkpt lat="44.13319" lon="5.87139">
        <ele>1058</ele>
        <time>2021-06-01T12:34:26.316Z</time>
      </trkpt>
      <trkpt lat="44.13318" lon="5.87138">
        <ele>1058</ele>
        <time>2021-06-01T12:34:27.316Z</time>
      </trkpt>
      <trkpt lat="44.13317" lon="5.87136">
        <ele>1058</ele>
        <time>2021-06-01T12:34:28.316Z</time>
      </trkpt>
      <trkpt lat="44.13317" lon="5.87135">
        <ele>1057</ele>
        <time>2021-06-01T12:34:29.316Z</time>
      </trkpt>
      <trkpt lat="44.13316" lon="5.87133">
        <ele>1057</ele>
        <time>2021-06-01T12:34:30.316Z</time>
      </trkpt>
      <trkpt lat="44.13315" lon="5.87131">
        <ele>1057</ele>
        <time>2021-06-01T12:34:31.316Z</time>
      </trkpt>
      <trkpt lat="44.13314" lon="5.87129">
        <ele>1056</ele>
        <time>2021-06-01T12:34:32.316Z</time>
      </trkpt>
      <trkpt lat="44.13313" lon="5.87128">
        <ele>1056</ele>
        <time>2021-06-01T12:34:33.316Z</time>
      </trkpt>
      <trkpt lat="44.13313" lon="5.87126">
        <ele>1056</ele>
        <time>2021-06-01T12:34:34.316Z</time>
      </trkpt>
      <trkpt lat="44.13312" lon="5.87125">
        <ele>1055</ele>
        <time>2021-06-01T12:34:35.316Z</time>
      </trkpt>
      <trkpt lat="44.13312" lon="5.87123">
        <ele>1055</ele>
        <time>2021-06-01T12:34:36.316Z</time>
      </trkpt>
      <trkpt lat="44.13311" lon="5.87121">
        <ele>1055</ele>
        <time>2021-06-01T12:34:37.316Z</time>
      </trkpt>
      <trkpt lat="44.13311" lon="5.87119">
        <ele>1055</ele>
        <time>2021-06-01T12:34:38.316Z</time>
      </trkpt>
      <trkpt lat="44.1331" lon="5.87117">
        <ele>1055</ele>
        <time>2021-06-01T12:34:39.316Z</time>
      </trkpt>
      <trkpt lat="44.13309" lon="5.87115">
        <ele>1055</ele>
        <time>2021-06-01T12:34:40.316Z</time>
      </trkpt>
      <trkpt lat="44.13309" lon="5.87114">
        <ele>1055</ele>
        <time>2021-06-01T12:34:41.316Z</time>
      </trkpt>
      <trkpt lat="44.13308" lon="5.87112">
        <ele>1055</ele>
        <time>2021-06-01T12:34:42.316Z</time>
      </trkpt>
      <trkpt lat="44.13308" lon="5.8711">
        <ele>1055</ele>
        <time>2021-06-01T12:34:43.316Z</time>
      </trkpt>
      <trkpt lat="44.13307" lon="5.87109">
        <ele>1055</ele>
        <time>2021-06-01T12:34:44.316Z</time>
      </trkpt>
      <trkpt lat="44.13307" lon="5.87107">
        <ele>1054</ele>
        <time>2021-06-01T12:34:45.316Z</time>
      </trkpt>
      <trkpt lat="44.13307" lon="5.87106">
        <ele>1054</ele>
        <time>2021-06-01T12:34:46.316Z</time>
      </trkpt>
      <trkpt lat="44.13306" lon="5.87104">
        <ele>1054</ele>
        <time>2021-06-01T12:34:47.316Z</time>
      </trkpt>
      <trkpt lat="44.13305" lon="5.87103">
        <ele>1054</ele>
        <time>2021-06-01T12:34:48.316Z</time>
      </trkpt>
      <trkpt lat="44.13304" lon="5.87102">
        <ele>1054</ele>
        <time>2021-06-01T12:34:49.316Z</time>
      </trkpt>
      <trkpt lat="44.13303" lon="5.87101">
        <ele>1054</ele>
        <time>2021-06-01T12:34:50.316Z</time>
      </trkpt>
      <trkpt lat="44.13303" lon="5.871">
        <ele>1054</ele>
        <time>2021-06-01T12:34:51.316Z</time>
      </trkpt>
      <trkpt lat="44.13302" lon="5.871">
        <ele>1055</ele>
        <time>2021-06-01T12:34:52.316Z</time>
      </trkpt>
      <trkpt lat="44.13302" lon="5.871">
        <ele>1055</ele>
        <time>2021-06-01T12:34:53.316Z</time>
      </trkpt>
      <trkpt lat="44.13302" lon="5.87099">
        <ele>1055</ele>
        <time>2021-06-01T12:34:54.316Z</time>
      </trkpt>
      <trkpt lat="44.13301" lon="5.87099">
        <ele>1055</ele>
        <time>2021-06-01T12:34:55.316Z</time>
      </trkpt>
      <trkpt lat="44.13301" lon="5.87099">
        <ele>1055</ele>
        <time>2021-06-01T12:34:56.316Z</time>
      </trkpt>
      <trkpt lat="44.13301" lon="5.871">
        <ele>1055</ele>
        <time>2021-06-01T12:34:57.316Z</time>
      </trkpt>
      <trkpt lat="44.133" lon="5.871">
        <ele>1055</ele>
        <time>2021-06-01T12:34:58.316Z</time>
      </trkpt>
      <trkpt lat="44.133" lon="5.871">
        <ele>1055</ele>
        <time>2021-06-01T12:34:59.316Z</time>
      </trkpt>
      <trkpt lat="44.133" lon="5.871">
        <ele>1055</ele>
        <time>2021-06-01T12:35:00.316Z</time>
      </trkpt>
      <trkpt lat="44.133" lon="5.871">
        <ele>1055</ele>
        <time>2021-06-01T12:35:01.316Z</time>
      </trkpt>
      <trkpt lat="44.133" lon="5.871">
        <ele>1055</ele>
        <time>2021-06-01T12:35:02.316Z</time>
      </trkpt>
      <trkpt lat="44.133" lon="5.871">
        <ele>1055</ele>
        <time>2021-06-01T12:35:03.316Z</time>
      </trkpt>
      <trkpt lat="44.133" lon="5.871">
        <ele>1055</ele>
        <time>2021-06-01T12:35:04.316Z</time>
      </trkpt>
      <trkpt lat="44.133" lon="5.87099">
        <ele>1055</ele>
        <time>2021-06-01T12:35:05.316Z</time>
      </trkpt>
      <trkpt lat="44.13299" lon="5.871">
        <ele>1055</ele>
        <time>2021-06-01T12:35:06.316Z</time>
      </trkpt>
      <trkpt lat="44.13299" lon="5.871">
        <ele>1055</ele>
        <time>2021-06-01T12:35:07.316Z</time>
      </trkpt>
      <trkpt lat="44.13299" lon="5.871">
        <ele>1055</ele>
        <time>2021-06-01T12:35:08.316Z</time>
      </trkpt>
      <trkpt lat="44.13299" lon="5.87101">
        <ele>1055</ele>
        <time>2021-06-01T12:35:09.316Z</time>
      </trkpt>
      <trkpt lat="44.13298" lon="5.87102">
        <ele>1055</ele>
        <time>2021-06-01T12:35:10.316Z</time>
      </trkpt>
      <trkpt lat="44.13297" lon="5.87103">
        <ele>1056</ele>
        <time>2021-06-01T12:35:11.316Z</time>
      </trkpt>
      <trkpt lat="44.13297" lon="5.87104">
        <ele>1056</ele>
        <time>2021-06-01T12:35:12.316Z</time>
      </trkpt>
      <trkpt lat="44.13296" lon="5.87105">
        <ele>1056</ele>
        <time>2021-06-01T12:35:13.316Z</time>
      </trkpt>
      <trkpt lat="44.13295" lon="5.87106">
        <ele>1056</ele>
        <time>2021-06-01T12:35:14.316Z</time>
      </trkpt>
      <trkpt lat="44.13295" lon="5.87107">
        <ele>1056</ele>
        <time>2021-06-01T12:35:15.316Z</time>
      </trkpt>
      <trkpt lat="44.13294" lon="5.87108">
        <ele>1056</ele>
        <time>2021-06-01T12:35:16.316Z</time>
      </trkpt>
      <trkpt lat="44.13293" lon="5.87109">
        <ele>1056</ele>
        <time>2021-06-01T12:35:17.316Z</time>
      </trkpt>
      <trkpt lat="44.13292" lon="5.87109">
        <ele>1056</ele>
        <time>2021-06-01T12:35:18.316Z</time>
      </trkpt>
      <trkpt lat="44.13291" lon="5.8711">
        <ele>1056</ele>
        <time>2021-06-01T12:35:19.316Z</time>
      </trkpt>
      <trkpt lat="44.13291" lon="5.87111">
        <ele>1056</ele>
        <time>2021-06-01T12:35:20.316Z</time>
      </trkpt>
      <trkpt lat="44.1329" lon="5.87111">
        <ele>1056</ele>
        <time>2021-06-01T12:35:21.316Z</time>
      </trkpt>
      <trkpt lat="44.13289" lon="5.87112">
        <ele>1056</ele>
        <time>2021-06-01T12:35:22.316Z</time>
      </trkpt>
      <trkpt lat="44.13288" lon="5.87113">
        <ele>1057</ele>
        <time>2021-06-01T12:35:23.316Z</time>
      </trkpt>
      <trkpt lat="44.13287" lon="5.87113">
        <ele>1057</ele>
        <time>2021-06-01T12:35:24.316Z</time>
      </trkpt>
      <trkpt lat="44.13287" lon="5.87114">
        <ele>1057</ele>
        <time>2021-06-01T12:35:25.316Z</time>
      </trkpt>
      <trkpt lat="44.13286" lon="5.87115">
        <ele>1056</ele>
        <time>2021-06-01T12:35:26.316Z</time>
      </trkpt>
      <trkpt lat="44.13285" lon="5.87116">
        <ele>1056</ele>
        <time>2021-06-01T12:35:27.316Z</time>
      </trkpt>
      <trkpt lat="44.13285" lon="5.87117">
        <ele>1056</ele>
        <time>2021-06-01T12:35:28.316Z</time>
      </trkpt>
      <trkpt lat="44.13284" lon="5.87118">
        <ele>1056</ele>
        <time>2021-06-01T12:35:29.316Z</time>
      </trkpt>
      <trkpt lat="44.13283" lon="5.87119">
        <ele>1056</ele>
        <time>2021-06-01T12:35:30.316Z</time>
      </trkpt>
      <trkpt lat="44.13283" lon="5.8712">
        <ele>1056</ele>
        <time>2021-06-01T12:35:31.316Z</time>
      </trkpt>
      <trkpt lat="44.13282" lon="5.87122">
        <ele>1056</ele>
        <time>2021-06-01T12:35:32.316Z</time>
      </trkpt>
      <trkpt lat="44.13282" lon="5.87123">
        <ele>1056</ele>
        <time>2021-06-01T12:35:33.316Z</time>
      </trkpt>
      <trkpt lat="44.13281" lon="5.87124">
        <ele>1056</ele>
        <time>2021-06-01T12:35:34.316Z</time>
      </trkpt>
      <trkpt lat="44.13281" lon="5.87126">
        <ele>1056</ele>
        <time>2021-06-01T12:35:35.316Z</time>
      </trkpt>
      <trkpt lat="44.1328" lon="5.87127">
        <ele>1056</ele>
        <time>2021-06-01T12:35:36.316Z</time>
      </trkpt>
      <trkpt lat="44.13279" lon="5.87128">
        <ele>1056</ele>
        <time>2021-06-01T12:35:37.316Z</time>
      </trkpt>
      <trkpt lat="44.13279" lon="5.87129">
        <ele>1057</ele>
        <time>2021-06-01T12:35:38.316Z</time>
      </trkpt>
      <trkpt lat="44.13278" lon="5.87131">
        <ele>1057</ele>
        <time>2021-06-01T12:35:39.316Z</time>
      </trkpt>
      <trkpt lat="44.13277" lon="5.87132">
        <ele>1057</ele>
        <time>2021-06-01T12:35:40.316Z</time>
      </trkpt>
      <trkpt lat="44.13276" lon="5.87133">
        <ele>1057</ele>
        <time>2021-06-01T12:35:41.316Z</time>
      </trkpt>
      <trkpt lat="44.13275" lon="5.87134">
        <ele>1057</ele>
        <time>2021-06-01T12:35:42.316Z</time>
      </trkpt>
      <trkpt lat="44.13275" lon="5.87135">
        <ele>1057</ele>
        <time>2021-06-01T12:35:43.316Z</time>
      </trkpt>
      <trkpt lat="44.13274" lon="5.87137">
        <ele>1057</ele>
        <time>2021-06-01T12:35:44.316Z</time>
      </trkpt>
      <trkpt lat="44.13274" lon="5.87138">
        <ele>1057</ele>
        <time>2021-06-01T12:35:45.316Z</time>
      </trkpt>
      <trkpt lat="44.13273" lon="5.8714">
        <ele>1057</ele>
        <time>2021-06-01T12:35:46.316Z</time>
      </trkpt>
      <trkpt lat="44.13273" lon="5.87141">
        <ele>1057</ele>
        <time>2021-06-01T12:35:47.316Z</time>
      </trkpt>
      <trkpt lat="44.13272" lon="5.87143">
        <ele>1057</ele>
        <time>2021-06-01T12:35:48.316Z</time>
      </trkpt>
      <trkpt lat="44.13272" lon="5.87144">
        <ele>1057</ele>
        <time>2021-06-01T12:35:49.316Z</time>
      </trkpt>
      <trkpt lat="44.13272" lon="5.87146">
        <ele>1057</ele>
        <time>2021-06-01T12:35:50.316Z</time>
      </trkpt>
      <trkpt lat="44.13272" lon="5.87148">
        <ele>1057</ele>
        <time>2021-06-01T12:35:51.316Z</time>
      </trkpt>
      <trkpt lat="44.13272" lon="5.87149">
        <ele>1057</ele>
        <time>2021-06-01T12:35:52.316Z</time>
      </trkpt>
      <trkpt lat="44.13272" lon="5.8715">
        <ele>1058</ele>
        <time>2021-06-01T12:35:53.316Z</time>
      </trkpt>
      <trkpt lat="44.13273" lon="5.87152">
        <ele>1058</ele>
        <time>2021-06-01T12:35:54.316Z</time>
      </trkpt>
      <trkpt lat="44.13273" lon="5.87153">
        <ele>1057</ele>
        <time>2021-06-01T12:35:55.316Z</time>
      </trkpt>
      <trkpt lat="44.13273" lon="5.87155">
        <ele>1057</ele>
        <time>2021-06-01T12:35:56.316Z</time>
      </trkpt>
      <trkpt lat="44.13274" lon="5.87156">
        <ele>1057</ele>
        <time>2021-06-01T12:35:57.316Z</time>
      </trkpt>
      <trkpt lat="44.13274" lon="5.87158">
        <ele>1057</ele>
        <time>2021-06-01T12:35:58.316Z</time>
      </trkpt>
      <trkpt lat="44.13274" lon="5.87159">
        <ele>1057</ele>
        <time>2021-06-01T12:35:59.316Z</time>
      </trkpt>
      <trkpt lat="44.13274" lon="5.8716">
        <ele>1057</ele>
        <time>2021-06-01T12:36:00.316Z</time>
      </trkpt>
      <trkpt lat="44.13274" lon="5.87161">
        <ele>1057</ele>
        <time>2021-06-01T12:36:01.316Z</time>
      </trkpt>
      <trkpt lat="44.13275" lon="5.87163">
        <ele>1057</ele>
        <time>2021-06-01T12:36:02.316Z</time>
      </trkpt>
      <trkpt lat="44.13275" lon="5.87164">
        <ele>1057</ele>
        <time>2021-06-01T12:36:03.316Z</time>
      </trkpt>
      <trkpt lat="44.13276" lon="5.87166">
        <ele>1056</ele>
        <time>2021-06-01T12:36:04.316Z</time>
      </trkpt>
      <trkpt lat="44.13277" lon="5.87167">
        <ele>1056</ele>
        <time>2021-06-01T12:36:05.316Z</time>
      </trkpt>
      <trkpt lat="44.13277" lon="5.87168">
        <ele>1056</ele>
        <time>2021-06-01T12:36:06.316Z</time>
      </trkpt>
      <trkpt lat="44.13278" lon="5.87169">
        <ele>1056</ele>
        <time>2021-06-01T12:36:07.316Z</time>
      </trkpt>
      <trkpt lat="44.13279" lon="5.8717">
        <ele>1056</ele>
        <time>2021-06-01T12:36:08.316Z</time>
      </trkpt>
      <trkpt lat="44.1328" lon="5.87171">
        <ele>1056</ele>
        <time>2021-06-01T12:36:09.316Z</time>
      </trkpt>
      <trkpt lat="44.1328" lon="5.87173">
        <ele>1056</ele>
        <time>2021-06-01T12:36:10.316Z</time>
      </trkpt>
      <trkpt lat="44.13281" lon="5.87174">
        <ele>1056</ele>
        <time>2021-06-01T12:36:11.316Z</time>
      </trkpt>
      <trkpt lat="44.13282" lon="5.87175">
        <ele>1056</ele>
        <time>2021-06-01T12:36:12.316Z</time>
      </trkpt>
      <trkpt lat="44.13282" lon="5.87175">
        <ele>1056</ele>
        <time>2021-06-01T12:36:13.316Z</time>
      </trkpt>
      <trkpt lat="44.13283" lon="5.87176">
        <ele>1056</ele>
        <time>2021-06-01T12:36:14.316Z</time>
      </trkpt>
      <trkpt lat="44.13284" lon="5.87177">
        <ele>1056</ele>
        <time>2021-06-01T12:36:15.316Z</time>
      </trkpt>
      <trkpt lat="44.13285" lon="5.87178">
        <ele>1056</ele>
        <time>2021-06-01T12:36:16.316Z</time>
      </trkpt>
      <trkpt lat="44.13286" lon="5.87178">
        <ele>1056</ele>
        <time>2021-06-01T12:36:17.316Z</time>
      </trkpt>
      <trkpt lat="44.13286" lon="5.87179">
        <ele>1056</ele>
        <time>2021-06-01T12:36:18.316Z</time>
      </trkpt>
      <trkpt lat="44.13287" lon="5.87179">
        <ele>1056</ele>
        <time>2021-06-01T12:36:19.316Z</time>
      </trkpt>
      <trkpt lat="44.13288" lon="5.8718">
        <ele>1056</ele>
        <time>2021-06-01T12:36:20.316Z</time>
      </trkpt>
      <trkpt lat="44.13289" lon="5.87181">
        <ele>1056</ele>
        <time>2021-06-01T12:36:21.316Z</time>
      </trkpt>
      <trkpt lat="44.1329" lon="5.87182">
        <ele>1056</ele>
        <time>2021-06-01T12:36:22.316Z</time>
      </trkpt>
      <trkpt lat="44.1329" lon="5.87182">
        <ele>1056</ele>
        <time>2021-06-01T12:36:23.316Z</time>
      </trkpt>
      <trkpt lat="44.13291" lon="5.87183">
        <ele>1056</ele>
        <time>2021-06-01T12:36:24.316Z</time>
      </trkpt>
      <trkpt lat="44.13292" lon="5.87183">
        <ele>1056</ele>
        <time>2021-06-01T12:36:25.316Z</time>
      </trkpt>
      <trkpt lat="44.13293" lon="5.87184">
        <ele>1056</ele>
        <time>2021-06-01T12:36:26.316Z</time>
      </trkpt>
      <trkpt lat="44.13295" lon="5.87184">
        <ele>1056</ele>
        <time>2021-06-01T12:36:27.316Z</time>
      </trkpt>
      <trkpt lat="44.13296" lon="5.87184">
        <ele>1056</ele>
        <time>2021-06-01T12:36:28.316Z</time>
      </trkpt>
      <trkpt lat="44.13297" lon="5.87184">
        <ele>1056</ele>
        <time>2021-06-01T12:36:29.316Z</time>
      </trkpt>
      <trkpt lat="44.13298" lon="5.87184">
        <ele>1056</ele>
        <time>2021-06-01T12:36:30.316Z</time>
      </trkpt>
      <trkpt lat="44.13298" lon="5.87184">
        <ele>1056</ele>
        <time>2021-06-01T12:36:31.316Z</time>
      </trkpt>
      <trkpt lat="44.13299" lon="5.87185">
        <ele>1057</ele>
        <time>2021-06-01T12:36:32.316Z</time>
      </trkpt>
      <trkpt lat="44.133" lon="5.87185">
        <ele>1057</ele>
        <time>2021-06-01T12:36:33.316Z</time>
      </trkpt>
      <trkpt lat="44.13301" lon="5.87186">
        <ele>1057</ele>
        <time>2021-06-01T12:36:34.316Z</time>
      </trkpt>
      <trkpt lat="44.13302" lon="5.87187">
        <ele>1057</ele>
        <time>2021-06-01T12:36:35.316Z</time>
      </trkpt>
      <trkpt lat="44.13303" lon="5.87188">
        <ele>1057</ele>
        <time>2021-06-01T12:36:36.316Z</time>
      </trkpt>
      <trkpt lat="44.13304" lon="5.87189">
        <ele>1057</ele>
        <time>2021-06-01T12:36:37.316Z</time>
      </trkpt>
      <trkpt lat="44.13305" lon="5.8719">
        <ele>1057</ele>
        <time>2021-06-01T12:36:38.316Z</time>
      </trkpt>
      <trkpt lat="44.13306" lon="5.87192">
        <ele>1057</ele>
        <time>2021-06-01T12:36:39.316Z</time>
      </trkpt>
      <trkpt lat="44.13306" lon="5.87193">
        <ele>1057</ele>
        <time>2021-06-01T12:36:40.316Z</time>
      </trkpt>
      <trkpt lat="44.13307" lon="5.87195">
        <ele>1057</ele>
        <time>2021-06-01T12:36:41.316Z</time>
      </trkpt>
      <trkpt lat="44.13307" lon="5.87196">
        <ele>1058</ele>
        <time>2021-06-01T12:36:42.316Z</time>
      </trkpt>
      <trkpt lat="44.13308" lon="5.87197">
        <ele>1058</ele>
        <time>2021-06-01T12:36:43.316Z</time>
      </trkpt>
      <trkpt lat="44.13308" lon="5.87198">
        <ele>1058</ele>
        <time>2021-06-01T12:36:44.316Z</time>
      </trkpt>
      <trkpt lat="44.13308" lon="5.87199">
        <ele>1058</ele>
        <time>2021-06-01T12:36:45.316Z</time>
      </trkpt>
      <trkpt lat="44.13308" lon="5.87201">
        <ele>1058</ele>
        <time>2021-06-01T12:36:46.316Z</time>
      </trkpt>
      <trkpt lat="44.13308" lon="5.87202">
        <ele>1058</ele>
        <time>2021-06-01T12:36:47.316Z</time>
      </trkpt>
      <trkpt lat="44.13309" lon="5.87204">
        <ele>1058</ele>
        <time>2021-06-01T12:36:48.316Z</time>
      </trkpt>
      <trkpt lat="44.13309" lon="5.87205">
        <ele>1058</ele>
        <time>2021-06-01T12:36:49.316Z</time>
      </trkpt>
      <trkpt lat="44.1331" lon="5.87206">
        <ele>1059</ele>
        <time>2021-06-01T12:36:50.316Z</time>
      </trkpt>
      <trkpt lat="44.1331" lon="5.87208">
        <ele>1059</ele>
        <time>2021-06-01T12:36:51.316Z</time>
      </trkpt>
      <trkpt lat="44.1331" lon="5.8721">
        <ele>1059</ele>
        <time>2021-06-01T12:36:52.316Z</time>
      </trkpt>
      <trkpt lat="44.13311" lon="5.87211">
        <ele>1059</ele>
        <time>2021-06-01T12:36:53.316Z</time>
      </trkpt>
      <trkpt lat="44.13311" lon="5.87213">
        <ele>1059</ele>
        <time>2021-06-01T12:36:54.316Z</time>
      </trkpt>
      <trkpt lat="44.13312" lon="5.87214">
        <ele>1059</ele>
        <time>2021-06-01T12:36:55.316Z</time>
      </trkpt>
      <trkpt lat="44.13312" lon="5.87216">
        <ele>1060</ele>
        <time>2021-06-01T12:36:56.316Z</time>
      </trkpt>
      <trkpt lat="44.13313" lon="5.87217">
        <ele>1060</ele>
        <time>2021-06-01T12:36:57.316Z</time>
      </trkpt>
      <trkpt lat="44.13314" lon="5.87218">
        <ele>1060</ele>
        <time>2021-06-01T12:36:58.316Z</time>
      </trkpt>
      <trkpt lat="44.13314" lon="5.8722">
        <ele>1060</ele>
        <time>2021-06-01T12:36:59.316Z</time>
      </trkpt>
      <trkpt lat="44.13314" lon="5.8722">
        <ele>1060</ele>
        <time>2021-06-01T12:37:00.316Z</time>
      </trkpt>
      <trkpt lat="44.13314" lon="5.87221">
        <ele>1061</ele>
        <time>2021-06-01T12:37:01.316Z</time>
      </trkpt>
      <trkpt lat="44.13314" lon="5.87222">
        <ele>1061</ele>
        <time>2021-06-01T12:37:02.316Z</time>
      </trkpt>
      <trkpt lat="44.13314" lon="5.87224">
        <ele>1061</ele>
        <time>2021-06-01T12:37:03.316Z</time>
      </trkpt>
      <trkpt lat="44.13314" lon="5.87226">
        <ele>1061</ele>
        <time>2021-06-01T12:37:04.316Z</time>
      </trkpt>
      <trkpt lat="44.13315" lon="5.87227">
        <ele>1061</ele>
        <time>2021-06-01T12:37:05.316Z</time>
      </trkpt>
      <trkpt lat="44.13315" lon="5.87228">
        <ele>1062</ele>
        <time>2021-06-01T12:37:06.316Z</time>
      </trkpt>
      <trkpt lat="44.13315" lon="5.8723">
        <ele>1062</ele>
        <time>2021-06-01T12:37:07.316Z</time>
      </trkpt>
      <trkpt lat="44.13315" lon="5.87232">
        <ele>1062</ele>
        <time>2021-06-01T12:37:08.316Z</time>
      </trkpt>
      <trkpt lat="44.13315" lon="5.87233">
        <ele>1062</ele>
        <time>2021-06-01T12:37:09.316Z</time>
      </trkpt>
      <trkpt lat="44.13315" lon="5.87235">
        <ele>1063</ele>
        <time>2021-06-01T12:37:10.316Z</time>
      </trkpt>
      <trkpt lat="44.13315" lon="5.87237">
        <ele>1063</ele>
        <time>2021-06-01T12:37:11.316Z</time>
      </trkpt>
      <trkpt lat="44.13315" lon="5.87239">
        <ele>1063</ele>
        <time>2021-06-01T12:37:12.316Z</time>
      </trkpt>
      <trkpt lat="44.13315" lon="5.87241">
        <ele>1063</ele>
        <time>2021-06-01T12:37:13.316Z</time>
      </trkpt>
      <trkpt lat="44.13315" lon="5.87242">
        <ele>1063</ele>
        <time>2021-06-01T12:37:14.316Z</time>
      </trkpt>
      <trkpt lat="44.13316" lon="5.87244">
        <ele>1064</ele>
        <time>2021-06-01T12:37:15.316Z</time>
      </trkpt>
      <trkpt lat="44.13316" lon="5.87245">
        <ele>1064</ele>
        <time>2021-06-01T12:37:16.316Z</time>
      </trkpt>
      <trkpt lat="44.13316" lon="5.87247">
        <ele>1064</ele>
        <time>2021-06-01T12:37:17.316Z</time>
      </trkpt>
      <trkpt lat="44.13317" lon="5.87248">
        <ele>1064</ele>
        <time>2021-06-01T12:37:18.316Z</time>
      </trkpt>
      <trkpt lat="44.13317" lon="5.87249">
        <ele>1064</ele>
        <time>2021-06-01T12:37:19.316Z</time>
      </trkpt>
      <trkpt lat="44.13317" lon="5.87251">
        <ele>1064</ele>
        <time>2021-06-01T12:37:20.316Z</time>
      </trkpt>
      <trkpt lat="44.13318" lon="5.87253">
        <ele>1064</ele>
        <time>2021-06-01T12:37:21.316Z</time>
      </trkpt>
      <trkpt lat="44.13318" lon="5.87254">
        <ele>1065</ele>
        <time>2021-06-01T12:37:22.316Z</time>
      </trkpt>
      <trkpt lat="44.13318" lon="5.87256">
        <ele>1065</ele>
        <time>2021-06-01T12:37:23.316Z</time>
      </trkpt>
      <trkpt lat="44.13318" lon="5.87257">
        <ele>1065</ele>
        <time>2021-06-01T12:37:24.316Z</time>
      </trkpt>
      <trkpt lat="44.13319" lon="5.87258">
        <ele>1065</ele>
        <time>2021-06-01T12:37:25.316Z</time>
      </trkpt>
      <trkpt lat="44.13319" lon="5.8726">
        <ele>1065</ele>
        <time>2021-06-01T12:37:26.316Z</time>
      </trkpt>
      <trkpt lat="44.1332" lon="5.87261">
        <ele>1065</ele>
        <time>2021-06-01T12:37:27.316Z</time>
      </trkpt>
      <trkpt lat="44.1332" lon="5.87262">
        <ele>1065</ele>
        <time>2021-06-01T12:37:28.316Z</time>
      </trkpt>
      <trkpt lat="44.13321" lon="5.87264">
        <ele>1065</ele>
        <time>2021-06-01T12:37:29.316Z</time>
      </trkpt>
      <trkpt lat="44.13321" lon="5.87265">
        <ele>1066</ele>
        <time>2021-06-01T12:37:30.316Z</time>
      </trkpt>
      <trkpt lat="44.13321" lon="5.87267">
        <ele>1066</ele>
        <time>2021-06-01T12:37:31.316Z</time>
      </trkpt>
      <trkpt lat="44.13322" lon="5.87269">
        <ele>1066</ele>
        <time>2021-06-01T12:37:32.316Z</time>
      </trkpt>
      <trkpt lat="44.13322" lon="5.8727">
        <ele>1066</ele>
        <time>2021-06-01T12:37:33.316Z</time>
      </trkpt>
      <trkpt lat="44.13322" lon="5.87271">
        <ele>1066</ele>
        <time>2021-06-01T12:37:34.316Z</time>
      </trkpt>
      <trkpt lat="44.13322" lon="5.87273">
        <ele>1066</ele>
        <time>2021-06-01T12:37:35.316Z</time>
      </trkpt>
      <trkpt lat="44.13322" lon="5.87274">
        <ele>1066</ele>
        <time>2021-06-01T12:37:36.316Z</time>
      </trkpt>
      <trkpt lat="44.13322" lon="5.87276">
        <ele>1066</ele>
        <time>2021-06-01T12:37:37.316Z</time>
      </trkpt>
      <trkpt lat="44.13322" lon="5.87276">
        <ele>1066</ele>
        <time>2021-06-01T12:37:38.316Z</time>
      </trkpt>
      <trkpt lat="44.13323" lon="5.87277">
        <ele>1066</ele>
        <time>2021-06-01T12:37:39.316Z</time>
      </trkpt>
      <trkpt lat="44.13323" lon="5.87277">
        <ele>1066</ele>
        <time>2021-06-01T12:37:40.316Z</time>
      </trkpt>
      <trkpt lat="44.13323" lon="5.87277">
        <ele>1066</ele>
        <time>2021-06-01T12:37:41.316Z</time>
      </trkpt>
      <trkpt lat="44.13323" lon="5.87277">
        <ele>1066</ele>
        <time>2021-06-01T12:37:42.316Z</time>
      </trkpt>
      <trkpt lat="44.13323" lon="5.87277">
        <ele>1066</ele>
        <time>2021-06-01T12:37:43.316Z</time>
      </trkpt>
      <trkpt lat="44.13323" lon="5.87277">
        <ele>1066</ele>
        <time>2021-06-01T12:37:44.316Z</time>
      </trkpt>
      <trkpt lat="44.13323" lon="5.87276">
        <ele>1066</ele>
        <time>2021-06-01T12:37:45.316Z</time>
      </trkpt>
      <trkpt lat="44.13323" lon="5.87276">
        <ele>1066</ele>
        <time>2021-06-01T12:37:46.316Z</time>
      </trkpt>
      <trkpt lat="44.13323" lon="5.87276">
        <ele>1066</ele>
        <time>2021-06-01T12:37:47.316Z</time>
      </trkpt>
      <trkpt lat="44.13323" lon="5.87276">
        <ele>1066</ele>
        <time>2021-06-01T12:37:48.316Z</time>
      </trkpt>
      <trkpt lat="44.13323" lon="5.87276">
        <ele>1066</ele>
        <time>2021-06-01T12:37:49.316Z</time>
      </trkpt>
      <trkpt lat="44.13323" lon="5.87277">
        <ele>1066</ele>
        <time>2021-06-01T12:37:50.316Z</time>
      </trkpt>
      <trkpt lat="44.13323" lon="5.87278">
        <ele>1066</ele>
        <time>2021-06-01T12:37:51.316Z</time>
      </trkpt>
      <trkpt lat="44.13323" lon="5.87279">
        <ele>1066</ele>
        <time>2021-06-01T12:37:52.316Z</time>
      </trkpt>
      <trkpt lat="44.13323" lon="5.87281">
        <ele>1066</ele>
        <time>2021-06-01T12:37:53.316Z</time>
      </trkpt>
      <trkpt lat="44.13323" lon="5.87282">
        <ele>1066</ele>
        <time>2021-06-01T12:37:54.316Z</time>
      </trkpt>
      <trkpt lat="44.13323" lon="5.87283">
        <ele>1066</ele>
        <time>2021-06-01T12:37:55.316Z</time>
      </trkpt>
      <trkpt lat="44.13322" lon="5.87285">
        <ele>1066</ele>
        <time>2021-06-01T12:37:56.316Z</time>
      </trkpt>
      <trkpt lat="44.13322" lon="5.87286">
        <ele>1066</ele>
        <time>2021-06-01T12:37:57.316Z</time>
      </trkpt>
      <trkpt lat="44.13321" lon="5.87286">
        <ele>1066</ele>
        <time>2021-06-01T12:37:58.316Z</time>
      </trkpt>
      <trkpt lat="44.13321" lon="5.87287">
        <ele>1066</ele>
        <time>2021-06-01T12:37:59.316Z</time>
      </trkpt>
      <trkpt lat="44.1332" lon="5.87288">
        <ele>1066</ele>
        <time>2021-06-01T12:38:00.316Z</time>
      </trkpt>
      <trkpt lat="44.1332" lon="5.87289">
        <ele>1066</ele>
        <time>2021-06-01T12:38:01.316Z</time>
      </trkpt>
      <trkpt lat="44.1332" lon="5.8729">
        <ele>1066</ele>
        <time>2021-06-01T12:38:02.316Z</time>
      </trkpt>
      <trkpt lat="44.1332" lon="5.87291">
        <ele>1066</ele>
        <time>2021-06-01T12:38:03.316Z</time>
      </trkpt>
      <trkpt lat="44.13319" lon="5.87292">
        <ele>1066</ele>
        <time>2021-06-01T12:38:04.316Z</time>
      </trkpt>
      <trkpt lat="44.13319" lon="5.87294">
        <ele>1066</ele>
        <time>2021-06-01T12:38:05.316Z</time>
      </trkpt>
      <trkpt lat="44.1332" lon="5.87295">
        <ele>1066</ele>
        <time>2021-06-01T12:38:06.316Z</time>
      </trkpt>
      <trkpt lat="44.13319" lon="5.87295">
        <ele>1066</ele>
        <time>2021-06-01T12:38:07.316Z</time>
      </trkpt>
      <trkpt lat="44.1332" lon="5.87297">
        <ele>1066</ele>
        <time>2021-06-01T12:38:08.316Z</time>
      </trkpt>
      <trkpt lat="44.1332" lon="5.87298">
        <ele>1066</ele>
        <time>2021-06-01T12:38:09.316Z</time>
      </trkpt>
      <trkpt lat="44.13319" lon="5.87299">
        <ele>1066</ele>
        <time>2021-06-01T12:38:10.316Z</time>
      </trkpt>
      <trkpt lat="44.13319" lon="5.873">
        <ele>1066</ele>
        <time>2021-06-01T12:38:11.316Z</time>
      </trkpt>
      <trkpt lat="44.1332" lon="5.87302">
        <ele>1066</ele>
        <time>2021-06-01T12:38:12.316Z</time>
      </trkpt>
      <trkpt lat="44.1332" lon="5.87303">
        <ele>1066</ele>
        <time>2021-06-01T12:38:13.316Z</time>
      </trkpt>
      <trkpt lat="44.13319" lon="5.87304">
        <ele>1066</ele>
        <time>2021-06-01T12:38:14.316Z</time>
      </trkpt>
      <trkpt lat="44.13319" lon="5.87305">
        <ele>1067</ele>
        <time>2021-06-01T12:38:15.316Z</time>
      </trkpt>
      <trkpt lat="44.13319" lon="5.87306">
        <ele>1067</ele>
        <time>2021-06-01T12:38:16.316Z</time>
      </trkpt>
      <trkpt lat="44.13319" lon="5.87307">
        <ele>1067</ele>
        <time>2021-06-01T12:38:17.316Z</time>
      </trkpt>
      <trkpt lat="44.13319" lon="5.87308">
        <ele>1067</ele>
        <time>2021-06-01T12:38:18.316Z</time>
      </trkpt>
      <trkpt lat="44.13319" lon="5.8731">
        <ele>1067</ele>
        <time>2021-06-01T12:38:19.316Z</time>
      </trkpt>
      <trkpt lat="44.13319" lon="5.87311">
        <ele>1067</ele>
        <time>2021-06-01T12:38:20.316Z</time>
      </trkpt>
      <trkpt lat="44.1332" lon="5.87313">
        <ele>1067</ele>
        <time>2021-06-01T12:38:21.316Z</time>
      </trkpt>
      <trkpt lat="44.1332" lon="5.87313">
        <ele>1067</ele>
        <time>2021-06-01T12:38:22.316Z</time>
      </trkpt>
      <trkpt lat="44.1332" lon="5.87314">
        <ele>1068</ele>
        <time>2021-06-01T12:38:23.316Z</time>
      </trkpt>
      <trkpt lat="44.13321" lon="5.87316">
        <ele>1068</ele>
        <time>2021-06-01T12:38:24.316Z</time>
      </trkpt>
      <trkpt lat="44.13321" lon="5.87317">
        <ele>1068</ele>
        <time>2021-06-01T12:38:25.316Z</time>
      </trkpt>
      <trkpt lat="44.13321" lon="5.87319">
        <ele>1068</ele>
        <time>2021-06-01T12:38:26.316Z</time>
      </trkpt>
      <trkpt lat="44.13322" lon="5.8732">
        <ele>1068</ele>
        <time>2021-06-01T12:38:27.316Z</time>
      </trkpt>
      <trkpt lat="44.13322" lon="5.87321">
        <ele>1069</ele>
        <time>2021-06-01T12:38:28.316Z</time>
      </trkpt>
      <trkpt lat="44.13322" lon="5.87322">
        <ele>1069</ele>
        <time>2021-06-01T12:38:29.316Z</time>
      </trkpt>
      <trkpt lat="44.13323" lon="5.87323">
        <ele>1069</ele>
        <time>2021-06-01T12:38:30.316Z</time>
      </trkpt>
      <trkpt lat="44.13324" lon="5.87324">
        <ele>1069</ele>
        <time>2021-06-01T12:38:31.316Z</time>
      </trkpt>
      <trkpt lat="44.13324" lon="5.87325">
        <ele>1069</ele>
        <time>2021-06-01T12:38:32.316Z</time>
      </trkpt>
      <trkpt lat="44.13325" lon="5.87327">
        <ele>1069</ele>
        <time>2021-06-01T12:38:33.316Z</time>
      </trkpt>
      <trkpt lat="44.13326" lon="5.87327">
        <ele>1070</ele>
        <time>2021-06-01T12:38:34.316Z</time>
      </trkpt>
      <trkpt lat="44.13326" lon="5.87329">
        <ele>1070</ele>
        <time>2021-06-01T12:38:35.316Z</time>
      </trkpt>
      <trkpt lat="44.13327" lon="5.8733">
        <ele>1070</ele>
        <time>2021-06-01T12:38:36.316Z</time>
      </trkpt>
      <trkpt lat="44.13328" lon="5.87331">
        <ele>1070</ele>
        <time>2021-06-01T12:38:37.316Z</time>
      </trkpt>
      <trkpt lat="44.13329" lon="5.87331">
        <ele>1070</ele>
        <time>2021-06-01T12:38:38.316Z</time>
      </trkpt>
      <trkpt lat="44.1333" lon="5.87332">
        <ele>1070</ele>
        <time>2021-06-01T12:38:39.316Z</time>
      </trkpt>
      <trkpt lat="44.1333" lon="5.87334">
        <ele>1070</ele>
        <time>2021-06-01T12:38:40.316Z</time>
      </trkpt>
      <trkpt lat="44.13331" lon="5.87336">
        <ele>1071</ele>
        <time>2021-06-01T12:38:41.316Z</time>
      </trkpt>
      <trkpt lat="44.13332" lon="5.87336">
        <ele>1071</ele>
        <time>2021-06-01T12:38:42.316Z</time>
      </trkpt>
      <trkpt lat="44.13333" lon="5.87338">
        <ele>1071</ele>
        <time>2021-06-01T12:38:43.316Z</time>
      </trkpt>
      <trkpt lat="44.13333" lon="5.87339">
        <ele>1071</ele>
        <time>2021-06-01T12:38:44.316Z</time>
      </trkpt>
      <trkpt lat="44.13334" lon="5.87341">
        <ele>1071</ele>
        <time>2021-06-01T12:38:45.316Z</time>
      </trkpt>
      <trkpt lat="44.13334" lon="5.87342">
        <ele>1071</ele>
        <time>2021-06-01T12:38:46.316Z</time>
      </trkpt>
      <trkpt lat="44.13335" lon="5.87343">
        <ele>1071</ele>
        <time>2021-06-01T12:38:47.316Z</time>
      </trkpt>
      <trkpt lat="44.13336" lon="5.87344">
        <ele>1071</ele>
        <time>2021-06-01T12:38:48.316Z</time>
      </trkpt>
      <trkpt lat="44.13336" lon="5.87345">
        <ele>1071</ele>
        <time>2021-06-01T12:38:49.316Z</time>
      </trkpt>
      <trkpt lat="44.13337" lon="5.87347">
        <ele>1071</ele>
        <time>2021-06-01T12:38:50.316Z</time>
      </trkpt>
      <trkpt lat="44.13338" lon="5.87348">
        <ele>1071</ele>
        <time>2021-06-01T12:38:51.316Z</time>
      </trkpt>
      <trkpt lat="44.13338" lon="5.87349">
        <ele>1071</ele>
        <time>2021-06-01T12:38:52.316Z</time>
      </trkpt>
      <trkpt lat="44.13339" lon="5.8735">
        <ele>1072</ele>
        <time>2021-06-01T12:38:53.316Z</time>
      </trkpt>
      <trkpt lat="44.1334" lon="5.87351">
        <ele>1072</ele>
        <time>2021-06-01T12:38:54.316Z</time>
      </trkpt>
      <trkpt lat="44.1334" lon="5.87352">
        <ele>1072</ele>
        <time>2021-06-01T12:38:55.316Z</time>
      </trkpt>
      <trkpt lat="44.13341" lon="5.87352">
        <ele>1072</ele>
        <time>2021-06-01T12:38:56.316Z</time>
      </trkpt>
      <trkpt lat="44.13342" lon="5.87353">
        <ele>1072</ele>
        <time>2021-06-01T12:38:57.316Z</time>
      </trkpt>
      <trkpt lat="44.13342" lon="5.87354">
        <ele>1072</ele>
        <time>2021-06-01T12:38:58.316Z</time>
      </trkpt>
      <trkpt lat="44.13343" lon="5.87354">
        <ele>1072</ele>
        <time>2021-06-01T12:38:59.316Z</time>
      </trkpt>
      <trkpt lat="44.13343" lon="5.87355">
        <ele>1072</ele>
        <time>2021-06-01T12:39:00.316Z</time>
      </trkpt>
      <trkpt lat="44.13343" lon="5.87356">
        <ele>1072</ele>
        <time>2021-06-01T12:39:01.316Z</time>
      </trkpt>
      <trkpt lat="44.13344" lon="5.87357">
        <ele>1073</ele>
        <time>2021-06-01T12:39:02.316Z</time>
      </trkpt>
      <trkpt lat="44.13344" lon="5.87357">
        <ele>1073</ele>
        <time>2021-06-01T12:39:03.316Z</time>
      </trkpt>
      <trkpt lat="44.13344" lon="5.87358">
        <ele>1073</ele>
        <time>2021-06-01T12:39:04.316Z</time>
      </trkpt>
      <trkpt lat="44.13344" lon="5.87359">
        <ele>1073</ele>
        <time>2021-06-01T12:39:05.316Z</time>
      </trkpt>
      <trkpt lat="44.13345" lon="5.87361">
        <ele>1072</ele>
        <time>2021-06-01T12:39:06.316Z</time>
      </trkpt>
      <trkpt lat="44.13345" lon="5.87362">
        <ele>1072</ele>
        <time>2021-06-01T12:39:07.316Z</time>
      </trkpt>
      <trkpt lat="44.13345" lon="5.87363">
        <ele>1072</ele>
        <time>2021-06-01T12:39:08.316Z</time>
      </trkpt>
      <trkpt lat="44.13345" lon="5.87364">
        <ele>1072</ele>
        <time>2021-06-01T12:39:09.316Z</time>
      </trkpt>
      <trkpt lat="44.13345" lon="5.87365">
        <ele>1072</ele>
        <time>2021-06-01T12:39:10.316Z</time>
      </trkpt>
      <trkpt lat="44.13346" lon="5.87366">
        <ele>1072</ele>
        <time>2021-06-01T12:39:11.316Z</time>
      </trkpt>
      <trkpt lat="44.13346" lon="5.87367">
        <ele>1072</ele>
        <time>2021-06-01T12:39:12.316Z</time>
      </trkpt>
      <trkpt lat="44.13346" lon="5.87368">
        <ele>1072</ele>
        <time>2021-06-01T12:39:13.316Z</time>
      </trkpt>
      <trkpt lat="44.13346" lon="5.87368">
        <ele>1072</ele>
        <time>2021-06-01T12:39:14.316Z</time>
      </trkpt>
      <trkpt lat="44.13347" lon="5.87367">
        <ele>1072</ele>
        <time>2021-06-01T12:39:15.316Z</time>
      </trkpt>
      <trkpt lat="44.13347" lon="5.87367">
        <ele>1072</ele>
        <time>2021-06-01T12:39:16.316Z</time>
      </trkpt>
      <trkpt lat="44.13348" lon="5.87367">
        <ele>1072</ele>
        <time>2021-06-01T12:39:17.316Z</time>
      </trkpt>
      <trkpt lat="44.13349" lon="5.87367">
        <ele>1073</ele>
        <time>2021-06-01T12:39:18.316Z</time>
      </trkpt>
      <trkpt lat="44.1335" lon="5.87366">
        <ele>1073</ele>
        <time>2021-06-01T12:39:19.316Z</time>
      </trkpt>
      <trkpt lat="44.13351" lon="5.87366">
        <ele>1073</ele>
        <time>2021-06-01T12:39:20.316Z</time>
      </trkpt>
      <trkpt lat="44.13352" lon="5.87366">
        <ele>1073</ele>
        <time>2021-06-01T12:39:21.316Z</time>
      </trkpt>
      <trkpt lat="44.13353" lon="5.87367">
        <ele>1073</ele>
        <time>2021-06-01T12:39:22.316Z</time>
      </trkpt>
      <trkpt lat="44.13354" lon="5.87368">
        <ele>1073</ele>
        <time>2021-06-01T12:39:23.316Z</time>
      </trkpt>
      <trkpt lat="44.13355" lon="5.87369">
        <ele>1073</ele>
        <time>2021-06-01T12:39:24.316Z</time>
      </trkpt>
      <trkpt lat="44.13355" lon="5.8737">
        <ele>1073</ele>
        <time>2021-06-01T12:39:25.316Z</time>
      </trkpt>
      <trkpt lat="44.13356" lon="5.87371">
        <ele>1073</ele>
        <time>2021-06-01T12:39:26.316Z</time>
      </trkpt>
      <trkpt lat="44.13357" lon="5.87372">
        <ele>1073</ele>
        <time>2021-06-01T12:39:27.316Z</time>
      </trkpt>
      <trkpt lat="44.13358" lon="5.87372">
        <ele>1073</ele>
        <time>2021-06-01T12:39:28.316Z</time>
      </trkpt>
      <trkpt lat="44.13359" lon="5.87374">
        <ele>1073</ele>
        <time>2021-06-01T12:39:29.316Z</time>
      </trkpt>
      <trkpt lat="44.1336" lon="5.87375">
        <ele>1073</ele>
        <time>2021-06-01T12:39:30.316Z</time>
      </trkpt>
      <trkpt lat="44.13361" lon="5.87376">
        <ele>1073</ele>
        <time>2021-06-01T12:39:31.316Z</time>
      </trkpt>
      <trkpt lat="44.13362" lon="5.87377">
        <ele>1073</ele>
        <time>2021-06-01T12:39:32.316Z</time>
      </trkpt>
      <trkpt lat="44.13363" lon="5.87378">
        <ele>1073</ele>
        <time>2021-06-01T12:39:33.316Z</time>
      </trkpt>
      <trkpt lat="44.13364" lon="5.87379">
        <ele>1073</ele>
        <time>2021-06-01T12:39:34.316Z</time>
      </trkpt>
      <trkpt lat="44.13365" lon="5.87379">
        <ele>1073</ele>
        <time>2021-06-01T12:39:35.316Z</time>
      </trkpt>
      <trkpt lat="44.13366" lon="5.8738">
        <ele>1073</ele>
        <time>2021-06-01T12:39:36.316Z</time>
      </trkpt>
      <trkpt lat="44.13367" lon="5.8738">
        <ele>1073</ele>
        <time>2021-06-01T12:39:37.316Z</time>
      </trkpt>
      <trkpt lat="44.13368" lon="5.87381">
        <ele>1073</ele>
        <time>2021-06-01T12:39:38.316Z</time>
      </trkpt>
      <trkpt lat="44.13369" lon="5.87381">
        <ele>1073</ele>
        <time>2021-06-01T12:39:39.316Z</time>
      </trkpt>
      <trkpt lat="44.1337" lon="5.87382">
        <ele>1074</ele>
        <time>2021-06-01T12:39:40.316Z</time>
      </trkpt>
      <trkpt lat="44.13371" lon="5.87383">
        <ele>1074</ele>
        <time>2021-06-01T12:39:41.316Z</time>
      </trkpt>
      <trkpt lat="44.13372" lon="5.87384">
        <ele>1074</ele>
        <time>2021-06-01T12:39:42.316Z</time>
      </trkpt>
      <trkpt lat="44.13373" lon="5.87384">
        <ele>1074</ele>
        <time>2021-06-01T12:39:43.316Z</time>
      </trkpt>
      <trkpt lat="44.13373" lon="5.87385">
        <ele>1074</ele>
        <time>2021-06-01T12:39:44.316Z</time>
      </trkpt>
      <trkpt lat="44.13374" lon="5.87385">
        <ele>1074</ele>
        <time>2021-06-01T12:39:45.316Z</time>
      </trkpt>
      <trkpt lat="44.13375" lon="5.87385">
        <ele>1075</ele>
        <time>2021-06-01T12:39:46.316Z</time>
      </trkpt>
      <trkpt lat="44.13376" lon="5.87385">
        <ele>1075</ele>
        <time>2021-06-01T12:39:47.316Z</time>
      </trkpt>
      <trkpt lat="44.13377" lon="5.87386">
        <ele>1075</ele>
        <time>2021-06-01T12:39:48.316Z</time>
      </trkpt>
      <trkpt lat="44.13378" lon="5.87386">
        <ele>1075</ele>
        <time>2021-06-01T12:39:49.316Z</time>
      </trkpt>
      <trkpt lat="44.13379" lon="5.87387">
        <ele>1075</ele>
        <time>2021-06-01T12:39:50.316Z</time>
      </trkpt>
      <trkpt lat="44.1338" lon="5.87388">
        <ele>1075</ele>
        <time>2021-06-01T12:39:51.316Z</time>
      </trkpt>
      <trkpt lat="44.1338" lon="5.87388">
        <ele>1075</ele>
        <time>2021-06-01T12:39:52.316Z</time>
      </trkpt>
      <trkpt lat="44.13381" lon="5.87389">
        <ele>1075</ele>
        <time>2021-06-01T12:39:53.316Z</time>
      </trkpt>
      <trkpt lat="44.13382" lon="5.8739">
        <ele>1075</ele>
        <time>2021-06-01T12:39:54.316Z</time>
      </trkpt>
      <trkpt lat="44.13382" lon="5.87391">
        <ele>1076</ele>
        <time>2021-06-01T12:39:55.316Z</time>
      </trkpt>
      <trkpt lat="44.13382" lon="5.87391">
        <ele>1076</ele>
        <time>2021-06-01T12:39:56.316Z</time>
      </trkpt>
      <trkpt lat="44.13382" lon="5.87391">
        <ele>1076</ele>
        <time>2021-06-01T12:39:57.316Z</time>
      </trkpt>
      <trkpt lat="44.13384" lon="5.87392">
        <ele>1076</ele>
        <time>2021-06-01T12:39:58.316Z</time>
      </trkpt>
      <trkpt lat="44.13384" lon="5.87392">
        <ele>1076</ele>
        <time>2021-06-01T12:39:59.316Z</time>
      </trkpt>
      <trkpt lat="44.13385" lon="5.87393">
        <ele>1076</ele>
        <time>2021-06-01T12:40:00.316Z</time>
      </trkpt>
      <trkpt lat="44.13385" lon="5.87394">
        <ele>1076</ele>
        <time>2021-06-01T12:40:01.316Z</time>
      </trkpt>
      <trkpt lat="44.13386" lon="5.87395">
        <ele>1077</ele>
        <time>2021-06-01T12:40:02.316Z</time>
      </trkpt>
      <trkpt lat="44.13386" lon="5.87396">
        <ele>1077</ele>
        <time>2021-06-01T12:40:03.316Z</time>
      </trkpt>
      <trkpt lat="44.13387" lon="5.87397">
        <ele>1077</ele>
        <time>2021-06-01T12:40:04.316Z</time>
      </trkpt>
      <trkpt lat="44.13387" lon="5.87397">
        <ele>1077</ele>
        <time>2021-06-01T12:40:05.316Z</time>
      </trkpt>
      <trkpt lat="44.13387" lon="5.87397">
        <ele>1077</ele>
        <time>2021-06-01T12:40:06.316Z</time>
      </trkpt>
      <trkpt lat="44.13387" lon="5.87398">
        <ele>1077</ele>
        <time>2021-06-01T12:40:07.316Z</time>
      </trkpt>
      <trkpt lat="44.13388" lon="5.87398">
        <ele>1077</ele>
        <time>2021-06-01T12:40:08.316Z</time>
      </trkpt>
      <trkpt lat="44.13388" lon="5.87399">
        <ele>1077</ele>
        <time>2021-06-01T12:40:09.316Z</time>
      </trkpt>
      <trkpt lat="44.13389" lon="5.874">
        <ele>1077</ele>
        <time>2021-06-01T12:40:10.316Z</time>
      </trkpt>
      <trkpt lat="44.13388" lon="5.874">
        <ele>1078</ele>
        <time>2021-06-01T12:40:11.316Z</time>
      </trkpt>
      <trkpt lat="44.13389" lon="5.87401">
        <ele>1078</ele>
        <time>2021-06-01T12:40:12.316Z</time>
      </trkpt>
      <trkpt lat="44.1339" lon="5.87402">
        <ele>1077</ele>
        <time>2021-06-01T12:40:13.316Z</time>
      </trkpt>
      <trkpt lat="44.13391" lon="5.87402">
        <ele>1077</ele>
        <time>2021-06-01T12:40:14.316Z</time>
      </trkpt>
      <trkpt lat="44.13392" lon="5.87403">
        <ele>1077</ele>
        <time>2021-06-01T12:40:15.316Z</time>
      </trkpt>
      <trkpt lat="44.13393" lon="5.87403">
        <ele>1078</ele>
        <time>2021-06-01T12:40:16.316Z</time>
      </trkpt>
      <trkpt lat="44.13394" lon="5.87403">
        <ele>1078</ele>
        <time>2021-06-01T12:40:17.316Z</time>
      </trkpt>
      <trkpt lat="44.13395" lon="5.87404">
        <ele>1078</ele>
        <time>2021-06-01T12:40:18.316Z</time>
      </trkpt>
      <trkpt lat="44.13396" lon="5.87404">
        <ele>1078</ele>
        <time>2021-06-01T12:40:19.316Z</time>
      </trkpt>
      <trkpt lat="44.13396" lon="5.87405">
        <ele>1078</ele>
        <time>2021-06-01T12:40:20.316Z</time>
      </trkpt>
      <trkpt lat="44.13397" lon="5.87406">
        <ele>1078</ele>
        <time>2021-06-01T12:40:21.316Z</time>
      </trkpt>
      <trkpt lat="44.13398" lon="5.87406">
        <ele>1078</ele>
        <time>2021-06-01T12:40:22.316Z</time>
      </trkpt>
      <trkpt lat="44.13399" lon="5.87407">
        <ele>1078</ele>
        <time>2021-06-01T12:40:23.316Z</time>
      </trkpt>
      <trkpt lat="44.134" lon="5.87408">
        <ele>1078</ele>
        <time>2021-06-01T12:40:24.316Z</time>
      </trkpt>
      <trkpt lat="44.13401" lon="5.87409">
        <ele>1078</ele>
        <time>2021-06-01T12:40:25.316Z</time>
      </trkpt>
      <trkpt lat="44.13402" lon="5.87409">
        <ele>1079</ele>
        <time>2021-06-01T12:40:26.316Z</time>
      </trkpt>
      <trkpt lat="44.13402" lon="5.8741">
        <ele>1079</ele>
        <time>2021-06-01T12:40:27.316Z</time>
      </trkpt>
      <trkpt lat="44.13403" lon="5.87411">
        <ele>1079</ele>
        <time>2021-06-01T12:40:28.316Z</time>
      </trkpt>
      <trkpt lat="44.13404" lon="5.87412">
        <ele>1079</ele>
        <time>2021-06-01T12:40:29.316Z</time>
      </trkpt>
      <trkpt lat="44.13404" lon="5.87413">
        <ele>1079</ele>
        <time>2021-06-01T12:40:30.316Z</time>
      </trkpt>
      <trkpt lat="44.13405" lon="5.87413">
        <ele>1079</ele>
        <time>2021-06-01T12:40:31.316Z</time>
      </trkpt>
      <trkpt lat="44.13405" lon="5.87414">
        <ele>1080</ele>
        <time>2021-06-01T12:40:32.316Z</time>
      </trkpt>
      <trkpt lat="44.13406" lon="5.87415">
        <ele>1080</ele>
        <time>2021-06-01T12:40:33.316Z</time>
      </trkpt>
      <trkpt lat="44.13407" lon="5.87416">
        <ele>1080</ele>
        <time>2021-06-01T12:40:34.316Z</time>
      </trkpt>
      <trkpt lat="44.13407" lon="5.87416">
        <ele>1080</ele>
        <time>2021-06-01T12:40:35.316Z</time>
      </trkpt>
      <trkpt lat="44.13408" lon="5.87415">
        <ele>1080</ele>
        <time>2021-06-01T12:40:36.316Z</time>
      </trkpt>
      <trkpt lat="44.13408" lon="5.87416">
        <ele>1080</ele>
        <time>2021-06-01T12:40:37.316Z</time>
      </trkpt>
      <trkpt lat="44.13409" lon="5.87416">
        <ele>1080</ele>
        <time>2021-06-01T12:40:38.316Z</time>
      </trkpt>
      <trkpt lat="44.13409" lon="5.87416">
        <ele>1080</ele>
        <time>2021-06-01T12:40:39.316Z</time>
      </trkpt>
      <trkpt lat="44.13409" lon="5.87416">
        <ele>1080</ele>
        <time>2021-06-01T12:40:40.316Z</time>
      </trkpt>
      <trkpt lat="44.13409" lon="5.87416">
        <ele>1080</ele>
        <time>2021-06-01T12:40:41.316Z</time>
      </trkpt>
      <trkpt lat="44.13409" lon="5.87417">
        <ele>1080</ele>
        <time>2021-06-01T12:40:42.316Z</time>
      </trkpt>
      <trkpt lat="44.13409" lon="5.87417">
        <ele>1080</ele>
        <time>2021-06-01T12:40:43.316Z</time>
      </trkpt>
      <trkpt lat="44.13409" lon="5.87417">
        <ele>1081</ele>
        <time>2021-06-01T12:40:44.316Z</time>
      </trkpt>
      <trkpt lat="44.13409" lon="5.87417">
        <ele>1081</ele>
        <time>2021-06-01T12:40:45.316Z</time>
      </trkpt>
      <trkpt lat="44.13409" lon="5.87417">
        <ele>1081</ele>
        <time>2021-06-01T12:40:46.316Z</time>
      </trkpt>
      <trkpt lat="44.13409" lon="5.87416">
        <ele>1081</ele>
        <time>2021-06-01T12:40:47.316Z</time>
      </trkpt>
      <trkpt lat="44.13409" lon="5.87416">
        <ele>1081</ele>
        <time>2021-06-01T12:40:48.316Z</time>
      </trkpt>
      <trkpt lat="44.13409" lon="5.87416">
        <ele>1081</ele>
        <time>2021-06-01T12:40:49.316Z</time>
      </trkpt>
      <trkpt lat="44.13409" lon="5.87416">
        <ele>1081</ele>
        <time>2021-06-01T12:40:50.316Z</time>
      </trkpt>
      <trkpt lat="44.13409" lon="5.87416">
        <ele>1081</ele>
        <time>2021-06-01T12:40:51.316Z</time>
      </trkpt>
      <trkpt lat="44.13409" lon="5.87416">
        <ele>1081</ele>
        <time>2021-06-01T12:40:52.316Z</time>
      </trkpt>
      <trkpt lat="44.13409" lon="5.87416">
        <ele>1081</ele>
        <time>2021-06-01T12:40:53.316Z</time>
      </trkpt>
      <trkpt lat="44.13409" lon="5.87416">
        <ele>1081</ele>
        <time>2021-06-01T12:40:54.316Z</time>
      </trkpt>
      <trkpt lat="44.13409" lon="5.87416">
        <ele>1081</ele>
        <time>2021-06-01T12:40:55.316Z</time>
      </trkpt>
      <trkpt lat="44.13409" lon="5.87416">
        <ele>1081</ele>
        <time>2021-06-01T12:40:56.316Z</time>
      </trkpt>
      <trkpt lat="44.13409" lon="5.87416">
        <ele>1081</ele>
        <time>2021-06-01T12:40:57.316Z</time>
      </trkpt>
      <trkpt lat="44.13409" lon="5.87417">
        <ele>1081</ele>
        <time>2021-06-01T12:40:58.316Z</time>
      </trkpt>
      <trkpt lat="44.13409" lon="5.87417">
        <ele>1081</ele>
        <time>2021-06-01T12:40:59.316Z</time>
      </trkpt>
      <trkpt lat="44.13409" lon="5.87417">
        <ele>1081</ele>
        <time>2021-06-01T12:41:00.316Z</time>
      </trkpt>
      <trkpt lat="44.13409" lon="5.87417">
        <ele>1081</ele>
        <time>2021-06-01T12:41:01.316Z</time>
      </trkpt>
      <trkpt lat="44.13409" lon="5.87417">
        <ele>1081</ele>
        <time>2021-06-01T12:41:02.316Z</time>
      </trkpt>
      <trkpt lat="44.13409" lon="5.87417">
        <ele>1081</ele>
        <time>2021-06-01T12:41:03.316Z</time>
      </trkpt>
      <trkpt lat="44.1341" lon="5.87417">
        <ele>1081</ele>
        <time>2021-06-01T12:41:04.316Z</time>
      </trkpt>
      <trkpt lat="44.1341" lon="5.87416">
        <ele>1081</ele>
        <time>2021-06-01T12:41:05.316Z</time>
      </trkpt>
      <trkpt lat="44.1341" lon="5.87416">
        <ele>1081</ele>
        <time>2021-06-01T12:41:06.316Z</time>
      </trkpt>
      <trkpt lat="44.1341" lon="5.87416">
        <ele>1081</ele>
        <time>2021-06-01T12:41:07.316Z</time>
      </trkpt>
      <trkpt lat="44.1341" lon="5.87416">
        <ele>1081</ele>
        <time>2021-06-01T12:41:08.316Z</time>
      </trkpt>
      <trkpt lat="44.1341" lon="5.87416">
        <ele>1081</ele>
        <time>2021-06-01T12:41:09.316Z</time>
      </trkpt>
      <trkpt lat="44.1341" lon="5.87416">
        <ele>1081</ele>
        <time>2021-06-01T12:41:10.316Z</time>
      </trkpt>
      <trkpt lat="44.1341" lon="5.87416">
        <ele>1081</ele>
        <time>2021-06-01T12:41:11.316Z</time>
      </trkpt>
      <trkpt lat="44.1341" lon="5.87416">
        <ele>1081</ele>
        <time>2021-06-01T12:41:12.316Z</time>
      </trkpt>
      <trkpt lat="44.1341" lon="5.87416">
        <ele>1081</ele>
        <time>2021-06-01T12:41:13.316Z</time>
      </trkpt>
      <trkpt lat="44.1341" lon="5.87416">
        <ele>1081</ele>
        <time>2021-06-01T12:41:14.316Z</time>
      </trkpt>
      <trkpt lat="44.1341" lon="5.87416">
        <ele>1081</ele>
        <time>2021-06-01T12:41:15.316Z</time>
      </trkpt>
      <trkpt lat="44.1341" lon="5.87416">
        <ele>1081</ele>
        <time>2021-06-01T12:41:16.316Z</time>
      </trkpt>
      <trkpt lat="44.1341" lon="5.87416">
        <ele>1081</ele>
        <time>2021-06-01T12:41:17.316Z</time>
      </trkpt>
      <trkpt lat="44.1341" lon="5.87416">
        <ele>1081</ele>
        <time>2021-06-01T12:41:18.316Z</time>
      </trkpt>
      <trkpt lat="44.1341" lon="5.87416">
        <ele>1081</ele>
        <time>2021-06-01T12:41:19.316Z</time>
      </trkpt>
      <trkpt lat="44.1341" lon="5.87416">
        <ele>1081</ele>
        <time>2021-06-01T12:41:20.316Z</time>
      </trkpt>
      <trkpt lat="44.1341" lon="5.87416">
        <ele>1081</ele>
        <time>2021-06-01T12:41:21.316Z</time>
      </trkpt>
      <trkpt lat="44.1341" lon="5.87416">
        <ele>1081</ele>
        <time>2021-06-01T12:41:22.316Z</time>
      </trkpt>
      <trkpt lat="44.1341" lon="5.87416">
        <ele>1081</ele>
        <time>2021-06-01T12:41:23.316Z</time>
      </trkpt>
      <trkpt lat="44.1341" lon="5.87416">
        <ele>1081</ele>
        <time>2021-06-01T12:41:24.316Z</time>
      </trkpt>
      <trkpt lat="44.1341" lon="5.87416">
        <ele>1081</ele>
        <time>2021-06-01T12:41:25.316Z</time>
      </trkpt>
      <trkpt lat="44.1341" lon="5.87416">
        <ele>1081</ele>
        <time>2021-06-01T12:41:26.316Z</time>
      </trkpt>
      <trkpt lat="44.1341" lon="5.87416">
        <ele>1081</ele>
        <time>2021-06-01T12:41:27.316Z</time>
      </trkpt>
      <trkpt lat="44.1341" lon="5.87416">
        <ele>1081</ele>
        <time>2021-06-01T12:41:28.316Z</time>
      </trkpt>
      <trkpt lat="44.1341" lon="5.87416">
        <ele>1081</ele>
        <time>2021-06-01T12:41:29.316Z</time>
      </trkpt>
      <trkpt lat="44.1341" lon="5.87416">
        <ele>1081</ele>
        <time>2021-06-01T12:41:30.316Z</time>
      </trkpt>
      <trkpt lat="44.1341" lon="5.87416">
        <ele>1081</ele>
        <time>2021-06-01T12:41:31.316Z</time>
      </trkpt>
      <trkpt lat="44.1341" lon="5.87416">
        <ele>1081</ele>
        <time>2021-06-01T12:41:32.316Z</time>
      </trkpt>
      <trkpt lat="44.1341" lon="5.87416">
        <ele>1081</ele>
        <time>2021-06-01T12:41:33.316Z</time>
      </trkpt>
      <trkpt lat="44.1341" lon="5.87416">
        <ele>1081</ele>
        <time>2021-06-01T12:41:34.316Z</time>
      </trkpt>
      <trkpt lat="44.1341" lon="5.87416">
        <ele>1081</ele>
        <time>2021-06-01T12:41:35.316Z</time>
      </trkpt>
      <trkpt lat="44.1341" lon="5.87416">
        <ele>1081</ele>
        <time>2021-06-01T12:41:36.316Z</time>
      </trkpt>
      <trkpt lat="44.1341" lon="5.87416">
        <ele>1081</ele>
        <time>2021-06-01T12:41:37.316Z</time>
      </trkpt>
      <trkpt lat="44.1341" lon="5.87417">
        <ele>1081</ele>
        <time>2021-06-01T12:41:38.316Z</time>
      </trkpt>
      <trkpt lat="44.1341" lon="5.87418">
        <ele>1081</ele>
        <time>2021-06-01T12:41:39.316Z</time>
      </trkpt>
      <trkpt lat="44.1341" lon="5.87419">
        <ele>1081</ele>
        <time>2021-06-01T12:41:40.316Z</time>
      </trkpt>
      <trkpt lat="44.13411" lon="5.8742">
        <ele>1081</ele>
        <time>2021-06-01T12:41:41.316Z</time>
      </trkpt>
      <trkpt lat="44.13411" lon="5.87421">
        <ele>1081</ele>
        <time>2021-06-01T12:41:42.316Z</time>
      </trkpt>
      <trkpt lat="44.13411" lon="5.87422">
        <ele>1081</ele>
        <time>2021-06-01T12:41:43.316Z</time>
      </trkpt>
      <trkpt lat="44.13412" lon="5.87423">
        <ele>1081</ele>
        <time>2021-06-01T12:41:44.316Z</time>
      </trkpt>
      <trkpt lat="44.13413" lon="5.87424">
        <ele>1081</ele>
        <time>2021-06-01T12:41:45.316Z</time>
      </trkpt>
      <trkpt lat="44.13413" lon="5.87425">
        <ele>1081</ele>
        <time>2021-06-01T12:41:46.316Z</time>
      </trkpt>
      <trkpt lat="44.13413" lon="5.87426">
        <ele>1081</ele>
        <time>2021-06-01T12:41:47.316Z</time>
      </trkpt>
      <trkpt lat="44.13414" lon="5.87427">
        <ele>1081</ele>
        <time>2021-06-01T12:41:48.316Z</time>
      </trkpt>
      <trkpt lat="44.13415" lon="5.87427">
        <ele>1081</ele>
        <time>2021-06-01T12:41:49.316Z</time>
      </trkpt>
      <trkpt lat="44.13415" lon="5.87427">
        <ele>1082</ele>
        <time>2021-06-01T12:41:50.316Z</time>
      </trkpt>
      <trkpt lat="44.13416" lon="5.87427">
        <ele>1082</ele>
        <time>2021-06-01T12:41:51.316Z</time>
      </trkpt>
      <trkpt lat="44.13417" lon="5.87428">
        <ele>1082</ele>
        <time>2021-06-01T12:41:52.316Z</time>
      </trkpt>
      <trkpt lat="44.13418" lon="5.87428">
        <ele>1082</ele>
        <time>2021-06-01T12:41:53.316Z</time>
      </trkpt>
      <trkpt lat="44.13418" lon="5.87428">
        <ele>1082</ele>
        <time>2021-06-01T12:41:54.316Z</time>
      </trkpt>
      <trkpt lat="44.13419" lon="5.87428">
        <ele>1082</ele>
        <time>2021-06-01T12:41:55.316Z</time>
      </trkpt>
      <trkpt lat="44.1342" lon="5.87428">
        <ele>1082</ele>
        <time>2021-06-01T12:41:56.316Z</time>
      </trkpt>
      <trkpt lat="44.13421" lon="5.87429">
        <ele>1082</ele>
        <time>2021-06-01T12:41:57.316Z</time>
      </trkpt>
      <trkpt lat="44.13421" lon="5.8743">
        <ele>1083</ele>
        <time>2021-06-01T12:41:58.316Z</time>
      </trkpt>
      <trkpt lat="44.13422" lon="5.8743">
        <ele>1083</ele>
        <time>2021-06-01T12:41:59.316Z</time>
      </trkpt>
      <trkpt lat="44.13423" lon="5.87431">
        <ele>1083</ele>
        <time>2021-06-01T12:42:00.316Z</time>
      </trkpt>
      <trkpt lat="44.13423" lon="5.87431">
        <ele>1083</ele>
        <time>2021-06-01T12:42:01.316Z</time>
      </trkpt>
      <trkpt lat="44.13423" lon="5.87431">
        <ele>1083</ele>
        <time>2021-06-01T12:42:02.316Z</time>
      </trkpt>
      <trkpt lat="44.13423" lon="5.87432">
        <ele>1083</ele>
        <time>2021-06-01T12:42:03.316Z</time>
      </trkpt>
      <trkpt lat="44.13423" lon="5.87432">
        <ele>1083</ele>
        <time>2021-06-01T12:42:04.316Z</time>
      </trkpt>
      <trkpt lat="44.13423" lon="5.87432">
        <ele>1083</ele>
        <time>2021-06-01T12:42:05.316Z</time>
      </trkpt>
      <trkpt lat="44.13423" lon="5.87432">
        <ele>1083</ele>
        <time>2021-06-01T12:42:06.316Z</time>
      </trkpt>
      <trkpt lat="44.13424" lon="5.87432">
        <ele>1083</ele>
        <time>2021-06-01T12:42:07.316Z</time>
      </trkpt>
      <trkpt lat="44.13424" lon="5.87433">
        <ele>1083</ele>
        <time>2021-06-01T12:42:08.316Z</time>
      </trkpt>
      <trkpt lat="44.13425" lon="5.87434">
        <ele>1083</ele>
        <time>2021-06-01T12:42:09.316Z</time>
      </trkpt>
      <trkpt lat="44.13425" lon="5.87435">
        <ele>1083</ele>
        <time>2021-06-01T12:42:10.316Z</time>
      </trkpt>
      <trkpt lat="44.13426" lon="5.87435">
        <ele>1084</ele>
        <time>2021-06-01T12:42:11.316Z</time>
      </trkpt>
      <trkpt lat="44.13426" lon="5.87436">
        <ele>1084</ele>
        <time>2021-06-01T12:42:12.316Z</time>
      </trkpt>
      <trkpt lat="44.13427" lon="5.87437">
        <ele>1084</ele>
        <time>2021-06-01T12:42:13.316Z</time>
      </trkpt>
      <trkpt lat="44.13427" lon="5.87438">
        <ele>1084</ele>
        <time>2021-06-01T12:42:14.316Z</time>
      </trkpt>
      <trkpt lat="44.13428" lon="5.87438">
        <ele>1084</ele>
        <time>2021-06-01T12:42:15.316Z</time>
      </trkpt>
      <trkpt lat="44.13428" lon="5.87438">
        <ele>1084</ele>
        <time>2021-06-01T12:42:16.316Z</time>
      </trkpt>
      <trkpt lat="44.13429" lon="5.87438">
        <ele>1085</ele>
        <time>2021-06-01T12:42:17.316Z</time>
      </trkpt>
      <trkpt lat="44.1343" lon="5.87439">
        <ele>1085</ele>
        <time>2021-06-01T12:42:18.316Z</time>
      </trkpt>
      <trkpt lat="44.13431" lon="5.87439">
        <ele>1085</ele>
        <time>2021-06-01T12:42:19.316Z</time>
      </trkpt>
      <trkpt lat="44.13431" lon="5.87439">
        <ele>1085</ele>
        <time>2021-06-01T12:42:20.316Z</time>
      </trkpt>
      <trkpt lat="44.13432" lon="5.87439">
        <ele>1085</ele>
        <time>2021-06-01T12:42:21.316Z</time>
      </trkpt>
      <trkpt lat="44.13433" lon="5.8744">
        <ele>1085</ele>
        <time>2021-06-01T12:42:22.316Z</time>
      </trkpt>
      <trkpt lat="44.13433" lon="5.8744">
        <ele>1085</ele>
        <time>2021-06-01T12:42:23.316Z</time>
      </trkpt>
      <trkpt lat="44.13434" lon="5.87442">
        <ele>1085</ele>
        <time>2021-06-01T12:42:24.316Z</time>
      </trkpt>
      <trkpt lat="44.13434" lon="5.87442">
        <ele>1085</ele>
        <time>2021-06-01T12:42:25.316Z</time>
      </trkpt>
      <trkpt lat="44.13434" lon="5.87443">
        <ele>1085</ele>
        <time>2021-06-01T12:42:26.316Z</time>
      </trkpt>
      <trkpt lat="44.13435" lon="5.87444">
        <ele>1085</ele>
        <time>2021-06-01T12:42:27.316Z</time>
      </trkpt>
      <trkpt lat="44.13435" lon="5.87445">
        <ele>1086</ele>
        <time>2021-06-01T12:42:28.316Z</time>
      </trkpt>
      <trkpt lat="44.13436" lon="5.87445">
        <ele>1086</ele>
        <time>2021-06-01T12:42:29.316Z</time>
      </trkpt>
      <trkpt lat="44.13436" lon="5.87446">
        <ele>1086</ele>
        <time>2021-06-01T12:42:30.316Z</time>
      </trkpt>
      <trkpt lat="44.13437" lon="5.87446">
        <ele>1086</ele>
        <time>2021-06-01T12:42:31.316Z</time>
      </trkpt>
      <trkpt lat="44.13438" lon="5.87447">
        <ele>1086</ele>
        <time>2021-06-01T12:42:32.316Z</time>
      </trkpt>
      <trkpt lat="44.13438" lon="5.87447">
        <ele>1086</ele>
        <time>2021-06-01T12:42:33.316Z</time>
      </trkpt>
      <trkpt lat="44.13439" lon="5.87447">
        <ele>1086</ele>
        <time>2021-06-01T12:42:34.316Z</time>
      </trkpt>
      <trkpt lat="44.1344" lon="5.87447">
        <ele>1087</ele>
        <time>2021-06-01T12:42:35.316Z</time>
      </trkpt>
      <trkpt lat="44.1344" lon="5.87448">
        <ele>1087</ele>
        <time>2021-06-01T12:42:36.316Z</time>
      </trkpt>
      <trkpt lat="44.13441" lon="5.87448">
        <ele>1087</ele>
        <time>2021-06-01T12:42:37.316Z</time>
      </trkpt>
      <trkpt lat="44.13442" lon="5.87449">
        <ele>1087</ele>
        <time>2021-06-01T12:42:38.316Z</time>
      </trkpt>
      <trkpt lat="44.13443" lon="5.87449">
        <ele>1087</ele>
        <time>2021-06-01T12:42:39.316Z</time>
      </trkpt>
      <trkpt lat="44.13443" lon="5.87449">
        <ele>1087</ele>
        <time>2021-06-01T12:42:40.316Z</time>
      </trkpt>
      <trkpt lat="44.13444" lon="5.87449">
        <ele>1087</ele>
        <time>2021-06-01T12:42:41.316Z</time>
      </trkpt>
      <trkpt lat="44.13445" lon="5.8745">
        <ele>1087</ele>
        <time>2021-06-01T12:42:42.316Z</time>
      </trkpt>
      <trkpt lat="44.13446" lon="5.8745">
        <ele>1088</ele>
        <time>2021-06-01T12:42:43.316Z</time>
      </trkpt>
      <trkpt lat="44.13446" lon="5.8745">
        <ele>1088</ele>
        <time>2021-06-01T12:42:44.316Z</time>
      </trkpt>
      <trkpt lat="44.13447" lon="5.87451">
        <ele>1088</ele>
        <time>2021-06-01T12:42:45.316Z</time>
      </trkpt>
      <trkpt lat="44.13447" lon="5.87452">
        <ele>1088</ele>
        <time>2021-06-01T12:42:46.316Z</time>
      </trkpt>
      <trkpt lat="44.13448" lon="5.87453">
        <ele>1088</ele>
        <time>2021-06-01T12:42:47.316Z</time>
      </trkpt>
      <trkpt lat="44.13449" lon="5.87453">
        <ele>1089</ele>
        <time>2021-06-01T12:42:48.316Z</time>
      </trkpt>
      <trkpt lat="44.13449" lon="5.87454">
        <ele>1089</ele>
        <time>2021-06-01T12:42:49.316Z</time>
      </trkpt>
      <trkpt lat="44.13449" lon="5.87455">
        <ele>1089</ele>
        <time>2021-06-01T12:42:50.316Z</time>
      </trkpt>
      <trkpt lat="44.1345" lon="5.87456">
        <ele>1089</ele>
        <time>2021-06-01T12:42:51.316Z</time>
      </trkpt>
      <trkpt lat="44.13451" lon="5.87458">
        <ele>1089</ele>
        <time>2021-06-01T12:42:52.316Z</time>
      </trkpt>
      <trkpt lat="44.13451" lon="5.87457">
        <ele>1089</ele>
        <time>2021-06-01T12:42:53.316Z</time>
      </trkpt>
      <trkpt lat="44.13451" lon="5.87458">
        <ele>1089</ele>
        <time>2021-06-01T12:42:54.316Z</time>
      </trkpt>
      <trkpt lat="44.13452" lon="5.87458">
        <ele>1089</ele>
        <time>2021-06-01T12:42:55.316Z</time>
      </trkpt>
      <trkpt lat="44.13452" lon="5.87459">
        <ele>1090</ele>
        <time>2021-06-01T12:42:56.316Z</time>
      </trkpt>
      <trkpt lat="44.13453" lon="5.8746">
        <ele>1090</ele>
        <time>2021-06-01T12:42:57.316Z</time>
      </trkpt>
      <trkpt lat="44.13453" lon="5.8746">
        <ele>1090</ele>
        <time>2021-06-01T12:42:58.316Z</time>
      </trkpt>
      <trkpt lat="44.13454" lon="5.87461">
        <ele>1090</ele>
        <time>2021-06-01T12:42:59.316Z</time>
      </trkpt>
      <trkpt lat="44.13454" lon="5.87462">
        <ele>1090</ele>
        <time>2021-06-01T12:43:00.316Z</time>
      </trkpt>
      <trkpt lat="44.13454" lon="5.87462">
        <ele>1091</ele>
        <time>2021-06-01T12:43:01.316Z</time>
      </trkpt>
      <trkpt lat="44.13455" lon="5.87463">
        <ele>1091</ele>
        <time>2021-06-01T12:43:02.316Z</time>
      </trkpt>
      <trkpt lat="44.13455" lon="5.87464">
        <ele>1091</ele>
        <time>2021-06-01T12:43:03.316Z</time>
      </trkpt>
      <trkpt lat="44.13456" lon="5.87464">
        <ele>1091</ele>
        <time>2021-06-01T12:43:04.316Z</time>
      </trkpt>
      <trkpt lat="44.13456" lon="5.87465">
        <ele>1092</ele>
        <time>2021-06-01T12:43:05.316Z</time>
      </trkpt>
      <trkpt lat="44.13456" lon="5.87465">
        <ele>1092</ele>
        <time>2021-06-01T12:43:06.316Z</time>
      </trkpt>
      <trkpt lat="44.13456" lon="5.87465">
        <ele>1092</ele>
        <time>2021-06-01T12:43:07.316Z</time>
      </trkpt>
      <trkpt lat="44.13456" lon="5.87465">
        <ele>1092</ele>
        <time>2021-06-01T12:43:08.316Z</time>
      </trkpt>
      <trkpt lat="44.13456" lon="5.87465">
        <ele>1092</ele>
        <time>2021-06-01T12:43:09.316Z</time>
      </trkpt>
      <trkpt lat="44.13456" lon="5.87465">
        <ele>1092</ele>
        <time>2021-06-01T12:43:10.316Z</time>
      </trkpt>
      <trkpt lat="44.13456" lon="5.87465">
        <ele>1092</ele>
        <time>2021-06-01T12:43:11.316Z</time>
      </trkpt>
      <trkpt lat="44.13456" lon="5.87465">
        <ele>1092</ele>
        <time>2021-06-01T12:43:12.316Z</time>
      </trkpt>
      <trkpt lat="44.13456" lon="5.87465">
        <ele>1092</ele>
        <time>2021-06-01T12:43:13.316Z</time>
      </trkpt>
      <trkpt lat="44.13456" lon="5.87465">
        <ele>1092</ele>
        <time>2021-06-01T12:43:14.316Z</time>
      </trkpt>
      <trkpt lat="44.13456" lon="5.87465">
        <ele>1092</ele>
        <time>2021-06-01T12:43:15.316Z</time>
      </trkpt>
      <trkpt lat="44.13456" lon="5.87465">
        <ele>1092</ele>
        <time>2021-06-01T12:43:16.316Z</time>
      </trkpt>
      <trkpt lat="44.13456" lon="5.87465">
        <ele>1092</ele>
        <time>2021-06-01T12:43:17.316Z</time>
      </trkpt>
      <trkpt lat="44.13456" lon="5.87466">
        <ele>1092</ele>
        <time>2021-06-01T12:43:18.316Z</time>
      </trkpt>
      <trkpt lat="44.13457" lon="5.87466">
        <ele>1092</ele>
        <time>2021-06-01T12:43:19.316Z</time>
      </trkpt>
      <trkpt lat="44.13457" lon="5.87467">
        <ele>1092</ele>
        <time>2021-06-01T12:43:20.316Z</time>
      </trkpt>
      <trkpt lat="44.13458" lon="5.87468">
        <ele>1093</ele>
        <time>2021-06-01T12:43:21.316Z</time>
      </trkpt>
      <trkpt lat="44.13458" lon="5.87469">
        <ele>1093</ele>
        <time>2021-06-01T12:43:22.316Z</time>
      </trkpt>
      <trkpt lat="44.13458" lon="5.8747">
        <ele>1093</ele>
        <time>2021-06-01T12:43:23.316Z</time>
      </trkpt>
      <trkpt lat="44.13459" lon="5.8747">
        <ele>1093</ele>
        <time>2021-06-01T12:43:24.316Z</time>
      </trkpt>
      <trkpt lat="44.13459" lon="5.8747">
        <ele>1093</ele>
        <time>2021-06-01T12:43:25.316Z</time>
      </trkpt>
      <trkpt lat="44.13459" lon="5.8747">
        <ele>1093</ele>
        <time>2021-06-01T12:43:26.316Z</time>
      </trkpt>
      <trkpt lat="44.13459" lon="5.8747">
        <ele>1093</ele>
        <time>2021-06-01T12:43:27.316Z</time>
      </trkpt>
      <trkpt lat="44.13459" lon="5.8747">
        <ele>1094</ele>
        <time>2021-06-01T12:43:28.316Z</time>
      </trkpt>
      <trkpt lat="44.13459" lon="5.8747">
        <ele>1094</ele>
        <time>2021-06-01T12:43:29.316Z</time>
      </trkpt>
      <trkpt lat="44.13459" lon="5.8747">
        <ele>1094</ele>
        <time>2021-06-01T12:43:30.316Z</time>
      </trkpt>
      <trkpt lat="44.13459" lon="5.8747">
        <ele>1094</ele>
        <time>2021-06-01T12:43:31.316Z</time>
      </trkpt>
      <trkpt lat="44.13459" lon="5.8747">
        <ele>1094</ele>
        <time>2021-06-01T12:43:32.316Z</time>
      </trkpt>
      <trkpt lat="44.13459" lon="5.8747">
        <ele>1094</ele>
        <time>2021-06-01T12:43:33.316Z</time>
      </trkpt>
      <trkpt lat="44.13459" lon="5.8747">
        <ele>1094</ele>
        <time>2021-06-01T12:43:34.316Z</time>
      </trkpt>
      <trkpt lat="44.13459" lon="5.8747">
        <ele>1094</ele>
        <time>2021-06-01T12:43:35.316Z</time>
      </trkpt>
      <trkpt lat="44.13459" lon="5.8747">
        <ele>1094</ele>
        <time>2021-06-01T12:43:36.316Z</time>
      </trkpt>
      <trkpt lat="44.13459" lon="5.8747">
        <ele>1094</ele>
        <time>2021-06-01T12:43:37.316Z</time>
      </trkpt>
      <trkpt lat="44.13459" lon="5.8747">
        <ele>1094</ele>
        <time>2021-06-01T12:43:38.316Z</time>
      </trkpt>
      <trkpt lat="44.13459" lon="5.87471">
        <ele>1094</ele>
        <time>2021-06-01T12:43:39.316Z</time>
      </trkpt>
      <trkpt lat="44.13459" lon="5.87471">
        <ele>1094</ele>
        <time>2021-06-01T12:43:40.316Z</time>
      </trkpt>
      <trkpt lat="44.13459" lon="5.87471">
        <ele>1094</ele>
        <time>2021-06-01T12:43:41.316Z</time>
      </trkpt>
      <trkpt lat="44.13459" lon="5.8747">
        <ele>1094</ele>
        <time>2021-06-01T12:43:42.316Z</time>
      </trkpt>
      <trkpt lat="44.13459" lon="5.8747">
        <ele>1094</ele>
        <time>2021-06-01T12:43:43.316Z</time>
      </trkpt>
      <trkpt lat="44.13459" lon="5.8747">
        <ele>1094</ele>
        <time>2021-06-01T12:43:44.316Z</time>
      </trkpt>
      <trkpt lat="44.13459" lon="5.8747">
        <ele>1094</ele>
        <time>2021-06-01T12:43:45.316Z</time>
      </trkpt>
      <trkpt lat="44.13459" lon="5.8747">
        <ele>1094</ele>
        <time>2021-06-01T12:43:46.316Z</time>
      </trkpt>
      <trkpt lat="44.13459" lon="5.8747">
        <ele>1094</ele>
        <time>2021-06-01T12:43:47.316Z</time>
      </trkpt>
      <trkpt lat="44.13459" lon="5.87471">
        <ele>1094</ele>
        <time>2021-06-01T12:43:48.316Z</time>
      </trkpt>
      <trkpt lat="44.13459" lon="5.8747">
        <ele>1094</ele>
        <time>2021-06-01T12:43:49.316Z</time>
      </trkpt>
      <trkpt lat="44.13459" lon="5.8747">
        <ele>1094</ele>
        <time>2021-06-01T12:43:50.316Z</time>
      </trkpt>
      <trkpt lat="44.13459" lon="5.8747">
        <ele>1094</ele>
        <time>2021-06-01T12:43:51.316Z</time>
      </trkpt>
      <trkpt lat="44.13459" lon="5.87471">
        <ele>1094</ele>
        <time>2021-06-01T12:43:52.316Z</time>
      </trkpt>
      <trkpt lat="44.13459" lon="5.87471">
        <ele>1094</ele>
        <time>2021-06-01T12:43:53.316Z</time>
      </trkpt>
      <trkpt lat="44.13459" lon="5.87472">
        <ele>1094</ele>
        <time>2021-06-01T12:43:54.316Z</time>
      </trkpt>
      <trkpt lat="44.1346" lon="5.87473">
        <ele>1094</ele>
        <time>2021-06-01T12:43:55.316Z</time>
      </trkpt>
      <trkpt lat="44.13461" lon="5.87474">
        <ele>1094</ele>
        <time>2021-06-01T12:43:56.316Z</time>
      </trkpt>
      <trkpt lat="44.13462" lon="5.87475">
        <ele>1094</ele>
        <time>2021-06-01T12:43:57.316Z</time>
      </trkpt>
      <trkpt lat="44.13462" lon="5.87476">
        <ele>1095</ele>
        <time>2021-06-01T12:43:58.316Z</time>
      </trkpt>
      <trkpt lat="44.13463" lon="5.87476">
        <ele>1095</ele>
        <time>2021-06-01T12:43:59.316Z</time>
      </trkpt>
      <trkpt lat="44.13463" lon="5.87477">
        <ele>1095</ele>
        <time>2021-06-01T12:44:00.316Z</time>
      </trkpt>
      <trkpt lat="44.13464" lon="5.87477">
        <ele>1095</ele>
        <time>2021-06-01T12:44:01.316Z</time>
      </trkpt>
      <trkpt lat="44.13464" lon="5.87478">
        <ele>1095</ele>
        <time>2021-06-01T12:44:02.316Z</time>
      </trkpt>
      <trkpt lat="44.13464" lon="5.87478">
        <ele>1096</ele>
        <time>2021-06-01T12:44:03.316Z</time>
      </trkpt>
      <trkpt lat="44.13465" lon="5.87479">
        <ele>1096</ele>
        <time>2021-06-01T12:44:04.316Z</time>
      </trkpt>
      <trkpt lat="44.13465" lon="5.8748">
        <ele>1096</ele>
        <time>2021-06-01T12:44:05.316Z</time>
      </trkpt>
      <trkpt lat="44.13465" lon="5.8748">
        <ele>1096</ele>
        <time>2021-06-01T12:44:06.316Z</time>
      </trkpt>
      <trkpt lat="44.13465" lon="5.87481">
        <ele>1096</ele>
        <time>2021-06-01T12:44:07.316Z</time>
      </trkpt>
      <trkpt lat="44.13464" lon="5.87482">
        <ele>1096</ele>
        <time>2021-06-01T12:44:08.316Z</time>
      </trkpt>
      <trkpt lat="44.13465" lon="5.87483">
        <ele>1096</ele>
        <time>2021-06-01T12:44:09.316Z</time>
      </trkpt>
      <trkpt lat="44.13465" lon="5.87483">
        <ele>1097</ele>
        <time>2021-06-01T12:44:10.316Z</time>
      </trkpt>
      <trkpt lat="44.13465" lon="5.87484">
        <ele>1097</ele>
        <time>2021-06-01T12:44:11.316Z</time>
      </trkpt>
      <trkpt lat="44.13466" lon="5.87485">
        <ele>1097</ele>
        <time>2021-06-01T12:44:12.316Z</time>
      </trkpt>
      <trkpt lat="44.13467" lon="5.87486">
        <ele>1097</ele>
        <time>2021-06-01T12:44:13.316Z</time>
      </trkpt>
      <trkpt lat="44.13467" lon="5.87487">
        <ele>1097</ele>
        <time>2021-06-01T12:44:14.316Z</time>
      </trkpt>
      <trkpt lat="44.13468" lon="5.87488">
        <ele>1097</ele>
        <time>2021-06-01T12:44:15.316Z</time>
      </trkpt>
      <trkpt lat="44.13469" lon="5.87489">
        <ele>1097</ele>
        <time>2021-06-01T12:44:16.316Z</time>
      </trkpt>
      <trkpt lat="44.1347" lon="5.8749">
        <ele>1098</ele>
        <time>2021-06-01T12:44:17.316Z</time>
      </trkpt>
      <trkpt lat="44.13471" lon="5.87491">
        <ele>1098</ele>
        <time>2021-06-01T12:44:18.316Z</time>
      </trkpt>
      <trkpt lat="44.13471" lon="5.87492">
        <ele>1098</ele>
        <time>2021-06-01T12:44:19.316Z</time>
      </trkpt>
      <trkpt lat="44.13471" lon="5.87492">
        <ele>1098</ele>
        <time>2021-06-01T12:44:20.316Z</time>
      </trkpt>
      <trkpt lat="44.13471" lon="5.87492">
        <ele>1098</ele>
        <time>2021-06-01T12:44:21.316Z</time>
      </trkpt>
      <trkpt lat="44.13471" lon="5.87492">
        <ele>1098</ele>
        <time>2021-06-01T12:44:22.316Z</time>
      </trkpt>
      <trkpt lat="44.13471" lon="5.87492">
        <ele>1098</ele>
        <time>2021-06-01T12:44:23.316Z</time>
      </trkpt>
      <trkpt lat="44.13471" lon="5.87492">
        <ele>1098</ele>
        <time>2021-06-01T12:44:24.316Z</time>
      </trkpt>
      <trkpt lat="44.13471" lon="5.87493">
        <ele>1098</ele>
        <time>2021-06-01T12:44:25.316Z</time>
      </trkpt>
      <trkpt lat="44.13472" lon="5.87493">
        <ele>1098</ele>
        <time>2021-06-01T12:44:26.316Z</time>
      </trkpt>
      <trkpt lat="44.13472" lon="5.87493">
        <ele>1098</ele>
        <time>2021-06-01T12:44:27.316Z</time>
      </trkpt>
      <trkpt lat="44.13472" lon="5.87493">
        <ele>1098</ele>
        <time>2021-06-01T12:44:28.316Z</time>
      </trkpt>
      <trkpt lat="44.13471" lon="5.87493">
        <ele>1098</ele>
        <time>2021-06-01T12:44:29.316Z</time>
      </trkpt>
      <trkpt lat="44.13471" lon="5.87492">
        <ele>1098</ele>
        <time>2021-06-01T12:44:30.316Z</time>
      </trkpt>
      <trkpt lat="44.13471" lon="5.87492">
        <ele>1099</ele>
        <time>2021-06-01T12:44:31.316Z</time>
      </trkpt>
      <trkpt lat="44.13471" lon="5.87492">
        <ele>1099</ele>
        <time>2021-06-01T12:44:32.316Z</time>
      </trkpt>
      <trkpt lat="44.13471" lon="5.87492">
        <ele>1099</ele>
        <time>2021-06-01T12:44:33.316Z</time>
      </trkpt>
      <trkpt lat="44.13471" lon="5.87492">
        <ele>1099</ele>
        <time>2021-06-01T12:44:34.316Z</time>
      </trkpt>
      <trkpt lat="44.1347" lon="5.87492">
        <ele>1099</ele>
        <time>2021-06-01T12:44:35.316Z</time>
      </trkpt>
      <trkpt lat="44.1347" lon="5.87492">
        <ele>1099</ele>
        <time>2021-06-01T12:44:36.316Z</time>
      </trkpt>
      <trkpt lat="44.1347" lon="5.87491">
        <ele>1099</ele>
        <time>2021-06-01T12:44:37.316Z</time>
      </trkpt>
      <trkpt lat="44.13469" lon="5.87491">
        <ele>1099</ele>
        <time>2021-06-01T12:44:38.316Z</time>
      </trkpt>
      <trkpt lat="44.13469" lon="5.8749">
        <ele>1099</ele>
        <time>2021-06-01T12:44:39.316Z</time>
      </trkpt>
      <trkpt lat="44.13469" lon="5.8749">
        <ele>1099</ele>
        <time>2021-06-01T12:44:40.316Z</time>
      </trkpt>
      <trkpt lat="44.13469" lon="5.8749">
        <ele>1099</ele>
        <time>2021-06-01T12:44:41.316Z</time>
      </trkpt>
      <trkpt lat="44.13469" lon="5.8749">
        <ele>1099</ele>
        <time>2021-06-01T12:44:42.316Z</time>
      </trkpt>
      <trkpt lat="44.13469" lon="5.8749">
        <ele>1099</ele>
        <time>2021-06-01T12:44:43.316Z</time>
      </trkpt>
      <trkpt lat="44.13469" lon="5.8749">
        <ele>1099</ele>
        <time>2021-06-01T12:44:44.316Z</time>
      </trkpt>
      <trkpt lat="44.13469" lon="5.8749">
        <ele>1099</ele>
        <time>2021-06-01T12:44:45.316Z</time>
      </trkpt>
      <trkpt lat="44.13468" lon="5.87491">
        <ele>1099</ele>
        <time>2021-06-01T12:44:46.316Z</time>
      </trkpt>
      <trkpt lat="44.13468" lon="5.87491">
        <ele>1099</ele>
        <time>2021-06-01T12:44:47.316Z</time>
      </trkpt>
      <trkpt lat="44.13468" lon="5.87491">
        <ele>1099</ele>
        <time>2021-06-01T12:44:48.316Z</time>
      </trkpt>
      <trkpt lat="44.13468" lon="5.87492">
        <ele>1099</ele>
        <time>2021-06-01T12:44:49.316Z</time>
      </trkpt>
      <trkpt lat="44.13467" lon="5.87492">
        <ele>1099</ele>
        <time>2021-06-01T12:44:50.316Z</time>
      </trkpt>
      <trkpt lat="44.13467" lon="5.87493">
        <ele>1098</ele>
        <time>2021-06-01T12:44:51.316Z</time>
      </trkpt>
      <trkpt lat="44.13466" lon="5.87493">
        <ele>1098</ele>
        <time>2021-06-01T12:44:52.316Z</time>
      </trkpt>
      <trkpt lat="44.13466" lon="5.87494">
        <ele>1098</ele>
        <time>2021-06-01T12:44:53.316Z</time>
      </trkpt>
      <trkpt lat="44.13465" lon="5.87494">
        <ele>1098</ele>
        <time>2021-06-01T12:44:54.316Z</time>
      </trkpt>
      <trkpt lat="44.13465" lon="5.87494">
        <ele>1098</ele>
        <time>2021-06-01T12:44:55.316Z</time>
      </trkpt>
      <trkpt lat="44.13465" lon="5.87494">
        <ele>1098</ele>
        <time>2021-06-01T12:44:56.316Z</time>
      </trkpt>
      <trkpt lat="44.13465" lon="5.87494">
        <ele>1098</ele>
        <time>2021-06-01T12:44:57.316Z</time>
      </trkpt>
      <trkpt lat="44.13465" lon="5.87494">
        <ele>1098</ele>
        <time>2021-06-01T12:44:58.316Z</time>
      </trkpt>
      <trkpt lat="44.13466" lon="5.87493">
        <ele>1098</ele>
        <time>2021-06-01T12:44:59.316Z</time>
      </trkpt>
      <trkpt lat="44.13466" lon="5.87493">
        <ele>1098</ele>
        <time>2021-06-01T12:45:00.316Z</time>
      </trkpt>
      <trkpt lat="44.13467" lon="5.87494">
        <ele>1098</ele>
        <time>2021-06-01T12:45:01.316Z</time>
      </trkpt>
      <trkpt lat="44.13467" lon="5.87494">
        <ele>1098</ele>
        <time>2021-06-01T12:45:02.316Z</time>
      </trkpt>
      <trkpt lat="44.13467" lon="5.87495">
        <ele>1099</ele>
        <time>2021-06-01T12:45:03.316Z</time>
      </trkpt>
      <trkpt lat="44.13467" lon="5.87495">
        <ele>1098</ele>
        <time>2021-06-01T12:45:04.316Z</time>
      </trkpt>
      <trkpt lat="44.13467" lon="5.87495">
        <ele>1098</ele>
        <time>2021-06-01T12:45:05.316Z</time>
      </trkpt>
      <trkpt lat="44.13467" lon="5.87495">
        <ele>1098</ele>
        <time>2021-06-01T12:45:06.316Z</time>
      </trkpt>
      <trkpt lat="44.13467" lon="5.87495">
        <ele>1098</ele>
        <time>2021-06-01T12:45:07.316Z</time>
      </trkpt>
      <trkpt lat="44.13467" lon="5.87495">
        <ele>1098</ele>
        <time>2021-06-01T12:45:08.316Z</time>
      </trkpt>
      <trkpt lat="44.13467" lon="5.87495">
        <ele>1098</ele>
        <time>2021-06-01T12:45:09.316Z</time>
      </trkpt>
      <trkpt lat="44.13467" lon="5.87495">
        <ele>1098</ele>
        <time>2021-06-01T12:45:10.316Z</time>
      </trkpt>
      <trkpt lat="44.13467" lon="5.87495">
        <ele>1098</ele>
        <time>2021-06-01T12:45:11.316Z</time>
      </trkpt>
      <trkpt lat="44.13467" lon="5.87495">
        <ele>1098</ele>
        <time>2021-06-01T12:45:12.316Z</time>
      </trkpt>
      <trkpt lat="44.13467" lon="5.87495">
        <ele>1098</ele>
        <time>2021-06-01T12:45:13.316Z</time>
      </trkpt>
      <trkpt lat="44.13467" lon="5.87495">
        <ele>1098</ele>
        <time>2021-06-01T12:45:14.316Z</time>
      </trkpt>
      <trkpt lat="44.13467" lon="5.87495">
        <ele>1098</ele>
        <time>2021-06-01T12:45:15.316Z</time>
      </trkpt>
      <trkpt lat="44.13467" lon="5.87495">
        <ele>1098</ele>
        <time>2021-06-01T12:45:16.316Z</time>
      </trkpt>
      <trkpt lat="44.13467" lon="5.87495">
        <ele>1098</ele>
        <time>2021-06-01T12:45:17.316Z</time>
      </trkpt>
      <trkpt lat="44.13467" lon="5.87495">
        <ele>1098</ele>
        <time>2021-06-01T12:45:18.316Z</time>
      </trkpt>
      <trkpt lat="44.13467" lon="5.87495">
        <ele>1098</ele>
        <time>2021-06-01T12:45:19.316Z</time>
      </trkpt>
      <trkpt lat="44.13467" lon="5.87495">
        <ele>1098</ele>
        <time>2021-06-01T12:45:20.316Z</time>
      </trkpt>
      <trkpt lat="44.13467" lon="5.87495">
        <ele>1098</ele>
        <time>2021-06-01T12:45:21.316Z</time>
      </trkpt>
      <trkpt lat="44.13467" lon="5.87494">
        <ele>1098</ele>
        <time>2021-06-01T12:45:22.316Z</time>
      </trkpt>
      <trkpt lat="44.13467" lon="5.87494">
        <ele>1098</ele>
        <time>2021-06-01T12:45:23.316Z</time>
      </trkpt>
      <trkpt lat="44.13467" lon="5.87494">
        <ele>1098</ele>
        <time>2021-06-01T12:45:24.316Z</time>
      </trkpt>
      <trkpt lat="44.13467" lon="5.87494">
        <ele>1098</ele>
        <time>2021-06-01T12:45:25.316Z</time>
      </trkpt>
      <trkpt lat="44.13467" lon="5.87494">
        <ele>1098</ele>
        <time>2021-06-01T12:45:26.316Z</time>
      </trkpt>
      <trkpt lat="44.13467" lon="5.87494">
        <ele>1098</ele>
        <time>2021-06-01T12:45:27.316Z</time>
      </trkpt>
      <trkpt lat="44.13468" lon="5.87494">
        <ele>1098</ele>
        <time>2021-06-01T12:45:28.316Z</time>
      </trkpt>
      <trkpt lat="44.13468" lon="5.87494">
        <ele>1098</ele>
        <time>2021-06-01T12:45:29.316Z</time>
      </trkpt>
      <trkpt lat="44.13468" lon="5.87494">
        <ele>1098</ele>
        <time>2021-06-01T12:45:30.316Z</time>
      </trkpt>
      <trkpt lat="44.13468" lon="5.87494">
        <ele>1098</ele>
        <time>2021-06-01T12:45:31.316Z</time>
      </trkpt>
      <trkpt lat="44.13468" lon="5.87494">
        <ele>1098</ele>
        <time>2021-06-01T12:45:32.316Z</time>
      </trkpt>
      <trkpt lat="44.13468" lon="5.87494">
        <ele>1098</ele>
        <time>2021-06-01T12:45:33.316Z</time>
      </trkpt>
      <trkpt lat="44.13468" lon="5.87494">
        <ele>1098</ele>
        <time>2021-06-01T12:45:34.316Z</time>
      </trkpt>
      <trkpt lat="44.13468" lon="5.87494">
        <ele>1098</ele>
        <time>2021-06-01T12:45:35.316Z</time>
      </trkpt>
      <trkpt lat="44.13467" lon="5.87495">
        <ele>1098</ele>
        <time>2021-06-01T12:45:36.316Z</time>
      </trkpt>
      <trkpt lat="44.13467" lon="5.87494">
        <ele>1098</ele>
        <time>2021-06-01T12:45:37.316Z</time>
      </trkpt>
      <trkpt lat="44.13466" lon="5.87494">
        <ele>1098</ele>
        <time>2021-06-01T12:45:38.316Z</time>
      </trkpt>
      <trkpt lat="44.13466" lon="5.87493">
        <ele>1098</ele>
        <time>2021-06-01T12:45:39.316Z</time>
      </trkpt>
      <trkpt lat="44.13465" lon="5.87493">
        <ele>1099</ele>
        <time>2021-06-01T12:45:40.316Z</time>
      </trkpt>
      <trkpt lat="44.13465" lon="5.87493">
        <ele>1099</ele>
        <time>2021-06-01T12:45:41.316Z</time>
      </trkpt>
      <trkpt lat="44.13465" lon="5.87493">
        <ele>1099</ele>
        <time>2021-06-01T12:45:42.316Z</time>
      </trkpt>
      <trkpt lat="44.13465" lon="5.87493">
        <ele>1099</ele>
        <time>2021-06-01T12:45:43.316Z</time>
      </trkpt>
      <trkpt lat="44.13465" lon="5.87493">
        <ele>1099</ele>
        <time>2021-06-01T12:45:44.316Z</time>
      </trkpt>
      <trkpt lat="44.13465" lon="5.87493">
        <ele>1099</ele>
        <time>2021-06-01T12:45:45.316Z</time>
      </trkpt>
      <trkpt lat="44.13465" lon="5.87493">
        <ele>1099</ele>
        <time>2021-06-01T12:45:46.316Z</time>
      </trkpt>
      <trkpt lat="44.13465" lon="5.87493">
        <ele>1099</ele>
        <time>2021-06-01T12:45:47.316Z</time>
      </trkpt>
      <trkpt lat="44.13465" lon="5.87493">
        <ele>1099</ele>
        <time>2021-06-01T12:45:48.316Z</time>
      </trkpt>
      <trkpt lat="44.13465" lon="5.87493">
        <ele>1099</ele>
        <time>2021-06-01T12:45:49.316Z</time>
      </trkpt>
      <trkpt lat="44.13465" lon="5.87493">
        <ele>1099</ele>
        <time>2021-06-01T12:45:50.316Z</time>
      </trkpt>
      <trkpt lat="44.13465" lon="5.87493">
        <ele>1099</ele>
        <time>2021-06-01T12:45:51.316Z</time>
      </trkpt>
      <trkpt lat="44.13465" lon="5.87493">
        <ele>1099</ele>
        <time>2021-06-01T12:45:52.316Z</time>
      </trkpt>
      <trkpt lat="44.13465" lon="5.87493">
        <ele>1099</ele>
        <time>2021-06-01T12:45:53.316Z</time>
      </trkpt>
      <trkpt lat="44.13465" lon="5.87493">
        <ele>1099</ele>
        <time>2021-06-01T12:45:54.316Z</time>
      </trkpt>
      <trkpt lat="44.13465" lon="5.87493">
        <ele>1099</ele>
        <time>2021-06-01T12:45:55.316Z</time>
      </trkpt>
      <trkpt lat="44.13465" lon="5.87493">
        <ele>1099</ele>
        <time>2021-06-01T12:45:56.316Z</time>
      </trkpt>
      <trkpt lat="44.13465" lon="5.87493">
        <ele>1099</ele>
        <time>2021-06-01T12:45:57.316Z</time>
      </trkpt>
      <trkpt lat="44.13465" lon="5.87493">
        <ele>1098</ele>
        <time>2021-06-01T12:45:58.316Z</time>
      </trkpt>
      <trkpt lat="44.13465" lon="5.87493">
        <ele>1098</ele>
        <time>2021-06-01T12:45:59.316Z</time>
      </trkpt>
      <trkpt lat="44.13465" lon="5.87493">
        <ele>1098</ele>
        <time>2021-06-01T12:46:00.316Z</time>
      </trkpt>
      <trkpt lat="44.13465" lon="5.87493">
        <ele>1098</ele>
        <time>2021-06-01T12:46:01.316Z</time>
      </trkpt>
      <trkpt lat="44.13465" lon="5.87493">
        <ele>1098</ele>
        <time>2021-06-01T12:46:02.316Z</time>
      </trkpt>
      <trkpt lat="44.13465" lon="5.87493">
        <ele>1098</ele>
        <time>2021-06-01T12:46:03.316Z</time>
      </trkpt>
      <trkpt lat="44.13465" lon="5.87493">
        <ele>1098</ele>
        <time>2021-06-01T12:46:04.316Z</time>
      </trkpt>
      <trkpt lat="44.13466" lon="5.87493">
        <ele>1098</ele>
        <time>2021-06-01T12:46:05.316Z</time>
      </trkpt>
      <trkpt lat="44.13466" lon="5.87493">
        <ele>1098</ele>
        <time>2021-06-01T12:46:06.316Z</time>
      </trkpt>
      <trkpt lat="44.13466" lon="5.87493">
        <ele>1098</ele>
        <time>2021-06-01T12:46:07.316Z</time>
      </trkpt>
      <trkpt lat="44.13466" lon="5.87493">
        <ele>1098</ele>
        <time>2021-06-01T12:46:08.316Z</time>
      </trkpt>
      <trkpt lat="44.13466" lon="5.87493">
        <ele>1098</ele>
        <time>2021-06-01T12:46:09.316Z</time>
      </trkpt>
      <trkpt lat="44.13466" lon="5.87493">
        <ele>1098</ele>
        <time>2021-06-01T12:46:10.316Z</time>
      </trkpt>
      <trkpt lat="44.13465" lon="5.87493">
        <ele>1098</ele>
        <time>2021-06-01T12:46:11.316Z</time>
      </trkpt>
      <trkpt lat="44.13465" lon="5.87493">
        <ele>1098</ele>
        <time>2021-06-01T12:46:12.316Z</time>
      </trkpt>
      <trkpt lat="44.13465" lon="5.87493">
        <ele>1098</ele>
        <time>2021-06-01T12:46:13.316Z</time>
      </trkpt>
      <trkpt lat="44.13465" lon="5.87493">
        <ele>1098</ele>
        <time>2021-06-01T12:46:14.316Z</time>
      </trkpt>
      <trkpt lat="44.13465" lon="5.87493">
        <ele>1098</ele>
        <time>2021-06-01T12:46:15.316Z</time>
      </trkpt>
      <trkpt lat="44.13466" lon="5.87493">
        <ele>1098</ele>
        <time>2021-06-01T12:46:16.316Z</time>
      </trkpt>
      <trkpt lat="44.13466" lon="5.87493">
        <ele>1098</ele>
        <time>2021-06-01T12:46:17.316Z</time>
      </trkpt>
      <trkpt lat="44.13466" lon="5.87493">
        <ele>1098</ele>
        <time>2021-06-01T12:46:18.316Z</time>
      </trkpt>
      <trkpt lat="44.13466" lon="5.87493">
        <ele>1098</ele>
        <time>2021-06-01T12:46:19.316Z</time>
      </trkpt>
      <trkpt lat="44.13466" lon="5.87493">
        <ele>1098</ele>
        <time>2021-06-01T12:46:20.316Z</time>
      </trkpt>
      <trkpt lat="44.13466" lon="5.87493">
        <ele>1098</ele>
        <time>2021-06-01T12:46:21.316Z</time>
      </trkpt>
      <trkpt lat="44.13466" lon="5.87493">
        <ele>1098</ele>
        <time>2021-06-01T12:46:22.316Z</time>
      </trkpt>
      <trkpt lat="44.13466" lon="5.87493">
        <ele>1098</ele>
        <time>2021-06-01T12:46:23.316Z</time>
      </trkpt>
      <trkpt lat="44.13466" lon="5.87493">
        <ele>1098</ele>
        <time>2021-06-01T12:46:24.316Z</time>
      </trkpt>
      <trkpt lat="44.13465" lon="5.87493">
        <ele>1098</ele>
        <time>2021-06-01T12:46:25.316Z</time>
      </trkpt>
      <trkpt lat="44.13465" lon="5.87493">
        <ele>1098</ele>
        <time>2021-06-01T12:46:26.316Z</time>
      </trkpt>
      <trkpt lat="44.13465" lon="5.87493">
        <ele>1098</ele>
        <time>2021-06-01T12:46:27.316Z</time>
      </trkpt>
      <trkpt lat="44.13465" lon="5.87493">
        <ele>1098</ele>
        <time>2021-06-01T12:46:28.316Z</time>
      </trkpt>
      <trkpt lat="44.13465" lon="5.87493">
        <ele>1098</ele>
        <time>2021-06-01T12:46:29.316Z</time>
      </trkpt>
      <trkpt lat="44.13465" lon="5.87493">
        <ele>1098</ele>
        <time>2021-06-01T12:46:30.316Z</time>
      </trkpt>
      <trkpt lat="44.13465" lon="5.87493">
        <ele>1098</ele>
        <time>2021-06-01T12:46:31.316Z</time>
      </trkpt>
      <trkpt lat="44.13465" lon="5.87493">
        <ele>1098</ele>
        <time>2021-06-01T12:46:32.316Z</time>
      </trkpt>
      <trkpt lat="44.13465" lon="5.87493">
        <ele>1098</ele>
        <time>2021-06-01T12:46:33.316Z</time>
      </trkpt>
      <trkpt lat="44.13465" lon="5.87493">
        <ele>1098</ele>
        <time>2021-06-01T12:46:34.316Z</time>
      </trkpt>
      <trkpt lat="44.13465" lon="5.87493">
        <ele>1098</ele>
        <time>2021-06-01T12:46:35.316Z</time>
      </trkpt>
      <trkpt lat="44.13465" lon="5.87493">
        <ele>1098</ele>
        <time>2021-06-01T12:46:36.316Z</time>
      </trkpt>
      <trkpt lat="44.13465" lon="5.87493">
        <ele>1098</ele>
        <time>2021-06-01T12:46:37.316Z</time>
      </trkpt>
      <trkpt lat="44.13465" lon="5.87493">
        <ele>1098</ele>
        <time>2021-06-01T12:46:38.316Z</time>
      </trkpt>
      <trkpt lat="44.13465" lon="5.87493">
        <ele>1098</ele>
        <time>2021-06-01T12:46:39.316Z</time>
      </trkpt>
      <trkpt lat="44.13465" lon="5.87493">
        <ele>1098</ele>
        <time>2021-06-01T12:46:40.316Z</time>
      </trkpt>
      <trkpt lat="44.13465" lon="5.87493">
        <ele>1098</ele>
        <time>2021-06-01T12:46:41.316Z</time>
      </trkpt>
      <trkpt lat="44.13465" lon="5.87493">
        <ele>1098</ele>
        <time>2021-06-01T12:46:42.316Z</time>
      </trkpt>
      <trkpt lat="44.13465" lon="5.87493">
        <ele>1098</ele>
        <time>2021-06-01T12:46:43.316Z</time>
      </trkpt>
      <trkpt lat="44.13465" lon="5.87493">
        <ele>1098</ele>
        <time>2021-06-01T12:46:44.316Z</time>
      </trkpt>
      <trkpt lat="44.13465" lon="5.87493">
        <ele>1098</ele>
        <time>2021-06-01T12:46:45.316Z</time>
      </trkpt>
      <trkpt lat="44.13465" lon="5.87493">
        <ele>1098</ele>
        <time>2021-06-01T12:46:46.316Z</time>
      </trkpt>
      <trkpt lat="44.13466" lon="5.87493">
        <ele>1098</ele>
        <time>2021-06-01T12:46:47.316Z</time>
      </trkpt>
      <trkpt lat="44.13466" lon="5.87493">
        <ele>1098</ele>
        <time>2021-06-01T12:46:48.316Z</time>
      </trkpt>
      <trkpt lat="44.13466" lon="5.87493">
        <ele>1098</ele>
        <time>2021-06-01T12:46:49.316Z</time>
      </trkpt>
      <trkpt lat="44.13466" lon="5.87493">
        <ele>1098</ele>
        <time>2021-06-01T12:46:50.316Z</time>
      </trkpt>
      <trkpt lat="44.13466" lon="5.87493">
        <ele>1098</ele>
        <time>2021-06-01T12:46:51.316Z</time>
      </trkpt>
      <trkpt lat="44.13466" lon="5.87493">
        <ele>1098</ele>
        <time>2021-06-01T12:46:52.316Z</time>
      </trkpt>
      <trkpt lat="44.13466" lon="5.87493">
        <ele>1098</ele>
        <time>2021-06-01T12:46:53.316Z</time>
      </trkpt>
      <trkpt lat="44.13466" lon="5.87493">
        <ele>1098</ele>
        <time>2021-06-01T12:46:54.316Z</time>
      </trkpt>
      <trkpt lat="44.13466" lon="5.87493">
        <ele>1098</ele>
        <time>2021-06-01T12:46:55.316Z</time>
      </trkpt>
      <trkpt lat="44.13466" lon="5.87493">
        <ele>1098</ele>
        <time>2021-06-01T12:46:56.316Z</time>
      </trkpt>
      <trkpt lat="44.13466" lon="5.87493">
        <ele>1098</ele>
        <time>2021-06-01T12:46:57.316Z</time>
      </trkpt>
      <trkpt lat="44.13466" lon="5.87493">
        <ele>1098</ele>
        <time>2021-06-01T12:46:58.316Z</time>
      </trkpt>
      <trkpt lat="44.13466" lon="5.87493">
        <ele>1098</ele>
        <time>2021-06-01T12:46:59.316Z</time>
      </trkpt>
      <trkpt lat="44.13466" lon="5.87493">
        <ele>1098</ele>
        <time>2021-06-01T12:47:00.316Z</time>
      </trkpt>
      <trkpt lat="44.13465" lon="5.87492">
        <ele>1098</ele>
        <time>2021-06-01T12:47:01.316Z</time>
      </trkpt>
      <trkpt lat="44.13465" lon="5.87492">
        <ele>1098</ele>
        <time>2021-06-01T12:47:02.316Z</time>
      </trkpt>
      <trkpt lat="44.13465" lon="5.87492">
        <ele>1098</ele>
        <time>2021-06-01T12:47:03.316Z</time>
      </trkpt>
      <trkpt lat="44.13465" lon="5.87492">
        <ele>1098</ele>
        <time>2021-06-01T12:47:04.316Z</time>
      </trkpt>
      <trkpt lat="44.13465" lon="5.87492">
        <ele>1098</ele>
        <time>2021-06-01T12:47:05.316Z</time>
      </trkpt>
      <trkpt lat="44.13465" lon="5.87492">
        <ele>1098</ele>
        <time>2021-06-01T12:47:06.316Z</time>
      </trkpt>
      <trkpt lat="44.13465" lon="5.87492">
        <ele>1098</ele>
        <time>2021-06-01T12:47:07.316Z</time>
      </trkpt>
      <trkpt lat="44.13465" lon="5.87492">
        <ele>1098</ele>
        <time>2021-06-01T12:47:08.316Z</time>
      </trkpt>
      <trkpt lat="44.13465" lon="5.87492">
        <ele>1098</ele>
        <time>2021-06-01T12:47:09.316Z</time>
      </trkpt>
      <trkpt lat="44.13465" lon="5.87492">
        <ele>1098</ele>
        <time>2021-06-01T12:47:10.316Z</time>
      </trkpt>
      <trkpt lat="44.13465" lon="5.87492">
        <ele>1098</ele>
        <time>2021-06-01T12:47:11.316Z</time>
      </trkpt>
      <trkpt lat="44.13465" lon="5.87492">
        <ele>1098</ele>
        <time>2021-06-01T12:47:12.316Z</time>
      </trkpt>
      <trkpt lat="44.13465" lon="5.87492">
        <ele>1098</ele>
        <time>2021-06-01T12:47:13.316Z</time>
      </trkpt>
      <trkpt lat="44.13465" lon="5.87492">
        <ele>1098</ele>
        <time>2021-06-01T12:47:14.316Z</time>
      </trkpt>
      <trkpt lat="44.13465" lon="5.87492">
        <ele>1098</ele>
        <time>2021-06-01T12:47:15.316Z</time>
      </trkpt>
      <trkpt lat="44.13465" lon="5.87492">
        <ele>1098</ele>
        <time>2021-06-01T12:47:16.316Z</time>
      </trkpt>
      <trkpt lat="44.13465" lon="5.87492">
        <ele>1098</ele>
        <time>2021-06-01T12:47:17.316Z</time>
      </trkpt>
      <trkpt lat="44.13465" lon="5.87492">
        <ele>1098</ele>
        <time>2021-06-01T12:47:18.316Z</time>
      </trkpt>
      <trkpt lat="44.13465" lon="5.87492">
        <ele>1098</ele>
        <time>2021-06-01T12:47:19.316Z</time>
      </trkpt>
      <trkpt lat="44.13465" lon="5.87492">
        <ele>1098</ele>
        <time>2021-06-01T12:47:20.316Z</time>
      </trkpt>
      <trkpt lat="44.13465" lon="5.87492">
        <ele>1098</ele>
        <time>2021-06-01T12:47:21.316Z</time>
      </trkpt>
      <trkpt lat="44.13465" lon="5.87492">
        <ele>1098</ele>
        <time>2021-06-01T12:47:22.316Z</time>
      </trkpt>
      <trkpt lat="44.13465" lon="5.87492">
        <ele>1098</ele>
        <time>2021-06-01T12:47:23.316Z</time>
      </trkpt>
      <trkpt lat="44.13465" lon="5.87492">
        <ele>1098</ele>
        <time>2021-06-01T12:47:24.316Z</time>
      </trkpt>
      <trkpt lat="44.13465" lon="5.87492">
        <ele>1098</ele>
        <time>2021-06-01T12:47:25.316Z</time>
      </trkpt>
      <trkpt lat="44.13465" lon="5.87492">
        <ele>1098</ele>
        <time>2021-06-01T12:47:26.316Z</time>
      </trkpt>
      <trkpt lat="44.13465" lon="5.87492">
        <ele>1098</ele>
        <time>2021-06-01T12:47:27.316Z</time>
      </trkpt>
      <trkpt lat="44.13465" lon="5.87492">
        <ele>1098</ele>
        <time>2021-06-01T12:47:28.316Z</time>
      </trkpt>
      <trkpt lat="44.13465" lon="5.87492">
        <ele>1098</ele>
        <time>2021-06-01T12:47:29.316Z</time>
      </trkpt>
      <trkpt lat="44.13465" lon="5.87492">
        <ele>1098</ele>
        <time>2021-06-01T12:47:30.316Z</time>
      </trkpt>
      <trkpt lat="44.13466" lon="5.87492">
        <ele>1098</ele>
        <time>2021-06-01T12:47:31.316Z</time>
      </trkpt>
      <trkpt lat="44.13466" lon="5.87492">
        <ele>1098</ele>
        <time>2021-06-01T12:47:32.316Z</time>
      </trkpt>
      <trkpt lat="44.13466" lon="5.87492">
        <ele>1098</ele>
        <time>2021-06-01T12:47:33.316Z</time>
      </trkpt>
      <trkpt lat="44.13466" lon="5.87492">
        <ele>1098</ele>
        <time>2021-06-01T12:47:34.316Z</time>
      </trkpt>
      <trkpt lat="44.13465" lon="5.87492">
        <ele>1098</ele>
        <time>2021-06-01T12:47:35.316Z</time>
      </trkpt>
      <trkpt lat="44.13465" lon="5.87492">
        <ele>1098</ele>
        <time>2021-06-01T12:47:36.316Z</time>
      </trkpt>
      <trkpt lat="44.13465" lon="5.87492">
        <ele>1098</ele>
        <time>2021-06-01T12:47:37.316Z</time>
      </trkpt>
      <trkpt lat="44.13465" lon="5.87492">
        <ele>1098</ele>
        <time>2021-06-01T12:47:38.316Z</time>
      </trkpt>
      <trkpt lat="44.13466" lon="5.87492">
        <ele>1098</ele>
        <time>2021-06-01T12:47:39.316Z</time>
      </trkpt>
      <trkpt lat="44.13466" lon="5.87492">
        <ele>1098</ele>
        <time>2021-06-01T12:47:40.316Z</time>
      </trkpt>
      <trkpt lat="44.13466" lon="5.87492">
        <ele>1098</ele>
        <time>2021-06-01T12:47:41.316Z</time>
      </trkpt>
      <trkpt lat="44.13466" lon="5.87492">
        <ele>1098</ele>
        <time>2021-06-01T12:47:42.316Z</time>
      </trkpt>
      <trkpt lat="44.13465" lon="5.87492">
        <ele>1098</ele>
        <time>2021-06-01T12:47:43.316Z</time>
      </trkpt>
      <trkpt lat="44.13465" lon="5.87492">
        <ele>1098</ele>
        <time>2021-06-01T12:47:44.316Z</time>
      </trkpt>
      <trkpt lat="44.13465" lon="5.87492">
        <ele>1098</ele>
        <time>2021-06-01T12:47:45.316Z</time>
      </trkpt>
      <trkpt lat="44.13466" lon="5.87492">
        <ele>1098</ele>
        <time>2021-06-01T12:47:46.316Z</time>
      </trkpt>
      <trkpt lat="44.13466" lon="5.87492">
        <ele>1098</ele>
        <time>2021-06-01T12:47:47.316Z</time>
      </trkpt>
      <trkpt lat="44.13466" lon="5.87492">
        <ele>1098</ele>
        <time>2021-06-01T12:47:48.316Z</time>
      </trkpt>
      <trkpt lat="44.13466" lon="5.87492">
        <ele>1098</ele>
        <time>2021-06-01T12:47:49.316Z</time>
      </trkpt>
      <trkpt lat="44.13466" lon="5.87492">
        <ele>1098</ele>
        <time>2021-06-01T12:47:50.316Z</time>
      </trkpt>
      <trkpt lat="44.13466" lon="5.87492">
        <ele>1098</ele>
        <time>2021-06-01T12:47:51.316Z</time>
      </trkpt>
      <trkpt lat="44.13466" lon="5.87492">
        <ele>1098</ele>
        <time>2021-06-01T12:47:52.316Z</time>
      </trkpt>
      <trkpt lat="44.13466" lon="5.87492">
        <ele>1098</ele>
        <time>2021-06-01T12:47:53.316Z</time>
      </trkpt>
      <trkpt lat="44.13466" lon="5.87492">
        <ele>1098</ele>
        <time>2021-06-01T12:47:54.316Z</time>
      </trkpt>
      <trkpt lat="44.13465" lon="5.87492">
        <ele>1098</ele>
        <time>2021-06-01T12:47:55.316Z</time>
      </trkpt>
      <trkpt lat="44.13465" lon="5.87492">
        <ele>1098</ele>
        <time>2021-06-01T12:47:56.316Z</time>
      </trkpt>
      <trkpt lat="44.13465" lon="5.87492">
        <ele>1098</ele>
        <time>2021-06-01T12:47:57.316Z</time>
      </trkpt>
      <trkpt lat="44.13465" lon="5.87492">
        <ele>1098</ele>
        <time>2021-06-01T12:47:58.316Z</time>
      </trkpt>
      <trkpt lat="44.13465" lon="5.87492">
        <ele>1098</ele>
        <time>2021-06-01T12:47:59.316Z</time>
      </trkpt>
      <trkpt lat="44.13465" lon="5.87492">
        <ele>1098</ele>
        <time>2021-06-01T12:48:00.316Z</time>
      </trkpt>
      <trkpt lat="44.13465" lon="5.87492">
        <ele>1098</ele>
        <time>2021-06-01T12:48:01.316Z</time>
      </trkpt>
      <trkpt lat="44.13465" lon="5.87492">
        <ele>1098</ele>
        <time>2021-06-01T12:48:02.316Z</time>
      </trkpt>
      <trkpt lat="44.13465" lon="5.87492">
        <ele>1098</ele>
        <time>2021-06-01T12:48:03.316Z</time>
      </trkpt>
      <trkpt lat="44.13465" lon="5.87492">
        <ele>1098</ele>
        <time>2021-06-01T12:48:04.316Z</time>
      </trkpt>
      <trkpt lat="44.13465" lon="5.87492">
        <ele>1098</ele>
        <time>2021-06-01T12:48:05.316Z</time>
      </trkpt>
      <trkpt lat="44.13465" lon="5.87492">
        <ele>1098</ele>
        <time>2021-06-01T12:48:06.316Z</time>
      </trkpt>
      <trkpt lat="44.13465" lon="5.87492">
        <ele>1098</ele>
        <time>2021-06-01T12:48:07.316Z</time>
      </trkpt>
      <trkpt lat="44.13465" lon="5.87492">
        <ele>1098</ele>
        <time>2021-06-01T12:48:08.316Z</time>
      </trkpt>
      <trkpt lat="44.13465" lon="5.87492">
        <ele>1098</ele>
        <time>2021-06-01T12:48:09.316Z</time>
      </trkpt>
      <trkpt lat="44.13465" lon="5.87492">
        <ele>1098</ele>
        <time>2021-06-01T12:48:10.316Z</time>
      </trkpt>
      <trkpt lat="44.13465" lon="5.87492">
        <ele>1098</ele>
        <time>2021-06-01T12:48:11.316Z</time>
      </trkpt>
      <trkpt lat="44.13465" lon="5.87492">
        <ele>1098</ele>
        <time>2021-06-01T12:48:12.316Z</time>
      </trkpt>
      <trkpt lat="44.13465" lon="5.87492">
        <ele>1098</ele>
        <time>2021-06-01T12:48:13.316Z</time>
      </trkpt>
      <trkpt lat="44.13465" lon="5.87492">
        <ele>1098</ele>
        <time>2021-06-01T12:48:14.316Z</time>
      </trkpt>
      <trkpt lat="44.13465" lon="5.87492">
        <ele>1098</ele>
        <time>2021-06-01T12:48:15.316Z</time>
      </trkpt>
      <trkpt lat="44.13465" lon="5.87492">
        <ele>1098</ele>
        <time>2021-06-01T12:48:16.316Z</time>
      </trkpt>
      <trkpt lat="44.13465" lon="5.87492">
        <ele>1098</ele>
        <time>2021-06-01T12:48:17.316Z</time>
      </trkpt>
      <trkpt lat="44.13465" lon="5.87492">
        <ele>1098</ele>
        <time>2021-06-01T12:48:18.316Z</time>
      </trkpt>
      <trkpt lat="44.13465" lon="5.87492">
        <ele>1098</ele>
        <time>2021-06-01T12:48:19.316Z</time>
      </trkpt>
      <trkpt lat="44.13465" lon="5.87492">
        <ele>1098</ele>
        <time>2021-06-01T12:48:20.316Z</time>
      </trkpt>
      <trkpt lat="44.13465" lon="5.87492">
        <ele>1098</ele>
        <time>2021-06-01T12:48:21.316Z</time>
      </trkpt>
      <trkpt lat="44.13465" lon="5.87492">
        <ele>1098</ele>
        <time>2021-06-01T12:48:22.316Z</time>
      </trkpt>
      <trkpt lat="44.13465" lon="5.87492">
        <ele>1098</ele>
        <time>2021-06-01T12:48:23.316Z</time>
      </trkpt>
      <trkpt lat="44.13465" lon="5.87492">
        <ele>1098</ele>
        <time>2021-06-01T12:48:24.316Z</time>
      </trkpt>
      <trkpt lat="44.13465" lon="5.87492">
        <ele>1098</ele>
        <time>2021-06-01T12:48:25.316Z</time>
      </trkpt>
      <trkpt lat="44.13465" lon="5.87492">
        <ele>1098</ele>
        <time>2021-06-01T12:48:26.316Z</time>
      </trkpt>
      <trkpt lat="44.13465" lon="5.87492">
        <ele>1098</ele>
        <time>2021-06-01T12:48:27.316Z</time>
      </trkpt>
      <trkpt lat="44.13465" lon="5.87492">
        <ele>1098</ele>
        <time>2021-06-01T12:48:28.316Z</time>
      </trkpt>
      <trkpt lat="44.13465" lon="5.87492">
        <ele>1098</ele>
        <time>2021-06-01T12:48:29.316Z</time>
      </trkpt>
      <trkpt lat="44.13465" lon="5.87492">
        <ele>1098</ele>
        <time>2021-06-01T12:48:30.316Z</time>
      </trkpt>
      <trkpt lat="44.13465" lon="5.87492">
        <ele>1098</ele>
        <time>2021-06-01T12:48:31.316Z</time>
      </trkpt>
      <trkpt lat="44.13465" lon="5.87492">
        <ele>1098</ele>
        <time>2021-06-01T12:48:32.316Z</time>
      </trkpt>
      <trkpt lat="44.13465" lon="5.87492">
        <ele>1098</ele>
        <time>2021-06-01T12:48:33.316Z</time>
      </trkpt>
      <trkpt lat="44.13465" lon="5.87492">
        <ele>1098</ele>
        <time>2021-06-01T12:48:34.316Z</time>
      </trkpt>
      <trkpt lat="44.13465" lon="5.87492">
        <ele>1098</ele>
        <time>2021-06-01T12:48:35.316Z</time>
      </trkpt>
      <trkpt lat="44.13465" lon="5.87492">
        <ele>1098</ele>
        <time>2021-06-01T12:48:36.316Z</time>
      </trkpt>
      <trkpt lat="44.13465" lon="5.87492">
        <ele>1098</ele>
        <time>2021-06-01T12:48:37.316Z</time>
      </trkpt>
      <trkpt lat="44.13466" lon="5.87492">
        <ele>1098</ele>
        <time>2021-06-01T12:48:38.316Z</time>
      </trkpt>
      <trkpt lat="44.13466" lon="5.87492">
        <ele>1098</ele>
        <time>2021-06-01T12:48:39.316Z</time>
      </trkpt>
      <trkpt lat="44.13466" lon="5.87492">
        <ele>1098</ele>
        <time>2021-06-01T12:48:40.316Z</time>
      </trkpt>
      <trkpt lat="44.13466" lon="5.87492">
        <ele>1098</ele>
        <time>2021-06-01T12:48:41.316Z</time>
      </trkpt>
      <trkpt lat="44.13466" lon="5.87492">
        <ele>1098</ele>
        <time>2021-06-01T12:48:42.316Z</time>
      </trkpt>
      <trkpt lat="44.13466" lon="5.87492">
        <ele>1098</ele>
        <time>2021-06-01T12:48:43.316Z</time>
      </trkpt>
      <trkpt lat="44.13466" lon="5.87492">
        <ele>1098</ele>
        <time>2021-06-01T12:48:44.316Z</time>
      </trkpt>
      <trkpt lat="44.13466" lon="5.87492">
        <ele>1098</ele>
        <time>2021-06-01T12:48:45.316Z</time>
      </trkpt>
      <trkpt lat="44.13466" lon="5.87492">
        <ele>1098</ele>
        <time>2021-06-01T12:48:46.316Z</time>
      </trkpt>
      <trkpt lat="44.13466" lon="5.87492">
        <ele>1098</ele>
        <time>2021-06-01T12:48:47.316Z</time>
      </trkpt>
      <trkpt lat="44.13465" lon="5.87492">
        <ele>1098</ele>
        <time>2021-06-01T12:48:48.316Z</time>
      </trkpt>
      <trkpt lat="44.13465" lon="5.87492">
        <ele>1098</ele>
        <time>2021-06-01T12:48:49.316Z</time>
      </trkpt>
      <trkpt lat="44.13465" lon="5.87492">
        <ele>1098</ele>
        <time>2021-06-01T12:48:50.316Z</time>
      </trkpt>
      <trkpt lat="44.13465" lon="5.87492">
        <ele>1098</ele>
        <time>2021-06-01T12:48:51.316Z</time>
      </trkpt>
      <trkpt lat="44.13465" lon="5.87492">
        <ele>1098</ele>
        <time>2021-06-01T12:48:52.316Z</time>
      </trkpt>
      <trkpt lat="44.13465" lon="5.87492">
        <ele>1098</ele>
        <time>2021-06-01T12:48:53.316Z</time>
      </trkpt>
      <trkpt lat="44.13466" lon="5.87492">
        <ele>1098</ele>
        <time>2021-06-01T12:48:54.316Z</time>
      </trkpt>
      <trkpt lat="44.13466" lon="5.87492">
        <ele>1098</ele>
        <time>2021-06-01T12:48:55.316Z</time>
      </trkpt>
      <trkpt lat="44.13466" lon="5.87492">
        <ele>1098</ele>
        <time>2021-06-01T12:48:56.316Z</time>
      </trkpt>
      <trkpt lat="44.13466" lon="5.87492">
        <ele>1098</ele>
        <time>2021-06-01T12:48:57.316Z</time>
      </trkpt>
      <trkpt lat="44.13465" lon="5.87492">
        <ele>1098</ele>
        <time>2021-06-01T12:48:58.316Z</time>
      </trkpt>
      <trkpt lat="44.13465" lon="5.87492">
        <ele>1098</ele>
        <time>2021-06-01T12:48:59.316Z</time>
      </trkpt>
      <trkpt lat="44.13465" lon="5.87492">
        <ele>1098</ele>
        <time>2021-06-01T12:49:00.316Z</time>
      </trkpt>
      <trkpt lat="44.13465" lon="5.87492">
        <ele>1098</ele>
        <time>2021-06-01T12:49:01.316Z</time>
      </trkpt>
      <trkpt lat="44.13465" lon="5.87492">
        <ele>1098</ele>
        <time>2021-06-01T12:49:02.316Z</time>
      </trkpt>
      <trkpt lat="44.13465" lon="5.87492">
        <ele>1098</ele>
        <time>2021-06-01T12:49:03.316Z</time>
      </trkpt>
      <trkpt lat="44.13465" lon="5.87492">
        <ele>1098</ele>
        <time>2021-06-01T12:49:04.316Z</time>
      </trkpt>
      <trkpt lat="44.13465" lon="5.87492">
        <ele>1098</ele>
        <time>2021-06-01T12:49:05.316Z</time>
      </trkpt>
      <trkpt lat="44.13465" lon="5.87492">
        <ele>1098</ele>
        <time>2021-06-01T12:49:06.316Z</time>
      </trkpt>
      <trkpt lat="44.13465" lon="5.87492">
        <ele>1098</ele>
        <time>2021-06-01T12:49:07.316Z</time>
      </trkpt>
      <trkpt lat="44.13465" lon="5.87492">
        <ele>1098</ele>
        <time>2021-06-01T12:49:08.316Z</time>
      </trkpt>
      <trkpt lat="44.13465" lon="5.87492">
        <ele>1098</ele>
        <time>2021-06-01T12:49:09.316Z</time>
      </trkpt>
      <trkpt lat="44.13465" lon="5.87493">
        <ele>1098</ele>
        <time>2021-06-01T12:49:10.316Z</time>
      </trkpt>
      <trkpt lat="44.13465" lon="5.87493">
        <ele>1098</ele>
        <time>2021-06-01T12:49:11.316Z</time>
      </trkpt>
      <trkpt lat="44.13465" lon="5.87492">
        <ele>1098</ele>
        <time>2021-06-01T12:49:12.316Z</time>
      </trkpt>
      <trkpt lat="44.13465" lon="5.87492">
        <ele>1098</ele>
        <time>2021-06-01T12:49:13.316Z</time>
      </trkpt>
      <trkpt lat="44.13465" lon="5.87492">
        <ele>1098</ele>
        <time>2021-06-01T12:49:14.316Z</time>
      </trkpt>
      <trkpt lat="44.13466" lon="5.87492">
        <ele>1098</ele>
        <time>2021-06-01T12:49:15.316Z</time>
      </trkpt>
      <trkpt lat="44.13466" lon="5.87492">
        <ele>1098</ele>
        <time>2021-06-01T12:49:16.316Z</time>
      </trkpt>
      <trkpt lat="44.13466" lon="5.87492">
        <ele>1098</ele>
        <time>2021-06-01T12:49:17.316Z</time>
      </trkpt>
      <trkpt lat="44.13466" lon="5.87492">
        <ele>1098</ele>
        <time>2021-06-01T12:49:18.316Z</time>
      </trkpt>
      <trkpt lat="44.13466" lon="5.87492">
        <ele>1098</ele>
        <time>2021-06-01T12:49:19.316Z</time>
      </trkpt>
      <trkpt lat="44.13466" lon="5.87492">
        <ele>1098</ele>
        <time>2021-06-01T12:49:20.316Z</time>
      </trkpt>
      <trkpt lat="44.13466" lon="5.87492">
        <ele>1098</ele>
        <time>2021-06-01T12:49:21.316Z</time>
      </trkpt>
      <trkpt lat="44.13466" lon="5.87492">
        <ele>1098</ele>
        <time>2021-06-01T12:49:22.316Z</time>
      </trkpt>
      <trkpt lat="44.13466" lon="5.87492">
        <ele>1098</ele>
        <time>2021-06-01T12:49:23.316Z</time>
      </trkpt>
      <trkpt lat="44.13466" lon="5.87492">
        <ele>1098</ele>
        <time>2021-06-01T12:49:24.316Z</time>
      </trkpt>
      <trkpt lat="44.13466" lon="5.87492">
        <ele>1098</ele>
        <time>2021-06-01T12:49:25.316Z</time>
      </trkpt>
      <trkpt lat="44.13466" lon="5.87492">
        <ele>1098</ele>
        <time>2021-06-01T12:49:26.316Z</time>
      </trkpt>
      <trkpt lat="44.13466" lon="5.87492">
        <ele>1098</ele>
        <time>2021-06-01T12:49:27.316Z</time>
      </trkpt>
      <trkpt lat="44.13466" lon="5.87492">
        <ele>1098</ele>
        <time>2021-06-01T12:49:28.316Z</time>
      </trkpt>
      <trkpt lat="44.13466" lon="5.87492">
        <ele>1098</ele>
        <time>2021-06-01T12:49:29.316Z</time>
      </trkpt>
      <trkpt lat="44.13466" lon="5.87492">
        <ele>1098</ele>
        <time>2021-06-01T12:49:30.316Z</time>
      </trkpt>
      <trkpt lat="44.13466" lon="5.87492">
        <ele>1098</ele>
        <time>2021-06-01T12:49:31.316Z</time>
      </trkpt>
      <trkpt lat="44.13466" lon="5.87492">
        <ele>1098</ele>
        <time>2021-06-01T12:49:32.316Z</time>
      </trkpt>
      <trkpt lat="44.13466" lon="5.87492">
        <ele>1098</ele>
        <time>2021-06-01T12:49:33.316Z</time>
      </trkpt>
      <trkpt lat="44.13466" lon="5.87492">
        <ele>1098</ele>
        <time>2021-06-01T12:49:34.316Z</time>
      </trkpt>
      <trkpt lat="44.13466" lon="5.87492">
        <ele>1098</ele>
        <time>2021-06-01T12:49:35.316Z</time>
      </trkpt>
      <trkpt lat="44.13466" lon="5.87492">
        <ele>1098</ele>
        <time>2021-06-01T12:49:36.316Z</time>
      </trkpt>
      <trkpt lat="44.13466" lon="5.87492">
        <ele>1098</ele>
        <time>2021-06-01T12:49:37.316Z</time>
      </trkpt>
      <trkpt lat="44.13466" lon="5.87492">
        <ele>1098</ele>
        <time>2021-06-01T12:49:38.316Z</time>
      </trkpt>
      <trkpt lat="44.13466" lon="5.87492">
        <ele>1098</ele>
        <time>2021-06-01T12:49:39.316Z</time>
      </trkpt>
      <trkpt lat="44.13466" lon="5.87492">
        <ele>1098</ele>
        <time>2021-06-01T12:49:40.316Z</time>
      </trkpt>
      <trkpt lat="44.13466" lon="5.87492">
        <ele>1098</ele>
        <time>2021-06-01T12:49:41.316Z</time>
      </trkpt>
      <trkpt lat="44.13466" lon="5.87492">
        <ele>1098</ele>
        <time>2021-06-01T12:49:42.316Z</time>
      </trkpt>
      <trkpt lat="44.13466" lon="5.87492">
        <ele>1098</ele>
        <time>2021-06-01T12:49:43.316Z</time>
      </trkpt>
      <trkpt lat="44.13466" lon="5.87492">
        <ele>1098</ele>
        <time>2021-06-01T12:49:44.316Z</time>
      </trkpt>
      <trkpt lat="44.13466" lon="5.87492">
        <ele>1098</ele>
        <time>2021-06-01T12:49:45.316Z</time>
      </trkpt>
      <trkpt lat="44.13466" lon="5.87492">
        <ele>1098</ele>
        <time>2021-06-01T12:49:46.316Z</time>
      </trkpt>
      <trkpt lat="44.13466" lon="5.87492">
        <ele>1098</ele>
        <time>2021-06-01T12:49:47.316Z</time>
      </trkpt>
      <trkpt lat="44.13466" lon="5.87492">
        <ele>1098</ele>
        <time>2021-06-01T12:49:48.316Z</time>
      </trkpt>
      <trkpt lat="44.13466" lon="5.87492">
        <ele>1098</ele>
        <time>2021-06-01T12:49:49.316Z</time>
      </trkpt>
      <trkpt lat="44.13466" lon="5.87492">
        <ele>1098</ele>
        <time>2021-06-01T12:49:50.316Z</time>
      </trkpt>
      <trkpt lat="44.13466" lon="5.87492">
        <ele>1098</ele>
        <time>2021-06-01T12:49:51.316Z</time>
      </trkpt>
      <trkpt lat="44.13466" lon="5.87492">
        <ele>1098</ele>
        <time>2021-06-01T12:49:52.316Z</time>
      </trkpt>
      <trkpt lat="44.13466" lon="5.87492">
        <ele>1098</ele>
        <time>2021-06-01T12:49:53.316Z</time>
      </trkpt>
      <trkpt lat="44.13466" lon="5.87492">
        <ele>1098</ele>
        <time>2021-06-01T12:49:54.316Z</time>
      </trkpt>
      <trkpt lat="44.13466" lon="5.87492">
        <ele>1098</ele>
        <time>2021-06-01T12:49:55.316Z</time>
      </trkpt>
      <trkpt lat="44.13466" lon="5.87492">
        <ele>1098</ele>
        <time>2021-06-01T12:49:56.316Z</time>
      </trkpt>
      <trkpt lat="44.13466" lon="5.87492">
        <ele>1098</ele>
        <time>2021-06-01T12:49:57.316Z</time>
      </trkpt>
      <trkpt lat="44.13466" lon="5.87492">
        <ele>1098</ele>
        <time>2021-06-01T12:49:58.316Z</time>
      </trkpt>
      <trkpt lat="44.13466" lon="5.87492">
        <ele>1098</ele>
        <time>2021-06-01T12:49:59.316Z</time>
      </trkpt>
      <trkpt lat="44.13466" lon="5.87492">
        <ele>1098</ele>
        <time>2021-06-01T12:50:00.316Z</time>
      </trkpt>
      <trkpt lat="44.13466" lon="5.87492">
        <ele>1098</ele>
        <time>2021-06-01T12:50:01.316Z</time>
      </trkpt>
      <trkpt lat="44.13466" lon="5.87492">
        <ele>1098</ele>
        <time>2021-06-01T12:50:02.316Z</time>
      </trkpt>
      <trkpt lat="44.13466" lon="5.87492">
        <ele>1098</ele>
        <time>2021-06-01T12:50:03.316Z</time>
      </trkpt>
      <trkpt lat="44.13466" lon="5.87492">
        <ele>1098</ele>
        <time>2021-06-01T12:50:04.316Z</time>
      </trkpt>
      <trkpt lat="44.13466" lon="5.87492">
        <ele>1098</ele>
        <time>2021-06-01T12:50:05.316Z</time>
      </trkpt>
      <trkpt lat="44.13466" lon="5.87492">
        <ele>1098</ele>
        <time>2021-06-01T12:50:06.316Z</time>
      </trkpt>
      <trkpt lat="44.13466" lon="5.87492">
        <ele>1098</ele>
        <time>2021-06-01T12:50:07.316Z</time>
      </trkpt>
      <trkpt lat="44.13466" lon="5.87492">
        <ele>1098</ele>
        <time>2021-06-01T12:50:08.316Z</time>
      </trkpt>
      <trkpt lat="44.13466" lon="5.87492">
        <ele>1098</ele>
        <time>2021-06-01T12:50:09.316Z</time>
      </trkpt>
      <trkpt lat="44.13466" lon="5.87492">
        <ele>1098</ele>
        <time>2021-06-01T12:50:10.316Z</time>
      </trkpt>
      <trkpt lat="44.13466" lon="5.87492">
        <ele>1098</ele>
        <time>2021-06-01T12:50:11.316Z</time>
      </trkpt>
      <trkpt lat="44.13466" lon="5.87492">
        <ele>1098</ele>
        <time>2021-06-01T12:50:12.316Z</time>
      </trkpt>
      <trkpt lat="44.13466" lon="5.87492">
        <ele>1098</ele>
        <time>2021-06-01T12:50:13.316Z</time>
      </trkpt>
      <trkpt lat="44.13466" lon="5.87492">
        <ele>1098</ele>
        <time>2021-06-01T12:50:14.316Z</time>
      </trkpt>
      <trkpt lat="44.13466" lon="5.87492">
        <ele>1098</ele>
        <time>2021-06-01T12:50:15.316Z</time>
      </trkpt>
      <trkpt lat="44.13466" lon="5.87492">
        <ele>1098</ele>
        <time>2021-06-01T12:50:16.316Z</time>
      </trkpt>
      <trkpt lat="44.13466" lon="5.87492">
        <ele>1098</ele>
        <time>2021-06-01T12:50:17.316Z</time>
      </trkpt>
      <trkpt lat="44.13466" lon="5.87492">
        <ele>1098</ele>
        <time>2021-06-01T12:50:18.316Z</time>
      </trkpt>
      <trkpt lat="44.13466" lon="5.87492">
        <ele>1098</ele>
        <time>2021-06-01T12:50:19.316Z</time>
      </trkpt>
      <trkpt lat="44.13466" lon="5.87492">
        <ele>1098</ele>
        <time>2021-06-01T12:50:20.316Z</time>
      </trkpt>
      <trkpt lat="44.13466" lon="5.87492">
        <ele>1098</ele>
        <time>2021-06-01T12:50:21.316Z</time>
      </trkpt>
      <trkpt lat="44.13466" lon="5.87492">
        <ele>1098</ele>
        <time>2021-06-01T12:50:22.316Z</time>
      </trkpt>
      <trkpt lat="44.13466" lon="5.87492">
        <ele>1098</ele>
        <time>2021-06-01T12:50:23.316Z</time>
      </trkpt>
      <trkpt lat="44.13466" lon="5.87492">
        <ele>1098</ele>
        <time>2021-06-01T12:50:24.316Z</time>
      </trkpt>
      <trkpt lat="44.13466" lon="5.87492">
        <ele>1098</ele>
        <time>2021-06-01T12:50:25.316Z</time>
      </trkpt>
      <trkpt lat="44.13466" lon="5.87492">
        <ele>1098</ele>
        <time>2021-06-01T12:50:26.316Z</time>
      </trkpt>
      <trkpt lat="44.13466" lon="5.87492">
        <ele>1098</ele>
        <time>2021-06-01T12:50:27.316Z</time>
      </trkpt>
      <trkpt lat="44.13466" lon="5.87492">
        <ele>1098</ele>
        <time>2021-06-01T12:50:28.316Z</time>
      </trkpt>
      <trkpt lat="44.13466" lon="5.87492">
        <ele>1098</ele>
        <time>2021-06-01T12:50:29.316Z</time>
      </trkpt>
      <trkpt lat="44.13466" lon="5.87492">
        <ele>1098</ele>
        <time>2021-06-01T12:50:30.316Z</time>
      </trkpt>
      <trkpt lat="44.13466" lon="5.87492">
        <ele>1098</ele>
        <time>2021-06-01T12:50:31.316Z</time>
      </trkpt>
      <trkpt lat="44.13466" lon="5.87492">
        <ele>1098</ele>
        <time>2021-06-01T12:50:32.316Z</time>
      </trkpt>
      <trkpt lat="44.13466" lon="5.87492">
        <ele>1098</ele>
        <time>2021-06-01T12:50:33.316Z</time>
      </trkpt>
      <trkpt lat="44.13466" lon="5.87492">
        <ele>1098</ele>
        <time>2021-06-01T12:50:34.316Z</time>
      </trkpt>
      <trkpt lat="44.13466" lon="5.87492">
        <ele>1098</ele>
        <time>2021-06-01T12:50:35.316Z</time>
      </trkpt>
      <trkpt lat="44.13466" lon="5.87492">
        <ele>1098</ele>
        <time>2021-06-01T12:50:36.316Z</time>
      </trkpt>
      <trkpt lat="44.13466" lon="5.87492">
        <ele>1098</ele>
        <time>2021-06-01T12:50:37.316Z</time>
      </trkpt>
      <trkpt lat="44.13466" lon="5.87492">
        <ele>1098</ele>
        <time>2021-06-01T12:50:38.316Z</time>
      </trkpt>
      <trkpt lat="44.13466" lon="5.87492">
        <ele>1098</ele>
        <time>2021-06-01T12:50:39.316Z</time>
      </trkpt>
      <trkpt lat="44.13466" lon="5.87492">
        <ele>1098</ele>
        <time>2021-06-01T12:50:40.316Z</time>
      </trkpt>
      <trkpt lat="44.13466" lon="5.87492">
        <ele>1098</ele>
        <time>2021-06-01T12:50:41.316Z</time>
      </trkpt>
      <trkpt lat="44.13466" lon="5.87492">
        <ele>1098</ele>
        <time>2021-06-01T12:50:42.316Z</time>
      </trkpt>
      <trkpt lat="44.13466" lon="5.87492">
        <ele>1098</ele>
        <time>2021-06-01T12:50:43.316Z</time>
      </trkpt>
      <trkpt lat="44.13466" lon="5.87492">
        <ele>1098</ele>
        <time>2021-06-01T12:50:44.316Z</time>
      </trkpt>
      <trkpt lat="44.13466" lon="5.87492">
        <ele>1098</ele>
        <time>2021-06-01T12:50:45.316Z</time>
      </trkpt>
      <trkpt lat="44.13466" lon="5.87492">
        <ele>1098</ele>
        <time>2021-06-01T12:50:46.316Z</time>
      </trkpt>
      <trkpt lat="44.13466" lon="5.87492">
        <ele>1098</ele>
        <time>2021-06-01T12:50:47.316Z</time>
      </trkpt>
      <trkpt lat="44.13466" lon="5.87492">
        <ele>1098</ele>
        <time>2021-06-01T12:50:48.316Z</time>
      </trkpt>
      <trkpt lat="44.13466" lon="5.87492">
        <ele>1098</ele>
        <time>2021-06-01T12:50:49.316Z</time>
      </trkpt>
      <trkpt lat="44.13466" lon="5.87492">
        <ele>1098</ele>
        <time>2021-06-01T12:50:50.316Z</time>
      </trkpt>
      <trkpt lat="44.13466" lon="5.87492">
        <ele>1098</ele>
        <time>2021-06-01T12:50:51.316Z</time>
      </trkpt>
      <trkpt lat="44.13466" lon="5.87492">
        <ele>1098</ele>
        <time>2021-06-01T12:50:52.316Z</time>
      </trkpt>
      <trkpt lat="44.13466" lon="5.87492">
        <ele>1098</ele>
        <time>2021-06-01T12:50:53.316Z</time>
      </trkpt>
      <trkpt lat="44.13466" lon="5.87492">
        <ele>1098</ele>
        <time>2021-06-01T12:50:54.316Z</time>
      </trkpt>
      <trkpt lat="44.13466" lon="5.87492">
        <ele>1098</ele>
        <time>2021-06-01T12:50:55.316Z</time>
      </trkpt>
      <trkpt lat="44.13466" lon="5.87492">
        <ele>1098</ele>
        <time>2021-06-01T12:50:56.316Z</time>
      </trkpt>
      <trkpt lat="44.13466" lon="5.87492">
        <ele>1098</ele>
        <time>2021-06-01T12:50:57.316Z</time>
      </trkpt>
      <trkpt lat="44.13466" lon="5.87492">
        <ele>1098</ele>
        <time>2021-06-01T12:50:58.316Z</time>
      </trkpt>
      <trkpt lat="44.13466" lon="5.87492">
        <ele>1098</ele>
        <time>2021-06-01T12:50:59.316Z</time>
      </trkpt>
      <trkpt lat="44.13466" lon="5.87492">
        <ele>1098</ele>
        <time>2021-06-01T12:51:00.316Z</time>
      </trkpt>
      <trkpt lat="44.13466" lon="5.87492">
        <ele>1098</ele>
        <time>2021-06-01T12:51:01.316Z</time>
      </trkpt>
      <trkpt lat="44.13466" lon="5.87492">
        <ele>1098</ele>
        <time>2021-06-01T12:51:02.316Z</time>
      </trkpt>
      <trkpt lat="44.13466" lon="5.87492">
        <ele>1097</ele>
        <time>2021-06-01T12:51:03.316Z</time>
      </trkpt>
      <trkpt lat="44.13466" lon="5.87492">
        <ele>1097</ele>
        <time>2021-06-01T12:51:04.316Z</time>
      </trkpt>
      <trkpt lat="44.13466" lon="5.87492">
        <ele>1097</ele>
        <time>2021-06-01T12:51:05.316Z</time>
      </trkpt>
      <trkpt lat="44.13466" lon="5.87492">
        <ele>1097</ele>
        <time>2021-06-01T12:51:06.316Z</time>
      </trkpt>
      <trkpt lat="44.13466" lon="5.87492">
        <ele>1097</ele>
        <time>2021-06-01T12:51:07.316Z</time>
      </trkpt>
      <trkpt lat="44.13466" lon="5.87492">
        <ele>1097</ele>
        <time>2021-06-01T12:51:08.316Z</time>
      </trkpt>
      <trkpt lat="44.13466" lon="5.87492">
        <ele>1098</ele>
        <time>2021-06-01T12:51:09.316Z</time>
      </trkpt>
      <trkpt lat="44.13466" lon="5.87492">
        <ele>1098</ele>
        <time>2021-06-01T12:51:10.316Z</time>
      </trkpt>
      <trkpt lat="44.13466" lon="5.87492">
        <ele>1098</ele>
        <time>2021-06-01T12:51:11.316Z</time>
      </trkpt>
      <trkpt lat="44.13466" lon="5.87492">
        <ele>1097</ele>
        <time>2021-06-01T12:51:12.316Z</time>
      </trkpt>
      <trkpt lat="44.13466" lon="5.87492">
        <ele>1097</ele>
        <time>2021-06-01T12:51:13.316Z</time>
      </trkpt>
      <trkpt lat="44.13466" lon="5.87492">
        <ele>1097</ele>
        <time>2021-06-01T12:51:14.316Z</time>
      </trkpt>
      <trkpt lat="44.13466" lon="5.87492">
        <ele>1097</ele>
        <time>2021-06-01T12:51:15.316Z</time>
      </trkpt>
      <trkpt lat="44.13466" lon="5.87492">
        <ele>1097</ele>
        <time>2021-06-01T12:51:16.316Z</time>
      </trkpt>
      <trkpt lat="44.13466" lon="5.87492">
        <ele>1097</ele>
        <time>2021-06-01T12:51:17.316Z</time>
      </trkpt>
      <trkpt lat="44.13466" lon="5.87492">
        <ele>1097</ele>
        <time>2021-06-01T12:51:18.316Z</time>
      </trkpt>
      <trkpt lat="44.13466" lon="5.87492">
        <ele>1097</ele>
        <time>2021-06-01T12:51:19.316Z</time>
      </trkpt>
      <trkpt lat="44.13466" lon="5.87491">
        <ele>1098</ele>
        <time>2021-06-01T12:51:20.316Z</time>
      </trkpt>
      <trkpt lat="44.13467" lon="5.87491">
        <ele>1098</ele>
        <time>2021-06-01T12:51:21.316Z</time>
      </trkpt>
      <trkpt lat="44.13467" lon="5.87491">
        <ele>1098</ele>
        <time>2021-06-01T12:51:22.316Z</time>
      </trkpt>
      <trkpt lat="44.13467" lon="5.87491">
        <ele>1098</ele>
        <time>2021-06-01T12:51:23.316Z</time>
      </trkpt>
      <trkpt lat="44.13467" lon="5.8749">
        <ele>1098</ele>
        <time>2021-06-01T12:51:24.316Z</time>
      </trkpt>
      <trkpt lat="44.13467" lon="5.8749">
        <ele>1098</ele>
        <time>2021-06-01T12:51:25.316Z</time>
      </trkpt>
      <trkpt lat="44.13467" lon="5.8749">
        <ele>1098</ele>
        <time>2021-06-01T12:51:26.316Z</time>
      </trkpt>
      <trkpt lat="44.13467" lon="5.87489">
        <ele>1098</ele>
        <time>2021-06-01T12:51:27.316Z</time>
      </trkpt>
      <trkpt lat="44.13467" lon="5.87489">
        <ele>1098</ele>
        <time>2021-06-01T12:51:28.316Z</time>
      </trkpt>
      <trkpt lat="44.13467" lon="5.87489">
        <ele>1098</ele>
        <time>2021-06-01T12:51:29.316Z</time>
      </trkpt>
      <trkpt lat="44.13467" lon="5.87489">
        <ele>1098</ele>
        <time>2021-06-01T12:51:30.316Z</time>
      </trkpt>
      <trkpt lat="44.13467" lon="5.87488">
        <ele>1098</ele>
        <time>2021-06-01T12:51:31.316Z</time>
      </trkpt>
      <trkpt lat="44.13467" lon="5.87488">
        <ele>1098</ele>
        <time>2021-06-01T12:51:32.316Z</time>
      </trkpt>
      <trkpt lat="44.13468" lon="5.87488">
        <ele>1098</ele>
        <time>2021-06-01T12:51:33.316Z</time>
      </trkpt>
      <trkpt lat="44.13468" lon="5.87488">
        <ele>1098</ele>
        <time>2021-06-01T12:51:34.316Z</time>
      </trkpt>
      <trkpt lat="44.13468" lon="5.87488">
        <ele>1098</ele>
        <time>2021-06-01T12:51:35.316Z</time>
      </trkpt>
      <trkpt lat="44.13468" lon="5.87488">
        <ele>1098</ele>
        <time>2021-06-01T12:51:36.316Z</time>
      </trkpt>
      <trkpt lat="44.13468" lon="5.87487">
        <ele>1098</ele>
        <time>2021-06-01T12:51:37.316Z</time>
      </trkpt>
      <trkpt lat="44.13468" lon="5.87487">
        <ele>1098</ele>
        <time>2021-06-01T12:51:38.316Z</time>
      </trkpt>
      <trkpt lat="44.13468" lon="5.87487">
        <ele>1098</ele>
        <time>2021-06-01T12:51:39.316Z</time>
      </trkpt>
      <trkpt lat="44.13468" lon="5.87487">
        <ele>1098</ele>
        <time>2021-06-01T12:51:40.316Z</time>
      </trkpt>
      <trkpt lat="44.13468" lon="5.87487">
        <ele>1098</ele>
        <time>2021-06-01T12:51:41.316Z</time>
      </trkpt>
      <trkpt lat="44.13468" lon="5.87487">
        <ele>1098</ele>
        <time>2021-06-01T12:51:42.316Z</time>
      </trkpt>
      <trkpt lat="44.13468" lon="5.87487">
        <ele>1098</ele>
        <time>2021-06-01T12:51:43.316Z</time>
      </trkpt>
      <trkpt lat="44.13468" lon="5.87487">
        <ele>1098</ele>
        <time>2021-06-01T12:51:44.316Z</time>
      </trkpt>
      <trkpt lat="44.13468" lon="5.87487">
        <ele>1098</ele>
        <time>2021-06-01T12:51:45.316Z</time>
      </trkpt>
      <trkpt lat="44.13468" lon="5.87487">
        <ele>1098</ele>
        <time>2021-06-01T12:51:46.316Z</time>
      </trkpt>
      <trkpt lat="44.13468" lon="5.87487">
        <ele>1098</ele>
        <time>2021-06-01T12:51:47.316Z</time>
      </trkpt>
      <trkpt lat="44.13468" lon="5.87487">
        <ele>1098</ele>
        <time>2021-06-01T12:51:48.316Z</time>
      </trkpt>
      <trkpt lat="44.13468" lon="5.87487">
        <ele>1098</ele>
        <time>2021-06-01T12:51:49.316Z</time>
      </trkpt>
      <trkpt lat="44.13468" lon="5.87487">
        <ele>1098</ele>
        <time>2021-06-01T12:51:50.316Z</time>
      </trkpt>
      <trkpt lat="44.13468" lon="5.87487">
        <ele>1098</ele>
        <time>2021-06-01T12:51:51.316Z</time>
      </trkpt>
      <trkpt lat="44.13468" lon="5.87487">
        <ele>1098</ele>
        <time>2021-06-01T12:51:52.316Z</time>
      </trkpt>
      <trkpt lat="44.13468" lon="5.87487">
        <ele>1098</ele>
        <time>2021-06-01T12:51:53.316Z</time>
      </trkpt>
      <trkpt lat="44.13468" lon="5.87487">
        <ele>1098</ele>
        <time>2021-06-01T12:51:54.316Z</time>
      </trkpt>
      <trkpt lat="44.13468" lon="5.87487">
        <ele>1098</ele>
        <time>2021-06-01T12:51:55.316Z</time>
      </trkpt>
      <trkpt lat="44.13468" lon="5.87487">
        <ele>1098</ele>
        <time>2021-06-01T12:51:56.316Z</time>
      </trkpt>
      <trkpt lat="44.13468" lon="5.87487">
        <ele>1098</ele>
        <time>2021-06-01T12:51:57.316Z</time>
      </trkpt>
      <trkpt lat="44.13468" lon="5.87487">
        <ele>1098</ele>
        <time>2021-06-01T12:51:58.316Z</time>
      </trkpt>
      <trkpt lat="44.13468" lon="5.87487">
        <ele>1098</ele>
        <time>2021-06-01T12:51:59.316Z</time>
      </trkpt>
      <trkpt lat="44.13468" lon="5.87487">
        <ele>1098</ele>
        <time>2021-06-01T12:52:00.316Z</time>
      </trkpt>
      <trkpt lat="44.13468" lon="5.87487">
        <ele>1098</ele>
        <time>2021-06-01T12:52:01.316Z</time>
      </trkpt>
      <trkpt lat="44.13468" lon="5.87487">
        <ele>1098</ele>
        <time>2021-06-01T12:52:02.316Z</time>
      </trkpt>
      <trkpt lat="44.13468" lon="5.87487">
        <ele>1098</ele>
        <time>2021-06-01T12:52:03.316Z</time>
      </trkpt>
      <trkpt lat="44.13468" lon="5.87487">
        <ele>1098</ele>
        <time>2021-06-01T12:52:04.316Z</time>
      </trkpt>
      <trkpt lat="44.13468" lon="5.87488">
        <ele>1098</ele>
        <time>2021-06-01T12:52:05.316Z</time>
      </trkpt>
      <trkpt lat="44.13468" lon="5.87488">
        <ele>1098</ele>
        <time>2021-06-01T12:52:06.316Z</time>
      </trkpt>
      <trkpt lat="44.13467" lon="5.87488">
        <ele>1098</ele>
        <time>2021-06-01T12:52:07.316Z</time>
      </trkpt>
      <trkpt lat="44.13467" lon="5.87489">
        <ele>1098</ele>
        <time>2021-06-01T12:52:08.316Z</time>
      </trkpt>
      <trkpt lat="44.13467" lon="5.8749">
        <ele>1098</ele>
        <time>2021-06-01T12:52:09.316Z</time>
      </trkpt>
      <trkpt lat="44.13467" lon="5.8749">
        <ele>1098</ele>
        <time>2021-06-01T12:52:10.316Z</time>
      </trkpt>
      <trkpt lat="44.13467" lon="5.8749">
        <ele>1098</ele>
        <time>2021-06-01T12:52:11.316Z</time>
      </trkpt>
      <trkpt lat="44.13467" lon="5.8749">
        <ele>1098</ele>
        <time>2021-06-01T12:52:12.316Z</time>
      </trkpt>
      <trkpt lat="44.13468" lon="5.8749">
        <ele>1098</ele>
        <time>2021-06-01T12:52:13.316Z</time>
      </trkpt>
      <trkpt lat="44.13468" lon="5.8749">
        <ele>1098</ele>
        <time>2021-06-01T12:52:14.316Z</time>
      </trkpt>
      <trkpt lat="44.13468" lon="5.8749">
        <ele>1098</ele>
        <time>2021-06-01T12:52:15.316Z</time>
      </trkpt>
      <trkpt lat="44.13468" lon="5.8749">
        <ele>1098</ele>
        <time>2021-06-01T12:52:16.316Z</time>
      </trkpt>
      <trkpt lat="44.13468" lon="5.87491">
        <ele>1098</ele>
        <time>2021-06-01T12:52:17.316Z</time>
      </trkpt>
      <trkpt lat="44.13468" lon="5.87491">
        <ele>1098</ele>
        <time>2021-06-01T12:52:18.316Z</time>
      </trkpt>
      <trkpt lat="44.13468" lon="5.87491">
        <ele>1098</ele>
        <time>2021-06-01T12:52:19.316Z</time>
      </trkpt>
      <trkpt lat="44.13469" lon="5.87491">
        <ele>1098</ele>
        <time>2021-06-01T12:52:20.316Z</time>
      </trkpt>
      <trkpt lat="44.13469" lon="5.87491">
        <ele>1097</ele>
        <time>2021-06-01T12:52:21.316Z</time>
      </trkpt>
      <trkpt lat="44.13469" lon="5.87491">
        <ele>1097</ele>
        <time>2021-06-01T12:52:22.316Z</time>
      </trkpt>
      <trkpt lat="44.13469" lon="5.87491">
        <ele>1097</ele>
        <time>2021-06-01T12:52:23.316Z</time>
      </trkpt>
      <trkpt lat="44.13469" lon="5.87491">
        <ele>1097</ele>
        <time>2021-06-01T12:52:24.316Z</time>
      </trkpt>
      <trkpt lat="44.13469" lon="5.87491">
        <ele>1097</ele>
        <time>2021-06-01T12:52:25.316Z</time>
      </trkpt>
      <trkpt lat="44.1347" lon="5.87492">
        <ele>1097</ele>
        <time>2021-06-01T12:52:26.316Z</time>
      </trkpt>
      <trkpt lat="44.1347" lon="5.87491">
        <ele>1097</ele>
        <time>2021-06-01T12:52:27.316Z</time>
      </trkpt>
      <trkpt lat="44.1347" lon="5.87491">
        <ele>1097</ele>
        <time>2021-06-01T12:52:28.316Z</time>
      </trkpt>
      <trkpt lat="44.13469" lon="5.87491">
        <ele>1097</ele>
        <time>2021-06-01T12:52:29.316Z</time>
      </trkpt>
      <trkpt lat="44.13469" lon="5.87492">
        <ele>1098</ele>
        <time>2021-06-01T12:52:30.316Z</time>
      </trkpt>
      <trkpt lat="44.13469" lon="5.87492">
        <ele>1098</ele>
        <time>2021-06-01T12:52:31.316Z</time>
      </trkpt>
      <trkpt lat="44.13469" lon="5.87491">
        <ele>1098</ele>
        <time>2021-06-01T12:52:32.316Z</time>
      </trkpt>
      <trkpt lat="44.13469" lon="5.87491">
        <ele>1098</ele>
        <time>2021-06-01T12:52:33.316Z</time>
      </trkpt>
      <trkpt lat="44.13469" lon="5.87491">
        <ele>1098</ele>
        <time>2021-06-01T12:52:34.316Z</time>
      </trkpt>
      <trkpt lat="44.13469" lon="5.87491">
        <ele>1098</ele>
        <time>2021-06-01T12:52:35.316Z</time>
      </trkpt>
      <trkpt lat="44.13469" lon="5.87491">
        <ele>1098</ele>
        <time>2021-06-01T12:52:36.316Z</time>
      </trkpt>
      <trkpt lat="44.1347" lon="5.87491">
        <ele>1098</ele>
        <time>2021-06-01T12:52:37.316Z</time>
      </trkpt>
      <trkpt lat="44.1347" lon="5.87491">
        <ele>1098</ele>
        <time>2021-06-01T12:52:38.316Z</time>
      </trkpt>
      <trkpt lat="44.13469" lon="5.87491">
        <ele>1098</ele>
        <time>2021-06-01T12:52:39.316Z</time>
      </trkpt>
      <trkpt lat="44.13469" lon="5.87491">
        <ele>1098</ele>
        <time>2021-06-01T12:52:40.316Z</time>
      </trkpt>
      <trkpt lat="44.13469" lon="5.87491">
        <ele>1098</ele>
        <time>2021-06-01T12:52:41.316Z</time>
      </trkpt>
      <trkpt lat="44.1347" lon="5.87492">
        <ele>1098</ele>
        <time>2021-06-01T12:52:42.316Z</time>
      </trkpt>
      <trkpt lat="44.1347" lon="5.87492">
        <ele>1098</ele>
        <time>2021-06-01T12:52:43.316Z</time>
      </trkpt>
      <trkpt lat="44.1347" lon="5.87492">
        <ele>1098</ele>
        <time>2021-06-01T12:52:44.316Z</time>
      </trkpt>
      <trkpt lat="44.13469" lon="5.87492">
        <ele>1098</ele>
        <time>2021-06-01T12:52:45.316Z</time>
      </trkpt>
      <trkpt lat="44.13469" lon="5.87492">
        <ele>1098</ele>
        <time>2021-06-01T12:52:46.316Z</time>
      </trkpt>
      <trkpt lat="44.13469" lon="5.87492">
        <ele>1098</ele>
        <time>2021-06-01T12:52:47.316Z</time>
      </trkpt>
      <trkpt lat="44.13469" lon="5.87492">
        <ele>1098</ele>
        <time>2021-06-01T12:52:48.316Z</time>
      </trkpt>
      <trkpt lat="44.13469" lon="5.87492">
        <ele>1098</ele>
        <time>2021-06-01T12:52:49.316Z</time>
      </trkpt>
      <trkpt lat="44.13469" lon="5.87492">
        <ele>1098</ele>
        <time>2021-06-01T12:52:50.316Z</time>
      </trkpt>
      <trkpt lat="44.13469" lon="5.87492">
        <ele>1098</ele>
        <time>2021-06-01T12:52:51.316Z</time>
      </trkpt>
      <trkpt lat="44.13469" lon="5.87492">
        <ele>1098</ele>
        <time>2021-06-01T12:52:52.316Z</time>
      </trkpt>
      <trkpt lat="44.13469" lon="5.87492">
        <ele>1098</ele>
        <time>2021-06-01T12:52:53.316Z</time>
      </trkpt>
      <trkpt lat="44.13469" lon="5.87492">
        <ele>1098</ele>
        <time>2021-06-01T12:52:54.316Z</time>
      </trkpt>
      <trkpt lat="44.13469" lon="5.87492">
        <ele>1098</ele>
        <time>2021-06-01T12:52:55.316Z</time>
      </trkpt>
      <trkpt lat="44.13469" lon="5.87492">
        <ele>1098</ele>
        <time>2021-06-01T12:52:56.316Z</time>
      </trkpt>
      <trkpt lat="44.13469" lon="5.87492">
        <ele>1098</ele>
        <time>2021-06-01T12:52:57.316Z</time>
      </trkpt>
      <trkpt lat="44.13469" lon="5.87492">
        <ele>1098</ele>
        <time>2021-06-01T12:52:58.316Z</time>
      </trkpt>
      <trkpt lat="44.13469" lon="5.87492">
        <ele>1098</ele>
        <time>2021-06-01T12:52:59.316Z</time>
      </trkpt>
      <trkpt lat="44.13469" lon="5.87492">
        <ele>1098</ele>
        <time>2021-06-01T12:53:00.316Z</time>
      </trkpt>
      <trkpt lat="44.1347" lon="5.87492">
        <ele>1098</ele>
        <time>2021-06-01T12:53:01.316Z</time>
      </trkpt>
      <trkpt lat="44.1347" lon="5.87492">
        <ele>1098</ele>
        <time>2021-06-01T12:53:02.316Z</time>
      </trkpt>
      <trkpt lat="44.1347" lon="5.87492">
        <ele>1098</ele>
        <time>2021-06-01T12:53:03.316Z</time>
      </trkpt>
      <trkpt lat="44.1347" lon="5.87492">
        <ele>1098</ele>
        <time>2021-06-01T12:53:04.316Z</time>
      </trkpt>
      <trkpt lat="44.1347" lon="5.87492">
        <ele>1098</ele>
        <time>2021-06-01T12:53:05.316Z</time>
      </trkpt>
      <trkpt lat="44.1347" lon="5.87492">
        <ele>1098</ele>
        <time>2021-06-01T12:53:06.316Z</time>
      </trkpt>
      <trkpt lat="44.1347" lon="5.87492">
        <ele>1098</ele>
        <time>2021-06-01T12:53:07.316Z</time>
      </trkpt>
      <trkpt lat="44.1347" lon="5.87491">
        <ele>1098</ele>
        <time>2021-06-01T12:53:08.316Z</time>
      </trkpt>
      <trkpt lat="44.1347" lon="5.87491">
        <ele>1098</ele>
        <time>2021-06-01T12:53:09.316Z</time>
      </trkpt>
      <trkpt lat="44.1347" lon="5.87491">
        <ele>1098</ele>
        <time>2021-06-01T12:53:10.316Z</time>
      </trkpt>
      <trkpt lat="44.1347" lon="5.87491">
        <ele>1098</ele>
        <time>2021-06-01T12:53:11.316Z</time>
      </trkpt>
      <trkpt lat="44.13469" lon="5.87491">
        <ele>1098</ele>
        <time>2021-06-01T12:53:12.316Z</time>
      </trkpt>
      <trkpt lat="44.13469" lon="5.87491">
        <ele>1098</ele>
        <time>2021-06-01T12:53:13.316Z</time>
      </trkpt>
      <trkpt lat="44.1347" lon="5.87491">
        <ele>1098</ele>
        <time>2021-06-01T12:53:14.316Z</time>
      </trkpt>
      <trkpt lat="44.1347" lon="5.87491">
        <ele>1098</ele>
        <time>2021-06-01T12:53:15.316Z</time>
      </trkpt>
      <trkpt lat="44.1347" lon="5.87492">
        <ele>1098</ele>
        <time>2021-06-01T12:53:16.316Z</time>
      </trkpt>
      <trkpt lat="44.1347" lon="5.87492">
        <ele>1098</ele>
        <time>2021-06-01T12:53:17.316Z</time>
      </trkpt>
      <trkpt lat="44.13471" lon="5.87491">
        <ele>1098</ele>
        <time>2021-06-01T12:53:18.316Z</time>
      </trkpt>
      <trkpt lat="44.13471" lon="5.87491">
        <ele>1098</ele>
        <time>2021-06-01T12:53:19.316Z</time>
      </trkpt>
      <trkpt lat="44.13471" lon="5.87491">
        <ele>1098</ele>
        <time>2021-06-01T12:53:20.316Z</time>
      </trkpt>
      <trkpt lat="44.13471" lon="5.87491">
        <ele>1098</ele>
        <time>2021-06-01T12:53:21.316Z</time>
      </trkpt>
      <trkpt lat="44.13471" lon="5.87491">
        <ele>1098</ele>
        <time>2021-06-01T12:53:22.316Z</time>
      </trkpt>
      <trkpt lat="44.13471" lon="5.87491">
        <ele>1098</ele>
        <time>2021-06-01T12:53:23.316Z</time>
      </trkpt>
      <trkpt lat="44.13471" lon="5.87491">
        <ele>1098</ele>
        <time>2021-06-01T12:53:24.316Z</time>
      </trkpt>
      <trkpt lat="44.13471" lon="5.87491">
        <ele>1098</ele>
        <time>2021-06-01T12:53:25.316Z</time>
      </trkpt>
      <trkpt lat="44.13471" lon="5.87491">
        <ele>1098</ele>
        <time>2021-06-01T12:53:26.316Z</time>
      </trkpt>
      <trkpt lat="44.13471" lon="5.87491">
        <ele>1098</ele>
        <time>2021-06-01T12:53:27.316Z</time>
      </trkpt>
      <trkpt lat="44.13471" lon="5.87491">
        <ele>1098</ele>
        <time>2021-06-01T12:53:28.316Z</time>
      </trkpt>
      <trkpt lat="44.13471" lon="5.87491">
        <ele>1098</ele>
        <time>2021-06-01T12:53:29.316Z</time>
      </trkpt>
      <trkpt lat="44.13471" lon="5.87491">
        <ele>1098</ele>
        <time>2021-06-01T12:53:30.316Z</time>
      </trkpt>
      <trkpt lat="44.13471" lon="5.87491">
        <ele>1098</ele>
        <time>2021-06-01T12:53:31.316Z</time>
      </trkpt>
      <trkpt lat="44.13471" lon="5.87491">
        <ele>1098</ele>
        <time>2021-06-01T12:53:32.316Z</time>
      </trkpt>
      <trkpt lat="44.13471" lon="5.87491">
        <ele>1098</ele>
        <time>2021-06-01T12:53:33.316Z</time>
      </trkpt>
      <trkpt lat="44.13471" lon="5.87491">
        <ele>1098</ele>
        <time>2021-06-01T12:53:34.316Z</time>
      </trkpt>
      <trkpt lat="44.13471" lon="5.87491">
        <ele>1098</ele>
        <time>2021-06-01T12:53:35.316Z</time>
      </trkpt>
      <trkpt lat="44.13471" lon="5.87491">
        <ele>1098</ele>
        <time>2021-06-01T12:53:36.316Z</time>
      </trkpt>
      <trkpt lat="44.13471" lon="5.87491">
        <ele>1098</ele>
        <time>2021-06-01T12:53:37.316Z</time>
      </trkpt>
      <trkpt lat="44.13471" lon="5.87491">
        <ele>1098</ele>
        <time>2021-06-01T12:53:38.316Z</time>
      </trkpt>
      <trkpt lat="44.13471" lon="5.87491">
        <ele>1098</ele>
        <time>2021-06-01T12:53:39.316Z</time>
      </trkpt>
      <trkpt lat="44.13471" lon="5.87491">
        <ele>1098</ele>
        <time>2021-06-01T12:53:40.316Z</time>
      </trkpt>
      <trkpt lat="44.13471" lon="5.87491">
        <ele>1098</ele>
        <time>2021-06-01T12:53:41.316Z</time>
      </trkpt>
      <trkpt lat="44.13471" lon="5.87491">
        <ele>1098</ele>
        <time>2021-06-01T12:53:42.316Z</time>
      </trkpt>
      <trkpt lat="44.13471" lon="5.87491">
        <ele>1098</ele>
        <time>2021-06-01T12:53:43.316Z</time>
      </trkpt>
      <trkpt lat="44.13471" lon="5.8749">
        <ele>1098</ele>
        <time>2021-06-01T12:53:44.316Z</time>
      </trkpt>
      <trkpt lat="44.13471" lon="5.8749">
        <ele>1098</ele>
        <time>2021-06-01T12:53:45.316Z</time>
      </trkpt>
      <trkpt lat="44.13471" lon="5.8749">
        <ele>1098</ele>
        <time>2021-06-01T12:53:46.316Z</time>
      </trkpt>
      <trkpt lat="44.13471" lon="5.8749">
        <ele>1098</ele>
        <time>2021-06-01T12:53:47.316Z</time>
      </trkpt>
      <trkpt lat="44.13471" lon="5.8749">
        <ele>1098</ele>
        <time>2021-06-01T12:53:48.316Z</time>
      </trkpt>
      <trkpt lat="44.13471" lon="5.8749">
        <ele>1098</ele>
        <time>2021-06-01T12:53:49.316Z</time>
      </trkpt>
      <trkpt lat="44.13471" lon="5.8749">
        <ele>1098</ele>
        <time>2021-06-01T12:53:50.316Z</time>
      </trkpt>
      <trkpt lat="44.13471" lon="5.8749">
        <ele>1098</ele>
        <time>2021-06-01T12:53:51.316Z</time>
      </trkpt>
      <trkpt lat="44.13471" lon="5.8749">
        <ele>1098</ele>
        <time>2021-06-01T12:53:52.316Z</time>
      </trkpt>
      <trkpt lat="44.13471" lon="5.8749">
        <ele>1098</ele>
        <time>2021-06-01T12:53:53.316Z</time>
      </trkpt>
      <trkpt lat="44.13471" lon="5.8749">
        <ele>1098</ele>
        <time>2021-06-01T12:53:54.316Z</time>
      </trkpt>
      <trkpt lat="44.13471" lon="5.8749">
        <ele>1098</ele>
        <time>2021-06-01T12:53:55.316Z</time>
      </trkpt>
      <trkpt lat="44.13471" lon="5.8749">
        <ele>1098</ele>
        <time>2021-06-01T12:53:56.316Z</time>
      </trkpt>
      <trkpt lat="44.13471" lon="5.8749">
        <ele>1098</ele>
        <time>2021-06-01T12:53:57.316Z</time>
      </trkpt>
      <trkpt lat="44.13471" lon="5.8749">
        <ele>1098</ele>
        <time>2021-06-01T12:53:58.316Z</time>
      </trkpt>
      <trkpt lat="44.13471" lon="5.8749">
        <ele>1098</ele>
        <time>2021-06-01T12:53:59.316Z</time>
      </trkpt>
      <trkpt lat="44.13471" lon="5.8749">
        <ele>1098</ele>
        <time>2021-06-01T12:54:00.316Z</time>
      </trkpt>
      <trkpt lat="44.13471" lon="5.8749">
        <ele>1098</ele>
        <time>2021-06-01T12:54:01.316Z</time>
      </trkpt>
      <trkpt lat="44.13471" lon="5.8749">
        <ele>1098</ele>
        <time>2021-06-01T12:54:02.316Z</time>
      </trkpt>
      <trkpt lat="44.13471" lon="5.8749">
        <ele>1098</ele>
        <time>2021-06-01T12:54:03.316Z</time>
      </trkpt>
      <trkpt lat="44.13471" lon="5.8749">
        <ele>1098</ele>
        <time>2021-06-01T12:54:04.316Z</time>
      </trkpt>
      <trkpt lat="44.13471" lon="5.8749">
        <ele>1098</ele>
        <time>2021-06-01T12:54:05.316Z</time>
      </trkpt>
      <trkpt lat="44.13471" lon="5.8749">
        <ele>1098</ele>
        <time>2021-06-01T12:54:06.316Z</time>
      </trkpt>
      <trkpt lat="44.13471" lon="5.8749">
        <ele>1098</ele>
        <time>2021-06-01T12:54:07.316Z</time>
      </trkpt>
      <trkpt lat="44.13471" lon="5.8749">
        <ele>1098</ele>
        <time>2021-06-01T12:54:08.316Z</time>
      </trkpt>
      <trkpt lat="44.13471" lon="5.8749">
        <ele>1098</ele>
        <time>2021-06-01T12:54:09.316Z</time>
      </trkpt>
      <trkpt lat="44.13471" lon="5.8749">
        <ele>1098</ele>
        <time>2021-06-01T12:54:10.316Z</time>
      </trkpt>
      <trkpt lat="44.13471" lon="5.8749">
        <ele>1098</ele>
        <time>2021-06-01T12:54:11.316Z</time>
      </trkpt>
      <trkpt lat="44.13471" lon="5.8749">
        <ele>1098</ele>
        <time>2021-06-01T12:54:12.316Z</time>
      </trkpt>
      <trkpt lat="44.13471" lon="5.8749">
        <ele>1098</ele>
        <time>2021-06-01T12:54:13.316Z</time>
      </trkpt>
      <trkpt lat="44.13471" lon="5.8749">
        <ele>1098</ele>
        <time>2021-06-01T12:54:14.316Z</time>
      </trkpt>
      <trkpt lat="44.13471" lon="5.8749">
        <ele>1098</ele>
        <time>2021-06-01T12:54:15.316Z</time>
      </trkpt>
      <trkpt lat="44.13471" lon="5.8749">
        <ele>1098</ele>
        <time>2021-06-01T12:54:16.316Z</time>
      </trkpt>
      <trkpt lat="44.13471" lon="5.8749">
        <ele>1098</ele>
        <time>2021-06-01T12:54:17.316Z</time>
      </trkpt>
      <trkpt lat="44.13471" lon="5.8749">
        <ele>1098</ele>
        <time>2021-06-01T12:54:18.316Z</time>
      </trkpt>
      <trkpt lat="44.13471" lon="5.8749">
        <ele>1098</ele>
        <time>2021-06-01T12:54:19.316Z</time>
      </trkpt>
      <trkpt lat="44.13471" lon="5.8749">
        <ele>1098</ele>
        <time>2021-06-01T12:54:20.316Z</time>
      </trkpt>
      <trkpt lat="44.13471" lon="5.8749">
        <ele>1098</ele>
        <time>2021-06-01T12:54:21.316Z</time>
      </trkpt>
      <trkpt lat="44.13471" lon="5.8749">
        <ele>1098</ele>
        <time>2021-06-01T12:54:22.316Z</time>
      </trkpt>
      <trkpt lat="44.13471" lon="5.8749">
        <ele>1098</ele>
        <time>2021-06-01T12:54:23.316Z</time>
      </trkpt>
      <trkpt lat="44.13471" lon="5.8749">
        <ele>1098</ele>
        <time>2021-06-01T12:54:24.316Z</time>
      </trkpt>
      <trkpt lat="44.13471" lon="5.8749">
        <ele>1098</ele>
        <time>2021-06-01T12:54:25.316Z</time>
      </trkpt>
      <trkpt lat="44.13471" lon="5.8749">
        <ele>1098</ele>
        <time>2021-06-01T12:54:26.316Z</time>
      </trkpt>
      <trkpt lat="44.13471" lon="5.8749">
        <ele>1098</ele>
        <time>2021-06-01T12:54:27.316Z</time>
      </trkpt>
      <trkpt lat="44.13471" lon="5.8749">
        <ele>1098</ele>
        <time>2021-06-01T12:54:28.316Z</time>
      </trkpt>
      <trkpt lat="44.13471" lon="5.8749">
        <ele>1098</ele>
        <time>2021-06-01T12:54:29.316Z</time>
      </trkpt>
      <trkpt lat="44.13471" lon="5.8749">
        <ele>1098</ele>
        <time>2021-06-01T12:54:30.316Z</time>
      </trkpt>
      <trkpt lat="44.13471" lon="5.8749">
        <ele>1098</ele>
        <time>2021-06-01T12:54:31.316Z</time>
      </trkpt>
      <trkpt lat="44.13471" lon="5.8749">
        <ele>1098</ele>
        <time>2021-06-01T12:54:32.316Z</time>
      </trkpt>
      <trkpt lat="44.13471" lon="5.8749">
        <ele>1098</ele>
        <time>2021-06-01T12:54:33.316Z</time>
      </trkpt>
      <trkpt lat="44.13471" lon="5.8749">
        <ele>1098</ele>
        <time>2021-06-01T12:54:34.316Z</time>
      </trkpt>
      <trkpt lat="44.13471" lon="5.8749">
        <ele>1098</ele>
        <time>2021-06-01T12:54:35.316Z</time>
      </trkpt>
      <trkpt lat="44.13471" lon="5.8749">
        <ele>1098</ele>
        <time>2021-06-01T12:54:36.316Z</time>
      </trkpt>
      <trkpt lat="44.13471" lon="5.8749">
        <ele>1098</ele>
        <time>2021-06-01T12:54:37.316Z</time>
      </trkpt>
      <trkpt lat="44.13471" lon="5.8749">
        <ele>1098</ele>
        <time>2021-06-01T12:54:38.316Z</time>
      </trkpt>
      <trkpt lat="44.13471" lon="5.8749">
        <ele>1098</ele>
        <time>2021-06-01T12:54:39.316Z</time>
      </trkpt>
      <trkpt lat="44.13471" lon="5.8749">
        <ele>1098</ele>
        <time>2021-06-01T12:54:40.316Z</time>
      </trkpt>
      <trkpt lat="44.13471" lon="5.8749">
        <ele>1098</ele>
        <time>2021-06-01T12:54:41.316Z</time>
      </trkpt>
      <trkpt lat="44.13471" lon="5.8749">
        <ele>1098</ele>
        <time>2021-06-01T12:54:42.316Z</time>
      </trkpt>
      <trkpt lat="44.13471" lon="5.8749">
        <ele>1098</ele>
        <time>2021-06-01T12:54:43.316Z</time>
      </trkpt>
      <trkpt lat="44.13471" lon="5.8749">
        <ele>1098</ele>
        <time>2021-06-01T12:54:44.316Z</time>
      </trkpt>
      <trkpt lat="44.13471" lon="5.8749">
        <ele>1098</ele>
        <time>2021-06-01T12:54:45.316Z</time>
      </trkpt>
      <trkpt lat="44.13471" lon="5.8749">
        <ele>1098</ele>
        <time>2021-06-01T12:54:46.316Z</time>
      </trkpt>
      <trkpt lat="44.13471" lon="5.8749">
        <ele>1098</ele>
        <time>2021-06-01T12:54:47.316Z</time>
      </trkpt>
      <trkpt lat="44.13471" lon="5.8749">
        <ele>1098</ele>
        <time>2021-06-01T12:54:48.316Z</time>
      </trkpt>
      <trkpt lat="44.13471" lon="5.8749">
        <ele>1098</ele>
        <time>2021-06-01T12:54:49.316Z</time>
      </trkpt>
      <trkpt lat="44.13471" lon="5.8749">
        <ele>1098</ele>
        <time>2021-06-01T12:54:50.316Z</time>
      </trkpt>
      <trkpt lat="44.13471" lon="5.8749">
        <ele>1098</ele>
        <time>2021-06-01T12:54:51.316Z</time>
      </trkpt>
      <trkpt lat="44.13471" lon="5.8749">
        <ele>1098</ele>
        <time>2021-06-01T12:54:52.316Z</time>
      </trkpt>
      <trkpt lat="44.13471" lon="5.8749">
        <ele>1098</ele>
        <time>2021-06-01T12:54:53.316Z</time>
      </trkpt>
      <trkpt lat="44.13471" lon="5.8749">
        <ele>1098</ele>
        <time>2021-06-01T12:54:54.316Z</time>
      </trkpt>
      <trkpt lat="44.13471" lon="5.8749">
        <ele>1098</ele>
        <time>2021-06-01T12:54:55.316Z</time>
      </trkpt>
      <trkpt lat="44.13471" lon="5.8749">
        <ele>1098</ele>
        <time>2021-06-01T12:54:56.316Z</time>
      </trkpt>
      <trkpt lat="44.13471" lon="5.8749">
        <ele>1098</ele>
        <time>2021-06-01T12:54:57.316Z</time>
      </trkpt>
      <trkpt lat="44.13471" lon="5.8749">
        <ele>1098</ele>
        <time>2021-06-01T12:54:58.316Z</time>
      </trkpt>
      <trkpt lat="44.13471" lon="5.8749">
        <ele>1098</ele>
        <time>2021-06-01T12:54:59.316Z</time>
      </trkpt>
      <trkpt lat="44.13471" lon="5.8749">
        <ele>1098</ele>
        <time>2021-06-01T12:55:00.316Z</time>
      </trkpt>
      <trkpt lat="44.13471" lon="5.8749">
        <ele>1098</ele>
        <time>2021-06-01T12:55:01.316Z</time>
      </trkpt>
      <trkpt lat="44.13471" lon="5.8749">
        <ele>1098</ele>
        <time>2021-06-01T12:55:02.316Z</time>
      </trkpt>
      <trkpt lat="44.13471" lon="5.8749">
        <ele>1098</ele>
        <time>2021-06-01T12:55:03.316Z</time>
      </trkpt>
      <trkpt lat="44.13471" lon="5.8749">
        <ele>1098</ele>
        <time>2021-06-01T12:55:04.316Z</time>
      </trkpt>
      <trkpt lat="44.13471" lon="5.8749">
        <ele>1098</ele>
        <time>2021-06-01T12:55:05.316Z</time>
      </trkpt>
      <trkpt lat="44.13471" lon="5.8749">
        <ele>1098</ele>
        <time>2021-06-01T12:55:06.316Z</time>
      </trkpt>
      <trkpt lat="44.13471" lon="5.8749">
        <ele>1098</ele>
        <time>2021-06-01T12:55:07.316Z</time>
      </trkpt>
      <trkpt lat="44.13471" lon="5.8749">
        <ele>1098</ele>
        <time>2021-06-01T12:55:08.316Z</time>
      </trkpt>
      <trkpt lat="44.13471" lon="5.8749">
        <ele>1098</ele>
        <time>2021-06-01T12:55:09.316Z</time>
      </trkpt>
      <trkpt lat="44.13471" lon="5.8749">
        <ele>1098</ele>
        <time>2021-06-01T12:55:10.316Z</time>
      </trkpt>
      <trkpt lat="44.13471" lon="5.8749">
        <ele>1098</ele>
        <time>2021-06-01T12:55:11.316Z</time>
      </trkpt>
      <trkpt lat="44.13471" lon="5.8749">
        <ele>1098</ele>
        <time>2021-06-01T12:55:12.316Z</time>
      </trkpt>
      <trkpt lat="44.13471" lon="5.8749">
        <ele>1098</ele>
        <time>2021-06-01T12:55:13.316Z</time>
      </trkpt>
      <trkpt lat="44.13471" lon="5.8749">
        <ele>1098</ele>
        <time>2021-06-01T12:55:14.316Z</time>
      </trkpt>
      <trkpt lat="44.13471" lon="5.8749">
        <ele>1098</ele>
        <time>2021-06-01T12:55:15.316Z</time>
      </trkpt>
      <trkpt lat="44.13471" lon="5.8749">
        <ele>1098</ele>
        <time>2021-06-01T12:55:16.316Z</time>
      </trkpt>
      <trkpt lat="44.13471" lon="5.8749">
        <ele>1098</ele>
        <time>2021-06-01T12:55:17.316Z</time>
      </trkpt>
      <trkpt lat="44.13471" lon="5.8749">
        <ele>1098</ele>
        <time>2021-06-01T12:55:18.316Z</time>
      </trkpt>
      <trkpt lat="44.13471" lon="5.8749">
        <ele>1098</ele>
        <time>2021-06-01T12:55:19.316Z</time>
      </trkpt>
      <trkpt lat="44.13471" lon="5.8749">
        <ele>1098</ele>
        <time>2021-06-01T12:55:20.316Z</time>
      </trkpt>
      <trkpt lat="44.13471" lon="5.8749">
        <ele>1098</ele>
        <time>2021-06-01T12:55:21.316Z</time>
      </trkpt>
      <trkpt lat="44.13471" lon="5.8749">
        <ele>1098</ele>
        <time>2021-06-01T12:55:22.316Z</time>
      </trkpt>
      <trkpt lat="44.13471" lon="5.8749">
        <ele>1098</ele>
        <time>2021-06-01T12:55:23.316Z</time>
      </trkpt>
      <trkpt lat="44.13471" lon="5.8749">
        <ele>1098</ele>
        <time>2021-06-01T12:55:24.316Z</time>
      </trkpt>
      <trkpt lat="44.13471" lon="5.8749">
        <ele>1098</ele>
        <time>2021-06-01T12:55:25.316Z</time>
      </trkpt>
      <trkpt lat="44.13471" lon="5.8749">
        <ele>1098</ele>
        <time>2021-06-01T12:55:26.316Z</time>
      </trkpt>
      <trkpt lat="44.13471" lon="5.8749">
        <ele>1098</ele>
        <time>2021-06-01T12:55:27.316Z</time>
      </trkpt>
      <trkpt lat="44.13471" lon="5.8749">
        <ele>1098</ele>
        <time>2021-06-01T12:55:28.316Z</time>
      </trkpt>
      <trkpt lat="44.13471" lon="5.8749">
        <ele>1098</ele>
        <time>2021-06-01T12:55:29.316Z</time>
      </trkpt>
      <trkpt lat="44.13471" lon="5.8749">
        <ele>1098</ele>
        <time>2021-06-01T12:55:30.316Z</time>
      </trkpt>
      <trkpt lat="44.13471" lon="5.8749">
        <ele>1098</ele>
        <time>2021-06-01T12:55:31.316Z</time>
      </trkpt>
      <trkpt lat="44.13471" lon="5.8749">
        <ele>1098</ele>
        <time>2021-06-01T12:55:32.316Z</time>
      </trkpt>
      <trkpt lat="44.13471" lon="5.8749">
        <ele>1098</ele>
        <time>2021-06-01T12:55:33.316Z</time>
      </trkpt>
      <trkpt lat="44.13471" lon="5.8749">
        <ele>1098</ele>
        <time>2021-06-01T12:55:34.316Z</time>
      </trkpt>
      <trkpt lat="44.13471" lon="5.8749">
        <ele>1098</ele>
        <time>2021-06-01T12:55:35.316Z</time>
      </trkpt>
      <trkpt lat="44.13471" lon="5.8749">
        <ele>1098</ele>
        <time>2021-06-01T12:55:36.316Z</time>
      </trkpt>
      <trkpt lat="44.13471" lon="5.8749">
        <ele>1098</ele>
        <time>2021-06-01T12:55:37.316Z</time>
      </trkpt>
      <trkpt lat="44.13471" lon="5.8749">
        <ele>1098</ele>
        <time>2021-06-01T12:55:38.316Z</time>
      </trkpt>
      <trkpt lat="44.13471" lon="5.8749">
        <ele>1098</ele>
        <time>2021-06-01T12:55:39.316Z</time>
      </trkpt>
      <trkpt lat="44.13471" lon="5.8749">
        <ele>1098</ele>
        <time>2021-06-01T12:55:40.316Z</time>
      </trkpt>
      <trkpt lat="44.13471" lon="5.8749">
        <ele>1098</ele>
        <time>2021-06-01T12:55:41.316Z</time>
      </trkpt>
      <trkpt lat="44.13471" lon="5.8749">
        <ele>1098</ele>
        <time>2021-06-01T12:55:42.316Z</time>
      </trkpt>
      <trkpt lat="44.13471" lon="5.8749">
        <ele>1098</ele>
        <time>2021-06-01T12:55:43.316Z</time>
      </trkpt>
      <trkpt lat="44.13471" lon="5.8749">
        <ele>1098</ele>
        <time>2021-06-01T12:55:44.316Z</time>
      </trkpt>
      <trkpt lat="44.13471" lon="5.8749">
        <ele>1098</ele>
        <time>2021-06-01T12:55:45.316Z</time>
      </trkpt>
      <trkpt lat="44.13471" lon="5.8749">
        <ele>1098</ele>
        <time>2021-06-01T12:55:46.316Z</time>
      </trkpt>
      <trkpt lat="44.13471" lon="5.8749">
        <ele>1098</ele>
        <time>2021-06-01T12:55:47.316Z</time>
      </trkpt>
      <trkpt lat="44.13472" lon="5.8749">
        <ele>1098</ele>
        <time>2021-06-01T12:55:48.316Z</time>
      </trkpt>
      <trkpt lat="44.13472" lon="5.8749">
        <ele>1098</ele>
        <time>2021-06-01T12:55:49.316Z</time>
      </trkpt>
      <trkpt lat="44.13472" lon="5.8749">
        <ele>1098</ele>
        <time>2021-06-01T12:55:50.316Z</time>
      </trkpt>
      <trkpt lat="44.13472" lon="5.8749">
        <ele>1098</ele>
        <time>2021-06-01T12:55:51.316Z</time>
      </trkpt>
      <trkpt lat="44.13472" lon="5.8749">
        <ele>1098</ele>
        <time>2021-06-01T12:55:52.316Z</time>
      </trkpt>
      <trkpt lat="44.13472" lon="5.8749">
        <ele>1098</ele>
        <time>2021-06-01T12:55:53.316Z</time>
      </trkpt>
      <trkpt lat="44.13472" lon="5.8749">
        <ele>1098</ele>
        <time>2021-06-01T12:55:54.316Z</time>
      </trkpt>
      <trkpt lat="44.13472" lon="5.8749">
        <ele>1098</ele>
        <time>2021-06-01T12:55:55.316Z</time>
      </trkpt>
      <trkpt lat="44.13472" lon="5.8749">
        <ele>1098</ele>
        <time>2021-06-01T12:55:56.316Z</time>
      </trkpt>
      <trkpt lat="44.13472" lon="5.8749">
        <ele>1098</ele>
        <time>2021-06-01T12:55:57.316Z</time>
      </trkpt>
      <trkpt lat="44.13472" lon="5.8749">
        <ele>1098</ele>
        <time>2021-06-01T12:55:58.316Z</time>
      </trkpt>
      <trkpt lat="44.13472" lon="5.8749">
        <ele>1098</ele>
        <time>2021-06-01T12:55:59.316Z</time>
      </trkpt>
      <trkpt lat="44.13472" lon="5.8749">
        <ele>1098</ele>
        <time>2021-06-01T12:56:00.316Z</time>
      </trkpt>
      <trkpt lat="44.13472" lon="5.8749">
        <ele>1098</ele>
        <time>2021-06-01T12:56:01.316Z</time>
      </trkpt>
      <trkpt lat="44.13472" lon="5.8749">
        <ele>1098</ele>
        <time>2021-06-01T12:56:02.316Z</time>
      </trkpt>
      <trkpt lat="44.13472" lon="5.8749">
        <ele>1098</ele>
        <time>2021-06-01T12:56:03.316Z</time>
      </trkpt>
      <trkpt lat="44.13472" lon="5.8749">
        <ele>1098</ele>
        <time>2021-06-01T12:56:04.316Z</time>
      </trkpt>
      <trkpt lat="44.13472" lon="5.87491">
        <ele>1098</ele>
        <time>2021-06-01T12:56:05.316Z</time>
      </trkpt>
      <trkpt lat="44.13472" lon="5.87491">
        <ele>1098</ele>
        <time>2021-06-01T12:56:06.316Z</time>
      </trkpt>
      <trkpt lat="44.13472" lon="5.87491">
        <ele>1098</ele>
        <time>2021-06-01T12:56:07.316Z</time>
      </trkpt>
      <trkpt lat="44.13472" lon="5.87491">
        <ele>1098</ele>
        <time>2021-06-01T12:56:08.316Z</time>
      </trkpt>
      <trkpt lat="44.13472" lon="5.87491">
        <ele>1098</ele>
        <time>2021-06-01T12:56:09.316Z</time>
      </trkpt>
      <trkpt lat="44.13472" lon="5.8749">
        <ele>1098</ele>
        <time>2021-06-01T12:56:10.316Z</time>
      </trkpt>
      <trkpt lat="44.13472" lon="5.8749">
        <ele>1098</ele>
        <time>2021-06-01T12:56:11.316Z</time>
      </trkpt>
      <trkpt lat="44.13472" lon="5.8749">
        <ele>1098</ele>
        <time>2021-06-01T12:56:12.316Z</time>
      </trkpt>
      <trkpt lat="44.13472" lon="5.8749">
        <ele>1098</ele>
        <time>2021-06-01T12:56:13.316Z</time>
      </trkpt>
      <trkpt lat="44.13472" lon="5.8749">
        <ele>1098</ele>
        <time>2021-06-01T12:56:14.316Z</time>
      </trkpt>
      <trkpt lat="44.13472" lon="5.8749">
        <ele>1098</ele>
        <time>2021-06-01T12:56:15.316Z</time>
      </trkpt>
      <trkpt lat="44.13472" lon="5.8749">
        <ele>1098</ele>
        <time>2021-06-01T12:56:16.316Z</time>
      </trkpt>
      <trkpt lat="44.13472" lon="5.8749">
        <ele>1098</ele>
        <time>2021-06-01T12:56:17.316Z</time>
      </trkpt>
      <trkpt lat="44.13472" lon="5.8749">
        <ele>1098</ele>
        <time>2021-06-01T12:56:18.316Z</time>
      </trkpt>
      <trkpt lat="44.13472" lon="5.8749">
        <ele>1098</ele>
        <time>2021-06-01T12:56:19.316Z</time>
      </trkpt>
      <trkpt lat="44.13472" lon="5.8749">
        <ele>1098</ele>
        <time>2021-06-01T12:56:20.316Z</time>
      </trkpt>
      <trkpt lat="44.13472" lon="5.8749">
        <ele>1098</ele>
        <time>2021-06-01T12:56:21.316Z</time>
      </trkpt>
      <trkpt lat="44.13472" lon="5.8749">
        <ele>1098</ele>
        <time>2021-06-01T12:56:22.316Z</time>
      </trkpt>
      <trkpt lat="44.13472" lon="5.8749">
        <ele>1098</ele>
        <time>2021-06-01T12:56:23.316Z</time>
      </trkpt>
      <trkpt lat="44.13472" lon="5.8749">
        <ele>1098</ele>
        <time>2021-06-01T12:56:24.316Z</time>
      </trkpt>
      <trkpt lat="44.13472" lon="5.8749">
        <ele>1098</ele>
        <time>2021-06-01T12:56:25.316Z</time>
      </trkpt>
      <trkpt lat="44.13472" lon="5.8749">
        <ele>1098</ele>
        <time>2021-06-01T12:56:26.316Z</time>
      </trkpt>
      <trkpt lat="44.13472" lon="5.8749">
        <ele>1098</ele>
        <time>2021-06-01T12:56:27.316Z</time>
      </trkpt>
      <trkpt lat="44.13472" lon="5.8749">
        <ele>1098</ele>
        <time>2021-06-01T12:56:28.316Z</time>
      </trkpt>
      <trkpt lat="44.13472" lon="5.8749">
        <ele>1098</ele>
        <time>2021-06-01T12:56:29.316Z</time>
      </trkpt>
      <trkpt lat="44.13472" lon="5.8749">
        <ele>1098</ele>
        <time>2021-06-01T12:56:30.316Z</time>
      </trkpt>
      <trkpt lat="44.13472" lon="5.8749">
        <ele>1098</ele>
        <time>2021-06-01T12:56:31.316Z</time>
      </trkpt>
      <trkpt lat="44.13472" lon="5.8749">
        <ele>1098</ele>
        <time>2021-06-01T12:56:32.316Z</time>
      </trkpt>
      <trkpt lat="44.13471" lon="5.8749">
        <ele>1098</ele>
        <time>2021-06-01T12:56:33.316Z</time>
      </trkpt>
      <trkpt lat="44.13471" lon="5.87489">
        <ele>1098</ele>
        <time>2021-06-01T12:56:34.316Z</time>
      </trkpt>
      <trkpt lat="44.13471" lon="5.87489">
        <ele>1098</ele>
        <time>2021-06-01T12:56:35.316Z</time>
      </trkpt>
      <trkpt lat="44.13471" lon="5.87489">
        <ele>1098</ele>
        <time>2021-06-01T12:56:36.316Z</time>
      </trkpt>
      <trkpt lat="44.1347" lon="5.87489">
        <ele>1098</ele>
        <time>2021-06-01T12:56:37.316Z</time>
      </trkpt>
      <trkpt lat="44.1347" lon="5.87489">
        <ele>1099</ele>
        <time>2021-06-01T12:56:38.316Z</time>
      </trkpt>
      <trkpt lat="44.1347" lon="5.87489">
        <ele>1099</ele>
        <time>2021-06-01T12:56:39.316Z</time>
      </trkpt>
      <trkpt lat="44.13469" lon="5.87488">
        <ele>1099</ele>
        <time>2021-06-01T12:56:40.316Z</time>
      </trkpt>
      <trkpt lat="44.13469" lon="5.87488">
        <ele>1099</ele>
        <time>2021-06-01T12:56:41.316Z</time>
      </trkpt>
      <trkpt lat="44.13469" lon="5.87487">
        <ele>1099</ele>
        <time>2021-06-01T12:56:42.316Z</time>
      </trkpt>
      <trkpt lat="44.13469" lon="5.87488">
        <ele>1099</ele>
        <time>2021-06-01T12:56:43.316Z</time>
      </trkpt>
      <trkpt lat="44.13468" lon="5.87488">
        <ele>1099</ele>
        <time>2021-06-01T12:56:44.316Z</time>
      </trkpt>
      <trkpt lat="44.13468" lon="5.87488">
        <ele>1099</ele>
        <time>2021-06-01T12:56:45.316Z</time>
      </trkpt>
      <trkpt lat="44.13468" lon="5.87488">
        <ele>1099</ele>
        <time>2021-06-01T12:56:46.316Z</time>
      </trkpt>
      <trkpt lat="44.13468" lon="5.87488">
        <ele>1099</ele>
        <time>2021-06-01T12:56:47.316Z</time>
      </trkpt>
      <trkpt lat="44.13468" lon="5.87488">
        <ele>1099</ele>
        <time>2021-06-01T12:56:48.316Z</time>
      </trkpt>
      <trkpt lat="44.13468" lon="5.87488">
        <ele>1099</ele>
        <time>2021-06-01T12:56:49.316Z</time>
      </trkpt>
      <trkpt lat="44.13468" lon="5.87488">
        <ele>1099</ele>
        <time>2021-06-01T12:56:50.316Z</time>
      </trkpt>
      <trkpt lat="44.13467" lon="5.87488">
        <ele>1099</ele>
        <time>2021-06-01T12:56:51.316Z</time>
      </trkpt>
      <trkpt lat="44.13467" lon="5.87488">
        <ele>1099</ele>
        <time>2021-06-01T12:56:52.316Z</time>
      </trkpt>
      <trkpt lat="44.13467" lon="5.87488">
        <ele>1099</ele>
        <time>2021-06-01T12:56:53.316Z</time>
      </trkpt>
      <trkpt lat="44.13467" lon="5.87488">
        <ele>1099</ele>
        <time>2021-06-01T12:56:54.316Z</time>
      </trkpt>
      <trkpt lat="44.13467" lon="5.87488">
        <ele>1099</ele>
        <time>2021-06-01T12:56:55.316Z</time>
      </trkpt>
      <trkpt lat="44.13467" lon="5.87488">
        <ele>1099</ele>
        <time>2021-06-01T12:56:56.316Z</time>
      </trkpt>
      <trkpt lat="44.13467" lon="5.87488">
        <ele>1099</ele>
        <time>2021-06-01T12:56:57.316Z</time>
      </trkpt>
      <trkpt lat="44.13467" lon="5.87488">
        <ele>1099</ele>
        <time>2021-06-01T12:56:58.316Z</time>
      </trkpt>
      <trkpt lat="44.13467" lon="5.87488">
        <ele>1099</ele>
        <time>2021-06-01T12:56:59.316Z</time>
      </trkpt>
      <trkpt lat="44.13467" lon="5.87488">
        <ele>1099</ele>
        <time>2021-06-01T12:57:00.316Z</time>
      </trkpt>
      <trkpt lat="44.13467" lon="5.87488">
        <ele>1099</ele>
        <time>2021-06-01T12:57:01.316Z</time>
      </trkpt>
      <trkpt lat="44.13467" lon="5.87488">
        <ele>1099</ele>
        <time>2021-06-01T12:57:02.316Z</time>
      </trkpt>
      <trkpt lat="44.13467" lon="5.87488">
        <ele>1099</ele>
        <time>2021-06-01T12:57:03.316Z</time>
      </trkpt>
      <trkpt lat="44.13467" lon="5.87488">
        <ele>1099</ele>
        <time>2021-06-01T12:57:04.316Z</time>
      </trkpt>
      <trkpt lat="44.13467" lon="5.87488">
        <ele>1099</ele>
        <time>2021-06-01T12:57:05.316Z</time>
      </trkpt>
      <trkpt lat="44.13467" lon="5.87488">
        <ele>1099</ele>
        <time>2021-06-01T12:57:06.316Z</time>
      </trkpt>
      <trkpt lat="44.13467" lon="5.87488">
        <ele>1099</ele>
        <time>2021-06-01T12:57:07.316Z</time>
      </trkpt>
      <trkpt lat="44.13467" lon="5.87488">
        <ele>1099</ele>
        <time>2021-06-01T12:57:08.316Z</time>
      </trkpt>
      <trkpt lat="44.13467" lon="5.87488">
        <ele>1099</ele>
        <time>2021-06-01T12:57:09.316Z</time>
      </trkpt>
      <trkpt lat="44.13467" lon="5.87488">
        <ele>1099</ele>
        <time>2021-06-01T12:57:10.316Z</time>
      </trkpt>
      <trkpt lat="44.13467" lon="5.87488">
        <ele>1098</ele>
        <time>2021-06-01T12:57:11.316Z</time>
      </trkpt>
      <trkpt lat="44.13467" lon="5.87488">
        <ele>1098</ele>
        <time>2021-06-01T12:57:12.316Z</time>
      </trkpt>
      <trkpt lat="44.13467" lon="5.87488">
        <ele>1098</ele>
        <time>2021-06-01T12:57:13.316Z</time>
      </trkpt>
      <trkpt lat="44.13467" lon="5.87488">
        <ele>1098</ele>
        <time>2021-06-01T12:57:14.316Z</time>
      </trkpt>
      <trkpt lat="44.13467" lon="5.87488">
        <ele>1098</ele>
        <time>2021-06-01T12:57:15.316Z</time>
      </trkpt>
      <trkpt lat="44.13467" lon="5.87488">
        <ele>1099</ele>
        <time>2021-06-01T12:57:16.316Z</time>
      </trkpt>
      <trkpt lat="44.13467" lon="5.87488">
        <ele>1099</ele>
        <time>2021-06-01T12:57:17.316Z</time>
      </trkpt>
      <trkpt lat="44.13467" lon="5.87488">
        <ele>1099</ele>
        <time>2021-06-01T12:57:18.316Z</time>
      </trkpt>
      <trkpt lat="44.13467" lon="5.87488">
        <ele>1099</ele>
        <time>2021-06-01T12:57:19.316Z</time>
      </trkpt>
      <trkpt lat="44.13467" lon="5.87488">
        <ele>1099</ele>
        <time>2021-06-01T12:57:20.316Z</time>
      </trkpt>
      <trkpt lat="44.13467" lon="5.87488">
        <ele>1099</ele>
        <time>2021-06-01T12:57:21.316Z</time>
      </trkpt>
      <trkpt lat="44.13467" lon="5.87488">
        <ele>1099</ele>
        <time>2021-06-01T12:57:22.316Z</time>
      </trkpt>
      <trkpt lat="44.13467" lon="5.87488">
        <ele>1099</ele>
        <time>2021-06-01T12:57:23.316Z</time>
      </trkpt>
      <trkpt lat="44.13467" lon="5.87488">
        <ele>1099</ele>
        <time>2021-06-01T12:57:24.316Z</time>
      </trkpt>
      <trkpt lat="44.13467" lon="5.87488">
        <ele>1099</ele>
        <time>2021-06-01T12:57:25.316Z</time>
      </trkpt>
      <trkpt lat="44.13467" lon="5.87488">
        <ele>1099</ele>
        <time>2021-06-01T12:57:26.316Z</time>
      </trkpt>
      <trkpt lat="44.13467" lon="5.87488">
        <ele>1098</ele>
        <time>2021-06-01T12:57:27.316Z</time>
      </trkpt>
      <trkpt lat="44.13466" lon="5.87488">
        <ele>1098</ele>
        <time>2021-06-01T12:57:28.316Z</time>
      </trkpt>
      <trkpt lat="44.13466" lon="5.87488">
        <ele>1098</ele>
        <time>2021-06-01T12:57:29.316Z</time>
      </trkpt>
      <trkpt lat="44.13466" lon="5.87488">
        <ele>1098</ele>
        <time>2021-06-01T12:57:30.316Z</time>
      </trkpt>
      <trkpt lat="44.13465" lon="5.87488">
        <ele>1098</ele>
        <time>2021-06-01T12:57:31.316Z</time>
      </trkpt>
      <trkpt lat="44.13465" lon="5.87487">
        <ele>1098</ele>
        <time>2021-06-01T12:57:32.316Z</time>
      </trkpt>
      <trkpt lat="44.13464" lon="5.87487">
        <ele>1098</ele>
        <time>2021-06-01T12:57:33.316Z</time>
      </trkpt>
      <trkpt lat="44.13464" lon="5.87486">
        <ele>1098</ele>
        <time>2021-06-01T12:57:34.316Z</time>
      </trkpt>
      <trkpt lat="44.13463" lon="5.87486">
        <ele>1098</ele>
        <time>2021-06-01T12:57:35.316Z</time>
      </trkpt>
      <trkpt lat="44.13463" lon="5.87485">
        <ele>1098</ele>
        <time>2021-06-01T12:57:36.316Z</time>
      </trkpt>
      <trkpt lat="44.13463" lon="5.87484">
        <ele>1098</ele>
        <time>2021-06-01T12:57:37.316Z</time>
      </trkpt>
      <trkpt lat="44.13463" lon="5.87484">
        <ele>1098</ele>
        <time>2021-06-01T12:57:38.316Z</time>
      </trkpt>
      <trkpt lat="44.13463" lon="5.87483">
        <ele>1098</ele>
        <time>2021-06-01T12:57:39.316Z</time>
      </trkpt>
      <trkpt lat="44.13463" lon="5.87483">
        <ele>1098</ele>
        <time>2021-06-01T12:57:40.316Z</time>
      </trkpt>
      <trkpt lat="44.13463" lon="5.87483">
        <ele>1098</ele>
        <time>2021-06-01T12:57:41.316Z</time>
      </trkpt>
      <trkpt lat="44.13463" lon="5.87483">
        <ele>1098</ele>
        <time>2021-06-01T12:57:42.316Z</time>
      </trkpt>
      <trkpt lat="44.13463" lon="5.87482">
        <ele>1098</ele>
        <time>2021-06-01T12:57:43.316Z</time>
      </trkpt>
      <trkpt lat="44.13463" lon="5.87482">
        <ele>1098</ele>
        <time>2021-06-01T12:57:44.316Z</time>
      </trkpt>
      <trkpt lat="44.13463" lon="5.87481">
        <ele>1098</ele>
        <time>2021-06-01T12:57:45.316Z</time>
      </trkpt>
      <trkpt lat="44.13463" lon="5.87479">
        <ele>1098</ele>
        <time>2021-06-01T12:57:46.316Z</time>
      </trkpt>
      <trkpt lat="44.13462" lon="5.87478">
        <ele>1098</ele>
        <time>2021-06-01T12:57:47.316Z</time>
      </trkpt>
      <trkpt lat="44.13462" lon="5.87478">
        <ele>1098</ele>
        <time>2021-06-01T12:57:48.316Z</time>
      </trkpt>
      <trkpt lat="44.13462" lon="5.87477">
        <ele>1098</ele>
        <time>2021-06-01T12:57:49.316Z</time>
      </trkpt>
      <trkpt lat="44.13462" lon="5.87477">
        <ele>1098</ele>
        <time>2021-06-01T12:57:50.316Z</time>
      </trkpt>
      <trkpt lat="44.13461" lon="5.87477">
        <ele>1098</ele>
        <time>2021-06-01T12:57:51.316Z</time>
      </trkpt>
      <trkpt lat="44.1346" lon="5.87476">
        <ele>1098</ele>
        <time>2021-06-01T12:57:52.316Z</time>
      </trkpt>
      <trkpt lat="44.13459" lon="5.87475">
        <ele>1097</ele>
        <time>2021-06-01T12:57:53.316Z</time>
      </trkpt>
      <trkpt lat="44.13459" lon="5.87474">
        <ele>1097</ele>
        <time>2021-06-01T12:57:54.316Z</time>
      </trkpt>
      <trkpt lat="44.13458" lon="5.87473">
        <ele>1097</ele>
        <time>2021-06-01T12:57:55.316Z</time>
      </trkpt>
      <trkpt lat="44.13458" lon="5.87472">
        <ele>1097</ele>
        <time>2021-06-01T12:57:56.316Z</time>
      </trkpt>
      <trkpt lat="44.13458" lon="5.87471">
        <ele>1097</ele>
        <time>2021-06-01T12:57:57.316Z</time>
      </trkpt>
      <trkpt lat="44.13458" lon="5.87471">
        <ele>1097</ele>
        <time>2021-06-01T12:57:58.316Z</time>
      </trkpt>
      <trkpt lat="44.13458" lon="5.87471">
        <ele>1097</ele>
        <time>2021-06-01T12:57:59.316Z</time>
      </trkpt>
      <trkpt lat="44.13458" lon="5.87471">
        <ele>1097</ele>
        <time>2021-06-01T12:58:00.316Z</time>
      </trkpt>
      <trkpt lat="44.13458" lon="5.87471">
        <ele>1097</ele>
        <time>2021-06-01T12:58:01.316Z</time>
      </trkpt>
      <trkpt lat="44.13458" lon="5.87471">
        <ele>1097</ele>
        <time>2021-06-01T12:58:02.316Z</time>
      </trkpt>
      <trkpt lat="44.13458" lon="5.87471">
        <ele>1097</ele>
        <time>2021-06-01T12:58:03.316Z</time>
      </trkpt>
      <trkpt lat="44.13458" lon="5.87471">
        <ele>1097</ele>
        <time>2021-06-01T12:58:04.316Z</time>
      </trkpt>
      <trkpt lat="44.13457" lon="5.87471">
        <ele>1097</ele>
        <time>2021-06-01T12:58:05.316Z</time>
      </trkpt>
      <trkpt lat="44.13457" lon="5.87471">
        <ele>1097</ele>
        <time>2021-06-01T12:58:06.316Z</time>
      </trkpt>
      <trkpt lat="44.13457" lon="5.8747">
        <ele>1097</ele>
        <time>2021-06-01T12:58:07.316Z</time>
      </trkpt>
      <trkpt lat="44.13456" lon="5.87469">
        <ele>1097</ele>
        <time>2021-06-01T12:58:08.316Z</time>
      </trkpt>
      <trkpt lat="44.13456" lon="5.87468">
        <ele>1096</ele>
        <time>2021-06-01T12:58:09.316Z</time>
      </trkpt>
      <trkpt lat="44.13455" lon="5.87468">
        <ele>1096</ele>
        <time>2021-06-01T12:58:10.316Z</time>
      </trkpt>
      <trkpt lat="44.13455" lon="5.87467">
        <ele>1096</ele>
        <time>2021-06-01T12:58:11.316Z</time>
      </trkpt>
      <trkpt lat="44.13455" lon="5.87467">
        <ele>1096</ele>
        <time>2021-06-01T12:58:12.316Z</time>
      </trkpt>
      <trkpt lat="44.13454" lon="5.87466">
        <ele>1096</ele>
        <time>2021-06-01T12:58:13.316Z</time>
      </trkpt>
      <trkpt lat="44.13454" lon="5.87466">
        <ele>1096</ele>
        <time>2021-06-01T12:58:14.316Z</time>
      </trkpt>
      <trkpt lat="44.13453" lon="5.87465">
        <ele>1096</ele>
        <time>2021-06-01T12:58:15.316Z</time>
      </trkpt>
      <trkpt lat="44.13453" lon="5.87465">
        <ele>1096</ele>
        <time>2021-06-01T12:58:16.316Z</time>
      </trkpt>
      <trkpt lat="44.13453" lon="5.87464">
        <ele>1096</ele>
        <time>2021-06-01T12:58:17.316Z</time>
      </trkpt>
      <trkpt lat="44.13452" lon="5.87464">
        <ele>1096</ele>
        <time>2021-06-01T12:58:18.316Z</time>
      </trkpt>
      <trkpt lat="44.13452" lon="5.87464">
        <ele>1096</ele>
        <time>2021-06-01T12:58:19.316Z</time>
      </trkpt>
      <trkpt lat="44.13451" lon="5.87463">
        <ele>1095</ele>
        <time>2021-06-01T12:58:20.316Z</time>
      </trkpt>
      <trkpt lat="44.13451" lon="5.87461">
        <ele>1095</ele>
        <time>2021-06-01T12:58:21.316Z</time>
      </trkpt>
      <trkpt lat="44.1345" lon="5.87461">
        <ele>1095</ele>
        <time>2021-06-01T12:58:22.316Z</time>
      </trkpt>
      <trkpt lat="44.1345" lon="5.8746">
        <ele>1095</ele>
        <time>2021-06-01T12:58:23.316Z</time>
      </trkpt>
      <trkpt lat="44.13449" lon="5.87459">
        <ele>1095</ele>
        <time>2021-06-01T12:58:24.316Z</time>
      </trkpt>
      <trkpt lat="44.13449" lon="5.87459">
        <ele>1095</ele>
        <time>2021-06-01T12:58:25.316Z</time>
      </trkpt>
      <trkpt lat="44.13448" lon="5.87458">
        <ele>1094</ele>
        <time>2021-06-01T12:58:26.316Z</time>
      </trkpt>
      <trkpt lat="44.13448" lon="5.87457">
        <ele>1094</ele>
        <time>2021-06-01T12:58:27.316Z</time>
      </trkpt>
      <trkpt lat="44.13447" lon="5.87457">
        <ele>1094</ele>
        <time>2021-06-01T12:58:28.316Z</time>
      </trkpt>
      <trkpt lat="44.13447" lon="5.87456">
        <ele>1094</ele>
        <time>2021-06-01T12:58:29.316Z</time>
      </trkpt>
      <trkpt lat="44.13446" lon="5.87455">
        <ele>1094</ele>
        <time>2021-06-01T12:58:30.316Z</time>
      </trkpt>
      <trkpt lat="44.13446" lon="5.87454">
        <ele>1094</ele>
        <time>2021-06-01T12:58:31.316Z</time>
      </trkpt>
      <trkpt lat="44.13445" lon="5.87454">
        <ele>1093</ele>
        <time>2021-06-01T12:58:32.316Z</time>
      </trkpt>
      <trkpt lat="44.13445" lon="5.87453">
        <ele>1093</ele>
        <time>2021-06-01T12:58:33.316Z</time>
      </trkpt>
      <trkpt lat="44.13444" lon="5.87453">
        <ele>1093</ele>
        <time>2021-06-01T12:58:34.316Z</time>
      </trkpt>
      <trkpt lat="44.13443" lon="5.87453">
        <ele>1093</ele>
        <time>2021-06-01T12:58:35.316Z</time>
      </trkpt>
      <trkpt lat="44.13443" lon="5.87452">
        <ele>1093</ele>
        <time>2021-06-01T12:58:36.316Z</time>
      </trkpt>
      <trkpt lat="44.13442" lon="5.87452">
        <ele>1092</ele>
        <time>2021-06-01T12:58:37.316Z</time>
      </trkpt>
      <trkpt lat="44.13441" lon="5.87451">
        <ele>1092</ele>
        <time>2021-06-01T12:58:38.316Z</time>
      </trkpt>
      <trkpt lat="44.13441" lon="5.87451">
        <ele>1092</ele>
        <time>2021-06-01T12:58:39.316Z</time>
      </trkpt>
      <trkpt lat="44.1344" lon="5.87451">
        <ele>1092</ele>
        <time>2021-06-01T12:58:40.316Z</time>
      </trkpt>
      <trkpt lat="44.1344" lon="5.8745">
        <ele>1092</ele>
        <time>2021-06-01T12:58:41.316Z</time>
      </trkpt>
      <trkpt lat="44.13439" lon="5.8745">
        <ele>1091</ele>
        <time>2021-06-01T12:58:42.316Z</time>
      </trkpt>
      <trkpt lat="44.13438" lon="5.8745">
        <ele>1091</ele>
        <time>2021-06-01T12:58:43.316Z</time>
      </trkpt>
      <trkpt lat="44.13438" lon="5.87449">
        <ele>1091</ele>
        <time>2021-06-01T12:58:44.316Z</time>
      </trkpt>
      <trkpt lat="44.13437" lon="5.87449">
        <ele>1091</ele>
        <time>2021-06-01T12:58:45.316Z</time>
      </trkpt>
      <trkpt lat="44.13437" lon="5.87449">
        <ele>1091</ele>
        <time>2021-06-01T12:58:46.316Z</time>
      </trkpt>
      <trkpt lat="44.13436" lon="5.87449">
        <ele>1091</ele>
        <time>2021-06-01T12:58:47.316Z</time>
      </trkpt>
      <trkpt lat="44.13435" lon="5.87449">
        <ele>1090</ele>
        <time>2021-06-01T12:58:48.316Z</time>
      </trkpt>
      <trkpt lat="44.13434" lon="5.87448">
        <ele>1090</ele>
        <time>2021-06-01T12:58:49.316Z</time>
      </trkpt>
      <trkpt lat="44.13434" lon="5.87447">
        <ele>1090</ele>
        <time>2021-06-01T12:58:50.316Z</time>
      </trkpt>
      <trkpt lat="44.13433" lon="5.87446">
        <ele>1090</ele>
        <time>2021-06-01T12:58:51.316Z</time>
      </trkpt>
      <trkpt lat="44.13433" lon="5.87445">
        <ele>1090</ele>
        <time>2021-06-01T12:58:52.316Z</time>
      </trkpt>
      <trkpt lat="44.13433" lon="5.87444">
        <ele>1090</ele>
        <time>2021-06-01T12:58:53.316Z</time>
      </trkpt>
      <trkpt lat="44.13432" lon="5.87443">
        <ele>1089</ele>
        <time>2021-06-01T12:58:54.316Z</time>
      </trkpt>
      <trkpt lat="44.13432" lon="5.87443">
        <ele>1089</ele>
        <time>2021-06-01T12:58:55.316Z</time>
      </trkpt>
      <trkpt lat="44.13431" lon="5.87442">
        <ele>1089</ele>
        <time>2021-06-01T12:58:56.316Z</time>
      </trkpt>
      <trkpt lat="44.1343" lon="5.87442">
        <ele>1089</ele>
        <time>2021-06-01T12:58:57.316Z</time>
      </trkpt>
      <trkpt lat="44.1343" lon="5.87442">
        <ele>1089</ele>
        <time>2021-06-01T12:58:58.316Z</time>
      </trkpt>
      <trkpt lat="44.13429" lon="5.87442">
        <ele>1088</ele>
        <time>2021-06-01T12:58:59.316Z</time>
      </trkpt>
      <trkpt lat="44.13428" lon="5.87442">
        <ele>1088</ele>
        <time>2021-06-01T12:59:00.316Z</time>
      </trkpt>
      <trkpt lat="44.13428" lon="5.87442">
        <ele>1088</ele>
        <time>2021-06-01T12:59:01.316Z</time>
      </trkpt>
      <trkpt lat="44.13427" lon="5.87441">
        <ele>1088</ele>
        <time>2021-06-01T12:59:02.316Z</time>
      </trkpt>
      <trkpt lat="44.13426" lon="5.87441">
        <ele>1088</ele>
        <time>2021-06-01T12:59:03.316Z</time>
      </trkpt>
      <trkpt lat="44.13426" lon="5.8744">
        <ele>1087</ele>
        <time>2021-06-01T12:59:04.316Z</time>
      </trkpt>
      <trkpt lat="44.13425" lon="5.8744">
        <ele>1087</ele>
        <time>2021-06-01T12:59:05.316Z</time>
      </trkpt>
      <trkpt lat="44.13425" lon="5.87439">
        <ele>1087</ele>
        <time>2021-06-01T12:59:06.316Z</time>
      </trkpt>
      <trkpt lat="44.13424" lon="5.87439">
        <ele>1087</ele>
        <time>2021-06-01T12:59:07.316Z</time>
      </trkpt>
      <trkpt lat="44.13423" lon="5.87438">
        <ele>1087</ele>
        <time>2021-06-01T12:59:08.316Z</time>
      </trkpt>
      <trkpt lat="44.13423" lon="5.87438">
        <ele>1087</ele>
        <time>2021-06-01T12:59:09.316Z</time>
      </trkpt>
      <trkpt lat="44.13422" lon="5.87437">
        <ele>1086</ele>
        <time>2021-06-01T12:59:10.316Z</time>
      </trkpt>
      <trkpt lat="44.13422" lon="5.87436">
        <ele>1086</ele>
        <time>2021-06-01T12:59:11.316Z</time>
      </trkpt>
      <trkpt lat="44.13421" lon="5.87435">
        <ele>1086</ele>
        <time>2021-06-01T12:59:12.316Z</time>
      </trkpt>
      <trkpt lat="44.1342" lon="5.87435">
        <ele>1086</ele>
        <time>2021-06-01T12:59:13.316Z</time>
      </trkpt>
      <trkpt lat="44.1342" lon="5.87434">
        <ele>1086</ele>
        <time>2021-06-01T12:59:14.316Z</time>
      </trkpt>
      <trkpt lat="44.13419" lon="5.87434">
        <ele>1086</ele>
        <time>2021-06-01T12:59:15.316Z</time>
      </trkpt>
      <trkpt lat="44.13419" lon="5.87434">
        <ele>1085</ele>
        <time>2021-06-01T12:59:16.316Z</time>
      </trkpt>
      <trkpt lat="44.13418" lon="5.87434">
        <ele>1085</ele>
        <time>2021-06-01T12:59:17.316Z</time>
      </trkpt>
      <trkpt lat="44.13417" lon="5.87434">
        <ele>1085</ele>
        <time>2021-06-01T12:59:18.316Z</time>
      </trkpt>
      <trkpt lat="44.13416" lon="5.87434">
        <ele>1085</ele>
        <time>2021-06-01T12:59:19.316Z</time>
      </trkpt>
      <trkpt lat="44.13415" lon="5.87434">
        <ele>1085</ele>
        <time>2021-06-01T12:59:20.316Z</time>
      </trkpt>
      <trkpt lat="44.13415" lon="5.87433">
        <ele>1085</ele>
        <time>2021-06-01T12:59:21.316Z</time>
      </trkpt>
      <trkpt lat="44.13414" lon="5.87432">
        <ele>1084</ele>
        <time>2021-06-01T12:59:22.316Z</time>
      </trkpt>
      <trkpt lat="44.13414" lon="5.87432">
        <ele>1084</ele>
        <time>2021-06-01T12:59:23.316Z</time>
      </trkpt>
      <trkpt lat="44.13413" lon="5.87431">
        <ele>1084</ele>
        <time>2021-06-01T12:59:24.316Z</time>
      </trkpt>
      <trkpt lat="44.13412" lon="5.8743">
        <ele>1084</ele>
        <time>2021-06-01T12:59:25.316Z</time>
      </trkpt>
      <trkpt lat="44.13412" lon="5.87429">
        <ele>1083</ele>
        <time>2021-06-01T12:59:26.316Z</time>
      </trkpt>
      <trkpt lat="44.13411" lon="5.87428">
        <ele>1083</ele>
        <time>2021-06-01T12:59:27.316Z</time>
      </trkpt>
      <trkpt lat="44.13411" lon="5.87427">
        <ele>1083</ele>
        <time>2021-06-01T12:59:28.316Z</time>
      </trkpt>
      <trkpt lat="44.1341" lon="5.87426">
        <ele>1083</ele>
        <time>2021-06-01T12:59:29.316Z</time>
      </trkpt>
      <trkpt lat="44.13409" lon="5.87425">
        <ele>1083</ele>
        <time>2021-06-01T12:59:30.316Z</time>
      </trkpt>
      <trkpt lat="44.13409" lon="5.87424">
        <ele>1083</ele>
        <time>2021-06-01T12:59:31.316Z</time>
      </trkpt>
      <trkpt lat="44.13408" lon="5.87423">
        <ele>1082</ele>
        <time>2021-06-01T12:59:32.316Z</time>
      </trkpt>
      <trkpt lat="44.13408" lon="5.87422">
        <ele>1082</ele>
        <time>2021-06-01T12:59:33.316Z</time>
      </trkpt>
      <trkpt lat="44.13408" lon="5.8742">
        <ele>1082</ele>
        <time>2021-06-01T12:59:34.316Z</time>
      </trkpt>
      <trkpt lat="44.13408" lon="5.87419">
        <ele>1082</ele>
        <time>2021-06-01T12:59:35.316Z</time>
      </trkpt>
      <trkpt lat="44.13407" lon="5.87419">
        <ele>1082</ele>
        <time>2021-06-01T12:59:36.316Z</time>
      </trkpt>
      <trkpt lat="44.13407" lon="5.87418">
        <ele>1082</ele>
        <time>2021-06-01T12:59:37.316Z</time>
      </trkpt>
      <trkpt lat="44.13406" lon="5.87417">
        <ele>1081</ele>
        <time>2021-06-01T12:59:38.316Z</time>
      </trkpt>
      <trkpt lat="44.13405" lon="5.87416">
        <ele>1081</ele>
        <time>2021-06-01T12:59:39.316Z</time>
      </trkpt>
      <trkpt lat="44.13405" lon="5.87415">
        <ele>1081</ele>
        <time>2021-06-01T12:59:40.316Z</time>
      </trkpt>
      <trkpt lat="44.13404" lon="5.87414">
        <ele>1081</ele>
        <time>2021-06-01T12:59:41.316Z</time>
      </trkpt>
      <trkpt lat="44.13404" lon="5.87412">
        <ele>1081</ele>
        <time>2021-06-01T12:59:42.316Z</time>
      </trkpt>
      <trkpt lat="44.13403" lon="5.87411">
        <ele>1081</ele>
        <time>2021-06-01T12:59:43.316Z</time>
      </trkpt>
      <trkpt lat="44.13403" lon="5.87411">
        <ele>1081</ele>
        <time>2021-06-01T12:59:44.316Z</time>
      </trkpt>
      <trkpt lat="44.13402" lon="5.8741">
        <ele>1080</ele>
        <time>2021-06-01T12:59:45.316Z</time>
      </trkpt>
      <trkpt lat="44.13402" lon="5.8741">
        <ele>1080</ele>
        <time>2021-06-01T12:59:46.316Z</time>
      </trkpt>
      <trkpt lat="44.13401" lon="5.87409">
        <ele>1080</ele>
        <time>2021-06-01T12:59:47.316Z</time>
      </trkpt>
      <trkpt lat="44.134" lon="5.87409">
        <ele>1080</ele>
        <time>2021-06-01T12:59:48.316Z</time>
      </trkpt>
      <trkpt lat="44.13399" lon="5.87408">
        <ele>1080</ele>
        <time>2021-06-01T12:59:49.316Z</time>
      </trkpt>
      <trkpt lat="44.13398" lon="5.87408">
        <ele>1080</ele>
        <time>2021-06-01T12:59:50.316Z</time>
      </trkpt>
      <trkpt lat="44.13397" lon="5.87408">
        <ele>1080</ele>
        <time>2021-06-01T12:59:51.316Z</time>
      </trkpt>
      <trkpt lat="44.13396" lon="5.87407">
        <ele>1080</ele>
        <time>2021-06-01T12:59:52.316Z</time>
      </trkpt>
      <trkpt lat="44.13395" lon="5.87407">
        <ele>1079</ele>
        <time>2021-06-01T12:59:53.316Z</time>
      </trkpt>
      <trkpt lat="44.13394" lon="5.87407">
        <ele>1079</ele>
        <time>2021-06-01T12:59:54.316Z</time>
      </trkpt>
      <trkpt lat="44.13393" lon="5.87407">
        <ele>1079</ele>
        <time>2021-06-01T12:59:55.316Z</time>
      </trkpt>
      <trkpt lat="44.13392" lon="5.87407">
        <ele>1079</ele>
        <time>2021-06-01T12:59:56.316Z</time>
      </trkpt>
      <trkpt lat="44.13391" lon="5.87406">
        <ele>1079</ele>
        <time>2021-06-01T12:59:57.316Z</time>
      </trkpt>
      <trkpt lat="44.1339" lon="5.87405">
        <ele>1079</ele>
        <time>2021-06-01T12:59:58.316Z</time>
      </trkpt>
      <trkpt lat="44.13389" lon="5.87405">
        <ele>1079</ele>
        <time>2021-06-01T12:59:59.316Z</time>
      </trkpt>
      <trkpt lat="44.13388" lon="5.87404">
        <ele>1079</ele>
        <time>2021-06-01T13:00:00.316Z</time>
      </trkpt>
      <trkpt lat="44.13388" lon="5.87403">
        <ele>1078</ele>
        <time>2021-06-01T13:00:01.316Z</time>
      </trkpt>
      <trkpt lat="44.13387" lon="5.87403">
        <ele>1078</ele>
        <time>2021-06-01T13:00:02.316Z</time>
      </trkpt>
      <trkpt lat="44.13386" lon="5.87402">
        <ele>1078</ele>
        <time>2021-06-01T13:00:03.316Z</time>
      </trkpt>
      <trkpt lat="44.13385" lon="5.87401">
        <ele>1078</ele>
        <time>2021-06-01T13:00:04.316Z</time>
      </trkpt>
      <trkpt lat="44.13384" lon="5.874">
        <ele>1078</ele>
        <time>2021-06-01T13:00:05.316Z</time>
      </trkpt>
      <trkpt lat="44.13384" lon="5.87399">
        <ele>1078</ele>
        <time>2021-06-01T13:00:06.316Z</time>
      </trkpt>
      <trkpt lat="44.13383" lon="5.87398">
        <ele>1077</ele>
        <time>2021-06-01T13:00:07.316Z</time>
      </trkpt>
      <trkpt lat="44.13383" lon="5.87397">
        <ele>1077</ele>
        <time>2021-06-01T13:00:08.316Z</time>
      </trkpt>
      <trkpt lat="44.13382" lon="5.87396">
        <ele>1077</ele>
        <time>2021-06-01T13:00:09.316Z</time>
      </trkpt>
      <trkpt lat="44.13381" lon="5.87394">
        <ele>1077</ele>
        <time>2021-06-01T13:00:10.316Z</time>
      </trkpt>
      <trkpt lat="44.13381" lon="5.87393">
        <ele>1077</ele>
        <time>2021-06-01T13:00:11.316Z</time>
      </trkpt>
      <trkpt lat="44.1338" lon="5.87392">
        <ele>1077</ele>
        <time>2021-06-01T13:00:12.316Z</time>
      </trkpt>
      <trkpt lat="44.1338" lon="5.87391">
        <ele>1077</ele>
        <time>2021-06-01T13:00:13.316Z</time>
      </trkpt>
      <trkpt lat="44.13379" lon="5.8739">
        <ele>1076</ele>
        <time>2021-06-01T13:00:14.316Z</time>
      </trkpt>
      <trkpt lat="44.13378" lon="5.8739">
        <ele>1076</ele>
        <time>2021-06-01T13:00:15.316Z</time>
      </trkpt>
      <trkpt lat="44.13377" lon="5.87389">
        <ele>1076</ele>
        <time>2021-06-01T13:00:16.316Z</time>
      </trkpt>
      <trkpt lat="44.13376" lon="5.87388">
        <ele>1076</ele>
        <time>2021-06-01T13:00:17.316Z</time>
      </trkpt>
      <trkpt lat="44.13375" lon="5.87387">
        <ele>1076</ele>
        <time>2021-06-01T13:00:18.316Z</time>
      </trkpt>
      <trkpt lat="44.13374" lon="5.87387">
        <ele>1076</ele>
        <time>2021-06-01T13:00:19.316Z</time>
      </trkpt>
      <trkpt lat="44.13373" lon="5.87387">
        <ele>1076</ele>
        <time>2021-06-01T13:00:20.316Z</time>
      </trkpt>
      <trkpt lat="44.13372" lon="5.87387">
        <ele>1075</ele>
        <time>2021-06-01T13:00:21.316Z</time>
      </trkpt>
      <trkpt lat="44.13371" lon="5.87387">
        <ele>1075</ele>
        <time>2021-06-01T13:00:22.316Z</time>
      </trkpt>
      <trkpt lat="44.1337" lon="5.87386">
        <ele>1075</ele>
        <time>2021-06-01T13:00:23.316Z</time>
      </trkpt>
      <trkpt lat="44.13369" lon="5.87385">
        <ele>1075</ele>
        <time>2021-06-01T13:00:24.316Z</time>
      </trkpt>
      <trkpt lat="44.13368" lon="5.87385">
        <ele>1075</ele>
        <time>2021-06-01T13:00:25.316Z</time>
      </trkpt>
      <trkpt lat="44.13367" lon="5.87384">
        <ele>1075</ele>
        <time>2021-06-01T13:00:26.316Z</time>
      </trkpt>
      <trkpt lat="44.13366" lon="5.87384">
        <ele>1075</ele>
        <time>2021-06-01T13:00:27.316Z</time>
      </trkpt>
      <trkpt lat="44.13365" lon="5.87383">
        <ele>1075</ele>
        <time>2021-06-01T13:00:28.316Z</time>
      </trkpt>
      <trkpt lat="44.13364" lon="5.87383">
        <ele>1075</ele>
        <time>2021-06-01T13:00:29.316Z</time>
      </trkpt>
      <trkpt lat="44.13363" lon="5.87382">
        <ele>1075</ele>
        <time>2021-06-01T13:00:30.316Z</time>
      </trkpt>
      <trkpt lat="44.13362" lon="5.87381">
        <ele>1075</ele>
        <time>2021-06-01T13:00:31.316Z</time>
      </trkpt>
      <trkpt lat="44.13361" lon="5.87381">
        <ele>1075</ele>
        <time>2021-06-01T13:00:32.316Z</time>
      </trkpt>
      <trkpt lat="44.1336" lon="5.8738">
        <ele>1075</ele>
        <time>2021-06-01T13:00:33.316Z</time>
      </trkpt>
      <trkpt lat="44.13359" lon="5.87379">
        <ele>1075</ele>
        <time>2021-06-01T13:00:34.316Z</time>
      </trkpt>
      <trkpt lat="44.13358" lon="5.87378">
        <ele>1075</ele>
        <time>2021-06-01T13:00:35.316Z</time>
      </trkpt>
      <trkpt lat="44.13358" lon="5.87378">
        <ele>1074</ele>
        <time>2021-06-01T13:00:36.316Z</time>
      </trkpt>
      <trkpt lat="44.13357" lon="5.87377">
        <ele>1074</ele>
        <time>2021-06-01T13:00:37.316Z</time>
      </trkpt>
      <trkpt lat="44.13356" lon="5.87376">
        <ele>1074</ele>
        <time>2021-06-01T13:00:38.316Z</time>
      </trkpt>
      <trkpt lat="44.13355" lon="5.87375">
        <ele>1074</ele>
        <time>2021-06-01T13:00:39.316Z</time>
      </trkpt>
      <trkpt lat="44.13354" lon="5.87374">
        <ele>1074</ele>
        <time>2021-06-01T13:00:40.316Z</time>
      </trkpt>
      <trkpt lat="44.13353" lon="5.87373">
        <ele>1074</ele>
        <time>2021-06-01T13:00:41.316Z</time>
      </trkpt>
      <trkpt lat="44.13352" lon="5.87372">
        <ele>1074</ele>
        <time>2021-06-01T13:00:42.316Z</time>
      </trkpt>
      <trkpt lat="44.13352" lon="5.87372">
        <ele>1074</ele>
        <time>2021-06-01T13:00:43.316Z</time>
      </trkpt>
      <trkpt lat="44.13351" lon="5.87372">
        <ele>1074</ele>
        <time>2021-06-01T13:00:44.316Z</time>
      </trkpt>
      <trkpt lat="44.1335" lon="5.87372">
        <ele>1073</ele>
        <time>2021-06-01T13:00:45.316Z</time>
      </trkpt>
      <trkpt lat="44.13349" lon="5.87372">
        <ele>1073</ele>
        <time>2021-06-01T13:00:46.316Z</time>
      </trkpt>
      <trkpt lat="44.13348" lon="5.87373">
        <ele>1073</ele>
        <time>2021-06-01T13:00:47.316Z</time>
      </trkpt>
      <trkpt lat="44.13347" lon="5.87373">
        <ele>1073</ele>
        <time>2021-06-01T13:00:48.316Z</time>
      </trkpt>
      <trkpt lat="44.13346" lon="5.87372">
        <ele>1073</ele>
        <time>2021-06-01T13:00:49.316Z</time>
      </trkpt>
      <trkpt lat="44.13345" lon="5.87372">
        <ele>1073</ele>
        <time>2021-06-01T13:00:50.316Z</time>
      </trkpt>
      <trkpt lat="44.13344" lon="5.8737">
        <ele>1072</ele>
        <time>2021-06-01T13:00:51.316Z</time>
      </trkpt>
      <trkpt lat="44.13343" lon="5.87369">
        <ele>1072</ele>
        <time>2021-06-01T13:00:52.316Z</time>
      </trkpt>
      <trkpt lat="44.13343" lon="5.87367">
        <ele>1072</ele>
        <time>2021-06-01T13:00:53.316Z</time>
      </trkpt>
      <trkpt lat="44.13343" lon="5.87366">
        <ele>1072</ele>
        <time>2021-06-01T13:00:54.316Z</time>
      </trkpt>
      <trkpt lat="44.13342" lon="5.87364">
        <ele>1072</ele>
        <time>2021-06-01T13:00:55.316Z</time>
      </trkpt>
      <trkpt lat="44.13342" lon="5.87363">
        <ele>1072</ele>
        <time>2021-06-01T13:00:56.316Z</time>
      </trkpt>
      <trkpt lat="44.13342" lon="5.87362">
        <ele>1072</ele>
        <time>2021-06-01T13:00:57.316Z</time>
      </trkpt>
      <trkpt lat="44.13342" lon="5.87361">
        <ele>1072</ele>
        <time>2021-06-01T13:00:58.316Z</time>
      </trkpt>
      <trkpt lat="44.13342" lon="5.87359">
        <ele>1072</ele>
        <time>2021-06-01T13:00:59.316Z</time>
      </trkpt>
      <trkpt lat="44.13341" lon="5.87359">
        <ele>1072</ele>
        <time>2021-06-01T13:01:00.316Z</time>
      </trkpt>
      <trkpt lat="44.1334" lon="5.87357">
        <ele>1071</ele>
        <time>2021-06-01T13:01:01.316Z</time>
      </trkpt>
      <trkpt lat="44.1334" lon="5.87356">
        <ele>1071</ele>
        <time>2021-06-01T13:01:02.316Z</time>
      </trkpt>
      <trkpt lat="44.13339" lon="5.87355">
        <ele>1071</ele>
        <time>2021-06-01T13:01:03.316Z</time>
      </trkpt>
      <trkpt lat="44.13338" lon="5.87354">
        <ele>1071</ele>
        <time>2021-06-01T13:01:04.316Z</time>
      </trkpt>
      <trkpt lat="44.13337" lon="5.87353">
        <ele>1071</ele>
        <time>2021-06-01T13:01:05.316Z</time>
      </trkpt>
      <trkpt lat="44.13336" lon="5.87351">
        <ele>1071</ele>
        <time>2021-06-01T13:01:06.316Z</time>
      </trkpt>
      <trkpt lat="44.13335" lon="5.8735">
        <ele>1071</ele>
        <time>2021-06-01T13:01:07.316Z</time>
      </trkpt>
      <trkpt lat="44.13335" lon="5.87349">
        <ele>1071</ele>
        <time>2021-06-01T13:01:08.316Z</time>
      </trkpt>
      <trkpt lat="44.13334" lon="5.87348">
        <ele>1071</ele>
        <time>2021-06-01T13:01:09.316Z</time>
      </trkpt>
      <trkpt lat="44.13333" lon="5.87347">
        <ele>1071</ele>
        <time>2021-06-01T13:01:10.316Z</time>
      </trkpt>
      <trkpt lat="44.13333" lon="5.87345">
        <ele>1071</ele>
        <time>2021-06-01T13:01:11.316Z</time>
      </trkpt>
      <trkpt lat="44.13332" lon="5.87344">
        <ele>1071</ele>
        <time>2021-06-01T13:01:12.316Z</time>
      </trkpt>
      <trkpt lat="44.13331" lon="5.87342">
        <ele>1070</ele>
        <time>2021-06-01T13:01:13.316Z</time>
      </trkpt>
      <trkpt lat="44.13331" lon="5.87341">
        <ele>1070</ele>
        <time>2021-06-01T13:01:14.316Z</time>
      </trkpt>
      <trkpt lat="44.13331" lon="5.8734">
        <ele>1070</ele>
        <time>2021-06-01T13:01:15.316Z</time>
      </trkpt>
      <trkpt lat="44.1333" lon="5.87338">
        <ele>1070</ele>
        <time>2021-06-01T13:01:16.316Z</time>
      </trkpt>
      <trkpt lat="44.1333" lon="5.87337">
        <ele>1070</ele>
        <time>2021-06-01T13:01:17.316Z</time>
      </trkpt>
      <trkpt lat="44.13329" lon="5.87336">
        <ele>1070</ele>
        <time>2021-06-01T13:01:18.316Z</time>
      </trkpt>
      <trkpt lat="44.13328" lon="5.87335">
        <ele>1070</ele>
        <time>2021-06-01T13:01:19.316Z</time>
      </trkpt>
      <trkpt lat="44.13327" lon="5.87334">
        <ele>1070</ele>
        <time>2021-06-01T13:01:20.316Z</time>
      </trkpt>
      <trkpt lat="44.13326" lon="5.87333">
        <ele>1070</ele>
        <time>2021-06-01T13:01:21.316Z</time>
      </trkpt>
      <trkpt lat="44.13326" lon="5.87332">
        <ele>1070</ele>
        <time>2021-06-01T13:01:22.316Z</time>
      </trkpt>
      <trkpt lat="44.13325" lon="5.87331">
        <ele>1070</ele>
        <time>2021-06-01T13:01:23.316Z</time>
      </trkpt>
      <trkpt lat="44.13324" lon="5.8733">
        <ele>1069</ele>
        <time>2021-06-01T13:01:24.316Z</time>
      </trkpt>
      <trkpt lat="44.13323" lon="5.87329">
        <ele>1069</ele>
        <time>2021-06-01T13:01:25.316Z</time>
      </trkpt>
      <trkpt lat="44.13323" lon="5.87328">
        <ele>1069</ele>
        <time>2021-06-01T13:01:26.316Z</time>
      </trkpt>
      <trkpt lat="44.13322" lon="5.87327">
        <ele>1069</ele>
        <time>2021-06-01T13:01:27.316Z</time>
      </trkpt>
      <trkpt lat="44.13321" lon="5.87326">
        <ele>1069</ele>
        <time>2021-06-01T13:01:28.316Z</time>
      </trkpt>
      <trkpt lat="44.1332" lon="5.87325">
        <ele>1069</ele>
        <time>2021-06-01T13:01:29.316Z</time>
      </trkpt>
      <trkpt lat="44.1332" lon="5.87323">
        <ele>1069</ele>
        <time>2021-06-01T13:01:30.316Z</time>
      </trkpt>
      <trkpt lat="44.1332" lon="5.87322">
        <ele>1069</ele>
        <time>2021-06-01T13:01:31.316Z</time>
      </trkpt>
      <trkpt lat="44.1332" lon="5.8732">
        <ele>1069</ele>
        <time>2021-06-01T13:01:32.316Z</time>
      </trkpt>
      <trkpt lat="44.1332" lon="5.87319">
        <ele>1068</ele>
        <time>2021-06-01T13:01:33.316Z</time>
      </trkpt>
      <trkpt lat="44.1332" lon="5.87318">
        <ele>1068</ele>
        <time>2021-06-01T13:01:34.316Z</time>
      </trkpt>
      <trkpt lat="44.1332" lon="5.87318">
        <ele>1068</ele>
        <time>2021-06-01T13:01:35.316Z</time>
      </trkpt>
      <trkpt lat="44.13319" lon="5.87317">
        <ele>1068</ele>
        <time>2021-06-01T13:01:36.316Z</time>
      </trkpt>
      <trkpt lat="44.13319" lon="5.87316">
        <ele>1068</ele>
        <time>2021-06-01T13:01:37.316Z</time>
      </trkpt>
      <trkpt lat="44.13319" lon="5.87314">
        <ele>1068</ele>
        <time>2021-06-01T13:01:38.316Z</time>
      </trkpt>
      <trkpt lat="44.13318" lon="5.87313">
        <ele>1068</ele>
        <time>2021-06-01T13:01:39.316Z</time>
      </trkpt>
      <trkpt lat="44.13318" lon="5.87311">
        <ele>1068</ele>
        <time>2021-06-01T13:01:40.316Z</time>
      </trkpt>
      <trkpt lat="44.13318" lon="5.8731">
        <ele>1067</ele>
        <time>2021-06-01T13:01:41.316Z</time>
      </trkpt>
      <trkpt lat="44.13318" lon="5.87309">
        <ele>1067</ele>
        <time>2021-06-01T13:01:42.316Z</time>
      </trkpt>
      <trkpt lat="44.13317" lon="5.87308">
        <ele>1067</ele>
        <time>2021-06-01T13:01:43.316Z</time>
      </trkpt>
      <trkpt lat="44.13317" lon="5.87306">
        <ele>1067</ele>
        <time>2021-06-01T13:01:44.316Z</time>
      </trkpt>
      <trkpt lat="44.13317" lon="5.87305">
        <ele>1067</ele>
        <time>2021-06-01T13:01:45.316Z</time>
      </trkpt>
      <trkpt lat="44.13316" lon="5.87303">
        <ele>1067</ele>
        <time>2021-06-01T13:01:46.316Z</time>
      </trkpt>
      <trkpt lat="44.13316" lon="5.87302">
        <ele>1067</ele>
        <time>2021-06-01T13:01:47.316Z</time>
      </trkpt>
      <trkpt lat="44.13316" lon="5.873">
        <ele>1066</ele>
        <time>2021-06-01T13:01:48.316Z</time>
      </trkpt>
      <trkpt lat="44.13317" lon="5.87299">
        <ele>1066</ele>
        <time>2021-06-01T13:01:49.316Z</time>
      </trkpt>
      <trkpt lat="44.13317" lon="5.87297">
        <ele>1066</ele>
        <time>2021-06-01T13:01:50.316Z</time>
      </trkpt>
      <trkpt lat="44.13317" lon="5.87296">
        <ele>1066</ele>
        <time>2021-06-01T13:01:51.316Z</time>
      </trkpt>
      <trkpt lat="44.13317" lon="5.87295">
        <ele>1066</ele>
        <time>2021-06-01T13:01:52.316Z</time>
      </trkpt>
      <trkpt lat="44.13317" lon="5.87293">
        <ele>1066</ele>
        <time>2021-06-01T13:01:53.316Z</time>
      </trkpt>
      <trkpt lat="44.13317" lon="5.87291">
        <ele>1066</ele>
        <time>2021-06-01T13:01:54.316Z</time>
      </trkpt>
      <trkpt lat="44.13318" lon="5.8729">
        <ele>1066</ele>
        <time>2021-06-01T13:01:55.316Z</time>
      </trkpt>
      <trkpt lat="44.13318" lon="5.87289">
        <ele>1066</ele>
        <time>2021-06-01T13:01:56.316Z</time>
      </trkpt>
      <trkpt lat="44.13319" lon="5.87287">
        <ele>1066</ele>
        <time>2021-06-01T13:01:57.316Z</time>
      </trkpt>
      <trkpt lat="44.13319" lon="5.87286">
        <ele>1066</ele>
        <time>2021-06-01T13:01:58.316Z</time>
      </trkpt>
      <trkpt lat="44.1332" lon="5.87285">
        <ele>1066</ele>
        <time>2021-06-01T13:01:59.316Z</time>
      </trkpt>
      <trkpt lat="44.13321" lon="5.87284">
        <ele>1066</ele>
        <time>2021-06-01T13:02:00.316Z</time>
      </trkpt>
      <trkpt lat="44.13321" lon="5.87283">
        <ele>1066</ele>
        <time>2021-06-01T13:02:01.316Z</time>
      </trkpt>
      <trkpt lat="44.13322" lon="5.87282">
        <ele>1066</ele>
        <time>2021-06-01T13:02:02.316Z</time>
      </trkpt>
      <trkpt lat="44.13322" lon="5.87281">
        <ele>1066</ele>
        <time>2021-06-01T13:02:03.316Z</time>
      </trkpt>
      <trkpt lat="44.13322" lon="5.87279">
        <ele>1066</ele>
        <time>2021-06-01T13:02:04.316Z</time>
      </trkpt>
      <trkpt lat="44.13321" lon="5.87277">
        <ele>1066</ele>
        <time>2021-06-01T13:02:05.316Z</time>
      </trkpt>
      <trkpt lat="44.13321" lon="5.87276">
        <ele>1066</ele>
        <time>2021-06-01T13:02:06.316Z</time>
      </trkpt>
      <trkpt lat="44.13321" lon="5.87274">
        <ele>1066</ele>
        <time>2021-06-01T13:02:07.316Z</time>
      </trkpt>
      <trkpt lat="44.1332" lon="5.87272">
        <ele>1066</ele>
        <time>2021-06-01T13:02:08.316Z</time>
      </trkpt>
      <trkpt lat="44.1332" lon="5.8727">
        <ele>1066</ele>
        <time>2021-06-01T13:02:09.316Z</time>
      </trkpt>
      <trkpt lat="44.13319" lon="5.87268">
        <ele>1066</ele>
        <time>2021-06-01T13:02:10.316Z</time>
      </trkpt>
      <trkpt lat="44.13319" lon="5.87267">
        <ele>1066</ele>
        <time>2021-06-01T13:02:11.316Z</time>
      </trkpt>
      <trkpt lat="44.13319" lon="5.87265">
        <ele>1066</ele>
        <time>2021-06-01T13:02:12.316Z</time>
      </trkpt>
      <trkpt lat="44.13318" lon="5.87264">
        <ele>1066</ele>
        <time>2021-06-01T13:02:13.316Z</time>
      </trkpt>
      <trkpt lat="44.13318" lon="5.87262">
        <ele>1066</ele>
        <time>2021-06-01T13:02:14.316Z</time>
      </trkpt>
      <trkpt lat="44.13317" lon="5.8726">
        <ele>1066</ele>
        <time>2021-06-01T13:02:15.316Z</time>
      </trkpt>
      <trkpt lat="44.13317" lon="5.87259">
        <ele>1066</ele>
        <time>2021-06-01T13:02:16.316Z</time>
      </trkpt>
      <trkpt lat="44.13317" lon="5.87257">
        <ele>1066</ele>
        <time>2021-06-01T13:02:17.316Z</time>
      </trkpt>
      <trkpt lat="44.13316" lon="5.87255">
        <ele>1066</ele>
        <time>2021-06-01T13:02:18.316Z</time>
      </trkpt>
      <trkpt lat="44.13316" lon="5.87254">
        <ele>1066</ele>
        <time>2021-06-01T13:02:19.316Z</time>
      </trkpt>
      <trkpt lat="44.13316" lon="5.87253">
        <ele>1066</ele>
        <time>2021-06-01T13:02:20.316Z</time>
      </trkpt>
      <trkpt lat="44.13316" lon="5.87251">
        <ele>1066</ele>
        <time>2021-06-01T13:02:21.316Z</time>
      </trkpt>
      <trkpt lat="44.13315" lon="5.8725">
        <ele>1065</ele>
        <time>2021-06-01T13:02:22.316Z</time>
      </trkpt>
      <trkpt lat="44.13315" lon="5.87248">
        <ele>1065</ele>
        <time>2021-06-01T13:02:23.316Z</time>
      </trkpt>
      <trkpt lat="44.13315" lon="5.87246">
        <ele>1065</ele>
        <time>2021-06-01T13:02:24.316Z</time>
      </trkpt>
      <trkpt lat="44.13315" lon="5.87245">
        <ele>1065</ele>
        <time>2021-06-01T13:02:25.316Z</time>
      </trkpt>
      <trkpt lat="44.13314" lon="5.87243">
        <ele>1065</ele>
        <time>2021-06-01T13:02:26.316Z</time>
      </trkpt>
      <trkpt lat="44.13314" lon="5.87242">
        <ele>1065</ele>
        <time>2021-06-01T13:02:27.316Z</time>
      </trkpt>
      <trkpt lat="44.13314" lon="5.87241">
        <ele>1065</ele>
        <time>2021-06-01T13:02:28.316Z</time>
      </trkpt>
      <trkpt lat="44.13315" lon="5.87239">
        <ele>1065</ele>
        <time>2021-06-01T13:02:29.316Z</time>
      </trkpt>
      <trkpt lat="44.13315" lon="5.87237">
        <ele>1065</ele>
        <time>2021-06-01T13:02:30.316Z</time>
      </trkpt>
      <trkpt lat="44.13315" lon="5.87236">
        <ele>1065</ele>
        <time>2021-06-01T13:02:31.316Z</time>
      </trkpt>
      <trkpt lat="44.13315" lon="5.87234">
        <ele>1065</ele>
        <time>2021-06-01T13:02:32.316Z</time>
      </trkpt>
      <trkpt lat="44.13315" lon="5.87233">
        <ele>1065</ele>
        <time>2021-06-01T13:02:33.316Z</time>
      </trkpt>
      <trkpt lat="44.13315" lon="5.87231">
        <ele>1065</ele>
        <time>2021-06-01T13:02:34.316Z</time>
      </trkpt>
      <trkpt lat="44.13315" lon="5.8723">
        <ele>1065</ele>
        <time>2021-06-01T13:02:35.316Z</time>
      </trkpt>
      <trkpt lat="44.13315" lon="5.87228">
        <ele>1065</ele>
        <time>2021-06-01T13:02:36.316Z</time>
      </trkpt>
      <trkpt lat="44.13315" lon="5.87227">
        <ele>1065</ele>
        <time>2021-06-01T13:02:37.316Z</time>
      </trkpt>
      <trkpt lat="44.13314" lon="5.87226">
        <ele>1065</ele>
        <time>2021-06-01T13:02:38.316Z</time>
      </trkpt>
      <trkpt lat="44.13314" lon="5.87224">
        <ele>1065</ele>
        <time>2021-06-01T13:02:39.316Z</time>
      </trkpt>
      <trkpt lat="44.13314" lon="5.87224">
        <ele>1065</ele>
        <time>2021-06-01T13:02:40.316Z</time>
      </trkpt>
      <trkpt lat="44.13314" lon="5.87222">
        <ele>1065</ele>
        <time>2021-06-01T13:02:41.316Z</time>
      </trkpt>
      <trkpt lat="44.13314" lon="5.87221">
        <ele>1065</ele>
        <time>2021-06-01T13:02:42.316Z</time>
      </trkpt>
      <trkpt lat="44.13314" lon="5.8722">
        <ele>1065</ele>
        <time>2021-06-01T13:02:43.316Z</time>
      </trkpt>
      <trkpt lat="44.13314" lon="5.87219">
        <ele>1065</ele>
        <time>2021-06-01T13:02:44.316Z</time>
      </trkpt>
      <trkpt lat="44.13313" lon="5.87219">
        <ele>1065</ele>
        <time>2021-06-01T13:02:45.316Z</time>
      </trkpt>
      <trkpt lat="44.13313" lon="5.87218">
        <ele>1065</ele>
        <time>2021-06-01T13:02:46.316Z</time>
      </trkpt>
      <trkpt lat="44.13312" lon="5.87217">
        <ele>1065</ele>
        <time>2021-06-01T13:02:47.316Z</time>
      </trkpt>
      <trkpt lat="44.13312" lon="5.87216">
        <ele>1065</ele>
        <time>2021-06-01T13:02:48.316Z</time>
      </trkpt>
      <trkpt lat="44.13312" lon="5.87215">
        <ele>1065</ele>
        <time>2021-06-01T13:02:49.316Z</time>
      </trkpt>
      <trkpt lat="44.13311" lon="5.87214">
        <ele>1065</ele>
        <time>2021-06-01T13:02:50.316Z</time>
      </trkpt>
      <trkpt lat="44.13311" lon="5.87214">
        <ele>1065</ele>
        <time>2021-06-01T13:02:51.316Z</time>
      </trkpt>
      <trkpt lat="44.13311" lon="5.87213">
        <ele>1065</ele>
        <time>2021-06-01T13:02:52.316Z</time>
      </trkpt>
      <trkpt lat="44.1331" lon="5.87212">
        <ele>1065</ele>
        <time>2021-06-01T13:02:53.316Z</time>
      </trkpt>
      <trkpt lat="44.1331" lon="5.87211">
        <ele>1065</ele>
        <time>2021-06-01T13:02:54.316Z</time>
      </trkpt>
      <trkpt lat="44.13309" lon="5.8721">
        <ele>1065</ele>
        <time>2021-06-01T13:02:55.316Z</time>
      </trkpt>
      <trkpt lat="44.13309" lon="5.87208">
        <ele>1065</ele>
        <time>2021-06-01T13:02:56.316Z</time>
      </trkpt>
      <trkpt lat="44.13308" lon="5.87207">
        <ele>1065</ele>
        <time>2021-06-01T13:02:57.316Z</time>
      </trkpt>
      <trkpt lat="44.13308" lon="5.87205">
        <ele>1065</ele>
        <time>2021-06-01T13:02:58.316Z</time>
      </trkpt>
      <trkpt lat="44.13307" lon="5.87204">
        <ele>1065</ele>
        <time>2021-06-01T13:02:59.316Z</time>
      </trkpt>
      <trkpt lat="44.13306" lon="5.87203">
        <ele>1065</ele>
        <time>2021-06-01T13:03:00.316Z</time>
      </trkpt>
      <trkpt lat="44.13306" lon="5.87201">
        <ele>1065</ele>
        <time>2021-06-01T13:03:01.316Z</time>
      </trkpt>
      <trkpt lat="44.13305" lon="5.872">
        <ele>1065</ele>
        <time>2021-06-01T13:03:02.316Z</time>
      </trkpt>
      <trkpt lat="44.13305" lon="5.87199">
        <ele>1065</ele>
        <time>2021-06-01T13:03:03.316Z</time>
      </trkpt>
      <trkpt lat="44.13304" lon="5.87198">
        <ele>1065</ele>
        <time>2021-06-01T13:03:04.316Z</time>
      </trkpt>
      <trkpt lat="44.13303" lon="5.87197">
        <ele>1065</ele>
        <time>2021-06-01T13:03:05.316Z</time>
      </trkpt>
      <trkpt lat="44.13302" lon="5.87196">
        <ele>1065</ele>
        <time>2021-06-01T13:03:06.316Z</time>
      </trkpt>
      <trkpt lat="44.13301" lon="5.87195">
        <ele>1065</ele>
        <time>2021-06-01T13:03:07.316Z</time>
      </trkpt>
      <trkpt lat="44.133" lon="5.87195">
        <ele>1065</ele>
        <time>2021-06-01T13:03:08.316Z</time>
      </trkpt>
      <trkpt lat="44.13299" lon="5.87194">
        <ele>1065</ele>
        <time>2021-06-01T13:03:09.316Z</time>
      </trkpt>
      <trkpt lat="44.13297" lon="5.87194">
        <ele>1065</ele>
        <time>2021-06-01T13:03:10.316Z</time>
      </trkpt>
      <trkpt lat="44.13296" lon="5.87193">
        <ele>1065</ele>
        <time>2021-06-01T13:03:11.316Z</time>
      </trkpt>
      <trkpt lat="44.13295" lon="5.87192">
        <ele>1065</ele>
        <time>2021-06-01T13:03:12.316Z</time>
      </trkpt>
      <trkpt lat="44.13294" lon="5.87192">
        <ele>1065</ele>
        <time>2021-06-01T13:03:13.316Z</time>
      </trkpt>
      <trkpt lat="44.13293" lon="5.87191">
        <ele>1065</ele>
        <time>2021-06-01T13:03:14.316Z</time>
      </trkpt>
      <trkpt lat="44.13291" lon="5.87191">
        <ele>1065</ele>
        <time>2021-06-01T13:03:15.316Z</time>
      </trkpt>
      <trkpt lat="44.1329" lon="5.8719">
        <ele>1065</ele>
        <time>2021-06-01T13:03:16.316Z</time>
      </trkpt>
      <trkpt lat="44.13289" lon="5.8719">
        <ele>1065</ele>
        <time>2021-06-01T13:03:17.316Z</time>
      </trkpt>
      <trkpt lat="44.13288" lon="5.87189">
        <ele>1065</ele>
        <time>2021-06-01T13:03:18.316Z</time>
      </trkpt>
      <trkpt lat="44.13287" lon="5.87189">
        <ele>1065</ele>
        <time>2021-06-01T13:03:19.316Z</time>
      </trkpt>
      <trkpt lat="44.13286" lon="5.87188">
        <ele>1065</ele>
        <time>2021-06-01T13:03:20.316Z</time>
      </trkpt>
      <trkpt lat="44.13284" lon="5.87188">
        <ele>1065</ele>
        <time>2021-06-01T13:03:21.316Z</time>
      </trkpt>
      <trkpt lat="44.13283" lon="5.87187">
        <ele>1065</ele>
        <time>2021-06-01T13:03:22.316Z</time>
      </trkpt>
      <trkpt lat="44.13282" lon="5.87186">
        <ele>1065</ele>
        <time>2021-06-01T13:03:23.316Z</time>
      </trkpt>
      <trkpt lat="44.13281" lon="5.87185">
        <ele>1065</ele>
        <time>2021-06-01T13:03:24.316Z</time>
      </trkpt>
      <trkpt lat="44.1328" lon="5.87184">
        <ele>1065</ele>
        <time>2021-06-01T13:03:25.316Z</time>
      </trkpt>
      <trkpt lat="44.13279" lon="5.87183">
        <ele>1065</ele>
        <time>2021-06-01T13:03:26.316Z</time>
      </trkpt>
      <trkpt lat="44.13278" lon="5.87182">
        <ele>1065</ele>
        <time>2021-06-01T13:03:27.316Z</time>
      </trkpt>
      <trkpt lat="44.13277" lon="5.87181">
        <ele>1065</ele>
        <time>2021-06-01T13:03:28.316Z</time>
      </trkpt>
      <trkpt lat="44.13276" lon="5.8718">
        <ele>1065</ele>
        <time>2021-06-01T13:03:29.316Z</time>
      </trkpt>
      <trkpt lat="44.13275" lon="5.87178">
        <ele>1065</ele>
        <time>2021-06-01T13:03:30.316Z</time>
      </trkpt>
      <trkpt lat="44.13274" lon="5.87177">
        <ele>1065</ele>
        <time>2021-06-01T13:03:31.316Z</time>
      </trkpt>
      <trkpt lat="44.13273" lon="5.87176">
        <ele>1065</ele>
        <time>2021-06-01T13:03:32.316Z</time>
      </trkpt>
      <trkpt lat="44.13273" lon="5.87175">
        <ele>1065</ele>
        <time>2021-06-01T13:03:33.316Z</time>
      </trkpt>
      <trkpt lat="44.13272" lon="5.87174">
        <ele>1065</ele>
        <time>2021-06-01T13:03:34.316Z</time>
      </trkpt>
      <trkpt lat="44.13271" lon="5.87172">
        <ele>1064</ele>
        <time>2021-06-01T13:03:35.316Z</time>
      </trkpt>
      <trkpt lat="44.13271" lon="5.87171">
        <ele>1064</ele>
        <time>2021-06-01T13:03:36.316Z</time>
      </trkpt>
      <trkpt lat="44.1327" lon="5.87171">
        <ele>1064</ele>
        <time>2021-06-01T13:03:37.316Z</time>
      </trkpt>
      <trkpt lat="44.1327" lon="5.87169">
        <ele>1064</ele>
        <time>2021-06-01T13:03:38.316Z</time>
      </trkpt>
      <trkpt lat="44.1327" lon="5.87167">
        <ele>1064</ele>
        <time>2021-06-01T13:03:39.316Z</time>
      </trkpt>
      <trkpt lat="44.1327" lon="5.87165">
        <ele>1063</ele>
        <time>2021-06-01T13:03:40.316Z</time>
      </trkpt>
      <trkpt lat="44.1327" lon="5.87163">
        <ele>1063</ele>
        <time>2021-06-01T13:03:41.316Z</time>
      </trkpt>
      <trkpt lat="44.1327" lon="5.87162">
        <ele>1063</ele>
        <time>2021-06-01T13:03:42.316Z</time>
      </trkpt>
      <trkpt lat="44.1327" lon="5.8716">
        <ele>1063</ele>
        <time>2021-06-01T13:03:43.316Z</time>
      </trkpt>
      <trkpt lat="44.1327" lon="5.87159">
        <ele>1062</ele>
        <time>2021-06-01T13:03:44.316Z</time>
      </trkpt>
      <trkpt lat="44.1327" lon="5.87158">
        <ele>1062</ele>
        <time>2021-06-01T13:03:45.316Z</time>
      </trkpt>
      <trkpt lat="44.1327" lon="5.87157">
        <ele>1062</ele>
        <time>2021-06-01T13:03:46.316Z</time>
      </trkpt>
      <trkpt lat="44.1327" lon="5.87155">
        <ele>1062</ele>
        <time>2021-06-01T13:03:47.316Z</time>
      </trkpt>
      <trkpt lat="44.1327" lon="5.87154">
        <ele>1062</ele>
        <time>2021-06-01T13:03:48.316Z</time>
      </trkpt>
      <trkpt lat="44.1327" lon="5.87154">
        <ele>1061</ele>
        <time>2021-06-01T13:03:49.316Z</time>
      </trkpt>
      <trkpt lat="44.1327" lon="5.87153">
        <ele>1061</ele>
        <time>2021-06-01T13:03:50.316Z</time>
      </trkpt>
      <trkpt lat="44.1327" lon="5.87153">
        <ele>1061</ele>
        <time>2021-06-01T13:03:51.316Z</time>
      </trkpt>
      <trkpt lat="44.1327" lon="5.87152">
        <ele>1061</ele>
        <time>2021-06-01T13:03:52.316Z</time>
      </trkpt>
      <trkpt lat="44.1327" lon="5.87152">
        <ele>1061</ele>
        <time>2021-06-01T13:03:53.316Z</time>
      </trkpt>
      <trkpt lat="44.1327" lon="5.87151">
        <ele>1061</ele>
        <time>2021-06-01T13:03:54.316Z</time>
      </trkpt>
      <trkpt lat="44.1327" lon="5.8715">
        <ele>1061</ele>
        <time>2021-06-01T13:03:55.316Z</time>
      </trkpt>
      <trkpt lat="44.1327" lon="5.87148">
        <ele>1061</ele>
        <time>2021-06-01T13:03:56.316Z</time>
      </trkpt>
      <trkpt lat="44.13271" lon="5.87147">
        <ele>1061</ele>
        <time>2021-06-01T13:03:57.316Z</time>
      </trkpt>
      <trkpt lat="44.13271" lon="5.87146">
        <ele>1061</ele>
        <time>2021-06-01T13:03:58.316Z</time>
      </trkpt>
      <trkpt lat="44.13272" lon="5.87144">
        <ele>1061</ele>
        <time>2021-06-01T13:03:59.316Z</time>
      </trkpt>
      <trkpt lat="44.13273" lon="5.87143">
        <ele>1061</ele>
        <time>2021-06-01T13:04:00.316Z</time>
      </trkpt>
      <trkpt lat="44.13273" lon="5.87141">
        <ele>1061</ele>
        <time>2021-06-01T13:04:01.316Z</time>
      </trkpt>
      <trkpt lat="44.13274" lon="5.8714">
        <ele>1061</ele>
        <time>2021-06-01T13:04:02.316Z</time>
      </trkpt>
      <trkpt lat="44.13275" lon="5.87139">
        <ele>1061</ele>
        <time>2021-06-01T13:04:03.316Z</time>
      </trkpt>
      <trkpt lat="44.13275" lon="5.87138">
        <ele>1061</ele>
        <time>2021-06-01T13:04:04.316Z</time>
      </trkpt>
      <trkpt lat="44.13276" lon="5.87136">
        <ele>1061</ele>
        <time>2021-06-01T13:04:05.316Z</time>
      </trkpt>
      <trkpt lat="44.13276" lon="5.87135">
        <ele>1061</ele>
        <time>2021-06-01T13:04:06.316Z</time>
      </trkpt>
      <trkpt lat="44.13276" lon="5.87134">
        <ele>1061</ele>
        <time>2021-06-01T13:04:07.316Z</time>
      </trkpt>
      <trkpt lat="44.13277" lon="5.87133">
        <ele>1061</ele>
        <time>2021-06-01T13:04:08.316Z</time>
      </trkpt>
      <trkpt lat="44.13277" lon="5.87131">
        <ele>1061</ele>
        <time>2021-06-01T13:04:09.316Z</time>
      </trkpt>
      <trkpt lat="44.13277" lon="5.8713">
        <ele>1061</ele>
        <time>2021-06-01T13:04:10.316Z</time>
      </trkpt>
      <trkpt lat="44.13277" lon="5.87128">
        <ele>1061</ele>
        <time>2021-06-01T13:04:11.316Z</time>
      </trkpt>
      <trkpt lat="44.13278" lon="5.87127">
        <ele>1061</ele>
        <time>2021-06-01T13:04:12.316Z</time>
      </trkpt>
      <trkpt lat="44.13278" lon="5.87126">
        <ele>1062</ele>
        <time>2021-06-01T13:04:13.316Z</time>
      </trkpt>
      <trkpt lat="44.13278" lon="5.87125">
        <ele>1062</ele>
        <time>2021-06-01T13:04:14.316Z</time>
      </trkpt>
      <trkpt lat="44.13279" lon="5.87124">
        <ele>1062</ele>
        <time>2021-06-01T13:04:15.316Z</time>
      </trkpt>
      <trkpt lat="44.1328" lon="5.87123">
        <ele>1062</ele>
        <time>2021-06-01T13:04:16.316Z</time>
      </trkpt>
      <trkpt lat="44.13281" lon="5.87122">
        <ele>1062</ele>
        <time>2021-06-01T13:04:17.316Z</time>
      </trkpt>
      <trkpt lat="44.13281" lon="5.87121">
        <ele>1062</ele>
        <time>2021-06-01T13:04:18.316Z</time>
      </trkpt>
      <trkpt lat="44.13282" lon="5.8712">
        <ele>1062</ele>
        <time>2021-06-01T13:04:19.316Z</time>
      </trkpt>
      <trkpt lat="44.13282" lon="5.87119">
        <ele>1062</ele>
        <time>2021-06-01T13:04:20.316Z</time>
      </trkpt>
      <trkpt lat="44.13282" lon="5.87119">
        <ele>1062</ele>
        <time>2021-06-01T13:04:21.316Z</time>
      </trkpt>
      <trkpt lat="44.13283" lon="5.87118">
        <ele>1062</ele>
        <time>2021-06-01T13:04:22.316Z</time>
      </trkpt>
      <trkpt lat="44.13284" lon="5.87117">
        <ele>1062</ele>
        <time>2021-06-01T13:04:23.316Z</time>
      </trkpt>
      <trkpt lat="44.13285" lon="5.87116">
        <ele>1062</ele>
        <time>2021-06-01T13:04:24.316Z</time>
      </trkpt>
      <trkpt lat="44.13285" lon="5.87116">
        <ele>1062</ele>
        <time>2021-06-01T13:04:25.316Z</time>
      </trkpt>
      <trkpt lat="44.13286" lon="5.87115">
        <ele>1063</ele>
        <time>2021-06-01T13:04:26.316Z</time>
      </trkpt>
      <trkpt lat="44.13287" lon="5.87114">
        <ele>1063</ele>
        <time>2021-06-01T13:04:27.316Z</time>
      </trkpt>
      <trkpt lat="44.13288" lon="5.87113">
        <ele>1063</ele>
        <time>2021-06-01T13:04:28.316Z</time>
      </trkpt>
      <trkpt lat="44.13288" lon="5.87112">
        <ele>1063</ele>
        <time>2021-06-01T13:04:29.316Z</time>
      </trkpt>
      <trkpt lat="44.13289" lon="5.87111">
        <ele>1063</ele>
        <time>2021-06-01T13:04:30.316Z</time>
      </trkpt>
      <trkpt lat="44.13289" lon="5.8711">
        <ele>1063</ele>
        <time>2021-06-01T13:04:31.316Z</time>
      </trkpt>
      <trkpt lat="44.1329" lon="5.87108">
        <ele>1063</ele>
        <time>2021-06-01T13:04:32.316Z</time>
      </trkpt>
      <trkpt lat="44.13291" lon="5.87107">
        <ele>1063</ele>
        <time>2021-06-01T13:04:33.316Z</time>
      </trkpt>
      <trkpt lat="44.13291" lon="5.87107">
        <ele>1064</ele>
        <time>2021-06-01T13:04:34.316Z</time>
      </trkpt>
      <trkpt lat="44.13292" lon="5.87105">
        <ele>1064</ele>
        <time>2021-06-01T13:04:35.316Z</time>
      </trkpt>
      <trkpt lat="44.13292" lon="5.87104">
        <ele>1064</ele>
        <time>2021-06-01T13:04:36.316Z</time>
      </trkpt>
      <trkpt lat="44.13293" lon="5.87103">
        <ele>1065</ele>
        <time>2021-06-01T13:04:37.316Z</time>
      </trkpt>
      <trkpt lat="44.13293" lon="5.87102">
        <ele>1065</ele>
        <time>2021-06-01T13:04:38.316Z</time>
      </trkpt>
      <trkpt lat="44.13294" lon="5.87101">
        <ele>1065</ele>
        <time>2021-06-01T13:04:39.316Z</time>
      </trkpt>
      <trkpt lat="44.13294" lon="5.87101">
        <ele>1065</ele>
        <time>2021-06-01T13:04:40.316Z</time>
      </trkpt>
      <trkpt lat="44.13294" lon="5.871">
        <ele>1066</ele>
        <time>2021-06-01T13:04:41.316Z</time>
      </trkpt>
      <trkpt lat="44.13294" lon="5.871">
        <ele>1066</ele>
        <time>2021-06-01T13:04:42.316Z</time>
      </trkpt>
      <trkpt lat="44.13294" lon="5.87099">
        <ele>1066</ele>
        <time>2021-06-01T13:04:43.316Z</time>
      </trkpt>
      <trkpt lat="44.13294" lon="5.87099">
        <ele>1066</ele>
        <time>2021-06-01T13:04:44.316Z</time>
      </trkpt>
      <trkpt lat="44.13294" lon="5.87098">
        <ele>1067</ele>
        <time>2021-06-01T13:04:45.316Z</time>
      </trkpt>
      <trkpt lat="44.13294" lon="5.87097">
        <ele>1067</ele>
        <time>2021-06-01T13:04:46.316Z</time>
      </trkpt>
      <trkpt lat="44.13295" lon="5.87096">
        <ele>1067</ele>
        <time>2021-06-01T13:04:47.316Z</time>
      </trkpt>
      <trkpt lat="44.13295" lon="5.87095">
        <ele>1067</ele>
        <time>2021-06-01T13:04:48.316Z</time>
      </trkpt>
      <trkpt lat="44.13296" lon="5.87094">
        <ele>1067</ele>
        <time>2021-06-01T13:04:49.316Z</time>
      </trkpt>
      <trkpt lat="44.13297" lon="5.87093">
        <ele>1067</ele>
        <time>2021-06-01T13:04:50.316Z</time>
      </trkpt>
      <trkpt lat="44.13298" lon="5.87093">
        <ele>1068</ele>
        <time>2021-06-01T13:04:51.316Z</time>
      </trkpt>
      <trkpt lat="44.13299" lon="5.87093">
        <ele>1068</ele>
        <time>2021-06-01T13:04:52.316Z</time>
      </trkpt>
      <trkpt lat="44.133" lon="5.87094">
        <ele>1068</ele>
        <time>2021-06-01T13:04:53.316Z</time>
      </trkpt>
      <trkpt lat="44.133" lon="5.87094">
        <ele>1068</ele>
        <time>2021-06-01T13:04:54.316Z</time>
      </trkpt>
      <trkpt lat="44.13301" lon="5.87095">
        <ele>1069</ele>
        <time>2021-06-01T13:04:55.316Z</time>
      </trkpt>
      <trkpt lat="44.13301" lon="5.87095">
        <ele>1069</ele>
        <time>2021-06-01T13:04:56.316Z</time>
      </trkpt>
      <trkpt lat="44.13301" lon="5.87095">
        <ele>1069</ele>
        <time>2021-06-01T13:04:57.316Z</time>
      </trkpt>
      <trkpt lat="44.13302" lon="5.87095">
        <ele>1069</ele>
        <time>2021-06-01T13:04:58.316Z</time>
      </trkpt>
      <trkpt lat="44.13302" lon="5.87095">
        <ele>1069</ele>
        <time>2021-06-01T13:04:59.316Z</time>
      </trkpt>
      <trkpt lat="44.13303" lon="5.87096">
        <ele>1069</ele>
        <time>2021-06-01T13:05:00.316Z</time>
      </trkpt>
      <trkpt lat="44.13303" lon="5.87097">
        <ele>1070</ele>
        <time>2021-06-01T13:05:01.316Z</time>
      </trkpt>
      <trkpt lat="44.13304" lon="5.87097">
        <ele>1070</ele>
        <time>2021-06-01T13:05:02.316Z</time>
      </trkpt>
      <trkpt lat="44.13304" lon="5.87098">
        <ele>1070</ele>
        <time>2021-06-01T13:05:03.316Z</time>
      </trkpt>
      <trkpt lat="44.13305" lon="5.87099">
        <ele>1070</ele>
        <time>2021-06-01T13:05:04.316Z</time>
      </trkpt>
      <trkpt lat="44.13306" lon="5.871">
        <ele>1069</ele>
        <time>2021-06-01T13:05:05.316Z</time>
      </trkpt>
      <trkpt lat="44.13306" lon="5.87101">
        <ele>1069</ele>
        <time>2021-06-01T13:05:06.316Z</time>
      </trkpt>
      <trkpt lat="44.13307" lon="5.87102">
        <ele>1069</ele>
        <time>2021-06-01T13:05:07.316Z</time>
      </trkpt>
      <trkpt lat="44.13308" lon="5.87103">
        <ele>1069</ele>
        <time>2021-06-01T13:05:08.316Z</time>
      </trkpt>
      <trkpt lat="44.13308" lon="5.87104">
        <ele>1069</ele>
        <time>2021-06-01T13:05:09.316Z</time>
      </trkpt>
      <trkpt lat="44.13308" lon="5.87104">
        <ele>1069</ele>
        <time>2021-06-01T13:05:10.316Z</time>
      </trkpt>
      <trkpt lat="44.13308" lon="5.87104">
        <ele>1069</ele>
        <time>2021-06-01T13:05:11.316Z</time>
      </trkpt>
      <trkpt lat="44.13308" lon="5.87104">
        <ele>1069</ele>
        <time>2021-06-01T13:05:12.316Z</time>
      </trkpt>
      <trkpt lat="44.13309" lon="5.87104">
        <ele>1069</ele>
        <time>2021-06-01T13:05:13.316Z</time>
      </trkpt>
      <trkpt lat="44.13309" lon="5.87105">
        <ele>1069</ele>
        <time>2021-06-01T13:05:14.316Z</time>
      </trkpt>
      <trkpt lat="44.13309" lon="5.87105">
        <ele>1069</ele>
        <time>2021-06-01T13:05:15.316Z</time>
      </trkpt>
      <trkpt lat="44.13309" lon="5.87106">
        <ele>1069</ele>
        <time>2021-06-01T13:05:16.316Z</time>
      </trkpt>
      <trkpt lat="44.13309" lon="5.87106">
        <ele>1069</ele>
        <time>2021-06-01T13:05:17.316Z</time>
      </trkpt>
      <trkpt lat="44.13309" lon="5.87107">
        <ele>1069</ele>
        <time>2021-06-01T13:05:18.316Z</time>
      </trkpt>
      <trkpt lat="44.13309" lon="5.87107">
        <ele>1069</ele>
        <time>2021-06-01T13:05:19.316Z</time>
      </trkpt>
      <trkpt lat="44.1331" lon="5.87108">
        <ele>1069</ele>
        <time>2021-06-01T13:05:20.316Z</time>
      </trkpt>
      <trkpt lat="44.1331" lon="5.87108">
        <ele>1069</ele>
        <time>2021-06-01T13:05:21.316Z</time>
      </trkpt>
      <trkpt lat="44.1331" lon="5.87109">
        <ele>1070</ele>
        <time>2021-06-01T13:05:22.316Z</time>
      </trkpt>
      <trkpt lat="44.1331" lon="5.8711">
        <ele>1070</ele>
        <time>2021-06-01T13:05:23.316Z</time>
      </trkpt>
      <trkpt lat="44.1331" lon="5.8711">
        <ele>1070</ele>
        <time>2021-06-01T13:05:24.316Z</time>
      </trkpt>
      <trkpt lat="44.1331" lon="5.87111">
        <ele>1070</ele>
        <time>2021-06-01T13:05:25.316Z</time>
      </trkpt>
      <trkpt lat="44.1331" lon="5.87111">
        <ele>1070</ele>
        <time>2021-06-01T13:05:26.316Z</time>
      </trkpt>
      <trkpt lat="44.13311" lon="5.87112">
        <ele>1070</ele>
        <time>2021-06-01T13:05:27.316Z</time>
      </trkpt>
      <trkpt lat="44.13311" lon="5.87112">
        <ele>1070</ele>
        <time>2021-06-01T13:05:28.316Z</time>
      </trkpt>
      <trkpt lat="44.13311" lon="5.87112">
        <ele>1070</ele>
        <time>2021-06-01T13:05:29.316Z</time>
      </trkpt>
      <trkpt lat="44.13311" lon="5.87113">
        <ele>1070</ele>
        <time>2021-06-01T13:05:30.316Z</time>
      </trkpt>
      <trkpt lat="44.13312" lon="5.87114">
        <ele>1070</ele>
        <time>2021-06-01T13:05:31.316Z</time>
      </trkpt>
      <trkpt lat="44.13312" lon="5.87114">
        <ele>1070</ele>
        <time>2021-06-01T13:05:32.316Z</time>
      </trkpt>
      <trkpt lat="44.13312" lon="5.87115">
        <ele>1070</ele>
        <time>2021-06-01T13:05:33.316Z</time>
      </trkpt>
      <trkpt lat="44.13312" lon="5.87116">
        <ele>1070</ele>
        <time>2021-06-01T13:05:34.316Z</time>
      </trkpt>
      <trkpt lat="44.13313" lon="5.87117">
        <ele>1070</ele>
        <time>2021-06-01T13:05:35.316Z</time>
      </trkpt>
      <trkpt lat="44.13313" lon="5.87117">
        <ele>1070</ele>
        <time>2021-06-01T13:05:36.316Z</time>
      </trkpt>
      <trkpt lat="44.13314" lon="5.87118">
        <ele>1070</ele>
        <time>2021-06-01T13:05:37.316Z</time>
      </trkpt>
      <trkpt lat="44.13314" lon="5.87119">
        <ele>1070</ele>
        <time>2021-06-01T13:05:38.316Z</time>
      </trkpt>
      <trkpt lat="44.13315" lon="5.8712">
        <ele>1070</ele>
        <time>2021-06-01T13:05:39.316Z</time>
      </trkpt>
      <trkpt lat="44.13315" lon="5.8712">
        <ele>1070</ele>
        <time>2021-06-01T13:05:40.316Z</time>
      </trkpt>
      <trkpt lat="44.13315" lon="5.87121">
        <ele>1070</ele>
        <time>2021-06-01T13:05:41.316Z</time>
      </trkpt>
      <trkpt lat="44.13316" lon="5.87122">
        <ele>1070</ele>
        <time>2021-06-01T13:05:42.316Z</time>
      </trkpt>
      <trkpt lat="44.13316" lon="5.87123">
        <ele>1070</ele>
        <time>2021-06-01T13:05:43.316Z</time>
      </trkpt>
      <trkpt lat="44.13316" lon="5.87124">
        <ele>1070</ele>
        <time>2021-06-01T13:05:44.316Z</time>
      </trkpt>
      <trkpt lat="44.13317" lon="5.87125">
        <ele>1070</ele>
        <time>2021-06-01T13:05:45.316Z</time>
      </trkpt>
      <trkpt lat="44.13318" lon="5.87126">
        <ele>1070</ele>
        <time>2021-06-01T13:05:46.316Z</time>
      </trkpt>
      <trkpt lat="44.13318" lon="5.87126">
        <ele>1070</ele>
        <time>2021-06-01T13:05:47.316Z</time>
      </trkpt>
      <trkpt lat="44.13319" lon="5.87127">
        <ele>1070</ele>
        <time>2021-06-01T13:05:48.316Z</time>
      </trkpt>
      <trkpt lat="44.13319" lon="5.87128">
        <ele>1070</ele>
        <time>2021-06-01T13:05:49.316Z</time>
      </trkpt>
      <trkpt lat="44.1332" lon="5.87128">
        <ele>1070</ele>
        <time>2021-06-01T13:05:50.316Z</time>
      </trkpt>
      <trkpt lat="44.1332" lon="5.87129">
        <ele>1070</ele>
        <time>2021-06-01T13:05:51.316Z</time>
      </trkpt>
      <trkpt lat="44.13321" lon="5.8713">
        <ele>1070</ele>
        <time>2021-06-01T13:05:52.316Z</time>
      </trkpt>
      <trkpt lat="44.13322" lon="5.87131">
        <ele>1070</ele>
        <time>2021-06-01T13:05:53.316Z</time>
      </trkpt>
      <trkpt lat="44.13322" lon="5.87132">
        <ele>1070</ele>
        <time>2021-06-01T13:05:54.316Z</time>
      </trkpt>
      <trkpt lat="44.13323" lon="5.87133">
        <ele>1070</ele>
        <time>2021-06-01T13:05:55.316Z</time>
      </trkpt>
      <trkpt lat="44.13324" lon="5.87134">
        <ele>1070</ele>
        <time>2021-06-01T13:05:56.316Z</time>
      </trkpt>
      <trkpt lat="44.13324" lon="5.87135">
        <ele>1070</ele>
        <time>2021-06-01T13:05:57.316Z</time>
      </trkpt>
      <trkpt lat="44.13325" lon="5.87137">
        <ele>1070</ele>
        <time>2021-06-01T13:05:58.316Z</time>
      </trkpt>
      <trkpt lat="44.13326" lon="5.87138">
        <ele>1070</ele>
        <time>2021-06-01T13:05:59.316Z</time>
      </trkpt>
      <trkpt lat="44.13326" lon="5.87139">
        <ele>1070</ele>
        <time>2021-06-01T13:06:00.316Z</time>
      </trkpt>
      <trkpt lat="44.13327" lon="5.8714">
        <ele>1070</ele>
        <time>2021-06-01T13:06:01.316Z</time>
      </trkpt>
      <trkpt lat="44.13327" lon="5.87141">
        <ele>1070</ele>
        <time>2021-06-01T13:06:02.316Z</time>
      </trkpt>
      <trkpt lat="44.13328" lon="5.87142">
        <ele>1070</ele>
        <time>2021-06-01T13:06:03.316Z</time>
      </trkpt>
      <trkpt lat="44.13328" lon="5.87143">
        <ele>1070</ele>
        <time>2021-06-01T13:06:04.316Z</time>
      </trkpt>
      <trkpt lat="44.13329" lon="5.87145">
        <ele>1070</ele>
        <time>2021-06-01T13:06:05.316Z</time>
      </trkpt>
      <trkpt lat="44.13329" lon="5.87146">
        <ele>1070</ele>
        <time>2021-06-01T13:06:06.316Z</time>
      </trkpt>
      <trkpt lat="44.1333" lon="5.87147">
        <ele>1070</ele>
        <time>2021-06-01T13:06:07.316Z</time>
      </trkpt>
      <trkpt lat="44.1333" lon="5.87148">
        <ele>1071</ele>
        <time>2021-06-01T13:06:08.316Z</time>
      </trkpt>
      <trkpt lat="44.13331" lon="5.87149">
        <ele>1071</ele>
        <time>2021-06-01T13:06:09.316Z</time>
      </trkpt>
      <trkpt lat="44.13332" lon="5.8715">
        <ele>1071</ele>
        <time>2021-06-01T13:06:10.316Z</time>
      </trkpt>
      <trkpt lat="44.13332" lon="5.87151">
        <ele>1071</ele>
        <time>2021-06-01T13:06:11.316Z</time>
      </trkpt>
      <trkpt lat="44.13332" lon="5.87152">
        <ele>1071</ele>
        <time>2021-06-01T13:06:12.316Z</time>
      </trkpt>
      <trkpt lat="44.13333" lon="5.87154">
        <ele>1071</ele>
        <time>2021-06-01T13:06:13.316Z</time>
      </trkpt>
      <trkpt lat="44.13333" lon="5.87155">
        <ele>1072</ele>
        <time>2021-06-01T13:06:14.316Z</time>
      </trkpt>
      <trkpt lat="44.13333" lon="5.87155">
        <ele>1072</ele>
        <time>2021-06-01T13:06:15.316Z</time>
      </trkpt>
      <trkpt lat="44.13334" lon="5.87156">
        <ele>1072</ele>
        <time>2021-06-01T13:06:16.316Z</time>
      </trkpt>
      <trkpt lat="44.13334" lon="5.87158">
        <ele>1072</ele>
        <time>2021-06-01T13:06:17.316Z</time>
      </trkpt>
      <trkpt lat="44.13335" lon="5.87159">
        <ele>1072</ele>
        <time>2021-06-01T13:06:18.316Z</time>
      </trkpt>
      <trkpt lat="44.13335" lon="5.8716">
        <ele>1072</ele>
        <time>2021-06-01T13:06:19.316Z</time>
      </trkpt>
      <trkpt lat="44.13336" lon="5.87161">
        <ele>1073</ele>
        <time>2021-06-01T13:06:20.316Z</time>
      </trkpt>
      <trkpt lat="44.13336" lon="5.87163">
        <ele>1073</ele>
        <time>2021-06-01T13:06:21.316Z</time>
      </trkpt>
      <trkpt lat="44.13337" lon="5.87164">
        <ele>1073</ele>
        <time>2021-06-01T13:06:22.316Z</time>
      </trkpt>
      <trkpt lat="44.13337" lon="5.87165">
        <ele>1073</ele>
        <time>2021-06-01T13:06:23.316Z</time>
      </trkpt>
      <trkpt lat="44.13338" lon="5.87167">
        <ele>1073</ele>
        <time>2021-06-01T13:06:24.316Z</time>
      </trkpt>
      <trkpt lat="44.13338" lon="5.87168">
        <ele>1073</ele>
        <time>2021-06-01T13:06:25.316Z</time>
      </trkpt>
      <trkpt lat="44.13339" lon="5.8717">
        <ele>1073</ele>
        <time>2021-06-01T13:06:26.316Z</time>
      </trkpt>
      <trkpt lat="44.1334" lon="5.87171">
        <ele>1073</ele>
        <time>2021-06-01T13:06:27.316Z</time>
      </trkpt>
      <trkpt lat="44.1334" lon="5.87173">
        <ele>1073</ele>
        <time>2021-06-01T13:06:28.316Z</time>
      </trkpt>
      <trkpt lat="44.13341" lon="5.87174">
        <ele>1073</ele>
        <time>2021-06-01T13:06:29.316Z</time>
      </trkpt>
      <trkpt lat="44.13341" lon="5.87175">
        <ele>1073</ele>
        <time>2021-06-01T13:06:30.316Z</time>
      </trkpt>
      <trkpt lat="44.13342" lon="5.87176">
        <ele>1073</ele>
        <time>2021-06-01T13:06:31.316Z</time>
      </trkpt>
      <trkpt lat="44.13343" lon="5.87178">
        <ele>1074</ele>
        <time>2021-06-01T13:06:32.316Z</time>
      </trkpt>
      <trkpt lat="44.13343" lon="5.87179">
        <ele>1074</ele>
        <time>2021-06-01T13:06:33.316Z</time>
      </trkpt>
      <trkpt lat="44.13344" lon="5.8718">
        <ele>1074</ele>
        <time>2021-06-01T13:06:34.316Z</time>
      </trkpt>
      <trkpt lat="44.13345" lon="5.87181">
        <ele>1074</ele>
        <time>2021-06-01T13:06:35.316Z</time>
      </trkpt>
      <trkpt lat="44.13346" lon="5.87182">
        <ele>1074</ele>
        <time>2021-06-01T13:06:36.316Z</time>
      </trkpt>
      <trkpt lat="44.13347" lon="5.87183">
        <ele>1074</ele>
        <time>2021-06-01T13:06:37.316Z</time>
      </trkpt>
      <trkpt lat="44.13349" lon="5.87184">
        <ele>1074</ele>
        <time>2021-06-01T13:06:38.316Z</time>
      </trkpt>
      <trkpt lat="44.13349" lon="5.87185">
        <ele>1074</ele>
        <time>2021-06-01T13:06:39.316Z</time>
      </trkpt>
      <trkpt lat="44.1335" lon="5.87185">
        <ele>1074</ele>
        <time>2021-06-01T13:06:40.316Z</time>
      </trkpt>
      <trkpt lat="44.13351" lon="5.87186">
        <ele>1074</ele>
        <time>2021-06-01T13:06:41.316Z</time>
      </trkpt>
      <trkpt lat="44.13352" lon="5.87187">
        <ele>1074</ele>
        <time>2021-06-01T13:06:42.316Z</time>
      </trkpt>
      <trkpt lat="44.13353" lon="5.87188">
        <ele>1074</ele>
        <time>2021-06-01T13:06:43.316Z</time>
      </trkpt>
      <trkpt lat="44.13353" lon="5.87189">
        <ele>1074</ele>
        <time>2021-06-01T13:06:44.316Z</time>
      </trkpt>
      <trkpt lat="44.13354" lon="5.8719">
        <ele>1074</ele>
        <time>2021-06-01T13:06:45.316Z</time>
      </trkpt>
      <trkpt lat="44.13355" lon="5.87191">
        <ele>1074</ele>
        <time>2021-06-01T13:06:46.316Z</time>
      </trkpt>
      <trkpt lat="44.13355" lon="5.87192">
        <ele>1075</ele>
        <time>2021-06-01T13:06:47.316Z</time>
      </trkpt>
      <trkpt lat="44.13356" lon="5.87193">
        <ele>1075</ele>
        <time>2021-06-01T13:06:48.316Z</time>
      </trkpt>
      <trkpt lat="44.13357" lon="5.87194">
        <ele>1075</ele>
        <time>2021-06-01T13:06:49.316Z</time>
      </trkpt>
      <trkpt lat="44.13358" lon="5.87195">
        <ele>1075</ele>
        <time>2021-06-01T13:06:50.316Z</time>
      </trkpt>
      <trkpt lat="44.13358" lon="5.87197">
        <ele>1075</ele>
        <time>2021-06-01T13:06:51.316Z</time>
      </trkpt>
      <trkpt lat="44.13359" lon="5.87198">
        <ele>1075</ele>
        <time>2021-06-01T13:06:52.316Z</time>
      </trkpt>
      <trkpt lat="44.1336" lon="5.87199">
        <ele>1075</ele>
        <time>2021-06-01T13:06:53.316Z</time>
      </trkpt>
      <trkpt lat="44.13361" lon="5.872">
        <ele>1075</ele>
        <time>2021-06-01T13:06:54.316Z</time>
      </trkpt>
      <trkpt lat="44.13362" lon="5.87201">
        <ele>1075</ele>
        <time>2021-06-01T13:06:55.316Z</time>
      </trkpt>
      <trkpt lat="44.13362" lon="5.87202">
        <ele>1075</ele>
        <time>2021-06-01T13:06:56.316Z</time>
      </trkpt>
      <trkpt lat="44.13363" lon="5.87204">
        <ele>1075</ele>
        <time>2021-06-01T13:06:57.316Z</time>
      </trkpt>
      <trkpt lat="44.13364" lon="5.87205">
        <ele>1075</ele>
        <time>2021-06-01T13:06:58.316Z</time>
      </trkpt>
      <trkpt lat="44.13365" lon="5.87207">
        <ele>1074</ele>
        <time>2021-06-01T13:06:59.316Z</time>
      </trkpt>
      <trkpt lat="44.13366" lon="5.87208">
        <ele>1074</ele>
        <time>2021-06-01T13:07:00.316Z</time>
      </trkpt>
      <trkpt lat="44.13368" lon="5.8721">
        <ele>1074</ele>
        <time>2021-06-01T13:07:01.316Z</time>
      </trkpt>
      <trkpt lat="44.13369" lon="5.87211">
        <ele>1074</ele>
        <time>2021-06-01T13:07:02.316Z</time>
      </trkpt>
      <trkpt lat="44.1337" lon="5.87212">
        <ele>1074</ele>
        <time>2021-06-01T13:07:03.316Z</time>
      </trkpt>
      <trkpt lat="44.1337" lon="5.87213">
        <ele>1074</ele>
        <time>2021-06-01T13:07:04.316Z</time>
      </trkpt>
      <trkpt lat="44.13371" lon="5.87214">
        <ele>1074</ele>
        <time>2021-06-01T13:07:05.316Z</time>
      </trkpt>
      <trkpt lat="44.13372" lon="5.87215">
        <ele>1074</ele>
        <time>2021-06-01T13:07:06.316Z</time>
      </trkpt>
      <trkpt lat="44.13373" lon="5.87216">
        <ele>1074</ele>
        <time>2021-06-01T13:07:07.316Z</time>
      </trkpt>
      <trkpt lat="44.13374" lon="5.87217">
        <ele>1074</ele>
        <time>2021-06-01T13:07:08.316Z</time>
      </trkpt>
      <trkpt lat="44.13375" lon="5.87217">
        <ele>1074</ele>
        <time>2021-06-01T13:07:09.316Z</time>
      </trkpt>
      <trkpt lat="44.13376" lon="5.87218">
        <ele>1074</ele>
        <time>2021-06-01T13:07:10.316Z</time>
      </trkpt>
      <trkpt lat="44.13376" lon="5.87218">
        <ele>1074</ele>
        <time>2021-06-01T13:07:11.316Z</time>
      </trkpt>
      <trkpt lat="44.13377" lon="5.87219">
        <ele>1074</ele>
        <time>2021-06-01T13:07:12.316Z</time>
      </trkpt>
      <trkpt lat="44.13378" lon="5.87219">
        <ele>1074</ele>
        <time>2021-06-01T13:07:13.316Z</time>
      </trkpt>
      <trkpt lat="44.13379" lon="5.8722">
        <ele>1074</ele>
        <time>2021-06-01T13:07:14.316Z</time>
      </trkpt>
      <trkpt lat="44.1338" lon="5.8722">
        <ele>1074</ele>
        <time>2021-06-01T13:07:15.316Z</time>
      </trkpt>
      <trkpt lat="44.13381" lon="5.87221">
        <ele>1074</ele>
        <time>2021-06-01T13:07:16.316Z</time>
      </trkpt>
      <trkpt lat="44.13382" lon="5.87221">
        <ele>1075</ele>
        <time>2021-06-01T13:07:17.316Z</time>
      </trkpt>
      <trkpt lat="44.13383" lon="5.87222">
        <ele>1075</ele>
        <time>2021-06-01T13:07:18.316Z</time>
      </trkpt>
      <trkpt lat="44.13384" lon="5.87222">
        <ele>1075</ele>
        <time>2021-06-01T13:07:19.316Z</time>
      </trkpt>
      <trkpt lat="44.13386" lon="5.87223">
        <ele>1075</ele>
        <time>2021-06-01T13:07:20.316Z</time>
      </trkpt>
      <trkpt lat="44.13387" lon="5.87224">
        <ele>1075</ele>
        <time>2021-06-01T13:07:21.316Z</time>
      </trkpt>
      <trkpt lat="44.13388" lon="5.87224">
        <ele>1075</ele>
        <time>2021-06-01T13:07:22.316Z</time>
      </trkpt>
      <trkpt lat="44.13389" lon="5.87225">
        <ele>1075</ele>
        <time>2021-06-01T13:07:23.316Z</time>
      </trkpt>
      <trkpt lat="44.1339" lon="5.87226">
        <ele>1075</ele>
        <time>2021-06-01T13:07:24.316Z</time>
      </trkpt>
      <trkpt lat="44.13391" lon="5.87228">
        <ele>1075</ele>
        <time>2021-06-01T13:07:25.316Z</time>
      </trkpt>
      <trkpt lat="44.13391" lon="5.87229">
        <ele>1075</ele>
        <time>2021-06-01T13:07:26.316Z</time>
      </trkpt>
      <trkpt lat="44.13392" lon="5.8723">
        <ele>1075</ele>
        <time>2021-06-01T13:07:27.316Z</time>
      </trkpt>
      <trkpt lat="44.13393" lon="5.87231">
        <ele>1075</ele>
        <time>2021-06-01T13:07:28.316Z</time>
      </trkpt>
      <trkpt lat="44.13394" lon="5.87232">
        <ele>1075</ele>
        <time>2021-06-01T13:07:29.316Z</time>
      </trkpt>
      <trkpt lat="44.13395" lon="5.87233">
        <ele>1075</ele>
        <time>2021-06-01T13:07:30.316Z</time>
      </trkpt>
      <trkpt lat="44.13397" lon="5.87234">
        <ele>1075</ele>
        <time>2021-06-01T13:07:31.316Z</time>
      </trkpt>
      <trkpt lat="44.13398" lon="5.87235">
        <ele>1075</ele>
        <time>2021-06-01T13:07:32.316Z</time>
      </trkpt>
      <trkpt lat="44.13399" lon="5.87237">
        <ele>1075</ele>
        <time>2021-06-01T13:07:33.316Z</time>
      </trkpt>
      <trkpt lat="44.134" lon="5.87238">
        <ele>1075</ele>
        <time>2021-06-01T13:07:34.316Z</time>
      </trkpt>
      <trkpt lat="44.13401" lon="5.87239">
        <ele>1075</ele>
        <time>2021-06-01T13:07:35.316Z</time>
      </trkpt>
      <trkpt lat="44.13402" lon="5.87241">
        <ele>1075</ele>
        <time>2021-06-01T13:07:36.316Z</time>
      </trkpt>
      <trkpt lat="44.13403" lon="5.87242">
        <ele>1075</ele>
        <time>2021-06-01T13:07:37.316Z</time>
      </trkpt>
      <trkpt lat="44.13403" lon="5.87243">
        <ele>1074</ele>
        <time>2021-06-01T13:07:38.316Z</time>
      </trkpt>
      <trkpt lat="44.13404" lon="5.87245">
        <ele>1074</ele>
        <time>2021-06-01T13:07:39.316Z</time>
      </trkpt>
      <trkpt lat="44.13405" lon="5.87246">
        <ele>1074</ele>
        <time>2021-06-01T13:07:40.316Z</time>
      </trkpt>
      <trkpt lat="44.13406" lon="5.87247">
        <ele>1074</ele>
        <time>2021-06-01T13:07:41.316Z</time>
      </trkpt>
      <trkpt lat="44.13406" lon="5.87248">
        <ele>1074</ele>
        <time>2021-06-01T13:07:42.316Z</time>
      </trkpt>
      <trkpt lat="44.13407" lon="5.87249">
        <ele>1074</ele>
        <time>2021-06-01T13:07:43.316Z</time>
      </trkpt>
      <trkpt lat="44.13408" lon="5.8725">
        <ele>1074</ele>
        <time>2021-06-01T13:07:44.316Z</time>
      </trkpt>
      <trkpt lat="44.13409" lon="5.87251">
        <ele>1073</ele>
        <time>2021-06-01T13:07:45.316Z</time>
      </trkpt>
      <trkpt lat="44.1341" lon="5.87252">
        <ele>1073</ele>
        <time>2021-06-01T13:07:46.316Z</time>
      </trkpt>
      <trkpt lat="44.1341" lon="5.87254">
        <ele>1073</ele>
        <time>2021-06-01T13:07:47.316Z</time>
      </trkpt>
      <trkpt lat="44.13411" lon="5.87255">
        <ele>1073</ele>
        <time>2021-06-01T13:07:48.316Z</time>
      </trkpt>
      <trkpt lat="44.13412" lon="5.87256">
        <ele>1073</ele>
        <time>2021-06-01T13:07:49.316Z</time>
      </trkpt>
      <trkpt lat="44.13413" lon="5.87257">
        <ele>1073</ele>
        <time>2021-06-01T13:07:50.316Z</time>
      </trkpt>
      <trkpt lat="44.13414" lon="5.87258">
        <ele>1072</ele>
        <time>2021-06-01T13:07:51.316Z</time>
      </trkpt>
      <trkpt lat="44.13415" lon="5.8726">
        <ele>1072</ele>
        <time>2021-06-01T13:07:52.316Z</time>
      </trkpt>
      <trkpt lat="44.13416" lon="5.87261">
        <ele>1072</ele>
        <time>2021-06-01T13:07:53.316Z</time>
      </trkpt>
      <trkpt lat="44.13417" lon="5.87262">
        <ele>1072</ele>
        <time>2021-06-01T13:07:54.316Z</time>
      </trkpt>
      <trkpt lat="44.13417" lon="5.87263">
        <ele>1072</ele>
        <time>2021-06-01T13:07:55.316Z</time>
      </trkpt>
      <trkpt lat="44.13418" lon="5.87264">
        <ele>1072</ele>
        <time>2021-06-01T13:07:56.316Z</time>
      </trkpt>
      <trkpt lat="44.13419" lon="5.87264">
        <ele>1072</ele>
        <time>2021-06-01T13:07:57.316Z</time>
      </trkpt>
      <trkpt lat="44.1342" lon="5.87265">
        <ele>1072</ele>
        <time>2021-06-01T13:07:58.316Z</time>
      </trkpt>
      <trkpt lat="44.13421" lon="5.87266">
        <ele>1071</ele>
        <time>2021-06-01T13:07:59.316Z</time>
      </trkpt>
      <trkpt lat="44.13422" lon="5.87267">
        <ele>1071</ele>
        <time>2021-06-01T13:08:00.316Z</time>
      </trkpt>
      <trkpt lat="44.13423" lon="5.87267">
        <ele>1071</ele>
        <time>2021-06-01T13:08:01.316Z</time>
      </trkpt>
      <trkpt lat="44.13423" lon="5.87268">
        <ele>1071</ele>
        <time>2021-06-01T13:08:02.316Z</time>
      </trkpt>
      <trkpt lat="44.13424" lon="5.87268">
        <ele>1071</ele>
        <time>2021-06-01T13:08:03.316Z</time>
      </trkpt>
      <trkpt lat="44.13425" lon="5.87269">
        <ele>1071</ele>
        <time>2021-06-01T13:08:04.316Z</time>
      </trkpt>
      <trkpt lat="44.13426" lon="5.87269">
        <ele>1071</ele>
        <time>2021-06-01T13:08:05.316Z</time>
      </trkpt>
      <trkpt lat="44.13427" lon="5.8727">
        <ele>1071</ele>
        <time>2021-06-01T13:08:06.316Z</time>
      </trkpt>
      <trkpt lat="44.13428" lon="5.8727">
        <ele>1071</ele>
        <time>2021-06-01T13:08:07.316Z</time>
      </trkpt>
      <trkpt lat="44.13428" lon="5.87271">
        <ele>1071</ele>
        <time>2021-06-01T13:08:08.316Z</time>
      </trkpt>
      <trkpt lat="44.13429" lon="5.87271">
        <ele>1070</ele>
        <time>2021-06-01T13:08:09.316Z</time>
      </trkpt>
      <trkpt lat="44.13431" lon="5.87271">
        <ele>1070</ele>
        <time>2021-06-01T13:08:10.316Z</time>
      </trkpt>
      <trkpt lat="44.13432" lon="5.87272">
        <ele>1070</ele>
        <time>2021-06-01T13:08:11.316Z</time>
      </trkpt>
      <trkpt lat="44.13433" lon="5.87272">
        <ele>1070</ele>
        <time>2021-06-01T13:08:12.316Z</time>
      </trkpt>
      <trkpt lat="44.13434" lon="5.87272">
        <ele>1070</ele>
        <time>2021-06-01T13:08:13.316Z</time>
      </trkpt>
      <trkpt lat="44.13435" lon="5.87273">
        <ele>1070</ele>
        <time>2021-06-01T13:08:14.316Z</time>
      </trkpt>
      <trkpt lat="44.13436" lon="5.87273">
        <ele>1070</ele>
        <time>2021-06-01T13:08:15.316Z</time>
      </trkpt>
      <trkpt lat="44.13437" lon="5.87273">
        <ele>1070</ele>
        <time>2021-06-01T13:08:16.316Z</time>
      </trkpt>
      <trkpt lat="44.13438" lon="5.87274">
        <ele>1069</ele>
        <time>2021-06-01T13:08:17.316Z</time>
      </trkpt>
      <trkpt lat="44.13439" lon="5.87275">
        <ele>1069</ele>
        <time>2021-06-01T13:08:18.316Z</time>
      </trkpt>
      <trkpt lat="44.1344" lon="5.87275">
        <ele>1069</ele>
        <time>2021-06-01T13:08:19.316Z</time>
      </trkpt>
      <trkpt lat="44.13441" lon="5.87276">
        <ele>1069</ele>
        <time>2021-06-01T13:08:20.316Z</time>
      </trkpt>
      <trkpt lat="44.13442" lon="5.87276">
        <ele>1069</ele>
        <time>2021-06-01T13:08:21.316Z</time>
      </trkpt>
      <trkpt lat="44.13443" lon="5.87277">
        <ele>1069</ele>
        <time>2021-06-01T13:08:22.316Z</time>
      </trkpt>
      <trkpt lat="44.13444" lon="5.87277">
        <ele>1069</ele>
        <time>2021-06-01T13:08:23.316Z</time>
      </trkpt>
      <trkpt lat="44.13445" lon="5.87277">
        <ele>1069</ele>
        <time>2021-06-01T13:08:24.316Z</time>
      </trkpt>
      <trkpt lat="44.13445" lon="5.87277">
        <ele>1069</ele>
        <time>2021-06-01T13:08:25.316Z</time>
      </trkpt>
      <trkpt lat="44.13446" lon="5.87277">
        <ele>1069</ele>
        <time>2021-06-01T13:08:26.316Z</time>
      </trkpt>
      <trkpt lat="44.13447" lon="5.87277">
        <ele>1069</ele>
        <time>2021-06-01T13:08:27.316Z</time>
      </trkpt>
      <trkpt lat="44.13448" lon="5.87277">
        <ele>1069</ele>
        <time>2021-06-01T13:08:28.316Z</time>
      </trkpt>
      <trkpt lat="44.13449" lon="5.87277">
        <ele>1069</ele>
        <time>2021-06-01T13:08:29.316Z</time>
      </trkpt>
      <trkpt lat="44.1345" lon="5.87278">
        <ele>1069</ele>
        <time>2021-06-01T13:08:30.316Z</time>
      </trkpt>
      <trkpt lat="44.13451" lon="5.87278">
        <ele>1069</ele>
        <time>2021-06-01T13:08:31.316Z</time>
      </trkpt>
      <trkpt lat="44.13452" lon="5.87278">
        <ele>1069</ele>
        <time>2021-06-01T13:08:32.316Z</time>
      </trkpt>
      <trkpt lat="44.13453" lon="5.87278">
        <ele>1068</ele>
        <time>2021-06-01T13:08:33.316Z</time>
      </trkpt>
      <trkpt lat="44.13454" lon="5.87278">
        <ele>1068</ele>
        <time>2021-06-01T13:08:34.316Z</time>
      </trkpt>
      <trkpt lat="44.13455" lon="5.87278">
        <ele>1068</ele>
        <time>2021-06-01T13:08:35.316Z</time>
      </trkpt>
      <trkpt lat="44.13456" lon="5.87279">
        <ele>1068</ele>
        <time>2021-06-01T13:08:36.316Z</time>
      </trkpt>
      <trkpt lat="44.13457" lon="5.87279">
        <ele>1068</ele>
        <time>2021-06-01T13:08:37.316Z</time>
      </trkpt>
      <trkpt lat="44.13459" lon="5.87279">
        <ele>1067</ele>
        <time>2021-06-01T13:08:38.316Z</time>
      </trkpt>
      <trkpt lat="44.1346" lon="5.87279">
        <ele>1067</ele>
        <time>2021-06-01T13:08:39.316Z</time>
      </trkpt>
      <trkpt lat="44.13461" lon="5.87279">
        <ele>1067</ele>
        <time>2021-06-01T13:08:40.316Z</time>
      </trkpt>
      <trkpt lat="44.13462" lon="5.87279">
        <ele>1067</ele>
        <time>2021-06-01T13:08:41.316Z</time>
      </trkpt>
      <trkpt lat="44.13464" lon="5.87279">
        <ele>1066</ele>
        <time>2021-06-01T13:08:42.316Z</time>
      </trkpt>
      <trkpt lat="44.13465" lon="5.87278">
        <ele>1066</ele>
        <time>2021-06-01T13:08:43.316Z</time>
      </trkpt>
      <trkpt lat="44.13466" lon="5.87278">
        <ele>1066</ele>
        <time>2021-06-01T13:08:44.316Z</time>
      </trkpt>
      <trkpt lat="44.13467" lon="5.87278">
        <ele>1065</ele>
        <time>2021-06-01T13:08:45.316Z</time>
      </trkpt>
      <trkpt lat="44.13468" lon="5.87277">
        <ele>1065</ele>
        <time>2021-06-01T13:08:46.316Z</time>
      </trkpt>
      <trkpt lat="44.1347" lon="5.87276">
        <ele>1065</ele>
        <time>2021-06-01T13:08:47.316Z</time>
      </trkpt>
      <trkpt lat="44.13471" lon="5.87276">
        <ele>1064</ele>
        <time>2021-06-01T13:08:48.316Z</time>
      </trkpt>
      <trkpt lat="44.13472" lon="5.87275">
        <ele>1064</ele>
        <time>2021-06-01T13:08:49.316Z</time>
      </trkpt>
      <trkpt lat="44.13474" lon="5.87273">
        <ele>1064</ele>
        <time>2021-06-01T13:08:50.316Z</time>
      </trkpt>
      <trkpt lat="44.13475" lon="5.87272">
        <ele>1064</ele>
        <time>2021-06-01T13:08:51.316Z</time>
      </trkpt>
      <trkpt lat="44.13477" lon="5.87271">
        <ele>1064</ele>
        <time>2021-06-01T13:08:52.316Z</time>
      </trkpt>
      <trkpt lat="44.13478" lon="5.87269">
        <ele>1063</ele>
        <time>2021-06-01T13:08:53.316Z</time>
      </trkpt>
      <trkpt lat="44.13479" lon="5.87268">
        <ele>1063</ele>
        <time>2021-06-01T13:08:54.316Z</time>
      </trkpt>
      <trkpt lat="44.13479" lon="5.87267">
        <ele>1063</ele>
        <time>2021-06-01T13:08:55.316Z</time>
      </trkpt>
      <trkpt lat="44.1348" lon="5.87266">
        <ele>1063</ele>
        <time>2021-06-01T13:08:56.316Z</time>
      </trkpt>
      <trkpt lat="44.13481" lon="5.87265">
        <ele>1063</ele>
        <time>2021-06-01T13:08:57.316Z</time>
      </trkpt>
      <trkpt lat="44.13482" lon="5.87265">
        <ele>1062</ele>
        <time>2021-06-01T13:08:58.316Z</time>
      </trkpt>
      <trkpt lat="44.13483" lon="5.87264">
        <ele>1062</ele>
        <time>2021-06-01T13:08:59.316Z</time>
      </trkpt>
      <trkpt lat="44.13484" lon="5.87263">
        <ele>1062</ele>
        <time>2021-06-01T13:09:00.316Z</time>
      </trkpt>
      <trkpt lat="44.13485" lon="5.87263">
        <ele>1062</ele>
        <time>2021-06-01T13:09:01.316Z</time>
      </trkpt>
      <trkpt lat="44.13486" lon="5.87263">
        <ele>1061</ele>
        <time>2021-06-01T13:09:02.316Z</time>
      </trkpt>
      <trkpt lat="44.13487" lon="5.87263">
        <ele>1061</ele>
        <time>2021-06-01T13:09:03.316Z</time>
      </trkpt>
      <trkpt lat="44.13488" lon="5.87264">
        <ele>1060</ele>
        <time>2021-06-01T13:09:04.316Z</time>
      </trkpt>
      <trkpt lat="44.13489" lon="5.87264">
        <ele>1060</ele>
        <time>2021-06-01T13:09:05.316Z</time>
      </trkpt>
      <trkpt lat="44.1349" lon="5.87264">
        <ele>1059</ele>
        <time>2021-06-01T13:09:06.316Z</time>
      </trkpt>
      <trkpt lat="44.13491" lon="5.87264">
        <ele>1059</ele>
        <time>2021-06-01T13:09:07.316Z</time>
      </trkpt>
      <trkpt lat="44.13491" lon="5.87263">
        <ele>1059</ele>
        <time>2021-06-01T13:09:08.316Z</time>
      </trkpt>
      <trkpt lat="44.13492" lon="5.87262">
        <ele>1058</ele>
        <time>2021-06-01T13:09:09.316Z</time>
      </trkpt>
      <trkpt lat="44.13493" lon="5.87261">
        <ele>1058</ele>
        <time>2021-06-01T13:09:10.316Z</time>
      </trkpt>
      <trkpt lat="44.13494" lon="5.87261">
        <ele>1057</ele>
        <time>2021-06-01T13:09:11.316Z</time>
      </trkpt>
      <trkpt lat="44.13495" lon="5.87261">
        <ele>1057</ele>
        <time>2021-06-01T13:09:12.316Z</time>
      </trkpt>
      <trkpt lat="44.13496" lon="5.8726">
        <ele>1057</ele>
        <time>2021-06-01T13:09:13.316Z</time>
      </trkpt>
      <trkpt lat="44.13496" lon="5.8726">
        <ele>1056</ele>
        <time>2021-06-01T13:09:14.316Z</time>
      </trkpt>
      <trkpt lat="44.13497" lon="5.8726">
        <ele>1056</ele>
        <time>2021-06-01T13:09:15.316Z</time>
      </trkpt>
      <trkpt lat="44.13498" lon="5.8726">
        <ele>1056</ele>
        <time>2021-06-01T13:09:16.316Z</time>
      </trkpt>
      <trkpt lat="44.13498" lon="5.8726">
        <ele>1056</ele>
        <time>2021-06-01T13:09:17.316Z</time>
      </trkpt>
      <trkpt lat="44.13499" lon="5.8726">
        <ele>1055</ele>
        <time>2021-06-01T13:09:18.316Z</time>
      </trkpt>
      <trkpt lat="44.135" lon="5.8726">
        <ele>1055</ele>
        <time>2021-06-01T13:09:19.316Z</time>
      </trkpt>
      <trkpt lat="44.13501" lon="5.8726">
        <ele>1055</ele>
        <time>2021-06-01T13:09:20.316Z</time>
      </trkpt>
      <trkpt lat="44.13502" lon="5.8726">
        <ele>1054</ele>
        <time>2021-06-01T13:09:21.316Z</time>
      </trkpt>
      <trkpt lat="44.13503" lon="5.8726">
        <ele>1054</ele>
        <time>2021-06-01T13:09:22.316Z</time>
      </trkpt>
      <trkpt lat="44.13504" lon="5.87259">
        <ele>1054</ele>
        <time>2021-06-01T13:09:23.316Z</time>
      </trkpt>
      <trkpt lat="44.13504" lon="5.87259">
        <ele>1053</ele>
        <time>2021-06-01T13:09:24.316Z</time>
      </trkpt>
      <trkpt lat="44.13505" lon="5.87258">
        <ele>1053</ele>
        <time>2021-06-01T13:09:25.316Z</time>
      </trkpt>
      <trkpt lat="44.13506" lon="5.87258">
        <ele>1053</ele>
        <time>2021-06-01T13:09:26.316Z</time>
      </trkpt>
      <trkpt lat="44.13507" lon="5.87257">
        <ele>1053</ele>
        <time>2021-06-01T13:09:27.316Z</time>
      </trkpt>
      <trkpt lat="44.13507" lon="5.87257">
        <ele>1052</ele>
        <time>2021-06-01T13:09:28.316Z</time>
      </trkpt>
      <trkpt lat="44.13508" lon="5.87256">
        <ele>1052</ele>
        <time>2021-06-01T13:09:29.316Z</time>
      </trkpt>
      <trkpt lat="44.13509" lon="5.87257">
        <ele>1052</ele>
        <time>2021-06-01T13:09:30.316Z</time>
      </trkpt>
      <trkpt lat="44.13509" lon="5.87257">
        <ele>1051</ele>
        <time>2021-06-01T13:09:31.316Z</time>
      </trkpt>
      <trkpt lat="44.13509" lon="5.87258">
        <ele>1051</ele>
        <time>2021-06-01T13:09:32.316Z</time>
      </trkpt>
      <trkpt lat="44.13509" lon="5.87259">
        <ele>1050</ele>
        <time>2021-06-01T13:09:33.316Z</time>
      </trkpt>
      <trkpt lat="44.13509" lon="5.87261">
        <ele>1050</ele>
        <time>2021-06-01T13:09:34.316Z</time>
      </trkpt>
      <trkpt lat="44.13509" lon="5.87262">
        <ele>1049</ele>
        <time>2021-06-01T13:09:35.316Z</time>
      </trkpt>
      <trkpt lat="44.13509" lon="5.87263">
        <ele>1049</ele>
        <time>2021-06-01T13:09:36.316Z</time>
      </trkpt>
      <trkpt lat="44.13509" lon="5.87264">
        <ele>1048</ele>
        <time>2021-06-01T13:09:37.316Z</time>
      </trkpt>
      <trkpt lat="44.13509" lon="5.87266">
        <ele>1048</ele>
        <time>2021-06-01T13:09:38.316Z</time>
      </trkpt>
      <trkpt lat="44.13509" lon="5.87267">
        <ele>1048</ele>
        <time>2021-06-01T13:09:39.316Z</time>
      </trkpt>
      <trkpt lat="44.13509" lon="5.87268">
        <ele>1047</ele>
        <time>2021-06-01T13:09:40.316Z</time>
      </trkpt>
      <trkpt lat="44.13509" lon="5.87269">
        <ele>1047</ele>
        <time>2021-06-01T13:09:41.316Z</time>
      </trkpt>
      <trkpt lat="44.13509" lon="5.8727">
        <ele>1047</ele>
        <time>2021-06-01T13:09:42.316Z</time>
      </trkpt>
      <trkpt lat="44.1351" lon="5.8727">
        <ele>1046</ele>
        <time>2021-06-01T13:09:43.316Z</time>
      </trkpt>
      <trkpt lat="44.1351" lon="5.8727">
        <ele>1046</ele>
        <time>2021-06-01T13:09:44.316Z</time>
      </trkpt>
      <trkpt lat="44.13511" lon="5.87269">
        <ele>1046</ele>
        <time>2021-06-01T13:09:45.316Z</time>
      </trkpt>
      <trkpt lat="44.13512" lon="5.87269">
        <ele>1045</ele>
        <time>2021-06-01T13:09:46.316Z</time>
      </trkpt>
      <trkpt lat="44.13513" lon="5.87268">
        <ele>1045</ele>
        <time>2021-06-01T13:09:47.316Z</time>
      </trkpt>
      <trkpt lat="44.13513" lon="5.87268">
        <ele>1045</ele>
        <time>2021-06-01T13:09:48.316Z</time>
      </trkpt>
      <trkpt lat="44.13514" lon="5.87267">
        <ele>1045</ele>
        <time>2021-06-01T13:09:49.316Z</time>
      </trkpt>
      <trkpt lat="44.13515" lon="5.87268">
        <ele>1044</ele>
        <time>2021-06-01T13:09:50.316Z</time>
      </trkpt>
      <trkpt lat="44.13515" lon="5.87267">
        <ele>1044</ele>
        <time>2021-06-01T13:09:51.316Z</time>
      </trkpt>
      <trkpt lat="44.13516" lon="5.87267">
        <ele>1044</ele>
        <time>2021-06-01T13:09:52.316Z</time>
      </trkpt>
      <trkpt lat="44.13517" lon="5.87267">
        <ele>1044</ele>
        <time>2021-06-01T13:09:53.316Z</time>
      </trkpt>
      <trkpt lat="44.13518" lon="5.87267">
        <ele>1043</ele>
        <time>2021-06-01T13:09:54.316Z</time>
      </trkpt>
      <trkpt lat="44.13519" lon="5.87267">
        <ele>1043</ele>
        <time>2021-06-01T13:09:55.316Z</time>
      </trkpt>
      <trkpt lat="44.1352" lon="5.87266">
        <ele>1043</ele>
        <time>2021-06-01T13:09:56.316Z</time>
      </trkpt>
      <trkpt lat="44.13521" lon="5.87266">
        <ele>1043</ele>
        <time>2021-06-01T13:09:57.316Z</time>
      </trkpt>
      <trkpt lat="44.13522" lon="5.87265">
        <ele>1043</ele>
        <time>2021-06-01T13:09:58.316Z</time>
      </trkpt>
      <trkpt lat="44.13522" lon="5.87265">
        <ele>1043</ele>
        <time>2021-06-01T13:09:59.316Z</time>
      </trkpt>
      <trkpt lat="44.13523" lon="5.87266">
        <ele>1042</ele>
        <time>2021-06-01T13:10:00.316Z</time>
      </trkpt>
      <trkpt lat="44.13524" lon="5.87266">
        <ele>1042</ele>
        <time>2021-06-01T13:10:01.316Z</time>
      </trkpt>
      <trkpt lat="44.13524" lon="5.87266">
        <ele>1042</ele>
        <time>2021-06-01T13:10:02.316Z</time>
      </trkpt>
      <trkpt lat="44.13525" lon="5.87266">
        <ele>1042</ele>
        <time>2021-06-01T13:10:03.316Z</time>
      </trkpt>
      <trkpt lat="44.13526" lon="5.87265">
        <ele>1042</ele>
        <time>2021-06-01T13:10:04.316Z</time>
      </trkpt>
      <trkpt lat="44.13526" lon="5.87265">
        <ele>1042</ele>
        <time>2021-06-01T13:10:05.316Z</time>
      </trkpt>
      <trkpt lat="44.13527" lon="5.87265">
        <ele>1041</ele>
        <time>2021-06-01T13:10:06.316Z</time>
      </trkpt>
      <trkpt lat="44.13528" lon="5.87266">
        <ele>1041</ele>
        <time>2021-06-01T13:10:07.316Z</time>
      </trkpt>
      <trkpt lat="44.13529" lon="5.87266">
        <ele>1041</ele>
        <time>2021-06-01T13:10:08.316Z</time>
      </trkpt>
      <trkpt lat="44.1353" lon="5.87267">
        <ele>1041</ele>
        <time>2021-06-01T13:10:09.316Z</time>
      </trkpt>
      <trkpt lat="44.1353" lon="5.87268">
        <ele>1041</ele>
        <time>2021-06-01T13:10:10.316Z</time>
      </trkpt>
      <trkpt lat="44.13531" lon="5.87269">
        <ele>1040</ele>
        <time>2021-06-01T13:10:11.316Z</time>
      </trkpt>
      <trkpt lat="44.1353" lon="5.8727">
        <ele>1040</ele>
        <time>2021-06-01T13:10:12.316Z</time>
      </trkpt>
      <trkpt lat="44.1353" lon="5.87271">
        <ele>1040</ele>
        <time>2021-06-01T13:10:13.316Z</time>
      </trkpt>
      <trkpt lat="44.1353" lon="5.87272">
        <ele>1039</ele>
        <time>2021-06-01T13:10:14.316Z</time>
      </trkpt>
      <trkpt lat="44.1353" lon="5.87273">
        <ele>1039</ele>
        <time>2021-06-01T13:10:15.316Z</time>
      </trkpt>
      <trkpt lat="44.13529" lon="5.87275">
        <ele>1039</ele>
        <time>2021-06-01T13:10:16.316Z</time>
      </trkpt>
      <trkpt lat="44.13529" lon="5.87276">
        <ele>1039</ele>
        <time>2021-06-01T13:10:17.316Z</time>
      </trkpt>
      <trkpt lat="44.13529" lon="5.87277">
        <ele>1038</ele>
        <time>2021-06-01T13:10:18.316Z</time>
      </trkpt>
      <trkpt lat="44.13528" lon="5.87278">
        <ele>1038</ele>
        <time>2021-06-01T13:10:19.316Z</time>
      </trkpt>
      <trkpt lat="44.13528" lon="5.87279">
        <ele>1038</ele>
        <time>2021-06-01T13:10:20.316Z</time>
      </trkpt>
      <trkpt lat="44.13528" lon="5.8728">
        <ele>1037</ele>
        <time>2021-06-01T13:10:21.316Z</time>
      </trkpt>
      <trkpt lat="44.13527" lon="5.87281">
        <ele>1037</ele>
        <time>2021-06-01T13:10:22.316Z</time>
      </trkpt>
      <trkpt lat="44.13527" lon="5.87282">
        <ele>1037</ele>
        <time>2021-06-01T13:10:23.316Z</time>
      </trkpt>
      <trkpt lat="44.13528" lon="5.87283">
        <ele>1036</ele>
        <time>2021-06-01T13:10:24.316Z</time>
      </trkpt>
      <trkpt lat="44.13528" lon="5.87284">
        <ele>1036</ele>
        <time>2021-06-01T13:10:25.316Z</time>
      </trkpt>
      <trkpt lat="44.13529" lon="5.87285">
        <ele>1036</ele>
        <time>2021-06-01T13:10:26.316Z</time>
      </trkpt>
      <trkpt lat="44.13529" lon="5.87286">
        <ele>1035</ele>
        <time>2021-06-01T13:10:27.316Z</time>
      </trkpt>
      <trkpt lat="44.13529" lon="5.87287">
        <ele>1035</ele>
        <time>2021-06-01T13:10:28.316Z</time>
      </trkpt>
      <trkpt lat="44.1353" lon="5.87288">
        <ele>1035</ele>
        <time>2021-06-01T13:10:29.316Z</time>
      </trkpt>
      <trkpt lat="44.1353" lon="5.87289">
        <ele>1034</ele>
        <time>2021-06-01T13:10:30.316Z</time>
      </trkpt>
      <trkpt lat="44.13531" lon="5.87289">
        <ele>1034</ele>
        <time>2021-06-01T13:10:31.316Z</time>
      </trkpt>
      <trkpt lat="44.13531" lon="5.8729">
        <ele>1034</ele>
        <time>2021-06-01T13:10:32.316Z</time>
      </trkpt>
      <trkpt lat="44.13531" lon="5.8729">
        <ele>1034</ele>
        <time>2021-06-01T13:10:33.316Z</time>
      </trkpt>
      <trkpt lat="44.13532" lon="5.8729">
        <ele>1033</ele>
        <time>2021-06-01T13:10:34.316Z</time>
      </trkpt>
      <trkpt lat="44.13533" lon="5.8729">
        <ele>1033</ele>
        <time>2021-06-01T13:10:35.316Z</time>
      </trkpt>
      <trkpt lat="44.13533" lon="5.8729">
        <ele>1033</ele>
        <time>2021-06-01T13:10:36.316Z</time>
      </trkpt>
      <trkpt lat="44.13534" lon="5.8729">
        <ele>1033</ele>
        <time>2021-06-01T13:10:37.316Z</time>
      </trkpt>
      <trkpt lat="44.13534" lon="5.8729">
        <ele>1032</ele>
        <time>2021-06-01T13:10:38.316Z</time>
      </trkpt>
      <trkpt lat="44.13535" lon="5.87291">
        <ele>1032</ele>
        <time>2021-06-01T13:10:39.316Z</time>
      </trkpt>
      <trkpt lat="44.13536" lon="5.87291">
        <ele>1032</ele>
        <time>2021-06-01T13:10:40.316Z</time>
      </trkpt>
      <trkpt lat="44.13537" lon="5.87292">
        <ele>1032</ele>
        <time>2021-06-01T13:10:41.316Z</time>
      </trkpt>
      <trkpt lat="44.13537" lon="5.87293">
        <ele>1031</ele>
        <time>2021-06-01T13:10:42.316Z</time>
      </trkpt>
      <trkpt lat="44.13538" lon="5.87294">
        <ele>1031</ele>
        <time>2021-06-01T13:10:43.316Z</time>
      </trkpt>
      <trkpt lat="44.13538" lon="5.87295">
        <ele>1031</ele>
        <time>2021-06-01T13:10:44.316Z</time>
      </trkpt>
      <trkpt lat="44.13538" lon="5.87296">
        <ele>1031</ele>
        <time>2021-06-01T13:10:45.316Z</time>
      </trkpt>
      <trkpt lat="44.13539" lon="5.87297">
        <ele>1031</ele>
        <time>2021-06-01T13:10:46.316Z</time>
      </trkpt>
      <trkpt lat="44.13539" lon="5.87298">
        <ele>1030</ele>
        <time>2021-06-01T13:10:47.316Z</time>
      </trkpt>
      <trkpt lat="44.13539" lon="5.87299">
        <ele>1030</ele>
        <time>2021-06-01T13:10:48.316Z</time>
      </trkpt>
      <trkpt lat="44.1354" lon="5.87301">
        <ele>1030</ele>
        <time>2021-06-01T13:10:49.316Z</time>
      </trkpt>
      <trkpt lat="44.1354" lon="5.87302">
        <ele>1030</ele>
        <time>2021-06-01T13:10:50.316Z</time>
      </trkpt>
      <trkpt lat="44.13541" lon="5.87303">
        <ele>1029</ele>
        <time>2021-06-01T13:10:51.316Z</time>
      </trkpt>
      <trkpt lat="44.13541" lon="5.87304">
        <ele>1029</ele>
        <time>2021-06-01T13:10:52.316Z</time>
      </trkpt>
      <trkpt lat="44.13541" lon="5.87305">
        <ele>1029</ele>
        <time>2021-06-01T13:10:53.316Z</time>
      </trkpt>
      <trkpt lat="44.13542" lon="5.87306">
        <ele>1028</ele>
        <time>2021-06-01T13:10:54.316Z</time>
      </trkpt>
      <trkpt lat="44.13543" lon="5.87307">
        <ele>1028</ele>
        <time>2021-06-01T13:10:55.316Z</time>
      </trkpt>
      <trkpt lat="44.13543" lon="5.87308">
        <ele>1028</ele>
        <time>2021-06-01T13:10:56.316Z</time>
      </trkpt>
      <trkpt lat="44.13543" lon="5.8731">
        <ele>1027</ele>
        <time>2021-06-01T13:10:57.316Z</time>
      </trkpt>
      <trkpt lat="44.13544" lon="5.87311">
        <ele>1027</ele>
        <time>2021-06-01T13:10:58.316Z</time>
      </trkpt>
      <trkpt lat="44.13544" lon="5.87312">
        <ele>1027</ele>
        <time>2021-06-01T13:10:59.316Z</time>
      </trkpt>
      <trkpt lat="44.13544" lon="5.87314">
        <ele>1027</ele>
        <time>2021-06-01T13:11:00.316Z</time>
      </trkpt>
      <trkpt lat="44.13544" lon="5.87315">
        <ele>1026</ele>
        <time>2021-06-01T13:11:01.316Z</time>
      </trkpt>
      <trkpt lat="44.13544" lon="5.87316">
        <ele>1026</ele>
        <time>2021-06-01T13:11:02.316Z</time>
      </trkpt>
      <trkpt lat="44.13544" lon="5.87317">
        <ele>1026</ele>
        <time>2021-06-01T13:11:03.316Z</time>
      </trkpt>
      <trkpt lat="44.13544" lon="5.87319">
        <ele>1026</ele>
        <time>2021-06-01T13:11:04.316Z</time>
      </trkpt>
      <trkpt lat="44.13544" lon="5.8732">
        <ele>1026</ele>
        <time>2021-06-01T13:11:05.316Z</time>
      </trkpt>
      <trkpt lat="44.13544" lon="5.87321">
        <ele>1026</ele>
        <time>2021-06-01T13:11:06.316Z</time>
      </trkpt>
      <trkpt lat="44.13544" lon="5.87323">
        <ele>1025</ele>
        <time>2021-06-01T13:11:07.316Z</time>
      </trkpt>
      <trkpt lat="44.13544" lon="5.87324">
        <ele>1025</ele>
        <time>2021-06-01T13:11:08.316Z</time>
      </trkpt>
      <trkpt lat="44.13544" lon="5.87324">
        <ele>1025</ele>
        <time>2021-06-01T13:11:09.316Z</time>
      </trkpt>
      <trkpt lat="44.13544" lon="5.87325">
        <ele>1025</ele>
        <time>2021-06-01T13:11:10.316Z</time>
      </trkpt>
      <trkpt lat="44.13544" lon="5.87326">
        <ele>1025</ele>
        <time>2021-06-01T13:11:11.316Z</time>
      </trkpt>
      <trkpt lat="44.13544" lon="5.87326">
        <ele>1025</ele>
        <time>2021-06-01T13:11:12.316Z</time>
      </trkpt>
      <trkpt lat="44.13545" lon="5.87327">
        <ele>1024</ele>
        <time>2021-06-01T13:11:13.316Z</time>
      </trkpt>
      <trkpt lat="44.13545" lon="5.87328">
        <ele>1024</ele>
        <time>2021-06-01T13:11:14.316Z</time>
      </trkpt>
      <trkpt lat="44.13546" lon="5.87329">
        <ele>1024</ele>
        <time>2021-06-01T13:11:15.316Z</time>
      </trkpt>
      <trkpt lat="44.13546" lon="5.87331">
        <ele>1024</ele>
        <time>2021-06-01T13:11:16.316Z</time>
      </trkpt>
      <trkpt lat="44.13547" lon="5.87332">
        <ele>1024</ele>
        <time>2021-06-01T13:11:17.316Z</time>
      </trkpt>
      <trkpt lat="44.13548" lon="5.87333">
        <ele>1023</ele>
        <time>2021-06-01T13:11:18.316Z</time>
      </trkpt>
      <trkpt lat="44.13549" lon="5.87335">
        <ele>1023</ele>
        <time>2021-06-01T13:11:19.316Z</time>
      </trkpt>
      <trkpt lat="44.13549" lon="5.87336">
        <ele>1023</ele>
        <time>2021-06-01T13:11:20.316Z</time>
      </trkpt>
      <trkpt lat="44.1355" lon="5.87338">
        <ele>1023</ele>
        <time>2021-06-01T13:11:21.316Z</time>
      </trkpt>
      <trkpt lat="44.1355" lon="5.87339">
        <ele>1022</ele>
        <time>2021-06-01T13:11:22.316Z</time>
      </trkpt>
      <trkpt lat="44.13551" lon="5.8734">
        <ele>1022</ele>
        <time>2021-06-01T13:11:23.316Z</time>
      </trkpt>
      <trkpt lat="44.13552" lon="5.87341">
        <ele>1022</ele>
        <time>2021-06-01T13:11:24.316Z</time>
      </trkpt>
      <trkpt lat="44.13553" lon="5.87343">
        <ele>1021</ele>
        <time>2021-06-01T13:11:25.316Z</time>
      </trkpt>
      <trkpt lat="44.13553" lon="5.87344">
        <ele>1021</ele>
        <time>2021-06-01T13:11:26.316Z</time>
      </trkpt>
      <trkpt lat="44.13553" lon="5.87346">
        <ele>1021</ele>
        <time>2021-06-01T13:11:27.316Z</time>
      </trkpt>
      <trkpt lat="44.13554" lon="5.87346">
        <ele>1020</ele>
        <time>2021-06-01T13:11:28.316Z</time>
      </trkpt>
      <trkpt lat="44.13554" lon="5.87347">
        <ele>1020</ele>
        <time>2021-06-01T13:11:29.316Z</time>
      </trkpt>
      <trkpt lat="44.13554" lon="5.87348">
        <ele>1020</ele>
        <time>2021-06-01T13:11:30.316Z</time>
      </trkpt>
      <trkpt lat="44.13555" lon="5.87348">
        <ele>1019</ele>
        <time>2021-06-01T13:11:31.316Z</time>
      </trkpt>
      <trkpt lat="44.13555" lon="5.87349">
        <ele>1019</ele>
        <time>2021-06-01T13:11:32.316Z</time>
      </trkpt>
      <trkpt lat="44.13556" lon="5.87349">
        <ele>1019</ele>
        <time>2021-06-01T13:11:33.316Z</time>
      </trkpt>
      <trkpt lat="44.13556" lon="5.8735">
        <ele>1019</ele>
        <time>2021-06-01T13:11:34.316Z</time>
      </trkpt>
      <trkpt lat="44.13557" lon="5.8735">
        <ele>1018</ele>
        <time>2021-06-01T13:11:35.316Z</time>
      </trkpt>
      <trkpt lat="44.13558" lon="5.8735">
        <ele>1018</ele>
        <time>2021-06-01T13:11:36.316Z</time>
      </trkpt>
      <trkpt lat="44.13558" lon="5.87349">
        <ele>1018</ele>
        <time>2021-06-01T13:42:57.131Z</time>
      </trkpt>
      <trkpt lat="44.13559" lon="5.87349">
        <ele>1018</ele>
        <time>2021-06-01T13:42:58.131Z</time>
      </trkpt>
      <trkpt lat="44.13559" lon="5.87349">
        <ele>1018</ele>
        <time>2021-06-01T13:42:59.131Z</time>
      </trkpt>
      <trkpt lat="44.1356" lon="5.87349">
        <ele>1017</ele>
        <time>2021-06-01T13:43:00.131Z</time>
      </trkpt>
      <trkpt lat="44.13561" lon="5.8735">
        <ele>1017</ele>
        <time>2021-06-01T13:43:01.131Z</time>
      </trkpt>
      <trkpt lat="44.13562" lon="5.8735">
        <ele>1017</ele>
        <time>2021-06-01T13:43:02.131Z</time>
      </trkpt>
      <trkpt lat="44.13563" lon="5.87351">
        <ele>1017</ele>
        <time>2021-06-01T13:43:03.131Z</time>
      </trkpt>
      <trkpt lat="44.13563" lon="5.87352">
        <ele>1017</ele>
        <time>2021-06-01T13:43:04.131Z</time>
      </trkpt>
      <trkpt lat="44.13563" lon="5.87353">
        <ele>1017</ele>
        <time>2021-06-01T13:43:05.131Z</time>
      </trkpt>
      <trkpt lat="44.13563" lon="5.87354">
        <ele>1016</ele>
        <time>2021-06-01T13:43:06.131Z</time>
      </trkpt>
      <trkpt lat="44.13563" lon="5.87355">
        <ele>1016</ele>
        <time>2021-06-01T13:43:07.131Z</time>
      </trkpt>
      <trkpt lat="44.13563" lon="5.87356">
        <ele>1016</ele>
        <time>2021-06-01T13:43:08.131Z</time>
      </trkpt>
      <trkpt lat="44.13563" lon="5.87357">
        <ele>1016</ele>
        <time>2021-06-01T13:43:09.131Z</time>
      </trkpt>
      <trkpt lat="44.13563" lon="5.87358">
        <ele>1015</ele>
        <time>2021-06-01T13:43:10.131Z</time>
      </trkpt>
      <trkpt lat="44.13563" lon="5.87359">
        <ele>1015</ele>
        <time>2021-06-01T13:43:11.131Z</time>
      </trkpt>
      <trkpt lat="44.13563" lon="5.87361">
        <ele>1015</ele>
        <time>2021-06-01T13:43:12.131Z</time>
      </trkpt>
      <trkpt lat="44.13563" lon="5.87362">
        <ele>1015</ele>
        <time>2021-06-01T13:43:13.131Z</time>
      </trkpt>
      <trkpt lat="44.13563" lon="5.87364">
        <ele>1014</ele>
        <time>2021-06-01T13:43:14.131Z</time>
      </trkpt>
      <trkpt lat="44.13563" lon="5.87365">
        <ele>1014</ele>
        <time>2021-06-01T13:43:15.131Z</time>
      </trkpt>
      <trkpt lat="44.13563" lon="5.87365">
        <ele>1014</ele>
        <time>2021-06-01T13:43:16.131Z</time>
      </trkpt>
      <trkpt lat="44.13563" lon="5.87366">
        <ele>1014</ele>
        <time>2021-06-01T13:43:17.131Z</time>
      </trkpt>
      <trkpt lat="44.13562" lon="5.87367">
        <ele>1014</ele>
        <time>2021-06-01T13:43:18.131Z</time>
      </trkpt>
      <trkpt lat="44.13562" lon="5.87368">
        <ele>1013</ele>
        <time>2021-06-01T13:43:19.131Z</time>
      </trkpt>
      <trkpt lat="44.13562" lon="5.87369">
        <ele>1013</ele>
        <time>2021-06-01T13:43:20.131Z</time>
      </trkpt>
      <trkpt lat="44.13561" lon="5.8737">
        <ele>1013</ele>
        <time>2021-06-01T13:43:21.131Z</time>
      </trkpt>
      <trkpt lat="44.13561" lon="5.8737">
        <ele>1013</ele>
        <time>2021-06-01T13:43:22.131Z</time>
      </trkpt>
      <trkpt lat="44.13561" lon="5.87371">
        <ele>1013</ele>
        <time>2021-06-01T13:43:23.131Z</time>
      </trkpt>
      <trkpt lat="44.13561" lon="5.87372">
        <ele>1012</ele>
        <time>2021-06-01T13:43:24.131Z</time>
      </trkpt>
      <trkpt lat="44.13561" lon="5.87373">
        <ele>1012</ele>
        <time>2021-06-01T13:43:25.131Z</time>
      </trkpt>
      <trkpt lat="44.13561" lon="5.87374">
        <ele>1012</ele>
        <time>2021-06-01T13:43:26.131Z</time>
      </trkpt>
      <trkpt lat="44.13561" lon="5.87375">
        <ele>1011</ele>
        <time>2021-06-01T13:43:27.131Z</time>
      </trkpt>
      <trkpt lat="44.13561" lon="5.87376">
        <ele>1011</ele>
        <time>2021-06-01T13:43:28.131Z</time>
      </trkpt>
      <trkpt lat="44.13561" lon="5.87377">
        <ele>1011</ele>
        <time>2021-06-01T13:43:29.131Z</time>
      </trkpt>
      <trkpt lat="44.13561" lon="5.87378">
        <ele>1010</ele>
        <time>2021-06-01T13:43:30.131Z</time>
      </trkpt>
      <trkpt lat="44.13561" lon="5.87378">
        <ele>1010</ele>
        <time>2021-06-01T13:43:31.131Z</time>
      </trkpt>
      <trkpt lat="44.13562" lon="5.87379">
        <ele>1010</ele>
        <time>2021-06-01T13:43:32.131Z</time>
      </trkpt>
      <trkpt lat="44.13562" lon="5.87379">
        <ele>1010</ele>
        <time>2021-06-01T13:43:33.131Z</time>
      </trkpt>
      <trkpt lat="44.13562" lon="5.8738">
        <ele>1010</ele>
        <time>2021-06-01T13:43:34.131Z</time>
      </trkpt>
      <trkpt lat="44.13563" lon="5.8738">
        <ele>1009</ele>
        <time>2021-06-01T13:43:35.131Z</time>
      </trkpt>
      <trkpt lat="44.13563" lon="5.87381">
        <ele>1009</ele>
        <time>2021-06-01T13:43:36.131Z</time>
      </trkpt>
      <trkpt lat="44.13563" lon="5.87382">
        <ele>1009</ele>
        <time>2021-06-01T13:43:37.131Z</time>
      </trkpt>
      <trkpt lat="44.13563" lon="5.87383">
        <ele>1009</ele>
        <time>2021-06-01T13:43:38.131Z</time>
      </trkpt>
      <trkpt lat="44.13563" lon="5.87384">
        <ele>1009</ele>
        <time>2021-06-01T13:43:39.131Z</time>
      </trkpt>
      <trkpt lat="44.13563" lon="5.87385">
        <ele>1008</ele>
        <time>2021-06-01T13:43:40.131Z</time>
      </trkpt>
      <trkpt lat="44.13563" lon="5.87385">
        <ele>1008</ele>
        <time>2021-06-01T13:43:41.131Z</time>
      </trkpt>
      <trkpt lat="44.13564" lon="5.87384">
        <ele>1008</ele>
        <time>2021-06-01T13:43:42.131Z</time>
      </trkpt>
      <trkpt lat="44.13564" lon="5.87384">
        <ele>1008</ele>
        <time>2021-06-01T13:43:43.131Z</time>
      </trkpt>
      <trkpt lat="44.13565" lon="5.87384">
        <ele>1008</ele>
        <time>2021-06-01T13:43:44.131Z</time>
      </trkpt>
      <trkpt lat="44.13566" lon="5.87384">
        <ele>1008</ele>
        <time>2021-06-01T13:43:45.131Z</time>
      </trkpt>
      <trkpt lat="44.13567" lon="5.87385">
        <ele>1008</ele>
        <time>2021-06-01T13:43:46.131Z</time>
      </trkpt>
      <trkpt lat="44.13568" lon="5.87386">
        <ele>1007</ele>
        <time>2021-06-01T13:43:47.131Z</time>
      </trkpt>
      <trkpt lat="44.13568" lon="5.87387">
        <ele>1007</ele>
        <time>2021-06-01T13:43:48.131Z</time>
      </trkpt>
      <trkpt lat="44.13569" lon="5.87388">
        <ele>1007</ele>
        <time>2021-06-01T13:43:49.131Z</time>
      </trkpt>
      <trkpt lat="44.13569" lon="5.87389">
        <ele>1007</ele>
        <time>2021-06-01T13:43:50.131Z</time>
      </trkpt>
      <trkpt lat="44.13568" lon="5.8739">
        <ele>1006</ele>
        <time>2021-06-01T13:43:51.131Z</time>
      </trkpt>
      <trkpt lat="44.13568" lon="5.87391">
        <ele>1006</ele>
        <time>2021-06-01T13:43:52.131Z</time>
      </trkpt>
      <trkpt lat="44.13569" lon="5.87392">
        <ele>1006</ele>
        <time>2021-06-01T13:43:53.131Z</time>
      </trkpt>
      <trkpt lat="44.13569" lon="5.87392">
        <ele>1006</ele>
        <time>2021-06-01T13:43:54.131Z</time>
      </trkpt>
      <trkpt lat="44.13569" lon="5.87392">
        <ele>1005</ele>
        <time>2021-06-01T13:43:55.131Z</time>
      </trkpt>
      <trkpt lat="44.13569" lon="5.87392">
        <ele>1005</ele>
        <time>2021-06-01T13:43:56.131Z</time>
      </trkpt>
      <trkpt lat="44.1357" lon="5.87391">
        <ele>1005</ele>
        <time>2021-06-01T13:43:57.131Z</time>
      </trkpt>
      <trkpt lat="44.1357" lon="5.87391">
        <ele>1005</ele>
        <time>2021-06-01T13:43:58.131Z</time>
      </trkpt>
      <trkpt lat="44.1357" lon="5.8739">
        <ele>1005</ele>
        <time>2021-06-01T13:43:59.131Z</time>
      </trkpt>
      <trkpt lat="44.13571" lon="5.87389">
        <ele>1004</ele>
        <time>2021-06-01T13:44:00.131Z</time>
      </trkpt>
      <trkpt lat="44.13571" lon="5.87389">
        <ele>1004</ele>
        <time>2021-06-01T13:44:01.131Z</time>
      </trkpt>
      <trkpt lat="44.13572" lon="5.87389">
        <ele>1004</ele>
        <time>2021-06-01T13:44:02.131Z</time>
      </trkpt>
      <trkpt lat="44.13572" lon="5.87389">
        <ele>1004</ele>
        <time>2021-06-01T13:44:03.131Z</time>
      </trkpt>
      <trkpt lat="44.13572" lon="5.87389">
        <ele>1004</ele>
        <time>2021-06-01T13:44:04.131Z</time>
      </trkpt>
      <trkpt lat="44.13572" lon="5.87389">
        <ele>1004</ele>
        <time>2021-06-01T13:44:05.131Z</time>
      </trkpt>
      <trkpt lat="44.13573" lon="5.87389">
        <ele>1004</ele>
        <time>2021-06-01T13:44:06.131Z</time>
      </trkpt>
      <trkpt lat="44.13573" lon="5.87388">
        <ele>1004</ele>
        <time>2021-06-01T13:44:07.131Z</time>
      </trkpt>
      <trkpt lat="44.13574" lon="5.87388">
        <ele>1003</ele>
        <time>2021-06-01T13:44:08.131Z</time>
      </trkpt>
      <trkpt lat="44.13574" lon="5.87387">
        <ele>1003</ele>
        <time>2021-06-01T13:44:09.131Z</time>
      </trkpt>
      <trkpt lat="44.13575" lon="5.87386">
        <ele>1003</ele>
        <time>2021-06-01T13:44:10.131Z</time>
      </trkpt>
      <trkpt lat="44.13576" lon="5.87386">
        <ele>1003</ele>
        <time>2021-06-01T13:44:11.131Z</time>
      </trkpt>
      <trkpt lat="44.13576" lon="5.87386">
        <ele>1003</ele>
        <time>2021-06-01T13:44:12.131Z</time>
      </trkpt>
      <trkpt lat="44.13577" lon="5.87385">
        <ele>1003</ele>
        <time>2021-06-01T13:44:13.131Z</time>
      </trkpt>
      <trkpt lat="44.13577" lon="5.87385">
        <ele>1003</ele>
        <time>2021-06-01T13:44:14.131Z</time>
      </trkpt>
      <trkpt lat="44.13578" lon="5.87384">
        <ele>1003</ele>
        <time>2021-06-01T13:44:15.131Z</time>
      </trkpt>
      <trkpt lat="44.13578" lon="5.87384">
        <ele>1003</ele>
        <time>2021-06-01T13:44:16.131Z</time>
      </trkpt>
      <trkpt lat="44.13579" lon="5.87383">
        <ele>1003</ele>
        <time>2021-06-01T13:44:17.131Z</time>
      </trkpt>
      <trkpt lat="44.1358" lon="5.87382">
        <ele>1003</ele>
        <time>2021-06-01T13:44:18.131Z</time>
      </trkpt>
      <trkpt lat="44.1358" lon="5.87381">
        <ele>1002</ele>
        <time>2021-06-01T13:44:19.131Z</time>
      </trkpt>
      <trkpt lat="44.13581" lon="5.8738">
        <ele>1002</ele>
        <time>2021-06-01T13:44:20.131Z</time>
      </trkpt>
      <trkpt lat="44.13582" lon="5.87379">
        <ele>1002</ele>
        <time>2021-06-01T13:44:21.131Z</time>
      </trkpt>
      <trkpt lat="44.13582" lon="5.87379">
        <ele>1002</ele>
        <time>2021-06-01T13:44:22.131Z</time>
      </trkpt>
      <trkpt lat="44.13583" lon="5.87378">
        <ele>1002</ele>
        <time>2021-06-01T13:44:23.131Z</time>
      </trkpt>
      <trkpt lat="44.13584" lon="5.87377">
        <ele>1002</ele>
        <time>2021-06-01T13:44:24.131Z</time>
      </trkpt>
      <trkpt lat="44.13585" lon="5.87377">
        <ele>1001</ele>
        <time>2021-06-01T13:44:25.131Z</time>
      </trkpt>
      <trkpt lat="44.13585" lon="5.87376">
        <ele>1001</ele>
        <time>2021-06-01T13:44:26.131Z</time>
      </trkpt>
      <trkpt lat="44.13586" lon="5.87376">
        <ele>1001</ele>
        <time>2021-06-01T13:44:27.131Z</time>
      </trkpt>
      <trkpt lat="44.13586" lon="5.87375">
        <ele>1001</ele>
        <time>2021-06-01T13:44:28.131Z</time>
      </trkpt>
      <trkpt lat="44.13587" lon="5.87374">
        <ele>1001</ele>
        <time>2021-06-01T13:44:29.131Z</time>
      </trkpt>
      <trkpt lat="44.13587" lon="5.87373">
        <ele>1001</ele>
        <time>2021-06-01T13:44:30.131Z</time>
      </trkpt>
      <trkpt lat="44.13588" lon="5.87372">
        <ele>1001</ele>
        <time>2021-06-01T13:44:31.131Z</time>
      </trkpt>
      <trkpt lat="44.13589" lon="5.87371">
        <ele>1001</ele>
        <time>2021-06-01T13:44:32.131Z</time>
      </trkpt>
      <trkpt lat="44.13589" lon="5.8737">
        <ele>1000</ele>
        <time>2021-06-01T13:44:33.131Z</time>
      </trkpt>
      <trkpt lat="44.1359" lon="5.8737">
        <ele>1000</ele>
        <time>2021-06-01T13:44:34.131Z</time>
      </trkpt>
      <trkpt lat="44.1359" lon="5.87371">
        <ele>1000</ele>
        <time>2021-06-01T13:44:35.131Z</time>
      </trkpt>
      <trkpt lat="44.1359" lon="5.87371">
        <ele>1000</ele>
        <time>2021-06-01T13:44:36.131Z</time>
      </trkpt>
      <trkpt lat="44.1359" lon="5.87372">
        <ele>1000</ele>
        <time>2021-06-01T13:44:37.131Z</time>
      </trkpt>
      <trkpt lat="44.13591" lon="5.87372">
        <ele>1000</ele>
        <time>2021-06-01T13:44:38.131Z</time>
      </trkpt>
      <trkpt lat="44.13591" lon="5.87372">
        <ele>1000</ele>
        <time>2021-06-01T13:44:39.131Z</time>
      </trkpt>
      <trkpt lat="44.13592" lon="5.87372">
        <ele>1000</ele>
        <time>2021-06-01T13:44:40.131Z</time>
      </trkpt>
      <trkpt lat="44.13592" lon="5.87372">
        <ele>1000</ele>
        <time>2021-06-01T13:44:41.131Z</time>
      </trkpt>
      <trkpt lat="44.13593" lon="5.87371">
        <ele>1000</ele>
        <time>2021-06-01T13:44:42.131Z</time>
      </trkpt>
      <trkpt lat="44.13593" lon="5.87371">
        <ele>1000</ele>
        <time>2021-06-01T13:44:43.131Z</time>
      </trkpt>
      <trkpt lat="44.13593" lon="5.87371">
        <ele>999</ele>
        <time>2021-06-01T13:44:44.131Z</time>
      </trkpt>
      <trkpt lat="44.13594" lon="5.87371">
        <ele>999</ele>
        <time>2021-06-01T13:44:45.131Z</time>
      </trkpt>
      <trkpt lat="44.13594" lon="5.8737">
        <ele>999</ele>
        <time>2021-06-01T13:44:46.131Z</time>
      </trkpt>
      <trkpt lat="44.13594" lon="5.8737">
        <ele>999</ele>
        <time>2021-06-01T13:44:47.131Z</time>
      </trkpt>
      <trkpt lat="44.13595" lon="5.87369">
        <ele>999</ele>
        <time>2021-06-01T13:44:48.131Z</time>
      </trkpt>
      <trkpt lat="44.13595" lon="5.87369">
        <ele>999</ele>
        <time>2021-06-01T13:44:49.131Z</time>
      </trkpt>
      <trkpt lat="44.13595" lon="5.87369">
        <ele>999</ele>
        <time>2021-06-01T13:44:50.131Z</time>
      </trkpt>
      <trkpt lat="44.13595" lon="5.87368">
        <ele>999</ele>
        <time>2021-06-01T13:44:51.131Z</time>
      </trkpt>
      <trkpt lat="44.13595" lon="5.87367">
        <ele>999</ele>
        <time>2021-06-01T13:44:52.131Z</time>
      </trkpt>
      <trkpt lat="44.13596" lon="5.87367">
        <ele>999</ele>
        <time>2021-06-01T13:44:53.131Z</time>
      </trkpt>
      <trkpt lat="44.13596" lon="5.87367">
        <ele>999</ele>
        <time>2021-06-01T13:44:54.131Z</time>
      </trkpt>
      <trkpt lat="44.13597" lon="5.87366">
        <ele>999</ele>
        <time>2021-06-01T13:44:55.131Z</time>
      </trkpt>
      <trkpt lat="44.13597" lon="5.87366">
        <ele>999</ele>
        <time>2021-06-01T13:44:56.131Z</time>
      </trkpt>
      <trkpt lat="44.13598" lon="5.87366">
        <ele>999</ele>
        <time>2021-06-01T13:44:57.131Z</time>
      </trkpt>
      <trkpt lat="44.13598" lon="5.87366">
        <ele>998</ele>
        <time>2021-06-01T13:44:58.131Z</time>
      </trkpt>
      <trkpt lat="44.13599" lon="5.87366">
        <ele>998</ele>
        <time>2021-06-01T13:44:59.131Z</time>
      </trkpt>
      <trkpt lat="44.136" lon="5.87366">
        <ele>998</ele>
        <time>2021-06-01T13:45:00.131Z</time>
      </trkpt>
      <trkpt lat="44.136" lon="5.87366">
        <ele>998</ele>
        <time>2021-06-01T13:45:01.131Z</time>
      </trkpt>
      <trkpt lat="44.13601" lon="5.87366">
        <ele>998</ele>
        <time>2021-06-01T13:45:02.131Z</time>
      </trkpt>
      <trkpt lat="44.13601" lon="5.87366">
        <ele>998</ele>
        <time>2021-06-01T13:45:03.131Z</time>
      </trkpt>
      <trkpt lat="44.13602" lon="5.87366">
        <ele>998</ele>
        <time>2021-06-01T13:45:04.131Z</time>
      </trkpt>
      <trkpt lat="44.13602" lon="5.87367">
        <ele>998</ele>
        <time>2021-06-01T13:45:05.131Z</time>
      </trkpt>
      <trkpt lat="44.13602" lon="5.87368">
        <ele>997</ele>
        <time>2021-06-01T13:45:06.131Z</time>
      </trkpt>
      <trkpt lat="44.13602" lon="5.87369">
        <ele>997</ele>
        <time>2021-06-01T13:45:07.131Z</time>
      </trkpt>
      <trkpt lat="44.13602" lon="5.8737">
        <ele>997</ele>
        <time>2021-06-01T13:45:08.131Z</time>
      </trkpt>
      <trkpt lat="44.13603" lon="5.87371">
        <ele>996</ele>
        <time>2021-06-01T13:45:09.131Z</time>
      </trkpt>
      <trkpt lat="44.13603" lon="5.87371">
        <ele>996</ele>
        <time>2021-06-01T13:45:10.131Z</time>
      </trkpt>
      <trkpt lat="44.13603" lon="5.87372">
        <ele>995</ele>
        <time>2021-06-01T13:45:11.131Z</time>
      </trkpt>
      <trkpt lat="44.13603" lon="5.87373">
        <ele>995</ele>
        <time>2021-06-01T13:45:12.131Z</time>
      </trkpt>
      <trkpt lat="44.13603" lon="5.87373">
        <ele>995</ele>
        <time>2021-06-01T13:45:13.131Z</time>
      </trkpt>
      <trkpt lat="44.13604" lon="5.87372">
        <ele>995</ele>
        <time>2021-06-01T13:45:14.131Z</time>
      </trkpt>
      <trkpt lat="44.13604" lon="5.87371">
        <ele>994</ele>
        <time>2021-06-01T13:45:15.131Z</time>
      </trkpt>
      <trkpt lat="44.13605" lon="5.87371">
        <ele>994</ele>
        <time>2021-06-01T13:45:16.131Z</time>
      </trkpt>
      <trkpt lat="44.13605" lon="5.8737">
        <ele>994</ele>
        <time>2021-06-01T13:45:17.131Z</time>
      </trkpt>
      <trkpt lat="44.13606" lon="5.87369">
        <ele>994</ele>
        <time>2021-06-01T13:45:18.131Z</time>
      </trkpt>
      <trkpt lat="44.13606" lon="5.87368">
        <ele>994</ele>
        <time>2021-06-01T13:45:19.131Z</time>
      </trkpt>
      <trkpt lat="44.13607" lon="5.87367">
        <ele>993</ele>
        <time>2021-06-01T13:45:20.131Z</time>
      </trkpt>
      <trkpt lat="44.13607" lon="5.87366">
        <ele>993</ele>
        <time>2021-06-01T13:45:21.131Z</time>
      </trkpt>
      <trkpt lat="44.13608" lon="5.87364">
        <ele>993</ele>
        <time>2021-06-01T13:45:22.131Z</time>
      </trkpt>
      <trkpt lat="44.13608" lon="5.87363">
        <ele>992</ele>
        <time>2021-06-01T13:45:23.131Z</time>
      </trkpt>
      <trkpt lat="44.13609" lon="5.87363">
        <ele>992</ele>
        <time>2021-06-01T13:45:24.131Z</time>
      </trkpt>
      <trkpt lat="44.13609" lon="5.87362">
        <ele>992</ele>
        <time>2021-06-01T13:45:25.131Z</time>
      </trkpt>
      <trkpt lat="44.1361" lon="5.8736">
        <ele>992</ele>
        <time>2021-06-01T13:45:26.131Z</time>
      </trkpt>
      <trkpt lat="44.13611" lon="5.87359">
        <ele>992</ele>
        <time>2021-06-01T13:45:27.131Z</time>
      </trkpt>
      <trkpt lat="44.13612" lon="5.87358">
        <ele>991</ele>
        <time>2021-06-01T13:45:28.131Z</time>
      </trkpt>
      <trkpt lat="44.13613" lon="5.87358">
        <ele>991</ele>
        <time>2021-06-01T13:45:29.131Z</time>
      </trkpt>
      <trkpt lat="44.13614" lon="5.87357">
        <ele>991</ele>
        <time>2021-06-01T13:45:30.131Z</time>
      </trkpt>
      <trkpt lat="44.13614" lon="5.87358">
        <ele>991</ele>
        <time>2021-06-01T13:45:31.131Z</time>
      </trkpt>
      <trkpt lat="44.13614" lon="5.87358">
        <ele>991</ele>
        <time>2021-06-01T13:45:32.131Z</time>
      </trkpt>
      <trkpt lat="44.13614" lon="5.87359">
        <ele>991</ele>
        <time>2021-06-01T13:45:33.131Z</time>
      </trkpt>
      <trkpt lat="44.13614" lon="5.87359">
        <ele>990</ele>
        <time>2021-06-01T13:45:34.131Z</time>
      </trkpt>
      <trkpt lat="44.13614" lon="5.8736">
        <ele>990</ele>
        <time>2021-06-01T13:45:35.131Z</time>
      </trkpt>
      <trkpt lat="44.13614" lon="5.87361">
        <ele>990</ele>
        <time>2021-06-01T13:45:36.131Z</time>
      </trkpt>
      <trkpt lat="44.13614" lon="5.87361">
        <ele>990</ele>
        <time>2021-06-01T13:45:37.131Z</time>
      </trkpt>
      <trkpt lat="44.13614" lon="5.87362">
        <ele>989</ele>
        <time>2021-06-01T13:45:38.131Z</time>
      </trkpt>
      <trkpt lat="44.13615" lon="5.87362">
        <ele>989</ele>
        <time>2021-06-01T13:45:39.131Z</time>
      </trkpt>
      <trkpt lat="44.13615" lon="5.87362">
        <ele>989</ele>
        <time>2021-06-01T13:45:40.131Z</time>
      </trkpt>
      <trkpt lat="44.13615" lon="5.87362">
        <ele>989</ele>
        <time>2021-06-01T13:45:41.131Z</time>
      </trkpt>
      <trkpt lat="44.13615" lon="5.87362">
        <ele>989</ele>
        <time>2021-06-01T13:45:42.131Z</time>
      </trkpt>
      <trkpt lat="44.13616" lon="5.87362">
        <ele>988</ele>
        <time>2021-06-01T13:45:43.131Z</time>
      </trkpt>
      <trkpt lat="44.13616" lon="5.87361">
        <ele>988</ele>
        <time>2021-06-01T13:45:44.131Z</time>
      </trkpt>
      <trkpt lat="44.13617" lon="5.87361">
        <ele>988</ele>
        <time>2021-06-01T13:45:45.131Z</time>
      </trkpt>
      <trkpt lat="44.13617" lon="5.8736">
        <ele>988</ele>
        <time>2021-06-01T13:45:46.131Z</time>
      </trkpt>
      <trkpt lat="44.13618" lon="5.87359">
        <ele>988</ele>
        <time>2021-06-01T13:45:47.131Z</time>
      </trkpt>
      <trkpt lat="44.13619" lon="5.87359">
        <ele>988</ele>
        <time>2021-06-01T13:45:48.131Z</time>
      </trkpt>
      <trkpt lat="44.1362" lon="5.87358">
        <ele>987</ele>
        <time>2021-06-01T13:45:49.131Z</time>
      </trkpt>
      <trkpt lat="44.13621" lon="5.87357">
        <ele>987</ele>
        <time>2021-06-01T13:45:50.131Z</time>
      </trkpt>
      <trkpt lat="44.13622" lon="5.87357">
        <ele>987</ele>
        <time>2021-06-01T13:45:51.131Z</time>
      </trkpt>
      <trkpt lat="44.13623" lon="5.87356">
        <ele>987</ele>
        <time>2021-06-01T13:45:52.131Z</time>
      </trkpt>
      <trkpt lat="44.13623" lon="5.87355">
        <ele>987</ele>
        <time>2021-06-01T13:45:53.131Z</time>
      </trkpt>
      <trkpt lat="44.13624" lon="5.87354">
        <ele>987</ele>
        <time>2021-06-01T13:45:54.131Z</time>
      </trkpt>
      <trkpt lat="44.13625" lon="5.87354">
        <ele>987</ele>
        <time>2021-06-01T13:45:55.131Z</time>
      </trkpt>
      <trkpt lat="44.13625" lon="5.87353">
        <ele>987</ele>
        <time>2021-06-01T13:45:56.131Z</time>
      </trkpt>
      <trkpt lat="44.13626" lon="5.87352">
        <ele>987</ele>
        <time>2021-06-01T13:45:57.131Z</time>
      </trkpt>
      <trkpt lat="44.13627" lon="5.87351">
        <ele>986</ele>
        <time>2021-06-01T13:45:58.131Z</time>
      </trkpt>
      <trkpt lat="44.13628" lon="5.87351">
        <ele>986</ele>
        <time>2021-06-01T13:45:59.131Z</time>
      </trkpt>
      <trkpt lat="44.13628" lon="5.8735">
        <ele>986</ele>
        <time>2021-06-01T13:46:00.131Z</time>
      </trkpt>
      <trkpt lat="44.13629" lon="5.87349">
        <ele>986</ele>
        <time>2021-06-01T13:46:01.131Z</time>
      </trkpt>
      <trkpt lat="44.1363" lon="5.87348">
        <ele>986</ele>
        <time>2021-06-01T13:46:02.131Z</time>
      </trkpt>
      <trkpt lat="44.13631" lon="5.87348">
        <ele>986</ele>
        <time>2021-06-01T13:46:03.131Z</time>
      </trkpt>
      <trkpt lat="44.13632" lon="5.87347">
        <ele>986</ele>
        <time>2021-06-01T13:46:04.131Z</time>
      </trkpt>
      <trkpt lat="44.13633" lon="5.87346">
        <ele>986</ele>
        <time>2021-06-01T13:46:05.131Z</time>
      </trkpt>
      <trkpt lat="44.13634" lon="5.87345">
        <ele>986</ele>
        <time>2021-06-01T13:46:06.131Z</time>
      </trkpt>
      <trkpt lat="44.13634" lon="5.87344">
        <ele>986</ele>
        <time>2021-06-01T13:46:07.131Z</time>
      </trkpt>
      <trkpt lat="44.13635" lon="5.87343">
        <ele>986</ele>
        <time>2021-06-01T13:46:08.131Z</time>
      </trkpt>
      <trkpt lat="44.13636" lon="5.87343">
        <ele>985</ele>
        <time>2021-06-01T13:46:09.131Z</time>
      </trkpt>
      <trkpt lat="44.13637" lon="5.87343">
        <ele>985</ele>
        <time>2021-06-01T13:46:10.131Z</time>
      </trkpt>
      <trkpt lat="44.13637" lon="5.87342">
        <ele>985</ele>
        <time>2021-06-01T13:46:11.131Z</time>
      </trkpt>
      <trkpt lat="44.13638" lon="5.87342">
        <ele>985</ele>
        <time>2021-06-01T13:46:12.131Z</time>
      </trkpt>
      <trkpt lat="44.13638" lon="5.87341">
        <ele>985</ele>
        <time>2021-06-01T13:46:13.131Z</time>
      </trkpt>
      <trkpt lat="44.13639" lon="5.87341">
        <ele>985</ele>
        <time>2021-06-01T13:46:14.131Z</time>
      </trkpt>
      <trkpt lat="44.1364" lon="5.8734">
        <ele>985</ele>
        <time>2021-06-01T13:46:15.131Z</time>
      </trkpt>
      <trkpt lat="44.1364" lon="5.87339">
        <ele>985</ele>
        <time>2021-06-01T13:46:16.131Z</time>
      </trkpt>
      <trkpt lat="44.13641" lon="5.87337">
        <ele>984</ele>
        <time>2021-06-01T13:46:17.131Z</time>
      </trkpt>
      <trkpt lat="44.13642" lon="5.87336">
        <ele>984</ele>
        <time>2021-06-01T13:46:18.131Z</time>
      </trkpt>
      <trkpt lat="44.13642" lon="5.87336">
        <ele>984</ele>
        <time>2021-06-01T13:46:19.131Z</time>
      </trkpt>
      <trkpt lat="44.13643" lon="5.87335">
        <ele>984</ele>
        <time>2021-06-01T13:46:20.131Z</time>
      </trkpt>
      <trkpt lat="44.13643" lon="5.87335">
        <ele>984</ele>
        <time>2021-06-01T13:46:21.131Z</time>
      </trkpt>
      <trkpt lat="44.13644" lon="5.87334">
        <ele>984</ele>
        <time>2021-06-01T13:46:22.131Z</time>
      </trkpt>
      <trkpt lat="44.13645" lon="5.87334">
        <ele>984</ele>
        <time>2021-06-01T13:46:23.131Z</time>
      </trkpt>
      <trkpt lat="44.13645" lon="5.87333">
        <ele>984</ele>
        <time>2021-06-01T13:46:24.131Z</time>
      </trkpt>
      <trkpt lat="44.13646" lon="5.87332">
        <ele>984</ele>
        <time>2021-06-01T13:46:25.131Z</time>
      </trkpt>
      <trkpt lat="44.13646" lon="5.87332">
        <ele>984</ele>
        <time>2021-06-01T13:46:26.131Z</time>
      </trkpt>
      <trkpt lat="44.13646" lon="5.87331">
        <ele>983</ele>
        <time>2021-06-01T13:46:27.131Z</time>
      </trkpt>
      <trkpt lat="44.13647" lon="5.87331">
        <ele>983</ele>
        <time>2021-06-01T13:46:28.131Z</time>
      </trkpt>
      <trkpt lat="44.13647" lon="5.8733">
        <ele>983</ele>
        <time>2021-06-01T13:46:29.131Z</time>
      </trkpt>
      <trkpt lat="44.13647" lon="5.87329">
        <ele>983</ele>
        <time>2021-06-01T13:46:30.131Z</time>
      </trkpt>
      <trkpt lat="44.13647" lon="5.87329">
        <ele>982</ele>
        <time>2021-06-01T13:46:31.131Z</time>
      </trkpt>
      <trkpt lat="44.13648" lon="5.87329">
        <ele>981</ele>
        <time>2021-06-01T13:46:32.131Z</time>
      </trkpt>
      <trkpt lat="44.13648" lon="5.87329">
        <ele>981</ele>
        <time>2021-06-01T13:46:33.131Z</time>
      </trkpt>
      <trkpt lat="44.13648" lon="5.87328">
        <ele>980</ele>
        <time>2021-06-01T13:46:34.131Z</time>
      </trkpt>
      <trkpt lat="44.13648" lon="5.87328">
        <ele>979</ele>
        <time>2021-06-01T13:46:35.131Z</time>
      </trkpt>
      <trkpt lat="44.13648" lon="5.87328">
        <ele>978</ele>
        <time>2021-06-01T13:46:36.131Z</time>
      </trkpt>
      <trkpt lat="44.13648" lon="5.87328">
        <ele>978</ele>
        <time>2021-06-01T13:46:37.131Z</time>
      </trkpt>
      <trkpt lat="44.13647" lon="5.87329">
        <ele>977</ele>
        <time>2021-06-01T13:46:38.131Z</time>
      </trkpt>
      <trkpt lat="44.13647" lon="5.8733">
        <ele>976</ele>
        <time>2021-06-01T13:46:39.131Z</time>
      </trkpt>
      <trkpt lat="44.13647" lon="5.87331">
        <ele>976</ele>
        <time>2021-06-01T13:46:40.131Z</time>
      </trkpt>
      <trkpt lat="44.13646" lon="5.87331">
        <ele>975</ele>
        <time>2021-06-01T13:46:41.131Z</time>
      </trkpt>
      <trkpt lat="44.13646" lon="5.87332">
        <ele>974</ele>
        <time>2021-06-01T13:46:42.131Z</time>
      </trkpt>
      <trkpt lat="44.13645" lon="5.87333">
        <ele>974</ele>
        <time>2021-06-01T13:46:43.131Z</time>
      </trkpt>
      <trkpt lat="44.13644" lon="5.87334">
        <ele>973</ele>
        <time>2021-06-01T13:46:44.131Z</time>
      </trkpt>
      <trkpt lat="44.13644" lon="5.87334">
        <ele>973</ele>
        <time>2021-06-01T13:46:45.131Z</time>
      </trkpt>
      <trkpt lat="44.13644" lon="5.87335">
        <ele>972</ele>
        <time>2021-06-01T13:46:46.131Z</time>
      </trkpt>
      <trkpt lat="44.13644" lon="5.87335">
        <ele>972</ele>
        <time>2021-06-01T13:46:47.131Z</time>
      </trkpt>
      <trkpt lat="44.13645" lon="5.87335">
        <ele>971</ele>
        <time>2021-06-01T13:46:48.131Z</time>
      </trkpt>
      <trkpt lat="44.13645" lon="5.87335">
        <ele>971</ele>
        <time>2021-06-01T13:46:49.131Z</time>
      </trkpt>
      <trkpt lat="44.13646" lon="5.87335">
        <ele>970</ele>
        <time>2021-06-01T13:46:50.131Z</time>
      </trkpt>
      <trkpt lat="44.13646" lon="5.87335">
        <ele>970</ele>
        <time>2021-06-01T13:46:51.131Z</time>
      </trkpt>
      <trkpt lat="44.13647" lon="5.87334">
        <ele>969</ele>
        <time>2021-06-01T13:46:52.131Z</time>
      </trkpt>
      <trkpt lat="44.13647" lon="5.87334">
        <ele>969</ele>
        <time>2021-06-01T13:46:53.131Z</time>
      </trkpt>
      <trkpt lat="44.13647" lon="5.87334">
        <ele>969</ele>
        <time>2021-06-01T13:46:54.131Z</time>
      </trkpt>
      <trkpt lat="44.13647" lon="5.87334">
        <ele>968</ele>
        <time>2021-06-01T13:46:55.131Z</time>
      </trkpt>
      <trkpt lat="44.13648" lon="5.87334">
        <ele>968</ele>
        <time>2021-06-01T13:46:56.131Z</time>
      </trkpt>
      <trkpt lat="44.13648" lon="5.87334">
        <ele>968</ele>
        <time>2021-06-01T13:46:57.131Z</time>
      </trkpt>
      <trkpt lat="44.13648" lon="5.87334">
        <ele>967</ele>
        <time>2021-06-01T13:46:58.131Z</time>
      </trkpt>
      <trkpt lat="44.13648" lon="5.87334">
        <ele>967</ele>
        <time>2021-06-01T13:46:59.131Z</time>
      </trkpt>
      <trkpt lat="44.13648" lon="5.87334">
        <ele>967</ele>
        <time>2021-06-01T13:47:00.131Z</time>
      </trkpt>
      <trkpt lat="44.13649" lon="5.87333">
        <ele>967</ele>
        <time>2021-06-01T13:47:01.131Z</time>
      </trkpt>
      <trkpt lat="44.13649" lon="5.87333">
        <ele>966</ele>
        <time>2021-06-01T13:47:02.131Z</time>
      </trkpt>
      <trkpt lat="44.1365" lon="5.87333">
        <ele>966</ele>
        <time>2021-06-01T13:47:03.131Z</time>
      </trkpt>
      <trkpt lat="44.13651" lon="5.87333">
        <ele>966</ele>
        <time>2021-06-01T13:47:04.131Z</time>
      </trkpt>
      <trkpt lat="44.13651" lon="5.87334">
        <ele>966</ele>
        <time>2021-06-01T13:47:05.131Z</time>
      </trkpt>
      <trkpt lat="44.13652" lon="5.87334">
        <ele>965</ele>
        <time>2021-06-01T13:47:06.131Z</time>
      </trkpt>
      <trkpt lat="44.13653" lon="5.87334">
        <ele>965</ele>
        <time>2021-06-01T13:47:07.131Z</time>
      </trkpt>
      <trkpt lat="44.13653" lon="5.87334">
        <ele>965</ele>
        <time>2021-06-01T13:47:08.131Z</time>
      </trkpt>
      <trkpt lat="44.13654" lon="5.87334">
        <ele>964</ele>
        <time>2021-06-01T13:47:09.131Z</time>
      </trkpt>
      <trkpt lat="44.13655" lon="5.87334">
        <ele>964</ele>
        <time>2021-06-01T13:47:10.131Z</time>
      </trkpt>
      <trkpt lat="44.13656" lon="5.87333">
        <ele>964</ele>
        <time>2021-06-01T13:47:11.131Z</time>
      </trkpt>
      <trkpt lat="44.13656" lon="5.87333">
        <ele>963</ele>
        <time>2021-06-01T13:47:12.131Z</time>
      </trkpt>
      <trkpt lat="44.13657" lon="5.87332">
        <ele>963</ele>
        <time>2021-06-01T13:47:13.131Z</time>
      </trkpt>
      <trkpt lat="44.13658" lon="5.87331">
        <ele>963</ele>
        <time>2021-06-01T13:47:14.131Z</time>
      </trkpt>
      <trkpt lat="44.13659" lon="5.87331">
        <ele>962</ele>
        <time>2021-06-01T13:47:15.131Z</time>
      </trkpt>
      <trkpt lat="44.1366" lon="5.8733">
        <ele>962</ele>
        <time>2021-06-01T13:47:16.131Z</time>
      </trkpt>
      <trkpt lat="44.1366" lon="5.8733">
        <ele>962</ele>
        <time>2021-06-01T13:47:17.131Z</time>
      </trkpt>
      <trkpt lat="44.13661" lon="5.87329">
        <ele>962</ele>
        <time>2021-06-01T13:47:18.131Z</time>
      </trkpt>
      <trkpt lat="44.13661" lon="5.87328">
        <ele>961</ele>
        <time>2021-06-01T13:47:19.131Z</time>
      </trkpt>
      <trkpt lat="44.13662" lon="5.87328">
        <ele>961</ele>
        <time>2021-06-01T13:47:20.131Z</time>
      </trkpt>
      <trkpt lat="44.13663" lon="5.87326">
        <ele>961</ele>
        <time>2021-06-01T13:47:21.131Z</time>
      </trkpt>
      <trkpt lat="44.13663" lon="5.87326">
        <ele>961</ele>
        <time>2021-06-01T13:47:22.131Z</time>
      </trkpt>
      <trkpt lat="44.13664" lon="5.87325">
        <ele>961</ele>
        <time>2021-06-01T13:47:23.131Z</time>
      </trkpt>
      <trkpt lat="44.13664" lon="5.87324">
        <ele>961</ele>
        <time>2021-06-01T13:47:24.131Z</time>
      </trkpt>
      <trkpt lat="44.13665" lon="5.87323">
        <ele>961</ele>
        <time>2021-06-01T13:47:25.131Z</time>
      </trkpt>
      <trkpt lat="44.13666" lon="5.87322">
        <ele>961</ele>
        <time>2021-06-01T13:47:26.131Z</time>
      </trkpt>
      <trkpt lat="44.13666" lon="5.87321">
        <ele>960</ele>
        <time>2021-06-01T13:47:27.131Z</time>
      </trkpt>
      <trkpt lat="44.13667" lon="5.87321">
        <ele>960</ele>
        <time>2021-06-01T13:47:28.131Z</time>
      </trkpt>
      <trkpt lat="44.13667" lon="5.87319">
        <ele>960</ele>
        <time>2021-06-01T13:47:29.131Z</time>
      </trkpt>
      <trkpt lat="44.13668" lon="5.87319">
        <ele>960</ele>
        <time>2021-06-01T13:47:30.131Z</time>
      </trkpt>
      <trkpt lat="44.13668" lon="5.87318">
        <ele>960</ele>
        <time>2021-06-01T13:47:31.131Z</time>
      </trkpt>
      <trkpt lat="44.13669" lon="5.87317">
        <ele>960</ele>
        <time>2021-06-01T13:47:32.131Z</time>
      </trkpt>
      <trkpt lat="44.1367" lon="5.87316">
        <ele>959</ele>
        <time>2021-06-01T13:47:33.131Z</time>
      </trkpt>
      <trkpt lat="44.1367" lon="5.87315">
        <ele>959</ele>
        <time>2021-06-01T13:47:34.131Z</time>
      </trkpt>
      <trkpt lat="44.13671" lon="5.87315">
        <ele>959</ele>
        <time>2021-06-01T13:47:35.131Z</time>
      </trkpt>
      <trkpt lat="44.13672" lon="5.87314">
        <ele>959</ele>
        <time>2021-06-01T13:47:36.131Z</time>
      </trkpt>
      <trkpt lat="44.13672" lon="5.87313">
        <ele>959</ele>
        <time>2021-06-01T13:47:37.131Z</time>
      </trkpt>
      <trkpt lat="44.13673" lon="5.87313">
        <ele>959</ele>
        <time>2021-06-01T13:47:38.131Z</time>
      </trkpt>
      <trkpt lat="44.13674" lon="5.87312">
        <ele>959</ele>
        <time>2021-06-01T13:47:39.131Z</time>
      </trkpt>
      <trkpt lat="44.13674" lon="5.87311">
        <ele>958</ele>
        <time>2021-06-01T13:47:40.131Z</time>
      </trkpt>
      <trkpt lat="44.13675" lon="5.8731">
        <ele>958</ele>
        <time>2021-06-01T13:47:41.131Z</time>
      </trkpt>
      <trkpt lat="44.13676" lon="5.87309">
        <ele>958</ele>
        <time>2021-06-01T13:47:42.131Z</time>
      </trkpt>
      <trkpt lat="44.13676" lon="5.87309">
        <ele>958</ele>
        <time>2021-06-01T13:47:43.131Z</time>
      </trkpt>
      <trkpt lat="44.13676" lon="5.87309">
        <ele>958</ele>
        <time>2021-06-01T13:47:44.131Z</time>
      </trkpt>
      <trkpt lat="44.13676" lon="5.87309">
        <ele>958</ele>
        <time>2021-06-01T13:47:45.131Z</time>
      </trkpt>
      <trkpt lat="44.13676" lon="5.87309">
        <ele>958</ele>
        <time>2021-06-01T13:47:46.131Z</time>
      </trkpt>
      <trkpt lat="44.13677" lon="5.8731">
        <ele>958</ele>
        <time>2021-06-01T13:47:47.131Z</time>
      </trkpt>
      <trkpt lat="44.13677" lon="5.8731">
        <ele>958</ele>
        <time>2021-06-01T13:47:48.131Z</time>
      </trkpt>
      <trkpt lat="44.13678" lon="5.87311">
        <ele>958</ele>
        <time>2021-06-01T13:47:49.131Z</time>
      </trkpt>
      <trkpt lat="44.13678" lon="5.87311">
        <ele>957</ele>
        <time>2021-06-01T13:47:50.131Z</time>
      </trkpt>
      <trkpt lat="44.13678" lon="5.87311">
        <ele>957</ele>
        <time>2021-06-01T13:47:51.131Z</time>
      </trkpt>
      <trkpt lat="44.13679" lon="5.8731">
        <ele>957</ele>
        <time>2021-06-01T13:47:52.131Z</time>
      </trkpt>
      <trkpt lat="44.1368" lon="5.8731">
        <ele>957</ele>
        <time>2021-06-01T13:47:53.131Z</time>
      </trkpt>
      <trkpt lat="44.13681" lon="5.8731">
        <ele>957</ele>
        <time>2021-06-01T13:47:54.131Z</time>
      </trkpt>
      <trkpt lat="44.13681" lon="5.8731">
        <ele>957</ele>
        <time>2021-06-01T13:47:55.131Z</time>
      </trkpt>
      <trkpt lat="44.13682" lon="5.8731">
        <ele>957</ele>
        <time>2021-06-01T13:47:56.131Z</time>
      </trkpt>
      <trkpt lat="44.13683" lon="5.8731">
        <ele>957</ele>
        <time>2021-06-01T13:47:57.131Z</time>
      </trkpt>
      <trkpt lat="44.13684" lon="5.8731">
        <ele>957</ele>
        <time>2021-06-01T13:47:58.131Z</time>
      </trkpt>
      <trkpt lat="44.13684" lon="5.87309">
        <ele>957</ele>
        <time>2021-06-01T13:47:59.131Z</time>
      </trkpt>
      <trkpt lat="44.13685" lon="5.87309">
        <ele>957</ele>
        <time>2021-06-01T13:48:00.131Z</time>
      </trkpt>
      <trkpt lat="44.13685" lon="5.87308">
        <ele>956</ele>
        <time>2021-06-01T13:48:01.131Z</time>
      </trkpt>
      <trkpt lat="44.13686" lon="5.87308">
        <ele>956</ele>
        <time>2021-06-01T13:48:02.131Z</time>
      </trkpt>
      <trkpt lat="44.13686" lon="5.87307">
        <ele>956</ele>
        <time>2021-06-01T13:48:03.131Z</time>
      </trkpt>
      <trkpt lat="44.13687" lon="5.87307">
        <ele>956</ele>
        <time>2021-06-01T13:48:04.131Z</time>
      </trkpt>
      <trkpt lat="44.13687" lon="5.87306">
        <ele>956</ele>
        <time>2021-06-01T13:48:05.131Z</time>
      </trkpt>
      <trkpt lat="44.13688" lon="5.87306">
        <ele>956</ele>
        <time>2021-06-01T13:48:06.131Z</time>
      </trkpt>
      <trkpt lat="44.13689" lon="5.87306">
        <ele>956</ele>
        <time>2021-06-01T13:48:07.131Z</time>
      </trkpt>
      <trkpt lat="44.1369" lon="5.87306">
        <ele>956</ele>
        <time>2021-06-01T13:48:08.131Z</time>
      </trkpt>
      <trkpt lat="44.13691" lon="5.87306">
        <ele>956</ele>
        <time>2021-06-01T13:48:09.131Z</time>
      </trkpt>
      <trkpt lat="44.13692" lon="5.87307">
        <ele>956</ele>
        <time>2021-06-01T13:48:10.131Z</time>
      </trkpt>
      <trkpt lat="44.13692" lon="5.87306">
        <ele>955</ele>
        <time>2021-06-01T13:48:11.131Z</time>
      </trkpt>
      <trkpt lat="44.13693" lon="5.87306">
        <ele>955</ele>
        <time>2021-06-01T13:48:12.131Z</time>
      </trkpt>
      <trkpt lat="44.13694" lon="5.87306">
        <ele>955</ele>
        <time>2021-06-01T13:48:13.131Z</time>
      </trkpt>
      <trkpt lat="44.13694" lon="5.87306">
        <ele>955</ele>
        <time>2021-06-01T13:48:14.131Z</time>
      </trkpt>
      <trkpt lat="44.13695" lon="5.87305">
        <ele>955</ele>
        <time>2021-06-01T13:48:15.131Z</time>
      </trkpt>
      <trkpt lat="44.13696" lon="5.87305">
        <ele>955</ele>
        <time>2021-06-01T13:48:16.131Z</time>
      </trkpt>
      <trkpt lat="44.13697" lon="5.87304">
        <ele>954</ele>
        <time>2021-06-01T13:48:17.131Z</time>
      </trkpt>
      <trkpt lat="44.13698" lon="5.87304">
        <ele>954</ele>
        <time>2021-06-01T13:48:18.131Z</time>
      </trkpt>
      <trkpt lat="44.13698" lon="5.87303">
        <ele>954</ele>
        <time>2021-06-01T13:48:19.131Z</time>
      </trkpt>
      <trkpt lat="44.13699" lon="5.87302">
        <ele>954</ele>
        <time>2021-06-01T13:48:20.131Z</time>
      </trkpt>
      <trkpt lat="44.137" lon="5.87302">
        <ele>954</ele>
        <time>2021-06-01T13:48:21.131Z</time>
      </trkpt>
      <trkpt lat="44.13701" lon="5.87301">
        <ele>954</ele>
        <time>2021-06-01T13:48:22.131Z</time>
      </trkpt>
      <trkpt lat="44.13702" lon="5.87301">
        <ele>954</ele>
        <time>2021-06-01T13:48:23.131Z</time>
      </trkpt>
      <trkpt lat="44.13702" lon="5.87302">
        <ele>953</ele>
        <time>2021-06-01T13:48:24.131Z</time>
      </trkpt>
      <trkpt lat="44.13703" lon="5.87302">
        <ele>953</ele>
        <time>2021-06-01T13:48:25.131Z</time>
      </trkpt>
      <trkpt lat="44.13703" lon="5.87302">
        <ele>953</ele>
        <time>2021-06-01T13:48:26.131Z</time>
      </trkpt>
      <trkpt lat="44.13703" lon="5.87302">
        <ele>953</ele>
        <time>2021-06-01T13:48:27.131Z</time>
      </trkpt>
      <trkpt lat="44.13704" lon="5.87303">
        <ele>953</ele>
        <time>2021-06-01T13:48:28.131Z</time>
      </trkpt>
      <trkpt lat="44.13704" lon="5.87303">
        <ele>952</ele>
        <time>2021-06-01T13:48:29.131Z</time>
      </trkpt>
      <trkpt lat="44.13705" lon="5.87303">
        <ele>952</ele>
        <time>2021-06-01T13:48:30.131Z</time>
      </trkpt>
      <trkpt lat="44.13705" lon="5.87303">
        <ele>952</ele>
        <time>2021-06-01T13:48:31.131Z</time>
      </trkpt>
      <trkpt lat="44.13706" lon="5.87303">
        <ele>952</ele>
        <time>2021-06-01T13:48:32.131Z</time>
      </trkpt>
      <trkpt lat="44.13707" lon="5.87303">
        <ele>952</ele>
        <time>2021-06-01T13:48:33.131Z</time>
      </trkpt>
      <trkpt lat="44.13707" lon="5.87303">
        <ele>951</ele>
        <time>2021-06-01T13:48:34.131Z</time>
      </trkpt>
      <trkpt lat="44.13708" lon="5.87303">
        <ele>951</ele>
        <time>2021-06-01T13:48:35.131Z</time>
      </trkpt>
      <trkpt lat="44.13708" lon="5.87302">
        <ele>951</ele>
        <time>2021-06-01T13:48:36.131Z</time>
      </trkpt>
      <trkpt lat="44.13709" lon="5.87302">
        <ele>951</ele>
        <time>2021-06-01T13:48:37.131Z</time>
      </trkpt>
      <trkpt lat="44.1371" lon="5.87303">
        <ele>951</ele>
        <time>2021-06-01T13:48:38.131Z</time>
      </trkpt>
      <trkpt lat="44.1371" lon="5.87303">
        <ele>951</ele>
        <time>2021-06-01T13:48:39.131Z</time>
      </trkpt>
      <trkpt lat="44.13711" lon="5.87304">
        <ele>950</ele>
        <time>2021-06-01T13:48:40.131Z</time>
      </trkpt>
      <trkpt lat="44.13711" lon="5.87305">
        <ele>950</ele>
        <time>2021-06-01T13:48:41.131Z</time>
      </trkpt>
      <trkpt lat="44.13711" lon="5.87306">
        <ele>950</ele>
        <time>2021-06-01T13:48:42.131Z</time>
      </trkpt>
      <trkpt lat="44.13711" lon="5.87306">
        <ele>950</ele>
        <time>2021-06-01T13:48:43.131Z</time>
      </trkpt>
      <trkpt lat="44.13711" lon="5.87307">
        <ele>950</ele>
        <time>2021-06-01T13:48:44.131Z</time>
      </trkpt>
      <trkpt lat="44.13711" lon="5.87307">
        <ele>950</ele>
        <time>2021-06-01T13:48:45.131Z</time>
      </trkpt>
      <trkpt lat="44.13711" lon="5.87308">
        <ele>950</ele>
        <time>2021-06-01T13:48:46.131Z</time>
      </trkpt>
      <trkpt lat="44.13711" lon="5.87308">
        <ele>949</ele>
        <time>2021-06-01T13:48:47.131Z</time>
      </trkpt>
      <trkpt lat="44.13712" lon="5.87309">
        <ele>949</ele>
        <time>2021-06-01T13:48:48.131Z</time>
      </trkpt>
      <trkpt lat="44.13712" lon="5.87309">
        <ele>949</ele>
        <time>2021-06-01T13:48:49.131Z</time>
      </trkpt>
      <trkpt lat="44.13713" lon="5.87309">
        <ele>949</ele>
        <time>2021-06-01T13:48:50.131Z</time>
      </trkpt>
      <trkpt lat="44.13713" lon="5.8731">
        <ele>949</ele>
        <time>2021-06-01T13:48:51.131Z</time>
      </trkpt>
      <trkpt lat="44.13714" lon="5.8731">
        <ele>949</ele>
        <time>2021-06-01T13:48:52.131Z</time>
      </trkpt>
      <trkpt lat="44.13715" lon="5.8731">
        <ele>949</ele>
        <time>2021-06-01T13:48:53.131Z</time>
      </trkpt>
      <trkpt lat="44.13716" lon="5.87311">
        <ele>948</ele>
        <time>2021-06-01T13:48:54.131Z</time>
      </trkpt>
      <trkpt lat="44.13716" lon="5.87312">
        <ele>948</ele>
        <time>2021-06-01T13:48:55.131Z</time>
      </trkpt>
      <trkpt lat="44.13717" lon="5.87312">
        <ele>948</ele>
        <time>2021-06-01T13:48:56.131Z</time>
      </trkpt>
      <trkpt lat="44.13718" lon="5.87312">
        <ele>948</ele>
        <time>2021-06-01T13:48:57.131Z</time>
      </trkpt>
      <trkpt lat="44.13719" lon="5.87313">
        <ele>948</ele>
        <time>2021-06-01T13:48:58.131Z</time>
      </trkpt>
      <trkpt lat="44.13719" lon="5.87313">
        <ele>948</ele>
        <time>2021-06-01T13:48:59.131Z</time>
      </trkpt>
      <trkpt lat="44.1372" lon="5.87314">
        <ele>948</ele>
        <time>2021-06-01T13:49:00.131Z</time>
      </trkpt>
      <trkpt lat="44.13721" lon="5.87315">
        <ele>948</ele>
        <time>2021-06-01T13:49:01.131Z</time>
      </trkpt>
      <trkpt lat="44.13722" lon="5.87316">
        <ele>947</ele>
        <time>2021-06-01T13:49:02.131Z</time>
      </trkpt>
      <trkpt lat="44.13722" lon="5.87316">
        <ele>947</ele>
        <time>2021-06-01T13:49:03.131Z</time>
      </trkpt>
      <trkpt lat="44.13723" lon="5.87317">
        <ele>947</ele>
        <time>2021-06-01T13:49:04.131Z</time>
      </trkpt>
      <trkpt lat="44.13724" lon="5.87317">
        <ele>947</ele>
        <time>2021-06-01T13:49:05.131Z</time>
      </trkpt>
      <trkpt lat="44.13725" lon="5.87318">
        <ele>946</ele>
        <time>2021-06-01T13:49:06.131Z</time>
      </trkpt>
      <trkpt lat="44.13726" lon="5.87318">
        <ele>946</ele>
        <time>2021-06-01T13:49:07.131Z</time>
      </trkpt>
      <trkpt lat="44.13726" lon="5.87319">
        <ele>946</ele>
        <time>2021-06-01T13:49:08.131Z</time>
      </trkpt>
      <trkpt lat="44.13727" lon="5.8732">
        <ele>945</ele>
        <time>2021-06-01T13:49:09.131Z</time>
      </trkpt>
      <trkpt lat="44.13728" lon="5.8732">
        <ele>945</ele>
        <time>2021-06-01T13:49:10.131Z</time>
      </trkpt>
      <trkpt lat="44.13729" lon="5.8732">
        <ele>945</ele>
        <time>2021-06-01T13:49:11.131Z</time>
      </trkpt>
      <trkpt lat="44.13729" lon="5.87321">
        <ele>945</ele>
        <time>2021-06-01T13:49:12.131Z</time>
      </trkpt>
      <trkpt lat="44.1373" lon="5.87321">
        <ele>944</ele>
        <time>2021-06-01T13:49:13.131Z</time>
      </trkpt>
      <trkpt lat="44.13731" lon="5.87321">
        <ele>944</ele>
        <time>2021-06-01T13:49:14.131Z</time>
      </trkpt>
      <trkpt lat="44.13731" lon="5.87321">
        <ele>944</ele>
        <time>2021-06-01T13:49:15.131Z</time>
      </trkpt>
      <trkpt lat="44.13732" lon="5.8732">
        <ele>943</ele>
        <time>2021-06-01T13:49:16.131Z</time>
      </trkpt>
      <trkpt lat="44.13733" lon="5.8732">
        <ele>943</ele>
        <time>2021-06-01T13:49:17.131Z</time>
      </trkpt>
      <trkpt lat="44.13733" lon="5.8732">
        <ele>943</ele>
        <time>2021-06-01T13:49:18.131Z</time>
      </trkpt>
      <trkpt lat="44.13734" lon="5.8732">
        <ele>942</ele>
        <time>2021-06-01T13:49:19.131Z</time>
      </trkpt>
      <trkpt lat="44.13734" lon="5.8732">
        <ele>942</ele>
        <time>2021-06-01T13:49:20.131Z</time>
      </trkpt>
      <trkpt lat="44.13735" lon="5.87321">
        <ele>942</ele>
        <time>2021-06-01T13:49:21.131Z</time>
      </trkpt>
      <trkpt lat="44.13736" lon="5.87321">
        <ele>942</ele>
        <time>2021-06-01T13:49:22.131Z</time>
      </trkpt>
      <trkpt lat="44.13736" lon="5.87321">
        <ele>941</ele>
        <time>2021-06-01T13:49:23.131Z</time>
      </trkpt>
      <trkpt lat="44.13737" lon="5.87322">
        <ele>941</ele>
        <time>2021-06-01T13:49:24.131Z</time>
      </trkpt>
      <trkpt lat="44.13738" lon="5.87322">
        <ele>941</ele>
        <time>2021-06-01T13:49:25.131Z</time>
      </trkpt>
      <trkpt lat="44.13738" lon="5.87322">
        <ele>940</ele>
        <time>2021-06-01T13:49:26.131Z</time>
      </trkpt>
      <trkpt lat="44.13739" lon="5.87323">
        <ele>940</ele>
        <time>2021-06-01T13:49:27.131Z</time>
      </trkpt>
      <trkpt lat="44.1374" lon="5.87323">
        <ele>939</ele>
        <time>2021-06-01T13:49:28.131Z</time>
      </trkpt>
      <trkpt lat="44.13741" lon="5.87324">
        <ele>939</ele>
        <time>2021-06-01T13:49:29.131Z</time>
      </trkpt>
      <trkpt lat="44.13742" lon="5.87325">
        <ele>939</ele>
        <time>2021-06-01T13:49:30.131Z</time>
      </trkpt>
      <trkpt lat="44.13743" lon="5.87326">
        <ele>938</ele>
        <time>2021-06-01T13:49:31.131Z</time>
      </trkpt>
      <trkpt lat="44.13744" lon="5.87326">
        <ele>938</ele>
        <time>2021-06-01T13:49:32.131Z</time>
      </trkpt>
      <trkpt lat="44.13745" lon="5.87327">
        <ele>937</ele>
        <time>2021-06-01T13:49:33.131Z</time>
      </trkpt>
      <trkpt lat="44.13746" lon="5.87327">
        <ele>937</ele>
        <time>2021-06-01T13:49:34.131Z</time>
      </trkpt>
      <trkpt lat="44.13747" lon="5.87328">
        <ele>937</ele>
        <time>2021-06-01T13:49:35.131Z</time>
      </trkpt>
      <trkpt lat="44.13748" lon="5.87328">
        <ele>936</ele>
        <time>2021-06-01T13:49:36.131Z</time>
      </trkpt>
      <trkpt lat="44.1375" lon="5.87329">
        <ele>936</ele>
        <time>2021-06-01T13:49:37.131Z</time>
      </trkpt>
      <trkpt lat="44.1375" lon="5.87329">
        <ele>935</ele>
        <time>2021-06-01T13:49:38.131Z</time>
      </trkpt>
      <trkpt lat="44.13751" lon="5.87329">
        <ele>935</ele>
        <time>2021-06-01T13:49:39.131Z</time>
      </trkpt>
      <trkpt lat="44.13752" lon="5.87329">
        <ele>935</ele>
        <time>2021-06-01T13:49:40.131Z</time>
      </trkpt>
      <trkpt lat="44.13753" lon="5.87329">
        <ele>934</ele>
        <time>2021-06-01T13:49:41.131Z</time>
      </trkpt>
      <trkpt lat="44.13754" lon="5.87329">
        <ele>934</ele>
        <time>2021-06-01T13:49:42.131Z</time>
      </trkpt>
      <trkpt lat="44.13755" lon="5.87329">
        <ele>933</ele>
        <time>2021-06-01T13:49:43.131Z</time>
      </trkpt>
      <trkpt lat="44.13756" lon="5.87329">
        <ele>933</ele>
        <time>2021-06-01T13:49:44.131Z</time>
      </trkpt>
      <trkpt lat="44.13757" lon="5.87329">
        <ele>932</ele>
        <time>2021-06-01T13:49:45.131Z</time>
      </trkpt>
      <trkpt lat="44.13758" lon="5.87329">
        <ele>932</ele>
        <time>2021-06-01T13:49:46.131Z</time>
      </trkpt>
      <trkpt lat="44.13759" lon="5.87329">
        <ele>932</ele>
        <time>2021-06-01T13:49:47.131Z</time>
      </trkpt>
      <trkpt lat="44.1376" lon="5.87329">
        <ele>932</ele>
        <time>2021-06-01T13:49:48.131Z</time>
      </trkpt>
      <trkpt lat="44.13761" lon="5.87329">
        <ele>931</ele>
        <time>2021-06-01T13:49:49.131Z</time>
      </trkpt>
      <trkpt lat="44.13761" lon="5.87329">
        <ele>931</ele>
        <time>2021-06-01T13:49:50.131Z</time>
      </trkpt>
      <trkpt lat="44.13762" lon="5.87329">
        <ele>931</ele>
        <time>2021-06-01T13:49:51.131Z</time>
      </trkpt>
      <trkpt lat="44.13763" lon="5.8733">
        <ele>931</ele>
        <time>2021-06-01T13:49:52.131Z</time>
      </trkpt>
      <trkpt lat="44.13764" lon="5.87331">
        <ele>930</ele>
        <time>2021-06-01T13:49:53.131Z</time>
      </trkpt>
      <trkpt lat="44.13765" lon="5.87331">
        <ele>930</ele>
        <time>2021-06-01T13:49:54.131Z</time>
      </trkpt>
      <trkpt lat="44.13766" lon="5.87331">
        <ele>930</ele>
        <time>2021-06-01T13:49:55.131Z</time>
      </trkpt>
      <trkpt lat="44.13766" lon="5.87332">
        <ele>929</ele>
        <time>2021-06-01T13:49:56.131Z</time>
      </trkpt>
      <trkpt lat="44.13767" lon="5.87333">
        <ele>929</ele>
        <time>2021-06-01T13:49:57.131Z</time>
      </trkpt>
      <trkpt lat="44.13768" lon="5.87333">
        <ele>929</ele>
        <time>2021-06-01T13:49:58.131Z</time>
      </trkpt>
      <trkpt lat="44.13769" lon="5.87333">
        <ele>928</ele>
        <time>2021-06-01T13:49:59.131Z</time>
      </trkpt>
      <trkpt lat="44.1377" lon="5.87333">
        <ele>928</ele>
        <time>2021-06-01T13:50:00.131Z</time>
      </trkpt>
      <trkpt lat="44.13771" lon="5.87334">
        <ele>928</ele>
        <time>2021-06-01T13:50:01.131Z</time>
      </trkpt>
      <trkpt lat="44.13772" lon="5.87334">
        <ele>928</ele>
        <time>2021-06-01T13:50:02.131Z</time>
      </trkpt>
      <trkpt lat="44.13773" lon="5.87334">
        <ele>927</ele>
        <time>2021-06-01T13:50:03.131Z</time>
      </trkpt>
      <trkpt lat="44.13774" lon="5.87334">
        <ele>927</ele>
        <time>2021-06-01T13:50:04.131Z</time>
      </trkpt>
      <trkpt lat="44.13775" lon="5.87334">
        <ele>927</ele>
        <time>2021-06-01T13:50:05.131Z</time>
      </trkpt>
      <trkpt lat="44.13775" lon="5.87334">
        <ele>927</ele>
        <time>2021-06-01T13:50:06.131Z</time>
      </trkpt>
      <trkpt lat="44.13776" lon="5.87334">
        <ele>927</ele>
        <time>2021-06-01T13:50:07.131Z</time>
      </trkpt>
      <trkpt lat="44.13777" lon="5.87334">
        <ele>926</ele>
        <time>2021-06-01T13:50:08.131Z</time>
      </trkpt>
      <trkpt lat="44.13778" lon="5.87335">
        <ele>926</ele>
        <time>2021-06-01T13:50:09.131Z</time>
      </trkpt>
      <trkpt lat="44.13779" lon="5.87335">
        <ele>926</ele>
        <time>2021-06-01T13:50:10.131Z</time>
      </trkpt>
      <trkpt lat="44.1378" lon="5.87336">
        <ele>926</ele>
        <time>2021-06-01T13:50:11.131Z</time>
      </trkpt>
      <trkpt lat="44.13781" lon="5.87337">
        <ele>925</ele>
        <time>2021-06-01T13:50:12.131Z</time>
      </trkpt>
      <trkpt lat="44.13782" lon="5.87338">
        <ele>925</ele>
        <time>2021-06-01T13:50:13.131Z</time>
      </trkpt>
      <trkpt lat="44.13782" lon="5.87338">
        <ele>925</ele>
        <time>2021-06-01T13:50:14.131Z</time>
      </trkpt>
      <trkpt lat="44.13783" lon="5.87339">
        <ele>924</ele>
        <time>2021-06-01T13:50:15.131Z</time>
      </trkpt>
      <trkpt lat="44.13784" lon="5.8734">
        <ele>924</ele>
        <time>2021-06-01T13:50:16.131Z</time>
      </trkpt>
      <trkpt lat="44.13785" lon="5.87341">
        <ele>923</ele>
        <time>2021-06-01T13:50:17.131Z</time>
      </trkpt>
      <trkpt lat="44.13785" lon="5.87341">
        <ele>923</ele>
        <time>2021-06-01T13:50:18.131Z</time>
      </trkpt>
      <trkpt lat="44.13785" lon="5.87342">
        <ele>923</ele>
        <time>2021-06-01T13:50:19.131Z</time>
      </trkpt>
      <trkpt lat="44.13785" lon="5.87342">
        <ele>922</ele>
        <time>2021-06-01T13:50:20.131Z</time>
      </trkpt>
      <trkpt lat="44.13786" lon="5.87343">
        <ele>922</ele>
        <time>2021-06-01T13:50:21.131Z</time>
      </trkpt>
      <trkpt lat="44.13786" lon="5.87343">
        <ele>922</ele>
        <time>2021-06-01T13:50:22.131Z</time>
      </trkpt>
      <trkpt lat="44.13787" lon="5.87343">
        <ele>921</ele>
        <time>2021-06-01T13:50:23.131Z</time>
      </trkpt>
      <trkpt lat="44.13787" lon="5.87343">
        <ele>921</ele>
        <time>2021-06-01T13:50:24.131Z</time>
      </trkpt>
      <trkpt lat="44.13787" lon="5.87343">
        <ele>921</ele>
        <time>2021-06-01T13:50:25.131Z</time>
      </trkpt>
      <trkpt lat="44.13787" lon="5.87343">
        <ele>921</ele>
        <time>2021-06-01T13:50:26.131Z</time>
      </trkpt>
      <trkpt lat="44.13787" lon="5.87343">
        <ele>921</ele>
        <time>2021-06-01T13:50:27.131Z</time>
      </trkpt>
      <trkpt lat="44.13787" lon="5.87343">
        <ele>920</ele>
        <time>2021-06-01T13:50:28.131Z</time>
      </trkpt>
      <trkpt lat="44.13787" lon="5.87343">
        <ele>920</ele>
        <time>2021-06-01T13:50:29.131Z</time>
      </trkpt>
      <trkpt lat="44.13787" lon="5.87343">
        <ele>920</ele>
        <time>2021-06-01T13:50:30.131Z</time>
      </trkpt>
      <trkpt lat="44.13787" lon="5.87343">
        <ele>920</ele>
        <time>2021-06-01T13:50:31.131Z</time>
      </trkpt>
      <trkpt lat="44.13787" lon="5.87343">
        <ele>920</ele>
        <time>2021-06-01T13:50:32.131Z</time>
      </trkpt>
      <trkpt lat="44.13787" lon="5.87343">
        <ele>920</ele>
        <time>2021-06-01T13:50:33.131Z</time>
      </trkpt>
      <trkpt lat="44.13787" lon="5.87343">
        <ele>919</ele>
        <time>2021-06-01T13:50:34.131Z</time>
      </trkpt>
      <trkpt lat="44.13787" lon="5.87343">
        <ele>919</ele>
        <time>2021-06-01T13:50:35.131Z</time>
      </trkpt>
      <trkpt lat="44.13787" lon="5.87343">
        <ele>919</ele>
        <time>2021-06-01T13:50:36.131Z</time>
      </trkpt>
      <trkpt lat="44.13787" lon="5.87343">
        <ele>919</ele>
        <time>2021-06-01T13:50:37.131Z</time>
      </trkpt>
      <trkpt lat="44.13787" lon="5.87343">
        <ele>919</ele>
        <time>2021-06-01T13:50:38.131Z</time>
      </trkpt>
      <trkpt lat="44.13788" lon="5.87343">
        <ele>919</ele>
        <time>2021-06-01T13:50:39.131Z</time>
      </trkpt>
      <trkpt lat="44.13788" lon="5.87344">
        <ele>919</ele>
        <time>2021-06-01T13:50:40.131Z</time>
      </trkpt>
      <trkpt lat="44.13788" lon="5.87344">
        <ele>918</ele>
        <time>2021-06-01T13:50:41.131Z</time>
      </trkpt>
      <trkpt lat="44.13789" lon="5.87345">
        <ele>918</ele>
        <time>2021-06-01T13:50:42.131Z</time>
      </trkpt>
      <trkpt lat="44.13789" lon="5.87345">
        <ele>918</ele>
        <time>2021-06-01T13:50:43.131Z</time>
      </trkpt>
      <trkpt lat="44.1379" lon="5.87345">
        <ele>918</ele>
        <time>2021-06-01T13:50:44.131Z</time>
      </trkpt>
      <trkpt lat="44.13791" lon="5.87346">
        <ele>918</ele>
        <time>2021-06-01T13:50:45.131Z</time>
      </trkpt>
      <trkpt lat="44.13791" lon="5.87346">
        <ele>917</ele>
        <time>2021-06-01T13:50:46.131Z</time>
      </trkpt>
      <trkpt lat="44.13792" lon="5.87347">
        <ele>917</ele>
        <time>2021-06-01T13:50:47.131Z</time>
      </trkpt>
      <trkpt lat="44.13793" lon="5.87347">
        <ele>917</ele>
        <time>2021-06-01T13:50:48.131Z</time>
      </trkpt>
      <trkpt lat="44.13793" lon="5.87348">
        <ele>917</ele>
        <time>2021-06-01T13:50:49.131Z</time>
      </trkpt>
      <trkpt lat="44.13793" lon="5.87348">
        <ele>917</ele>
        <time>2021-06-01T13:50:50.131Z</time>
      </trkpt>
      <trkpt lat="44.13794" lon="5.87349">
        <ele>917</ele>
        <time>2021-06-01T13:50:51.131Z</time>
      </trkpt>
      <trkpt lat="44.13795" lon="5.8735">
        <ele>917</ele>
        <time>2021-06-01T13:50:52.131Z</time>
      </trkpt>
      <trkpt lat="44.13795" lon="5.8735">
        <ele>916</ele>
        <time>2021-06-01T13:50:53.131Z</time>
      </trkpt>
      <trkpt lat="44.13796" lon="5.87351">
        <ele>916</ele>
        <time>2021-06-01T13:50:54.131Z</time>
      </trkpt>
      <trkpt lat="44.13797" lon="5.87352">
        <ele>916</ele>
        <time>2021-06-01T13:50:55.131Z</time>
      </trkpt>
      <trkpt lat="44.13797" lon="5.87353">
        <ele>916</ele>
        <time>2021-06-01T13:50:56.131Z</time>
      </trkpt>
      <trkpt lat="44.13798" lon="5.87353">
        <ele>916</ele>
        <time>2021-06-01T13:50:57.131Z</time>
      </trkpt>
      <trkpt lat="44.13798" lon="5.87354">
        <ele>915</ele>
        <time>2021-06-01T13:50:58.131Z</time>
      </trkpt>
      <trkpt lat="44.13799" lon="5.87354">
        <ele>915</ele>
        <time>2021-06-01T13:50:59.131Z</time>
      </trkpt>
      <trkpt lat="44.13799" lon="5.87355">
        <ele>915</ele>
        <time>2021-06-01T13:51:00.131Z</time>
      </trkpt>
      <trkpt lat="44.138" lon="5.87356">
        <ele>915</ele>
        <time>2021-06-01T13:51:01.131Z</time>
      </trkpt>
      <trkpt lat="44.13801" lon="5.87356">
        <ele>915</ele>
        <time>2021-06-01T13:51:02.131Z</time>
      </trkpt>
      <trkpt lat="44.13802" lon="5.87357">
        <ele>914</ele>
        <time>2021-06-01T13:51:03.131Z</time>
      </trkpt>
      <trkpt lat="44.13802" lon="5.87357">
        <ele>914</ele>
        <time>2021-06-01T13:51:04.131Z</time>
      </trkpt>
      <trkpt lat="44.13803" lon="5.87357">
        <ele>914</ele>
        <time>2021-06-01T13:51:05.131Z</time>
      </trkpt>
      <trkpt lat="44.13804" lon="5.87358">
        <ele>914</ele>
        <time>2021-06-01T13:51:06.131Z</time>
      </trkpt>
      <trkpt lat="44.13805" lon="5.87358">
        <ele>914</ele>
        <time>2021-06-01T13:51:07.131Z</time>
      </trkpt>
      <trkpt lat="44.13806" lon="5.87359">
        <ele>913</ele>
        <time>2021-06-01T13:51:08.131Z</time>
      </trkpt>
      <trkpt lat="44.13807" lon="5.87359">
        <ele>913</ele>
        <time>2021-06-01T13:51:09.131Z</time>
      </trkpt>
      <trkpt lat="44.13808" lon="5.87359">
        <ele>913</ele>
        <time>2021-06-01T13:51:10.131Z</time>
      </trkpt>
      <trkpt lat="44.13809" lon="5.87359">
        <ele>913</ele>
        <time>2021-06-01T13:51:11.131Z</time>
      </trkpt>
      <trkpt lat="44.1381" lon="5.87358">
        <ele>912</ele>
        <time>2021-06-01T13:51:12.131Z</time>
      </trkpt>
      <trkpt lat="44.13811" lon="5.87358">
        <ele>912</ele>
        <time>2021-06-01T13:51:13.131Z</time>
      </trkpt>
      <trkpt lat="44.13812" lon="5.87357">
        <ele>912</ele>
        <time>2021-06-01T13:51:14.131Z</time>
      </trkpt>
      <trkpt lat="44.13813" lon="5.87356">
        <ele>912</ele>
        <time>2021-06-01T13:51:15.131Z</time>
      </trkpt>
      <trkpt lat="44.13813" lon="5.87355">
        <ele>911</ele>
        <time>2021-06-01T13:51:16.131Z</time>
      </trkpt>
      <trkpt lat="44.13814" lon="5.87354">
        <ele>911</ele>
        <time>2021-06-01T13:51:17.131Z</time>
      </trkpt>
      <trkpt lat="44.13815" lon="5.87353">
        <ele>911</ele>
        <time>2021-06-01T13:51:18.131Z</time>
      </trkpt>
      <trkpt lat="44.13815" lon="5.87351">
        <ele>911</ele>
        <time>2021-06-01T13:51:19.131Z</time>
      </trkpt>
      <trkpt lat="44.13816" lon="5.8735">
        <ele>910</ele>
        <time>2021-06-01T13:51:20.131Z</time>
      </trkpt>
      <trkpt lat="44.13816" lon="5.87349">
        <ele>910</ele>
        <time>2021-06-01T13:51:21.131Z</time>
      </trkpt>
      <trkpt lat="44.13817" lon="5.87348">
        <ele>910</ele>
        <time>2021-06-01T13:51:22.131Z</time>
      </trkpt>
      <trkpt lat="44.13818" lon="5.87347">
        <ele>910</ele>
        <time>2021-06-01T13:51:23.131Z</time>
      </trkpt>
      <trkpt lat="44.13819" lon="5.87346">
        <ele>910</ele>
        <time>2021-06-01T13:51:24.131Z</time>
      </trkpt>
      <trkpt lat="44.1382" lon="5.87345">
        <ele>909</ele>
        <time>2021-06-01T13:51:25.131Z</time>
      </trkpt>
      <trkpt lat="44.13821" lon="5.87345">
        <ele>909</ele>
        <time>2021-06-01T13:51:26.131Z</time>
      </trkpt>
      <trkpt lat="44.13822" lon="5.87344">
        <ele>909</ele>
        <time>2021-06-01T13:51:27.131Z</time>
      </trkpt>
      <trkpt lat="44.13822" lon="5.87343">
        <ele>909</ele>
        <time>2021-06-01T13:51:28.131Z</time>
      </trkpt>
      <trkpt lat="44.13823" lon="5.87342">
        <ele>909</ele>
        <time>2021-06-01T13:51:29.131Z</time>
      </trkpt>
      <trkpt lat="44.13825" lon="5.87341">
        <ele>909</ele>
        <time>2021-06-01T13:51:30.131Z</time>
      </trkpt>
      <trkpt lat="44.13826" lon="5.87341">
        <ele>908</ele>
        <time>2021-06-01T13:51:31.131Z</time>
      </trkpt>
      <trkpt lat="44.13827" lon="5.8734">
        <ele>908</ele>
        <time>2021-06-01T13:51:32.131Z</time>
      </trkpt>
      <trkpt lat="44.13828" lon="5.87339">
        <ele>908</ele>
        <time>2021-06-01T13:51:33.131Z</time>
      </trkpt>
      <trkpt lat="44.13829" lon="5.87339">
        <ele>908</ele>
        <time>2021-06-01T13:51:34.131Z</time>
      </trkpt>
      <trkpt lat="44.1383" lon="5.87338">
        <ele>908</ele>
        <time>2021-06-01T13:51:35.131Z</time>
      </trkpt>
      <trkpt lat="44.13831" lon="5.87337">
        <ele>908</ele>
        <time>2021-06-01T13:51:36.131Z</time>
      </trkpt>
      <trkpt lat="44.13831" lon="5.87336">
        <ele>908</ele>
        <time>2021-06-01T13:51:37.131Z</time>
      </trkpt>
      <trkpt lat="44.13832" lon="5.87336">
        <ele>907</ele>
        <time>2021-06-01T13:51:38.131Z</time>
      </trkpt>
      <trkpt lat="44.13832" lon="5.87335">
        <ele>907</ele>
        <time>2021-06-01T13:51:39.131Z</time>
      </trkpt>
      <trkpt lat="44.13833" lon="5.87334">
        <ele>907</ele>
        <time>2021-06-01T13:51:40.131Z</time>
      </trkpt>
      <trkpt lat="44.13833" lon="5.87333">
        <ele>907</ele>
        <time>2021-06-01T13:51:41.131Z</time>
      </trkpt>
      <trkpt lat="44.13834" lon="5.87332">
        <ele>907</ele>
        <time>2021-06-01T13:51:42.131Z</time>
      </trkpt>
      <trkpt lat="44.13834" lon="5.87332">
        <ele>907</ele>
        <time>2021-06-01T13:51:43.131Z</time>
      </trkpt>
      <trkpt lat="44.13835" lon="5.87331">
        <ele>907</ele>
        <time>2021-06-01T13:51:44.131Z</time>
      </trkpt>
      <trkpt lat="44.13836" lon="5.8733">
        <ele>907</ele>
        <time>2021-06-01T13:51:45.131Z</time>
      </trkpt>
      <trkpt lat="44.13837" lon="5.87329">
        <ele>906</ele>
        <time>2021-06-01T13:51:46.131Z</time>
      </trkpt>
      <trkpt lat="44.13838" lon="5.87328">
        <ele>906</ele>
        <time>2021-06-01T13:51:47.131Z</time>
      </trkpt>
      <trkpt lat="44.13839" lon="5.87328">
        <ele>906</ele>
        <time>2021-06-01T13:51:48.131Z</time>
      </trkpt>
      <trkpt lat="44.1384" lon="5.87327">
        <ele>906</ele>
        <time>2021-06-01T13:51:49.131Z</time>
      </trkpt>
      <trkpt lat="44.13841" lon="5.87326">
        <ele>906</ele>
        <time>2021-06-01T13:51:50.131Z</time>
      </trkpt>
      <trkpt lat="44.13841" lon="5.87325">
        <ele>906</ele>
        <time>2021-06-01T13:51:51.131Z</time>
      </trkpt>
      <trkpt lat="44.13842" lon="5.87324">
        <ele>906</ele>
        <time>2021-06-01T13:51:52.131Z</time>
      </trkpt>
      <trkpt lat="44.13843" lon="5.87323">
        <ele>906</ele>
        <time>2021-06-01T13:51:53.131Z</time>
      </trkpt>
      <trkpt lat="44.13844" lon="5.87322">
        <ele>905</ele>
        <time>2021-06-01T13:51:54.131Z</time>
      </trkpt>
      <trkpt lat="44.13845" lon="5.87321">
        <ele>905</ele>
        <time>2021-06-01T13:51:55.131Z</time>
      </trkpt>
      <trkpt lat="44.13846" lon="5.8732">
        <ele>905</ele>
        <time>2021-06-01T13:51:56.131Z</time>
      </trkpt>
      <trkpt lat="44.13847" lon="5.87319">
        <ele>904</ele>
        <time>2021-06-01T13:51:57.131Z</time>
      </trkpt>
      <trkpt lat="44.13848" lon="5.87318">
        <ele>904</ele>
        <time>2021-06-01T13:51:58.131Z</time>
      </trkpt>
      <trkpt lat="44.13849" lon="5.87316">
        <ele>904</ele>
        <time>2021-06-01T13:51:59.131Z</time>
      </trkpt>
      <trkpt lat="44.13849" lon="5.87315">
        <ele>904</ele>
        <time>2021-06-01T13:52:00.131Z</time>
      </trkpt>
      <trkpt lat="44.1385" lon="5.87313">
        <ele>904</ele>
        <time>2021-06-01T13:52:01.131Z</time>
      </trkpt>
      <trkpt lat="44.1385" lon="5.87312">
        <ele>904</ele>
        <time>2021-06-01T13:52:02.131Z</time>
      </trkpt>
      <trkpt lat="44.13851" lon="5.8731">
        <ele>903</ele>
        <time>2021-06-01T13:52:03.131Z</time>
      </trkpt>
      <trkpt lat="44.13852" lon="5.87309">
        <ele>903</ele>
        <time>2021-06-01T13:52:04.131Z</time>
      </trkpt>
      <trkpt lat="44.13853" lon="5.87308">
        <ele>903</ele>
        <time>2021-06-01T13:52:05.131Z</time>
      </trkpt>
      <trkpt lat="44.13854" lon="5.87306">
        <ele>903</ele>
        <time>2021-06-01T13:52:06.131Z</time>
      </trkpt>
      <trkpt lat="44.13855" lon="5.87305">
        <ele>903</ele>
        <time>2021-06-01T13:52:07.131Z</time>
      </trkpt>
      <trkpt lat="44.13856" lon="5.87304">
        <ele>903</ele>
        <time>2021-06-01T13:52:08.131Z</time>
      </trkpt>
      <trkpt lat="44.13857" lon="5.87302">
        <ele>903</ele>
        <time>2021-06-01T13:52:09.131Z</time>
      </trkpt>
      <trkpt lat="44.13858" lon="5.87301">
        <ele>903</ele>
        <time>2021-06-01T13:52:10.131Z</time>
      </trkpt>
      <trkpt lat="44.13859" lon="5.873">
        <ele>903</ele>
        <time>2021-06-01T13:52:11.131Z</time>
      </trkpt>
      <trkpt lat="44.13859" lon="5.87299">
        <ele>903</ele>
        <time>2021-06-01T13:52:12.131Z</time>
      </trkpt>
      <trkpt lat="44.1386" lon="5.87299">
        <ele>903</ele>
        <time>2021-06-01T13:52:13.131Z</time>
      </trkpt>
      <trkpt lat="44.13861" lon="5.87298">
        <ele>902</ele>
        <time>2021-06-01T13:52:14.131Z</time>
      </trkpt>
      <trkpt lat="44.13862" lon="5.87297">
        <ele>902</ele>
        <time>2021-06-01T13:52:15.131Z</time>
      </trkpt>
      <trkpt lat="44.13863" lon="5.87296">
        <ele>902</ele>
        <time>2021-06-01T13:52:16.131Z</time>
      </trkpt>
      <trkpt lat="44.13864" lon="5.87296">
        <ele>902</ele>
        <time>2021-06-01T13:52:17.131Z</time>
      </trkpt>
      <trkpt lat="44.13865" lon="5.87295">
        <ele>902</ele>
        <time>2021-06-01T13:52:18.131Z</time>
      </trkpt>
      <trkpt lat="44.13866" lon="5.87295">
        <ele>902</ele>
        <time>2021-06-01T13:52:19.131Z</time>
      </trkpt>
      <trkpt lat="44.13867" lon="5.87294">
        <ele>902</ele>
        <time>2021-06-01T13:52:20.131Z</time>
      </trkpt>
      <trkpt lat="44.13868" lon="5.87293">
        <ele>902</ele>
        <time>2021-06-01T13:52:21.131Z</time>
      </trkpt>
      <trkpt lat="44.13869" lon="5.87293">
        <ele>902</ele>
        <time>2021-06-01T13:52:22.131Z</time>
      </trkpt>
      <trkpt lat="44.1387" lon="5.87292">
        <ele>902</ele>
        <time>2021-06-01T13:52:23.131Z</time>
      </trkpt>
      <trkpt lat="44.13871" lon="5.87291">
        <ele>902</ele>
        <time>2021-06-01T13:52:24.131Z</time>
      </trkpt>
      <trkpt lat="44.13872" lon="5.87291">
        <ele>902</ele>
        <time>2021-06-01T13:52:25.131Z</time>
      </trkpt>
      <trkpt lat="44.13873" lon="5.8729">
        <ele>902</ele>
        <time>2021-06-01T13:52:26.131Z</time>
      </trkpt>
      <trkpt lat="44.13873" lon="5.87289">
        <ele>902</ele>
        <time>2021-06-01T13:52:27.131Z</time>
      </trkpt>
      <trkpt lat="44.13874" lon="5.87289">
        <ele>902</ele>
        <time>2021-06-01T13:52:28.131Z</time>
      </trkpt>
      <trkpt lat="44.13875" lon="5.87289">
        <ele>902</ele>
        <time>2021-06-01T13:52:29.131Z</time>
      </trkpt>
      <trkpt lat="44.13876" lon="5.87288">
        <ele>902</ele>
        <time>2021-06-01T13:52:30.131Z</time>
      </trkpt>
      <trkpt lat="44.13877" lon="5.87287">
        <ele>902</ele>
        <time>2021-06-01T13:52:31.131Z</time>
      </trkpt>
      <trkpt lat="44.13877" lon="5.87286">
        <ele>902</ele>
        <time>2021-06-01T13:52:32.131Z</time>
      </trkpt>
      <trkpt lat="44.13878" lon="5.87286">
        <ele>901</ele>
        <time>2021-06-01T13:52:33.131Z</time>
      </trkpt>
      <trkpt lat="44.13879" lon="5.87286">
        <ele>901</ele>
        <time>2021-06-01T13:52:34.131Z</time>
      </trkpt>
      <trkpt lat="44.1388" lon="5.87285">
        <ele>901</ele>
        <time>2021-06-01T13:52:35.131Z</time>
      </trkpt>
      <trkpt lat="44.13882" lon="5.87284">
        <ele>901</ele>
        <time>2021-06-01T13:52:36.131Z</time>
      </trkpt>
      <trkpt lat="44.13883" lon="5.87284">
        <ele>901</ele>
        <time>2021-06-01T13:52:37.131Z</time>
      </trkpt>
      <trkpt lat="44.13884" lon="5.87283">
        <ele>901</ele>
        <time>2021-06-01T13:52:38.131Z</time>
      </trkpt>
      <trkpt lat="44.13885" lon="5.87282">
        <ele>901</ele>
        <time>2021-06-01T13:52:39.131Z</time>
      </trkpt>
      <trkpt lat="44.13885" lon="5.87281">
        <ele>901</ele>
        <time>2021-06-01T13:52:40.131Z</time>
      </trkpt>
      <trkpt lat="44.13886" lon="5.8728">
        <ele>901</ele>
        <time>2021-06-01T13:52:41.131Z</time>
      </trkpt>
      <trkpt lat="44.13886" lon="5.8728">
        <ele>901</ele>
        <time>2021-06-01T13:52:42.131Z</time>
      </trkpt>
      <trkpt lat="44.13887" lon="5.87279">
        <ele>901</ele>
        <time>2021-06-01T13:52:43.131Z</time>
      </trkpt>
      <trkpt lat="44.13888" lon="5.87279">
        <ele>901</ele>
        <time>2021-06-01T13:52:44.131Z</time>
      </trkpt>
      <trkpt lat="44.13888" lon="5.87279">
        <ele>901</ele>
        <time>2021-06-01T13:52:45.131Z</time>
      </trkpt>
      <trkpt lat="44.13889" lon="5.87279">
        <ele>901</ele>
        <time>2021-06-01T13:52:46.131Z</time>
      </trkpt>
      <trkpt lat="44.13889" lon="5.87279">
        <ele>900</ele>
        <time>2021-06-01T13:52:47.131Z</time>
      </trkpt>
      <trkpt lat="44.1389" lon="5.87279">
        <ele>900</ele>
        <time>2021-06-01T13:52:48.131Z</time>
      </trkpt>
      <trkpt lat="44.13891" lon="5.87279">
        <ele>900</ele>
        <time>2021-06-01T13:52:49.131Z</time>
      </trkpt>
      <trkpt lat="44.13891" lon="5.87279">
        <ele>900</ele>
        <time>2021-06-01T13:52:50.131Z</time>
      </trkpt>
      <trkpt lat="44.13892" lon="5.87279">
        <ele>900</ele>
        <time>2021-06-01T13:52:51.131Z</time>
      </trkpt>
      <trkpt lat="44.13892" lon="5.87279">
        <ele>899</ele>
        <time>2021-06-01T13:52:52.131Z</time>
      </trkpt>
      <trkpt lat="44.13893" lon="5.87279">
        <ele>899</ele>
        <time>2021-06-01T13:52:53.131Z</time>
      </trkpt>
      <trkpt lat="44.13894" lon="5.87279">
        <ele>899</ele>
        <time>2021-06-01T13:52:54.131Z</time>
      </trkpt>
      <trkpt lat="44.13894" lon="5.87279">
        <ele>898</ele>
        <time>2021-06-01T13:52:55.131Z</time>
      </trkpt>
      <trkpt lat="44.13895" lon="5.87278">
        <ele>898</ele>
        <time>2021-06-01T13:52:56.131Z</time>
      </trkpt>
      <trkpt lat="44.13896" lon="5.87278">
        <ele>897</ele>
        <time>2021-06-01T13:52:57.131Z</time>
      </trkpt>
      <trkpt lat="44.13896" lon="5.87278">
        <ele>897</ele>
        <time>2021-06-01T13:52:58.131Z</time>
      </trkpt>
      <trkpt lat="44.13897" lon="5.87278">
        <ele>896</ele>
        <time>2021-06-01T13:52:59.131Z</time>
      </trkpt>
      <trkpt lat="44.13897" lon="5.87277">
        <ele>896</ele>
        <time>2021-06-01T13:53:00.131Z</time>
      </trkpt>
      <trkpt lat="44.13898" lon="5.87277">
        <ele>895</ele>
        <time>2021-06-01T13:53:01.131Z</time>
      </trkpt>
      <trkpt lat="44.13898" lon="5.87277">
        <ele>895</ele>
        <time>2021-06-01T13:53:02.131Z</time>
      </trkpt>
      <trkpt lat="44.13899" lon="5.87276">
        <ele>894</ele>
        <time>2021-06-01T13:53:03.131Z</time>
      </trkpt>
      <trkpt lat="44.13899" lon="5.87276">
        <ele>894</ele>
        <time>2021-06-01T13:53:04.131Z</time>
      </trkpt>
      <trkpt lat="44.13899" lon="5.87276">
        <ele>893</ele>
        <time>2021-06-01T13:53:05.131Z</time>
      </trkpt>
      <trkpt lat="44.139" lon="5.87275">
        <ele>893</ele>
        <time>2021-06-01T13:53:06.131Z</time>
      </trkpt>
      <trkpt lat="44.139" lon="5.87275">
        <ele>892</ele>
        <time>2021-06-01T13:53:07.131Z</time>
      </trkpt>
      <trkpt lat="44.13901" lon="5.87275">
        <ele>892</ele>
        <time>2021-06-01T13:53:08.131Z</time>
      </trkpt>
      <trkpt lat="44.13901" lon="5.87275">
        <ele>892</ele>
        <time>2021-06-01T13:53:09.131Z</time>
      </trkpt>
      <trkpt lat="44.13902" lon="5.87274">
        <ele>891</ele>
        <time>2021-06-01T13:53:10.131Z</time>
      </trkpt>
      <trkpt lat="44.13902" lon="5.87274">
        <ele>891</ele>
        <time>2021-06-01T13:53:11.131Z</time>
      </trkpt>
      <trkpt lat="44.13903" lon="5.87273">
        <ele>891</ele>
        <time>2021-06-01T13:53:12.131Z</time>
      </trkpt>
      <trkpt lat="44.13903" lon="5.87273">
        <ele>890</ele>
        <time>2021-06-01T13:53:13.131Z</time>
      </trkpt>
      <trkpt lat="44.13904" lon="5.87272">
        <ele>890</ele>
        <time>2021-06-01T13:53:14.131Z</time>
      </trkpt>
      <trkpt lat="44.13904" lon="5.87272">
        <ele>890</ele>
        <time>2021-06-01T13:53:15.131Z</time>
      </trkpt>
      <trkpt lat="44.13904" lon="5.87271">
        <ele>890</ele>
        <time>2021-06-01T13:53:16.131Z</time>
      </trkpt>
      <trkpt lat="44.13905" lon="5.87271">
        <ele>889</ele>
        <time>2021-06-01T13:53:17.131Z</time>
      </trkpt>
      <trkpt lat="44.13905" lon="5.87271">
        <ele>889</ele>
        <time>2021-06-01T13:53:18.131Z</time>
      </trkpt>
      <trkpt lat="44.13906" lon="5.87271">
        <ele>889</ele>
        <time>2021-06-01T13:53:19.131Z</time>
      </trkpt>
      <trkpt lat="44.13906" lon="5.8727">
        <ele>889</ele>
        <time>2021-06-01T13:53:20.131Z</time>
      </trkpt>
      <trkpt lat="44.13906" lon="5.87269">
        <ele>888</ele>
        <time>2021-06-01T13:53:21.131Z</time>
      </trkpt>
      <trkpt lat="44.13906" lon="5.87267">
        <ele>888</ele>
        <time>2021-06-01T13:53:22.131Z</time>
      </trkpt>
      <trkpt lat="44.13907" lon="5.87266">
        <ele>888</ele>
        <time>2021-06-01T13:53:23.131Z</time>
      </trkpt>
      <trkpt lat="44.13907" lon="5.87265">
        <ele>888</ele>
        <time>2021-06-01T13:53:24.131Z</time>
      </trkpt>
      <trkpt lat="44.13907" lon="5.87264">
        <ele>887</ele>
        <time>2021-06-01T13:53:25.131Z</time>
      </trkpt>
      <trkpt lat="44.13907" lon="5.87264">
        <ele>887</ele>
        <time>2021-06-01T13:53:26.131Z</time>
      </trkpt>
      <trkpt lat="44.13908" lon="5.87263">
        <ele>887</ele>
        <time>2021-06-01T13:53:27.131Z</time>
      </trkpt>
      <trkpt lat="44.13908" lon="5.87262">
        <ele>887</ele>
        <time>2021-06-01T13:53:28.131Z</time>
      </trkpt>
      <trkpt lat="44.13909" lon="5.87261">
        <ele>887</ele>
        <time>2021-06-01T13:53:29.131Z</time>
      </trkpt>
      <trkpt lat="44.1391" lon="5.8726">
        <ele>886</ele>
        <time>2021-06-01T13:53:30.131Z</time>
      </trkpt>
      <trkpt lat="44.1391" lon="5.8726">
        <ele>886</ele>
        <time>2021-06-01T13:53:31.131Z</time>
      </trkpt>
      <trkpt lat="44.13911" lon="5.8726">
        <ele>886</ele>
        <time>2021-06-01T13:53:32.131Z</time>
      </trkpt>
      <trkpt lat="44.13912" lon="5.87259">
        <ele>886</ele>
        <time>2021-06-01T13:53:33.131Z</time>
      </trkpt>
      <trkpt lat="44.13914" lon="5.87258">
        <ele>886</ele>
        <time>2021-06-01T13:53:34.131Z</time>
      </trkpt>
      <trkpt lat="44.13915" lon="5.87258">
        <ele>885</ele>
        <time>2021-06-01T13:53:35.131Z</time>
      </trkpt>
      <trkpt lat="44.13916" lon="5.87257">
        <ele>885</ele>
        <time>2021-06-01T13:53:36.131Z</time>
      </trkpt>
      <trkpt lat="44.13916" lon="5.87256">
        <ele>885</ele>
        <time>2021-06-01T13:53:37.131Z</time>
      </trkpt>
      <trkpt lat="44.13917" lon="5.87255">
        <ele>885</ele>
        <time>2021-06-01T13:53:38.131Z</time>
      </trkpt>
      <trkpt lat="44.13918" lon="5.87254">
        <ele>885</ele>
        <time>2021-06-01T13:53:39.131Z</time>
      </trkpt>
      <trkpt lat="44.13919" lon="5.87254">
        <ele>884</ele>
        <time>2021-06-01T13:53:40.131Z</time>
      </trkpt>
      <trkpt lat="44.1392" lon="5.87253">
        <ele>884</ele>
        <time>2021-06-01T13:53:41.131Z</time>
      </trkpt>
      <trkpt lat="44.13921" lon="5.87253">
        <ele>884</ele>
        <time>2021-06-01T13:53:42.131Z</time>
      </trkpt>
      <trkpt lat="44.13922" lon="5.87253">
        <ele>884</ele>
        <time>2021-06-01T13:53:43.131Z</time>
      </trkpt>
      <trkpt lat="44.13923" lon="5.87253">
        <ele>884</ele>
        <time>2021-06-01T13:53:44.131Z</time>
      </trkpt>
      <trkpt lat="44.13924" lon="5.87253">
        <ele>884</ele>
        <time>2021-06-01T13:53:45.131Z</time>
      </trkpt>
      <trkpt lat="44.13925" lon="5.87252">
        <ele>884</ele>
        <time>2021-06-01T13:53:46.131Z</time>
      </trkpt>
      <trkpt lat="44.13926" lon="5.87251">
        <ele>884</ele>
        <time>2021-06-01T13:53:47.131Z</time>
      </trkpt>
      <trkpt lat="44.13927" lon="5.8725">
        <ele>883</ele>
        <time>2021-06-01T13:53:48.131Z</time>
      </trkpt>
      <trkpt lat="44.13928" lon="5.87249">
        <ele>883</ele>
        <time>2021-06-01T13:53:49.131Z</time>
      </trkpt>
      <trkpt lat="44.1393" lon="5.87248">
        <ele>883</ele>
        <time>2021-06-01T13:53:50.131Z</time>
      </trkpt>
      <trkpt lat="44.13931" lon="5.87247">
        <ele>883</ele>
        <time>2021-06-01T13:53:51.131Z</time>
      </trkpt>
      <trkpt lat="44.13933" lon="5.87245">
        <ele>883</ele>
        <time>2021-06-01T13:53:52.131Z</time>
      </trkpt>
      <trkpt lat="44.13934" lon="5.87243">
        <ele>883</ele>
        <time>2021-06-01T13:53:53.131Z</time>
      </trkpt>
      <trkpt lat="44.13936" lon="5.87242">
        <ele>882</ele>
        <time>2021-06-01T13:53:54.131Z</time>
      </trkpt>
      <trkpt lat="44.13937" lon="5.87241">
        <ele>882</ele>
        <time>2021-06-01T13:53:55.131Z</time>
      </trkpt>
      <trkpt lat="44.13938" lon="5.8724">
        <ele>882</ele>
        <time>2021-06-01T13:53:56.131Z</time>
      </trkpt>
      <trkpt lat="44.13939" lon="5.87238">
        <ele>882</ele>
        <time>2021-06-01T13:53:57.131Z</time>
      </trkpt>
      <trkpt lat="44.1394" lon="5.87237">
        <ele>882</ele>
        <time>2021-06-01T13:53:58.131Z</time>
      </trkpt>
      <trkpt lat="44.13941" lon="5.87236">
        <ele>882</ele>
        <time>2021-06-01T13:53:59.131Z</time>
      </trkpt>
      <trkpt lat="44.13942" lon="5.87236">
        <ele>882</ele>
        <time>2021-06-01T13:54:00.131Z</time>
      </trkpt>
      <trkpt lat="44.13943" lon="5.87235">
        <ele>882</ele>
        <time>2021-06-01T13:54:01.131Z</time>
      </trkpt>
      <trkpt lat="44.13944" lon="5.87235">
        <ele>881</ele>
        <time>2021-06-01T13:54:02.131Z</time>
      </trkpt>
      <trkpt lat="44.13945" lon="5.87235">
        <ele>881</ele>
        <time>2021-06-01T13:54:03.131Z</time>
      </trkpt>
      <trkpt lat="44.13946" lon="5.87235">
        <ele>881</ele>
        <time>2021-06-01T13:54:04.131Z</time>
      </trkpt>
      <trkpt lat="44.13947" lon="5.87235">
        <ele>881</ele>
        <time>2021-06-01T13:54:05.131Z</time>
      </trkpt>
      <trkpt lat="44.13948" lon="5.87234">
        <ele>881</ele>
        <time>2021-06-01T13:54:06.131Z</time>
      </trkpt>
      <trkpt lat="44.13949" lon="5.87234">
        <ele>881</ele>
        <time>2021-06-01T13:54:07.131Z</time>
      </trkpt>
      <trkpt lat="44.1395" lon="5.87233">
        <ele>881</ele>
        <time>2021-06-01T13:54:08.131Z</time>
      </trkpt>
      <trkpt lat="44.13952" lon="5.87233">
        <ele>881</ele>
        <time>2021-06-01T13:54:09.131Z</time>
      </trkpt>
      <trkpt lat="44.13953" lon="5.87233">
        <ele>881</ele>
        <time>2021-06-01T13:54:10.131Z</time>
      </trkpt>
      <trkpt lat="44.13954" lon="5.87232">
        <ele>881</ele>
        <time>2021-06-01T13:54:11.131Z</time>
      </trkpt>
      <trkpt lat="44.13956" lon="5.87233">
        <ele>880</ele>
        <time>2021-06-01T13:54:12.131Z</time>
      </trkpt>
      <trkpt lat="44.13956" lon="5.87233">
        <ele>880</ele>
        <time>2021-06-01T13:54:13.131Z</time>
      </trkpt>
      <trkpt lat="44.13957" lon="5.87233">
        <ele>880</ele>
        <time>2021-06-01T13:54:14.131Z</time>
      </trkpt>
      <trkpt lat="44.13958" lon="5.87233">
        <ele>880</ele>
        <time>2021-06-01T13:54:15.131Z</time>
      </trkpt>
      <trkpt lat="44.13959" lon="5.87233">
        <ele>880</ele>
        <time>2021-06-01T13:54:16.131Z</time>
      </trkpt>
      <trkpt lat="44.13959" lon="5.87234">
        <ele>880</ele>
        <time>2021-06-01T13:54:17.131Z</time>
      </trkpt>
      <trkpt lat="44.1396" lon="5.87234">
        <ele>880</ele>
        <time>2021-06-01T13:54:18.131Z</time>
      </trkpt>
      <trkpt lat="44.13961" lon="5.87234">
        <ele>880</ele>
        <time>2021-06-01T13:54:19.131Z</time>
      </trkpt>
      <trkpt lat="44.13962" lon="5.87234">
        <ele>880</ele>
        <time>2021-06-01T13:54:20.131Z</time>
      </trkpt>
      <trkpt lat="44.13963" lon="5.87234">
        <ele>880</ele>
        <time>2021-06-01T13:54:21.131Z</time>
      </trkpt>
      <trkpt lat="44.13964" lon="5.87234">
        <ele>880</ele>
        <time>2021-06-01T13:54:22.131Z</time>
      </trkpt>
      <trkpt lat="44.13965" lon="5.87234">
        <ele>879</ele>
        <time>2021-06-01T13:54:23.131Z</time>
      </trkpt>
      <trkpt lat="44.13966" lon="5.87234">
        <ele>879</ele>
        <time>2021-06-01T13:54:24.131Z</time>
      </trkpt>
      <trkpt lat="44.13966" lon="5.87234">
        <ele>879</ele>
        <time>2021-06-01T13:54:25.131Z</time>
      </trkpt>
      <trkpt lat="44.13966" lon="5.87233">
        <ele>879</ele>
        <time>2021-06-01T13:54:26.131Z</time>
      </trkpt>
      <trkpt lat="44.13966" lon="5.87233">
        <ele>879</ele>
        <time>2021-06-01T13:54:27.131Z</time>
      </trkpt>
      <trkpt lat="44.13966" lon="5.87233">
        <ele>879</ele>
        <time>2021-06-01T13:54:28.131Z</time>
      </trkpt>
      <trkpt lat="44.13966" lon="5.87233">
        <ele>879</ele>
        <time>2021-06-01T13:54:29.131Z</time>
      </trkpt>
      <trkpt lat="44.13966" lon="5.87232">
        <ele>879</ele>
        <time>2021-06-01T13:54:30.131Z</time>
      </trkpt>
      <trkpt lat="44.13966" lon="5.87232">
        <ele>879</ele>
        <time>2021-06-01T13:54:31.131Z</time>
      </trkpt>
      <trkpt lat="44.13967" lon="5.87232">
        <ele>879</ele>
        <time>2021-06-01T13:54:32.131Z</time>
      </trkpt>
      <trkpt lat="44.13967" lon="5.87232">
        <ele>878</ele>
        <time>2021-06-01T13:54:33.131Z</time>
      </trkpt>
      <trkpt lat="44.13968" lon="5.87232">
        <ele>878</ele>
        <time>2021-06-01T13:54:34.131Z</time>
      </trkpt>
      <trkpt lat="44.13969" lon="5.87231">
        <ele>878</ele>
        <time>2021-06-01T13:54:35.131Z</time>
      </trkpt>
      <trkpt lat="44.13969" lon="5.87231">
        <ele>877</ele>
        <time>2021-06-01T13:54:36.131Z</time>
      </trkpt>
      <trkpt lat="44.1397" lon="5.87231">
        <ele>877</ele>
        <time>2021-06-01T13:54:37.131Z</time>
      </trkpt>
      <trkpt lat="44.13971" lon="5.8723">
        <ele>877</ele>
        <time>2021-06-01T13:54:38.131Z</time>
      </trkpt>
      <trkpt lat="44.13972" lon="5.8723">
        <ele>877</ele>
        <time>2021-06-01T13:54:39.131Z</time>
      </trkpt>
      <trkpt lat="44.13973" lon="5.87229">
        <ele>876</ele>
        <time>2021-06-01T13:54:40.131Z</time>
      </trkpt>
      <trkpt lat="44.13974" lon="5.87229">
        <ele>876</ele>
        <time>2021-06-01T13:54:41.131Z</time>
      </trkpt>
      <trkpt lat="44.13975" lon="5.87229">
        <ele>876</ele>
        <time>2021-06-01T13:54:42.131Z</time>
      </trkpt>
      <trkpt lat="44.13975" lon="5.87229">
        <ele>876</ele>
        <time>2021-06-01T13:54:43.131Z</time>
      </trkpt>
      <trkpt lat="44.13976" lon="5.87229">
        <ele>875</ele>
        <time>2021-06-01T13:54:44.131Z</time>
      </trkpt>
      <trkpt lat="44.13977" lon="5.87229">
        <ele>875</ele>
        <time>2021-06-01T13:54:45.131Z</time>
      </trkpt>
      <trkpt lat="44.13978" lon="5.87229">
        <ele>875</ele>
        <time>2021-06-01T13:54:46.131Z</time>
      </trkpt>
      <trkpt lat="44.13979" lon="5.87229">
        <ele>875</ele>
        <time>2021-06-01T13:54:47.131Z</time>
      </trkpt>
      <trkpt lat="44.1398" lon="5.87229">
        <ele>875</ele>
        <time>2021-06-01T13:54:48.131Z</time>
      </trkpt>
      <trkpt lat="44.13981" lon="5.87229">
        <ele>874</ele>
        <time>2021-06-01T13:54:49.131Z</time>
      </trkpt>
      <trkpt lat="44.13981" lon="5.87229">
        <ele>874</ele>
        <time>2021-06-01T13:54:50.131Z</time>
      </trkpt>
      <trkpt lat="44.13981" lon="5.87229">
        <ele>874</ele>
        <time>2021-06-01T13:54:51.131Z</time>
      </trkpt>
      <trkpt lat="44.13981" lon="5.87229">
        <ele>874</ele>
        <time>2021-06-01T13:54:52.131Z</time>
      </trkpt>
      <trkpt lat="44.13981" lon="5.87229">
        <ele>874</ele>
        <time>2021-06-01T13:54:53.131Z</time>
      </trkpt>
      <trkpt lat="44.13982" lon="5.87229">
        <ele>874</ele>
        <time>2021-06-01T13:54:54.131Z</time>
      </trkpt>
      <trkpt lat="44.13982" lon="5.87229">
        <ele>874</ele>
        <time>2021-06-01T13:54:55.131Z</time>
      </trkpt>
      <trkpt lat="44.13981" lon="5.87228">
        <ele>873</ele>
        <time>2021-06-01T13:54:56.131Z</time>
      </trkpt>
      <trkpt lat="44.13981" lon="5.87227">
        <ele>873</ele>
        <time>2021-06-01T13:54:57.131Z</time>
      </trkpt>
      <trkpt lat="44.13981" lon="5.87227">
        <ele>873</ele>
        <time>2021-06-01T13:54:58.131Z</time>
      </trkpt>
      <trkpt lat="44.13981" lon="5.87227">
        <ele>873</ele>
        <time>2021-06-01T13:54:59.131Z</time>
      </trkpt>
      <trkpt lat="44.13982" lon="5.87226">
        <ele>873</ele>
        <time>2021-06-01T13:55:00.131Z</time>
      </trkpt>
      <trkpt lat="44.13982" lon="5.87226">
        <ele>873</ele>
        <time>2021-06-01T13:55:01.131Z</time>
      </trkpt>
      <trkpt lat="44.13982" lon="5.87226">
        <ele>872</ele>
        <time>2021-06-01T13:55:02.131Z</time>
      </trkpt>
      <trkpt lat="44.13983" lon="5.87226">
        <ele>872</ele>
        <time>2021-06-01T13:55:03.131Z</time>
      </trkpt>
      <trkpt lat="44.13983" lon="5.87227">
        <ele>872</ele>
        <time>2021-06-01T13:55:04.131Z</time>
      </trkpt>
      <trkpt lat="44.13982" lon="5.87227">
        <ele>872</ele>
        <time>2021-06-01T13:55:05.131Z</time>
      </trkpt>
      <trkpt lat="44.13982" lon="5.87227">
        <ele>872</ele>
        <time>2021-06-01T13:55:06.131Z</time>
      </trkpt>
      <trkpt lat="44.13981" lon="5.87227">
        <ele>872</ele>
        <time>2021-06-01T13:55:07.131Z</time>
      </trkpt>
      <trkpt lat="44.13981" lon="5.87227">
        <ele>872</ele>
        <time>2021-06-01T13:55:08.131Z</time>
      </trkpt>
      <trkpt lat="44.13981" lon="5.87226">
        <ele>872</ele>
        <time>2021-06-01T13:55:09.131Z</time>
      </trkpt>
      <trkpt lat="44.13982" lon="5.87226">
        <ele>872</ele>
        <time>2021-06-01T13:55:10.131Z</time>
      </trkpt>
      <trkpt lat="44.13983" lon="5.87226">
        <ele>871</ele>
        <time>2021-06-01T13:55:11.131Z</time>
      </trkpt>
      <trkpt lat="44.13983" lon="5.87225">
        <ele>871</ele>
        <time>2021-06-01T13:55:12.131Z</time>
      </trkpt>
      <trkpt lat="44.13984" lon="5.87225">
        <ele>871</ele>
        <time>2021-06-01T13:55:13.131Z</time>
      </trkpt>
      <trkpt lat="44.13985" lon="5.87225">
        <ele>871</ele>
        <time>2021-06-01T13:55:14.131Z</time>
      </trkpt>
      <trkpt lat="44.13986" lon="5.87224">
        <ele>871</ele>
        <time>2021-06-01T13:55:15.131Z</time>
      </trkpt>
      <trkpt lat="44.13987" lon="5.87223">
        <ele>870</ele>
        <time>2021-06-01T13:55:16.131Z</time>
      </trkpt>
      <trkpt lat="44.13987" lon="5.87223">
        <ele>870</ele>
        <time>2021-06-01T13:55:17.131Z</time>
      </trkpt>
      <trkpt lat="44.13988" lon="5.87222">
        <ele>870</ele>
        <time>2021-06-01T13:55:18.131Z</time>
      </trkpt>
      <trkpt lat="44.13989" lon="5.87222">
        <ele>870</ele>
        <time>2021-06-01T13:55:19.131Z</time>
      </trkpt>
      <trkpt lat="44.1399" lon="5.87221">
        <ele>869</ele>
        <time>2021-06-01T13:55:20.131Z</time>
      </trkpt>
      <trkpt lat="44.1399" lon="5.87221">
        <ele>869</ele>
        <time>2021-06-01T13:55:21.131Z</time>
      </trkpt>
      <trkpt lat="44.1399" lon="5.87221">
        <ele>869</ele>
        <time>2021-06-01T13:55:22.131Z</time>
      </trkpt>
      <trkpt lat="44.13991" lon="5.87221">
        <ele>869</ele>
        <time>2021-06-01T13:55:23.131Z</time>
      </trkpt>
      <trkpt lat="44.13992" lon="5.8722">
        <ele>869</ele>
        <time>2021-06-01T13:55:24.131Z</time>
      </trkpt>
      <trkpt lat="44.13993" lon="5.87219">
        <ele>868</ele>
        <time>2021-06-01T13:55:25.131Z</time>
      </trkpt>
      <trkpt lat="44.13994" lon="5.87219">
        <ele>868</ele>
        <time>2021-06-01T13:55:26.131Z</time>
      </trkpt>
      <trkpt lat="44.13995" lon="5.87218">
        <ele>868</ele>
        <time>2021-06-01T13:55:27.131Z</time>
      </trkpt>
      <trkpt lat="44.13996" lon="5.87218">
        <ele>868</ele>
        <time>2021-06-01T13:55:28.131Z</time>
      </trkpt>
      <trkpt lat="44.13997" lon="5.87218">
        <ele>867</ele>
        <time>2021-06-01T13:55:29.131Z</time>
      </trkpt>
      <trkpt lat="44.13998" lon="5.87218">
        <ele>867</ele>
        <time>2021-06-01T13:55:30.131Z</time>
      </trkpt>
      <trkpt lat="44.13999" lon="5.87218">
        <ele>866</ele>
        <time>2021-06-01T13:55:31.131Z</time>
      </trkpt>
      <trkpt lat="44.14" lon="5.87219">
        <ele>866</ele>
        <time>2021-06-01T13:55:32.131Z</time>
      </trkpt>
      <trkpt lat="44.14001" lon="5.8722">
        <ele>865</ele>
        <time>2021-06-01T13:55:33.131Z</time>
      </trkpt>
      <trkpt lat="44.14001" lon="5.87221">
        <ele>865</ele>
        <time>2021-06-01T13:55:34.131Z</time>
      </trkpt>
      <trkpt lat="44.14001" lon="5.87223">
        <ele>864</ele>
        <time>2021-06-01T13:55:35.131Z</time>
      </trkpt>
      <trkpt lat="44.14002" lon="5.87223">
        <ele>864</ele>
        <time>2021-06-01T13:55:36.131Z</time>
      </trkpt>
      <trkpt lat="44.14002" lon="5.87224">
        <ele>863</ele>
        <time>2021-06-01T13:55:37.131Z</time>
      </trkpt>
      <trkpt lat="44.14002" lon="5.87225">
        <ele>863</ele>
        <time>2021-06-01T13:55:38.131Z</time>
      </trkpt>
      <trkpt lat="44.14002" lon="5.87225">
        <ele>862</ele>
        <time>2021-06-01T13:55:39.131Z</time>
      </trkpt>
      <trkpt lat="44.14002" lon="5.87226">
        <ele>862</ele>
        <time>2021-06-01T13:55:40.131Z</time>
      </trkpt>
      <trkpt lat="44.14002" lon="5.87227">
        <ele>861</ele>
        <time>2021-06-01T13:55:41.131Z</time>
      </trkpt>
      <trkpt lat="44.14002" lon="5.87228">
        <ele>860</ele>
        <time>2021-06-01T13:55:42.131Z</time>
      </trkpt>
      <trkpt lat="44.14003" lon="5.87229">
        <ele>860</ele>
        <time>2021-06-01T13:55:43.131Z</time>
      </trkpt>
      <trkpt lat="44.14003" lon="5.87229">
        <ele>859</ele>
        <time>2021-06-01T13:55:44.131Z</time>
      </trkpt>
      <trkpt lat="44.14003" lon="5.8723">
        <ele>859</ele>
        <time>2021-06-01T13:55:45.131Z</time>
      </trkpt>
      <trkpt lat="44.14003" lon="5.87231">
        <ele>858</ele>
        <time>2021-06-01T13:55:46.131Z</time>
      </trkpt>
      <trkpt lat="44.14004" lon="5.87232">
        <ele>858</ele>
        <time>2021-06-01T13:55:50.225Z</time>
      </trkpt>
      <trkpt lat="44.14004" lon="5.87232">
        <ele>858</ele>
        <time>2021-06-01T13:55:51.225Z</time>
      </trkpt>
      <trkpt lat="44.14004" lon="5.87233">
        <ele>857</ele>
        <time>2021-06-01T13:55:52.225Z</time>
      </trkpt>
      <trkpt lat="44.14003" lon="5.87233">
        <ele>857</ele>
        <time>2021-06-01T13:55:53.225Z</time>
      </trkpt>
      <trkpt lat="44.14003" lon="5.87234">
        <ele>857</ele>
        <time>2021-06-01T13:55:54.225Z</time>
      </trkpt>
      <trkpt lat="44.14003" lon="5.87233">
        <ele>856</ele>
        <time>2021-06-01T13:55:55.225Z</time>
      </trkpt>
      <trkpt lat="44.14003" lon="5.87233">
        <ele>856</ele>
        <time>2021-06-01T13:55:56.225Z</time>
      </trkpt>
      <trkpt lat="44.14003" lon="5.87234">
        <ele>856</ele>
        <time>2021-06-01T13:55:57.225Z</time>
      </trkpt>
      <trkpt lat="44.14003" lon="5.87234">
        <ele>856</ele>
        <time>2021-06-01T13:55:58.225Z</time>
      </trkpt>
      <trkpt lat="44.14001" lon="5.87234">
        <ele>855</ele>
        <time>2021-06-01T13:55:59.225Z</time>
      </trkpt>
      <trkpt lat="44.13999" lon="5.87233">
        <ele>855</ele>
        <time>2021-06-01T13:56:00.225Z</time>
      </trkpt>
      <trkpt lat="44.13997" lon="5.87233">
        <ele>855</ele>
        <time>2021-06-01T13:56:01.225Z</time>
      </trkpt>
      <trkpt lat="44.13995" lon="5.87233">
        <ele>855</ele>
        <time>2021-06-01T13:56:02.225Z</time>
      </trkpt>
      <trkpt lat="44.13994" lon="5.87233">
        <ele>855</ele>
        <time>2021-06-01T13:56:03.225Z</time>
      </trkpt>
      <trkpt lat="44.13994" lon="5.87233">
        <ele>854</ele>
        <time>2021-06-01T13:56:04.225Z</time>
      </trkpt>
      <trkpt lat="44.13994" lon="5.87234">
        <ele>854</ele>
        <time>2021-06-01T13:56:05.225Z</time>
      </trkpt>
      <trkpt lat="44.13994" lon="5.87234">
        <ele>854</ele>
        <time>2021-06-01T13:56:06.225Z</time>
      </trkpt>
      <trkpt lat="44.13994" lon="5.87235">
        <ele>853</ele>
        <time>2021-06-01T13:56:07.225Z</time>
      </trkpt>
      <trkpt lat="44.13995" lon="5.87236">
        <ele>853</ele>
        <time>2021-06-01T13:56:08.225Z</time>
      </trkpt>
      <trkpt lat="44.13995" lon="5.87236">
        <ele>853</ele>
        <time>2021-06-01T13:56:09.225Z</time>
      </trkpt>
      <trkpt lat="44.13996" lon="5.87236">
        <ele>853</ele>
        <time>2021-06-01T13:56:10.225Z</time>
      </trkpt>
      <trkpt lat="44.13997" lon="5.87237">
        <ele>852</ele>
        <time>2021-06-01T13:56:11.225Z</time>
      </trkpt>
      <trkpt lat="44.13997" lon="5.87237">
        <ele>852</ele>
        <time>2021-06-01T13:56:12.225Z</time>
      </trkpt>
      <trkpt lat="44.13998" lon="5.87237">
        <ele>852</ele>
        <time>2021-06-01T13:56:13.225Z</time>
      </trkpt>
      <trkpt lat="44.13999" lon="5.87238">
        <ele>851</ele>
        <time>2021-06-01T13:56:14.225Z</time>
      </trkpt>
      <trkpt lat="44.14" lon="5.87238">
        <ele>851</ele>
        <time>2021-06-01T13:56:15.225Z</time>
      </trkpt>
      <trkpt lat="44.14001" lon="5.87238">
        <ele>851</ele>
        <time>2021-06-01T13:56:16.225Z</time>
      </trkpt>
      <trkpt lat="44.14002" lon="5.87239">
        <ele>851</ele>
        <time>2021-06-01T13:56:17.225Z</time>
      </trkpt>
      <trkpt lat="44.14003" lon="5.8724">
        <ele>851</ele>
        <time>2021-06-01T13:56:18.225Z</time>
      </trkpt>
      <trkpt lat="44.14004" lon="5.8724">
        <ele>850</ele>
        <time>2021-06-01T13:56:19.225Z</time>
      </trkpt>
      <trkpt lat="44.14005" lon="5.87241">
        <ele>850</ele>
        <time>2021-06-01T13:56:20.225Z</time>
      </trkpt>
      <trkpt lat="44.14005" lon="5.87241">
        <ele>850</ele>
        <time>2021-06-01T13:56:21.225Z</time>
      </trkpt>
      <trkpt lat="44.14006" lon="5.87241">
        <ele>850</ele>
        <time>2021-06-01T13:56:22.225Z</time>
      </trkpt>
      <trkpt lat="44.14007" lon="5.87241">
        <ele>850</ele>
        <time>2021-06-01T13:56:23.225Z</time>
      </trkpt>
      <trkpt lat="44.14007" lon="5.87241">
        <ele>850</ele>
        <time>2021-06-01T13:56:24.225Z</time>
      </trkpt>
      <trkpt lat="44.14008" lon="5.87241">
        <ele>849</ele>
        <time>2021-06-01T13:56:25.225Z</time>
      </trkpt>
      <trkpt lat="44.14008" lon="5.87242">
        <ele>849</ele>
        <time>2021-06-01T13:56:26.225Z</time>
      </trkpt>
      <trkpt lat="44.14009" lon="5.87242">
        <ele>849</ele>
        <time>2021-06-01T13:56:27.225Z</time>
      </trkpt>
      <trkpt lat="44.1401" lon="5.87242">
        <ele>849</ele>
        <time>2021-06-01T13:56:28.225Z</time>
      </trkpt>
      <trkpt lat="44.1401" lon="5.87242">
        <ele>849</ele>
        <time>2021-06-01T13:56:29.225Z</time>
      </trkpt>
      <trkpt lat="44.14011" lon="5.87242">
        <ele>848</ele>
        <time>2021-06-01T13:56:30.225Z</time>
      </trkpt>
      <trkpt lat="44.14012" lon="5.87242">
        <ele>848</ele>
        <time>2021-06-01T13:56:31.225Z</time>
      </trkpt>
      <trkpt lat="44.14013" lon="5.87242">
        <ele>848</ele>
        <time>2021-06-01T13:56:32.225Z</time>
      </trkpt>
      <trkpt lat="44.14013" lon="5.87242">
        <ele>848</ele>
        <time>2021-06-01T13:56:33.225Z</time>
      </trkpt>
      <trkpt lat="44.14015" lon="5.87242">
        <ele>847</ele>
        <time>2021-06-01T13:56:34.225Z</time>
      </trkpt>
      <trkpt lat="44.14016" lon="5.87241">
        <ele>847</ele>
        <time>2021-06-01T13:56:35.225Z</time>
      </trkpt>
      <trkpt lat="44.14018" lon="5.87241">
        <ele>847</ele>
        <time>2021-06-01T13:56:36.225Z</time>
      </trkpt>
      <trkpt lat="44.14019" lon="5.87242">
        <ele>846</ele>
        <time>2021-06-01T13:56:37.225Z</time>
      </trkpt>
      <trkpt lat="44.1402" lon="5.87242">
        <ele>846</ele>
        <time>2021-06-01T13:56:38.225Z</time>
      </trkpt>
      <trkpt lat="44.14021" lon="5.87242">
        <ele>846</ele>
        <time>2021-06-01T13:56:39.225Z</time>
      </trkpt>
      <trkpt lat="44.14022" lon="5.87242">
        <ele>846</ele>
        <time>2021-06-01T13:56:40.225Z</time>
      </trkpt>
      <trkpt lat="44.14022" lon="5.87242">
        <ele>845</ele>
        <time>2021-06-01T13:56:41.225Z</time>
      </trkpt>
      <trkpt lat="44.14023" lon="5.87242">
        <ele>845</ele>
        <time>2021-06-01T13:56:42.225Z</time>
      </trkpt>
      <trkpt lat="44.14024" lon="5.87242">
        <ele>845</ele>
        <time>2021-06-01T13:56:43.225Z</time>
      </trkpt>
      <trkpt lat="44.14024" lon="5.87243">
        <ele>844</ele>
        <time>2021-06-01T13:56:44.225Z</time>
      </trkpt>
      <trkpt lat="44.14025" lon="5.87244">
        <ele>844</ele>
        <time>2021-06-01T13:56:45.225Z</time>
      </trkpt>
      <trkpt lat="44.14025" lon="5.87244">
        <ele>844</ele>
        <time>2021-06-01T13:56:46.225Z</time>
      </trkpt>
      <trkpt lat="44.14025" lon="5.87245">
        <ele>843</ele>
        <time>2021-06-01T13:56:47.225Z</time>
      </trkpt>
      <trkpt lat="44.14026" lon="5.87245">
        <ele>843</ele>
        <time>2021-06-01T13:56:48.225Z</time>
      </trkpt>
      <trkpt lat="44.14026" lon="5.87245">
        <ele>843</ele>
        <time>2021-06-01T13:56:49.225Z</time>
      </trkpt>
      <trkpt lat="44.14027" lon="5.87245">
        <ele>843</ele>
        <time>2021-06-01T13:56:50.225Z</time>
      </trkpt>
      <trkpt lat="44.14028" lon="5.87245">
        <ele>842</ele>
        <time>2021-06-01T13:56:51.225Z</time>
      </trkpt>
      <trkpt lat="44.14029" lon="5.87245">
        <ele>842</ele>
        <time>2021-06-01T13:56:52.225Z</time>
      </trkpt>
      <trkpt lat="44.14029" lon="5.87244">
        <ele>842</ele>
        <time>2021-06-01T13:56:53.225Z</time>
      </trkpt>
      <trkpt lat="44.1403" lon="5.87244">
        <ele>842</ele>
        <time>2021-06-01T13:56:54.225Z</time>
      </trkpt>
      <trkpt lat="44.1403" lon="5.87243">
        <ele>841</ele>
        <time>2021-06-01T13:56:55.225Z</time>
      </trkpt>
      <trkpt lat="44.1403" lon="5.87243">
        <ele>841</ele>
        <time>2021-06-01T13:56:56.225Z</time>
      </trkpt>
      <trkpt lat="44.14031" lon="5.87243">
        <ele>841</ele>
        <time>2021-06-01T13:56:57.225Z</time>
      </trkpt>
      <trkpt lat="44.14032" lon="5.87243">
        <ele>841</ele>
        <time>2021-06-01T13:56:58.225Z</time>
      </trkpt>
      <trkpt lat="44.14032" lon="5.87243">
        <ele>840</ele>
        <time>2021-06-01T13:56:59.225Z</time>
      </trkpt>
      <trkpt lat="44.14033" lon="5.87243">
        <ele>840</ele>
        <time>2021-06-01T13:57:00.225Z</time>
      </trkpt>
      <trkpt lat="44.14033" lon="5.87243">
        <ele>840</ele>
        <time>2021-06-01T13:57:01.225Z</time>
      </trkpt>
      <trkpt lat="44.14033" lon="5.87243">
        <ele>840</ele>
        <time>2021-06-01T13:57:02.225Z</time>
      </trkpt>
      <trkpt lat="44.14034" lon="5.87242">
        <ele>840</ele>
        <time>2021-06-01T13:57:03.225Z</time>
      </trkpt>
      <trkpt lat="44.14034" lon="5.87242">
        <ele>839</ele>
        <time>2021-06-01T13:57:04.225Z</time>
      </trkpt>
      <trkpt lat="44.14034" lon="5.87242">
        <ele>839</ele>
        <time>2021-06-01T13:57:05.225Z</time>
      </trkpt>
      <trkpt lat="44.14034" lon="5.87241">
        <ele>839</ele>
        <time>2021-06-01T13:57:06.225Z</time>
      </trkpt>
      <trkpt lat="44.14034" lon="5.87241">
        <ele>838</ele>
        <time>2021-06-01T13:57:07.225Z</time>
      </trkpt>
      <trkpt lat="44.14035" lon="5.87241">
        <ele>838</ele>
        <time>2021-06-01T13:57:08.225Z</time>
      </trkpt>
      <trkpt lat="44.14035" lon="5.8724">
        <ele>838</ele>
        <time>2021-06-01T13:57:09.225Z</time>
      </trkpt>
      <trkpt lat="44.14036" lon="5.8724">
        <ele>837</ele>
        <time>2021-06-01T13:57:10.225Z</time>
      </trkpt>
      <trkpt lat="44.14037" lon="5.8724">
        <ele>837</ele>
        <time>2021-06-01T13:57:11.225Z</time>
      </trkpt>
      <trkpt lat="44.14037" lon="5.87239">
        <ele>837</ele>
        <time>2021-06-01T13:57:12.225Z</time>
      </trkpt>
      <trkpt lat="44.14038" lon="5.87239">
        <ele>837</ele>
        <time>2021-06-01T13:57:13.225Z</time>
      </trkpt>
      <trkpt lat="44.14038" lon="5.87239">
        <ele>836</ele>
        <time>2021-06-01T13:57:14.225Z</time>
      </trkpt>
      <trkpt lat="44.14039" lon="5.87238">
        <ele>836</ele>
        <time>2021-06-01T13:57:15.225Z</time>
      </trkpt>
      <trkpt lat="44.14039" lon="5.87238">
        <ele>836</ele>
        <time>2021-06-01T13:57:16.225Z</time>
      </trkpt>
      <trkpt lat="44.1404" lon="5.87238">
        <ele>835</ele>
        <time>2021-06-01T13:57:17.225Z</time>
      </trkpt>
      <trkpt lat="44.1404" lon="5.87238">
        <ele>835</ele>
        <time>2021-06-01T13:57:18.225Z</time>
      </trkpt>
      <trkpt lat="44.14041" lon="5.87238">
        <ele>835</ele>
        <time>2021-06-01T13:57:19.225Z</time>
      </trkpt>
      <trkpt lat="44.14041" lon="5.87238">
        <ele>834</ele>
        <time>2021-06-01T13:57:20.225Z</time>
      </trkpt>
      <trkpt lat="44.14042" lon="5.87237">
        <ele>834</ele>
        <time>2021-06-01T13:57:21.225Z</time>
      </trkpt>
      <trkpt lat="44.14043" lon="5.87237">
        <ele>833</ele>
        <time>2021-06-01T13:57:22.225Z</time>
      </trkpt>
      <trkpt lat="44.14044" lon="5.87236">
        <ele>833</ele>
        <time>2021-06-01T13:57:23.225Z</time>
      </trkpt>
      <trkpt lat="44.14045" lon="5.87236">
        <ele>833</ele>
        <time>2021-06-01T13:57:24.225Z</time>
      </trkpt>
      <trkpt lat="44.14045" lon="5.87235">
        <ele>832</ele>
        <time>2021-06-01T13:57:25.225Z</time>
      </trkpt>
      <trkpt lat="44.14046" lon="5.87235">
        <ele>832</ele>
        <time>2021-06-01T13:57:26.225Z</time>
      </trkpt>
      <trkpt lat="44.14047" lon="5.87234">
        <ele>831</ele>
        <time>2021-06-01T13:57:27.225Z</time>
      </trkpt>
      <trkpt lat="44.14048" lon="5.87234">
        <ele>831</ele>
        <time>2021-06-01T13:57:28.225Z</time>
      </trkpt>
      <trkpt lat="44.14049" lon="5.87234">
        <ele>831</ele>
        <time>2021-06-01T13:57:29.225Z</time>
      </trkpt>
      <trkpt lat="44.14049" lon="5.87234">
        <ele>831</ele>
        <time>2021-06-01T13:57:30.225Z</time>
      </trkpt>
      <trkpt lat="44.14049" lon="5.87234">
        <ele>830</ele>
        <time>2021-06-01T13:57:31.225Z</time>
      </trkpt>
      <trkpt lat="44.14049" lon="5.87234">
        <ele>830</ele>
        <time>2021-06-01T13:57:32.225Z</time>
      </trkpt>
      <trkpt lat="44.14049" lon="5.87233">
        <ele>830</ele>
        <time>2021-06-01T13:57:33.225Z</time>
      </trkpt>
      <trkpt lat="44.1405" lon="5.87233">
        <ele>829</ele>
        <time>2021-06-01T13:57:34.225Z</time>
      </trkpt>
      <trkpt lat="44.1405" lon="5.87232">
        <ele>829</ele>
        <time>2021-06-01T13:57:35.225Z</time>
      </trkpt>
      <trkpt lat="44.14051" lon="5.87231">
        <ele>829</ele>
        <time>2021-06-01T13:57:36.225Z</time>
      </trkpt>
      <trkpt lat="44.14052" lon="5.8723">
        <ele>829</ele>
        <time>2021-06-01T13:57:37.225Z</time>
      </trkpt>
      <trkpt lat="44.14052" lon="5.87229">
        <ele>828</ele>
        <time>2021-06-01T13:57:38.225Z</time>
      </trkpt>
      <trkpt lat="44.14053" lon="5.87228">
        <ele>828</ele>
        <time>2021-06-01T13:57:39.225Z</time>
      </trkpt>
      <trkpt lat="44.14054" lon="5.87227">
        <ele>828</ele>
        <time>2021-06-01T13:57:40.225Z</time>
      </trkpt>
      <trkpt lat="44.14055" lon="5.87227">
        <ele>827</ele>
        <time>2021-06-01T13:57:41.225Z</time>
      </trkpt>
      <trkpt lat="44.14056" lon="5.87226">
        <ele>827</ele>
        <time>2021-06-01T13:57:42.225Z</time>
      </trkpt>
      <trkpt lat="44.14056" lon="5.87225">
        <ele>827</ele>
        <time>2021-06-01T13:57:43.225Z</time>
      </trkpt>
      <trkpt lat="44.14057" lon="5.87225">
        <ele>827</ele>
        <time>2021-06-01T13:57:44.225Z</time>
      </trkpt>
      <trkpt lat="44.14057" lon="5.87224">
        <ele>826</ele>
        <time>2021-06-01T13:57:45.225Z</time>
      </trkpt>
      <trkpt lat="44.14058" lon="5.87223">
        <ele>826</ele>
        <time>2021-06-01T13:57:46.225Z</time>
      </trkpt>
      <trkpt lat="44.14059" lon="5.87222">
        <ele>826</ele>
        <time>2021-06-01T13:57:47.225Z</time>
      </trkpt>
      <trkpt lat="44.1406" lon="5.87221">
        <ele>826</ele>
        <time>2021-06-01T13:57:48.225Z</time>
      </trkpt>
      <trkpt lat="44.14061" lon="5.8722">
        <ele>826</ele>
        <time>2021-06-01T13:57:49.225Z</time>
      </trkpt>
      <trkpt lat="44.14062" lon="5.87219">
        <ele>825</ele>
        <time>2021-06-01T13:57:50.225Z</time>
      </trkpt>
      <trkpt lat="44.14063" lon="5.87218">
        <ele>825</ele>
        <time>2021-06-01T13:57:51.225Z</time>
      </trkpt>
      <trkpt lat="44.14063" lon="5.87217">
        <ele>825</ele>
        <time>2021-06-01T13:57:52.225Z</time>
      </trkpt>
      <trkpt lat="44.14064" lon="5.87216">
        <ele>825</ele>
        <time>2021-06-01T13:57:53.225Z</time>
      </trkpt>
      <trkpt lat="44.14065" lon="5.87215">
        <ele>824</ele>
        <time>2021-06-01T13:57:54.225Z</time>
      </trkpt>
      <trkpt lat="44.14066" lon="5.87214">
        <ele>824</ele>
        <time>2021-06-01T13:57:55.225Z</time>
      </trkpt>
      <trkpt lat="44.14067" lon="5.87213">
        <ele>824</ele>
        <time>2021-06-01T13:57:56.225Z</time>
      </trkpt>
      <trkpt lat="44.14068" lon="5.87213">
        <ele>824</ele>
        <time>2021-06-01T13:57:57.225Z</time>
      </trkpt>
      <trkpt lat="44.14068" lon="5.87213">
        <ele>823</ele>
        <time>2021-06-01T13:57:58.225Z</time>
      </trkpt>
      <trkpt lat="44.14069" lon="5.87213">
        <ele>823</ele>
        <time>2021-06-01T13:57:59.225Z</time>
      </trkpt>
      <trkpt lat="44.1407" lon="5.87212">
        <ele>823</ele>
        <time>2021-06-01T13:58:00.225Z</time>
      </trkpt>
      <trkpt lat="44.14071" lon="5.87212">
        <ele>823</ele>
        <time>2021-06-01T13:58:01.225Z</time>
      </trkpt>
      <trkpt lat="44.14072" lon="5.87211">
        <ele>823</ele>
        <time>2021-06-01T13:58:02.225Z</time>
      </trkpt>
      <trkpt lat="44.14073" lon="5.87211">
        <ele>823</ele>
        <time>2021-06-01T13:58:03.225Z</time>
      </trkpt>
      <trkpt lat="44.14074" lon="5.87211">
        <ele>822</ele>
        <time>2021-06-01T13:58:04.225Z</time>
      </trkpt>
      <trkpt lat="44.14075" lon="5.8721">
        <ele>822</ele>
        <time>2021-06-01T13:58:05.225Z</time>
      </trkpt>
      <trkpt lat="44.14076" lon="5.8721">
        <ele>822</ele>
        <time>2021-06-01T13:58:06.225Z</time>
      </trkpt>
      <trkpt lat="44.14076" lon="5.8721">
        <ele>822</ele>
        <time>2021-06-01T13:58:07.225Z</time>
      </trkpt>
      <trkpt lat="44.14077" lon="5.8721">
        <ele>822</ele>
        <time>2021-06-01T13:58:08.225Z</time>
      </trkpt>
      <trkpt lat="44.14077" lon="5.87209">
        <ele>822</ele>
        <time>2021-06-01T13:58:09.225Z</time>
      </trkpt>
      <trkpt lat="44.14077" lon="5.87208">
        <ele>822</ele>
        <time>2021-06-01T13:58:10.225Z</time>
      </trkpt>
      <trkpt lat="44.14078" lon="5.87208">
        <ele>821</ele>
        <time>2021-06-01T13:58:11.225Z</time>
      </trkpt>
      <trkpt lat="44.14078" lon="5.87207">
        <ele>821</ele>
        <time>2021-06-01T13:58:12.225Z</time>
      </trkpt>
      <trkpt lat="44.14078" lon="5.87207">
        <ele>821</ele>
        <time>2021-06-01T13:58:13.225Z</time>
      </trkpt>
      <trkpt lat="44.14078" lon="5.87207">
        <ele>821</ele>
        <time>2021-06-01T13:58:14.225Z</time>
      </trkpt>
      <trkpt lat="44.14079" lon="5.87207">
        <ele>821</ele>
        <time>2021-06-01T13:58:15.225Z</time>
      </trkpt>
      <trkpt lat="44.14079" lon="5.87207">
        <ele>821</ele>
        <time>2021-06-01T13:58:16.225Z</time>
      </trkpt>
      <trkpt lat="44.14079" lon="5.87206">
        <ele>821</ele>
        <time>2021-06-01T13:58:17.225Z</time>
      </trkpt>
      <trkpt lat="44.14079" lon="5.87206">
        <ele>821</ele>
        <time>2021-06-01T13:58:18.225Z</time>
      </trkpt>
      <trkpt lat="44.14079" lon="5.87206">
        <ele>821</ele>
        <time>2021-06-01T13:58:19.225Z</time>
      </trkpt>
      <trkpt lat="44.14079" lon="5.87206">
        <ele>821</ele>
        <time>2021-06-01T13:58:20.225Z</time>
      </trkpt>
      <trkpt lat="44.14079" lon="5.87205">
        <ele>821</ele>
        <time>2021-06-01T13:58:21.225Z</time>
      </trkpt>
      <trkpt lat="44.1408" lon="5.87205">
        <ele>821</ele>
        <time>2021-06-01T13:58:22.225Z</time>
      </trkpt>
      <trkpt lat="44.1408" lon="5.87205">
        <ele>821</ele>
        <time>2021-06-01T13:58:23.225Z</time>
      </trkpt>
      <trkpt lat="44.1408" lon="5.87205">
        <ele>821</ele>
        <time>2021-06-01T13:58:24.225Z</time>
      </trkpt>
      <trkpt lat="44.1408" lon="5.87205">
        <ele>821</ele>
        <time>2021-06-01T13:58:25.225Z</time>
      </trkpt>
      <trkpt lat="44.1408" lon="5.87205">
        <ele>821</ele>
        <time>2021-06-01T13:58:26.225Z</time>
      </trkpt>
      <trkpt lat="44.1408" lon="5.87205">
        <ele>821</ele>
        <time>2021-06-01T13:58:27.225Z</time>
      </trkpt>
      <trkpt lat="44.1408" lon="5.87205">
        <ele>821</ele>
        <time>2021-06-01T13:58:28.225Z</time>
      </trkpt>
      <trkpt lat="44.1408" lon="5.87204">
        <ele>821</ele>
        <time>2021-06-01T13:58:29.225Z</time>
      </trkpt>
      <trkpt lat="44.1408" lon="5.87204">
        <ele>821</ele>
        <time>2021-06-01T13:58:30.225Z</time>
      </trkpt>
      <trkpt lat="44.1408" lon="5.87204">
        <ele>821</ele>
        <time>2021-06-01T13:58:31.225Z</time>
      </trkpt>
      <trkpt lat="44.1408" lon="5.87204">
        <ele>821</ele>
        <time>2021-06-01T13:58:32.225Z</time>
      </trkpt>
      <trkpt lat="44.1408" lon="5.87204">
        <ele>821</ele>
        <time>2021-06-01T13:58:33.225Z</time>
      </trkpt>
      <trkpt lat="44.1408" lon="5.87204">
        <ele>821</ele>
        <time>2021-06-01T13:58:34.225Z</time>
      </trkpt>
      <trkpt lat="44.1408" lon="5.87203">
        <ele>820</ele>
        <time>2021-06-01T13:58:35.225Z</time>
      </trkpt>
      <trkpt lat="44.1408" lon="5.87203">
        <ele>820</ele>
        <time>2021-06-01T13:58:36.225Z</time>
      </trkpt>
      <trkpt lat="44.1408" lon="5.87203">
        <ele>820</ele>
        <time>2021-06-01T13:58:37.225Z</time>
      </trkpt>
      <trkpt lat="44.1408" lon="5.87203">
        <ele>820</ele>
        <time>2021-06-01T13:58:38.225Z</time>
      </trkpt>
      <trkpt lat="44.1408" lon="5.87202">
        <ele>820</ele>
        <time>2021-06-01T13:58:39.225Z</time>
      </trkpt>
      <trkpt lat="44.1408" lon="5.87202">
        <ele>820</ele>
        <time>2021-06-01T13:58:40.225Z</time>
      </trkpt>
      <trkpt lat="44.1408" lon="5.87201">
        <ele>820</ele>
        <time>2021-06-01T13:58:41.225Z</time>
      </trkpt>
      <trkpt lat="44.1408" lon="5.87201">
        <ele>820</ele>
        <time>2021-06-01T13:58:42.225Z</time>
      </trkpt>
      <trkpt lat="44.1408" lon="5.87201">
        <ele>820</ele>
        <time>2021-06-01T13:58:43.225Z</time>
      </trkpt>
      <trkpt lat="44.14081" lon="5.87201">
        <ele>820</ele>
        <time>2021-06-01T13:58:44.225Z</time>
      </trkpt>
      <trkpt lat="44.14081" lon="5.872">
        <ele>819</ele>
        <time>2021-06-01T13:58:45.225Z</time>
      </trkpt>
      <trkpt lat="44.14082" lon="5.872">
        <ele>819</ele>
        <time>2021-06-01T13:58:46.225Z</time>
      </trkpt>
      <trkpt lat="44.14082" lon="5.872">
        <ele>819</ele>
        <time>2021-06-01T13:58:47.225Z</time>
      </trkpt>
      <trkpt lat="44.14082" lon="5.872">
        <ele>819</ele>
        <time>2021-06-01T13:58:48.225Z</time>
      </trkpt>
      <trkpt lat="44.14083" lon="5.872">
        <ele>819</ele>
        <time>2021-06-01T13:58:49.225Z</time>
      </trkpt>
      <trkpt lat="44.14083" lon="5.87199">
        <ele>819</ele>
        <time>2021-06-01T13:58:50.225Z</time>
      </trkpt>
      <trkpt lat="44.14084" lon="5.87199">
        <ele>819</ele>
        <time>2021-06-01T13:58:51.225Z</time>
      </trkpt>
      <trkpt lat="44.14084" lon="5.872">
        <ele>818</ele>
        <time>2021-06-01T13:58:52.225Z</time>
      </trkpt>
      <trkpt lat="44.14085" lon="5.872">
        <ele>818</ele>
        <time>2021-06-01T13:58:53.225Z</time>
      </trkpt>
      <trkpt lat="44.14085" lon="5.872">
        <ele>818</ele>
        <time>2021-06-01T13:58:54.225Z</time>
      </trkpt>
      <trkpt lat="44.14086" lon="5.872">
        <ele>818</ele>
        <time>2021-06-01T13:58:55.225Z</time>
      </trkpt>
      <trkpt lat="44.14087" lon="5.872">
        <ele>818</ele>
        <time>2021-06-01T13:58:56.225Z</time>
      </trkpt>
      <trkpt lat="44.14088" lon="5.872">
        <ele>818</ele>
        <time>2021-06-01T13:58:57.225Z</time>
      </trkpt>
      <trkpt lat="44.14088" lon="5.872">
        <ele>817</ele>
        <time>2021-06-01T13:58:58.225Z</time>
      </trkpt>
      <trkpt lat="44.14089" lon="5.87201">
        <ele>817</ele>
        <time>2021-06-01T13:58:59.225Z</time>
      </trkpt>
      <trkpt lat="44.1409" lon="5.87201">
        <ele>817</ele>
        <time>2021-06-01T13:59:00.225Z</time>
      </trkpt>
      <trkpt lat="44.1409" lon="5.87201">
        <ele>817</ele>
        <time>2021-06-01T13:59:01.225Z</time>
      </trkpt>
      <trkpt lat="44.14091" lon="5.87201">
        <ele>817</ele>
        <time>2021-06-01T13:59:02.225Z</time>
      </trkpt>
      <trkpt lat="44.14091" lon="5.87201">
        <ele>817</ele>
        <time>2021-06-01T13:59:03.225Z</time>
      </trkpt>
      <trkpt lat="44.14092" lon="5.87201">
        <ele>817</ele>
        <time>2021-06-01T13:59:04.225Z</time>
      </trkpt>
      <trkpt lat="44.14093" lon="5.87201">
        <ele>817</ele>
        <time>2021-06-01T13:59:05.225Z</time>
      </trkpt>
      <trkpt lat="44.14093" lon="5.872">
        <ele>817</ele>
        <time>2021-06-01T13:59:06.225Z</time>
      </trkpt>
      <trkpt lat="44.14094" lon="5.872">
        <ele>816</ele>
        <time>2021-06-01T13:59:07.225Z</time>
      </trkpt>
      <trkpt lat="44.14095" lon="5.872">
        <ele>816</ele>
        <time>2021-06-01T13:59:08.225Z</time>
      </trkpt>
      <trkpt lat="44.14096" lon="5.87199">
        <ele>816</ele>
        <time>2021-06-01T13:59:09.225Z</time>
      </trkpt>
      <trkpt lat="44.14097" lon="5.87198">
        <ele>816</ele>
        <time>2021-06-01T13:59:10.225Z</time>
      </trkpt>
      <trkpt lat="44.14097" lon="5.87197">
        <ele>816</ele>
        <time>2021-06-01T13:59:11.225Z</time>
      </trkpt>
      <trkpt lat="44.14098" lon="5.87196">
        <ele>816</ele>
        <time>2021-06-01T13:59:12.225Z</time>
      </trkpt>
      <trkpt lat="44.14098" lon="5.87195">
        <ele>816</ele>
        <time>2021-06-01T13:59:13.225Z</time>
      </trkpt>
      <trkpt lat="44.14099" lon="5.87195">
        <ele>816</ele>
        <time>2021-06-01T13:59:14.225Z</time>
      </trkpt>
      <trkpt lat="44.141" lon="5.87194">
        <ele>815</ele>
        <time>2021-06-01T13:59:15.225Z</time>
      </trkpt>
      <trkpt lat="44.141" lon="5.87193">
        <ele>815</ele>
        <time>2021-06-01T13:59:16.225Z</time>
      </trkpt>
      <trkpt lat="44.14101" lon="5.87192">
        <ele>815</ele>
        <time>2021-06-01T13:59:17.225Z</time>
      </trkpt>
      <trkpt lat="44.14102" lon="5.87191">
        <ele>815</ele>
        <time>2021-06-01T14:29:18.464Z</time>
      </trkpt>
      <trkpt lat="44.14103" lon="5.8719">
        <ele>815</ele>
        <time>2021-06-01T14:29:19.464Z</time>
      </trkpt>
      <trkpt lat="44.14104" lon="5.87189">
        <ele>815</ele>
        <time>2021-06-01T14:29:20.464Z</time>
      </trkpt>
      <trkpt lat="44.14104" lon="5.87188">
        <ele>815</ele>
        <time>2021-06-01T14:29:21.464Z</time>
      </trkpt>
      <trkpt lat="44.14105" lon="5.87187">
        <ele>814</ele>
        <time>2021-06-01T14:29:22.464Z</time>
      </trkpt>
      <trkpt lat="44.14106" lon="5.87186">
        <ele>814</ele>
        <time>2021-06-01T14:29:23.464Z</time>
      </trkpt>
      <trkpt lat="44.14106" lon="5.87185">
        <ele>814</ele>
        <time>2021-06-01T14:29:24.464Z</time>
      </trkpt>
      <trkpt lat="44.14107" lon="5.87184">
        <ele>814</ele>
        <time>2021-06-01T14:29:25.464Z</time>
      </trkpt>
      <trkpt lat="44.14107" lon="5.87183">
        <ele>814</ele>
        <time>2021-06-01T14:29:26.464Z</time>
      </trkpt>
      <trkpt lat="44.14108" lon="5.87182">
        <ele>814</ele>
        <time>2021-06-01T14:29:27.464Z</time>
      </trkpt>
      <trkpt lat="44.14108" lon="5.8718">
        <ele>814</ele>
        <time>2021-06-01T14:29:28.464Z</time>
      </trkpt>
      <trkpt lat="44.14109" lon="5.87179">
        <ele>814</ele>
        <time>2021-06-01T14:29:29.464Z</time>
      </trkpt>
      <trkpt lat="44.14109" lon="5.87178">
        <ele>814</ele>
        <time>2021-06-01T14:29:30.464Z</time>
      </trkpt>
      <trkpt lat="44.1411" lon="5.87177">
        <ele>813</ele>
        <time>2021-06-01T14:29:31.464Z</time>
      </trkpt>
      <trkpt lat="44.14111" lon="5.87176">
        <ele>813</ele>
        <time>2021-06-01T14:29:32.464Z</time>
      </trkpt>
      <trkpt lat="44.14112" lon="5.87175">
        <ele>813</ele>
        <time>2021-06-01T14:29:33.464Z</time>
      </trkpt>
      <trkpt lat="44.14113" lon="5.87174">
        <ele>813</ele>
        <time>2021-06-01T14:29:34.464Z</time>
      </trkpt>
      <trkpt lat="44.14114" lon="5.87173">
        <ele>812</ele>
        <time>2021-06-01T14:29:35.464Z</time>
      </trkpt>
      <trkpt lat="44.14114" lon="5.87172">
        <ele>812</ele>
        <time>2021-06-01T14:29:36.464Z</time>
      </trkpt>
      <trkpt lat="44.14115" lon="5.87172">
        <ele>812</ele>
        <time>2021-06-01T14:29:37.464Z</time>
      </trkpt>
      <trkpt lat="44.14116" lon="5.87172">
        <ele>811</ele>
        <time>2021-06-01T14:29:38.464Z</time>
      </trkpt>
      <trkpt lat="44.14117" lon="5.87171">
        <ele>811</ele>
        <time>2021-06-01T14:29:39.464Z</time>
      </trkpt>
      <trkpt lat="44.14117" lon="5.8717">
        <ele>811</ele>
        <time>2021-06-01T14:29:40.464Z</time>
      </trkpt>
      <trkpt lat="44.14118" lon="5.8717">
        <ele>810</ele>
        <time>2021-06-01T14:29:41.464Z</time>
      </trkpt>
      <trkpt lat="44.14119" lon="5.87169">
        <ele>810</ele>
        <time>2021-06-01T14:29:42.464Z</time>
      </trkpt>
      <trkpt lat="44.1412" lon="5.87169">
        <ele>810</ele>
        <time>2021-06-01T14:29:43.464Z</time>
      </trkpt>
      <trkpt lat="44.1412" lon="5.87168">
        <ele>809</ele>
        <time>2021-06-01T14:29:44.464Z</time>
      </trkpt>
      <trkpt lat="44.14121" lon="5.87167">
        <ele>809</ele>
        <time>2021-06-01T14:29:45.464Z</time>
      </trkpt>
      <trkpt lat="44.14121" lon="5.87167">
        <ele>809</ele>
        <time>2021-06-01T14:29:46.464Z</time>
      </trkpt>
      <trkpt lat="44.14122" lon="5.87166">
        <ele>809</ele>
        <time>2021-06-01T14:29:47.464Z</time>
      </trkpt>
      <trkpt lat="44.14122" lon="5.87165">
        <ele>808</ele>
        <time>2021-06-01T14:29:48.464Z</time>
      </trkpt>
      <trkpt lat="44.14123" lon="5.87164">
        <ele>808</ele>
        <time>2021-06-01T14:29:49.464Z</time>
      </trkpt>
      <trkpt lat="44.14124" lon="5.87163">
        <ele>808</ele>
        <time>2021-06-01T14:29:50.464Z</time>
      </trkpt>
      <trkpt lat="44.14124" lon="5.87162">
        <ele>808</ele>
        <time>2021-06-01T14:29:51.464Z</time>
      </trkpt>
      <trkpt lat="44.14125" lon="5.87161">
        <ele>808</ele>
        <time>2021-06-01T14:29:52.464Z</time>
      </trkpt>
      <trkpt lat="44.14125" lon="5.8716">
        <ele>807</ele>
        <time>2021-06-01T14:29:53.464Z</time>
      </trkpt>
      <trkpt lat="44.14125" lon="5.87159">
        <ele>807</ele>
        <time>2021-06-01T14:29:54.464Z</time>
      </trkpt>
      <trkpt lat="44.14126" lon="5.87157">
        <ele>807</ele>
        <time>2021-06-01T14:29:55.464Z</time>
      </trkpt>
      <trkpt lat="44.14127" lon="5.87156">
        <ele>807</ele>
        <time>2021-06-01T14:29:56.464Z</time>
      </trkpt>
      <trkpt lat="44.14128" lon="5.87155">
        <ele>807</ele>
        <time>2021-06-01T14:29:57.464Z</time>
      </trkpt>
      <trkpt lat="44.14129" lon="5.87154">
        <ele>806</ele>
        <time>2021-06-01T14:29:58.464Z</time>
      </trkpt>
      <trkpt lat="44.1413" lon="5.87154">
        <ele>806</ele>
        <time>2021-06-01T14:29:59.464Z</time>
      </trkpt>
      <trkpt lat="44.14131" lon="5.87154">
        <ele>806</ele>
        <time>2021-06-01T14:30:00.464Z</time>
      </trkpt>
      <trkpt lat="44.14132" lon="5.87154">
        <ele>806</ele>
        <time>2021-06-01T14:30:01.464Z</time>
      </trkpt>
      <trkpt lat="44.14134" lon="5.87154">
        <ele>806</ele>
        <time>2021-06-01T14:30:02.464Z</time>
      </trkpt>
      <trkpt lat="44.14135" lon="5.87154">
        <ele>805</ele>
        <time>2021-06-01T14:30:03.464Z</time>
      </trkpt>
      <trkpt lat="44.14136" lon="5.87154">
        <ele>805</ele>
        <time>2021-06-01T14:30:04.464Z</time>
      </trkpt>
      <trkpt lat="44.14137" lon="5.87154">
        <ele>805</ele>
        <time>2021-06-01T14:30:05.464Z</time>
      </trkpt>
      <trkpt lat="44.14138" lon="5.87154">
        <ele>805</ele>
        <time>2021-06-01T14:30:06.464Z</time>
      </trkpt>
      <trkpt lat="44.14139" lon="5.87154">
        <ele>805</ele>
        <time>2021-06-01T14:30:07.464Z</time>
      </trkpt>
      <trkpt lat="44.1414" lon="5.87153">
        <ele>805</ele>
        <time>2021-06-01T14:30:08.464Z</time>
      </trkpt>
      <trkpt lat="44.14141" lon="5.87153">
        <ele>805</ele>
        <time>2021-06-01T14:30:09.464Z</time>
      </trkpt>
      <trkpt lat="44.14141" lon="5.87153">
        <ele>804</ele>
        <time>2021-06-01T14:30:10.464Z</time>
      </trkpt>
      <trkpt lat="44.14142" lon="5.87153">
        <ele>804</ele>
        <time>2021-06-01T14:30:11.464Z</time>
      </trkpt>
      <trkpt lat="44.14143" lon="5.87153">
        <ele>804</ele>
        <time>2021-06-01T14:30:12.464Z</time>
      </trkpt>
      <trkpt lat="44.14143" lon="5.87153">
        <ele>804</ele>
        <time>2021-06-01T14:30:13.464Z</time>
      </trkpt>
      <trkpt lat="44.14144" lon="5.87153">
        <ele>804</ele>
        <time>2021-06-01T14:30:14.464Z</time>
      </trkpt>
      <trkpt lat="44.14144" lon="5.87153">
        <ele>803</ele>
        <time>2021-06-01T14:30:15.464Z</time>
      </trkpt>
      <trkpt lat="44.14145" lon="5.87152">
        <ele>803</ele>
        <time>2021-06-01T14:30:16.464Z</time>
      </trkpt>
      <trkpt lat="44.14145" lon="5.87151">
        <ele>803</ele>
        <time>2021-06-01T14:30:17.464Z</time>
      </trkpt>
      <trkpt lat="44.14146" lon="5.87151">
        <ele>802</ele>
        <time>2021-06-01T14:30:18.464Z</time>
      </trkpt>
      <trkpt lat="44.14146" lon="5.8715">
        <ele>802</ele>
        <time>2021-06-01T14:30:19.464Z</time>
      </trkpt>
      <trkpt lat="44.14147" lon="5.87149">
        <ele>802</ele>
        <time>2021-06-01T14:30:20.464Z</time>
      </trkpt>
      <trkpt lat="44.14148" lon="5.87148">
        <ele>802</ele>
        <time>2021-06-01T14:30:21.464Z</time>
      </trkpt>
      <trkpt lat="44.14149" lon="5.87147">
        <ele>801</ele>
        <time>2021-06-01T14:30:22.464Z</time>
      </trkpt>
      <trkpt lat="44.1415" lon="5.87147">
        <ele>801</ele>
        <time>2021-06-01T14:30:23.464Z</time>
      </trkpt>
      <trkpt lat="44.1415" lon="5.87147">
        <ele>801</ele>
        <time>2021-06-01T14:30:24.464Z</time>
      </trkpt>
      <trkpt lat="44.14151" lon="5.87147">
        <ele>801</ele>
        <time>2021-06-01T14:30:25.464Z</time>
      </trkpt>
      <trkpt lat="44.14152" lon="5.87146">
        <ele>801</ele>
        <time>2021-06-01T14:30:26.464Z</time>
      </trkpt>
      <trkpt lat="44.14154" lon="5.87146">
        <ele>800</ele>
        <time>2021-06-01T14:30:27.464Z</time>
      </trkpt>
      <trkpt lat="44.14155" lon="5.87145">
        <ele>800</ele>
        <time>2021-06-01T14:30:28.464Z</time>
      </trkpt>
      <trkpt lat="44.14156" lon="5.87145">
        <ele>800</ele>
        <time>2021-06-01T14:30:29.464Z</time>
      </trkpt>
      <trkpt lat="44.14157" lon="5.87145">
        <ele>799</ele>
        <time>2021-06-01T14:30:30.464Z</time>
      </trkpt>
      <trkpt lat="44.14158" lon="5.87144">
        <ele>799</ele>
        <time>2021-06-01T14:30:31.464Z</time>
      </trkpt>
      <trkpt lat="44.14159" lon="5.87143">
        <ele>799</ele>
        <time>2021-06-01T14:30:32.464Z</time>
      </trkpt>
      <trkpt lat="44.1416" lon="5.87143">
        <ele>798</ele>
        <time>2021-06-01T14:30:33.464Z</time>
      </trkpt>
      <trkpt lat="44.14161" lon="5.87142">
        <ele>798</ele>
        <time>2021-06-01T14:30:34.464Z</time>
      </trkpt>
      <trkpt lat="44.14163" lon="5.87141">
        <ele>798</ele>
        <time>2021-06-01T14:30:35.464Z</time>
      </trkpt>
      <trkpt lat="44.14164" lon="5.8714">
        <ele>798</ele>
        <time>2021-06-01T14:30:36.464Z</time>
      </trkpt>
      <trkpt lat="44.14165" lon="5.8714">
        <ele>797</ele>
        <time>2021-06-01T14:30:37.464Z</time>
      </trkpt>
      <trkpt lat="44.14166" lon="5.8714">
        <ele>797</ele>
        <time>2021-06-01T14:30:38.464Z</time>
      </trkpt>
      <trkpt lat="44.14167" lon="5.87141">
        <ele>797</ele>
        <time>2021-06-01T14:30:39.464Z</time>
      </trkpt>
      <trkpt lat="44.14168" lon="5.87141">
        <ele>796</ele>
        <time>2021-06-01T14:30:40.464Z</time>
      </trkpt>
      <trkpt lat="44.1417" lon="5.87141">
        <ele>796</ele>
        <time>2021-06-01T14:30:41.464Z</time>
      </trkpt>
      <trkpt lat="44.14171" lon="5.87141">
        <ele>796</ele>
        <time>2021-06-01T14:30:42.464Z</time>
      </trkpt>
      <trkpt lat="44.14172" lon="5.87141">
        <ele>795</ele>
        <time>2021-06-01T14:30:43.464Z</time>
      </trkpt>
      <trkpt lat="44.14174" lon="5.87141">
        <ele>795</ele>
        <time>2021-06-01T14:30:44.464Z</time>
      </trkpt>
      <trkpt lat="44.14175" lon="5.87141">
        <ele>795</ele>
        <time>2021-06-01T14:30:45.464Z</time>
      </trkpt>
      <trkpt lat="44.14176" lon="5.87141">
        <ele>795</ele>
        <time>2021-06-01T14:30:46.464Z</time>
      </trkpt>
      <trkpt lat="44.14177" lon="5.87141">
        <ele>794</ele>
        <time>2021-06-01T14:30:47.464Z</time>
      </trkpt>
      <trkpt lat="44.14178" lon="5.87141">
        <ele>794</ele>
        <time>2021-06-01T14:30:48.464Z</time>
      </trkpt>
      <trkpt lat="44.14179" lon="5.87141">
        <ele>793</ele>
        <time>2021-06-01T14:30:49.464Z</time>
      </trkpt>
      <trkpt lat="44.1418" lon="5.8714">
        <ele>793</ele>
        <time>2021-06-01T14:30:50.464Z</time>
      </trkpt>
      <trkpt lat="44.14181" lon="5.8714">
        <ele>792</ele>
        <time>2021-06-01T14:30:51.464Z</time>
      </trkpt>
      <trkpt lat="44.14181" lon="5.87139">
        <ele>792</ele>
        <time>2021-06-01T14:30:52.464Z</time>
      </trkpt>
      <trkpt lat="44.14182" lon="5.87139">
        <ele>792</ele>
        <time>2021-06-01T14:30:53.464Z</time>
      </trkpt>
      <trkpt lat="44.14183" lon="5.87138">
        <ele>791</ele>
        <time>2021-06-01T14:30:54.464Z</time>
      </trkpt>
      <trkpt lat="44.14184" lon="5.87138">
        <ele>791</ele>
        <time>2021-06-01T14:30:55.464Z</time>
      </trkpt>
      <trkpt lat="44.14185" lon="5.87137">
        <ele>791</ele>
        <time>2021-06-01T14:30:56.464Z</time>
      </trkpt>
      <trkpt lat="44.14186" lon="5.87137">
        <ele>790</ele>
        <time>2021-06-01T14:30:57.464Z</time>
      </trkpt>
      <trkpt lat="44.14187" lon="5.87136">
        <ele>790</ele>
        <time>2021-06-01T14:30:58.464Z</time>
      </trkpt>
      <trkpt lat="44.14188" lon="5.87136">
        <ele>790</ele>
        <time>2021-06-01T14:30:59.464Z</time>
      </trkpt>
      <trkpt lat="44.14189" lon="5.87135">
        <ele>789</ele>
        <time>2021-06-01T14:31:00.464Z</time>
      </trkpt>
      <trkpt lat="44.1419" lon="5.87134">
        <ele>789</ele>
        <time>2021-06-01T14:31:01.464Z</time>
      </trkpt>
      <trkpt lat="44.14191" lon="5.87134">
        <ele>789</ele>
        <time>2021-06-01T14:31:02.464Z</time>
      </trkpt>
      <trkpt lat="44.14192" lon="5.87133">
        <ele>788</ele>
        <time>2021-06-01T14:31:03.464Z</time>
      </trkpt>
      <trkpt lat="44.14193" lon="5.87132">
        <ele>788</ele>
        <time>2021-06-01T14:31:04.464Z</time>
      </trkpt>
      <trkpt lat="44.14193" lon="5.87131">
        <ele>788</ele>
        <time>2021-06-01T14:31:05.464Z</time>
      </trkpt>
      <trkpt lat="44.14194" lon="5.87131">
        <ele>788</ele>
        <time>2021-06-01T14:31:06.464Z</time>
      </trkpt>
      <trkpt lat="44.14195" lon="5.8713">
        <ele>787</ele>
        <time>2021-06-01T14:31:07.464Z</time>
      </trkpt>
      <trkpt lat="44.14195" lon="5.8713">
        <ele>787</ele>
        <time>2021-06-01T14:31:08.464Z</time>
      </trkpt>
      <trkpt lat="44.14196" lon="5.87129">
        <ele>787</ele>
        <time>2021-06-01T14:31:09.464Z</time>
      </trkpt>
      <trkpt lat="44.14197" lon="5.87128">
        <ele>787</ele>
        <time>2021-06-01T14:31:10.464Z</time>
      </trkpt>
      <trkpt lat="44.14197" lon="5.87128">
        <ele>786</ele>
        <time>2021-06-01T14:31:11.464Z</time>
      </trkpt>
      <trkpt lat="44.14198" lon="5.87127">
        <ele>786</ele>
        <time>2021-06-01T14:31:12.464Z</time>
      </trkpt>
      <trkpt lat="44.14199" lon="5.87127">
        <ele>786</ele>
        <time>2021-06-01T14:31:13.464Z</time>
      </trkpt>
      <trkpt lat="44.14199" lon="5.87126">
        <ele>786</ele>
        <time>2021-06-01T14:31:14.464Z</time>
      </trkpt>
      <trkpt lat="44.142" lon="5.87126">
        <ele>785</ele>
        <time>2021-06-01T14:31:15.464Z</time>
      </trkpt>
      <trkpt lat="44.142" lon="5.87125">
        <ele>785</ele>
        <time>2021-06-01T14:31:16.464Z</time>
      </trkpt>
      <trkpt lat="44.14201" lon="5.87125">
        <ele>785</ele>
        <time>2021-06-01T14:31:17.464Z</time>
      </trkpt>
      <trkpt lat="44.14202" lon="5.87124">
        <ele>785</ele>
        <time>2021-06-01T14:31:18.464Z</time>
      </trkpt>
      <trkpt lat="44.14203" lon="5.87124">
        <ele>785</ele>
        <time>2021-06-01T14:31:19.464Z</time>
      </trkpt>
      <trkpt lat="44.14204" lon="5.87123">
        <ele>785</ele>
        <time>2021-06-01T14:31:20.464Z</time>
      </trkpt>
      <trkpt lat="44.14205" lon="5.87123">
        <ele>785</ele>
        <time>2021-06-01T14:31:21.464Z</time>
      </trkpt>
      <trkpt lat="44.14206" lon="5.87123">
        <ele>784</ele>
        <time>2021-06-01T14:31:22.464Z</time>
      </trkpt>
      <trkpt lat="44.14206" lon="5.87122">
        <ele>784</ele>
        <time>2021-06-01T14:31:23.464Z</time>
      </trkpt>
      <trkpt lat="44.14207" lon="5.87122">
        <ele>784</ele>
        <time>2021-06-01T14:31:24.464Z</time>
      </trkpt>
      <trkpt lat="44.14208" lon="5.87122">
        <ele>784</ele>
        <time>2021-06-01T14:31:25.464Z</time>
      </trkpt>
      <trkpt lat="44.14209" lon="5.87122">
        <ele>784</ele>
        <time>2021-06-01T14:31:26.464Z</time>
      </trkpt>
      <trkpt lat="44.14209" lon="5.87121">
        <ele>783</ele>
        <time>2021-06-01T14:31:27.464Z</time>
      </trkpt>
      <trkpt lat="44.1421" lon="5.8712">
        <ele>783</ele>
        <time>2021-06-01T14:31:28.464Z</time>
      </trkpt>
      <trkpt lat="44.1421" lon="5.87119">
        <ele>783</ele>
        <time>2021-06-01T14:31:29.464Z</time>
      </trkpt>
      <trkpt lat="44.14211" lon="5.87119">
        <ele>783</ele>
        <time>2021-06-01T14:31:30.464Z</time>
      </trkpt>
      <trkpt lat="44.14212" lon="5.87118">
        <ele>782</ele>
        <time>2021-06-01T14:31:31.464Z</time>
      </trkpt>
      <trkpt lat="44.14212" lon="5.87117">
        <ele>782</ele>
        <time>2021-06-01T14:31:32.464Z</time>
      </trkpt>
      <trkpt lat="44.14213" lon="5.87116">
        <ele>782</ele>
        <time>2021-06-01T14:31:33.464Z</time>
      </trkpt>
      <trkpt lat="44.14214" lon="5.87115">
        <ele>782</ele>
        <time>2021-06-01T14:31:34.464Z</time>
      </trkpt>
      <trkpt lat="44.14214" lon="5.87113">
        <ele>782</ele>
        <time>2021-06-01T14:31:35.464Z</time>
      </trkpt>
      <trkpt lat="44.14215" lon="5.87113">
        <ele>782</ele>
        <time>2021-06-01T14:31:36.464Z</time>
      </trkpt>
      <trkpt lat="44.14216" lon="5.87112">
        <ele>782</ele>
        <time>2021-06-01T14:31:37.464Z</time>
      </trkpt>
      <trkpt lat="44.14217" lon="5.87111">
        <ele>782</ele>
        <time>2021-06-01T14:31:38.464Z</time>
      </trkpt>
      <trkpt lat="44.14218" lon="5.87111">
        <ele>782</ele>
        <time>2021-06-01T14:31:39.464Z</time>
      </trkpt>
      <trkpt lat="44.14219" lon="5.8711">
        <ele>782</ele>
        <time>2021-06-01T14:31:40.464Z</time>
      </trkpt>
      <trkpt lat="44.1422" lon="5.8711">
        <ele>782</ele>
        <time>2021-06-01T14:31:41.464Z</time>
      </trkpt>
      <trkpt lat="44.14221" lon="5.87109">
        <ele>782</ele>
        <time>2021-06-01T14:31:42.464Z</time>
      </trkpt>
      <trkpt lat="44.14222" lon="5.87108">
        <ele>782</ele>
        <time>2021-06-01T14:31:43.464Z</time>
      </trkpt>
      <trkpt lat="44.14223" lon="5.87108">
        <ele>782</ele>
        <time>2021-06-01T14:31:44.464Z</time>
      </trkpt>
      <trkpt lat="44.14224" lon="5.87107">
        <ele>782</ele>
        <time>2021-06-01T14:31:45.464Z</time>
      </trkpt>
      <trkpt lat="44.14225" lon="5.87106">
        <ele>782</ele>
        <time>2021-06-01T14:31:46.464Z</time>
      </trkpt>
      <trkpt lat="44.14226" lon="5.87105">
        <ele>782</ele>
        <time>2021-06-01T14:31:47.464Z</time>
      </trkpt>
      <trkpt lat="44.14227" lon="5.87105">
        <ele>782</ele>
        <time>2021-06-01T14:31:48.464Z</time>
      </trkpt>
      <trkpt lat="44.14228" lon="5.87105">
        <ele>782</ele>
        <time>2021-06-01T14:31:49.464Z</time>
      </trkpt>
      <trkpt lat="44.14229" lon="5.87105">
        <ele>782</ele>
        <time>2021-06-01T14:31:50.464Z</time>
      </trkpt>
      <trkpt lat="44.14229" lon="5.87105">
        <ele>781</ele>
        <time>2021-06-01T14:31:51.464Z</time>
      </trkpt>
      <trkpt lat="44.1423" lon="5.87105">
        <ele>781</ele>
        <time>2021-06-01T14:31:52.464Z</time>
      </trkpt>
      <trkpt lat="44.14231" lon="5.87105">
        <ele>781</ele>
        <time>2021-06-01T14:31:53.464Z</time>
      </trkpt>
      <trkpt lat="44.14232" lon="5.87105">
        <ele>781</ele>
        <time>2021-06-01T14:31:54.464Z</time>
      </trkpt>
      <trkpt lat="44.14232" lon="5.87104">
        <ele>781</ele>
        <time>2021-06-01T14:31:55.464Z</time>
      </trkpt>
      <trkpt lat="44.14233" lon="5.87104">
        <ele>781</ele>
        <time>2021-06-01T14:31:56.464Z</time>
      </trkpt>
      <trkpt lat="44.14234" lon="5.87104">
        <ele>781</ele>
        <time>2021-06-01T14:31:57.464Z</time>
      </trkpt>
      <trkpt lat="44.14234" lon="5.87104">
        <ele>781</ele>
        <time>2021-06-01T14:31:58.464Z</time>
      </trkpt>
      <trkpt lat="44.14235" lon="5.87104">
        <ele>780</ele>
        <time>2021-06-01T14:31:59.464Z</time>
      </trkpt>
      <trkpt lat="44.14236" lon="5.87104">
        <ele>780</ele>
        <time>2021-06-01T14:32:00.464Z</time>
      </trkpt>
      <trkpt lat="44.14237" lon="5.87104">
        <ele>780</ele>
        <time>2021-06-01T14:32:01.464Z</time>
      </trkpt>
      <trkpt lat="44.14238" lon="5.87104">
        <ele>780</ele>
        <time>2021-06-01T14:32:02.464Z</time>
      </trkpt>
      <trkpt lat="44.14239" lon="5.87104">
        <ele>779</ele>
        <time>2021-06-01T14:32:03.464Z</time>
      </trkpt>
      <trkpt lat="44.1424" lon="5.87104">
        <ele>779</ele>
        <time>2021-06-01T14:32:04.464Z</time>
      </trkpt>
      <trkpt lat="44.14242" lon="5.87104">
        <ele>778</ele>
        <time>2021-06-01T14:32:05.464Z</time>
      </trkpt>
      <trkpt lat="44.14243" lon="5.87104">
        <ele>778</ele>
        <time>2021-06-01T14:32:06.464Z</time>
      </trkpt>
      <trkpt lat="44.14244" lon="5.87104">
        <ele>778</ele>
        <time>2021-06-01T14:32:07.464Z</time>
      </trkpt>
      <trkpt lat="44.14245" lon="5.87104">
        <ele>778</ele>
        <time>2021-06-01T14:32:08.464Z</time>
      </trkpt>
      <trkpt lat="44.14246" lon="5.87105">
        <ele>777</ele>
        <time>2021-06-01T14:32:09.464Z</time>
      </trkpt>
      <trkpt lat="44.14247" lon="5.87105">
        <ele>777</ele>
        <time>2021-06-01T14:32:10.464Z</time>
      </trkpt>
      <trkpt lat="44.14248" lon="5.87106">
        <ele>777</ele>
        <time>2021-06-01T14:32:11.464Z</time>
      </trkpt>
      <trkpt lat="44.14249" lon="5.87106">
        <ele>777</ele>
        <time>2021-06-01T14:32:12.464Z</time>
      </trkpt>
      <trkpt lat="44.1425" lon="5.87106">
        <ele>777</ele>
        <time>2021-06-01T14:32:13.464Z</time>
      </trkpt>
      <trkpt lat="44.14251" lon="5.87106">
        <ele>776</ele>
        <time>2021-06-01T14:32:14.464Z</time>
      </trkpt>
      <trkpt lat="44.14252" lon="5.87106">
        <ele>776</ele>
        <time>2021-06-01T14:32:15.464Z</time>
      </trkpt>
      <trkpt lat="44.14253" lon="5.87107">
        <ele>776</ele>
        <time>2021-06-01T14:32:16.464Z</time>
      </trkpt>
      <trkpt lat="44.14254" lon="5.87107">
        <ele>776</ele>
        <time>2021-06-01T14:32:17.464Z</time>
      </trkpt>
      <trkpt lat="44.14255" lon="5.87107">
        <ele>775</ele>
        <time>2021-06-01T14:32:18.464Z</time>
      </trkpt>
      <trkpt lat="44.14257" lon="5.87108">
        <ele>775</ele>
        <time>2021-06-01T14:32:19.464Z</time>
      </trkpt>
      <trkpt lat="44.14258" lon="5.87108">
        <ele>775</ele>
        <time>2021-06-01T14:32:20.464Z</time>
      </trkpt>
      <trkpt lat="44.14259" lon="5.87108">
        <ele>774</ele>
        <time>2021-06-01T14:32:21.464Z</time>
      </trkpt>
      <trkpt lat="44.14259" lon="5.87109">
        <ele>774</ele>
        <time>2021-06-01T14:32:22.464Z</time>
      </trkpt>
      <trkpt lat="44.1426" lon="5.87109">
        <ele>774</ele>
        <time>2021-06-01T14:32:23.464Z</time>
      </trkpt>
      <trkpt lat="44.14261" lon="5.87109">
        <ele>773</ele>
        <time>2021-06-01T14:32:24.464Z</time>
      </trkpt>
      <trkpt lat="44.14262" lon="5.87109">
        <ele>773</ele>
        <time>2021-06-01T14:32:25.464Z</time>
      </trkpt>
      <trkpt lat="44.14263" lon="5.87109">
        <ele>773</ele>
        <time>2021-06-01T14:32:26.464Z</time>
      </trkpt>
      <trkpt lat="44.14263" lon="5.8711">
        <ele>773</ele>
        <time>2021-06-01T14:32:27.464Z</time>
      </trkpt>
      <trkpt lat="44.14264" lon="5.8711">
        <ele>772</ele>
        <time>2021-06-01T14:32:28.464Z</time>
      </trkpt>
      <trkpt lat="44.14265" lon="5.8711">
        <ele>772</ele>
        <time>2021-06-01T14:32:29.464Z</time>
      </trkpt>
      <trkpt lat="44.14265" lon="5.8711">
        <ele>772</ele>
        <time>2021-06-01T14:32:30.464Z</time>
      </trkpt>
      <trkpt lat="44.14266" lon="5.8711">
        <ele>772</ele>
        <time>2021-06-01T14:32:31.464Z</time>
      </trkpt>
      <trkpt lat="44.14267" lon="5.87109">
        <ele>771</ele>
        <time>2021-06-01T14:32:32.464Z</time>
      </trkpt>
      <trkpt lat="44.14267" lon="5.87109">
        <ele>771</ele>
        <time>2021-06-01T14:32:33.464Z</time>
      </trkpt>
      <trkpt lat="44.14268" lon="5.87109">
        <ele>771</ele>
        <time>2021-06-01T14:32:34.464Z</time>
      </trkpt>
      <trkpt lat="44.14269" lon="5.8711">
        <ele>771</ele>
        <time>2021-06-01T14:32:35.464Z</time>
      </trkpt>
      <trkpt lat="44.1427" lon="5.8711">
        <ele>770</ele>
        <time>2021-06-01T14:32:36.464Z</time>
      </trkpt>
      <trkpt lat="44.1427" lon="5.87111">
        <ele>770</ele>
        <time>2021-06-01T14:32:37.464Z</time>
      </trkpt>
      <trkpt lat="44.14271" lon="5.87111">
        <ele>770</ele>
        <time>2021-06-01T14:32:38.464Z</time>
      </trkpt>
      <trkpt lat="44.14272" lon="5.87111">
        <ele>770</ele>
        <time>2021-06-01T14:32:39.464Z</time>
      </trkpt>
      <trkpt lat="44.14272" lon="5.87111">
        <ele>769</ele>
        <time>2021-06-01T14:32:40.464Z</time>
      </trkpt>
      <trkpt lat="44.14273" lon="5.87111">
        <ele>769</ele>
        <time>2021-06-01T14:32:41.464Z</time>
      </trkpt>
      <trkpt lat="44.14273" lon="5.87111">
        <ele>769</ele>
        <time>2021-06-01T14:32:42.464Z</time>
      </trkpt>
      <trkpt lat="44.14274" lon="5.87111">
        <ele>769</ele>
        <time>2021-06-01T14:32:43.464Z</time>
      </trkpt>
      <trkpt lat="44.14274" lon="5.87111">
        <ele>769</ele>
        <time>2021-06-01T14:32:44.464Z</time>
      </trkpt>
      <trkpt lat="44.14274" lon="5.87112">
        <ele>768</ele>
        <time>2021-06-01T14:32:45.464Z</time>
      </trkpt>
      <trkpt lat="44.14274" lon="5.87111">
        <ele>768</ele>
        <time>2021-06-01T14:32:46.464Z</time>
      </trkpt>
      <trkpt lat="44.14275" lon="5.87111">
        <ele>768</ele>
        <time>2021-06-01T14:32:47.464Z</time>
      </trkpt>
      <trkpt lat="44.14275" lon="5.87111">
        <ele>768</ele>
        <time>2021-06-01T14:32:48.464Z</time>
      </trkpt>
      <trkpt lat="44.14276" lon="5.87111">
        <ele>768</ele>
        <time>2021-06-01T14:32:49.464Z</time>
      </trkpt>
      <trkpt lat="44.14276" lon="5.87111">
        <ele>768</ele>
        <time>2021-06-01T14:32:50.464Z</time>
      </trkpt>
      <trkpt lat="44.14277" lon="5.87111">
        <ele>768</ele>
        <time>2021-06-01T14:32:51.464Z</time>
      </trkpt>
      <trkpt lat="44.14277" lon="5.87111">
        <ele>768</ele>
        <time>2021-06-01T14:32:52.464Z</time>
      </trkpt>
      <trkpt lat="44.14278" lon="5.87111">
        <ele>767</ele>
        <time>2021-06-01T14:32:53.464Z</time>
      </trkpt>
      <trkpt lat="44.14278" lon="5.87111">
        <ele>767</ele>
        <time>2021-06-01T14:32:54.464Z</time>
      </trkpt>
      <trkpt lat="44.14278" lon="5.87111">
        <ele>767</ele>
        <time>2021-06-01T14:32:55.464Z</time>
      </trkpt>
      <trkpt lat="44.14279" lon="5.8711">
        <ele>767</ele>
        <time>2021-06-01T14:32:56.464Z</time>
      </trkpt>
      <trkpt lat="44.14279" lon="5.8711">
        <ele>767</ele>
        <time>2021-06-01T14:32:57.464Z</time>
      </trkpt>
      <trkpt lat="44.14279" lon="5.87109">
        <ele>767</ele>
        <time>2021-06-01T14:32:58.464Z</time>
      </trkpt>
      <trkpt lat="44.14279" lon="5.87109">
        <ele>767</ele>
        <time>2021-06-01T14:32:59.464Z</time>
      </trkpt>
      <trkpt lat="44.14279" lon="5.87109">
        <ele>766</ele>
        <time>2021-06-01T14:33:00.464Z</time>
      </trkpt>
      <trkpt lat="44.14279" lon="5.87108">
        <ele>766</ele>
        <time>2021-06-01T14:33:01.464Z</time>
      </trkpt>
      <trkpt lat="44.1428" lon="5.87108">
        <ele>766</ele>
        <time>2021-06-01T14:33:02.464Z</time>
      </trkpt>
      <trkpt lat="44.14281" lon="5.87107">
        <ele>766</ele>
        <time>2021-06-01T14:33:03.464Z</time>
      </trkpt>
      <trkpt lat="44.14281" lon="5.87107">
        <ele>765</ele>
        <time>2021-06-01T14:33:04.464Z</time>
      </trkpt>
      <trkpt lat="44.14281" lon="5.87106">
        <ele>765</ele>
        <time>2021-06-01T14:33:05.464Z</time>
      </trkpt>
      <trkpt lat="44.14282" lon="5.87106">
        <ele>765</ele>
        <time>2021-06-01T14:33:06.464Z</time>
      </trkpt>
      <trkpt lat="44.14282" lon="5.87105">
        <ele>765</ele>
        <time>2021-06-01T14:33:07.464Z</time>
      </trkpt>
      <trkpt lat="44.14282" lon="5.87105">
        <ele>764</ele>
        <time>2021-06-01T14:33:08.464Z</time>
      </trkpt>
      <trkpt lat="44.14283" lon="5.87105">
        <ele>764</ele>
        <time>2021-06-01T14:33:09.464Z</time>
      </trkpt>
      <trkpt lat="44.14283" lon="5.87104">
        <ele>764</ele>
        <time>2021-06-01T14:33:10.464Z</time>
      </trkpt>
      <trkpt lat="44.14283" lon="5.87103">
        <ele>763</ele>
        <time>2021-06-01T14:33:11.464Z</time>
      </trkpt>
      <trkpt lat="44.14284" lon="5.87102">
        <ele>763</ele>
        <time>2021-06-01T14:33:12.464Z</time>
      </trkpt>
      <trkpt lat="44.14284" lon="5.87101">
        <ele>763</ele>
        <time>2021-06-01T14:33:13.464Z</time>
      </trkpt>
      <trkpt lat="44.14285" lon="5.87101">
        <ele>763</ele>
        <time>2021-06-01T14:33:14.464Z</time>
      </trkpt>
      <trkpt lat="44.14286" lon="5.87101">
        <ele>762</ele>
        <time>2021-06-01T14:33:15.464Z</time>
      </trkpt>
      <trkpt lat="44.14287" lon="5.871">
        <ele>762</ele>
        <time>2021-06-01T14:33:16.464Z</time>
      </trkpt>
      <trkpt lat="44.14287" lon="5.871">
        <ele>762</ele>
        <time>2021-06-01T14:33:17.464Z</time>
      </trkpt>
      <trkpt lat="44.14288" lon="5.871">
        <ele>762</ele>
        <time>2021-06-01T14:33:18.464Z</time>
      </trkpt>
      <trkpt lat="44.14289" lon="5.87099">
        <ele>762</ele>
        <time>2021-06-01T14:33:19.464Z</time>
      </trkpt>
      <trkpt lat="44.1429" lon="5.87099">
        <ele>762</ele>
        <time>2021-06-01T14:33:20.464Z</time>
      </trkpt>
      <trkpt lat="44.1429" lon="5.87099">
        <ele>762</ele>
        <time>2021-06-01T14:33:21.464Z</time>
      </trkpt>
      <trkpt lat="44.14291" lon="5.87099">
        <ele>761</ele>
        <time>2021-06-01T14:33:22.464Z</time>
      </trkpt>
      <trkpt lat="44.14291" lon="5.87098">
        <ele>761</ele>
        <time>2021-06-01T14:33:23.464Z</time>
      </trkpt>
      <trkpt lat="44.14292" lon="5.87098">
        <ele>761</ele>
        <time>2021-06-01T14:33:24.464Z</time>
      </trkpt>
      <trkpt lat="44.14293" lon="5.87098">
        <ele>761</ele>
        <time>2021-06-01T14:33:25.464Z</time>
      </trkpt>
      <trkpt lat="44.14293" lon="5.87097">
        <ele>761</ele>
        <time>2021-06-01T14:33:26.464Z</time>
      </trkpt>
      <trkpt lat="44.14294" lon="5.87097">
        <ele>761</ele>
        <time>2021-06-01T14:33:27.464Z</time>
      </trkpt>
      <trkpt lat="44.14295" lon="5.87096">
        <ele>761</ele>
        <time>2021-06-01T14:33:28.464Z</time>
      </trkpt>
      <trkpt lat="44.14295" lon="5.87096">
        <ele>761</ele>
        <time>2021-06-01T14:33:29.464Z</time>
      </trkpt>
      <trkpt lat="44.14296" lon="5.87096">
        <ele>761</ele>
        <time>2021-06-01T14:33:30.464Z</time>
      </trkpt>
      <trkpt lat="44.14297" lon="5.87096">
        <ele>761</ele>
        <time>2021-06-01T14:33:31.464Z</time>
      </trkpt>
      <trkpt lat="44.14297" lon="5.87096">
        <ele>761</ele>
        <time>2021-06-01T14:33:32.464Z</time>
      </trkpt>
      <trkpt lat="44.14298" lon="5.87096">
        <ele>761</ele>
        <time>2021-06-01T14:33:33.464Z</time>
      </trkpt>
      <trkpt lat="44.14299" lon="5.87096">
        <ele>761</ele>
        <time>2021-06-01T14:33:34.464Z</time>
      </trkpt>
      <trkpt lat="44.14299" lon="5.87095">
        <ele>761</ele>
        <time>2021-06-01T14:33:35.464Z</time>
      </trkpt>
      <trkpt lat="44.14299" lon="5.87095">
        <ele>761</ele>
        <time>2021-06-01T14:33:36.464Z</time>
      </trkpt>
      <trkpt lat="44.143" lon="5.87094">
        <ele>760</ele>
        <time>2021-06-01T14:33:37.464Z</time>
      </trkpt>
      <trkpt lat="44.14301" lon="5.87094">
        <ele>760</ele>
        <time>2021-06-01T14:33:38.464Z</time>
      </trkpt>
      <trkpt lat="44.14301" lon="5.87093">
        <ele>760</ele>
        <time>2021-06-01T14:33:39.464Z</time>
      </trkpt>
      <trkpt lat="44.14302" lon="5.87093">
        <ele>760</ele>
        <time>2021-06-01T14:33:40.464Z</time>
      </trkpt>
      <trkpt lat="44.14302" lon="5.87093">
        <ele>760</ele>
        <time>2021-06-01T14:33:41.464Z</time>
      </trkpt>
      <trkpt lat="44.14303" lon="5.87092">
        <ele>760</ele>
        <time>2021-06-01T14:33:42.464Z</time>
      </trkpt>
      <trkpt lat="44.14304" lon="5.87093">
        <ele>760</ele>
        <time>2021-06-01T14:33:43.464Z</time>
      </trkpt>
      <trkpt lat="44.14305" lon="5.87093">
        <ele>759</ele>
        <time>2021-06-01T14:33:44.464Z</time>
      </trkpt>
      <trkpt lat="44.14306" lon="5.87093">
        <ele>759</ele>
        <time>2021-06-01T14:33:45.464Z</time>
      </trkpt>
      <trkpt lat="44.14307" lon="5.87092">
        <ele>759</ele>
        <time>2021-06-01T14:33:46.464Z</time>
      </trkpt>
      <trkpt lat="44.14308" lon="5.87092">
        <ele>759</ele>
        <time>2021-06-01T14:33:47.464Z</time>
      </trkpt>
      <trkpt lat="44.14308" lon="5.87093">
        <ele>758</ele>
        <time>2021-06-01T14:33:48.464Z</time>
      </trkpt>
      <trkpt lat="44.14309" lon="5.87093">
        <ele>758</ele>
        <time>2021-06-01T14:33:49.464Z</time>
      </trkpt>
      <trkpt lat="44.1431" lon="5.87093">
        <ele>758</ele>
        <time>2021-06-01T14:33:50.464Z</time>
      </trkpt>
      <trkpt lat="44.14311" lon="5.87093">
        <ele>757</ele>
        <time>2021-06-01T14:33:51.464Z</time>
      </trkpt>
      <trkpt lat="44.14311" lon="5.87093">
        <ele>757</ele>
        <time>2021-06-01T14:33:52.464Z</time>
      </trkpt>
      <trkpt lat="44.14312" lon="5.87093">
        <ele>757</ele>
        <time>2021-06-01T14:33:53.464Z</time>
      </trkpt>
      <trkpt lat="44.14313" lon="5.87093">
        <ele>757</ele>
        <time>2021-06-01T14:33:54.464Z</time>
      </trkpt>
      <trkpt lat="44.14314" lon="5.87092">
        <ele>756</ele>
        <time>2021-06-01T14:33:55.464Z</time>
      </trkpt>
      <trkpt lat="44.14314" lon="5.87092">
        <ele>756</ele>
        <time>2021-06-01T14:33:56.464Z</time>
      </trkpt>
      <trkpt lat="44.14315" lon="5.87092">
        <ele>756</ele>
        <time>2021-06-01T14:33:57.464Z</time>
      </trkpt>
      <trkpt lat="44.14316" lon="5.87092">
        <ele>755</ele>
        <time>2021-06-01T14:33:58.464Z</time>
      </trkpt>
      <trkpt lat="44.14317" lon="5.87092">
        <ele>755</ele>
        <time>2021-06-01T14:33:59.464Z</time>
      </trkpt>
      <trkpt lat="44.14318" lon="5.87092">
        <ele>755</ele>
        <time>2021-06-01T14:34:00.464Z</time>
      </trkpt>
      <trkpt lat="44.14319" lon="5.87092">
        <ele>754</ele>
        <time>2021-06-01T14:34:01.464Z</time>
      </trkpt>
      <trkpt lat="44.1432" lon="5.87091">
        <ele>754</ele>
        <time>2021-06-01T14:34:02.464Z</time>
      </trkpt>
      <trkpt lat="44.1432" lon="5.87091">
        <ele>754</ele>
        <time>2021-06-01T14:34:03.464Z</time>
      </trkpt>
      <trkpt lat="44.14321" lon="5.87091">
        <ele>754</ele>
        <time>2021-06-01T14:34:04.464Z</time>
      </trkpt>
      <trkpt lat="44.14322" lon="5.87091">
        <ele>754</ele>
        <time>2021-06-01T14:34:05.464Z</time>
      </trkpt>
      <trkpt lat="44.14323" lon="5.87091">
        <ele>753</ele>
        <time>2021-06-01T14:34:06.464Z</time>
      </trkpt>
      <trkpt lat="44.14324" lon="5.87091">
        <ele>753</ele>
        <time>2021-06-01T14:34:07.464Z</time>
      </trkpt>
      <trkpt lat="44.14324" lon="5.87091">
        <ele>753</ele>
        <time>2021-06-01T14:34:08.464Z</time>
      </trkpt>
      <trkpt lat="44.14324" lon="5.87091">
        <ele>753</ele>
        <time>2021-06-01T14:34:09.464Z</time>
      </trkpt>
      <trkpt lat="44.14325" lon="5.87091">
        <ele>753</ele>
        <time>2021-06-01T14:34:10.464Z</time>
      </trkpt>
      <trkpt lat="44.14326" lon="5.87091">
        <ele>753</ele>
        <time>2021-06-01T14:34:11.464Z</time>
      </trkpt>
      <trkpt lat="44.14327" lon="5.87091">
        <ele>752</ele>
        <time>2021-06-01T14:34:12.464Z</time>
      </trkpt>
      <trkpt lat="44.14328" lon="5.87091">
        <ele>752</ele>
        <time>2021-06-01T14:34:13.464Z</time>
      </trkpt>
      <trkpt lat="44.14328" lon="5.8709">
        <ele>752</ele>
        <time>2021-06-01T14:34:14.464Z</time>
      </trkpt>
      <trkpt lat="44.14329" lon="5.8709">
        <ele>752</ele>
        <time>2021-06-01T14:34:15.464Z</time>
      </trkpt>
      <trkpt lat="44.1433" lon="5.8709">
        <ele>752</ele>
        <time>2021-06-01T14:34:16.464Z</time>
      </trkpt>
      <trkpt lat="44.14331" lon="5.87089">
        <ele>752</ele>
        <time>2021-06-01T14:34:17.464Z</time>
      </trkpt>
      <trkpt lat="44.14332" lon="5.87089">
        <ele>752</ele>
        <time>2021-06-01T14:34:18.464Z</time>
      </trkpt>
      <trkpt lat="44.14333" lon="5.87088">
        <ele>752</ele>
        <time>2021-06-01T14:34:19.464Z</time>
      </trkpt>
      <trkpt lat="44.14334" lon="5.87087">
        <ele>751</ele>
        <time>2021-06-01T14:34:20.464Z</time>
      </trkpt>
      <trkpt lat="44.14334" lon="5.87087">
        <ele>751</ele>
        <time>2021-06-01T14:34:21.464Z</time>
      </trkpt>
      <trkpt lat="44.14335" lon="5.87086">
        <ele>751</ele>
        <time>2021-06-01T14:34:22.464Z</time>
      </trkpt>
      <trkpt lat="44.14336" lon="5.87085">
        <ele>751</ele>
        <time>2021-06-01T14:34:23.464Z</time>
      </trkpt>
      <trkpt lat="44.14337" lon="5.87085">
        <ele>751</ele>
        <time>2021-06-01T14:34:24.464Z</time>
      </trkpt>
      <trkpt lat="44.14338" lon="5.87084">
        <ele>751</ele>
        <time>2021-06-01T14:34:25.464Z</time>
      </trkpt>
      <trkpt lat="44.14339" lon="5.87084">
        <ele>750</ele>
        <time>2021-06-01T14:34:26.464Z</time>
      </trkpt>
      <trkpt lat="44.1434" lon="5.87084">
        <ele>750</ele>
        <time>2021-06-01T14:34:27.464Z</time>
      </trkpt>
      <trkpt lat="44.14341" lon="5.87084">
        <ele>750</ele>
        <time>2021-06-01T14:34:28.464Z</time>
      </trkpt>
      <trkpt lat="44.14342" lon="5.87083">
        <ele>750</ele>
        <time>2021-06-01T14:34:29.464Z</time>
      </trkpt>
      <trkpt lat="44.14342" lon="5.87083">
        <ele>750</ele>
        <time>2021-06-01T14:34:30.464Z</time>
      </trkpt>
      <trkpt lat="44.14343" lon="5.87083">
        <ele>750</ele>
        <time>2021-06-01T14:34:31.464Z</time>
      </trkpt>
      <trkpt lat="44.14344" lon="5.87082">
        <ele>750</ele>
        <time>2021-06-01T14:34:32.464Z</time>
      </trkpt>
      <trkpt lat="44.14344" lon="5.87082">
        <ele>750</ele>
        <time>2021-06-01T14:34:33.464Z</time>
      </trkpt>
      <trkpt lat="44.14345" lon="5.87081">
        <ele>749</ele>
        <time>2021-06-01T14:34:34.464Z</time>
      </trkpt>
      <trkpt lat="44.14345" lon="5.87081">
        <ele>749</ele>
        <time>2021-06-01T14:34:35.464Z</time>
      </trkpt>
      <trkpt lat="44.14346" lon="5.8708">
        <ele>749</ele>
        <time>2021-06-01T14:34:36.464Z</time>
      </trkpt>
      <trkpt lat="44.14347" lon="5.8708">
        <ele>749</ele>
        <time>2021-06-01T14:34:37.464Z</time>
      </trkpt>
      <trkpt lat="44.14348" lon="5.87079">
        <ele>749</ele>
        <time>2021-06-01T14:34:38.464Z</time>
      </trkpt>
      <trkpt lat="44.14349" lon="5.87078">
        <ele>749</ele>
        <time>2021-06-01T14:34:39.464Z</time>
      </trkpt>
      <trkpt lat="44.1435" lon="5.87077">
        <ele>748</ele>
        <time>2021-06-01T14:34:40.464Z</time>
      </trkpt>
      <trkpt lat="44.1435" lon="5.87077">
        <ele>748</ele>
        <time>2021-06-01T14:34:41.464Z</time>
      </trkpt>
      <trkpt lat="44.14351" lon="5.87076">
        <ele>748</ele>
        <time>2021-06-01T14:34:42.464Z</time>
      </trkpt>
      <trkpt lat="44.14352" lon="5.87076">
        <ele>748</ele>
        <time>2021-06-01T14:34:43.464Z</time>
      </trkpt>
      <trkpt lat="44.14353" lon="5.87076">
        <ele>748</ele>
        <time>2021-06-01T14:34:44.464Z</time>
      </trkpt>
      <trkpt lat="44.14354" lon="5.87076">
        <ele>747</ele>
        <time>2021-06-01T14:34:45.464Z</time>
      </trkpt>
      <trkpt lat="44.14354" lon="5.87076">
        <ele>747</ele>
        <time>2021-06-01T14:34:46.464Z</time>
      </trkpt>
      <trkpt lat="44.14355" lon="5.87076">
        <ele>747</ele>
        <time>2021-06-01T14:34:47.464Z</time>
      </trkpt>
      <trkpt lat="44.14356" lon="5.87075">
        <ele>746</ele>
        <time>2021-06-01T14:34:48.464Z</time>
      </trkpt>
      <trkpt lat="44.14356" lon="5.87075">
        <ele>746</ele>
        <time>2021-06-01T14:34:49.464Z</time>
      </trkpt>
      <trkpt lat="44.14357" lon="5.87075">
        <ele>746</ele>
        <time>2021-06-01T14:34:50.464Z</time>
      </trkpt>
      <trkpt lat="44.14358" lon="5.87074">
        <ele>745</ele>
        <time>2021-06-01T14:34:51.464Z</time>
      </trkpt>
      <trkpt lat="44.14359" lon="5.87074">
        <ele>745</ele>
        <time>2021-06-01T14:34:52.464Z</time>
      </trkpt>
      <trkpt lat="44.14359" lon="5.87073">
        <ele>745</ele>
        <time>2021-06-01T14:34:53.464Z</time>
      </trkpt>
      <trkpt lat="44.1436" lon="5.87073">
        <ele>744</ele>
        <time>2021-06-01T14:34:54.464Z</time>
      </trkpt>
      <trkpt lat="44.1436" lon="5.87073">
        <ele>744</ele>
        <time>2021-06-01T14:34:55.464Z</time>
      </trkpt>
      <trkpt lat="44.1436" lon="5.87072">
        <ele>744</ele>
        <time>2021-06-01T14:34:56.464Z</time>
      </trkpt>
      <trkpt lat="44.14361" lon="5.87072">
        <ele>744</ele>
        <time>2021-06-01T14:34:57.464Z</time>
      </trkpt>
      <trkpt lat="44.14361" lon="5.87072">
        <ele>744</ele>
        <time>2021-06-01T14:34:58.464Z</time>
      </trkpt>
      <trkpt lat="44.14361" lon="5.87071">
        <ele>743</ele>
        <time>2021-06-01T14:34:59.464Z</time>
      </trkpt>
      <trkpt lat="44.14362" lon="5.8707">
        <ele>743</ele>
        <time>2021-06-01T14:35:00.464Z</time>
      </trkpt>
      <trkpt lat="44.14363" lon="5.8707">
        <ele>743</ele>
        <time>2021-06-01T14:35:01.464Z</time>
      </trkpt>
      <trkpt lat="44.14364" lon="5.8707">
        <ele>743</ele>
        <time>2021-06-01T14:35:02.464Z</time>
      </trkpt>
      <trkpt lat="44.14365" lon="5.87069">
        <ele>743</ele>
        <time>2021-06-01T14:35:03.464Z</time>
      </trkpt>
      <trkpt lat="44.14367" lon="5.87069">
        <ele>743</ele>
        <time>2021-06-01T14:35:04.464Z</time>
      </trkpt>
      <trkpt lat="44.14368" lon="5.87069">
        <ele>742</ele>
        <time>2021-06-01T14:35:05.464Z</time>
      </trkpt>
      <trkpt lat="44.14369" lon="5.87069">
        <ele>742</ele>
        <time>2021-06-01T14:35:06.464Z</time>
      </trkpt>
      <trkpt lat="44.1437" lon="5.87069">
        <ele>742</ele>
        <time>2021-06-01T14:35:07.464Z</time>
      </trkpt>
      <trkpt lat="44.1437" lon="5.87068">
        <ele>742</ele>
        <time>2021-06-01T14:35:08.464Z</time>
      </trkpt>
      <trkpt lat="44.14371" lon="5.87068">
        <ele>741</ele>
        <time>2021-06-01T14:35:09.464Z</time>
      </trkpt>
      <trkpt lat="44.14372" lon="5.87067">
        <ele>741</ele>
        <time>2021-06-01T14:35:10.464Z</time>
      </trkpt>
      <trkpt lat="44.14372" lon="5.87066">
        <ele>741</ele>
        <time>2021-06-01T14:35:13.871Z</time>
      </trkpt>
      <trkpt lat="44.14373" lon="5.87066">
        <ele>740</ele>
        <time>2021-06-01T14:35:14.871Z</time>
      </trkpt>
      <trkpt lat="44.14374" lon="5.87065">
        <ele>740</ele>
        <time>2021-06-01T14:35:15.871Z</time>
      </trkpt>
      <trkpt lat="44.14374" lon="5.87064">
        <ele>740</ele>
        <time>2021-06-01T14:35:16.871Z</time>
      </trkpt>
      <trkpt lat="44.14375" lon="5.87064">
        <ele>740</ele>
        <time>2021-06-01T14:35:17.871Z</time>
      </trkpt>
      <trkpt lat="44.14375" lon="5.87064">
        <ele>739</ele>
        <time>2021-06-01T14:35:18.871Z</time>
      </trkpt>
      <trkpt lat="44.14375" lon="5.87063">
        <ele>739</ele>
        <time>2021-06-01T14:35:19.871Z</time>
      </trkpt>
      <trkpt lat="44.14375" lon="5.87063">
        <ele>739</ele>
        <time>2021-06-01T14:35:20.871Z</time>
      </trkpt>
      <trkpt lat="44.14375" lon="5.87063">
        <ele>739</ele>
        <time>2021-06-01T14:35:21.871Z</time>
      </trkpt>
      <trkpt lat="44.14375" lon="5.87063">
        <ele>739</ele>
        <time>2021-06-01T14:35:22.871Z</time>
      </trkpt>
      <trkpt lat="44.14375" lon="5.87063">
        <ele>739</ele>
        <time>2021-06-01T14:35:23.871Z</time>
      </trkpt>
      <trkpt lat="44.14375" lon="5.87063">
        <ele>739</ele>
        <time>2021-06-01T14:35:24.871Z</time>
      </trkpt>
      <trkpt lat="44.14375" lon="5.87062">
        <ele>739</ele>
        <time>2021-06-01T14:35:25.871Z</time>
      </trkpt>
      <trkpt lat="44.14375" lon="5.87062">
        <ele>739</ele>
        <time>2021-06-01T14:35:26.871Z</time>
      </trkpt>
      <trkpt lat="44.14375" lon="5.87062">
        <ele>739</ele>
        <time>2021-06-01T14:35:27.871Z</time>
      </trkpt>
      <trkpt lat="44.14375" lon="5.87062">
        <ele>739</ele>
        <time>2021-06-01T14:35:28.871Z</time>
      </trkpt>
      <trkpt lat="44.14375" lon="5.87062">
        <ele>739</ele>
        <time>2021-06-01T14:35:29.871Z</time>
      </trkpt>
      <trkpt lat="44.14375" lon="5.87062">
        <ele>739</ele>
        <time>2021-06-01T14:35:30.871Z</time>
      </trkpt>
      <trkpt lat="44.14376" lon="5.87062">
        <ele>739</ele>
        <time>2021-06-01T14:35:31.871Z</time>
      </trkpt>
      <trkpt lat="44.14376" lon="5.87062">
        <ele>739</ele>
        <time>2021-06-01T14:35:32.871Z</time>
      </trkpt>
      <trkpt lat="44.14377" lon="5.87062">
        <ele>739</ele>
        <time>2021-06-01T14:35:33.871Z</time>
      </trkpt>
      <trkpt lat="44.14377" lon="5.87061">
        <ele>739</ele>
        <time>2021-06-01T14:35:34.871Z</time>
      </trkpt>
      <trkpt lat="44.14378" lon="5.87061">
        <ele>738</ele>
        <time>2021-06-01T14:35:35.871Z</time>
      </trkpt>
      <trkpt lat="44.14378" lon="5.87061">
        <ele>738</ele>
        <time>2021-06-01T14:35:36.871Z</time>
      </trkpt>
      <trkpt lat="44.14378" lon="5.87062">
        <ele>738</ele>
        <time>2021-06-01T14:35:37.871Z</time>
      </trkpt>
      <trkpt lat="44.14378" lon="5.87062">
        <ele>738</ele>
        <time>2021-06-01T14:35:38.871Z</time>
      </trkpt>
      <trkpt lat="44.14378" lon="5.87062">
        <ele>738</ele>
        <time>2021-06-01T14:35:39.871Z</time>
      </trkpt>
      <trkpt lat="44.14378" lon="5.87063">
        <ele>737</ele>
        <time>2021-06-01T14:35:40.871Z</time>
      </trkpt>
      <trkpt lat="44.14378" lon="5.87063">
        <ele>737</ele>
        <time>2021-06-01T14:35:41.871Z</time>
      </trkpt>
      <trkpt lat="44.14378" lon="5.87063">
        <ele>737</ele>
        <time>2021-06-01T14:35:42.871Z</time>
      </trkpt>
      <trkpt lat="44.14378" lon="5.87063">
        <ele>737</ele>
        <time>2021-06-01T14:35:43.871Z</time>
      </trkpt>
      <trkpt lat="44.14378" lon="5.87063">
        <ele>737</ele>
        <time>2021-06-01T14:35:44.871Z</time>
      </trkpt>
      <trkpt lat="44.14378" lon="5.87063">
        <ele>737</ele>
        <time>2021-06-01T14:35:45.871Z</time>
      </trkpt>
      <trkpt lat="44.14378" lon="5.87063">
        <ele>737</ele>
        <time>2021-06-01T14:35:46.871Z</time>
      </trkpt>
      <trkpt lat="44.14378" lon="5.87064">
        <ele>737</ele>
        <time>2021-06-01T14:35:47.871Z</time>
      </trkpt>
      <trkpt lat="44.14378" lon="5.87064">
        <ele>737</ele>
        <time>2021-06-01T14:35:48.871Z</time>
      </trkpt>
      <trkpt lat="44.14378" lon="5.87064">
        <ele>737</ele>
        <time>2021-06-01T14:35:49.871Z</time>
      </trkpt>
      <trkpt lat="44.14378" lon="5.87064">
        <ele>737</ele>
        <time>2021-06-01T14:35:50.871Z</time>
      </trkpt>
      <trkpt lat="44.14378" lon="5.87064">
        <ele>737</ele>
        <time>2021-06-01T14:35:51.871Z</time>
      </trkpt>
      <trkpt lat="44.14378" lon="5.87064">
        <ele>737</ele>
        <time>2021-06-01T14:35:52.871Z</time>
      </trkpt>
      <trkpt lat="44.14378" lon="5.87064">
        <ele>737</ele>
        <time>2021-06-01T14:35:53.871Z</time>
      </trkpt>
      <trkpt lat="44.14378" lon="5.87064">
        <ele>737</ele>
        <time>2021-06-01T14:35:54.871Z</time>
      </trkpt>
      <trkpt lat="44.14378" lon="5.87064">
        <ele>737</ele>
        <time>2021-06-01T14:35:55.871Z</time>
      </trkpt>
      <trkpt lat="44.14378" lon="5.87064">
        <ele>737</ele>
        <time>2021-06-01T14:35:56.871Z</time>
      </trkpt>
      <trkpt lat="44.14379" lon="5.87064">
        <ele>737</ele>
        <time>2021-06-01T14:35:57.871Z</time>
      </trkpt>
      <trkpt lat="44.14379" lon="5.87064">
        <ele>736</ele>
        <time>2021-06-01T14:35:58.871Z</time>
      </trkpt>
      <trkpt lat="44.14379" lon="5.87064">
        <ele>736</ele>
        <time>2021-06-01T14:35:59.871Z</time>
      </trkpt>
      <trkpt lat="44.14379" lon="5.87065">
        <ele>736</ele>
        <time>2021-06-01T14:36:00.871Z</time>
      </trkpt>
      <trkpt lat="44.14379" lon="5.87065">
        <ele>736</ele>
        <time>2021-06-01T14:36:01.871Z</time>
      </trkpt>
      <trkpt lat="44.14379" lon="5.87065">
        <ele>736</ele>
        <time>2021-06-01T14:36:02.871Z</time>
      </trkpt>
      <trkpt lat="44.14379" lon="5.87065">
        <ele>736</ele>
        <time>2021-06-01T14:36:03.871Z</time>
      </trkpt>
      <trkpt lat="44.14379" lon="5.87065">
        <ele>736</ele>
        <time>2021-06-01T14:36:04.871Z</time>
      </trkpt>
      <trkpt lat="44.14379" lon="5.87065">
        <ele>736</ele>
        <time>2021-06-01T14:36:05.871Z</time>
      </trkpt>
      <trkpt lat="44.14379" lon="5.87065">
        <ele>736</ele>
        <time>2021-06-01T14:36:06.871Z</time>
      </trkpt>
      <trkpt lat="44.14379" lon="5.87065">
        <ele>736</ele>
        <time>2021-06-01T14:36:07.871Z</time>
      </trkpt>
      <trkpt lat="44.1438" lon="5.87065">
        <ele>736</ele>
        <time>2021-06-01T14:36:08.871Z</time>
      </trkpt>
      <trkpt lat="44.14379" lon="5.87065">
        <ele>736</ele>
        <time>2021-06-01T14:36:09.871Z</time>
      </trkpt>
      <trkpt lat="44.1438" lon="5.87065">
        <ele>736</ele>
        <time>2021-06-01T14:36:10.871Z</time>
      </trkpt>
      <trkpt lat="44.1438" lon="5.87065">
        <ele>736</ele>
        <time>2021-06-01T14:36:11.871Z</time>
      </trkpt>
      <trkpt lat="44.1438" lon="5.87065">
        <ele>735</ele>
        <time>2021-06-01T14:36:12.871Z</time>
      </trkpt>
      <trkpt lat="44.1438" lon="5.87065">
        <ele>735</ele>
        <time>2021-06-01T14:36:13.871Z</time>
      </trkpt>
      <trkpt lat="44.1438" lon="5.87065">
        <ele>735</ele>
        <time>2021-06-01T14:36:14.871Z</time>
      </trkpt>
      <trkpt lat="44.1438" lon="5.87065">
        <ele>735</ele>
        <time>2021-06-01T14:36:15.871Z</time>
      </trkpt>
      <trkpt lat="44.1438" lon="5.87065">
        <ele>735</ele>
        <time>2021-06-01T14:36:16.871Z</time>
      </trkpt>
      <trkpt lat="44.1438" lon="5.87065">
        <ele>735</ele>
        <time>2021-06-01T14:36:17.871Z</time>
      </trkpt>
      <trkpt lat="44.1438" lon="5.87065">
        <ele>735</ele>
        <time>2021-06-01T14:36:18.871Z</time>
      </trkpt>
      <trkpt lat="44.1438" lon="5.87065">
        <ele>735</ele>
        <time>2021-06-01T14:36:19.871Z</time>
      </trkpt>
      <trkpt lat="44.1438" lon="5.87065">
        <ele>735</ele>
        <time>2021-06-01T14:36:20.871Z</time>
      </trkpt>
      <trkpt lat="44.1438" lon="5.87065">
        <ele>735</ele>
        <time>2021-06-01T14:36:21.871Z</time>
      </trkpt>
      <trkpt lat="44.1438" lon="5.87065">
        <ele>735</ele>
        <time>2021-06-01T14:36:22.871Z</time>
      </trkpt>
      <trkpt lat="44.14381" lon="5.87065">
        <ele>735</ele>
        <time>2021-06-01T14:36:23.871Z</time>
      </trkpt>
      <trkpt lat="44.14381" lon="5.87065">
        <ele>735</ele>
        <time>2021-06-01T14:36:24.871Z</time>
      </trkpt>
      <trkpt lat="44.14381" lon="5.87065">
        <ele>735</ele>
        <time>2021-06-01T14:36:25.871Z</time>
      </trkpt>
      <trkpt lat="44.1438" lon="5.87065">
        <ele>735</ele>
        <time>2021-06-01T14:36:26.871Z</time>
      </trkpt>
      <trkpt lat="44.1438" lon="5.87065">
        <ele>735</ele>
        <time>2021-06-01T14:36:27.871Z</time>
      </trkpt>
      <trkpt lat="44.1438" lon="5.87065">
        <ele>735</ele>
        <time>2021-06-01T14:36:28.871Z</time>
      </trkpt>
      <trkpt lat="44.1438" lon="5.87065">
        <ele>735</ele>
        <time>2021-06-01T14:36:29.871Z</time>
      </trkpt>
      <trkpt lat="44.1438" lon="5.87065">
        <ele>735</ele>
        <time>2021-06-01T14:36:30.871Z</time>
      </trkpt>
      <trkpt lat="44.1438" lon="5.87065">
        <ele>735</ele>
        <time>2021-06-01T14:36:31.871Z</time>
      </trkpt>
      <trkpt lat="44.1438" lon="5.87065">
        <ele>734</ele>
        <time>2021-06-01T14:36:32.871Z</time>
      </trkpt>
      <trkpt lat="44.1438" lon="5.87065">
        <ele>734</ele>
        <time>2021-06-01T14:36:33.871Z</time>
      </trkpt>
      <trkpt lat="44.1438" lon="5.87065">
        <ele>734</ele>
        <time>2021-06-01T14:36:34.871Z</time>
      </trkpt>
      <trkpt lat="44.1438" lon="5.87065">
        <ele>734</ele>
        <time>2021-06-01T14:36:35.871Z</time>
      </trkpt>
      <trkpt lat="44.1438" lon="5.87065">
        <ele>734</ele>
        <time>2021-06-01T14:36:36.871Z</time>
      </trkpt>
      <trkpt lat="44.1438" lon="5.87065">
        <ele>734</ele>
        <time>2021-06-01T14:36:37.871Z</time>
      </trkpt>
      <trkpt lat="44.14381" lon="5.87065">
        <ele>734</ele>
        <time>2021-06-01T14:36:38.871Z</time>
      </trkpt>
      <trkpt lat="44.14381" lon="5.87065">
        <ele>734</ele>
        <time>2021-06-01T14:36:39.871Z</time>
      </trkpt>
      <trkpt lat="44.14381" lon="5.87065">
        <ele>734</ele>
        <time>2021-06-01T14:36:40.871Z</time>
      </trkpt>
      <trkpt lat="44.14381" lon="5.87065">
        <ele>734</ele>
        <time>2021-06-01T14:36:41.871Z</time>
      </trkpt>
      <trkpt lat="44.1438" lon="5.87065">
        <ele>734</ele>
        <time>2021-06-01T14:36:42.871Z</time>
      </trkpt>
      <trkpt lat="44.1438" lon="5.87065">
        <ele>734</ele>
        <time>2021-06-01T14:36:43.871Z</time>
      </trkpt>
      <trkpt lat="44.1438" lon="5.87065">
        <ele>734</ele>
        <time>2021-06-01T14:36:44.871Z</time>
      </trkpt>
      <trkpt lat="44.1438" lon="5.87065">
        <ele>734</ele>
        <time>2021-06-01T14:36:45.871Z</time>
      </trkpt>
      <trkpt lat="44.14381" lon="5.87065">
        <ele>734</ele>
        <time>2021-06-01T14:36:46.871Z</time>
      </trkpt>
      <trkpt lat="44.14381" lon="5.87065">
        <ele>734</ele>
        <time>2021-06-01T14:36:47.871Z</time>
      </trkpt>
      <trkpt lat="44.14381" lon="5.87065">
        <ele>734</ele>
        <time>2021-06-01T14:36:48.871Z</time>
      </trkpt>
      <trkpt lat="44.14381" lon="5.87065">
        <ele>734</ele>
        <time>2021-06-01T14:36:49.871Z</time>
      </trkpt>
      <trkpt lat="44.14381" lon="5.87065">
        <ele>734</ele>
        <time>2021-06-01T14:36:50.871Z</time>
      </trkpt>
      <trkpt lat="44.14381" lon="5.87065">
        <ele>734</ele>
        <time>2021-06-01T14:36:51.871Z</time>
      </trkpt>
      <trkpt lat="44.14381" lon="5.87065">
        <ele>734</ele>
        <time>2021-06-01T14:36:52.871Z</time>
      </trkpt>
      <trkpt lat="44.14381" lon="5.87064">
        <ele>734</ele>
        <time>2021-06-01T14:36:53.871Z</time>
      </trkpt>
      <trkpt lat="44.14381" lon="5.87064">
        <ele>734</ele>
        <time>2021-06-01T14:36:54.871Z</time>
      </trkpt>
      <trkpt lat="44.14381" lon="5.87064">
        <ele>734</ele>
        <time>2021-06-01T14:36:55.871Z</time>
      </trkpt>
      <trkpt lat="44.14381" lon="5.87064">
        <ele>734</ele>
        <time>2021-06-01T14:36:56.871Z</time>
      </trkpt>
      <trkpt lat="44.14381" lon="5.87064">
        <ele>734</ele>
        <time>2021-06-01T14:36:57.871Z</time>
      </trkpt>
      <trkpt lat="44.14382" lon="5.87064">
        <ele>734</ele>
        <time>2021-06-01T14:36:58.871Z</time>
      </trkpt>
      <trkpt lat="44.14382" lon="5.87064">
        <ele>734</ele>
        <time>2021-06-01T14:36:59.871Z</time>
      </trkpt>
      <trkpt lat="44.14382" lon="5.87064">
        <ele>734</ele>
        <time>2021-06-01T14:37:00.871Z</time>
      </trkpt>
      <trkpt lat="44.14382" lon="5.87064">
        <ele>734</ele>
        <time>2021-06-01T14:37:01.871Z</time>
      </trkpt>
      <trkpt lat="44.14382" lon="5.87064">
        <ele>734</ele>
        <time>2021-06-01T14:37:02.871Z</time>
      </trkpt>
      <trkpt lat="44.14382" lon="5.87064">
        <ele>734</ele>
        <time>2021-06-01T14:37:03.871Z</time>
      </trkpt>
      <trkpt lat="44.14382" lon="5.87064">
        <ele>734</ele>
        <time>2021-06-01T14:37:04.871Z</time>
      </trkpt>
      <trkpt lat="44.14383" lon="5.87063">
        <ele>733</ele>
        <time>2021-06-01T14:37:05.871Z</time>
      </trkpt>
      <trkpt lat="44.14383" lon="5.87063">
        <ele>733</ele>
        <time>2021-06-01T14:37:06.871Z</time>
      </trkpt>
      <trkpt lat="44.14383" lon="5.87063">
        <ele>733</ele>
        <time>2021-06-01T14:37:07.871Z</time>
      </trkpt>
      <trkpt lat="44.14383" lon="5.87063">
        <ele>733</ele>
        <time>2021-06-01T14:37:08.871Z</time>
      </trkpt>
      <trkpt lat="44.14383" lon="5.87064">
        <ele>733</ele>
        <time>2021-06-01T14:37:09.871Z</time>
      </trkpt>
      <trkpt lat="44.14383" lon="5.87064">
        <ele>733</ele>
        <time>2021-06-01T14:37:10.871Z</time>
      </trkpt>
      <trkpt lat="44.14383" lon="5.87064">
        <ele>733</ele>
        <time>2021-06-01T14:37:11.871Z</time>
      </trkpt>
      <trkpt lat="44.14384" lon="5.87064">
        <ele>733</ele>
        <time>2021-06-01T14:37:12.871Z</time>
      </trkpt>
      <trkpt lat="44.14384" lon="5.87064">
        <ele>733</ele>
        <time>2021-06-01T14:37:13.871Z</time>
      </trkpt>
      <trkpt lat="44.14384" lon="5.87064">
        <ele>733</ele>
        <time>2021-06-01T14:37:14.871Z</time>
      </trkpt>
      <trkpt lat="44.14384" lon="5.87064">
        <ele>733</ele>
        <time>2021-06-01T14:37:15.871Z</time>
      </trkpt>
      <trkpt lat="44.14384" lon="5.87064">
        <ele>733</ele>
        <time>2021-06-01T14:37:16.871Z</time>
      </trkpt>
      <trkpt lat="44.14384" lon="5.87064">
        <ele>733</ele>
        <time>2021-06-01T14:37:17.871Z</time>
      </trkpt>
      <trkpt lat="44.14384" lon="5.87064">
        <ele>733</ele>
        <time>2021-06-01T14:37:18.871Z</time>
      </trkpt>
      <trkpt lat="44.14384" lon="5.87064">
        <ele>733</ele>
        <time>2021-06-01T14:37:19.871Z</time>
      </trkpt>
      <trkpt lat="44.14384" lon="5.87064">
        <ele>732</ele>
        <time>2021-06-01T14:37:20.871Z</time>
      </trkpt>
      <trkpt lat="44.14384" lon="5.87064">
        <ele>732</ele>
        <time>2021-06-01T14:37:21.871Z</time>
      </trkpt>
      <trkpt lat="44.14384" lon="5.87064">
        <ele>732</ele>
        <time>2021-06-01T14:37:22.871Z</time>
      </trkpt>
      <trkpt lat="44.14384" lon="5.87064">
        <ele>732</ele>
        <time>2021-06-01T14:37:23.871Z</time>
      </trkpt>
      <trkpt lat="44.14384" lon="5.87064">
        <ele>732</ele>
        <time>2021-06-01T14:37:24.871Z</time>
      </trkpt>
      <trkpt lat="44.14384" lon="5.87063">
        <ele>732</ele>
        <time>2021-06-01T14:37:25.871Z</time>
      </trkpt>
      <trkpt lat="44.14384" lon="5.87063">
        <ele>732</ele>
        <time>2021-06-01T14:37:26.871Z</time>
      </trkpt>
      <trkpt lat="44.14385" lon="5.87064">
        <ele>732</ele>
        <time>2021-06-01T14:37:27.871Z</time>
      </trkpt>
      <trkpt lat="44.14385" lon="5.87064">
        <ele>732</ele>
        <time>2021-06-01T14:37:28.871Z</time>
      </trkpt>
      <trkpt lat="44.14385" lon="5.87064">
        <ele>732</ele>
        <time>2021-06-01T14:37:29.871Z</time>
      </trkpt>
      <trkpt lat="44.14385" lon="5.87064">
        <ele>732</ele>
        <time>2021-06-01T14:37:30.871Z</time>
      </trkpt>
      <trkpt lat="44.14385" lon="5.87063">
        <ele>732</ele>
        <time>2021-06-01T14:37:31.871Z</time>
      </trkpt>
      <trkpt lat="44.14385" lon="5.87063">
        <ele>732</ele>
        <time>2021-06-01T14:37:32.871Z</time>
      </trkpt>
      <trkpt lat="44.14385" lon="5.87063">
        <ele>732</ele>
        <time>2021-06-01T14:37:33.871Z</time>
      </trkpt>
      <trkpt lat="44.14385" lon="5.87062">
        <ele>731</ele>
        <time>2021-06-01T14:37:34.871Z</time>
      </trkpt>
      <trkpt lat="44.14386" lon="5.87062">
        <ele>731</ele>
        <time>2021-06-01T14:37:35.871Z</time>
      </trkpt>
      <trkpt lat="44.14386" lon="5.87061">
        <ele>731</ele>
        <time>2021-06-01T14:37:36.871Z</time>
      </trkpt>
      <trkpt lat="44.14386" lon="5.87061">
        <ele>731</ele>
        <time>2021-06-01T14:37:37.871Z</time>
      </trkpt>
      <trkpt lat="44.14386" lon="5.87061">
        <ele>731</ele>
        <time>2021-06-01T14:37:38.871Z</time>
      </trkpt>
      <trkpt lat="44.14386" lon="5.87061">
        <ele>731</ele>
        <time>2021-06-01T14:37:39.871Z</time>
      </trkpt>
      <trkpt lat="44.14386" lon="5.87061">
        <ele>731</ele>
        <time>2021-06-01T14:37:40.871Z</time>
      </trkpt>
      <trkpt lat="44.14386" lon="5.8706">
        <ele>731</ele>
        <time>2021-06-01T14:37:41.871Z</time>
      </trkpt>
      <trkpt lat="44.14387" lon="5.8706">
        <ele>731</ele>
        <time>2021-06-01T14:37:42.871Z</time>
      </trkpt>
      <trkpt lat="44.14387" lon="5.87059">
        <ele>731</ele>
        <time>2021-06-01T14:37:43.871Z</time>
      </trkpt>
      <trkpt lat="44.14387" lon="5.87059">
        <ele>730</ele>
        <time>2021-06-01T14:37:44.871Z</time>
      </trkpt>
      <trkpt lat="44.14388" lon="5.87059">
        <ele>730</ele>
        <time>2021-06-01T14:37:45.871Z</time>
      </trkpt>
      <trkpt lat="44.14388" lon="5.87059">
        <ele>730</ele>
        <time>2021-06-01T14:37:46.871Z</time>
      </trkpt>
      <trkpt lat="44.14388" lon="5.87059">
        <ele>730</ele>
        <time>2021-06-01T14:37:47.871Z</time>
      </trkpt>
      <trkpt lat="44.14389" lon="5.87059">
        <ele>730</ele>
        <time>2021-06-01T14:37:48.871Z</time>
      </trkpt>
      <trkpt lat="44.14389" lon="5.87058">
        <ele>729</ele>
        <time>2021-06-01T14:37:49.871Z</time>
      </trkpt>
      <trkpt lat="44.1439" lon="5.87058">
        <ele>729</ele>
        <time>2021-06-01T14:37:50.871Z</time>
      </trkpt>
      <trkpt lat="44.1439" lon="5.87058">
        <ele>729</ele>
        <time>2021-06-01T14:37:51.871Z</time>
      </trkpt>
      <trkpt lat="44.14391" lon="5.87057">
        <ele>729</ele>
        <time>2021-06-01T14:37:52.871Z</time>
      </trkpt>
      <trkpt lat="44.14391" lon="5.87057">
        <ele>729</ele>
        <time>2021-06-01T14:37:53.871Z</time>
      </trkpt>
      <trkpt lat="44.14392" lon="5.87057">
        <ele>729</ele>
        <time>2021-06-01T14:37:54.871Z</time>
      </trkpt>
      <trkpt lat="44.14392" lon="5.87057">
        <ele>729</ele>
        <time>2021-06-01T14:37:55.871Z</time>
      </trkpt>
      <trkpt lat="44.14393" lon="5.87057">
        <ele>729</ele>
        <time>2021-06-01T14:37:56.871Z</time>
      </trkpt>
      <trkpt lat="44.14394" lon="5.87057">
        <ele>728</ele>
        <time>2021-06-01T14:37:57.871Z</time>
      </trkpt>
      <trkpt lat="44.14394" lon="5.87057">
        <ele>728</ele>
        <time>2021-06-01T14:37:58.871Z</time>
      </trkpt>
      <trkpt lat="44.14394" lon="5.87058">
        <ele>728</ele>
        <time>2021-06-01T14:37:59.871Z</time>
      </trkpt>
      <trkpt lat="44.14394" lon="5.87058">
        <ele>728</ele>
        <time>2021-06-01T14:38:00.871Z</time>
      </trkpt>
      <trkpt lat="44.14395" lon="5.87058">
        <ele>728</ele>
        <time>2021-06-01T14:38:01.871Z</time>
      </trkpt>
      <trkpt lat="44.14395" lon="5.87058">
        <ele>728</ele>
        <time>2021-06-01T14:38:02.871Z</time>
      </trkpt>
      <trkpt lat="44.14395" lon="5.87058">
        <ele>728</ele>
        <time>2021-06-01T14:38:03.871Z</time>
      </trkpt>
      <trkpt lat="44.14395" lon="5.87058">
        <ele>728</ele>
        <time>2021-06-01T14:38:04.871Z</time>
      </trkpt>
      <trkpt lat="44.14395" lon="5.87057">
        <ele>728</ele>
        <time>2021-06-01T14:38:05.871Z</time>
      </trkpt>
      <trkpt lat="44.14395" lon="5.87057">
        <ele>728</ele>
        <time>2021-06-01T14:38:06.871Z</time>
      </trkpt>
      <trkpt lat="44.14396" lon="5.87057">
        <ele>728</ele>
        <time>2021-06-01T14:38:07.871Z</time>
      </trkpt>
      <trkpt lat="44.14396" lon="5.87056">
        <ele>728</ele>
        <time>2021-06-01T14:38:08.871Z</time>
      </trkpt>
      <trkpt lat="44.14397" lon="5.87056">
        <ele>727</ele>
        <time>2021-06-01T14:38:09.871Z</time>
      </trkpt>
      <trkpt lat="44.14398" lon="5.87055">
        <ele>727</ele>
        <time>2021-06-01T14:38:10.871Z</time>
      </trkpt>
      <trkpt lat="44.14399" lon="5.87055">
        <ele>727</ele>
        <time>2021-06-01T14:38:11.871Z</time>
      </trkpt>
      <trkpt lat="44.14399" lon="5.87054">
        <ele>727</ele>
        <time>2021-06-01T14:38:12.871Z</time>
      </trkpt>
      <trkpt lat="44.144" lon="5.87054">
        <ele>727</ele>
        <time>2021-06-01T14:38:13.871Z</time>
      </trkpt>
      <trkpt lat="44.144" lon="5.87054">
        <ele>726</ele>
        <time>2021-06-01T14:38:14.871Z</time>
      </trkpt>
      <trkpt lat="44.14401" lon="5.87054">
        <ele>726</ele>
        <time>2021-06-01T14:38:15.871Z</time>
      </trkpt>
      <trkpt lat="44.14402" lon="5.87053">
        <ele>726</ele>
        <time>2021-06-01T14:38:16.871Z</time>
      </trkpt>
      <trkpt lat="44.14402" lon="5.87053">
        <ele>726</ele>
        <time>2021-06-01T14:38:17.871Z</time>
      </trkpt>
      <trkpt lat="44.14403" lon="5.87052">
        <ele>725</ele>
        <time>2021-06-01T14:38:18.871Z</time>
      </trkpt>
      <trkpt lat="44.14403" lon="5.87051">
        <ele>725</ele>
        <time>2021-06-01T14:38:19.871Z</time>
      </trkpt>
      <trkpt lat="44.14404" lon="5.87051">
        <ele>725</ele>
        <time>2021-06-01T14:38:20.871Z</time>
      </trkpt>
      <trkpt lat="44.14405" lon="5.87051">
        <ele>725</ele>
        <time>2021-06-01T14:38:21.871Z</time>
      </trkpt>
      <trkpt lat="44.14407" lon="5.87051">
        <ele>724</ele>
        <time>2021-06-01T14:38:22.871Z</time>
      </trkpt>
      <trkpt lat="44.14408" lon="5.87052">
        <ele>724</ele>
        <time>2021-06-01T14:38:23.871Z</time>
      </trkpt>
      <trkpt lat="44.14409" lon="5.87052">
        <ele>724</ele>
        <time>2021-06-01T14:38:24.871Z</time>
      </trkpt>
      <trkpt lat="44.1441" lon="5.87053">
        <ele>724</ele>
        <time>2021-06-01T14:38:25.871Z</time>
      </trkpt>
      <trkpt lat="44.14411" lon="5.87054">
        <ele>723</ele>
        <time>2021-06-01T14:38:26.871Z</time>
      </trkpt>
      <trkpt lat="44.14411" lon="5.87055">
        <ele>723</ele>
        <time>2021-06-01T14:38:27.871Z</time>
      </trkpt>
      <trkpt lat="44.14411" lon="5.87055">
        <ele>723</ele>
        <time>2021-06-01T14:38:28.871Z</time>
      </trkpt>
      <trkpt lat="44.14412" lon="5.87055">
        <ele>723</ele>
        <time>2021-06-01T14:38:29.871Z</time>
      </trkpt>
      <trkpt lat="44.14412" lon="5.87055">
        <ele>723</ele>
        <time>2021-06-01T14:38:30.871Z</time>
      </trkpt>
      <trkpt lat="44.14413" lon="5.87054">
        <ele>722</ele>
        <time>2021-06-01T14:38:31.871Z</time>
      </trkpt>
      <trkpt lat="44.14414" lon="5.87055">
        <ele>722</ele>
        <time>2021-06-01T14:38:32.871Z</time>
      </trkpt>
      <trkpt lat="44.14414" lon="5.87055">
        <ele>722</ele>
        <time>2021-06-01T14:38:33.871Z</time>
      </trkpt>
      <trkpt lat="44.14415" lon="5.87055">
        <ele>722</ele>
        <time>2021-06-01T14:38:34.871Z</time>
      </trkpt>
      <trkpt lat="44.14415" lon="5.87056">
        <ele>721</ele>
        <time>2021-06-01T14:38:35.871Z</time>
      </trkpt>
      <trkpt lat="44.14415" lon="5.87056">
        <ele>721</ele>
        <time>2021-06-01T14:38:36.871Z</time>
      </trkpt>
      <trkpt lat="44.14415" lon="5.87056">
        <ele>721</ele>
        <time>2021-06-01T14:38:37.871Z</time>
      </trkpt>
      <trkpt lat="44.14416" lon="5.87057">
        <ele>721</ele>
        <time>2021-06-01T14:38:38.871Z</time>
      </trkpt>
      <trkpt lat="44.14417" lon="5.87057">
        <ele>720</ele>
        <time>2021-06-01T14:38:39.871Z</time>
      </trkpt>
      <trkpt lat="44.14418" lon="5.87057">
        <ele>720</ele>
        <time>2021-06-01T14:38:40.871Z</time>
      </trkpt>
      <trkpt lat="44.14418" lon="5.87057">
        <ele>720</ele>
        <time>2021-06-01T14:38:41.871Z</time>
      </trkpt>
      <trkpt lat="44.14419" lon="5.87058">
        <ele>719</ele>
        <time>2021-06-01T14:38:42.871Z</time>
      </trkpt>
      <trkpt lat="44.1442" lon="5.87058">
        <ele>719</ele>
        <time>2021-06-01T14:38:43.871Z</time>
      </trkpt>
      <trkpt lat="44.1442" lon="5.87058">
        <ele>719</ele>
        <time>2021-06-01T14:38:44.871Z</time>
      </trkpt>
      <trkpt lat="44.14421" lon="5.87059">
        <ele>719</ele>
        <time>2021-06-01T14:38:45.871Z</time>
      </trkpt>
      <trkpt lat="44.14421" lon="5.87059">
        <ele>719</ele>
        <time>2021-06-01T14:38:46.871Z</time>
      </trkpt>
      <trkpt lat="44.14421" lon="5.87058">
        <ele>718</ele>
        <time>2021-06-01T14:38:47.871Z</time>
      </trkpt>
      <trkpt lat="44.14422" lon="5.87059">
        <ele>718</ele>
        <time>2021-06-01T14:38:48.871Z</time>
      </trkpt>
      <trkpt lat="44.14422" lon="5.87059">
        <ele>718</ele>
        <time>2021-06-01T14:38:49.871Z</time>
      </trkpt>
      <trkpt lat="44.14423" lon="5.87059">
        <ele>718</ele>
        <time>2021-06-01T14:38:50.871Z</time>
      </trkpt>
      <trkpt lat="44.14423" lon="5.8706">
        <ele>717</ele>
        <time>2021-06-01T14:38:51.871Z</time>
      </trkpt>
      <trkpt lat="44.14423" lon="5.87061">
        <ele>717</ele>
        <time>2021-06-01T14:38:52.871Z</time>
      </trkpt>
      <trkpt lat="44.14424" lon="5.87062">
        <ele>717</ele>
        <time>2021-06-01T14:38:53.871Z</time>
      </trkpt>
      <trkpt lat="44.14424" lon="5.87062">
        <ele>717</ele>
        <time>2021-06-01T14:38:54.871Z</time>
      </trkpt>
      <trkpt lat="44.14425" lon="5.87063">
        <ele>716</ele>
        <time>2021-06-01T14:38:55.871Z</time>
      </trkpt>
      <trkpt lat="44.14425" lon="5.87063">
        <ele>716</ele>
        <time>2021-06-01T14:38:56.871Z</time>
      </trkpt>
      <trkpt lat="44.14426" lon="5.87063">
        <ele>716</ele>
        <time>2021-06-01T14:38:57.871Z</time>
      </trkpt>
      <trkpt lat="44.14426" lon="5.87063">
        <ele>716</ele>
        <time>2021-06-01T14:38:58.871Z</time>
      </trkpt>
      <trkpt lat="44.14426" lon="5.87064">
        <ele>715</ele>
        <time>2021-06-01T14:38:59.871Z</time>
      </trkpt>
      <trkpt lat="44.14427" lon="5.87064">
        <ele>715</ele>
        <time>2021-06-01T14:39:00.871Z</time>
      </trkpt>
      <trkpt lat="44.14427" lon="5.87065">
        <ele>715</ele>
        <time>2021-06-01T14:39:01.871Z</time>
      </trkpt>
      <trkpt lat="44.14428" lon="5.87065">
        <ele>714</ele>
        <time>2021-06-01T14:39:02.871Z</time>
      </trkpt>
      <trkpt lat="44.14428" lon="5.87066">
        <ele>714</ele>
        <time>2021-06-01T14:39:03.871Z</time>
      </trkpt>
      <trkpt lat="44.14429" lon="5.87066">
        <ele>714</ele>
        <time>2021-06-01T14:39:04.871Z</time>
      </trkpt>
      <trkpt lat="44.14429" lon="5.87066">
        <ele>714</ele>
        <time>2021-06-01T14:39:05.871Z</time>
      </trkpt>
      <trkpt lat="44.1443" lon="5.87066">
        <ele>713</ele>
        <time>2021-06-01T14:39:06.871Z</time>
      </trkpt>
      <trkpt lat="44.14431" lon="5.87066">
        <ele>713</ele>
        <time>2021-06-01T14:39:07.871Z</time>
      </trkpt>
      <trkpt lat="44.14432" lon="5.87066">
        <ele>713</ele>
        <time>2021-06-01T14:39:08.871Z</time>
      </trkpt>
      <trkpt lat="44.14432" lon="5.87066">
        <ele>712</ele>
        <time>2021-06-01T14:39:09.871Z</time>
      </trkpt>
      <trkpt lat="44.14433" lon="5.87066">
        <ele>712</ele>
        <time>2021-06-01T14:39:10.871Z</time>
      </trkpt>
      <trkpt lat="44.14434" lon="5.87066">
        <ele>712</ele>
        <time>2021-06-01T14:39:11.871Z</time>
      </trkpt>
      <trkpt lat="44.14435" lon="5.87067">
        <ele>712</ele>
        <time>2021-06-01T14:39:12.871Z</time>
      </trkpt>
      <trkpt lat="44.14436" lon="5.87068">
        <ele>711</ele>
        <time>2021-06-01T14:39:13.871Z</time>
      </trkpt>
      <trkpt lat="44.14436" lon="5.87069">
        <ele>711</ele>
        <time>2021-06-01T14:39:14.871Z</time>
      </trkpt>
      <trkpt lat="44.14437" lon="5.87069">
        <ele>711</ele>
        <time>2021-06-01T14:39:15.871Z</time>
      </trkpt>
      <trkpt lat="44.14438" lon="5.8707">
        <ele>710</ele>
        <time>2021-06-01T14:39:16.871Z</time>
      </trkpt>
      <trkpt lat="44.14438" lon="5.8707">
        <ele>710</ele>
        <time>2021-06-01T14:39:17.871Z</time>
      </trkpt>
      <trkpt lat="44.14439" lon="5.8707">
        <ele>710</ele>
        <time>2021-06-01T14:39:18.871Z</time>
      </trkpt>
      <trkpt lat="44.1444" lon="5.8707">
        <ele>709</ele>
        <time>2021-06-01T14:39:19.871Z</time>
      </trkpt>
      <trkpt lat="44.1444" lon="5.87071">
        <ele>709</ele>
        <time>2021-06-01T14:39:20.871Z</time>
      </trkpt>
      <trkpt lat="44.14441" lon="5.87071">
        <ele>709</ele>
        <time>2021-06-01T14:39:21.871Z</time>
      </trkpt>
      <trkpt lat="44.14441" lon="5.87071">
        <ele>709</ele>
        <time>2021-06-01T14:39:22.871Z</time>
      </trkpt>
      <trkpt lat="44.14441" lon="5.87071">
        <ele>709</ele>
        <time>2021-06-01T14:39:23.871Z</time>
      </trkpt>
      <trkpt lat="44.14441" lon="5.87072">
        <ele>708</ele>
        <time>2021-06-01T14:39:24.871Z</time>
      </trkpt>
      <trkpt lat="44.14442" lon="5.87072">
        <ele>708</ele>
        <time>2021-06-01T14:39:25.871Z</time>
      </trkpt>
      <trkpt lat="44.14442" lon="5.87073">
        <ele>708</ele>
        <time>2021-06-01T14:39:26.871Z</time>
      </trkpt>
      <trkpt lat="44.14443" lon="5.87073">
        <ele>707</ele>
        <time>2021-06-01T14:39:27.871Z</time>
      </trkpt>
      <trkpt lat="44.14443" lon="5.87073">
        <ele>707</ele>
        <time>2021-06-01T14:39:28.871Z</time>
      </trkpt>
      <trkpt lat="44.14443" lon="5.87074">
        <ele>707</ele>
        <time>2021-06-01T14:39:29.871Z</time>
      </trkpt>
      <trkpt lat="44.14444" lon="5.87075">
        <ele>706</ele>
        <time>2021-06-01T14:39:30.871Z</time>
      </trkpt>
      <trkpt lat="44.14444" lon="5.87075">
        <ele>706</ele>
        <time>2021-06-01T14:39:31.871Z</time>
      </trkpt>
      <trkpt lat="44.14445" lon="5.87076">
        <ele>706</ele>
        <time>2021-06-01T14:39:32.871Z</time>
      </trkpt>
      <trkpt lat="44.14446" lon="5.87075">
        <ele>706</ele>
        <time>2021-06-01T14:39:33.871Z</time>
      </trkpt>
      <trkpt lat="44.14447" lon="5.87076">
        <ele>705</ele>
        <time>2021-06-01T14:39:34.871Z</time>
      </trkpt>
      <trkpt lat="44.14448" lon="5.87076">
        <ele>705</ele>
        <time>2021-06-01T14:39:35.871Z</time>
      </trkpt>
      <trkpt lat="44.14449" lon="5.87076">
        <ele>705</ele>
        <time>2021-06-01T14:39:36.871Z</time>
      </trkpt>
      <trkpt lat="44.1445" lon="5.87077">
        <ele>705</ele>
        <time>2021-06-01T14:39:37.871Z</time>
      </trkpt>
      <trkpt lat="44.14451" lon="5.87078">
        <ele>704</ele>
        <time>2021-06-01T14:39:38.871Z</time>
      </trkpt>
      <trkpt lat="44.14452" lon="5.87078">
        <ele>704</ele>
        <time>2021-06-01T14:39:39.871Z</time>
      </trkpt>
      <trkpt lat="44.14453" lon="5.87079">
        <ele>704</ele>
        <time>2021-06-01T14:39:40.871Z</time>
      </trkpt>
      <trkpt lat="44.14454" lon="5.8708">
        <ele>703</ele>
        <time>2021-06-01T14:39:41.871Z</time>
      </trkpt>
      <trkpt lat="44.14455" lon="5.8708">
        <ele>703</ele>
        <time>2021-06-01T14:39:42.871Z</time>
      </trkpt>
      <trkpt lat="44.14456" lon="5.87081">
        <ele>703</ele>
        <time>2021-06-01T14:39:43.871Z</time>
      </trkpt>
      <trkpt lat="44.14457" lon="5.87081">
        <ele>703</ele>
        <time>2021-06-01T14:39:44.871Z</time>
      </trkpt>
      <trkpt lat="44.14458" lon="5.87081">
        <ele>702</ele>
        <time>2021-06-01T14:39:45.871Z</time>
      </trkpt>
      <trkpt lat="44.14459" lon="5.87082">
        <ele>702</ele>
        <time>2021-06-01T14:39:46.871Z</time>
      </trkpt>
      <trkpt lat="44.1446" lon="5.87082">
        <ele>702</ele>
        <time>2021-06-01T14:39:47.871Z</time>
      </trkpt>
      <trkpt lat="44.14461" lon="5.87083">
        <ele>701</ele>
        <time>2021-06-01T14:39:48.871Z</time>
      </trkpt>
      <trkpt lat="44.14462" lon="5.87083">
        <ele>701</ele>
        <time>2021-06-01T14:39:49.871Z</time>
      </trkpt>
      <trkpt lat="44.14462" lon="5.87084">
        <ele>701</ele>
        <time>2021-06-01T14:39:50.871Z</time>
      </trkpt>
      <trkpt lat="44.14464" lon="5.87084">
        <ele>701</ele>
        <time>2021-06-01T14:39:51.871Z</time>
      </trkpt>
      <trkpt lat="44.14465" lon="5.87084">
        <ele>701</ele>
        <time>2021-06-01T14:39:52.871Z</time>
      </trkpt>
      <trkpt lat="44.14465" lon="5.87085">
        <ele>701</ele>
        <time>2021-06-01T14:39:53.871Z</time>
      </trkpt>
      <trkpt lat="44.14466" lon="5.87086">
        <ele>700</ele>
        <time>2021-06-01T14:39:54.871Z</time>
      </trkpt>
      <trkpt lat="44.14466" lon="5.87086">
        <ele>700</ele>
        <time>2021-06-01T14:39:55.871Z</time>
      </trkpt>
      <trkpt lat="44.14467" lon="5.87087">
        <ele>700</ele>
        <time>2021-06-01T14:39:56.871Z</time>
      </trkpt>
      <trkpt lat="44.14468" lon="5.87087">
        <ele>700</ele>
        <time>2021-06-01T14:39:57.871Z</time>
      </trkpt>
      <trkpt lat="44.14469" lon="5.87088">
        <ele>700</ele>
        <time>2021-06-01T14:39:58.871Z</time>
      </trkpt>
      <trkpt lat="44.14469" lon="5.87088">
        <ele>700</ele>
        <time>2021-06-01T14:39:59.871Z</time>
      </trkpt>
      <trkpt lat="44.1447" lon="5.87089">
        <ele>699</ele>
        <time>2021-06-01T14:40:00.871Z</time>
      </trkpt>
      <trkpt lat="44.1447" lon="5.87089">
        <ele>699</ele>
        <time>2021-06-01T14:40:01.871Z</time>
      </trkpt>
      <trkpt lat="44.14471" lon="5.87089">
        <ele>699</ele>
        <time>2021-06-01T14:40:02.871Z</time>
      </trkpt>
      <trkpt lat="44.14471" lon="5.8709">
        <ele>699</ele>
        <time>2021-06-01T14:40:03.871Z</time>
      </trkpt>
      <trkpt lat="44.14472" lon="5.8709">
        <ele>699</ele>
        <time>2021-06-01T14:40:04.871Z</time>
      </trkpt>
      <trkpt lat="44.14472" lon="5.87091">
        <ele>699</ele>
        <time>2021-06-01T14:40:05.871Z</time>
      </trkpt>
      <trkpt lat="44.14473" lon="5.87091">
        <ele>698</ele>
        <time>2021-06-01T14:40:06.871Z</time>
      </trkpt>
      <trkpt lat="44.14473" lon="5.87092">
        <ele>698</ele>
        <time>2021-06-01T14:40:07.871Z</time>
      </trkpt>
      <trkpt lat="44.14474" lon="5.87092">
        <ele>698</ele>
        <time>2021-06-01T14:40:08.871Z</time>
      </trkpt>
      <trkpt lat="44.14474" lon="5.87092">
        <ele>698</ele>
        <time>2021-06-01T14:40:09.871Z</time>
      </trkpt>
      <trkpt lat="44.14475" lon="5.87092">
        <ele>698</ele>
        <time>2021-06-01T14:40:10.871Z</time>
      </trkpt>
      <trkpt lat="44.14475" lon="5.87093">
        <ele>697</ele>
        <time>2021-06-01T14:40:11.871Z</time>
      </trkpt>
      <trkpt lat="44.14476" lon="5.87093">
        <ele>697</ele>
        <time>2021-06-01T14:40:12.871Z</time>
      </trkpt>
      <trkpt lat="44.14477" lon="5.87093">
        <ele>697</ele>
        <time>2021-06-01T14:40:13.871Z</time>
      </trkpt>
      <trkpt lat="44.14477" lon="5.87093">
        <ele>697</ele>
        <time>2021-06-01T14:40:14.871Z</time>
      </trkpt>
      <trkpt lat="44.14478" lon="5.87093">
        <ele>697</ele>
        <time>2021-06-01T14:40:15.871Z</time>
      </trkpt>
      <trkpt lat="44.14479" lon="5.87093">
        <ele>696</ele>
        <time>2021-06-01T14:40:16.871Z</time>
      </trkpt>
      <trkpt lat="44.1448" lon="5.87093">
        <ele>696</ele>
        <time>2021-06-01T14:40:17.871Z</time>
      </trkpt>
      <trkpt lat="44.14481" lon="5.87093">
        <ele>696</ele>
        <time>2021-06-01T14:40:18.871Z</time>
      </trkpt>
      <trkpt lat="44.14482" lon="5.87093">
        <ele>696</ele>
        <time>2021-06-01T14:40:19.871Z</time>
      </trkpt>
      <trkpt lat="44.14483" lon="5.87093">
        <ele>696</ele>
        <time>2021-06-01T14:40:20.871Z</time>
      </trkpt>
      <trkpt lat="44.14484" lon="5.87094">
        <ele>696</ele>
        <time>2021-06-01T14:40:21.871Z</time>
      </trkpt>
      <trkpt lat="44.14485" lon="5.87094">
        <ele>695</ele>
        <time>2021-06-01T14:40:22.871Z</time>
      </trkpt>
      <trkpt lat="44.14486" lon="5.87094">
        <ele>695</ele>
        <time>2021-06-01T14:40:23.871Z</time>
      </trkpt>
      <trkpt lat="44.14486" lon="5.87095">
        <ele>695</ele>
        <time>2021-06-01T14:40:24.871Z</time>
      </trkpt>
      <trkpt lat="44.14487" lon="5.87095">
        <ele>694</ele>
        <time>2021-06-01T14:40:25.871Z</time>
      </trkpt>
      <trkpt lat="44.14488" lon="5.87096">
        <ele>694</ele>
        <time>2021-06-01T14:40:26.871Z</time>
      </trkpt>
      <trkpt lat="44.1449" lon="5.87096">
        <ele>693</ele>
        <time>2021-06-01T14:40:27.871Z</time>
      </trkpt>
      <trkpt lat="44.14491" lon="5.87097">
        <ele>692</ele>
        <time>2021-06-01T14:40:28.871Z</time>
      </trkpt>
      <trkpt lat="44.14492" lon="5.87097">
        <ele>692</ele>
        <time>2021-06-01T14:40:29.871Z</time>
      </trkpt>
      <trkpt lat="44.14494" lon="5.87097">
        <ele>691</ele>
        <time>2021-06-01T14:40:30.871Z</time>
      </trkpt>
      <trkpt lat="44.14495" lon="5.87098">
        <ele>691</ele>
        <time>2021-06-01T14:40:31.871Z</time>
      </trkpt>
      <trkpt lat="44.14496" lon="5.87099">
        <ele>690</ele>
        <time>2021-06-01T14:40:32.871Z</time>
      </trkpt>
      <trkpt lat="44.14497" lon="5.871">
        <ele>690</ele>
        <time>2021-06-01T14:40:33.871Z</time>
      </trkpt>
      <trkpt lat="44.14498" lon="5.87101">
        <ele>689</ele>
        <time>2021-06-01T14:40:34.871Z</time>
      </trkpt>
      <trkpt lat="44.14499" lon="5.87101">
        <ele>689</ele>
        <time>2021-06-01T14:40:35.871Z</time>
      </trkpt>
      <trkpt lat="44.145" lon="5.87102">
        <ele>688</ele>
        <time>2021-06-01T14:40:36.871Z</time>
      </trkpt>
      <trkpt lat="44.14502" lon="5.87103">
        <ele>688</ele>
        <time>2021-06-01T14:40:37.871Z</time>
      </trkpt>
      <trkpt lat="44.14503" lon="5.87103">
        <ele>687</ele>
        <time>2021-06-01T14:40:38.871Z</time>
      </trkpt>
      <trkpt lat="44.14504" lon="5.87103">
        <ele>687</ele>
        <time>2021-06-01T14:40:39.871Z</time>
      </trkpt>
      <trkpt lat="44.14505" lon="5.87104">
        <ele>686</ele>
        <time>2021-06-01T14:40:40.871Z</time>
      </trkpt>
      <trkpt lat="44.14506" lon="5.87104">
        <ele>686</ele>
        <time>2021-06-01T14:40:41.871Z</time>
      </trkpt>
      <trkpt lat="44.14507" lon="5.87105">
        <ele>685</ele>
        <time>2021-06-01T14:40:42.871Z</time>
      </trkpt>
      <trkpt lat="44.14508" lon="5.87106">
        <ele>685</ele>
        <time>2021-06-01T14:40:43.871Z</time>
      </trkpt>
      <trkpt lat="44.14509" lon="5.87107">
        <ele>684</ele>
        <time>2021-06-01T14:40:44.871Z</time>
      </trkpt>
      <trkpt lat="44.1451" lon="5.87108">
        <ele>684</ele>
        <time>2021-06-01T14:40:45.871Z</time>
      </trkpt>
      <trkpt lat="44.1451" lon="5.87108">
        <ele>684</ele>
        <time>2021-06-01T14:40:46.871Z</time>
      </trkpt>
      <trkpt lat="44.14511" lon="5.87109">
        <ele>683</ele>
        <time>2021-06-01T14:40:47.871Z</time>
      </trkpt>
      <trkpt lat="44.14512" lon="5.8711">
        <ele>683</ele>
        <time>2021-06-01T14:40:48.871Z</time>
      </trkpt>
      <trkpt lat="44.14512" lon="5.87111">
        <ele>682</ele>
        <time>2021-06-01T14:40:49.871Z</time>
      </trkpt>
      <trkpt lat="44.14513" lon="5.87111">
        <ele>682</ele>
        <time>2021-06-01T14:40:50.871Z</time>
      </trkpt>
      <trkpt lat="44.14514" lon="5.87111">
        <ele>682</ele>
        <time>2021-06-01T14:40:51.871Z</time>
      </trkpt>
      <trkpt lat="44.14515" lon="5.87112">
        <ele>681</ele>
        <time>2021-06-01T14:40:52.871Z</time>
      </trkpt>
      <trkpt lat="44.14515" lon="5.87112">
        <ele>681</ele>
        <time>2021-06-01T14:40:53.871Z</time>
      </trkpt>
      <trkpt lat="44.14516" lon="5.87112">
        <ele>681</ele>
        <time>2021-06-01T14:40:54.871Z</time>
      </trkpt>
      <trkpt lat="44.14516" lon="5.87113">
        <ele>680</ele>
        <time>2021-06-01T14:40:55.871Z</time>
      </trkpt>
      <trkpt lat="44.14517" lon="5.87113">
        <ele>680</ele>
        <time>2021-06-01T14:40:56.871Z</time>
      </trkpt>
      <trkpt lat="44.14518" lon="5.87114">
        <ele>680</ele>
        <time>2021-06-01T14:40:57.871Z</time>
      </trkpt>
      <trkpt lat="44.14518" lon="5.87115">
        <ele>679</ele>
        <time>2021-06-01T14:40:58.871Z</time>
      </trkpt>
      <trkpt lat="44.14519" lon="5.87116">
        <ele>679</ele>
        <time>2021-06-01T14:40:59.871Z</time>
      </trkpt>
      <trkpt lat="44.14519" lon="5.87117">
        <ele>679</ele>
        <time>2021-06-01T14:41:00.871Z</time>
      </trkpt>
      <trkpt lat="44.1452" lon="5.87118">
        <ele>679</ele>
        <time>2021-06-01T14:41:01.871Z</time>
      </trkpt>
      <trkpt lat="44.1452" lon="5.87119">
        <ele>678</ele>
        <time>2021-06-01T14:41:02.871Z</time>
      </trkpt>
      <trkpt lat="44.14521" lon="5.8712">
        <ele>678</ele>
        <time>2021-06-01T14:41:03.871Z</time>
      </trkpt>
      <trkpt lat="44.14521" lon="5.8712">
        <ele>678</ele>
        <time>2021-06-01T14:41:04.871Z</time>
      </trkpt>
      <trkpt lat="44.14522" lon="5.87121">
        <ele>678</ele>
        <time>2021-06-01T14:41:05.871Z</time>
      </trkpt>
      <trkpt lat="44.14522" lon="5.87122">
        <ele>677</ele>
        <time>2021-06-01T14:41:06.871Z</time>
      </trkpt>
      <trkpt lat="44.14523" lon="5.87123">
        <ele>677</ele>
        <time>2021-06-01T14:41:07.871Z</time>
      </trkpt>
      <trkpt lat="44.14523" lon="5.87123">
        <ele>677</ele>
        <time>2021-06-01T14:41:08.871Z</time>
      </trkpt>
      <trkpt lat="44.14523" lon="5.87123">
        <ele>677</ele>
        <time>2021-06-01T14:41:09.871Z</time>
      </trkpt>
      <trkpt lat="44.14523" lon="5.87124">
        <ele>677</ele>
        <time>2021-06-01T14:41:10.871Z</time>
      </trkpt>
      <trkpt lat="44.14524" lon="5.87124">
        <ele>677</ele>
        <time>2021-06-01T14:41:11.871Z</time>
      </trkpt>
      <trkpt lat="44.14524" lon="5.87125">
        <ele>677</ele>
        <time>2021-06-01T14:41:12.871Z</time>
      </trkpt>
      <trkpt lat="44.14525" lon="5.87126">
        <ele>677</ele>
        <time>2021-06-01T14:41:13.871Z</time>
      </trkpt>
      <trkpt lat="44.14525" lon="5.87126">
        <ele>676</ele>
        <time>2021-06-01T14:41:14.871Z</time>
      </trkpt>
      <trkpt lat="44.14526" lon="5.87127">
        <ele>676</ele>
        <time>2021-06-01T14:41:15.871Z</time>
      </trkpt>
      <trkpt lat="44.14526" lon="5.87128">
        <ele>676</ele>
        <time>2021-06-01T14:41:16.871Z</time>
      </trkpt>
      <trkpt lat="44.14527" lon="5.87129">
        <ele>676</ele>
        <time>2021-06-01T14:41:17.871Z</time>
      </trkpt>
      <trkpt lat="44.14528" lon="5.8713">
        <ele>676</ele>
        <time>2021-06-01T14:41:18.871Z</time>
      </trkpt>
      <trkpt lat="44.14528" lon="5.8713">
        <ele>676</ele>
        <time>2021-06-01T14:41:19.871Z</time>
      </trkpt>
      <trkpt lat="44.14529" lon="5.87131">
        <ele>676</ele>
        <time>2021-06-01T14:41:20.871Z</time>
      </trkpt>
      <trkpt lat="44.1453" lon="5.87132">
        <ele>676</ele>
        <time>2021-06-01T14:41:21.871Z</time>
      </trkpt>
      <trkpt lat="44.14531" lon="5.87132">
        <ele>675</ele>
        <time>2021-06-01T14:41:22.871Z</time>
      </trkpt>
      <trkpt lat="44.14532" lon="5.87133">
        <ele>675</ele>
        <time>2021-06-01T14:41:23.871Z</time>
      </trkpt>
      <trkpt lat="44.14533" lon="5.87134">
        <ele>675</ele>
        <time>2021-06-01T14:41:24.871Z</time>
      </trkpt>
      <trkpt lat="44.14534" lon="5.87135">
        <ele>675</ele>
        <time>2021-06-01T14:41:25.871Z</time>
      </trkpt>
      <trkpt lat="44.14534" lon="5.87136">
        <ele>675</ele>
        <time>2021-06-01T14:41:26.871Z</time>
      </trkpt>
      <trkpt lat="44.14535" lon="5.87137">
        <ele>675</ele>
        <time>2021-06-01T14:41:27.871Z</time>
      </trkpt>
      <trkpt lat="44.14536" lon="5.87138">
        <ele>674</ele>
        <time>2021-06-01T14:41:28.871Z</time>
      </trkpt>
      <trkpt lat="44.14536" lon="5.87138">
        <ele>674</ele>
        <time>2021-06-01T14:41:29.871Z</time>
      </trkpt>
      <trkpt lat="44.14537" lon="5.87139">
        <ele>674</ele>
        <time>2021-06-01T14:41:30.871Z</time>
      </trkpt>
      <trkpt lat="44.14537" lon="5.87139">
        <ele>674</ele>
        <time>2021-06-01T14:41:31.871Z</time>
      </trkpt>
      <trkpt lat="44.14537" lon="5.87139">
        <ele>674</ele>
        <time>2021-06-01T14:41:32.871Z</time>
      </trkpt>
      <trkpt lat="44.14537" lon="5.87139">
        <ele>674</ele>
        <time>2021-06-01T14:41:33.871Z</time>
      </trkpt>
      <trkpt lat="44.14537" lon="5.87139">
        <ele>674</ele>
        <time>2021-06-01T14:41:34.871Z</time>
      </trkpt>
      <trkpt lat="44.14537" lon="5.87139">
        <ele>673</ele>
        <time>2021-06-01T14:41:35.871Z</time>
      </trkpt>
      <trkpt lat="44.14537" lon="5.87139">
        <ele>673</ele>
        <time>2021-06-01T14:41:36.871Z</time>
      </trkpt>
      <trkpt lat="44.14537" lon="5.8714">
        <ele>673</ele>
        <time>2021-06-01T14:41:37.871Z</time>
      </trkpt>
      <trkpt lat="44.14538" lon="5.8714">
        <ele>673</ele>
        <time>2021-06-01T14:41:38.871Z</time>
      </trkpt>
      <trkpt lat="44.14538" lon="5.87141">
        <ele>673</ele>
        <time>2021-06-01T14:41:39.871Z</time>
      </trkpt>
      <trkpt lat="44.14539" lon="5.87142">
        <ele>673</ele>
        <time>2021-06-01T14:41:40.871Z</time>
      </trkpt>
      <trkpt lat="44.14539" lon="5.87142">
        <ele>673</ele>
        <time>2021-06-01T14:41:41.871Z</time>
      </trkpt>
      <trkpt lat="44.1454" lon="5.87143">
        <ele>673</ele>
        <time>2021-06-01T14:41:42.871Z</time>
      </trkpt>
      <trkpt lat="44.1454" lon="5.87144">
        <ele>673</ele>
        <time>2021-06-01T14:41:43.871Z</time>
      </trkpt>
      <trkpt lat="44.14541" lon="5.87144">
        <ele>673</ele>
        <time>2021-06-01T14:41:44.871Z</time>
      </trkpt>
      <trkpt lat="44.14541" lon="5.87145">
        <ele>673</ele>
        <time>2021-06-01T14:41:45.871Z</time>
      </trkpt>
      <trkpt lat="44.14542" lon="5.87145">
        <ele>673</ele>
        <time>2021-06-01T14:41:46.871Z</time>
      </trkpt>
      <trkpt lat="44.14542" lon="5.87145">
        <ele>672</ele>
        <time>2021-06-01T14:41:47.871Z</time>
      </trkpt>
      <trkpt lat="44.14542" lon="5.87145">
        <ele>672</ele>
        <time>2021-06-01T14:41:48.871Z</time>
      </trkpt>
      <trkpt lat="44.14542" lon="5.87145">
        <ele>672</ele>
        <time>2021-06-01T14:41:49.871Z</time>
      </trkpt>
      <trkpt lat="44.14542" lon="5.87145">
        <ele>672</ele>
        <time>2021-06-01T14:41:50.871Z</time>
      </trkpt>
      <trkpt lat="44.14542" lon="5.87145">
        <ele>672</ele>
        <time>2021-06-01T14:41:51.871Z</time>
      </trkpt>
      <trkpt lat="44.14542" lon="5.87145">
        <ele>672</ele>
        <time>2021-06-01T14:41:52.871Z</time>
      </trkpt>
      <trkpt lat="44.14542" lon="5.87145">
        <ele>672</ele>
        <time>2021-06-01T14:41:53.871Z</time>
      </trkpt>
      <trkpt lat="44.14542" lon="5.87145">
        <ele>672</ele>
        <time>2021-06-01T14:41:54.871Z</time>
      </trkpt>
      <trkpt lat="44.14542" lon="5.87146">
        <ele>672</ele>
        <time>2021-06-01T14:41:55.871Z</time>
      </trkpt>
      <trkpt lat="44.14542" lon="5.87146">
        <ele>672</ele>
        <time>2021-06-01T14:41:56.871Z</time>
      </trkpt>
      <trkpt lat="44.14543" lon="5.87146">
        <ele>672</ele>
        <time>2021-06-01T14:41:57.871Z</time>
      </trkpt>
      <trkpt lat="44.14543" lon="5.87147">
        <ele>671</ele>
        <time>2021-06-01T14:41:58.871Z</time>
      </trkpt>
      <trkpt lat="44.14543" lon="5.87147">
        <ele>671</ele>
        <time>2021-06-01T14:41:59.871Z</time>
      </trkpt>
      <trkpt lat="44.14544" lon="5.87147">
        <ele>671</ele>
        <time>2021-06-01T14:42:00.871Z</time>
      </trkpt>
      <trkpt lat="44.14544" lon="5.87148">
        <ele>671</ele>
        <time>2021-06-01T14:42:01.871Z</time>
      </trkpt>
      <trkpt lat="44.14545" lon="5.87149">
        <ele>671</ele>
        <time>2021-06-01T14:42:02.871Z</time>
      </trkpt>
      <trkpt lat="44.14545" lon="5.87149">
        <ele>670</ele>
        <time>2021-06-01T14:42:03.871Z</time>
      </trkpt>
      <trkpt lat="44.14546" lon="5.87149">
        <ele>670</ele>
        <time>2021-06-01T14:42:04.871Z</time>
      </trkpt>
      <trkpt lat="44.14547" lon="5.8715">
        <ele>670</ele>
        <time>2021-06-01T14:42:05.871Z</time>
      </trkpt>
      <trkpt lat="44.14547" lon="5.8715">
        <ele>670</ele>
        <time>2021-06-01T14:42:06.871Z</time>
      </trkpt>
      <trkpt lat="44.14548" lon="5.87151">
        <ele>670</ele>
        <time>2021-06-01T14:42:07.871Z</time>
      </trkpt>
      <trkpt lat="44.14549" lon="5.87152">
        <ele>669</ele>
        <time>2021-06-01T14:42:08.871Z</time>
      </trkpt>
      <trkpt lat="44.14549" lon="5.87153">
        <ele>669</ele>
        <time>2021-06-01T14:42:09.871Z</time>
      </trkpt>
      <trkpt lat="44.1455" lon="5.87153">
        <ele>669</ele>
        <time>2021-06-01T14:42:10.871Z</time>
      </trkpt>
      <trkpt lat="44.1455" lon="5.87154">
        <ele>669</ele>
        <time>2021-06-01T14:42:11.871Z</time>
      </trkpt>
      <trkpt lat="44.1455" lon="5.87154">
        <ele>668</ele>
        <time>2021-06-01T14:42:12.871Z</time>
      </trkpt>
      <trkpt lat="44.14551" lon="5.87155">
        <ele>668</ele>
        <time>2021-06-01T14:42:13.871Z</time>
      </trkpt>
      <trkpt lat="44.14551" lon="5.87155">
        <ele>668</ele>
        <time>2021-06-01T14:42:14.871Z</time>
      </trkpt>
      <trkpt lat="44.14552" lon="5.87155">
        <ele>668</ele>
        <time>2021-06-01T14:42:15.871Z</time>
      </trkpt>
      <trkpt lat="44.14552" lon="5.87156">
        <ele>668</ele>
        <time>2021-06-01T14:42:16.871Z</time>
      </trkpt>
      <trkpt lat="44.14553" lon="5.87156">
        <ele>668</ele>
        <time>2021-06-01T14:42:17.871Z</time>
      </trkpt>
      <trkpt lat="44.14553" lon="5.87157">
        <ele>668</ele>
        <time>2021-06-01T14:42:18.871Z</time>
      </trkpt>
      <trkpt lat="44.14554" lon="5.87158">
        <ele>667</ele>
        <time>2021-06-01T14:42:19.871Z</time>
      </trkpt>
      <trkpt lat="44.14554" lon="5.87158">
        <ele>667</ele>
        <time>2021-06-01T14:42:20.871Z</time>
      </trkpt>
      <trkpt lat="44.14555" lon="5.87159">
        <ele>667</ele>
        <time>2021-06-01T14:42:21.871Z</time>
      </trkpt>
      <trkpt lat="44.14556" lon="5.8716">
        <ele>667</ele>
        <time>2021-06-01T14:42:22.871Z</time>
      </trkpt>
      <trkpt lat="44.14556" lon="5.87161">
        <ele>667</ele>
        <time>2021-06-01T14:42:23.871Z</time>
      </trkpt>
      <trkpt lat="44.14556" lon="5.87161">
        <ele>666</ele>
        <time>2021-06-01T14:42:24.871Z</time>
      </trkpt>
      <trkpt lat="44.14557" lon="5.87162">
        <ele>666</ele>
        <time>2021-06-01T14:42:25.871Z</time>
      </trkpt>
      <trkpt lat="44.14557" lon="5.87163">
        <ele>666</ele>
        <time>2021-06-01T14:42:26.871Z</time>
      </trkpt>
      <trkpt lat="44.14558" lon="5.87164">
        <ele>666</ele>
        <time>2021-06-01T14:42:27.871Z</time>
      </trkpt>
      <trkpt lat="44.14558" lon="5.87164">
        <ele>666</ele>
        <time>2021-06-01T14:42:28.871Z</time>
      </trkpt>
      <trkpt lat="44.14559" lon="5.87165">
        <ele>666</ele>
        <time>2021-06-01T14:42:29.871Z</time>
      </trkpt>
      <trkpt lat="44.14559" lon="5.87165">
        <ele>666</ele>
        <time>2021-06-01T14:42:30.871Z</time>
      </trkpt>
      <trkpt lat="44.1456" lon="5.87166">
        <ele>665</ele>
        <time>2021-06-01T14:42:31.871Z</time>
      </trkpt>
      <trkpt lat="44.1456" lon="5.87167">
        <ele>665</ele>
        <time>2021-06-01T14:42:32.871Z</time>
      </trkpt>
      <trkpt lat="44.14561" lon="5.87167">
        <ele>665</ele>
        <time>2021-06-01T14:42:33.871Z</time>
      </trkpt>
      <trkpt lat="44.14561" lon="5.87167">
        <ele>665</ele>
        <time>2021-06-01T14:42:34.871Z</time>
      </trkpt>
      <trkpt lat="44.14561" lon="5.87167">
        <ele>665</ele>
        <time>2021-06-01T14:42:35.871Z</time>
      </trkpt>
      <trkpt lat="44.14562" lon="5.87168">
        <ele>665</ele>
        <time>2021-06-01T14:42:36.871Z</time>
      </trkpt>
      <trkpt lat="44.14562" lon="5.87168">
        <ele>665</ele>
        <time>2021-06-01T14:42:37.871Z</time>
      </trkpt>
      <trkpt lat="44.14563" lon="5.87168">
        <ele>665</ele>
        <time>2021-06-01T14:42:38.871Z</time>
      </trkpt>
      <trkpt lat="44.14563" lon="5.87169">
        <ele>665</ele>
        <time>2021-06-01T14:42:39.871Z</time>
      </trkpt>
      <trkpt lat="44.14563" lon="5.8717">
        <ele>664</ele>
        <time>2021-06-01T14:42:40.871Z</time>
      </trkpt>
      <trkpt lat="44.14563" lon="5.8717">
        <ele>664</ele>
        <time>2021-06-01T14:42:41.871Z</time>
      </trkpt>
      <trkpt lat="44.14564" lon="5.87171">
        <ele>664</ele>
        <time>2021-06-01T14:42:42.871Z</time>
      </trkpt>
      <trkpt lat="44.14564" lon="5.87171">
        <ele>664</ele>
        <time>2021-06-01T14:42:43.871Z</time>
      </trkpt>
      <trkpt lat="44.14565" lon="5.87172">
        <ele>664</ele>
        <time>2021-06-01T14:42:44.871Z</time>
      </trkpt>
      <trkpt lat="44.14565" lon="5.87172">
        <ele>663</ele>
        <time>2021-06-01T14:42:45.871Z</time>
      </trkpt>
      <trkpt lat="44.14566" lon="5.87173">
        <ele>663</ele>
        <time>2021-06-01T14:42:46.871Z</time>
      </trkpt>
      <trkpt lat="44.14566" lon="5.87173">
        <ele>663</ele>
        <time>2021-06-01T14:42:47.871Z</time>
      </trkpt>
      <trkpt lat="44.14566" lon="5.87173">
        <ele>663</ele>
        <time>2021-06-01T14:42:48.871Z</time>
      </trkpt>
      <trkpt lat="44.14567" lon="5.87173">
        <ele>663</ele>
        <time>2021-06-01T14:42:49.871Z</time>
      </trkpt>
      <trkpt lat="44.14567" lon="5.87173">
        <ele>662</ele>
        <time>2021-06-01T14:42:50.871Z</time>
      </trkpt>
      <trkpt lat="44.14567" lon="5.87173">
        <ele>662</ele>
        <time>2021-06-01T14:42:51.871Z</time>
      </trkpt>
      <trkpt lat="44.14568" lon="5.87173">
        <ele>662</ele>
        <time>2021-06-01T14:42:52.871Z</time>
      </trkpt>
      <trkpt lat="44.14569" lon="5.87173">
        <ele>662</ele>
        <time>2021-06-01T14:42:53.871Z</time>
      </trkpt>
      <trkpt lat="44.14569" lon="5.87173">
        <ele>662</ele>
        <time>2021-06-01T14:42:54.871Z</time>
      </trkpt>
      <trkpt lat="44.1457" lon="5.87173">
        <ele>662</ele>
        <time>2021-06-01T14:42:55.871Z</time>
      </trkpt>
      <trkpt lat="44.14571" lon="5.87173">
        <ele>662</ele>
        <time>2021-06-01T14:42:56.871Z</time>
      </trkpt>
      <trkpt lat="44.14572" lon="5.87173">
        <ele>661</ele>
        <time>2021-06-01T14:42:57.871Z</time>
      </trkpt>
      <trkpt lat="44.14572" lon="5.87174">
        <ele>661</ele>
        <time>2021-06-01T14:42:58.871Z</time>
      </trkpt>
      <trkpt lat="44.14573" lon="5.87174">
        <ele>661</ele>
        <time>2021-06-01T14:42:59.871Z</time>
      </trkpt>
      <trkpt lat="44.14574" lon="5.87175">
        <ele>661</ele>
        <time>2021-06-01T14:43:00.871Z</time>
      </trkpt>
      <trkpt lat="44.14575" lon="5.87176">
        <ele>660</ele>
        <time>2021-06-01T14:43:01.871Z</time>
      </trkpt>
      <trkpt lat="44.14575" lon="5.87177">
        <ele>660</ele>
        <time>2021-06-01T14:43:02.871Z</time>
      </trkpt>
      <trkpt lat="44.14576" lon="5.87178">
        <ele>660</ele>
        <time>2021-06-01T14:43:03.871Z</time>
      </trkpt>
      <trkpt lat="44.14576" lon="5.87178">
        <ele>660</ele>
        <time>2021-06-01T14:43:04.871Z</time>
      </trkpt>
      <trkpt lat="44.14577" lon="5.87179">
        <ele>660</ele>
        <time>2021-06-01T14:43:05.871Z</time>
      </trkpt>
      <trkpt lat="44.14578" lon="5.87179">
        <ele>660</ele>
        <time>2021-06-01T14:43:06.871Z</time>
      </trkpt>
      <trkpt lat="44.14578" lon="5.8718">
        <ele>660</ele>
        <time>2021-06-01T14:43:07.871Z</time>
      </trkpt>
      <trkpt lat="44.14579" lon="5.8718">
        <ele>659</ele>
        <time>2021-06-01T14:43:08.871Z</time>
      </trkpt>
      <trkpt lat="44.14579" lon="5.8718">
        <ele>659</ele>
        <time>2021-06-01T14:43:09.871Z</time>
      </trkpt>
      <trkpt lat="44.1458" lon="5.8718">
        <ele>659</ele>
        <time>2021-06-01T14:43:10.871Z</time>
      </trkpt>
      <trkpt lat="44.1458" lon="5.8718">
        <ele>659</ele>
        <time>2021-06-01T14:43:11.871Z</time>
      </trkpt>
      <trkpt lat="44.14581" lon="5.87179">
        <ele>659</ele>
        <time>2021-06-01T14:43:12.871Z</time>
      </trkpt>
      <trkpt lat="44.14581" lon="5.87179">
        <ele>658</ele>
        <time>2021-06-01T14:43:13.871Z</time>
      </trkpt>
      <trkpt lat="44.14582" lon="5.87179">
        <ele>658</ele>
        <time>2021-06-01T14:43:14.871Z</time>
      </trkpt>
      <trkpt lat="44.14582" lon="5.87179">
        <ele>658</ele>
        <time>2021-06-01T14:43:15.871Z</time>
      </trkpt>
      <trkpt lat="44.14582" lon="5.87179">
        <ele>658</ele>
        <time>2021-06-01T14:43:16.871Z</time>
      </trkpt>
      <trkpt lat="44.14583" lon="5.8718">
        <ele>658</ele>
        <time>2021-06-01T14:43:17.871Z</time>
      </trkpt>
      <trkpt lat="44.14583" lon="5.8718">
        <ele>658</ele>
        <time>2021-06-01T14:43:18.871Z</time>
      </trkpt>
      <trkpt lat="44.14584" lon="5.87179">
        <ele>658</ele>
        <time>2021-06-01T14:43:19.871Z</time>
      </trkpt>
      <trkpt lat="44.14584" lon="5.87179">
        <ele>658</ele>
        <time>2021-06-01T14:43:20.871Z</time>
      </trkpt>
      <trkpt lat="44.14584" lon="5.87179">
        <ele>658</ele>
        <time>2021-06-01T14:43:21.871Z</time>
      </trkpt>
      <trkpt lat="44.14584" lon="5.87178">
        <ele>658</ele>
        <time>2021-06-01T14:43:22.871Z</time>
      </trkpt>
      <trkpt lat="44.14584" lon="5.87178">
        <ele>658</ele>
        <time>2021-06-01T14:43:23.871Z</time>
      </trkpt>
      <trkpt lat="44.14585" lon="5.87179">
        <ele>658</ele>
        <time>2021-06-01T14:43:24.871Z</time>
      </trkpt>
      <trkpt lat="44.14585" lon="5.87179">
        <ele>658</ele>
        <time>2021-06-01T14:43:25.871Z</time>
      </trkpt>
      <trkpt lat="44.14586" lon="5.87179">
        <ele>657</ele>
        <time>2021-06-01T14:43:26.871Z</time>
      </trkpt>
      <trkpt lat="44.14587" lon="5.87179">
        <ele>657</ele>
        <time>2021-06-01T14:43:27.871Z</time>
      </trkpt>
      <trkpt lat="44.14587" lon="5.87179">
        <ele>657</ele>
        <time>2021-06-01T14:43:28.871Z</time>
      </trkpt>
      <trkpt lat="44.14588" lon="5.8718">
        <ele>657</ele>
        <time>2021-06-01T14:43:29.871Z</time>
      </trkpt>
      <trkpt lat="44.14589" lon="5.8718">
        <ele>657</ele>
        <time>2021-06-01T14:43:30.871Z</time>
      </trkpt>
      <trkpt lat="44.14589" lon="5.8718">
        <ele>657</ele>
        <time>2021-06-01T14:43:31.871Z</time>
      </trkpt>
      <trkpt lat="44.1459" lon="5.8718">
        <ele>656</ele>
        <time>2021-06-01T14:43:32.871Z</time>
      </trkpt>
      <trkpt lat="44.1459" lon="5.8718">
        <ele>656</ele>
        <time>2021-06-01T14:43:33.871Z</time>
      </trkpt>
      <trkpt lat="44.14591" lon="5.87181">
        <ele>656</ele>
        <time>2021-06-01T14:43:34.871Z</time>
      </trkpt>
      <trkpt lat="44.14592" lon="5.87181">
        <ele>656</ele>
        <time>2021-06-01T14:43:35.871Z</time>
      </trkpt>
      <trkpt lat="44.14593" lon="5.87181">
        <ele>656</ele>
        <time>2021-06-01T14:43:36.871Z</time>
      </trkpt>
      <trkpt lat="44.14593" lon="5.87181">
        <ele>656</ele>
        <time>2021-06-01T14:43:37.871Z</time>
      </trkpt>
      <trkpt lat="44.14594" lon="5.87181">
        <ele>655</ele>
        <time>2021-06-01T14:43:38.871Z</time>
      </trkpt>
      <trkpt lat="44.14595" lon="5.87182">
        <ele>655</ele>
        <time>2021-06-01T14:43:39.871Z</time>
      </trkpt>
      <trkpt lat="44.14595" lon="5.87182">
        <ele>655</ele>
        <time>2021-06-01T14:43:40.871Z</time>
      </trkpt>
      <trkpt lat="44.14596" lon="5.87182">
        <ele>655</ele>
        <time>2021-06-01T14:43:41.871Z</time>
      </trkpt>
      <trkpt lat="44.14597" lon="5.87182">
        <ele>655</ele>
        <time>2021-06-01T14:43:42.871Z</time>
      </trkpt>
      <trkpt lat="44.14597" lon="5.87182">
        <ele>654</ele>
        <time>2021-06-01T14:43:43.871Z</time>
      </trkpt>
      <trkpt lat="44.14598" lon="5.87182">
        <ele>654</ele>
        <time>2021-06-01T14:43:44.871Z</time>
      </trkpt>
      <trkpt lat="44.14598" lon="5.87182">
        <ele>654</ele>
        <time>2021-06-01T14:43:45.871Z</time>
      </trkpt>
      <trkpt lat="44.14598" lon="5.87182">
        <ele>654</ele>
        <time>2021-06-01T14:43:46.871Z</time>
      </trkpt>
      <trkpt lat="44.14599" lon="5.87182">
        <ele>654</ele>
        <time>2021-06-01T14:43:47.871Z</time>
      </trkpt>
      <trkpt lat="44.14599" lon="5.87182">
        <ele>654</ele>
        <time>2021-06-01T14:43:48.871Z</time>
      </trkpt>
      <trkpt lat="44.14599" lon="5.87183">
        <ele>653</ele>
        <time>2021-06-01T14:43:49.871Z</time>
      </trkpt>
      <trkpt lat="44.146" lon="5.87183">
        <ele>653</ele>
        <time>2021-06-01T14:43:50.871Z</time>
      </trkpt>
      <trkpt lat="44.146" lon="5.87184">
        <ele>653</ele>
        <time>2021-06-01T14:43:51.871Z</time>
      </trkpt>
      <trkpt lat="44.14601" lon="5.87184">
        <ele>652</ele>
        <time>2021-06-01T14:43:52.871Z</time>
      </trkpt>
      <trkpt lat="44.14601" lon="5.87185">
        <ele>652</ele>
        <time>2021-06-01T14:43:53.871Z</time>
      </trkpt>
      <trkpt lat="44.14602" lon="5.87185">
        <ele>652</ele>
        <time>2021-06-01T14:43:54.871Z</time>
      </trkpt>
      <trkpt lat="44.14602" lon="5.87184">
        <ele>651</ele>
        <time>2021-06-01T14:43:55.871Z</time>
      </trkpt>
      <trkpt lat="44.14603" lon="5.87184">
        <ele>651</ele>
        <time>2021-06-01T14:43:56.871Z</time>
      </trkpt>
      <trkpt lat="44.14604" lon="5.87184">
        <ele>651</ele>
        <time>2021-06-01T14:43:57.871Z</time>
      </trkpt>
      <trkpt lat="44.14604" lon="5.87184">
        <ele>650</ele>
        <time>2021-06-01T14:43:58.871Z</time>
      </trkpt>
      <trkpt lat="44.14605" lon="5.87184">
        <ele>650</ele>
        <time>2021-06-01T14:43:59.871Z</time>
      </trkpt>
      <trkpt lat="44.14606" lon="5.87184">
        <ele>650</ele>
        <time>2021-06-01T14:44:00.871Z</time>
      </trkpt>
      <trkpt lat="44.14606" lon="5.87184">
        <ele>649</ele>
        <time>2021-06-01T14:44:01.871Z</time>
      </trkpt>
      <trkpt lat="44.14607" lon="5.87185">
        <ele>649</ele>
        <time>2021-06-01T14:44:02.871Z</time>
      </trkpt>
      <trkpt lat="44.14608" lon="5.87185">
        <ele>649</ele>
        <time>2021-06-01T14:44:03.871Z</time>
      </trkpt>
      <trkpt lat="44.14609" lon="5.87185">
        <ele>648</ele>
        <time>2021-06-01T14:44:04.871Z</time>
      </trkpt>
      <trkpt lat="44.1461" lon="5.87186">
        <ele>648</ele>
        <time>2021-06-01T14:44:05.871Z</time>
      </trkpt>
      <trkpt lat="44.14611" lon="5.87187">
        <ele>648</ele>
        <time>2021-06-01T14:44:06.871Z</time>
      </trkpt>
      <trkpt lat="44.14612" lon="5.87188">
        <ele>647</ele>
        <time>2021-06-01T14:44:07.871Z</time>
      </trkpt>
      <trkpt lat="44.14612" lon="5.87188">
        <ele>647</ele>
        <time>2021-06-01T14:44:08.871Z</time>
      </trkpt>
      <trkpt lat="44.14613" lon="5.87189">
        <ele>647</ele>
        <time>2021-06-01T14:44:09.871Z</time>
      </trkpt>
      <trkpt lat="44.14614" lon="5.8719">
        <ele>647</ele>
        <time>2021-06-01T14:44:10.871Z</time>
      </trkpt>
      <trkpt lat="44.14615" lon="5.8719">
        <ele>646</ele>
        <time>2021-06-01T14:44:11.871Z</time>
      </trkpt>
      <trkpt lat="44.14616" lon="5.8719">
        <ele>646</ele>
        <time>2021-06-01T14:44:12.871Z</time>
      </trkpt>
      <trkpt lat="44.14618" lon="5.87191">
        <ele>646</ele>
        <time>2021-06-01T14:44:13.871Z</time>
      </trkpt>
      <trkpt lat="44.14619" lon="5.87191">
        <ele>646</ele>
        <time>2021-06-01T14:44:14.871Z</time>
      </trkpt>
      <trkpt lat="44.14619" lon="5.87191">
        <ele>645</ele>
        <time>2021-06-01T14:44:15.871Z</time>
      </trkpt>
      <trkpt lat="44.14619" lon="5.87191">
        <ele>645</ele>
        <time>2021-06-01T14:44:16.871Z</time>
      </trkpt>
      <trkpt lat="44.14619" lon="5.87191">
        <ele>645</ele>
        <time>2021-06-01T14:44:17.871Z</time>
      </trkpt>
      <trkpt lat="44.14619" lon="5.87191">
        <ele>644</ele>
        <time>2021-06-01T14:44:18.871Z</time>
      </trkpt>
      <trkpt lat="44.14619" lon="5.8719">
        <ele>644</ele>
        <time>2021-06-01T14:44:19.871Z</time>
      </trkpt>
      <trkpt lat="44.14619" lon="5.8719">
        <ele>644</ele>
        <time>2021-06-01T14:44:20.871Z</time>
      </trkpt>
      <trkpt lat="44.1462" lon="5.87191">
        <ele>644</ele>
        <time>2021-06-01T14:44:21.871Z</time>
      </trkpt>
      <trkpt lat="44.1462" lon="5.87191">
        <ele>644</ele>
        <time>2021-06-01T14:44:22.871Z</time>
      </trkpt>
      <trkpt lat="44.1462" lon="5.87191">
        <ele>643</ele>
        <time>2021-06-01T14:44:23.871Z</time>
      </trkpt>
      <trkpt lat="44.1462" lon="5.87191">
        <ele>643</ele>
        <time>2021-06-01T14:44:24.871Z</time>
      </trkpt>
      <trkpt lat="44.1462" lon="5.87191">
        <ele>643</ele>
        <time>2021-06-01T14:44:25.871Z</time>
      </trkpt>
      <trkpt lat="44.14621" lon="5.87192">
        <ele>643</ele>
        <time>2021-06-01T14:44:26.871Z</time>
      </trkpt>
      <trkpt lat="44.14621" lon="5.87192">
        <ele>643</ele>
        <time>2021-06-01T14:44:27.871Z</time>
      </trkpt>
      <trkpt lat="44.14621" lon="5.87192">
        <ele>643</ele>
        <time>2021-06-01T14:44:28.871Z</time>
      </trkpt>
      <trkpt lat="44.14621" lon="5.87192">
        <ele>642</ele>
        <time>2021-06-01T14:44:29.871Z</time>
      </trkpt>
      <trkpt lat="44.14621" lon="5.87192">
        <ele>642</ele>
        <time>2021-06-01T14:44:30.871Z</time>
      </trkpt>
      <trkpt lat="44.14621" lon="5.87192">
        <ele>642</ele>
        <time>2021-06-01T14:44:31.871Z</time>
      </trkpt>
      <trkpt lat="44.14621" lon="5.87192">
        <ele>642</ele>
        <time>2021-06-01T14:44:32.871Z</time>
      </trkpt>
      <trkpt lat="44.14621" lon="5.87192">
        <ele>642</ele>
        <time>2021-06-01T14:44:33.871Z</time>
      </trkpt>
      <trkpt lat="44.14621" lon="5.87192">
        <ele>642</ele>
        <time>2021-06-01T14:44:34.871Z</time>
      </trkpt>
      <trkpt lat="44.14621" lon="5.87192">
        <ele>642</ele>
        <time>2021-06-01T14:44:35.871Z</time>
      </trkpt>
      <trkpt lat="44.14621" lon="5.87192">
        <ele>641</ele>
        <time>2021-06-01T14:44:36.871Z</time>
      </trkpt>
      <trkpt lat="44.14622" lon="5.87192">
        <ele>641</ele>
        <time>2021-06-01T14:44:37.871Z</time>
      </trkpt>
      <trkpt lat="44.14622" lon="5.87192">
        <ele>641</ele>
        <time>2021-06-01T14:44:38.871Z</time>
      </trkpt>
      <trkpt lat="44.14622" lon="5.87192">
        <ele>641</ele>
        <time>2021-06-01T14:44:39.871Z</time>
      </trkpt>
      <trkpt lat="44.14622" lon="5.87192">
        <ele>641</ele>
        <time>2021-06-01T14:44:40.871Z</time>
      </trkpt>
      <trkpt lat="44.14622" lon="5.87192">
        <ele>641</ele>
        <time>2021-06-01T14:44:41.871Z</time>
      </trkpt>
      <trkpt lat="44.14622" lon="5.87192">
        <ele>640</ele>
        <time>2021-06-01T14:44:42.871Z</time>
      </trkpt>
      <trkpt lat="44.14622" lon="5.87192">
        <ele>640</ele>
        <time>2021-06-01T14:44:43.871Z</time>
      </trkpt>
      <trkpt lat="44.14622" lon="5.87192">
        <ele>640</ele>
        <time>2021-06-01T14:44:44.871Z</time>
      </trkpt>
      <trkpt lat="44.14622" lon="5.87192">
        <ele>640</ele>
        <time>2021-06-01T14:44:45.871Z</time>
      </trkpt>
      <trkpt lat="44.14622" lon="5.87192">
        <ele>640</ele>
        <time>2021-06-01T14:44:46.871Z</time>
      </trkpt>
      <trkpt lat="44.14622" lon="5.87192">
        <ele>640</ele>
        <time>2021-06-01T14:44:47.871Z</time>
      </trkpt>
      <trkpt lat="44.14622" lon="5.87192">
        <ele>640</ele>
        <time>2021-06-01T14:44:48.871Z</time>
      </trkpt>
      <trkpt lat="44.14622" lon="5.87192">
        <ele>640</ele>
        <time>2021-06-01T14:44:49.871Z</time>
      </trkpt>
      <trkpt lat="44.14622" lon="5.87192">
        <ele>639</ele>
        <time>2021-06-01T14:44:50.871Z</time>
      </trkpt>
      <trkpt lat="44.14622" lon="5.87192">
        <ele>639</ele>
        <time>2021-06-01T14:44:51.871Z</time>
      </trkpt>
      <trkpt lat="44.14622" lon="5.87192">
        <ele>639</ele>
        <time>2021-06-01T14:44:52.871Z</time>
      </trkpt>
      <trkpt lat="44.14622" lon="5.87192">
        <ele>639</ele>
        <time>2021-06-01T14:44:53.871Z</time>
      </trkpt>
      <trkpt lat="44.14622" lon="5.87192">
        <ele>639</ele>
        <time>2021-06-01T14:44:54.871Z</time>
      </trkpt>
      <trkpt lat="44.14622" lon="5.87192">
        <ele>639</ele>
        <time>2021-06-01T14:44:55.871Z</time>
      </trkpt>
      <trkpt lat="44.14622" lon="5.87191">
        <ele>639</ele>
        <time>2021-06-01T14:44:56.871Z</time>
      </trkpt>
      <trkpt lat="44.14622" lon="5.87191">
        <ele>639</ele>
        <time>2021-06-01T14:44:57.871Z</time>
      </trkpt>
      <trkpt lat="44.14622" lon="5.87191">
        <ele>639</ele>
        <time>2021-06-01T14:44:58.871Z</time>
      </trkpt>
      <trkpt lat="44.14622" lon="5.87191">
        <ele>639</ele>
        <time>2021-06-01T14:44:59.871Z</time>
      </trkpt>
      <trkpt lat="44.14622" lon="5.87191">
        <ele>639</ele>
        <time>2021-06-01T14:45:00.871Z</time>
      </trkpt>
      <trkpt lat="44.14622" lon="5.87191">
        <ele>639</ele>
        <time>2021-06-01T14:45:01.871Z</time>
      </trkpt>
      <trkpt lat="44.14623" lon="5.87191">
        <ele>639</ele>
        <time>2021-06-01T14:45:02.871Z</time>
      </trkpt>
      <trkpt lat="44.14623" lon="5.87191">
        <ele>639</ele>
        <time>2021-06-01T14:45:03.871Z</time>
      </trkpt>
      <trkpt lat="44.14623" lon="5.87191">
        <ele>639</ele>
        <time>2021-06-01T14:45:04.871Z</time>
      </trkpt>
      <trkpt lat="44.14623" lon="5.87191">
        <ele>639</ele>
        <time>2021-06-01T14:45:05.871Z</time>
      </trkpt>
      <trkpt lat="44.14623" lon="5.87191">
        <ele>638</ele>
        <time>2021-06-01T14:45:06.871Z</time>
      </trkpt>
      <trkpt lat="44.14623" lon="5.87191">
        <ele>638</ele>
        <time>2021-06-01T14:45:07.871Z</time>
      </trkpt>
      <trkpt lat="44.14623" lon="5.87192">
        <ele>638</ele>
        <time>2021-06-01T14:45:08.871Z</time>
      </trkpt>
      <trkpt lat="44.14624" lon="5.87192">
        <ele>638</ele>
        <time>2021-06-01T14:45:09.871Z</time>
      </trkpt>
      <trkpt lat="44.14624" lon="5.87193">
        <ele>638</ele>
        <time>2021-06-01T14:45:10.871Z</time>
      </trkpt>
      <trkpt lat="44.14625" lon="5.87193">
        <ele>638</ele>
        <time>2021-06-01T14:45:11.871Z</time>
      </trkpt>
      <trkpt lat="44.14625" lon="5.87193">
        <ele>638</ele>
        <time>2021-06-01T14:45:12.871Z</time>
      </trkpt>
      <trkpt lat="44.14626" lon="5.87193">
        <ele>638</ele>
        <time>2021-06-01T14:45:13.871Z</time>
      </trkpt>
      <trkpt lat="44.14627" lon="5.87194">
        <ele>638</ele>
        <time>2021-06-01T14:45:14.871Z</time>
      </trkpt>
      <trkpt lat="44.14627" lon="5.87194">
        <ele>638</ele>
        <time>2021-06-01T14:45:15.871Z</time>
      </trkpt>
      <trkpt lat="44.14627" lon="5.87194">
        <ele>638</ele>
        <time>2021-06-01T14:45:16.871Z</time>
      </trkpt>
      <trkpt lat="44.14628" lon="5.87194">
        <ele>638</ele>
        <time>2021-06-01T14:45:17.871Z</time>
      </trkpt>
      <trkpt lat="44.14629" lon="5.87195">
        <ele>638</ele>
        <time>2021-06-01T14:45:18.871Z</time>
      </trkpt>
      <trkpt lat="44.14629" lon="5.87195">
        <ele>637</ele>
        <time>2021-06-01T14:45:19.871Z</time>
      </trkpt>
      <trkpt lat="44.1463" lon="5.87196">
        <ele>637</ele>
        <time>2021-06-01T14:45:20.871Z</time>
      </trkpt>
      <trkpt lat="44.14631" lon="5.87197">
        <ele>637</ele>
        <time>2021-06-01T14:45:21.871Z</time>
      </trkpt>
      <trkpt lat="44.14632" lon="5.87197">
        <ele>637</ele>
        <time>2021-06-01T14:45:22.871Z</time>
      </trkpt>
      <trkpt lat="44.14633" lon="5.87198">
        <ele>637</ele>
        <time>2021-06-01T14:45:23.871Z</time>
      </trkpt>
      <trkpt lat="44.14634" lon="5.87198">
        <ele>637</ele>
        <time>2021-06-01T14:45:24.871Z</time>
      </trkpt>
      <trkpt lat="44.14634" lon="5.87199">
        <ele>637</ele>
        <time>2021-06-01T14:45:25.871Z</time>
      </trkpt>
      <trkpt lat="44.14635" lon="5.87198">
        <ele>637</ele>
        <time>2021-06-01T14:45:26.871Z</time>
      </trkpt>
      <trkpt lat="44.14635" lon="5.87198">
        <ele>636</ele>
        <time>2021-06-01T14:45:27.871Z</time>
      </trkpt>
      <trkpt lat="44.14636" lon="5.87199">
        <ele>636</ele>
        <time>2021-06-01T14:45:28.871Z</time>
      </trkpt>
      <trkpt lat="44.14637" lon="5.87199">
        <ele>636</ele>
        <time>2021-06-01T14:45:29.871Z</time>
      </trkpt>
      <trkpt lat="44.14637" lon="5.872">
        <ele>636</ele>
        <time>2021-06-01T14:45:30.871Z</time>
      </trkpt>
      <trkpt lat="44.14637" lon="5.87201">
        <ele>636</ele>
        <time>2021-06-01T14:45:31.871Z</time>
      </trkpt>
      <trkpt lat="44.14636" lon="5.87201">
        <ele>635</ele>
        <time>2021-06-01T14:45:32.871Z</time>
      </trkpt>
      <trkpt lat="44.14637" lon="5.87201">
        <ele>635</ele>
        <time>2021-06-01T14:45:33.871Z</time>
      </trkpt>
      <trkpt lat="44.14637" lon="5.87201">
        <ele>635</ele>
        <time>2021-06-01T14:45:34.871Z</time>
      </trkpt>
      <trkpt lat="44.14638" lon="5.87202">
        <ele>635</ele>
        <time>2021-06-01T14:45:35.871Z</time>
      </trkpt>
      <trkpt lat="44.14639" lon="5.87203">
        <ele>634</ele>
        <time>2021-06-01T14:45:36.871Z</time>
      </trkpt>
      <trkpt lat="44.1464" lon="5.87203">
        <ele>634</ele>
        <time>2021-06-01T14:45:37.871Z</time>
      </trkpt>
      <trkpt lat="44.1464" lon="5.87204">
        <ele>634</ele>
        <time>2021-06-01T14:45:38.871Z</time>
      </trkpt>
      <trkpt lat="44.14641" lon="5.87205">
        <ele>633</ele>
        <time>2021-06-01T14:45:39.871Z</time>
      </trkpt>
      <trkpt lat="44.14642" lon="5.87205">
        <ele>633</ele>
        <time>2021-06-01T14:45:40.871Z</time>
      </trkpt>
      <trkpt lat="44.14642" lon="5.87205">
        <ele>633</ele>
        <time>2021-06-01T14:45:41.871Z</time>
      </trkpt>
      <trkpt lat="44.14642" lon="5.87205">
        <ele>633</ele>
        <time>2021-06-01T14:45:42.871Z</time>
      </trkpt>
      <trkpt lat="44.14643" lon="5.87205">
        <ele>632</ele>
        <time>2021-06-01T14:45:43.871Z</time>
      </trkpt>
      <trkpt lat="44.14643" lon="5.87205">
        <ele>632</ele>
        <time>2021-06-01T14:45:44.871Z</time>
      </trkpt>
      <trkpt lat="44.14643" lon="5.87204">
        <ele>632</ele>
        <time>2021-06-01T14:45:45.871Z</time>
      </trkpt>
      <trkpt lat="44.14644" lon="5.87204">
        <ele>632</ele>
        <time>2021-06-01T14:45:46.871Z</time>
      </trkpt>
      <trkpt lat="44.14644" lon="5.87203">
        <ele>632</ele>
        <time>2021-06-01T14:45:47.871Z</time>
      </trkpt>
      <trkpt lat="44.14645" lon="5.87203">
        <ele>632</ele>
        <time>2021-06-01T14:45:48.871Z</time>
      </trkpt>
      <trkpt lat="44.14645" lon="5.87203">
        <ele>632</ele>
        <time>2021-06-01T14:45:49.871Z</time>
      </trkpt>
      <trkpt lat="44.14646" lon="5.87203">
        <ele>632</ele>
        <time>2021-06-01T14:45:50.871Z</time>
      </trkpt>
      <trkpt lat="44.14646" lon="5.87202">
        <ele>632</ele>
        <time>2021-06-01T14:45:51.871Z</time>
      </trkpt>
      <trkpt lat="44.14647" lon="5.87203">
        <ele>631</ele>
        <time>2021-06-01T14:45:52.871Z</time>
      </trkpt>
      <trkpt lat="44.14648" lon="5.87203">
        <ele>631</ele>
        <time>2021-06-01T14:45:53.871Z</time>
      </trkpt>
      <trkpt lat="44.14648" lon="5.87203">
        <ele>631</ele>
        <time>2021-06-01T14:45:54.871Z</time>
      </trkpt>
      <trkpt lat="44.14648" lon="5.87203">
        <ele>631</ele>
        <time>2021-06-01T14:45:55.871Z</time>
      </trkpt>
      <trkpt lat="44.14649" lon="5.87203">
        <ele>631</ele>
        <time>2021-06-01T14:45:56.871Z</time>
      </trkpt>
      <trkpt lat="44.14649" lon="5.87203">
        <ele>631</ele>
        <time>2021-06-01T14:45:57.871Z</time>
      </trkpt>
      <trkpt lat="44.1465" lon="5.87203">
        <ele>631</ele>
        <time>2021-06-01T14:45:58.871Z</time>
      </trkpt>
      <trkpt lat="44.1465" lon="5.87203">
        <ele>631</ele>
        <time>2021-06-01T14:45:59.871Z</time>
      </trkpt>
      <trkpt lat="44.14651" lon="5.87202">
        <ele>631</ele>
        <time>2021-06-01T14:46:00.871Z</time>
      </trkpt>
      <trkpt lat="44.14651" lon="5.87202">
        <ele>631</ele>
        <time>2021-06-01T14:46:01.871Z</time>
      </trkpt>
      <trkpt lat="44.14652" lon="5.87201">
        <ele>631</ele>
        <time>2021-06-01T14:46:02.871Z</time>
      </trkpt>
      <trkpt lat="44.14653" lon="5.87201">
        <ele>631</ele>
        <time>2021-06-01T14:46:03.871Z</time>
      </trkpt>
      <trkpt lat="44.14653" lon="5.87201">
        <ele>631</ele>
        <time>2021-06-01T14:46:04.871Z</time>
      </trkpt>
      <trkpt lat="44.14654" lon="5.87201">
        <ele>631</ele>
        <time>2021-06-01T14:46:05.871Z</time>
      </trkpt>
      <trkpt lat="44.14655" lon="5.87201">
        <ele>631</ele>
        <time>2021-06-01T14:46:06.871Z</time>
      </trkpt>
      <trkpt lat="44.14656" lon="5.87202">
        <ele>630</ele>
        <time>2021-06-01T14:46:07.871Z</time>
      </trkpt>
      <trkpt lat="44.14656" lon="5.87202">
        <ele>630</ele>
        <time>2021-06-01T14:46:08.871Z</time>
      </trkpt>
      <trkpt lat="44.14657" lon="5.87202">
        <ele>630</ele>
        <time>2021-06-01T14:46:09.871Z</time>
      </trkpt>
      <trkpt lat="44.14658" lon="5.87201">
        <ele>630</ele>
        <time>2021-06-01T14:46:10.871Z</time>
      </trkpt>
      <trkpt lat="44.14658" lon="5.87201">
        <ele>630</ele>
        <time>2021-06-01T14:46:11.871Z</time>
      </trkpt>
      <trkpt lat="44.14659" lon="5.87201">
        <ele>629</ele>
        <time>2021-06-01T14:46:12.871Z</time>
      </trkpt>
      <trkpt lat="44.1466" lon="5.87201">
        <ele>629</ele>
        <time>2021-06-01T14:46:13.871Z</time>
      </trkpt>
      <trkpt lat="44.14661" lon="5.87201">
        <ele>629</ele>
        <time>2021-06-01T14:46:14.871Z</time>
      </trkpt>
      <trkpt lat="44.14662" lon="5.87202">
        <ele>629</ele>
        <time>2021-06-01T14:46:15.871Z</time>
      </trkpt>
      <trkpt lat="44.14663" lon="5.87202">
        <ele>629</ele>
        <time>2021-06-01T14:46:16.871Z</time>
      </trkpt>
      <trkpt lat="44.14663" lon="5.87202">
        <ele>628</ele>
        <time>2021-06-01T14:46:17.871Z</time>
      </trkpt>
      <trkpt lat="44.14664" lon="5.87202">
        <ele>628</ele>
        <time>2021-06-01T14:46:18.871Z</time>
      </trkpt>
      <trkpt lat="44.14665" lon="5.87202">
        <ele>628</ele>
        <time>2021-06-01T14:46:19.871Z</time>
      </trkpt>
      <trkpt lat="44.14665" lon="5.87202">
        <ele>628</ele>
        <time>2021-06-01T14:46:20.871Z</time>
      </trkpt>
      <trkpt lat="44.14666" lon="5.87201">
        <ele>628</ele>
        <time>2021-06-01T14:46:21.871Z</time>
      </trkpt>
      <trkpt lat="44.14667" lon="5.87201">
        <ele>628</ele>
        <time>2021-06-01T14:46:22.871Z</time>
      </trkpt>
      <trkpt lat="44.14668" lon="5.87201">
        <ele>628</ele>
        <time>2021-06-01T14:46:23.871Z</time>
      </trkpt>
      <trkpt lat="44.14669" lon="5.87201">
        <ele>628</ele>
        <time>2021-06-01T14:46:24.871Z</time>
      </trkpt>
      <trkpt lat="44.14669" lon="5.87201">
        <ele>627</ele>
        <time>2021-06-01T14:46:25.871Z</time>
      </trkpt>
      <trkpt lat="44.1467" lon="5.87201">
        <ele>627</ele>
        <time>2021-06-01T14:46:26.871Z</time>
      </trkpt>
      <trkpt lat="44.1467" lon="5.87201">
        <ele>627</ele>
        <time>2021-06-01T14:46:27.871Z</time>
      </trkpt>
      <trkpt lat="44.14671" lon="5.87201">
        <ele>627</ele>
        <time>2021-06-01T14:46:28.871Z</time>
      </trkpt>
      <trkpt lat="44.14672" lon="5.87201">
        <ele>627</ele>
        <time>2021-06-01T14:46:29.871Z</time>
      </trkpt>
      <trkpt lat="44.14672" lon="5.872">
        <ele>627</ele>
        <time>2021-06-01T14:46:30.871Z</time>
      </trkpt>
      <trkpt lat="44.14673" lon="5.872">
        <ele>627</ele>
        <time>2021-06-01T14:46:31.871Z</time>
      </trkpt>
      <trkpt lat="44.14674" lon="5.872">
        <ele>626</ele>
        <time>2021-06-01T14:46:32.871Z</time>
      </trkpt>
      <trkpt lat="44.14675" lon="5.872">
        <ele>626</ele>
        <time>2021-06-01T14:46:33.871Z</time>
      </trkpt>
      <trkpt lat="44.14676" lon="5.87199">
        <ele>626</ele>
        <time>2021-06-01T14:46:34.871Z</time>
      </trkpt>
      <trkpt lat="44.14677" lon="5.87199">
        <ele>626</ele>
        <time>2021-06-01T14:46:35.871Z</time>
      </trkpt>
      <trkpt lat="44.14678" lon="5.87199">
        <ele>626</ele>
        <time>2021-06-01T14:46:36.871Z</time>
      </trkpt>
      <trkpt lat="44.14678" lon="5.87199">
        <ele>626</ele>
        <time>2021-06-01T14:46:37.871Z</time>
      </trkpt>
      <trkpt lat="44.14679" lon="5.872">
        <ele>626</ele>
        <time>2021-06-01T14:46:38.871Z</time>
      </trkpt>
      <trkpt lat="44.1468" lon="5.87201">
        <ele>626</ele>
        <time>2021-06-01T14:46:39.871Z</time>
      </trkpt>
      <trkpt lat="44.1468" lon="5.87202">
        <ele>625</ele>
        <time>2021-06-01T14:46:40.871Z</time>
      </trkpt>
      <trkpt lat="44.14681" lon="5.87202">
        <ele>625</ele>
        <time>2021-06-01T14:46:41.871Z</time>
      </trkpt>
      <trkpt lat="44.14681" lon="5.87203">
        <ele>625</ele>
        <time>2021-06-01T14:46:42.871Z</time>
      </trkpt>
      <trkpt lat="44.14682" lon="5.87204">
        <ele>625</ele>
        <time>2021-06-01T14:46:43.871Z</time>
      </trkpt>
      <trkpt lat="44.14683" lon="5.87205">
        <ele>624</ele>
        <time>2021-06-01T14:46:44.871Z</time>
      </trkpt>
      <trkpt lat="44.14683" lon="5.87206">
        <ele>624</ele>
        <time>2021-06-01T14:46:45.871Z</time>
      </trkpt>
      <trkpt lat="44.14683" lon="5.87207">
        <ele>624</ele>
        <time>2021-06-01T14:46:46.871Z</time>
      </trkpt>
      <trkpt lat="44.14684" lon="5.87208">
        <ele>624</ele>
        <time>2021-06-01T14:46:47.871Z</time>
      </trkpt>
      <trkpt lat="44.14684" lon="5.87209">
        <ele>624</ele>
        <time>2021-06-01T14:46:48.871Z</time>
      </trkpt>
      <trkpt lat="44.14684" lon="5.8721">
        <ele>623</ele>
        <time>2021-06-01T14:46:49.871Z</time>
      </trkpt>
      <trkpt lat="44.14685" lon="5.87212">
        <ele>623</ele>
        <time>2021-06-01T14:46:50.871Z</time>
      </trkpt>
      <trkpt lat="44.14685" lon="5.87213">
        <ele>623</ele>
        <time>2021-06-01T14:46:51.871Z</time>
      </trkpt>
      <trkpt lat="44.14686" lon="5.87213">
        <ele>622</ele>
        <time>2021-06-01T14:46:52.871Z</time>
      </trkpt>
      <trkpt lat="44.14687" lon="5.87215">
        <ele>622</ele>
        <time>2021-06-01T14:46:53.871Z</time>
      </trkpt>
      <trkpt lat="44.14688" lon="5.87215">
        <ele>622</ele>
        <time>2021-06-01T14:46:54.871Z</time>
      </trkpt>
      <trkpt lat="44.14689" lon="5.87215">
        <ele>622</ele>
        <time>2021-06-01T14:46:55.871Z</time>
      </trkpt>
      <trkpt lat="44.1469" lon="5.87215">
        <ele>621</ele>
        <time>2021-06-01T14:46:56.871Z</time>
      </trkpt>
      <trkpt lat="44.1469" lon="5.87215">
        <ele>621</ele>
        <time>2021-06-01T14:46:57.871Z</time>
      </trkpt>
      <trkpt lat="44.14691" lon="5.87214">
        <ele>621</ele>
        <time>2021-06-01T14:46:58.871Z</time>
      </trkpt>
      <trkpt lat="44.14692" lon="5.87214">
        <ele>620</ele>
        <time>2021-06-01T14:46:59.871Z</time>
      </trkpt>
      <trkpt lat="44.14692" lon="5.87213">
        <ele>620</ele>
        <time>2021-06-01T14:47:00.871Z</time>
      </trkpt>
      <trkpt lat="44.14693" lon="5.87214">
        <ele>620</ele>
        <time>2021-06-01T14:47:01.871Z</time>
      </trkpt>
      <trkpt lat="44.14694" lon="5.87214">
        <ele>620</ele>
        <time>2021-06-01T14:47:02.871Z</time>
      </trkpt>
      <trkpt lat="44.14695" lon="5.87215">
        <ele>620</ele>
        <time>2021-06-01T14:47:03.871Z</time>
      </trkpt>
      <trkpt lat="44.14696" lon="5.87215">
        <ele>620</ele>
        <time>2021-06-01T14:47:04.871Z</time>
      </trkpt>
      <trkpt lat="44.14697" lon="5.87216">
        <ele>619</ele>
        <time>2021-06-01T14:47:05.871Z</time>
      </trkpt>
      <trkpt lat="44.14697" lon="5.87216">
        <ele>619</ele>
        <time>2021-06-01T14:47:06.871Z</time>
      </trkpt>
      <trkpt lat="44.14698" lon="5.87217">
        <ele>619</ele>
        <time>2021-06-01T14:47:07.871Z</time>
      </trkpt>
      <trkpt lat="44.14698" lon="5.87216">
        <ele>619</ele>
        <time>2021-06-01T14:47:08.871Z</time>
      </trkpt>
      <trkpt lat="44.14699" lon="5.87216">
        <ele>618</ele>
        <time>2021-06-01T14:47:09.871Z</time>
      </trkpt>
      <trkpt lat="44.147" lon="5.87216">
        <ele>618</ele>
        <time>2021-06-01T14:47:10.871Z</time>
      </trkpt>
      <trkpt lat="44.14701" lon="5.87217">
        <ele>618</ele>
        <time>2021-06-01T14:47:11.871Z</time>
      </trkpt>
      <trkpt lat="44.14701" lon="5.87217">
        <ele>618</ele>
        <time>2021-06-01T14:47:12.871Z</time>
      </trkpt>
      <trkpt lat="44.14702" lon="5.87217">
        <ele>618</ele>
        <time>2021-06-01T14:47:13.871Z</time>
      </trkpt>
      <trkpt lat="44.14703" lon="5.87218">
        <ele>618</ele>
        <time>2021-06-01T14:47:14.871Z</time>
      </trkpt>
      <trkpt lat="44.14705" lon="5.87218">
        <ele>618</ele>
        <time>2021-06-01T14:47:15.871Z</time>
      </trkpt>
      <trkpt lat="44.14706" lon="5.87218">
        <ele>618</ele>
        <time>2021-06-01T14:47:16.871Z</time>
      </trkpt>
      <trkpt lat="44.14707" lon="5.87219">
        <ele>618</ele>
        <time>2021-06-01T14:47:17.871Z</time>
      </trkpt>
      <trkpt lat="44.14708" lon="5.8722">
        <ele>618</ele>
        <time>2021-06-01T14:47:18.871Z</time>
      </trkpt>
      <trkpt lat="44.14709" lon="5.8722">
        <ele>618</ele>
        <time>2021-06-01T14:47:19.871Z</time>
      </trkpt>
      <trkpt lat="44.14709" lon="5.87221">
        <ele>618</ele>
        <time>2021-06-01T14:47:20.871Z</time>
      </trkpt>
      <trkpt lat="44.14711" lon="5.87222">
        <ele>617</ele>
        <time>2021-06-01T14:47:21.871Z</time>
      </trkpt>
      <trkpt lat="44.14712" lon="5.87222">
        <ele>617</ele>
        <time>2021-06-01T14:47:22.871Z</time>
      </trkpt>
      <trkpt lat="44.14713" lon="5.87222">
        <ele>617</ele>
        <time>2021-06-01T14:47:23.871Z</time>
      </trkpt>
      <trkpt lat="44.14714" lon="5.87223">
        <ele>617</ele>
        <time>2021-06-01T14:47:24.871Z</time>
      </trkpt>
      <trkpt lat="44.14715" lon="5.87223">
        <ele>617</ele>
        <time>2021-06-01T14:47:25.871Z</time>
      </trkpt>
      <trkpt lat="44.14716" lon="5.87224">
        <ele>617</ele>
        <time>2021-06-01T14:47:26.871Z</time>
      </trkpt>
      <trkpt lat="44.14717" lon="5.87225">
        <ele>616</ele>
        <time>2021-06-01T14:47:27.871Z</time>
      </trkpt>
      <trkpt lat="44.14718" lon="5.87225">
        <ele>616</ele>
        <time>2021-06-01T14:47:28.871Z</time>
      </trkpt>
      <trkpt lat="44.14719" lon="5.87226">
        <ele>616</ele>
        <time>2021-06-01T14:47:29.871Z</time>
      </trkpt>
      <trkpt lat="44.14719" lon="5.87227">
        <ele>616</ele>
        <time>2021-06-01T14:47:30.871Z</time>
      </trkpt>
      <trkpt lat="44.1472" lon="5.87228">
        <ele>616</ele>
        <time>2021-06-01T14:47:31.871Z</time>
      </trkpt>
      <trkpt lat="44.14721" lon="5.87228">
        <ele>616</ele>
        <time>2021-06-01T14:47:32.871Z</time>
      </trkpt>
      <trkpt lat="44.14722" lon="5.87229">
        <ele>616</ele>
        <time>2021-06-01T14:47:33.871Z</time>
      </trkpt>
      <trkpt lat="44.14723" lon="5.8723">
        <ele>615</ele>
        <time>2021-06-01T14:47:34.871Z</time>
      </trkpt>
      <trkpt lat="44.14724" lon="5.87231">
        <ele>615</ele>
        <time>2021-06-01T14:47:35.871Z</time>
      </trkpt>
      <trkpt lat="44.14724" lon="5.87232">
        <ele>615</ele>
        <time>2021-06-01T14:47:36.871Z</time>
      </trkpt>
      <trkpt lat="44.14725" lon="5.87232">
        <ele>615</ele>
        <time>2021-06-01T14:47:37.871Z</time>
      </trkpt>
      <trkpt lat="44.14726" lon="5.87234">
        <ele>615</ele>
        <time>2021-06-01T14:47:38.871Z</time>
      </trkpt>
      <trkpt lat="44.14727" lon="5.87235">
        <ele>615</ele>
        <time>2021-06-01T14:47:39.871Z</time>
      </trkpt>
      <trkpt lat="44.14728" lon="5.87236">
        <ele>615</ele>
        <time>2021-06-01T14:47:40.871Z</time>
      </trkpt>
      <trkpt lat="44.14728" lon="5.87236">
        <ele>615</ele>
        <time>2021-06-01T14:47:41.871Z</time>
      </trkpt>
      <trkpt lat="44.14729" lon="5.87237">
        <ele>614</ele>
        <time>2021-06-01T14:47:42.871Z</time>
      </trkpt>
      <trkpt lat="44.1473" lon="5.87239">
        <ele>614</ele>
        <time>2021-06-01T14:47:43.871Z</time>
      </trkpt>
      <trkpt lat="44.1473" lon="5.8724">
        <ele>614</ele>
        <time>2021-06-01T14:47:44.871Z</time>
      </trkpt>
      <trkpt lat="44.14731" lon="5.87241">
        <ele>614</ele>
        <time>2021-06-01T14:47:45.871Z</time>
      </trkpt>
      <trkpt lat="44.14731" lon="5.87242">
        <ele>614</ele>
        <time>2021-06-01T14:47:46.871Z</time>
      </trkpt>
      <trkpt lat="44.14731" lon="5.87243">
        <ele>614</ele>
        <time>2021-06-01T14:47:47.871Z</time>
      </trkpt>
      <trkpt lat="44.14732" lon="5.87244">
        <ele>614</ele>
        <time>2021-06-01T14:47:48.871Z</time>
      </trkpt>
      <trkpt lat="44.14732" lon="5.87245">
        <ele>613</ele>
        <time>2021-06-01T14:47:49.871Z</time>
      </trkpt>
      <trkpt lat="44.14733" lon="5.87247">
        <ele>613</ele>
        <time>2021-06-01T14:47:50.871Z</time>
      </trkpt>
      <trkpt lat="44.14733" lon="5.87247">
        <ele>613</ele>
        <time>2021-06-01T14:47:51.871Z</time>
      </trkpt>
      <trkpt lat="44.14734" lon="5.87248">
        <ele>613</ele>
        <time>2021-06-01T14:47:52.871Z</time>
      </trkpt>
      <trkpt lat="44.14735" lon="5.8725">
        <ele>613</ele>
        <time>2021-06-01T14:47:53.871Z</time>
      </trkpt>
      <trkpt lat="44.14736" lon="5.87251">
        <ele>612</ele>
        <time>2021-06-01T14:47:54.871Z</time>
      </trkpt>
      <trkpt lat="44.14737" lon="5.87251">
        <ele>612</ele>
        <time>2021-06-01T14:47:55.871Z</time>
      </trkpt>
      <trkpt lat="44.14738" lon="5.87252">
        <ele>612</ele>
        <time>2021-06-01T14:47:56.871Z</time>
      </trkpt>
      <trkpt lat="44.14739" lon="5.87254">
        <ele>612</ele>
        <time>2021-06-01T14:47:57.871Z</time>
      </trkpt>
      <trkpt lat="44.1474" lon="5.87255">
        <ele>611</ele>
        <time>2021-06-01T14:47:58.871Z</time>
      </trkpt>
      <trkpt lat="44.14741" lon="5.87257">
        <ele>611</ele>
        <time>2021-06-01T14:47:59.871Z</time>
      </trkpt>
      <trkpt lat="44.14741" lon="5.87258">
        <ele>611</ele>
        <time>2021-06-01T14:48:00.871Z</time>
      </trkpt>
      <trkpt lat="44.14742" lon="5.87259">
        <ele>611</ele>
        <time>2021-06-01T14:48:01.871Z</time>
      </trkpt>
      <trkpt lat="44.14743" lon="5.87259">
        <ele>611</ele>
        <time>2021-06-01T14:48:02.871Z</time>
      </trkpt>
      <trkpt lat="44.14743" lon="5.8726">
        <ele>610</ele>
        <time>2021-06-01T14:48:03.871Z</time>
      </trkpt>
      <trkpt lat="44.14744" lon="5.87261">
        <ele>610</ele>
        <time>2021-06-01T14:48:04.871Z</time>
      </trkpt>
      <trkpt lat="44.14745" lon="5.87263">
        <ele>610</ele>
        <time>2021-06-01T14:48:05.871Z</time>
      </trkpt>
      <trkpt lat="44.14745" lon="5.87264">
        <ele>610</ele>
        <time>2021-06-01T14:48:06.871Z</time>
      </trkpt>
      <trkpt lat="44.14746" lon="5.87265">
        <ele>610</ele>
        <time>2021-06-01T14:48:07.871Z</time>
      </trkpt>
      <trkpt lat="44.14747" lon="5.87266">
        <ele>610</ele>
        <time>2021-06-01T14:48:08.871Z</time>
      </trkpt>
      <trkpt lat="44.14748" lon="5.87267">
        <ele>610</ele>
        <time>2021-06-01T14:48:09.871Z</time>
      </trkpt>
      <trkpt lat="44.1475" lon="5.87268">
        <ele>610</ele>
        <time>2021-06-01T14:48:10.871Z</time>
      </trkpt>
      <trkpt lat="44.1475" lon="5.87269">
        <ele>609</ele>
        <time>2021-06-01T14:48:11.871Z</time>
      </trkpt>
      <trkpt lat="44.14752" lon="5.8727">
        <ele>609</ele>
        <time>2021-06-01T14:48:12.871Z</time>
      </trkpt>
      <trkpt lat="44.14753" lon="5.87272">
        <ele>609</ele>
        <time>2021-06-01T14:48:13.871Z</time>
      </trkpt>
      <trkpt lat="44.14754" lon="5.87272">
        <ele>609</ele>
        <time>2021-06-01T14:48:14.871Z</time>
      </trkpt>
      <trkpt lat="44.14755" lon="5.87273">
        <ele>609</ele>
        <time>2021-06-01T14:48:15.871Z</time>
      </trkpt>
      <trkpt lat="44.14756" lon="5.87274">
        <ele>609</ele>
        <time>2021-06-01T14:48:16.871Z</time>
      </trkpt>
      <trkpt lat="44.14757" lon="5.87275">
        <ele>609</ele>
        <time>2021-06-01T14:48:17.871Z</time>
      </trkpt>
      <trkpt lat="44.14758" lon="5.87277">
        <ele>608</ele>
        <time>2021-06-01T14:48:18.871Z</time>
      </trkpt>
      <trkpt lat="44.14759" lon="5.87278">
        <ele>608</ele>
        <time>2021-06-01T14:48:19.871Z</time>
      </trkpt>
      <trkpt lat="44.1476" lon="5.87279">
        <ele>608</ele>
        <time>2021-06-01T14:48:20.871Z</time>
      </trkpt>
      <trkpt lat="44.14761" lon="5.87281">
        <ele>608</ele>
        <time>2021-06-01T14:48:21.871Z</time>
      </trkpt>
      <trkpt lat="44.14762" lon="5.87281">
        <ele>608</ele>
        <time>2021-06-01T14:48:22.871Z</time>
      </trkpt>
      <trkpt lat="44.14762" lon="5.87282">
        <ele>608</ele>
        <time>2021-06-01T14:48:23.871Z</time>
      </trkpt>
      <trkpt lat="44.14763" lon="5.87284">
        <ele>608</ele>
        <time>2021-06-01T14:48:24.871Z</time>
      </trkpt>
      <trkpt lat="44.14764" lon="5.87285">
        <ele>608</ele>
        <time>2021-06-01T14:48:25.871Z</time>
      </trkpt>
      <trkpt lat="44.14764" lon="5.87286">
        <ele>608</ele>
        <time>2021-06-01T14:48:26.871Z</time>
      </trkpt>
      <trkpt lat="44.14765" lon="5.87287">
        <ele>608</ele>
        <time>2021-06-01T14:48:27.871Z</time>
      </trkpt>
      <trkpt lat="44.14766" lon="5.87288">
        <ele>608</ele>
        <time>2021-06-01T14:48:28.871Z</time>
      </trkpt>
      <trkpt lat="44.14767" lon="5.87289">
        <ele>608</ele>
        <time>2021-06-01T14:48:29.871Z</time>
      </trkpt>
      <trkpt lat="44.14767" lon="5.8729">
        <ele>608</ele>
        <time>2021-06-01T14:48:30.871Z</time>
      </trkpt>
      <trkpt lat="44.14768" lon="5.87291">
        <ele>608</ele>
        <time>2021-06-01T14:48:31.871Z</time>
      </trkpt>
      <trkpt lat="44.14769" lon="5.87292">
        <ele>608</ele>
        <time>2021-06-01T14:48:32.871Z</time>
      </trkpt>
      <trkpt lat="44.14769" lon="5.87293">
        <ele>608</ele>
        <time>2021-06-01T14:48:33.871Z</time>
      </trkpt>
      <trkpt lat="44.1477" lon="5.87294">
        <ele>608</ele>
        <time>2021-06-01T14:48:34.871Z</time>
      </trkpt>
      <trkpt lat="44.1477" lon="5.87294">
        <ele>608</ele>
        <time>2021-06-01T14:48:35.871Z</time>
      </trkpt>
      <trkpt lat="44.1477" lon="5.87294">
        <ele>608</ele>
        <time>2021-06-01T14:48:36.871Z</time>
      </trkpt>
      <trkpt lat="44.14769" lon="5.87294">
        <ele>608</ele>
        <time>2021-06-01T14:48:37.871Z</time>
      </trkpt>
      <trkpt lat="44.14769" lon="5.87294">
        <ele>608</ele>
        <time>2021-06-01T14:48:38.871Z</time>
      </trkpt>
      <trkpt lat="44.14769" lon="5.87294">
        <ele>608</ele>
        <time>2021-06-01T14:48:39.871Z</time>
      </trkpt>
      <trkpt lat="44.14769" lon="5.87295">
        <ele>608</ele>
        <time>2021-06-01T14:48:40.871Z</time>
      </trkpt>
      <trkpt lat="44.14769" lon="5.87295">
        <ele>607</ele>
        <time>2021-06-01T14:48:41.871Z</time>
      </trkpt>
      <trkpt lat="44.14769" lon="5.87295">
        <ele>607</ele>
        <time>2021-06-01T14:48:42.871Z</time>
      </trkpt>
      <trkpt lat="44.14769" lon="5.87295">
        <ele>607</ele>
        <time>2021-06-01T14:48:43.871Z</time>
      </trkpt>
      <trkpt lat="44.14769" lon="5.87296">
        <ele>607</ele>
        <time>2021-06-01T14:48:44.871Z</time>
      </trkpt>
      <trkpt lat="44.14769" lon="5.87296">
        <ele>607</ele>
        <time>2021-06-01T14:48:45.871Z</time>
      </trkpt>
      <trkpt lat="44.14769" lon="5.87296">
        <ele>607</ele>
        <time>2021-06-01T14:48:46.871Z</time>
      </trkpt>
      <trkpt lat="44.14769" lon="5.87296">
        <ele>607</ele>
        <time>2021-06-01T14:48:47.871Z</time>
      </trkpt>
      <trkpt lat="44.14769" lon="5.87296">
        <ele>607</ele>
        <time>2021-06-01T14:48:48.871Z</time>
      </trkpt>
      <trkpt lat="44.14769" lon="5.87296">
        <ele>607</ele>
        <time>2021-06-01T14:48:49.871Z</time>
      </trkpt>
      <trkpt lat="44.14769" lon="5.87296">
        <ele>606</ele>
        <time>2021-06-01T14:48:50.871Z</time>
      </trkpt>
      <trkpt lat="44.14769" lon="5.87296">
        <ele>606</ele>
        <time>2021-06-01T14:48:51.871Z</time>
      </trkpt>
      <trkpt lat="44.14769" lon="5.87296">
        <ele>606</ele>
        <time>2021-06-01T14:48:52.871Z</time>
      </trkpt>
      <trkpt lat="44.14769" lon="5.87296">
        <ele>606</ele>
        <time>2021-06-01T14:48:53.871Z</time>
      </trkpt>
      <trkpt lat="44.14768" lon="5.87296">
        <ele>606</ele>
        <time>2021-06-01T14:48:54.871Z</time>
      </trkpt>
      <trkpt lat="44.14768" lon="5.87296">
        <ele>606</ele>
        <time>2021-06-01T14:48:55.871Z</time>
      </trkpt>
      <trkpt lat="44.14768" lon="5.87296">
        <ele>606</ele>
        <time>2021-06-01T14:48:56.871Z</time>
      </trkpt>
      <trkpt lat="44.14768" lon="5.87296">
        <ele>606</ele>
        <time>2021-06-01T14:48:57.871Z</time>
      </trkpt>
      <trkpt lat="44.14769" lon="5.87296">
        <ele>606</ele>
        <time>2021-06-01T14:48:58.871Z</time>
      </trkpt>
      <trkpt lat="44.14769" lon="5.87297">
        <ele>606</ele>
        <time>2021-06-01T14:48:59.871Z</time>
      </trkpt>
      <trkpt lat="44.1477" lon="5.87297">
        <ele>606</ele>
        <time>2021-06-01T14:49:00.871Z</time>
      </trkpt>
      <trkpt lat="44.1477" lon="5.87298">
        <ele>606</ele>
        <time>2021-06-01T14:49:01.871Z</time>
      </trkpt>
      <trkpt lat="44.14771" lon="5.87299">
        <ele>606</ele>
        <time>2021-06-01T14:49:02.871Z</time>
      </trkpt>
      <trkpt lat="44.14771" lon="5.873">
        <ele>606</ele>
        <time>2021-06-01T14:49:03.871Z</time>
      </trkpt>
      <trkpt lat="44.14772" lon="5.87302">
        <ele>606</ele>
        <time>2021-06-01T14:49:04.871Z</time>
      </trkpt>
      <trkpt lat="44.14772" lon="5.87303">
        <ele>606</ele>
        <time>2021-06-01T14:49:05.871Z</time>
      </trkpt>
      <trkpt lat="44.14773" lon="5.87305">
        <ele>606</ele>
        <time>2021-06-01T14:49:06.871Z</time>
      </trkpt>
      <trkpt lat="44.14773" lon="5.87306">
        <ele>606</ele>
        <time>2021-06-01T14:49:07.871Z</time>
      </trkpt>
      <trkpt lat="44.14774" lon="5.87308">
        <ele>606</ele>
        <time>2021-06-01T14:49:08.871Z</time>
      </trkpt>
      <trkpt lat="44.14774" lon="5.87309">
        <ele>607</ele>
        <time>2021-06-01T14:49:09.871Z</time>
      </trkpt>
      <trkpt lat="44.14775" lon="5.8731">
        <ele>607</ele>
        <time>2021-06-01T14:49:10.871Z</time>
      </trkpt>
      <trkpt lat="44.14775" lon="5.87312">
        <ele>607</ele>
        <time>2021-06-01T14:49:11.871Z</time>
      </trkpt>
      <trkpt lat="44.14776" lon="5.87313">
        <ele>607</ele>
        <time>2021-06-01T14:49:12.871Z</time>
      </trkpt>
      <trkpt lat="44.14777" lon="5.87314">
        <ele>607</ele>
        <time>2021-06-01T14:49:13.871Z</time>
      </trkpt>
      <trkpt lat="44.14777" lon="5.87315">
        <ele>607</ele>
        <time>2021-06-01T14:49:14.871Z</time>
      </trkpt>
      <trkpt lat="44.14778" lon="5.87316">
        <ele>607</ele>
        <time>2021-06-01T14:49:15.871Z</time>
      </trkpt>
      <trkpt lat="44.14779" lon="5.87317">
        <ele>607</ele>
        <time>2021-06-01T14:49:16.871Z</time>
      </trkpt>
      <trkpt lat="44.1478" lon="5.87318">
        <ele>607</ele>
        <time>2021-06-01T14:49:17.871Z</time>
      </trkpt>
      <trkpt lat="44.14781" lon="5.87319">
        <ele>608</ele>
        <time>2021-06-01T14:49:18.871Z</time>
      </trkpt>
      <trkpt lat="44.14781" lon="5.8732">
        <ele>608</ele>
        <time>2021-06-01T14:49:19.871Z</time>
      </trkpt>
      <trkpt lat="44.14782" lon="5.87322">
        <ele>608</ele>
        <time>2021-06-01T14:49:20.871Z</time>
      </trkpt>
      <trkpt lat="44.14783" lon="5.87323">
        <ele>608</ele>
        <time>2021-06-01T14:49:21.871Z</time>
      </trkpt>
      <trkpt lat="44.14784" lon="5.87325">
        <ele>608</ele>
        <time>2021-06-01T14:49:22.871Z</time>
      </trkpt>
      <trkpt lat="44.14785" lon="5.87327">
        <ele>608</ele>
        <time>2021-06-01T14:49:23.871Z</time>
      </trkpt>
      <trkpt lat="44.14786" lon="5.87328">
        <ele>608</ele>
        <time>2021-06-01T14:49:24.871Z</time>
      </trkpt>
      <trkpt lat="44.14787" lon="5.87329">
        <ele>608</ele>
        <time>2021-06-01T14:49:25.871Z</time>
      </trkpt>
      <trkpt lat="44.14787" lon="5.8733">
        <ele>608</ele>
        <time>2021-06-01T14:49:26.871Z</time>
      </trkpt>
      <trkpt lat="44.14788" lon="5.87332">
        <ele>608</ele>
        <time>2021-06-01T14:49:27.871Z</time>
      </trkpt>
      <trkpt lat="44.14788" lon="5.87333">
        <ele>608</ele>
        <time>2021-06-01T14:49:28.871Z</time>
      </trkpt>
      <trkpt lat="44.14789" lon="5.87334">
        <ele>608</ele>
        <time>2021-06-01T14:49:29.871Z</time>
      </trkpt>
      <trkpt lat="44.1479" lon="5.87336">
        <ele>608</ele>
        <time>2021-06-01T14:49:30.871Z</time>
      </trkpt>
      <trkpt lat="44.1479" lon="5.87337">
        <ele>608</ele>
        <time>2021-06-01T14:49:31.871Z</time>
      </trkpt>
      <trkpt lat="44.1479" lon="5.87338">
        <ele>608</ele>
        <time>2021-06-01T14:49:32.871Z</time>
      </trkpt>
      <trkpt lat="44.14791" lon="5.87339">
        <ele>608</ele>
        <time>2021-06-01T14:49:33.871Z</time>
      </trkpt>
      <trkpt lat="44.14792" lon="5.87341">
        <ele>608</ele>
        <time>2021-06-01T14:49:34.871Z</time>
      </trkpt>
      <trkpt lat="44.14793" lon="5.87342">
        <ele>608</ele>
        <time>2021-06-01T14:49:35.871Z</time>
      </trkpt>
      <trkpt lat="44.14794" lon="5.87343">
        <ele>608</ele>
        <time>2021-06-01T14:49:36.871Z</time>
      </trkpt>
      <trkpt lat="44.14795" lon="5.87343">
        <ele>608</ele>
        <time>2021-06-01T14:49:37.871Z</time>
      </trkpt>
      <trkpt lat="44.14796" lon="5.87344">
        <ele>607</ele>
        <time>2021-06-01T14:49:38.871Z</time>
      </trkpt>
      <trkpt lat="44.14797" lon="5.87345">
        <ele>607</ele>
        <time>2021-06-01T14:49:39.871Z</time>
      </trkpt>
      <trkpt lat="44.14798" lon="5.87346">
        <ele>607</ele>
        <time>2021-06-01T14:49:40.871Z</time>
      </trkpt>
      <trkpt lat="44.14799" lon="5.87348">
        <ele>607</ele>
        <time>2021-06-01T14:49:41.871Z</time>
      </trkpt>
      <trkpt lat="44.14799" lon="5.87349">
        <ele>607</ele>
        <time>2021-06-01T14:49:42.871Z</time>
      </trkpt>
      <trkpt lat="44.148" lon="5.8735">
        <ele>607</ele>
        <time>2021-06-01T14:49:43.871Z</time>
      </trkpt>
      <trkpt lat="44.14801" lon="5.8735">
        <ele>607</ele>
        <time>2021-06-01T14:49:44.871Z</time>
      </trkpt>
      <trkpt lat="44.14802" lon="5.87352">
        <ele>607</ele>
        <time>2021-06-01T14:49:45.871Z</time>
      </trkpt>
      <trkpt lat="44.14802" lon="5.87353">
        <ele>606</ele>
        <time>2021-06-01T14:49:46.871Z</time>
      </trkpt>
      <trkpt lat="44.14803" lon="5.87354">
        <ele>606</ele>
        <time>2021-06-01T14:49:47.871Z</time>
      </trkpt>
      <trkpt lat="44.14803" lon="5.87354">
        <ele>606</ele>
        <time>2021-06-01T14:49:48.871Z</time>
      </trkpt>
      <trkpt lat="44.14804" lon="5.87355">
        <ele>606</ele>
        <time>2021-06-01T14:49:49.871Z</time>
      </trkpt>
      <trkpt lat="44.14805" lon="5.87356">
        <ele>606</ele>
        <time>2021-06-01T14:49:50.871Z</time>
      </trkpt>
      <trkpt lat="44.14807" lon="5.87357">
        <ele>606</ele>
        <time>2021-06-01T14:49:51.871Z</time>
      </trkpt>
      <trkpt lat="44.14808" lon="5.87358">
        <ele>606</ele>
        <time>2021-06-01T14:49:52.871Z</time>
      </trkpt>
      <trkpt lat="44.14809" lon="5.87359">
        <ele>606</ele>
        <time>2021-06-01T14:49:53.871Z</time>
      </trkpt>
      <trkpt lat="44.14809" lon="5.8736">
        <ele>606</ele>
        <time>2021-06-01T14:49:54.871Z</time>
      </trkpt>
      <trkpt lat="44.1481" lon="5.87362">
        <ele>606</ele>
        <time>2021-06-01T14:49:55.871Z</time>
      </trkpt>
      <trkpt lat="44.14811" lon="5.87363">
        <ele>606</ele>
        <time>2021-06-01T14:49:56.871Z</time>
      </trkpt>
      <trkpt lat="44.14811" lon="5.87365">
        <ele>605</ele>
        <time>2021-06-01T14:49:57.871Z</time>
      </trkpt>
      <trkpt lat="44.14812" lon="5.87366">
        <ele>605</ele>
        <time>2021-06-01T14:49:58.871Z</time>
      </trkpt>
      <trkpt lat="44.14812" lon="5.87366">
        <ele>605</ele>
        <time>2021-06-01T14:49:59.871Z</time>
      </trkpt>
      <trkpt lat="44.14812" lon="5.87366">
        <ele>605</ele>
        <time>2021-06-01T14:50:00.871Z</time>
      </trkpt>
      <trkpt lat="44.14812" lon="5.87367">
        <ele>605</ele>
        <time>2021-06-01T14:50:01.871Z</time>
      </trkpt>
      <trkpt lat="44.14812" lon="5.87367">
        <ele>605</ele>
        <time>2021-06-01T14:50:02.871Z</time>
      </trkpt>
      <trkpt lat="44.14813" lon="5.87367">
        <ele>605</ele>
        <time>2021-06-01T14:50:03.871Z</time>
      </trkpt>
      <trkpt lat="44.14813" lon="5.87367">
        <ele>605</ele>
        <time>2021-06-01T14:50:04.871Z</time>
      </trkpt>
      <trkpt lat="44.14813" lon="5.87367">
        <ele>605</ele>
        <time>2021-06-01T14:50:05.871Z</time>
      </trkpt>
      <trkpt lat="44.14813" lon="5.87367">
        <ele>605</ele>
        <time>2021-06-01T14:50:06.871Z</time>
      </trkpt>
      <trkpt lat="44.14813" lon="5.87366">
        <ele>605</ele>
        <time>2021-06-01T14:50:07.871Z</time>
      </trkpt>
      <trkpt lat="44.14813" lon="5.87367">
        <ele>605</ele>
        <time>2021-06-01T14:50:08.871Z</time>
      </trkpt>
      <trkpt lat="44.14813" lon="5.87367">
        <ele>605</ele>
        <time>2021-06-01T14:50:09.871Z</time>
      </trkpt>
      <trkpt lat="44.14813" lon="5.87366">
        <ele>605</ele>
        <time>2021-06-01T14:50:10.871Z</time>
      </trkpt>
      <trkpt lat="44.14813" lon="5.87366">
        <ele>605</ele>
        <time>2021-06-01T14:50:11.871Z</time>
      </trkpt>
      <trkpt lat="44.14813" lon="5.87366">
        <ele>605</ele>
        <time>2021-06-01T14:50:12.871Z</time>
      </trkpt>
      <trkpt lat="44.14813" lon="5.87367">
        <ele>605</ele>
        <time>2021-06-01T14:50:13.871Z</time>
      </trkpt>
      <trkpt lat="44.14812" lon="5.87367">
        <ele>605</ele>
        <time>2021-06-01T14:50:14.871Z</time>
      </trkpt>
      <trkpt lat="44.14812" lon="5.87367">
        <ele>605</ele>
        <time>2021-06-01T14:50:15.871Z</time>
      </trkpt>
      <trkpt lat="44.14812" lon="5.87367">
        <ele>605</ele>
        <time>2021-06-01T14:50:16.871Z</time>
      </trkpt>
      <trkpt lat="44.14812" lon="5.87367">
        <ele>605</ele>
        <time>2021-06-01T14:50:17.871Z</time>
      </trkpt>
      <trkpt lat="44.14812" lon="5.87367">
        <ele>605</ele>
        <time>2021-06-01T14:50:18.871Z</time>
      </trkpt>
      <trkpt lat="44.14812" lon="5.87367">
        <ele>605</ele>
        <time>2021-06-01T14:50:19.871Z</time>
      </trkpt>
      <trkpt lat="44.14812" lon="5.87367">
        <ele>605</ele>
        <time>2021-06-01T14:50:20.871Z</time>
      </trkpt>
      <trkpt lat="44.14812" lon="5.87367">
        <ele>605</ele>
        <time>2021-06-01T14:50:21.871Z</time>
      </trkpt>
      <trkpt lat="44.14812" lon="5.87367">
        <ele>605</ele>
        <time>2021-06-01T14:50:22.871Z</time>
      </trkpt>
      <trkpt lat="44.14812" lon="5.87368">
        <ele>605</ele>
        <time>2021-06-01T14:50:23.871Z</time>
      </trkpt>
      <trkpt lat="44.14812" lon="5.87368">
        <ele>605</ele>
        <time>2021-06-01T14:50:24.871Z</time>
      </trkpt>
      <trkpt lat="44.14812" lon="5.87368">
        <ele>605</ele>
        <time>2021-06-01T14:50:25.871Z</time>
      </trkpt>
      <trkpt lat="44.14812" lon="5.87368">
        <ele>605</ele>
        <time>2021-06-01T14:50:26.871Z</time>
      </trkpt>
      <trkpt lat="44.14812" lon="5.87368">
        <ele>605</ele>
        <time>2021-06-01T14:50:27.871Z</time>
      </trkpt>
      <trkpt lat="44.14812" lon="5.87368">
        <ele>605</ele>
        <time>2021-06-01T14:50:28.871Z</time>
      </trkpt>
      <trkpt lat="44.14812" lon="5.87368">
        <ele>605</ele>
        <time>2021-06-01T14:50:29.871Z</time>
      </trkpt>
      <trkpt lat="44.14812" lon="5.87368">
        <ele>605</ele>
        <time>2021-06-01T14:50:30.871Z</time>
      </trkpt>
      <trkpt lat="44.14813" lon="5.87368">
        <ele>605</ele>
        <time>2021-06-01T14:50:31.871Z</time>
      </trkpt>
      <trkpt lat="44.14813" lon="5.87368">
        <ele>605</ele>
        <time>2021-06-01T14:50:32.871Z</time>
      </trkpt>
      <trkpt lat="44.14814" lon="5.87369">
        <ele>605</ele>
        <time>2021-06-01T14:50:33.871Z</time>
      </trkpt>
      <trkpt lat="44.14814" lon="5.8737">
        <ele>605</ele>
        <time>2021-06-01T14:50:34.871Z</time>
      </trkpt>
      <trkpt lat="44.14815" lon="5.8737">
        <ele>605</ele>
        <time>2021-06-01T14:50:35.871Z</time>
      </trkpt>
      <trkpt lat="44.14816" lon="5.87371">
        <ele>604</ele>
        <time>2021-06-01T14:50:36.871Z</time>
      </trkpt>
      <trkpt lat="44.14817" lon="5.87372">
        <ele>604</ele>
        <time>2021-06-01T14:50:37.871Z</time>
      </trkpt>
      <trkpt lat="44.14818" lon="5.87374">
        <ele>604</ele>
        <time>2021-06-01T14:50:38.871Z</time>
      </trkpt>
      <trkpt lat="44.14819" lon="5.87374">
        <ele>604</ele>
        <time>2021-06-01T14:50:39.871Z</time>
      </trkpt>
      <trkpt lat="44.14819" lon="5.87375">
        <ele>603</ele>
        <time>2021-06-01T14:50:40.871Z</time>
      </trkpt>
      <trkpt lat="44.1482" lon="5.87377">
        <ele>603</ele>
        <time>2021-06-01T14:50:41.871Z</time>
      </trkpt>
      <trkpt lat="44.14821" lon="5.87377">
        <ele>603</ele>
        <time>2021-06-01T14:50:42.871Z</time>
      </trkpt>
      <trkpt lat="44.14822" lon="5.87378">
        <ele>603</ele>
        <time>2021-06-01T14:50:43.871Z</time>
      </trkpt>
      <trkpt lat="44.14823" lon="5.87379">
        <ele>603</ele>
        <time>2021-06-01T14:50:44.871Z</time>
      </trkpt>
      <trkpt lat="44.14824" lon="5.8738">
        <ele>602</ele>
        <time>2021-06-01T14:50:45.871Z</time>
      </trkpt>
      <trkpt lat="44.14825" lon="5.87381">
        <ele>602</ele>
        <time>2021-06-01T14:50:46.871Z</time>
      </trkpt>
      <trkpt lat="44.14826" lon="5.87382">
        <ele>602</ele>
        <time>2021-06-01T14:50:47.871Z</time>
      </trkpt>
      <trkpt lat="44.14827" lon="5.87384">
        <ele>602</ele>
        <time>2021-06-01T14:50:48.871Z</time>
      </trkpt>
      <trkpt lat="44.14828" lon="5.87384">
        <ele>602</ele>
        <time>2021-06-01T14:50:49.871Z</time>
      </trkpt>
      <trkpt lat="44.14829" lon="5.87385">
        <ele>602</ele>
        <time>2021-06-01T14:50:50.871Z</time>
      </trkpt>
      <trkpt lat="44.1483" lon="5.87386">
        <ele>601</ele>
        <time>2021-06-01T14:50:51.871Z</time>
      </trkpt>
      <trkpt lat="44.14831" lon="5.87387">
        <ele>601</ele>
        <time>2021-06-01T14:50:52.871Z</time>
      </trkpt>
      <trkpt lat="44.14832" lon="5.87388">
        <ele>601</ele>
        <time>2021-06-01T14:50:53.871Z</time>
      </trkpt>
      <trkpt lat="44.14833" lon="5.87388">
        <ele>601</ele>
        <time>2021-06-01T14:50:54.871Z</time>
      </trkpt>
      <trkpt lat="44.14834" lon="5.87389">
        <ele>601</ele>
        <time>2021-06-01T14:50:55.871Z</time>
      </trkpt>
      <trkpt lat="44.14835" lon="5.8739">
        <ele>600</ele>
        <time>2021-06-01T14:50:56.871Z</time>
      </trkpt>
      <trkpt lat="44.14835" lon="5.87391">
        <ele>600</ele>
        <time>2021-06-01T14:50:57.871Z</time>
      </trkpt>
      <trkpt lat="44.14836" lon="5.87392">
        <ele>600</ele>
        <time>2021-06-01T14:50:58.871Z</time>
      </trkpt>
      <trkpt lat="44.14837" lon="5.87393">
        <ele>600</ele>
        <time>2021-06-01T14:50:59.871Z</time>
      </trkpt>
      <trkpt lat="44.14838" lon="5.87394">
        <ele>600</ele>
        <time>2021-06-01T14:51:00.871Z</time>
      </trkpt>
      <trkpt lat="44.14839" lon="5.87395">
        <ele>600</ele>
        <time>2021-06-01T14:51:01.871Z</time>
      </trkpt>
      <trkpt lat="44.1484" lon="5.87396">
        <ele>600</ele>
        <time>2021-06-01T14:51:02.871Z</time>
      </trkpt>
      <trkpt lat="44.14841" lon="5.87397">
        <ele>600</ele>
        <time>2021-06-01T14:51:03.871Z</time>
      </trkpt>
      <trkpt lat="44.14841" lon="5.87398">
        <ele>600</ele>
        <time>2021-06-01T14:51:04.871Z</time>
      </trkpt>
      <trkpt lat="44.14842" lon="5.87398">
        <ele>600</ele>
        <time>2021-06-01T14:51:05.871Z</time>
      </trkpt>
      <trkpt lat="44.14843" lon="5.87399">
        <ele>600</ele>
        <time>2021-06-01T14:51:06.871Z</time>
      </trkpt>
      <trkpt lat="44.14844" lon="5.874">
        <ele>600</ele>
        <time>2021-06-01T14:51:07.871Z</time>
      </trkpt>
      <trkpt lat="44.14844" lon="5.87401">
        <ele>600</ele>
        <time>2021-06-01T14:51:08.871Z</time>
      </trkpt>
      <trkpt lat="44.14845" lon="5.87401">
        <ele>600</ele>
        <time>2021-06-01T14:51:09.871Z</time>
      </trkpt>
      <trkpt lat="44.14846" lon="5.87402">
        <ele>600</ele>
        <time>2021-06-01T14:51:10.871Z</time>
      </trkpt>
      <trkpt lat="44.14847" lon="5.87403">
        <ele>600</ele>
        <time>2021-06-01T14:51:11.871Z</time>
      </trkpt>
      <trkpt lat="44.14847" lon="5.87404">
        <ele>600</ele>
        <time>2021-06-01T14:51:12.871Z</time>
      </trkpt>
      <trkpt lat="44.14848" lon="5.87405">
        <ele>600</ele>
        <time>2021-06-01T14:51:13.871Z</time>
      </trkpt>
      <trkpt lat="44.14849" lon="5.87406">
        <ele>600</ele>
        <time>2021-06-01T14:51:14.871Z</time>
      </trkpt>
      <trkpt lat="44.1485" lon="5.87407">
        <ele>600</ele>
        <time>2021-06-01T14:51:15.871Z</time>
      </trkpt>
      <trkpt lat="44.14851" lon="5.87408">
        <ele>600</ele>
        <time>2021-06-01T14:51:16.871Z</time>
      </trkpt>
      <trkpt lat="44.14852" lon="5.87409">
        <ele>600</ele>
        <time>2021-06-01T14:51:17.871Z</time>
      </trkpt>
      <trkpt lat="44.14853" lon="5.8741">
        <ele>600</ele>
        <time>2021-06-01T14:51:18.871Z</time>
      </trkpt>
      <trkpt lat="44.14854" lon="5.8741">
        <ele>600</ele>
        <time>2021-06-01T14:51:19.871Z</time>
      </trkpt>
      <trkpt lat="44.14855" lon="5.87411">
        <ele>600</ele>
        <time>2021-06-01T14:51:20.871Z</time>
      </trkpt>
      <trkpt lat="44.14856" lon="5.87412">
        <ele>600</ele>
        <time>2021-06-01T14:51:21.871Z</time>
      </trkpt>
      <trkpt lat="44.14857" lon="5.87413">
        <ele>600</ele>
        <time>2021-06-01T14:51:22.871Z</time>
      </trkpt>
      <trkpt lat="44.14858" lon="5.87413">
        <ele>600</ele>
        <time>2021-06-01T14:51:23.871Z</time>
      </trkpt>
      <trkpt lat="44.14859" lon="5.87414">
        <ele>600</ele>
        <time>2021-06-01T14:51:24.871Z</time>
      </trkpt>
      <trkpt lat="44.14859" lon="5.87415">
        <ele>600</ele>
        <time>2021-06-01T14:51:25.871Z</time>
      </trkpt>
      <trkpt lat="44.1486" lon="5.87416">
        <ele>600</ele>
        <time>2021-06-01T14:51:26.871Z</time>
      </trkpt>
      <trkpt lat="44.14861" lon="5.87417">
        <ele>600</ele>
        <time>2021-06-01T14:51:27.871Z</time>
      </trkpt>
      <trkpt lat="44.14862" lon="5.87418">
        <ele>600</ele>
        <time>2021-06-01T14:51:28.871Z</time>
      </trkpt>
      <trkpt lat="44.14862" lon="5.87419">
        <ele>600</ele>
        <time>2021-06-01T14:51:29.871Z</time>
      </trkpt>
      <trkpt lat="44.14863" lon="5.8742">
        <ele>600</ele>
        <time>2021-06-01T14:51:30.871Z</time>
      </trkpt>
      <trkpt lat="44.14863" lon="5.87421">
        <ele>600</ele>
        <time>2021-06-01T14:51:31.871Z</time>
      </trkpt>
      <trkpt lat="44.14864" lon="5.87422">
        <ele>600</ele>
        <time>2021-06-01T14:51:32.871Z</time>
      </trkpt>
      <trkpt lat="44.14865" lon="5.87423">
        <ele>600</ele>
        <time>2021-06-01T14:51:33.871Z</time>
      </trkpt>
      <trkpt lat="44.14866" lon="5.87423">
        <ele>600</ele>
        <time>2021-06-01T14:51:34.871Z</time>
      </trkpt>
      <trkpt lat="44.14866" lon="5.87424">
        <ele>600</ele>
        <time>2021-06-01T14:51:35.871Z</time>
      </trkpt>
      <trkpt lat="44.14867" lon="5.87424">
        <ele>600</ele>
        <time>2021-06-01T14:51:36.871Z</time>
      </trkpt>
      <trkpt lat="44.14867" lon="5.87425">
        <ele>600</ele>
        <time>2021-06-01T14:51:37.871Z</time>
      </trkpt>
      <trkpt lat="44.14868" lon="5.87426">
        <ele>600</ele>
        <time>2021-06-01T14:51:38.871Z</time>
      </trkpt>
      <trkpt lat="44.14868" lon="5.87427">
        <ele>600</ele>
        <time>2021-06-01T14:51:39.871Z</time>
      </trkpt>
      <trkpt lat="44.14868" lon="5.87428">
        <ele>600</ele>
        <time>2021-06-01T14:51:40.871Z</time>
      </trkpt>
      <trkpt lat="44.14868" lon="5.87429">
        <ele>600</ele>
        <time>2021-06-01T14:51:41.871Z</time>
      </trkpt>
      <trkpt lat="44.14868" lon="5.8743">
        <ele>599</ele>
        <time>2021-06-01T14:51:42.871Z</time>
      </trkpt>
      <trkpt lat="44.14868" lon="5.87431">
        <ele>599</ele>
        <time>2021-06-01T14:51:43.871Z</time>
      </trkpt>
      <trkpt lat="44.14868" lon="5.87433">
        <ele>599</ele>
        <time>2021-06-01T14:51:44.871Z</time>
      </trkpt>
      <trkpt lat="44.14868" lon="5.87433">
        <ele>599</ele>
        <time>2021-06-01T14:51:45.871Z</time>
      </trkpt>
      <trkpt lat="44.14869" lon="5.87434">
        <ele>599</ele>
        <time>2021-06-01T14:51:46.871Z</time>
      </trkpt>
      <trkpt lat="44.14869" lon="5.87434">
        <ele>599</ele>
        <time>2021-06-01T14:51:47.871Z</time>
      </trkpt>
      <trkpt lat="44.14868" lon="5.87434">
        <ele>599</ele>
        <time>2021-06-01T14:51:48.871Z</time>
      </trkpt>
      <trkpt lat="44.14868" lon="5.87434">
        <ele>599</ele>
        <time>2021-06-01T14:51:49.871Z</time>
      </trkpt>
      <trkpt lat="44.14868" lon="5.87434">
        <ele>599</ele>
        <time>2021-06-01T14:51:50.871Z</time>
      </trkpt>
      <trkpt lat="44.14868" lon="5.87434">
        <ele>599</ele>
        <time>2021-06-01T14:51:51.871Z</time>
      </trkpt>
      <trkpt lat="44.14868" lon="5.87434">
        <ele>599</ele>
        <time>2021-06-01T14:51:52.871Z</time>
      </trkpt>
      <trkpt lat="44.14868" lon="5.87435">
        <ele>599</ele>
        <time>2021-06-01T14:51:53.871Z</time>
      </trkpt>
      <trkpt lat="44.14868" lon="5.87435">
        <ele>599</ele>
        <time>2021-06-01T14:51:54.871Z</time>
      </trkpt>
      <trkpt lat="44.14868" lon="5.87435">
        <ele>599</ele>
        <time>2021-06-01T14:51:55.871Z</time>
      </trkpt>
      <trkpt lat="44.14868" lon="5.87435">
        <ele>599</ele>
        <time>2021-06-01T14:51:56.871Z</time>
      </trkpt>
      <trkpt lat="44.14868" lon="5.87435">
        <ele>599</ele>
        <time>2021-06-01T14:51:57.871Z</time>
      </trkpt>
      <trkpt lat="44.14868" lon="5.87435">
        <ele>599</ele>
        <time>2021-06-01T14:51:58.871Z</time>
      </trkpt>
      <trkpt lat="44.14868" lon="5.87435">
        <ele>599</ele>
        <time>2021-06-01T14:51:59.871Z</time>
      </trkpt>
      <trkpt lat="44.14868" lon="5.87435">
        <ele>599</ele>
        <time>2021-06-01T14:52:00.871Z</time>
      </trkpt>
      <trkpt lat="44.14868" lon="5.87435">
        <ele>599</ele>
        <time>2021-06-01T14:52:01.871Z</time>
      </trkpt>
      <trkpt lat="44.14868" lon="5.87435">
        <ele>599</ele>
        <time>2021-06-01T14:52:02.871Z</time>
      </trkpt>
      <trkpt lat="44.14868" lon="5.87435">
        <ele>599</ele>
        <time>2021-06-01T14:52:03.871Z</time>
      </trkpt>
      <trkpt lat="44.14868" lon="5.87435">
        <ele>599</ele>
        <time>2021-06-01T14:52:04.871Z</time>
      </trkpt>
      <trkpt lat="44.14869" lon="5.87435">
        <ele>599</ele>
        <time>2021-06-01T14:52:05.871Z</time>
      </trkpt>
      <trkpt lat="44.14869" lon="5.87435">
        <ele>599</ele>
        <time>2021-06-01T14:52:06.871Z</time>
      </trkpt>
      <trkpt lat="44.14869" lon="5.87435">
        <ele>599</ele>
        <time>2021-06-01T14:52:07.871Z</time>
      </trkpt>
      <trkpt lat="44.14869" lon="5.87435">
        <ele>599</ele>
        <time>2021-06-01T14:52:08.871Z</time>
      </trkpt>
      <trkpt lat="44.14869" lon="5.87435">
        <ele>599</ele>
        <time>2021-06-01T14:52:09.871Z</time>
      </trkpt>
      <trkpt lat="44.14869" lon="5.87435">
        <ele>599</ele>
        <time>2021-06-01T14:52:10.871Z</time>
      </trkpt>
      <trkpt lat="44.14868" lon="5.87435">
        <ele>599</ele>
        <time>2021-06-01T14:52:11.871Z</time>
      </trkpt>
      <trkpt lat="44.14868" lon="5.87435">
        <ele>599</ele>
        <time>2021-06-01T14:52:12.871Z</time>
      </trkpt>
      <trkpt lat="44.14868" lon="5.87435">
        <ele>599</ele>
        <time>2021-06-01T14:52:13.871Z</time>
      </trkpt>
      <trkpt lat="44.14868" lon="5.87435">
        <ele>599</ele>
        <time>2021-06-01T14:52:14.871Z</time>
      </trkpt>
      <trkpt lat="44.14868" lon="5.87435">
        <ele>599</ele>
        <time>2021-06-01T14:52:15.871Z</time>
      </trkpt>
      <trkpt lat="44.14868" lon="5.87436">
        <ele>599</ele>
        <time>2021-06-01T14:52:16.871Z</time>
      </trkpt>
      <trkpt lat="44.14869" lon="5.87436">
        <ele>599</ele>
        <time>2021-06-01T14:52:17.871Z</time>
      </trkpt>
      <trkpt lat="44.14869" lon="5.87437">
        <ele>599</ele>
        <time>2021-06-01T14:52:18.871Z</time>
      </trkpt>
      <trkpt lat="44.14869" lon="5.87438">
        <ele>599</ele>
        <time>2021-06-01T14:52:19.871Z</time>
      </trkpt>
      <trkpt lat="44.1487" lon="5.87439">
        <ele>599</ele>
        <time>2021-06-01T14:52:20.871Z</time>
      </trkpt>
      <trkpt lat="44.1487" lon="5.8744">
        <ele>599</ele>
        <time>2021-06-01T14:52:21.871Z</time>
      </trkpt>
      <trkpt lat="44.1487" lon="5.87442">
        <ele>598</ele>
        <time>2021-06-01T14:52:22.871Z</time>
      </trkpt>
      <trkpt lat="44.14871" lon="5.87443">
        <ele>598</ele>
        <time>2021-06-01T14:52:23.871Z</time>
      </trkpt>
      <trkpt lat="44.14871" lon="5.87444">
        <ele>598</ele>
        <time>2021-06-01T14:52:24.871Z</time>
      </trkpt>
      <trkpt lat="44.14872" lon="5.87445">
        <ele>598</ele>
        <time>2021-06-01T14:52:25.871Z</time>
      </trkpt>
      <trkpt lat="44.14873" lon="5.87445">
        <ele>598</ele>
        <time>2021-06-01T14:52:26.871Z</time>
      </trkpt>
      <trkpt lat="44.14873" lon="5.87446">
        <ele>598</ele>
        <time>2021-06-01T14:52:27.871Z</time>
      </trkpt>
      <trkpt lat="44.14874" lon="5.87446">
        <ele>598</ele>
        <time>2021-06-01T14:52:28.871Z</time>
      </trkpt>
      <trkpt lat="44.14874" lon="5.87446">
        <ele>598</ele>
        <time>2021-06-01T14:52:29.871Z</time>
      </trkpt>
      <trkpt lat="44.14875" lon="5.87446">
        <ele>598</ele>
        <time>2021-06-01T14:52:30.871Z</time>
      </trkpt>
      <trkpt lat="44.14875" lon="5.87445">
        <ele>598</ele>
        <time>2021-06-01T14:52:31.871Z</time>
      </trkpt>
      <trkpt lat="44.14876" lon="5.87445">
        <ele>598</ele>
        <time>2021-06-01T14:52:32.871Z</time>
      </trkpt>
      <trkpt lat="44.14876" lon="5.87445">
        <ele>598</ele>
        <time>2021-06-01T14:52:33.871Z</time>
      </trkpt>
      <trkpt lat="44.14877" lon="5.87444">
        <ele>598</ele>
        <time>2021-06-01T14:52:34.871Z</time>
      </trkpt>
      <trkpt lat="44.14878" lon="5.87444">
        <ele>598</ele>
        <time>2021-06-01T14:52:35.871Z</time>
      </trkpt>
      <trkpt lat="44.14878" lon="5.87444">
        <ele>598</ele>
        <time>2021-06-01T14:52:36.871Z</time>
      </trkpt>
      <trkpt lat="44.14879" lon="5.87443">
        <ele>598</ele>
        <time>2021-06-01T14:52:37.871Z</time>
      </trkpt>
      <trkpt lat="44.14879" lon="5.87443">
        <ele>598</ele>
        <time>2021-06-01T14:52:38.871Z</time>
      </trkpt>
      <trkpt lat="44.1488" lon="5.87442">
        <ele>598</ele>
        <time>2021-06-01T14:52:39.871Z</time>
      </trkpt>
      <trkpt lat="44.1488" lon="5.87442">
        <ele>598</ele>
        <time>2021-06-01T14:52:40.871Z</time>
      </trkpt>
      <trkpt lat="44.1488" lon="5.87441">
        <ele>598</ele>
        <time>2021-06-01T14:52:41.871Z</time>
      </trkpt>
      <trkpt lat="44.1488" lon="5.87441">
        <ele>598</ele>
        <time>2021-06-01T14:52:42.871Z</time>
      </trkpt>
      <trkpt lat="44.14881" lon="5.87441">
        <ele>597</ele>
        <time>2021-06-01T14:52:43.871Z</time>
      </trkpt>
      <trkpt lat="44.14881" lon="5.87441">
        <ele>597</ele>
        <time>2021-06-01T14:52:44.871Z</time>
      </trkpt>
      <trkpt lat="44.14882" lon="5.87441">
        <ele>597</ele>
        <time>2021-06-01T14:52:45.871Z</time>
      </trkpt>
      <trkpt lat="44.14882" lon="5.87441">
        <ele>597</ele>
        <time>2021-06-01T14:52:46.871Z</time>
      </trkpt>
      <trkpt lat="44.14883" lon="5.8744">
        <ele>597</ele>
        <time>2021-06-01T14:52:47.871Z</time>
      </trkpt>
      <trkpt lat="44.14883" lon="5.8744">
        <ele>597</ele>
        <time>2021-06-01T14:52:48.871Z</time>
      </trkpt>
      <trkpt lat="44.14883" lon="5.8744">
        <ele>597</ele>
        <time>2021-06-01T14:52:49.871Z</time>
      </trkpt>
      <trkpt lat="44.14883" lon="5.87439">
        <ele>597</ele>
        <time>2021-06-01T14:52:50.871Z</time>
      </trkpt>
      <trkpt lat="44.14884" lon="5.87439">
        <ele>597</ele>
        <time>2021-06-01T14:52:51.871Z</time>
      </trkpt>
      <trkpt lat="44.14884" lon="5.87438">
        <ele>597</ele>
        <time>2021-06-01T14:52:52.871Z</time>
      </trkpt>
      <trkpt lat="44.14884" lon="5.87438">
        <ele>596</ele>
        <time>2021-06-01T14:52:53.871Z</time>
      </trkpt>
      <trkpt lat="44.14885" lon="5.87437">
        <ele>596</ele>
        <time>2021-06-01T14:52:54.871Z</time>
      </trkpt>
      <trkpt lat="44.14885" lon="5.87437">
        <ele>596</ele>
        <time>2021-06-01T14:52:55.871Z</time>
      </trkpt>
      <trkpt lat="44.14886" lon="5.87437">
        <ele>596</ele>
        <time>2021-06-01T14:52:56.871Z</time>
      </trkpt>
      <trkpt lat="44.14886" lon="5.87436">
        <ele>596</ele>
        <time>2021-06-01T14:52:57.871Z</time>
      </trkpt>
      <trkpt lat="44.14887" lon="5.87436">
        <ele>596</ele>
        <time>2021-06-01T14:52:58.871Z</time>
      </trkpt>
      <trkpt lat="44.14888" lon="5.87435">
        <ele>596</ele>
        <time>2021-06-01T14:52:59.871Z</time>
      </trkpt>
      <trkpt lat="44.14888" lon="5.87435">
        <ele>596</ele>
        <time>2021-06-01T14:53:00.871Z</time>
      </trkpt>
      <trkpt lat="44.14889" lon="5.87434">
        <ele>596</ele>
        <time>2021-06-01T14:53:01.871Z</time>
      </trkpt>
      <trkpt lat="44.1489" lon="5.87433">
        <ele>595</ele>
        <time>2021-06-01T14:53:02.871Z</time>
      </trkpt>
      <trkpt lat="44.14891" lon="5.87433">
        <ele>595</ele>
        <time>2021-06-01T14:53:03.871Z</time>
      </trkpt>
      <trkpt lat="44.14892" lon="5.87432">
        <ele>595</ele>
        <time>2021-06-01T14:53:04.871Z</time>
      </trkpt>
      <trkpt lat="44.14892" lon="5.87431">
        <ele>595</ele>
        <time>2021-06-01T14:53:05.871Z</time>
      </trkpt>
      <trkpt lat="44.14893" lon="5.87431">
        <ele>595</ele>
        <time>2021-06-01T14:53:06.871Z</time>
      </trkpt>
      <trkpt lat="44.14893" lon="5.8743">
        <ele>595</ele>
        <time>2021-06-01T14:53:07.871Z</time>
      </trkpt>
      <trkpt lat="44.14894" lon="5.8743">
        <ele>595</ele>
        <time>2021-06-01T14:53:08.871Z</time>
      </trkpt>
      <trkpt lat="44.14895" lon="5.87428">
        <ele>595</ele>
        <time>2021-06-01T14:53:09.871Z</time>
      </trkpt>
      <trkpt lat="44.14896" lon="5.87428">
        <ele>595</ele>
        <time>2021-06-01T14:53:10.871Z</time>
      </trkpt>
      <trkpt lat="44.14897" lon="5.87427">
        <ele>595</ele>
        <time>2021-06-01T14:53:11.871Z</time>
      </trkpt>
      <trkpt lat="44.14898" lon="5.87426">
        <ele>594</ele>
        <time>2021-06-01T14:53:12.871Z</time>
      </trkpt>
      <trkpt lat="44.14898" lon="5.87426">
        <ele>594</ele>
        <time>2021-06-01T14:53:13.871Z</time>
      </trkpt>
      <trkpt lat="44.14899" lon="5.87425">
        <ele>594</ele>
        <time>2021-06-01T14:53:14.871Z</time>
      </trkpt>
      <trkpt lat="44.14901" lon="5.87424">
        <ele>594</ele>
        <time>2021-06-01T14:53:15.871Z</time>
      </trkpt>
      <trkpt lat="44.14901" lon="5.87423">
        <ele>594</ele>
        <time>2021-06-01T14:53:16.871Z</time>
      </trkpt>
      <trkpt lat="44.14902" lon="5.87423">
        <ele>594</ele>
        <time>2021-06-01T14:53:17.871Z</time>
      </trkpt>
      <trkpt lat="44.14903" lon="5.87422">
        <ele>594</ele>
        <time>2021-06-01T14:53:18.871Z</time>
      </trkpt>
      <trkpt lat="44.14904" lon="5.87421">
        <ele>594</ele>
        <time>2021-06-01T14:53:19.871Z</time>
      </trkpt>
      <trkpt lat="44.14904" lon="5.87421">
        <ele>594</ele>
        <time>2021-06-01T14:53:20.871Z</time>
      </trkpt>
      <trkpt lat="44.14905" lon="5.8742">
        <ele>594</ele>
        <time>2021-06-01T14:53:21.871Z</time>
      </trkpt>
      <trkpt lat="44.14906" lon="5.87419">
        <ele>594</ele>
        <time>2021-06-01T14:53:22.871Z</time>
      </trkpt>
      <trkpt lat="44.14907" lon="5.87419">
        <ele>594</ele>
        <time>2021-06-01T14:53:23.871Z</time>
      </trkpt>
      <trkpt lat="44.14908" lon="5.87418">
        <ele>594</ele>
        <time>2021-06-01T14:53:24.871Z</time>
      </trkpt>
      <trkpt lat="44.14909" lon="5.87417">
        <ele>594</ele>
        <time>2021-06-01T14:53:25.871Z</time>
      </trkpt>
      <trkpt lat="44.1491" lon="5.87416">
        <ele>594</ele>
        <time>2021-06-01T14:53:26.871Z</time>
      </trkpt>
      <trkpt lat="44.14911" lon="5.87416">
        <ele>594</ele>
        <time>2021-06-01T14:53:27.871Z</time>
      </trkpt>
      <trkpt lat="44.14912" lon="5.87416">
        <ele>593</ele>
        <time>2021-06-01T14:53:28.871Z</time>
      </trkpt>
      <trkpt lat="44.14913" lon="5.87415">
        <ele>593</ele>
        <time>2021-06-01T14:53:29.871Z</time>
      </trkpt>
      <trkpt lat="44.14914" lon="5.87415">
        <ele>593</ele>
        <time>2021-06-01T14:53:30.871Z</time>
      </trkpt>
      <trkpt lat="44.14914" lon="5.87415">
        <ele>593</ele>
        <time>2021-06-01T14:53:31.871Z</time>
      </trkpt>
      <trkpt lat="44.14915" lon="5.87415">
        <ele>593</ele>
        <time>2021-06-01T14:53:32.871Z</time>
      </trkpt>
      <trkpt lat="44.14915" lon="5.87415">
        <ele>593</ele>
        <time>2021-06-01T14:53:33.871Z</time>
      </trkpt>
      <trkpt lat="44.14916" lon="5.87415">
        <ele>593</ele>
        <time>2021-06-01T14:53:34.871Z</time>
      </trkpt>
      <trkpt lat="44.14917" lon="5.87414">
        <ele>593</ele>
        <time>2021-06-01T14:53:35.871Z</time>
      </trkpt>
      <trkpt lat="44.14918" lon="5.87414">
        <ele>593</ele>
        <time>2021-06-01T14:53:36.871Z</time>
      </trkpt>
      <trkpt lat="44.14919" lon="5.87413">
        <ele>593</ele>
        <time>2021-06-01T14:53:37.871Z</time>
      </trkpt>
      <trkpt lat="44.1492" lon="5.87413">
        <ele>593</ele>
        <time>2021-06-01T14:53:38.871Z</time>
      </trkpt>
      <trkpt lat="44.14921" lon="5.87412">
        <ele>592</ele>
        <time>2021-06-01T14:53:39.871Z</time>
      </trkpt>
      <trkpt lat="44.14923" lon="5.87412">
        <ele>592</ele>
        <time>2021-06-01T14:53:40.871Z</time>
      </trkpt>
      <trkpt lat="44.14925" lon="5.87411">
        <ele>592</ele>
        <time>2021-06-01T14:53:41.871Z</time>
      </trkpt>
      <trkpt lat="44.14926" lon="5.87411">
        <ele>592</ele>
        <time>2021-06-01T14:53:42.871Z</time>
      </trkpt>
      <trkpt lat="44.14928" lon="5.8741">
        <ele>591</ele>
        <time>2021-06-01T14:53:43.871Z</time>
      </trkpt>
      <trkpt lat="44.14929" lon="5.8741">
        <ele>591</ele>
        <time>2021-06-01T14:53:44.871Z</time>
      </trkpt>
      <trkpt lat="44.14931" lon="5.87409">
        <ele>591</ele>
        <time>2021-06-01T14:53:45.871Z</time>
      </trkpt>
      <trkpt lat="44.14932" lon="5.87409">
        <ele>591</ele>
        <time>2021-06-01T14:53:46.871Z</time>
      </trkpt>
      <trkpt lat="44.14934" lon="5.87408">
        <ele>591</ele>
        <time>2021-06-01T14:53:47.871Z</time>
      </trkpt>
      <trkpt lat="44.14935" lon="5.87408">
        <ele>590</ele>
        <time>2021-06-01T14:53:48.871Z</time>
      </trkpt>
      <trkpt lat="44.14936" lon="5.87408">
        <ele>590</ele>
        <time>2021-06-01T14:53:49.871Z</time>
      </trkpt>
      <trkpt lat="44.14937" lon="5.87408">
        <ele>590</ele>
        <time>2021-06-01T14:53:50.871Z</time>
      </trkpt>
      <trkpt lat="44.14938" lon="5.87408">
        <ele>590</ele>
        <time>2021-06-01T14:53:51.871Z</time>
      </trkpt>
      <trkpt lat="44.14939" lon="5.87407">
        <ele>590</ele>
        <time>2021-06-01T14:53:52.871Z</time>
      </trkpt>
      <trkpt lat="44.1494" lon="5.87406">
        <ele>590</ele>
        <time>2021-06-01T14:53:53.871Z</time>
      </trkpt>
      <trkpt lat="44.1494" lon="5.87405">
        <ele>590</ele>
        <time>2021-06-01T14:53:54.871Z</time>
      </trkpt>
      <trkpt lat="44.14942" lon="5.87404">
        <ele>590</ele>
        <time>2021-06-01T14:53:55.871Z</time>
      </trkpt>
      <trkpt lat="44.14943" lon="5.87403">
        <ele>590</ele>
        <time>2021-06-01T14:53:56.871Z</time>
      </trkpt>
      <trkpt lat="44.14944" lon="5.87402">
        <ele>590</ele>
        <time>2021-06-01T14:53:57.871Z</time>
      </trkpt>
      <trkpt lat="44.14945" lon="5.87401">
        <ele>590</ele>
        <time>2021-06-01T14:53:58.871Z</time>
      </trkpt>
      <trkpt lat="44.14946" lon="5.87401">
        <ele>590</ele>
        <time>2021-06-01T14:53:59.871Z</time>
      </trkpt>
      <trkpt lat="44.14948" lon="5.874">
        <ele>590</ele>
        <time>2021-06-01T14:54:00.871Z</time>
      </trkpt>
      <trkpt lat="44.14949" lon="5.87399">
        <ele>590</ele>
        <time>2021-06-01T14:54:01.871Z</time>
      </trkpt>
      <trkpt lat="44.14951" lon="5.87399">
        <ele>590</ele>
        <time>2021-06-01T14:54:02.871Z</time>
      </trkpt>
      <trkpt lat="44.14952" lon="5.87398">
        <ele>590</ele>
        <time>2021-06-01T14:54:03.871Z</time>
      </trkpt>
      <trkpt lat="44.14953" lon="5.87397">
        <ele>590</ele>
        <time>2021-06-01T14:54:04.871Z</time>
      </trkpt>
      <trkpt lat="44.14954" lon="5.87396">
        <ele>590</ele>
        <time>2021-06-01T14:54:05.871Z</time>
      </trkpt>
      <trkpt lat="44.14955" lon="5.87396">
        <ele>590</ele>
        <time>2021-06-01T14:54:06.871Z</time>
      </trkpt>
      <trkpt lat="44.14956" lon="5.87395">
        <ele>590</ele>
        <time>2021-06-01T14:54:07.871Z</time>
      </trkpt>
      <trkpt lat="44.14957" lon="5.87394">
        <ele>590</ele>
        <time>2021-06-01T14:54:08.871Z</time>
      </trkpt>
      <trkpt lat="44.14958" lon="5.87393">
        <ele>590</ele>
        <time>2021-06-01T14:54:09.871Z</time>
      </trkpt>
      <trkpt lat="44.14959" lon="5.87392">
        <ele>590</ele>
        <time>2021-06-01T14:54:10.871Z</time>
      </trkpt>
      <trkpt lat="44.1496" lon="5.87391">
        <ele>590</ele>
        <time>2021-06-01T14:54:11.871Z</time>
      </trkpt>
      <trkpt lat="44.14961" lon="5.8739">
        <ele>590</ele>
        <time>2021-06-01T14:54:12.871Z</time>
      </trkpt>
      <trkpt lat="44.14962" lon="5.87389">
        <ele>590</ele>
        <time>2021-06-01T14:54:13.871Z</time>
      </trkpt>
      <trkpt lat="44.14963" lon="5.87388">
        <ele>590</ele>
        <time>2021-06-01T14:54:14.871Z</time>
      </trkpt>
      <trkpt lat="44.14964" lon="5.87388">
        <ele>590</ele>
        <time>2021-06-01T14:54:15.871Z</time>
      </trkpt>
      <trkpt lat="44.14965" lon="5.87387">
        <ele>590</ele>
        <time>2021-06-01T14:54:16.871Z</time>
      </trkpt>
      <trkpt lat="44.14965" lon="5.87386">
        <ele>590</ele>
        <time>2021-06-01T14:54:17.871Z</time>
      </trkpt>
      <trkpt lat="44.14966" lon="5.87385">
        <ele>590</ele>
        <time>2021-06-01T14:54:18.871Z</time>
      </trkpt>
      <trkpt lat="44.14967" lon="5.87384">
        <ele>590</ele>
        <time>2021-06-01T14:54:19.871Z</time>
      </trkpt>
      <trkpt lat="44.14967" lon="5.87384">
        <ele>590</ele>
        <time>2021-06-01T14:54:20.871Z</time>
      </trkpt>
      <trkpt lat="44.14968" lon="5.87383">
        <ele>590</ele>
        <time>2021-06-01T14:54:21.871Z</time>
      </trkpt>
      <trkpt lat="44.14969" lon="5.87382">
        <ele>590</ele>
        <time>2021-06-01T14:54:22.871Z</time>
      </trkpt>
      <trkpt lat="44.1497" lon="5.87381">
        <ele>590</ele>
        <time>2021-06-01T14:54:23.871Z</time>
      </trkpt>
      <trkpt lat="44.1497" lon="5.87381">
        <ele>590</ele>
        <time>2021-06-01T14:54:24.871Z</time>
      </trkpt>
      <trkpt lat="44.1497" lon="5.87381">
        <ele>589</ele>
        <time>2021-06-01T14:54:25.871Z</time>
      </trkpt>
      <trkpt lat="44.14971" lon="5.8738">
        <ele>589</ele>
        <time>2021-06-01T14:54:26.871Z</time>
      </trkpt>
      <trkpt lat="44.14971" lon="5.8738">
        <ele>589</ele>
        <time>2021-06-01T14:54:27.871Z</time>
      </trkpt>
      <trkpt lat="44.14972" lon="5.87379">
        <ele>589</ele>
        <time>2021-06-01T14:54:28.871Z</time>
      </trkpt>
      <trkpt lat="44.14972" lon="5.87379">
        <ele>589</ele>
        <time>2021-06-01T14:54:29.871Z</time>
      </trkpt>
      <trkpt lat="44.14972" lon="5.87379">
        <ele>589</ele>
        <time>2021-06-01T14:54:30.871Z</time>
      </trkpt>
      <trkpt lat="44.14972" lon="5.87379">
        <ele>589</ele>
        <time>2021-06-01T14:54:31.871Z</time>
      </trkpt>
      <trkpt lat="44.14972" lon="5.87379">
        <ele>589</ele>
        <time>2021-06-01T14:54:32.871Z</time>
      </trkpt>
      <trkpt lat="44.14972" lon="5.87379">
        <ele>589</ele>
        <time>2021-06-01T14:54:33.871Z</time>
      </trkpt>
      <trkpt lat="44.14972" lon="5.87379">
        <ele>589</ele>
        <time>2021-06-01T14:54:34.871Z</time>
      </trkpt>
      <trkpt lat="44.14972" lon="5.87379">
        <ele>589</ele>
        <time>2021-06-01T14:54:35.871Z</time>
      </trkpt>
      <trkpt lat="44.14973" lon="5.87379">
        <ele>589</ele>
        <time>2021-06-01T14:54:36.871Z</time>
      </trkpt>
      <trkpt lat="44.14973" lon="5.87379">
        <ele>589</ele>
        <time>2021-06-01T14:54:37.871Z</time>
      </trkpt>
      <trkpt lat="44.14973" lon="5.87379">
        <ele>589</ele>
        <time>2021-06-01T14:54:38.871Z</time>
      </trkpt>
      <trkpt lat="44.14973" lon="5.87379">
        <ele>589</ele>
        <time>2021-06-01T14:54:39.871Z</time>
      </trkpt>
      <trkpt lat="44.14973" lon="5.87379">
        <ele>589</ele>
        <time>2021-06-01T14:54:40.871Z</time>
      </trkpt>
      <trkpt lat="44.14973" lon="5.87379">
        <ele>589</ele>
        <time>2021-06-01T14:54:41.871Z</time>
      </trkpt>
      <trkpt lat="44.14973" lon="5.87379">
        <ele>589</ele>
        <time>2021-06-01T14:54:42.871Z</time>
      </trkpt>
      <trkpt lat="44.14973" lon="5.8738">
        <ele>589</ele>
        <time>2021-06-01T14:54:43.871Z</time>
      </trkpt>
      <trkpt lat="44.14973" lon="5.8738">
        <ele>589</ele>
        <time>2021-06-01T14:54:44.871Z</time>
      </trkpt>
      <trkpt lat="44.14973" lon="5.87379">
        <ele>589</ele>
        <time>2021-06-01T14:54:45.871Z</time>
      </trkpt>
      <trkpt lat="44.14973" lon="5.87379">
        <ele>589</ele>
        <time>2021-06-01T14:54:46.871Z</time>
      </trkpt>
      <trkpt lat="44.14973" lon="5.87379">
        <ele>589</ele>
        <time>2021-06-01T14:54:47.871Z</time>
      </trkpt>
      <trkpt lat="44.14973" lon="5.87379">
        <ele>589</ele>
        <time>2021-06-01T14:54:48.871Z</time>
      </trkpt>
      <trkpt lat="44.14973" lon="5.87379">
        <ele>589</ele>
        <time>2021-06-01T14:54:49.871Z</time>
      </trkpt>
      <trkpt lat="44.14973" lon="5.87379">
        <ele>589</ele>
        <time>2021-06-01T14:54:50.871Z</time>
      </trkpt>
      <trkpt lat="44.14973" lon="5.87379">
        <ele>589</ele>
        <time>2021-06-01T14:54:51.871Z</time>
      </trkpt>
      <trkpt lat="44.14973" lon="5.87379">
        <ele>589</ele>
        <time>2021-06-01T14:54:52.871Z</time>
      </trkpt>
      <trkpt lat="44.14973" lon="5.87379">
        <ele>588</ele>
        <time>2021-06-01T14:54:53.871Z</time>
      </trkpt>
      <trkpt lat="44.14973" lon="5.87379">
        <ele>588</ele>
        <time>2021-06-01T14:54:54.871Z</time>
      </trkpt>
      <trkpt lat="44.14973" lon="5.87379">
        <ele>588</ele>
        <time>2021-06-01T14:54:55.871Z</time>
      </trkpt>
      <trkpt lat="44.14973" lon="5.87379">
        <ele>588</ele>
        <time>2021-06-01T14:54:56.871Z</time>
      </trkpt>
      <trkpt lat="44.14973" lon="5.87379">
        <ele>588</ele>
        <time>2021-06-01T14:54:57.871Z</time>
      </trkpt>
      <trkpt lat="44.14973" lon="5.87379">
        <ele>588</ele>
        <time>2021-06-01T14:54:58.871Z</time>
      </trkpt>
      <trkpt lat="44.14973" lon="5.87379">
        <ele>588</ele>
        <time>2021-06-01T14:54:59.871Z</time>
      </trkpt>
      <trkpt lat="44.14974" lon="5.87379">
        <ele>588</ele>
        <time>2021-06-01T14:55:00.871Z</time>
      </trkpt>
      <trkpt lat="44.14974" lon="5.87379">
        <ele>588</ele>
        <time>2021-06-01T14:55:01.871Z</time>
      </trkpt>
      <trkpt lat="44.14974" lon="5.87379">
        <ele>588</ele>
        <time>2021-06-01T14:55:02.871Z</time>
      </trkpt>
      <trkpt lat="44.14974" lon="5.87378">
        <ele>588</ele>
        <time>2021-06-01T14:55:03.871Z</time>
      </trkpt>
      <trkpt lat="44.14974" lon="5.87378">
        <ele>588</ele>
        <time>2021-06-01T14:55:04.871Z</time>
      </trkpt>
      <trkpt lat="44.14974" lon="5.87378">
        <ele>588</ele>
        <time>2021-06-01T14:55:05.871Z</time>
      </trkpt>
      <trkpt lat="44.14974" lon="5.87378">
        <ele>588</ele>
        <time>2021-06-01T14:55:06.871Z</time>
      </trkpt>
      <trkpt lat="44.14974" lon="5.87378">
        <ele>588</ele>
        <time>2021-06-01T14:55:07.871Z</time>
      </trkpt>
      <trkpt lat="44.14974" lon="5.87378">
        <ele>588</ele>
        <time>2021-06-01T14:55:08.871Z</time>
      </trkpt>
      <trkpt lat="44.14974" lon="5.87378">
        <ele>588</ele>
        <time>2021-06-01T14:55:09.871Z</time>
      </trkpt>
      <trkpt lat="44.14974" lon="5.87378">
        <ele>588</ele>
        <time>2021-06-01T14:55:10.871Z</time>
      </trkpt>
      <trkpt lat="44.14974" lon="5.87378">
        <ele>588</ele>
        <time>2021-06-01T14:55:11.871Z</time>
      </trkpt>
      <trkpt lat="44.14974" lon="5.87378">
        <ele>588</ele>
        <time>2021-06-01T14:55:12.871Z</time>
      </trkpt>
      <trkpt lat="44.14974" lon="5.87378">
        <ele>588</ele>
        <time>2021-06-01T14:55:13.871Z</time>
      </trkpt>
      <trkpt lat="44.14974" lon="5.87378">
        <ele>588</ele>
        <time>2021-06-01T14:55:14.871Z</time>
      </trkpt>
      <trkpt lat="44.14974" lon="5.87378">
        <ele>588</ele>
        <time>2021-06-01T14:55:15.871Z</time>
      </trkpt>
      <trkpt lat="44.14974" lon="5.87378">
        <ele>588</ele>
        <time>2021-06-01T14:55:16.871Z</time>
      </trkpt>
      <trkpt lat="44.14974" lon="5.87378">
        <ele>588</ele>
        <time>2021-06-01T14:55:17.871Z</time>
      </trkpt>
      <trkpt lat="44.14974" lon="5.87378">
        <ele>588</ele>
        <time>2021-06-01T14:55:18.871Z</time>
      </trkpt>
      <trkpt lat="44.14974" lon="5.87378">
        <ele>588</ele>
        <time>2021-06-01T14:55:19.871Z</time>
      </trkpt>
      <trkpt lat="44.14974" lon="5.87378">
        <ele>588</ele>
        <time>2021-06-01T14:55:20.871Z</time>
      </trkpt>
      <trkpt lat="44.14974" lon="5.87378">
        <ele>588</ele>
        <time>2021-06-01T14:55:21.871Z</time>
      </trkpt>
      <trkpt lat="44.14974" lon="5.87378">
        <ele>588</ele>
        <time>2021-06-01T14:55:22.871Z</time>
      </trkpt>
      <trkpt lat="44.14974" lon="5.87377">
        <ele>588</ele>
        <time>2021-06-01T14:55:23.871Z</time>
      </trkpt>
      <trkpt lat="44.14975" lon="5.87378">
        <ele>588</ele>
        <time>2021-06-01T14:55:24.871Z</time>
      </trkpt>
      <trkpt lat="44.14975" lon="5.87378">
        <ele>588</ele>
        <time>2021-06-01T14:55:25.871Z</time>
      </trkpt>
      <trkpt lat="44.14975" lon="5.87378">
        <ele>588</ele>
        <time>2021-06-01T14:55:26.871Z</time>
      </trkpt>
      <trkpt lat="44.14975" lon="5.87378">
        <ele>588</ele>
        <time>2021-06-01T14:55:27.871Z</time>
      </trkpt>
      <trkpt lat="44.14975" lon="5.87378">
        <ele>588</ele>
        <time>2021-06-01T14:55:28.871Z</time>
      </trkpt>
      <trkpt lat="44.14975" lon="5.87378">
        <ele>588</ele>
        <time>2021-06-01T14:55:29.871Z</time>
      </trkpt>
      <trkpt lat="44.14975" lon="5.87378">
        <ele>588</ele>
        <time>2021-06-01T14:55:30.871Z</time>
      </trkpt>
      <trkpt lat="44.14975" lon="5.87378">
        <ele>588</ele>
        <time>2021-06-01T14:55:31.871Z</time>
      </trkpt>
      <trkpt lat="44.14975" lon="5.87378">
        <ele>588</ele>
        <time>2021-06-01T14:55:32.871Z</time>
      </trkpt>
      <trkpt lat="44.14975" lon="5.87378">
        <ele>589</ele>
        <time>2021-06-01T14:55:33.871Z</time>
      </trkpt>
      <trkpt lat="44.14975" lon="5.87379">
        <ele>589</ele>
        <time>2021-06-01T14:55:34.871Z</time>
      </trkpt>
      <trkpt lat="44.14975" lon="5.87379">
        <ele>589</ele>
        <time>2021-06-01T14:55:35.871Z</time>
      </trkpt>
      <trkpt lat="44.14975" lon="5.87379">
        <ele>589</ele>
        <time>2021-06-01T14:55:36.871Z</time>
      </trkpt>
      <trkpt lat="44.14975" lon="5.87379">
        <ele>589</ele>
        <time>2021-06-01T14:55:37.871Z</time>
      </trkpt>
      <trkpt lat="44.14975" lon="5.87379">
        <ele>589</ele>
        <time>2021-06-01T14:55:38.871Z</time>
      </trkpt>
      <trkpt lat="44.14975" lon="5.87379">
        <ele>588</ele>
        <time>2021-06-01T14:55:39.871Z</time>
      </trkpt>
      <trkpt lat="44.14975" lon="5.87379">
        <ele>588</ele>
        <time>2021-06-01T14:55:40.871Z</time>
      </trkpt>
      <trkpt lat="44.14975" lon="5.87379">
        <ele>588</ele>
        <time>2021-06-01T14:55:41.871Z</time>
      </trkpt>
      <trkpt lat="44.14975" lon="5.87379">
        <ele>588</ele>
        <time>2021-06-01T14:55:42.871Z</time>
      </trkpt>
      <trkpt lat="44.14975" lon="5.87378">
        <ele>588</ele>
        <time>2021-06-01T14:55:43.871Z</time>
      </trkpt>
      <trkpt lat="44.14975" lon="5.87378">
        <ele>588</ele>
        <time>2021-06-01T14:55:44.871Z</time>
      </trkpt>
      <trkpt lat="44.14975" lon="5.87378">
        <ele>588</ele>
        <time>2021-06-01T14:55:45.871Z</time>
      </trkpt>
      <trkpt lat="44.14975" lon="5.87378">
        <ele>588</ele>
        <time>2021-06-01T14:55:46.871Z</time>
      </trkpt>
      <trkpt lat="44.14975" lon="5.87378">
        <ele>588</ele>
        <time>2021-06-01T14:55:47.871Z</time>
      </trkpt>
      <trkpt lat="44.14975" lon="5.87378">
        <ele>588</ele>
        <time>2021-06-01T14:55:48.871Z</time>
      </trkpt>
      <trkpt lat="44.14975" lon="5.87378">
        <ele>588</ele>
        <time>2021-06-01T14:55:49.871Z</time>
      </trkpt>
      <trkpt lat="44.14975" lon="5.87378">
        <ele>588</ele>
        <time>2021-06-01T14:55:50.871Z</time>
      </trkpt>
      <trkpt lat="44.14975" lon="5.87378">
        <ele>588</ele>
        <time>2021-06-01T14:55:51.871Z</time>
      </trkpt>
      <trkpt lat="44.14976" lon="5.87377">
        <ele>588</ele>
        <time>2021-06-01T14:55:52.871Z</time>
      </trkpt>
      <trkpt lat="44.14976" lon="5.87377">
        <ele>588</ele>
        <time>2021-06-01T14:55:53.871Z</time>
      </trkpt>
      <trkpt lat="44.14977" lon="5.87376">
        <ele>588</ele>
        <time>2021-06-01T14:55:54.871Z</time>
      </trkpt>
      <trkpt lat="44.14978" lon="5.87375">
        <ele>588</ele>
        <time>2021-06-01T14:55:55.871Z</time>
      </trkpt>
      <trkpt lat="44.14979" lon="5.87375">
        <ele>587</ele>
        <time>2021-06-01T14:55:56.871Z</time>
      </trkpt>
      <trkpt lat="44.14979" lon="5.87374">
        <ele>587</ele>
        <time>2021-06-01T14:55:57.871Z</time>
      </trkpt>
      <trkpt lat="44.1498" lon="5.87373">
        <ele>587</ele>
        <time>2021-06-01T14:55:58.871Z</time>
      </trkpt>
      <trkpt lat="44.14981" lon="5.87373">
        <ele>587</ele>
        <time>2021-06-01T14:55:59.871Z</time>
      </trkpt>
      <trkpt lat="44.14982" lon="5.87372">
        <ele>587</ele>
        <time>2021-06-01T14:56:00.871Z</time>
      </trkpt>
      <trkpt lat="44.14983" lon="5.87372">
        <ele>587</ele>
        <time>2021-06-01T14:56:01.871Z</time>
      </trkpt>
      <trkpt lat="44.14983" lon="5.87373">
        <ele>586</ele>
        <time>2021-06-01T14:56:02.871Z</time>
      </trkpt>
      <trkpt lat="44.14984" lon="5.87373">
        <ele>586</ele>
        <time>2021-06-01T14:56:03.871Z</time>
      </trkpt>
      <trkpt lat="44.14985" lon="5.87374">
        <ele>586</ele>
        <time>2021-06-01T14:56:04.871Z</time>
      </trkpt>
      <trkpt lat="44.14986" lon="5.87374">
        <ele>586</ele>
        <time>2021-06-01T14:56:05.871Z</time>
      </trkpt>
      <trkpt lat="44.14986" lon="5.87373">
        <ele>586</ele>
        <time>2021-06-01T14:56:06.871Z</time>
      </trkpt>
      <trkpt lat="44.14987" lon="5.87373">
        <ele>586</ele>
        <time>2021-06-01T14:56:07.871Z</time>
      </trkpt>
      <trkpt lat="44.14988" lon="5.87372">
        <ele>586</ele>
        <time>2021-06-01T14:56:08.871Z</time>
      </trkpt>
      <trkpt lat="44.14989" lon="5.87372">
        <ele>586</ele>
        <time>2021-06-01T14:56:09.871Z</time>
      </trkpt>
      <trkpt lat="44.1499" lon="5.87371">
        <ele>585</ele>
        <time>2021-06-01T14:56:10.871Z</time>
      </trkpt>
      <trkpt lat="44.14991" lon="5.87371">
        <ele>585</ele>
        <time>2021-06-01T14:56:11.871Z</time>
      </trkpt>
      <trkpt lat="44.14991" lon="5.8737">
        <ele>585</ele>
        <time>2021-06-01T14:56:12.871Z</time>
      </trkpt>
      <trkpt lat="44.14992" lon="5.87369">
        <ele>585</ele>
        <time>2021-06-01T14:56:13.871Z</time>
      </trkpt>
      <trkpt lat="44.14993" lon="5.87368">
        <ele>585</ele>
        <time>2021-06-01T14:56:14.871Z</time>
      </trkpt>
      <trkpt lat="44.14993" lon="5.87367">
        <ele>585</ele>
        <time>2021-06-01T14:56:15.871Z</time>
      </trkpt>
      <trkpt lat="44.14994" lon="5.87367">
        <ele>585</ele>
        <time>2021-06-01T14:56:16.871Z</time>
      </trkpt>
      <trkpt lat="44.14995" lon="5.87366">
        <ele>584</ele>
        <time>2021-06-01T14:56:17.871Z</time>
      </trkpt>
      <trkpt lat="44.14996" lon="5.87366">
        <ele>584</ele>
        <time>2021-06-01T14:56:18.871Z</time>
      </trkpt>
      <trkpt lat="44.14997" lon="5.87366">
        <ele>584</ele>
        <time>2021-06-01T14:56:19.871Z</time>
      </trkpt>
      <trkpt lat="44.14997" lon="5.87366">
        <ele>584</ele>
        <time>2021-06-01T14:56:20.871Z</time>
      </trkpt>
      <trkpt lat="44.14998" lon="5.87367">
        <ele>584</ele>
        <time>2021-06-01T14:56:21.871Z</time>
      </trkpt>
      <trkpt lat="44.14998" lon="5.87368">
        <ele>584</ele>
        <time>2021-06-01T14:56:22.871Z</time>
      </trkpt>
      <trkpt lat="44.14998" lon="5.87369">
        <ele>584</ele>
        <time>2021-06-01T14:56:23.871Z</time>
      </trkpt>
      <trkpt lat="44.14998" lon="5.8737">
        <ele>584</ele>
        <time>2021-06-01T14:56:24.871Z</time>
      </trkpt>
      <trkpt lat="44.14998" lon="5.8737">
        <ele>584</ele>
        <time>2021-06-01T14:56:25.871Z</time>
      </trkpt>
      <trkpt lat="44.14998" lon="5.87369">
        <ele>584</ele>
        <time>2021-06-01T14:56:26.871Z</time>
      </trkpt>
      <trkpt lat="44.14998" lon="5.87369">
        <ele>583</ele>
        <time>2021-06-01T14:56:27.871Z</time>
      </trkpt>
      <trkpt lat="44.14998" lon="5.87369">
        <ele>583</ele>
        <time>2021-06-01T14:56:28.871Z</time>
      </trkpt>
      <trkpt lat="44.14998" lon="5.87369">
        <ele>583</ele>
        <time>2021-06-01T14:56:29.871Z</time>
      </trkpt>
      <trkpt lat="44.14998" lon="5.87369">
        <ele>583</ele>
        <time>2021-06-01T14:56:30.871Z</time>
      </trkpt>
      <trkpt lat="44.14998" lon="5.87369">
        <ele>583</ele>
        <time>2021-06-01T14:56:31.871Z</time>
      </trkpt>
      <trkpt lat="44.14998" lon="5.87369">
        <ele>583</ele>
        <time>2021-06-01T14:56:32.871Z</time>
      </trkpt>
      <trkpt lat="44.14998" lon="5.87369">
        <ele>583</ele>
        <time>2021-06-01T14:56:33.871Z</time>
      </trkpt>
      <trkpt lat="44.14999" lon="5.87368">
        <ele>583</ele>
        <time>2021-06-01T14:56:34.871Z</time>
      </trkpt>
      <trkpt lat="44.14999" lon="5.87368">
        <ele>583</ele>
        <time>2021-06-01T14:56:35.871Z</time>
      </trkpt>
      <trkpt lat="44.14999" lon="5.87368">
        <ele>583</ele>
        <time>2021-06-01T14:56:36.871Z</time>
      </trkpt>
      <trkpt lat="44.14999" lon="5.87368">
        <ele>583</ele>
        <time>2021-06-01T14:56:37.871Z</time>
      </trkpt>
      <trkpt lat="44.14999" lon="5.87368">
        <ele>583</ele>
        <time>2021-06-01T14:56:38.871Z</time>
      </trkpt>
      <trkpt lat="44.14999" lon="5.87368">
        <ele>583</ele>
        <time>2021-06-01T14:56:39.871Z</time>
      </trkpt>
      <trkpt lat="44.14999" lon="5.87368">
        <ele>582</ele>
        <time>2021-06-01T14:56:40.871Z</time>
      </trkpt>
      <trkpt lat="44.14999" lon="5.87368">
        <ele>582</ele>
        <time>2021-06-01T14:56:41.871Z</time>
      </trkpt>
      <trkpt lat="44.14999" lon="5.87368">
        <ele>582</ele>
        <time>2021-06-01T14:56:42.871Z</time>
      </trkpt>
      <trkpt lat="44.14999" lon="5.87368">
        <ele>582</ele>
        <time>2021-06-01T14:56:43.871Z</time>
      </trkpt>
      <trkpt lat="44.14999" lon="5.87368">
        <ele>582</ele>
        <time>2021-06-01T14:56:44.871Z</time>
      </trkpt>
      <trkpt lat="44.14999" lon="5.87367">
        <ele>582</ele>
        <time>2021-06-01T14:56:45.871Z</time>
      </trkpt>
      <trkpt lat="44.14999" lon="5.87367">
        <ele>582</ele>
        <time>2021-06-01T14:56:46.871Z</time>
      </trkpt>
      <trkpt lat="44.14999" lon="5.87367">
        <ele>582</ele>
        <time>2021-06-01T14:56:47.871Z</time>
      </trkpt>
      <trkpt lat="44.14999" lon="5.87367">
        <ele>582</ele>
        <time>2021-06-01T14:56:48.871Z</time>
      </trkpt>
      <trkpt lat="44.14999" lon="5.87367">
        <ele>582</ele>
        <time>2021-06-01T14:56:49.871Z</time>
      </trkpt>
      <trkpt lat="44.14999" lon="5.87367">
        <ele>582</ele>
        <time>2021-06-01T14:56:50.871Z</time>
      </trkpt>
      <trkpt lat="44.14999" lon="5.87367">
        <ele>582</ele>
        <time>2021-06-01T14:56:51.871Z</time>
      </trkpt>
      <trkpt lat="44.14999" lon="5.87367">
        <ele>582</ele>
        <time>2021-06-01T14:56:52.871Z</time>
      </trkpt>
      <trkpt lat="44.15" lon="5.87366">
        <ele>582</ele>
        <time>2021-06-01T14:56:53.871Z</time>
      </trkpt>
      <trkpt lat="44.15" lon="5.87365">
        <ele>582</ele>
        <time>2021-06-01T14:56:54.871Z</time>
      </trkpt>
      <trkpt lat="44.15001" lon="5.87364">
        <ele>582</ele>
        <time>2021-06-01T14:56:55.871Z</time>
      </trkpt>
      <trkpt lat="44.15002" lon="5.87363">
        <ele>582</ele>
        <time>2021-06-01T14:56:56.871Z</time>
      </trkpt>
      <trkpt lat="44.15003" lon="5.87362">
        <ele>582</ele>
        <time>2021-06-01T14:56:57.871Z</time>
      </trkpt>
      <trkpt lat="44.15003" lon="5.87361">
        <ele>582</ele>
        <time>2021-06-01T14:56:58.871Z</time>
      </trkpt>
      <trkpt lat="44.15004" lon="5.8736">
        <ele>582</ele>
        <time>2021-06-01T14:56:59.871Z</time>
      </trkpt>
      <trkpt lat="44.15004" lon="5.87359">
        <ele>582</ele>
        <time>2021-06-01T14:57:00.871Z</time>
      </trkpt>
      <trkpt lat="44.15005" lon="5.87358">
        <ele>582</ele>
        <time>2021-06-01T14:57:01.871Z</time>
      </trkpt>
      <trkpt lat="44.15005" lon="5.87357">
        <ele>582</ele>
        <time>2021-06-01T14:57:02.871Z</time>
      </trkpt>
      <trkpt lat="44.15006" lon="5.87356">
        <ele>582</ele>
        <time>2021-06-01T14:57:03.871Z</time>
      </trkpt>
      <trkpt lat="44.15007" lon="5.87355">
        <ele>582</ele>
        <time>2021-06-01T14:57:04.871Z</time>
      </trkpt>
      <trkpt lat="44.15008" lon="5.87354">
        <ele>582</ele>
        <time>2021-06-01T14:57:05.871Z</time>
      </trkpt>
      <trkpt lat="44.15008" lon="5.87353">
        <ele>582</ele>
        <time>2021-06-01T14:57:06.871Z</time>
      </trkpt>
      <trkpt lat="44.15009" lon="5.87351">
        <ele>582</ele>
        <time>2021-06-01T14:57:07.871Z</time>
      </trkpt>
      <trkpt lat="44.15009" lon="5.8735">
        <ele>582</ele>
        <time>2021-06-01T14:57:08.871Z</time>
      </trkpt>
      <trkpt lat="44.1501" lon="5.87349">
        <ele>582</ele>
        <time>2021-06-01T14:57:09.871Z</time>
      </trkpt>
      <trkpt lat="44.1501" lon="5.87348">
        <ele>582</ele>
        <time>2021-06-01T14:57:10.871Z</time>
      </trkpt>
      <trkpt lat="44.15011" lon="5.87346">
        <ele>582</ele>
        <time>2021-06-01T14:57:11.871Z</time>
      </trkpt>
      <trkpt lat="44.15011" lon="5.87345">
        <ele>582</ele>
        <time>2021-06-01T14:57:12.871Z</time>
      </trkpt>
      <trkpt lat="44.15012" lon="5.87344">
        <ele>582</ele>
        <time>2021-06-01T14:57:13.871Z</time>
      </trkpt>
      <trkpt lat="44.15013" lon="5.87343">
        <ele>582</ele>
        <time>2021-06-01T14:57:14.871Z</time>
      </trkpt>
      <trkpt lat="44.15014" lon="5.87341">
        <ele>582</ele>
        <time>2021-06-01T14:57:15.871Z</time>
      </trkpt>
      <trkpt lat="44.15015" lon="5.8734">
        <ele>582</ele>
        <time>2021-06-01T14:57:16.871Z</time>
      </trkpt>
      <trkpt lat="44.15016" lon="5.87339">
        <ele>582</ele>
        <time>2021-06-01T14:57:17.871Z</time>
      </trkpt>
      <trkpt lat="44.15017" lon="5.87339">
        <ele>582</ele>
        <time>2021-06-01T14:57:18.871Z</time>
      </trkpt>
      <trkpt lat="44.15017" lon="5.87337">
        <ele>582</ele>
        <time>2021-06-01T14:57:19.871Z</time>
      </trkpt>
      <trkpt lat="44.15018" lon="5.87336">
        <ele>582</ele>
        <time>2021-06-01T14:57:20.871Z</time>
      </trkpt>
      <trkpt lat="44.15018" lon="5.87335">
        <ele>582</ele>
        <time>2021-06-01T14:57:21.871Z</time>
      </trkpt>
      <trkpt lat="44.15019" lon="5.87334">
        <ele>582</ele>
        <time>2021-06-01T14:57:22.871Z</time>
      </trkpt>
      <trkpt lat="44.1502" lon="5.87333">
        <ele>582</ele>
        <time>2021-06-01T14:57:23.871Z</time>
      </trkpt>
      <trkpt lat="44.1502" lon="5.87332">
        <ele>582</ele>
        <time>2021-06-01T14:57:24.871Z</time>
      </trkpt>
      <trkpt lat="44.15021" lon="5.8733">
        <ele>583</ele>
        <time>2021-06-01T14:57:25.871Z</time>
      </trkpt>
      <trkpt lat="44.15022" lon="5.87329">
        <ele>583</ele>
        <time>2021-06-01T14:57:26.871Z</time>
      </trkpt>
      <trkpt lat="44.15023" lon="5.87328">
        <ele>583</ele>
        <time>2021-06-01T14:57:27.871Z</time>
      </trkpt>
      <trkpt lat="44.15024" lon="5.87326">
        <ele>583</ele>
        <time>2021-06-01T14:57:28.871Z</time>
      </trkpt>
      <trkpt lat="44.15025" lon="5.87325">
        <ele>584</ele>
        <time>2021-06-01T14:57:29.871Z</time>
      </trkpt>
      <trkpt lat="44.15026" lon="5.87324">
        <ele>584</ele>
        <time>2021-06-01T14:57:30.871Z</time>
      </trkpt>
      <trkpt lat="44.15026" lon="5.87323">
        <ele>584</ele>
        <time>2021-06-01T14:57:31.871Z</time>
      </trkpt>
      <trkpt lat="44.15027" lon="5.87321">
        <ele>584</ele>
        <time>2021-06-01T14:57:32.871Z</time>
      </trkpt>
      <trkpt lat="44.15027" lon="5.8732">
        <ele>584</ele>
        <time>2021-06-01T14:57:33.871Z</time>
      </trkpt>
      <trkpt lat="44.15028" lon="5.87319">
        <ele>584</ele>
        <time>2021-06-01T14:57:34.871Z</time>
      </trkpt>
      <trkpt lat="44.15028" lon="5.87318">
        <ele>584</ele>
        <time>2021-06-01T14:57:35.871Z</time>
      </trkpt>
      <trkpt lat="44.15029" lon="5.87317">
        <ele>585</ele>
        <time>2021-06-01T14:57:36.871Z</time>
      </trkpt>
      <trkpt lat="44.15029" lon="5.87315">
        <ele>585</ele>
        <time>2021-06-01T14:57:37.871Z</time>
      </trkpt>
      <trkpt lat="44.1503" lon="5.87315">
        <ele>585</ele>
        <time>2021-06-01T14:57:38.871Z</time>
      </trkpt>
      <trkpt lat="44.1503" lon="5.87314">
        <ele>585</ele>
        <time>2021-06-01T14:57:39.871Z</time>
      </trkpt>
      <trkpt lat="44.15031" lon="5.87313">
        <ele>585</ele>
        <time>2021-06-01T14:57:40.871Z</time>
      </trkpt>
      <trkpt lat="44.15032" lon="5.87312">
        <ele>585</ele>
        <time>2021-06-01T14:57:41.871Z</time>
      </trkpt>
      <trkpt lat="44.15032" lon="5.87312">
        <ele>585</ele>
        <time>2021-06-01T14:57:42.871Z</time>
      </trkpt>
      <trkpt lat="44.15032" lon="5.87312">
        <ele>585</ele>
        <time>2021-06-01T14:57:43.871Z</time>
      </trkpt>
      <trkpt lat="44.15032" lon="5.87311">
        <ele>585</ele>
        <time>2021-06-01T14:57:44.871Z</time>
      </trkpt>
      <trkpt lat="44.15033" lon="5.87311">
        <ele>585</ele>
        <time>2021-06-01T14:57:45.871Z</time>
      </trkpt>
      <trkpt lat="44.15033" lon="5.8731">
        <ele>585</ele>
        <time>2021-06-01T14:57:46.871Z</time>
      </trkpt>
      <trkpt lat="44.15034" lon="5.8731">
        <ele>585</ele>
        <time>2021-06-01T14:57:47.871Z</time>
      </trkpt>
      <trkpt lat="44.15035" lon="5.87309">
        <ele>585</ele>
        <time>2021-06-01T14:57:48.871Z</time>
      </trkpt>
      <trkpt lat="44.15036" lon="5.87309">
        <ele>585</ele>
        <time>2021-06-01T14:57:49.871Z</time>
      </trkpt>
      <trkpt lat="44.15036" lon="5.87309">
        <ele>585</ele>
        <time>2021-06-01T14:57:50.871Z</time>
      </trkpt>
      <trkpt lat="44.15037" lon="5.87308">
        <ele>585</ele>
        <time>2021-06-01T14:57:51.871Z</time>
      </trkpt>
      <trkpt lat="44.15038" lon="5.87308">
        <ele>585</ele>
        <time>2021-06-01T14:57:52.871Z</time>
      </trkpt>
      <trkpt lat="44.15039" lon="5.87308">
        <ele>585</ele>
        <time>2021-06-01T14:57:53.871Z</time>
      </trkpt>
      <trkpt lat="44.1504" lon="5.87308">
        <ele>586</ele>
        <time>2021-06-01T14:57:54.871Z</time>
      </trkpt>
      <trkpt lat="44.15041" lon="5.87308">
        <ele>586</ele>
        <time>2021-06-01T14:57:55.871Z</time>
      </trkpt>
      <trkpt lat="44.15041" lon="5.87308">
        <ele>586</ele>
        <time>2021-06-01T14:57:56.871Z</time>
      </trkpt>
      <trkpt lat="44.15042" lon="5.87308">
        <ele>586</ele>
        <time>2021-06-01T14:57:57.871Z</time>
      </trkpt>
      <trkpt lat="44.15043" lon="5.87308">
        <ele>586</ele>
        <time>2021-06-01T14:57:58.871Z</time>
      </trkpt>
      <trkpt lat="44.15043" lon="5.87308">
        <ele>586</ele>
        <time>2021-06-01T14:57:59.871Z</time>
      </trkpt>
      <trkpt lat="44.15043" lon="5.87308">
        <ele>586</ele>
        <time>2021-06-01T14:58:00.871Z</time>
      </trkpt>
      <trkpt lat="44.15043" lon="5.87307">
        <ele>586</ele>
        <time>2021-06-01T14:58:01.871Z</time>
      </trkpt>
      <trkpt lat="44.15043" lon="5.87307">
        <ele>586</ele>
        <time>2021-06-01T14:58:02.871Z</time>
      </trkpt>
      <trkpt lat="44.15043" lon="5.87307">
        <ele>586</ele>
        <time>2021-06-01T14:58:03.871Z</time>
      </trkpt>
      <trkpt lat="44.15043" lon="5.87307">
        <ele>586</ele>
        <time>2021-06-01T14:58:04.871Z</time>
      </trkpt>
      <trkpt lat="44.15043" lon="5.87307">
        <ele>586</ele>
        <time>2021-06-01T14:58:05.871Z</time>
      </trkpt>
      <trkpt lat="44.15044" lon="5.87307">
        <ele>585</ele>
        <time>2021-06-01T14:58:06.871Z</time>
      </trkpt>
      <trkpt lat="44.15044" lon="5.87307">
        <ele>585</ele>
        <time>2021-06-01T14:58:07.871Z</time>
      </trkpt>
      <trkpt lat="44.15044" lon="5.87307">
        <ele>585</ele>
        <time>2021-06-01T14:58:08.871Z</time>
      </trkpt>
      <trkpt lat="44.15044" lon="5.87307">
        <ele>585</ele>
        <time>2021-06-01T14:58:09.871Z</time>
      </trkpt>
      <trkpt lat="44.15044" lon="5.87307">
        <ele>586</ele>
        <time>2021-06-01T14:58:10.871Z</time>
      </trkpt>
      <trkpt lat="44.15044" lon="5.87306">
        <ele>585</ele>
        <time>2021-06-01T14:58:11.871Z</time>
      </trkpt>
      <trkpt lat="44.15044" lon="5.87306">
        <ele>585</ele>
        <time>2021-06-01T14:58:12.871Z</time>
      </trkpt>
      <trkpt lat="44.15044" lon="5.87306">
        <ele>585</ele>
        <time>2021-06-01T14:58:13.871Z</time>
      </trkpt>
      <trkpt lat="44.15044" lon="5.87306">
        <ele>585</ele>
        <time>2021-06-01T14:58:14.871Z</time>
      </trkpt>
      <trkpt lat="44.15044" lon="5.87306">
        <ele>585</ele>
        <time>2021-06-01T14:58:15.871Z</time>
      </trkpt>
      <trkpt lat="44.15044" lon="5.87306">
        <ele>585</ele>
        <time>2021-06-01T14:58:16.871Z</time>
      </trkpt>
      <trkpt lat="44.15044" lon="5.87305">
        <ele>585</ele>
        <time>2021-06-01T14:58:17.871Z</time>
      </trkpt>
      <trkpt lat="44.15044" lon="5.87305">
        <ele>585</ele>
        <time>2021-06-01T14:58:18.871Z</time>
      </trkpt>
      <trkpt lat="44.15044" lon="5.87305">
        <ele>585</ele>
        <time>2021-06-01T14:58:19.871Z</time>
      </trkpt>
      <trkpt lat="44.15044" lon="5.87305">
        <ele>585</ele>
        <time>2021-06-01T14:58:20.871Z</time>
      </trkpt>
      <trkpt lat="44.15044" lon="5.87305">
        <ele>585</ele>
        <time>2021-06-01T14:58:21.871Z</time>
      </trkpt>
      <trkpt lat="44.15044" lon="5.87305">
        <ele>585</ele>
        <time>2021-06-01T14:58:22.871Z</time>
      </trkpt>
      <trkpt lat="44.15044" lon="5.87305">
        <ele>585</ele>
        <time>2021-06-01T14:58:23.871Z</time>
      </trkpt>
      <trkpt lat="44.15044" lon="5.87305">
        <ele>585</ele>
        <time>2021-06-01T14:58:24.871Z</time>
      </trkpt>
      <trkpt lat="44.15044" lon="5.87305">
        <ele>585</ele>
        <time>2021-06-01T14:58:25.871Z</time>
      </trkpt>
      <trkpt lat="44.15044" lon="5.87305">
        <ele>585</ele>
        <time>2021-06-01T14:58:26.871Z</time>
      </trkpt>
      <trkpt lat="44.15044" lon="5.87305">
        <ele>585</ele>
        <time>2021-06-01T14:58:27.871Z</time>
      </trkpt>
      <trkpt lat="44.15044" lon="5.87305">
        <ele>585</ele>
        <time>2021-06-01T14:58:28.871Z</time>
      </trkpt>
      <trkpt lat="44.15044" lon="5.87305">
        <ele>585</ele>
        <time>2021-06-01T14:58:29.871Z</time>
      </trkpt>
      <trkpt lat="44.15044" lon="5.87305">
        <ele>585</ele>
        <time>2021-06-01T14:58:30.871Z</time>
      </trkpt>
      <trkpt lat="44.15044" lon="5.87305">
        <ele>585</ele>
        <time>2021-06-01T14:58:31.871Z</time>
      </trkpt>
      <trkpt lat="44.15044" lon="5.87305">
        <ele>585</ele>
        <time>2021-06-01T14:58:32.871Z</time>
      </trkpt>
      <trkpt lat="44.15045" lon="5.87305">
        <ele>585</ele>
        <time>2021-06-01T14:58:33.871Z</time>
      </trkpt>
      <trkpt lat="44.15045" lon="5.87305">
        <ele>585</ele>
        <time>2021-06-01T14:58:34.871Z</time>
      </trkpt>
      <trkpt lat="44.15045" lon="5.87305">
        <ele>585</ele>
        <time>2021-06-01T14:58:35.871Z</time>
      </trkpt>
      <trkpt lat="44.15045" lon="5.87305">
        <ele>585</ele>
        <time>2021-06-01T14:58:36.871Z</time>
      </trkpt>
      <trkpt lat="44.15045" lon="5.87305">
        <ele>585</ele>
        <time>2021-06-01T14:58:37.871Z</time>
      </trkpt>
      <trkpt lat="44.15045" lon="5.87305">
        <ele>585</ele>
        <time>2021-06-01T14:58:38.871Z</time>
      </trkpt>
      <trkpt lat="44.15045" lon="5.87305">
        <ele>585</ele>
        <time>2021-06-01T14:58:39.871Z</time>
      </trkpt>
      <trkpt lat="44.15045" lon="5.87305">
        <ele>585</ele>
        <time>2021-06-01T14:58:40.871Z</time>
      </trkpt>
      <trkpt lat="44.15045" lon="5.87305">
        <ele>585</ele>
        <time>2021-06-01T14:58:41.871Z</time>
      </trkpt>
      <trkpt lat="44.15045" lon="5.87305">
        <ele>585</ele>
        <time>2021-06-01T14:58:42.871Z</time>
      </trkpt>
      <trkpt lat="44.15045" lon="5.87305">
        <ele>585</ele>
        <time>2021-06-01T14:58:43.871Z</time>
      </trkpt>
      <trkpt lat="44.15045" lon="5.87305">
        <ele>585</ele>
        <time>2021-06-01T14:58:44.871Z</time>
      </trkpt>
      <trkpt lat="44.15045" lon="5.87304">
        <ele>585</ele>
        <time>2021-06-01T14:58:45.871Z</time>
      </trkpt>
      <trkpt lat="44.15045" lon="5.87304">
        <ele>585</ele>
        <time>2021-06-01T14:58:46.871Z</time>
      </trkpt>
      <trkpt lat="44.15045" lon="5.87304">
        <ele>585</ele>
        <time>2021-06-01T14:58:47.871Z</time>
      </trkpt>
      <trkpt lat="44.15045" lon="5.87304">
        <ele>585</ele>
        <time>2021-06-01T14:58:48.871Z</time>
      </trkpt>
      <trkpt lat="44.15045" lon="5.87304">
        <ele>585</ele>
        <time>2021-06-01T14:58:49.871Z</time>
      </trkpt>
      <trkpt lat="44.15045" lon="5.87304">
        <ele>585</ele>
        <time>2021-06-01T14:58:50.871Z</time>
      </trkpt>
      <trkpt lat="44.15045" lon="5.87304">
        <ele>585</ele>
        <time>2021-06-01T14:58:51.871Z</time>
      </trkpt>
      <trkpt lat="44.15045" lon="5.87305">
        <ele>585</ele>
        <time>2021-06-01T14:58:52.871Z</time>
      </trkpt>
      <trkpt lat="44.15045" lon="5.87305">
        <ele>585</ele>
        <time>2021-06-01T14:58:53.871Z</time>
      </trkpt>
      <trkpt lat="44.15045" lon="5.87305">
        <ele>585</ele>
        <time>2021-06-01T14:58:54.871Z</time>
      </trkpt>
      <trkpt lat="44.15045" lon="5.87305">
        <ele>585</ele>
        <time>2021-06-01T14:58:55.871Z</time>
      </trkpt>
      <trkpt lat="44.15045" lon="5.87305">
        <ele>585</ele>
        <time>2021-06-01T14:58:56.871Z</time>
      </trkpt>
      <trkpt lat="44.15044" lon="5.87305">
        <ele>585</ele>
        <time>2021-06-01T14:58:57.871Z</time>
      </trkpt>
      <trkpt lat="44.15043" lon="5.87305">
        <ele>585</ele>
        <time>2021-06-01T14:58:58.871Z</time>
      </trkpt>
      <trkpt lat="44.15042" lon="5.87305">
        <ele>585</ele>
        <time>2021-06-01T14:58:59.871Z</time>
      </trkpt>
      <trkpt lat="44.15041" lon="5.87305">
        <ele>585</ele>
        <time>2021-06-01T14:59:00.871Z</time>
      </trkpt>
      <trkpt lat="44.1504" lon="5.87305">
        <ele>585</ele>
        <time>2021-06-01T14:59:01.871Z</time>
      </trkpt>
      <trkpt lat="44.15039" lon="5.87306">
        <ele>585</ele>
        <time>2021-06-01T14:59:02.871Z</time>
      </trkpt>
      <trkpt lat="44.15038" lon="5.87306">
        <ele>585</ele>
        <time>2021-06-01T14:59:03.871Z</time>
      </trkpt>
      <trkpt lat="44.15038" lon="5.87306">
        <ele>585</ele>
        <time>2021-06-01T14:59:04.871Z</time>
      </trkpt>
      <trkpt lat="44.15037" lon="5.87306">
        <ele>585</ele>
        <time>2021-06-01T14:59:05.871Z</time>
      </trkpt>
      <trkpt lat="44.15036" lon="5.87306">
        <ele>585</ele>
        <time>2021-06-01T14:59:06.871Z</time>
      </trkpt>
      <trkpt lat="44.15035" lon="5.87306">
        <ele>585</ele>
        <time>2021-06-01T14:59:07.871Z</time>
      </trkpt>
      <trkpt lat="44.15034" lon="5.87306">
        <ele>585</ele>
        <time>2021-06-01T14:59:08.871Z</time>
      </trkpt>
      <trkpt lat="44.15033" lon="5.87306">
        <ele>585</ele>
        <time>2021-06-01T14:59:09.871Z</time>
      </trkpt>
      <trkpt lat="44.15033" lon="5.87306">
        <ele>585</ele>
        <time>2021-06-01T14:59:10.871Z</time>
      </trkpt>
      <trkpt lat="44.15032" lon="5.87307">
        <ele>585</ele>
        <time>2021-06-01T14:59:11.871Z</time>
      </trkpt>
      <trkpt lat="44.15032" lon="5.87307">
        <ele>585</ele>
        <time>2021-06-01T14:59:12.871Z</time>
      </trkpt>
      <trkpt lat="44.15031" lon="5.87307">
        <ele>585</ele>
        <time>2021-06-01T14:59:13.871Z</time>
      </trkpt>
      <trkpt lat="44.1503" lon="5.87308">
        <ele>585</ele>
        <time>2021-06-01T14:59:14.871Z</time>
      </trkpt>
      <trkpt lat="44.1503" lon="5.87308">
        <ele>585</ele>
        <time>2021-06-01T14:59:15.871Z</time>
      </trkpt>
      <trkpt lat="44.15029" lon="5.87309">
        <ele>585</ele>
        <time>2021-06-01T14:59:16.871Z</time>
      </trkpt>
      <trkpt lat="44.15028" lon="5.8731">
        <ele>585</ele>
        <time>2021-06-01T14:59:17.871Z</time>
      </trkpt>
      <trkpt lat="44.15028" lon="5.87312">
        <ele>584</ele>
        <time>2021-06-01T14:59:18.871Z</time>
      </trkpt>
      <trkpt lat="44.15027" lon="5.87313">
        <ele>584</ele>
        <time>2021-06-01T14:59:19.871Z</time>
      </trkpt>
      <trkpt lat="44.15026" lon="5.87315">
        <ele>584</ele>
        <time>2021-06-01T14:59:20.871Z</time>
      </trkpt>
      <trkpt lat="44.15025" lon="5.87316">
        <ele>584</ele>
        <time>2021-06-01T14:59:21.871Z</time>
      </trkpt>
      <trkpt lat="44.15025" lon="5.87317">
        <ele>584</ele>
        <time>2021-06-01T14:59:22.871Z</time>
      </trkpt>
      <trkpt lat="44.15024" lon="5.87319">
        <ele>584</ele>
        <time>2021-06-01T14:59:23.871Z</time>
      </trkpt>
      <trkpt lat="44.15023" lon="5.8732">
        <ele>584</ele>
        <time>2021-06-01T14:59:24.871Z</time>
      </trkpt>
      <trkpt lat="44.15022" lon="5.87321">
        <ele>584</ele>
        <time>2021-06-01T14:59:25.871Z</time>
      </trkpt>
      <trkpt lat="44.15022" lon="5.87323">
        <ele>583</ele>
        <time>2021-06-01T14:59:26.871Z</time>
      </trkpt>
      <trkpt lat="44.15021" lon="5.87324">
        <ele>583</ele>
        <time>2021-06-01T14:59:27.871Z</time>
      </trkpt>
      <trkpt lat="44.15021" lon="5.87326">
        <ele>583</ele>
        <time>2021-06-01T14:59:28.871Z</time>
      </trkpt>
      <trkpt lat="44.1502" lon="5.87327">
        <ele>583</ele>
        <time>2021-06-01T14:59:29.871Z</time>
      </trkpt>
      <trkpt lat="44.1502" lon="5.87329">
        <ele>583</ele>
        <time>2021-06-01T14:59:30.871Z</time>
      </trkpt>
      <trkpt lat="44.15019" lon="5.8733">
        <ele>583</ele>
        <time>2021-06-01T14:59:31.871Z</time>
      </trkpt>
      <trkpt lat="44.15018" lon="5.87331">
        <ele>583</ele>
        <time>2021-06-01T14:59:32.871Z</time>
      </trkpt>
      <trkpt lat="44.15017" lon="5.87332">
        <ele>583</ele>
        <time>2021-06-01T14:59:33.871Z</time>
      </trkpt>
      <trkpt lat="44.15017" lon="5.87333">
        <ele>583</ele>
        <time>2021-06-01T14:59:34.871Z</time>
      </trkpt>
      <trkpt lat="44.15016" lon="5.87334">
        <ele>582</ele>
        <time>2021-06-01T14:59:35.871Z</time>
      </trkpt>
      <trkpt lat="44.15015" lon="5.87335">
        <ele>582</ele>
        <time>2021-06-01T14:59:36.871Z</time>
      </trkpt>
      <trkpt lat="44.15014" lon="5.87336">
        <ele>582</ele>
        <time>2021-06-01T14:59:37.871Z</time>
      </trkpt>
      <trkpt lat="44.15014" lon="5.87337">
        <ele>582</ele>
        <time>2021-06-01T14:59:38.871Z</time>
      </trkpt>
      <trkpt lat="44.15013" lon="5.87338">
        <ele>582</ele>
        <time>2021-06-01T14:59:39.871Z</time>
      </trkpt>
      <trkpt lat="44.15013" lon="5.8734">
        <ele>582</ele>
        <time>2021-06-01T14:59:40.871Z</time>
      </trkpt>
      <trkpt lat="44.15012" lon="5.87341">
        <ele>582</ele>
        <time>2021-06-01T14:59:41.871Z</time>
      </trkpt>
      <trkpt lat="44.15011" lon="5.87342">
        <ele>582</ele>
        <time>2021-06-01T14:59:42.871Z</time>
      </trkpt>
      <trkpt lat="44.1501" lon="5.87343">
        <ele>582</ele>
        <time>2021-06-01T14:59:43.871Z</time>
      </trkpt>
      <trkpt lat="44.1501" lon="5.87344">
        <ele>582</ele>
        <time>2021-06-01T14:59:44.871Z</time>
      </trkpt>
      <trkpt lat="44.15009" lon="5.87346">
        <ele>582</ele>
        <time>2021-06-01T14:59:45.871Z</time>
      </trkpt>
      <trkpt lat="44.15008" lon="5.87347">
        <ele>582</ele>
        <time>2021-06-01T14:59:46.871Z</time>
      </trkpt>
      <trkpt lat="44.15007" lon="5.87348">
        <ele>582</ele>
        <time>2021-06-01T14:59:47.871Z</time>
      </trkpt>
      <trkpt lat="44.15007" lon="5.87349">
        <ele>582</ele>
        <time>2021-06-01T14:59:48.871Z</time>
      </trkpt>
      <trkpt lat="44.15006" lon="5.8735">
        <ele>581</ele>
        <time>2021-06-01T14:59:49.871Z</time>
      </trkpt>
      <trkpt lat="44.15005" lon="5.87352">
        <ele>581</ele>
        <time>2021-06-01T14:59:50.871Z</time>
      </trkpt>
      <trkpt lat="44.15004" lon="5.87353">
        <ele>581</ele>
        <time>2021-06-01T14:59:51.871Z</time>
      </trkpt>
      <trkpt lat="44.15004" lon="5.87354">
        <ele>581</ele>
        <time>2021-06-01T14:59:52.871Z</time>
      </trkpt>
      <trkpt lat="44.15003" lon="5.87355">
        <ele>581</ele>
        <time>2021-06-01T14:59:53.871Z</time>
      </trkpt>
      <trkpt lat="44.15003" lon="5.87356">
        <ele>581</ele>
        <time>2021-06-01T14:59:54.871Z</time>
      </trkpt>
      <trkpt lat="44.15002" lon="5.87358">
        <ele>581</ele>
        <time>2021-06-01T14:59:55.871Z</time>
      </trkpt>
      <trkpt lat="44.15002" lon="5.87359">
        <ele>581</ele>
        <time>2021-06-01T14:59:56.871Z</time>
      </trkpt>
      <trkpt lat="44.15001" lon="5.87361">
        <ele>581</ele>
        <time>2021-06-01T14:59:57.871Z</time>
      </trkpt>
      <trkpt lat="44.15001" lon="5.87362">
        <ele>581</ele>
        <time>2021-06-01T14:59:58.871Z</time>
      </trkpt>
      <trkpt lat="44.15" lon="5.87363">
        <ele>581</ele>
        <time>2021-06-01T14:59:59.871Z</time>
      </trkpt>
      <trkpt lat="44.14999" lon="5.87364">
        <ele>581</ele>
        <time>2021-06-01T15:00:00.871Z</time>
      </trkpt>
      <trkpt lat="44.14999" lon="5.87365">
        <ele>581</ele>
        <time>2021-06-01T15:00:01.871Z</time>
      </trkpt>
      <trkpt lat="44.14998" lon="5.87367">
        <ele>580</ele>
        <time>2021-06-01T15:00:02.871Z</time>
      </trkpt>
      <trkpt lat="44.14998" lon="5.87368">
        <ele>580</ele>
        <time>2021-06-01T15:00:03.871Z</time>
      </trkpt>
      <trkpt lat="44.14997" lon="5.8737">
        <ele>580</ele>
        <time>2021-06-01T15:00:04.871Z</time>
      </trkpt>
      <trkpt lat="44.14997" lon="5.87371">
        <ele>580</ele>
        <time>2021-06-01T15:00:05.871Z</time>
      </trkpt>
      <trkpt lat="44.14996" lon="5.87372">
        <ele>580</ele>
        <time>2021-06-01T15:00:06.871Z</time>
      </trkpt>
      <trkpt lat="44.14996" lon="5.87374">
        <ele>580</ele>
        <time>2021-06-01T15:00:07.871Z</time>
      </trkpt>
      <trkpt lat="44.14995" lon="5.87375">
        <ele>580</ele>
        <time>2021-06-01T15:00:08.871Z</time>
      </trkpt>
      <trkpt lat="44.14995" lon="5.87377">
        <ele>580</ele>
        <time>2021-06-01T15:00:09.871Z</time>
      </trkpt>
      <trkpt lat="44.14994" lon="5.87378">
        <ele>581</ele>
        <time>2021-06-01T15:00:10.871Z</time>
      </trkpt>
      <trkpt lat="44.14994" lon="5.8738">
        <ele>581</ele>
        <time>2021-06-01T15:00:11.871Z</time>
      </trkpt>
      <trkpt lat="44.14994" lon="5.87381">
        <ele>581</ele>
        <time>2021-06-01T15:00:12.871Z</time>
      </trkpt>
      <trkpt lat="44.14993" lon="5.87383">
        <ele>581</ele>
        <time>2021-06-01T15:00:13.871Z</time>
      </trkpt>
      <trkpt lat="44.14993" lon="5.87385">
        <ele>581</ele>
        <time>2021-06-01T15:00:14.871Z</time>
      </trkpt>
      <trkpt lat="44.14992" lon="5.87386">
        <ele>581</ele>
        <time>2021-06-01T15:00:15.871Z</time>
      </trkpt>
      <trkpt lat="44.14992" lon="5.87388">
        <ele>581</ele>
        <time>2021-06-01T15:00:16.871Z</time>
      </trkpt>
      <trkpt lat="44.14991" lon="5.8739">
        <ele>581</ele>
        <time>2021-06-01T15:00:17.871Z</time>
      </trkpt>
      <trkpt lat="44.14991" lon="5.87391">
        <ele>581</ele>
        <time>2021-06-01T15:00:18.871Z</time>
      </trkpt>
      <trkpt lat="44.1499" lon="5.87392">
        <ele>581</ele>
        <time>2021-06-01T15:00:19.871Z</time>
      </trkpt>
      <trkpt lat="44.1499" lon="5.87394">
        <ele>581</ele>
        <time>2021-06-01T15:00:20.871Z</time>
      </trkpt>
      <trkpt lat="44.1499" lon="5.87395">
        <ele>581</ele>
        <time>2021-06-01T15:00:21.871Z</time>
      </trkpt>
      <trkpt lat="44.14989" lon="5.87397">
        <ele>581</ele>
        <time>2021-06-01T15:00:22.871Z</time>
      </trkpt>
      <trkpt lat="44.14989" lon="5.87399">
        <ele>581</ele>
        <time>2021-06-01T15:00:23.871Z</time>
      </trkpt>
      <trkpt lat="44.14988" lon="5.874">
        <ele>581</ele>
        <time>2021-06-01T15:00:24.871Z</time>
      </trkpt>
      <trkpt lat="44.14988" lon="5.87402">
        <ele>581</ele>
        <time>2021-06-01T15:00:25.871Z</time>
      </trkpt>
      <trkpt lat="44.14987" lon="5.87403">
        <ele>581</ele>
        <time>2021-06-01T15:00:26.871Z</time>
      </trkpt>
      <trkpt lat="44.14987" lon="5.87404">
        <ele>581</ele>
        <time>2021-06-01T15:00:27.871Z</time>
      </trkpt>
      <trkpt lat="44.14986" lon="5.87406">
        <ele>581</ele>
        <time>2021-06-01T15:00:28.871Z</time>
      </trkpt>
      <trkpt lat="44.14986" lon="5.87408">
        <ele>581</ele>
        <time>2021-06-01T15:00:29.871Z</time>
      </trkpt>
      <trkpt lat="44.14985" lon="5.87409">
        <ele>581</ele>
        <time>2021-06-01T15:00:30.871Z</time>
      </trkpt>
      <trkpt lat="44.14984" lon="5.87411">
        <ele>580</ele>
        <time>2021-06-01T15:00:31.871Z</time>
      </trkpt>
      <trkpt lat="44.14984" lon="5.87412">
        <ele>580</ele>
        <time>2021-06-01T15:00:32.871Z</time>
      </trkpt>
      <trkpt lat="44.14984" lon="5.87413">
        <ele>580</ele>
        <time>2021-06-01T15:00:33.871Z</time>
      </trkpt>
      <trkpt lat="44.14984" lon="5.87415">
        <ele>580</ele>
        <time>2021-06-01T15:00:34.871Z</time>
      </trkpt>
      <trkpt lat="44.14983" lon="5.87417">
        <ele>580</ele>
        <time>2021-06-01T15:00:35.871Z</time>
      </trkpt>
      <trkpt lat="44.14983" lon="5.87418">
        <ele>580</ele>
        <time>2021-06-01T15:00:36.871Z</time>
      </trkpt>
      <trkpt lat="44.14982" lon="5.87419">
        <ele>580</ele>
        <time>2021-06-01T15:00:37.871Z</time>
      </trkpt>
      <trkpt lat="44.14982" lon="5.87421">
        <ele>580</ele>
        <time>2021-06-01T15:00:38.871Z</time>
      </trkpt>
      <trkpt lat="44.14981" lon="5.87422">
        <ele>580</ele>
        <time>2021-06-01T15:00:39.871Z</time>
      </trkpt>
      <trkpt lat="44.1498" lon="5.87423">
        <ele>580</ele>
        <time>2021-06-01T15:00:40.871Z</time>
      </trkpt>
      <trkpt lat="44.1498" lon="5.87425">
        <ele>579</ele>
        <time>2021-06-01T15:00:41.871Z</time>
      </trkpt>
      <trkpt lat="44.14979" lon="5.87426">
        <ele>579</ele>
        <time>2021-06-01T15:00:42.871Z</time>
      </trkpt>
      <trkpt lat="44.14979" lon="5.87428">
        <ele>579</ele>
        <time>2021-06-01T15:00:43.871Z</time>
      </trkpt>
      <trkpt lat="44.14978" lon="5.87429">
        <ele>579</ele>
        <time>2021-06-01T15:00:44.871Z</time>
      </trkpt>
      <trkpt lat="44.14978" lon="5.8743">
        <ele>579</ele>
        <time>2021-06-01T15:00:45.871Z</time>
      </trkpt>
      <trkpt lat="44.14977" lon="5.87431">
        <ele>579</ele>
        <time>2021-06-01T15:00:46.871Z</time>
      </trkpt>
      <trkpt lat="44.14976" lon="5.87432">
        <ele>579</ele>
        <time>2021-06-01T15:00:47.871Z</time>
      </trkpt>
      <trkpt lat="44.14975" lon="5.87433">
        <ele>578</ele>
        <time>2021-06-01T15:00:48.871Z</time>
      </trkpt>
      <trkpt lat="44.14975" lon="5.87434">
        <ele>578</ele>
        <time>2021-06-01T15:00:49.871Z</time>
      </trkpt>
      <trkpt lat="44.14974" lon="5.87435">
        <ele>578</ele>
        <time>2021-06-01T15:00:50.871Z</time>
      </trkpt>
      <trkpt lat="44.14974" lon="5.87436">
        <ele>578</ele>
        <time>2021-06-01T15:00:51.871Z</time>
      </trkpt>
      <trkpt lat="44.14973" lon="5.87437">
        <ele>578</ele>
        <time>2021-06-01T15:00:52.871Z</time>
      </trkpt>
      <trkpt lat="44.14972" lon="5.87438">
        <ele>578</ele>
        <time>2021-06-01T15:00:53.871Z</time>
      </trkpt>
      <trkpt lat="44.14972" lon="5.87439">
        <ele>578</ele>
        <time>2021-06-01T15:00:54.871Z</time>
      </trkpt>
      <trkpt lat="44.14971" lon="5.8744">
        <ele>578</ele>
        <time>2021-06-01T15:00:55.871Z</time>
      </trkpt>
      <trkpt lat="44.1497" lon="5.87441">
        <ele>578</ele>
        <time>2021-06-01T15:00:56.871Z</time>
      </trkpt>
      <trkpt lat="44.14969" lon="5.87442">
        <ele>578</ele>
        <time>2021-06-01T15:00:57.871Z</time>
      </trkpt>
      <trkpt lat="44.14968" lon="5.87443">
        <ele>578</ele>
        <time>2021-06-01T15:00:58.871Z</time>
      </trkpt>
      <trkpt lat="44.14967" lon="5.87444">
        <ele>577</ele>
        <time>2021-06-01T15:00:59.871Z</time>
      </trkpt>
      <trkpt lat="44.14966" lon="5.87445">
        <ele>577</ele>
        <time>2021-06-01T15:01:00.871Z</time>
      </trkpt>
      <trkpt lat="44.14965" lon="5.87447">
        <ele>577</ele>
        <time>2021-06-01T15:01:01.871Z</time>
      </trkpt>
      <trkpt lat="44.14964" lon="5.87448">
        <ele>577</ele>
        <time>2021-06-01T15:01:02.871Z</time>
      </trkpt>
      <trkpt lat="44.14964" lon="5.87448">
        <ele>577</ele>
        <time>2021-06-01T15:01:03.871Z</time>
      </trkpt>
      <trkpt lat="44.14963" lon="5.87449">
        <ele>577</ele>
        <time>2021-06-01T15:01:04.871Z</time>
      </trkpt>
      <trkpt lat="44.14962" lon="5.8745">
        <ele>577</ele>
        <time>2021-06-01T15:01:05.871Z</time>
      </trkpt>
      <trkpt lat="44.14961" lon="5.87451">
        <ele>577</ele>
        <time>2021-06-01T15:01:06.871Z</time>
      </trkpt>
      <trkpt lat="44.1496" lon="5.87452">
        <ele>577</ele>
        <time>2021-06-01T15:01:07.871Z</time>
      </trkpt>
      <trkpt lat="44.14959" lon="5.87453">
        <ele>577</ele>
        <time>2021-06-01T15:01:08.871Z</time>
      </trkpt>
      <trkpt lat="44.14957" lon="5.87454">
        <ele>576</ele>
        <time>2021-06-01T15:01:09.871Z</time>
      </trkpt>
      <trkpt lat="44.14956" lon="5.87455">
        <ele>576</ele>
        <time>2021-06-01T15:01:10.871Z</time>
      </trkpt>
      <trkpt lat="44.14955" lon="5.87455">
        <ele>576</ele>
        <time>2021-06-01T15:01:11.871Z</time>
      </trkpt>
      <trkpt lat="44.14954" lon="5.87456">
        <ele>576</ele>
        <time>2021-06-01T15:01:12.871Z</time>
      </trkpt>
      <trkpt lat="44.14953" lon="5.87457">
        <ele>576</ele>
        <time>2021-06-01T15:01:13.871Z</time>
      </trkpt>
      <trkpt lat="44.14953" lon="5.87458">
        <ele>576</ele>
        <time>2021-06-01T15:01:14.871Z</time>
      </trkpt>
      <trkpt lat="44.14952" lon="5.87459">
        <ele>576</ele>
        <time>2021-06-01T15:01:15.871Z</time>
      </trkpt>
      <trkpt lat="44.14951" lon="5.8746">
        <ele>576</ele>
        <time>2021-06-01T15:01:16.871Z</time>
      </trkpt>
      <trkpt lat="44.1495" lon="5.87461">
        <ele>576</ele>
        <time>2021-06-01T15:01:17.871Z</time>
      </trkpt>
      <trkpt lat="44.14949" lon="5.87461">
        <ele>576</ele>
        <time>2021-06-01T15:01:18.871Z</time>
      </trkpt>
      <trkpt lat="44.14948" lon="5.87462">
        <ele>576</ele>
        <time>2021-06-01T15:01:19.871Z</time>
      </trkpt>
      <trkpt lat="44.14947" lon="5.87463">
        <ele>576</ele>
        <time>2021-06-01T15:01:20.871Z</time>
      </trkpt>
      <trkpt lat="44.14946" lon="5.87464">
        <ele>576</ele>
        <time>2021-06-01T15:01:21.871Z</time>
      </trkpt>
      <trkpt lat="44.14945" lon="5.87465">
        <ele>576</ele>
        <time>2021-06-01T15:01:22.871Z</time>
      </trkpt>
      <trkpt lat="44.14944" lon="5.87467">
        <ele>575</ele>
        <time>2021-06-01T15:01:23.871Z</time>
      </trkpt>
      <trkpt lat="44.14943" lon="5.87468">
        <ele>575</ele>
        <time>2021-06-01T15:01:24.871Z</time>
      </trkpt>
      <trkpt lat="44.14942" lon="5.87469">
        <ele>575</ele>
        <time>2021-06-01T15:01:25.871Z</time>
      </trkpt>
      <trkpt lat="44.14941" lon="5.8747">
        <ele>575</ele>
        <time>2021-06-01T15:01:26.871Z</time>
      </trkpt>
      <trkpt lat="44.1494" lon="5.87471">
        <ele>575</ele>
        <time>2021-06-01T15:01:27.871Z</time>
      </trkpt>
      <trkpt lat="44.14939" lon="5.87472">
        <ele>575</ele>
        <time>2021-06-01T15:01:28.871Z</time>
      </trkpt>
      <trkpt lat="44.14939" lon="5.87473">
        <ele>575</ele>
        <time>2021-06-01T15:01:29.871Z</time>
      </trkpt>
      <trkpt lat="44.14938" lon="5.87474">
        <ele>575</ele>
        <time>2021-06-01T15:01:30.871Z</time>
      </trkpt>
      <trkpt lat="44.14937" lon="5.87476">
        <ele>575</ele>
        <time>2021-06-01T15:01:31.871Z</time>
      </trkpt>
      <trkpt lat="44.14936" lon="5.87477">
        <ele>575</ele>
        <time>2021-06-01T15:01:32.871Z</time>
      </trkpt>
      <trkpt lat="44.14935" lon="5.87479">
        <ele>575</ele>
        <time>2021-06-01T15:01:33.871Z</time>
      </trkpt>
      <trkpt lat="44.14934" lon="5.8748">
        <ele>575</ele>
        <time>2021-06-01T15:01:34.871Z</time>
      </trkpt>
      <trkpt lat="44.14934" lon="5.87481">
        <ele>575</ele>
        <time>2021-06-01T15:01:35.871Z</time>
      </trkpt>
      <trkpt lat="44.14933" lon="5.87482">
        <ele>575</ele>
        <time>2021-06-01T15:01:36.871Z</time>
      </trkpt>
      <trkpt lat="44.14933" lon="5.87483">
        <ele>575</ele>
        <time>2021-06-01T15:01:37.871Z</time>
      </trkpt>
      <trkpt lat="44.14932" lon="5.87485">
        <ele>574</ele>
        <time>2021-06-01T15:01:38.871Z</time>
      </trkpt>
      <trkpt lat="44.14931" lon="5.87486">
        <ele>574</ele>
        <time>2021-06-01T15:01:39.871Z</time>
      </trkpt>
      <trkpt lat="44.1493" lon="5.87488">
        <ele>574</ele>
        <time>2021-06-01T15:01:40.871Z</time>
      </trkpt>
      <trkpt lat="44.1493" lon="5.87489">
        <ele>574</ele>
        <time>2021-06-01T15:01:41.871Z</time>
      </trkpt>
      <trkpt lat="44.1493" lon="5.8749">
        <ele>574</ele>
        <time>2021-06-01T15:01:42.871Z</time>
      </trkpt>
      <trkpt lat="44.14929" lon="5.87492">
        <ele>574</ele>
        <time>2021-06-01T15:01:43.871Z</time>
      </trkpt>
      <trkpt lat="44.14928" lon="5.87493">
        <ele>574</ele>
        <time>2021-06-01T15:01:44.871Z</time>
      </trkpt>
      <trkpt lat="44.14928" lon="5.87495">
        <ele>574</ele>
        <time>2021-06-01T15:01:45.871Z</time>
      </trkpt>
      <trkpt lat="44.14927" lon="5.87496">
        <ele>574</ele>
        <time>2021-06-01T15:01:46.871Z</time>
      </trkpt>
      <trkpt lat="44.14926" lon="5.87498">
        <ele>574</ele>
        <time>2021-06-01T15:01:47.871Z</time>
      </trkpt>
      <trkpt lat="44.14925" lon="5.87499">
        <ele>574</ele>
        <time>2021-06-01T15:01:48.871Z</time>
      </trkpt>
      <trkpt lat="44.14925" lon="5.875">
        <ele>573</ele>
        <time>2021-06-01T15:01:49.871Z</time>
      </trkpt>
      <trkpt lat="44.14924" lon="5.87501">
        <ele>573</ele>
        <time>2021-06-01T15:01:50.871Z</time>
      </trkpt>
      <trkpt lat="44.14923" lon="5.87502">
        <ele>573</ele>
        <time>2021-06-01T15:01:51.871Z</time>
      </trkpt>
      <trkpt lat="44.14923" lon="5.87504">
        <ele>573</ele>
        <time>2021-06-01T15:01:52.871Z</time>
      </trkpt>
      <trkpt lat="44.14923" lon="5.87506">
        <ele>573</ele>
        <time>2021-06-01T15:01:53.871Z</time>
      </trkpt>
      <trkpt lat="44.14922" lon="5.87508">
        <ele>573</ele>
        <time>2021-06-01T15:01:54.871Z</time>
      </trkpt>
      <trkpt lat="44.14922" lon="5.87509">
        <ele>573</ele>
        <time>2021-06-01T15:01:55.871Z</time>
      </trkpt>
      <trkpt lat="44.14921" lon="5.87511">
        <ele>573</ele>
        <time>2021-06-01T15:01:56.871Z</time>
      </trkpt>
      <trkpt lat="44.14921" lon="5.87512">
        <ele>574</ele>
        <time>2021-06-01T15:01:57.871Z</time>
      </trkpt>
      <trkpt lat="44.14921" lon="5.87514">
        <ele>574</ele>
        <time>2021-06-01T15:01:58.871Z</time>
      </trkpt>
      <trkpt lat="44.14921" lon="5.87515">
        <ele>574</ele>
        <time>2021-06-01T15:01:59.871Z</time>
      </trkpt>
      <trkpt lat="44.1492" lon="5.87517">
        <ele>574</ele>
        <time>2021-06-01T15:02:00.871Z</time>
      </trkpt>
      <trkpt lat="44.1492" lon="5.87519">
        <ele>574</ele>
        <time>2021-06-01T15:02:01.871Z</time>
      </trkpt>
      <trkpt lat="44.1492" lon="5.87521">
        <ele>574</ele>
        <time>2021-06-01T15:02:02.871Z</time>
      </trkpt>
      <trkpt lat="44.14919" lon="5.87522">
        <ele>574</ele>
        <time>2021-06-01T15:02:03.871Z</time>
      </trkpt>
      <trkpt lat="44.14919" lon="5.87524">
        <ele>573</ele>
        <time>2021-06-01T15:02:04.871Z</time>
      </trkpt>
      <trkpt lat="44.14918" lon="5.87525">
        <ele>573</ele>
        <time>2021-06-01T15:02:05.871Z</time>
      </trkpt>
      <trkpt lat="44.14918" lon="5.87527">
        <ele>573</ele>
        <time>2021-06-01T15:02:06.871Z</time>
      </trkpt>
      <trkpt lat="44.14917" lon="5.87528">
        <ele>573</ele>
        <time>2021-06-01T15:02:07.871Z</time>
      </trkpt>
      <trkpt lat="44.14916" lon="5.8753">
        <ele>573</ele>
        <time>2021-06-01T15:02:08.871Z</time>
      </trkpt>
      <trkpt lat="44.14916" lon="5.87531">
        <ele>573</ele>
        <time>2021-06-01T15:02:09.871Z</time>
      </trkpt>
      <trkpt lat="44.14915" lon="5.87533">
        <ele>573</ele>
        <time>2021-06-01T15:02:10.871Z</time>
      </trkpt>
      <trkpt lat="44.14914" lon="5.87534">
        <ele>573</ele>
        <time>2021-06-01T15:02:11.871Z</time>
      </trkpt>
      <trkpt lat="44.14914" lon="5.87535">
        <ele>573</ele>
        <time>2021-06-01T15:02:12.871Z</time>
      </trkpt>
      <trkpt lat="44.14913" lon="5.87537">
        <ele>573</ele>
        <time>2021-06-01T15:02:13.871Z</time>
      </trkpt>
      <trkpt lat="44.14913" lon="5.87538">
        <ele>573</ele>
        <time>2021-06-01T15:02:14.871Z</time>
      </trkpt>
      <trkpt lat="44.14912" lon="5.8754">
        <ele>572</ele>
        <time>2021-06-01T15:02:15.871Z</time>
      </trkpt>
      <trkpt lat="44.14911" lon="5.87541">
        <ele>572</ele>
        <time>2021-06-01T15:02:16.871Z</time>
      </trkpt>
      <trkpt lat="44.14911" lon="5.87543">
        <ele>572</ele>
        <time>2021-06-01T15:02:17.871Z</time>
      </trkpt>
      <trkpt lat="44.1491" lon="5.87544">
        <ele>572</ele>
        <time>2021-06-01T15:02:18.871Z</time>
      </trkpt>
      <trkpt lat="44.14909" lon="5.87545">
        <ele>572</ele>
        <time>2021-06-01T15:02:19.871Z</time>
      </trkpt>
      <trkpt lat="44.14909" lon="5.87547">
        <ele>572</ele>
        <time>2021-06-01T15:02:20.871Z</time>
      </trkpt>
      <trkpt lat="44.14908" lon="5.87548">
        <ele>572</ele>
        <time>2021-06-01T15:02:21.871Z</time>
      </trkpt>
      <trkpt lat="44.14907" lon="5.87549">
        <ele>572</ele>
        <time>2021-06-01T15:02:22.871Z</time>
      </trkpt>
      <trkpt lat="44.14907" lon="5.87551">
        <ele>572</ele>
        <time>2021-06-01T15:02:23.871Z</time>
      </trkpt>
      <trkpt lat="44.14906" lon="5.87552">
        <ele>572</ele>
        <time>2021-06-01T15:02:24.871Z</time>
      </trkpt>
      <trkpt lat="44.14905" lon="5.87553">
        <ele>572</ele>
        <time>2021-06-01T15:02:25.871Z</time>
      </trkpt>
      <trkpt lat="44.14905" lon="5.87554">
        <ele>572</ele>
        <time>2021-06-01T15:02:26.871Z</time>
      </trkpt>
      <trkpt lat="44.14904" lon="5.87555">
        <ele>572</ele>
        <time>2021-06-01T15:02:27.871Z</time>
      </trkpt>
      <trkpt lat="44.14903" lon="5.87556">
        <ele>572</ele>
        <time>2021-06-01T15:02:28.871Z</time>
      </trkpt>
      <trkpt lat="44.14902" lon="5.87558">
        <ele>572</ele>
        <time>2021-06-01T15:02:29.871Z</time>
      </trkpt>
      <trkpt lat="44.14901" lon="5.87559">
        <ele>572</ele>
        <time>2021-06-01T15:02:30.871Z</time>
      </trkpt>
      <trkpt lat="44.14901" lon="5.8756">
        <ele>572</ele>
        <time>2021-06-01T15:02:31.871Z</time>
      </trkpt>
      <trkpt lat="44.149" lon="5.87561">
        <ele>572</ele>
        <time>2021-06-01T15:02:32.871Z</time>
      </trkpt>
      <trkpt lat="44.14899" lon="5.87562">
        <ele>572</ele>
        <time>2021-06-01T15:02:33.871Z</time>
      </trkpt>
      <trkpt lat="44.14898" lon="5.87564">
        <ele>572</ele>
        <time>2021-06-01T15:02:34.871Z</time>
      </trkpt>
      <trkpt lat="44.14897" lon="5.87565">
        <ele>572</ele>
        <time>2021-06-01T15:02:35.871Z</time>
      </trkpt>
      <trkpt lat="44.14896" lon="5.87566">
        <ele>572</ele>
        <time>2021-06-01T15:02:36.871Z</time>
      </trkpt>
      <trkpt lat="44.14896" lon="5.87568">
        <ele>572</ele>
        <time>2021-06-01T15:02:37.871Z</time>
      </trkpt>
      <trkpt lat="44.14895" lon="5.87569">
        <ele>572</ele>
        <time>2021-06-01T15:02:38.871Z</time>
      </trkpt>
      <trkpt lat="44.14894" lon="5.8757">
        <ele>572</ele>
        <time>2021-06-01T15:02:39.871Z</time>
      </trkpt>
      <trkpt lat="44.14893" lon="5.87571">
        <ele>572</ele>
        <time>2021-06-01T15:02:40.871Z</time>
      </trkpt>
      <trkpt lat="44.14892" lon="5.87572">
        <ele>572</ele>
        <time>2021-06-01T15:02:41.871Z</time>
      </trkpt>
      <trkpt lat="44.14891" lon="5.87573">
        <ele>572</ele>
        <time>2021-06-01T15:02:42.871Z</time>
      </trkpt>
      <trkpt lat="44.1489" lon="5.87574">
        <ele>572</ele>
        <time>2021-06-01T15:02:43.871Z</time>
      </trkpt>
      <trkpt lat="44.1489" lon="5.87575">
        <ele>572</ele>
        <time>2021-06-01T15:02:44.871Z</time>
      </trkpt>
      <trkpt lat="44.14889" lon="5.87576">
        <ele>571</ele>
        <time>2021-06-01T15:02:45.871Z</time>
      </trkpt>
      <trkpt lat="44.14888" lon="5.87577">
        <ele>571</ele>
        <time>2021-06-01T15:02:46.871Z</time>
      </trkpt>
      <trkpt lat="44.14887" lon="5.87578">
        <ele>571</ele>
        <time>2021-06-01T15:02:47.871Z</time>
      </trkpt>
      <trkpt lat="44.14886" lon="5.87579">
        <ele>571</ele>
        <time>2021-06-01T15:02:48.871Z</time>
      </trkpt>
      <trkpt lat="44.14885" lon="5.8758">
        <ele>571</ele>
        <time>2021-06-01T15:02:49.871Z</time>
      </trkpt>
      <trkpt lat="44.14885" lon="5.8758">
        <ele>571</ele>
        <time>2021-06-01T15:02:50.871Z</time>
      </trkpt>
      <trkpt lat="44.14884" lon="5.87581">
        <ele>571</ele>
        <time>2021-06-01T15:02:51.871Z</time>
      </trkpt>
      <trkpt lat="44.14883" lon="5.87582">
        <ele>571</ele>
        <time>2021-06-01T15:02:52.871Z</time>
      </trkpt>
      <trkpt lat="44.14882" lon="5.87583">
        <ele>571</ele>
        <time>2021-06-01T15:02:53.871Z</time>
      </trkpt>
      <trkpt lat="44.14881" lon="5.87584">
        <ele>570</ele>
        <time>2021-06-01T15:02:54.871Z</time>
      </trkpt>
      <trkpt lat="44.14879" lon="5.87585">
        <ele>570</ele>
        <time>2021-06-01T15:02:55.871Z</time>
      </trkpt>
      <trkpt lat="44.14878" lon="5.87586">
        <ele>570</ele>
        <time>2021-06-01T15:02:56.871Z</time>
      </trkpt>
      <trkpt lat="44.14878" lon="5.87586">
        <ele>570</ele>
        <time>2021-06-01T15:02:57.871Z</time>
      </trkpt>
      <trkpt lat="44.14877" lon="5.87587">
        <ele>570</ele>
        <time>2021-06-01T15:02:58.871Z</time>
      </trkpt>
      <trkpt lat="44.14876" lon="5.87588">
        <ele>570</ele>
        <time>2021-06-01T15:02:59.871Z</time>
      </trkpt>
      <trkpt lat="44.14875" lon="5.87588">
        <ele>570</ele>
        <time>2021-06-01T15:03:00.871Z</time>
      </trkpt>
      <trkpt lat="44.14874" lon="5.87589">
        <ele>570</ele>
        <time>2021-06-01T15:03:01.871Z</time>
      </trkpt>
      <trkpt lat="44.14872" lon="5.8759">
        <ele>570</ele>
        <time>2021-06-01T15:03:02.871Z</time>
      </trkpt>
      <trkpt lat="44.14871" lon="5.8759">
        <ele>569</ele>
        <time>2021-06-01T15:03:03.871Z</time>
      </trkpt>
      <trkpt lat="44.1487" lon="5.87591">
        <ele>569</ele>
        <time>2021-06-01T15:03:04.871Z</time>
      </trkpt>
      <trkpt lat="44.14869" lon="5.87592">
        <ele>569</ele>
        <time>2021-06-01T15:03:05.871Z</time>
      </trkpt>
      <trkpt lat="44.14868" lon="5.87592">
        <ele>569</ele>
        <time>2021-06-01T15:03:06.871Z</time>
      </trkpt>
      <trkpt lat="44.14867" lon="5.87593">
        <ele>569</ele>
        <time>2021-06-01T15:03:07.871Z</time>
      </trkpt>
      <trkpt lat="44.14866" lon="5.87594">
        <ele>569</ele>
        <time>2021-06-01T15:03:08.871Z</time>
      </trkpt>
      <trkpt lat="44.14865" lon="5.87594">
        <ele>569</ele>
        <time>2021-06-01T15:03:09.871Z</time>
      </trkpt>
      <trkpt lat="44.14864" lon="5.87595">
        <ele>569</ele>
        <time>2021-06-01T15:03:10.871Z</time>
      </trkpt>
      <trkpt lat="44.14863" lon="5.87595">
        <ele>568</ele>
        <time>2021-06-01T15:03:11.871Z</time>
      </trkpt>
      <trkpt lat="44.14862" lon="5.87596">
        <ele>568</ele>
        <time>2021-06-01T15:03:12.871Z</time>
      </trkpt>
      <trkpt lat="44.14861" lon="5.87596">
        <ele>568</ele>
        <time>2021-06-01T15:03:13.871Z</time>
      </trkpt>
      <trkpt lat="44.1486" lon="5.87597">
        <ele>568</ele>
        <time>2021-06-01T15:03:14.871Z</time>
      </trkpt>
      <trkpt lat="44.14858" lon="5.87597">
        <ele>568</ele>
        <time>2021-06-01T15:03:15.871Z</time>
      </trkpt>
      <trkpt lat="44.14857" lon="5.87598">
        <ele>568</ele>
        <time>2021-06-01T15:03:16.871Z</time>
      </trkpt>
      <trkpt lat="44.14856" lon="5.87598">
        <ele>568</ele>
        <time>2021-06-01T15:03:17.871Z</time>
      </trkpt>
      <trkpt lat="44.14855" lon="5.87599">
        <ele>568</ele>
        <time>2021-06-01T15:03:18.871Z</time>
      </trkpt>
      <trkpt lat="44.14854" lon="5.87599">
        <ele>568</ele>
        <time>2021-06-01T15:03:19.871Z</time>
      </trkpt>
      <trkpt lat="44.14852" lon="5.87599">
        <ele>568</ele>
        <time>2021-06-01T15:03:20.871Z</time>
      </trkpt>
      <trkpt lat="44.14851" lon="5.876">
        <ele>567</ele>
        <time>2021-06-01T15:03:21.871Z</time>
      </trkpt>
      <trkpt lat="44.1485" lon="5.876">
        <ele>567</ele>
        <time>2021-06-01T15:03:22.871Z</time>
      </trkpt>
      <trkpt lat="44.14849" lon="5.87601">
        <ele>567</ele>
        <time>2021-06-01T15:03:23.871Z</time>
      </trkpt>
      <trkpt lat="44.14847" lon="5.87601">
        <ele>567</ele>
        <time>2021-06-01T15:03:24.871Z</time>
      </trkpt>
      <trkpt lat="44.14846" lon="5.87601">
        <ele>567</ele>
        <time>2021-06-01T15:03:25.871Z</time>
      </trkpt>
      <trkpt lat="44.14845" lon="5.87601">
        <ele>567</ele>
        <time>2021-06-01T15:03:26.871Z</time>
      </trkpt>
      <trkpt lat="44.14844" lon="5.87601">
        <ele>567</ele>
        <time>2021-06-01T15:03:27.871Z</time>
      </trkpt>
      <trkpt lat="44.14843" lon="5.87602">
        <ele>567</ele>
        <time>2021-06-01T15:03:28.871Z</time>
      </trkpt>
      <trkpt lat="44.14842" lon="5.87602">
        <ele>567</ele>
        <time>2021-06-01T15:03:29.871Z</time>
      </trkpt>
      <trkpt lat="44.1484" lon="5.87602">
        <ele>567</ele>
        <time>2021-06-01T15:03:30.871Z</time>
      </trkpt>
      <trkpt lat="44.14839" lon="5.87602">
        <ele>567</ele>
        <time>2021-06-01T15:03:31.871Z</time>
      </trkpt>
      <trkpt lat="44.14838" lon="5.87602">
        <ele>567</ele>
        <time>2021-06-01T15:03:32.871Z</time>
      </trkpt>
      <trkpt lat="44.14837" lon="5.87602">
        <ele>567</ele>
        <time>2021-06-01T15:03:33.871Z</time>
      </trkpt>
      <trkpt lat="44.14836" lon="5.87602">
        <ele>566</ele>
        <time>2021-06-01T15:03:34.871Z</time>
      </trkpt>
      <trkpt lat="44.14835" lon="5.87602">
        <ele>566</ele>
        <time>2021-06-01T15:03:35.871Z</time>
      </trkpt>
      <trkpt lat="44.14834" lon="5.87602">
        <ele>566</ele>
        <time>2021-06-01T15:03:36.871Z</time>
      </trkpt>
      <trkpt lat="44.14833" lon="5.87602">
        <ele>566</ele>
        <time>2021-06-01T15:03:37.871Z</time>
      </trkpt>
      <trkpt lat="44.14831" lon="5.87603">
        <ele>566</ele>
        <time>2021-06-01T15:03:38.871Z</time>
      </trkpt>
      <trkpt lat="44.1483" lon="5.87603">
        <ele>566</ele>
        <time>2021-06-01T15:03:39.871Z</time>
      </trkpt>
      <trkpt lat="44.14829" lon="5.87603">
        <ele>566</ele>
        <time>2021-06-01T15:03:40.871Z</time>
      </trkpt>
      <trkpt lat="44.14828" lon="5.87603">
        <ele>566</ele>
        <time>2021-06-01T15:03:41.871Z</time>
      </trkpt>
      <trkpt lat="44.14828" lon="5.87603">
        <ele>566</ele>
        <time>2021-06-01T15:03:42.871Z</time>
      </trkpt>
      <trkpt lat="44.14827" lon="5.87603">
        <ele>566</ele>
        <time>2021-06-01T15:03:43.871Z</time>
      </trkpt>
      <trkpt lat="44.14826" lon="5.87604">
        <ele>566</ele>
        <time>2021-06-01T15:03:44.871Z</time>
      </trkpt>
      <trkpt lat="44.14825" lon="5.87605">
        <ele>566</ele>
        <time>2021-06-01T15:03:45.871Z</time>
      </trkpt>
      <trkpt lat="44.14824" lon="5.87607">
        <ele>566</ele>
        <time>2021-06-01T15:03:46.871Z</time>
      </trkpt>
      <trkpt lat="44.14823" lon="5.87609">
        <ele>566</ele>
        <time>2021-06-01T15:03:47.871Z</time>
      </trkpt>
      <trkpt lat="44.14823" lon="5.8761">
        <ele>566</ele>
        <time>2021-06-01T15:03:48.871Z</time>
      </trkpt>
      <trkpt lat="44.14822" lon="5.87611">
        <ele>565</ele>
        <time>2021-06-01T15:03:49.871Z</time>
      </trkpt>
      <trkpt lat="44.14821" lon="5.87611">
        <ele>565</ele>
        <time>2021-06-01T15:03:50.871Z</time>
      </trkpt>
      <trkpt lat="44.14821" lon="5.87613">
        <ele>565</ele>
        <time>2021-06-01T15:03:51.871Z</time>
      </trkpt>
      <trkpt lat="44.14821" lon="5.87614">
        <ele>565</ele>
        <time>2021-06-01T15:03:52.871Z</time>
      </trkpt>
      <trkpt lat="44.14821" lon="5.87616">
        <ele>565</ele>
        <time>2021-06-01T15:03:53.871Z</time>
      </trkpt>
      <trkpt lat="44.14821" lon="5.87617">
        <ele>565</ele>
        <time>2021-06-01T15:03:54.871Z</time>
      </trkpt>
      <trkpt lat="44.14821" lon="5.87617">
        <ele>565</ele>
        <time>2021-06-01T15:03:55.871Z</time>
      </trkpt>
      <trkpt lat="44.14821" lon="5.87618">
        <ele>564</ele>
        <time>2021-06-01T15:03:56.871Z</time>
      </trkpt>
      <trkpt lat="44.14821" lon="5.87619">
        <ele>564</ele>
        <time>2021-06-01T15:03:57.871Z</time>
      </trkpt>
      <trkpt lat="44.14822" lon="5.8762">
        <ele>564</ele>
        <time>2021-06-01T15:03:58.871Z</time>
      </trkpt>
      <trkpt lat="44.14824" lon="5.87621">
        <ele>564</ele>
        <time>2021-06-01T15:03:59.871Z</time>
      </trkpt>
      <trkpt lat="44.14825" lon="5.87621">
        <ele>564</ele>
        <time>2021-06-01T15:04:00.871Z</time>
      </trkpt>
      <trkpt lat="44.14827" lon="5.87622">
        <ele>564</ele>
        <time>2021-06-01T15:04:01.871Z</time>
      </trkpt>
      <trkpt lat="44.14828" lon="5.87623">
        <ele>564</ele>
        <time>2021-06-01T15:04:02.871Z</time>
      </trkpt>
      <trkpt lat="44.1483" lon="5.87623">
        <ele>564</ele>
        <time>2021-06-01T15:04:03.871Z</time>
      </trkpt>
      <trkpt lat="44.14831" lon="5.87623">
        <ele>564</ele>
        <time>2021-06-01T15:04:04.871Z</time>
      </trkpt>
      <trkpt lat="44.14832" lon="5.87624">
        <ele>564</ele>
        <time>2021-06-01T15:04:05.871Z</time>
      </trkpt>
      <trkpt lat="44.14833" lon="5.87624">
        <ele>564</ele>
        <time>2021-06-01T15:04:06.871Z</time>
      </trkpt>
      <trkpt lat="44.14834" lon="5.87624">
        <ele>563</ele>
        <time>2021-06-01T15:04:07.871Z</time>
      </trkpt>
      <trkpt lat="44.14835" lon="5.87624">
        <ele>563</ele>
        <time>2021-06-01T15:04:08.871Z</time>
      </trkpt>
      <trkpt lat="44.14836" lon="5.87624">
        <ele>563</ele>
        <time>2021-06-01T15:04:09.871Z</time>
      </trkpt>
      <trkpt lat="44.14837" lon="5.87624">
        <ele>563</ele>
        <time>2021-06-01T15:04:10.871Z</time>
      </trkpt>
      <trkpt lat="44.14838" lon="5.87624">
        <ele>563</ele>
        <time>2021-06-01T15:04:11.871Z</time>
      </trkpt>
      <trkpt lat="44.14839" lon="5.87624">
        <ele>563</ele>
        <time>2021-06-01T15:04:12.871Z</time>
      </trkpt>
      <trkpt lat="44.14839" lon="5.87624">
        <ele>563</ele>
        <time>2021-06-01T15:04:13.871Z</time>
      </trkpt>
      <trkpt lat="44.1484" lon="5.87624">
        <ele>563</ele>
        <time>2021-06-01T15:04:14.871Z</time>
      </trkpt>
      <trkpt lat="44.14841" lon="5.87623">
        <ele>563</ele>
        <time>2021-06-01T15:04:15.871Z</time>
      </trkpt>
      <trkpt lat="44.14842" lon="5.87623">
        <ele>563</ele>
        <time>2021-06-01T15:04:16.871Z</time>
      </trkpt>
      <trkpt lat="44.14843" lon="5.87623">
        <ele>563</ele>
        <time>2021-06-01T15:04:17.871Z</time>
      </trkpt>
      <trkpt lat="44.14843" lon="5.87622">
        <ele>562</ele>
        <time>2021-06-01T15:04:18.871Z</time>
      </trkpt>
      <trkpt lat="44.14844" lon="5.87621">
        <ele>562</ele>
        <time>2021-06-01T15:04:19.871Z</time>
      </trkpt>
      <trkpt lat="44.14845" lon="5.87621">
        <ele>562</ele>
        <time>2021-06-01T15:04:20.871Z</time>
      </trkpt>
      <trkpt lat="44.14847" lon="5.87621">
        <ele>562</ele>
        <time>2021-06-01T15:04:21.871Z</time>
      </trkpt>
      <trkpt lat="44.14849" lon="5.8762">
        <ele>562</ele>
        <time>2021-06-01T15:04:22.871Z</time>
      </trkpt>
      <trkpt lat="44.1485" lon="5.8762">
        <ele>562</ele>
        <time>2021-06-01T15:04:23.871Z</time>
      </trkpt>
      <trkpt lat="44.14852" lon="5.8762">
        <ele>561</ele>
        <time>2021-06-01T15:04:24.871Z</time>
      </trkpt>
      <trkpt lat="44.14853" lon="5.8762">
        <ele>561</ele>
        <time>2021-06-01T15:04:25.871Z</time>
      </trkpt>
      <trkpt lat="44.14854" lon="5.87619">
        <ele>561</ele>
        <time>2021-06-01T15:04:26.871Z</time>
      </trkpt>
      <trkpt lat="44.14856" lon="5.87619">
        <ele>561</ele>
        <time>2021-06-01T15:04:27.871Z</time>
      </trkpt>
      <trkpt lat="44.14857" lon="5.87619">
        <ele>561</ele>
        <time>2021-06-01T15:04:28.871Z</time>
      </trkpt>
      <trkpt lat="44.14858" lon="5.87619">
        <ele>561</ele>
        <time>2021-06-01T15:04:29.871Z</time>
      </trkpt>
      <trkpt lat="44.14859" lon="5.87618">
        <ele>561</ele>
        <time>2021-06-01T15:04:30.871Z</time>
      </trkpt>
      <trkpt lat="44.1486" lon="5.87618">
        <ele>561</ele>
        <time>2021-06-01T15:04:31.871Z</time>
      </trkpt>
      <trkpt lat="44.14861" lon="5.87618">
        <ele>560</ele>
        <time>2021-06-01T15:04:32.871Z</time>
      </trkpt>
      <trkpt lat="44.14862" lon="5.87618">
        <ele>560</ele>
        <time>2021-06-01T15:04:33.871Z</time>
      </trkpt>
      <trkpt lat="44.14863" lon="5.87618">
        <ele>560</ele>
        <time>2021-06-01T15:04:34.871Z</time>
      </trkpt>
      <trkpt lat="44.14864" lon="5.87617">
        <ele>560</ele>
        <time>2021-06-01T15:04:35.871Z</time>
      </trkpt>
      <trkpt lat="44.14866" lon="5.87617">
        <ele>560</ele>
        <time>2021-06-01T15:04:36.871Z</time>
      </trkpt>
      <trkpt lat="44.14867" lon="5.87617">
        <ele>560</ele>
        <time>2021-06-01T15:04:37.871Z</time>
      </trkpt>
      <trkpt lat="44.14868" lon="5.87617">
        <ele>560</ele>
        <time>2021-06-01T15:04:38.871Z</time>
      </trkpt>
      <trkpt lat="44.1487" lon="5.87617">
        <ele>560</ele>
        <time>2021-06-01T15:04:39.871Z</time>
      </trkpt>
      <trkpt lat="44.14871" lon="5.87617">
        <ele>560</ele>
        <time>2021-06-01T15:04:40.871Z</time>
      </trkpt>
      <trkpt lat="44.14872" lon="5.87617">
        <ele>560</ele>
        <time>2021-06-01T15:04:41.871Z</time>
      </trkpt>
      <trkpt lat="44.14874" lon="5.87616">
        <ele>560</ele>
        <time>2021-06-01T15:04:42.871Z</time>
      </trkpt>
      <trkpt lat="44.14875" lon="5.87615">
        <ele>560</ele>
        <time>2021-06-01T15:04:43.871Z</time>
      </trkpt>
      <trkpt lat="44.14877" lon="5.87615">
        <ele>559</ele>
        <time>2021-06-01T15:04:44.871Z</time>
      </trkpt>
      <trkpt lat="44.14878" lon="5.87614">
        <ele>559</ele>
        <time>2021-06-01T15:04:45.871Z</time>
      </trkpt>
      <trkpt lat="44.1488" lon="5.87614">
        <ele>559</ele>
        <time>2021-06-01T15:04:46.871Z</time>
      </trkpt>
      <trkpt lat="44.14881" lon="5.87613">
        <ele>559</ele>
        <time>2021-06-01T15:04:47.871Z</time>
      </trkpt>
      <trkpt lat="44.14882" lon="5.87613">
        <ele>559</ele>
        <time>2021-06-01T15:04:48.871Z</time>
      </trkpt>
      <trkpt lat="44.14884" lon="5.87612">
        <ele>559</ele>
        <time>2021-06-01T15:04:49.871Z</time>
      </trkpt>
      <trkpt lat="44.14885" lon="5.87612">
        <ele>559</ele>
        <time>2021-06-01T15:04:50.871Z</time>
      </trkpt>
      <trkpt lat="44.14887" lon="5.8761">
        <ele>559</ele>
        <time>2021-06-01T15:04:51.871Z</time>
      </trkpt>
      <trkpt lat="44.14888" lon="5.87609">
        <ele>559</ele>
        <time>2021-06-01T15:04:52.871Z</time>
      </trkpt>
      <trkpt lat="44.1489" lon="5.87609">
        <ele>559</ele>
        <time>2021-06-01T15:04:53.871Z</time>
      </trkpt>
      <trkpt lat="44.1489" lon="5.87608">
        <ele>559</ele>
        <time>2021-06-01T15:04:54.871Z</time>
      </trkpt>
      <trkpt lat="44.14891" lon="5.87608">
        <ele>559</ele>
        <time>2021-06-01T15:04:55.871Z</time>
      </trkpt>
      <trkpt lat="44.14891" lon="5.87607">
        <ele>559</ele>
        <time>2021-06-01T15:04:56.871Z</time>
      </trkpt>
      <trkpt lat="44.14892" lon="5.87606">
        <ele>559</ele>
        <time>2021-06-01T15:04:57.871Z</time>
      </trkpt>
      <trkpt lat="44.14893" lon="5.87605">
        <ele>559</ele>
        <time>2021-06-01T15:04:58.871Z</time>
      </trkpt>
      <trkpt lat="44.14894" lon="5.87604">
        <ele>559</ele>
        <time>2021-06-01T15:04:59.871Z</time>
      </trkpt>
      <trkpt lat="44.14895" lon="5.87603">
        <ele>559</ele>
        <time>2021-06-01T15:05:00.871Z</time>
      </trkpt>
      <trkpt lat="44.14896" lon="5.87601">
        <ele>559</ele>
        <time>2021-06-01T15:05:01.871Z</time>
      </trkpt>
      <trkpt lat="44.14898" lon="5.876">
        <ele>559</ele>
        <time>2021-06-01T15:05:02.871Z</time>
      </trkpt>
      <trkpt lat="44.14899" lon="5.87599">
        <ele>560</ele>
        <time>2021-06-01T15:05:03.871Z</time>
      </trkpt>
      <trkpt lat="44.149" lon="5.87599">
        <ele>560</ele>
        <time>2021-06-01T15:05:04.871Z</time>
      </trkpt>
      <trkpt lat="44.14901" lon="5.87598">
        <ele>560</ele>
        <time>2021-06-01T15:05:05.871Z</time>
      </trkpt>
      <trkpt lat="44.14902" lon="5.87597">
        <ele>560</ele>
        <time>2021-06-01T15:05:06.871Z</time>
      </trkpt>
      <trkpt lat="44.14903" lon="5.87596">
        <ele>560</ele>
        <time>2021-06-01T15:05:07.871Z</time>
      </trkpt>
      <trkpt lat="44.14905" lon="5.87595">
        <ele>560</ele>
        <time>2021-06-01T15:05:08.871Z</time>
      </trkpt>
      <trkpt lat="44.14906" lon="5.87594">
        <ele>560</ele>
        <time>2021-06-01T15:05:09.871Z</time>
      </trkpt>
      <trkpt lat="44.14907" lon="5.87593">
        <ele>560</ele>
        <time>2021-06-01T15:05:10.871Z</time>
      </trkpt>
      <trkpt lat="44.14908" lon="5.87592">
        <ele>560</ele>
        <time>2021-06-01T15:05:11.871Z</time>
      </trkpt>
      <trkpt lat="44.1491" lon="5.87592">
        <ele>560</ele>
        <time>2021-06-01T15:05:12.871Z</time>
      </trkpt>
      <trkpt lat="44.14911" lon="5.87591">
        <ele>560</ele>
        <time>2021-06-01T15:05:13.871Z</time>
      </trkpt>
      <trkpt lat="44.14912" lon="5.87591">
        <ele>560</ele>
        <time>2021-06-01T15:05:14.871Z</time>
      </trkpt>
      <trkpt lat="44.14913" lon="5.8759">
        <ele>560</ele>
        <time>2021-06-01T15:05:15.871Z</time>
      </trkpt>
      <trkpt lat="44.14914" lon="5.8759">
        <ele>560</ele>
        <time>2021-06-01T15:05:16.871Z</time>
      </trkpt>
      <trkpt lat="44.14915" lon="5.8759">
        <ele>559</ele>
        <time>2021-06-01T15:05:17.871Z</time>
      </trkpt>
      <trkpt lat="44.14916" lon="5.87589">
        <ele>559</ele>
        <time>2021-06-01T15:05:18.871Z</time>
      </trkpt>
      <trkpt lat="44.14917" lon="5.87588">
        <ele>559</ele>
        <time>2021-06-01T15:05:19.871Z</time>
      </trkpt>
      <trkpt lat="44.14918" lon="5.87588">
        <ele>559</ele>
        <time>2021-06-01T15:05:20.871Z</time>
      </trkpt>
      <trkpt lat="44.14919" lon="5.87587">
        <ele>559</ele>
        <time>2021-06-01T15:05:21.871Z</time>
      </trkpt>
      <trkpt lat="44.1492" lon="5.87587">
        <ele>559</ele>
        <time>2021-06-01T15:05:22.871Z</time>
      </trkpt>
      <trkpt lat="44.14921" lon="5.87587">
        <ele>559</ele>
        <time>2021-06-01T15:05:23.871Z</time>
      </trkpt>
      <trkpt lat="44.14922" lon="5.87586">
        <ele>559</ele>
        <time>2021-06-01T15:05:24.871Z</time>
      </trkpt>
      <trkpt lat="44.14923" lon="5.87585">
        <ele>559</ele>
        <time>2021-06-01T15:05:25.871Z</time>
      </trkpt>
      <trkpt lat="44.14924" lon="5.87585">
        <ele>559</ele>
        <time>2021-06-01T15:05:26.871Z</time>
      </trkpt>
      <trkpt lat="44.14925" lon="5.87584">
        <ele>559</ele>
        <time>2021-06-01T15:05:27.871Z</time>
      </trkpt>
      <trkpt lat="44.14926" lon="5.87584">
        <ele>559</ele>
        <time>2021-06-01T15:05:28.871Z</time>
      </trkpt>
      <trkpt lat="44.14927" lon="5.87583">
        <ele>559</ele>
        <time>2021-06-01T15:05:29.871Z</time>
      </trkpt>
      <trkpt lat="44.14928" lon="5.87583">
        <ele>559</ele>
        <time>2021-06-01T15:05:30.871Z</time>
      </trkpt>
      <trkpt lat="44.14929" lon="5.87582">
        <ele>559</ele>
        <time>2021-06-01T15:05:31.871Z</time>
      </trkpt>
      <trkpt lat="44.1493" lon="5.87582">
        <ele>559</ele>
        <time>2021-06-01T15:05:32.871Z</time>
      </trkpt>
      <trkpt lat="44.14931" lon="5.87581">
        <ele>559</ele>
        <time>2021-06-01T15:05:33.871Z</time>
      </trkpt>
      <trkpt lat="44.14933" lon="5.87581">
        <ele>559</ele>
        <time>2021-06-01T15:05:34.871Z</time>
      </trkpt>
      <trkpt lat="44.14934" lon="5.87581">
        <ele>559</ele>
        <time>2021-06-01T15:05:35.871Z</time>
      </trkpt>
      <trkpt lat="44.14935" lon="5.87581">
        <ele>558</ele>
        <time>2021-06-01T15:05:36.871Z</time>
      </trkpt>
      <trkpt lat="44.14936" lon="5.87581">
        <ele>558</ele>
        <time>2021-06-01T15:05:37.871Z</time>
      </trkpt>
      <trkpt lat="44.14937" lon="5.8758">
        <ele>558</ele>
        <time>2021-06-01T15:05:38.871Z</time>
      </trkpt>
      <trkpt lat="44.14939" lon="5.8758">
        <ele>558</ele>
        <time>2021-06-01T15:05:39.871Z</time>
      </trkpt>
      <trkpt lat="44.14941" lon="5.87579">
        <ele>558</ele>
        <time>2021-06-01T15:05:40.871Z</time>
      </trkpt>
      <trkpt lat="44.14942" lon="5.87578">
        <ele>558</ele>
        <time>2021-06-01T15:05:41.871Z</time>
      </trkpt>
      <trkpt lat="44.14943" lon="5.87578">
        <ele>558</ele>
        <time>2021-06-01T15:05:42.871Z</time>
      </trkpt>
      <trkpt lat="44.14944" lon="5.87578">
        <ele>558</ele>
        <time>2021-06-01T15:05:43.871Z</time>
      </trkpt>
      <trkpt lat="44.14945" lon="5.87578">
        <ele>558</ele>
        <time>2021-06-01T15:05:44.871Z</time>
      </trkpt>
      <trkpt lat="44.14945" lon="5.87578">
        <ele>557</ele>
        <time>2021-06-01T15:05:45.871Z</time>
      </trkpt>
      <trkpt lat="44.14945" lon="5.87578">
        <ele>557</ele>
        <time>2021-06-01T15:05:46.871Z</time>
      </trkpt>
      <trkpt lat="44.14946" lon="5.87577">
        <ele>557</ele>
        <time>2021-06-01T15:05:47.871Z</time>
      </trkpt>
      <trkpt lat="44.14947" lon="5.87577">
        <ele>557</ele>
        <time>2021-06-01T15:05:48.871Z</time>
      </trkpt>
      <trkpt lat="44.14948" lon="5.87577">
        <ele>557</ele>
        <time>2021-06-01T15:05:49.871Z</time>
      </trkpt>
      <trkpt lat="44.1495" lon="5.87577">
        <ele>557</ele>
        <time>2021-06-01T15:05:50.871Z</time>
      </trkpt>
      <trkpt lat="44.14951" lon="5.87576">
        <ele>557</ele>
        <time>2021-06-01T15:05:51.871Z</time>
      </trkpt>
      <trkpt lat="44.14952" lon="5.87576">
        <ele>557</ele>
        <time>2021-06-01T15:05:52.871Z</time>
      </trkpt>
      <trkpt lat="44.14953" lon="5.87576">
        <ele>556</ele>
        <time>2021-06-01T15:05:53.871Z</time>
      </trkpt>
      <trkpt lat="44.14954" lon="5.87577">
        <ele>556</ele>
        <time>2021-06-01T15:05:54.871Z</time>
      </trkpt>
      <trkpt lat="44.14954" lon="5.87577">
        <ele>556</ele>
        <time>2021-06-01T15:05:55.871Z</time>
      </trkpt>
      <trkpt lat="44.14956" lon="5.87577">
        <ele>556</ele>
        <time>2021-06-01T15:05:56.871Z</time>
      </trkpt>
      <trkpt lat="44.14957" lon="5.87577">
        <ele>556</ele>
        <time>2021-06-01T15:05:57.871Z</time>
      </trkpt>
      <trkpt lat="44.14959" lon="5.87576">
        <ele>556</ele>
        <time>2021-06-01T15:05:58.871Z</time>
      </trkpt>
      <trkpt lat="44.14961" lon="5.87576">
        <ele>556</ele>
        <time>2021-06-01T15:05:59.871Z</time>
      </trkpt>
      <trkpt lat="44.14962" lon="5.87576">
        <ele>556</ele>
        <time>2021-06-01T15:06:00.871Z</time>
      </trkpt>
      <trkpt lat="44.14963" lon="5.87576">
        <ele>556</ele>
        <time>2021-06-01T15:06:01.871Z</time>
      </trkpt>
      <trkpt lat="44.14964" lon="5.87576">
        <ele>555</ele>
        <time>2021-06-01T15:06:02.871Z</time>
      </trkpt>
      <trkpt lat="44.14965" lon="5.87576">
        <ele>555</ele>
        <time>2021-06-01T15:06:03.871Z</time>
      </trkpt>
      <trkpt lat="44.14965" lon="5.87576">
        <ele>555</ele>
        <time>2021-06-01T15:06:04.871Z</time>
      </trkpt>
      <trkpt lat="44.14966" lon="5.87575">
        <ele>555</ele>
        <time>2021-06-01T15:06:05.871Z</time>
      </trkpt>
      <trkpt lat="44.14967" lon="5.87575">
        <ele>555</ele>
        <time>2021-06-01T15:06:06.871Z</time>
      </trkpt>
      <trkpt lat="44.14969" lon="5.87575">
        <ele>555</ele>
        <time>2021-06-01T15:06:07.871Z</time>
      </trkpt>
      <trkpt lat="44.1497" lon="5.87574">
        <ele>555</ele>
        <time>2021-06-01T15:06:08.871Z</time>
      </trkpt>
      <trkpt lat="44.14971" lon="5.87574">
        <ele>555</ele>
        <time>2021-06-01T15:06:09.871Z</time>
      </trkpt>
      <trkpt lat="44.14972" lon="5.87574">
        <ele>555</ele>
        <time>2021-06-01T15:06:10.871Z</time>
      </trkpt>
      <trkpt lat="44.14973" lon="5.87574">
        <ele>555</ele>
        <time>2021-06-01T15:06:11.871Z</time>
      </trkpt>
      <trkpt lat="44.14973" lon="5.87574">
        <ele>555</ele>
        <time>2021-06-01T15:06:12.871Z</time>
      </trkpt>
      <trkpt lat="44.14974" lon="5.87574">
        <ele>555</ele>
        <time>2021-06-01T15:06:13.871Z</time>
      </trkpt>
      <trkpt lat="44.14974" lon="5.87574">
        <ele>555</ele>
        <time>2021-06-01T15:06:14.871Z</time>
      </trkpt>
      <trkpt lat="44.14975" lon="5.87575">
        <ele>555</ele>
        <time>2021-06-01T15:06:15.871Z</time>
      </trkpt>
      <trkpt lat="44.14976" lon="5.87575">
        <ele>555</ele>
        <time>2021-06-01T15:06:16.871Z</time>
      </trkpt>
      <trkpt lat="44.14978" lon="5.87576">
        <ele>554</ele>
        <time>2021-06-01T15:06:17.871Z</time>
      </trkpt>
      <trkpt lat="44.1498" lon="5.87576">
        <ele>554</ele>
        <time>2021-06-01T15:06:18.871Z</time>
      </trkpt>
      <trkpt lat="44.14982" lon="5.87576">
        <ele>554</ele>
        <time>2021-06-01T15:06:19.871Z</time>
      </trkpt>
      <trkpt lat="44.14983" lon="5.87577">
        <ele>554</ele>
        <time>2021-06-01T15:06:20.871Z</time>
      </trkpt>
      <trkpt lat="44.14984" lon="5.87577">
        <ele>554</ele>
        <time>2021-06-01T15:06:21.871Z</time>
      </trkpt>
      <trkpt lat="44.14984" lon="5.87577">
        <ele>553</ele>
        <time>2021-06-01T15:06:22.871Z</time>
      </trkpt>
      <trkpt lat="44.14985" lon="5.87577">
        <ele>553</ele>
        <time>2021-06-01T15:06:23.871Z</time>
      </trkpt>
      <trkpt lat="44.14987" lon="5.87578">
        <ele>553</ele>
        <time>2021-06-01T15:06:24.871Z</time>
      </trkpt>
      <trkpt lat="44.14988" lon="5.87579">
        <ele>553</ele>
        <time>2021-06-01T15:06:25.871Z</time>
      </trkpt>
      <trkpt lat="44.1499" lon="5.8758">
        <ele>553</ele>
        <time>2021-06-01T15:06:26.871Z</time>
      </trkpt>
      <trkpt lat="44.14992" lon="5.8758">
        <ele>552</ele>
        <time>2021-06-01T15:06:27.871Z</time>
      </trkpt>
      <trkpt lat="44.14994" lon="5.87581">
        <ele>552</ele>
        <time>2021-06-01T15:06:28.871Z</time>
      </trkpt>
      <trkpt lat="44.14995" lon="5.87582">
        <ele>552</ele>
        <time>2021-06-01T15:06:29.871Z</time>
      </trkpt>
      <trkpt lat="44.14996" lon="5.87582">
        <ele>552</ele>
        <time>2021-06-01T15:06:30.871Z</time>
      </trkpt>
      <trkpt lat="44.14997" lon="5.87582">
        <ele>552</ele>
        <time>2021-06-01T15:06:31.871Z</time>
      </trkpt>
      <trkpt lat="44.14998" lon="5.87583">
        <ele>552</ele>
        <time>2021-06-01T15:06:32.871Z</time>
      </trkpt>
      <trkpt lat="44.14999" lon="5.87584">
        <ele>552</ele>
        <time>2021-06-01T15:06:33.871Z</time>
      </trkpt>
      <trkpt lat="44.15" lon="5.87585">
        <ele>551</ele>
        <time>2021-06-01T15:06:34.871Z</time>
      </trkpt>
      <trkpt lat="44.15001" lon="5.87586">
        <ele>551</ele>
        <time>2021-06-01T15:06:35.871Z</time>
      </trkpt>
      <trkpt lat="44.15002" lon="5.87587">
        <ele>551</ele>
        <time>2021-06-01T15:06:36.871Z</time>
      </trkpt>
      <trkpt lat="44.15003" lon="5.87588">
        <ele>551</ele>
        <time>2021-06-01T15:06:37.871Z</time>
      </trkpt>
      <trkpt lat="44.15004" lon="5.87588">
        <ele>551</ele>
        <time>2021-06-01T15:06:38.871Z</time>
      </trkpt>
      <trkpt lat="44.15005" lon="5.87589">
        <ele>551</ele>
        <time>2021-06-01T15:06:39.871Z</time>
      </trkpt>
      <trkpt lat="44.15006" lon="5.87591">
        <ele>551</ele>
        <time>2021-06-01T15:06:40.871Z</time>
      </trkpt>
      <trkpt lat="44.15007" lon="5.87592">
        <ele>551</ele>
        <time>2021-06-01T15:06:41.871Z</time>
      </trkpt>
      <trkpt lat="44.15007" lon="5.87594">
        <ele>550</ele>
        <time>2021-06-01T15:06:42.871Z</time>
      </trkpt>
      <trkpt lat="44.15008" lon="5.87596">
        <ele>550</ele>
        <time>2021-06-01T15:06:43.871Z</time>
      </trkpt>
      <trkpt lat="44.15009" lon="5.87598">
        <ele>550</ele>
        <time>2021-06-01T15:06:44.871Z</time>
      </trkpt>
      <trkpt lat="44.1501" lon="5.87599">
        <ele>550</ele>
        <time>2021-06-01T15:06:45.871Z</time>
      </trkpt>
      <trkpt lat="44.1501" lon="5.876">
        <ele>550</ele>
        <time>2021-06-01T15:06:46.871Z</time>
      </trkpt>
      <trkpt lat="44.15011" lon="5.87601">
        <ele>549</ele>
        <time>2021-06-01T15:06:47.871Z</time>
      </trkpt>
      <trkpt lat="44.1501" lon="5.87603">
        <ele>549</ele>
        <time>2021-06-01T15:06:48.871Z</time>
      </trkpt>
      <trkpt lat="44.1501" lon="5.87606">
        <ele>549</ele>
        <time>2021-06-01T15:06:49.871Z</time>
      </trkpt>
      <trkpt lat="44.1501" lon="5.87607">
        <ele>548</ele>
        <time>2021-06-01T15:06:50.871Z</time>
      </trkpt>
      <trkpt lat="44.1501" lon="5.87609">
        <ele>548</ele>
        <time>2021-06-01T15:06:51.871Z</time>
      </trkpt>
      <trkpt lat="44.15009" lon="5.87611">
        <ele>548</ele>
        <time>2021-06-01T15:06:52.871Z</time>
      </trkpt>
      <trkpt lat="44.15009" lon="5.87613">
        <ele>547</ele>
        <time>2021-06-01T15:06:53.871Z</time>
      </trkpt>
      <trkpt lat="44.15008" lon="5.87616">
        <ele>547</ele>
        <time>2021-06-01T15:06:54.871Z</time>
      </trkpt>
      <trkpt lat="44.15008" lon="5.87618">
        <ele>547</ele>
        <time>2021-06-01T15:06:55.871Z</time>
      </trkpt>
      <trkpt lat="44.15008" lon="5.87619">
        <ele>547</ele>
        <time>2021-06-01T15:06:56.871Z</time>
      </trkpt>
      <trkpt lat="44.15008" lon="5.8762">
        <ele>547</ele>
        <time>2021-06-01T15:06:57.871Z</time>
      </trkpt>
      <trkpt lat="44.15007" lon="5.87621">
        <ele>546</ele>
        <time>2021-06-01T15:06:58.871Z</time>
      </trkpt>
      <trkpt lat="44.15007" lon="5.87623">
        <ele>546</ele>
        <time>2021-06-01T15:06:59.871Z</time>
      </trkpt>
      <trkpt lat="44.15007" lon="5.87625">
        <ele>546</ele>
        <time>2021-06-01T15:07:00.871Z</time>
      </trkpt>
      <trkpt lat="44.15006" lon="5.87626">
        <ele>546</ele>
        <time>2021-06-01T15:07:01.871Z</time>
      </trkpt>
      <trkpt lat="44.15006" lon="5.87627">
        <ele>546</ele>
        <time>2021-06-01T15:07:02.871Z</time>
      </trkpt>
      <trkpt lat="44.15005" lon="5.87629">
        <ele>546</ele>
        <time>2021-06-01T15:07:03.871Z</time>
      </trkpt>
      <trkpt lat="44.15006" lon="5.87631">
        <ele>546</ele>
        <time>2021-06-01T15:07:04.871Z</time>
      </trkpt>
      <trkpt lat="44.15005" lon="5.87632">
        <ele>546</ele>
        <time>2021-06-01T15:07:05.871Z</time>
      </trkpt>
      <trkpt lat="44.15005" lon="5.87633">
        <ele>546</ele>
        <time>2021-06-01T15:07:06.871Z</time>
      </trkpt>
      <trkpt lat="44.15005" lon="5.87635">
        <ele>546</ele>
        <time>2021-06-01T15:07:07.871Z</time>
      </trkpt>
      <trkpt lat="44.15005" lon="5.87637">
        <ele>545</ele>
        <time>2021-06-01T15:07:08.871Z</time>
      </trkpt>
      <trkpt lat="44.15004" lon="5.87639">
        <ele>545</ele>
        <time>2021-06-01T15:07:09.871Z</time>
      </trkpt>
      <trkpt lat="44.15004" lon="5.8764">
        <ele>545</ele>
        <time>2021-06-01T15:07:10.871Z</time>
      </trkpt>
      <trkpt lat="44.15003" lon="5.87641">
        <ele>545</ele>
        <time>2021-06-01T15:07:11.871Z</time>
      </trkpt>
      <trkpt lat="44.15003" lon="5.87643">
        <ele>545</ele>
        <time>2021-06-01T15:07:12.871Z</time>
      </trkpt>
      <trkpt lat="44.15002" lon="5.87645">
        <ele>545</ele>
        <time>2021-06-01T15:07:13.871Z</time>
      </trkpt>
      <trkpt lat="44.15003" lon="5.87646">
        <ele>544</ele>
        <time>2021-06-01T15:07:14.871Z</time>
      </trkpt>
      <trkpt lat="44.15003" lon="5.87647">
        <ele>544</ele>
        <time>2021-06-01T15:07:15.871Z</time>
      </trkpt>
      <trkpt lat="44.15002" lon="5.87648">
        <ele>544</ele>
        <time>2021-06-01T15:07:16.871Z</time>
      </trkpt>
      <trkpt lat="44.15001" lon="5.87649">
        <ele>544</ele>
        <time>2021-06-01T15:07:17.871Z</time>
      </trkpt>
      <trkpt lat="44.15001" lon="5.87651">
        <ele>544</ele>
        <time>2021-06-01T15:07:18.871Z</time>
      </trkpt>
      <trkpt lat="44.15" lon="5.87653">
        <ele>544</ele>
        <time>2021-06-01T15:07:19.871Z</time>
      </trkpt>
      <trkpt lat="44.15" lon="5.87654">
        <ele>544</ele>
        <time>2021-06-01T15:07:20.871Z</time>
      </trkpt>
      <trkpt lat="44.14999" lon="5.87655">
        <ele>544</ele>
        <time>2021-06-01T15:07:21.871Z</time>
      </trkpt>
      <trkpt lat="44.14998" lon="5.87656">
        <ele>544</ele>
        <time>2021-06-01T15:07:22.871Z</time>
      </trkpt>
      <trkpt lat="44.14998" lon="5.87658">
        <ele>544</ele>
        <time>2021-06-01T15:07:23.871Z</time>
      </trkpt>
      <trkpt lat="44.14998" lon="5.87659">
        <ele>544</ele>
        <time>2021-06-01T15:07:24.871Z</time>
      </trkpt>
      <trkpt lat="44.14997" lon="5.8766">
        <ele>544</ele>
        <time>2021-06-01T15:07:25.871Z</time>
      </trkpt>
      <trkpt lat="44.14996" lon="5.87662">
        <ele>544</ele>
        <time>2021-06-01T15:07:26.871Z</time>
      </trkpt>
      <trkpt lat="44.14995" lon="5.87663">
        <ele>544</ele>
        <time>2021-06-01T15:07:27.871Z</time>
      </trkpt>
      <trkpt lat="44.14995" lon="5.87665">
        <ele>544</ele>
        <time>2021-06-01T15:07:28.871Z</time>
      </trkpt>
      <trkpt lat="44.14994" lon="5.87666">
        <ele>544</ele>
        <time>2021-06-01T15:07:29.871Z</time>
      </trkpt>
      <trkpt lat="44.14993" lon="5.87668">
        <ele>544</ele>
        <time>2021-06-01T15:07:30.871Z</time>
      </trkpt>
      <trkpt lat="44.14992" lon="5.87669">
        <ele>544</ele>
        <time>2021-06-01T15:07:31.871Z</time>
      </trkpt>
      <trkpt lat="44.14991" lon="5.8767">
        <ele>544</ele>
        <time>2021-06-01T15:07:32.871Z</time>
      </trkpt>
      <trkpt lat="44.14991" lon="5.87672">
        <ele>544</ele>
        <time>2021-06-01T15:07:33.871Z</time>
      </trkpt>
      <trkpt lat="44.1499" lon="5.87673">
        <ele>544</ele>
        <time>2021-06-01T15:07:34.871Z</time>
      </trkpt>
      <trkpt lat="44.1499" lon="5.87675">
        <ele>544</ele>
        <time>2021-06-01T15:07:35.871Z</time>
      </trkpt>
      <trkpt lat="44.1499" lon="5.87676">
        <ele>544</ele>
        <time>2021-06-01T15:07:36.871Z</time>
      </trkpt>
      <trkpt lat="44.14989" lon="5.87678">
        <ele>544</ele>
        <time>2021-06-01T15:07:37.871Z</time>
      </trkpt>
      <trkpt lat="44.14989" lon="5.87679">
        <ele>544</ele>
        <time>2021-06-01T15:07:38.871Z</time>
      </trkpt>
      <trkpt lat="44.14989" lon="5.8768">
        <ele>544</ele>
        <time>2021-06-01T15:07:39.871Z</time>
      </trkpt>
      <trkpt lat="44.14988" lon="5.87682">
        <ele>545</ele>
        <time>2021-06-01T15:07:40.871Z</time>
      </trkpt>
      <trkpt lat="44.14987" lon="5.87683">
        <ele>545</ele>
        <time>2021-06-01T15:07:41.871Z</time>
      </trkpt>
      <trkpt lat="44.14986" lon="5.87685">
        <ele>545</ele>
        <time>2021-06-01T15:07:42.871Z</time>
      </trkpt>
      <trkpt lat="44.14986" lon="5.87685">
        <ele>545</ele>
        <time>2021-06-01T15:07:43.871Z</time>
      </trkpt>
      <trkpt lat="44.14985" lon="5.87686">
        <ele>545</ele>
        <time>2021-06-01T15:07:44.871Z</time>
      </trkpt>
      <trkpt lat="44.14984" lon="5.87687">
        <ele>545</ele>
        <time>2021-06-01T15:07:45.871Z</time>
      </trkpt>
      <trkpt lat="44.14983" lon="5.87688">
        <ele>545</ele>
        <time>2021-06-01T15:07:46.871Z</time>
      </trkpt>
      <trkpt lat="44.14982" lon="5.87689">
        <ele>545</ele>
        <time>2021-06-01T15:07:47.871Z</time>
      </trkpt>
      <trkpt lat="44.14982" lon="5.8769">
        <ele>545</ele>
        <time>2021-06-01T15:07:48.871Z</time>
      </trkpt>
      <trkpt lat="44.14981" lon="5.87691">
        <ele>545</ele>
        <time>2021-06-01T15:07:49.871Z</time>
      </trkpt>
      <trkpt lat="44.1498" lon="5.87692">
        <ele>545</ele>
        <time>2021-06-01T15:07:50.871Z</time>
      </trkpt>
      <trkpt lat="44.1498" lon="5.87693">
        <ele>545</ele>
        <time>2021-06-01T15:07:51.871Z</time>
      </trkpt>
      <trkpt lat="44.14979" lon="5.87694">
        <ele>545</ele>
        <time>2021-06-01T15:07:52.871Z</time>
      </trkpt>
      <trkpt lat="44.14978" lon="5.87695">
        <ele>545</ele>
        <time>2021-06-01T15:07:53.871Z</time>
      </trkpt>
      <trkpt lat="44.14977" lon="5.87697">
        <ele>545</ele>
        <time>2021-06-01T15:07:54.871Z</time>
      </trkpt>
      <trkpt lat="44.14976" lon="5.87698">
        <ele>545</ele>
        <time>2021-06-01T15:07:55.871Z</time>
      </trkpt>
      <trkpt lat="44.14975" lon="5.87698">
        <ele>545</ele>
        <time>2021-06-01T15:07:56.871Z</time>
      </trkpt>
      <trkpt lat="44.14975" lon="5.87699">
        <ele>546</ele>
        <time>2021-06-01T15:07:57.871Z</time>
      </trkpt>
      <trkpt lat="44.14974" lon="5.877">
        <ele>546</ele>
        <time>2021-06-01T15:07:58.871Z</time>
      </trkpt>
      <trkpt lat="44.14972" lon="5.877">
        <ele>546</ele>
        <time>2021-06-01T15:07:59.871Z</time>
      </trkpt>
      <trkpt lat="44.14971" lon="5.87701">
        <ele>546</ele>
        <time>2021-06-01T15:08:00.871Z</time>
      </trkpt>
      <trkpt lat="44.1497" lon="5.87701">
        <ele>546</ele>
        <time>2021-06-01T15:08:01.871Z</time>
      </trkpt>
      <trkpt lat="44.14969" lon="5.87702">
        <ele>546</ele>
        <time>2021-06-01T15:08:02.871Z</time>
      </trkpt>
      <trkpt lat="44.14968" lon="5.87702">
        <ele>546</ele>
        <time>2021-06-01T15:08:03.871Z</time>
      </trkpt>
      <trkpt lat="44.14966" lon="5.87702">
        <ele>546</ele>
        <time>2021-06-01T15:08:04.871Z</time>
      </trkpt>
      <trkpt lat="44.14965" lon="5.87702">
        <ele>546</ele>
        <time>2021-06-01T15:08:05.871Z</time>
      </trkpt>
      <trkpt lat="44.14964" lon="5.87703">
        <ele>546</ele>
        <time>2021-06-01T15:08:06.871Z</time>
      </trkpt>
      <trkpt lat="44.14963" lon="5.87703">
        <ele>546</ele>
        <time>2021-06-01T15:08:07.871Z</time>
      </trkpt>
      <trkpt lat="44.14962" lon="5.87703">
        <ele>546</ele>
        <time>2021-06-01T15:08:08.871Z</time>
      </trkpt>
      <trkpt lat="44.14961" lon="5.87704">
        <ele>546</ele>
        <time>2021-06-01T15:08:09.871Z</time>
      </trkpt>
      <trkpt lat="44.1496" lon="5.87704">
        <ele>546</ele>
        <time>2021-06-01T15:08:10.871Z</time>
      </trkpt>
      <trkpt lat="44.14959" lon="5.87705">
        <ele>546</ele>
        <time>2021-06-01T15:08:11.871Z</time>
      </trkpt>
      <trkpt lat="44.14958" lon="5.87705">
        <ele>547</ele>
        <time>2021-06-01T15:08:12.871Z</time>
      </trkpt>
      <trkpt lat="44.14957" lon="5.87705">
        <ele>547</ele>
        <time>2021-06-01T15:08:13.871Z</time>
      </trkpt>
      <trkpt lat="44.14957" lon="5.87706">
        <ele>547</ele>
        <time>2021-06-01T15:08:14.871Z</time>
      </trkpt>
      <trkpt lat="44.14956" lon="5.87706">
        <ele>547</ele>
        <time>2021-06-01T15:08:15.871Z</time>
      </trkpt>
      <trkpt lat="44.14955" lon="5.87708">
        <ele>547</ele>
        <time>2021-06-01T15:08:16.871Z</time>
      </trkpt>
      <trkpt lat="44.14954" lon="5.87709">
        <ele>547</ele>
        <time>2021-06-01T15:08:17.871Z</time>
      </trkpt>
      <trkpt lat="44.14954" lon="5.8771">
        <ele>547</ele>
        <time>2021-06-01T15:08:18.871Z</time>
      </trkpt>
      <trkpt lat="44.14953" lon="5.87711">
        <ele>548</ele>
        <time>2021-06-01T15:08:19.871Z</time>
      </trkpt>
      <trkpt lat="44.14953" lon="5.87712">
        <ele>548</ele>
        <time>2021-06-01T15:08:20.871Z</time>
      </trkpt>
      <trkpt lat="44.14953" lon="5.87712">
        <ele>548</ele>
        <time>2021-06-01T15:08:21.871Z</time>
      </trkpt>
      <trkpt lat="44.14952" lon="5.87713">
        <ele>548</ele>
        <time>2021-06-01T15:08:22.871Z</time>
      </trkpt>
      <trkpt lat="44.14952" lon="5.87714">
        <ele>548</ele>
        <time>2021-06-01T15:08:23.871Z</time>
      </trkpt>
      <trkpt lat="44.14952" lon="5.87715">
        <ele>548</ele>
        <time>2021-06-01T15:08:24.871Z</time>
      </trkpt>
      <trkpt lat="44.14951" lon="5.87716">
        <ele>548</ele>
        <time>2021-06-01T15:08:25.871Z</time>
      </trkpt>
      <trkpt lat="44.1495" lon="5.87718">
        <ele>548</ele>
        <time>2021-06-01T15:08:26.871Z</time>
      </trkpt>
      <trkpt lat="44.1495" lon="5.87718">
        <ele>548</ele>
        <time>2021-06-01T15:08:27.871Z</time>
      </trkpt>
      <trkpt lat="44.14949" lon="5.87719">
        <ele>548</ele>
        <time>2021-06-01T15:08:28.871Z</time>
      </trkpt>
      <trkpt lat="44.14949" lon="5.8772">
        <ele>549</ele>
        <time>2021-06-01T15:08:29.871Z</time>
      </trkpt>
      <trkpt lat="44.14949" lon="5.8772">
        <ele>549</ele>
        <time>2021-06-01T15:08:30.871Z</time>
      </trkpt>
    </trkseg>
  </trk>
</gpx>